<?xml version="1.0" encoding="UTF-8"?>
<gpx version="1.1" creator="Apple Health Export" xmlns="http://www.topografix.com/GPX/1/1" xmlns:xsi="http://www.w3.org/2001/XMLSchema-instance" xsi:schemaLocation="http://www.topografix.com/GPX/1/1 http://www.topografix.com/GPX/1/1/gpx.xsd">
  <metadata>
    <time>2022-04-11T14:56:41Z</time>
  </metadata>
  <trk>
    <name>Route 2021-07-17 4:13pm</name>
    <trkseg>
      <trkpt lon="-4.106042" lat="53.012000"><ele>44.986782</ele><time>2021-07-17T08:50:44Z</time><extensions><speed>0.928030</speed><course>186.149445</course><hAcc>2.411123</hAcc><vAcc>1.993314</vAcc></extensions></trkpt>
      <trkpt lon="-4.106051" lat="53.011994"><ele>45.040775</ele><time>2021-07-17T08:50:45Z</time><extensions><speed>0.927827</speed><course>197.287476</course><hAcc>2.173068</hAcc><vAcc>1.823161</vAcc></extensions></trkpt>
      <trkpt lon="-4.106059" lat="53.011988"><ele>45.094856</ele><time>2021-07-17T08:50:46Z</time><extensions><speed>0.927341</speed><course>197.287476</course><hAcc>1.968379</hAcc><vAcc>1.677037</vAcc></extensions></trkpt>
      <trkpt lon="-4.106067" lat="53.011982"><ele>45.149113</ele><time>2021-07-17T08:50:47Z</time><extensions><speed>0.926695</speed><course>197.287476</course><hAcc>1.797827</hAcc><vAcc>1.555306</vAcc></extensions></trkpt>
      <trkpt lon="-4.106076" lat="53.011976"><ele>45.203587</ele><time>2021-07-17T08:50:48Z</time><extensions><speed>0.925676</speed><course>218.821777</course><hAcc>1.660744</hAcc><vAcc>1.457396</vAcc></extensions></trkpt>
      <trkpt lon="-4.106085" lat="53.011970"><ele>45.258221</ele><time>2021-07-17T08:50:49Z</time><extensions><speed>0.925163</speed><course>207.637573</course><hAcc>1.554876</hAcc><vAcc>1.381775</vAcc></extensions></trkpt>
      <trkpt lon="-4.106094" lat="53.011964"><ele>45.313198</ele><time>2021-07-17T08:50:50Z</time><extensions><speed>0.926754</speed><course>199.781464</course><hAcc>1.476233</hAcc><vAcc>1.325814</vAcc></extensions></trkpt>
      <trkpt lon="-4.106103" lat="53.011959"><ele>45.368626</ele><time>2021-07-17T08:50:51Z</time><extensions><speed>0.931580</speed><course>204.898392</course><hAcc>1.420598</hAcc><vAcc>1.286688</vAcc></extensions></trkpt>
      <trkpt lon="-4.106113" lat="53.011953"><ele>45.424751</ele><time>2021-07-17T08:50:52Z</time><extensions><speed>0.941232</speed><course>218.988647</course><hAcc>1.383569</hAcc><vAcc>1.261333</vAcc></extensions></trkpt>
      <trkpt lon="-4.106123" lat="53.011948"><ele>45.481998</ele><time>2021-07-17T08:50:53Z</time><extensions><speed>0.957192</speed><course>240.875916</course><hAcc>1.360808</hAcc><vAcc>1.246659</vAcc></extensions></trkpt>
      <trkpt lon="-4.106134" lat="53.011943"><ele>45.540955</ele><time>2021-07-17T08:50:54Z</time><extensions><speed>0.980402</speed><course>240.875916</course><hAcc>1.348478</hAcc><vAcc>1.239820</vAcc></extensions></trkpt>
      <trkpt lon="-4.106146" lat="53.011939"><ele>45.602413</ele><time>2021-07-17T08:50:55Z</time><extensions><speed>1.011761</speed><course>240.875916</course><hAcc>1.343633</hAcc><vAcc>1.238428</vAcc></extensions></trkpt>
      <trkpt lon="-4.106158" lat="53.011934"><ele>45.667046</ele><time>2021-07-17T08:50:56Z</time><extensions><speed>1.049921</speed><course>240.875916</course><hAcc>1.344096</hAcc><vAcc>1.240555</vAcc></extensions></trkpt>
      <trkpt lon="-4.106172" lat="53.011930"><ele>45.735725</ele><time>2021-07-17T08:50:57Z</time><extensions><speed>1.090989</speed><course>240.875916</course><hAcc>1.348071</hAcc><vAcc>1.244589</vAcc></extensions></trkpt>
      <trkpt lon="-4.106186" lat="53.011926"><ele>45.809143</ele><time>2021-07-17T08:50:58Z</time><extensions><speed>1.129066</speed><course>240.875916</course><hAcc>1.353995</hAcc><vAcc>1.249181</vAcc></extensions></trkpt>
      <trkpt lon="-4.106201" lat="53.011922"><ele>45.887722</ele><time>2021-07-17T08:50:59Z</time><extensions><speed>1.155111</speed><course>269.430084</course><hAcc>1.360432</hAcc><vAcc>1.253195</vAcc></extensions></trkpt>
      <trkpt lon="-4.106216" lat="53.011918"><ele>45.971615</ele><time>2021-07-17T08:51:00Z</time><extensions><speed>1.164013</speed><course>274.056000</course><hAcc>1.366082</hAcc><vAcc>1.255679</vAcc></extensions></trkpt>
      <trkpt lon="-4.106231" lat="53.011914"><ele>46.062466</ele><time>2021-07-17T08:51:00Z</time><extensions><speed>1.156692</speed><course>273.580658</course><hAcc>1.369868</hAcc><vAcc>1.255766</vAcc></extensions></trkpt>
      <trkpt lon="-4.106247" lat="53.011911"><ele>46.162605</ele><time>2021-07-17T08:51:01Z</time><extensions><speed>1.134927</speed><course>266.285736</course><hAcc>1.370186</hAcc><vAcc>1.252134</vAcc></extensions></trkpt>
      <trkpt lon="-4.106263" lat="53.011907"><ele>46.269032</ele><time>2021-07-17T08:51:02Z</time><extensions><speed>1.102950</speed><course>280.416809</course><hAcc>1.365507</hAcc><vAcc>1.243809</vAcc></extensions></trkpt>
      <trkpt lon="-4.106278" lat="53.011904"><ele>46.381687</ele><time>2021-07-17T08:51:03Z</time><extensions><speed>1.062522</speed><course>289.633057</course><hAcc>1.355247</hAcc><vAcc>1.230420</vAcc></extensions></trkpt>
      <trkpt lon="-4.106292" lat="53.011900"><ele>46.500446</ele><time>2021-07-17T08:51:04Z</time><extensions><speed>1.015211</speed><course>274.042023</course><hAcc>1.339311</hAcc><vAcc>1.211854</vAcc></extensions></trkpt>
      <trkpt lon="-4.106306" lat="53.011897"><ele>46.625072</ele><time>2021-07-17T08:51:05Z</time><extensions><speed>0.964070</speed><course>259.398621</course><hAcc>1.317881</hAcc><vAcc>1.188174</vAcc></extensions></trkpt>
      <trkpt lon="-4.106319" lat="53.011893"><ele>46.755123</ele><time>2021-07-17T08:51:06Z</time><extensions><speed>0.912608</speed><course>235.228027</course><hAcc>1.291059</hAcc><vAcc>1.159494</vAcc></extensions></trkpt>
      <trkpt lon="-4.106331" lat="53.011890"><ele>46.889996</ele><time>2021-07-17T08:51:07Z</time><extensions><speed>0.862104</speed><course>233.943741</course><hAcc>1.259131</hAcc><vAcc>1.126092</vAcc></extensions></trkpt>
      <trkpt lon="-4.106342" lat="53.011886"><ele>47.028889</ele><time>2021-07-17T08:51:08Z</time><extensions><speed>0.812978</speed><course>251.986771</course><hAcc>1.222755</hAcc><vAcc>1.088480</vAcc></extensions></trkpt>
      <trkpt lon="-4.106352" lat="53.011883"><ele>47.170700</ele><time>2021-07-17T08:51:09Z</time><extensions><speed>0.765397</speed><course>230.632401</course><hAcc>1.182809</hAcc><vAcc>1.047360</vAcc></extensions></trkpt>
      <trkpt lon="-4.106362" lat="53.011880"><ele>47.314079</ele><time>2021-07-17T08:51:10Z</time><extensions><speed>0.719478</speed><course>208.539734</course><hAcc>1.140668</hAcc><vAcc>1.003746</vAcc></extensions></trkpt>
      <trkpt lon="-4.106370" lat="53.011876"><ele>47.457458</ele><time>2021-07-17T08:51:11Z</time><extensions><speed>0.675032</speed><course>217.062653</course><hAcc>1.098221</hAcc><vAcc>0.959008</vAcc></extensions></trkpt>
      <trkpt lon="-4.106379" lat="53.011873"><ele>47.598942</ele><time>2021-07-17T08:51:12Z</time><extensions><speed>0.631742</speed><course>216.480164</course><hAcc>1.057390</hAcc><vAcc>0.914734</vAcc></extensions></trkpt>
      <trkpt lon="-4.106386" lat="53.011870"><ele>47.736309</ele><time>2021-07-17T08:51:13Z</time><extensions><speed>0.590241</speed><course>215.204285</course><hAcc>1.019891</hAcc><vAcc>0.872680</vAcc></extensions></trkpt>
      <trkpt lon="-4.106393" lat="53.011867"><ele>47.867245</ele><time>2021-07-17T08:51:14Z</time><extensions><speed>0.550943</speed><course>192.608246</course><hAcc>0.987063</hAcc><vAcc>0.834551</vAcc></extensions></trkpt>
      <trkpt lon="-4.106400" lat="53.011865"><ele>47.989811</ele><time>2021-07-17T08:51:15Z</time><extensions><speed>0.513907</speed><course>196.818375</course><hAcc>0.959640</hAcc><vAcc>0.801583</vAcc></extensions></trkpt>
      <trkpt lon="-4.106406" lat="53.011863"><ele>48.102680</ele><time>2021-07-17T08:51:16Z</time><extensions><speed>0.480237</speed><course>200.564194</course><hAcc>0.937728</hAcc><vAcc>0.774366</vAcc></extensions></trkpt>
      <trkpt lon="-4.106412" lat="53.011860"><ele>48.205025</ele><time>2021-07-17T08:51:17Z</time><extensions><speed>0.451530</speed><course>224.718231</course><hAcc>0.920965</hAcc><vAcc>0.752918</vAcc></extensions></trkpt>
      <trkpt lon="-4.106418" lat="53.011859"><ele>48.296436</ele><time>2021-07-17T08:51:18Z</time><extensions><speed>0.429137</speed><course>228.969803</course><hAcc>0.908683</hAcc><vAcc>0.736807</vAcc></extensions></trkpt>
      <trkpt lon="-4.106424" lat="53.011857"><ele>48.376976</ele><time>2021-07-17T08:51:19Z</time><extensions><speed>0.413996</speed><course>250.366501</course><hAcc>0.900075</hAcc><vAcc>0.725297</vAcc></extensions></trkpt>
      <trkpt lon="-4.106430" lat="53.011856"><ele>48.447216</ele><time>2021-07-17T08:51:20Z</time><extensions><speed>0.406756</speed><course>-1.000000</course><hAcc>0.894314</hAcc><vAcc>0.717500</vAcc></extensions></trkpt>
      <trkpt lon="-4.106436" lat="53.011855"><ele>48.508221</ele><time>2021-07-17T08:51:21Z</time><extensions><speed>0.407128</speed><course>232.063629</course><hAcc>0.890646</hAcc><vAcc>0.712500</vAcc></extensions></trkpt>
      <trkpt lon="-4.106441" lat="53.011854"><ele>48.561428</ele><time>2021-07-17T08:51:22Z</time><extensions><speed>0.413395</speed><course>232.063614</course><hAcc>0.888429</hAcc><vAcc>0.709451</vAcc></extensions></trkpt>
      <trkpt lon="-4.106447" lat="53.011853"><ele>48.608578</ele><time>2021-07-17T08:51:23Z</time><extensions><speed>0.423632</speed><course>232.063614</course><hAcc>0.887158</hAcc><vAcc>0.707647</vAcc></extensions></trkpt>
      <trkpt lon="-4.106453" lat="53.011852"><ele>48.651569</ele><time>2021-07-17T08:51:24Z</time><extensions><speed>0.437007</speed><course>232.063599</course><hAcc>0.886452</hAcc><vAcc>0.706548</vAcc></extensions></trkpt>
      <trkpt lon="-4.106460" lat="53.011850"><ele>48.692287</ele><time>2021-07-17T08:51:25Z</time><extensions><speed>0.454041</speed><course>232.063599</course><hAcc>0.886046</hAcc><vAcc>0.705767</vAcc></extensions></trkpt>
      <trkpt lon="-4.106466" lat="53.011848"><ele>48.732410</ele><time>2021-07-17T08:51:26Z</time><extensions><speed>0.475722</speed><course>232.063583</course><hAcc>0.885761</hAcc><vAcc>0.705046</vAcc></extensions></trkpt>
      <trkpt lon="-4.106472" lat="53.011845"><ele>48.773247</ele><time>2021-07-17T08:51:27Z</time><extensions><speed>0.502407</speed><course>232.063583</course><hAcc>0.885494</hAcc><vAcc>0.704232</vAcc></extensions></trkpt>
      <trkpt lon="-4.106477" lat="53.011842"><ele>48.815628</ele><time>2021-07-17T08:51:28Z</time><extensions><speed>0.533699</speed><course>248.555511</course><hAcc>0.885192</hAcc><vAcc>0.703249</vAcc></extensions></trkpt>
      <trkpt lon="-4.106483" lat="53.011839"><ele>48.859913</ele><time>2021-07-17T08:51:29Z</time><extensions><speed>0.569177</speed><course>214.727661</course><hAcc>0.884835</hAcc><vAcc>0.702083</vAcc></extensions></trkpt>
      <trkpt lon="-4.106488" lat="53.011834"><ele>48.906071</ele><time>2021-07-17T08:51:30Z</time><extensions><speed>0.608131</speed><course>215.656113</course><hAcc>0.884432</hAcc><vAcc>0.700766</vAcc></extensions></trkpt>
      <trkpt lon="-4.106493" lat="53.011829"><ele>48.953743</ele><time>2021-07-17T08:51:31Z</time><extensions><speed>0.649448</speed><course>205.637772</course><hAcc>0.884002</hAcc><vAcc>0.699367</vAcc></extensions></trkpt>
      <trkpt lon="-4.106497" lat="53.011824"><ele>49.002403</ele><time>2021-07-17T08:51:32Z</time><extensions><speed>0.691930</speed><course>201.575424</course><hAcc>0.883572</hAcc><vAcc>0.697972</vAcc></extensions></trkpt>
      <trkpt lon="-4.106500" lat="53.011818"><ele>49.051548</ele><time>2021-07-17T08:51:33Z</time><extensions><speed>0.734231</speed><course>196.854248</course><hAcc>0.883174</hAcc><vAcc>0.696683</vAcc></extensions></trkpt>
      <trkpt lon="-4.106504" lat="53.011811"><ele>49.100571</ele><time>2021-07-17T08:51:34Z</time><extensions><speed>0.774639</speed><course>198.264053</course><hAcc>0.882835</hAcc><vAcc>0.695598</vAcc></extensions></trkpt>
      <trkpt lon="-4.106506" lat="53.011805"><ele>49.149048</ele><time>2021-07-17T08:51:35Z</time><extensions><speed>0.811064</speed><course>198.636932</course><hAcc>0.882577</hAcc><vAcc>0.694803</vAcc></extensions></trkpt>
      <trkpt lon="-4.106509" lat="53.011797"><ele>49.196953</ele><time>2021-07-17T08:51:36Z</time><extensions><speed>0.841289</speed><course>192.727798</course><hAcc>0.882417</hAcc><vAcc>0.694354</vAcc></extensions></trkpt>
      <trkpt lon="-4.106511" lat="53.011790"><ele>49.244289</ele><time>2021-07-17T08:51:37Z</time><extensions><speed>0.863166</speed><course>184.691818</course><hAcc>0.882362</hAcc><vAcc>0.694281</vAcc></extensions></trkpt>
      <trkpt lon="-4.106514" lat="53.011782"><ele>49.290947</ele><time>2021-07-17T08:51:38Z</time><extensions><speed>0.875195</speed><course>177.917740</course><hAcc>0.882413</hAcc><vAcc>0.694581</vAcc></extensions></trkpt>
      <trkpt lon="-4.106516" lat="53.011774"><ele>49.336838</ele><time>2021-07-17T08:51:39Z</time><extensions><speed>0.876910</speed><course>169.935883</course><hAcc>0.882561</hAcc><vAcc>0.695232</vAcc></extensions></trkpt>
      <trkpt lon="-4.106519" lat="53.011767"><ele>49.382217</ele><time>2021-07-17T08:51:40Z</time><extensions><speed>0.868803</speed><course>168.290512</course><hAcc>0.882793</hAcc><vAcc>0.696187</vAcc></extensions></trkpt>
      <trkpt lon="-4.106523" lat="53.011759"><ele>49.427624</ele><time>2021-07-17T08:51:41Z</time><extensions><speed>0.851763</speed><course>175.847488</course><hAcc>0.883089</hAcc><vAcc>0.697378</vAcc></extensions></trkpt>
      <trkpt lon="-4.106526" lat="53.011752"><ele>49.473682</ele><time>2021-07-17T08:51:42Z</time><extensions><speed>0.826545</speed><course>182.489380</course><hAcc>0.883426</hAcc><vAcc>0.698719</vAcc></extensions></trkpt>
      <trkpt lon="-4.106531" lat="53.011745"><ele>49.520912</ele><time>2021-07-17T08:51:43Z</time><extensions><speed>0.794052</speed><course>193.224472</course><hAcc>0.883779</hAcc><vAcc>0.700105</vAcc></extensions></trkpt>
      <trkpt lon="-4.106536" lat="53.011739"><ele>49.569672</ele><time>2021-07-17T08:51:44Z</time><extensions><speed>0.755696</speed><course>210.457108</course><hAcc>0.884122</hAcc><vAcc>0.701432</vAcc></extensions></trkpt>
      <trkpt lon="-4.106541" lat="53.011733"><ele>49.620220</ele><time>2021-07-17T08:51:45Z</time><extensions><speed>0.713321</speed><course>227.054108</course><hAcc>0.884434</hAcc><vAcc>0.702601</vAcc></extensions></trkpt>
      <trkpt lon="-4.106548" lat="53.011728"><ele>49.672779</ele><time>2021-07-17T08:51:46Z</time><extensions><speed>0.669197</speed><course>247.666534</course><hAcc>0.884695</hAcc><vAcc>0.703539</vAcc></extensions></trkpt>
      <trkpt lon="-4.106554" lat="53.011724"><ele>49.727428</ele><time>2021-07-17T08:51:47Z</time><extensions><speed>0.626007</speed><course>261.197876</course><hAcc>0.884893</hAcc><vAcc>0.704199</vAcc></extensions></trkpt>
      <trkpt lon="-4.106561" lat="53.011721"><ele>49.783836</ele><time>2021-07-17T08:51:48Z</time><extensions><speed>0.586214</speed><course>263.217255</course><hAcc>0.885021</hAcc><vAcc>0.704563</vAcc></extensions></trkpt>
      <trkpt lon="-4.106568" lat="53.011718"><ele>49.841385</ele><time>2021-07-17T08:51:49Z</time><extensions><speed>0.552054</speed><course>271.463165</course><hAcc>0.885077</hAcc><vAcc>0.704639</vAcc></extensions></trkpt>
      <trkpt lon="-4.106575" lat="53.011716"><ele>49.899441</ele><time>2021-07-17T08:51:50Z</time><extensions><speed>0.526323</speed><course>281.991608</course><hAcc>0.885068</hAcc><vAcc>0.704455</vAcc></extensions></trkpt>
      <trkpt lon="-4.106582" lat="53.011714"><ele>49.957619</ele><time>2021-07-17T08:51:51Z</time><extensions><speed>0.511625</speed><course>285.895782</course><hAcc>0.885003</hAcc><vAcc>0.704056</vAcc></extensions></trkpt>
      <trkpt lon="-4.106590" lat="53.011713"><ele>50.015884</ele><time>2021-07-17T08:51:52Z</time><extensions><speed>0.509460</speed><course>287.327179</course><hAcc>0.884896</hAcc><vAcc>0.703507</vAcc></extensions></trkpt>
      <trkpt lon="-4.106597" lat="53.011713"><ele>50.074390</ele><time>2021-07-17T08:51:53Z</time><extensions><speed>0.519680</speed><course>297.396240</course><hAcc>0.884764</hAcc><vAcc>0.702880</vAcc></extensions></trkpt>
      <trkpt lon="-4.106605" lat="53.011714"><ele>50.133224</ele><time>2021-07-17T08:51:54Z</time><extensions><speed>0.541100</speed><course>299.473175</course><hAcc>0.884625</hAcc><vAcc>0.702254</vAcc></extensions></trkpt>
      <trkpt lon="-4.106613" lat="53.011715"><ele>50.192307</ele><time>2021-07-17T08:51:55Z</time><extensions><speed>0.572140</speed><course>297.683289</course><hAcc>0.884494</hAcc><vAcc>0.701698</vAcc></extensions></trkpt>
      <trkpt lon="-4.106622" lat="53.011717"><ele>50.251602</ele><time>2021-07-17T08:51:56Z</time><extensions><speed>0.611004</speed><course>292.365356</course><hAcc>0.884386</hAcc><vAcc>0.701259</vAcc></extensions></trkpt>
      <trkpt lon="-4.106630" lat="53.011719"><ele>50.311172</ele><time>2021-07-17T08:51:57Z</time><extensions><speed>0.656420</speed><course>291.092651</course><hAcc>0.884311</hAcc><vAcc>0.700971</vAcc></extensions></trkpt>
      <trkpt lon="-4.106639" lat="53.011722"><ele>50.370937</ele><time>2021-07-17T08:51:58Z</time><extensions><speed>0.707485</speed><course>297.007721</course><hAcc>0.884278</hAcc><vAcc>0.700849</vAcc></extensions></trkpt>
      <trkpt lon="-4.106648" lat="53.011726"><ele>50.430534</ele><time>2021-07-17T08:51:59Z</time><extensions><speed>0.763503</speed><course>291.539093</course><hAcc>0.884288</hAcc><vAcc>0.700900</vAcc></extensions></trkpt>
      <trkpt lon="-4.106658" lat="53.011730"><ele>50.489464</ele><time>2021-07-17T08:52:00Z</time><extensions><speed>0.823264</speed><course>293.314819</course><hAcc>0.884343</hAcc><vAcc>0.701122</vAcc></extensions></trkpt>
      <trkpt lon="-4.106668" lat="53.011734"><ele>50.547279</ele><time>2021-07-17T08:52:01Z</time><extensions><speed>0.885134</speed><course>297.043213</course><hAcc>0.884439</hAcc><vAcc>0.701503</vAcc></extensions></trkpt>
      <trkpt lon="-4.106679" lat="53.011739"><ele>50.603687</ele><time>2021-07-17T08:52:02Z</time><extensions><speed>0.947443</speed><course>301.573547</course><hAcc>0.884570</hAcc><vAcc>0.702018</vAcc></extensions></trkpt>
      <trkpt lon="-4.106690" lat="53.011745"><ele>50.658642</ele><time>2021-07-17T08:52:03Z</time><extensions><speed>1.008108</speed><course>305.542847</course><hAcc>0.884728</hAcc><vAcc>0.702633</vAcc></extensions></trkpt>
      <trkpt lon="-4.106702" lat="53.011751"><ele>50.712364</ele><time>2021-07-17T08:52:04Z</time><extensions><speed>1.065144</speed><course>304.461029</course><hAcc>0.884902</hAcc><vAcc>0.703305</vAcc></extensions></trkpt>
      <trkpt lon="-4.106714" lat="53.011758"><ele>50.765259</ele><time>2021-07-17T08:52:05Z</time><extensions><speed>1.117203</speed><course>304.519958</course><hAcc>0.885082</hAcc><vAcc>0.703991</vAcc></extensions></trkpt>
      <trkpt lon="-4.106727" lat="53.011764"><ele>50.817760</ele><time>2021-07-17T08:52:06Z</time><extensions><speed>1.163622</speed><course>306.835541</course><hAcc>0.885259</hAcc><vAcc>0.704647</vAcc></extensions></trkpt>
      <trkpt lon="-4.106740" lat="53.011771"><ele>50.870319</ele><time>2021-07-17T08:52:07Z</time><extensions><speed>1.204249</speed><course>312.924469</course><hAcc>0.885425</hAcc><vAcc>0.705234</vAcc></extensions></trkpt>
      <trkpt lon="-4.106754" lat="53.011778"><ele>50.923382</ele><time>2021-07-17T08:52:08Z</time><extensions><speed>1.238823</speed><course>313.121582</course><hAcc>0.885573</hAcc><vAcc>0.705723</vAcc></extensions></trkpt>
      <trkpt lon="-4.106768" lat="53.011786"><ele>50.977417</ele><time>2021-07-17T08:52:09Z</time><extensions><speed>1.267081</speed><course>312.363678</course><hAcc>0.885700</hAcc><vAcc>0.706103</vAcc></extensions></trkpt>
      <trkpt lon="-4.106783" lat="53.011793"><ele>51.032948</ele><time>2021-07-17T08:52:10Z</time><extensions><speed>1.288993</speed><course>309.905548</course><hAcc>0.885805</hAcc><vAcc>0.706380</vAcc></extensions></trkpt>
      <trkpt lon="-4.106798" lat="53.011800"><ele>51.090435</ele><time>2021-07-17T08:52:11Z</time><extensions><speed>1.304733</speed><course>308.597687</course><hAcc>0.885887</hAcc><vAcc>0.706569</vAcc></extensions></trkpt>
      <trkpt lon="-4.106814" lat="53.011807"><ele>51.150089</ele><time>2021-07-17T08:52:12Z</time><extensions><speed>1.314725</speed><course>307.103394</course><hAcc>0.885950</hAcc><vAcc>0.706690</vAcc></extensions></trkpt>
      <trkpt lon="-4.106830" lat="53.011814"><ele>51.211811</ele><time>2021-07-17T08:52:13Z</time><extensions><speed>1.319481</speed><course>306.897400</course><hAcc>0.885998</hAcc><vAcc>0.706765</vAcc></extensions></trkpt>
      <trkpt lon="-4.106846" lat="53.011821"><ele>51.275166</ele><time>2021-07-17T08:52:14Z</time><extensions><speed>1.319557</speed><course>302.152618</course><hAcc>0.886034</hAcc><vAcc>0.706818</vAcc></extensions></trkpt>
      <trkpt lon="-4.106862" lat="53.011827"><ele>51.339447</ele><time>2021-07-17T08:52:15Z</time><extensions><speed>1.315466</speed><course>297.726410</course><hAcc>0.886063</hAcc><vAcc>0.706869</vAcc></extensions></trkpt>
      <trkpt lon="-4.106879" lat="53.011834"><ele>51.403828</ele><time>2021-07-17T08:52:16Z</time><extensions><speed>1.307707</speed><course>300.194183</course><hAcc>0.886090</hAcc><vAcc>0.706932</vAcc></extensions></trkpt>
      <trkpt lon="-4.106895" lat="53.011840"><ele>51.467541</ele><time>2021-07-17T08:52:17Z</time><extensions><speed>1.296942</speed><course>297.151825</course><hAcc>0.886116</hAcc><vAcc>0.707010</vAcc></extensions></trkpt>
      <trkpt lon="-4.106912" lat="53.011846"><ele>51.529896</ele><time>2021-07-17T08:52:18Z</time><extensions><speed>1.283963</speed><course>298.399384</course><hAcc>0.886143</hAcc><vAcc>0.707098</vAcc></extensions></trkpt>
      <trkpt lon="-4.106928" lat="53.011852"><ele>51.590210</ele><time>2021-07-17T08:52:19Z</time><extensions><speed>1.269683</speed><course>300.837921</course><hAcc>0.886173</hAcc><vAcc>0.707197</vAcc></extensions></trkpt>
      <trkpt lon="-4.106944" lat="53.011858"><ele>51.648010</ele><time>2021-07-17T08:52:20Z</time><extensions><speed>1.255260</speed><course>299.844330</course><hAcc>0.886206</hAcc><vAcc>0.707303</vAcc></extensions></trkpt>
      <trkpt lon="-4.106960" lat="53.011863"><ele>51.702957</ele><time>2021-07-17T08:52:21Z</time><extensions><speed>1.241917</speed><course>300.001373</course><hAcc>0.886240</hAcc><vAcc>0.707416</vAcc></extensions></trkpt>
      <trkpt lon="-4.106976" lat="53.011869"><ele>51.754597</ele><time>2021-07-17T08:52:22Z</time><extensions><speed>1.230882</speed><course>294.568817</course><hAcc>0.886276</hAcc><vAcc>0.707531</vAcc></extensions></trkpt>
      <trkpt lon="-4.106992" lat="53.011874"><ele>51.802589</ele><time>2021-07-17T08:52:23Z</time><extensions><speed>1.223305</speed><course>300.687103</course><hAcc>0.886312</hAcc><vAcc>0.707642</vAcc></extensions></trkpt>
      <trkpt lon="-4.107008" lat="53.011879"><ele>51.846649</ele><time>2021-07-17T08:52:24Z</time><extensions><speed>1.220017</speed><course>297.691925</course><hAcc>0.886347</hAcc><vAcc>0.707741</vAcc></extensions></trkpt>
      <trkpt lon="-4.107024" lat="53.011885"><ele>51.886330</ele><time>2021-07-17T08:52:26Z</time><extensions><speed>1.221503</speed><course>293.928223</course><hAcc>0.886361</hAcc><vAcc>0.707807</vAcc></extensions></trkpt>
      <trkpt lon="-4.107040" lat="53.011890"><ele>51.921040</ele><time>2021-07-17T08:52:27Z</time><extensions><speed>1.227173</speed><course>297.041656</course><hAcc>0.886353</hAcc><vAcc>0.707836</vAcc></extensions></trkpt>
      <trkpt lon="-4.107056" lat="53.011895"><ele>51.950413</ele><time>2021-07-17T08:52:28Z</time><extensions><speed>1.236109</speed><course>298.722290</course><hAcc>0.886339</hAcc><vAcc>0.707833</vAcc></extensions></trkpt>
      <trkpt lon="-4.107072" lat="53.011901"><ele>51.974056</ele><time>2021-07-17T08:52:29Z</time><extensions><speed>1.247811</speed><course>296.674316</course><hAcc>0.886318</hAcc><vAcc>0.707796</vAcc></extensions></trkpt>
      <trkpt lon="-4.107089" lat="53.011906"><ele>51.991703</ele><time>2021-07-17T08:52:30Z</time><extensions><speed>1.261715</speed><course>301.147156</course><hAcc>0.886291</hAcc><vAcc>0.707720</vAcc></extensions></trkpt>
      <trkpt lon="-4.107105" lat="53.011912"><ele>52.003319</ele><time>2021-07-17T08:52:31Z</time><extensions><speed>1.277053</speed><course>301.618805</course><hAcc>0.886258</hAcc><vAcc>0.707608</vAcc></extensions></trkpt>
      <trkpt lon="-4.107122" lat="53.011917"><ele>52.009148</ele><time>2021-07-17T08:52:32Z</time><extensions><speed>1.292821</speed><course>300.678009</course><hAcc>0.886222</hAcc><vAcc>0.707465</vAcc></extensions></trkpt>
      <trkpt lon="-4.107139" lat="53.011923"><ele>52.009644</ele><time>2021-07-17T08:52:33Z</time><extensions><speed>1.308141</speed><course>306.078644</course><hAcc>0.886186</hAcc><vAcc>0.707303</vAcc></extensions></trkpt>
      <trkpt lon="-4.107155" lat="53.011929"><ele>52.005478</ele><time>2021-07-17T08:52:34Z</time><extensions><speed>1.322132</speed><course>302.099213</course><hAcc>0.886154</hAcc><vAcc>0.707142</vAcc></extensions></trkpt>
      <trkpt lon="-4.107172" lat="53.011936"><ele>51.997665</ele><time>2021-07-17T08:52:35Z</time><extensions><speed>1.333813</speed><course>298.253754</course><hAcc>0.886132</hAcc><vAcc>0.707004</vAcc></extensions></trkpt>
      <trkpt lon="-4.107189" lat="53.011942"><ele>51.987434</ele><time>2021-07-17T08:52:36Z</time><extensions><speed>1.342790</speed><course>299.772583</course><hAcc>0.886123</hAcc><vAcc>0.706915</vAcc></extensions></trkpt>
      <trkpt lon="-4.107206" lat="53.011948"><ele>51.975948</ele><time>2021-07-17T08:52:37Z</time><extensions><speed>1.349529</speed><course>299.946075</course><hAcc>0.886133</hAcc><vAcc>0.706896</vAcc></extensions></trkpt>
      <trkpt lon="-4.107223" lat="53.011955"><ele>51.964375</ele><time>2021-07-17T08:52:38Z</time><extensions><speed>1.354574</speed><course>303.968170</course><hAcc>0.886165</hAcc><vAcc>0.706966</vAcc></extensions></trkpt>
      <trkpt lon="-4.107240" lat="53.011962"><ele>51.953815</ele><time>2021-07-17T08:52:39Z</time><extensions><speed>1.358038</speed><course>302.223755</course><hAcc>0.886220</hAcc><vAcc>0.707133</vAcc></extensions></trkpt>
      <trkpt lon="-4.107257" lat="53.011969"><ele>51.945210</ele><time>2021-07-17T08:52:40Z</time><extensions><speed>1.360113</speed><course>303.590851</course><hAcc>0.886299</hAcc><vAcc>0.707400</vAcc></extensions></trkpt>
      <trkpt lon="-4.107273" lat="53.011976"><ele>51.939411</ele><time>2021-07-17T08:52:41Z</time><extensions><speed>1.361311</speed><course>302.656281</course><hAcc>0.886402</hAcc><vAcc>0.707763</vAcc></extensions></trkpt>
      <trkpt lon="-4.107290" lat="53.011983"><ele>51.937218</ele><time>2021-07-17T08:52:42Z</time><extensions><speed>1.362412</speed><course>307.857574</course><hAcc>0.886524</hAcc><vAcc>0.708210</vAcc></extensions></trkpt>
      <trkpt lon="-4.107306" lat="53.011990"><ele>51.939442</ele><time>2021-07-17T08:52:43Z</time><extensions><speed>1.363888</speed><course>306.241272</course><hAcc>0.886663</hAcc><vAcc>0.708724</vAcc></extensions></trkpt>
      <trkpt lon="-4.107323" lat="53.011997"><ele>51.947147</ele><time>2021-07-17T08:52:44Z</time><extensions><speed>1.365602</speed><course>302.560516</course><hAcc>0.886813</hAcc><vAcc>0.709280</vAcc></extensions></trkpt>
      <trkpt lon="-4.107340" lat="53.012004"><ele>51.961636</ele><time>2021-07-17T08:52:45Z</time><extensions><speed>1.367330</speed><course>304.207947</course><hAcc>0.886967</hAcc><vAcc>0.709850</vAcc></extensions></trkpt>
      <trkpt lon="-4.107357" lat="53.012011"><ele>51.984154</ele><time>2021-07-17T08:52:46Z</time><extensions><speed>1.369019</speed><course>304.678192</course><hAcc>0.887121</hAcc><vAcc>0.710408</vAcc></extensions></trkpt>
      <trkpt lon="-4.107374" lat="53.012017"><ele>52.015949</ele><time>2021-07-17T08:52:47Z</time><extensions><speed>1.370638</speed><course>300.816559</course><hAcc>0.887269</hAcc><vAcc>0.710932</vAcc></extensions></trkpt>
      <trkpt lon="-4.107391" lat="53.012024"><ele>52.058399</ele><time>2021-07-17T08:52:48Z</time><extensions><speed>1.372339</speed><course>302.457642</course><hAcc>0.887407</hAcc><vAcc>0.711405</vAcc></extensions></trkpt>
      <trkpt lon="-4.107408" lat="53.012031"><ele>52.112667</ele><time>2021-07-17T08:52:49Z</time><extensions><speed>1.374380</speed><course>303.405792</course><hAcc>0.887530</hAcc><vAcc>0.711817</vAcc></extensions></trkpt>
      <trkpt lon="-4.107426" lat="53.012037"><ele>52.179306</ele><time>2021-07-17T08:52:50Z</time><extensions><speed>1.376859</speed><course>305.179382</course><hAcc>0.887635</hAcc><vAcc>0.712162</vAcc></extensions></trkpt>
      <trkpt lon="-4.107444" lat="53.012043"><ele>52.258316</ele><time>2021-07-17T08:52:51Z</time><extensions><speed>1.379670</speed><course>301.811188</course><hAcc>0.887722</hAcc><vAcc>0.712441</vAcc></extensions></trkpt>
      <trkpt lon="-4.107462" lat="53.012049"><ele>52.349243</ele><time>2021-07-17T08:52:52Z</time><extensions><speed>1.382440</speed><course>294.111877</course><hAcc>0.887790</hAcc><vAcc>0.712662</vAcc></extensions></trkpt>
      <trkpt lon="-4.107480" lat="53.012055"><ele>52.451183</ele><time>2021-07-17T08:52:52Z</time><extensions><speed>1.384578</speed><course>291.186249</course><hAcc>0.887859</hAcc><vAcc>0.712845</vAcc></extensions></trkpt>
      <trkpt lon="-4.107498" lat="53.012061"><ele>52.563343</ele><time>2021-07-17T08:52:53Z</time><extensions><speed>1.385463</speed><course>291.833313</course><hAcc>0.887929</hAcc><vAcc>0.713001</vAcc></extensions></trkpt>
      <trkpt lon="-4.107516" lat="53.012067"><ele>52.684345</ele><time>2021-07-17T08:52:54Z</time><extensions><speed>1.384634</speed><course>293.198639</course><hAcc>0.887989</hAcc><vAcc>0.713127</vAcc></extensions></trkpt>
      <trkpt lon="-4.107535" lat="53.012072"><ele>52.812561</ele><time>2021-07-17T08:52:55Z</time><extensions><speed>1.381817</speed><course>297.953094</course><hAcc>0.888042</hAcc><vAcc>0.713235</vAcc></extensions></trkpt>
      <trkpt lon="-4.107553" lat="53.012078"><ele>52.946136</ele><time>2021-07-17T08:52:56Z</time><extensions><speed>1.377192</speed><course>294.998413</course><hAcc>0.888092</hAcc><vAcc>0.713335</vAcc></extensions></trkpt>
      <trkpt lon="-4.107571" lat="53.012084"><ele>53.083206</ele><time>2021-07-17T08:52:57Z</time><extensions><speed>1.371201</speed><course>290.333923</course><hAcc>0.888146</hAcc><vAcc>0.713442</vAcc></extensions></trkpt>
      <trkpt lon="-4.107589" lat="53.012089"><ele>53.221897</ele><time>2021-07-17T08:52:58Z</time><extensions><speed>1.364179</speed><course>297.336884</course><hAcc>0.888206</hAcc><vAcc>0.713573</vAcc></extensions></trkpt>
      <trkpt lon="-4.107607" lat="53.012095"><ele>53.360241</ele><time>2021-07-17T08:52:59Z</time><extensions><speed>1.356045</speed><course>291.763641</course><hAcc>0.888276</hAcc><vAcc>0.713747</vAcc></extensions></trkpt>
      <trkpt lon="-4.107625" lat="53.012100"><ele>53.496265</ele><time>2021-07-17T08:53:00Z</time><extensions><speed>1.346365</speed><course>293.588959</course><hAcc>0.888358</hAcc><vAcc>0.713979</vAcc></extensions></trkpt>
      <trkpt lon="-4.107643" lat="53.012106"><ele>53.627846</ele><time>2021-07-17T08:53:01Z</time><extensions><speed>1.334857</speed><course>298.534668</course><hAcc>0.888452</hAcc><vAcc>0.714279</vAcc></extensions></trkpt>
      <trkpt lon="-4.107660" lat="53.012112"><ele>53.752903</ele><time>2021-07-17T08:53:02Z</time><extensions><speed>1.321195</speed><course>294.834351</course><hAcc>0.888560</hAcc><vAcc>0.714646</vAcc></extensions></trkpt>
      <trkpt lon="-4.107677" lat="53.012118"><ele>53.869812</ele><time>2021-07-17T08:53:03Z</time><extensions><speed>1.305023</speed><course>297.698059</course><hAcc>0.888678</hAcc><vAcc>0.715069</vAcc></extensions></trkpt>
      <trkpt lon="-4.107693" lat="53.012124"><ele>53.977463</ele><time>2021-07-17T08:53:04Z</time><extensions><speed>1.286070</speed><course>298.511444</course><hAcc>0.888807</hAcc><vAcc>0.715533</vAcc></extensions></trkpt>
      <trkpt lon="-4.107710" lat="53.012130"><ele>54.075054</ele><time>2021-07-17T08:53:05Z</time><extensions><speed>1.264020</speed><course>303.054443</course><hAcc>0.888941</hAcc><vAcc>0.716018</vAcc></extensions></trkpt>
      <trkpt lon="-4.107725" lat="53.012136"><ele>54.161896</ele><time>2021-07-17T08:53:06Z</time><extensions><speed>1.238997</speed><course>300.594757</course><hAcc>0.889077</hAcc><vAcc>0.716509</vAcc></extensions></trkpt>
      <trkpt lon="-4.107740" lat="53.012143"><ele>54.237263</ele><time>2021-07-17T08:53:07Z</time><extensions><speed>1.211598</speed><course>303.489990</course><hAcc>0.889211</hAcc><vAcc>0.716986</vAcc></extensions></trkpt>
      <trkpt lon="-4.107754" lat="53.012149"><ele>54.300369</ele><time>2021-07-17T08:53:08Z</time><extensions><speed>1.182560</speed><course>307.296783</course><hAcc>0.889338</hAcc><vAcc>0.717437</vAcc></extensions></trkpt>
      <trkpt lon="-4.107768" lat="53.012155"><ele>54.350586</ele><time>2021-07-17T08:53:09Z</time><extensions><speed>1.152593</speed><course>306.846466</course><hAcc>0.889455</hAcc><vAcc>0.717845</vAcc></extensions></trkpt>
      <trkpt lon="-4.107781" lat="53.012162"><ele>54.387466</ele><time>2021-07-17T08:53:10Z</time><extensions><speed>1.122518</speed><course>314.303711</course><hAcc>0.889559</hAcc><vAcc>0.718198</vAcc></extensions></trkpt>
      <trkpt lon="-4.107794" lat="53.012168"><ele>54.410709</ele><time>2021-07-17T08:53:11Z</time><extensions><speed>1.093068</speed><course>316.753265</course><hAcc>0.889647</hAcc><vAcc>0.718488</vAcc></extensions></trkpt>
      <trkpt lon="-4.107806" lat="53.012175"><ele>54.420307</ele><time>2021-07-17T08:53:12Z</time><extensions><speed>1.064728</speed><course>312.101562</course><hAcc>0.889717</hAcc><vAcc>0.718710</vAcc></extensions></trkpt>
      <trkpt lon="-4.107817" lat="53.012181"><ele>54.416664</ele><time>2021-07-17T08:53:13Z</time><extensions><speed>1.038540</speed><course>310.983948</course><hAcc>0.889770</hAcc><vAcc>0.718863</vAcc></extensions></trkpt>
      <trkpt lon="-4.107828" lat="53.012188"><ele>54.400410</ele><time>2021-07-17T08:53:14Z</time><extensions><speed>1.016313</speed><course>316.824890</course><hAcc>0.889805</hAcc><vAcc>0.718948</vAcc></extensions></trkpt>
      <trkpt lon="-4.107838" lat="53.012195"><ele>54.372326</ele><time>2021-07-17T08:53:15Z</time><extensions><speed>0.999728</speed><course>324.005005</course><hAcc>0.889822</hAcc><vAcc>0.718971</vAcc></extensions></trkpt>
      <trkpt lon="-4.107848" lat="53.012201"><ele>54.333282</ele><time>2021-07-17T08:53:16Z</time><extensions><speed>0.989627</speed><course>322.091736</course><hAcc>0.889824</hAcc><vAcc>0.718942</vAcc></extensions></trkpt>
      <trkpt lon="-4.107858" lat="53.012208"><ele>54.284241</ele><time>2021-07-17T08:53:17Z</time><extensions><speed>0.986216</speed><course>322.830170</course><hAcc>0.889810</hAcc><vAcc>0.718869</vAcc></extensions></trkpt>
      <trkpt lon="-4.107867" lat="53.012215"><ele>54.226276</ele><time>2021-07-17T08:53:18Z</time><extensions><speed>0.989377</speed><course>325.823517</course><hAcc>0.889782</hAcc><vAcc>0.718763</vAcc></extensions></trkpt>
      <trkpt lon="-4.107877" lat="53.012221"><ele>54.160591</ele><time>2021-07-17T08:53:19Z</time><extensions><speed>0.998658</speed><course>331.853210</course><hAcc>0.889743</hAcc><vAcc>0.718628</vAcc></extensions></trkpt>
      <trkpt lon="-4.107886" lat="53.012228"><ele>54.088593</ele><time>2021-07-17T08:53:20Z</time><extensions><speed>1.013179</speed><course>331.260956</course><hAcc>0.889693</hAcc><vAcc>0.718468</vAcc></extensions></trkpt>
      <trkpt lon="-4.107896" lat="53.012235"><ele>54.011841</ele><time>2021-07-17T08:53:21Z</time><extensions><speed>1.031761</speed><course>329.072571</course><hAcc>0.889635</hAcc><vAcc>0.718286</vAcc></extensions></trkpt>
      <trkpt lon="-4.107906" lat="53.012243"><ele>53.932068</ele><time>2021-07-17T08:53:22Z</time><extensions><speed>1.053203</speed><course>325.473938</course><hAcc>0.889570</hAcc><vAcc>0.718081</vAcc></extensions></trkpt>
      <trkpt lon="-4.107916" lat="53.012250"><ele>53.851048</ele><time>2021-07-17T08:53:23Z</time><extensions><speed>1.076329</speed><course>325.383026</course><hAcc>0.889501</hAcc><vAcc>0.717856</vAcc></extensions></trkpt>
      <trkpt lon="-4.107927" lat="53.012257"><ele>53.770428</ele><time>2021-07-17T08:53:24Z</time><extensions><speed>1.100032</speed><course>325.061401</course><hAcc>0.889429</hAcc><vAcc>0.717613</vAcc></extensions></trkpt>
      <trkpt lon="-4.107938" lat="53.012265"><ele>53.691669</ele><time>2021-07-17T08:53:25Z</time><extensions><speed>1.123433</speed><course>325.207275</course><hAcc>0.889356</hAcc><vAcc>0.717358</vAcc></extensions></trkpt>
      <trkpt lon="-4.107949" lat="53.012272"><ele>53.616135</ele><time>2021-07-17T08:53:26Z</time><extensions><speed>1.145970</speed><course>322.410889</course><hAcc>0.889284</hAcc><vAcc>0.717098</vAcc></extensions></trkpt>
      <trkpt lon="-4.107961" lat="53.012280"><ele>53.545128</ele><time>2021-07-17T08:53:27Z</time><extensions><speed>1.167332</speed><course>319.218658</course><hAcc>0.889215</hAcc><vAcc>0.716842</vAcc></extensions></trkpt>
      <trkpt lon="-4.107973" lat="53.012288"><ele>53.479683</ele><time>2021-07-17T08:53:28Z</time><extensions><speed>1.187601</speed><course>319.790588</course><hAcc>0.889151</hAcc><vAcc>0.716602</vAcc></extensions></trkpt>
      <trkpt lon="-4.107986" lat="53.012295"><ele>53.420570</ele><time>2021-07-17T08:53:29Z</time><extensions><speed>1.207191</speed><course>318.972229</course><hAcc>0.889094</hAcc><vAcc>0.716387</vAcc></extensions></trkpt>
      <trkpt lon="-4.107998" lat="53.012303"><ele>53.368412</ele><time>2021-07-17T08:53:30Z</time><extensions><speed>1.226637</speed><course>320.354065</course><hAcc>0.889044</hAcc><vAcc>0.716209</vAcc></extensions></trkpt>
      <trkpt lon="-4.108012" lat="53.012311"><ele>53.323570</ele><time>2021-07-17T08:53:31Z</time><extensions><speed>1.246033</speed><course>320.541016</course><hAcc>0.889001</hAcc><vAcc>0.716075</vAcc></extensions></trkpt>
      <trkpt lon="-4.108025" lat="53.012318"><ele>53.286098</ele><time>2021-07-17T08:53:32Z</time><extensions><speed>1.264829</speed><course>317.906189</course><hAcc>0.888966</hAcc><vAcc>0.715984</vAcc></extensions></trkpt>
      <trkpt lon="-4.108039" lat="53.012326"><ele>53.255905</ele><time>2021-07-17T08:53:33Z</time><extensions><speed>1.282023</speed><course>316.077393</course><hAcc>0.888937</hAcc><vAcc>0.715929</vAcc></extensions></trkpt>
      <trkpt lon="-4.108054" lat="53.012334"><ele>53.232937</ele><time>2021-07-17T08:53:34Z</time><extensions><speed>1.296481</speed><course>307.356537</course><hAcc>0.888913</hAcc><vAcc>0.715900</vAcc></extensions></trkpt>
      <trkpt lon="-4.108068" lat="53.012342"><ele>53.217621</ele><time>2021-07-17T08:53:35Z</time><extensions><speed>1.307382</speed><course>302.004150</course><hAcc>0.888892</hAcc><vAcc>0.715879</vAcc></extensions></trkpt>
      <trkpt lon="-4.108083" lat="53.012349"><ele>53.210682</ele><time>2021-07-17T08:53:36Z</time><extensions><speed>1.314339</speed><course>310.520874</course><hAcc>0.888872</hAcc><vAcc>0.715852</vAcc></extensions></trkpt>
      <trkpt lon="-4.108098" lat="53.012357"><ele>53.212521</ele><time>2021-07-17T08:53:37Z</time><extensions><speed>1.317195</speed><course>307.778412</course><hAcc>0.888851</hAcc><vAcc>0.715810</vAcc></extensions></trkpt>
      <trkpt lon="-4.108113" lat="53.012364"><ele>53.223171</ele><time>2021-07-17T08:53:38Z</time><extensions><speed>1.315907</speed><course>310.132080</course><hAcc>0.888826</hAcc><vAcc>0.715744</vAcc></extensions></trkpt>
      <trkpt lon="-4.108128" lat="53.012372"><ele>53.242455</ele><time>2021-07-17T08:53:39Z</time><extensions><speed>1.310678</speed><course>310.327301</course><hAcc>0.888795</hAcc><vAcc>0.715652</vAcc></extensions></trkpt>
      <trkpt lon="-4.108144" lat="53.012379"><ele>53.269867</ele><time>2021-07-17T08:53:40Z</time><extensions><speed>1.301793</speed><course>308.925873</course><hAcc>0.888757</hAcc><vAcc>0.715531</vAcc></extensions></trkpt>
      <trkpt lon="-4.108159" lat="53.012387"><ele>53.304794</ele><time>2021-07-17T08:53:41Z</time><extensions><speed>1.289525</speed><course>308.955322</course><hAcc>0.888710</hAcc><vAcc>0.715378</vAcc></extensions></trkpt>
      <trkpt lon="-4.108174" lat="53.012394"><ele>53.346752</ele><time>2021-07-17T08:53:42Z</time><extensions><speed>1.274454</speed><course>303.152588</course><hAcc>0.888653</hAcc><vAcc>0.715193</vAcc></extensions></trkpt>
      <trkpt lon="-4.108189" lat="53.012401"><ele>53.394989</ele><time>2021-07-17T08:53:43Z</time><extensions><speed>1.257479</speed><course>313.156525</course><hAcc>0.888585</hAcc><vAcc>0.714975</vAcc></extensions></trkpt>
      <trkpt lon="-4.108203" lat="53.012407"><ele>53.448269</ele><time>2021-07-17T08:53:44Z</time><extensions><speed>1.239085</speed><course>307.864197</course><hAcc>0.888506</hAcc><vAcc>0.714726</vAcc></extensions></trkpt>
      <trkpt lon="-4.108218" lat="53.012414"><ele>53.505428</ele><time>2021-07-17T08:53:45Z</time><extensions><speed>1.219779</speed><course>309.541687</course><hAcc>0.888415</hAcc><vAcc>0.714445</vAcc></extensions></trkpt>
      <trkpt lon="-4.108233" lat="53.012420"><ele>53.565552</ele><time>2021-07-17T08:53:46Z</time><extensions><speed>1.200397</speed><course>312.130341</course><hAcc>0.888312</hAcc><vAcc>0.714130</vAcc></extensions></trkpt>
      <trkpt lon="-4.108247" lat="53.012426"><ele>53.627838</ele><time>2021-07-17T08:53:47Z</time><extensions><speed>1.181202</speed><course>310.268982</course><hAcc>0.888197</hAcc><vAcc>0.713782</vAcc></extensions></trkpt>
      <trkpt lon="-4.108262" lat="53.012432"><ele>53.691734</ele><time>2021-07-17T08:53:48Z</time><extensions><speed>1.162260</speed><course>308.247070</course><hAcc>0.888071</hAcc><vAcc>0.713398</vAcc></extensions></trkpt>
      <trkpt lon="-4.108276" lat="53.012438"><ele>53.756851</ele><time>2021-07-17T08:53:49Z</time><extensions><speed>1.144234</speed><course>304.229858</course><hAcc>0.887934</hAcc><vAcc>0.712975</vAcc></extensions></trkpt>
      <trkpt lon="-4.108290" lat="53.012443"><ele>53.822586</ele><time>2021-07-17T08:53:50Z</time><extensions><speed>1.128236</speed><course>308.310059</course><hAcc>0.887790</hAcc><vAcc>0.712513</vAcc></extensions></trkpt>
      <trkpt lon="-4.108305" lat="53.012449"><ele>53.888012</ele><time>2021-07-17T08:53:51Z</time><extensions><speed>1.115348</speed><course>311.142822</course><hAcc>0.887640</hAcc><vAcc>0.712015</vAcc></extensions></trkpt>
      <trkpt lon="-4.108319" lat="53.012453"><ele>53.952118</ele><time>2021-07-17T08:53:52Z</time><extensions><speed>1.105813</speed><course>305.518036</course><hAcc>0.887490</hAcc><vAcc>0.711489</vAcc></extensions></trkpt>
      <trkpt lon="-4.108334" lat="53.012458"><ele>54.014088</ele><time>2021-07-17T08:53:53Z</time><extensions><speed>1.099112</speed><course>303.061462</course><hAcc>0.887343</hAcc><vAcc>0.710953</vAcc></extensions></trkpt>
      <trkpt lon="-4.108348" lat="53.012462"><ele>54.073128</ele><time>2021-07-17T08:53:54Z</time><extensions><speed>1.094545</speed><course>298.232086</course><hAcc>0.887204</hAcc><vAcc>0.710430</vAcc></extensions></trkpt>
      <trkpt lon="-4.108363" lat="53.012467"><ele>54.128281</ele><time>2021-07-17T08:53:55Z</time><extensions><speed>1.091991</speed><course>289.358276</course><hAcc>0.887078</hAcc><vAcc>0.709949</vAcc></extensions></trkpt>
      <trkpt lon="-4.108378" lat="53.012471"><ele>54.178604</ele><time>2021-07-17T08:53:56Z</time><extensions><speed>1.092198</speed><course>285.924469</course><hAcc>0.886969</hAcc><vAcc>0.709538</vAcc></extensions></trkpt>
      <trkpt lon="-4.108393" lat="53.012474"><ele>54.223381</ele><time>2021-07-17T08:53:57Z</time><extensions><speed>1.095811</speed><course>280.520447</course><hAcc>0.886880</hAcc><vAcc>0.709218</vAcc></extensions></trkpt>
      <trkpt lon="-4.108408" lat="53.012478"><ele>54.262154</ele><time>2021-07-17T08:53:58Z</time><extensions><speed>1.102492</speed><course>286.862061</course><hAcc>0.886812</hAcc><vAcc>0.709000</vAcc></extensions></trkpt>
      <trkpt lon="-4.108424" lat="53.012482"><ele>54.294613</ele><time>2021-07-17T08:53:59Z</time><extensions><speed>1.111323</speed><course>295.700317</course><hAcc>0.886767</hAcc><vAcc>0.708883</vAcc></extensions></trkpt>
      <trkpt lon="-4.108439" lat="53.012485"><ele>54.320663</ele><time>2021-07-17T08:54:00Z</time><extensions><speed>1.121574</speed><course>296.161560</course><hAcc>0.886741</hAcc><vAcc>0.708854</vAcc></extensions></trkpt>
      <trkpt lon="-4.108455" lat="53.012489"><ele>54.340721</ele><time>2021-07-17T08:54:01Z</time><extensions><speed>1.132886</speed><course>298.229218</course><hAcc>0.886732</hAcc><vAcc>0.708896</vAcc></extensions></trkpt>
      <trkpt lon="-4.108471" lat="53.012492"><ele>54.355698</ele><time>2021-07-17T08:54:02Z</time><extensions><speed>1.145254</speed><course>297.545471</course><hAcc>0.886735</hAcc><vAcc>0.708986</vAcc></extensions></trkpt>
      <trkpt lon="-4.108487" lat="53.012495"><ele>54.366661</ele><time>2021-07-17T08:54:03Z</time><extensions><speed>1.158550</speed><course>292.454163</course><hAcc>0.886744</hAcc><vAcc>0.709097</vAcc></extensions></trkpt>
      <trkpt lon="-4.108504" lat="53.012499"><ele>54.374725</ele><time>2021-07-17T08:54:04Z</time><extensions><speed>1.172364</speed><course>287.195465</course><hAcc>0.886755</hAcc><vAcc>0.709204</vAcc></extensions></trkpt>
      <trkpt lon="-4.108520" lat="53.012502"><ele>54.381062</ele><time>2021-07-17T08:54:05Z</time><extensions><speed>1.186789</speed><course>283.339600</course><hAcc>0.886762</hAcc><vAcc>0.709282</vAcc></extensions></trkpt>
      <trkpt lon="-4.108537" lat="53.012505"><ele>54.386723</ele><time>2021-07-17T08:54:06Z</time><extensions><speed>1.202224</speed><course>283.687531</course><hAcc>0.886760</hAcc><vAcc>0.709313</vAcc></extensions></trkpt>
      <trkpt lon="-4.108555" lat="53.012509"><ele>54.392639</ele><time>2021-07-17T08:54:07Z</time><extensions><speed>1.218515</speed><course>284.089417</course><hAcc>0.886746</hAcc><vAcc>0.709283</vAcc></extensions></trkpt>
      <trkpt lon="-4.108572" lat="53.012512"><ele>54.399906</ele><time>2021-07-17T08:54:08Z</time><extensions><speed>1.235167</speed><course>286.432800</course><hAcc>0.886719</hAcc><vAcc>0.709188</vAcc></extensions></trkpt>
      <trkpt lon="-4.108590" lat="53.012515"><ele>54.409843</ele><time>2021-07-17T08:54:09Z</time><extensions><speed>1.251438</speed><course>288.844025</course><hAcc>0.886677</hAcc><vAcc>0.709031</vAcc></extensions></trkpt>
      <trkpt lon="-4.108607" lat="53.012519"><ele>54.423962</ele><time>2021-07-17T08:54:10Z</time><extensions><speed>1.266545</speed><course>294.600861</course><hAcc>0.886622</hAcc><vAcc>0.708820</vAcc></extensions></trkpt>
      <trkpt lon="-4.108626" lat="53.012522"><ele>54.443989</ele><time>2021-07-17T08:54:11Z</time><extensions><speed>1.279693</speed><course>289.399475</course><hAcc>0.886556</hAcc><vAcc>0.708569</vAcc></extensions></trkpt>
      <trkpt lon="-4.108644" lat="53.012526"><ele>54.471767</ele><time>2021-07-17T08:54:12Z</time><extensions><speed>1.290125</speed><course>292.462738</course><hAcc>0.886482</hAcc><vAcc>0.708291</vAcc></extensions></trkpt>
      <trkpt lon="-4.108662" lat="53.012530"><ele>54.508926</ele><time>2021-07-17T08:54:13Z</time><extensions><speed>1.297606</speed><course>292.044128</course><hAcc>0.886404</hAcc><vAcc>0.707999</vAcc></extensions></trkpt>
      <trkpt lon="-4.108681" lat="53.012533"><ele>54.556664</ele><time>2021-07-17T08:54:14Z</time><extensions><speed>1.302653</speed><course>289.426849</course><hAcc>0.886326</hAcc><vAcc>0.707706</vAcc></extensions></trkpt>
      <trkpt lon="-4.108699" lat="53.012537"><ele>54.615574</ele><time>2021-07-17T08:54:15Z</time><extensions><speed>1.305743</speed><course>292.821838</course><hAcc>0.886251</hAcc><vAcc>0.707426</vAcc></extensions></trkpt>
      <trkpt lon="-4.108717" lat="53.012540"><ele>54.685711</ele><time>2021-07-17T08:54:16Z</time><extensions><speed>1.306844</speed><course>287.405121</course><hAcc>0.886185</hAcc><vAcc>0.707173</vAcc></extensions></trkpt>
      <trkpt lon="-4.108736" lat="53.012544"><ele>54.766895</ele><time>2021-07-17T08:54:17Z</time><extensions><speed>1.305984</speed><course>289.328461</course><hAcc>0.886129</hAcc><vAcc>0.706960</vAcc></extensions></trkpt>
      <trkpt lon="-4.108754" lat="53.012548"><ele>54.858673</ele><time>2021-07-17T08:54:18Z</time><extensions><speed>1.303125</speed><course>290.686554</course><hAcc>0.886086</hAcc><vAcc>0.706799</vAcc></extensions></trkpt>
      <trkpt lon="-4.108773" lat="53.012551"><ele>54.960289</ele><time>2021-07-17T08:54:19Z</time><extensions><speed>1.297896</speed><course>291.519623</course><hAcc>0.886057</hAcc><vAcc>0.706699</vAcc></extensions></trkpt>
      <trkpt lon="-4.108791" lat="53.012555"><ele>55.070953</ele><time>2021-07-17T08:54:20Z</time><extensions><speed>1.289894</speed><course>289.260345</course><hAcc>0.886041</hAcc><vAcc>0.706663</vAcc></extensions></trkpt>
      <trkpt lon="-4.108809" lat="53.012559"><ele>55.189766</ele><time>2021-07-17T08:54:21Z</time><extensions><speed>1.278687</speed><course>291.671295</course><hAcc>0.886037</hAcc><vAcc>0.706686</vAcc></extensions></trkpt>
      <trkpt lon="-4.108827" lat="53.012563"><ele>55.315395</ele><time>2021-07-17T08:54:22Z</time><extensions><speed>1.264145</speed><course>285.797272</course><hAcc>0.886041</hAcc><vAcc>0.706750</vAcc></extensions></trkpt>
      <trkpt lon="-4.108845" lat="53.012566"><ele>55.446056</ele><time>2021-07-17T08:54:23Z</time><extensions><speed>1.246923</speed><course>284.045776</course><hAcc>0.886050</hAcc><vAcc>0.706833</vAcc></extensions></trkpt>
      <trkpt lon="-4.108862" lat="53.012570"><ele>55.579929</ele><time>2021-07-17T08:54:24Z</time><extensions><speed>1.227712</speed><course>290.744446</course><hAcc>0.886060</hAcc><vAcc>0.706911</vAcc></extensions></trkpt>
      <trkpt lon="-4.108879" lat="53.012574"><ele>55.715561</ele><time>2021-07-17T08:54:25Z</time><extensions><speed>1.206889</speed><course>286.155334</course><hAcc>0.886066</hAcc><vAcc>0.706964</vAcc></extensions></trkpt>
      <trkpt lon="-4.108896" lat="53.012578"><ele>55.851593</ele><time>2021-07-17T08:54:26Z</time><extensions><speed>1.185387</speed><course>292.078705</course><hAcc>0.886066</hAcc><vAcc>0.706981</vAcc></extensions></trkpt>
      <trkpt lon="-4.108912" lat="53.012581"><ele>55.986366</ele><time>2021-07-17T08:54:27Z</time><extensions><speed>1.164576</speed><course>292.906311</course><hAcc>0.886057</hAcc><vAcc>0.706959</vAcc></extensions></trkpt>
      <trkpt lon="-4.108928" lat="53.012585"><ele>56.118423</ele><time>2021-07-17T08:54:28Z</time><extensions><speed>1.145566</speed><course>291.462067</course><hAcc>0.886041</hAcc><vAcc>0.706900</vAcc></extensions></trkpt>
      <trkpt lon="-4.108944" lat="53.012589"><ele>56.246986</ele><time>2021-07-17T08:54:29Z</time><extensions><speed>1.129230</speed><course>290.448425</course><hAcc>0.886019</hAcc><vAcc>0.706809</vAcc></extensions></trkpt>
      <trkpt lon="-4.108960" lat="53.012592"><ele>56.371746</ele><time>2021-07-17T08:54:30Z</time><extensions><speed>1.115928</speed><course>295.857269</course><hAcc>0.886001</hAcc><vAcc>0.706691</vAcc></extensions></trkpt>
      <trkpt lon="-4.108975" lat="53.012596"><ele>56.492569</ele><time>2021-07-17T08:54:31Z</time><extensions><speed>1.105336</speed><course>298.185364</course><hAcc>0.885998</hAcc><vAcc>0.706559</vAcc></extensions></trkpt>
      <trkpt lon="-4.108990" lat="53.012600"><ele>56.609318</ele><time>2021-07-17T08:54:32Z</time><extensions><speed>1.096650</speed><course>294.469940</course><hAcc>0.886028</hAcc><vAcc>0.706430</vAcc></extensions></trkpt>
      <trkpt lon="-4.109005" lat="53.012603"><ele>56.721699</ele><time>2021-07-17T08:54:33Z</time><extensions><speed>1.088894</speed><course>292.898438</course><hAcc>0.886117</hAcc><vAcc>0.706333</vAcc></extensions></trkpt>
      <trkpt lon="-4.109020" lat="53.012607"><ele>56.829315</ele><time>2021-07-17T08:54:34Z</time><extensions><speed>1.081254</speed><course>292.422791</course><hAcc>0.886296</hAcc><vAcc>0.706305</vAcc></extensions></trkpt>
      <trkpt lon="-4.109035" lat="53.012611"><ele>56.931873</ele><time>2021-07-17T08:54:35Z</time><extensions><speed>1.073488</speed><course>292.622986</course><hAcc>0.886606</hAcc><vAcc>0.706385</vAcc></extensions></trkpt>
      <trkpt lon="-4.109050" lat="53.012614"><ele>57.029053</ele><time>2021-07-17T08:54:36Z</time><extensions><speed>1.065644</speed><course>292.749084</course><hAcc>0.887090</hAcc><vAcc>0.706615</vAcc></extensions></trkpt>
      <trkpt lon="-4.109065" lat="53.012618"><ele>57.120338</ele><time>2021-07-17T08:54:37Z</time><extensions><speed>1.057775</speed><course>294.832458</course><hAcc>0.887795</hAcc><vAcc>0.707034</vAcc></extensions></trkpt>
      <trkpt lon="-4.109079" lat="53.012621"><ele>57.205223</ele><time>2021-07-17T08:54:38Z</time><extensions><speed>1.049817</speed><course>290.563019</course><hAcc>0.888764</hAcc><vAcc>0.707675</vAcc></extensions></trkpt>
      <trkpt lon="-4.109094" lat="53.012625"><ele>57.283325</ele><time>2021-07-17T08:54:39Z</time><extensions><speed>1.041524</speed><course>288.082062</course><hAcc>0.890028</hAcc><vAcc>0.708556</vAcc></extensions></trkpt>
      <trkpt lon="-4.109108" lat="53.012628"><ele>57.354351</ele><time>2021-07-17T08:54:40Z</time><extensions><speed>1.032931</speed><course>289.238037</course><hAcc>0.891597</hAcc><vAcc>0.709669</vAcc></extensions></trkpt>
      <trkpt lon="-4.109122" lat="53.012632"><ele>57.418152</ele><time>2021-07-17T08:54:41Z</time><extensions><speed>1.024621</speed><course>289.037109</course><hAcc>0.893442</hAcc><vAcc>0.710973</vAcc></extensions></trkpt>
      <trkpt lon="-4.109137" lat="53.012635"><ele>57.474854</ele><time>2021-07-17T08:54:42Z</time><extensions><speed>1.017528</speed><course>291.884949</course><hAcc>0.895493</hAcc><vAcc>0.712382</vAcc></extensions></trkpt>
      <trkpt lon="-4.109151" lat="53.012638"><ele>57.524754</ele><time>2021-07-17T08:54:43Z</time><extensions><speed>1.012764</speed><course>287.567657</course><hAcc>0.897621</hAcc><vAcc>0.713770</vAcc></extensions></trkpt>
      <trkpt lon="-4.109165" lat="53.012641"><ele>57.568226</ele><time>2021-07-17T08:54:44Z</time><extensions><speed>1.011311</speed><course>291.768890</course><hAcc>0.899649</hAcc><vAcc>0.714993</vAcc></extensions></trkpt>
      <trkpt lon="-4.109179" lat="53.012644"><ele>57.605797</ele><time>2021-07-17T08:54:45Z</time><extensions><speed>1.013849</speed><course>296.126740</course><hAcc>0.901371</hAcc><vAcc>0.715920</vAcc></extensions></trkpt>
      <trkpt lon="-4.109193" lat="53.012647"><ele>57.638165</ele><time>2021-07-17T08:54:46Z</time><extensions><speed>1.020343</speed><course>297.059143</course><hAcc>0.902604</hAcc><vAcc>0.716498</vAcc></extensions></trkpt>
      <trkpt lon="-4.109208" lat="53.012650"><ele>57.666176</ele><time>2021-07-17T08:54:47Z</time><extensions><speed>1.030269</speed><course>303.696320</course><hAcc>0.903292</hAcc><vAcc>0.716843</vAcc></extensions></trkpt>
      <trkpt lon="-4.109223" lat="53.012653"><ele>57.690811</ele><time>2021-07-17T08:54:48Z</time><extensions><speed>1.043093</speed><course>307.460022</course><hAcc>0.903675</hAcc><vAcc>0.717387</vAcc></extensions></trkpt>
      <trkpt lon="-4.109238" lat="53.012655"><ele>57.713131</ele><time>2021-07-17T08:54:49Z</time><extensions><speed>1.058212</speed><course>302.094666</course><hAcc>0.904544</hAcc><vAcc>0.719068</vAcc></extensions></trkpt>
      <trkpt lon="-4.109254" lat="53.012657"><ele>57.734085</ele><time>2021-07-17T08:54:50Z</time><extensions><speed>1.074732</speed><course>294.763123</course><hAcc>0.907608</hAcc><vAcc>0.723585</vAcc></extensions></trkpt>
      <trkpt lon="-4.109269" lat="53.012659"><ele>57.754379</ele><time>2021-07-17T08:54:51Z</time><extensions><speed>1.091224</speed><course>292.310913</course><hAcc>0.915932</hAcc><vAcc>0.733637</vAcc></extensions></trkpt>
      <trkpt lon="-4.109286" lat="53.012660"><ele>57.774406</ele><time>2021-07-17T08:54:52Z</time><extensions><speed>1.106247</speed><course>286.252472</course><hAcc>0.934351</hAcc><vAcc>0.753073</vAcc></extensions></trkpt>
      <trkpt lon="-4.109302" lat="53.012662"><ele>57.794369</ele><time>2021-07-17T08:54:53Z</time><extensions><speed>1.118785</speed><course>277.085999</course><hAcc>0.969599</hAcc><vAcc>0.786760</vAcc></extensions></trkpt>
      <trkpt lon="-4.109317" lat="53.012658"><ele>57.687298</ele><time>2021-07-17T08:54:54Z</time><extensions><speed>1.178265</speed><course>207.637573</course><hAcc>0.931622</hAcc><vAcc>0.752145</vAcc></extensions></trkpt>
      <trkpt lon="-4.109333" lat="53.012654"><ele>57.704704</ele><time>2021-07-17T08:54:55Z</time><extensions><speed>1.167238</speed><course>199.781464</course><hAcc>0.912762</hAcc><vAcc>0.732541</vAcc></extensions></trkpt>
      <trkpt lon="-4.109349" lat="53.012650"><ele>57.727398</ele><time>2021-07-17T08:54:56Z</time><extensions><speed>1.153802</speed><course>204.898392</course><hAcc>0.905122</hAcc><vAcc>0.722817</vAcc></extensions></trkpt>
      <trkpt lon="-4.109364" lat="53.012645"><ele>57.756622</ele><time>2021-07-17T08:54:57Z</time><extensions><speed>1.139001</speed><course>218.988647</course><hAcc>0.903226</hAcc><vAcc>0.718584</vAcc></extensions></trkpt>
      <trkpt lon="-4.109379" lat="53.012640"><ele>57.793362</ele><time>2021-07-17T08:54:58Z</time><extensions><speed>1.123996</speed><course>240.875916</course><hAcc>0.903646</hAcc><vAcc>0.716722</vAcc></extensions></trkpt>
      <trkpt lon="-4.109394" lat="53.012635"><ele>57.838364</ele><time>2021-07-17T08:54:59Z</time><extensions><speed>1.109616</speed><course>240.875916</course><hAcc>0.904544</hAcc><vAcc>0.715241</vAcc></extensions></trkpt>
      <trkpt lon="-4.109408" lat="53.012630"><ele>57.892212</ele><time>2021-07-17T08:55:00Z</time><extensions><speed>1.096460</speed><course>240.875916</course><hAcc>0.905156</hAcc><vAcc>0.713004</vAcc></extensions></trkpt>
      <trkpt lon="-4.109422" lat="53.012625"><ele>57.955460</ele><time>2021-07-17T08:55:01Z</time><extensions><speed>1.084651</speed><course>240.875916</course><hAcc>0.905364</hAcc><vAcc>0.709478</vAcc></extensions></trkpt>
      <trkpt lon="-4.109435" lat="53.012620"><ele>58.028931</ele><time>2021-07-17T08:55:02Z</time><extensions><speed>1.073934</speed><course>240.875916</course><hAcc>0.905371</hAcc><vAcc>0.704529</vAcc></extensions></trkpt>
      <trkpt lon="-4.109448" lat="53.012614"><ele>58.113647</ele><time>2021-07-17T08:55:03Z</time><extensions><speed>1.064073</speed><course>240.875916</course><hAcc>0.905474</hAcc><vAcc>0.698299</vAcc></extensions></trkpt>
      <trkpt lon="-4.109461" lat="53.012609"><ele>58.210468</ele><time>2021-07-17T08:55:04Z</time><extensions><speed>1.055111</speed><course>269.430084</course><hAcc>0.905896</hAcc><vAcc>0.691120</vAcc></extensions></trkpt>
      <trkpt lon="-4.109474" lat="53.012603"><ele>58.320145</ele><time>2021-07-17T08:55:05Z</time><extensions><speed>1.047050</speed><course>274.056000</course><hAcc>0.906673</hAcc><vAcc>0.683472</vAcc></extensions></trkpt>
      <trkpt lon="-4.109487" lat="53.012598"><ele>58.443378</ele><time>2021-07-17T08:55:06Z</time><extensions><speed>1.039186</speed><course>273.580658</course><hAcc>0.907578</hAcc><vAcc>0.675932</vAcc></extensions></trkpt>
      <trkpt lon="-4.109500" lat="53.012593"><ele>58.580570</ele><time>2021-07-17T08:55:07Z</time><extensions><speed>1.030094</speed><course>266.285736</course><hAcc>0.908130</hAcc><vAcc>0.669108</vAcc></extensions></trkpt>
      <trkpt lon="-4.109513" lat="53.012588"><ele>58.731731</ele><time>2021-07-17T08:55:08Z</time><extensions><speed>1.018303</speed><course>280.416809</course><hAcc>0.907734</hAcc><vAcc>0.663558</vAcc></extensions></trkpt>
      <trkpt lon="-4.109526" lat="53.012583"><ele>58.896229</ele><time>2021-07-17T08:55:09Z</time><extensions><speed>1.002486</speed><course>289.633057</course><hAcc>0.905966</hAcc><vAcc>0.659700</vAcc></extensions></trkpt>
      <trkpt lon="-4.109538" lat="53.012579"><ele>59.072720</ele><time>2021-07-17T08:55:10Z</time><extensions><speed>0.981708</speed><course>274.042023</course><hAcc>0.902829</hAcc><vAcc>0.657747</vAcc></extensions></trkpt>
      <trkpt lon="-4.109551" lat="53.012575"><ele>59.259308</ele><time>2021-07-17T08:55:11Z</time><extensions><speed>0.955818</speed><course>259.398621</course><hAcc>0.898756</hAcc><vAcc>0.657691</vAcc></extensions></trkpt>
      <trkpt lon="-4.109564" lat="53.012572"><ele>59.453644</ele><time>2021-07-17T08:55:12Z</time><extensions><speed>0.925985</speed><course>235.228027</course><hAcc>0.894375</hAcc><vAcc>0.659319</vAcc></extensions></trkpt>
      <trkpt lon="-4.109577" lat="53.012569"><ele>59.652939</ele><time>2021-07-17T08:55:13Z</time><extensions><speed>0.894151</speed><course>233.943741</course><hAcc>0.890264</hAcc><vAcc>0.662282</vAcc></extensions></trkpt>
      <trkpt lon="-4.109589" lat="53.012567"><ele>59.853970</ele><time>2021-07-17T08:55:14Z</time><extensions><speed>0.862094</speed><course>251.986771</course><hAcc>0.886812</hAcc><vAcc>0.666175</vAcc></extensions></trkpt>
      <trkpt lon="-4.109602" lat="53.012565"><ele>60.053192</ele><time>2021-07-17T08:55:15Z</time><extensions><speed>0.831465</speed><course>230.632401</course><hAcc>0.884204</hAcc><vAcc>0.670609</vAcc></extensions></trkpt>
      <trkpt lon="-4.109614" lat="53.012564"><ele>60.247063</ele><time>2021-07-17T08:55:16Z</time><extensions><speed>0.803718</speed><course>208.539734</course><hAcc>0.882462</hAcc><vAcc>0.675258</vAcc></extensions></trkpt>
      <trkpt lon="-4.109626" lat="53.012564"><ele>60.432266</ele><time>2021-07-17T08:55:17Z</time><extensions><speed>0.779909</speed><course>217.062653</course><hAcc>0.881505</hAcc><vAcc>0.679879</vAcc></extensions></trkpt>
      <trkpt lon="-4.109637" lat="53.012564"><ele>60.605824</ele><time>2021-07-17T08:55:18Z</time><extensions><speed>0.760263</speed><course>216.480164</course><hAcc>0.881189</hAcc><vAcc>0.684307</vAcc></extensions></trkpt>
      <trkpt lon="-4.109648" lat="53.012565"><ele>60.765083</ele><time>2021-07-17T08:55:19Z</time><extensions><speed>0.743914</speed><course>215.204285</course><hAcc>0.881352</hAcc><vAcc>0.688442</vAcc></extensions></trkpt>
      <trkpt lon="-4.109659" lat="53.012567"><ele>60.907681</ele><time>2021-07-17T08:55:20Z</time><extensions><speed>0.729293</speed><course>192.608246</course><hAcc>0.881839</hAcc><vAcc>0.692230</vAcc></extensions></trkpt>
      <trkpt lon="-4.109669" lat="53.012569"><ele>61.031746</ele><time>2021-07-17T08:55:21Z</time><extensions><speed>0.714677</speed><course>196.818375</course><hAcc>0.882515</hAcc><vAcc>0.695648</vAcc></extensions></trkpt>
      <trkpt lon="-4.109678" lat="53.012572"><ele>61.136086</ele><time>2021-07-17T08:55:22Z</time><extensions><speed>0.698021</speed><course>200.564194</course><hAcc>0.883276</hAcc><vAcc>0.698693</vAcc></extensions></trkpt>
      <trkpt lon="-4.109687" lat="53.012575"><ele>61.220093</ele><time>2021-07-17T08:55:23Z</time><extensions><speed>0.676932</speed><course>224.718231</course><hAcc>0.884044</hAcc><vAcc>0.701372</vAcc></extensions></trkpt>
      <trkpt lon="-4.109696" lat="53.012578"><ele>61.283752</ele><time>2021-07-17T08:55:24Z</time><extensions><speed>0.648994</speed><course>228.969803</course><hAcc>0.884769</hAcc><vAcc>0.703699</vAcc></extensions></trkpt>
      <trkpt lon="-4.109704" lat="53.012581"><ele>61.327812</ele><time>2021-07-17T08:55:25Z</time><extensions><speed>0.612526</speed><course>250.366501</course><hAcc>0.885421</hAcc><vAcc>0.705695</vAcc></extensions></trkpt>
      <trkpt lon="-4.109711" lat="53.012584"><ele>61.353790</ele><time>2021-07-17T08:55:26Z</time><extensions><speed>0.566872</speed><course>-1.000000</course><hAcc>0.885987</hAcc><vAcc>0.707379</vAcc></extensions></trkpt>
      <trkpt lon="-4.109717" lat="53.012587"><ele>61.363827</ele><time>2021-07-17T08:55:27Z</time><extensions><speed>0.512401</speed><course>232.063629</course><hAcc>0.886463</hAcc><vAcc>0.708775</vAcc></extensions></trkpt>
      <trkpt lon="-4.109722" lat="53.012590"><ele>61.360519</ele><time>2021-07-17T08:55:28Z</time><extensions><speed>0.451088</speed><course>232.063614</course><hAcc>0.886855</hAcc><vAcc>0.709907</vAcc></extensions></trkpt>
      <trkpt lon="-4.109727" lat="53.012592"><ele>61.346630</ele><time>2021-07-17T08:55:29Z</time><extensions><speed>0.385927</speed><course>232.063614</course><hAcc>0.887171</hAcc><vAcc>0.710803</vAcc></extensions></trkpt>
      <trkpt lon="-4.109731" lat="53.012595"><ele>61.324799</ele><time>2021-07-17T08:55:30Z</time><extensions><speed>0.319996</speed><course>232.063599</course><hAcc>0.887423</hAcc><vAcc>0.711500</vAcc></extensions></trkpt>
      <trkpt lon="-4.109734" lat="53.012596"><ele>61.297504</ele><time>2021-07-17T08:55:31Z</time><extensions><speed>0.255696</speed><course>232.063599</course><hAcc>0.887622</hAcc><vAcc>0.712038</vAcc></extensions></trkpt>
      <trkpt lon="-4.109737" lat="53.012598"><ele>61.267006</ele><time>2021-07-17T08:55:32Z</time><extensions><speed>0.194809</speed><course>232.063583</course><hAcc>0.887779</hAcc><vAcc>0.712458</vAcc></extensions></trkpt>
      <trkpt lon="-4.109739" lat="53.012599"><ele>61.235340</ele><time>2021-07-17T08:55:33Z</time><extensions><speed>0.139087</speed><course>232.063583</course><hAcc>0.887904</hAcc><vAcc>0.712795</vAcc></extensions></trkpt>
      <trkpt lon="-4.109740" lat="53.012599"><ele>61.204346</ele><time>2021-07-17T08:55:34Z</time><extensions><speed>0.090380</speed><course>248.555511</course><hAcc>0.888008</hAcc><vAcc>0.713078</vAcc></extensions></trkpt>
      <trkpt lon="-4.109741" lat="53.012599"><ele>61.175568</ele><time>2021-07-17T08:55:35Z</time><extensions><speed>0.051995</speed><course>214.727661</course><hAcc>0.888097</hAcc><vAcc>0.713329</vAcc></extensions></trkpt>
      <trkpt lon="-4.109742" lat="53.012599"><ele>61.150230</ele><time>2021-07-17T08:55:36Z</time><extensions><speed>0.034271</speed><course>215.656113</course><hAcc>0.888178</hAcc><vAcc>0.713563</vAcc></extensions></trkpt>
      <trkpt lon="-4.109742" lat="53.012599"><ele>61.129200</ele><time>2021-07-17T08:55:37Z</time><extensions><speed>0.044140</speed><course>205.637772</course><hAcc>0.888255</hAcc><vAcc>0.713794</vAcc></extensions></trkpt>
      <trkpt lon="-4.109742" lat="53.012599"><ele>61.113029</ele><time>2021-07-17T08:55:38Z</time><extensions><speed>0.060881</speed><course>201.575424</course><hAcc>0.888330</hAcc><vAcc>0.714032</vAcc></extensions></trkpt>
      <trkpt lon="-4.109742" lat="53.012598"><ele>61.102020</ele><time>2021-07-17T08:55:39Z</time><extensions><speed>0.074562</speed><course>196.854248</course><hAcc>0.888405</hAcc><vAcc>0.714284</vAcc></extensions></trkpt>
      <trkpt lon="-4.109742" lat="53.012597"><ele>61.096260</ele><time>2021-07-17T08:55:40Z</time><extensions><speed>0.084069</speed><course>198.264053</course><hAcc>0.888477</hAcc><vAcc>0.714548</vAcc></extensions></trkpt>
      <trkpt lon="-4.109742" lat="53.012597"><ele>61.095592</ele><time>2021-07-17T08:55:41Z</time><extensions><speed>0.090330</speed><course>198.636932</course><hAcc>0.888546</hAcc><vAcc>0.714814</vAcc></extensions></trkpt>
      <trkpt lon="-4.109743" lat="53.012596"><ele>61.099655</ele><time>2021-07-17T08:55:42Z</time><extensions><speed>0.095028</speed><course>192.727798</course><hAcc>0.888608</hAcc><vAcc>0.715071</vAcc></extensions></trkpt>
      <trkpt lon="-4.109743" lat="53.012595"><ele>61.107880</ele><time>2021-07-17T08:55:43Z</time><extensions><speed>0.100452</speed><course>184.691818</course><hAcc>0.888662</hAcc><vAcc>0.715303</vAcc></extensions></trkpt>
      <trkpt lon="-4.109744" lat="53.012594"><ele>61.119465</ele><time>2021-07-17T08:55:44Z</time><extensions><speed>0.109486</speed><course>177.917740</course><hAcc>0.888704</hAcc><vAcc>0.715492</vAcc></extensions></trkpt>
      <trkpt lon="-4.109745" lat="53.012593"><ele>61.133446</ele><time>2021-07-17T08:55:45Z</time><extensions><speed>0.125112</speed><course>169.935883</course><hAcc>0.888732</hAcc><vAcc>0.715620</vAcc></extensions></trkpt>
      <trkpt lon="-4.109747" lat="53.012593"><ele>61.148895</ele><time>2021-07-17T08:55:46Z</time><extensions><speed>0.149162</speed><course>168.290512</course><hAcc>0.888744</hAcc><vAcc>0.715677</vAcc></extensions></trkpt>
      <trkpt lon="-4.109749" lat="53.012592"><ele>61.164959</ele><time>2021-07-17T08:55:47Z</time><extensions><speed>0.181911</speed><course>175.847488</course><hAcc>0.888739</hAcc><vAcc>0.715655</vAcc></extensions></trkpt>
      <trkpt lon="-4.109752" lat="53.012592"><ele>61.180843</ele><time>2021-07-17T08:55:48Z</time><extensions><speed>0.221995</speed><course>182.489380</course><hAcc>0.888718</hAcc><vAcc>0.715555</vAcc></extensions></trkpt>
      <trkpt lon="-4.109756" lat="53.012591"><ele>61.195957</ele><time>2021-07-17T08:55:49Z</time><extensions><speed>0.266912</speed><course>193.224472</course><hAcc>0.888683</hAcc><vAcc>0.715385</vAcc></extensions></trkpt>
      <trkpt lon="-4.109760" lat="53.012591"><ele>61.209869</ele><time>2021-07-17T08:55:50Z</time><extensions><speed>0.314092</speed><course>210.457108</course><hAcc>0.888636</hAcc><vAcc>0.715161</vAcc></extensions></trkpt>
      <trkpt lon="-4.109765" lat="53.012591"><ele>61.222214</ele><time>2021-07-17T08:55:51Z</time><extensions><speed>0.361172</speed><course>227.054108</course><hAcc>0.888578</hAcc><vAcc>0.714904</vAcc></extensions></trkpt>
      <trkpt lon="-4.109771" lat="53.012590"><ele>61.232635</ele><time>2021-07-17T08:55:52Z</time><extensions><speed>0.406483</speed><course>247.666534</course><hAcc>0.888513</hAcc><vAcc>0.714637</vAcc></extensions></trkpt>
      <trkpt lon="-4.109777" lat="53.012590"><ele>61.240715</ele><time>2021-07-17T08:55:53Z</time><extensions><speed>0.448679</speed><course>261.197876</course><hAcc>0.888442</hAcc><vAcc>0.714377</vAcc></extensions></trkpt>
      <trkpt lon="-4.109784" lat="53.012591"><ele>61.246120</ele><time>2021-07-17T08:55:54Z</time><extensions><speed>0.486543</speed><course>263.217255</course><hAcc>0.888368</hAcc><vAcc>0.714133</vAcc></extensions></trkpt>
      <trkpt lon="-4.109792" lat="53.012591"><ele>61.248699</ele><time>2021-07-17T08:55:55Z</time><extensions><speed>0.519630</speed><course>271.463165</course><hAcc>0.888291</hAcc><vAcc>0.713906</vAcc></extensions></trkpt>
      <trkpt lon="-4.109799" lat="53.012591"><ele>61.248314</ele><time>2021-07-17T08:55:56Z</time><extensions><speed>0.548194</speed><course>281.991608</course><hAcc>0.888213</hAcc><vAcc>0.713690</vAcc></extensions></trkpt>
      <trkpt lon="-4.109808" lat="53.012592"><ele>61.244762</ele><time>2021-07-17T08:55:57Z</time><extensions><speed>0.573727</speed><course>285.895782</course><hAcc>0.888132</hAcc><vAcc>0.713475</vAcc></extensions></trkpt>
      <trkpt lon="-4.109816" lat="53.012593"><ele>61.237900</ele><time>2021-07-17T08:55:58Z</time><extensions><speed>0.598690</speed><course>287.327179</course><hAcc>0.888049</hAcc><vAcc>0.713248</vAcc></extensions></trkpt>
      <trkpt lon="-4.109825" lat="53.012594"><ele>61.227688</ele><time>2021-07-17T08:55:59Z</time><extensions><speed>0.625028</speed><course>297.396240</course><hAcc>0.887961</hAcc><vAcc>0.713002</vAcc></extensions></trkpt>
      <trkpt lon="-4.109834" lat="53.012596"><ele>61.214195</ele><time>2021-07-17T08:56:00Z</time><extensions><speed>0.653400</speed><course>299.473175</course><hAcc>0.887867</hAcc><vAcc>0.712729</vAcc></extensions></trkpt>
      <trkpt lon="-4.109844" lat="53.012598"><ele>61.197567</ele><time>2021-07-17T08:56:01Z</time><extensions><speed>0.683124</speed><course>297.683289</course><hAcc>0.887768</hAcc><vAcc>0.712427</vAcc></extensions></trkpt>
      <trkpt lon="-4.109854" lat="53.012600"><ele>61.177967</ele><time>2021-07-17T08:56:02Z</time><extensions><speed>0.712494</speed><course>292.365356</course><hAcc>0.887662</hAcc><vAcc>0.712093</vAcc></extensions></trkpt>
      <trkpt lon="-4.109864" lat="53.012602"><ele>61.155617</ele><time>2021-07-17T08:56:03Z</time><extensions><speed>0.739842</speed><course>291.092651</course><hAcc>0.887552</hAcc><vAcc>0.711729</vAcc></extensions></trkpt>
      <trkpt lon="-4.109874" lat="53.012605"><ele>61.130970</ele><time>2021-07-17T08:56:04Z</time><extensions><speed>0.764264</speed><course>297.007721</course><hAcc>0.887438</hAcc><vAcc>0.711341</vAcc></extensions></trkpt>
      <trkpt lon="-4.109885" lat="53.012607"><ele>61.104752</ele><time>2021-07-17T08:56:05Z</time><extensions><speed>0.785673</speed><course>291.539093</course><hAcc>0.887323</hAcc><vAcc>0.710943</vAcc></extensions></trkpt>
      <trkpt lon="-4.109896" lat="53.012610"><ele>61.077793</ele><time>2021-07-17T08:56:06Z</time><extensions><speed>0.804631</speed><course>293.314819</course><hAcc>0.887212</hAcc><vAcc>0.710548</vAcc></extensions></trkpt>
      <trkpt lon="-4.109907" lat="53.012612"><ele>61.050941</ele><time>2021-07-17T08:56:07Z</time><extensions><speed>0.822329</speed><course>297.043213</course><hAcc>0.887110</hAcc><vAcc>0.710166</vAcc></extensions></trkpt>
      <trkpt lon="-4.109919" lat="53.012614"><ele>61.025017</ele><time>2021-07-17T08:56:08Z</time><extensions><speed>0.839848</speed><course>301.573547</course><hAcc>0.887020</hAcc><vAcc>0.709813</vAcc></extensions></trkpt>
      <trkpt lon="-4.109931" lat="53.012616"><ele>61.000751</ele><time>2021-07-17T08:56:09Z</time><extensions><speed>0.856970</speed><course>305.542847</course><hAcc>0.886949</hAcc><vAcc>0.709508</vAcc></extensions></trkpt>
      <trkpt lon="-4.109944" lat="53.012618"><ele>60.978889</ele><time>2021-07-17T08:56:10Z</time><extensions><speed>0.873652</speed><course>304.461029</course><hAcc>0.886900</hAcc><vAcc>0.709280</vAcc></extensions></trkpt>
      <trkpt lon="-4.109957" lat="53.012619"><ele>60.960114</ele><time>2021-07-17T08:56:11Z</time><extensions><speed>0.890445</speed><course>304.519958</course><hAcc>0.886876</hAcc><vAcc>0.709155</vAcc></extensions></trkpt>
      <trkpt lon="-4.109970" lat="53.012619"><ele>60.944927</ele><time>2021-07-17T08:56:12Z</time><extensions><speed>0.907456</speed><course>306.835541</course><hAcc>0.886878</hAcc><vAcc>0.709153</vAcc></extensions></trkpt>
      <trkpt lon="-4.109984" lat="53.012619"><ele>60.933704</ele><time>2021-07-17T08:56:13Z</time><extensions><speed>0.924754</speed><course>312.924469</course><hAcc>0.886906</hAcc><vAcc>0.709277</vAcc></extensions></trkpt>
      <trkpt lon="-4.109998" lat="53.012619"><ele>60.926689</ele><time>2021-07-17T08:56:14Z</time><extensions><speed>0.942275</speed><course>313.121582</course><hAcc>0.886955</hAcc><vAcc>0.709518</vAcc></extensions></trkpt>
      <trkpt lon="-4.110012" lat="53.012618"><ele>60.923946</ele><time>2021-07-17T08:56:15Z</time><extensions><speed>0.959043</speed><course>312.363678</course><hAcc>0.887022</hAcc><vAcc>0.709846</vAcc></extensions></trkpt>
      <trkpt lon="-4.110026" lat="53.012616"><ele>60.925476</ele><time>2021-07-17T08:56:16Z</time><extensions><speed>0.974606</speed><course>309.905548</course><hAcc>0.887100</hAcc><vAcc>0.710221</vAcc></extensions></trkpt>
      <trkpt lon="-4.110040" lat="53.012613"><ele>60.931149</ele><time>2021-07-17T08:56:17Z</time><extensions><speed>0.989935</speed><course>308.597687</course><hAcc>0.887182</hAcc><vAcc>0.710600</vAcc></extensions></trkpt>
      <trkpt lon="-4.110054" lat="53.012611"><ele>60.940773</ele><time>2021-07-17T08:56:18Z</time><extensions><speed>1.005465</speed><course>307.103394</course><hAcc>0.887262</hAcc><vAcc>0.710941</vAcc></extensions></trkpt>
      <trkpt lon="-4.110068" lat="53.012607"><ele>60.954056</ele><time>2021-07-17T08:56:19Z</time><extensions><speed>1.020541</speed><course>306.897400</course><hAcc>0.887334</hAcc><vAcc>0.711217</vAcc></extensions></trkpt>
      <trkpt lon="-4.110082" lat="53.012603"><ele>60.970516</ele><time>2021-07-17T08:56:20Z</time><extensions><speed>1.034734</speed><course>302.152618</course><hAcc>0.887392</hAcc><vAcc>0.711411</vAcc></extensions></trkpt>
      <trkpt lon="-4.110095" lat="53.012598"><ele>60.989548</ele><time>2021-07-17T08:56:21Z</time><extensions><speed>1.047848</speed><course>297.726410</course><hAcc>0.887434</hAcc><vAcc>0.711521</vAcc></extensions></trkpt>
      <trkpt lon="-4.110109" lat="53.012593"><ele>61.010483</ele><time>2021-07-17T08:56:22Z</time><extensions><speed>1.059335</speed><course>300.194183</course><hAcc>0.887457</hAcc><vAcc>0.711551</vAcc></extensions></trkpt>
      <trkpt lon="-4.110122" lat="53.012588"><ele>61.032639</ele><time>2021-07-17T08:56:23Z</time><extensions><speed>1.069029</speed><course>297.151825</course><hAcc>0.887464</hAcc><vAcc>0.711514</vAcc></extensions></trkpt>
      <trkpt lon="-4.110135" lat="53.012582"><ele>61.055325</ele><time>2021-07-17T08:56:24Z</time><extensions><speed>1.077369</speed><course>298.399384</course><hAcc>0.887454</hAcc><vAcc>0.711425</vAcc></extensions></trkpt>
      <trkpt lon="-4.110147" lat="53.012576"><ele>61.077839</ele><time>2021-07-17T08:56:25Z</time><extensions><speed>1.085109</speed><course>300.837921</course><hAcc>0.887432</hAcc><vAcc>0.711298</vAcc></extensions></trkpt>
      <trkpt lon="-4.110160" lat="53.012570"><ele>61.099476</ele><time>2021-07-17T08:56:26Z</time><extensions><speed>1.093584</speed><course>299.844330</course><hAcc>0.887399</hAcc><vAcc>0.711148</vAcc></extensions></trkpt>
      <trkpt lon="-4.110172" lat="53.012564"><ele>61.119614</ele><time>2021-07-17T08:56:27Z</time><extensions><speed>1.104221</speed><course>300.001373</course><hAcc>0.887361</hAcc><vAcc>0.710987</vAcc></extensions></trkpt>
      <trkpt lon="-4.110185" lat="53.012557"><ele>61.137737</ele><time>2021-07-17T08:56:28Z</time><extensions><speed>1.117507</speed><course>294.568817</course><hAcc>0.887320</hAcc><vAcc>0.710828</vAcc></extensions></trkpt>
      <trkpt lon="-4.110197" lat="53.012550"><ele>61.153618</ele><time>2021-07-17T08:56:29Z</time><extensions><speed>1.132857</speed><course>300.687103</course><hAcc>0.887278</hAcc><vAcc>0.710683</vAcc></extensions></trkpt>
      <trkpt lon="-4.110210" lat="53.012544"><ele>61.167412</ele><time>2021-07-17T08:56:30Z</time><extensions><speed>1.149421</speed><course>297.691925</course><hAcc>0.887237</hAcc><vAcc>0.710557</vAcc></extensions></trkpt>
      <trkpt lon="-4.110223" lat="53.012537"><ele>61.179436</ele><time>2021-07-17T08:56:31Z</time><extensions><speed>1.166552</speed><course>293.928223</course><hAcc>0.887199</hAcc><vAcc>0.710454</vAcc></extensions></trkpt>
      <trkpt lon="-4.110236" lat="53.012530"><ele>61.190117</ele><time>2021-07-17T08:56:32Z</time><extensions><speed>1.183439</speed><course>297.041656</course><hAcc>0.887163</hAcc><vAcc>0.710367</vAcc></extensions></trkpt>
      <trkpt lon="-4.110249" lat="53.012523"><ele>61.200085</ele><time>2021-07-17T08:56:33Z</time><extensions><speed>1.199004</speed><course>298.722290</course><hAcc>0.887130</hAcc><vAcc>0.710288</vAcc></extensions></trkpt>
      <trkpt lon="-4.110263" lat="53.012515"><ele>61.210228</ele><time>2021-07-17T08:56:34Z</time><extensions><speed>1.212034</speed><course>296.674316</course><hAcc>0.887100</hAcc><vAcc>0.710212</vAcc></extensions></trkpt>
      <trkpt lon="-4.110276" lat="53.012508"><ele>61.221806</ele><time>2021-07-17T08:56:35Z</time><extensions><speed>1.221288</speed><course>301.147156</course><hAcc>0.887072</hAcc><vAcc>0.710131</vAcc></extensions></trkpt>
      <trkpt lon="-4.110290" lat="53.012501"><ele>61.236099</ele><time>2021-07-17T08:56:36Z</time><extensions><speed>1.226118</speed><course>301.618805</course><hAcc>0.887047</hAcc><vAcc>0.710046</vAcc></extensions></trkpt>
      <trkpt lon="-4.110304" lat="53.012494"><ele>61.254017</ele><time>2021-07-17T08:56:37Z</time><extensions><speed>1.226510</speed><course>300.678009</course><hAcc>0.887025</hAcc><vAcc>0.709958</vAcc></extensions></trkpt>
      <trkpt lon="-4.110318" lat="53.012487"><ele>61.276367</ele><time>2021-07-17T08:56:38Z</time><extensions><speed>1.222760</speed><course>306.078644</course><hAcc>0.887006</hAcc><vAcc>0.709875</vAcc></extensions></trkpt>
      <trkpt lon="-4.110331" lat="53.012479"><ele>61.303871</ele><time>2021-07-17T08:56:39Z</time><extensions><speed>1.215454</speed><course>302.099213</course><hAcc>0.886991</hAcc><vAcc>0.709804</vAcc></extensions></trkpt>
      <trkpt lon="-4.110345" lat="53.012472"><ele>61.336914</ele><time>2021-07-17T08:56:40Z</time><extensions><speed>1.205408</speed><course>298.253754</course><hAcc>0.886980</hAcc><vAcc>0.709753</vAcc></extensions></trkpt>
      <trkpt lon="-4.110359" lat="53.012465"><ele>61.375751</ele><time>2021-07-17T08:56:41Z</time><extensions><speed>1.193451</speed><course>299.772583</course><hAcc>0.886975</hAcc><vAcc>0.709725</vAcc></extensions></trkpt>
      <trkpt lon="-4.110372" lat="53.012458"><ele>61.420540</ele><time>2021-07-17T08:56:42Z</time><extensions><speed>1.180390</speed><course>299.946075</course><hAcc>0.886975</hAcc><vAcc>0.709721</vAcc></extensions></trkpt>
      <trkpt lon="-4.110385" lat="53.012451"><ele>61.471184</ele><time>2021-07-17T08:56:43Z</time><extensions><speed>1.166828</speed><course>303.968170</course><hAcc>0.886981</hAcc><vAcc>0.709740</vAcc></extensions></trkpt>
      <trkpt lon="-4.110398" lat="53.012444"><ele>61.527554</ele><time>2021-07-17T08:56:44Z</time><extensions><speed>1.153400</speed><course>302.223755</course><hAcc>0.886992</hAcc><vAcc>0.709781</vAcc></extensions></trkpt>
      <trkpt lon="-4.110411" lat="53.012438"><ele>61.589401</ele><time>2021-07-17T08:56:45Z</time><extensions><speed>1.141444</speed><course>303.590851</course><hAcc>0.887006</hAcc><vAcc>0.709840</vAcc></extensions></trkpt>
      <trkpt lon="-4.110424" lat="53.012431"><ele>61.656033</ele><time>2021-07-17T08:56:46Z</time><extensions><speed>1.132012</speed><course>302.656281</course><hAcc>0.887021</hAcc><vAcc>0.709915</vAcc></extensions></trkpt>
      <trkpt lon="-4.110437" lat="53.012424"><ele>61.726574</ele><time>2021-07-17T08:56:47Z</time><extensions><speed>1.125068</speed><course>307.857574</course><hAcc>0.887034</hAcc><vAcc>0.709998</vAcc></extensions></trkpt>
      <trkpt lon="-4.110449" lat="53.012418"><ele>61.800201</ele><time>2021-07-17T08:56:48Z</time><extensions><speed>1.120739</speed><course>306.241272</course><hAcc>0.887043</hAcc><vAcc>0.710077</vAcc></extensions></trkpt>
      <trkpt lon="-4.110462" lat="53.012411"><ele>61.876141</ele><time>2021-07-17T08:56:49Z</time><extensions><speed>1.119711</speed><course>302.560516</course><hAcc>0.887045</hAcc><vAcc>0.710133</vAcc></extensions></trkpt>
      <trkpt lon="-4.110474" lat="53.012404"><ele>61.953548</ele><time>2021-07-17T08:56:50Z</time><extensions><speed>1.122044</speed><course>304.207947</course><hAcc>0.887037</hAcc><vAcc>0.710149</vAcc></extensions></trkpt>
      <trkpt lon="-4.110487" lat="53.012398"><ele>62.031570</ele><time>2021-07-17T08:56:51Z</time><extensions><speed>1.127443</speed><course>304.678192</course><hAcc>0.887016</hAcc><vAcc>0.710111</vAcc></extensions></trkpt>
      <trkpt lon="-4.110499" lat="53.012391"><ele>62.109535</ele><time>2021-07-17T08:56:52Z</time><extensions><speed>1.136118</speed><course>300.816559</course><hAcc>0.886980</hAcc><vAcc>0.710013</vAcc></extensions></trkpt>
      <trkpt lon="-4.110512" lat="53.012384"><ele>62.186913</ele><time>2021-07-17T08:56:53Z</time><extensions><speed>1.148482</speed><course>302.457642</course><hAcc>0.886929</hAcc><vAcc>0.709851</vAcc></extensions></trkpt>
      <trkpt lon="-4.110525" lat="53.012377"><ele>62.263134</ele><time>2021-07-17T08:56:54Z</time><extensions><speed>1.164630</speed><course>303.405792</course><hAcc>0.886862</hAcc><vAcc>0.709628</vAcc></extensions></trkpt>
      <trkpt lon="-4.110538" lat="53.012370"><ele>62.337662</ele><time>2021-07-17T08:56:55Z</time><extensions><speed>1.184121</speed><course>305.179382</course><hAcc>0.886782</hAcc><vAcc>0.709349</vAcc></extensions></trkpt>
      <trkpt lon="-4.110552" lat="53.012363"><ele>62.409924</ele><time>2021-07-17T08:56:56Z</time><extensions><speed>1.205878</speed><course>301.811188</course><hAcc>0.886691</hAcc><vAcc>0.709025</vAcc></extensions></trkpt>
      <trkpt lon="-4.110565" lat="53.012356"><ele>62.479240</ele><time>2021-07-17T08:56:57Z</time><extensions><speed>1.228067</speed><course>294.111877</course><hAcc>0.886593</hAcc><vAcc>0.708669</vAcc></extensions></trkpt>
      <trkpt lon="-4.110579" lat="53.012349"><ele>62.545185</ele><time>2021-07-17T08:56:58Z</time><extensions><speed>1.248746</speed><course>291.186249</course><hAcc>0.886491</hAcc><vAcc>0.708294</vAcc></extensions></trkpt>
      <trkpt lon="-4.110594" lat="53.012342"><ele>62.608063</ele><time>2021-07-17T08:56:59Z</time><extensions><speed>1.266371</speed><course>291.833313</course><hAcc>0.886390</hAcc><vAcc>0.707918</vAcc></extensions></trkpt>
      <trkpt lon="-4.110609" lat="53.012334"><ele>62.668812</ele><time>2021-07-17T08:57:00Z</time><extensions><speed>1.280061</speed><course>293.198639</course><hAcc>0.886296</hAcc><vAcc>0.707560</vAcc></extensions></trkpt>
      <trkpt lon="-4.110624" lat="53.012327"><ele>62.728371</ele><time>2021-07-17T08:57:01Z</time><extensions><speed>1.289361</speed><course>297.953094</course><hAcc>0.886213</hAcc><vAcc>0.707243</vAcc></extensions></trkpt>
      <trkpt lon="-4.110639" lat="53.012320"><ele>62.787182</ele><time>2021-07-17T08:57:02Z</time><extensions><speed>1.293609</speed><course>294.998413</course><hAcc>0.886143</hAcc><vAcc>0.706987</vAcc></extensions></trkpt>
      <trkpt lon="-4.110655" lat="53.012313"><ele>62.845325</ele><time>2021-07-17T08:57:03Z</time><extensions><speed>1.292201</speed><course>290.333923</course><hAcc>0.886090</hAcc><vAcc>0.706803</vAcc></extensions></trkpt>
      <trkpt lon="-4.110670" lat="53.012307"><ele>62.902775</ele><time>2021-07-17T08:57:04Z</time><extensions><speed>1.284005</speed><course>297.336884</course><hAcc>0.886053</hAcc><vAcc>0.706694</vAcc></extensions></trkpt>
      <trkpt lon="-4.110686" lat="53.012300"><ele>62.959229</ele><time>2021-07-17T08:57:05Z</time><extensions><speed>1.267851</speed><course>291.763641</course><hAcc>0.886032</hAcc><vAcc>0.706659</vAcc></extensions></trkpt>
      <trkpt lon="-4.110702" lat="53.012294"><ele>63.013885</ele><time>2021-07-17T08:57:06Z</time><extensions><speed>1.242960</speed><course>293.588959</course><hAcc>0.886022</hAcc><vAcc>0.706685</vAcc></extensions></trkpt>
      <trkpt lon="-4.110717" lat="53.012288"><ele>63.065865</ele><time>2021-07-17T08:57:07Z</time><extensions><speed>1.208805</speed><course>298.534668</course><hAcc>0.886020</hAcc><vAcc>0.706754</vAcc></extensions></trkpt>
      <trkpt lon="-4.110732" lat="53.012283"><ele>63.114426</ele><time>2021-07-17T08:57:08Z</time><extensions><speed>1.165941</speed><course>294.834351</course><hAcc>0.886016</hAcc><vAcc>0.706838</vAcc></extensions></trkpt>
      <trkpt lon="-4.110747" lat="53.012277"><ele>63.158775</ele><time>2021-07-17T08:57:09Z</time><extensions><speed>1.115119</speed><course>297.698059</course><hAcc>0.886004</hAcc><vAcc>0.706908</vAcc></extensions></trkpt>
      <trkpt lon="-4.110761" lat="53.012272"><ele>63.198174</ele><time>2021-07-17T08:57:10Z</time><extensions><speed>1.057117</speed><course>298.511444</course><hAcc>0.885974</hAcc><vAcc>0.706932</vAcc></extensions></trkpt>
      <trkpt lon="-4.110774" lat="53.012268"><ele>63.232162</ele><time>2021-07-17T08:57:11Z</time><extensions><speed>0.993113</speed><course>303.054443</course><hAcc>0.885916</hAcc><vAcc>0.706879</vAcc></extensions></trkpt>
      <trkpt lon="-4.110786" lat="53.012264"><ele>63.260605</ele><time>2021-07-17T08:57:12Z</time><extensions><speed>0.924519</speed><course>300.594757</course><hAcc>0.885839</hAcc><vAcc>0.706731</vAcc></extensions></trkpt>
      <trkpt lon="-4.110798" lat="53.012260"><ele>63.283794</ele><time>2021-07-17T08:57:13Z</time><extensions><speed>0.852611</speed><course>303.489990</course><hAcc>0.885735</hAcc><vAcc>0.706461</vAcc></extensions></trkpt>
      <trkpt lon="-4.110808" lat="53.012256"><ele>63.302246</ele><time>2021-07-17T08:57:14Z</time><extensions><speed>0.779809</speed><course>307.296783</course><hAcc>0.885583</hAcc><vAcc>0.706027</vAcc></extensions></trkpt>
      <trkpt lon="-4.110818" lat="53.012253"><ele>63.316750</ele><time>2021-07-17T08:57:15Z</time><extensions><speed>0.708794</speed><course>306.846466</course><hAcc>0.885379</hAcc><vAcc>0.705406</vAcc></extensions></trkpt>
      <trkpt lon="-4.110827" lat="53.012250"><ele>63.328354</ele><time>2021-07-17T08:57:16Z</time><extensions><speed>0.642998</speed><course>314.303711</course><hAcc>0.885124</hAcc><vAcc>0.704583</vAcc></extensions></trkpt>
      <trkpt lon="-4.110835" lat="53.012247"><ele>63.338379</ele><time>2021-07-17T08:57:17Z</time><extensions><speed>0.586325</speed><course>316.753265</course><hAcc>0.884823</hAcc><vAcc>0.703559</vAcc></extensions></trkpt>
      <trkpt lon="-4.110842" lat="53.012244"><ele>63.348248</ele><time>2021-07-17T08:57:18Z</time><extensions><speed>0.541573</speed><course>312.101562</course><hAcc>0.884463</hAcc><vAcc>0.702342</vAcc></extensions></trkpt>
      <trkpt lon="-4.110848" lat="53.012242"><ele>63.359272</ele><time>2021-07-17T08:57:19Z</time><extensions><speed>0.510724</speed><course>310.983948</course><hAcc>0.884053</hAcc><vAcc>0.700978</vAcc></extensions></trkpt>
      <trkpt lon="-4.110855" lat="53.012239"><ele>63.372540</ele><time>2021-07-17T08:57:20Z</time><extensions><speed>0.494592</speed><course>316.824890</course><hAcc>0.883641</hAcc><vAcc>0.699550</vAcc></extensions></trkpt>
      <trkpt lon="-4.110861" lat="53.012237"><ele>63.388851</ele><time>2021-07-17T08:57:21Z</time><extensions><speed>0.493046</speed><course>324.005005</course><hAcc>0.883237</hAcc><vAcc>0.698115</vAcc></extensions></trkpt>
      <trkpt lon="-4.110867" lat="53.012234"><ele>63.408607</ele><time>2021-07-17T08:57:22Z</time><extensions><speed>0.505080</speed><course>322.091736</course><hAcc>0.882839</hAcc><vAcc>0.696718</vAcc></extensions></trkpt>
      <trkpt lon="-4.110873" lat="53.012232"><ele>63.432064</ele><time>2021-07-17T08:57:23Z</time><extensions><speed>0.529115</speed><course>322.830170</course><hAcc>0.882460</hAcc><vAcc>0.695405</vAcc></extensions></trkpt>
      <trkpt lon="-4.110880" lat="53.012229"><ele>63.459572</ele><time>2021-07-17T08:57:24Z</time><extensions><speed>0.563080</speed><course>325.823517</course><hAcc>0.882114</hAcc><vAcc>0.694222</vAcc></extensions></trkpt>
      <trkpt lon="-4.110887" lat="53.012226"><ele>63.491665</ele><time>2021-07-17T08:57:25Z</time><extensions><speed>0.604861</speed><course>331.853210</course><hAcc>0.881812</hAcc><vAcc>0.693196</vAcc></extensions></trkpt>
      <trkpt lon="-4.110896" lat="53.012223"><ele>63.529034</ele><time>2021-07-17T08:57:26Z</time><extensions><speed>0.652951</speed><course>331.260956</course><hAcc>0.881545</hAcc><vAcc>0.692322</vAcc></extensions></trkpt>
      <trkpt lon="-4.110904" lat="53.012220"><ele>63.572407</ele><time>2021-07-17T08:57:27Z</time><extensions><speed>0.706602</speed><course>329.072571</course><hAcc>0.881322</hAcc><vAcc>0.691606</vAcc></extensions></trkpt>
      <trkpt lon="-4.110914" lat="53.012217"><ele>63.622749</ele><time>2021-07-17T08:57:28Z</time><extensions><speed>0.766086</speed><course>325.473938</course><hAcc>0.881168</hAcc><vAcc>0.691077</vAcc></extensions></trkpt>
      <trkpt lon="-4.110925" lat="53.012214"><ele>63.680962</ele><time>2021-07-17T08:57:29Z</time><extensions><speed>0.830399</speed><course>325.383026</course><hAcc>0.881089</hAcc><vAcc>0.690773</vAcc></extensions></trkpt>
      <trkpt lon="-4.110937" lat="53.012211"><ele>63.747707</ele><time>2021-07-17T08:57:30Z</time><extensions><speed>0.896368</speed><course>325.061401</course><hAcc>0.881092</hAcc><vAcc>0.690738</vAcc></extensions></trkpt>
      <trkpt lon="-4.110950" lat="53.012208"><ele>63.823318</ele><time>2021-07-17T08:57:31Z</time><extensions><speed>0.958709</speed><course>325.207275</course><hAcc>0.881179</hAcc><vAcc>0.691004</vAcc></extensions></trkpt>
      <trkpt lon="-4.110963" lat="53.012205"><ele>63.907768</ele><time>2021-07-17T08:57:32Z</time><extensions><speed>1.011930</speed><course>322.410889</course><hAcc>0.881348</hAcc><vAcc>0.691582</vAcc></extensions></trkpt>
      <trkpt lon="-4.110978" lat="53.012202"><ele>64.000534</ele><time>2021-07-17T08:57:33Z</time><extensions><speed>1.051907</speed><course>319.218658</course><hAcc>0.881593</hAcc><vAcc>0.692460</vAcc></extensions></trkpt>
      <trkpt lon="-4.110993" lat="53.012199"><ele>64.100594</ele><time>2021-07-17T08:57:34Z</time><extensions><speed>1.075266</speed><course>319.790588</course><hAcc>0.881902</hAcc><vAcc>0.693600</vAcc></extensions></trkpt>
      <trkpt lon="-4.111008" lat="53.012196"><ele>64.206833</ele><time>2021-07-17T08:57:35Z</time><extensions><speed>1.079419</speed><course>318.972229</course><hAcc>0.882257</hAcc><vAcc>0.694929</vAcc></extensions></trkpt>
      <trkpt lon="-4.111023" lat="53.012193"><ele>64.318352</ele><time>2021-07-17T08:57:36Z</time><extensions><speed>1.062883</speed><course>320.354065</course><hAcc>0.882638</hAcc><vAcc>0.696356</vAcc></extensions></trkpt>
      <trkpt lon="-4.111038" lat="53.012190"><ele>64.434082</ele><time>2021-07-17T08:57:37Z</time><extensions><speed>1.025645</speed><course>320.541016</course><hAcc>0.883023</hAcc><vAcc>0.697782</vAcc></extensions></trkpt>
      <trkpt lon="-4.111052" lat="53.012188"><ele>64.552193</ele><time>2021-07-17T08:57:38Z</time><extensions><speed>0.969587</speed><course>317.906189</course><hAcc>0.883390</hAcc><vAcc>0.699114</vAcc></extensions></trkpt>
      <trkpt lon="-4.111066" lat="53.012185"><ele>64.670486</ele><time>2021-07-17T08:57:39Z</time><extensions><speed>0.898148</speed><course>316.077393</course><hAcc>0.883723</hAcc><vAcc>0.700280</vAcc></extensions></trkpt>
      <trkpt lon="-4.111078" lat="53.012183"><ele>64.787010</ele><time>2021-07-17T08:57:40Z</time><extensions><speed>0.815627</speed><course>307.356537</course><hAcc>0.884007</hAcc><vAcc>0.701228</vAcc></extensions></trkpt>
      <trkpt lon="-4.111089" lat="53.012182"><ele>64.900101</ele><time>2021-07-17T08:57:41Z</time><extensions><speed>0.726373</speed><course>302.004150</course><hAcc>0.884234</hAcc><vAcc>0.701930</vAcc></extensions></trkpt>
      <trkpt lon="-4.111099" lat="53.012180"><ele>65.008331</ele><time>2021-07-17T08:57:42Z</time><extensions><speed>0.634769</speed><course>310.520874</course><hAcc>0.884399</hAcc><vAcc>0.702378</vAcc></extensions></trkpt>
      <trkpt lon="-4.111108" lat="53.012179"><ele>65.110649</ele><time>2021-07-17T08:57:43Z</time><extensions><speed>0.544996</speed><course>307.778412</course><hAcc>0.884503</hAcc><vAcc>0.702589</vAcc></extensions></trkpt>
      <trkpt lon="-4.111115" lat="53.012178"><ele>65.206398</ele><time>2021-07-17T08:57:44Z</time><extensions><speed>0.460387</speed><course>310.132080</course><hAcc>0.884553</hAcc><vAcc>0.702595</vAcc></extensions></trkpt>
      <trkpt lon="-4.111121" lat="53.012177"><ele>65.295204</ele><time>2021-07-17T08:57:45Z</time><extensions><speed>0.382940</speed><course>310.327301</course><hAcc>0.884556</hAcc><vAcc>0.702445</vAcc></extensions></trkpt>
      <trkpt lon="-4.111126" lat="53.012177"><ele>65.376923</ele><time>2021-07-17T08:57:46Z</time><extensions><speed>0.313555</speed><course>308.925873</course><hAcc>0.884522</hAcc><vAcc>0.702193</vAcc></extensions></trkpt>
      <trkpt lon="-4.111130" lat="53.012177"><ele>65.451614</ele><time>2021-07-17T08:57:47Z</time><extensions><speed>0.252651</speed><course>308.955322</course><hAcc>0.884462</hAcc><vAcc>0.701891</vAcc></extensions></trkpt>
      <trkpt lon="-4.111134" lat="53.012177"><ele>65.519600</ele><time>2021-07-17T08:57:48Z</time><extensions><speed>0.201047</speed><course>303.152588</course><hAcc>0.884385</hAcc><vAcc>0.701574</vAcc></extensions></trkpt>
      <trkpt lon="-4.111136" lat="53.012177"><ele>65.581238</ele><time>2021-07-17T08:57:49Z</time><extensions><speed>0.160067</speed><course>313.156525</course><hAcc>0.884300</hAcc><vAcc>0.701266</vAcc></extensions></trkpt>
      <trkpt lon="-4.111139" lat="53.012177"><ele>65.636864</ele><time>2021-07-17T08:57:50Z</time><extensions><speed>0.129942</speed><course>307.864197</course><hAcc>0.884215</hAcc><vAcc>0.700984</vAcc></extensions></trkpt>
      <trkpt lon="-4.111140" lat="53.012178"><ele>65.686844</ele><time>2021-07-17T08:57:51Z</time><extensions><speed>0.109591</speed><course>309.541687</course><hAcc>0.884136</hAcc><vAcc>0.700736</vAcc></extensions></trkpt>
      <trkpt lon="-4.111141" lat="53.012178"><ele>65.731613</ele><time>2021-07-17T08:57:52Z</time><extensions><speed>0.096854</speed><course>312.130341</course><hAcc>0.884065</hAcc><vAcc>0.700530</vAcc></extensions></trkpt>
      <trkpt lon="-4.111142" lat="53.012179"><ele>65.771698</ele><time>2021-07-17T08:57:53Z</time><extensions><speed>0.088467</speed><course>310.268982</course><hAcc>0.884008</hAcc><vAcc>0.700368</vAcc></extensions></trkpt>
      <trkpt lon="-4.111143" lat="53.012180"><ele>65.807663</ele><time>2021-07-17T08:57:54Z</time><extensions><speed>0.081324</speed><course>308.247070</course><hAcc>0.883967</hAcc><vAcc>0.700248</vAcc></extensions></trkpt>
      <trkpt lon="-4.111143" lat="53.012180"><ele>65.840004</ele><time>2021-07-17T08:57:55Z</time><extensions><speed>0.073685</speed><course>304.229858</course><hAcc>0.883945</hAcc><vAcc>0.700173</vAcc></extensions></trkpt>
      <trkpt lon="-4.111143" lat="53.012181"><ele>65.869156</ele><time>2021-07-17T08:57:56Z</time><extensions><speed>0.065102</speed><course>308.310059</course><hAcc>0.883947</hAcc><vAcc>0.700147</vAcc></extensions></trkpt>
      <trkpt lon="-4.111143" lat="53.012182"><ele>65.895447</ele><time>2021-07-17T08:57:57Z</time><extensions><speed>0.055840</speed><course>311.142822</course><hAcc>0.883976</hAcc><vAcc>0.700188</vAcc></extensions></trkpt>
      <trkpt lon="-4.111143" lat="53.012182"><ele>65.919151</ele><time>2021-07-17T08:57:58Z</time><extensions><speed>0.046521</speed><course>305.518036</course><hAcc>0.884040</hAcc><vAcc>0.700315</vAcc></extensions></trkpt>
      <trkpt lon="-4.111143" lat="53.012182"><ele>65.940559</ele><time>2021-07-17T08:57:59Z</time><extensions><speed>0.037962</speed><course>303.061462</course><hAcc>0.884144</hAcc><vAcc>0.700556</vAcc></extensions></trkpt>
      <trkpt lon="-4.111143" lat="53.012183"><ele>65.959885</ele><time>2021-07-17T08:58:00Z</time><extensions><speed>0.030736</speed><course>298.232086</course><hAcc>0.884293</hAcc><vAcc>0.700944</vAcc></extensions></trkpt>
      <trkpt lon="-4.111142" lat="53.012183"><ele>65.977272</ele><time>2021-07-17T08:58:01Z</time><extensions><speed>0.025164</speed><course>289.358276</course><hAcc>0.884494</hAcc><vAcc>0.701517</vAcc></extensions></trkpt>
      <trkpt lon="-4.111142" lat="53.012183"><ele>65.992821</ele><time>2021-07-17T08:58:02Z</time><extensions><speed>0.021451</speed><course>285.924469</course><hAcc>0.884747</hAcc><vAcc>0.702309</vAcc></extensions></trkpt>
      <trkpt lon="-4.111142" lat="53.012183"><ele>66.006630</ele><time>2021-07-17T08:58:03Z</time><extensions><speed>0.019376</speed><course>280.520447</course><hAcc>0.885054</hAcc><vAcc>0.703336</vAcc></extensions></trkpt>
      <trkpt lon="-4.111142" lat="53.012183"><ele>66.018761</ele><time>2021-07-17T08:58:04Z</time><extensions><speed>0.018195</speed><course>286.862061</course><hAcc>0.885410</hAcc><vAcc>0.704590</vAcc></extensions></trkpt>
      <trkpt lon="-4.111141" lat="53.012183"><ele>66.029289</ele><time>2021-07-17T08:58:05Z</time><extensions><speed>0.017198</speed><course>295.700317</course><hAcc>0.885807</hAcc><vAcc>0.706028</vAcc></extensions></trkpt>
      <trkpt lon="-4.111141" lat="53.012183"><ele>66.038307</ele><time>2021-07-17T08:58:06Z</time><extensions><speed>0.016073</speed><course>296.161560</course><hAcc>0.886233</hAcc><vAcc>0.707574</vAcc></extensions></trkpt>
      <trkpt lon="-4.111141" lat="53.012183"><ele>66.045898</ele><time>2021-07-17T08:58:07Z</time><extensions><speed>0.014808</speed><course>298.229218</course><hAcc>0.886675</hAcc><vAcc>0.709146</vAcc></extensions></trkpt>
      <trkpt lon="-4.111141" lat="53.012183"><ele>66.052185</ele><time>2021-07-17T08:58:08Z</time><extensions><speed>0.013603</speed><course>297.545471</course><hAcc>0.887118</hAcc><vAcc>0.710676</vAcc></extensions></trkpt>
      <trkpt lon="-4.111141" lat="53.012183"><ele>66.057274</ele><time>2021-07-17T08:58:09Z</time><extensions><speed>0.012860</speed><course>292.454163</course><hAcc>0.887550</hAcc><vAcc>0.712114</vAcc></extensions></trkpt>
      <trkpt lon="-4.111140" lat="53.012183"><ele>66.061256</ele><time>2021-07-17T08:58:10Z</time><extensions><speed>0.013090</speed><course>287.195465</course><hAcc>0.887960</hAcc><vAcc>0.713429</vAcc></extensions></trkpt>
      <trkpt lon="-4.111140" lat="53.012183"><ele>66.064201</ele><time>2021-07-17T08:58:11Z</time><extensions><speed>0.014636</speed><course>283.339600</course><hAcc>0.888339</hAcc><vAcc>0.714605</vAcc></extensions></trkpt>
      <trkpt lon="-4.111140" lat="53.012183"><ele>66.066185</ele><time>2021-07-17T08:58:12Z</time><extensions><speed>0.017442</speed><course>283.687531</course><hAcc>0.888684</hAcc><vAcc>0.715640</vAcc></extensions></trkpt>
      <trkpt lon="-4.111140" lat="53.012183"><ele>66.067223</ele><time>2021-07-17T08:58:13Z</time><extensions><speed>0.021194</speed><course>284.089417</course><hAcc>0.888993</hAcc><vAcc>0.716543</vAcc></extensions></trkpt>
      <trkpt lon="-4.111140" lat="53.012184"><ele>66.067337</ele><time>2021-07-17T08:58:14Z</time><extensions><speed>0.025549</speed><course>286.432800</course><hAcc>0.889271</hAcc><vAcc>0.717332</vAcc></extensions></trkpt>
      <trkpt lon="-4.111139" lat="53.012184"><ele>66.066513</ele><time>2021-07-17T08:58:15Z</time><extensions><speed>0.030201</speed><course>288.844025</course><hAcc>0.889524</hAcc><vAcc>0.718028</vAcc></extensions></trkpt>
      <trkpt lon="-4.111139" lat="53.012184"><ele>66.064713</ele><time>2021-07-17T08:58:16Z</time><extensions><speed>0.034863</speed><course>294.600861</course><hAcc>0.889765</hAcc><vAcc>0.718658</vAcc></extensions></trkpt>
      <trkpt lon="-4.111139" lat="53.012184"><ele>66.061905</ele><time>2021-07-17T08:58:17Z</time><extensions><speed>0.039230</speed><course>289.399475</course><hAcc>0.890012</hAcc><vAcc>0.719251</vAcc></extensions></trkpt>
      <trkpt lon="-4.111138" lat="53.012184"><ele>66.058044</ele><time>2021-07-17T08:58:18Z</time><extensions><speed>0.042963</speed><course>292.462738</course><hAcc>0.890285</hAcc><vAcc>0.719837</vAcc></extensions></trkpt>
      <trkpt lon="-4.111138" lat="53.012185"><ele>66.053093</ele><time>2021-07-17T08:58:19Z</time><extensions><speed>0.045668</speed><course>292.044128</course><hAcc>0.890614</hAcc><vAcc>0.720450</vAcc></extensions></trkpt>
      <trkpt lon="-4.111137" lat="53.012185"><ele>66.047028</ele><time>2021-07-17T08:58:20Z</time><extensions><speed>0.046897</speed><course>289.426849</course><hAcc>0.891032</hAcc><vAcc>0.721127</vAcc></extensions></trkpt>
      <trkpt lon="-4.111137" lat="53.012185"><ele>66.039856</ele><time>2021-07-17T08:58:21Z</time><extensions><speed>0.046162</speed><course>292.821838</course><hAcc>0.891578</hAcc><vAcc>0.721910</vAcc></extensions></trkpt>
      <trkpt lon="-4.111136" lat="53.012186"><ele>66.031647</ele><time>2021-07-17T08:58:22Z</time><extensions><speed>0.043006</speed><course>287.405121</course><hAcc>0.892292</hAcc><vAcc>0.722833</vAcc></extensions></trkpt>
      <trkpt lon="-4.111136" lat="53.012186"><ele>66.022522</ele><time>2021-07-17T08:58:23Z</time><extensions><speed>0.037239</speed><course>289.328461</course><hAcc>0.893216</hAcc><vAcc>0.723925</vAcc></extensions></trkpt>
      <trkpt lon="-4.111135" lat="53.012186"><ele>66.012688</ele><time>2021-07-17T08:58:24Z</time><extensions><speed>0.029915</speed><course>290.686554</course><hAcc>0.894388</hAcc><vAcc>0.725201</vAcc></extensions></trkpt>
      <trkpt lon="-4.111135" lat="53.012186"><ele>66.002449</ele><time>2021-07-17T08:58:25Z</time><extensions><speed>0.026999</speed><course>291.519623</course><hAcc>0.895829</hAcc><vAcc>0.726657</vAcc></extensions></trkpt>
      <trkpt lon="-4.111135" lat="53.012185"><ele>65.992210</ele><time>2021-07-17T08:58:26Z</time><extensions><speed>0.039439</speed><course>289.260345</course><hAcc>0.897540</hAcc><vAcc>0.728260</vAcc></extensions></trkpt>
      <trkpt lon="-4.111135" lat="53.012185"><ele>65.982529</ele><time>2021-07-17T08:58:27Z</time><extensions><speed>0.066983</speed><course>291.671295</course><hAcc>0.899488</hAcc><vAcc>0.729942</vAcc></extensions></trkpt>
      <trkpt lon="-4.111135" lat="53.012184"><ele>65.974075</ele><time>2021-07-17T08:58:28Z</time><extensions><speed>0.105974</speed><course>285.797272</course><hAcc>0.901594</hAcc><vAcc>0.731600</vAcc></extensions></trkpt>
      <trkpt lon="-4.111136" lat="53.012183"><ele>65.967659</ele><time>2021-07-17T08:58:29Z</time><extensions><speed>0.155681</speed><course>284.045776</course><hAcc>0.903731</hAcc><vAcc>0.733104</vAcc></extensions></trkpt>
      <trkpt lon="-4.111137" lat="53.012182"><ele>65.964226</ele><time>2021-07-17T08:58:30Z</time><extensions><speed>0.216346</speed><course>290.744446</course><hAcc>0.905724</hAcc><vAcc>0.734311</vAcc></extensions></trkpt>
      <trkpt lon="-4.111139" lat="53.012180"><ele>65.964844</ele><time>2021-07-17T08:58:31Z</time><extensions><speed>0.288278</speed><course>286.155334</course><hAcc>0.907376</hAcc><vAcc>0.735106</vAcc></extensions></trkpt>
      <trkpt lon="-4.111142" lat="53.012177"><ele>65.970642</ele><time>2021-07-17T08:58:32Z</time><extensions><speed>0.371510</speed><course>292.078705</course><hAcc>0.908521</hAcc><vAcc>0.735457</vAcc></extensions></trkpt>
      <trkpt lon="-4.111146" lat="53.012174"><ele>65.982803</ele><time>2021-07-17T08:58:33Z</time><extensions><speed>0.465571</speed><course>292.906311</course><hAcc>0.909126</hAcc><vAcc>0.735519</vAcc></extensions></trkpt>
      <trkpt lon="-4.111150" lat="53.012171"><ele>66.002480</ele><time>2021-07-17T08:58:34Z</time><extensions><speed>0.569282</speed><course>291.462067</course><hAcc>0.909454</hAcc><vAcc>0.735772</vAcc></extensions></trkpt>
      <trkpt lon="-4.111156" lat="53.012166"><ele>66.030701</ele><time>2021-07-17T08:58:35Z</time><extensions><speed>0.680538</speed><course>290.448425</course><hAcc>0.910326</hAcc><vAcc>0.737220</vAcc></extensions></trkpt>
      <trkpt lon="-4.111164" lat="53.012161"><ele>66.068260</ele><time>2021-07-17T08:58:36Z</time><extensions><speed>0.796076</speed><course>295.857269</course><hAcc>0.913475</hAcc><vAcc>0.741623</vAcc></extensions></trkpt>
      <trkpt lon="-4.111172" lat="53.012156"><ele>66.115570</ele><time>2021-07-17T08:58:37Z</time><extensions><speed>0.911222</speed><course>298.185364</course><hAcc>0.921976</hAcc><vAcc>0.751731</vAcc></extensions></trkpt>
      <trkpt lon="-4.111182" lat="53.012150"><ele>66.172485</ele><time>2021-07-17T08:58:38Z</time><extensions><speed>1.019641</speed><course>294.469940</course><hAcc>0.940658</hAcc><vAcc>0.771413</vAcc></extensions></trkpt>
      <trkpt lon="-4.111193" lat="53.012143"><ele>66.238113</ele><time>2021-07-17T08:58:39Z</time><extensions><speed>1.113078</speed><course>292.898438</course><hAcc>0.976217</hAcc><vAcc>0.805514</vAcc></extensions></trkpt>
      <trkpt lon="-4.111208" lat="53.012135"><ele>66.364784</ele><time>2021-07-17T08:58:40Z</time><extensions><speed>1.392298</speed><course>207.637573</course><hAcc>0.937894</hAcc><vAcc>0.769728</vAcc></extensions></trkpt>
      <trkpt lon="-4.111222" lat="53.012127"><ele>66.447220</ele><time>2021-07-17T08:58:41Z</time><extensions><speed>1.339367</speed><course>199.781464</course><hAcc>0.918073</hAcc><vAcc>0.747784</vAcc></extensions></trkpt>
      <trkpt lon="-4.111236" lat="53.012119"><ele>66.523682</ele><time>2021-07-17T08:58:42Z</time><extensions><speed>1.271882</speed><course>204.898392</course><hAcc>0.909634</hAcc><vAcc>0.736468</vAcc></extensions></trkpt>
      <trkpt lon="-4.111249" lat="53.012111"><ele>66.593140</ele><time>2021-07-17T08:58:43Z</time><extensions><speed>1.196181</speed><course>218.988647</course><hAcc>0.907080</hAcc><vAcc>0.731476</vAcc></extensions></trkpt>
      <trkpt lon="-4.111262" lat="53.012104"><ele>66.655090</ele><time>2021-07-17T08:58:44Z</time><extensions><speed>1.117713</speed><course>240.875916</course><hAcc>0.906906</hAcc><vAcc>0.729731</vAcc></extensions></trkpt>
      <trkpt lon="-4.111273" lat="53.012097"><ele>66.709251</ele><time>2021-07-17T08:58:45Z</time><extensions><speed>1.040287</speed><course>240.875916</course><hAcc>0.907154</hAcc><vAcc>0.729261</vAcc></extensions></trkpt>
      <trkpt lon="-4.111284" lat="53.012091"><ele>66.755585</ele><time>2021-07-17T08:58:46Z</time><extensions><speed>0.966277</speed><course>240.875916</course><hAcc>0.906916</hAcc><vAcc>0.728950</vAcc></extensions></trkpt>
      <trkpt lon="-4.111294" lat="53.012085"><ele>66.794228</ele><time>2021-07-17T08:58:47Z</time><extensions><speed>0.896770</speed><course>240.875916</course><hAcc>0.905920</hAcc><vAcc>0.728274</vAcc></extensions></trkpt>
      <trkpt lon="-4.111303" lat="53.012079"><ele>66.825394</ele><time>2021-07-17T08:58:48Z</time><extensions><speed>0.831949</speed><course>240.875916</course><hAcc>0.904234</hAcc><vAcc>0.727076</vAcc></extensions></trkpt>
      <trkpt lon="-4.111312" lat="53.012074"><ele>66.849258</ele><time>2021-07-17T08:58:49Z</time><extensions><speed>0.771805</speed><course>240.875916</course><hAcc>0.902072</hAcc><vAcc>0.725406</vAcc></extensions></trkpt>
      <trkpt lon="-4.111320" lat="53.012070"><ele>66.865891</ele><time>2021-07-17T08:58:50Z</time><extensions><speed>0.716765</speed><course>269.430084</course><hAcc>0.899681</hAcc><vAcc>0.723402</vAcc></extensions></trkpt>
      <trkpt lon="-4.111327" lat="53.012065"><ele>66.875351</ele><time>2021-07-17T08:58:51Z</time><extensions><speed>0.667385</speed><course>274.056000</course><hAcc>0.897277</hAcc><vAcc>0.721224</vAcc></extensions></trkpt>
      <trkpt lon="-4.111334" lat="53.012061"><ele>66.877663</ele><time>2021-07-17T08:58:52Z</time><extensions><speed>0.624399</speed><course>273.580658</course><hAcc>0.895020</hAcc><vAcc>0.719011</vAcc></extensions></trkpt>
      <trkpt lon="-4.111340" lat="53.012057"><ele>66.872742</ele><time>2021-07-17T08:58:53Z</time><extensions><speed>0.588675</speed><course>266.285736</course><hAcc>0.893009</hAcc><vAcc>0.716866</vAcc></extensions></trkpt>
      <trkpt lon="-4.111346" lat="53.012053"><ele>66.860619</ele><time>2021-07-17T08:58:54Z</time><extensions><speed>0.561345</speed><course>280.416809</course><hAcc>0.891293</hAcc><vAcc>0.714858</vAcc></extensions></trkpt>
      <trkpt lon="-4.111351" lat="53.012049"><ele>66.841637</ele><time>2021-07-17T08:58:55Z</time><extensions><speed>0.544119</speed><course>289.633057</course><hAcc>0.889880</hAcc><vAcc>0.713027</vAcc></extensions></trkpt>
      <trkpt lon="-4.111356" lat="53.012046"><ele>66.816467</ele><time>2021-07-17T08:58:56Z</time><extensions><speed>0.538805</speed><course>274.042023</course><hAcc>0.888750</hAcc><vAcc>0.711392</vAcc></extensions></trkpt>
      <trkpt lon="-4.111360" lat="53.012042"><ele>66.786171</ele><time>2021-07-17T08:58:57Z</time><extensions><speed>0.546889</speed><course>259.398621</course><hAcc>0.887871</hAcc><vAcc>0.709964</vAcc></extensions></trkpt>
      <trkpt lon="-4.111365" lat="53.012037"><ele>66.752174</ele><time>2021-07-17T08:58:58Z</time><extensions><speed>0.569018</speed><course>235.228027</course><hAcc>0.887206</hAcc><vAcc>0.708753</vAcc></extensions></trkpt>
      <trkpt lon="-4.111370" lat="53.012033"><ele>66.716072</ele><time>2021-07-17T08:58:59Z</time><extensions><speed>0.604698</speed><course>233.943741</course><hAcc>0.886717</hAcc><vAcc>0.707763</vAcc></extensions></trkpt>
      <trkpt lon="-4.111375" lat="53.012028"><ele>66.679398</ele><time>2021-07-17T08:59:00Z</time><extensions><speed>0.652230</speed><course>251.986771</course><hAcc>0.886372</hAcc><vAcc>0.706998</vAcc></extensions></trkpt>
      <trkpt lon="-4.111380" lat="53.012023"><ele>66.643456</ele><time>2021-07-17T08:59:01Z</time><extensions><speed>0.708876</speed><course>230.632401</course><hAcc>0.886142</hAcc><vAcc>0.706454</vAcc></extensions></trkpt>
      <trkpt lon="-4.111386" lat="53.012017"><ele>66.609154</ele><time>2021-07-17T08:59:02Z</time><extensions><speed>0.771117</speed><course>208.539734</course><hAcc>0.886006</hAcc><vAcc>0.706123</vAcc></extensions></trkpt>
      <trkpt lon="-4.111392" lat="53.012011"><ele>66.577057</ele><time>2021-07-17T08:59:03Z</time><extensions><speed>0.835286</speed><course>217.062653</course><hAcc>0.885945</hAcc><vAcc>0.705994</vAcc></extensions></trkpt>
      <trkpt lon="-4.111399" lat="53.012004"><ele>66.547485</ele><time>2021-07-17T08:59:04Z</time><extensions><speed>0.898198</speed><course>216.480164</course><hAcc>0.885946</hAcc><vAcc>0.706053</vAcc></extensions></trkpt>
      <trkpt lon="-4.111406" lat="53.011997"><ele>66.520355</ele><time>2021-07-17T08:59:05Z</time><extensions><speed>0.957482</speed><course>215.204285</course><hAcc>0.885995</hAcc><vAcc>0.706277</vAcc></extensions></trkpt>
      <trkpt lon="-4.111414" lat="53.011990"><ele>66.495186</ele><time>2021-07-17T08:59:06Z</time><extensions><speed>1.011431</speed><course>192.608246</course><hAcc>0.886081</hAcc><vAcc>0.706641</vAcc></extensions></trkpt>
      <trkpt lon="-4.111422" lat="53.011982"><ele>66.471535</ele><time>2021-07-17T08:59:07Z</time><extensions><speed>1.059158</speed><course>196.818375</course><hAcc>0.886195</hAcc><vAcc>0.707112</vAcc></extensions></trkpt>
      <trkpt lon="-4.111431" lat="53.011974"><ele>66.449356</ele><time>2021-07-17T08:59:08Z</time><extensions><speed>1.100622</speed><course>200.564194</course><hAcc>0.886325</hAcc><vAcc>0.707654</vAcc></extensions></trkpt>
      <trkpt lon="-4.111440" lat="53.011966"><ele>66.428772</ele><time>2021-07-17T08:59:09Z</time><extensions><speed>1.135913</speed><course>224.718231</course><hAcc>0.886462</hAcc><vAcc>0.708226</vAcc></extensions></trkpt>
      <trkpt lon="-4.111450" lat="53.011957"><ele>66.409889</ele><time>2021-07-17T08:59:10Z</time><extensions><speed>1.165049</speed><course>228.969803</course><hAcc>0.886596</hAcc><vAcc>0.708782</vAcc></extensions></trkpt>
      <trkpt lon="-4.111461" lat="53.011949"><ele>66.392776</ele><time>2021-07-17T08:59:11Z</time><extensions><speed>1.188081</speed><course>250.366501</course><hAcc>0.886722</hAcc><vAcc>0.709282</vAcc></extensions></trkpt>
      <trkpt lon="-4.111471" lat="53.011940"><ele>66.377411</ele><time>2021-07-17T08:59:12Z</time><extensions><speed>1.205085</speed><course>-1.000000</course><hAcc>0.886832</hAcc><vAcc>0.709692</vAcc></extensions></trkpt>
      <trkpt lon="-4.111482" lat="53.011931"><ele>66.363937</ele><time>2021-07-17T08:59:13Z</time><extensions><speed>1.216349</speed><course>232.063629</course><hAcc>0.886924</hAcc><vAcc>0.709994</vAcc></extensions></trkpt>
      <trkpt lon="-4.111494" lat="53.011923"><ele>66.352715</ele><time>2021-07-17T08:59:14Z</time><extensions><speed>1.222439</speed><course>232.063614</course><hAcc>0.886997</hAcc><vAcc>0.710189</vAcc></extensions></trkpt>
      <trkpt lon="-4.111506" lat="53.011915"><ele>66.344055</ele><time>2021-07-17T08:59:15Z</time><extensions><speed>1.223970</speed><course>232.063614</course><hAcc>0.887050</hAcc><vAcc>0.710293</vAcc></extensions></trkpt>
      <trkpt lon="-4.111518" lat="53.011907"><ele>66.338013</ele><time>2021-07-17T08:59:16Z</time><extensions><speed>1.221765</speed><course>232.063599</course><hAcc>0.887087</hAcc><vAcc>0.710332</vAcc></extensions></trkpt>
      <trkpt lon="-4.111530" lat="53.011899"><ele>66.334389</ele><time>2021-07-17T08:59:17Z</time><extensions><speed>1.216837</speed><course>232.063599</course><hAcc>0.887112</hAcc><vAcc>0.710340</vAcc></extensions></trkpt>
      <trkpt lon="-4.111543" lat="53.011891"><ele>66.332962</ele><time>2021-07-17T08:59:18Z</time><extensions><speed>1.209898</speed><course>232.063583</course><hAcc>0.887147</hAcc><vAcc>0.710360</vAcc></extensions></trkpt>
      <trkpt lon="-4.111556" lat="53.011883"><ele>66.333618</ele><time>2021-07-17T08:59:19Z</time><extensions><speed>1.201533</speed><course>232.063583</course><hAcc>0.887198</hAcc><vAcc>0.710420</vAcc></extensions></trkpt>
      <trkpt lon="-4.111569" lat="53.011876"><ele>66.336288</ele><time>2021-07-17T08:59:20Z</time><extensions><speed>1.192276</speed><course>248.555511</course><hAcc>0.887253</hAcc><vAcc>0.710524</vAcc></extensions></trkpt>
      <trkpt lon="-4.111582" lat="53.011869"><ele>66.340973</ele><time>2021-07-17T08:59:21Z</time><extensions><speed>1.182633</speed><course>214.727661</course><hAcc>0.887317</hAcc><vAcc>0.710686</vAcc></extensions></trkpt>
      <trkpt lon="-4.111596" lat="53.011862"><ele>66.347725</ele><time>2021-07-17T08:59:22Z</time><extensions><speed>1.173373</speed><course>215.656113</course><hAcc>0.887392</hAcc><vAcc>0.710905</vAcc></extensions></trkpt>
      <trkpt lon="-4.111610" lat="53.011856"><ele>66.356781</ele><time>2021-07-17T08:59:23Z</time><extensions><speed>1.165006</speed><course>205.637772</course><hAcc>0.887480</hAcc><vAcc>0.711178</vAcc></extensions></trkpt>
      <trkpt lon="-4.111623" lat="53.011849"><ele>66.368500</ele><time>2021-07-17T08:59:24Z</time><extensions><speed>1.156917</speed><course>201.575424</course><hAcc>0.887562</hAcc><vAcc>0.711486</vAcc></extensions></trkpt>
      <trkpt lon="-4.111637" lat="53.011843"><ele>66.383278</ele><time>2021-07-17T08:59:25Z</time><extensions><speed>1.147158</speed><course>196.854248</course><hAcc>0.887636</hAcc><vAcc>0.711818</vAcc></extensions></trkpt>
      <trkpt lon="-4.111651" lat="53.011837"><ele>66.401573</ele><time>2021-07-17T08:59:26Z</time><extensions><speed>1.133468</speed><course>198.264053</course><hAcc>0.887732</hAcc><vAcc>0.712184</vAcc></extensions></trkpt>
      <trkpt lon="-4.111665" lat="53.011832"><ele>66.423653</ele><time>2021-07-17T08:59:27Z</time><extensions><speed>1.114020</speed><course>198.636932</course><hAcc>0.887847</hAcc><vAcc>0.712572</vAcc></extensions></trkpt>
      <trkpt lon="-4.111679" lat="53.011827"><ele>66.449730</ele><time>2021-07-17T08:59:28Z</time><extensions><speed>1.087813</speed><course>192.727798</course><hAcc>0.887957</hAcc><vAcc>0.712951</vAcc></extensions></trkpt>
      <trkpt lon="-4.111693" lat="53.011822"><ele>66.480278</ele><time>2021-07-17T08:59:29Z</time><extensions><speed>1.054372</speed><course>184.691818</course><hAcc>0.888058</hAcc><vAcc>0.713302</vAcc></extensions></trkpt>
      <trkpt lon="-4.111706" lat="53.011817"><ele>66.515839</ele><time>2021-07-17T08:59:30Z</time><extensions><speed>1.013752</speed><course>177.917740</course><hAcc>0.888129</hAcc><vAcc>0.713591</vAcc></extensions></trkpt>
      <trkpt lon="-4.111719" lat="53.011813"><ele>66.556732</ele><time>2021-07-17T08:59:31Z</time><extensions><speed>0.966770</speed><course>169.935883</course><hAcc>0.888164</hAcc><vAcc>0.713792</vAcc></extensions></trkpt>
      <trkpt lon="-4.111732" lat="53.011809"><ele>66.603127</ele><time>2021-07-17T08:59:32Z</time><extensions><speed>0.914427</speed><course>168.290512</course><hAcc>0.888180</hAcc><vAcc>0.713898</vAcc></extensions></trkpt>
      <trkpt lon="-4.111744" lat="53.011805"><ele>66.654770</ele><time>2021-07-17T08:59:33Z</time><extensions><speed>0.858064</speed><course>175.847488</course><hAcc>0.888174</hAcc><vAcc>0.713896</vAcc></extensions></trkpt>
      <trkpt lon="-4.111755" lat="53.011802"><ele>66.711029</ele><time>2021-07-17T08:59:34Z</time><extensions><speed>0.798895</speed><course>182.489380</course><hAcc>0.888145</hAcc><vAcc>0.713786</vAcc></extensions></trkpt>
      <trkpt lon="-4.111765" lat="53.011799"><ele>66.771156</ele><time>2021-07-17T08:59:35Z</time><extensions><speed>0.739309</speed><course>193.224472</course><hAcc>0.888093</hAcc><vAcc>0.713577</vAcc></extensions></trkpt>
      <trkpt lon="-4.111775" lat="53.011797"><ele>66.834305</ele><time>2021-07-17T08:59:36Z</time><extensions><speed>0.682406</speed><course>210.457108</course><hAcc>0.888022</hAcc><vAcc>0.713288</vAcc></extensions></trkpt>
      <trkpt lon="-4.111784" lat="53.011795"><ele>66.899742</ele><time>2021-07-17T08:59:37Z</time><extensions><speed>0.630802</speed><course>227.054108</course><hAcc>0.887933</hAcc><vAcc>0.712939</vAcc></extensions></trkpt>
      <trkpt lon="-4.111792" lat="53.011793"><ele>66.967155</ele><time>2021-07-17T08:59:38Z</time><extensions><speed>0.586930</speed><course>247.666534</course><hAcc>0.887831</hAcc><vAcc>0.712549</vAcc></extensions></trkpt>
      <trkpt lon="-4.111800" lat="53.011791"><ele>67.036644</ele><time>2021-07-17T08:59:39Z</time><extensions><speed>0.553077</speed><course>261.197876</course><hAcc>0.887721</hAcc><vAcc>0.712137</vAcc></extensions></trkpt>
      <trkpt lon="-4.111808" lat="53.011790"><ele>67.108742</ele><time>2021-07-17T08:59:40Z</time><extensions><speed>0.531285</speed><course>263.217255</course><hAcc>0.887606</hAcc><vAcc>0.711721</vAcc></extensions></trkpt>
      <trkpt lon="-4.111816" lat="53.011789"><ele>67.184265</ele><time>2021-07-17T08:59:41Z</time><extensions><speed>0.522868</speed><course>271.463165</course><hAcc>0.887492</hAcc><vAcc>0.711320</vAcc></extensions></trkpt>
      <trkpt lon="-4.111824" lat="53.011788"><ele>67.264084</ele><time>2021-07-17T08:59:42Z</time><extensions><speed>0.528521</speed><course>281.991608</course><hAcc>0.887380</hAcc><vAcc>0.710950</vAcc></extensions></trkpt>
      <trkpt lon="-4.111832" lat="53.011787"><ele>67.348930</ele><time>2021-07-17T08:59:43Z</time><extensions><speed>0.548031</speed><course>285.895782</course><hAcc>0.887274</hAcc><vAcc>0.710619</vAcc></extensions></trkpt>
      <trkpt lon="-4.111840" lat="53.011787"><ele>67.439415</ele><time>2021-07-17T08:59:44Z</time><extensions><speed>0.579802</speed><course>287.327179</course><hAcc>0.887173</hAcc><vAcc>0.710329</vAcc></extensions></trkpt>
      <trkpt lon="-4.111849" lat="53.011787"><ele>67.535957</ele><time>2021-07-17T08:59:45Z</time><extensions><speed>0.621305</speed><course>297.396240</course><hAcc>0.887079</hAcc><vAcc>0.710070</vAcc></extensions></trkpt>
      <trkpt lon="-4.111858" lat="53.011787"><ele>67.638710</ele><time>2021-07-17T08:59:46Z</time><extensions><speed>0.669455</speed><course>299.473175</course><hAcc>0.886992</hAcc><vAcc>0.709832</vAcc></extensions></trkpt>
      <trkpt lon="-4.111869" lat="53.011787"><ele>67.747566</ele><time>2021-07-17T08:59:47Z</time><extensions><speed>0.720762</speed><course>297.683289</course><hAcc>0.886912</hAcc><vAcc>0.709603</vAcc></extensions></trkpt>
      <trkpt lon="-4.111880" lat="53.011788"><ele>67.862129</ele><time>2021-07-17T08:59:48Z</time><extensions><speed>0.772120</speed><course>292.365356</course><hAcc>0.886839</hAcc><vAcc>0.709379</vAcc></extensions></trkpt>
      <trkpt lon="-4.111892" lat="53.011788"><ele>67.981987</ele><time>2021-07-17T08:59:49Z</time><extensions><speed>0.821222</speed><course>291.092651</course><hAcc>0.886776</hAcc><vAcc>0.709160</vAcc></extensions></trkpt>
      <trkpt lon="-4.111904" lat="53.011789"><ele>68.106789</ele><time>2021-07-17T08:59:50Z</time><extensions><speed>0.866926</speed><course>297.007721</course><hAcc>0.886724</hAcc><vAcc>0.708954</vAcc></extensions></trkpt>
      <trkpt lon="-4.111917" lat="53.011790"><ele>68.236145</ele><time>2021-07-17T08:59:51Z</time><extensions><speed>0.908987</speed><course>291.539093</course><hAcc>0.886685</hAcc><vAcc>0.708775</vAcc></extensions></trkpt>
      <trkpt lon="-4.111931" lat="53.011791"><ele>68.369659</ele><time>2021-07-17T08:59:52Z</time><extensions><speed>0.947154</speed><course>293.314819</course><hAcc>0.886663</hAcc><vAcc>0.708643</vAcc></extensions></trkpt>
      <trkpt lon="-4.111945" lat="53.011793"><ele>68.506981</ele><time>2021-07-17T08:59:53Z</time><extensions><speed>0.981670</speed><course>297.043213</course><hAcc>0.886660</hAcc><vAcc>0.708576</vAcc></extensions></trkpt>
      <trkpt lon="-4.111960" lat="53.011794"><ele>68.647919</ele><time>2021-07-17T08:59:54Z</time><extensions><speed>1.013045</speed><course>301.573547</course><hAcc>0.886680</hAcc><vAcc>0.708591</vAcc></extensions></trkpt>
      <trkpt lon="-4.111975" lat="53.011795"><ele>68.792480</ele><time>2021-07-17T08:59:55Z</time><extensions><speed>1.041741</speed><course>305.542847</course><hAcc>0.886725</hAcc><vAcc>0.708703</vAcc></extensions></trkpt>
      <trkpt lon="-4.111991" lat="53.011797"><ele>68.940666</ele><time>2021-07-17T08:59:56Z</time><extensions><speed>1.068152</speed><course>304.461029</course><hAcc>0.886794</hAcc><vAcc>0.708921</vAcc></extensions></trkpt>
      <trkpt lon="-4.112007" lat="53.011798"><ele>69.092186</ele><time>2021-07-17T08:59:57Z</time><extensions><speed>1.092539</speed><course>304.519958</course><hAcc>0.886887</hAcc><vAcc>0.709247</vAcc></extensions></trkpt>
      <trkpt lon="-4.112023" lat="53.011800"><ele>69.246513</ele><time>2021-07-17T08:59:58Z</time><extensions><speed>1.115352</speed><course>306.835541</course><hAcc>0.887002</hAcc><vAcc>0.709670</vAcc></extensions></trkpt>
      <trkpt lon="-4.112039" lat="53.011801"><ele>69.403175</ele><time>2021-07-17T08:59:59Z</time><extensions><speed>1.136726</speed><course>312.924469</course><hAcc>0.887133</hAcc><vAcc>0.710167</vAcc></extensions></trkpt>
      <trkpt lon="-4.112056" lat="53.011803"><ele>69.561821</ele><time>2021-07-17T09:00:00Z</time><extensions><speed>1.156617</speed><course>313.121582</course><hAcc>0.887277</hAcc><vAcc>0.710711</vAcc></extensions></trkpt>
      <trkpt lon="-4.112073" lat="53.011805"><ele>69.722076</ele><time>2021-07-17T09:00:01Z</time><extensions><speed>1.175002</speed><course>312.363678</course><hAcc>0.887425</hAcc><vAcc>0.711274</vAcc></extensions></trkpt>
      <trkpt lon="-4.112091" lat="53.011807"><ele>69.883347</ele><time>2021-07-17T09:00:02Z</time><extensions><speed>1.191246</speed><course>309.905548</course><hAcc>0.887573</hAcc><vAcc>0.711827</vAcc></extensions></trkpt>
      <trkpt lon="-4.112108" lat="53.011809"><ele>70.045021</ele><time>2021-07-17T09:00:03Z</time><extensions><speed>1.204298</speed><course>308.597687</course><hAcc>0.887713</hAcc><vAcc>0.712344</vAcc></extensions></trkpt>
      <trkpt lon="-4.112126" lat="53.011811"><ele>70.206482</ele><time>2021-07-17T09:00:04Z</time><extensions><speed>1.213139</speed><course>307.103394</course><hAcc>0.887840</hAcc><vAcc>0.712802</vAcc></extensions></trkpt>
      <trkpt lon="-4.112144" lat="53.011813"><ele>70.366966</ele><time>2021-07-17T09:00:05Z</time><extensions><speed>1.217172</speed><course>306.897400</course><hAcc>0.887950</hAcc><vAcc>0.713183</vAcc></extensions></trkpt>
      <trkpt lon="-4.112161" lat="53.011815"><ele>70.525681</ele><time>2021-07-17T09:00:06Z</time><extensions><speed>1.216740</speed><course>302.152618</course><hAcc>0.888041</hAcc><vAcc>0.713475</vAcc></extensions></trkpt>
      <trkpt lon="-4.112179" lat="53.011817"><ele>70.681816</ele><time>2021-07-17T09:00:07Z</time><extensions><speed>1.212354</speed><course>297.726410</course><hAcc>0.888111</hAcc><vAcc>0.713674</vAcc></extensions></trkpt>
      <trkpt lon="-4.112197" lat="53.011820"><ele>70.834488</ele><time>2021-07-17T09:00:08Z</time><extensions><speed>1.204070</speed><course>300.194183</course><hAcc>0.888162</hAcc><vAcc>0.713785</vAcc></extensions></trkpt>
      <trkpt lon="-4.112214" lat="53.011822"><ele>70.982788</ele><time>2021-07-17T09:00:09Z</time><extensions><speed>1.191730</speed><course>297.151825</course><hAcc>0.888194</hAcc><vAcc>0.713821</vAcc></extensions></trkpt>
      <trkpt lon="-4.112231" lat="53.011824"><ele>71.125740</ele><time>2021-07-17T09:00:10Z</time><extensions><speed>1.175943</speed><course>298.399384</course><hAcc>0.888211</hAcc><vAcc>0.713799</vAcc></extensions></trkpt>
      <trkpt lon="-4.112248" lat="53.011827"><ele>71.262520</ele><time>2021-07-17T09:00:11Z</time><extensions><speed>1.158105</speed><course>300.837921</course><hAcc>0.888216</hAcc><vAcc>0.713744</vAcc></extensions></trkpt>
      <trkpt lon="-4.112265" lat="53.011829"><ele>71.392586</ele><time>2021-07-17T09:00:12Z</time><extensions><speed>1.139226</speed><course>299.844330</course><hAcc>0.888211</hAcc><vAcc>0.713674</vAcc></extensions></trkpt>
      <trkpt lon="-4.112281" lat="53.011832"><ele>71.515533</ele><time>2021-07-17T09:00:13Z</time><extensions><speed>1.120523</speed><course>300.001373</course><hAcc>0.888199</hAcc><vAcc>0.713603</vAcc></extensions></trkpt>
      <trkpt lon="-4.112297" lat="53.011834"><ele>71.631088</ele><time>2021-07-17T09:00:14Z</time><extensions><speed>1.103459</speed><course>294.568817</course><hAcc>0.888183</hAcc><vAcc>0.713540</vAcc></extensions></trkpt>
      <trkpt lon="-4.112313" lat="53.011836"><ele>71.739052</ele><time>2021-07-17T09:00:15Z</time><extensions><speed>1.089093</speed><course>300.687103</course><hAcc>0.888162</hAcc><vAcc>0.713483</vAcc></extensions></trkpt>
      <trkpt lon="-4.112329" lat="53.011839"><ele>71.839340</ele><time>2021-07-17T09:00:16Z</time><extensions><speed>1.078336</speed><course>297.691925</course><hAcc>0.888137</hAcc><vAcc>0.713427</vAcc></extensions></trkpt>
      <trkpt lon="-4.112345" lat="53.011841"><ele>71.932114</ele><time>2021-07-17T09:00:17Z</time><extensions><speed>1.071867</speed><course>293.928223</course><hAcc>0.888107</hAcc><vAcc>0.713363</vAcc></extensions></trkpt>
      <trkpt lon="-4.112360" lat="53.011843"><ele>72.017792</ele><time>2021-07-17T09:00:18Z</time><extensions><speed>1.070321</speed><course>297.041656</course><hAcc>0.888067</hAcc><vAcc>0.713278</vAcc></extensions></trkpt>
      <trkpt lon="-4.112376" lat="53.011845"><ele>72.096855</ele><time>2021-07-17T09:00:19Z</time><extensions><speed>1.074388</speed><course>298.722290</course><hAcc>0.888016</hAcc><vAcc>0.713161</vAcc></extensions></trkpt>
      <trkpt lon="-4.112391" lat="53.011847"><ele>72.169876</ele><time>2021-07-17T09:00:20Z</time><extensions><speed>1.084527</speed><course>296.674316</course><hAcc>0.887949</hAcc><vAcc>0.713001</vAcc></extensions></trkpt>
      <trkpt lon="-4.112407" lat="53.011849"><ele>72.237595</ele><time>2021-07-17T09:00:21Z</time><extensions><speed>1.100929</speed><course>301.147156</course><hAcc>0.887862</hAcc><vAcc>0.712785</vAcc></extensions></trkpt>
      <trkpt lon="-4.112424" lat="53.011851"><ele>72.300743</ele><time>2021-07-17T09:00:22Z</time><extensions><speed>1.123325</speed><course>301.618805</course><hAcc>0.887754</hAcc><vAcc>0.712497</vAcc></extensions></trkpt>
      <trkpt lon="-4.112440" lat="53.011853"><ele>72.359840</ele><time>2021-07-17T09:00:23Z</time><extensions><speed>1.151510</speed><course>300.678009</course><hAcc>0.887624</hAcc><vAcc>0.712120</vAcc></extensions></trkpt>
      <trkpt lon="-4.112458" lat="53.011854"><ele>72.415215</ele><time>2021-07-17T09:00:24Z</time><extensions><speed>1.185165</speed><course>306.078644</course><hAcc>0.887475</hAcc><vAcc>0.711645</vAcc></extensions></trkpt>
      <trkpt lon="-4.112475" lat="53.011856"><ele>72.467056</ele><time>2021-07-17T09:00:25Z</time><extensions><speed>1.223215</speed><course>302.099213</course><hAcc>0.887311</hAcc><vAcc>0.711074</vAcc></extensions></trkpt>
      <trkpt lon="-4.112494" lat="53.011858"><ele>72.515594</ele><time>2021-07-17T09:00:26Z</time><extensions><speed>1.263847</speed><course>298.253754</course><hAcc>0.887142</hAcc><vAcc>0.710429</vAcc></extensions></trkpt>
      <trkpt lon="-4.112513" lat="53.011859"><ele>72.561005</ele><time>2021-07-17T09:00:27Z</time><extensions><speed>1.304471</speed><course>299.772583</course><hAcc>0.886982</hAcc><vAcc>0.709750</vAcc></extensions></trkpt>
      <trkpt lon="-4.112532" lat="53.011860"><ele>72.603249</ele><time>2021-07-17T09:00:28Z</time><extensions><speed>1.342532</speed><course>299.946075</course><hAcc>0.886847</hAcc><vAcc>0.709088</vAcc></extensions></trkpt>
      <trkpt lon="-4.112552" lat="53.011862"><ele>72.642220</ele><time>2021-07-17T09:00:29Z</time><extensions><speed>1.376093</speed><course>303.968170</course><hAcc>0.886762</hAcc><vAcc>0.708501</vAcc></extensions></trkpt>
      <trkpt lon="-4.112573" lat="53.011863"><ele>72.677887</ele><time>2021-07-17T09:00:30Z</time><extensions><speed>1.403824</speed><course>302.223755</course><hAcc>0.886755</hAcc><vAcc>0.708047</vAcc></extensions></trkpt>
      <trkpt lon="-4.112594" lat="53.011864"><ele>72.710251</ele><time>2021-07-17T09:00:31Z</time><extensions><speed>1.425062</speed><course>303.590851</course><hAcc>0.886863</hAcc><vAcc>0.707775</vAcc></extensions></trkpt>
      <trkpt lon="-4.112615" lat="53.011866"><ele>72.739670</ele><time>2021-07-17T09:00:32Z</time><extensions><speed>1.440011</speed><course>302.656281</course><hAcc>0.887124</hAcc><vAcc>0.707728</vAcc></extensions></trkpt>
      <trkpt lon="-4.112637" lat="53.011867"><ele>72.766914</ele><time>2021-07-17T09:00:33Z</time><extensions><speed>1.449554</speed><course>307.857574</course><hAcc>0.887582</hAcc><vAcc>0.707931</vAcc></extensions></trkpt>
      <trkpt lon="-4.112658" lat="53.011868"><ele>72.792854</ele><time>2021-07-17T09:00:34Z</time><extensions><speed>1.454597</speed><course>306.241272</course><hAcc>0.888280</hAcc><vAcc>0.708400</vAcc></extensions></trkpt>
      <trkpt lon="-4.112680" lat="53.011869"><ele>72.818321</ele><time>2021-07-17T09:00:35Z</time><extensions><speed>1.456070</speed><course>302.560516</course><hAcc>0.889255</hAcc><vAcc>0.709140</vAcc></extensions></trkpt>
      <trkpt lon="-4.112701" lat="53.011870"><ele>72.844322</ele><time>2021-07-17T09:00:36Z</time><extensions><speed>1.454584</speed><course>304.207947</course><hAcc>0.890532</hAcc><vAcc>0.710139</vAcc></extensions></trkpt>
      <trkpt lon="-4.112723" lat="53.011871"><ele>72.871910</ele><time>2021-07-17T09:00:37Z</time><extensions><speed>1.450570</speed><course>304.678192</course><hAcc>0.892115</hAcc><vAcc>0.711361</vAcc></extensions></trkpt>
      <trkpt lon="-4.112744" lat="53.011872"><ele>72.902077</ele><time>2021-07-17T09:00:38Z</time><extensions><speed>1.444555</speed><course>300.816559</course><hAcc>0.893971</hAcc><vAcc>0.712741</vAcc></extensions></trkpt>
      <trkpt lon="-4.112766" lat="53.011873"><ele>72.936005</ele><time>2021-07-17T09:00:39Z</time><extensions><speed>1.436985</speed><course>302.457642</course><hAcc>0.896023</hAcc><vAcc>0.714171</vAcc></extensions></trkpt>
      <trkpt lon="-4.112787" lat="53.011873"><ele>72.974937</ele><time>2021-07-17T09:00:40Z</time><extensions><speed>1.428244</speed><course>303.405792</course><hAcc>0.898140</hAcc><vAcc>0.715515</vAcc></extensions></trkpt>
      <trkpt lon="-4.112808" lat="53.011874"><ele>73.019974</ele><time>2021-07-17T09:00:41Z</time><extensions><speed>1.418759</speed><course>305.179382</course><hAcc>0.900143</hAcc><vAcc>0.716627</vAcc></extensions></trkpt>
      <trkpt lon="-4.112829" lat="53.011874"><ele>73.072052</ele><time>2021-07-17T09:00:42Z</time><extensions><speed>1.408892</speed><course>301.811188</course><hAcc>0.901824</hAcc><vAcc>0.717385</vAcc></extensions></trkpt>
      <trkpt lon="-4.112850" lat="53.011875"><ele>73.132042</ele><time>2021-07-17T09:00:43Z</time><extensions><speed>1.399039</speed><course>294.111877</course><hAcc>0.903001</hAcc><vAcc>0.717745</vAcc></extensions></trkpt>
      <trkpt lon="-4.112871" lat="53.011875"><ele>73.200531</ele><time>2021-07-17T09:00:44Z</time><extensions><speed>1.389690</speed><course>291.186249</course><hAcc>0.903617</hAcc><vAcc>0.717835</vAcc></extensions></trkpt>
      <trkpt lon="-4.112892" lat="53.011875"><ele>73.277687</ele><time>2021-07-17T09:00:45Z</time><extensions><speed>1.381117</speed><course>291.833313</course><hAcc>0.903906</hAcc><vAcc>0.718088</vAcc></extensions></trkpt>
      <trkpt lon="-4.112912" lat="53.011875"><ele>73.363571</ele><time>2021-07-17T09:00:46Z</time><extensions><speed>1.373613</speed><course>293.198639</course><hAcc>0.904657</hAcc><vAcc>0.719439</vAcc></extensions></trkpt>
      <trkpt lon="-4.112933" lat="53.011875"><ele>73.458153</ele><time>2021-07-17T09:00:47Z</time><extensions><speed>1.367279</speed><course>297.953094</course><hAcc>0.907574</hAcc><vAcc>0.723567</vAcc></extensions></trkpt>
      <trkpt lon="-4.112953" lat="53.011874"><ele>73.561119</ele><time>2021-07-17T09:00:48Z</time><extensions><speed>1.361844</speed><course>294.998413</course><hAcc>0.915715</hAcc><vAcc>0.733142</vAcc></extensions></trkpt>
      <trkpt lon="-4.112973" lat="53.011874"><ele>73.671707</ele><time>2021-07-17T09:00:49Z</time><extensions><speed>1.357063</speed><course>290.333923</course><hAcc>0.933914</hAcc><vAcc>0.751988</vAcc></extensions></trkpt>
      <trkpt lon="-4.112993" lat="53.011873"><ele>73.788818</ele><time>2021-07-17T09:00:50Z</time><extensions><speed>1.352696</speed><course>297.336884</course><hAcc>0.968912</hAcc><vAcc>0.784964</vAcc></extensions></trkpt>
      <trkpt lon="-4.113012" lat="53.011870"><ele>74.018677</ele><time>2021-07-17T09:00:51Z</time><extensions><speed>1.359999</speed><course>207.637573</course><hAcc>0.931230</hAcc><vAcc>0.750940</vAcc></extensions></trkpt>
      <trkpt lon="-4.113031" lat="53.011866"><ele>74.165855</ele><time>2021-07-17T09:00:52Z</time><extensions><speed>1.357528</speed><course>199.781464</course><hAcc>0.912425</hAcc><vAcc>0.731449</vAcc></extensions></trkpt>
      <trkpt lon="-4.113050" lat="53.011861"><ele>74.311295</ele><time>2021-07-17T09:00:53Z</time><extensions><speed>1.355858</speed><course>204.898392</course><hAcc>0.904847</hAcc><vAcc>0.722169</vAcc></extensions></trkpt>
      <trkpt lon="-4.113069" lat="53.011857"><ele>74.453972</ele><time>2021-07-17T09:00:54Z</time><extensions><speed>1.355231</speed><course>218.988647</course><hAcc>0.902976</hAcc><vAcc>0.718813</vAcc></extensions></trkpt>
      <trkpt lon="-4.113087" lat="53.011852"><ele>74.592918</ele><time>2021-07-17T09:00:55Z</time><extensions><speed>1.355897</speed><course>240.875916</course><hAcc>0.903324</hAcc><vAcc>0.718377</vAcc></extensions></trkpt>
      <trkpt lon="-4.113106" lat="53.011847"><ele>74.727173</ele><time>2021-07-17T09:00:56Z</time><extensions><speed>1.357600</speed><course>240.875916</course><hAcc>0.903968</hAcc><vAcc>0.718981</vAcc></extensions></trkpt>
      <trkpt lon="-4.113124" lat="53.011842"><ele>74.855721</ele><time>2021-07-17T09:00:57Z</time><extensions><speed>1.359830</speed><course>240.875916</course><hAcc>0.904039</hAcc><vAcc>0.719591</vAcc></extensions></trkpt>
      <trkpt lon="-4.113142" lat="53.011837"><ele>74.977623</ele><time>2021-07-17T09:00:58Z</time><extensions><speed>1.362252</speed><course>240.875916</course><hAcc>0.903299</hAcc><vAcc>0.719746</vAcc></extensions></trkpt>
      <trkpt lon="-4.113161" lat="53.011832"><ele>75.092148</ele><time>2021-07-17T09:00:59Z</time><extensions><speed>1.364884</speed><course>240.875916</course><hAcc>0.901847</hAcc><vAcc>0.719337</vAcc></extensions></trkpt>
      <trkpt lon="-4.113179" lat="53.011826"><ele>75.198708</ele><time>2021-07-17T09:01:00Z</time><extensions><speed>1.367690</speed><course>240.875916</course><hAcc>0.899920</hAcc><vAcc>0.718453</vAcc></extensions></trkpt>
      <trkpt lon="-4.113197" lat="53.011820"><ele>75.297119</ele><time>2021-07-17T09:01:01Z</time><extensions><speed>1.370470</speed><course>269.430084</course><hAcc>0.897778</hAcc><vAcc>0.717264</vAcc></extensions></trkpt>
      <trkpt lon="-4.113215" lat="53.011815"><ele>75.387657</ele><time>2021-07-17T09:01:02Z</time><extensions><speed>1.372793</speed><course>274.056000</course><hAcc>0.895647</hAcc><vAcc>0.715955</vAcc></extensions></trkpt>
      <trkpt lon="-4.113233" lat="53.011809"><ele>75.470863</ele><time>2021-07-17T09:01:03Z</time><extensions><speed>1.373867</speed><course>273.580658</course><hAcc>0.893691</hAcc><vAcc>0.714685</vAcc></extensions></trkpt>
      <trkpt lon="-4.113251" lat="53.011803"><ele>75.547531</ele><time>2021-07-17T09:01:04Z</time><extensions><speed>1.373372</speed><course>266.285736</course><hAcc>0.892009</hAcc><vAcc>0.713572</vAcc></extensions></trkpt>
      <trkpt lon="-4.113269" lat="53.011797"><ele>75.618713</ele><time>2021-07-17T09:01:05Z</time><extensions><speed>1.371891</speed><course>280.416809</course><hAcc>0.890643</hAcc><vAcc>0.712687</vAcc></extensions></trkpt>
      <trkpt lon="-4.113287" lat="53.011791"><ele>75.685516</ele><time>2021-07-17T09:01:06Z</time><extensions><speed>1.370439</speed><course>289.633057</course><hAcc>0.889595</hAcc><vAcc>0.712059</vAcc></extensions></trkpt>
      <trkpt lon="-4.113305" lat="53.011785"><ele>75.748970</ele><time>2021-07-17T09:01:07Z</time><extensions><speed>1.369775</speed><course>274.042023</course><hAcc>0.888838</hAcc><vAcc>0.711684</vAcc></extensions></trkpt>
      <trkpt lon="-4.113323" lat="53.011779"><ele>75.810287</ele><time>2021-07-17T09:01:08Z</time><extensions><speed>1.369673</speed><course>259.398621</course><hAcc>0.888330</hAcc><vAcc>0.711535</vAcc></extensions></trkpt>
      <trkpt lon="-4.113341" lat="53.011774"><ele>75.870743</ele><time>2021-07-17T09:01:09Z</time><extensions><speed>1.369445</speed><course>235.228027</course><hAcc>0.888021</hAcc><vAcc>0.711570</vAcc></extensions></trkpt>
      <trkpt lon="-4.113359" lat="53.011768"><ele>75.931496</ele><time>2021-07-17T09:01:10Z</time><extensions><speed>1.368993</speed><course>233.943741</course><hAcc>0.887866</hAcc><vAcc>0.711744</vAcc></extensions></trkpt>
      <trkpt lon="-4.113377" lat="53.011762"><ele>75.993614</ele><time>2021-07-17T09:01:11Z</time><extensions><speed>1.368395</speed><course>251.986771</course><hAcc>0.887821</hAcc><vAcc>0.712017</vAcc></extensions></trkpt>
      <trkpt lon="-4.113395" lat="53.011757"><ele>76.058113</ele><time>2021-07-17T09:01:12Z</time><extensions><speed>1.367578</speed><course>230.632401</course><hAcc>0.887852</hAcc><vAcc>0.712352</vAcc></extensions></trkpt>
      <trkpt lon="-4.113413" lat="53.011751"><ele>76.125687</ele><time>2021-07-17T09:01:13Z</time><extensions><speed>1.366239</speed><course>208.539734</course><hAcc>0.887929</hAcc><vAcc>0.712723</vAcc></extensions></trkpt>
      <trkpt lon="-4.113432" lat="53.011746"><ele>76.196739</ele><time>2021-07-17T09:01:14Z</time><extensions><speed>1.364117</speed><course>217.062653</course><hAcc>0.888033</hAcc><vAcc>0.713111</vAcc></extensions></trkpt>
      <trkpt lon="-4.113450" lat="53.011741"><ele>76.271561</ele><time>2021-07-17T09:01:15Z</time><extensions><speed>1.361166</speed><course>216.480164</course><hAcc>0.888149</hAcc><vAcc>0.713501</vAcc></extensions></trkpt>
      <trkpt lon="-4.113469" lat="53.011736"><ele>76.350319</ele><time>2021-07-17T09:01:16Z</time><extensions><speed>1.357468</speed><course>215.204285</course><hAcc>0.888267</hAcc><vAcc>0.713882</vAcc></extensions></trkpt>
      <trkpt lon="-4.113487" lat="53.011731"><ele>76.432922</ele><time>2021-07-17T09:01:17Z</time><extensions><speed>1.353045</speed><course>192.608246</course><hAcc>0.888382</hAcc><vAcc>0.714244</vAcc></extensions></trkpt>
      <trkpt lon="-4.113506" lat="53.011726"><ele>76.519005</ele><time>2021-07-17T09:01:18Z</time><extensions><speed>1.347774</speed><course>196.818375</course><hAcc>0.888491</hAcc><vAcc>0.714582</vAcc></extensions></trkpt>
      <trkpt lon="-4.113524" lat="53.011722"><ele>76.608047</ele><time>2021-07-17T09:01:19Z</time><extensions><speed>1.341435</speed><course>200.564194</course><hAcc>0.888591</hAcc><vAcc>0.714897</vAcc></extensions></trkpt>
      <trkpt lon="-4.113543" lat="53.011717"><ele>76.699554</ele><time>2021-07-17T09:01:20Z</time><extensions><speed>1.333951</speed><course>224.718231</course><hAcc>0.888684</hAcc><vAcc>0.715188</vAcc></extensions></trkpt>
      <trkpt lon="-4.113561" lat="53.011713"><ele>76.792969</ele><time>2021-07-17T09:01:21Z</time><extensions><speed>1.325393</speed><course>228.969803</course><hAcc>0.888769</hAcc><vAcc>0.715457</vAcc></extensions></trkpt>
      <trkpt lon="-4.113579" lat="53.011708"><ele>76.887695</ele><time>2021-07-17T09:01:22Z</time><extensions><speed>1.315901</speed><course>250.366501</course><hAcc>0.888846</hAcc><vAcc>0.715705</vAcc></extensions></trkpt>
      <trkpt lon="-4.113597" lat="53.011704"><ele>76.982994</ele><time>2021-07-17T09:01:23Z</time><extensions><speed>1.305555</speed><course>-1.000000</course><hAcc>0.888918</hAcc><vAcc>0.715936</vAcc></extensions></trkpt>
      <trkpt lon="-4.113615" lat="53.011700"><ele>77.078011</ele><time>2021-07-17T09:01:24Z</time><extensions><speed>1.293997</speed><course>232.063629</course><hAcc>0.888985</hAcc><vAcc>0.716150</vAcc></extensions></trkpt>
      <trkpt lon="-4.113633" lat="53.011695"><ele>77.171997</ele><time>2021-07-17T09:01:25Z</time><extensions><speed>1.281086</speed><course>232.063614</course><hAcc>0.889046</hAcc><vAcc>0.716352</vAcc></extensions></trkpt>
      <trkpt lon="-4.113651" lat="53.011691"><ele>77.264206</ele><time>2021-07-17T09:01:26Z</time><extensions><speed>1.267289</speed><course>232.063614</course><hAcc>0.889103</hAcc><vAcc>0.716540</vAcc></extensions></trkpt>
      <trkpt lon="-4.113668" lat="53.011687"><ele>77.353798</ele><time>2021-07-17T09:01:27Z</time><extensions><speed>1.253206</speed><course>232.063599</course><hAcc>0.889156</hAcc><vAcc>0.716716</vAcc></extensions></trkpt>
      <trkpt lon="-4.113685" lat="53.011682"><ele>77.440086</ele><time>2021-07-17T09:01:28Z</time><extensions><speed>1.239224</speed><course>232.063599</course><hAcc>0.889204</hAcc><vAcc>0.716878</vAcc></extensions></trkpt>
      <trkpt lon="-4.113702" lat="53.011678"><ele>77.522568</ele><time>2021-07-17T09:01:29Z</time><extensions><speed>1.225544</speed><course>232.063583</course><hAcc>0.889249</hAcc><vAcc>0.717027</vAcc></extensions></trkpt>
      <trkpt lon="-4.113719" lat="53.011674"><ele>77.601006</ele><time>2021-07-17T09:01:30Z</time><extensions><speed>1.212254</speed><course>232.063583</course><hAcc>0.889290</hAcc><vAcc>0.717161</vAcc></extensions></trkpt>
      <trkpt lon="-4.113736" lat="53.011670"><ele>77.675468</ele><time>2021-07-17T09:01:31Z</time><extensions><speed>1.199485</speed><course>248.555511</course><hAcc>0.889328</hAcc><vAcc>0.717279</vAcc></extensions></trkpt>
      <trkpt lon="-4.113752" lat="53.011666"><ele>77.746231</ele><time>2021-07-17T09:01:32Z</time><extensions><speed>1.187510</speed><course>214.727661</course><hAcc>0.889362</hAcc><vAcc>0.717384</vAcc></extensions></trkpt>
      <trkpt lon="-4.113768" lat="53.011661"><ele>77.813713</ele><time>2021-07-17T09:01:33Z</time><extensions><speed>1.176623</speed><course>215.656113</course><hAcc>0.889394</hAcc><vAcc>0.717475</vAcc></extensions></trkpt>
      <trkpt lon="-4.113784" lat="53.011657"><ele>77.878380</ele><time>2021-07-17T09:01:34Z</time><extensions><speed>1.167192</speed><course>205.637772</course><hAcc>0.889423</hAcc><vAcc>0.717554</vAcc></extensions></trkpt>
      <trkpt lon="-4.113800" lat="53.011653"><ele>77.940750</ele><time>2021-07-17T09:01:35Z</time><extensions><speed>1.159675</speed><course>201.575424</course><hAcc>0.889449</hAcc><vAcc>0.717626</vAcc></extensions></trkpt>
      <trkpt lon="-4.113816" lat="53.011649"><ele>78.001617</ele><time>2021-07-17T09:01:36Z</time><extensions><speed>1.154375</speed><course>196.854248</course><hAcc>0.889472</hAcc><vAcc>0.717693</vAcc></extensions></trkpt>
      <trkpt lon="-4.113832" lat="53.011645"><ele>78.061958</ele><time>2021-07-17T09:01:37Z</time><extensions><speed>1.151243</speed><course>198.264053</course><hAcc>0.889493</hAcc><vAcc>0.717757</vAcc></extensions></trkpt>
      <trkpt lon="-4.113847" lat="53.011641"><ele>78.122757</ele><time>2021-07-17T09:01:38Z</time><extensions><speed>1.150132</speed><course>198.636932</course><hAcc>0.889510</hAcc><vAcc>0.717819</vAcc></extensions></trkpt>
      <trkpt lon="-4.113863" lat="53.011637"><ele>78.185051</ele><time>2021-07-17T09:01:39Z</time><extensions><speed>1.151112</speed><course>192.727798</course><hAcc>0.889524</hAcc><vAcc>0.717878</vAcc></extensions></trkpt>
      <trkpt lon="-4.113879" lat="53.011632"><ele>78.249947</ele><time>2021-07-17T09:01:40Z</time><extensions><speed>1.154369</speed><course>184.691818</course><hAcc>0.889533</hAcc><vAcc>0.717929</vAcc></extensions></trkpt>
      <trkpt lon="-4.113895" lat="53.011628"><ele>78.318565</ele><time>2021-07-17T09:01:41Z</time><extensions><speed>1.159901</speed><course>177.917740</course><hAcc>0.889537</hAcc><vAcc>0.717964</vAcc></extensions></trkpt>
      <trkpt lon="-4.113911" lat="53.011624"><ele>78.391884</ele><time>2021-07-17T09:01:42Z</time><extensions><speed>1.167468</speed><course>169.935883</course><hAcc>0.889536</hAcc><vAcc>0.717977</vAcc></extensions></trkpt>
      <trkpt lon="-4.113927" lat="53.011620"><ele>78.470680</ele><time>2021-07-17T09:01:43Z</time><extensions><speed>1.176627</speed><course>168.290512</course><hAcc>0.889529</hAcc><vAcc>0.717962</vAcc></extensions></trkpt>
      <trkpt lon="-4.113943" lat="53.011616"><ele>78.555817</ele><time>2021-07-17T09:01:44Z</time><extensions><speed>1.186860</speed><course>175.847488</course><hAcc>0.889515</hAcc><vAcc>0.717918</vAcc></extensions></trkpt>
      <trkpt lon="-4.113959" lat="53.011611"><ele>78.648193</ele><time>2021-07-17T09:01:45Z</time><extensions><speed>1.197483</speed><course>182.489380</course><hAcc>0.889493</hAcc><vAcc>0.717845</vAcc></extensions></trkpt>
      <trkpt lon="-4.113975" lat="53.011607"><ele>78.748604</ele><time>2021-07-17T09:01:46Z</time><extensions><speed>1.207657</speed><course>193.224472</course><hAcc>0.889464</hAcc><vAcc>0.717744</vAcc></extensions></trkpt>
      <trkpt lon="-4.113992" lat="53.011603"><ele>78.857651</ele><time>2021-07-17T09:01:47Z</time><extensions><speed>1.216847</speed><course>210.457108</course><hAcc>0.889427</hAcc><vAcc>0.717618</vAcc></extensions></trkpt>
      <trkpt lon="-4.114009" lat="53.011598"><ele>78.975639</ele><time>2021-07-17T09:01:48Z</time><extensions><speed>1.224826</speed><course>227.054108</course><hAcc>0.889381</hAcc><vAcc>0.717468</vAcc></extensions></trkpt>
      <trkpt lon="-4.114025" lat="53.011594"><ele>79.102470</ele><time>2021-07-17T09:01:49Z</time><extensions><speed>1.231312</speed><course>247.666534</course><hAcc>0.889328</hAcc><vAcc>0.717297</vAcc></extensions></trkpt>
      <trkpt lon="-4.114042" lat="53.011589"><ele>79.237602</ele><time>2021-07-17T09:01:50Z</time><extensions><speed>1.235787</speed><course>261.197876</course><hAcc>0.889268</hAcc><vAcc>0.717105</vAcc></extensions></trkpt>
      <trkpt lon="-4.114059" lat="53.011584"><ele>79.380264</ele><time>2021-07-17T09:01:51Z</time><extensions><speed>1.237978</speed><course>263.217255</course><hAcc>0.889201</hAcc><vAcc>0.716894</vAcc></extensions></trkpt>
      <trkpt lon="-4.114075" lat="53.011579"><ele>79.529541</ele><time>2021-07-17T09:01:52Z</time><extensions><speed>1.238286</speed><course>271.463165</course><hAcc>0.889128</hAcc><vAcc>0.716662</vAcc></extensions></trkpt>
      <trkpt lon="-4.114092" lat="53.011575"><ele>79.684319</ele><time>2021-07-17T09:01:53Z</time><extensions><speed>1.237125</speed><course>281.991608</course><hAcc>0.889049</hAcc><vAcc>0.716412</vAcc></extensions></trkpt>
      <trkpt lon="-4.114108" lat="53.011570"><ele>79.843399</ele><time>2021-07-17T09:01:54Z</time><extensions><speed>1.234706</speed><course>285.895782</course><hAcc>0.888966</hAcc><vAcc>0.716144</vAcc></extensions></trkpt>
      <trkpt lon="-4.114125" lat="53.011565"><ele>80.005470</ele><time>2021-07-17T09:01:55Z</time><extensions><speed>1.231282</speed><course>287.327179</course><hAcc>0.888880</hAcc><vAcc>0.715860</vAcc></extensions></trkpt>
      <trkpt lon="-4.114141" lat="53.011560"><ele>80.169136</ele><time>2021-07-17T09:01:56Z</time><extensions><speed>1.227067</speed><course>297.396240</course><hAcc>0.888792</hAcc><vAcc>0.715562</vAcc></extensions></trkpt>
      <trkpt lon="-4.114157" lat="53.011554"><ele>80.332962</ele><time>2021-07-17T09:01:57Z</time><extensions><speed>1.222631</speed><course>299.473175</course><hAcc>0.888703</hAcc><vAcc>0.715254</vAcc></extensions></trkpt>
      <trkpt lon="-4.114173" lat="53.011549"><ele>80.495377</ele><time>2021-07-17T09:01:58Z</time><extensions><speed>1.218445</speed><course>297.683289</course><hAcc>0.888616</hAcc><vAcc>0.714945</vAcc></extensions></trkpt>
      <trkpt lon="-4.114189" lat="53.011544"><ele>80.654938</ele><time>2021-07-17T09:01:59Z</time><extensions><speed>1.214628</speed><course>292.365356</course><hAcc>0.888530</hAcc><vAcc>0.714645</vAcc></extensions></trkpt>
      <trkpt lon="-4.114204" lat="53.011538"><ele>80.810204</ele><time>2021-07-17T09:02:00Z</time><extensions><speed>1.211129</speed><course>291.092651</course><hAcc>0.888446</hAcc><vAcc>0.714361</vAcc></extensions></trkpt>
      <trkpt lon="-4.114220" lat="53.011533"><ele>80.959793</ele><time>2021-07-17T09:02:01Z</time><extensions><speed>1.207761</speed><course>297.007721</course><hAcc>0.888364</hAcc><vAcc>0.714101</vAcc></extensions></trkpt>
      <trkpt lon="-4.114235" lat="53.011527"><ele>81.102776</ele><time>2021-07-17T09:02:02Z</time><extensions><speed>1.204450</speed><course>291.539093</course><hAcc>0.888282</hAcc><vAcc>0.713865</vAcc></extensions></trkpt>
      <trkpt lon="-4.114250" lat="53.011521"><ele>81.238564</ele><time>2021-07-17T09:02:03Z</time><extensions><speed>1.200840</speed><course>293.314819</course><hAcc>0.888201</hAcc><vAcc>0.713646</vAcc></extensions></trkpt>
      <trkpt lon="-4.114265" lat="53.011515"><ele>81.366867</ele><time>2021-07-17T09:02:04Z</time><extensions><speed>1.196526</speed><course>297.043213</course><hAcc>0.888118</hAcc><vAcc>0.713432</vAcc></extensions></trkpt>
      <trkpt lon="-4.114280" lat="53.011509"><ele>81.487602</ele><time>2021-07-17T09:02:05Z</time><extensions><speed>1.191373</speed><course>301.573547</course><hAcc>0.888033</hAcc><vAcc>0.713209</vAcc></extensions></trkpt>
      <trkpt lon="-4.114294" lat="53.011503"><ele>81.600807</ele><time>2021-07-17T09:02:06Z</time><extensions><speed>1.185672</speed><course>305.542847</course><hAcc>0.887943</hAcc><vAcc>0.712963</vAcc></extensions></trkpt>
      <trkpt lon="-4.114309" lat="53.011497"><ele>81.706581</ele><time>2021-07-17T09:02:07Z</time><extensions><speed>1.180202</speed><course>304.461029</course><hAcc>0.887849</hAcc><vAcc>0.712683</vAcc></extensions></trkpt>
      <trkpt lon="-4.114323" lat="53.011491"><ele>81.805016</ele><time>2021-07-17T09:02:08Z</time><extensions><speed>1.175245</speed><course>304.519958</course><hAcc>0.887749</hAcc><vAcc>0.712366</vAcc></extensions></trkpt>
      <trkpt lon="-4.114337" lat="53.011484"><ele>81.896072</ele><time>2021-07-17T09:02:09Z</time><extensions><speed>1.170646</speed><course>306.835541</course><hAcc>0.887645</hAcc><vAcc>0.712013</vAcc></extensions></trkpt>
      <trkpt lon="-4.114351" lat="53.011478"><ele>81.979591</ele><time>2021-07-17T09:02:10Z</time><extensions><speed>1.166092</speed><course>312.924469</course><hAcc>0.887537</hAcc><vAcc>0.711634</vAcc></extensions></trkpt>
      <trkpt lon="-4.114364" lat="53.011472"><ele>82.055595</ele><time>2021-07-17T09:02:11Z</time><extensions><speed>1.160753</speed><course>313.121582</course><hAcc>0.887429</hAcc><vAcc>0.711240</vAcc></extensions></trkpt>
      <trkpt lon="-4.114378" lat="53.011465"><ele>82.124519</ele><time>2021-07-17T09:02:12Z</time><extensions><speed>1.154022</speed><course>312.363678</course><hAcc>0.887323</hAcc><vAcc>0.710847</vAcc></extensions></trkpt>
      <trkpt lon="-4.114392" lat="53.011459"><ele>82.187164</ele><time>2021-07-17T09:02:13Z</time><extensions><speed>1.146334</speed><course>309.905548</course><hAcc>0.887223</hAcc><vAcc>0.710472</vAcc></extensions></trkpt>
      <trkpt lon="-4.114405" lat="53.011453"><ele>82.244560</ele><time>2021-07-17T09:02:14Z</time><extensions><speed>1.138697</speed><course>308.597687</course><hAcc>0.887131</hAcc><vAcc>0.710130</vAcc></extensions></trkpt>
      <trkpt lon="-4.114418" lat="53.011446"><ele>82.297981</ele><time>2021-07-17T09:02:15Z</time><extensions><speed>1.131941</speed><course>307.103394</course><hAcc>0.887049</hAcc><vAcc>0.709839</vAcc></extensions></trkpt>
      <trkpt lon="-4.114432" lat="53.011440"><ele>82.348770</ele><time>2021-07-17T09:02:16Z</time><extensions><speed>1.127010</speed><course>306.897400</course><hAcc>0.886979</hAcc><vAcc>0.709606</vAcc></extensions></trkpt>
      <trkpt lon="-4.114445" lat="53.011434"><ele>82.398094</ele><time>2021-07-17T09:02:17Z</time><extensions><speed>1.124446</speed><course>302.152618</course><hAcc>0.886921</hAcc><vAcc>0.709435</vAcc></extensions></trkpt>
      <trkpt lon="-4.114458" lat="53.011427"><ele>82.447212</ele><time>2021-07-17T09:02:18Z</time><extensions><speed>1.124225</speed><course>297.726410</course><hAcc>0.886873</hAcc><vAcc>0.709320</vAcc></extensions></trkpt>
      <trkpt lon="-4.114470" lat="53.011421"><ele>82.497406</ele><time>2021-07-17T09:02:19Z</time><extensions><speed>1.126543</speed><course>300.194183</course><hAcc>0.886834</hAcc><vAcc>0.709251</vAcc></extensions></trkpt>
      <trkpt lon="-4.114483" lat="53.011414"><ele>82.549652</ele><time>2021-07-17T09:02:20Z</time><extensions><speed>1.131712</speed><course>297.151825</course><hAcc>0.886800</hAcc><vAcc>0.709211</vAcc></extensions></trkpt>
      <trkpt lon="-4.114496" lat="53.011408"><ele>82.604965</ele><time>2021-07-17T09:02:21Z</time><extensions><speed>1.139747</speed><course>298.399384</course><hAcc>0.886767</hAcc><vAcc>0.709182</vAcc></extensions></trkpt>
      <trkpt lon="-4.114509" lat="53.011401"><ele>82.664536</ele><time>2021-07-17T09:02:22Z</time><extensions><speed>1.150864</speed><course>300.837921</course><hAcc>0.886732</hAcc><vAcc>0.709140</vAcc></extensions></trkpt>
      <trkpt lon="-4.114523" lat="53.011394"><ele>82.729477</ele><time>2021-07-17T09:02:23Z</time><extensions><speed>1.165345</speed><course>299.844330</course><hAcc>0.886691</hAcc><vAcc>0.709065</vAcc></extensions></trkpt>
      <trkpt lon="-4.114536" lat="53.011387"><ele>82.800697</ele><time>2021-07-17T09:02:24Z</time><extensions><speed>1.182935</speed><course>300.001373</course><hAcc>0.886642</hAcc><vAcc>0.708939</vAcc></extensions></trkpt>
      <trkpt lon="-4.114549" lat="53.011381"><ele>82.879005</ele><time>2021-07-17T09:02:25Z</time><extensions><speed>1.202953</speed><course>294.568817</course><hAcc>0.886585</hAcc><vAcc>0.708752</vAcc></extensions></trkpt>
      <trkpt lon="-4.114563" lat="53.011373"><ele>82.965004</ele><time>2021-07-17T09:02:26Z</time><extensions><speed>1.224592</speed><course>300.687103</course><hAcc>0.886520</hAcc><vAcc>0.708506</vAcc></extensions></trkpt>
      <trkpt lon="-4.114577" lat="53.011366"><ele>83.059029</ele><time>2021-07-17T09:02:27Z</time><extensions><speed>1.247033</speed><course>297.691925</course><hAcc>0.886451</hAcc><vAcc>0.708215</vAcc></extensions></trkpt>
      <trkpt lon="-4.114591" lat="53.011359"><ele>83.161095</ele><time>2021-07-17T09:02:28Z</time><extensions><speed>1.269204</speed><course>293.928223</course><hAcc>0.886379</hAcc><vAcc>0.707905</vAcc></extensions></trkpt>
      <trkpt lon="-4.114606" lat="53.011351"><ele>83.270531</ele><time>2021-07-17T09:02:29Z</time><extensions><speed>1.290080</speed><course>297.041656</course><hAcc>0.886310</hAcc><vAcc>0.707605</vAcc></extensions></trkpt>
      <trkpt lon="-4.114620" lat="53.011344"><ele>83.386055</ele><time>2021-07-17T09:02:30Z</time><extensions><speed>1.309195</speed><course>298.722290</course><hAcc>0.886248</hAcc><vAcc>0.707341</vAcc></extensions></trkpt>
      <trkpt lon="-4.114635" lat="53.011336"><ele>83.506180</ele><time>2021-07-17T09:02:31Z</time><extensions><speed>1.326491</speed><course>296.674316</course><hAcc>0.886197</hAcc><vAcc>0.707134</vAcc></extensions></trkpt>
      <trkpt lon="-4.114649" lat="53.011328"><ele>83.629395</ele><time>2021-07-17T09:02:32Z</time><extensions><speed>1.342025</speed><course>301.147156</course><hAcc>0.886160</hAcc><vAcc>0.706997</vAcc></extensions></trkpt>
      <trkpt lon="-4.114664" lat="53.011319"><ele>83.754105</ele><time>2021-07-17T09:02:33Z</time><extensions><speed>1.355581</speed><course>301.618805</course><hAcc>0.886139</hAcc><vAcc>0.706937</vAcc></extensions></trkpt>
      <trkpt lon="-4.114679" lat="53.011311"><ele>83.878693</ele><time>2021-07-17T09:02:34Z</time><extensions><speed>1.366821</speed><course>300.678009</course><hAcc>0.886135</hAcc><vAcc>0.706956</vAcc></extensions></trkpt>
      <trkpt lon="-4.114693" lat="53.011302"><ele>84.001587</ele><time>2021-07-17T09:02:35Z</time><extensions><speed>1.375432</speed><course>306.078644</course><hAcc>0.886148</hAcc><vAcc>0.707045</vAcc></extensions></trkpt>
      <trkpt lon="-4.114708" lat="53.011293"><ele>84.121437</ele><time>2021-07-17T09:02:36Z</time><extensions><speed>1.380750</speed><course>302.099213</course><hAcc>0.886177</hAcc><vAcc>0.707185</vAcc></extensions></trkpt>
      <trkpt lon="-4.114722" lat="53.011284"><ele>84.237228</ele><time>2021-07-17T09:02:37Z</time><extensions><speed>1.382356</speed><course>298.253754</course><hAcc>0.886218</hAcc><vAcc>0.707358</vAcc></extensions></trkpt>
      <trkpt lon="-4.114736" lat="53.011275"><ele>84.348122</ele><time>2021-07-17T09:02:38Z</time><extensions><speed>1.380516</speed><course>299.772583</course><hAcc>0.886272</hAcc><vAcc>0.707548</vAcc></extensions></trkpt>
      <trkpt lon="-4.114750" lat="53.011266"><ele>84.453453</ele><time>2021-07-17T09:02:39Z</time><extensions><speed>1.375911</speed><course>299.946075</course><hAcc>0.886335</hAcc><vAcc>0.707748</vAcc></extensions></trkpt>
      <trkpt lon="-4.114764" lat="53.011257"><ele>84.552864</ele><time>2021-07-17T09:02:40Z</time><extensions><speed>1.369310</speed><course>303.968170</course><hAcc>0.886406</hAcc><vAcc>0.707960</vAcc></extensions></trkpt>
      <trkpt lon="-4.114777" lat="53.011248"><ele>84.645927</ele><time>2021-07-17T09:02:41Z</time><extensions><speed>1.361528</speed><course>302.223755</course><hAcc>0.886483</hAcc><vAcc>0.708191</vAcc></extensions></trkpt>
      <trkpt lon="-4.114791" lat="53.011239"><ele>84.731941</ele><time>2021-07-17T09:02:42Z</time><extensions><speed>1.353375</speed><course>303.590851</course><hAcc>0.886564</hAcc><vAcc>0.708445</vAcc></extensions></trkpt>
      <trkpt lon="-4.114804" lat="53.011230"><ele>84.810211</ele><time>2021-07-17T09:02:43Z</time><extensions><speed>1.345605</speed><course>302.656281</course><hAcc>0.886650</hAcc><vAcc>0.708725</vAcc></extensions></trkpt>
      <trkpt lon="-4.114817" lat="53.011220"><ele>84.880226</ele><time>2021-07-17T09:02:44Z</time><extensions><speed>1.338829</speed><course>307.857574</course><hAcc>0.886738</hAcc><vAcc>0.709026</vAcc></extensions></trkpt>
      <trkpt lon="-4.114829" lat="53.011211"><ele>84.941467</ele><time>2021-07-17T09:02:45Z</time><extensions><speed>1.333666</speed><course>306.241272</course><hAcc>0.886829</hAcc><vAcc>0.709336</vAcc></extensions></trkpt>
      <trkpt lon="-4.114842" lat="53.011202"><ele>84.993668</ele><time>2021-07-17T09:02:46Z</time><extensions><speed>1.330359</speed><course>302.560516</course><hAcc>0.886920</hAcc><vAcc>0.709644</vAcc></extensions></trkpt>
      <trkpt lon="-4.114854" lat="53.011193"><ele>85.037224</ele><time>2021-07-17T09:02:47Z</time><extensions><speed>1.328693</speed><course>304.207947</course><hAcc>0.887011</hAcc><vAcc>0.709942</vAcc></extensions></trkpt>
      <trkpt lon="-4.114867" lat="53.011183"><ele>85.073044</ele><time>2021-07-17T09:02:48Z</time><extensions><speed>1.328531</speed><course>304.678192</course><hAcc>0.887102</hAcc><vAcc>0.710227</vAcc></extensions></trkpt>
      <trkpt lon="-4.114880" lat="53.011174"><ele>85.102280</ele><time>2021-07-17T09:02:49Z</time><extensions><speed>1.329575</speed><course>300.816559</course><hAcc>0.887192</hAcc><vAcc>0.710498</vAcc></extensions></trkpt>
      <trkpt lon="-4.114893" lat="53.011165"><ele>85.126427</ele><time>2021-07-17T09:02:50Z</time><extensions><speed>1.331320</speed><course>302.457642</course><hAcc>0.887280</hAcc><vAcc>0.710758</vAcc></extensions></trkpt>
      <trkpt lon="-4.114906" lat="53.011156"><ele>85.147339</ele><time>2021-07-17T09:02:51Z</time><extensions><speed>1.333315</speed><course>303.405792</course><hAcc>0.887364</hAcc><vAcc>0.711011</vAcc></extensions></trkpt>
      <trkpt lon="-4.114919" lat="53.011147"><ele>85.167175</ele><time>2021-07-17T09:02:52Z</time><extensions><speed>1.334929</speed><course>305.179382</course><hAcc>0.887445</hAcc><vAcc>0.711260</vAcc></extensions></trkpt>
      <trkpt lon="-4.114932" lat="53.011138"><ele>85.188477</ele><time>2021-07-17T09:02:53Z</time><extensions><speed>1.334888</speed><course>301.811188</course><hAcc>0.887519</hAcc><vAcc>0.711505</vAcc></extensions></trkpt>
      <trkpt lon="-4.114946" lat="53.011130"><ele>85.214043</ele><time>2021-07-17T09:02:54Z</time><extensions><speed>1.331880</speed><course>294.111877</course><hAcc>0.887585</hAcc><vAcc>0.711744</vAcc></extensions></trkpt>
      <trkpt lon="-4.114960" lat="53.011121"><ele>85.246475</ele><time>2021-07-17T09:02:55Z</time><extensions><speed>1.325238</speed><course>291.186249</course><hAcc>0.887639</hAcc><vAcc>0.711967</vAcc></extensions></trkpt>
      <trkpt lon="-4.114974" lat="53.011113"><ele>85.287895</ele><time>2021-07-17T09:02:56Z</time><extensions><speed>1.314918</speed><course>291.833313</course><hAcc>0.887678</hAcc><vAcc>0.712161</vAcc></extensions></trkpt>
      <trkpt lon="-4.114988" lat="53.011105"><ele>85.340065</ele><time>2021-07-17T09:02:57Z</time><extensions><speed>1.301334</speed><course>293.198639</course><hAcc>0.887700</hAcc><vAcc>0.712303</vAcc></extensions></trkpt>
      <trkpt lon="-4.115003" lat="53.011097"><ele>85.404480</ele><time>2021-07-17T09:02:58Z</time><extensions><speed>1.285290</speed><course>297.953094</course><hAcc>0.887701</hAcc><vAcc>0.712371</vAcc></extensions></trkpt>
      <trkpt lon="-4.115018" lat="53.011090"><ele>85.482445</ele><time>2021-07-17T09:02:59Z</time><extensions><speed>1.267860</speed><course>294.998413</course><hAcc>0.887680</hAcc><vAcc>0.712347</vAcc></extensions></trkpt>
      <trkpt lon="-4.115032" lat="53.011083"><ele>85.574684</ele><time>2021-07-17T09:03:00Z</time><extensions><speed>1.250118</speed><course>290.333923</course><hAcc>0.887636</hAcc><vAcc>0.712219</vAcc></extensions></trkpt>
      <trkpt lon="-4.115047" lat="53.011077"><ele>85.681061</ele><time>2021-07-17T09:03:01Z</time><extensions><speed>1.233087</speed><course>297.336884</course><hAcc>0.887570</hAcc><vAcc>0.711987</vAcc></extensions></trkpt>
      <trkpt lon="-4.115063" lat="53.011070"><ele>85.801056</ele><time>2021-07-17T09:03:02Z</time><extensions><speed>1.217842</speed><course>291.763641</course><hAcc>0.887483</hAcc><vAcc>0.711659</vAcc></extensions></trkpt>
      <trkpt lon="-4.115078" lat="53.011065"><ele>85.934021</ele><time>2021-07-17T09:03:03Z</time><extensions><speed>1.205593</speed><course>293.588959</course><hAcc>0.887380</hAcc><vAcc>0.711254</vAcc></extensions></trkpt>
      <trkpt lon="-4.115093" lat="53.011059"><ele>86.079033</ele><time>2021-07-17T09:03:04Z</time><extensions><speed>1.197216</speed><course>298.534668</course><hAcc>0.887267</hAcc><vAcc>0.710796</vAcc></extensions></trkpt>
      <trkpt lon="-4.115109" lat="53.011054"><ele>86.234886</ele><time>2021-07-17T09:03:05Z</time><extensions><speed>1.193134</speed><course>294.834351</course><hAcc>0.887149</hAcc><vAcc>0.710318</vAcc></extensions></trkpt>
      <trkpt lon="-4.115125" lat="53.011050"><ele>86.400345</ele><time>2021-07-17T09:03:06Z</time><extensions><speed>1.193591</speed><course>297.698059</course><hAcc>0.887034</hAcc><vAcc>0.709854</vAcc></extensions></trkpt>
      <trkpt lon="-4.115142" lat="53.011046"><ele>86.573837</ele><time>2021-07-17T09:03:07Z</time><extensions><speed>1.198589</speed><course>298.511444</course><hAcc>0.886927</hAcc><vAcc>0.709435</vAcc></extensions></trkpt>
      <trkpt lon="-4.115159" lat="53.011042"><ele>86.753380</ele><time>2021-07-17T09:03:08Z</time><extensions><speed>1.207541</speed><course>303.054443</course><hAcc>0.886836</hAcc><vAcc>0.709087</vAcc></extensions></trkpt>
      <trkpt lon="-4.115176" lat="53.011038"><ele>86.937050</ele><time>2021-07-17T09:03:09Z</time><extensions><speed>1.219108</speed><course>300.594757</course><hAcc>0.886764</hAcc><vAcc>0.708829</vAcc></extensions></trkpt>
      <trkpt lon="-4.115193" lat="53.011035"><ele>87.123131</ele><time>2021-07-17T09:03:10Z</time><extensions><speed>1.231770</speed><course>303.489990</course><hAcc>0.886714</hAcc><vAcc>0.708672</vAcc></extensions></trkpt>
      <trkpt lon="-4.115211" lat="53.011032"><ele>87.309807</ele><time>2021-07-17T09:03:11Z</time><extensions><speed>1.243903</speed><course>307.296783</course><hAcc>0.886689</hAcc><vAcc>0.708618</vAcc></extensions></trkpt>
      <trkpt lon="-4.115229" lat="53.011030"><ele>87.495491</ele><time>2021-07-17T09:03:12Z</time><extensions><speed>1.253655</speed><course>306.846466</course><hAcc>0.886687</hAcc><vAcc>0.708658</vAcc></extensions></trkpt>
      <trkpt lon="-4.115247" lat="53.011027"><ele>87.678947</ele><time>2021-07-17T09:03:13Z</time><extensions><speed>1.259480</speed><course>314.303711</course><hAcc>0.886708</hAcc><vAcc>0.708780</vAcc></extensions></trkpt>
      <trkpt lon="-4.115266" lat="53.011025"><ele>87.859055</ele><time>2021-07-17T09:03:14Z</time><extensions><speed>1.259781</speed><course>316.753265</course><hAcc>0.886750</hAcc><vAcc>0.708968</vAcc></extensions></trkpt>
      <trkpt lon="-4.115284" lat="53.011023"><ele>88.034615</ele><time>2021-07-17T09:03:15Z</time><extensions><speed>1.253121</speed><course>312.101562</course><hAcc>0.886808</hAcc><vAcc>0.709200</vAcc></extensions></trkpt>
      <trkpt lon="-4.115303" lat="53.011021"><ele>88.204346</ele><time>2021-07-17T09:03:16Z</time><extensions><speed>1.238953</speed><course>310.983948</course><hAcc>0.886880</hAcc><vAcc>0.709460</vAcc></extensions></trkpt>
      <trkpt lon="-4.115321" lat="53.011020"><ele>88.367012</ele><time>2021-07-17T09:03:17Z</time><extensions><speed>1.217493</speed><course>316.824890</course><hAcc>0.886963</hAcc><vAcc>0.709733</vAcc></extensions></trkpt>
      <trkpt lon="-4.115338" lat="53.011018"><ele>88.521484</ele><time>2021-07-17T09:03:18Z</time><extensions><speed>1.189187</speed><course>324.005005</course><hAcc>0.887054</hAcc><vAcc>0.710014</vAcc></extensions></trkpt>
      <trkpt lon="-4.115356" lat="53.011017"><ele>88.666870</ele><time>2021-07-17T09:03:19Z</time><extensions><speed>1.153920</speed><course>322.091736</course><hAcc>0.887151</hAcc><vAcc>0.710302</vAcc></extensions></trkpt>
      <trkpt lon="-4.115373" lat="53.011016"><ele>88.802483</ele><time>2021-07-17T09:03:20Z</time><extensions><speed>1.111383</speed><course>322.830170</course><hAcc>0.887251</hAcc><vAcc>0.710606</vAcc></extensions></trkpt>
      <trkpt lon="-4.115389" lat="53.011015"><ele>88.927719</ele><time>2021-07-17T09:03:21Z</time><extensions><speed>1.061257</speed><course>325.823517</course><hAcc>0.887352</hAcc><vAcc>0.710931</vAcc></extensions></trkpt>
      <trkpt lon="-4.115404" lat="53.011015"><ele>89.042122</ele><time>2021-07-17T09:03:22Z</time><extensions><speed>1.003296</speed><course>331.853210</course><hAcc>0.887451</hAcc><vAcc>0.711279</vAcc></extensions></trkpt>
      <trkpt lon="-4.115419" lat="53.011014"><ele>89.145302</ele><time>2021-07-17T09:03:23Z</time><extensions><speed>0.937817</speed><course>331.260956</course><hAcc>0.887546</hAcc><vAcc>0.711638</vAcc></extensions></trkpt>
      <trkpt lon="-4.115432" lat="53.011014"><ele>89.236923</ele><time>2021-07-17T09:03:24Z</time><extensions><speed>0.865568</speed><course>329.072571</course><hAcc>0.887636</hAcc><vAcc>0.711989</vAcc></extensions></trkpt>
      <trkpt lon="-4.115444" lat="53.011014"><ele>89.316750</ele><time>2021-07-17T09:03:25Z</time><extensions><speed>0.787742</speed><course>325.473938</course><hAcc>0.887718</hAcc><vAcc>0.712308</vAcc></extensions></trkpt>
      <trkpt lon="-4.115455" lat="53.011014"><ele>89.384819</ele><time>2021-07-17T09:03:26Z</time><extensions><speed>0.706325</speed><course>325.383026</course><hAcc>0.887791</hAcc><vAcc>0.712574</vAcc></extensions></trkpt>
      <trkpt lon="-4.115465" lat="53.011015"><ele>89.441490</ele><time>2021-07-17T09:03:27Z</time><extensions><speed>0.624364</speed><course>325.061401</course><hAcc>0.887856</hAcc><vAcc>0.712779</vAcc></extensions></trkpt>
      <trkpt lon="-4.115474" lat="53.011015"><ele>89.487343</ele><time>2021-07-17T09:03:28Z</time><extensions><speed>0.545434</speed><course>325.207275</course><hAcc>0.887913</hAcc><vAcc>0.712924</vAcc></extensions></trkpt>
      <trkpt lon="-4.115481" lat="53.011016"><ele>89.523163</ele><time>2021-07-17T09:03:29Z</time><extensions><speed>0.473152</speed><course>322.410889</course><hAcc>0.887965</hAcc><vAcc>0.713018</vAcc></extensions></trkpt>
      <trkpt lon="-4.115488" lat="53.011017"><ele>89.550026</ele><time>2021-07-17T09:03:30Z</time><extensions><speed>0.410429</speed><course>319.218658</course><hAcc>0.888013</hAcc><vAcc>0.713082</vAcc></extensions></trkpt>
      <trkpt lon="-4.115493" lat="53.011018"><ele>89.569382</ele><time>2021-07-17T09:03:31Z</time><extensions><speed>0.357896</speed><course>319.790588</course><hAcc>0.888063</hAcc><vAcc>0.713147</vAcc></extensions></trkpt>
      <trkpt lon="-4.115498" lat="53.011019"><ele>89.582954</ele><time>2021-07-17T09:03:32Z</time><extensions><speed>0.314316</speed><course>318.972229</course><hAcc>0.888115</hAcc><vAcc>0.713241</vAcc></extensions></trkpt>
      <trkpt lon="-4.115502" lat="53.011020"><ele>89.592552</ele><time>2021-07-17T09:03:33Z</time><extensions><speed>0.278018</speed><course>320.354065</course><hAcc>0.888173</hAcc><vAcc>0.713390</vAcc></extensions></trkpt>
      <trkpt lon="-4.115505" lat="53.011021"><ele>89.600082</ele><time>2021-07-17T09:03:34Z</time><extensions><speed>0.247397</speed><course>320.541016</course><hAcc>0.888240</hAcc><vAcc>0.713605</vAcc></extensions></trkpt>
      <trkpt lon="-4.115508" lat="53.011022"><ele>89.607529</ele><time>2021-07-17T09:03:35Z</time><extensions><speed>0.221663</speed><course>317.906189</course><hAcc>0.888316</hAcc><vAcc>0.713884</vAcc></extensions></trkpt>
      <trkpt lon="-4.115511" lat="53.011023"><ele>89.616829</ele><time>2021-07-17T09:03:36Z</time><extensions><speed>0.201653</speed><course>316.077393</course><hAcc>0.888401</hAcc><vAcc>0.714213</vAcc></extensions></trkpt>
      <trkpt lon="-4.115514" lat="53.011024"><ele>89.629837</ele><time>2021-07-17T09:03:37Z</time><extensions><speed>0.189857</speed><course>307.356537</course><hAcc>0.888494</hAcc><vAcc>0.714569</vAcc></extensions></trkpt>
      <trkpt lon="-4.115517" lat="53.011024"><ele>89.648285</ele><time>2021-07-17T09:03:38Z</time><extensions><speed>0.189632</speed><course>302.004150</course><hAcc>0.888594</hAcc><vAcc>0.714931</vAcc></extensions></trkpt>
      <trkpt lon="-4.115520" lat="53.011024"><ele>89.673668</ele><time>2021-07-17T09:03:39Z</time><extensions><speed>0.204991</speed><course>310.520874</course><hAcc>0.888696</hAcc><vAcc>0.715290</vAcc></extensions></trkpt>
      <trkpt lon="-4.115523" lat="53.011023"><ele>89.707085</ele><time>2021-07-17T09:03:40Z</time><extensions><speed>0.238134</speed><course>307.778412</course><hAcc>0.888798</hAcc><vAcc>0.715638</vAcc></extensions></trkpt>
      <trkpt lon="-4.115527" lat="53.011022"><ele>89.749329</ele><time>2021-07-17T09:03:41Z</time><extensions><speed>0.287828</speed><course>310.132080</course><hAcc>0.888896</hAcc><vAcc>0.715972</vAcc></extensions></trkpt>
      <trkpt lon="-4.115531" lat="53.011021"><ele>89.800880</ele><time>2021-07-17T09:03:42Z</time><extensions><speed>0.351466</speed><course>310.327301</course><hAcc>0.888987</hAcc><vAcc>0.716281</vAcc></extensions></trkpt>
      <trkpt lon="-4.115536" lat="53.011019"><ele>89.861847</ele><time>2021-07-17T09:03:43Z</time><extensions><speed>0.426444</speed><course>308.925873</course><hAcc>0.889069</hAcc><vAcc>0.716550</vAcc></extensions></trkpt>
      <trkpt lon="-4.115542" lat="53.011017"><ele>89.932022</ele><time>2021-07-17T09:03:44Z</time><extensions><speed>0.510474</speed><course>308.955322</course><hAcc>0.889141</hAcc><vAcc>0.716773</vAcc></extensions></trkpt>
      <trkpt lon="-4.115549" lat="53.011015"><ele>90.010941</ele><time>2021-07-17T09:03:45Z</time><extensions><speed>0.600893</speed><course>303.152588</course><hAcc>0.889200</hAcc><vAcc>0.716948</vAcc></extensions></trkpt>
      <trkpt lon="-4.115558" lat="53.011012"><ele>90.097855</ele><time>2021-07-17T09:03:46Z</time><extensions><speed>0.694015</speed><course>313.156525</course><hAcc>0.889247</hAcc><vAcc>0.717078</vAcc></extensions></trkpt>
      <trkpt lon="-4.115567" lat="53.011009"><ele>90.191772</ele><time>2021-07-17T09:03:47Z</time><extensions><speed>0.785800</speed><course>307.864197</course><hAcc>0.889280</hAcc><vAcc>0.717167</vAcc></extensions></trkpt>
      <trkpt lon="-4.115578" lat="53.011005"><ele>90.291573</ele><time>2021-07-17T09:03:48Z</time><extensions><speed>0.873158</speed><course>309.541687</course><hAcc>0.889298</hAcc><vAcc>0.717215</vAcc></extensions></trkpt>
      <trkpt lon="-4.115590" lat="53.011001"><ele>90.395866</ele><time>2021-07-17T09:03:49Z</time><extensions><speed>0.954344</speed><course>312.130341</course><hAcc>0.889304</hAcc><vAcc>0.717222</vAcc></extensions></trkpt>
      <trkpt lon="-4.115604" lat="53.010997"><ele>90.502998</ele><time>2021-07-17T09:03:50Z</time><extensions><speed>1.028493</speed><course>310.268982</course><hAcc>0.889296</hAcc><vAcc>0.717187</vAcc></extensions></trkpt>
      <trkpt lon="-4.115618" lat="53.010993"><ele>90.611389</ele><time>2021-07-17T09:03:51Z</time><extensions><speed>1.095111</speed><course>308.247070</course><hAcc>0.889278</hAcc><vAcc>0.717111</vAcc></extensions></trkpt>
      <trkpt lon="-4.115633" lat="53.010989"><ele>90.719749</ele><time>2021-07-17T09:03:52Z</time><extensions><speed>1.154161</speed><course>304.229858</course><hAcc>0.889250</hAcc><vAcc>0.717000</vAcc></extensions></trkpt>
      <trkpt lon="-4.115649" lat="53.010984"><ele>90.827042</ele><time>2021-07-17T09:03:53Z</time><extensions><speed>1.206104</speed><course>308.310059</course><hAcc>0.889216</hAcc><vAcc>0.716862</vAcc></extensions></trkpt>
      <trkpt lon="-4.115665" lat="53.010980"><ele>90.932304</ele><time>2021-07-17T09:03:54Z</time><extensions><speed>1.251495</speed><course>311.142822</course><hAcc>0.889179</hAcc><vAcc>0.716710</vAcc></extensions></trkpt>
      <trkpt lon="-4.115683" lat="53.010975"><ele>91.034401</ele><time>2021-07-17T09:03:55Z</time><extensions><speed>1.290521</speed><course>305.518036</course><hAcc>0.889144</hAcc><vAcc>0.716556</vAcc></extensions></trkpt>
      <trkpt lon="-4.115700" lat="53.010970"><ele>91.132072</ele><time>2021-07-17T09:03:56Z</time><extensions><speed>1.322898</speed><course>303.061462</course><hAcc>0.889120</hAcc><vAcc>0.716417</vAcc></extensions></trkpt>
      <trkpt lon="-4.115718" lat="53.010965"><ele>91.224380</ele><time>2021-07-17T09:03:57Z</time><extensions><speed>1.348229</speed><course>298.232086</course><hAcc>0.889117</hAcc><vAcc>0.716312</vAcc></extensions></trkpt>
      <trkpt lon="-4.115736" lat="53.010960"><ele>91.310883</ele><time>2021-07-17T09:03:58Z</time><extensions><speed>1.366677</speed><course>289.358276</course><hAcc>0.889151</hAcc><vAcc>0.716264</vAcc></extensions></trkpt>
      <trkpt lon="-4.115755" lat="53.010954"><ele>91.391365</ele><time>2021-07-17T09:03:59Z</time><extensions><speed>1.379335</speed><course>285.924469</course><hAcc>0.889240</hAcc><vAcc>0.716298</vAcc></extensions></trkpt>
      <trkpt lon="-4.115773" lat="53.010949"><ele>91.465561</ele><time>2021-07-17T09:04:00Z</time><extensions><speed>1.387466</speed><course>280.520447</course><hAcc>0.889409</hAcc><vAcc>0.716440</vAcc></extensions></trkpt>
      <trkpt lon="-4.115792" lat="53.010943"><ele>91.533432</ele><time>2021-07-17T09:04:01Z</time><extensions><speed>1.392137</speed><course>286.862061</course><hAcc>0.889688</hAcc><vAcc>0.716722</vAcc></extensions></trkpt>
      <trkpt lon="-4.115810" lat="53.010938"><ele>91.595383</ele><time>2021-07-17T09:04:02Z</time><extensions><speed>1.394398</speed><course>295.700317</course><hAcc>0.890113</hAcc><vAcc>0.717174</vAcc></extensions></trkpt>
      <trkpt lon="-4.115829" lat="53.010932"><ele>91.652069</ele><time>2021-07-17T09:04:03Z</time><extensions><speed>1.395002</speed><course>296.161560</course><hAcc>0.890722</hAcc><vAcc>0.717824</vAcc></extensions></trkpt>
      <trkpt lon="-4.115847" lat="53.010926"><ele>91.704323</ele><time>2021-07-17T09:04:04Z</time><extensions><speed>1.394109</speed><course>298.229218</course><hAcc>0.891554</hAcc><vAcc>0.718689</vAcc></extensions></trkpt>
      <trkpt lon="-4.115866" lat="53.010920"><ele>91.753273</ele><time>2021-07-17T09:04:05Z</time><extensions><speed>1.392155</speed><course>297.545471</course><hAcc>0.892643</hAcc><vAcc>0.719769</vAcc></extensions></trkpt>
      <trkpt lon="-4.115884" lat="53.010914"><ele>91.800133</ele><time>2021-07-17T09:04:06Z</time><extensions><speed>1.390203</speed><course>292.454163</course><hAcc>0.894010</hAcc><vAcc>0.721042</vAcc></extensions></trkpt>
      <trkpt lon="-4.115902" lat="53.010908"><ele>91.846199</ele><time>2021-07-17T09:04:07Z</time><extensions><speed>1.389058</speed><course>287.195465</course><hAcc>0.895653</hAcc><vAcc>0.722461</vAcc></extensions></trkpt>
      <trkpt lon="-4.115920" lat="53.010902"><ele>91.893044</ele><time>2021-07-17T09:04:08Z</time><extensions><speed>1.389064</speed><course>283.339600</course><hAcc>0.897537</hAcc><vAcc>0.723950</vAcc></extensions></trkpt>
      <trkpt lon="-4.115938" lat="53.010895"><ele>91.942215</ele><time>2021-07-17T09:04:09Z</time><extensions><speed>1.390477</speed><course>283.687531</course><hAcc>0.899582</hAcc><vAcc>0.725397</vAcc></extensions></trkpt>
      <trkpt lon="-4.115955" lat="53.010889"><ele>91.994629</ele><time>2021-07-17T09:04:10Z</time><extensions><speed>1.393243</speed><course>284.089417</course><hAcc>0.901656</hAcc><vAcc>0.726664</vAcc></extensions></trkpt>
      <trkpt lon="-4.115973" lat="53.010882"><ele>92.050682</ele><time>2021-07-17T09:04:11Z</time><extensions><speed>1.396927</speed><course>286.432800</course><hAcc>0.903579</hAcc><vAcc>0.727598</vAcc></extensions></trkpt>
      <trkpt lon="-4.115991" lat="53.010876"><ele>92.110703</ele><time>2021-07-17T09:04:12Z</time><extensions><speed>1.401241</speed><course>288.844025</course><hAcc>0.905146</hAcc><vAcc>0.728067</vAcc></extensions></trkpt>
      <trkpt lon="-4.116009" lat="53.010869"><ele>92.174881</ele><time>2021-07-17T09:04:13Z</time><extensions><speed>1.406178</speed><course>294.600861</course><hAcc>0.906180</hAcc><vAcc>0.728022</vAcc></extensions></trkpt>
      <trkpt lon="-4.116026" lat="53.010862"><ele>92.243164</ele><time>2021-07-17T09:04:14Z</time><extensions><speed>1.411650</speed><course>289.399475</course><hAcc>0.906630</hAcc><vAcc>0.727591</vAcc></extensions></trkpt>
      <trkpt lon="-4.116044" lat="53.010855"><ele>92.315605</ele><time>2021-07-17T09:04:15Z</time><extensions><speed>1.417203</speed><course>292.462738</course><hAcc>0.906743</hAcc><vAcc>0.727226</vAcc></extensions></trkpt>
      <trkpt lon="-4.116062" lat="53.010848"><ele>92.392357</ele><time>2021-07-17T09:04:16Z</time><extensions><speed>1.422662</speed><course>292.044128</course><hAcc>0.907316</hAcc><vAcc>0.727890</vAcc></extensions></trkpt>
      <trkpt lon="-4.116079" lat="53.010841"><ele>92.473312</ele><time>2021-07-17T09:04:17Z</time><extensions><speed>1.427805</speed><course>289.426849</course><hAcc>0.910064</hAcc><vAcc>0.731305</vAcc></extensions></trkpt>
      <trkpt lon="-4.116097" lat="53.010834"><ele>92.558296</ele><time>2021-07-17T09:04:18Z</time><extensions><speed>1.432206</speed><course>292.821838</course><hAcc>0.918053</hAcc><vAcc>0.740193</vAcc></extensions></trkpt>
      <trkpt lon="-4.116114" lat="53.010826"><ele>92.647179</ele><time>2021-07-17T09:04:19Z</time><extensions><speed>1.435375</speed><course>287.405121</course><hAcc>0.936122</hAcc><vAcc>0.758421</vAcc></extensions></trkpt>
      <trkpt lon="-4.116131" lat="53.010819"><ele>92.739441</ele><time>2021-07-17T09:04:20Z</time><extensions><speed>1.437089</speed><course>289.328461</course><hAcc>0.971012</hAcc><vAcc>0.790884</vAcc></extensions></trkpt>
      <trkpt lon="-4.116147" lat="53.010810"><ele>92.962303</ele><time>2021-07-17T09:04:21Z</time><extensions><speed>1.506550</speed><course>207.637573</course><hAcc>0.933115</hAcc><vAcc>0.756082</vAcc></extensions></trkpt>
      <trkpt lon="-4.116163" lat="53.010800"><ele>93.102234</ele><time>2021-07-17T09:04:22Z</time><extensions><speed>1.502840</speed><course>199.781464</course><hAcc>0.913784</hAcc><vAcc>0.735174</vAcc></extensions></trkpt>
      <trkpt lon="-4.116178" lat="53.010790"><ele>93.245995</ele><time>2021-07-17T09:04:23Z</time><extensions><speed>1.499118</speed><course>204.898392</course><hAcc>0.905750</hAcc><vAcc>0.724680</vAcc></extensions></trkpt>
      <trkpt lon="-4.116193" lat="53.010780"><ele>93.393837</ele><time>2021-07-17T09:04:24Z</time><extensions><speed>1.495544</speed><course>218.988647</course><hAcc>0.903500</hAcc><vAcc>0.720302</vAcc></extensions></trkpt>
      <trkpt lon="-4.116208" lat="53.010770"><ele>93.545677</ele><time>2021-07-17T09:04:25Z</time><extensions><speed>1.492480</speed><course>240.875916</course><hAcc>0.903537</hAcc><vAcc>0.719001</vAcc></extensions></trkpt>
      <trkpt lon="-4.116223" lat="53.010760"><ele>93.701019</ele><time>2021-07-17T09:04:26Z</time><extensions><speed>1.489945</speed><course>240.875916</course><hAcc>0.903923</hAcc><vAcc>0.718861</vAcc></extensions></trkpt>
      <trkpt lon="-4.116237" lat="53.010750"><ele>93.859322</ele><time>2021-07-17T09:04:27Z</time><extensions><speed>1.487375</speed><course>240.875916</course><hAcc>0.903773</hAcc><vAcc>0.718817</vAcc></extensions></trkpt>
      <trkpt lon="-4.116251" lat="53.010739"><ele>94.020515</ele><time>2021-07-17T09:04:28Z</time><extensions><speed>1.484213</speed><course>240.875916</course><hAcc>0.902839</hAcc><vAcc>0.718381</vAcc></extensions></trkpt>
      <trkpt lon="-4.116265" lat="53.010729"><ele>94.184830</ele><time>2021-07-17T09:04:29Z</time><extensions><speed>1.480476</speed><course>240.875916</course><hAcc>0.901206</hAcc><vAcc>0.717423</vAcc></extensions></trkpt>
      <trkpt lon="-4.116278" lat="53.010718"><ele>94.352097</ele><time>2021-07-17T09:04:30Z</time><extensions><speed>1.476572</speed><course>240.875916</course><hAcc>0.899103</hAcc><vAcc>0.716009</vAcc></extensions></trkpt>
      <trkpt lon="-4.116291" lat="53.010708"><ele>94.521614</ele><time>2021-07-17T09:04:31Z</time><extensions><speed>1.472738</speed><course>269.430084</course><hAcc>0.896786</hAcc><vAcc>0.714290</vAcc></extensions></trkpt>
      <trkpt lon="-4.116304" lat="53.010697"><ele>94.692619</ele><time>2021-07-17T09:04:32Z</time><extensions><speed>1.468990</speed><course>274.056000</course><hAcc>0.894474</hAcc><vAcc>0.712430</vAcc></extensions></trkpt>
      <trkpt lon="-4.116317" lat="53.010687"><ele>94.864677</ele><time>2021-07-17T09:04:33Z</time><extensions><speed>1.465097</speed><course>273.580658</course><hAcc>0.892328</hAcc><vAcc>0.710571</vAcc></extensions></trkpt>
      <trkpt lon="-4.116330" lat="53.010676"><ele>95.037384</ele><time>2021-07-17T09:04:34Z</time><extensions><speed>1.460951</speed><course>266.285736</course><hAcc>0.890443</hAcc><vAcc>0.708818</vAcc></extensions></trkpt>
      <trkpt lon="-4.116343" lat="53.010666"><ele>95.210075</ele><time>2021-07-17T09:04:35Z</time><extensions><speed>1.456814</speed><course>280.416809</course><hAcc>0.888862</hAcc><vAcc>0.707239</vAcc></extensions></trkpt>
      <trkpt lon="-4.116356" lat="53.010655"><ele>95.381821</ele><time>2021-07-17T09:04:36Z</time><extensions><speed>1.452998</speed><course>289.633057</course><hAcc>0.887585</hAcc><vAcc>0.705865</vAcc></extensions></trkpt>
      <trkpt lon="-4.116369" lat="53.010644"><ele>95.551865</ele><time>2021-07-17T09:04:37Z</time><extensions><speed>1.449337</speed><course>274.042023</course><hAcc>0.886584</hAcc><vAcc>0.704696</vAcc></extensions></trkpt>
      <trkpt lon="-4.116381" lat="53.010634"><ele>95.719666</ele><time>2021-07-17T09:04:38Z</time><extensions><speed>1.445626</speed><course>259.398621</course><hAcc>0.885816</hAcc><vAcc>0.703710</vAcc></extensions></trkpt>
      <trkpt lon="-4.116394" lat="53.010623"><ele>95.884430</ele><time>2021-07-17T09:04:39Z</time><extensions><speed>1.442071</speed><course>235.228027</course><hAcc>0.885236</hAcc><vAcc>0.702870</vAcc></extensions></trkpt>
      <trkpt lon="-4.116407" lat="53.010613"><ele>96.044846</ele><time>2021-07-17T09:04:40Z</time><extensions><speed>1.438929</speed><course>233.943741</course><hAcc>0.884796</hAcc><vAcc>0.702131</vAcc></extensions></trkpt>
      <trkpt lon="-4.116419" lat="53.010602"><ele>96.199852</ele><time>2021-07-17T09:04:41Z</time><extensions><speed>1.436346</speed><course>251.986771</course><hAcc>0.884457</hAcc><vAcc>0.701451</vAcc></extensions></trkpt>
      <trkpt lon="-4.116431" lat="53.010592"><ele>96.349136</ele><time>2021-07-17T09:04:42Z</time><extensions><speed>1.434558</speed><course>230.632401</course><hAcc>0.884187</hAcc><vAcc>0.700799</vAcc></extensions></trkpt>
      <trkpt lon="-4.116443" lat="53.010581"><ele>96.492874</ele><time>2021-07-17T09:04:43Z</time><extensions><speed>1.433944</speed><course>208.539734</course><hAcc>0.883964</hAcc><vAcc>0.700161</vAcc></extensions></trkpt>
      <trkpt lon="-4.116455" lat="53.010570"><ele>96.631393</ele><time>2021-07-17T09:04:44Z</time><extensions><speed>1.434555</speed><course>217.062653</course><hAcc>0.883771</hAcc><vAcc>0.699538</vAcc></extensions></trkpt>
      <trkpt lon="-4.116467" lat="53.010560"><ele>96.764992</ele><time>2021-07-17T09:04:45Z</time><extensions><speed>1.436219</speed><course>216.480164</course><hAcc>0.883602</hAcc><vAcc>0.698944</vAcc></extensions></trkpt>
      <trkpt lon="-4.116478" lat="53.010549"><ele>96.893852</ele><time>2021-07-17T09:04:46Z</time><extensions><speed>1.438225</speed><course>215.204285</course><hAcc>0.883454</hAcc><vAcc>0.698403</vAcc></extensions></trkpt>
      <trkpt lon="-4.116490" lat="53.010538"><ele>97.018143</ele><time>2021-07-17T09:04:47Z</time><extensions><speed>1.439415</speed><course>192.608246</course><hAcc>0.883329</hAcc><vAcc>0.697941</vAcc></extensions></trkpt>
      <trkpt lon="-4.116501" lat="53.010527"><ele>97.138130</ele><time>2021-07-17T09:04:48Z</time><extensions><speed>1.439268</speed><course>196.818375</course><hAcc>0.883231</hAcc><vAcc>0.697580</vAcc></extensions></trkpt>
      <trkpt lon="-4.116511" lat="53.010515"><ele>97.253738</ele><time>2021-07-17T09:04:49Z</time><extensions><speed>1.437816</speed><course>200.564194</course><hAcc>0.883166</hAcc><vAcc>0.697342</vAcc></extensions></trkpt>
      <trkpt lon="-4.116522" lat="53.010504"><ele>97.364281</ele><time>2021-07-17T09:04:50Z</time><extensions><speed>1.435000</speed><course>224.718231</course><hAcc>0.883143</hAcc><vAcc>0.697244</vAcc></extensions></trkpt>
      <trkpt lon="-4.116532" lat="53.010493"><ele>97.469116</ele><time>2021-07-17T09:04:51Z</time><extensions><speed>1.430614</speed><course>228.969803</course><hAcc>0.883171</hAcc><vAcc>0.697300</vAcc></extensions></trkpt>
      <trkpt lon="-4.116542" lat="53.010481"><ele>97.568092</ele><time>2021-07-17T09:04:52Z</time><extensions><speed>1.424734</speed><course>250.366501</course><hAcc>0.883264</hAcc><vAcc>0.697518</vAcc></extensions></trkpt>
      <trkpt lon="-4.116551" lat="53.010470"><ele>97.661308</ele><time>2021-07-17T09:04:53Z</time><extensions><speed>1.417559</speed><course>-1.000000</course><hAcc>0.883437</hAcc><vAcc>0.697904</vAcc></extensions></trkpt>
      <trkpt lon="-4.116561" lat="53.010459"><ele>97.749069</ele><time>2021-07-17T09:04:54Z</time><extensions><speed>1.409318</speed><course>232.063629</course><hAcc>0.883712</hAcc><vAcc>0.698463</vAcc></extensions></trkpt>
      <trkpt lon="-4.116570" lat="53.010447"><ele>97.831726</ele><time>2021-07-17T09:04:55Z</time><extensions><speed>1.400743</speed><course>232.063614</course><hAcc>0.884116</hAcc><vAcc>0.699208</vAcc></extensions></trkpt>
      <trkpt lon="-4.116579" lat="53.010436"><ele>97.909599</ele><time>2021-07-17T09:04:56Z</time><extensions><speed>1.392762</speed><course>232.063614</course><hAcc>0.884682</hAcc><vAcc>0.700163</vAcc></extensions></trkpt>
      <trkpt lon="-4.116589" lat="53.010425"><ele>97.983345</ele><time>2021-07-17T09:04:57Z</time><extensions><speed>1.386072</speed><course>232.063599</course><hAcc>0.885448</hAcc><vAcc>0.701353</vAcc></extensions></trkpt>
      <trkpt lon="-4.116598" lat="53.010414"><ele>98.053925</ele><time>2021-07-17T09:04:58Z</time><extensions><speed>1.381213</speed><course>232.063599</course><hAcc>0.886452</hAcc><vAcc>0.702797</vAcc></extensions></trkpt>
      <trkpt lon="-4.116607" lat="53.010403"><ele>98.122002</ele><time>2021-07-17T09:04:59Z</time><extensions><speed>1.378418</speed><course>232.063583</course><hAcc>0.887727</hAcc><vAcc>0.704494</vAcc></extensions></trkpt>
      <trkpt lon="-4.116616" lat="53.010392"><ele>98.188026</ele><time>2021-07-17T09:05:00Z</time><extensions><speed>1.377558</speed><course>232.063583</course><hAcc>0.889294</hAcc><vAcc>0.706425</vAcc></extensions></trkpt>
      <trkpt lon="-4.116626" lat="53.010381"><ele>98.252892</ele><time>2021-07-17T09:05:01Z</time><extensions><speed>1.378024</speed><course>248.555511</course><hAcc>0.891151</hAcc><vAcc>0.708539</vAcc></extensions></trkpt>
      <trkpt lon="-4.116635" lat="53.010370"><ele>98.317719</ele><time>2021-07-17T09:05:02Z</time><extensions><speed>1.378799</speed><course>214.727661</course><hAcc>0.893259</hAcc><vAcc>0.710753</vAcc></extensions></trkpt>
      <trkpt lon="-4.116644" lat="53.010359"><ele>98.383408</ele><time>2021-07-17T09:05:03Z</time><extensions><speed>1.378863</speed><course>215.656113</course><hAcc>0.895535</hAcc><vAcc>0.712938</vAcc></extensions></trkpt>
      <trkpt lon="-4.116653" lat="53.010348"><ele>98.450562</ele><time>2021-07-17T09:05:04Z</time><extensions><speed>1.377402</speed><course>205.637772</course><hAcc>0.897840</hAcc><vAcc>0.714930</vAcc></extensions></trkpt>
      <trkpt lon="-4.116663" lat="53.010337"><ele>98.519524</ele><time>2021-07-17T09:05:05Z</time><extensions><speed>1.374196</speed><course>201.575424</course><hAcc>0.899983</hAcc><vAcc>0.716542</vAcc></extensions></trkpt>
      <trkpt lon="-4.116672" lat="53.010325"><ele>98.590324</ele><time>2021-07-17T09:05:06Z</time><extensions><speed>1.369222</speed><course>196.854248</course><hAcc>0.901744</hAcc><vAcc>0.717602</vAcc></extensions></trkpt>
      <trkpt lon="-4.116680" lat="53.010314"><ele>98.662575</ele><time>2021-07-17T09:05:07Z</time><extensions><speed>1.362307</speed><course>198.264053</course><hAcc>0.902927</hAcc><vAcc>0.718016</vAcc></extensions></trkpt>
      <trkpt lon="-4.116689" lat="53.010303"><ele>98.735756</ele><time>2021-07-17T09:05:08Z</time><extensions><speed>1.353676</speed><course>198.636932</course><hAcc>0.903457</hAcc><vAcc>0.717866</vAcc></extensions></trkpt>
      <trkpt lon="-4.116697" lat="53.010292"><ele>98.809608</ele><time>2021-07-17T09:05:09Z</time><extensions><speed>1.344003</speed><course>192.727798</course><hAcc>0.903550</hAcc><vAcc>0.717541</vAcc></extensions></trkpt>
      <trkpt lon="-4.116706" lat="53.010281"><ele>98.883965</ele><time>2021-07-17T09:05:10Z</time><extensions><speed>1.334051</speed><course>184.691818</course><hAcc>0.903972</hAcc><vAcc>0.717930</vAcc></extensions></trkpt>
      <trkpt lon="-4.116713" lat="53.010270"><ele>98.958351</ele><time>2021-07-17T09:05:11Z</time><extensions><speed>1.324584</speed><course>177.917740</course><hAcc>0.906402</hAcc><vAcc>0.720668</vAcc></extensions></trkpt>
      <trkpt lon="-4.116721" lat="53.010259"><ele>99.032249</ele><time>2021-07-17T09:05:12Z</time><extensions><speed>1.316180</speed><course>169.935883</course><hAcc>0.913885</hAcc><vAcc>0.728387</vAcc></extensions></trkpt>
      <trkpt lon="-4.116728" lat="53.010248"><ele>99.105392</ele><time>2021-07-17T09:05:13Z</time><extensions><speed>1.309206</speed><course>168.290512</course><hAcc>0.931257</hAcc><vAcc>0.744900</vAcc></extensions></trkpt>
      <trkpt lon="-4.116735" lat="53.010237"><ele>99.177567</ele><time>2021-07-17T09:05:14Z</time><extensions><speed>1.303931</speed><course>175.847488</course><hAcc>0.965296</hAcc><vAcc>0.775123</vAcc></extensions></trkpt>
      <trkpt lon="-4.116740" lat="53.010226"><ele>99.297356</ele><time>2021-07-17T09:05:15Z</time><extensions><speed>1.317567</speed><course>207.637573</course><hAcc>0.928139</hAcc><vAcc>0.741850</vAcc></extensions></trkpt>
      <trkpt lon="-4.116744" lat="53.010215"><ele>99.358139</ele><time>2021-07-17T09:05:16Z</time><extensions><speed>1.323874</speed><course>199.781464</course><hAcc>0.908875</hAcc><vAcc>0.720663</vAcc></extensions></trkpt>
      <trkpt lon="-4.116747" lat="53.010203"><ele>99.417236</ele><time>2021-07-17T09:05:17Z</time><extensions><speed>1.331691</speed><course>204.898392</course><hAcc>0.900835</hAcc><vAcc>0.709665</vAcc></extensions></trkpt>
      <trkpt lon="-4.116749" lat="53.010191"><ele>99.474976</ele><time>2021-07-17T09:05:18Z</time><extensions><speed>1.340832</speed><course>218.988647</course><hAcc>0.898511</hAcc><vAcc>0.704639</vAcc></extensions></trkpt>
      <trkpt lon="-4.116752" lat="53.010179"><ele>99.531525</ele><time>2021-07-17T09:05:19Z</time><extensions><speed>1.351103</speed><course>240.875916</course><hAcc>0.898427</hAcc><vAcc>0.702647</vAcc></extensions></trkpt>
      <trkpt lon="-4.116754" lat="53.010167"><ele>99.586731</ele><time>2021-07-17T09:05:21Z</time><extensions><speed>1.362379</speed><course>240.875916</course><hAcc>0.898655</hAcc><vAcc>0.701853</vAcc></extensions></trkpt>
      <trkpt lon="-4.116756" lat="53.010155"><ele>99.640182</ele><time>2021-07-17T09:05:22Z</time><extensions><speed>1.374611</speed><course>240.875916</course><hAcc>0.898340</hAcc><vAcc>0.701278</vAcc></extensions></trkpt>
      <trkpt lon="-4.116757" lat="53.010142"><ele>99.691887</ele><time>2021-07-17T09:05:23Z</time><extensions><speed>1.388018</speed><course>240.875916</course><hAcc>0.897279</hAcc><vAcc>0.700517</vAcc></extensions></trkpt>
      <trkpt lon="-4.116757" lat="53.010130"><ele>99.742004</ele><time>2021-07-17T09:05:24Z</time><extensions><speed>1.402958</speed><course>240.875916</course><hAcc>0.895579</hAcc><vAcc>0.699481</vAcc></extensions></trkpt>
      <trkpt lon="-4.116758" lat="53.010117"><ele>99.790604</ele><time>2021-07-17T09:05:25Z</time><extensions><speed>1.419774</speed><course>240.875916</course><hAcc>0.893480</hAcc><vAcc>0.698242</vAcc></extensions></trkpt>
      <trkpt lon="-4.116758" lat="53.010104"><ele>99.837524</ele><time>2021-07-17T09:05:26Z</time><extensions><speed>1.438577</speed><course>269.430084</course><hAcc>0.891238</hAcc><vAcc>0.696927</vAcc></extensions></trkpt>
      <trkpt lon="-4.116758" lat="53.010091"><ele>99.882576</ele><time>2021-07-17T09:05:27Z</time><extensions><speed>1.458714</speed><course>274.056000</course><hAcc>0.889069</hAcc><vAcc>0.695659</vAcc></extensions></trkpt>
      <trkpt lon="-4.116758" lat="53.010078"><ele>99.925774</ele><time>2021-07-17T09:05:28Z</time><extensions><speed>1.479200</speed><course>273.580658</course><hAcc>0.887120</hAcc><vAcc>0.694536</vAcc></extensions></trkpt>
      <trkpt lon="-4.116757" lat="53.010065"><ele>99.967110</ele><time>2021-07-17T09:05:28Z</time><extensions><speed>1.499310</speed><course>266.285736</course><hAcc>0.885497</hAcc><vAcc>0.693639</vAcc></extensions></trkpt>
      <trkpt lon="-4.116757" lat="53.010051"><ele>100.006508</ele><time>2021-07-17T09:05:29Z</time><extensions><speed>1.518574</speed><course>280.416809</course><hAcc>0.884227</hAcc><vAcc>0.693003</vAcc></extensions></trkpt>
      <trkpt lon="-4.116757" lat="53.010037"><ele>100.043839</ele><time>2021-07-17T09:05:30Z</time><extensions><speed>1.536521</speed><course>289.633057</course><hAcc>0.883283</hAcc><vAcc>0.692626</vAcc></extensions></trkpt>
      <trkpt lon="-4.116756" lat="53.010023"><ele>100.079132</ele><time>2021-07-17T09:05:31Z</time><extensions><speed>1.552717</speed><course>274.042023</course><hAcc>0.882631</hAcc><vAcc>0.692495</vAcc></extensions></trkpt>
      <trkpt lon="-4.116756" lat="53.010009"><ele>100.112236</ele><time>2021-07-17T09:05:32Z</time><extensions><speed>1.566593</speed><course>259.398621</course><hAcc>0.882222</hAcc><vAcc>0.692578</vAcc></extensions></trkpt>
      <trkpt lon="-4.116756" lat="53.009995"><ele>100.142754</ele><time>2021-07-17T09:05:33Z</time><extensions><speed>1.577097</speed><course>235.228027</course><hAcc>0.882002</hAcc><vAcc>0.692828</vAcc></extensions></trkpt>
      <trkpt lon="-4.116756" lat="53.009981"><ele>100.170296</ele><time>2021-07-17T09:05:34Z</time><extensions><speed>1.582805</speed><course>233.943741</course><hAcc>0.881919</hAcc><vAcc>0.693190</vAcc></extensions></trkpt>
      <trkpt lon="-4.116756" lat="53.009967"><ele>100.194672</ele><time>2021-07-17T09:05:35Z</time><extensions><speed>1.582932</speed><course>251.986771</course><hAcc>0.881928</hAcc><vAcc>0.693606</vAcc></extensions></trkpt>
      <trkpt lon="-4.116756" lat="53.009953"><ele>100.215744</ele><time>2021-07-17T09:05:36Z</time><extensions><speed>1.577847</speed><course>230.632401</course><hAcc>0.881993</hAcc><vAcc>0.694026</vAcc></extensions></trkpt>
      <trkpt lon="-4.116757" lat="53.009939"><ele>100.233452</ele><time>2021-07-17T09:05:37Z</time><extensions><speed>1.568303</speed><course>208.539734</course><hAcc>0.882085</hAcc><vAcc>0.694410</vAcc></extensions></trkpt>
      <trkpt lon="-4.116757" lat="53.009925"><ele>100.248055</ele><time>2021-07-17T09:05:38Z</time><extensions><speed>1.554894</speed><course>217.062653</course><hAcc>0.882187</hAcc><vAcc>0.694741</vAcc></extensions></trkpt>
      <trkpt lon="-4.116758" lat="53.009911"><ele>100.260086</ele><time>2021-07-17T09:05:39Z</time><extensions><speed>1.537989</speed><course>216.480164</course><hAcc>0.882287</hAcc><vAcc>0.695020</vAcc></extensions></trkpt>
      <trkpt lon="-4.116760" lat="53.009897"><ele>100.270065</ele><time>2021-07-17T09:05:40Z</time><extensions><speed>1.517808</speed><course>215.204285</course><hAcc>0.882382</hAcc><vAcc>0.695257</vAcc></extensions></trkpt>
      <trkpt lon="-4.116761" lat="53.009883"><ele>100.278458</ele><time>2021-07-17T09:05:41Z</time><extensions><speed>1.494789</speed><course>192.608246</course><hAcc>0.882473</hAcc><vAcc>0.695471</vAcc></extensions></trkpt>
      <trkpt lon="-4.116763" lat="53.009870"><ele>100.285744</ele><time>2021-07-17T09:05:42Z</time><extensions><speed>1.469699</speed><course>196.818375</course><hAcc>0.882564</hAcc><vAcc>0.695685</vAcc></extensions></trkpt>
      <trkpt lon="-4.116765" lat="53.009857"><ele>100.292389</ele><time>2021-07-17T09:05:43Z</time><extensions><speed>1.443567</speed><course>200.564194</course><hAcc>0.882665</hAcc><vAcc>0.695929</vAcc></extensions></trkpt>
      <trkpt lon="-4.116766" lat="53.009844"><ele>100.298660</ele><time>2021-07-17T09:05:44Z</time><extensions><speed>1.417448</speed><course>224.718231</course><hAcc>0.882785</hAcc><vAcc>0.696234</vAcc></extensions></trkpt>
      <trkpt lon="-4.116768" lat="53.009832"><ele>100.304810</ele><time>2021-07-17T09:05:45Z</time><extensions><speed>1.392259</speed><course>228.969803</course><hAcc>0.882940</hAcc><vAcc>0.696631</vAcc></extensions></trkpt>
      <trkpt lon="-4.116770" lat="53.009819"><ele>100.311241</ele><time>2021-07-17T09:05:46Z</time><extensions><speed>1.368732</speed><course>250.366501</course><hAcc>0.883145</hAcc><vAcc>0.697149</vAcc></extensions></trkpt>
      <trkpt lon="-4.116772" lat="53.009807"><ele>100.318550</ele><time>2021-07-17T09:05:47Z</time><extensions><speed>1.347435</speed><course>-1.000000</course><hAcc>0.883421</hAcc><vAcc>0.697814</vAcc></extensions></trkpt>
      <trkpt lon="-4.116774" lat="53.009795"><ele>100.327339</ele><time>2021-07-17T09:05:48Z</time><extensions><speed>1.328812</speed><course>232.063629</course><hAcc>0.883791</hAcc><vAcc>0.698649</vAcc></extensions></trkpt>
      <trkpt lon="-4.116777" lat="53.009783"><ele>100.338051</ele><time>2021-07-17T09:05:49Z</time><extensions><speed>1.313162</speed><course>232.063614</course><hAcc>0.884285</hAcc><vAcc>0.699675</vAcc></extensions></trkpt>
      <trkpt lon="-4.116779" lat="53.009772"><ele>100.350945</ele><time>2021-07-17T09:05:50Z</time><extensions><speed>1.300533</speed><course>232.063614</course><hAcc>0.884934</hAcc><vAcc>0.700912</vAcc></extensions></trkpt>
      <trkpt lon="-4.116781" lat="53.009760"><ele>100.366135</ele><time>2021-07-17T09:05:51Z</time><extensions><speed>1.290391</speed><course>232.063599</course><hAcc>0.885774</hAcc><vAcc>0.702373</vAcc></extensions></trkpt>
      <trkpt lon="-4.116783" lat="53.009749"><ele>100.383751</ele><time>2021-07-17T09:05:52Z</time><extensions><speed>1.281979</speed><course>232.063599</course><hAcc>0.886841</hAcc><vAcc>0.704061</vAcc></extensions></trkpt>
      <trkpt lon="-4.116785" lat="53.009737"><ele>100.403923</ele><time>2021-07-17T09:05:53Z</time><extensions><speed>1.274720</speed><course>232.063583</course><hAcc>0.888165</hAcc><vAcc>0.705959</vAcc></extensions></trkpt>
      <trkpt lon="-4.116787" lat="53.009726"><ele>100.426804</ele><time>2021-07-17T09:05:54Z</time><extensions><speed>1.268266</speed><course>232.063583</course><hAcc>0.889765</hAcc><vAcc>0.708029</vAcc></extensions></trkpt>
      <trkpt lon="-4.116790" lat="53.009715"><ele>100.452736</ele><time>2021-07-17T09:05:55Z</time><extensions><speed>1.262643</speed><course>248.555511</course><hAcc>0.891638</hAcc><vAcc>0.710209</vAcc></extensions></trkpt>
      <trkpt lon="-4.116793" lat="53.009704"><ele>100.482025</ele><time>2021-07-17T09:05:56Z</time><extensions><speed>1.257766</speed><course>214.727661</course><hAcc>0.893745</hAcc><vAcc>0.712408</vAcc></extensions></trkpt>
      <trkpt lon="-4.116796" lat="53.009692"><ele>100.514702</ele><time>2021-07-17T09:05:57Z</time><extensions><speed>1.253245</speed><course>215.656113</course><hAcc>0.896009</hAcc><vAcc>0.714510</vAcc></extensions></trkpt>
      <trkpt lon="-4.116800" lat="53.009681"><ele>100.550522</ele><time>2021-07-17T09:05:58Z</time><extensions><speed>1.249039</speed><course>205.637772</course><hAcc>0.898298</hAcc><vAcc>0.716383</vAcc></extensions></trkpt>
      <trkpt lon="-4.116804" lat="53.009670"><ele>100.589058</ele><time>2021-07-17T09:05:59Z</time><extensions><speed>1.245455</speed><course>201.575424</course><hAcc>0.900436</hAcc><vAcc>0.717890</vAcc></extensions></trkpt>
      <trkpt lon="-4.116808" lat="53.009660"><ele>100.629898</ele><time>2021-07-17T09:06:00Z</time><extensions><speed>1.242816</speed><course>196.854248</course><hAcc>0.902222</hAcc><vAcc>0.718928</vAcc></extensions></trkpt>
      <trkpt lon="-4.116813" lat="53.009649"><ele>100.672577</ele><time>2021-07-17T09:06:01Z</time><extensions><speed>1.241216</speed><course>198.264053</course><hAcc>0.903482</hAcc><vAcc>0.719481</vAcc></extensions></trkpt>
      <trkpt lon="-4.116819" lat="53.009638"><ele>100.716553</ele><time>2021-07-17T09:06:02Z</time><extensions><speed>1.240432</speed><course>198.636932</course><hAcc>0.904172</hAcc><vAcc>0.719709</vAcc></extensions></trkpt>
      <trkpt lon="-4.116826" lat="53.009628"><ele>100.761238</ele><time>2021-07-17T09:06:03Z</time><extensions><speed>1.239801</speed><course>192.727798</course><hAcc>0.904544</hAcc><vAcc>0.720090</vAcc></extensions></trkpt>
      <trkpt lon="-4.116832" lat="53.009618"><ele>100.806068</ele><time>2021-07-17T09:06:04Z</time><extensions><speed>1.238678</speed><course>184.691818</course><hAcc>0.905404</hAcc><vAcc>0.721619</vAcc></extensions></trkpt>
      <trkpt lon="-4.116840" lat="53.009607"><ele>100.850342</ele><time>2021-07-17T09:06:05Z</time><extensions><speed>1.237125</speed><course>177.917740</course><hAcc>0.908473</hAcc><vAcc>0.726044</vAcc></extensions></trkpt>
      <trkpt lon="-4.116848" lat="53.009597"><ele>100.893486</ele><time>2021-07-17T09:06:06Z</time><extensions><speed>1.235392</speed><course>169.935883</course><hAcc>0.916828</hAcc><vAcc>0.736103</vAcc></extensions></trkpt>
      <trkpt lon="-4.116857" lat="53.009588"><ele>100.935303</ele><time>2021-07-17T09:06:07Z</time><extensions><speed>1.233348</speed><course>168.290512</course><hAcc>0.935309</hAcc><vAcc>0.755665</vAcc></extensions></trkpt>
      <trkpt lon="-4.116866" lat="53.009578"><ele>100.975838</ele><time>2021-07-17T09:06:08Z</time><extensions><speed>1.230863</speed><course>175.847488</course><hAcc>0.970647</hAcc><vAcc>0.789594</vAcc></extensions></trkpt>
      <trkpt lon="-4.116879" lat="53.009571"><ele>101.177490</ele><time>2021-07-17T09:06:09Z</time><extensions><speed>0.978678</speed><course>207.637573</course><hAcc>0.932369</hAcc><vAcc>0.754310</vAcc></extensions></trkpt>
      <trkpt lon="-4.116891" lat="53.009566"><ele>101.282463</ele><time>2021-07-17T09:06:10Z</time><extensions><speed>0.974588</speed><course>199.781464</course><hAcc>0.913609</hAcc><vAcc>0.735129</vAcc></extensions></trkpt>
      <trkpt lon="-4.116904" lat="53.009562"><ele>101.388382</ele><time>2021-07-17T09:06:11Z</time><extensions><speed>0.972241</speed><course>204.898392</course><hAcc>0.906075</hAcc><vAcc>0.726145</vAcc></extensions></trkpt>
      <trkpt lon="-4.116917" lat="53.009559"><ele>101.495003</ele><time>2021-07-17T09:06:12Z</time><extensions><speed>0.972486</speed><course>218.988647</course><hAcc>0.904249</hAcc><vAcc>0.723041</vAcc></extensions></trkpt>
      <trkpt lon="-4.116931" lat="53.009556"><ele>101.602020</ele><time>2021-07-17T09:06:13Z</time><extensions><speed>0.975955</speed><course>240.875916</course><hAcc>0.904637</hAcc><vAcc>0.722785</vAcc></extensions></trkpt>
      <trkpt lon="-4.116945" lat="53.009553"><ele>101.708931</ele><time>2021-07-17T09:06:14Z</time><extensions><speed>0.983358</speed><course>240.875916</course><hAcc>0.905316</hAcc><vAcc>0.723486</vAcc></extensions></trkpt>
      <trkpt lon="-4.116959" lat="53.009551"><ele>101.815048</ele><time>2021-07-17T09:06:15Z</time><extensions><speed>0.994249</speed><course>240.875916</course><hAcc>0.905412</hAcc><vAcc>0.724113</vAcc></extensions></trkpt>
      <trkpt lon="-4.116974" lat="53.009550"><ele>101.919746</ele><time>2021-07-17T09:06:16Z</time><extensions><speed>1.007375</speed><course>240.875916</course><hAcc>0.904686</hAcc><vAcc>0.724221</vAcc></extensions></trkpt>
      <trkpt lon="-4.116989" lat="53.009548"><ele>102.022545</ele><time>2021-07-17T09:06:17Z</time><extensions><speed>1.021631</speed><course>240.875916</course><hAcc>0.903235</hAcc><vAcc>0.723721</vAcc></extensions></trkpt>
      <trkpt lon="-4.117004" lat="53.009548"><ele>102.123009</ele><time>2021-07-17T09:06:18Z</time><extensions><speed>1.035954</speed><course>240.875916</course><hAcc>0.901296</hAcc><vAcc>0.722722</vAcc></extensions></trkpt>
      <trkpt lon="-4.117020" lat="53.009548"><ele>102.220634</ele><time>2021-07-17T09:06:19Z</time><extensions><speed>1.049683</speed><course>269.430084</course><hAcc>0.899132</hAcc><vAcc>0.721412</vAcc></extensions></trkpt>
      <trkpt lon="-4.117036" lat="53.009548"><ele>102.314896</ele><time>2021-07-17T09:06:20Z</time><extensions><speed>1.062724</speed><course>274.056000</course><hAcc>0.896969</hAcc><vAcc>0.719989</vAcc></extensions></trkpt>
      <trkpt lon="-4.117051" lat="53.009549"><ele>102.405304</ele><time>2021-07-17T09:06:21Z</time><extensions><speed>1.075387</speed><course>273.580658</course><hAcc>0.894971</hAcc><vAcc>0.718612</vAcc></extensions></trkpt>
      <trkpt lon="-4.117067" lat="53.009550"><ele>102.491348</ele><time>2021-07-17T09:06:22Z</time><extensions><speed>1.088061</speed><course>266.285736</course><hAcc>0.893238</hAcc><vAcc>0.717388</vAcc></extensions></trkpt>
      <trkpt lon="-4.117083" lat="53.009552"><ele>102.572441</ele><time>2021-07-17T09:06:23Z</time><extensions><speed>1.100962</speed><course>280.416809</course><hAcc>0.891815</hAcc><vAcc>0.716373</vAcc></extensions></trkpt>
      <trkpt lon="-4.117100" lat="53.009554"><ele>102.648026</ele><time>2021-07-17T09:06:24Z</time><extensions><speed>1.114357</speed><course>289.633057</course><hAcc>0.890704</hAcc><vAcc>0.715581</vAcc></extensions></trkpt>
      <trkpt lon="-4.117116" lat="53.009556"><ele>102.717819</ele><time>2021-07-17T09:06:25Z</time><extensions><speed>1.128538</speed><course>274.042023</course><hAcc>0.889877</hAcc><vAcc>0.715001</vAcc></extensions></trkpt>
      <trkpt lon="-4.117132" lat="53.009559"><ele>102.781807</ele><time>2021-07-17T09:06:26Z</time><extensions><speed>1.143091</speed><course>259.398621</course><hAcc>0.889294</hAcc><vAcc>0.714608</vAcc></extensions></trkpt>
      <trkpt lon="-4.117148" lat="53.009562"><ele>102.840157</ele><time>2021-07-17T09:06:27Z</time><extensions><speed>1.157075</speed><course>235.228027</course><hAcc>0.888905</hAcc><vAcc>0.714369</vAcc></extensions></trkpt>
      <trkpt lon="-4.117164" lat="53.009566"><ele>102.893250</ele><time>2021-07-17T09:06:28Z</time><extensions><speed>1.169543</speed><course>233.943741</course><hAcc>0.888665</hAcc><vAcc>0.714252</vAcc></extensions></trkpt>
      <trkpt lon="-4.117181" lat="53.009570"><ele>102.941620</ele><time>2021-07-17T09:06:29Z</time><extensions><speed>1.180168</speed><course>251.986771</course><hAcc>0.888531</hAcc><vAcc>0.714224</vAcc></extensions></trkpt>
      <trkpt lon="-4.117197" lat="53.009574"><ele>102.985802</ele><time>2021-07-17T09:06:30Z</time><extensions><speed>1.189655</speed><course>230.632401</course><hAcc>0.888469</hAcc><vAcc>0.714259</vAcc></extensions></trkpt>
      <trkpt lon="-4.117213" lat="53.009579"><ele>103.026405</ele><time>2021-07-17T09:06:31Z</time><extensions><speed>1.198778</speed><course>208.539734</course><hAcc>0.888452</hAcc><vAcc>0.714333</vAcc></extensions></trkpt>
      <trkpt lon="-4.117229" lat="53.009584"><ele>103.064293</ele><time>2021-07-17T09:06:32Z</time><extensions><speed>1.208010</speed><course>217.062653</course><hAcc>0.888460</hAcc><vAcc>0.714427</vAcc></extensions></trkpt>
      <trkpt lon="-4.117245" lat="53.009589"><ele>103.100510</ele><time>2021-07-17T09:06:33Z</time><extensions><speed>1.217766</speed><course>216.480164</course><hAcc>0.888480</hAcc><vAcc>0.714523</vAcc></extensions></trkpt>
      <trkpt lon="-4.117261" lat="53.009594"><ele>103.136200</ele><time>2021-07-17T09:06:34Z</time><extensions><speed>1.228382</speed><course>215.204285</course><hAcc>0.888501</hAcc><vAcc>0.714607</vAcc></extensions></trkpt>
      <trkpt lon="-4.117277" lat="53.009600"><ele>103.172394</ele><time>2021-07-17T09:06:35Z</time><extensions><speed>1.240020</speed><course>192.608246</course><hAcc>0.888518</hAcc><vAcc>0.714670</vAcc></extensions></trkpt>
      <trkpt lon="-4.117293" lat="53.009605"><ele>103.209984</ele><time>2021-07-17T09:06:36Z</time><extensions><speed>1.252552</speed><course>196.818375</course><hAcc>0.888531</hAcc><vAcc>0.714705</vAcc></extensions></trkpt>
      <trkpt lon="-4.117309" lat="53.009611"><ele>103.249687</ele><time>2021-07-17T09:06:37Z</time><extensions><speed>1.265564</speed><course>200.564194</course><hAcc>0.888537</hAcc><vAcc>0.714712</vAcc></extensions></trkpt>
      <trkpt lon="-4.117325" lat="53.009617"><ele>103.292061</ele><time>2021-07-17T09:06:38Z</time><extensions><speed>1.278523</speed><course>224.718231</course><hAcc>0.888539</hAcc><vAcc>0.714694</vAcc></extensions></trkpt>
      <trkpt lon="-4.117342" lat="53.009623"><ele>103.337639</ele><time>2021-07-17T09:06:39Z</time><extensions><speed>1.290940</speed><course>228.969803</course><hAcc>0.888538</hAcc><vAcc>0.714661</vAcc></extensions></trkpt>
      <trkpt lon="-4.117358" lat="53.009629"><ele>103.386818</ele><time>2021-07-17T09:06:40Z</time><extensions><speed>1.302610</speed><course>250.366501</course><hAcc>0.888537</hAcc><vAcc>0.714623</vAcc></extensions></trkpt>
      <trkpt lon="-4.117375" lat="53.009635"><ele>103.439812</ele><time>2021-07-17T09:06:41Z</time><extensions><speed>1.313429</speed><course>-1.000000</course><hAcc>0.888537</hAcc><vAcc>0.714592</vAcc></extensions></trkpt>
      <trkpt lon="-4.117391" lat="53.009641"><ele>103.496758</ele><time>2021-07-17T09:06:42Z</time><extensions><speed>1.323123</speed><course>232.063629</course><hAcc>0.888541</hAcc><vAcc>0.714580</vAcc></extensions></trkpt>
      <trkpt lon="-4.117408" lat="53.009648"><ele>103.557762</ele><time>2021-07-17T09:06:43Z</time><extensions><speed>1.331357</speed><course>232.063614</course><hAcc>0.888552</hAcc><vAcc>0.714594</vAcc></extensions></trkpt>
      <trkpt lon="-4.117425" lat="53.009654"><ele>103.622734</ele><time>2021-07-17T09:06:44Z</time><extensions><speed>1.337628</speed><course>232.063614</course><hAcc>0.888569</hAcc><vAcc>0.714643</vAcc></extensions></trkpt>
      <trkpt lon="-4.117442" lat="53.009661"><ele>103.691414</ele><time>2021-07-17T09:06:45Z</time><extensions><speed>1.341659</speed><course>232.063599</course><hAcc>0.888594</hAcc><vAcc>0.714729</vAcc></extensions></trkpt>
      <trkpt lon="-4.117458" lat="53.009667"><ele>103.763329</ele><time>2021-07-17T09:06:46Z</time><extensions><speed>1.343307</speed><course>232.063599</course><hAcc>0.888625</hAcc><vAcc>0.714851</vAcc></extensions></trkpt>
      <trkpt lon="-4.117475" lat="53.009674"><ele>103.837669</ele><time>2021-07-17T09:06:47Z</time><extensions><speed>1.342145</speed><course>232.063583</course><hAcc>0.888661</hAcc><vAcc>0.715001</vAcc></extensions></trkpt>
      <trkpt lon="-4.117492" lat="53.009681"><ele>103.913559</ele><time>2021-07-17T09:06:48Z</time><extensions><speed>1.338292</speed><course>232.063583</course><hAcc>0.888702</hAcc><vAcc>0.715166</vAcc></extensions></trkpt>
      <trkpt lon="-4.117508" lat="53.009687"><ele>103.990303</ele><time>2021-07-17T09:06:49Z</time><extensions><speed>1.332545</speed><course>248.555511</course><hAcc>0.888745</hAcc><vAcc>0.715334</vAcc></extensions></trkpt>
      <trkpt lon="-4.117525" lat="53.009694"><ele>104.067329</ele><time>2021-07-17T09:06:50Z</time><extensions><speed>1.325879</speed><course>214.727661</course><hAcc>0.888788</hAcc><vAcc>0.715492</vAcc></extensions></trkpt>
      <trkpt lon="-4.117542" lat="53.009700"><ele>104.143990</ele><time>2021-07-17T09:06:51Z</time><extensions><speed>1.319225</speed><course>215.656113</course><hAcc>0.888831</hAcc><vAcc>0.715635</vAcc></extensions></trkpt>
      <trkpt lon="-4.117558" lat="53.009707"><ele>104.219521</ele><time>2021-07-17T09:06:52Z</time><extensions><speed>1.312981</speed><course>205.637772</course><hAcc>0.888874</hAcc><vAcc>0.715763</vAcc></extensions></trkpt>
      <trkpt lon="-4.117575" lat="53.009713"><ele>104.293259</ele><time>2021-07-17T09:06:53Z</time><extensions><speed>1.306710</speed><course>201.575424</course><hAcc>0.888918</hAcc><vAcc>0.715879</vAcc></extensions></trkpt>
      <trkpt lon="-4.117591" lat="53.009719"><ele>104.364830</ele><time>2021-07-17T09:06:54Z</time><extensions><speed>1.299866</speed><course>196.854248</course><hAcc>0.888965</hAcc><vAcc>0.715993</vAcc></extensions></trkpt>
      <trkpt lon="-4.117608" lat="53.009725"><ele>104.434067</ele><time>2021-07-17T09:06:55Z</time><extensions><speed>1.292345</speed><course>198.264053</course><hAcc>0.889024</hAcc><vAcc>0.716117</vAcc></extensions></trkpt>
      <trkpt lon="-4.117624" lat="53.009731"><ele>104.501015</ele><time>2021-07-17T09:06:56Z</time><extensions><speed>1.284473</speed><course>198.636932</course><hAcc>0.889102</hAcc><vAcc>0.716269</vAcc></extensions></trkpt>
      <trkpt lon="-4.117641" lat="53.009737"><ele>104.565781</ele><time>2021-07-17T09:06:57Z</time><extensions><speed>1.276807</speed><course>192.727798</course><hAcc>0.889215</hAcc><vAcc>0.716470</vAcc></extensions></trkpt>
      <trkpt lon="-4.117657" lat="53.009743"><ele>104.628540</ele><time>2021-07-17T09:06:58Z</time><extensions><speed>1.269726</speed><course>184.691818</course><hAcc>0.889382</hAcc><vAcc>0.716742</vAcc></extensions></trkpt>
      <trkpt lon="-4.117673" lat="53.009748"><ele>104.689766</ele><time>2021-07-17T09:06:59Z</time><extensions><speed>1.263439</speed><course>177.917740</course><hAcc>0.889627</hAcc><vAcc>0.717116</vAcc></extensions></trkpt>
      <trkpt lon="-4.117690" lat="53.009754"><ele>104.750107</ele><time>2021-07-17T09:07:00Z</time><extensions><speed>1.258317</speed><course>169.935883</course><hAcc>0.889982</hAcc><vAcc>0.717622</vAcc></extensions></trkpt>
      <trkpt lon="-4.117706" lat="53.009759"><ele>104.810226</ele><time>2021-07-17T09:07:01Z</time><extensions><speed>1.254700</speed><course>168.290512</course><hAcc>0.890482</hAcc><vAcc>0.718290</vAcc></extensions></trkpt>
      <trkpt lon="-4.117723" lat="53.009764"><ele>104.870857</ele><time>2021-07-17T09:07:02Z</time><extensions><speed>1.252596</speed><course>175.847488</course><hAcc>0.891167</hAcc><vAcc>0.719150</vAcc></extensions></trkpt>
      <trkpt lon="-4.117739" lat="53.009769"><ele>104.932846</ele><time>2021-07-17T09:07:03Z</time><extensions><speed>1.251719</speed><course>182.489380</course><hAcc>0.892077</hAcc><vAcc>0.720222</vAcc></extensions></trkpt>
      <trkpt lon="-4.117756" lat="53.009775"><ele>104.997032</ele><time>2021-07-17T09:07:04Z</time><extensions><speed>1.251582</speed><course>193.224472</course><hAcc>0.893247</hAcc><vAcc>0.721516</vAcc></extensions></trkpt>
      <trkpt lon="-4.117773" lat="53.009780"><ele>105.064148</ele><time>2021-07-17T09:07:05Z</time><extensions><speed>1.251546</speed><course>210.457108</course><hAcc>0.894699</hAcc><vAcc>0.723022</vAcc></extensions></trkpt>
      <trkpt lon="-4.117789" lat="53.009785"><ele>105.134872</ele><time>2021-07-17T09:07:06Z</time><extensions><speed>1.251198</speed><course>227.054108</course><hAcc>0.896432</hAcc><vAcc>0.724704</vAcc></extensions></trkpt>
      <trkpt lon="-4.117806" lat="53.009790"><ele>105.209816</ele><time>2021-07-17T09:07:07Z</time><extensions><speed>1.250308</speed><course>247.666534</course><hAcc>0.898411</hAcc><vAcc>0.726492</vAcc></extensions></trkpt>
      <trkpt lon="-4.117822" lat="53.009795"><ele>105.289444</ele><time>2021-07-17T09:07:08Z</time><extensions><speed>1.248383</speed><course>261.197876</course><hAcc>0.900558</hAcc><vAcc>0.728283</vAcc></extensions></trkpt>
      <trkpt lon="-4.117839" lat="53.009800"><ele>105.374146</ele><time>2021-07-17T09:07:09Z</time><extensions><speed>1.244880</speed><course>263.217255</course><hAcc>0.902743</hAcc><vAcc>0.729942</vAcc></extensions></trkpt>
      <trkpt lon="-4.117855" lat="53.009806"><ele>105.464195</ele><time>2021-07-17T09:07:10Z</time><extensions><speed>1.239757</speed><course>271.463165</course><hAcc>0.904790</hAcc><vAcc>0.731323</vAcc></extensions></trkpt>
      <trkpt lon="-4.117871" lat="53.009811"><ele>105.559563</ele><time>2021-07-17T09:07:11Z</time><extensions><speed>1.233378</speed><course>281.991608</course><hAcc>0.906502</hAcc><vAcc>0.732302</vAcc></extensions></trkpt>
      <trkpt lon="-4.117887" lat="53.009816"><ele>105.659683</ele><time>2021-07-17T09:07:12Z</time><extensions><speed>1.225987</speed><course>285.895782</course><hAcc>0.907713</hAcc><vAcc>0.732843</vAcc></extensions></trkpt>
      <trkpt lon="-4.117903" lat="53.009822"><ele>105.763535</ele><time>2021-07-17T09:07:13Z</time><extensions><speed>1.217698</speed><course>287.327179</course><hAcc>0.908387</hAcc><vAcc>0.733094</vAcc></extensions></trkpt>
      <trkpt lon="-4.117919" lat="53.009827"><ele>105.870232</ele><time>2021-07-17T09:07:14Z</time><extensions><speed>1.208849</speed><course>297.396240</course><hAcc>0.908792</hAcc><vAcc>0.733534</vAcc></extensions></trkpt>
      <trkpt lon="-4.117934" lat="53.009833"><ele>105.979301</ele><time>2021-07-17T09:07:16Z</time><extensions><speed>1.199918</speed><course>299.473175</course><hAcc>0.909730</hAcc><vAcc>0.735162</vAcc></extensions></trkpt>
      <trkpt lon="-4.117949" lat="53.009838"><ele>106.089897</ele><time>2021-07-17T09:07:17Z</time><extensions><speed>1.191182</speed><course>297.683289</course><hAcc>0.912936</hAcc><vAcc>0.739751</vAcc></extensions></trkpt>
      <trkpt lon="-4.117964" lat="53.009844"><ele>106.201546</ele><time>2021-07-17T09:07:18Z</time><extensions><speed>1.182697</speed><course>292.365356</course><hAcc>0.921511</hAcc><vAcc>0.750084</vAcc></extensions></trkpt>
      <trkpt lon="-4.117979" lat="53.009850"><ele>106.313934</ele><time>2021-07-17T09:07:19Z</time><extensions><speed>1.174624</speed><course>291.092651</course><hAcc>0.940282</hAcc><vAcc>0.770049</vAcc></extensions></trkpt>
      <trkpt lon="-4.117994" lat="53.009855"><ele>106.426842</ele><time>2021-07-17T09:07:20Z</time><extensions><speed>1.167281</speed><course>297.007721</course><hAcc>0.975947</hAcc><vAcc>0.804507</vAcc></extensions></trkpt>
      <trkpt lon="-4.118006" lat="53.009864"><ele>106.554985</ele><time>2021-07-17T09:07:21Z</time><extensions><speed>1.195734</speed><course>207.637573</course><hAcc>0.937667</hAcc><vAcc>0.769004</vAcc></extensions></trkpt>
      <trkpt lon="-4.118018" lat="53.009872"><ele>106.660881</ele><time>2021-07-17T09:07:22Z</time><extensions><speed>1.193913</speed><course>199.781464</course><hAcc>0.918135</hAcc><vAcc>0.747926</vAcc></extensions></trkpt>
      <trkpt lon="-4.118031" lat="53.009880"><ele>106.766861</ele><time>2021-07-17T09:07:23Z</time><extensions><speed>1.192511</speed><course>204.898392</course><hAcc>0.909985</hAcc><vAcc>0.737504</vAcc></extensions></trkpt>
      <trkpt lon="-4.118042" lat="53.009888"><ele>106.873306</ele><time>2021-07-17T09:07:24Z</time><extensions><speed>1.191491</speed><course>218.988647</course><hAcc>0.907711</hAcc><vAcc>0.733406</vAcc></extensions></trkpt>
      <trkpt lon="-4.118054" lat="53.009896"><ele>106.981064</ele><time>2021-07-17T09:07:25Z</time><extensions><speed>1.190660</speed><course>240.875916</course><hAcc>0.907805</hAcc><vAcc>0.732531</vAcc></extensions></trkpt>
      <trkpt lon="-4.118065" lat="53.009904"><ele>107.091103</ele><time>2021-07-17T09:07:26Z</time><extensions><speed>1.189474</speed><course>240.875916</course><hAcc>0.908310</hAcc><vAcc>0.732896</vAcc></extensions></trkpt>
      <trkpt lon="-4.118076" lat="53.009912"><ele>107.204430</ele><time>2021-07-17T09:07:27Z</time><extensions><speed>1.187125</speed><course>240.875916</course><hAcc>0.908316</hAcc><vAcc>0.733374</vAcc></extensions></trkpt>
      <trkpt lon="-4.118087" lat="53.009921"><ele>107.322044</ele><time>2021-07-17T09:07:28Z</time><extensions><speed>1.183361</speed><course>240.875916</course><hAcc>0.907553</hAcc><vAcc>0.733434</vAcc></extensions></trkpt>
      <trkpt lon="-4.118098" lat="53.009929"><ele>107.444511</ele><time>2021-07-17T09:07:29Z</time><extensions><speed>1.178426</speed><course>240.875916</course><hAcc>0.906088</hAcc><vAcc>0.732917</vAcc></extensions></trkpt>
      <trkpt lon="-4.118108" lat="53.009938"><ele>107.571754</ele><time>2021-07-17T09:07:30Z</time><extensions><speed>1.172439</speed><course>240.875916</course><hAcc>0.904137</hAcc><vAcc>0.731872</vAcc></extensions></trkpt>
      <trkpt lon="-4.118119" lat="53.009946"><ele>107.703445</ele><time>2021-07-17T09:07:31Z</time><extensions><speed>1.165429</speed><course>269.430084</course><hAcc>0.901948</hAcc><vAcc>0.730448</vAcc></extensions></trkpt>
      <trkpt lon="-4.118129" lat="53.009955"><ele>107.839272</ele><time>2021-07-17T09:07:32Z</time><extensions><speed>1.157478</speed><course>274.056000</course><hAcc>0.899737</hAcc><vAcc>0.728819</vAcc></extensions></trkpt>
      <trkpt lon="-4.118139" lat="53.009963"><ele>107.978867</ele><time>2021-07-17T09:07:33Z</time><extensions><speed>1.148882</speed><course>273.580658</course><hAcc>0.897666</hAcc><vAcc>0.727147</vAcc></extensions></trkpt>
      <trkpt lon="-4.118149" lat="53.009971"><ele>108.121666</ele><time>2021-07-17T09:07:34Z</time><extensions><speed>1.140326</speed><course>266.285736</course><hAcc>0.895836</hAcc><vAcc>0.725559</vAcc></extensions></trkpt>
      <trkpt lon="-4.118159" lat="53.009980"><ele>108.266701</ele><time>2021-07-17T09:07:34Z</time><extensions><speed>1.132686</speed><course>280.416809</course><hAcc>0.894315</hAcc><vAcc>0.724155</vAcc></extensions></trkpt>
      <trkpt lon="-4.118168" lat="53.009988"><ele>108.413162</ele><time>2021-07-17T09:07:35Z</time><extensions><speed>1.126589</speed><course>289.633057</course><hAcc>0.893105</hAcc><vAcc>0.722980</vAcc></extensions></trkpt>
      <trkpt lon="-4.118178" lat="53.009996"><ele>108.559738</ele><time>2021-07-17T09:07:36Z</time><extensions><speed>1.122237</speed><course>274.042023</course><hAcc>0.892172</hAcc><vAcc>0.722036</vAcc></extensions></trkpt>
      <trkpt lon="-4.118188" lat="53.010004"><ele>108.705330</ele><time>2021-07-17T09:07:37Z</time><extensions><speed>1.119405</speed><course>259.398621</course><hAcc>0.891478</hAcc><vAcc>0.721311</vAcc></extensions></trkpt>
      <trkpt lon="-4.118197" lat="53.010013"><ele>108.849007</ele><time>2021-07-17T09:07:38Z</time><extensions><speed>1.117796</speed><course>235.228027</course><hAcc>0.890982</hAcc><vAcc>0.720773</vAcc></extensions></trkpt>
      <trkpt lon="-4.118207" lat="53.010021"><ele>108.990097</ele><time>2021-07-17T09:07:39Z</time><extensions><speed>1.117075</speed><course>233.943741</course><hAcc>0.890639</hAcc><vAcc>0.720385</vAcc></extensions></trkpt>
      <trkpt lon="-4.118216" lat="53.010029"><ele>109.128136</ele><time>2021-07-17T09:07:40Z</time><extensions><speed>1.116426</speed><course>251.986771</course><hAcc>0.890411</hAcc><vAcc>0.720109</vAcc></extensions></trkpt>
      <trkpt lon="-4.118226" lat="53.010037"><ele>109.262589</ele><time>2021-07-17T09:07:41Z</time><extensions><speed>1.115053</speed><course>230.632401</course><hAcc>0.890264</hAcc><vAcc>0.719911</vAcc></extensions></trkpt>
      <trkpt lon="-4.118236" lat="53.010045"><ele>109.392883</ele><time>2021-07-17T09:07:42Z</time><extensions><speed>1.112377</speed><course>208.539734</course><hAcc>0.890169</hAcc><vAcc>0.719763</vAcc></extensions></trkpt>
      <trkpt lon="-4.118246" lat="53.010053"><ele>109.518570</ele><time>2021-07-17T09:07:43Z</time><extensions><speed>1.107733</speed><course>217.062653</course><hAcc>0.890106</hAcc><vAcc>0.719641</vAcc></extensions></trkpt>
      <trkpt lon="-4.118256" lat="53.010061"><ele>109.639229</ele><time>2021-07-17T09:07:44Z</time><extensions><speed>1.100407</speed><course>216.480164</course><hAcc>0.890061</hAcc><vAcc>0.719528</vAcc></extensions></trkpt>
      <trkpt lon="-4.118266" lat="53.010069"><ele>109.754524</ele><time>2021-07-17T09:07:45Z</time><extensions><speed>1.089864</speed><course>215.204285</course><hAcc>0.890024</hAcc><vAcc>0.719413</vAcc></extensions></trkpt>
      <trkpt lon="-4.118275" lat="53.010077"><ele>109.864197</ele><time>2021-07-17T09:07:46Z</time><extensions><speed>1.075990</speed><course>192.608246</course><hAcc>0.889989</hAcc><vAcc>0.719289</vAcc></extensions></trkpt>
      <trkpt lon="-4.118285" lat="53.010084"><ele>109.968033</ele><time>2021-07-17T09:07:47Z</time><extensions><speed>1.058848</speed><course>196.818375</course><hAcc>0.889954</hAcc><vAcc>0.719155</vAcc></extensions></trkpt>
      <trkpt lon="-4.118295" lat="53.010092"><ele>110.065849</ele><time>2021-07-17T09:07:48Z</time><extensions><speed>1.038612</speed><course>200.564194</course><hAcc>0.889917</hAcc><vAcc>0.719015</vAcc></extensions></trkpt>
      <trkpt lon="-4.118305" lat="53.010099"><ele>110.157532</ele><time>2021-07-17T09:07:49Z</time><extensions><speed>1.015262</speed><course>224.718231</course><hAcc>0.889878</hAcc><vAcc>0.718874</vAcc></extensions></trkpt>
      <trkpt lon="-4.118315" lat="53.010105"><ele>110.242897</ele><time>2021-07-17T09:07:50Z</time><extensions><speed>0.988202</speed><course>228.969803</course><hAcc>0.889839</hAcc><vAcc>0.718740</vAcc></extensions></trkpt>
      <trkpt lon="-4.118325" lat="53.010112"><ele>110.321953</ele><time>2021-07-17T09:07:51Z</time><extensions><speed>0.956637</speed><course>250.366501</course><hAcc>0.889801</hAcc><vAcc>0.718617</vAcc></extensions></trkpt>
      <trkpt lon="-4.118334" lat="53.010118"><ele>110.394821</ele><time>2021-07-17T09:07:52Z</time><extensions><speed>0.920404</speed><course>-1.000000</course><hAcc>0.889766</hAcc><vAcc>0.718509</vAcc></extensions></trkpt>
      <trkpt lon="-4.118344" lat="53.010124"><ele>110.461510</ele><time>2021-07-17T09:07:53Z</time><extensions><speed>0.880119</speed><course>232.063629</course><hAcc>0.889737</hAcc><vAcc>0.718418</vAcc></extensions></trkpt>
      <trkpt lon="-4.118353" lat="53.010129"><ele>110.522072</ele><time>2021-07-17T09:07:54Z</time><extensions><speed>0.836841</speed><course>232.063614</course><hAcc>0.889714</hAcc><vAcc>0.718345</vAcc></extensions></trkpt>
      <trkpt lon="-4.118362" lat="53.010134"><ele>110.576660</ele><time>2021-07-17T09:07:55Z</time><extensions><speed>0.791864</speed><course>232.063614</course><hAcc>0.889699</hAcc><vAcc>0.718293</vAcc></extensions></trkpt>
      <trkpt lon="-4.118371" lat="53.010138"><ele>110.625496</ele><time>2021-07-17T09:07:56Z</time><extensions><speed>0.746717</speed><course>232.063599</course><hAcc>0.889693</hAcc><vAcc>0.718264</vAcc></extensions></trkpt>
      <trkpt lon="-4.118380" lat="53.010142"><ele>110.668900</ele><time>2021-07-17T09:07:57Z</time><extensions><speed>0.703364</speed><course>232.063599</course><hAcc>0.889697</hAcc><vAcc>0.718265</vAcc></extensions></trkpt>
      <trkpt lon="-4.118388" lat="53.010145"><ele>110.707184</ele><time>2021-07-17T09:07:58Z</time><extensions><speed>0.664074</speed><course>232.063583</course><hAcc>0.889712</hAcc><vAcc>0.718300</vAcc></extensions></trkpt>
      <trkpt lon="-4.118397" lat="53.010148"><ele>110.740730</ele><time>2021-07-17T09:07:59Z</time><extensions><speed>0.631223</speed><course>232.063583</course><hAcc>0.889736</hAcc><vAcc>0.718375</vAcc></extensions></trkpt>
      <trkpt lon="-4.118405" lat="53.010151"><ele>110.770149</ele><time>2021-07-17T09:08:00Z</time><extensions><speed>0.607009</speed><course>248.555511</course><hAcc>0.889770</hAcc><vAcc>0.718491</vAcc></extensions></trkpt>
      <trkpt lon="-4.118413" lat="53.010153"><ele>110.796280</ele><time>2021-07-17T09:08:01Z</time><extensions><speed>0.592934</speed><course>214.727661</course><hAcc>0.889812</hAcc><vAcc>0.718646</vAcc></extensions></trkpt>
      <trkpt lon="-4.118421" lat="53.010155"><ele>110.820084</ele><time>2021-07-17T09:08:02Z</time><extensions><speed>0.589558</speed><course>215.656113</course><hAcc>0.889860</hAcc><vAcc>0.718832</vAcc></extensions></trkpt>
      <trkpt lon="-4.118430" lat="53.010156"><ele>110.842499</ele><time>2021-07-17T09:08:03Z</time><extensions><speed>0.596258</speed><course>205.637772</course><hAcc>0.889915</hAcc><vAcc>0.719040</vAcc></extensions></trkpt>
      <trkpt lon="-4.118439" lat="53.010157"><ele>110.864403</ele><time>2021-07-17T09:08:04Z</time><extensions><speed>0.610830</speed><course>201.575424</course><hAcc>0.889972</hAcc><vAcc>0.719257</vAcc></extensions></trkpt>
      <trkpt lon="-4.118448" lat="53.010158"><ele>110.886482</ele><time>2021-07-17T09:08:05Z</time><extensions><speed>0.630745</speed><course>196.854248</course><hAcc>0.890031</hAcc><vAcc>0.719472</vAcc></extensions></trkpt>
      <trkpt lon="-4.118458" lat="53.010158"><ele>110.909401</ele><time>2021-07-17T09:08:06Z</time><extensions><speed>0.654046</speed><course>198.264053</course><hAcc>0.890088</hAcc><vAcc>0.719678</vAcc></extensions></trkpt>
      <trkpt lon="-4.118467" lat="53.010159"><ele>110.933777</ele><time>2021-07-17T09:08:07Z</time><extensions><speed>0.679164</speed><course>198.636932</course><hAcc>0.890141</hAcc><vAcc>0.719867</vAcc></extensions></trkpt>
      <trkpt lon="-4.118478" lat="53.010159"><ele>110.960022</ele><time>2021-07-17T09:08:08Z</time><extensions><speed>0.705283</speed><course>192.727798</course><hAcc>0.890188</hAcc><vAcc>0.720034</vAcc></extensions></trkpt>
      <trkpt lon="-4.118488" lat="53.010159"><ele>110.988289</ele><time>2021-07-17T09:08:09Z</time><extensions><speed>0.731983</speed><course>184.691818</course><hAcc>0.890227</hAcc><vAcc>0.720174</vAcc></extensions></trkpt>
      <trkpt lon="-4.118500" lat="53.010160"><ele>111.018730</ele><time>2021-07-17T09:08:10Z</time><extensions><speed>0.758835</speed><course>177.917740</course><hAcc>0.890257</hAcc><vAcc>0.720281</vAcc></extensions></trkpt>
      <trkpt lon="-4.118511" lat="53.010160"><ele>111.051514</ele><time>2021-07-17T09:08:11Z</time><extensions><speed>0.785567</speed><course>169.935883</course><hAcc>0.890276</hAcc><vAcc>0.720350</vAcc></extensions></trkpt>
      <trkpt lon="-4.118523" lat="53.010161"><ele>111.086678</ele><time>2021-07-17T09:08:12Z</time><extensions><speed>0.811918</speed><course>168.290512</course><hAcc>0.890286</hAcc><vAcc>0.720377</vAcc></extensions></trkpt>
      <trkpt lon="-4.118535" lat="53.010162"><ele>111.124138</ele><time>2021-07-17T09:08:13Z</time><extensions><speed>0.837533</speed><course>175.847488</course><hAcc>0.890285</hAcc><vAcc>0.720362</vAcc></extensions></trkpt>
      <trkpt lon="-4.118548" lat="53.010163"><ele>111.163704</ele><time>2021-07-17T09:08:14Z</time><extensions><speed>0.862138</speed><course>182.489380</course><hAcc>0.890276</hAcc><vAcc>0.720308</vAcc></extensions></trkpt>
      <trkpt lon="-4.118560" lat="53.010165"><ele>111.205193</ele><time>2021-07-17T09:08:15Z</time><extensions><speed>0.885784</speed><course>193.224472</course><hAcc>0.890259</hAcc><vAcc>0.720219</vAcc></extensions></trkpt>
      <trkpt lon="-4.118573" lat="53.010166"><ele>111.248436</ele><time>2021-07-17T09:08:16Z</time><extensions><speed>0.908160</speed><course>210.457108</course><hAcc>0.890237</hAcc><vAcc>0.720104</vAcc></extensions></trkpt>
      <trkpt lon="-4.118587" lat="53.010168"><ele>111.293121</ele><time>2021-07-17T09:08:17Z</time><extensions><speed>0.928171</speed><course>227.054108</course><hAcc>0.890212</hAcc><vAcc>0.719972</vAcc></extensions></trkpt>
      <trkpt lon="-4.118600" lat="53.010171"><ele>111.338844</ele><time>2021-07-17T09:08:18Z</time><extensions><speed>0.944568</speed><course>247.666534</course><hAcc>0.890187</hAcc><vAcc>0.719834</vAcc></extensions></trkpt>
      <trkpt lon="-4.118614" lat="53.010173"><ele>111.385216</ele><time>2021-07-17T09:08:19Z</time><extensions><speed>0.956343</speed><course>261.197876</course><hAcc>0.890165</hAcc><vAcc>0.719700</vAcc></extensions></trkpt>
      <trkpt lon="-4.118627" lat="53.010176"><ele>111.432053</ele><time>2021-07-17T09:08:21Z</time><extensions><speed>0.962949</speed><course>263.217255</course><hAcc>0.890130</hAcc><vAcc>0.719567</vAcc></extensions></trkpt>
      <trkpt lon="-4.118641" lat="53.010179"><ele>111.479324</ele><time>2021-07-17T09:08:22Z</time><extensions><speed>0.964235</speed><course>271.463165</course><hAcc>0.890085</hAcc><vAcc>0.719440</vAcc></extensions></trkpt>
      <trkpt lon="-4.118654" lat="53.010182"><ele>111.527557</ele><time>2021-07-17T09:08:23Z</time><extensions><speed>0.960415</speed><course>281.991608</course><hAcc>0.890050</hAcc><vAcc>0.719338</vAcc></extensions></trkpt>
      <trkpt lon="-4.118668" lat="53.010184"><ele>111.577454</ele><time>2021-07-17T09:08:24Z</time><extensions><speed>0.951704</speed><course>285.895782</course><hAcc>0.890024</hAcc><vAcc>0.719265</vAcc></extensions></trkpt>
      <trkpt lon="-4.118681" lat="53.010187"><ele>111.629784</ele><time>2021-07-17T09:08:25Z</time><extensions><speed>0.938650</speed><course>287.327179</course><hAcc>0.890010</hAcc><vAcc>0.719222</vAcc></extensions></trkpt>
      <trkpt lon="-4.118694" lat="53.010190"><ele>111.685333</ele><time>2021-07-17T09:08:26Z</time><extensions><speed>0.922485</speed><course>297.396240</course><hAcc>0.890005</hAcc><vAcc>0.719213</vAcc></extensions></trkpt>
      <trkpt lon="-4.118707" lat="53.010192"><ele>111.744804</ele><time>2021-07-17T09:08:27Z</time><extensions><speed>0.904787</speed><course>299.473175</course><hAcc>0.890011</hAcc><vAcc>0.719240</vAcc></extensions></trkpt>
      <trkpt lon="-4.118720" lat="53.010195"><ele>111.808784</ele><time>2021-07-17T09:08:28Z</time><extensions><speed>0.887184</speed><course>297.683289</course><hAcc>0.890026</hAcc><vAcc>0.719304</vAcc></extensions></trkpt>
      <trkpt lon="-4.118733" lat="53.010197"><ele>111.877594</ele><time>2021-07-17T09:08:29Z</time><extensions><speed>0.871153</speed><course>292.365356</course><hAcc>0.890049</hAcc><vAcc>0.719403</vAcc></extensions></trkpt>
      <trkpt lon="-4.118745" lat="53.010198"><ele>111.951241</ele><time>2021-07-17T09:08:30Z</time><extensions><speed>0.858163</speed><course>291.092651</course><hAcc>0.890078</hAcc><vAcc>0.719528</vAcc></extensions></trkpt>
      <trkpt lon="-4.118758" lat="53.010199"><ele>112.029572</ele><time>2021-07-17T09:08:31Z</time><extensions><speed>0.849563</speed><course>297.007721</course><hAcc>0.890111</hAcc><vAcc>0.719671</vAcc></extensions></trkpt>
      <trkpt lon="-4.118770" lat="53.010200"><ele>112.112350</ele><time>2021-07-17T09:08:32Z</time><extensions><speed>0.846061</speed><course>291.539093</course><hAcc>0.890146</hAcc><vAcc>0.719820</vAcc></extensions></trkpt>
      <trkpt lon="-4.118783" lat="53.010201"><ele>112.199318</ele><time>2021-07-17T09:08:33Z</time><extensions><speed>0.847623</speed><course>293.314819</course><hAcc>0.890181</hAcc><vAcc>0.719965</vAcc></extensions></trkpt>
      <trkpt lon="-4.118796" lat="53.010201"><ele>112.290031</ele><time>2021-07-17T09:08:34Z</time><extensions><speed>0.853965</speed><course>297.043213</course><hAcc>0.890215</hAcc><vAcc>0.720098</vAcc></extensions></trkpt>
      <trkpt lon="-4.118808" lat="53.010201"><ele>112.383858</ele><time>2021-07-17T09:08:35Z</time><extensions><speed>0.864648</speed><course>301.573547</course><hAcc>0.890246</hAcc><vAcc>0.720211</vAcc></extensions></trkpt>
      <trkpt lon="-4.118821" lat="53.010200"><ele>112.480247</ele><time>2021-07-17T09:08:36Z</time><extensions><speed>0.879035</speed><course>305.542847</course><hAcc>0.890272</hAcc><vAcc>0.720300</vAcc></extensions></trkpt>
      <trkpt lon="-4.118834" lat="53.010200"><ele>112.578888</ele><time>2021-07-17T09:08:37Z</time><extensions><speed>0.896451</speed><course>304.461029</course><hAcc>0.890292</hAcc><vAcc>0.720364</vAcc></extensions></trkpt>
      <trkpt lon="-4.118848" lat="53.010199"><ele>112.679642</ele><time>2021-07-17T09:08:38Z</time><extensions><speed>0.915984</speed><course>304.519958</course><hAcc>0.890307</hAcc><vAcc>0.720402</vAcc></extensions></trkpt>
      <trkpt lon="-4.118862" lat="53.010198"><ele>112.782478</ele><time>2021-07-17T09:08:39Z</time><extensions><speed>0.936893</speed><course>306.835541</course><hAcc>0.890316</hAcc><vAcc>0.720416</vAcc></extensions></trkpt>
      <trkpt lon="-4.118876" lat="53.010197"><ele>112.887375</ele><time>2021-07-17T09:08:40Z</time><extensions><speed>0.958955</speed><course>312.924469</course><hAcc>0.890321</hAcc><vAcc>0.720412</vAcc></extensions></trkpt>
      <trkpt lon="-4.118890" lat="53.010196"><ele>112.994186</ele><time>2021-07-17T09:08:41Z</time><extensions><speed>0.981765</speed><course>313.121582</course><hAcc>0.890322</hAcc><vAcc>0.720393</vAcc></extensions></trkpt>
      <trkpt lon="-4.118904" lat="53.010194"><ele>113.102730</ele><time>2021-07-17T09:08:42Z</time><extensions><speed>1.004390</speed><course>312.363678</course><hAcc>0.890320</hAcc><vAcc>0.720367</vAcc></extensions></trkpt>
      <trkpt lon="-4.118919" lat="53.010192"><ele>113.212753</ele><time>2021-07-17T09:08:43Z</time><extensions><speed>1.025666</speed><course>309.905548</course><hAcc>0.890318</hAcc><vAcc>0.720338</vAcc></extensions></trkpt>
      <trkpt lon="-4.118934" lat="53.010190"><ele>113.323936</ele><time>2021-07-17T09:08:44Z</time><extensions><speed>1.044523</speed><course>308.597687</course><hAcc>0.890316</hAcc><vAcc>0.720313</vAcc></extensions></trkpt>
      <trkpt lon="-4.118950" lat="53.010188"><ele>113.435966</ele><time>2021-07-17T09:08:45Z</time><extensions><speed>1.060259</speed><course>307.103394</course><hAcc>0.890316</hAcc><vAcc>0.720298</vAcc></extensions></trkpt>
      <trkpt lon="-4.118965" lat="53.010186"><ele>113.548538</ele><time>2021-07-17T09:08:46Z</time><extensions><speed>1.072252</speed><course>306.897400</course><hAcc>0.890319</hAcc><vAcc>0.720296</vAcc></extensions></trkpt>
      <trkpt lon="-4.118981" lat="53.010184"><ele>113.661308</ele><time>2021-07-17T09:08:47Z</time><extensions><speed>1.079958</speed><course>302.152618</course><hAcc>0.890325</hAcc><vAcc>0.720310</vAcc></extensions></trkpt>
      <trkpt lon="-4.118996" lat="53.010181"><ele>113.773750</ele><time>2021-07-17T09:08:48Z</time><extensions><speed>1.082850</speed><course>297.726410</course><hAcc>0.890337</hAcc><vAcc>0.720342</vAcc></extensions></trkpt>
      <trkpt lon="-4.119012" lat="53.010179"><ele>113.885208</ele><time>2021-07-17T09:08:49Z</time><extensions><speed>1.080792</speed><course>300.194183</course><hAcc>0.890352</hAcc><vAcc>0.720393</vAcc></extensions></trkpt>
      <trkpt lon="-4.119027" lat="53.010176"><ele>113.995186</ele><time>2021-07-17T09:08:50Z</time><extensions><speed>1.074249</speed><course>297.151825</course><hAcc>0.890372</hAcc><vAcc>0.720462</vAcc></extensions></trkpt>
      <trkpt lon="-4.119043" lat="53.010174"><ele>114.103279</ele><time>2021-07-17T09:08:51Z</time><extensions><speed>1.063968</speed><course>298.399384</course><hAcc>0.890394</hAcc><vAcc>0.720548</vAcc></extensions></trkpt>
      <trkpt lon="-4.119058" lat="53.010172"><ele>114.209129</ele><time>2021-07-17T09:08:52Z</time><extensions><speed>1.050838</speed><course>300.837921</course><hAcc>0.890418</hAcc><vAcc>0.720648</vAcc></extensions></trkpt>
      <trkpt lon="-4.119074" lat="53.010170"><ele>114.312546</ele><time>2021-07-17T09:08:53Z</time><extensions><speed>1.035818</speed><course>299.844330</course><hAcc>0.890442</hAcc><vAcc>0.720754</vAcc></extensions></trkpt>
      <trkpt lon="-4.119089" lat="53.010169"><ele>114.413513</ele><time>2021-07-17T09:08:54Z</time><extensions><speed>1.020250</speed><course>300.001373</course><hAcc>0.890464</hAcc><vAcc>0.720860</vAcc></extensions></trkpt>
      <trkpt lon="-4.119104" lat="53.010168"><ele>114.512093</ele><time>2021-07-17T09:08:55Z</time><extensions><speed>1.005577</speed><course>294.568817</course><hAcc>0.890482</hAcc><vAcc>0.720955</vAcc></extensions></trkpt>
      <trkpt lon="-4.119118" lat="53.010167"><ele>114.608475</ele><time>2021-07-17T09:08:56Z</time><extensions><speed>0.993206</speed><course>300.687103</course><hAcc>0.890496</hAcc><vAcc>0.721028</vAcc></extensions></trkpt>
      <trkpt lon="-4.119133" lat="53.010167"><ele>114.703018</ele><time>2021-07-17T09:08:57Z</time><extensions><speed>0.984325</speed><course>297.691925</course><hAcc>0.890504</hAcc><vAcc>0.721070</vAcc></extensions></trkpt>
      <trkpt lon="-4.119148" lat="53.010167"><ele>114.796204</ele><time>2021-07-17T09:08:58Z</time><extensions><speed>0.979740</speed><course>293.928223</course><hAcc>0.890505</hAcc><vAcc>0.721078</vAcc></extensions></trkpt>
      <trkpt lon="-4.119162" lat="53.010168"><ele>114.888573</ele><time>2021-07-17T09:08:59Z</time><extensions><speed>0.979874</speed><course>297.041656</course><hAcc>0.890499</hAcc><vAcc>0.721050</vAcc></extensions></trkpt>
      <trkpt lon="-4.119177" lat="53.010169"><ele>114.980919</ele><time>2021-07-17T09:09:00Z</time><extensions><speed>0.984559</speed><course>298.722290</course><hAcc>0.890486</hAcc><vAcc>0.720988</vAcc></extensions></trkpt>
      <trkpt lon="-4.119191" lat="53.010170"><ele>115.074448</ele><time>2021-07-17T09:09:01Z</time><extensions><speed>0.993394</speed><course>296.674316</course><hAcc>0.890466</hAcc><vAcc>0.720899</vAcc></extensions></trkpt>
      <trkpt lon="-4.119206" lat="53.010172"><ele>115.170532</ele><time>2021-07-17T09:09:02Z</time><extensions><speed>1.005554</speed><course>301.147156</course><hAcc>0.890441</hAcc><vAcc>0.720787</vAcc></extensions></trkpt>
      <trkpt lon="-4.119220" lat="53.010175"><ele>115.270401</ele><time>2021-07-17T09:09:03Z</time><extensions><speed>1.019520</speed><course>301.618805</course><hAcc>0.890412</hAcc><vAcc>0.720663</vAcc></extensions></trkpt>
      <trkpt lon="-4.119235" lat="53.010177"><ele>115.374832</ele><time>2021-07-17T09:09:04Z</time><extensions><speed>1.033995</speed><course>300.678009</course><hAcc>0.890380</hAcc><vAcc>0.720534</vAcc></extensions></trkpt>
      <trkpt lon="-4.119250" lat="53.010180"><ele>115.484123</ele><time>2021-07-17T09:09:05Z</time><extensions><speed>1.048052</speed><course>306.078644</course><hAcc>0.890348</hAcc><vAcc>0.720410</vAcc></extensions></trkpt>
      <trkpt lon="-4.119265" lat="53.010183"><ele>115.598328</ele><time>2021-07-17T09:09:06Z</time><extensions><speed>1.060792</speed><course>302.099213</course><hAcc>0.890316</hAcc><vAcc>0.720297</vAcc></extensions></trkpt>
      <trkpt lon="-4.119280" lat="53.010186"><ele>115.717583</ele><time>2021-07-17T09:09:07Z</time><extensions><speed>1.071778</speed><course>298.253754</course><hAcc>0.890285</hAcc><vAcc>0.720196</vAcc></extensions></trkpt>
      <trkpt lon="-4.119296" lat="53.010188"><ele>115.842194</ele><time>2021-07-17T09:09:08Z</time><extensions><speed>1.080983</speed><course>299.772583</course><hAcc>0.890258</hAcc><vAcc>0.720111</vAcc></extensions></trkpt>
      <trkpt lon="-4.119311" lat="53.010191"><ele>115.972282</ele><time>2021-07-17T09:09:09Z</time><extensions><speed>1.088467</speed><course>299.946075</course><hAcc>0.890234</hAcc><vAcc>0.720040</vAcc></extensions></trkpt>
      <trkpt lon="-4.119327" lat="53.010194"><ele>116.107697</ele><time>2021-07-17T09:09:10Z</time><extensions><speed>1.093994</speed><course>303.968170</course><hAcc>0.890214</hAcc><vAcc>0.719982</vAcc></extensions></trkpt>
      <trkpt lon="-4.119343" lat="53.010196"><ele>116.248055</ele><time>2021-07-17T09:09:11Z</time><extensions><speed>1.097051</speed><course>302.223755</course><hAcc>0.890199</hAcc><vAcc>0.719938</vAcc></extensions></trkpt>
      <trkpt lon="-4.119359" lat="53.010198"><ele>116.392876</ele><time>2021-07-17T09:09:12Z</time><extensions><speed>1.097486</speed><course>303.590851</course><hAcc>0.890188</hAcc><vAcc>0.719905</vAcc></extensions></trkpt>
      <trkpt lon="-4.119375" lat="53.010200"><ele>116.541573</ele><time>2021-07-17T09:09:13Z</time><extensions><speed>1.095545</speed><course>302.656281</course><hAcc>0.890181</hAcc><vAcc>0.719882</vAcc></extensions></trkpt>
      <trkpt lon="-4.119391" lat="53.010202"><ele>116.693436</ele><time>2021-07-17T09:09:14Z</time><extensions><speed>1.091684</speed><course>307.857574</course><hAcc>0.890178</hAcc><vAcc>0.719871</vAcc></extensions></trkpt>
      <trkpt lon="-4.119406" lat="53.010204"><ele>116.847511</ele><time>2021-07-17T09:09:15Z</time><extensions><speed>1.086385</speed><course>306.241272</course><hAcc>0.890178</hAcc><vAcc>0.719870</vAcc></extensions></trkpt>
      <trkpt lon="-4.119422" lat="53.010206"><ele>117.002571</ele><time>2021-07-17T09:09:16Z</time><extensions><speed>1.079939</speed><course>302.560516</course><hAcc>0.890180</hAcc><vAcc>0.719880</vAcc></extensions></trkpt>
      <trkpt lon="-4.119438" lat="53.010207"><ele>117.157112</ele><time>2021-07-17T09:09:17Z</time><extensions><speed>1.072813</speed><course>304.207947</course><hAcc>0.890183</hAcc><vAcc>0.719900</vAcc></extensions></trkpt>
      <trkpt lon="-4.119454" lat="53.010209"><ele>117.309349</ele><time>2021-07-17T09:09:18Z</time><extensions><speed>1.065717</speed><course>304.678192</course><hAcc>0.890186</hAcc><vAcc>0.719927</vAcc></extensions></trkpt>
      <trkpt lon="-4.119470" lat="53.010210"><ele>117.457382</ele><time>2021-07-17T09:09:19Z</time><extensions><speed>1.059233</speed><course>300.816559</course><hAcc>0.890187</hAcc><vAcc>0.719957</vAcc></extensions></trkpt>
      <trkpt lon="-4.119485" lat="53.010211"><ele>117.599503</ele><time>2021-07-17T09:09:20Z</time><extensions><speed>1.053513</speed><course>302.457642</course><hAcc>0.890185</hAcc><vAcc>0.719981</vAcc></extensions></trkpt>
      <trkpt lon="-4.119501" lat="53.010213"><ele>117.734558</ele><time>2021-07-17T09:09:21Z</time><extensions><speed>1.048442</speed><course>303.405792</course><hAcc>0.890179</hAcc><vAcc>0.719991</vAcc></extensions></trkpt>
      <trkpt lon="-4.119516" lat="53.010214"><ele>117.862122</ele><time>2021-07-17T09:09:22Z</time><extensions><speed>1.044009</speed><course>305.179382</course><hAcc>0.890169</hAcc><vAcc>0.719979</vAcc></extensions></trkpt>
      <trkpt lon="-4.119531" lat="53.010215"><ele>117.982208</ele><time>2021-07-17T09:09:23Z</time><extensions><speed>1.040586</speed><course>301.811188</course><hAcc>0.890154</hAcc><vAcc>0.719940</vAcc></extensions></trkpt>
      <trkpt lon="-4.119547" lat="53.010217"><ele>118.095108</ele><time>2021-07-17T09:09:24Z</time><extensions><speed>1.038722</speed><course>294.111877</course><hAcc>0.890135</hAcc><vAcc>0.719871</vAcc></extensions></trkpt>
      <trkpt lon="-4.119562" lat="53.010218"><ele>118.201698</ele><time>2021-07-17T09:09:25Z</time><extensions><speed>1.038306</speed><course>291.186249</course><hAcc>0.890111</hAcc><vAcc>0.719776</vAcc></extensions></trkpt>
      <trkpt lon="-4.119577" lat="53.010220"><ele>118.303444</ele><time>2021-07-17T09:09:26Z</time><extensions><speed>1.038612</speed><course>291.833313</course><hAcc>0.890084</hAcc><vAcc>0.719660</vAcc></extensions></trkpt>
      <trkpt lon="-4.119593" lat="53.010221"><ele>118.401993</ele><time>2021-07-17T09:09:27Z</time><extensions><speed>1.038814</speed><course>293.198639</course><hAcc>0.890055</hAcc><vAcc>0.719531</vAcc></extensions></trkpt>
      <trkpt lon="-4.119608" lat="53.010223"><ele>118.498802</ele><time>2021-07-17T09:09:28Z</time><extensions><speed>1.038135</speed><course>297.953094</course><hAcc>0.890026</hAcc><vAcc>0.719399</vAcc></extensions></trkpt>
      <trkpt lon="-4.119623" lat="53.010224"><ele>118.595093</ele><time>2021-07-17T09:09:29Z</time><extensions><speed>1.035439</speed><course>294.998413</course><hAcc>0.889997</hAcc><vAcc>0.719276</vAcc></extensions></trkpt>
      <trkpt lon="-4.119638" lat="53.010226"><ele>118.691833</ele><time>2021-07-17T09:09:30Z</time><extensions><speed>1.029110</speed><course>290.333923</course><hAcc>0.889970</hAcc><vAcc>0.719170</vAcc></extensions></trkpt>
      <trkpt lon="-4.119653" lat="53.010227"><ele>118.789604</ele><time>2021-07-17T09:09:31Z</time><extensions><speed>1.017777</speed><course>297.336884</course><hAcc>0.889947</hAcc><vAcc>0.719087</vAcc></extensions></trkpt>
      <trkpt lon="-4.119668" lat="53.010229"><ele>118.888580</ele><time>2021-07-17T09:09:32Z</time><extensions><speed>1.000247</speed><course>291.763641</course><hAcc>0.889928</hAcc><vAcc>0.719030</vAcc></extensions></trkpt>
      <trkpt lon="-4.119683" lat="53.010230"><ele>118.988632</ele><time>2021-07-17T09:09:33Z</time><extensions><speed>0.975290</speed><course>293.588959</course><hAcc>0.889912</hAcc><vAcc>0.718999</vAcc></extensions></trkpt>
      <trkpt lon="-4.119697" lat="53.010231"><ele>119.089294</ele><time>2021-07-17T09:09:34Z</time><extensions><speed>0.941738</speed><course>298.534668</course><hAcc>0.889901</hAcc><vAcc>0.718991</vAcc></extensions></trkpt>
      <trkpt lon="-4.119711" lat="53.010232"><ele>119.189850</ele><time>2021-07-17T09:09:35Z</time><extensions><speed>0.898669</speed><course>294.834351</course><hAcc>0.889892</hAcc><vAcc>0.719000</vAcc></extensions></trkpt>
      <trkpt lon="-4.119724" lat="53.010232"><ele>119.289375</ele><time>2021-07-17T09:09:36Z</time><extensions><speed>0.845904</speed><course>297.698059</course><hAcc>0.889886</hAcc><vAcc>0.719019</vAcc></extensions></trkpt>
      <trkpt lon="-4.119736" lat="53.010233"><ele>119.386795</ele><time>2021-07-17T09:09:37Z</time><extensions><speed>0.784156</speed><course>298.511444</course><hAcc>0.889882</hAcc><vAcc>0.719042</vAcc></extensions></trkpt>
      <trkpt lon="-4.119747" lat="53.010234"><ele>119.481041</ele><time>2021-07-17T09:09:38Z</time><extensions><speed>0.714982</speed><course>303.054443</course><hAcc>0.889878</hAcc><vAcc>0.719063</vAcc></extensions></trkpt>
      <trkpt lon="-4.119757" lat="53.010234"><ele>119.571182</ele><time>2021-07-17T09:09:39Z</time><extensions><speed>0.640506</speed><course>300.594757</course><hAcc>0.889874</hAcc><vAcc>0.719080</vAcc></extensions></trkpt>
      <trkpt lon="-4.119766" lat="53.010234"><ele>119.656609</ele><time>2021-07-17T09:09:40Z</time><extensions><speed>0.563271</speed><course>303.489990</course><hAcc>0.889869</hAcc><vAcc>0.719092</vAcc></extensions></trkpt>
      <trkpt lon="-4.119774" lat="53.010235"><ele>119.736847</ele><time>2021-07-17T09:09:40Z</time><extensions><speed>0.486266</speed><course>307.296783</course><hAcc>0.889882</hAcc><vAcc>0.719112</vAcc></extensions></trkpt>
      <trkpt lon="-4.119780" lat="53.010235"><ele>119.811905</ele><time>2021-07-17T09:09:41Z</time><extensions><speed>0.412251</speed><course>306.846466</course><hAcc>0.889915</hAcc><vAcc>0.719145</vAcc></extensions></trkpt>
      <trkpt lon="-4.119786" lat="53.010235"><ele>119.881851</ele><time>2021-07-17T09:09:42Z</time><extensions><speed>0.344744</speed><course>314.303711</course><hAcc>0.889950</hAcc><vAcc>0.719186</vAcc></extensions></trkpt>
      <trkpt lon="-4.119791" lat="53.010235"><ele>119.947113</ele><time>2021-07-17T09:09:43Z</time><extensions><speed>0.286709</speed><course>316.753265</course><hAcc>0.889989</hAcc><vAcc>0.719248</vAcc></extensions></trkpt>
      <trkpt lon="-4.119794" lat="53.010236"><ele>120.008209</ele><time>2021-07-17T09:09:44Z</time><extensions><speed>0.239944</speed><course>312.101562</course><hAcc>0.890035</hAcc><vAcc>0.719343</vAcc></extensions></trkpt>
      <trkpt lon="-4.119798" lat="53.010236"><ele>120.065781</ele><time>2021-07-17T09:09:45Z</time><extensions><speed>0.205667</speed><course>310.983948</course><hAcc>0.890088</hAcc><vAcc>0.719484</vAcc></extensions></trkpt>
      <trkpt lon="-4.119800" lat="53.010237"><ele>120.120544</ele><time>2021-07-17T09:09:46Z</time><extensions><speed>0.185410</speed><course>316.824890</course><hAcc>0.890147</hAcc><vAcc>0.719674</vAcc></extensions></trkpt>
      <trkpt lon="-4.119803" lat="53.010237"><ele>120.173386</ele><time>2021-07-17T09:09:47Z</time><extensions><speed>0.181055</speed><course>324.005005</course><hAcc>0.890212</hAcc><vAcc>0.719910</vAcc></extensions></trkpt>
      <trkpt lon="-4.119805" lat="53.010238"><ele>120.225349</ele><time>2021-07-17T09:09:48Z</time><extensions><speed>0.193309</speed><course>322.091736</course><hAcc>0.890281</hAcc><vAcc>0.720181</vAcc></extensions></trkpt>
      <trkpt lon="-4.119808" lat="53.010240"><ele>120.277603</ele><time>2021-07-17T09:09:49Z</time><extensions><speed>0.220976</speed><course>322.830170</course><hAcc>0.890351</hAcc><vAcc>0.720470</vAcc></extensions></trkpt>
      <trkpt lon="-4.119810" lat="53.010241"><ele>120.331261</ele><time>2021-07-17T09:09:50Z</time><extensions><speed>0.262378</speed><course>325.823517</course><hAcc>0.890420</hAcc><vAcc>0.720760</vAcc></extensions></trkpt>
      <trkpt lon="-4.119813" lat="53.010243"><ele>120.387360</ele><time>2021-07-17T09:09:51Z</time><extensions><speed>0.316281</speed><course>331.853210</course><hAcc>0.890485</hAcc><vAcc>0.721031</vAcc></extensions></trkpt>
      <trkpt lon="-4.119817" lat="53.010245"><ele>120.446793</ele><time>2021-07-17T09:09:52Z</time><extensions><speed>0.381677</speed><course>331.260956</course><hAcc>0.890542</hAcc><vAcc>0.721267</vAcc></extensions></trkpt>
      <trkpt lon="-4.119821" lat="53.010248"><ele>120.510315</ele><time>2021-07-17T09:09:53Z</time><extensions><speed>0.457197</speed><course>329.072571</course><hAcc>0.890590</hAcc><vAcc>0.721451</vAcc></extensions></trkpt>
      <trkpt lon="-4.119827" lat="53.010251"><ele>120.578583</ele><time>2021-07-17T09:09:54Z</time><extensions><speed>0.540719</speed><course>325.473938</course><hAcc>0.890625</hAcc><vAcc>0.721572</vAcc></extensions></trkpt>
      <trkpt lon="-4.119833" lat="53.010255"><ele>120.652023</ele><time>2021-07-17T09:09:55Z</time><extensions><speed>0.629510</speed><course>325.383026</course><hAcc>0.890647</hAcc><vAcc>0.721628</vAcc></extensions></trkpt>
      <trkpt lon="-4.119840" lat="53.010259"><ele>120.730812</ele><time>2021-07-17T09:09:56Z</time><extensions><speed>0.719940</speed><course>325.061401</course><hAcc>0.890656</hAcc><vAcc>0.721622</vAcc></extensions></trkpt>
      <trkpt lon="-4.119849" lat="53.010263"><ele>120.814781</ele><time>2021-07-17T09:09:57Z</time><extensions><speed>0.807978</speed><course>325.207275</course><hAcc>0.890650</hAcc><vAcc>0.721562</vAcc></extensions></trkpt>
      <trkpt lon="-4.119858" lat="53.010269"><ele>120.903572</ele><time>2021-07-17T09:09:58Z</time><extensions><speed>0.890489</speed><course>322.410889</course><hAcc>0.890632</hAcc><vAcc>0.721461</vAcc></extensions></trkpt>
      <trkpt lon="-4.119868" lat="53.010274"><ele>120.996941</ele><time>2021-07-17T09:09:59Z</time><extensions><speed>0.965405</speed><course>319.218658</course><hAcc>0.890602</hAcc><vAcc>0.721328</vAcc></extensions></trkpt>
      <trkpt lon="-4.119879" lat="53.010280"><ele>121.094749</ele><time>2021-07-17T09:10:00Z</time><extensions><speed>1.031660</speed><course>319.790588</course><hAcc>0.890564</hAcc><vAcc>0.721173</vAcc></extensions></trkpt>
      <trkpt lon="-4.119890" lat="53.010287"><ele>121.196648</ele><time>2021-07-17T09:10:01Z</time><extensions><speed>1.088857</speed><course>318.972229</course><hAcc>0.890519</hAcc><vAcc>0.721004</vAcc></extensions></trkpt>
      <trkpt lon="-4.119902" lat="53.010294"><ele>121.302330</ele><time>2021-07-17T09:10:02Z</time><extensions><speed>1.137092</speed><course>320.354065</course><hAcc>0.890469</hAcc><vAcc>0.720828</vAcc></extensions></trkpt>
      <trkpt lon="-4.119914" lat="53.010301"><ele>121.411552</ele><time>2021-07-17T09:10:03Z</time><extensions><speed>1.176782</speed><course>320.541016</course><hAcc>0.890418</hAcc><vAcc>0.720650</vAcc></extensions></trkpt>
      <trkpt lon="-4.119927" lat="53.010309"><ele>121.524094</ele><time>2021-07-17T09:10:04Z</time><extensions><speed>1.208465</speed><course>317.906189</course><hAcc>0.890367</hAcc><vAcc>0.720477</vAcc></extensions></trkpt>
      <trkpt lon="-4.119939" lat="53.010317"><ele>121.639771</ele><time>2021-07-17T09:10:05Z</time><extensions><speed>1.232772</speed><course>316.077393</course><hAcc>0.890317</hAcc><vAcc>0.720310</vAcc></extensions></trkpt>
      <trkpt lon="-4.119952" lat="53.010325"><ele>121.758438</ele><time>2021-07-17T09:10:06Z</time><extensions><speed>1.250128</speed><course>307.356537</course><hAcc>0.890270</hAcc><vAcc>0.720155</vAcc></extensions></trkpt>
      <trkpt lon="-4.119964" lat="53.010334"><ele>121.879860</ele><time>2021-07-17T09:10:07Z</time><extensions><speed>1.261208</speed><course>302.004150</course><hAcc>0.890227</hAcc><vAcc>0.720014</vAcc></extensions></trkpt>
      <trkpt lon="-4.119976" lat="53.010342"><ele>122.003662</ele><time>2021-07-17T09:10:08Z</time><extensions><speed>1.267218</speed><course>310.520874</course><hAcc>0.890188</hAcc><vAcc>0.719889</vAcc></extensions></trkpt>
      <trkpt lon="-4.119988" lat="53.010351"><ele>122.129616</ele><time>2021-07-17T09:10:09Z</time><extensions><speed>1.269460</speed><course>307.778412</course><hAcc>0.890153</hAcc><vAcc>0.719781</vAcc></extensions></trkpt>
      <trkpt lon="-4.120000" lat="53.010360"><ele>122.257805</ele><time>2021-07-17T09:10:10Z</time><extensions><speed>1.269089</speed><course>310.132080</course><hAcc>0.890123</hAcc><vAcc>0.719692</vAcc></extensions></trkpt>
      <trkpt lon="-4.120011" lat="53.010369"><ele>122.388664</ele><time>2021-07-17T09:10:11Z</time><extensions><speed>1.266729</speed><course>310.327301</course><hAcc>0.890098</hAcc><vAcc>0.719619</vAcc></extensions></trkpt>
      <trkpt lon="-4.120022" lat="53.010379"><ele>122.522774</ele><time>2021-07-17T09:10:12Z</time><extensions><speed>1.262608</speed><course>308.925873</course><hAcc>0.890079</hAcc><vAcc>0.719561</vAcc></extensions></trkpt>
      <trkpt lon="-4.120033" lat="53.010388"><ele>122.660805</ele><time>2021-07-17T09:10:13Z</time><extensions><speed>1.256723</speed><course>308.955322</course><hAcc>0.890064</hAcc><vAcc>0.719515</vAcc></extensions></trkpt>
      <trkpt lon="-4.120043" lat="53.010397"><ele>122.803642</ele><time>2021-07-17T09:10:14Z</time><extensions><speed>1.248707</speed><course>303.152588</course><hAcc>0.890055</hAcc><vAcc>0.719481</vAcc></extensions></trkpt>
      <trkpt lon="-4.120053" lat="53.010406"><ele>122.952255</ele><time>2021-07-17T09:10:15Z</time><extensions><speed>1.238159</speed><course>313.156525</course><hAcc>0.890050</hAcc><vAcc>0.719457</vAcc></extensions></trkpt>
      <trkpt lon="-4.120064" lat="53.010416"><ele>123.107506</ele><time>2021-07-17T09:10:16Z</time><extensions><speed>1.224719</speed><course>307.864197</course><hAcc>0.890051</hAcc><vAcc>0.719448</vAcc></extensions></trkpt>
      <trkpt lon="-4.120074" lat="53.010425"><ele>123.269920</ele><time>2021-07-17T09:10:17Z</time><extensions><speed>1.208170</speed><course>309.541687</course><hAcc>0.890055</hAcc><vAcc>0.719458</vAcc></extensions></trkpt>
      <trkpt lon="-4.120084" lat="53.010434"><ele>123.439407</ele><time>2021-07-17T09:10:18Z</time><extensions><speed>1.188655</speed><course>312.130341</course><hAcc>0.890061</hAcc><vAcc>0.719489</vAcc></extensions></trkpt>
      <trkpt lon="-4.120094" lat="53.010442"><ele>123.615189</ele><time>2021-07-17T09:10:19Z</time><extensions><speed>1.166549</speed><course>310.268982</course><hAcc>0.890070</hAcc><vAcc>0.719536</vAcc></extensions></trkpt>
      <trkpt lon="-4.120104" lat="53.010451"><ele>123.796181</ele><time>2021-07-17T09:10:20Z</time><extensions><speed>1.142074</speed><course>308.247070</course><hAcc>0.890081</hAcc><vAcc>0.719594</vAcc></extensions></trkpt>
      <trkpt lon="-4.120114" lat="53.010459"><ele>123.981194</ele><time>2021-07-17T09:10:21Z</time><extensions><speed>1.115032</speed><course>304.229858</course><hAcc>0.890092</hAcc><vAcc>0.719655</vAcc></extensions></trkpt>
      <trkpt lon="-4.120124" lat="53.010467"><ele>124.168961</ele><time>2021-07-17T09:10:22Z</time><extensions><speed>1.085016</speed><course>308.310059</course><hAcc>0.890102</hAcc><vAcc>0.719712</vAcc></extensions></trkpt>
      <trkpt lon="-4.120134" lat="53.010474"><ele>124.358200</ele><time>2021-07-17T09:10:23Z</time><extensions><speed>1.051528</speed><course>311.142822</course><hAcc>0.890113</hAcc><vAcc>0.719759</vAcc></extensions></trkpt>
      <trkpt lon="-4.120143" lat="53.010482"><ele>124.547722</ele><time>2021-07-17T09:10:24Z</time><extensions><speed>1.014248</speed><course>305.518036</course><hAcc>0.890122</hAcc><vAcc>0.719793</vAcc></extensions></trkpt>
      <trkpt lon="-4.120152" lat="53.010489"><ele>124.736465</ele><time>2021-07-17T09:10:25Z</time><extensions><speed>0.973047</speed><course>303.061462</course><hAcc>0.890131</hAcc><vAcc>0.719812</vAcc></extensions></trkpt>
      <trkpt lon="-4.120161" lat="53.010495"><ele>124.923439</ele><time>2021-07-17T09:10:26Z</time><extensions><speed>0.927910</speed><course>298.232086</course><hAcc>0.890138</hAcc><vAcc>0.719818</vAcc></extensions></trkpt>
      <trkpt lon="-4.120170" lat="53.010502"><ele>125.107567</ele><time>2021-07-17T09:10:27Z</time><extensions><speed>0.878858</speed><course>289.358276</course><hAcc>0.890144</hAcc><vAcc>0.719815</vAcc></extensions></trkpt>
      <trkpt lon="-4.120178" lat="53.010507"><ele>125.287781</ele><time>2021-07-17T09:10:28Z</time><extensions><speed>0.825999</speed><course>285.924469</course><hAcc>0.890151</hAcc><vAcc>0.719809</vAcc></extensions></trkpt>
      <trkpt lon="-4.120185" lat="53.010513"><ele>125.463165</ele><time>2021-07-17T09:10:29Z</time><extensions><speed>0.769662</speed><course>280.520447</course><hAcc>0.890157</hAcc><vAcc>0.719806</vAcc></extensions></trkpt>
      <trkpt lon="-4.120192" lat="53.010518"><ele>125.632912</ele><time>2021-07-17T09:10:30Z</time><extensions><speed>0.710256</speed><course>286.862061</course><hAcc>0.890163</hAcc><vAcc>0.719810</vAcc></extensions></trkpt>
      <trkpt lon="-4.120198" lat="53.010523"><ele>125.796234</ele><time>2021-07-17T09:10:31Z</time><extensions><speed>0.648528</speed><course>295.700317</course><hAcc>0.890169</hAcc><vAcc>0.719825</vAcc></extensions></trkpt>
      <trkpt lon="-4.120204" lat="53.010527"><ele>125.952431</ele><time>2021-07-17T09:10:32Z</time><extensions><speed>0.585433</speed><course>296.161560</course><hAcc>0.890174</hAcc><vAcc>0.719853</vAcc></extensions></trkpt>
      <trkpt lon="-4.120209" lat="53.010531"><ele>126.100899</ele><time>2021-07-17T09:10:33Z</time><extensions><speed>0.522204</speed><course>298.229218</course><hAcc>0.890176</hAcc><vAcc>0.719891</vAcc></extensions></trkpt>
      <trkpt lon="-4.120214" lat="53.010535"><ele>126.241096</ele><time>2021-07-17T09:10:34Z</time><extensions><speed>0.460283</speed><course>297.545471</course><hAcc>0.890174</hAcc><vAcc>0.719930</vAcc></extensions></trkpt>
      <trkpt lon="-4.120218" lat="53.010538"><ele>126.372528</ele><time>2021-07-17T09:10:35Z</time><extensions><speed>0.401058</speed><course>292.454163</course><hAcc>0.890165</hAcc><vAcc>0.719961</vAcc></extensions></trkpt>
      <trkpt lon="-4.120221" lat="53.010540"><ele>126.494919</ele><time>2021-07-17T09:10:36Z</time><extensions><speed>0.345823</speed><course>287.195465</course><hAcc>0.890150</hAcc><vAcc>0.719966</vAcc></extensions></trkpt>
      <trkpt lon="-4.120224" lat="53.010543"><ele>126.608223</ele><time>2021-07-17T09:10:37Z</time><extensions><speed>0.295371</speed><course>283.339600</course><hAcc>0.890126</hAcc><vAcc>0.719931</vAcc></extensions></trkpt>
      <trkpt lon="-4.120227" lat="53.010545"><ele>126.712616</ele><time>2021-07-17T09:10:38Z</time><extensions><speed>0.249947</speed><course>283.687531</course><hAcc>0.890092</hAcc><vAcc>0.719845</vAcc></extensions></trkpt>
      <trkpt lon="-4.120229" lat="53.010546"><ele>126.808350</ele><time>2021-07-17T09:10:39Z</time><extensions><speed>0.209483</speed><course>284.089417</course><hAcc>0.890050</hAcc><vAcc>0.719703</vAcc></extensions></trkpt>
      <trkpt lon="-4.120231" lat="53.010547"><ele>126.895676</ele><time>2021-07-17T09:10:40Z</time><extensions><speed>0.173618</speed><course>286.432800</course><hAcc>0.889999</hAcc><vAcc>0.719510</vAcc></extensions></trkpt>
      <trkpt lon="-4.120232" lat="53.010548"><ele>126.974884</ele><time>2021-07-17T09:10:41Z</time><extensions><speed>0.142032</speed><course>288.844025</course><hAcc>0.889941</hAcc><vAcc>0.719272</vAcc></extensions></trkpt>
      <trkpt lon="-4.120234" lat="53.010549"><ele>127.046257</ele><time>2021-07-17T09:10:42Z</time><extensions><speed>0.114891</speed><course>294.600861</course><hAcc>0.889877</hAcc><vAcc>0.719006</vAcc></extensions></trkpt>
      <trkpt lon="-4.120235" lat="53.010550"><ele>127.110085</ele><time>2021-07-17T09:10:43Z</time><extensions><speed>0.092602</speed><course>289.399475</course><hAcc>0.889810</hAcc><vAcc>0.718728</vAcc></extensions></trkpt>
      <trkpt lon="-4.120236" lat="53.010550"><ele>127.166695</ele><time>2021-07-17T09:10:44Z</time><extensions><speed>0.075585</speed><course>292.462738</course><hAcc>0.889742</hAcc><vAcc>0.718458</vAcc></extensions></trkpt>
      <trkpt lon="-4.120237" lat="53.010550"><ele>127.216553</ele><time>2021-07-17T09:10:45Z</time><extensions><speed>0.064154</speed><course>292.044128</course><hAcc>0.889677</hAcc><vAcc>0.718210</vAcc></extensions></trkpt>
      <trkpt lon="-4.120238" lat="53.010550"><ele>127.260277</ele><time>2021-07-17T09:10:46Z</time><extensions><speed>0.058149</speed><course>289.426849</course><hAcc>0.889617</hAcc><vAcc>0.717995</vAcc></extensions></trkpt>
      <trkpt lon="-4.120239" lat="53.010550"><ele>127.298630</ele><time>2021-07-17T09:10:47Z</time><extensions><speed>0.056652</speed><course>292.821838</course><hAcc>0.889563</hAcc><vAcc>0.717819</vAcc></extensions></trkpt>
      <trkpt lon="-4.120240" lat="53.010550"><ele>127.332367</ele><time>2021-07-17T09:10:48Z</time><extensions><speed>0.057731</speed><course>287.405121</course><hAcc>0.889518</hAcc><vAcc>0.717684</vAcc></extensions></trkpt>
      <trkpt lon="-4.120241" lat="53.010550"><ele>127.362175</ele><time>2021-07-17T09:10:49Z</time><extensions><speed>0.059475</speed><course>289.328461</course><hAcc>0.889481</hAcc><vAcc>0.717587</vAcc></extensions></trkpt>
      <trkpt lon="-4.120241" lat="53.010550"><ele>127.388748</ele><time>2021-07-17T09:10:50Z</time><extensions><speed>0.060944</speed><course>290.686554</course><hAcc>0.889453</hAcc><vAcc>0.717523</vAcc></extensions></trkpt>
      <trkpt lon="-4.120242" lat="53.010549"><ele>127.412819</ele><time>2021-07-17T09:10:51Z</time><extensions><speed>0.062093</speed><course>291.519623</course><hAcc>0.889433</hAcc><vAcc>0.717489</vAcc></extensions></trkpt>
      <trkpt lon="-4.120243" lat="53.010549"><ele>127.435196</ele><time>2021-07-17T09:10:52Z</time><extensions><speed>0.063426</speed><course>289.260345</course><hAcc>0.889420</hAcc><vAcc>0.717477</vAcc></extensions></trkpt>
      <trkpt lon="-4.120244" lat="53.010549"><ele>127.456749</ele><time>2021-07-17T09:10:53Z</time><extensions><speed>0.065377</speed><course>291.671295</course><hAcc>0.889415</hAcc><vAcc>0.717480</vAcc></extensions></trkpt>
      <trkpt lon="-4.120245" lat="53.010548"><ele>127.478317</ele><time>2021-07-17T09:10:54Z</time><extensions><speed>0.068013</speed><course>285.797272</course><hAcc>0.889415</hAcc><vAcc>0.717492</vAcc></extensions></trkpt>
      <trkpt lon="-4.120246" lat="53.010548"><ele>127.500648</ele><time>2021-07-17T09:10:55Z</time><extensions><speed>0.071108</speed><course>284.045776</course><hAcc>0.889421</hAcc><vAcc>0.717508</vAcc></extensions></trkpt>
      <trkpt lon="-4.120246" lat="53.010548"><ele>127.524384</ele><time>2021-07-17T09:10:56Z</time><extensions><speed>0.074449</speed><course>290.744446</course><hAcc>0.889432</hAcc><vAcc>0.717529</vAcc></extensions></trkpt>
      <trkpt lon="-4.120247" lat="53.010547"><ele>127.550087</ele><time>2021-07-17T09:10:57Z</time><extensions><speed>0.077947</speed><course>286.155334</course><hAcc>0.889449</hAcc><vAcc>0.717557</vAcc></extensions></trkpt>
      <trkpt lon="-4.120248" lat="53.010547"><ele>127.578239</ele><time>2021-07-17T09:10:58Z</time><extensions><speed>0.081784</speed><course>292.078705</course><hAcc>0.889470</hAcc><vAcc>0.717600</vAcc></extensions></trkpt>
      <trkpt lon="-4.120249" lat="53.010546"><ele>127.609116</ele><time>2021-07-17T09:10:59Z</time><extensions><speed>0.086078</speed><course>292.906311</course><hAcc>0.889496</hAcc><vAcc>0.717665</vAcc></extensions></trkpt>
      <trkpt lon="-4.120250" lat="53.010546"><ele>127.642792</ele><time>2021-07-17T09:11:00Z</time><extensions><speed>0.090529</speed><course>291.462067</course><hAcc>0.889527</hAcc><vAcc>0.717756</vAcc></extensions></trkpt>
      <trkpt lon="-4.120251" lat="53.010545"><ele>127.679176</ele><time>2021-07-17T09:11:01Z</time><extensions><speed>0.094500</speed><course>290.448425</course><hAcc>0.889563</hAcc><vAcc>0.717876</vAcc></extensions></trkpt>
      <trkpt lon="-4.120253" lat="53.010545"><ele>127.717987</ele><time>2021-07-17T09:11:02Z</time><extensions><speed>0.097216</speed><course>295.857269</course><hAcc>0.889601</hAcc><vAcc>0.718021</vAcc></extensions></trkpt>
      <trkpt lon="-4.120254" lat="53.010544"><ele>127.758759</ele><time>2021-07-17T09:11:03Z</time><extensions><speed>0.098274</speed><course>298.185364</course><hAcc>0.889643</hAcc><vAcc>0.718182</vAcc></extensions></trkpt>
      <trkpt lon="-4.120255" lat="53.010544"><ele>127.801025</ele><time>2021-07-17T09:11:04Z</time><extensions><speed>0.098167</speed><course>294.469940</course><hAcc>0.889686</hAcc><vAcc>0.718348</vAcc></extensions></trkpt>
      <trkpt lon="-4.120257" lat="53.010544"><ele>127.844437</ele><time>2021-07-17T09:11:05Z</time><extensions><speed>0.098356</speed><course>292.898438</course><hAcc>0.889730</hAcc><vAcc>0.718508</vAcc></extensions></trkpt>
      <trkpt lon="-4.120258" lat="53.010544"><ele>127.888893</ele><time>2021-07-17T09:11:06Z</time><extensions><speed>0.100823</speed><course>292.422791</course><hAcc>0.889773</hAcc><vAcc>0.718657</vAcc></extensions></trkpt>
      <trkpt lon="-4.120260" lat="53.010543"><ele>127.934578</ele><time>2021-07-17T09:11:07Z</time><extensions><speed>0.107485</speed><course>292.622986</course><hAcc>0.889812</hAcc><vAcc>0.718790</vAcc></extensions></trkpt>
      <trkpt lon="-4.120261" lat="53.010544"><ele>127.981918</ele><time>2021-07-17T09:11:08Z</time><extensions><speed>0.119590</speed><course>292.749084</course><hAcc>0.889846</hAcc><vAcc>0.718902</vAcc></extensions></trkpt>
      <trkpt lon="-4.120263" lat="53.010544"><ele>128.031494</ele><time>2021-07-17T09:11:09Z</time><extensions><speed>0.137696</speed><course>294.832458</course><hAcc>0.889873</hAcc><vAcc>0.718991</vAcc></extensions></trkpt>
      <trkpt lon="-4.120265" lat="53.010544"><ele>128.084000</ele><time>2021-07-17T09:11:10Z</time><extensions><speed>0.161916</speed><course>290.563019</course><hAcc>0.889894</hAcc><vAcc>0.719052</vAcc></extensions></trkpt>
      <trkpt lon="-4.120268" lat="53.010545"><ele>128.140030</ele><time>2021-07-17T09:11:11Z</time><extensions><speed>0.192065</speed><course>288.082062</course><hAcc>0.889907</hAcc><vAcc>0.719080</vAcc></extensions></trkpt>
      <trkpt lon="-4.120270" lat="53.010546"><ele>128.200165</ele><time>2021-07-17T09:11:12Z</time><extensions><speed>0.227599</speed><course>289.238037</course><hAcc>0.889914</hAcc><vAcc>0.719073</vAcc></extensions></trkpt>
      <trkpt lon="-4.120274" lat="53.010547"><ele>128.264893</ele><time>2021-07-17T09:11:14Z</time><extensions><speed>0.267841</speed><course>289.037109</course><hAcc>0.889896</hAcc><vAcc>0.719016</vAcc></extensions></trkpt>
      <trkpt lon="-4.120277" lat="53.010548"><ele>128.334427</ele><time>2021-07-17T09:11:15Z</time><extensions><speed>0.312209</speed><course>291.884949</course><hAcc>0.889856</hAcc><vAcc>0.718911</vAcc></extensions></trkpt>
      <trkpt lon="-4.120282" lat="53.010549"><ele>128.408966</ele><time>2021-07-17T09:11:16Z</time><extensions><speed>0.361304</speed><course>287.567657</course><hAcc>0.889811</hAcc><vAcc>0.718773</vAcc></extensions></trkpt>
      <trkpt lon="-4.120287" lat="53.010551"><ele>128.488449</ele><time>2021-07-17T09:11:17Z</time><extensions><speed>0.415880</speed><course>291.768890</course><hAcc>0.889762</hAcc><vAcc>0.718609</vAcc></extensions></trkpt>
      <trkpt lon="-4.120293" lat="53.010552"><ele>128.572678</ele><time>2021-07-17T09:11:18Z</time><extensions><speed>0.475623</speed><course>296.126740</course><hAcc>0.889712</hAcc><vAcc>0.718427</vAcc></extensions></trkpt>
      <trkpt lon="-4.120300" lat="53.010554"><ele>128.661331</ele><time>2021-07-17T09:11:19Z</time><extensions><speed>0.538852</speed><course>297.059143</course><hAcc>0.889661</hAcc><vAcc>0.718236</vAcc></extensions></trkpt>
      <trkpt lon="-4.120309" lat="53.010556"><ele>128.754059</ele><time>2021-07-17T09:11:20Z</time><extensions><speed>0.603170</speed><course>303.696320</course><hAcc>0.889612</hAcc><vAcc>0.718046</vAcc></extensions></trkpt>
      <trkpt lon="-4.120318" lat="53.010557"><ele>128.850769</ele><time>2021-07-17T09:11:21Z</time><extensions><speed>0.665991</speed><course>307.460022</course><hAcc>0.889566</hAcc><vAcc>0.717869</vAcc></extensions></trkpt>
      <trkpt lon="-4.120328" lat="53.010558"><ele>128.952103</ele><time>2021-07-17T09:11:22Z</time><extensions><speed>0.724018</speed><course>302.094666</course><hAcc>0.889526</hAcc><vAcc>0.717715</vAcc></extensions></trkpt>
      <trkpt lon="-4.120339" lat="53.010559"><ele>129.059204</ele><time>2021-07-17T09:11:23Z</time><extensions><speed>0.773791</speed><course>294.763123</course><hAcc>0.889491</hAcc><vAcc>0.717595</vAcc></extensions></trkpt>
      <trkpt lon="-4.120351" lat="53.010560"><ele>129.172928</ele><time>2021-07-17T09:11:24Z</time><extensions><speed>0.814826</speed><course>292.310913</course><hAcc>0.889463</hAcc><vAcc>0.717514</vAcc></extensions></trkpt>
      <trkpt lon="-4.120363" lat="53.010560"><ele>129.293289</ele><time>2021-07-17T09:11:25Z</time><extensions><speed>0.849529</speed><course>286.252472</course><hAcc>0.889440</hAcc><vAcc>0.717468</vAcc></extensions></trkpt>
      <trkpt lon="-4.120376" lat="53.010560"><ele>129.419693</ele><time>2021-07-17T09:11:26Z</time><extensions><speed>0.880471</speed><course>277.085999</course><hAcc>0.889423</hAcc><vAcc>0.717450</vAcc></extensions></trkpt>
      <trkpt lon="-4.120389" lat="53.010559"><ele>129.551132</ele><time>2021-07-17T09:11:27Z</time><extensions><speed>0.910092</speed><course>269.880463</course><hAcc>0.889410</hAcc><vAcc>0.717450</vAcc></extensions></trkpt>
      <trkpt lon="-4.120403" lat="53.010557"><ele>129.686081</ele><time>2021-07-17T09:11:28Z</time><extensions><speed>0.940052</speed><course>256.014618</course><hAcc>0.889401</hAcc><vAcc>0.717459</vAcc></extensions></trkpt>
      <trkpt lon="-4.120416" lat="53.010554"><ele>129.822983</ele><time>2021-07-17T09:11:29Z</time><extensions><speed>0.970882</speed><course>250.524368</course><hAcc>0.889393</hAcc><vAcc>0.717465</vAcc></extensions></trkpt>
      <trkpt lon="-4.120430" lat="53.010551"><ele>129.960724</ele><time>2021-07-17T09:11:30Z</time><extensions><speed>1.002434</speed><course>237.491638</course><hAcc>0.889386</hAcc><vAcc>0.717456</vAcc></extensions></trkpt>
      <trkpt lon="-4.120443" lat="53.010547"><ele>130.098618</ele><time>2021-07-17T09:11:31Z</time><extensions><speed>1.034200</speed><course>231.976761</course><hAcc>0.889381</hAcc><vAcc>0.717424</vAcc></extensions></trkpt>
      <trkpt lon="-4.120456" lat="53.010542"><ele>130.236343</ele><time>2021-07-17T09:11:32Z</time><extensions><speed>1.065607</speed><course>228.504318</course><hAcc>0.889378</hAcc><vAcc>0.717369</vAcc></extensions></trkpt>
      <trkpt lon="-4.120470" lat="53.010536"><ele>130.373779</ele><time>2021-07-17T09:11:33Z</time><extensions><speed>1.095953</speed><course>227.577087</course><hAcc>0.889376</hAcc><vAcc>0.717303</vAcc></extensions></trkpt>
      <trkpt lon="-4.120483" lat="53.010530"><ele>130.510925</ele><time>2021-07-17T09:11:34Z</time><extensions><speed>1.124274</speed><course>219.513672</course><hAcc>0.889377</hAcc><vAcc>0.717244</vAcc></extensions></trkpt>
      <trkpt lon="-4.120496" lat="53.010523"><ele>130.647858</ele><time>2021-07-17T09:11:35Z</time><extensions><speed>1.149509</speed><course>224.903015</course><hAcc>0.889381</hAcc><vAcc>0.717209</vAcc></extensions></trkpt>
      <trkpt lon="-4.120508" lat="53.010516"><ele>130.784424</ele><time>2021-07-17T09:11:36Z</time><extensions><speed>1.170917</speed><course>222.390198</course><hAcc>0.889389</hAcc><vAcc>0.717212</vAcc></extensions></trkpt>
      <trkpt lon="-4.120521" lat="53.010509"><ele>130.920410</ele><time>2021-07-17T09:11:37Z</time><extensions><speed>1.188372</speed><course>223.313202</course><hAcc>0.889404</hAcc><vAcc>0.717260</vAcc></extensions></trkpt>
      <trkpt lon="-4.120533" lat="53.010501"><ele>131.055756</ele><time>2021-07-17T09:11:38Z</time><extensions><speed>1.202223</speed><course>224.045700</course><hAcc>0.889428</hAcc><vAcc>0.717352</vAcc></extensions></trkpt>
      <trkpt lon="-4.120545" lat="53.010493"><ele>131.190475</ele><time>2021-07-17T09:11:39Z</time><extensions><speed>1.212869</speed><course>224.975723</course><hAcc>0.889467</hAcc><vAcc>0.717486</vAcc></extensions></trkpt>
      <trkpt lon="-4.120557" lat="53.010485"><ele>131.324509</ele><time>2021-07-17T09:11:40Z</time><extensions><speed>1.220930</speed><course>226.513992</course><hAcc>0.889529</hAcc><vAcc>0.717660</vAcc></extensions></trkpt>
      <trkpt lon="-4.120569" lat="53.010476"><ele>131.457687</ele><time>2021-07-17T09:11:41Z</time><extensions><speed>1.227331</speed><course>227.291473</course><hAcc>0.889623</hAcc><vAcc>0.717877</vAcc></extensions></trkpt>
      <trkpt lon="-4.120580" lat="53.010468"><ele>131.589600</ele><time>2021-07-17T09:11:42Z</time><extensions><speed>1.233044</speed><course>231.833313</course><hAcc>0.889767</hAcc><vAcc>0.718142</vAcc></extensions></trkpt>
      <trkpt lon="-4.120591" lat="53.010459"><ele>131.719833</ele><time>2021-07-17T09:11:43Z</time><extensions><speed>1.238703</speed><course>230.421005</course><hAcc>0.889981</hAcc><vAcc>0.718468</vAcc></extensions></trkpt>
      <trkpt lon="-4.120602" lat="53.010450"><ele>131.848022</ele><time>2021-07-17T09:11:44Z</time><extensions><speed>1.244310</speed><course>235.980087</course><hAcc>0.890294</hAcc><vAcc>0.718874</vAcc></extensions></trkpt>
      <trkpt lon="-4.120613" lat="53.010441"><ele>131.973816</ele><time>2021-07-17T09:11:45Z</time><extensions><speed>1.249773</speed><course>243.213364</course><hAcc>0.890738</hAcc><vAcc>0.719385</vAcc></extensions></trkpt>
      <trkpt lon="-4.120624" lat="53.010432"><ele>132.096939</ele><time>2021-07-17T09:11:46Z</time><extensions><speed>1.254959</speed><course>253.165268</course><hAcc>0.891353</hAcc><vAcc>0.720032</vAcc></extensions></trkpt>
      <trkpt lon="-4.120634" lat="53.010422"><ele>132.217087</ele><time>2021-07-17T09:11:46Z</time><extensions><speed>1.259566</speed><course>266.505096</course><hAcc>0.892193</hAcc><vAcc>0.720855</vAcc></extensions></trkpt>
      <trkpt lon="-4.120644" lat="53.010412"><ele>132.334259</ele><time>2021-07-17T09:11:47Z</time><extensions><speed>1.263663</speed><course>267.255646</course><hAcc>0.893297</hAcc><vAcc>0.721873</vAcc></extensions></trkpt>
      <trkpt lon="-4.120654" lat="53.010403"><ele>132.448334</ele><time>2021-07-17T09:11:48Z</time><extensions><speed>1.267463</speed><course>271.176971</course><hAcc>0.894669</hAcc><vAcc>0.723073</vAcc></extensions></trkpt>
      <trkpt lon="-4.120663" lat="53.010393"><ele>132.559494</ele><time>2021-07-17T09:11:49Z</time><extensions><speed>1.271062</speed><course>283.145996</course><hAcc>0.896314</hAcc><vAcc>0.724428</vAcc></extensions></trkpt>
      <trkpt lon="-4.120673" lat="53.010383"><ele>132.667892</ele><time>2021-07-17T09:11:50Z</time><extensions><speed>1.274298</speed><course>291.499756</course><hAcc>0.898198</hAcc><vAcc>0.725878</vAcc></extensions></trkpt>
      <trkpt lon="-4.120682" lat="53.010373"><ele>132.773697</ele><time>2021-07-17T09:11:51Z</time><extensions><speed>1.276969</speed><course>295.960785</course><hAcc>0.900247</hAcc><vAcc>0.727329</vAcc></extensions></trkpt>
      <trkpt lon="-4.120692" lat="53.010363"><ele>132.877075</ele><time>2021-07-17T09:11:52Z</time><extensions><speed>1.279255</speed><course>298.309418</course><hAcc>0.902336</hAcc><vAcc>0.728655</vAcc></extensions></trkpt>
      <trkpt lon="-4.120701" lat="53.010353"><ele>132.978195</ele><time>2021-07-17T09:11:53Z</time><extensions><speed>1.281294</speed><course>301.442566</course><hAcc>0.904293</hAcc><vAcc>0.729717</vAcc></extensions></trkpt>
      <trkpt lon="-4.120711" lat="53.010343"><ele>133.077423</ele><time>2021-07-17T09:11:54Z</time><extensions><speed>1.283183</speed><course>301.820831</course><hAcc>0.905923</hAcc><vAcc>0.730401</vAcc></extensions></trkpt>
      <trkpt lon="-4.120720" lat="53.010333"><ele>133.175400</ele><time>2021-07-17T09:11:55Z</time><extensions><speed>1.285000</speed><course>306.533081</course><hAcc>0.907061</hAcc><vAcc>0.730681</vAcc></extensions></trkpt>
      <trkpt lon="-4.120730" lat="53.010323"><ele>133.272827</ele><time>2021-07-17T09:11:56Z</time><extensions><speed>1.286664</speed><course>310.759277</course><hAcc>0.907675</hAcc><vAcc>0.730721</vAcc></extensions></trkpt>
      <trkpt lon="-4.120741" lat="53.010314"><ele>133.370300</ele><time>2021-07-17T09:11:57Z</time><extensions><speed>1.288194</speed><course>315.721252</course><hAcc>0.908031</hAcc><vAcc>0.731019</vAcc></extensions></trkpt>
      <trkpt lon="-4.120751" lat="53.010304"><ele>133.468369</ele><time>2021-07-17T09:11:58Z</time><extensions><speed>1.289453</speed><course>321.376434</course><hAcc>0.908953</hAcc><vAcc>0.732597</vAcc></extensions></trkpt>
      <trkpt lon="-4.120762" lat="53.010294"><ele>133.567505</ele><time>2021-07-17T09:11:59Z</time><extensions><speed>1.290177</speed><course>321.893402</course><hAcc>0.912178</hAcc><vAcc>0.737244</vAcc></extensions></trkpt>
      <trkpt lon="-4.120773" lat="53.010285"><ele>133.668076</ele><time>2021-07-17T09:12:00Z</time><extensions><speed>1.290333</speed><course>325.867676</course><hAcc>0.920787</hAcc><vAcc>0.747733</vAcc></extensions></trkpt>
      <trkpt lon="-4.120784" lat="53.010276"><ele>133.770432</ele><time>2021-07-17T09:12:01Z</time><extensions><speed>1.289792</speed><course>319.975250</course><hAcc>0.939613</hAcc><vAcc>0.767953</vAcc></extensions></trkpt>
      <trkpt lon="-4.120796" lat="53.010266"><ele>133.874954</ele><time>2021-07-17T09:12:02Z</time><extensions><speed>1.288449</speed><course>320.826599</course><hAcc>0.975355</hAcc><vAcc>0.802750</vAcc></extensions></trkpt>
      <trkpt lon="-4.120811" lat="53.010261"><ele>134.036209</ele><time>2021-07-17T09:12:03Z</time><extensions><speed>1.100283</speed><course>207.637573</course><hAcc>0.936833</hAcc><vAcc>0.766846</vAcc></extensions></trkpt>
      <trkpt lon="-4.120825" lat="53.010255"><ele>134.240845</ele><time>2021-07-17T09:12:04Z</time><extensions><speed>1.087043</speed><course>199.781464</course><hAcc>0.917577</hAcc><vAcc>0.746564</vAcc></extensions></trkpt>
      <trkpt lon="-4.120839" lat="53.010250"><ele>134.446899</ele><time>2021-07-17T09:12:05Z</time><extensions><speed>1.072045</speed><course>204.898392</course><hAcc>0.909661</hAcc><vAcc>0.736805</vAcc></extensions></trkpt>
      <trkpt lon="-4.120853" lat="53.010246"><ele>134.654007</ele><time>2021-07-17T09:12:06Z</time><extensions><speed>1.055954</speed><course>218.988647</course><hAcc>0.907572</hAcc><vAcc>0.733226</vAcc></extensions></trkpt>
      <trkpt lon="-4.120866" lat="53.010241"><ele>134.861603</ele><time>2021-07-17T09:12:07Z</time><extensions><speed>1.038966</speed><course>240.875916</course><hAcc>0.907807</hAcc><vAcc>0.732741</vAcc></extensions></trkpt>
      <trkpt lon="-4.120880" lat="53.010237"><ele>135.069214</ele><time>2021-07-17T09:12:08Z</time><extensions><speed>1.021066</speed><course>240.875916</course><hAcc>0.908414</hAcc><vAcc>0.733381</vAcc></extensions></trkpt>
      <trkpt lon="-4.120893" lat="53.010233"><ele>135.276398</ele><time>2021-07-17T09:12:09Z</time><extensions><speed>1.002257</speed><course>240.875916</course><hAcc>0.908490</hAcc><vAcc>0.734042</vAcc></extensions></trkpt>
      <trkpt lon="-4.120907" lat="53.010229"><ele>135.482712</ele><time>2021-07-17T09:12:10Z</time><extensions><speed>0.982509</speed><course>240.875916</course><hAcc>0.907772</hAcc><vAcc>0.734208</vAcc></extensions></trkpt>
      <trkpt lon="-4.120920" lat="53.010225"><ele>135.687668</ele><time>2021-07-17T09:12:11Z</time><extensions><speed>0.961777</speed><course>240.875916</course><hAcc>0.906332</hAcc><vAcc>0.733737</vAcc></extensions></trkpt>
      <trkpt lon="-4.120933" lat="53.010222"><ele>135.890656</ele><time>2021-07-17T09:12:12Z</time><extensions><speed>0.940251</speed><course>240.875916</course><hAcc>0.904390</hAcc><vAcc>0.732692</vAcc></extensions></trkpt>
      <trkpt lon="-4.120945" lat="53.010218"><ele>136.090866</ele><time>2021-07-17T09:12:13Z</time><extensions><speed>0.918084</speed><course>269.430084</course><hAcc>0.902199</hAcc><vAcc>0.731233</vAcc></extensions></trkpt>
      <trkpt lon="-4.120957" lat="53.010215"><ele>136.287323</ele><time>2021-07-17T09:12:14Z</time><extensions><speed>0.895399</speed><course>274.056000</course><hAcc>0.899978</hAcc><vAcc>0.729545</vAcc></extensions></trkpt>
      <trkpt lon="-4.120969" lat="53.010211"><ele>136.478973</ele><time>2021-07-17T09:12:15Z</time><extensions><speed>0.872154</speed><course>273.580658</course><hAcc>0.897892</hAcc><vAcc>0.727795</vAcc></extensions></trkpt>
      <trkpt lon="-4.120980" lat="53.010208"><ele>136.664810</ele><time>2021-07-17T09:12:16Z</time><extensions><speed>0.847909</speed><course>266.285736</course><hAcc>0.896044</hAcc><vAcc>0.726116</vAcc></extensions></trkpt>
      <trkpt lon="-4.120991" lat="53.010204"><ele>136.843872</ele><time>2021-07-17T09:12:17Z</time><extensions><speed>0.821884</speed><course>280.416809</course><hAcc>0.894485</hAcc><vAcc>0.724598</vAcc></extensions></trkpt>
      <trkpt lon="-4.121002" lat="53.010200"><ele>137.015289</ele><time>2021-07-17T09:12:18Z</time><extensions><speed>0.793221</speed><course>289.633057</course><hAcc>0.893224</hAcc><vAcc>0.723289</vAcc></extensions></trkpt>
      <trkpt lon="-4.121012" lat="53.010197"><ele>137.178284</ele><time>2021-07-17T09:12:19Z</time><extensions><speed>0.761420</speed><course>274.042023</course><hAcc>0.892241</hAcc><vAcc>0.722206</vAcc></extensions></trkpt>
      <trkpt lon="-4.121021" lat="53.010193"><ele>137.332306</ele><time>2021-07-17T09:12:20Z</time><extensions><speed>0.726506</speed><course>259.398621</course><hAcc>0.891500</hAcc><vAcc>0.721337</vAcc></extensions></trkpt>
      <trkpt lon="-4.121030" lat="53.010190"><ele>137.477081</ele><time>2021-07-17T09:12:21Z</time><extensions><speed>0.688864</speed><course>235.228027</course><hAcc>0.890961</hAcc><vAcc>0.720657</vAcc></extensions></trkpt>
      <trkpt lon="-4.121038" lat="53.010186"><ele>137.612396</ele><time>2021-07-17T09:12:22Z</time><extensions><speed>0.648968</speed><course>233.943741</course><hAcc>0.890580</hAcc><vAcc>0.720133</vAcc></extensions></trkpt>
      <trkpt lon="-4.121045" lat="53.010183"><ele>137.737793</ele><time>2021-07-17T09:12:23Z</time><extensions><speed>0.607192</speed><course>251.986771</course><hAcc>0.890319</hAcc><vAcc>0.719735</vAcc></extensions></trkpt>
      <trkpt lon="-4.121052" lat="53.010179"><ele>137.852615</ele><time>2021-07-17T09:12:24Z</time><extensions><speed>0.563626</speed><course>230.632401</course><hAcc>0.890143</hAcc><vAcc>0.719435</vAcc></extensions></trkpt>
      <trkpt lon="-4.121058" lat="53.010176"><ele>137.956482</ele><time>2021-07-17T09:12:25Z</time><extensions><speed>0.518322</speed><course>208.539734</course><hAcc>0.890026</hAcc><vAcc>0.719209</vAcc></extensions></trkpt>
      <trkpt lon="-4.121063" lat="53.010173"><ele>138.049225</ele><time>2021-07-17T09:12:26Z</time><extensions><speed>0.471856</speed><course>217.062653</course><hAcc>0.889947</hAcc><vAcc>0.719039</vAcc></extensions></trkpt>
      <trkpt lon="-4.121067" lat="53.010170"><ele>138.130859</ele><time>2021-07-17T09:12:27Z</time><extensions><speed>0.425626</speed><course>216.480164</course><hAcc>0.889892</hAcc><vAcc>0.718906</vAcc></extensions></trkpt>
      <trkpt lon="-4.121071" lat="53.010167"><ele>138.201385</ele><time>2021-07-17T09:12:28Z</time><extensions><speed>0.381191</speed><course>215.204285</course><hAcc>0.889851</hAcc><vAcc>0.718795</vAcc></extensions></trkpt>
      <trkpt lon="-4.121074" lat="53.010164"><ele>138.260925</ele><time>2021-07-17T09:12:29Z</time><extensions><speed>0.339494</speed><course>192.608246</course><hAcc>0.889818</hAcc><vAcc>0.718697</vAcc></extensions></trkpt>
      <trkpt lon="-4.121076" lat="53.010161"><ele>138.309906</ele><time>2021-07-17T09:12:30Z</time><extensions><speed>0.301286</speed><course>196.818375</course><hAcc>0.889790</hAcc><vAcc>0.718603</vAcc></extensions></trkpt>
      <trkpt lon="-4.121078" lat="53.010159"><ele>138.348984</ele><time>2021-07-17T09:12:31Z</time><extensions><speed>0.267514</speed><course>200.564194</course><hAcc>0.889764</hAcc><vAcc>0.718513</vAcc></extensions></trkpt>
      <trkpt lon="-4.121079" lat="53.010157"><ele>138.379089</ele><time>2021-07-17T09:12:32Z</time><extensions><speed>0.239119</speed><course>224.718231</course><hAcc>0.889739</hAcc><vAcc>0.718428</vAcc></extensions></trkpt>
      <trkpt lon="-4.121080" lat="53.010155"><ele>138.401443</ele><time>2021-07-17T09:12:33Z</time><extensions><speed>0.216482</speed><course>228.969803</course><hAcc>0.889716</hAcc><vAcc>0.718351</vAcc></extensions></trkpt>
      <trkpt lon="-4.121080" lat="53.010153"><ele>138.417419</ele><time>2021-07-17T09:12:34Z</time><extensions><speed>0.199227</speed><course>250.366501</course><hAcc>0.889696</hAcc><vAcc>0.718286</vAcc></extensions></trkpt>
      <trkpt lon="-4.121081" lat="53.010151"><ele>138.428467</ele><time>2021-07-17T09:12:35Z</time><extensions><speed>0.186657</speed><course>-1.000000</course><hAcc>0.889679</hAcc><vAcc>0.718234</vAcc></extensions></trkpt>
      <trkpt lon="-4.121081" lat="53.010150"><ele>138.436035</ele><time>2021-07-17T09:12:36Z</time><extensions><speed>0.178272</speed><course>232.063629</course><hAcc>0.889666</hAcc><vAcc>0.718197</vAcc></extensions></trkpt>
      <trkpt lon="-4.121081" lat="53.010148"><ele>138.441605</ele><time>2021-07-17T09:12:37Z</time><extensions><speed>0.174066</speed><course>232.063614</course><hAcc>0.889656</hAcc><vAcc>0.718175</vAcc></extensions></trkpt>
      <trkpt lon="-4.121082" lat="53.010147"><ele>138.446793</ele><time>2021-07-17T09:12:38Z</time><extensions><speed>0.174416</speed><course>232.063614</course><hAcc>0.889651</hAcc><vAcc>0.718168</vAcc></extensions></trkpt>
      <trkpt lon="-4.121082" lat="53.010145"><ele>138.453171</ele><time>2021-07-17T09:12:39Z</time><extensions><speed>0.179662</speed><course>232.063599</course><hAcc>0.889650</hAcc><vAcc>0.718174</vAcc></extensions></trkpt>
      <trkpt lon="-4.121083" lat="53.010144"><ele>138.462265</ele><time>2021-07-17T09:12:40Z</time><extensions><speed>0.189863</speed><course>232.063599</course><hAcc>0.889653</hAcc><vAcc>0.718193</vAcc></extensions></trkpt>
      <trkpt lon="-4.121085" lat="53.010142"><ele>138.475403</ele><time>2021-07-17T09:12:41Z</time><extensions><speed>0.204552</speed><course>232.063583</course><hAcc>0.889658</hAcc><vAcc>0.718222</vAcc></extensions></trkpt>
      <trkpt lon="-4.121087" lat="53.010140"><ele>138.493576</ele><time>2021-07-17T09:12:42Z</time><extensions><speed>0.222503</speed><course>232.063583</course><hAcc>0.889664</hAcc><vAcc>0.718258</vAcc></extensions></trkpt>
      <trkpt lon="-4.121089" lat="53.010139"><ele>138.517685</ele><time>2021-07-17T09:12:43Z</time><extensions><speed>0.242324</speed><course>248.555511</course><hAcc>0.889670</hAcc><vAcc>0.718298</vAcc></extensions></trkpt>
      <trkpt lon="-4.121092" lat="53.010137"><ele>138.548477</ele><time>2021-07-17T09:12:44Z</time><extensions><speed>0.263084</speed><course>214.727661</course><hAcc>0.889674</hAcc><vAcc>0.718335</vAcc></extensions></trkpt>
      <trkpt lon="-4.121095" lat="53.010136"><ele>138.586624</ele><time>2021-07-17T09:12:45Z</time><extensions><speed>0.284426</speed><course>215.656113</course><hAcc>0.889674</hAcc><vAcc>0.718360</vAcc></extensions></trkpt>
      <trkpt lon="-4.121098" lat="53.010134"><ele>138.632782</ele><time>2021-07-17T09:12:46Z</time><extensions><speed>0.306448</speed><course>205.637772</course><hAcc>0.889668</hAcc><vAcc>0.718368</vAcc></extensions></trkpt>
      <trkpt lon="-4.121103" lat="53.010133"><ele>138.687469</ele><time>2021-07-17T09:12:47Z</time><extensions><speed>0.329219</speed><course>201.575424</course><hAcc>0.889654</hAcc><vAcc>0.718350</vAcc></extensions></trkpt>
      <trkpt lon="-4.121107" lat="53.010132"><ele>138.751083</ele><time>2021-07-17T09:12:48Z</time><extensions><speed>0.352432</speed><course>196.854248</course><hAcc>0.889632</hAcc><vAcc>0.718300</vAcc></extensions></trkpt>
      <trkpt lon="-4.121112" lat="53.010130"><ele>138.823776</ele><time>2021-07-17T09:12:49Z</time><extensions><speed>0.375484</speed><course>198.264053</course><hAcc>0.889601</hAcc><vAcc>0.718212</vAcc></extensions></trkpt>
      <trkpt lon="-4.121118" lat="53.010129"><ele>138.905594</ele><time>2021-07-17T09:12:50Z</time><extensions><speed>0.397570</speed><course>198.636932</course><hAcc>0.889559</hAcc><vAcc>0.718084</vAcc></extensions></trkpt>
      <trkpt lon="-4.121124" lat="53.010129"><ele>138.996429</ele><time>2021-07-17T09:12:51Z</time><extensions><speed>0.417806</speed><course>192.727798</course><hAcc>0.889507</hAcc><vAcc>0.717916</vAcc></extensions></trkpt>
      <trkpt lon="-4.121130" lat="53.010128"><ele>139.096039</ele><time>2021-07-17T09:12:52Z</time><extensions><speed>0.435276</speed><course>184.691818</course><hAcc>0.889446</hAcc><vAcc>0.717710</vAcc></extensions></trkpt>
      <trkpt lon="-4.121136" lat="53.010128"><ele>139.203979</ele><time>2021-07-17T09:12:53Z</time><extensions><speed>0.449138</speed><course>177.917740</course><hAcc>0.889379</hAcc><vAcc>0.717472</vAcc></extensions></trkpt>
      <trkpt lon="-4.121143" lat="53.010127"><ele>139.319580</ele><time>2021-07-17T09:12:54Z</time><extensions><speed>0.459030</speed><course>169.935883</course><hAcc>0.889307</hAcc><vAcc>0.717209</vAcc></extensions></trkpt>
      <trkpt lon="-4.121150" lat="53.010127"><ele>139.441971</ele><time>2021-07-17T09:12:55Z</time><extensions><speed>0.465744</speed><course>168.290512</course><hAcc>0.889234</hAcc><vAcc>0.716932</vAcc></extensions></trkpt>
      <trkpt lon="-4.121157" lat="53.010128"><ele>139.570251</ele><time>2021-07-17T09:12:56Z</time><extensions><speed>0.470735</speed><course>175.847488</course><hAcc>0.889165</hAcc><vAcc>0.716654</vAcc></extensions></trkpt>
      <trkpt lon="-4.121164" lat="53.010128"><ele>139.703720</ele><time>2021-07-17T09:12:57Z</time><extensions><speed>0.475198</speed><course>182.489380</course><hAcc>0.889102</hAcc><vAcc>0.716392</vAcc></extensions></trkpt>
      <trkpt lon="-4.121171" lat="53.010129"><ele>139.841675</ele><time>2021-07-17T09:12:58Z</time><extensions><speed>0.480156</speed><course>193.224472</course><hAcc>0.889051</hAcc><vAcc>0.716166</vAcc></extensions></trkpt>
      <trkpt lon="-4.121178" lat="53.010131"><ele>139.983353</ele><time>2021-07-17T09:12:59Z</time><extensions><speed>0.486026</speed><course>210.457108</course><hAcc>0.889013</hAcc><vAcc>0.715996</vAcc></extensions></trkpt>
      <trkpt lon="-4.121184" lat="53.010132"><ele>140.127869</ele><time>2021-07-17T09:13:00Z</time><extensions><speed>0.492338</speed><course>227.054108</course><hAcc>0.888992</hAcc><vAcc>0.715897</vAcc></extensions></trkpt>
      <trkpt lon="-4.121191" lat="53.010134"><ele>140.274109</ele><time>2021-07-17T09:13:01Z</time><extensions><speed>0.498125</speed><course>247.666534</course><hAcc>0.888989</hAcc><vAcc>0.715881</vAcc></extensions></trkpt>
      <trkpt lon="-4.121198" lat="53.010137"><ele>140.420853</ele><time>2021-07-17T09:13:02Z</time><extensions><speed>0.502306</speed><course>261.197876</course><hAcc>0.889005</hAcc><vAcc>0.715948</vAcc></extensions></trkpt>
      <trkpt lon="-4.121204" lat="53.010139"><ele>140.567215</ele><time>2021-07-17T09:13:03Z</time><extensions><speed>0.503975</speed><course>263.217255</course><hAcc>0.889040</hAcc><vAcc>0.716092</vAcc></extensions></trkpt>
      <trkpt lon="-4.121210" lat="53.010142"><ele>140.712814</ele><time>2021-07-17T09:13:04Z</time><extensions><speed>0.502974</speed><course>271.463165</course><hAcc>0.889091</hAcc><vAcc>0.716301</vAcc></extensions></trkpt>
      <trkpt lon="-4.121216" lat="53.010145"><ele>140.857559</ele><time>2021-07-17T09:13:05Z</time><extensions><speed>0.499718</speed><course>281.991608</course><hAcc>0.889157</hAcc><vAcc>0.716560</vAcc></extensions></trkpt>
      <trkpt lon="-4.121221" lat="53.010148"><ele>141.001297</ele><time>2021-07-17T09:13:06Z</time><extensions><speed>0.494630</speed><course>285.895782</course><hAcc>0.889233</hAcc><vAcc>0.716852</vAcc></extensions></trkpt>
      <trkpt lon="-4.121226" lat="53.010151"><ele>141.143768</ele><time>2021-07-17T09:13:07Z</time><extensions><speed>0.487863</speed><course>287.327179</course><hAcc>0.889315</hAcc><vAcc>0.717162</vAcc></extensions></trkpt>
      <trkpt lon="-4.121231" lat="53.010154"><ele>141.285034</ele><time>2021-07-17T09:13:08Z</time><extensions><speed>0.479404</speed><course>297.396240</course><hAcc>0.889399</hAcc><vAcc>0.717476</vAcc></extensions></trkpt>
      <trkpt lon="-4.121236" lat="53.010157"><ele>141.425629</ele><time>2021-07-17T09:13:09Z</time><extensions><speed>0.469634</speed><course>299.473175</course><hAcc>0.889481</hAcc><vAcc>0.717779</vAcc></extensions></trkpt>
      <trkpt lon="-4.121241" lat="53.010160"><ele>141.566376</ele><time>2021-07-17T09:13:10Z</time><extensions><speed>0.459242</speed><course>297.683289</course><hAcc>0.889555</hAcc><vAcc>0.718057</vAcc></extensions></trkpt>
      <trkpt lon="-4.121245" lat="53.010163"><ele>141.708237</ele><time>2021-07-17T09:13:11Z</time><extensions><speed>0.448933</speed><course>292.365356</course><hAcc>0.889618</hAcc><vAcc>0.718295</vAcc></extensions></trkpt>
      <trkpt lon="-4.121250" lat="53.010166"><ele>141.852158</ele><time>2021-07-17T09:13:12Z</time><extensions><speed>0.439582</speed><course>291.092651</course><hAcc>0.889668</hAcc><vAcc>0.718477</vAcc></extensions></trkpt>
      <trkpt lon="-4.121254" lat="53.010169"><ele>141.998749</ele><time>2021-07-17T09:13:13Z</time><extensions><speed>0.432502</speed><course>297.007721</course><hAcc>0.889703</hAcc><vAcc>0.718592</vAcc></extensions></trkpt>
      <trkpt lon="-4.121259" lat="53.010171"><ele>142.148468</ele><time>2021-07-17T09:13:14Z</time><extensions><speed>0.429018</speed><course>291.539093</course><hAcc>0.889722</hAcc><vAcc>0.718636</vAcc></extensions></trkpt>
      <trkpt lon="-4.121264" lat="53.010174"><ele>142.301743</ele><time>2021-07-17T09:13:15Z</time><extensions><speed>0.429986</speed><course>293.314819</course><hAcc>0.889725</hAcc><vAcc>0.718607</vAcc></extensions></trkpt>
      <trkpt lon="-4.121269" lat="53.010176"><ele>142.459167</ele><time>2021-07-17T09:13:16Z</time><extensions><speed>0.436104</speed><course>297.043213</course><hAcc>0.889714</hAcc><vAcc>0.718511</vAcc></extensions></trkpt>
      <trkpt lon="-4.121275" lat="53.010178"><ele>142.621521</ele><time>2021-07-17T09:13:18Z</time><extensions><speed>0.448047</speed><course>301.573547</course><hAcc>0.889673</hAcc><vAcc>0.718342</vAcc></extensions></trkpt>
      <trkpt lon="-4.121281" lat="53.010180"><ele>142.789001</ele><time>2021-07-17T09:13:19Z</time><extensions><speed>0.465555</speed><course>305.542847</course><hAcc>0.889604</hAcc><vAcc>0.718113</vAcc></extensions></trkpt>
      <trkpt lon="-4.121287" lat="53.010182"><ele>142.962097</ele><time>2021-07-17T09:13:20Z</time><extensions><speed>0.487502</speed><course>304.461029</course><hAcc>0.889527</hAcc><vAcc>0.717851</vAcc></extensions></trkpt>
      <trkpt lon="-4.121294" lat="53.010184"><ele>143.140945</ele><time>2021-07-17T09:13:21Z</time><extensions><speed>0.512275</speed><course>304.519958</course><hAcc>0.889446</hAcc><vAcc>0.717568</vAcc></extensions></trkpt>
      <trkpt lon="-4.121301" lat="53.010185"><ele>143.325516</ele><time>2021-07-17T09:13:22Z</time><extensions><speed>0.537868</speed><course>306.835541</course><hAcc>0.889364</hAcc><vAcc>0.717277</vAcc></extensions></trkpt>
      <trkpt lon="-4.121309" lat="53.010187"><ele>143.515579</ele><time>2021-07-17T09:13:23Z</time><extensions><speed>0.562498</speed><course>312.924469</course><hAcc>0.889285</hAcc><vAcc>0.716991</vAcc></extensions></trkpt>
      <trkpt lon="-4.121317" lat="53.010188"><ele>143.710693</ele><time>2021-07-17T09:13:24Z</time><extensions><speed>0.584460</speed><course>313.121582</course><hAcc>0.889211</hAcc><vAcc>0.716723</vAcc></extensions></trkpt>
      <trkpt lon="-4.121326" lat="53.010189"><ele>143.910202</ele><time>2021-07-17T09:13:25Z</time><extensions><speed>0.602461</speed><course>312.363678</course><hAcc>0.889147</hAcc><vAcc>0.716486</vAcc></extensions></trkpt>
      <trkpt lon="-4.121335" lat="53.010190"><ele>144.113098</ele><time>2021-07-17T09:13:26Z</time><extensions><speed>0.616129</speed><course>309.905548</course><hAcc>0.889095</hAcc><vAcc>0.716294</vAcc></extensions></trkpt>
      <trkpt lon="-4.121344" lat="53.010191"><ele>144.318237</ele><time>2021-07-17T09:13:27Z</time><extensions><speed>0.625715</speed><course>308.597687</course><hAcc>0.889058</hAcc><vAcc>0.716156</vAcc></extensions></trkpt>
      <trkpt lon="-4.121353" lat="53.010192"><ele>144.524429</ele><time>2021-07-17T09:13:28Z</time><extensions><speed>0.631928</speed><course>307.103394</course><hAcc>0.889036</hAcc><vAcc>0.716079</vAcc></extensions></trkpt>
      <trkpt lon="-4.121363" lat="53.010193"><ele>144.730576</ele><time>2021-07-17T09:13:29Z</time><extensions><speed>0.635618</speed><course>306.897400</course><hAcc>0.889030</hAcc><vAcc>0.716066</vAcc></extensions></trkpt>
      <trkpt lon="-4.121372" lat="53.010194"><ele>144.935822</ele><time>2021-07-17T09:13:30Z</time><extensions><speed>0.637820</speed><course>302.152618</course><hAcc>0.889039</hAcc><vAcc>0.716118</vAcc></extensions></trkpt>
      <trkpt lon="-4.121382" lat="53.010194"><ele>145.139633</ele><time>2021-07-17T09:13:31Z</time><extensions><speed>0.639150</speed><course>297.726410</course><hAcc>0.889063</hAcc><vAcc>0.716227</vAcc></extensions></trkpt>
      <trkpt lon="-4.121391" lat="53.010195"><ele>145.341461</ele><time>2021-07-17T09:13:32Z</time><extensions><speed>0.639623</speed><course>300.194183</course><hAcc>0.889098</hAcc><vAcc>0.716382</vAcc></extensions></trkpt>
      <trkpt lon="-4.121400" lat="53.010196"><ele>145.540741</ele><time>2021-07-17T09:13:33Z</time><extensions><speed>0.639671</speed><course>297.151825</course><hAcc>0.889142</hAcc><vAcc>0.716571</vAcc></extensions></trkpt>
      <trkpt lon="-4.121410" lat="53.010197"><ele>145.737061</ele><time>2021-07-17T09:13:34Z</time><extensions><speed>0.640036</speed><course>298.399384</course><hAcc>0.889192</hAcc><vAcc>0.716778</vAcc></extensions></trkpt>
      <trkpt lon="-4.121419" lat="53.010199"><ele>145.930099</ele><time>2021-07-17T09:13:35Z</time><extensions><speed>0.640973</speed><course>300.837921</course><hAcc>0.889244</hAcc><vAcc>0.716991</vAcc></extensions></trkpt>
      <trkpt lon="-4.121428" lat="53.010200"><ele>146.119736</ele><time>2021-07-17T09:13:36Z</time><extensions><speed>0.642343</speed><course>299.844330</course><hAcc>0.889296</hAcc><vAcc>0.717197</vAcc></extensions></trkpt>
      <trkpt lon="-4.121437" lat="53.010202"><ele>146.305984</ele><time>2021-07-17T09:13:37Z</time><extensions><speed>0.643840</speed><course>300.001373</course><hAcc>0.889344</hAcc><vAcc>0.717383</vAcc></extensions></trkpt>
      <trkpt lon="-4.121446" lat="53.010204"><ele>146.489151</ele><time>2021-07-17T09:13:38Z</time><extensions><speed>0.644743</speed><course>294.568817</course><hAcc>0.889386</hAcc><vAcc>0.717536</vAcc></extensions></trkpt>
      <trkpt lon="-4.121455" lat="53.010207"><ele>146.669891</ele><time>2021-07-17T09:13:39Z</time><extensions><speed>0.643931</speed><course>300.687103</course><hAcc>0.889422</hAcc><vAcc>0.717649</vAcc></extensions></trkpt>
      <trkpt lon="-4.121464" lat="53.010209"><ele>146.848862</ele><time>2021-07-17T09:13:40Z</time><extensions><speed>0.640463</speed><course>297.691925</course><hAcc>0.889448</hAcc><vAcc>0.717721</vAcc></extensions></trkpt>
      <trkpt lon="-4.121472" lat="53.010212"><ele>147.026596</ele><time>2021-07-17T09:13:41Z</time><extensions><speed>0.634038</speed><course>293.928223</course><hAcc>0.889465</hAcc><vAcc>0.717754</vAcc></extensions></trkpt>
      <trkpt lon="-4.121480" lat="53.010215"><ele>147.203308</ele><time>2021-07-17T09:13:42Z</time><extensions><speed>0.624829</speed><course>297.041656</course><hAcc>0.889473</hAcc><vAcc>0.717754</vAcc></extensions></trkpt>
      <trkpt lon="-4.121488" lat="53.010218"><ele>147.379105</ele><time>2021-07-17T09:13:43Z</time><extensions><speed>0.613044</speed><course>298.722290</course><hAcc>0.889470</hAcc><vAcc>0.717729</vAcc></extensions></trkpt>
      <trkpt lon="-4.121495" lat="53.010221"><ele>147.553970</ele><time>2021-07-17T09:13:44Z</time><extensions><speed>0.599113</speed><course>296.674316</course><hAcc>0.889458</hAcc><vAcc>0.717683</vAcc></extensions></trkpt>
      <trkpt lon="-4.121502" lat="53.010224"><ele>147.727875</ele><time>2021-07-17T09:13:45Z</time><extensions><speed>0.583503</speed><course>301.147156</course><hAcc>0.889437</hAcc><vAcc>0.717619</vAcc></extensions></trkpt>
      <trkpt lon="-4.121509" lat="53.010227"><ele>147.900711</ele><time>2021-07-17T09:13:46Z</time><extensions><speed>0.566359</speed><course>301.618805</course><hAcc>0.889406</hAcc><vAcc>0.717537</vAcc></extensions></trkpt>
      <trkpt lon="-4.121516" lat="53.010230"><ele>148.072464</ele><time>2021-07-17T09:13:47Z</time><extensions><speed>0.547805</speed><course>300.678009</course><hAcc>0.889367</hAcc><vAcc>0.717433</vAcc></extensions></trkpt>
      <trkpt lon="-4.121523" lat="53.010233"><ele>148.243195</ele><time>2021-07-17T09:13:48Z</time><extensions><speed>0.528013</speed><course>306.078644</course><hAcc>0.889320</hAcc><vAcc>0.717305</vAcc></extensions></trkpt>
      <trkpt lon="-4.121529" lat="53.010235"><ele>148.413025</ele><time>2021-07-17T09:13:49Z</time><extensions><speed>0.507290</speed><course>302.099213</course><hAcc>0.889265</hAcc><vAcc>0.717151</vAcc></extensions></trkpt>
      <trkpt lon="-4.121536" lat="53.010237"><ele>148.582031</ele><time>2021-07-17T09:13:50Z</time><extensions><speed>0.486618</speed><course>298.253754</course><hAcc>0.889202</hAcc><vAcc>0.716969</vAcc></extensions></trkpt>
      <trkpt lon="-4.121542" lat="53.010239"><ele>148.750092</ele><time>2021-07-17T09:13:51Z</time><extensions><speed>0.467637</speed><course>299.772583</course><hAcc>0.889133</hAcc><vAcc>0.716761</vAcc></extensions></trkpt>
      <trkpt lon="-4.121548" lat="53.010241"><ele>148.916885</ele><time>2021-07-17T09:13:52Z</time><extensions><speed>0.452028</speed><course>299.946075</course><hAcc>0.889057</hAcc><vAcc>0.716531</vAcc></extensions></trkpt>
      <trkpt lon="-4.121554" lat="53.010242"><ele>149.081909</ele><time>2021-07-17T09:13:52Z</time><extensions><speed>0.441263</speed><course>303.968170</course><hAcc>0.888994</hAcc><vAcc>0.716303</vAcc></extensions></trkpt>
      <trkpt lon="-4.121561" lat="53.010244"><ele>149.245255</ele><time>2021-07-17T09:13:53Z</time><extensions><speed>0.436217</speed><course>302.223755</course><hAcc>0.888945</hAcc><vAcc>0.716085</vAcc></extensions></trkpt>
      <trkpt lon="-4.121567" lat="53.010244"><ele>149.406799</ele><time>2021-07-17T09:13:54Z</time><extensions><speed>0.436802</speed><course>303.590851</course><hAcc>0.888896</hAcc><vAcc>0.715876</vAcc></extensions></trkpt>
      <trkpt lon="-4.121573" lat="53.010245"><ele>149.566681</ele><time>2021-07-17T09:13:55Z</time><extensions><speed>0.442402</speed><course>302.656281</course><hAcc>0.888848</hAcc><vAcc>0.715684</vAcc></extensions></trkpt>
      <trkpt lon="-4.121580" lat="53.010245"><ele>149.724960</ele><time>2021-07-17T09:13:56Z</time><extensions><speed>0.452389</speed><course>307.857574</course><hAcc>0.888806</hAcc><vAcc>0.715516</vAcc></extensions></trkpt>
      <trkpt lon="-4.121587" lat="53.010245"><ele>149.881775</ele><time>2021-07-17T09:13:57Z</time><extensions><speed>0.465495</speed><course>306.241272</course><hAcc>0.888771</hAcc><vAcc>0.715374</vAcc></extensions></trkpt>
      <trkpt lon="-4.121594" lat="53.010245"><ele>150.037399</ele><time>2021-07-17T09:13:58Z</time><extensions><speed>0.480045</speed><course>302.560516</course><hAcc>0.888746</hAcc><vAcc>0.715264</vAcc></extensions></trkpt>
      <trkpt lon="-4.121601" lat="53.010244"><ele>150.192261</ele><time>2021-07-17T09:13:59Z</time><extensions><speed>0.494989</speed><course>304.207947</course><hAcc>0.888733</hAcc><vAcc>0.715195</vAcc></extensions></trkpt>
      <trkpt lon="-4.121609" lat="53.010244"><ele>150.346771</ele><time>2021-07-17T09:14:00Z</time><extensions><speed>0.509683</speed><course>304.678192</course><hAcc>0.888732</hAcc><vAcc>0.715173</vAcc></extensions></trkpt>
      <trkpt lon="-4.121616" lat="53.010243"><ele>150.501205</ele><time>2021-07-17T09:14:01Z</time><extensions><speed>0.522864</speed><course>300.816559</course><hAcc>0.888743</hAcc><vAcc>0.715204</vAcc></extensions></trkpt>
      <trkpt lon="-4.121624" lat="53.010242"><ele>150.655533</ele><time>2021-07-17T09:14:02Z</time><extensions><speed>0.533091</speed><course>302.457642</course><hAcc>0.888764</hAcc><vAcc>0.715289</vAcc></extensions></trkpt>
      <trkpt lon="-4.121632" lat="53.010241"><ele>150.809692</ele><time>2021-07-17T09:14:03Z</time><extensions><speed>0.539482</speed><course>303.405792</course><hAcc>0.888795</hAcc><vAcc>0.715420</vAcc></extensions></trkpt>
      <trkpt lon="-4.121639" lat="53.010240"><ele>150.963715</ele><time>2021-07-17T09:14:04Z</time><extensions><speed>0.541590</speed><course>305.179382</course><hAcc>0.888832</hAcc><vAcc>0.715585</vAcc></extensions></trkpt>
      <trkpt lon="-4.121647" lat="53.010238"><ele>151.117432</ele><time>2021-07-17T09:14:05Z</time><extensions><speed>0.539314</speed><course>301.811188</course><hAcc>0.888873</hAcc><vAcc>0.715769</vAcc></extensions></trkpt>
      <trkpt lon="-4.121655" lat="53.010237"><ele>151.270493</ele><time>2021-07-17T09:14:06Z</time><extensions><speed>0.532939</speed><course>294.111877</course><hAcc>0.888915</hAcc><vAcc>0.715955</vAcc></extensions></trkpt>
      <trkpt lon="-4.121662" lat="53.010235"><ele>151.422607</ele><time>2021-07-17T09:14:07Z</time><extensions><speed>0.523165</speed><course>291.186249</course><hAcc>0.888954</hAcc><vAcc>0.716128</vAcc></extensions></trkpt>
      <trkpt lon="-4.121669" lat="53.010234"><ele>151.573532</ele><time>2021-07-17T09:14:08Z</time><extensions><speed>0.510781</speed><course>291.833313</course><hAcc>0.888988</hAcc><vAcc>0.716271</vAcc></extensions></trkpt>
      <trkpt lon="-4.121676" lat="53.010232"><ele>151.723099</ele><time>2021-07-17T09:14:09Z</time><extensions><speed>0.496341</speed><course>293.198639</course><hAcc>0.889013</hAcc><vAcc>0.716375</vAcc></extensions></trkpt>
      <trkpt lon="-4.121683" lat="53.010231"><ele>151.871170</ele><time>2021-07-17T09:14:10Z</time><extensions><speed>0.480376</speed><course>297.953094</course><hAcc>0.889028</hAcc><vAcc>0.716430</vAcc></extensions></trkpt>
      <trkpt lon="-4.121690" lat="53.010229"><ele>152.017563</ele><time>2021-07-17T09:14:11Z</time><extensions><speed>0.463853</speed><course>294.998413</course><hAcc>0.889031</hAcc><vAcc>0.716436</vAcc></extensions></trkpt>
      <trkpt lon="-4.121696" lat="53.010228"><ele>152.162170</ele><time>2021-07-17T09:14:12Z</time><extensions><speed>0.447805</speed><course>290.333923</course><hAcc>0.889022</hAcc><vAcc>0.716392</vAcc></extensions></trkpt>
      <trkpt lon="-4.121702" lat="53.010226"><ele>152.304886</ele><time>2021-07-17T09:14:13Z</time><extensions><speed>0.432750</speed><course>297.336884</course><hAcc>0.889002</hAcc><vAcc>0.716303</vAcc></extensions></trkpt>
      <trkpt lon="-4.121708" lat="53.010225"><ele>152.445740</ele><time>2021-07-17T09:14:14Z</time><extensions><speed>0.418428</speed><course>291.763641</course><hAcc>0.888971</hAcc><vAcc>0.716177</vAcc></extensions></trkpt>
      <trkpt lon="-4.121714" lat="53.010224"><ele>152.584991</ele><time>2021-07-17T09:14:15Z</time><extensions><speed>0.404101</speed><course>293.588959</course><hAcc>0.888932</hAcc><vAcc>0.716023</vAcc></extensions></trkpt>
      <trkpt lon="-4.121720" lat="53.010223"><ele>152.723221</ele><time>2021-07-17T09:14:16Z</time><extensions><speed>0.389940</speed><course>298.534668</course><hAcc>0.888886</hAcc><vAcc>0.715849</vAcc></extensions></trkpt>
      <trkpt lon="-4.121726" lat="53.010222"><ele>152.861130</ele><time>2021-07-17T09:14:17Z</time><extensions><speed>0.377099</speed><course>294.834351</course><hAcc>0.888838</hAcc><vAcc>0.715666</vAcc></extensions></trkpt>
      <trkpt lon="-4.121731" lat="53.010222"><ele>152.999481</ele><time>2021-07-17T09:14:18Z</time><extensions><speed>0.366648</speed><course>297.698059</course><hAcc>0.888789</hAcc><vAcc>0.715482</vAcc></extensions></trkpt>
      <trkpt lon="-4.121736" lat="53.010221"><ele>153.138977</ele><time>2021-07-17T09:14:19Z</time><extensions><speed>0.359474</speed><course>298.511444</course><hAcc>0.888744</hAcc><vAcc>0.715309</vAcc></extensions></trkpt>
      <trkpt lon="-4.121742" lat="53.010221"><ele>153.280197</ele><time>2021-07-17T09:14:20Z</time><extensions><speed>0.356788</speed><course>303.054443</course><hAcc>0.888705</hAcc><vAcc>0.715156</vAcc></extensions></trkpt>
      <trkpt lon="-4.121747" lat="53.010221"><ele>153.423553</ele><time>2021-07-17T09:14:21Z</time><extensions><speed>0.359787</speed><course>300.594757</course><hAcc>0.888675</hAcc><vAcc>0.715030</vAcc></extensions></trkpt>
      <trkpt lon="-4.121752" lat="53.010221"><ele>153.569427</ele><time>2021-07-17T09:14:22Z</time><extensions><speed>0.369343</speed><course>303.489990</course><hAcc>0.888656</hAcc><vAcc>0.714939</vAcc></extensions></trkpt>
      <trkpt lon="-4.121758" lat="53.010222"><ele>153.718094</ele><time>2021-07-17T09:14:23Z</time><extensions><speed>0.385787</speed><course>307.296783</course><hAcc>0.888650</hAcc><vAcc>0.714893</vAcc></extensions></trkpt>
      <trkpt lon="-4.121763" lat="53.010223"><ele>153.869751</ele><time>2021-07-17T09:14:24Z</time><extensions><speed>0.408242</speed><course>306.846466</course><hAcc>0.888659</hAcc><vAcc>0.714902</vAcc></extensions></trkpt>
      <trkpt lon="-4.121769" lat="53.010225"><ele>154.024307</ele><time>2021-07-17T09:14:25Z</time><extensions><speed>0.435261</speed><course>314.303711</course><hAcc>0.888680</hAcc><vAcc>0.714973</vAcc></extensions></trkpt>
      <trkpt lon="-4.121775" lat="53.010226"><ele>154.181458</ele><time>2021-07-17T09:14:26Z</time><extensions><speed>0.465841</speed><course>316.753265</course><hAcc>0.888714</hAcc><vAcc>0.715108</vAcc></extensions></trkpt>
      <trkpt lon="-4.121781" lat="53.010229"><ele>154.340775</ele><time>2021-07-17T09:14:27Z</time><extensions><speed>0.499304</speed><course>312.101562</course><hAcc>0.888757</hAcc><vAcc>0.715297</vAcc></extensions></trkpt>
      <trkpt lon="-4.121788" lat="53.010231"><ele>154.501801</ele><time>2021-07-17T09:14:28Z</time><extensions><speed>0.534519</speed><course>310.983948</course><hAcc>0.888807</hAcc><vAcc>0.715522</vAcc></extensions></trkpt>
      <trkpt lon="-4.121794" lat="53.010234"><ele>154.664215</ele><time>2021-07-17T09:14:29Z</time><extensions><speed>0.569712</speed><course>316.824890</course><hAcc>0.888860</hAcc><vAcc>0.715761</vAcc></extensions></trkpt>
      <trkpt lon="-4.121801" lat="53.010237"><ele>154.827682</ele><time>2021-07-17T09:14:30Z</time><extensions><speed>0.602973</speed><course>324.005005</course><hAcc>0.888913</hAcc><vAcc>0.715992</vAcc></extensions></trkpt>
      <trkpt lon="-4.121808" lat="53.010241"><ele>154.991959</ele><time>2021-07-17T09:14:31Z</time><extensions><speed>0.633057</speed><course>322.091736</course><hAcc>0.888961</hAcc><vAcc>0.716198</vAcc></extensions></trkpt>
      <trkpt lon="-4.121815" lat="53.010245"><ele>155.156769</ele><time>2021-07-17T09:14:32Z</time><extensions><speed>0.659414</speed><course>322.830170</course><hAcc>0.889002</hAcc><vAcc>0.716364</vAcc></extensions></trkpt>
      <trkpt lon="-4.121823" lat="53.010249"><ele>155.321915</ele><time>2021-07-17T09:14:33Z</time><extensions><speed>0.681850</speed><course>325.823517</course><hAcc>0.889031</hAcc><vAcc>0.716480</vAcc></extensions></trkpt>
      <trkpt lon="-4.121830" lat="53.010253"><ele>155.487335</ele><time>2021-07-17T09:14:34Z</time><extensions><speed>0.700589</speed><course>331.853210</course><hAcc>0.889048</hAcc><vAcc>0.716538</vAcc></extensions></trkpt>
      <trkpt lon="-4.121838" lat="53.010258"><ele>155.652924</ele><time>2021-07-17T09:14:35Z</time><extensions><speed>0.715997</speed><course>331.260956</course><hAcc>0.889051</hAcc><vAcc>0.716537</vAcc></extensions></trkpt>
      <trkpt lon="-4.121845" lat="53.010262"><ele>155.818512</ele><time>2021-07-17T09:14:36Z</time><extensions><speed>0.728803</speed><course>329.072571</course><hAcc>0.889042</hAcc><vAcc>0.716478</vAcc></extensions></trkpt>
      <trkpt lon="-4.121853" lat="53.010267"><ele>155.983810</ele><time>2021-07-17T09:14:37Z</time><extensions><speed>0.739943</speed><course>325.473938</course><hAcc>0.889022</hAcc><vAcc>0.716366</vAcc></extensions></trkpt>
      <trkpt lon="-4.121861" lat="53.010272"><ele>156.148346</ele><time>2021-07-17T09:14:38Z</time><extensions><speed>0.750042</speed><course>325.383026</course><hAcc>0.888992</hAcc><vAcc>0.716215</vAcc></extensions></trkpt>
      <trkpt lon="-4.121868" lat="53.010277"><ele>156.311432</ele><time>2021-07-17T09:14:39Z</time><extensions><speed>0.759508</speed><course>325.061401</course><hAcc>0.888955</hAcc><vAcc>0.716040</vAcc></extensions></trkpt>
      <trkpt lon="-4.121875" lat="53.010282"><ele>156.472229</ele><time>2021-07-17T09:14:40Z</time><extensions><speed>0.768543</speed><course>325.207275</course><hAcc>0.888913</hAcc><vAcc>0.715861</vAcc></extensions></trkpt>
      <trkpt lon="-4.121882" lat="53.010288"><ele>156.629913</ele><time>2021-07-17T09:14:41Z</time><extensions><speed>0.777154</speed><course>322.410889</course><hAcc>0.888869</hAcc><vAcc>0.715693</vAcc></extensions></trkpt>
      <trkpt lon="-4.121889" lat="53.010293"><ele>156.783722</ele><time>2021-07-17T09:14:42Z</time><extensions><speed>0.785024</speed><course>319.218658</course><hAcc>0.888825</hAcc><vAcc>0.715547</vAcc></extensions></trkpt>
      <trkpt lon="-4.121896" lat="53.010299"><ele>156.933090</ele><time>2021-07-17T09:14:43Z</time><extensions><speed>0.791843</speed><course>319.790588</course><hAcc>0.888782</hAcc><vAcc>0.715423</vAcc></extensions></trkpt>
      <trkpt lon="-4.121903" lat="53.010305"><ele>157.077667</ele><time>2021-07-17T09:14:44Z</time><extensions><speed>0.797492</speed><course>318.972229</course><hAcc>0.888741</hAcc><vAcc>0.715318</vAcc></extensions></trkpt>
      <trkpt lon="-4.121909" lat="53.010311"><ele>157.217255</ele><time>2021-07-17T09:14:45Z</time><extensions><speed>0.801755</speed><course>320.354065</course><hAcc>0.888705</hAcc><vAcc>0.715224</vAcc></extensions></trkpt>
      <trkpt lon="-4.121915" lat="53.010318"><ele>157.351761</ele><time>2021-07-17T09:14:46Z</time><extensions><speed>0.804337</speed><course>320.541016</course><hAcc>0.888673</hAcc><vAcc>0.715137</vAcc></extensions></trkpt>
      <trkpt lon="-4.121920" lat="53.010324"><ele>157.481125</ele><time>2021-07-17T09:14:47Z</time><extensions><speed>0.805201</speed><course>317.906189</course><hAcc>0.888647</hAcc><vAcc>0.715055</vAcc></extensions></trkpt>
      <trkpt lon="-4.121926" lat="53.010330"><ele>157.605499</ele><time>2021-07-17T09:14:48Z</time><extensions><speed>0.804422</speed><course>316.077393</course><hAcc>0.888627</hAcc><vAcc>0.714978</vAcc></extensions></trkpt>
      <trkpt lon="-4.121931" lat="53.010337"><ele>157.725296</ele><time>2021-07-17T09:14:49Z</time><extensions><speed>0.801711</speed><course>307.356537</course><hAcc>0.888614</hAcc><vAcc>0.714909</vAcc></extensions></trkpt>
      <trkpt lon="-4.121936" lat="53.010343"><ele>157.841110</ele><time>2021-07-17T09:14:50Z</time><extensions><speed>0.796540</speed><course>302.004150</course><hAcc>0.888608</hAcc><vAcc>0.714856</vAcc></extensions></trkpt>
      <trkpt lon="-4.121941" lat="53.010350"><ele>157.953766</ele><time>2021-07-17T09:14:51Z</time><extensions><speed>0.788553</speed><course>310.520874</course><hAcc>0.888609</hAcc><vAcc>0.714830</vAcc></extensions></trkpt>
      <trkpt lon="-4.121946" lat="53.010356"><ele>158.064285</ele><time>2021-07-17T09:14:52Z</time><extensions><speed>0.777735</speed><course>307.778412</course><hAcc>0.888618</hAcc><vAcc>0.714841</vAcc></extensions></trkpt>
      <trkpt lon="-4.121951" lat="53.010363"><ele>158.173676</ele><time>2021-07-17T09:14:53Z</time><extensions><speed>0.764485</speed><course>310.132080</course><hAcc>0.888633</hAcc><vAcc>0.714895</vAcc></extensions></trkpt>
      <trkpt lon="-4.121956" lat="53.010369"><ele>158.282883</ele><time>2021-07-17T09:14:54Z</time><extensions><speed>0.749614</speed><course>310.327301</course><hAcc>0.888655</hAcc><vAcc>0.714989</vAcc></extensions></trkpt>
      <trkpt lon="-4.121961" lat="53.010374"><ele>158.392792</ele><time>2021-07-17T09:14:55Z</time><extensions><speed>0.734241</speed><course>308.925873</course><hAcc>0.888681</hAcc><vAcc>0.715112</vAcc></extensions></trkpt>
      <trkpt lon="-4.121967" lat="53.010380"><ele>158.504242</ele><time>2021-07-17T09:14:56Z</time><extensions><speed>0.719548</speed><course>308.955322</course><hAcc>0.888709</hAcc><vAcc>0.715250</vAcc></extensions></trkpt>
      <trkpt lon="-4.121972" lat="53.010385"><ele>158.618195</ele><time>2021-07-17T09:14:57Z</time><extensions><speed>0.706352</speed><course>303.152588</course><hAcc>0.888738</hAcc><vAcc>0.715386</vAcc></extensions></trkpt>
      <trkpt lon="-4.121979" lat="53.010390"><ele>158.735611</ele><time>2021-07-17T09:14:58Z</time><extensions><speed>0.695477</speed><course>313.156525</course><hAcc>0.888764</hAcc><vAcc>0.715509</vAcc></extensions></trkpt>
      <trkpt lon="-4.121985" lat="53.010395"><ele>158.857208</ele><time>2021-07-17T09:14:59Z</time><extensions><speed>0.687841</speed><course>307.864197</course><hAcc>0.888785</hAcc><vAcc>0.715605</vAcc></extensions></trkpt>
      <trkpt lon="-4.121992" lat="53.010400"><ele>158.983414</ele><time>2021-07-17T09:15:00Z</time><extensions><speed>0.683994</speed><course>309.541687</course><hAcc>0.888799</hAcc><vAcc>0.715669</vAcc></extensions></trkpt>
      <trkpt lon="-4.122000" lat="53.010404"><ele>159.114395</ele><time>2021-07-17T09:15:01Z</time><extensions><speed>0.684038</speed><course>312.130341</course><hAcc>0.888803</hAcc><vAcc>0.715693</vAcc></extensions></trkpt>
      <trkpt lon="-4.122008" lat="53.010407"><ele>159.250183</ele><time>2021-07-17T09:15:02Z</time><extensions><speed>0.687647</speed><course>310.268982</course><hAcc>0.888797</hAcc><vAcc>0.715677</vAcc></extensions></trkpt>
      <trkpt lon="-4.122017" lat="53.010411"><ele>159.390793</ele><time>2021-07-17T09:15:03Z</time><extensions><speed>0.694234</speed><course>308.247070</course><hAcc>0.888781</hAcc><vAcc>0.715620</vAcc></extensions></trkpt>
      <trkpt lon="-4.122026" lat="53.010414"><ele>159.536209</ele><time>2021-07-17T09:15:04Z</time><extensions><speed>0.703036</speed><course>304.229858</course><hAcc>0.888754</hAcc><vAcc>0.715521</vAcc></extensions></trkpt>
      <trkpt lon="-4.122035" lat="53.010417"><ele>159.686081</ele><time>2021-07-17T09:15:05Z</time><extensions><speed>0.713196</speed><course>308.310059</course><hAcc>0.888718</hAcc><vAcc>0.715384</vAcc></extensions></trkpt>
      <trkpt lon="-4.122045" lat="53.010419"><ele>159.839661</ele><time>2021-07-17T09:15:06Z</time><extensions><speed>0.723833</speed><course>311.142822</course><hAcc>0.888676</hAcc><vAcc>0.715214</vAcc></extensions></trkpt>
      <trkpt lon="-4.122055" lat="53.010421"><ele>159.996246</ele><time>2021-07-17T09:15:07Z</time><extensions><speed>0.734075</speed><course>305.518036</course><hAcc>0.888629</hAcc><vAcc>0.715024</vAcc></extensions></trkpt>
      <trkpt lon="-4.122066" lat="53.010423"><ele>160.155243</ele><time>2021-07-17T09:15:08Z</time><extensions><speed>0.743307</speed><course>303.061462</course><hAcc>0.888580</hAcc><vAcc>0.714826</vAcc></extensions></trkpt>
      <trkpt lon="-4.122077" lat="53.010425"><ele>160.316116</ele><time>2021-07-17T09:15:09Z</time><extensions><speed>0.751182</speed><course>298.232086</course><hAcc>0.888532</hAcc><vAcc>0.714634</vAcc></extensions></trkpt>
      <trkpt lon="-4.122088" lat="53.010426"><ele>160.478500</ele><time>2021-07-17T09:15:10Z</time><extensions><speed>0.757326</speed><course>289.358276</course><hAcc>0.888487</hAcc><vAcc>0.714462</vAcc></extensions></trkpt>
      <trkpt lon="-4.122099" lat="53.010428"><ele>160.642258</ele><time>2021-07-17T09:15:11Z</time><extensions><speed>0.761436</speed><course>285.924469</course><hAcc>0.888448</hAcc><vAcc>0.714320</vAcc></extensions></trkpt>
      <trkpt lon="-4.122110" lat="53.010429"><ele>160.807358</ele><time>2021-07-17T09:15:12Z</time><extensions><speed>0.763454</speed><course>280.520447</course><hAcc>0.888417</hAcc><vAcc>0.714214</vAcc></extensions></trkpt>
      <trkpt lon="-4.122121" lat="53.010430"><ele>160.973923</ele><time>2021-07-17T09:15:13Z</time><extensions><speed>0.763612</speed><course>286.862061</course><hAcc>0.888395</hAcc><vAcc>0.714147</vAcc></extensions></trkpt>
      <trkpt lon="-4.122132" lat="53.010431"><ele>161.142090</ele><time>2021-07-17T09:15:14Z</time><extensions><speed>0.762478</speed><course>295.700317</course><hAcc>0.888385</hAcc><vAcc>0.714118</vAcc></extensions></trkpt>
      <trkpt lon="-4.122143" lat="53.010433"><ele>161.312073</ele><time>2021-07-17T09:15:15Z</time><extensions><speed>0.760638</speed><course>296.161560</course><hAcc>0.888387</hAcc><vAcc>0.714125</vAcc></extensions></trkpt>
      <trkpt lon="-4.122154" lat="53.010434"><ele>161.484085</ele><time>2021-07-17T09:15:16Z</time><extensions><speed>0.758698</speed><course>298.229218</course><hAcc>0.888401</hAcc><vAcc>0.714167</vAcc></extensions></trkpt>
      <trkpt lon="-4.122165" lat="53.010436"><ele>161.658279</ele><time>2021-07-17T09:15:17Z</time><extensions><speed>0.757359</speed><course>297.545471</course><hAcc>0.888427</hAcc><vAcc>0.714247</vAcc></extensions></trkpt>
      <trkpt lon="-4.122176" lat="53.010438"><ele>161.834824</ele><time>2021-07-17T09:15:18Z</time><extensions><speed>0.757067</speed><course>292.454163</course><hAcc>0.888465</hAcc><vAcc>0.714367</vAcc></extensions></trkpt>
      <trkpt lon="-4.122187" lat="53.010441"><ele>162.013885</ele><time>2021-07-17T09:15:19Z</time><extensions><speed>0.757980</speed><course>287.195465</course><hAcc>0.888514</hAcc><vAcc>0.714530</vAcc></extensions></trkpt>
      <trkpt lon="-4.122197" lat="53.010443"><ele>162.195602</ele><time>2021-07-17T09:15:20Z</time><extensions><speed>0.760172</speed><course>283.339600</course><hAcc>0.888572</hAcc><vAcc>0.714730</vAcc></extensions></trkpt>
      <trkpt lon="-4.122207" lat="53.010447"><ele>162.380051</ele><time>2021-07-17T09:15:21Z</time><extensions><speed>0.763691</speed><course>283.687531</course><hAcc>0.888638</hAcc><vAcc>0.714961</vAcc></extensions></trkpt>
      <trkpt lon="-4.122217" lat="53.010450"><ele>162.567322</ele><time>2021-07-17T09:15:22Z</time><extensions><speed>0.768141</speed><course>284.089417</course><hAcc>0.888710</hAcc><vAcc>0.715215</vAcc></extensions></trkpt>
      <trkpt lon="-4.122227" lat="53.010454"><ele>162.757645</ele><time>2021-07-17T09:15:23Z</time><extensions><speed>0.772637</speed><course>286.432800</course><hAcc>0.888786</hAcc><vAcc>0.715484</vAcc></extensions></trkpt>
      <trkpt lon="-4.122236" lat="53.010458"><ele>162.951294</ele><time>2021-07-17T09:15:24Z</time><extensions><speed>0.776648</speed><course>288.844025</course><hAcc>0.888863</hAcc><vAcc>0.715760</vAcc></extensions></trkpt>
      <trkpt lon="-4.122246" lat="53.010462"><ele>163.148361</ele><time>2021-07-17T09:15:25Z</time><extensions><speed>0.779571</speed><course>294.600861</course><hAcc>0.888940</hAcc><vAcc>0.716033</vAcc></extensions></trkpt>
      <trkpt lon="-4.122255" lat="53.010466"><ele>163.348938</ele><time>2021-07-17T09:15:26Z</time><extensions><speed>0.780861</speed><course>289.399475</course><hAcc>0.889015</hAcc><vAcc>0.716293</vAcc></extensions></trkpt>
      <trkpt lon="-4.122263" lat="53.010471"><ele>163.553192</ele><time>2021-07-17T09:15:27Z</time><extensions><speed>0.780429</speed><course>292.462738</course><hAcc>0.889086</hAcc><vAcc>0.716535</vAcc></extensions></trkpt>
      <trkpt lon="-4.122272" lat="53.010475"><ele>163.761154</ele><time>2021-07-17T09:15:28Z</time><extensions><speed>0.777986</speed><course>292.044128</course><hAcc>0.889152</hAcc><vAcc>0.716751</vAcc></extensions></trkpt>
      <trkpt lon="-4.122280" lat="53.010480"><ele>163.972610</ele><time>2021-07-17T09:15:29Z</time><extensions><speed>0.773258</speed><course>289.426849</course><hAcc>0.889211</hAcc><vAcc>0.716939</vAcc></extensions></trkpt>
      <trkpt lon="-4.122288" lat="53.010485"><ele>164.187103</ele><time>2021-07-17T09:15:30Z</time><extensions><speed>0.766335</speed><course>292.821838</course><hAcc>0.889264</hAcc><vAcc>0.717098</vAcc></extensions></trkpt>
      <trkpt lon="-4.122296" lat="53.010490"><ele>164.404083</ele><time>2021-07-17T09:15:31Z</time><extensions><speed>0.757421</speed><course>287.405121</course><hAcc>0.889309</hAcc><vAcc>0.717230</vAcc></extensions></trkpt>
      <trkpt lon="-4.122304" lat="53.010495"><ele>164.622726</ele><time>2021-07-17T09:15:32Z</time><extensions><speed>0.746937</speed><course>289.328461</course><hAcc>0.889347</hAcc><vAcc>0.717336</vAcc></extensions></trkpt>
      <trkpt lon="-4.122312" lat="53.010500"><ele>164.842056</ele><time>2021-07-17T09:15:33Z</time><extensions><speed>0.735503</speed><course>290.686554</course><hAcc>0.889378</hAcc><vAcc>0.717420</vAcc></extensions></trkpt>
      <trkpt lon="-4.122319" lat="53.010505"><ele>165.060944</ele><time>2021-07-17T09:15:34Z</time><extensions><speed>0.723606</speed><course>291.519623</course><hAcc>0.889403</hAcc><vAcc>0.717487</vAcc></extensions></trkpt>
      <trkpt lon="-4.122326" lat="53.010509"><ele>165.278275</ele><time>2021-07-17T09:15:35Z</time><extensions><speed>0.711935</speed><course>289.260345</course><hAcc>0.889422</hAcc><vAcc>0.717537</vAcc></extensions></trkpt>
      <trkpt lon="-4.122333" lat="53.010514"><ele>165.493118</ele><time>2021-07-17T09:15:36Z</time><extensions><speed>0.700760</speed><course>291.671295</course><hAcc>0.889436</hAcc><vAcc>0.717573</vAcc></extensions></trkpt>
      <trkpt lon="-4.122341" lat="53.010518"><ele>165.704819</ele><time>2021-07-17T09:15:37Z</time><extensions><speed>0.689956</speed><course>285.797272</course><hAcc>0.889445</hAcc><vAcc>0.717596</vAcc></extensions></trkpt>
      <trkpt lon="-4.122348" lat="53.010523"><ele>165.913132</ele><time>2021-07-17T09:15:38Z</time><extensions><speed>0.679610</speed><course>284.045776</course><hAcc>0.889451</hAcc><vAcc>0.717605</vAcc></extensions></trkpt>
      <trkpt lon="-4.122355" lat="53.010527"><ele>166.118301</ele><time>2021-07-17T09:15:39Z</time><extensions><speed>0.669540</speed><course>290.744446</course><hAcc>0.889452</hAcc><vAcc>0.717602</vAcc></extensions></trkpt>
      <trkpt lon="-4.122362" lat="53.010531"><ele>166.320816</ele><time>2021-07-17T09:15:40Z</time><extensions><speed>0.659579</speed><course>286.155334</course><hAcc>0.889449</hAcc><vAcc>0.717586</vAcc></extensions></trkpt>
      <trkpt lon="-4.122369" lat="53.010535"><ele>166.521362</ele><time>2021-07-17T09:15:41Z</time><extensions><speed>0.649779</speed><course>292.078705</course><hAcc>0.889443</hAcc><vAcc>0.717556</vAcc></extensions></trkpt>
      <trkpt lon="-4.122377" lat="53.010539"><ele>166.720703</ele><time>2021-07-17T09:15:42Z</time><extensions><speed>0.640223</speed><course>292.906311</course><hAcc>0.889432</hAcc><vAcc>0.717512</vAcc></extensions></trkpt>
      <trkpt lon="-4.122384" lat="53.010542"><ele>166.919525</ele><time>2021-07-17T09:15:43Z</time><extensions><speed>0.631014</speed><course>291.462067</course><hAcc>0.889419</hAcc><vAcc>0.717451</vAcc></extensions></trkpt>
      <trkpt lon="-4.122392" lat="53.010546"><ele>167.118546</ele><time>2021-07-17T09:15:45Z</time><extensions><speed>0.622292</speed><course>290.448425</course><hAcc>0.889384</hAcc><vAcc>0.717357</vAcc></extensions></trkpt>
      <trkpt lon="-4.122399" lat="53.010549"><ele>167.317734</ele><time>2021-07-17T09:15:46Z</time><extensions><speed>0.614134</speed><course>295.857269</course><hAcc>0.889327</hAcc><vAcc>0.717229</vAcc></extensions></trkpt>
      <trkpt lon="-4.122406" lat="53.010552"><ele>167.517456</ele><time>2021-07-17T09:15:47Z</time><extensions><speed>0.606476</speed><course>298.185364</course><hAcc>0.889268</hAcc><vAcc>0.717074</vAcc></extensions></trkpt>
      <trkpt lon="-4.122414" lat="53.010555"><ele>167.717667</ele><time>2021-07-17T09:15:48Z</time><extensions><speed>0.599270</speed><course>294.469940</course><hAcc>0.889206</hAcc><vAcc>0.716889</vAcc></extensions></trkpt>
      <trkpt lon="-4.122422" lat="53.010558"><ele>167.918121</ele><time>2021-07-17T09:15:49Z</time><extensions><speed>0.592373</speed><course>292.898438</course><hAcc>0.889142</hAcc><vAcc>0.716674</vAcc></extensions></trkpt>
      <trkpt lon="-4.122429" lat="53.010561"><ele>168.118774</ele><time>2021-07-17T09:15:50Z</time><extensions><speed>0.585754</speed><course>292.422791</course><hAcc>0.889077</hAcc><vAcc>0.716437</vAcc></extensions></trkpt>
      <trkpt lon="-4.122437" lat="53.010563"><ele>168.319717</ele><time>2021-07-17T09:15:51Z</time><extensions><speed>0.579639</speed><course>292.622986</course><hAcc>0.889013</hAcc><vAcc>0.716193</vAcc></extensions></trkpt>
      <trkpt lon="-4.122444" lat="53.010566"><ele>168.521210</ele><time>2021-07-17T09:15:52Z</time><extensions><speed>0.574087</speed><course>292.749084</course><hAcc>0.888950</hAcc><vAcc>0.715957</vAcc></extensions></trkpt>
      <trkpt lon="-4.122452" lat="53.010568"><ele>168.723480</ele><time>2021-07-17T09:15:53Z</time><extensions><speed>0.568890</speed><course>294.832458</course><hAcc>0.888890</hAcc><vAcc>0.715744</vAcc></extensions></trkpt>
      <trkpt lon="-4.122459" lat="53.010570"><ele>168.926773</ele><time>2021-07-17T09:15:54Z</time><extensions><speed>0.563858</speed><course>290.563019</course><hAcc>0.888832</hAcc><vAcc>0.715565</vAcc></extensions></trkpt>
      <trkpt lon="-4.122467" lat="53.010573"><ele>169.131149</ele><time>2021-07-17T09:15:55Z</time><extensions><speed>0.559268</speed><course>288.082062</course><hAcc>0.888777</hAcc><vAcc>0.715421</vAcc></extensions></trkpt>
      <trkpt lon="-4.122474" lat="53.010575"><ele>169.336456</ele><time>2021-07-17T09:15:56Z</time><extensions><speed>0.555537</speed><course>289.238037</course><hAcc>0.888724</hAcc><vAcc>0.715307</vAcc></extensions></trkpt>
      <trkpt lon="-4.122482" lat="53.010577"><ele>169.542557</ele><time>2021-07-17T09:15:57Z</time><extensions><speed>0.552614</speed><course>289.037109</course><hAcc>0.888672</hAcc><vAcc>0.715213</vAcc></extensions></trkpt>
      <trkpt lon="-4.122489" lat="53.010579"><ele>169.749390</ele><time>2021-07-17T09:15:58Z</time><extensions><speed>0.550704</speed><course>291.884949</course><hAcc>0.888618</hAcc><vAcc>0.715123</vAcc></extensions></trkpt>
      <trkpt lon="-4.122497" lat="53.010581"><ele>169.956696</ele><time>2021-07-17T09:15:58Z</time><extensions><speed>0.550378</speed><course>287.567657</course><hAcc>0.888580</hAcc><vAcc>0.715036</vAcc></extensions></trkpt>
      <trkpt lon="-4.122504" lat="53.010583"><ele>170.164886</ele><time>2021-07-17T09:15:59Z</time><extensions><speed>0.552091</speed><course>291.768890</course><hAcc>0.888555</hAcc><vAcc>0.714943</vAcc></extensions></trkpt>
      <trkpt lon="-4.122512" lat="53.010585"><ele>170.373825</ele><time>2021-07-17T09:16:00Z</time><extensions><speed>0.555971</speed><course>296.126740</course><hAcc>0.888525</hAcc><vAcc>0.714827</vAcc></extensions></trkpt>
      <trkpt lon="-4.122520" lat="53.010586"><ele>170.583527</ele><time>2021-07-17T09:16:01Z</time><extensions><speed>0.561815</speed><course>297.059143</course><hAcc>0.888488</hAcc><vAcc>0.714688</vAcc></extensions></trkpt>
      <trkpt lon="-4.122528" lat="53.010588"><ele>170.793976</ele><time>2021-07-17T09:16:02Z</time><extensions><speed>0.569373</speed><course>303.696320</course><hAcc>0.888446</hAcc><vAcc>0.714529</vAcc></extensions></trkpt>
      <trkpt lon="-4.122536" lat="53.010590"><ele>171.005112</ele><time>2021-07-17T09:16:03Z</time><extensions><speed>0.578088</speed><course>307.460022</course><hAcc>0.888398</hAcc><vAcc>0.714352</vAcc></extensions></trkpt>
      <trkpt lon="-4.122544" lat="53.010592"><ele>171.216904</ele><time>2021-07-17T09:16:04Z</time><extensions><speed>0.587021</speed><course>302.094666</course><hAcc>0.888345</hAcc><vAcc>0.714159</vAcc></extensions></trkpt>
      <trkpt lon="-4.122552" lat="53.010594"><ele>171.429413</ele><time>2021-07-17T09:16:05Z</time><extensions><speed>0.595182</speed><course>294.763123</course><hAcc>0.888286</hAcc><vAcc>0.713952</vAcc></extensions></trkpt>
      <trkpt lon="-4.122560" lat="53.010596"><ele>171.642792</ele><time>2021-07-17T09:16:06Z</time><extensions><speed>0.601637</speed><course>292.310913</course><hAcc>0.888224</hAcc><vAcc>0.713736</vAcc></extensions></trkpt>
      <trkpt lon="-4.122569" lat="53.010597"><ele>171.857193</ele><time>2021-07-17T09:16:07Z</time><extensions><speed>0.605868</speed><course>286.252472</course><hAcc>0.888157</hAcc><vAcc>0.713515</vAcc></extensions></trkpt>
      <trkpt lon="-4.122578" lat="53.010599"><ele>172.072571</ele><time>2021-07-17T09:16:08Z</time><extensions><speed>0.607902</speed><course>277.085999</course><hAcc>0.888085</hAcc><vAcc>0.713291</vAcc></extensions></trkpt>
      <trkpt lon="-4.122586" lat="53.010600"><ele>172.288757</ele><time>2021-07-17T09:16:09Z</time><extensions><speed>0.608017</speed><course>269.880463</course><hAcc>0.888008</hAcc><vAcc>0.713061</vAcc></extensions></trkpt>
      <trkpt lon="-4.122595" lat="53.010601"><ele>172.505371</ele><time>2021-07-17T09:16:10Z</time><extensions><speed>0.606248</speed><course>256.014618</course><hAcc>0.887924</hAcc><vAcc>0.712822</vAcc></extensions></trkpt>
      <trkpt lon="-4.122604" lat="53.010603"><ele>172.721664</ele><time>2021-07-17T09:16:11Z</time><extensions><speed>0.602771</speed><course>250.524368</course><hAcc>0.887833</hAcc><vAcc>0.712568</vAcc></extensions></trkpt>
      <trkpt lon="-4.122613" lat="53.010603"><ele>172.936569</ele><time>2021-07-17T09:16:12Z</time><extensions><speed>0.597852</speed><course>237.491638</course><hAcc>0.887733</hAcc><vAcc>0.712291</vAcc></extensions></trkpt>
      <trkpt lon="-4.122622" lat="53.010604"><ele>173.149094</ele><time>2021-07-17T09:16:13Z</time><extensions><speed>0.591466</speed><course>231.976761</course><hAcc>0.887623</hAcc><vAcc>0.711981</vAcc></extensions></trkpt>
      <trkpt lon="-4.122630" lat="53.010605"><ele>173.358566</ele><time>2021-07-17T09:16:14Z</time><extensions><speed>0.583885</speed><course>228.504318</course><hAcc>0.887504</hAcc><vAcc>0.711624</vAcc></extensions></trkpt>
      <trkpt lon="-4.122639" lat="53.010605"><ele>173.564667</ele><time>2021-07-17T09:16:15Z</time><extensions><speed>0.575498</speed><course>227.577087</course><hAcc>0.887375</hAcc><vAcc>0.711214</vAcc></extensions></trkpt>
      <trkpt lon="-4.122647" lat="53.010606"><ele>173.767212</ele><time>2021-07-17T09:16:16Z</time><extensions><speed>0.566586</speed><course>219.513672</course><hAcc>0.887240</hAcc><vAcc>0.710753</vAcc></extensions></trkpt>
      <trkpt lon="-4.122656" lat="53.010606"><ele>173.966171</ele><time>2021-07-17T09:16:17Z</time><extensions><speed>0.557236</speed><course>224.903015</course><hAcc>0.887100</hAcc><vAcc>0.710253</vAcc></extensions></trkpt>
      <trkpt lon="-4.122664" lat="53.010606"><ele>174.161667</ele><time>2021-07-17T09:16:18Z</time><extensions><speed>0.547047</speed><course>222.390198</course><hAcc>0.886959</hAcc><vAcc>0.709733</vAcc></extensions></trkpt>
      <trkpt lon="-4.122672" lat="53.010606"><ele>174.353729</ele><time>2021-07-17T09:16:19Z</time><extensions><speed>0.535611</speed><course>223.313202</course><hAcc>0.886821</hAcc><vAcc>0.709218</vAcc></extensions></trkpt>
      <trkpt lon="-4.122680" lat="53.010606"><ele>174.542297</ele><time>2021-07-17T09:16:20Z</time><extensions><speed>0.523038</speed><course>224.045700</course><hAcc>0.886690</hAcc><vAcc>0.708734</vAcc></extensions></trkpt>
      <trkpt lon="-4.122688" lat="53.010606"><ele>174.727264</ele><time>2021-07-17T09:16:21Z</time><extensions><speed>0.510092</speed><course>224.975723</course><hAcc>0.886571</hAcc><vAcc>0.708307</vAcc></extensions></trkpt>
      <trkpt lon="-4.122695" lat="53.010606"><ele>174.908508</ele><time>2021-07-17T09:16:22Z</time><extensions><speed>0.497603</speed><course>226.513992</course><hAcc>0.886466</hAcc><vAcc>0.707956</vAcc></extensions></trkpt>
      <trkpt lon="-4.122702" lat="53.010606"><ele>175.085861</ele><time>2021-07-17T09:16:23Z</time><extensions><speed>0.485889</speed><course>227.291473</course><hAcc>0.886377</hAcc><vAcc>0.707689</vAcc></extensions></trkpt>
      <trkpt lon="-4.122710" lat="53.010606"><ele>175.259140</ele><time>2021-07-17T09:16:24Z</time><extensions><speed>0.475441</speed><course>231.833313</course><hAcc>0.886307</hAcc><vAcc>0.707502</vAcc></extensions></trkpt>
      <trkpt lon="-4.122717" lat="53.010606"><ele>175.428207</ele><time>2021-07-17T09:16:25Z</time><extensions><speed>0.466792</speed><course>230.421005</course><hAcc>0.886256</hAcc><vAcc>0.707382</vAcc></extensions></trkpt>
      <trkpt lon="-4.122724" lat="53.010606"><ele>175.593094</ele><time>2021-07-17T09:16:26Z</time><extensions><speed>0.459980</speed><course>235.980087</course><hAcc>0.886225</hAcc><vAcc>0.707315</vAcc></extensions></trkpt>
      <trkpt lon="-4.122730" lat="53.010606"><ele>175.754196</ele><time>2021-07-17T09:16:27Z</time><extensions><speed>0.455171</speed><course>243.213364</course><hAcc>0.886214</hAcc><vAcc>0.707292</vAcc></extensions></trkpt>
      <trkpt lon="-4.122737" lat="53.010605"><ele>175.912094</ele><time>2021-07-17T09:16:28Z</time><extensions><speed>0.452763</speed><course>253.165268</course><hAcc>0.886225</hAcc><vAcc>0.707309</vAcc></extensions></trkpt>
      <trkpt lon="-4.122744" lat="53.010605"><ele>176.067642</ele><time>2021-07-17T09:16:29Z</time><extensions><speed>0.453045</speed><course>266.505096</course><hAcc>0.886259</hAcc><vAcc>0.707372</vAcc></extensions></trkpt>
      <trkpt lon="-4.122751" lat="53.010605"><ele>176.221725</ele><time>2021-07-17T09:16:30Z</time><extensions><speed>0.456172</speed><course>267.255646</course><hAcc>0.886317</hAcc><vAcc>0.707498</vAcc></extensions></trkpt>
      <trkpt lon="-4.122757" lat="53.010605"><ele>176.375153</ele><time>2021-07-17T09:16:31Z</time><extensions><speed>0.461845</speed><course>271.176971</course><hAcc>0.886402</hAcc><vAcc>0.707708</vAcc></extensions></trkpt>
      <trkpt lon="-4.122764" lat="53.010604"><ele>176.528458</ele><time>2021-07-17T09:16:32Z</time><extensions><speed>0.469370</speed><course>283.145996</course><hAcc>0.886515</hAcc><vAcc>0.708025</vAcc></extensions></trkpt>
      <trkpt lon="-4.122771" lat="53.010604"><ele>176.681900</ele><time>2021-07-17T09:16:33Z</time><extensions><speed>0.477932</speed><course>291.499756</course><hAcc>0.886655</hAcc><vAcc>0.708461</vAcc></extensions></trkpt>
      <trkpt lon="-4.122778" lat="53.010603"><ele>176.835449</ele><time>2021-07-17T09:16:34Z</time><extensions><speed>0.486458</speed><course>295.960785</course><hAcc>0.886821</hAcc><vAcc>0.709015</vAcc></extensions></trkpt>
      <trkpt lon="-4.122786" lat="53.010603"><ele>176.988876</ele><time>2021-07-17T09:16:35Z</time><extensions><speed>0.493597</speed><course>298.309418</course><hAcc>0.887010</hAcc><vAcc>0.709676</vAcc></extensions></trkpt>
      <trkpt lon="-4.122793" lat="53.010602"><ele>177.141663</ele><time>2021-07-17T09:16:36Z</time><extensions><speed>0.498368</speed><course>301.442566</course><hAcc>0.887217</hAcc><vAcc>0.710424</vAcc></extensions></trkpt>
      <trkpt lon="-4.122800" lat="53.010601"><ele>177.293167</ele><time>2021-07-17T09:16:37Z</time><extensions><speed>0.500268</speed><course>301.820831</course><hAcc>0.887436</hAcc><vAcc>0.711229</vAcc></extensions></trkpt>
      <trkpt lon="-4.122807" lat="53.010600"><ele>177.442581</ele><time>2021-07-17T09:16:38Z</time><extensions><speed>0.498591</speed><course>306.533081</course><hAcc>0.887660</hAcc><vAcc>0.712049</vAcc></extensions></trkpt>
      <trkpt lon="-4.122814" lat="53.010598"><ele>177.589096</ele><time>2021-07-17T09:16:39Z</time><extensions><speed>0.492920</speed><course>310.759277</course><hAcc>0.887879</hAcc><vAcc>0.712846</vAcc></extensions></trkpt>
      <trkpt lon="-4.122821" lat="53.010597"><ele>177.731857</ele><time>2021-07-17T09:16:40Z</time><extensions><speed>0.483799</speed><course>315.721252</course><hAcc>0.888087</hAcc><vAcc>0.713585</vAcc></extensions></trkpt>
      <trkpt lon="-4.122828" lat="53.010596"><ele>177.870056</ele><time>2021-07-17T09:16:41Z</time><extensions><speed>0.472075</speed><course>321.376434</course><hAcc>0.888275</hAcc><vAcc>0.714241</vAcc></extensions></trkpt>
      <trkpt lon="-4.122835" lat="53.010594"><ele>178.003189</ele><time>2021-07-17T09:16:42Z</time><extensions><speed>0.458282</speed><course>321.893402</course><hAcc>0.888438</hAcc><vAcc>0.714797</vAcc></extensions></trkpt>
      <trkpt lon="-4.122841" lat="53.010593"><ele>178.131165</ele><time>2021-07-17T09:16:43Z</time><extensions><speed>0.442922</speed><course>325.867676</course><hAcc>0.888569</hAcc><vAcc>0.715238</vAcc></extensions></trkpt>
      <trkpt lon="-4.122847" lat="53.010591"><ele>178.254318</ele><time>2021-07-17T09:16:44Z</time><extensions><speed>0.426622</speed><course>319.975250</course><hAcc>0.888666</hAcc><vAcc>0.715555</vAcc></extensions></trkpt>
      <trkpt lon="-4.122852" lat="53.010590"><ele>178.373337</ele><time>2021-07-17T09:16:45Z</time><extensions><speed>0.410277</speed><course>320.826599</course><hAcc>0.888728</hAcc><vAcc>0.715746</vAcc></extensions></trkpt>
      <trkpt lon="-4.122858" lat="53.010588"><ele>178.489029</ele><time>2021-07-17T09:16:46Z</time><extensions><speed>0.394738</speed><course>320.826599</course><hAcc>0.888756</hAcc><vAcc>0.715809</vAcc></extensions></trkpt>
      <trkpt lon="-4.122863" lat="53.010587"><ele>178.602371</ele><time>2021-07-17T09:16:47Z</time><extensions><speed>0.380847</speed><course>320.826599</course><hAcc>0.888752</hAcc><vAcc>0.715753</vAcc></extensions></trkpt>
      <trkpt lon="-4.122869" lat="53.010586"><ele>178.714539</ele><time>2021-07-17T09:16:48Z</time><extensions><speed>0.369905</speed><course>320.826599</course><hAcc>0.888720</hAcc><vAcc>0.715588</vAcc></extensions></trkpt>
      <trkpt lon="-4.122874" lat="53.010585"><ele>178.826767</ele><time>2021-07-17T09:16:49Z</time><extensions><speed>0.363737</speed><course>320.826599</course><hAcc>0.888667</hAcc><vAcc>0.715333</vAcc></extensions></trkpt>
      <trkpt lon="-4.122879" lat="53.010584"><ele>178.940491</ele><time>2021-07-17T09:16:50Z</time><extensions><speed>0.364010</speed><course>320.826599</course><hAcc>0.888597</hAcc><vAcc>0.715011</vAcc></extensions></trkpt>
      <trkpt lon="-4.122884" lat="53.010583"><ele>179.057251</ele><time>2021-07-17T09:16:51Z</time><extensions><speed>0.371467</speed><course>320.826599</course><hAcc>0.888519</hAcc><vAcc>0.714656</vAcc></extensions></trkpt>
      <trkpt lon="-4.122890" lat="53.010583"><ele>179.178741</ele><time>2021-07-17T09:16:52Z</time><extensions><speed>0.386020</speed><course>320.826599</course><hAcc>0.888437</hAcc><vAcc>0.714300</vAcc></extensions></trkpt>
      <trkpt lon="-4.122896" lat="53.010583"><ele>179.306656</ele><time>2021-07-17T09:16:53Z</time><extensions><speed>0.406988</speed><course>320.826599</course><hAcc>0.888357</hAcc><vAcc>0.713973</vAcc></extensions></trkpt>
      <trkpt lon="-4.122902" lat="53.010583"><ele>179.442444</ele><time>2021-07-17T09:16:54Z</time><extensions><speed>0.433897</speed><course>320.826599</course><hAcc>0.888283</hAcc><vAcc>0.713697</vAcc></extensions></trkpt>
      <trkpt lon="-4.122909" lat="53.010584"><ele>179.587219</ele><time>2021-07-17T09:16:55Z</time><extensions><speed>0.466403</speed><course>320.826599</course><hAcc>0.888217</hAcc><vAcc>0.713483</vAcc></extensions></trkpt>
      <trkpt lon="-4.122916" lat="53.010584"><ele>179.741623</ele><time>2021-07-17T09:16:56Z</time><extensions><speed>0.503297</speed><course>320.826599</course><hAcc>0.888160</hAcc><vAcc>0.713334</vAcc></extensions></trkpt>
      <trkpt lon="-4.122924" lat="53.010585"><ele>179.905853</ele><time>2021-07-17T09:16:57Z</time><extensions><speed>0.542634</speed><course>320.826599</course><hAcc>0.888110</hAcc><vAcc>0.713239</vAcc></extensions></trkpt>
      <trkpt lon="-4.122932" lat="53.010587"><ele>180.079926</ele><time>2021-07-17T09:16:58Z</time><extensions><speed>0.582549</speed><course>320.826599</course><hAcc>0.888066</hAcc><vAcc>0.713181</vAcc></extensions></trkpt>
      <trkpt lon="-4.122940" lat="53.010588"><ele>180.263870</ele><time>2021-07-17T09:16:59Z</time><extensions><speed>0.621774</speed><course>320.826599</course><hAcc>0.888023</hAcc><vAcc>0.713137</vAcc></extensions></trkpt>
      <trkpt lon="-4.122949" lat="53.010590"><ele>180.457626</ele><time>2021-07-17T09:17:00Z</time><extensions><speed>0.659240</speed><course>320.826599</course><hAcc>0.887979</hAcc><vAcc>0.713084</vAcc></extensions></trkpt>
      <trkpt lon="-4.122959" lat="53.010592"><ele>180.661118</ele><time>2021-07-17T09:17:01Z</time><extensions><speed>0.693657</speed><course>320.826599</course><hAcc>0.887929</hAcc><vAcc>0.712997</vAcc></extensions></trkpt>
      <trkpt lon="-4.122968" lat="53.010595"><ele>180.874161</ele><time>2021-07-17T09:17:02Z</time><extensions><speed>0.723734</speed><course>320.826599</course><hAcc>0.887871</hAcc><vAcc>0.712855</vAcc></extensions></trkpt>
      <trkpt lon="-4.122979" lat="53.010597"><ele>181.096313</ele><time>2021-07-17T09:17:03Z</time><extensions><speed>0.748709</speed><course>320.826599</course><hAcc>0.887803</hAcc><vAcc>0.712646</vAcc></extensions></trkpt>
      <trkpt lon="-4.122989" lat="53.010600"><ele>181.326797</ele><time>2021-07-17T09:17:04Z</time><extensions><speed>0.768414</speed><course>320.826599</course><hAcc>0.887728</hAcc><vAcc>0.712368</vAcc></extensions></trkpt>
      <trkpt lon="-4.123000" lat="53.010603"><ele>181.564636</ele><time>2021-07-17T09:17:05Z</time><extensions><speed>0.782454</speed><course>320.826599</course><hAcc>0.887646</hAcc><vAcc>0.712034</vAcc></extensions></trkpt>
      <trkpt lon="-4.123010" lat="53.010606"><ele>181.808731</ele><time>2021-07-17T09:17:06Z</time><extensions><speed>0.790396</speed><course>320.826569</course><hAcc>0.887562</hAcc><vAcc>0.711667</vAcc></extensions></trkpt>
      <trkpt lon="-4.123021" lat="53.010608"><ele>182.058105</ele><time>2021-07-17T09:17:07Z</time><extensions><speed>0.792050</speed><course>320.826569</course><hAcc>0.887479</hAcc><vAcc>0.711299</vAcc></extensions></trkpt>
      <trkpt lon="-4.123032" lat="53.010611"><ele>182.312271</ele><time>2021-07-17T09:17:08Z</time><extensions><speed>0.787067</speed><course>320.826569</course><hAcc>0.887403</hAcc><vAcc>0.710966</vAcc></extensions></trkpt>
      <trkpt lon="-4.123042" lat="53.010614"><ele>182.570770</ele><time>2021-07-17T09:17:09Z</time><extensions><speed>0.775469</speed><course>320.826569</course><hAcc>0.887340</hAcc><vAcc>0.710698</vAcc></extensions></trkpt>
      <trkpt lon="-4.123053" lat="53.010617"><ele>182.832886</ele><time>2021-07-17T09:17:10Z</time><extensions><speed>0.758135</speed><course>306.179871</course><hAcc>0.887293</hAcc><vAcc>0.710515</vAcc></extensions></trkpt>
      <trkpt lon="-4.123063" lat="53.010620"><ele>183.097672</ele><time>2021-07-17T09:17:11Z</time><extensions><speed>0.736286</speed><course>252.340622</course><hAcc>0.887266</hAcc><vAcc>0.710425</vAcc></extensions></trkpt>
      <trkpt lon="-4.123072" lat="53.010623"><ele>183.363953</ele><time>2021-07-17T09:17:12Z</time><extensions><speed>0.710879</speed><course>240.417450</course><hAcc>0.887262</hAcc><vAcc>0.710423</vAcc></extensions></trkpt>
      <trkpt lon="-4.123082" lat="53.010626"><ele>183.630356</ele><time>2021-07-17T09:17:13Z</time><extensions><speed>0.682753</speed><course>226.735764</course><hAcc>0.887281</hAcc><vAcc>0.710506</vAcc></extensions></trkpt>
      <trkpt lon="-4.123091" lat="53.010628"><ele>183.895142</ele><time>2021-07-17T09:17:14Z</time><extensions><speed>0.653126</speed><course>213.254318</course><hAcc>0.887324</hAcc><vAcc>0.710666</vAcc></extensions></trkpt>
      <trkpt lon="-4.123099" lat="53.010631"><ele>184.156418</ele><time>2021-07-17T09:17:15Z</time><extensions><speed>0.623484</speed><course>209.983795</course><hAcc>0.887388</hAcc><vAcc>0.710895</vAcc></extensions></trkpt>
      <trkpt lon="-4.123107" lat="53.010634"><ele>184.412506</ele><time>2021-07-17T09:17:16Z</time><extensions><speed>0.594966</speed><course>212.464371</course><hAcc>0.887471</hAcc><vAcc>0.711187</vAcc></extensions></trkpt>
      <trkpt lon="-4.123115" lat="53.010636"><ele>184.662308</ele><time>2021-07-17T09:17:17Z</time><extensions><speed>0.568449</speed><course>212.464355</course><hAcc>0.887570</hAcc><vAcc>0.711530</vAcc></extensions></trkpt>
      <trkpt lon="-4.123122" lat="53.010639"><ele>184.905258</ele><time>2021-07-17T09:17:18Z</time><extensions><speed>0.544816</speed><course>212.464355</course><hAcc>0.887683</hAcc><vAcc>0.711914</vAcc></extensions></trkpt>
      <trkpt lon="-4.123129" lat="53.010641"><ele>185.141006</ele><time>2021-07-17T09:17:19Z</time><extensions><speed>0.524768</speed><course>212.464340</course><hAcc>0.887805</hAcc><vAcc>0.712324</vAcc></extensions></trkpt>
      <trkpt lon="-4.123135" lat="53.010644"><ele>185.369446</ele><time>2021-07-17T09:17:20Z</time><extensions><speed>0.508555</speed><course>212.464325</course><hAcc>0.887935</hAcc><vAcc>0.712748</vAcc></extensions></trkpt>
      <trkpt lon="-4.123141" lat="53.010646"><ele>185.590668</ele><time>2021-07-17T09:17:21Z</time><extensions><speed>0.495763</speed><course>212.464325</course><hAcc>0.888067</hAcc><vAcc>0.713175</vAcc></extensions></trkpt>
      <trkpt lon="-4.123147" lat="53.010649"><ele>185.805038</ele><time>2021-07-17T09:17:22Z</time><extensions><speed>0.485553</speed><course>212.464325</course><hAcc>0.888202</hAcc><vAcc>0.713594</vAcc></extensions></trkpt>
      <trkpt lon="-4.123153" lat="53.010651"><ele>186.013458</ele><time>2021-07-17T09:17:24Z</time><extensions><speed>0.477386</speed><course>212.464310</course><hAcc>0.888316</hAcc><vAcc>0.713984</vAcc></extensions></trkpt>
      <trkpt lon="-4.123159" lat="53.010654"><ele>186.216232</ele><time>2021-07-17T09:17:25Z</time><extensions><speed>0.471086</speed><course>305.064514</course><hAcc>0.888409</hAcc><vAcc>0.714332</vAcc></extensions></trkpt>
      <trkpt lon="-4.123165" lat="53.010656"><ele>186.414368</ele><time>2021-07-17T09:17:26Z</time><extensions><speed>0.466459</speed><course>295.507660</course><hAcc>0.888495</hAcc><vAcc>0.714644</vAcc></extensions></trkpt>
      <trkpt lon="-4.123170" lat="53.010658"><ele>186.608521</ele><time>2021-07-17T09:17:27Z</time><extensions><speed>0.463351</speed><course>292.618195</course><hAcc>0.888572</hAcc><vAcc>0.714914</vAcc></extensions></trkpt>
      <trkpt lon="-4.123176" lat="53.010661"><ele>186.799286</ele><time>2021-07-17T09:17:28Z</time><extensions><speed>0.461818</speed><course>285.374146</course><hAcc>0.888639</hAcc><vAcc>0.715138</vAcc></extensions></trkpt>
      <trkpt lon="-4.123182" lat="53.010663"><ele>186.987213</ele><time>2021-07-17T09:17:29Z</time><extensions><speed>0.462025</speed><course>282.990997</course><hAcc>0.888693</hAcc><vAcc>0.715315</vAcc></extensions></trkpt>
      <trkpt lon="-4.123188" lat="53.010665"><ele>187.172729</ele><time>2021-07-17T09:17:30Z</time><extensions><speed>0.463647</speed><course>269.408752</course><hAcc>0.888735</hAcc><vAcc>0.715446</vAcc></extensions></trkpt>
      <trkpt lon="-4.123193" lat="53.010668"><ele>187.356079</ele><time>2021-07-17T09:17:31Z</time><extensions><speed>0.466536</speed><course>268.581787</course><hAcc>0.888762</hAcc><vAcc>0.715534</vAcc></extensions></trkpt>
      <trkpt lon="-4.123199" lat="53.010670"><ele>187.537399</ele><time>2021-07-17T09:17:32Z</time><extensions><speed>0.470813</speed><course>262.171875</course><hAcc>0.888776</hAcc><vAcc>0.715580</vAcc></extensions></trkpt>
      <trkpt lon="-4.123205" lat="53.010672"><ele>187.716949</ele><time>2021-07-17T09:17:33Z</time><extensions><speed>0.476850</speed><course>261.539520</course><hAcc>0.888777</hAcc><vAcc>0.715584</vAcc></extensions></trkpt>
      <trkpt lon="-4.123211" lat="53.010675"><ele>187.895111</ele><time>2021-07-17T09:17:34Z</time><extensions><speed>0.484751</speed><course>255.803879</course><hAcc>0.888765</hAcc><vAcc>0.715547</vAcc></extensions></trkpt>
      <trkpt lon="-4.123217" lat="53.010677"><ele>188.072144</ele><time>2021-07-17T09:17:35Z</time><extensions><speed>0.493818</speed><course>247.733398</course><hAcc>0.888741</hAcc><vAcc>0.715468</vAcc></extensions></trkpt>
      <trkpt lon="-4.123224" lat="53.010679"><ele>188.248108</ele><time>2021-07-17T09:17:36Z</time><extensions><speed>0.503606</speed><course>231.932861</course><hAcc>0.888706</hAcc><vAcc>0.715351</vAcc></extensions></trkpt>
      <trkpt lon="-4.123230" lat="53.010682"><ele>188.423004</ele><time>2021-07-17T09:17:37Z</time><extensions><speed>0.513817</speed><course>232.043365</course><hAcc>0.888662</hAcc><vAcc>0.715198</vAcc></extensions></trkpt>
      <trkpt lon="-4.123237" lat="53.010684"><ele>188.596710</ele><time>2021-07-17T09:17:38Z</time><extensions><speed>0.524492</speed><course>225.182800</course><hAcc>0.888611</hAcc><vAcc>0.715017</vAcc></extensions></trkpt>
      <trkpt lon="-4.123243" lat="53.010687"><ele>188.768860</ele><time>2021-07-17T09:17:39Z</time><extensions><speed>0.536091</speed><course>222.937302</course><hAcc>0.888554</hAcc><vAcc>0.714815</vAcc></extensions></trkpt>
      <trkpt lon="-4.123250" lat="53.010689"><ele>188.938797</ele><time>2021-07-17T09:17:40Z</time><extensions><speed>0.548683</speed><course>226.615036</course><hAcc>0.888494</hAcc><vAcc>0.714598</vAcc></extensions></trkpt>
      <trkpt lon="-4.123257" lat="53.010692"><ele>189.105927</ele><time>2021-07-17T09:17:41Z</time><extensions><speed>0.562197</speed><course>227.377960</course><hAcc>0.888434</hAcc><vAcc>0.714376</vAcc></extensions></trkpt>
      <trkpt lon="-4.123263" lat="53.010696"><ele>189.269867</ele><time>2021-07-17T09:17:42Z</time><extensions><speed>0.576413</speed><course>225.027542</course><hAcc>0.888376</hAcc><vAcc>0.714158</vAcc></extensions></trkpt>
      <trkpt lon="-4.123270" lat="53.010699"><ele>189.430328</ele><time>2021-07-17T09:17:43Z</time><extensions><speed>0.590704</speed><course>217.523773</course><hAcc>0.888323</hAcc><vAcc>0.713957</vAcc></extensions></trkpt>
      <trkpt lon="-4.123277" lat="53.010703"><ele>189.587143</ele><time>2021-07-17T09:17:44Z</time><extensions><speed>0.604386</speed><course>217.503448</course><hAcc>0.888277</hAcc><vAcc>0.713783</vAcc></extensions></trkpt>
      <trkpt lon="-4.123283" lat="53.010706"><ele>189.740067</ele><time>2021-07-17T09:17:45Z</time><extensions><speed>0.616862</speed><course>222.947372</course><hAcc>0.888241</hAcc><vAcc>0.713645</vAcc></extensions></trkpt>
      <trkpt lon="-4.123290" lat="53.010710"><ele>189.888763</ele><time>2021-07-17T09:17:46Z</time><extensions><speed>0.627593</speed><course>228.737518</course><hAcc>0.888215</hAcc><vAcc>0.713550</vAcc></extensions></trkpt>
      <trkpt lon="-4.123296" lat="53.010714"><ele>190.032974</ele><time>2021-07-17T09:17:47Z</time><extensions><speed>0.636064</speed><course>234.887939</course><hAcc>0.888202</hAcc><vAcc>0.713503</vAcc></extensions></trkpt>
      <trkpt lon="-4.123303" lat="53.010719"><ele>190.172653</ele><time>2021-07-17T09:17:48Z</time><extensions><speed>0.641716</speed><course>232.671463</course><hAcc>0.888200</hAcc><vAcc>0.713504</vAcc></extensions></trkpt>
      <trkpt lon="-4.123309" lat="53.010723"><ele>190.308182</ele><time>2021-07-17T09:17:49Z</time><extensions><speed>0.643926</speed><course>228.680756</course><hAcc>0.888211</hAcc><vAcc>0.713552</vAcc></extensions></trkpt>
      <trkpt lon="-4.123315" lat="53.010728"><ele>190.440247</ele><time>2021-07-17T09:17:50Z</time><extensions><speed>0.642376</speed><course>228.367065</course><hAcc>0.888234</hAcc><vAcc>0.713641</vAcc></extensions></trkpt>
      <trkpt lon="-4.123321" lat="53.010732"><ele>190.569565</ele><time>2021-07-17T09:17:51Z</time><extensions><speed>0.637323</speed><course>227.760208</course><hAcc>0.888266</hAcc><vAcc>0.713768</vAcc></extensions></trkpt>
      <trkpt lon="-4.123327" lat="53.010737"><ele>190.696838</ele><time>2021-07-17T09:17:52Z</time><extensions><speed>0.629053</speed><course>230.377014</course><hAcc>0.888307</hAcc><vAcc>0.713926</vAcc></extensions></trkpt>
      <trkpt lon="-4.123332" lat="53.010741"><ele>190.822906</ele><time>2021-07-17T09:17:53Z</time><extensions><speed>0.617647</speed><course>236.559235</course><hAcc>0.888355</hAcc><vAcc>0.714106</vAcc></extensions></trkpt>
      <trkpt lon="-4.123338" lat="53.010745"><ele>190.948730</ele><time>2021-07-17T09:17:54Z</time><extensions><speed>0.603305</speed><course>232.877869</course><hAcc>0.888407</hAcc><vAcc>0.714301</vAcc></extensions></trkpt>
      <trkpt lon="-4.123343" lat="53.010750"><ele>191.075409</ele><time>2021-07-17T09:17:55Z</time><extensions><speed>0.586366</speed><course>233.901962</course><hAcc>0.888462</hAcc><vAcc>0.714500</vAcc></extensions></trkpt>
      <trkpt lon="-4.123349" lat="53.010754"><ele>191.204041</ele><time>2021-07-17T09:17:56Z</time><extensions><speed>0.567497</speed><course>234.840546</course><hAcc>0.888518</hAcc><vAcc>0.714696</vAcc></extensions></trkpt>
      <trkpt lon="-4.123354" lat="53.010757"><ele>191.335403</ele><time>2021-07-17T09:17:57Z</time><extensions><speed>0.547723</speed><course>231.563858</course><hAcc>0.888574</hAcc><vAcc>0.714885</vAcc></extensions></trkpt>
      <trkpt lon="-4.123359" lat="53.010761"><ele>191.469620</ele><time>2021-07-17T09:17:58Z</time><extensions><speed>0.527973</speed><course>226.163422</course><hAcc>0.888628</hAcc><vAcc>0.715063</vAcc></extensions></trkpt>
      <trkpt lon="-4.123365" lat="53.010764"><ele>191.606339</ele><time>2021-07-17T09:17:59Z</time><extensions><speed>0.509270</speed><course>224.694687</course><hAcc>0.888681</hAcc><vAcc>0.715232</vAcc></extensions></trkpt>
      <trkpt lon="-4.123370" lat="53.010767"><ele>191.744934</ele><time>2021-07-17T09:18:00Z</time><extensions><speed>0.492763</speed><course>227.400024</course><hAcc>0.888731</hAcc><vAcc>0.715392</vAcc></extensions></trkpt>
      <trkpt lon="-4.123376" lat="53.010770"><ele>191.884720</ele><time>2021-07-17T09:18:01Z</time><extensions><speed>0.479287</speed><course>225.215622</course><hAcc>0.888779</hAcc><vAcc>0.715544</vAcc></extensions></trkpt>
      <trkpt lon="-4.123382" lat="53.010772"><ele>192.025101</ele><time>2021-07-17T09:18:02Z</time><extensions><speed>0.469620</speed><course>227.979385</course><hAcc>0.888825</hAcc><vAcc>0.715689</vAcc></extensions></trkpt>
      <trkpt lon="-4.123388" lat="53.010774"><ele>192.165573</ele><time>2021-07-17T09:18:03Z</time><extensions><speed>0.464485</speed><course>238.133682</course><hAcc>0.888869</hAcc><vAcc>0.715834</vAcc></extensions></trkpt>
      <trkpt lon="-4.123395" lat="53.010776"><ele>192.305740</ele><time>2021-07-17T09:18:04Z</time><extensions><speed>0.464243</speed><course>235.678314</course><hAcc>0.888911</hAcc><vAcc>0.715983</vAcc></extensions></trkpt>
      <trkpt lon="-4.123401" lat="53.010777"><ele>192.445129</ele><time>2021-07-17T09:18:04Z</time><extensions><speed>0.468522</speed><course>238.960709</course><hAcc>0.888969</hAcc><vAcc>0.716157</vAcc></extensions></trkpt>
      <trkpt lon="-4.123408" lat="53.010778"><ele>192.583817</ele><time>2021-07-17T09:18:05Z</time><extensions><speed>0.476742</speed><course>237.793289</course><hAcc>0.889044</hAcc><vAcc>0.716359</vAcc></extensions></trkpt>
      <trkpt lon="-4.123415" lat="53.010778"><ele>192.721649</ele><time>2021-07-17T09:18:06Z</time><extensions><speed>0.488664</speed><course>238.209671</course><hAcc>0.889118</hAcc><vAcc>0.716580</vAcc></extensions></trkpt>
      <trkpt lon="-4.123423" lat="53.010778"><ele>192.858719</ele><time>2021-07-17T09:18:07Z</time><extensions><speed>0.503815</speed><course>239.435074</course><hAcc>0.889193</hAcc><vAcc>0.716817</vAcc></extensions></trkpt>
      <trkpt lon="-4.123430" lat="53.010777"><ele>192.995148</ele><time>2021-07-17T09:18:08Z</time><extensions><speed>0.521465</speed><course>238.666733</course><hAcc>0.889269</hAcc><vAcc>0.717065</vAcc></extensions></trkpt>
      <trkpt lon="-4.123438" lat="53.010776"><ele>193.131119</ele><time>2021-07-17T09:18:09Z</time><extensions><speed>0.540799</speed><course>234.077820</course><hAcc>0.889347</hAcc><vAcc>0.717318</vAcc></extensions></trkpt>
      <trkpt lon="-4.123446" lat="53.010775"><ele>193.266800</ele><time>2021-07-17T09:18:10Z</time><extensions><speed>0.561136</speed><course>227.293335</course><hAcc>0.889426</hAcc><vAcc>0.717570</vAcc></extensions></trkpt>
      <trkpt lon="-4.123454" lat="53.010773"><ele>193.402542</ele><time>2021-07-17T09:18:11Z</time><extensions><speed>0.582293</speed><course>230.072769</course><hAcc>0.889506</hAcc><vAcc>0.717820</vAcc></extensions></trkpt>
      <trkpt lon="-4.123462" lat="53.010771"><ele>193.538818</ele><time>2021-07-17T09:18:12Z</time><extensions><speed>0.604055</speed><course>228.397232</course><hAcc>0.889586</hAcc><vAcc>0.718068</vAcc></extensions></trkpt>
      <trkpt lon="-4.123471" lat="53.010769"><ele>193.676407</ele><time>2021-07-17T09:18:13Z</time><extensions><speed>0.626104</speed><course>230.234772</course><hAcc>0.889666</hAcc><vAcc>0.718319</vAcc></extensions></trkpt>
      <trkpt lon="-4.123479" lat="53.010767"><ele>193.816086</ele><time>2021-07-17T09:18:14Z</time><extensions><speed>0.647738</speed><course>226.599274</course><hAcc>0.889743</hAcc><vAcc>0.718572</vAcc></extensions></trkpt>
      <trkpt lon="-4.123488" lat="53.010764"><ele>193.958542</ele><time>2021-07-17T09:18:15Z</time><extensions><speed>0.667965</speed><course>226.515137</course><hAcc>0.889816</hAcc><vAcc>0.718831</vAcc></extensions></trkpt>
      <trkpt lon="-4.123498" lat="53.010762"><ele>194.104263</ele><time>2021-07-17T09:18:16Z</time><extensions><speed>0.685717</speed><course>226.136917</course><hAcc>0.889884</hAcc><vAcc>0.719091</vAcc></extensions></trkpt>
      <trkpt lon="-4.123507" lat="53.010759"><ele>194.253479</ele><time>2021-07-17T09:18:17Z</time><extensions><speed>0.699875</speed><course>230.381958</course><hAcc>0.889944</hAcc><vAcc>0.719346</vAcc></extensions></trkpt>
      <trkpt lon="-4.123517" lat="53.010757"><ele>194.406021</ele><time>2021-07-17T09:18:18Z</time><extensions><speed>0.710104</speed><course>226.727509</course><hAcc>0.890011</hAcc><vAcc>0.719595</vAcc></extensions></trkpt>
      <trkpt lon="-4.123526" lat="53.010754"><ele>194.562241</ele><time>2021-07-17T09:18:19Z</time><extensions><speed>0.716682</speed><course>230.180862</course><hAcc>0.890087</hAcc><vAcc>0.719828</vAcc></extensions></trkpt>
      <trkpt lon="-4.123536" lat="53.010752"><ele>194.722076</ele><time>2021-07-17T09:18:20Z</time><extensions><speed>0.720084</speed><course>225.214905</course><hAcc>0.890150</hAcc><vAcc>0.720022</vAcc></extensions></trkpt>
      <trkpt lon="-4.123546" lat="53.010750"><ele>194.885544</ele><time>2021-07-17T09:18:21Z</time><extensions><speed>0.721180</speed><course>228.288971</course><hAcc>0.890202</hAcc><vAcc>0.720169</vAcc></extensions></trkpt>
      <trkpt lon="-4.123557" lat="53.010748"><ele>195.052582</ele><time>2021-07-17T09:18:22Z</time><extensions><speed>0.720900</speed><course>234.392639</course><hAcc>0.890242</hAcc><vAcc>0.720268</vAcc></extensions></trkpt>
      <trkpt lon="-4.123567" lat="53.010746"><ele>195.223190</ele><time>2021-07-17T09:18:23Z</time><extensions><speed>0.720113</speed><course>233.208801</course><hAcc>0.890271</hAcc><vAcc>0.720319</vAcc></extensions></trkpt>
      <trkpt lon="-4.123577" lat="53.010744"><ele>195.397446</ele><time>2021-07-17T09:18:24Z</time><extensions><speed>0.719633</speed><course>238.158752</course><hAcc>0.890289</hAcc><vAcc>0.720325</vAcc></extensions></trkpt>
      <trkpt lon="-4.123588" lat="53.010742"><ele>195.575363</ele><time>2021-07-17T09:18:25Z</time><extensions><speed>0.720200</speed><course>239.142517</course><hAcc>0.890297</hAcc><vAcc>0.720291</vAcc></extensions></trkpt>
      <trkpt lon="-4.123598" lat="53.010741"><ele>195.757278</ele><time>2021-07-17T09:18:26Z</time><extensions><speed>0.722303</speed><course>241.003922</course><hAcc>0.890278</hAcc><vAcc>0.720209</vAcc></extensions></trkpt>
      <trkpt lon="-4.123609" lat="53.010740"><ele>195.943069</ele><time>2021-07-17T09:18:27Z</time><extensions><speed>0.725990</speed><course>244.474228</course><hAcc>0.890232</hAcc><vAcc>0.720083</vAcc></extensions></trkpt>
      <trkpt lon="-4.123620" lat="53.010740"><ele>196.133286</ele><time>2021-07-17T09:18:28Z</time><extensions><speed>0.731117</speed><course>238.879150</course><hAcc>0.890179</hAcc><vAcc>0.719930</vAcc></extensions></trkpt>
      <trkpt lon="-4.123631" lat="53.010739"><ele>196.328140</ele><time>2021-07-17T09:18:29Z</time><extensions><speed>0.737386</speed><course>237.538528</course><hAcc>0.890118</hAcc><vAcc>0.719750</vAcc></extensions></trkpt>
      <trkpt lon="-4.123642" lat="53.010739"><ele>196.527756</ele><time>2021-07-17T09:18:30Z</time><extensions><speed>0.744458</speed><course>249.037552</course><hAcc>0.890049</hAcc><vAcc>0.719545</vAcc></extensions></trkpt>
      <trkpt lon="-4.123653" lat="53.010740"><ele>196.732071</ele><time>2021-07-17T09:18:31Z</time><extensions><speed>0.752056</speed><course>259.361603</course><hAcc>0.889972</hAcc><vAcc>0.719313</vAcc></extensions></trkpt>
      <trkpt lon="-4.123664" lat="53.010740"><ele>196.940826</ele><time>2021-07-17T09:18:32Z</time><extensions><speed>0.760054</speed><course>261.193176</course><hAcc>0.889888</hAcc><vAcc>0.719055</vAcc></extensions></trkpt>
      <trkpt lon="-4.123675" lat="53.010741"><ele>197.153595</ele><time>2021-07-17T09:18:33Z</time><extensions><speed>0.768400</speed><course>261.193146</course><hAcc>0.889798</hAcc><vAcc>0.718772</vAcc></extensions></trkpt>
      <trkpt lon="-4.123686" lat="53.010743"><ele>197.369949</ele><time>2021-07-17T09:18:34Z</time><extensions><speed>0.776961</speed><course>261.193146</course><hAcc>0.889702</hAcc><vAcc>0.718466</vAcc></extensions></trkpt>
      <trkpt lon="-4.123698" lat="53.010744"><ele>197.589508</ele><time>2021-07-17T09:18:35Z</time><extensions><speed>0.785653</speed><course>261.193146</course><hAcc>0.889600</hAcc><vAcc>0.718139</vAcc></extensions></trkpt>
      <trkpt lon="-4.123709" lat="53.010746"><ele>197.811981</ele><time>2021-07-17T09:18:36Z</time><extensions><speed>0.794173</speed><course>261.193146</course><hAcc>0.889495</hAcc><vAcc>0.717795</vAcc></extensions></trkpt>
      <trkpt lon="-4.123720" lat="53.010749"><ele>198.037292</ele><time>2021-07-17T09:18:37Z</time><extensions><speed>0.802004</speed><course>261.193146</course><hAcc>0.889388</hAcc><vAcc>0.717439</vAcc></extensions></trkpt>
      <trkpt lon="-4.123732" lat="53.010751"><ele>198.265396</ele><time>2021-07-17T09:18:38Z</time><extensions><speed>0.808555</speed><course>261.193146</course><hAcc>0.889281</hAcc><vAcc>0.717076</vAcc></extensions></trkpt>
      <trkpt lon="-4.123743" lat="53.010754"><ele>198.496231</ele><time>2021-07-17T09:18:39Z</time><extensions><speed>0.813393</speed><course>261.193146</course><hAcc>0.889176</hAcc><vAcc>0.716714</vAcc></extensions></trkpt>
      <trkpt lon="-4.123754" lat="53.010757"><ele>198.729614</ele><time>2021-07-17T09:18:40Z</time><extensions><speed>0.816256</speed><course>261.193146</course><hAcc>0.889075</hAcc><vAcc>0.716361</vAcc></extensions></trkpt>
      <trkpt lon="-4.123765" lat="53.010760"><ele>198.965286</ele><time>2021-07-17T09:18:41Z</time><extensions><speed>0.817339</speed><course>234.852402</course><hAcc>0.888981</hAcc><vAcc>0.716028</vAcc></extensions></trkpt>
      <trkpt lon="-4.123776" lat="53.010763"><ele>199.202881</ele><time>2021-07-17T09:18:42Z</time><extensions><speed>0.817267</speed><course>215.025620</course><hAcc>0.888895</hAcc><vAcc>0.715724</vAcc></extensions></trkpt>
      <trkpt lon="-4.123787" lat="53.010766"><ele>199.442123</ele><time>2021-07-17T09:18:43Z</time><extensions><speed>0.816299</speed><course>206.872131</course><hAcc>0.888818</hAcc><vAcc>0.715461</vAcc></extensions></trkpt>
      <trkpt lon="-4.123797" lat="53.010770"><ele>199.683014</ele><time>2021-07-17T09:18:44Z</time><extensions><speed>0.814507</speed><course>205.862991</course><hAcc>0.888752</hAcc><vAcc>0.715244</vAcc></extensions></trkpt>
      <trkpt lon="-4.123808" lat="53.010773"><ele>199.925522</ele><time>2021-07-17T09:18:45Z</time><extensions><speed>0.812051</speed><course>205.862976</course><hAcc>0.888698</hAcc><vAcc>0.715078</vAcc></extensions></trkpt>
      <trkpt lon="-4.123818" lat="53.010777"><ele>200.169266</ele><time>2021-07-17T09:18:46Z</time><extensions><speed>0.809333</speed><course>234.677673</course><hAcc>0.888656</hAcc><vAcc>0.714960</vAcc></extensions></trkpt>
      <trkpt lon="-4.123829" lat="53.010781"><ele>200.413406</ele><time>2021-07-17T09:18:47Z</time><extensions><speed>0.806691</speed><course>246.321655</course><hAcc>0.888625</hAcc><vAcc>0.714882</vAcc></extensions></trkpt>
      <trkpt lon="-4.123839" lat="53.010785"><ele>200.656860</ele><time>2021-07-17T09:18:48Z</time><extensions><speed>0.803969</speed><course>256.732239</course><hAcc>0.888606</hAcc><vAcc>0.714839</vAcc></extensions></trkpt>
      <trkpt lon="-4.123849" lat="53.010789"><ele>200.898300</ele><time>2021-07-17T09:18:49Z</time><extensions><speed>0.801125</speed><course>257.461731</course><hAcc>0.888596</hAcc><vAcc>0.714825</vAcc></extensions></trkpt>
      <trkpt lon="-4.123859" lat="53.010793"><ele>201.136383</ele><time>2021-07-17T09:18:50Z</time><extensions><speed>0.798630</speed><course>256.219269</course><hAcc>0.888595</hAcc><vAcc>0.714835</vAcc></extensions></trkpt>
      <trkpt lon="-4.123868" lat="53.010797"><ele>201.369812</ele><time>2021-07-17T09:18:51Z</time><extensions><speed>0.796910</speed><course>253.669510</course><hAcc>0.888601</hAcc><vAcc>0.714865</vAcc></extensions></trkpt>
      <trkpt lon="-4.123878" lat="53.010801"><ele>201.597595</ele><time>2021-07-17T09:18:52Z</time><extensions><speed>0.795817</speed><course>253.907227</course><hAcc>0.888612</hAcc><vAcc>0.714910</vAcc></extensions></trkpt>
      <trkpt lon="-4.123887" lat="53.010805"><ele>201.818909</ele><time>2021-07-17T09:18:53Z</time><extensions><speed>0.794900</speed><course>260.189209</course><hAcc>0.888627</hAcc><vAcc>0.714967</vAcc></extensions></trkpt>
      <trkpt lon="-4.123897" lat="53.010810"><ele>202.033005</ele><time>2021-07-17T09:18:54Z</time><extensions><speed>0.793881</speed><course>263.253174</course><hAcc>0.888644</hAcc><vAcc>0.715034</vAcc></extensions></trkpt>
      <trkpt lon="-4.123906" lat="53.010814"><ele>202.239120</ele><time>2021-07-17T09:18:55Z</time><extensions><speed>0.792731</speed><course>264.349060</course><hAcc>0.888661</hAcc><vAcc>0.715107</vAcc></extensions></trkpt>
      <trkpt lon="-4.123915" lat="53.010819"><ele>202.436401</ele><time>2021-07-17T09:18:56Z</time><extensions><speed>0.791524</speed><course>258.002991</course><hAcc>0.888678</hAcc><vAcc>0.715180</vAcc></extensions></trkpt>
      <trkpt lon="-4.123924" lat="53.010823"><ele>202.624084</ele><time>2021-07-17T09:18:57Z</time><extensions><speed>0.790206</speed><course>264.832825</course><hAcc>0.888693</hAcc><vAcc>0.715248</vAcc></extensions></trkpt>
      <trkpt lon="-4.123933" lat="53.010828"><ele>202.801804</ele><time>2021-07-17T09:18:58Z</time><extensions><speed>0.788583</speed><course>262.654938</course><hAcc>0.888705</hAcc><vAcc>0.715304</vAcc></extensions></trkpt>
      <trkpt lon="-4.123942" lat="53.010832"><ele>202.969589</ele><time>2021-07-17T09:18:59Z</time><extensions><speed>0.786775</speed><course>262.654938</course><hAcc>0.888714</hAcc><vAcc>0.715343</vAcc></extensions></trkpt>
      <trkpt lon="-4.123952" lat="53.010836"><ele>203.127731</ele><time>2021-07-17T09:19:00Z</time><extensions><speed>0.785033</speed><course>262.654938</course><hAcc>0.888721</hAcc><vAcc>0.715362</vAcc></extensions></trkpt>
      <trkpt lon="-4.123961" lat="53.010841"><ele>203.276672</ele><time>2021-07-17T09:19:01Z</time><extensions><speed>0.783757</speed><course>262.654938</course><hAcc>0.888727</hAcc><vAcc>0.715362</vAcc></extensions></trkpt>
      <trkpt lon="-4.123971" lat="53.010845"><ele>203.417191</ele><time>2021-07-17T09:19:02Z</time><extensions><speed>0.783367</speed><course>262.654938</course><hAcc>0.888733</hAcc><vAcc>0.715347</vAcc></extensions></trkpt>
      <trkpt lon="-4.123981" lat="53.010848"><ele>203.550400</ele><time>2021-07-17T09:19:03Z</time><extensions><speed>0.783999</speed><course>262.654938</course><hAcc>0.888740</hAcc><vAcc>0.715328</vAcc></extensions></trkpt>
      <trkpt lon="-4.123991" lat="53.010852"><ele>203.677643</ele><time>2021-07-17T09:19:04Z</time><extensions><speed>0.785519</speed><course>262.654938</course><hAcc>0.888751</hAcc><vAcc>0.715316</vAcc></extensions></trkpt>
      <trkpt lon="-4.124001" lat="53.010855"><ele>203.800415</ele><time>2021-07-17T09:19:05Z</time><extensions><speed>0.787487</speed><course>262.654938</course><hAcc>0.888766</hAcc><vAcc>0.715327</vAcc></extensions></trkpt>
      <trkpt lon="-4.124012" lat="53.010858"><ele>203.920273</ele><time>2021-07-17T09:19:06Z</time><extensions><speed>0.789794</speed><course>262.654938</course><hAcc>0.888786</hAcc><vAcc>0.715373</vAcc></extensions></trkpt>
      <trkpt lon="-4.124023" lat="53.010861"><ele>204.038849</ele><time>2021-07-17T09:19:07Z</time><extensions><speed>0.792097</speed><course>262.654938</course><hAcc>0.888812</hAcc><vAcc>0.715460</vAcc></extensions></trkpt>
      <trkpt lon="-4.124034" lat="53.010863"><ele>204.157608</ele><time>2021-07-17T09:19:08Z</time><extensions><speed>0.793422</speed><course>262.654938</course><hAcc>0.888844</hAcc><vAcc>0.715589</vAcc></extensions></trkpt>
      <trkpt lon="-4.124045" lat="53.010865"><ele>204.277756</ele><time>2021-07-17T09:19:09Z</time><extensions><speed>0.792955</speed><course>262.654938</course><hAcc>0.888882</hAcc><vAcc>0.715749</vAcc></extensions></trkpt>
      <trkpt lon="-4.124057" lat="53.010867"><ele>204.400162</ele><time>2021-07-17T09:19:10Z</time><extensions><speed>0.790241</speed><course>262.654938</course><hAcc>0.888925</hAcc><vAcc>0.715928</vAcc></extensions></trkpt>
      <trkpt lon="-4.124068" lat="53.010869"><ele>204.525314</ele><time>2021-07-17T09:19:11Z</time><extensions><speed>0.785203</speed><course>262.654938</course><hAcc>0.888972</hAcc><vAcc>0.716110</vAcc></extensions></trkpt>
      <trkpt lon="-4.124079" lat="53.010870"><ele>204.653580</ele><time>2021-07-17T09:19:12Z</time><extensions><speed>0.778312</speed><course>262.654938</course><hAcc>0.889020</hAcc><vAcc>0.716286</vAcc></extensions></trkpt>
      <trkpt lon="-4.124091" lat="53.010871"><ele>204.785126</ele><time>2021-07-17T09:19:13Z</time><extensions><speed>0.770379</speed><course>262.654938</course><hAcc>0.889069</hAcc><vAcc>0.716449</vAcc></extensions></trkpt>
      <trkpt lon="-4.124102" lat="53.010872"><ele>204.920135</ele><time>2021-07-17T09:19:14Z</time><extensions><speed>0.761780</speed><course>262.654938</course><hAcc>0.889116</hAcc><vAcc>0.716596</vAcc></extensions></trkpt>
      <trkpt lon="-4.124113" lat="53.010873"><ele>205.058685</ele><time>2021-07-17T09:19:15Z</time><extensions><speed>0.752654</speed><course>262.654938</course><hAcc>0.889160</hAcc><vAcc>0.716728</vAcc></extensions></trkpt>
      <trkpt lon="-4.124124" lat="53.010874"><ele>205.200790</ele><time>2021-07-17T09:19:16Z</time><extensions><speed>0.743415</speed><course>262.654938</course><hAcc>0.889198</hAcc><vAcc>0.716847</vAcc></extensions></trkpt>
      <trkpt lon="-4.124135" lat="53.010874"><ele>205.346451</ele><time>2021-07-17T09:19:17Z</time><extensions><speed>0.734149</speed><course>262.654938</course><hAcc>0.889230</hAcc><vAcc>0.716953</vAcc></extensions></trkpt>
      <trkpt lon="-4.124146" lat="53.010875"><ele>205.495789</ele><time>2021-07-17T09:19:18Z</time><extensions><speed>0.724579</speed><course>262.654938</course><hAcc>0.889254</hAcc><vAcc>0.717046</vAcc></extensions></trkpt>
      <trkpt lon="-4.124157" lat="53.010875"><ele>205.648834</ele><time>2021-07-17T09:19:19Z</time><extensions><speed>0.714703</speed><course>262.654938</course><hAcc>0.889269</hAcc><vAcc>0.717118</vAcc></extensions></trkpt>
      <trkpt lon="-4.124167" lat="53.010875"><ele>205.805649</ele><time>2021-07-17T09:19:20Z</time><extensions><speed>0.704894</speed><course>262.654938</course><hAcc>0.889274</hAcc><vAcc>0.717161</vAcc></extensions></trkpt>
      <trkpt lon="-4.124178" lat="53.010875"><ele>205.966446</ele><time>2021-07-17T09:19:21Z</time><extensions><speed>0.695372</speed><course>262.654938</course><hAcc>0.889269</hAcc><vAcc>0.717169</vAcc></extensions></trkpt>
      <trkpt lon="-4.124188" lat="53.010875"><ele>206.131577</ele><time>2021-07-17T09:19:22Z</time><extensions><speed>0.686394</speed><course>262.654938</course><hAcc>0.889255</hAcc><vAcc>0.717134</vAcc></extensions></trkpt>
      <trkpt lon="-4.124198" lat="53.010876"><ele>206.301544</ele><time>2021-07-17T09:19:23Z</time><extensions><speed>0.678575</speed><course>262.654938</course><hAcc>0.889233</hAcc><vAcc>0.717055</vAcc></extensions></trkpt>
      <trkpt lon="-4.124208" lat="53.010876"><ele>206.476959</ele><time>2021-07-17T09:19:24Z</time><extensions><speed>0.672265</speed><course>262.654938</course><hAcc>0.889202</hAcc><vAcc>0.716936</vAcc></extensions></trkpt>
      <trkpt lon="-4.124218" lat="53.010876"><ele>206.658539</ele><time>2021-07-17T09:19:25Z</time><extensions><speed>0.667242</speed><course>262.654938</course><hAcc>0.889166</hAcc><vAcc>0.716783</vAcc></extensions></trkpt>
      <trkpt lon="-4.124228" lat="53.010876"><ele>206.846878</ele><time>2021-07-17T09:19:26Z</time><extensions><speed>0.663123</speed><course>262.654938</course><hAcc>0.889126</hAcc><vAcc>0.716609</vAcc></extensions></trkpt>
      <trkpt lon="-4.124238" lat="53.010876"><ele>207.042374</ele><time>2021-07-17T09:19:27Z</time><extensions><speed>0.659688</speed><course>262.654938</course><hAcc>0.889085</hAcc><vAcc>0.716428</vAcc></extensions></trkpt>
      <trkpt lon="-4.124248" lat="53.010876"><ele>207.244965</ele><time>2021-07-17T09:19:28Z</time><extensions><speed>0.657084</speed><course>262.654938</course><hAcc>0.889045</hAcc><vAcc>0.716253</vAcc></extensions></trkpt>
      <trkpt lon="-4.124258" lat="53.010877"><ele>207.454361</ele><time>2021-07-17T09:19:29Z</time><extensions><speed>0.655754</speed><course>262.654938</course><hAcc>0.889009</hAcc><vAcc>0.716101</vAcc></extensions></trkpt>
      <trkpt lon="-4.124267" lat="53.010877"><ele>207.670105</ele><time>2021-07-17T09:19:30Z</time><extensions><speed>0.655915</speed><course>262.654938</course><hAcc>0.888979</hAcc><vAcc>0.715980</vAcc></extensions></trkpt>
      <trkpt lon="-4.124277" lat="53.010877"><ele>207.891815</ele><time>2021-07-17T09:19:31Z</time><extensions><speed>0.657376</speed><course>262.654938</course><hAcc>0.888957</hAcc><vAcc>0.715899</vAcc></extensions></trkpt>
      <trkpt lon="-4.124287" lat="53.010878"><ele>208.119110</ele><time>2021-07-17T09:19:32Z</time><extensions><speed>0.659789</speed><course>262.654938</course><hAcc>0.888943</hAcc><vAcc>0.715859</vAcc></extensions></trkpt>
      <trkpt lon="-4.124297" lat="53.010878"><ele>208.351639</ele><time>2021-07-17T09:19:33Z</time><extensions><speed>0.662888</speed><course>262.654938</course><hAcc>0.888938</hAcc><vAcc>0.715861</vAcc></extensions></trkpt>
      <trkpt lon="-4.124307" lat="53.010879"><ele>208.588821</ele><time>2021-07-17T09:19:34Z</time><extensions><speed>0.666681</speed><course>262.654938</course><hAcc>0.888941</hAcc><vAcc>0.715898</vAcc></extensions></trkpt>
      <trkpt lon="-4.124317" lat="53.010879"><ele>208.829727</ele><time>2021-07-17T09:19:35Z</time><extensions><speed>0.671282</speed><course>262.654938</course><hAcc>0.888950</hAcc><vAcc>0.715963</vAcc></extensions></trkpt>
      <trkpt lon="-4.124327" lat="53.010879"><ele>209.073151</ele><time>2021-07-17T09:19:36Z</time><extensions><speed>0.676403</speed><course>262.654938</course><hAcc>0.888963</hAcc><vAcc>0.716046</vAcc></extensions></trkpt>
      <trkpt lon="-4.124337" lat="53.010880"><ele>209.317703</ele><time>2021-07-17T09:19:37Z</time><extensions><speed>0.681646</speed><course>262.654938</course><hAcc>0.888978</hAcc><vAcc>0.716138</vAcc></extensions></trkpt>
      <trkpt lon="-4.124347" lat="53.010880"><ele>209.561951</ele><time>2021-07-17T09:19:38Z</time><extensions><speed>0.686720</speed><course>262.654938</course><hAcc>0.888994</hAcc><vAcc>0.716224</vAcc></extensions></trkpt>
      <trkpt lon="-4.124357" lat="53.010880"><ele>209.804581</ele><time>2021-07-17T09:19:39Z</time><extensions><speed>0.691191</speed><course>262.654938</course><hAcc>0.889006</hAcc><vAcc>0.716294</vAcc></extensions></trkpt>
      <trkpt lon="-4.124368" lat="53.010880"><ele>210.044342</ele><time>2021-07-17T09:19:40Z</time><extensions><speed>0.694318</speed><course>262.654938</course><hAcc>0.889016</hAcc><vAcc>0.716338</vAcc></extensions></trkpt>
      <trkpt lon="-4.124378" lat="53.010880"><ele>210.280243</ele><time>2021-07-17T09:19:41Z</time><extensions><speed>0.695617</speed><course>262.654938</course><hAcc>0.889020</hAcc><vAcc>0.716351</vAcc></extensions></trkpt>
      <trkpt lon="-4.124388" lat="53.010880"><ele>210.511627</ele><time>2021-07-17T09:19:42Z</time><extensions><speed>0.695075</speed><course>262.654938</course><hAcc>0.889020</hAcc><vAcc>0.716334</vAcc></extensions></trkpt>
      <trkpt lon="-4.124399" lat="53.010879"><ele>210.738266</ele><time>2021-07-17T09:19:43Z</time><extensions><speed>0.692806</speed><course>262.654938</course><hAcc>0.889014</hAcc><vAcc>0.716289</vAcc></extensions></trkpt>
      <trkpt lon="-4.124409" lat="53.010879"><ele>210.960266</ele><time>2021-07-17T09:19:44Z</time><extensions><speed>0.689436</speed><course>262.654938</course><hAcc>0.889004</hAcc><vAcc>0.716224</vAcc></extensions></trkpt>
      <trkpt lon="-4.124419" lat="53.010878"><ele>211.177917</ele><time>2021-07-17T09:19:45Z</time><extensions><speed>0.685931</speed><course>262.654938</course><hAcc>0.888991</hAcc><vAcc>0.716149</vAcc></extensions></trkpt>
      <trkpt lon="-4.124429" lat="53.010877"><ele>211.391647</ele><time>2021-07-17T09:19:46Z</time><extensions><speed>0.683283</speed><course>262.654938</course><hAcc>0.888975</hAcc><vAcc>0.716072</vAcc></extensions></trkpt>
      <trkpt lon="-4.124439" lat="53.010876"><ele>211.601837</ele><time>2021-07-17T09:19:47Z</time><extensions><speed>0.682857</speed><course>262.654938</course><hAcc>0.888959</hAcc><vAcc>0.716001</vAcc></extensions></trkpt>
      <trkpt lon="-4.124449" lat="53.010874"><ele>211.808746</ele><time>2021-07-17T09:19:48Z</time><extensions><speed>0.685714</speed><course>262.654938</course><hAcc>0.888943</hAcc><vAcc>0.715942</vAcc></extensions></trkpt>
      <trkpt lon="-4.124459" lat="53.010872"><ele>212.012604</ele><time>2021-07-17T09:19:49Z</time><extensions><speed>0.691849</speed><course>262.654938</course><hAcc>0.888928</hAcc><vAcc>0.715898</vAcc></extensions></trkpt>
      <trkpt lon="-4.124468" lat="53.010870"><ele>212.213531</ele><time>2021-07-17T09:19:50Z</time><extensions><speed>0.700702</speed><course>262.654938</course><hAcc>0.888915</hAcc><vAcc>0.715868</vAcc></extensions></trkpt>
      <trkpt lon="-4.124478" lat="53.010867"><ele>212.411560</ele><time>2021-07-17T09:19:51Z</time><extensions><speed>0.711375</speed><course>262.654938</course><hAcc>0.888904</hAcc><vAcc>0.715849</vAcc></extensions></trkpt>
      <trkpt lon="-4.124487" lat="53.010864"><ele>212.606598</ele><time>2021-07-17T09:19:52Z</time><extensions><speed>0.722901</speed><course>262.654938</course><hAcc>0.888896</hAcc><vAcc>0.715836</vAcc></extensions></trkpt>
      <trkpt lon="-4.124496" lat="53.010861"><ele>212.798584</ele><time>2021-07-17T09:19:53Z</time><extensions><speed>0.734701</speed><course>262.654938</course><hAcc>0.888889</hAcc><vAcc>0.715826</vAcc></extensions></trkpt>
      <trkpt lon="-4.124505" lat="53.010857"><ele>212.987320</ele><time>2021-07-17T09:19:54Z</time><extensions><speed>0.746347</speed><course>262.654938</course><hAcc>0.888885</hAcc><vAcc>0.715818</vAcc></extensions></trkpt>
      <trkpt lon="-4.124514" lat="53.010853"><ele>213.172562</ele><time>2021-07-17T09:19:55Z</time><extensions><speed>0.756918</speed><course>209.646423</course><hAcc>0.888884</hAcc><vAcc>0.715811</vAcc></extensions></trkpt>
      <trkpt lon="-4.124523" lat="53.010848"><ele>213.354095</ele><time>2021-07-17T09:19:56Z</time><extensions><speed>0.765134</speed><course>207.502853</course><hAcc>0.888884</hAcc><vAcc>0.715805</vAcc></extensions></trkpt>
      <trkpt lon="-4.124532" lat="53.010844"><ele>213.532104</ele><time>2021-07-17T09:19:57Z</time><extensions><speed>0.769859</speed><course>210.649872</course><hAcc>0.888888</hAcc><vAcc>0.715802</vAcc></extensions></trkpt>
      <trkpt lon="-4.124540" lat="53.010839"><ele>213.707123</ele><time>2021-07-17T09:19:58Z</time><extensions><speed>0.770275</speed><course>218.307190</course><hAcc>0.888895</hAcc><vAcc>0.715805</vAcc></extensions></trkpt>
      <trkpt lon="-4.124549" lat="53.010835"><ele>213.880005</ele><time>2021-07-17T09:19:59Z</time><extensions><speed>0.766001</speed><course>221.774033</course><hAcc>0.888905</hAcc><vAcc>0.715819</vAcc></extensions></trkpt>
      <trkpt lon="-4.124557" lat="53.010830"><ele>214.051651</ele><time>2021-07-17T09:20:00Z</time><extensions><speed>0.757049</speed><course>225.071381</course><hAcc>0.888919</hAcc><vAcc>0.715850</vAcc></extensions></trkpt>
      <trkpt lon="-4.124566" lat="53.010826"><ele>214.222855</ele><time>2021-07-17T09:20:01Z</time><extensions><speed>0.743541</speed><course>229.682953</course><hAcc>0.888938</hAcc><vAcc>0.715902</vAcc></extensions></trkpt>
      <trkpt lon="-4.124574" lat="53.010821"><ele>214.394241</ele><time>2021-07-17T09:20:02Z</time><extensions><speed>0.725739</speed><course>228.187271</course><hAcc>0.888960</hAcc><vAcc>0.715975</vAcc></extensions></trkpt>
      <trkpt lon="-4.124582" lat="53.010817"><ele>214.566086</ele><time>2021-07-17T09:20:03Z</time><extensions><speed>0.704086</speed><course>224.821243</course><hAcc>0.888986</hAcc><vAcc>0.716063</vAcc></extensions></trkpt>
      <trkpt lon="-4.124591" lat="53.010814"><ele>214.738297</ele><time>2021-07-17T09:20:04Z</time><extensions><speed>0.679243</speed><course>222.757462</course><hAcc>0.889016</hAcc><vAcc>0.716163</vAcc></extensions></trkpt>
      <trkpt lon="-4.124599" lat="53.010811"><ele>214.910538</ele><time>2021-07-17T09:20:05Z</time><extensions><speed>0.652597</speed><course>223.047150</course><hAcc>0.889049</hAcc><vAcc>0.716270</vAcc></extensions></trkpt>
      <trkpt lon="-4.124607" lat="53.010808"><ele>215.082413</ele><time>2021-07-17T09:20:06Z</time><extensions><speed>0.625883</speed><course>218.695862</course><hAcc>0.889085</hAcc><vAcc>0.716380</vAcc></extensions></trkpt>
      <trkpt lon="-4.124616" lat="53.010806"><ele>215.253754</ele><time>2021-07-17T09:20:08Z</time><extensions><speed>0.600542</speed><course>216.351273</course><hAcc>0.889104</hAcc><vAcc>0.716477</vAcc></extensions></trkpt>
      <trkpt lon="-4.124624" lat="53.010804"><ele>215.423996</ele><time>2021-07-17T09:20:09Z</time><extensions><speed>0.578142</speed><course>219.658188</course><hAcc>0.889104</hAcc><vAcc>0.716554</vAcc></extensions></trkpt>
      <trkpt lon="-4.124632" lat="53.010803"><ele>215.593155</ele><time>2021-07-17T09:20:10Z</time><extensions><speed>0.560236</speed><course>221.748871</course><hAcc>0.889102</hAcc><vAcc>0.716619</vAcc></extensions></trkpt>
      <trkpt lon="-4.124641" lat="53.010803"><ele>215.760696</ele><time>2021-07-17T09:20:10Z</time><extensions><speed>0.548607</speed><course>225.723022</course><hAcc>0.889111</hAcc><vAcc>0.716679</vAcc></extensions></trkpt>
      <trkpt lon="-4.124649" lat="53.010803"><ele>215.926437</ele><time>2021-07-17T09:20:11Z</time><extensions><speed>0.544586</speed><course>227.303833</course><hAcc>0.889132</hAcc><vAcc>0.716732</vAcc></extensions></trkpt>
      <trkpt lon="-4.124657" lat="53.010804"><ele>216.089691</ele><time>2021-07-17T09:20:12Z</time><extensions><speed>0.548387</speed><course>225.742310</course><hAcc>0.889144</hAcc><vAcc>0.716766</vAcc></extensions></trkpt>
      <trkpt lon="-4.124665" lat="53.010805"><ele>216.250336</ele><time>2021-07-17T09:20:13Z</time><extensions><speed>0.558717</speed><course>225.742310</course><hAcc>0.889146</hAcc><vAcc>0.716780</vAcc></extensions></trkpt>
      <trkpt lon="-4.124672" lat="53.010807"><ele>216.408691</ele><time>2021-07-17T09:20:14Z</time><extensions><speed>0.572877</speed><course>225.742325</course><hAcc>0.889140</hAcc><vAcc>0.716773</vAcc></extensions></trkpt>
      <trkpt lon="-4.124680" lat="53.010810"><ele>216.565292</ele><time>2021-07-17T09:20:15Z</time><extensions><speed>0.587366</speed><course>225.742325</course><hAcc>0.889123</hAcc><vAcc>0.716742</vAcc></extensions></trkpt>
      <trkpt lon="-4.124687" lat="53.010813"><ele>216.720734</ele><time>2021-07-17T09:20:16Z</time><extensions><speed>0.599106</speed><course>225.742325</course><hAcc>0.889115</hAcc><vAcc>0.716699</vAcc></extensions></trkpt>
      <trkpt lon="-4.124695" lat="53.010816"><ele>216.876221</ele><time>2021-07-17T09:20:17Z</time><extensions><speed>0.606240</speed><course>224.360504</course><hAcc>0.889118</hAcc><vAcc>0.716641</vAcc></extensions></trkpt>
      <trkpt lon="-4.124702" lat="53.010819"><ele>217.032700</ele><time>2021-07-17T09:20:18Z</time><extensions><speed>0.608153</speed><course>231.374908</course><hAcc>0.889097</hAcc><vAcc>0.716546</vAcc></extensions></trkpt>
      <trkpt lon="-4.124710" lat="53.010822"><ele>217.190674</ele><time>2021-07-17T09:20:19Z</time><extensions><speed>0.605320</speed><course>226.234039</course><hAcc>0.889053</hAcc><vAcc>0.716418</vAcc></extensions></trkpt>
      <trkpt lon="-4.124717" lat="53.010825"><ele>217.351059</ele><time>2021-07-17T09:20:20Z</time><extensions><speed>0.599129</speed><course>228.443588</course><hAcc>0.889007</hAcc><vAcc>0.716273</vAcc></extensions></trkpt>
      <trkpt lon="-4.124725" lat="53.010827"><ele>217.514343</ele><time>2021-07-17T09:20:21Z</time><extensions><speed>0.591761</speed><course>217.150848</course><hAcc>0.888958</hAcc><vAcc>0.716119</vAcc></extensions></trkpt>
      <trkpt lon="-4.124733" lat="53.010829"><ele>217.680496</ele><time>2021-07-17T09:20:22Z</time><extensions><speed>0.585674</speed><course>214.670395</course><hAcc>0.888925</hAcc><vAcc>0.715978</vAcc></extensions></trkpt>
      <trkpt lon="-4.124742" lat="53.010831"><ele>217.849869</ele><time>2021-07-17T09:20:23Z</time><extensions><speed>0.582963</speed><course>219.066208</course><hAcc>0.888911</hAcc><vAcc>0.715864</vAcc></extensions></trkpt>
      <trkpt lon="-4.124750" lat="53.010832"><ele>218.022247</ele><time>2021-07-17T09:20:24Z</time><extensions><speed>0.585022</speed><course>218.042282</course><hAcc>0.888896</hAcc><vAcc>0.715774</vAcc></extensions></trkpt>
      <trkpt lon="-4.124759" lat="53.010833"><ele>218.197281</ele><time>2021-07-17T09:20:25Z</time><extensions><speed>0.592258</speed><course>220.994385</course><hAcc>0.888885</hAcc><vAcc>0.715715</vAcc></extensions></trkpt>
      <trkpt lon="-4.124768" lat="53.010833"><ele>218.374313</ele><time>2021-07-17T09:20:26Z</time><extensions><speed>0.604172</speed><course>227.746307</course><hAcc>0.888877</hAcc><vAcc>0.715683</vAcc></extensions></trkpt>
      <trkpt lon="-4.124777" lat="53.010832"><ele>218.552658</ele><time>2021-07-17T09:20:27Z</time><extensions><speed>0.619816</speed><course>224.855316</course><hAcc>0.888874</hAcc><vAcc>0.715669</vAcc></extensions></trkpt>
      <trkpt lon="-4.124786" lat="53.010831"><ele>218.731979</ele><time>2021-07-17T09:20:28Z</time><extensions><speed>0.638221</speed><course>223.584900</course><hAcc>0.888860</hAcc><vAcc>0.715648</vAcc></extensions></trkpt>
      <trkpt lon="-4.124795" lat="53.010829"><ele>218.911530</ele><time>2021-07-17T09:20:29Z</time><extensions><speed>0.658164</speed><course>224.383530</course><hAcc>0.888834</hAcc><vAcc>0.715612</vAcc></extensions></trkpt>
      <trkpt lon="-4.124804" lat="53.010827"><ele>219.091293</ele><time>2021-07-17T09:20:30Z</time><extensions><speed>0.678376</speed><course>225.716217</course><hAcc>0.888814</hAcc><vAcc>0.715566</vAcc></extensions></trkpt>
      <trkpt lon="-4.124813" lat="53.010824"><ele>219.271255</ele><time>2021-07-17T09:20:31Z</time><extensions><speed>0.697808</speed><course>229.189102</course><hAcc>0.888801</hAcc><vAcc>0.715512</vAcc></extensions></trkpt>
      <trkpt lon="-4.124823" lat="53.010821"><ele>219.451462</ele><time>2021-07-17T09:20:32Z</time><extensions><speed>0.715618</speed><course>224.817474</course><hAcc>0.888794</hAcc><vAcc>0.715460</vAcc></extensions></trkpt>
      <trkpt lon="-4.124832" lat="53.010818"><ele>219.631866</ele><time>2021-07-17T09:20:33Z</time><extensions><speed>0.731122</speed><course>225.227936</course><hAcc>0.888794</hAcc><vAcc>0.715422</vAcc></extensions></trkpt>
      <trkpt lon="-4.124841" lat="53.010814"><ele>219.812485</ele><time>2021-07-17T09:20:34Z</time><extensions><speed>0.743772</speed><course>228.251373</course><hAcc>0.888799</hAcc><vAcc>0.715413</vAcc></extensions></trkpt>
      <trkpt lon="-4.124850" lat="53.010810"><ele>219.993408</ele><time>2021-07-17T09:20:35Z</time><extensions><speed>0.753241</speed><course>230.721024</course><hAcc>0.888811</hAcc><vAcc>0.715440</vAcc></extensions></trkpt>
      <trkpt lon="-4.124860" lat="53.010806"><ele>220.174667</ele><time>2021-07-17T09:20:36Z</time><extensions><speed>0.759722</speed><course>234.697540</course><hAcc>0.888829</hAcc><vAcc>0.715507</vAcc></extensions></trkpt>
      <trkpt lon="-4.124869" lat="53.010803"><ele>220.356262</ele><time>2021-07-17T09:20:37Z</time><extensions><speed>0.763717</speed><course>236.619934</course><hAcc>0.888853</hAcc><vAcc>0.715611</vAcc></extensions></trkpt>
      <trkpt lon="-4.124879" lat="53.010799"><ele>220.538391</ele><time>2021-07-17T09:20:38Z</time><extensions><speed>0.765662</speed><course>247.542679</course><hAcc>0.888882</hAcc><vAcc>0.715743</vAcc></extensions></trkpt>
      <trkpt lon="-4.124889" lat="53.010795"><ele>220.721420</ele><time>2021-07-17T09:20:39Z</time><extensions><speed>0.765824</speed><course>242.855072</course><hAcc>0.888916</hAcc><vAcc>0.715893</vAcc></extensions></trkpt>
      <trkpt lon="-4.124898" lat="53.010792"><ele>220.906006</ele><time>2021-07-17T09:20:40Z</time><extensions><speed>0.764195</speed><course>241.397278</course><hAcc>0.888953</hAcc><vAcc>0.716047</vAcc></extensions></trkpt>
      <trkpt lon="-4.124908" lat="53.010788"><ele>221.092789</ele><time>2021-07-17T09:20:41Z</time><extensions><speed>0.760914</speed><course>241.667068</course><hAcc>0.888992</hAcc><vAcc>0.716197</vAcc></extensions></trkpt>
      <trkpt lon="-4.124918" lat="53.010785"><ele>221.282333</ele><time>2021-07-17T09:20:42Z</time><extensions><speed>0.756466</speed><course>241.132874</course><hAcc>0.889031</hAcc><vAcc>0.716336</vAcc></extensions></trkpt>
      <trkpt lon="-4.124928" lat="53.010782"><ele>221.475174</ele><time>2021-07-17T09:20:43Z</time><extensions><speed>0.751413</speed><course>242.509506</course><hAcc>0.889070</hAcc><vAcc>0.716459</vAcc></extensions></trkpt>
      <trkpt lon="-4.124939" lat="53.010780"><ele>221.671860</ele><time>2021-07-17T09:20:44Z</time><extensions><speed>0.746457</speed><course>242.195404</course><hAcc>0.889108</hAcc><vAcc>0.716567</vAcc></extensions></trkpt>
      <trkpt lon="-4.124949" lat="53.010777"><ele>221.872864</ele><time>2021-07-17T09:20:45Z</time><extensions><speed>0.742386</speed><course>244.443573</course><hAcc>0.889146</hAcc><vAcc>0.716662</vAcc></extensions></trkpt>
      <trkpt lon="-4.124959" lat="53.010775"><ele>222.078537</ele><time>2021-07-17T09:20:46Z</time><extensions><speed>0.739751</speed><course>246.780472</course><hAcc>0.889183</hAcc><vAcc>0.716750</vAcc></extensions></trkpt>
      <trkpt lon="-4.124969" lat="53.010772"><ele>222.288986</ele><time>2021-07-17T09:20:47Z</time><extensions><speed>0.738712</speed><course>247.423477</course><hAcc>0.889220</hAcc><vAcc>0.716838</vAcc></extensions></trkpt>
      <trkpt lon="-4.124980" lat="53.010770"><ele>222.504135</ele><time>2021-07-17T09:20:48Z</time><extensions><speed>0.738958</speed><course>252.345490</course><hAcc>0.889256</hAcc><vAcc>0.716936</vAcc></extensions></trkpt>
      <trkpt lon="-4.124990" lat="53.010768"><ele>222.723633</ele><time>2021-07-17T09:20:49Z</time><extensions><speed>0.739831</speed><course>252.366760</course><hAcc>0.889293</hAcc><vAcc>0.717049</vAcc></extensions></trkpt>
      <trkpt lon="-4.125001" lat="53.010766"><ele>222.946823</ele><time>2021-07-17T09:20:50Z</time><extensions><speed>0.740590</speed><course>254.889893</course><hAcc>0.889328</hAcc><vAcc>0.717178</vAcc></extensions></trkpt>
      <trkpt lon="-4.125011" lat="53.010764"><ele>223.172729</ele><time>2021-07-17T09:20:51Z</time><extensions><speed>0.740614</speed><course>257.492432</course><hAcc>0.889363</hAcc><vAcc>0.717319</vAcc></extensions></trkpt>
      <trkpt lon="-4.125022" lat="53.010763"><ele>223.400345</ele><time>2021-07-17T09:20:52Z</time><extensions><speed>0.739424</speed><course>255.728439</course><hAcc>0.889396</hAcc><vAcc>0.717462</vAcc></extensions></trkpt>
      <trkpt lon="-4.125033" lat="53.010761"><ele>223.628876</ele><time>2021-07-17T09:20:53Z</time><extensions><speed>0.736593</speed><course>258.375061</course><hAcc>0.889427</hAcc><vAcc>0.717595</vAcc></extensions></trkpt>
      <trkpt lon="-4.125043" lat="53.010759"><ele>223.857895</ele><time>2021-07-17T09:20:54Z</time><extensions><speed>0.732148</speed><course>260.722260</course><hAcc>0.889455</hAcc><vAcc>0.717707</vAcc></extensions></trkpt>
      <trkpt lon="-4.125054" lat="53.010757"><ele>224.087006</ele><time>2021-07-17T09:20:55Z</time><extensions><speed>0.726269</speed><course>260.722260</course><hAcc>0.889478</hAcc><vAcc>0.717791</vAcc></extensions></trkpt>
      <trkpt lon="-4.125064" lat="53.010756"><ele>224.315750</ele><time>2021-07-17T09:20:56Z</time><extensions><speed>0.718827</speed><course>260.722260</course><hAcc>0.889497</hAcc><vAcc>0.717847</vAcc></extensions></trkpt>
      <trkpt lon="-4.125075" lat="53.010754"><ele>224.543732</ele><time>2021-07-17T09:20:57Z</time><extensions><speed>0.709591</speed><course>260.722260</course><hAcc>0.889510</hAcc><vAcc>0.717875</vAcc></extensions></trkpt>
      <trkpt lon="-4.125085" lat="53.010753"><ele>224.770721</ele><time>2021-07-17T09:20:58Z</time><extensions><speed>0.698539</speed><course>260.722260</course><hAcc>0.889516</hAcc><vAcc>0.717878</vAcc></extensions></trkpt>
      <trkpt lon="-4.125095" lat="53.010752"><ele>224.996475</ele><time>2021-07-17T09:20:59Z</time><extensions><speed>0.686278</speed><course>260.722260</course><hAcc>0.889517</hAcc><vAcc>0.717862</vAcc></extensions></trkpt>
      <trkpt lon="-4.125105" lat="53.010751"><ele>225.220779</ele><time>2021-07-17T09:21:00Z</time><extensions><speed>0.673618</speed><course>260.722260</course><hAcc>0.889511</hAcc><vAcc>0.717830</vAcc></extensions></trkpt>
      <trkpt lon="-4.125115" lat="53.010750"><ele>225.443253</ele><time>2021-07-17T09:21:01Z</time><extensions><speed>0.661063</speed><course>260.722229</course><hAcc>0.889500</hAcc><vAcc>0.717788</vAcc></extensions></trkpt>
      <trkpt lon="-4.125124" lat="53.010749"><ele>225.663605</ele><time>2021-07-17T09:21:02Z</time><extensions><speed>0.648837</speed><course>268.575928</course><hAcc>0.889484</hAcc><vAcc>0.717736</vAcc></extensions></trkpt>
      <trkpt lon="-4.125134" lat="53.010748"><ele>225.881500</ele><time>2021-07-17T09:21:03Z</time><extensions><speed>0.637028</speed><course>268.685822</course><hAcc>0.889463</hAcc><vAcc>0.717674</vAcc></extensions></trkpt>
      <trkpt lon="-4.125143" lat="53.010748"><ele>226.096649</ele><time>2021-07-17T09:21:04Z</time><extensions><speed>0.625738</speed><course>264.169769</course><hAcc>0.889439</hAcc><vAcc>0.717602</vAcc></extensions></trkpt>
      <trkpt lon="-4.125152" lat="53.010748"><ele>226.308731</ele><time>2021-07-17T09:21:05Z</time><extensions><speed>0.614749</speed><course>272.216278</course><hAcc>0.889412</hAcc><vAcc>0.717518</vAcc></extensions></trkpt>
      <trkpt lon="-4.125162" lat="53.010748"><ele>226.517426</ele><time>2021-07-17T09:21:06Z</time><extensions><speed>0.603873</speed><course>279.707916</course><hAcc>0.889383</hAcc><vAcc>0.717422</vAcc></extensions></trkpt>
      <trkpt lon="-4.125170" lat="53.010748"><ele>226.722504</ele><time>2021-07-17T09:21:07Z</time><extensions><speed>0.593322</speed><course>277.974487</course><hAcc>0.889353</hAcc><vAcc>0.717316</vAcc></extensions></trkpt>
      <trkpt lon="-4.125179" lat="53.010748"><ele>226.923813</ele><time>2021-07-17T09:21:08Z</time><extensions><speed>0.582518</speed><course>285.359497</course><hAcc>0.889321</hAcc><vAcc>0.717203</vAcc></extensions></trkpt>
      <trkpt lon="-4.125188" lat="53.010749"><ele>227.121338</ele><time>2021-07-17T09:21:09Z</time><extensions><speed>0.570563</speed><course>288.896698</course><hAcc>0.889290</hAcc><vAcc>0.717086</vAcc></extensions></trkpt>
      <trkpt lon="-4.125196" lat="53.010749"><ele>227.315063</ele><time>2021-07-17T09:21:10Z</time><extensions><speed>0.557072</speed><course>285.949463</course><hAcc>0.889260</hAcc><vAcc>0.716972</vAcc></extensions></trkpt>
      <trkpt lon="-4.125204" lat="53.010750"><ele>227.504700</ele><time>2021-07-17T09:21:11Z</time><extensions><speed>0.542010</speed><course>279.328217</course><hAcc>0.889231</hAcc><vAcc>0.716867</vAcc></extensions></trkpt>
      <trkpt lon="-4.125212" lat="53.010750"><ele>227.689911</ele><time>2021-07-17T09:21:12Z</time><extensions><speed>0.525763</speed><course>280.252258</course><hAcc>0.889203</hAcc><vAcc>0.716775</vAcc></extensions></trkpt>
      <trkpt lon="-4.125220" lat="53.010751"><ele>227.870331</ele><time>2021-07-17T09:21:13Z</time><extensions><speed>0.508756</speed><course>280.968384</course><hAcc>0.889177</hAcc><vAcc>0.716695</vAcc></extensions></trkpt>
      <trkpt lon="-4.125227" lat="53.010752"><ele>228.045761</ele><time>2021-07-17T09:21:14Z</time><extensions><speed>0.491541</speed><course>279.577759</course><hAcc>0.889154</hAcc><vAcc>0.716627</vAcc></extensions></trkpt>
      <trkpt lon="-4.125234" lat="53.010752"><ele>228.215942</ele><time>2021-07-17T09:21:15Z</time><extensions><speed>0.474706</speed><course>280.039124</course><hAcc>0.889132</hAcc><vAcc>0.716567</vAcc></extensions></trkpt>
      <trkpt lon="-4.125241" lat="53.010753"><ele>228.380829</ele><time>2021-07-17T09:21:16Z</time><extensions><speed>0.458186</speed><course>285.588440</course><hAcc>0.889112</hAcc><vAcc>0.716513</vAcc></extensions></trkpt>
      <trkpt lon="-4.125248" lat="53.010754"><ele>228.540588</ele><time>2021-07-17T09:21:17Z</time><extensions><speed>0.441663</speed><course>287.653503</course><hAcc>0.889093</hAcc><vAcc>0.716464</vAcc></extensions></trkpt>
      <trkpt lon="-4.125254" lat="53.010755"><ele>228.695648</ele><time>2021-07-17T09:21:18Z</time><extensions><speed>0.425371</speed><course>285.239563</course><hAcc>0.889075</hAcc><vAcc>0.716416</vAcc></extensions></trkpt>
      <trkpt lon="-4.125260" lat="53.010755"><ele>228.846603</ele><time>2021-07-17T09:21:19Z</time><extensions><speed>0.409765</speed><course>283.468018</course><hAcc>0.889058</hAcc><vAcc>0.716366</vAcc></extensions></trkpt>
      <trkpt lon="-4.125266" lat="53.010756"><ele>228.994232</ele><time>2021-07-17T09:21:20Z</time><extensions><speed>0.395421</speed><course>279.656525</course><hAcc>0.889042</hAcc><vAcc>0.716311</vAcc></extensions></trkpt>
      <trkpt lon="-4.125272" lat="53.010757"><ele>229.139648</ele><time>2021-07-17T09:21:21Z</time><extensions><speed>0.383075</speed><course>278.539093</course><hAcc>0.889026</hAcc><vAcc>0.716248</vAcc></extensions></trkpt>
      <trkpt lon="-4.125277" lat="53.010757"><ele>229.283951</ele><time>2021-07-17T09:21:22Z</time><extensions><speed>0.373317</speed><course>281.435120</course><hAcc>0.889012</hAcc><vAcc>0.716182</vAcc></extensions></trkpt>
      <trkpt lon="-4.125283" lat="53.010758"><ele>229.428024</ele><time>2021-07-17T09:21:23Z</time><extensions><speed>0.366103</speed><course>285.299316</course><hAcc>0.889000</hAcc><vAcc>0.716115</vAcc></extensions></trkpt>
      <trkpt lon="-4.125288" lat="53.010758"><ele>229.572525</ele><time>2021-07-17T09:21:24Z</time><extensions><speed>0.360811</speed><course>278.729095</course><hAcc>0.888990</hAcc><vAcc>0.716054</vAcc></extensions></trkpt>
      <trkpt lon="-4.125293" lat="53.010759"><ele>229.718002</ele><time>2021-07-17T09:21:25Z</time><extensions><speed>0.356785</speed><course>281.499542</course><hAcc>0.888984</hAcc><vAcc>0.716001</vAcc></extensions></trkpt>
      <trkpt lon="-4.125299" lat="53.010759"><ele>229.864914</ele><time>2021-07-17T09:21:26Z</time><extensions><speed>0.353590</speed><course>280.886475</course><hAcc>0.888984</hAcc><vAcc>0.715959</vAcc></extensions></trkpt>
      <trkpt lon="-4.125304" lat="53.010759"><ele>230.013763</ele><time>2021-07-17T09:21:28Z</time><extensions><speed>0.351038</speed><course>287.541565</course><hAcc>0.888972</hAcc><vAcc>0.715916</vAcc></extensions></trkpt>
      <trkpt lon="-4.125309" lat="53.010760"><ele>230.164185</ele><time>2021-07-17T09:21:29Z</time><extensions><speed>0.349046</speed><course>288.221985</course><hAcc>0.888948</hAcc><vAcc>0.715873</vAcc></extensions></trkpt>
      <trkpt lon="-4.125314" lat="53.010760"><ele>230.316025</ele><time>2021-07-17T09:21:30Z</time><extensions><speed>0.347071</speed><course>291.891876</course><hAcc>0.888931</hAcc><vAcc>0.715847</vAcc></extensions></trkpt>
      <trkpt lon="-4.125319" lat="53.010760"><ele>230.468765</ele><time>2021-07-17T09:21:31Z</time><extensions><speed>0.344540</speed><course>289.035248</course><hAcc>0.888919</hAcc><vAcc>0.715837</vAcc></extensions></trkpt>
      <trkpt lon="-4.125324" lat="53.010760"><ele>230.621872</ele><time>2021-07-17T09:21:32Z</time><extensions><speed>0.341727</speed><course>286.354584</course><hAcc>0.888914</hAcc><vAcc>0.715841</vAcc></extensions></trkpt>
      <trkpt lon="-4.125330" lat="53.010760"><ele>230.774902</ele><time>2021-07-17T09:21:33Z</time><extensions><speed>0.338869</speed><course>285.070648</course><hAcc>0.888913</hAcc><vAcc>0.715857</vAcc></extensions></trkpt>
      <trkpt lon="-4.125335" lat="53.010760"><ele>230.927338</ele><time>2021-07-17T09:21:34Z</time><extensions><speed>0.336316</speed><course>282.456329</course><hAcc>0.888918</hAcc><vAcc>0.715880</vAcc></extensions></trkpt>
      <trkpt lon="-4.125340" lat="53.010760"><ele>231.078766</ele><time>2021-07-17T09:21:35Z</time><extensions><speed>0.334916</speed><course>277.579590</course><hAcc>0.888927</hAcc><vAcc>0.715909</vAcc></extensions></trkpt>
      <trkpt lon="-4.125345" lat="53.010760"><ele>231.229187</ele><time>2021-07-17T09:21:36Z</time><extensions><speed>0.335156</speed><course>280.944580</course><hAcc>0.888942</hAcc><vAcc>0.715944</vAcc></extensions></trkpt>
      <trkpt lon="-4.125350" lat="53.010760"><ele>231.379181</ele><time>2021-07-17T09:21:37Z</time><extensions><speed>0.337074</speed><course>286.555664</course><hAcc>0.888960</hAcc><vAcc>0.715988</vAcc></extensions></trkpt>
      <trkpt lon="-4.125355" lat="53.010760"><ele>231.529633</ele><time>2021-07-17T09:21:38Z</time><extensions><speed>0.340423</speed><course>286.867188</course><hAcc>0.888982</hAcc><vAcc>0.716047</vAcc></extensions></trkpt>
      <trkpt lon="-4.125360" lat="53.010760"><ele>231.681732</ele><time>2021-07-17T09:21:39Z</time><extensions><speed>0.344469</speed><course>285.747314</course><hAcc>0.889004</hAcc><vAcc>0.716123</vAcc></extensions></trkpt>
      <trkpt lon="-4.125365" lat="53.010761"><ele>231.836487</ele><time>2021-07-17T09:21:40Z</time><extensions><speed>0.347946</speed><course>288.748718</course><hAcc>0.889027</hAcc><vAcc>0.716214</vAcc></extensions></trkpt>
      <trkpt lon="-4.125370" lat="53.010761"><ele>231.994446</ele><time>2021-07-17T09:21:41Z</time><extensions><speed>0.349376</speed><course>282.056335</course><hAcc>0.889045</hAcc><vAcc>0.716315</vAcc></extensions></trkpt>
      <trkpt lon="-4.125375" lat="53.010761"><ele>232.155594</ele><time>2021-07-17T09:21:42Z</time><extensions><speed>0.347705</speed><course>284.841522</course><hAcc>0.889057</hAcc><vAcc>0.716412</vAcc></extensions></trkpt>
      <trkpt lon="-4.125380" lat="53.010761"><ele>232.319611</ele><time>2021-07-17T09:21:43Z</time><extensions><speed>0.342972</speed><course>283.873260</course><hAcc>0.889059</hAcc><vAcc>0.716491</vAcc></extensions></trkpt>
      <trkpt lon="-4.125385" lat="53.010761"><ele>232.485901</ele><time>2021-07-17T09:21:44Z</time><extensions><speed>0.335874</speed><course>280.645142</course><hAcc>0.889048</hAcc><vAcc>0.716529</vAcc></extensions></trkpt>
      <trkpt lon="-4.125390" lat="53.010761"><ele>232.653946</ele><time>2021-07-17T09:21:45Z</time><extensions><speed>0.327280</speed><course>278.726105</course><hAcc>0.889020</hAcc><vAcc>0.716506</vAcc></extensions></trkpt>
      <trkpt lon="-4.125395" lat="53.010761"><ele>232.823349</ele><time>2021-07-17T09:21:46Z</time><extensions><speed>0.318103</speed><course>276.107971</course><hAcc>0.888974</hAcc><vAcc>0.716401</vAcc></extensions></trkpt>
      <trkpt lon="-4.125400" lat="53.010761"><ele>232.993835</ele><time>2021-07-17T09:21:47Z</time><extensions><speed>0.309161</speed><course>275.135803</course><hAcc>0.888909</hAcc><vAcc>0.716203</vAcc></extensions></trkpt>
      <trkpt lon="-4.125404" lat="53.010761"><ele>233.165405</ele><time>2021-07-17T09:21:48Z</time><extensions><speed>0.301716</speed><course>273.705627</course><hAcc>0.888823</hAcc><vAcc>0.715911</vAcc></extensions></trkpt>
      <trkpt lon="-4.125409" lat="53.010761"><ele>233.338348</ele><time>2021-07-17T09:21:49Z</time><extensions><speed>0.297799</speed><course>279.700806</course><hAcc>0.888717</hAcc><vAcc>0.715533</vAcc></extensions></trkpt>
      <trkpt lon="-4.125413" lat="53.010761"><ele>233.513184</ele><time>2021-07-17T09:21:50Z</time><extensions><speed>0.299257</speed><course>279.102997</course><hAcc>0.888593</hAcc><vAcc>0.715082</vAcc></extensions></trkpt>
      <trkpt lon="-4.125418" lat="53.010761"><ele>233.690521</ele><time>2021-07-17T09:21:51Z</time><extensions><speed>0.306670</speed><course>281.416626</course><hAcc>0.888454</hAcc><vAcc>0.714581</vAcc></extensions></trkpt>
      <trkpt lon="-4.125422" lat="53.010760"><ele>233.870819</ele><time>2021-07-17T09:21:52Z</time><extensions><speed>0.319390</speed><course>274.399658</course><hAcc>0.888305</hAcc><vAcc>0.714050</vAcc></extensions></trkpt>
      <trkpt lon="-4.125427" lat="53.010760"><ele>234.054092</ele><time>2021-07-17T09:21:53Z</time><extensions><speed>0.336106</speed><course>277.055237</course><hAcc>0.888149</hAcc><vAcc>0.713506</vAcc></extensions></trkpt>
      <trkpt lon="-4.125432" lat="53.010759"><ele>234.240189</ele><time>2021-07-17T09:21:54Z</time><extensions><speed>0.355696</speed><course>271.055908</course><hAcc>0.887995</hAcc><vAcc>0.712964</vAcc></extensions></trkpt>
      <trkpt lon="-4.125438" lat="53.010759"><ele>234.429184</ele><time>2021-07-17T09:21:55Z</time><extensions><speed>0.377406</speed><course>270.959534</course><hAcc>0.887847</hAcc><vAcc>0.712441</vAcc></extensions></trkpt>
      <trkpt lon="-4.125443" lat="53.010758"><ele>234.621384</ele><time>2021-07-17T09:21:56Z</time><extensions><speed>0.400474</speed><course>273.311462</course><hAcc>0.887712</hAcc><vAcc>0.711952</vAcc></extensions></trkpt>
      <trkpt lon="-4.125449" lat="53.010758"><ele>234.817139</ele><time>2021-07-17T09:21:57Z</time><extensions><speed>0.424007</speed><course>270.079376</course><hAcc>0.887596</hAcc><vAcc>0.711520</vAcc></extensions></trkpt>
      <trkpt lon="-4.125456" lat="53.010757"><ele>235.016663</ele><time>2021-07-17T09:21:58Z</time><extensions><speed>0.447278</speed><course>269.858612</course><hAcc>0.887504</hAcc><vAcc>0.711167</vAcc></extensions></trkpt>
      <trkpt lon="-4.125463" lat="53.010756"><ele>235.219757</ele><time>2021-07-17T09:21:59Z</time><extensions><speed>0.470035</speed><course>271.614288</course><hAcc>0.887440</hAcc><vAcc>0.710917</vAcc></extensions></trkpt>
      <trkpt lon="-4.125470" lat="53.010755"><ele>235.425735</ele><time>2021-07-17T09:22:00Z</time><extensions><speed>0.491358</speed><course>269.703888</course><hAcc>0.887406</hAcc><vAcc>0.710782</vAcc></extensions></trkpt>
      <trkpt lon="-4.125477" lat="53.010755"><ele>235.633499</ele><time>2021-07-17T09:22:01Z</time><extensions><speed>0.509710</speed><course>271.185974</course><hAcc>0.887404</hAcc><vAcc>0.710773</vAcc></extensions></trkpt>
      <trkpt lon="-4.125485" lat="53.010754"><ele>235.842285</ele><time>2021-07-17T09:22:02Z</time><extensions><speed>0.524440</speed><course>276.545776</course><hAcc>0.887433</hAcc><vAcc>0.710891</vAcc></extensions></trkpt>
      <trkpt lon="-4.125492" lat="53.010753"><ele>236.051666</ele><time>2021-07-17T09:22:03Z</time><extensions><speed>0.535488</speed><course>274.150604</course><hAcc>0.887490</hAcc><vAcc>0.711130</vAcc></extensions></trkpt>
      <trkpt lon="-4.125500" lat="53.010753"><ele>236.261185</ele><time>2021-07-17T09:22:04Z</time><extensions><speed>0.542391</speed><course>269.686920</course><hAcc>0.887572</hAcc><vAcc>0.711471</vAcc></extensions></trkpt>
      <trkpt lon="-4.125508" lat="53.010752"><ele>236.470139</ele><time>2021-07-17T09:22:05Z</time><extensions><speed>0.544927</speed><course>266.852386</course><hAcc>0.887674</hAcc><vAcc>0.711885</vAcc></extensions></trkpt>
      <trkpt lon="-4.125516" lat="53.010752"><ele>236.677521</ele><time>2021-07-17T09:22:06Z</time><extensions><speed>0.543829</speed><course>267.243347</course><hAcc>0.887789</hAcc><vAcc>0.712343</vAcc></extensions></trkpt>
      <trkpt lon="-4.125525" lat="53.010752"><ele>236.882309</ele><time>2021-07-17T09:22:07Z</time><extensions><speed>0.539899</speed><course>260.829193</course><hAcc>0.887911</hAcc><vAcc>0.712812</vAcc></extensions></trkpt>
      <trkpt lon="-4.125533" lat="53.010752"><ele>237.083603</ele><time>2021-07-17T09:22:08Z</time><extensions><speed>0.533742</speed><course>268.227509</course><hAcc>0.888035</hAcc><vAcc>0.713269</vAcc></extensions></trkpt>
      <trkpt lon="-4.125540" lat="53.010752"><ele>237.280792</ele><time>2021-07-17T09:22:09Z</time><extensions><speed>0.526109</speed><course>261.241119</course><hAcc>0.888155</hAcc><vAcc>0.713694</vAcc></extensions></trkpt>
      <trkpt lon="-4.125548" lat="53.010753"><ele>237.473633</ele><time>2021-07-17T09:22:10Z</time><extensions><speed>0.517260</speed><course>259.199677</course><hAcc>0.888266</hAcc><vAcc>0.714075</vAcc></extensions></trkpt>
      <trkpt lon="-4.125556" lat="53.010753"><ele>237.662079</ele><time>2021-07-17T09:22:11Z</time><extensions><speed>0.506893</speed><course>258.372070</course><hAcc>0.888365</hAcc><vAcc>0.714401</vAcc></extensions></trkpt>
      <trkpt lon="-4.125563" lat="53.010754"><ele>237.845932</ele><time>2021-07-17T09:22:12Z</time><extensions><speed>0.495018</speed><course>251.644882</course><hAcc>0.888450</hAcc><vAcc>0.714667</vAcc></extensions></trkpt>
      <trkpt lon="-4.125570" lat="53.010754"><ele>238.024979</ele><time>2021-07-17T09:22:13Z</time><extensions><speed>0.482241</speed><course>250.726257</course><hAcc>0.888521</hAcc><vAcc>0.714874</vAcc></extensions></trkpt>
      <trkpt lon="-4.125577" lat="53.010755"><ele>238.199387</ele><time>2021-07-17T09:22:14Z</time><extensions><speed>0.469196</speed><course>245.632431</course><hAcc>0.888577</hAcc><vAcc>0.715028</vAcc></extensions></trkpt>
      <trkpt lon="-4.125584" lat="53.010756"><ele>238.369690</ele><time>2021-07-17T09:22:15Z</time><extensions><speed>0.456558</speed><course>245.967255</course><hAcc>0.888619</hAcc><vAcc>0.715141</vAcc></extensions></trkpt>
      <trkpt lon="-4.125591" lat="53.010757"><ele>238.536652</ele><time>2021-07-17T09:22:16Z</time><extensions><speed>0.444787</speed><course>241.448837</course><hAcc>0.888647</hAcc><vAcc>0.715224</vAcc></extensions></trkpt>
      <trkpt lon="-4.125597" lat="53.010758"><ele>238.700897</ele><time>2021-07-17T09:22:16Z</time><extensions><speed>0.433926</speed><course>246.306168</course><hAcc>0.888682</hAcc><vAcc>0.715301</vAcc></extensions></trkpt>
      <trkpt lon="-4.125603" lat="53.010759"><ele>238.863525</ele><time>2021-07-17T09:22:17Z</time><extensions><speed>0.423820</speed><course>241.853012</course><hAcc>0.888723</hAcc><vAcc>0.715381</vAcc></extensions></trkpt>
      <trkpt lon="-4.125609" lat="53.010760"><ele>239.024841</ele><time>2021-07-17T09:22:18Z</time><extensions><speed>0.413920</speed><course>247.017685</course><hAcc>0.888756</hAcc><vAcc>0.715456</vAcc></extensions></trkpt>
      <trkpt lon="-4.125615" lat="53.010760"><ele>239.185135</ele><time>2021-07-17T09:22:19Z</time><extensions><speed>0.403354</speed><course>242.793106</course><hAcc>0.888780</hAcc><vAcc>0.715529</vAcc></extensions></trkpt>
      <trkpt lon="-4.125621" lat="53.010761"><ele>239.344620</ele><time>2021-07-17T09:22:20Z</time><extensions><speed>0.391961</speed><course>241.528748</course><hAcc>0.888798</hAcc><vAcc>0.715597</vAcc></extensions></trkpt>
      <trkpt lon="-4.125627" lat="53.010762"><ele>239.503296</ele><time>2021-07-17T09:22:21Z</time><extensions><speed>0.380297</speed><course>239.773132</course><hAcc>0.888811</hAcc><vAcc>0.715657</vAcc></extensions></trkpt>
      <trkpt lon="-4.125632" lat="53.010762"><ele>239.661057</ele><time>2021-07-17T09:22:22Z</time><extensions><speed>0.368907</speed><course>228.079361</course><hAcc>0.888817</hAcc><vAcc>0.715700</vAcc></extensions></trkpt>
      <trkpt lon="-4.125638" lat="53.010763"><ele>239.817795</ele><time>2021-07-17T09:22:23Z</time><extensions><speed>0.358296</speed><course>235.745880</course><hAcc>0.888818</hAcc><vAcc>0.715719</vAcc></extensions></trkpt>
      <trkpt lon="-4.125643" lat="53.010763"><ele>239.973328</ele><time>2021-07-17T09:22:24Z</time><extensions><speed>0.349044</speed><course>241.026978</course><hAcc>0.888814</hAcc><vAcc>0.715710</vAcc></extensions></trkpt>
      <trkpt lon="-4.125648" lat="53.010763"><ele>240.127472</ele><time>2021-07-17T09:22:25Z</time><extensions><speed>0.341130</speed><course>241.201813</course><hAcc>0.888806</hAcc><vAcc>0.715670</vAcc></extensions></trkpt>
      <trkpt lon="-4.125653" lat="53.010763"><ele>240.280060</ele><time>2021-07-17T09:22:26Z</time><extensions><speed>0.333927</speed><course>237.798721</course><hAcc>0.888795</hAcc><vAcc>0.715605</vAcc></extensions></trkpt>
      <trkpt lon="-4.125658" lat="53.010763"><ele>240.430695</ele><time>2021-07-17T09:22:27Z</time><extensions><speed>0.327684</speed><course>239.932953</course><hAcc>0.888784</hAcc><vAcc>0.715522</vAcc></extensions></trkpt>
      <trkpt lon="-4.125663" lat="53.010763"><ele>240.578766</ele><time>2021-07-17T09:22:28Z</time><extensions><speed>0.323407</speed><course>236.617691</course><hAcc>0.888775</hAcc><vAcc>0.715436</vAcc></extensions></trkpt>
      <trkpt lon="-4.125667" lat="53.010762"><ele>240.723831</ele><time>2021-07-17T09:22:29Z</time><extensions><speed>0.321927</speed><course>241.818802</course><hAcc>0.888770</hAcc><vAcc>0.715363</vAcc></extensions></trkpt>
      <trkpt lon="-4.125672" lat="53.010762"><ele>240.865707</ele><time>2021-07-17T09:22:30Z</time><extensions><speed>0.323713</speed><course>239.437317</course><hAcc>0.888771</hAcc><vAcc>0.715322</vAcc></extensions></trkpt>
      <trkpt lon="-4.125677" lat="53.010762"><ele>241.004639</ele><time>2021-07-17T09:22:31Z</time><extensions><speed>0.328825</speed><course>246.363113</course><hAcc>0.888779</hAcc><vAcc>0.715328</vAcc></extensions></trkpt>
      <trkpt lon="-4.125682" lat="53.010761"><ele>241.141281</ele><time>2021-07-17T09:22:32Z</time><extensions><speed>0.337129</speed><course>246.700150</course><hAcc>0.888795</hAcc><vAcc>0.715386</vAcc></extensions></trkpt>
      <trkpt lon="-4.125687" lat="53.010761"><ele>241.276779</ele><time>2021-07-17T09:22:33Z</time><extensions><speed>0.348555</speed><course>246.096832</course><hAcc>0.888822</hAcc><vAcc>0.715491</vAcc></extensions></trkpt>
      <trkpt lon="-4.125692" lat="53.010761"><ele>241.412552</ele><time>2021-07-17T09:22:34Z</time><extensions><speed>0.362860</speed><course>243.815796</course><hAcc>0.888859</hAcc><vAcc>0.715635</vAcc></extensions></trkpt>
      <trkpt lon="-4.125698" lat="53.010761"><ele>241.550140</ele><time>2021-07-17T09:22:35Z</time><extensions><speed>0.379401</speed><course>246.512634</course><hAcc>0.888905</hAcc><vAcc>0.715806</vAcc></extensions></trkpt>
      <trkpt lon="-4.125704" lat="53.010760"><ele>241.691040</ele><time>2021-07-17T09:22:36Z</time><extensions><speed>0.397388</speed><course>244.050751</course><hAcc>0.888958</hAcc><vAcc>0.716000</vAcc></extensions></trkpt>
      <trkpt lon="-4.125710" lat="53.010760"><ele>241.836380</ele><time>2021-07-17T09:22:37Z</time><extensions><speed>0.416001</speed><course>244.230560</course><hAcc>0.889018</hAcc><vAcc>0.716209</vAcc></extensions></trkpt>
      <trkpt lon="-4.125716" lat="53.010759"><ele>241.986755</ele><time>2021-07-17T09:22:38Z</time><extensions><speed>0.434587</speed><course>245.032242</course><hAcc>0.889080</hAcc><vAcc>0.716427</vAcc></extensions></trkpt>
      <trkpt lon="-4.125722" lat="53.010759"><ele>242.142441</ele><time>2021-07-17T09:22:39Z</time><extensions><speed>0.452533</speed><course>246.179367</course><hAcc>0.889144</hAcc><vAcc>0.716649</vAcc></extensions></trkpt>
      <trkpt lon="-4.125729" lat="53.010758"><ele>242.303329</ele><time>2021-07-17T09:22:40Z</time><extensions><speed>0.468602</speed><course>241.821411</course><hAcc>0.889207</hAcc><vAcc>0.716866</vAcc></extensions></trkpt>
      <trkpt lon="-4.125736" lat="53.010757"><ele>242.468857</ele><time>2021-07-17T09:22:41Z</time><extensions><speed>0.480938</speed><course>243.788040</course><hAcc>0.889266</hAcc><vAcc>0.717073</vAcc></extensions></trkpt>
      <trkpt lon="-4.125743" lat="53.010756"><ele>242.637970</ele><time>2021-07-17T09:22:42Z</time><extensions><speed>0.488745</speed><course>243.693268</course><hAcc>0.889319</hAcc><vAcc>0.717261</vAcc></extensions></trkpt>
      <trkpt lon="-4.125750" lat="53.010755"><ele>242.809555</ele><time>2021-07-17T09:22:43Z</time><extensions><speed>0.492457</speed><course>242.775101</course><hAcc>0.889363</hAcc><vAcc>0.717424</vAcc></extensions></trkpt>
      <trkpt lon="-4.125757" lat="53.010753"><ele>242.982590</ele><time>2021-07-17T09:22:44Z</time><extensions><speed>0.492532</speed><course>245.970306</course><hAcc>0.889398</hAcc><vAcc>0.717554</vAcc></extensions></trkpt>
      <trkpt lon="-4.125764" lat="53.010752"><ele>243.156143</ele><time>2021-07-17T09:22:45Z</time><extensions><speed>0.489092</speed><course>242.405746</course><hAcc>0.889421</hAcc><vAcc>0.717647</vAcc></extensions></trkpt>
      <trkpt lon="-4.125771" lat="53.010751"><ele>243.329300</ele><time>2021-07-17T09:22:46Z</time><extensions><speed>0.482373</speed><course>242.953247</course><hAcc>0.889432</hAcc><vAcc>0.717697</vAcc></extensions></trkpt>
      <trkpt lon="-4.125778" lat="53.010750"><ele>243.501236</ele><time>2021-07-17T09:22:47Z</time><extensions><speed>0.472702</speed><course>243.898651</course><hAcc>0.889430</hAcc><vAcc>0.717703</vAcc></extensions></trkpt>
      <trkpt lon="-4.125785" lat="53.010749"><ele>243.671173</ele><time>2021-07-17T09:22:48Z</time><extensions><speed>0.460618</speed><course>246.283890</course><hAcc>0.889415</hAcc><vAcc>0.717662</vAcc></extensions></trkpt>
      <trkpt lon="-4.125791" lat="53.010748"><ele>243.838455</ele><time>2021-07-17T09:22:49Z</time><extensions><speed>0.447028</speed><course>244.954941</course><hAcc>0.889389</hAcc><vAcc>0.717575</vAcc></extensions></trkpt>
      <trkpt lon="-4.125798" lat="53.010747"><ele>244.002548</ele><time>2021-07-17T09:22:50Z</time><extensions><speed>0.432672</speed><course>242.649384</course><hAcc>0.889355</hAcc><vAcc>0.717443</vAcc></extensions></trkpt>
      <trkpt lon="-4.125804" lat="53.010746"><ele>244.163040</ele><time>2021-07-17T09:22:51Z</time><extensions><speed>0.418672</speed><course>244.763245</course><hAcc>0.889316</hAcc><vAcc>0.717273</vAcc></extensions></trkpt>
      <trkpt lon="-4.125810" lat="53.010745"><ele>244.319626</ele><time>2021-07-17T09:22:52Z</time><extensions><speed>0.406423</speed><course>244.903290</course><hAcc>0.889277</hAcc><vAcc>0.717078</vAcc></extensions></trkpt>
      <trkpt lon="-4.125816" lat="53.010745"><ele>244.472412</ele><time>2021-07-17T09:22:53Z</time><extensions><speed>0.396943</speed><course>245.405487</course><hAcc>0.889240</hAcc><vAcc>0.716879</vAcc></extensions></trkpt>
      <trkpt lon="-4.125822" lat="53.010744"><ele>244.621857</ele><time>2021-07-17T09:22:54Z</time><extensions><speed>0.390544</speed><course>244.116837</course><hAcc>0.889212</hAcc><vAcc>0.716701</vAcc></extensions></trkpt>
      <trkpt lon="-4.125827" lat="53.010744"><ele>244.768600</ele><time>2021-07-17T09:22:55Z</time><extensions><speed>0.386760</speed><course>244.373413</course><hAcc>0.889194</hAcc><vAcc>0.716572</vAcc></extensions></trkpt>
      <trkpt lon="-4.125833" lat="53.010744"><ele>244.913101</ele><time>2021-07-17T09:22:56Z</time><extensions><speed>0.384984</speed><course>242.926376</course><hAcc>0.889190</hAcc><vAcc>0.716513</vAcc></extensions></trkpt>
      <trkpt lon="-4.125839" lat="53.010743"><ele>245.055618</ele><time>2021-07-17T09:22:57Z</time><extensions><speed>0.384630</speed><course>245.132996</course><hAcc>0.889201</hAcc><vAcc>0.716536</vAcc></extensions></trkpt>
      <trkpt lon="-4.125844" lat="53.010743"><ele>245.196182</ele><time>2021-07-17T09:22:58Z</time><extensions><speed>0.385103</speed><course>244.501526</course><hAcc>0.889229</hAcc><vAcc>0.716647</vAcc></extensions></trkpt>
      <trkpt lon="-4.125850" lat="53.010742"><ele>245.334839</ele><time>2021-07-17T09:22:59Z</time><extensions><speed>0.385898</speed><course>246.537445</course><hAcc>0.889273</hAcc><vAcc>0.716839</vAcc></extensions></trkpt>
      <trkpt lon="-4.125856" lat="53.010742"><ele>245.471436</ele><time>2021-07-17T09:23:00Z</time><extensions><speed>0.386635</speed><course>249.471207</course><hAcc>0.889329</hAcc><vAcc>0.717098</vAcc></extensions></trkpt>
      <trkpt lon="-4.125861" lat="53.010741"><ele>245.605667</ele><time>2021-07-17T09:23:01Z</time><extensions><speed>0.387137</speed><course>248.775497</course><hAcc>0.889395</hAcc><vAcc>0.717397</vAcc></extensions></trkpt>
      <trkpt lon="-4.125867" lat="53.010740"><ele>245.737137</ele><time>2021-07-17T09:23:02Z</time><extensions><speed>0.387368</speed><course>246.941742</course><hAcc>0.889468</hAcc><vAcc>0.717710</vAcc></extensions></trkpt>
      <trkpt lon="-4.125873" lat="53.010739"><ele>245.865448</ele><time>2021-07-17T09:23:03Z</time><extensions><speed>0.386842</speed><course>244.433502</course><hAcc>0.889543</hAcc><vAcc>0.718013</vAcc></extensions></trkpt>
      <trkpt lon="-4.125878" lat="53.010738"><ele>245.990051</ele><time>2021-07-17T09:23:04Z</time><extensions><speed>0.384518</speed><course>244.037323</course><hAcc>0.889615</hAcc><vAcc>0.718288</vAcc></extensions></trkpt>
      <trkpt lon="-4.125884" lat="53.010737"><ele>246.110397</ele><time>2021-07-17T09:23:05Z</time><extensions><speed>0.379306</speed><course>247.924194</course><hAcc>0.889681</hAcc><vAcc>0.718522</vAcc></extensions></trkpt>
      <trkpt lon="-4.125889" lat="53.010736"><ele>246.225891</ele><time>2021-07-17T09:23:06Z</time><extensions><speed>0.371455</speed><course>244.193863</course><hAcc>0.889738</hAcc><vAcc>0.718706</vAcc></extensions></trkpt>
      <trkpt lon="-4.125894" lat="53.010736"><ele>246.335938</ele><time>2021-07-17T09:23:07Z</time><extensions><speed>0.362647</speed><course>245.117035</course><hAcc>0.889783</hAcc><vAcc>0.718839</vAcc></extensions></trkpt>
      <trkpt lon="-4.125899" lat="53.010735"><ele>246.440140</ele><time>2021-07-17T09:23:08Z</time><extensions><speed>0.354167</speed><course>240.947311</course><hAcc>0.889815</hAcc><vAcc>0.718920</vAcc></extensions></trkpt>
      <trkpt lon="-4.125905" lat="53.010734"><ele>246.538437</ele><time>2021-07-17T09:23:09Z</time><extensions><speed>0.346570</speed><course>248.726425</course><hAcc>0.889834</hAcc><vAcc>0.718955</vAcc></extensions></trkpt>
      <trkpt lon="-4.125910" lat="53.010734"><ele>246.630768</ele><time>2021-07-17T09:23:10Z</time><extensions><speed>0.340110</speed><course>246.210281</course><hAcc>0.889841</hAcc><vAcc>0.718950</vAcc></extensions></trkpt>
      <trkpt lon="-4.125915" lat="53.010734"><ele>246.717102</ele><time>2021-07-17T09:23:11Z</time><extensions><speed>0.334749</speed><course>244.130585</course><hAcc>0.889835</hAcc><vAcc>0.718910</vAcc></extensions></trkpt>
      <trkpt lon="-4.125920" lat="53.010734"><ele>246.797531</ele><time>2021-07-17T09:23:12Z</time><extensions><speed>0.330216</speed><course>242.385971</course><hAcc>0.889821</hAcc><vAcc>0.718841</vAcc></extensions></trkpt>
      <trkpt lon="-4.125925" lat="53.010734"><ele>246.872437</ele><time>2021-07-17T09:23:13Z</time><extensions><speed>0.325699</speed><course>242.586807</course><hAcc>0.889798</hAcc><vAcc>0.718749</vAcc></extensions></trkpt>
      <trkpt lon="-4.125929" lat="53.010735"><ele>246.942719</ele><time>2021-07-17T09:23:14Z</time><extensions><speed>0.320613</speed><course>243.360626</course><hAcc>0.889770</hAcc><vAcc>0.718639</vAcc></extensions></trkpt>
      <trkpt lon="-4.125934" lat="53.010735"><ele>247.009415</ele><time>2021-07-17T09:23:15Z</time><extensions><speed>0.315563</speed><course>243.971695</course><hAcc>0.889738</hAcc><vAcc>0.718520</vAcc></extensions></trkpt>
      <trkpt lon="-4.125939" lat="53.010736"><ele>247.073517</ele><time>2021-07-17T09:23:16Z</time><extensions><speed>0.311479</speed><course>240.206924</course><hAcc>0.889705</hAcc><vAcc>0.718396</vAcc></extensions></trkpt>
      <trkpt lon="-4.125943" lat="53.010736"><ele>247.136124</ele><time>2021-07-17T09:23:17Z</time><extensions><speed>0.308994</speed><course>239.075470</course><hAcc>0.889673</hAcc><vAcc>0.718275</vAcc></extensions></trkpt>
      <trkpt lon="-4.125948" lat="53.010737"><ele>247.198792</ele><time>2021-07-17T09:23:18Z</time><extensions><speed>0.308996</speed><course>237.642349</course><hAcc>0.889642</hAcc><vAcc>0.718162</vAcc></extensions></trkpt>
      <trkpt lon="-4.125952" lat="53.010737"><ele>247.263428</ele><time>2021-07-17T09:23:19Z</time><extensions><speed>0.311991</speed><course>240.263168</course><hAcc>0.889614</hAcc><vAcc>0.718063</vAcc></extensions></trkpt>
      <trkpt lon="-4.125957" lat="53.010737"><ele>247.331970</ele><time>2021-07-17T09:23:20Z</time><extensions><speed>0.317623</speed><course>236.992905</course><hAcc>0.889590</hAcc><vAcc>0.717982</vAcc></extensions></trkpt>
      <trkpt lon="-4.125962" lat="53.010738"><ele>247.406097</ele><time>2021-07-17T09:23:21Z</time><extensions><speed>0.325684</speed><course>237.814407</course><hAcc>0.889571</hAcc><vAcc>0.717921</vAcc></extensions></trkpt>
      <trkpt lon="-4.125967" lat="53.010737"><ele>247.487045</ele><time>2021-07-17T09:23:22Z</time><extensions><speed>0.336394</speed><course>233.161377</course><hAcc>0.889558</hAcc><vAcc>0.717880</vAcc></extensions></trkpt>
      <trkpt lon="-4.125972" lat="53.010737"><ele>247.575531</ele><time>2021-07-17T09:23:23Z</time><extensions><speed>0.350073</speed><course>231.854340</course><hAcc>0.889549</hAcc><vAcc>0.717857</vAcc></extensions></trkpt>
      <trkpt lon="-4.125977" lat="53.010736"><ele>247.671783</ele><time>2021-07-17T09:23:24Z</time><extensions><speed>0.366505</speed><course>230.330582</course><hAcc>0.889545</hAcc><vAcc>0.717852</vAcc></extensions></trkpt>
      <trkpt lon="-4.125982" lat="53.010736"><ele>247.775604</ele><time>2021-07-17T09:23:25Z</time><extensions><speed>0.384874</speed><course>225.955917</course><hAcc>0.889546</hAcc><vAcc>0.717865</vAcc></extensions></trkpt>
      <trkpt lon="-4.125988" lat="53.010735"><ele>247.886078</ele><time>2021-07-17T09:23:26Z</time><extensions><speed>0.404148</speed><course>228.667099</course><hAcc>0.889549</hAcc><vAcc>0.717894</vAcc></extensions></trkpt>
      <trkpt lon="-4.125994" lat="53.010733"><ele>248.001740</ele><time>2021-07-17T09:23:27Z</time><extensions><speed>0.423222</speed><course>231.197586</course><hAcc>0.889556</hAcc><vAcc>0.717935</vAcc></extensions></trkpt>
      <trkpt lon="-4.126000" lat="53.010732"><ele>248.121201</ele><time>2021-07-17T09:23:28Z</time><extensions><speed>0.441289</speed><course>231.649063</course><hAcc>0.889565</hAcc><vAcc>0.717978</vAcc></extensions></trkpt>
      <trkpt lon="-4.126006" lat="53.010730"><ele>248.243744</ele><time>2021-07-17T09:23:29Z</time><extensions><speed>0.457580</speed><course>225.252350</course><hAcc>0.889577</hAcc><vAcc>0.718019</vAcc></extensions></trkpt>
      <trkpt lon="-4.126012" lat="53.010728"><ele>248.368866</ele><time>2021-07-17T09:23:30Z</time><extensions><speed>0.471197</speed><course>227.044876</course><hAcc>0.889591</hAcc><vAcc>0.718058</vAcc></extensions></trkpt>
      <trkpt lon="-4.126018" lat="53.010726"><ele>248.495758</ele><time>2021-07-17T09:23:31Z</time><extensions><speed>0.481886</speed><course>232.104660</course><hAcc>0.889606</hAcc><vAcc>0.718094</vAcc></extensions></trkpt>
      <trkpt lon="-4.126025" lat="53.010724"><ele>248.623489</ele><time>2021-07-17T09:23:32Z</time><extensions><speed>0.489984</speed><course>229.338486</course><hAcc>0.889623</hAcc><vAcc>0.718132</vAcc></extensions></trkpt>
      <trkpt lon="-4.126031" lat="53.010722"><ele>248.751511</ele><time>2021-07-17T09:23:33Z</time><extensions><speed>0.496302</speed><course>229.521286</course><hAcc>0.889643</hAcc><vAcc>0.718174</vAcc></extensions></trkpt>
      <trkpt lon="-4.126037" lat="53.010720"><ele>248.879654</ele><time>2021-07-17T09:23:34Z</time><extensions><speed>0.501811</speed><course>230.490311</course><hAcc>0.889664</hAcc><vAcc>0.718225</vAcc></extensions></trkpt>
      <trkpt lon="-4.126044" lat="53.010717"><ele>249.008026</ele><time>2021-07-17T09:23:35Z</time><extensions><speed>0.507164</speed><course>231.378189</course><hAcc>0.889688</hAcc><vAcc>0.718292</vAcc></extensions></trkpt>
      <trkpt lon="-4.126050" lat="53.010715"><ele>249.136963</ele><time>2021-07-17T09:23:36Z</time><extensions><speed>0.512777</speed><course>228.697189</course><hAcc>0.889715</hAcc><vAcc>0.718374</vAcc></extensions></trkpt>
      <trkpt lon="-4.126056" lat="53.010712"><ele>249.266891</ele><time>2021-07-17T09:23:37Z</time><extensions><speed>0.518841</speed><course>226.471390</course><hAcc>0.889744</hAcc><vAcc>0.718471</vAcc></extensions></trkpt>
      <trkpt lon="-4.126063" lat="53.010710"><ele>249.398132</ele><time>2021-07-17T09:23:38Z</time><extensions><speed>0.525288</speed><course>220.030243</course><hAcc>0.889776</hAcc><vAcc>0.718578</vAcc></extensions></trkpt>
      <trkpt lon="-4.126070" lat="53.010707"><ele>249.530884</ele><time>2021-07-17T09:23:39Z</time><extensions><speed>0.531520</speed><course>220.714050</course><hAcc>0.889811</hAcc><vAcc>0.718689</vAcc></extensions></trkpt>
      <trkpt lon="-4.126076" lat="53.010704"><ele>249.665207</ele><time>2021-07-17T09:23:40Z</time><extensions><speed>0.536764</speed><course>225.627274</course><hAcc>0.889849</hAcc><vAcc>0.718802</vAcc></extensions></trkpt>
      <trkpt lon="-4.126083" lat="53.010702"><ele>249.801056</ele><time>2021-07-17T09:23:41Z</time><extensions><speed>0.540627</speed><course>226.764282</course><hAcc>0.889889</hAcc><vAcc>0.718912</vAcc></extensions></trkpt>
      <trkpt lon="-4.126090" lat="53.010699"><ele>249.938416</ele><time>2021-07-17T09:23:42Z</time><extensions><speed>0.542951</speed><course>226.578552</course><hAcc>0.889933</hAcc><vAcc>0.719017</vAcc></extensions></trkpt>
      <trkpt lon="-4.126097" lat="53.010696"><ele>250.077621</ele><time>2021-07-17T09:23:44Z</time><extensions><speed>0.543910</speed><course>225.919083</course><hAcc>0.889960</hAcc><vAcc>0.719103</vAcc></extensions></trkpt>
      <trkpt lon="-4.126103" lat="53.010694"><ele>250.218674</ele><time>2021-07-17T09:23:45Z</time><extensions><speed>0.543641</speed><course>231.063477</course><hAcc>0.889969</hAcc><vAcc>0.719171</vAcc></extensions></trkpt>
      <trkpt lon="-4.126110" lat="53.010691"><ele>250.361938</ele><time>2021-07-17T09:23:46Z</time><extensions><speed>0.542122</speed><course>239.724365</course><hAcc>0.889977</hAcc><vAcc>0.719231</vAcc></extensions></trkpt>
      <trkpt lon="-4.126117" lat="53.010689"><ele>250.507660</ele><time>2021-07-17T09:23:47Z</time><extensions><speed>0.539577</speed><course>234.846985</course><hAcc>0.889981</hAcc><vAcc>0.719280</vAcc></extensions></trkpt>
      <trkpt lon="-4.126124" lat="53.010686"><ele>250.656174</ele><time>2021-07-17T09:23:48Z</time><extensions><speed>0.536103</speed><course>233.853561</course><hAcc>0.889980</hAcc><vAcc>0.719313</vAcc></extensions></trkpt>
      <trkpt lon="-4.126130" lat="53.010683"><ele>250.807800</ele><time>2021-07-17T09:23:49Z</time><extensions><speed>0.531648</speed><course>233.915298</course><hAcc>0.889971</hAcc><vAcc>0.719323</vAcc></extensions></trkpt>
      <trkpt lon="-4.126137" lat="53.010680"><ele>250.962738</ele><time>2021-07-17T09:23:50Z</time><extensions><speed>0.526031</speed><course>223.625214</course><hAcc>0.889952</hAcc><vAcc>0.719303</vAcc></extensions></trkpt>
      <trkpt lon="-4.126143" lat="53.010678"><ele>251.121017</ele><time>2021-07-17T09:23:51Z</time><extensions><speed>0.519226</speed><course>224.382111</course><hAcc>0.889923</hAcc><vAcc>0.719244</vAcc></extensions></trkpt>
      <trkpt lon="-4.126149" lat="53.010675"><ele>251.282440</ele><time>2021-07-17T09:23:52Z</time><extensions><speed>0.511545</speed><course>225.549652</course><hAcc>0.889884</hAcc><vAcc>0.719142</vAcc></extensions></trkpt>
      <trkpt lon="-4.126154" lat="53.010672"><ele>251.446671</ele><time>2021-07-17T09:23:53Z</time><extensions><speed>0.503331</speed><course>226.825943</course><hAcc>0.889835</hAcc><vAcc>0.718992</vAcc></extensions></trkpt>
      <trkpt lon="-4.126160" lat="53.010669"><ele>251.613312</ele><time>2021-07-17T09:23:54Z</time><extensions><speed>0.494810</speed><course>220.216599</course><hAcc>0.889777</hAcc><vAcc>0.718793</vAcc></extensions></trkpt>
      <trkpt lon="-4.126165" lat="53.010665"><ele>251.781845</ele><time>2021-07-17T09:23:55Z</time><extensions><speed>0.486068</speed><course>222.039505</course><hAcc>0.889711</hAcc><vAcc>0.718549</vAcc></extensions></trkpt>
      <trkpt lon="-4.126170" lat="53.010662"><ele>251.951538</ele><time>2021-07-17T09:23:56Z</time><extensions><speed>0.477363</speed><course>227.811584</course><hAcc>0.889642</hAcc><vAcc>0.718274</vAcc></extensions></trkpt>
      <trkpt lon="-4.126174" lat="53.010659"><ele>252.121613</ele><time>2021-07-17T09:23:57Z</time><extensions><speed>0.469069</speed><course>229.822403</course><hAcc>0.889570</hAcc><vAcc>0.717982</vAcc></extensions></trkpt>
      <trkpt lon="-4.126179" lat="53.010656"><ele>252.291611</ele><time>2021-07-17T09:23:58Z</time><extensions><speed>0.461524</speed><course>226.344223</course><hAcc>0.889500</hAcc><vAcc>0.717692</vAcc></extensions></trkpt>
      <trkpt lon="-4.126183" lat="53.010653"><ele>252.461411</ele><time>2021-07-17T09:23:59Z</time><extensions><speed>0.454913</speed><course>227.863098</course><hAcc>0.889432</hAcc><vAcc>0.717423</vAcc></extensions></trkpt>
      <trkpt lon="-4.126187" lat="53.010649"><ele>252.630936</ele><time>2021-07-17T09:24:00Z</time><extensions><speed>0.449283</speed><course>224.422241</course><hAcc>0.889371</hAcc><vAcc>0.717189</vAcc></extensions></trkpt>
      <trkpt lon="-4.126191" lat="53.010646"><ele>252.800186</ele><time>2021-07-17T09:24:01Z</time><extensions><speed>0.444873</speed><course>216.486084</course><hAcc>0.889317</hAcc><vAcc>0.717002</vAcc></extensions></trkpt>
      <trkpt lon="-4.126195" lat="53.010643"><ele>252.969315</ele><time>2021-07-17T09:24:02Z</time><extensions><speed>0.441901</speed><course>218.578918</course><hAcc>0.889269</hAcc><vAcc>0.716866</vAcc></extensions></trkpt>
      <trkpt lon="-4.126200" lat="53.010640"><ele>253.138550</ele><time>2021-07-17T09:24:03Z</time><extensions><speed>0.440037</speed><course>214.758057</course><hAcc>0.889228</hAcc><vAcc>0.716779</vAcc></extensions></trkpt>
      <trkpt lon="-4.126204" lat="53.010637"><ele>253.308014</ele><time>2021-07-17T09:24:04Z</time><extensions><speed>0.438462</speed><course>215.942535</course><hAcc>0.889191</hAcc><vAcc>0.716730</vAcc></extensions></trkpt>
      <trkpt lon="-4.126208" lat="53.010634"><ele>253.477539</ele><time>2021-07-17T09:24:05Z</time><extensions><speed>0.436423</speed><course>217.256287</course><hAcc>0.889156</hAcc><vAcc>0.716699</vAcc></extensions></trkpt>
      <trkpt lon="-4.126213" lat="53.010631"><ele>253.646698</ele><time>2021-07-17T09:24:06Z</time><extensions><speed>0.433326</speed><course>217.763580</course><hAcc>0.889122</hAcc><vAcc>0.716660</vAcc></extensions></trkpt>
      <trkpt lon="-4.126217" lat="53.010629"><ele>253.814819</ele><time>2021-07-17T09:24:07Z</time><extensions><speed>0.428692</speed><course>218.954041</course><hAcc>0.889084</hAcc><vAcc>0.716593</vAcc></extensions></trkpt>
      <trkpt lon="-4.126222" lat="53.010626"><ele>253.981247</ele><time>2021-07-17T09:24:08Z</time><extensions><speed>0.422447</speed><course>217.422287</course><hAcc>0.889041</hAcc><vAcc>0.716480</vAcc></extensions></trkpt>
      <trkpt lon="-4.126226" lat="53.010623"><ele>254.145447</ele><time>2021-07-17T09:24:09Z</time><extensions><speed>0.414867</speed><course>223.047699</course><hAcc>0.888990</hAcc><vAcc>0.716317</vAcc></extensions></trkpt>
      <trkpt lon="-4.126230" lat="53.010620"><ele>254.306961</ele><time>2021-07-17T09:24:10Z</time><extensions><speed>0.406556</speed><course>226.677948</course><hAcc>0.888930</hAcc><vAcc>0.716106</vAcc></extensions></trkpt>
      <trkpt lon="-4.126234" lat="53.010618"><ele>254.465500</ele><time>2021-07-17T09:24:11Z</time><extensions><speed>0.398140</speed><course>227.703995</course><hAcc>0.888859</hAcc><vAcc>0.715860</vAcc></extensions></trkpt>
      <trkpt lon="-4.126238" lat="53.010615"><ele>254.620834</ele><time>2021-07-17T09:24:12Z</time><extensions><speed>0.389654</speed><course>230.590866</course><hAcc>0.888778</hAcc><vAcc>0.715592</vAcc></extensions></trkpt>
      <trkpt lon="-4.126242" lat="53.010612"><ele>254.772690</ele><time>2021-07-17T09:24:13Z</time><extensions><speed>0.380768</speed><course>227.438507</course><hAcc>0.888688</hAcc><vAcc>0.715308</vAcc></extensions></trkpt>
      <trkpt lon="-4.126245" lat="53.010610"><ele>254.920715</ele><time>2021-07-17T09:24:14Z</time><extensions><speed>0.371635</speed><course>225.468048</course><hAcc>0.888592</hAcc><vAcc>0.715008</vAcc></extensions></trkpt>
      <trkpt lon="-4.126248" lat="53.010607"><ele>255.064560</ele><time>2021-07-17T09:24:15Z</time><extensions><speed>0.362918</speed><course>227.529541</course><hAcc>0.888494</hAcc><vAcc>0.714689</vAcc></extensions></trkpt>
      <trkpt lon="-4.126251" lat="53.010604"><ele>255.204071</ele><time>2021-07-17T09:24:16Z</time><extensions><speed>0.355398</speed><course>229.101913</course><hAcc>0.888400</hAcc><vAcc>0.714353</vAcc></extensions></trkpt>
      <trkpt lon="-4.126254" lat="53.010602"><ele>255.339127</ele><time>2021-07-17T09:24:17Z</time><extensions><speed>0.349721</speed><course>232.658401</course><hAcc>0.888313</hAcc><vAcc>0.714013</vAcc></extensions></trkpt>
      <trkpt lon="-4.126257" lat="53.010599"><ele>255.469696</ele><time>2021-07-17T09:24:18Z</time><extensions><speed>0.346121</speed><course>240.985550</course><hAcc>0.888239</hAcc><vAcc>0.713697</vAcc></extensions></trkpt>
      <trkpt lon="-4.126260" lat="53.010596"><ele>255.596008</ele><time>2021-07-17T09:24:19Z</time><extensions><speed>0.344440</speed><course>247.754288</course><hAcc>0.888181</hAcc><vAcc>0.713442</vAcc></extensions></trkpt>
      <trkpt lon="-4.126262" lat="53.010594"><ele>255.718750</ele><time>2021-07-17T09:24:20Z</time><extensions><speed>0.344538</speed><course>248.647888</course><hAcc>0.888143</hAcc><vAcc>0.713278</vAcc></extensions></trkpt>
      <trkpt lon="-4.126265" lat="53.010591"><ele>255.838974</ele><time>2021-07-17T09:24:21Z</time><extensions><speed>0.346682</speed><course>249.837509</course><hAcc>0.888125</hAcc><vAcc>0.713227</vAcc></extensions></trkpt>
      <trkpt lon="-4.126268" lat="53.010588"><ele>255.957916</ele><time>2021-07-17T09:24:22Z</time><extensions><speed>0.351276</speed><course>249.805771</course><hAcc>0.888126</hAcc><vAcc>0.713298</vAcc></extensions></trkpt>
      <trkpt lon="-4.126271" lat="53.010586"><ele>256.076538</ele><time>2021-07-17T09:24:22Z</time><extensions><speed>0.358493</speed><course>248.499069</course><hAcc>0.888182</hAcc><vAcc>0.713514</vAcc></extensions></trkpt>
      <trkpt lon="-4.126274" lat="53.010583"><ele>256.196381</ele><time>2021-07-17T09:24:23Z</time><extensions><speed>0.368257</speed><course>253.940247</course><hAcc>0.888287</hAcc><vAcc>0.713861</vAcc></extensions></trkpt>
      <trkpt lon="-4.126278" lat="53.010581"><ele>256.317963</ele><time>2021-07-17T09:24:24Z</time><extensions><speed>0.379929</speed><course>258.336456</course><hAcc>0.888402</hAcc><vAcc>0.714290</vAcc></extensions></trkpt>
      <trkpt lon="-4.126282" lat="53.010578"><ele>256.441681</ele><time>2021-07-17T09:24:25Z</time><extensions><speed>0.392958</speed><course>262.374329</course><hAcc>0.888521</hAcc><vAcc>0.714767</vAcc></extensions></trkpt>
      <trkpt lon="-4.126286" lat="53.010576"><ele>256.567688</ele><time>2021-07-17T09:24:26Z</time><extensions><speed>0.406819</speed><course>267.969177</course><hAcc>0.888637</hAcc><vAcc>0.715248</vAcc></extensions></trkpt>
      <trkpt lon="-4.126290" lat="53.010573"><ele>256.695953</ele><time>2021-07-17T09:24:27Z</time><extensions><speed>0.420718</speed><course>264.224579</course><hAcc>0.888744</hAcc><vAcc>0.715693</vAcc></extensions></trkpt>
      <trkpt lon="-4.126295" lat="53.010571"><ele>256.826599</ele><time>2021-07-17T09:24:28Z</time><extensions><speed>0.434040</speed><course>268.129974</course><hAcc>0.888835</hAcc><vAcc>0.716068</vAcc></extensions></trkpt>
      <trkpt lon="-4.126300" lat="53.010568"><ele>256.959778</ele><time>2021-07-17T09:24:29Z</time><extensions><speed>0.446264</speed><course>264.321320</course><hAcc>0.888904</hAcc><vAcc>0.716343</vAcc></extensions></trkpt>
      <trkpt lon="-4.126306" lat="53.010566"><ele>257.095581</ele><time>2021-07-17T09:24:30Z</time><extensions><speed>0.456775</speed><course>264.580688</course><hAcc>0.888947</hAcc><vAcc>0.716503</vAcc></extensions></trkpt>
      <trkpt lon="-4.126311" lat="53.010563"><ele>257.233978</ele><time>2021-07-17T09:24:31Z</time><extensions><speed>0.464888</speed><course>261.702026</course><hAcc>0.888964</hAcc><vAcc>0.716541</vAcc></extensions></trkpt>
      <trkpt lon="-4.126317" lat="53.010561"><ele>257.374817</ele><time>2021-07-17T09:24:32Z</time><extensions><speed>0.470171</speed><course>257.883942</course><hAcc>0.888955</hAcc><vAcc>0.716459</vAcc></extensions></trkpt>
      <trkpt lon="-4.126322" lat="53.010558"><ele>257.518188</ele><time>2021-07-17T09:24:33Z</time><extensions><speed>0.472637</speed><course>263.828339</course><hAcc>0.888926</hAcc><vAcc>0.716270</vAcc></extensions></trkpt>
      <trkpt lon="-4.126328" lat="53.010556"><ele>257.664246</ele><time>2021-07-17T09:24:34Z</time><extensions><speed>0.472934</speed><course>263.187408</course><hAcc>0.888883</hAcc><vAcc>0.715999</vAcc></extensions></trkpt>
      <trkpt lon="-4.126333" lat="53.010553"><ele>257.813263</ele><time>2021-07-17T09:24:35Z</time><extensions><speed>0.472151</speed><course>268.276398</course><hAcc>0.888835</hAcc><vAcc>0.715680</vAcc></extensions></trkpt>
      <trkpt lon="-4.126339" lat="53.010550"><ele>257.965668</ele><time>2021-07-17T09:24:36Z</time><extensions><speed>0.471319</speed><course>267.108978</course><hAcc>0.888788</hAcc><vAcc>0.715361</vAcc></extensions></trkpt>
      <trkpt lon="-4.126344" lat="53.010547"><ele>258.121796</ele><time>2021-07-17T09:24:37Z</time><extensions><speed>0.470772</speed><course>258.999207</course><hAcc>0.888751</hAcc><vAcc>0.715093</vAcc></extensions></trkpt>
      <trkpt lon="-4.126349" lat="53.010544"><ele>258.281708</ele><time>2021-07-17T09:24:38Z</time><extensions><speed>0.469627</speed><course>261.609131</course><hAcc>0.888729</hAcc><vAcc>0.714924</vAcc></extensions></trkpt>
      <trkpt lon="-4.126354" lat="53.010541"><ele>258.445038</ele><time>2021-07-17T09:24:39Z</time><extensions><speed>0.467142</speed><course>260.762634</course><hAcc>0.888726</hAcc><vAcc>0.714884</vAcc></extensions></trkpt>
      <trkpt lon="-4.126359" lat="53.010538"><ele>258.611053</ele><time>2021-07-17T09:24:40Z</time><extensions><speed>0.463552</speed><course>257.773804</course><hAcc>0.888744</hAcc><vAcc>0.714979</vAcc></extensions></trkpt>
      <trkpt lon="-4.126364" lat="53.010535"><ele>258.778809</ele><time>2021-07-17T09:24:41Z</time><extensions><speed>0.459375</speed><course>262.016693</course><hAcc>0.888781</hAcc><vAcc>0.715191</vAcc></extensions></trkpt>
      <trkpt lon="-4.126368" lat="53.010533"><ele>258.947510</ele><time>2021-07-17T09:24:42Z</time><extensions><speed>0.454517</speed><course>259.305511</course><hAcc>0.888832</hAcc><vAcc>0.715487</vAcc></extensions></trkpt>
      <trkpt lon="-4.126373" lat="53.010530"><ele>259.116302</ele><time>2021-07-17T09:24:43Z</time><extensions><speed>0.448680</speed><course>255.993027</course><hAcc>0.888891</hAcc><vAcc>0.715823</vAcc></extensions></trkpt>
      <trkpt lon="-4.126378" lat="53.010527"><ele>259.284454</ele><time>2021-07-17T09:24:44Z</time><extensions><speed>0.442168</speed><course>263.841553</course><hAcc>0.888951</hAcc><vAcc>0.716152</vAcc></extensions></trkpt>
      <trkpt lon="-4.126382" lat="53.010524"><ele>259.451294</ele><time>2021-07-17T09:24:45Z</time><extensions><speed>0.435330</speed><course>263.463287</course><hAcc>0.889003</hAcc><vAcc>0.716430</vAcc></extensions></trkpt>
      <trkpt lon="-4.126386" lat="53.010521"><ele>259.616211</ele><time>2021-07-17T09:24:46Z</time><extensions><speed>0.428292</speed><course>263.463287</course><hAcc>0.889040</hAcc><vAcc>0.716620</vAcc></extensions></trkpt>
      <trkpt lon="-4.126390" lat="53.010518"><ele>259.778656</ele><time>2021-07-17T09:24:47Z</time><extensions><speed>0.420591</speed><course>263.463287</course><hAcc>0.889036</hAcc><vAcc>0.716681</vAcc></extensions></trkpt>
      <trkpt lon="-4.126394" lat="53.010515"><ele>259.937378</ele><time>2021-07-17T09:24:48Z</time><extensions><speed>0.411290</speed><course>263.463287</course><hAcc>0.888988</hAcc><vAcc>0.716595</vAcc></extensions></trkpt>
      <trkpt lon="-4.126398" lat="53.010512"><ele>260.091461</ele><time>2021-07-17T09:24:49Z</time><extensions><speed>0.400055</speed><course>263.463257</course><hAcc>0.888909</hAcc><vAcc>0.716362</vAcc></extensions></trkpt>
      <trkpt lon="-4.126401" lat="53.010509"><ele>260.239807</ele><time>2021-07-17T09:24:50Z</time><extensions><speed>0.387091</speed><course>263.463257</course><hAcc>0.888800</hAcc><vAcc>0.715980</vAcc></extensions></trkpt>
      <trkpt lon="-4.126404" lat="53.010506"><ele>260.381256</ele><time>2021-07-17T09:24:51Z</time><extensions><speed>0.372299</speed><course>263.463257</course><hAcc>0.888663</hAcc><vAcc>0.715461</vAcc></extensions></trkpt>
      <trkpt lon="-4.126406" lat="53.010503"><ele>260.514557</ele><time>2021-07-17T09:24:52Z</time><extensions><speed>0.355848</speed><course>263.463257</course><hAcc>0.888503</hAcc><vAcc>0.714831</vAcc></extensions></trkpt>
      <trkpt lon="-4.126408" lat="53.010500"><ele>260.638428</ele><time>2021-07-17T09:24:53Z</time><extensions><speed>0.338406</speed><course>263.463257</course><hAcc>0.888324</hAcc><vAcc>0.714131</vAcc></extensions></trkpt>
      <trkpt lon="-4.126410" lat="53.010497"><ele>260.751801</ele><time>2021-07-17T09:24:54Z</time><extensions><speed>0.320744</speed><course>263.463257</course><hAcc>0.888132</hAcc><vAcc>0.713405</vAcc></extensions></trkpt>
      <trkpt lon="-4.126411" lat="53.010495"><ele>260.853912</ele><time>2021-07-17T09:24:55Z</time><extensions><speed>0.303156</speed><course>263.463257</course><hAcc>0.887933</hAcc><vAcc>0.712693</vAcc></extensions></trkpt>
      <trkpt lon="-4.126412" lat="53.010492"><ele>260.944092</ele><time>2021-07-17T09:24:56Z</time><extensions><speed>0.285693</speed><course>263.463257</course><hAcc>0.887734</hAcc><vAcc>0.712022</vAcc></extensions></trkpt>
      <trkpt lon="-4.126412" lat="53.010490"><ele>261.021973</ele><time>2021-07-17T09:24:57Z</time><extensions><speed>0.268493</speed><course>263.463257</course><hAcc>0.887538</hAcc><vAcc>0.711409</vAcc></extensions></trkpt>
      <trkpt lon="-4.126412" lat="53.010487"><ele>261.087463</ele><time>2021-07-17T09:24:58Z</time><extensions><speed>0.251865</speed><course>263.463257</course><hAcc>0.887350</hAcc><vAcc>0.710853</vAcc></extensions></trkpt>
      <trkpt lon="-4.126412" lat="53.010485"><ele>261.140930</ele><time>2021-07-17T09:24:59Z</time><extensions><speed>0.236436</speed><course>263.463257</course><hAcc>0.887175</hAcc><vAcc>0.710346</vAcc></extensions></trkpt>
      <trkpt lon="-4.126412" lat="53.010483"><ele>261.182983</ele><time>2021-07-17T09:25:00Z</time><extensions><speed>0.223029</speed><course>263.463257</course><hAcc>0.887015</hAcc><vAcc>0.709874</vAcc></extensions></trkpt>
      <trkpt lon="-4.126411" lat="53.010481"><ele>261.214539</ele><time>2021-07-17T09:25:01Z</time><extensions><speed>0.212579</speed><course>259.589172</course><hAcc>0.886876</hAcc><vAcc>0.709430</vAcc></extensions></trkpt>
      <trkpt lon="-4.126411" lat="53.010479"><ele>261.236603</ele><time>2021-07-17T09:25:02Z</time><extensions><speed>0.206057</speed><course>252.637360</course><hAcc>0.886760</hAcc><vAcc>0.709019</vAcc></extensions></trkpt>
      <trkpt lon="-4.126410" lat="53.010478"><ele>261.250214</ele><time>2021-07-17T09:25:03Z</time><extensions><speed>0.204459</speed><course>253.241241</course><hAcc>0.886671</hAcc><vAcc>0.708660</vAcc></extensions></trkpt>
      <trkpt lon="-4.126408" lat="53.010476"><ele>261.256226</ele><time>2021-07-17T09:25:04Z</time><extensions><speed>0.208726</speed><course>248.837112</course><hAcc>0.886615</hAcc><vAcc>0.708383</vAcc></extensions></trkpt>
      <trkpt lon="-4.126406" lat="53.010474"><ele>261.255310</ele><time>2021-07-17T09:25:05Z</time><extensions><speed>0.219398</speed><course>240.579391</course><hAcc>0.886595</hAcc><vAcc>0.708229</vAcc></extensions></trkpt>
      <trkpt lon="-4.126404" lat="53.010473"><ele>261.248077</ele><time>2021-07-17T09:25:06Z</time><extensions><speed>0.236212</speed><course>240.025589</course><hAcc>0.886612</hAcc><vAcc>0.708241</vAcc></extensions></trkpt>
      <trkpt lon="-4.126401" lat="53.010471"><ele>261.234894</ele><time>2021-07-17T09:25:07Z</time><extensions><speed>0.258054</speed><course>240.486969</course><hAcc>0.886668</hAcc><vAcc>0.708444</vAcc></extensions></trkpt>
      <trkpt lon="-4.126398" lat="53.010470"><ele>261.215942</ele><time>2021-07-17T09:25:08Z</time><extensions><speed>0.282868</speed><course>243.172318</course><hAcc>0.886759</hAcc><vAcc>0.708833</vAcc></extensions></trkpt>
      <trkpt lon="-4.126395" lat="53.010468"><ele>261.191162</ele><time>2021-07-17T09:25:09Z</time><extensions><speed>0.307921</speed><course>257.339447</course><hAcc>0.886880</hAcc><vAcc>0.709364</vAcc></extensions></trkpt>
      <trkpt lon="-4.126390" lat="53.010467"><ele>261.160645</ele><time>2021-07-17T09:25:10Z</time><extensions><speed>0.330616</speed><course>255.877060</course><hAcc>0.887023</hAcc><vAcc>0.709972</vAcc></extensions></trkpt>
      <trkpt lon="-4.126386" lat="53.010466"><ele>261.124329</ele><time>2021-07-17T09:25:11Z</time><extensions><speed>0.349536</speed><course>250.580322</course><hAcc>0.887179</hAcc><vAcc>0.710599</vAcc></extensions></trkpt>
      <trkpt lon="-4.126381" lat="53.010464"><ele>261.082275</ele><time>2021-07-17T09:25:12Z</time><extensions><speed>0.364408</speed><course>251.154587</course><hAcc>0.887339</hAcc><vAcc>0.711195</vAcc></extensions></trkpt>
      <trkpt lon="-4.126376" lat="53.010463"><ele>261.034973</ele><time>2021-07-17T09:25:13Z</time><extensions><speed>0.374797</speed><course>247.044891</course><hAcc>0.887494</hAcc><vAcc>0.711728</vAcc></extensions></trkpt>
      <trkpt lon="-4.126371" lat="53.010461"><ele>260.982819</ele><time>2021-07-17T09:25:14Z</time><extensions><speed>0.379605</speed><course>247.205978</course><hAcc>0.887638</hAcc><vAcc>0.712181</vAcc></extensions></trkpt>
      <trkpt lon="-4.126366" lat="53.010460"><ele>260.926392</ele><time>2021-07-17T09:25:15Z</time><extensions><speed>0.377602</speed><course>244.196457</course><hAcc>0.887766</hAcc><vAcc>0.712551</vAcc></extensions></trkpt>
      <trkpt lon="-4.126361" lat="53.010459"><ele>260.866302</ele><time>2021-07-17T09:25:16Z</time><extensions><speed>0.367664</speed><course>246.526291</course><hAcc>0.887873</hAcc><vAcc>0.712844</vAcc></extensions></trkpt>
      <trkpt lon="-4.126356" lat="53.010457"><ele>260.803162</ele><time>2021-07-17T09:25:17Z</time><extensions><speed>0.349175</speed><course>247.816605</course><hAcc>0.887960</hAcc><vAcc>0.713074</vAcc></extensions></trkpt>
      <trkpt lon="-4.126351" lat="53.010456"><ele>260.737732</ele><time>2021-07-17T09:25:18Z</time><extensions><speed>0.322547</speed><course>243.050934</course><hAcc>0.888027</hAcc><vAcc>0.713247</vAcc></extensions></trkpt>
      <trkpt lon="-4.126347" lat="53.010455"><ele>260.671112</ele><time>2021-07-17T09:25:19Z</time><extensions><speed>0.289509</speed><course>242.286682</course><hAcc>0.888074</hAcc><vAcc>0.713368</vAcc></extensions></trkpt>
      <trkpt lon="-4.126343" lat="53.010454"><ele>260.604614</ele><time>2021-07-17T09:25:20Z</time><extensions><speed>0.253017</speed><course>245.673569</course><hAcc>0.888106</hAcc><vAcc>0.713439</vAcc></extensions></trkpt>
      <trkpt lon="-4.126340" lat="53.010453"><ele>260.539429</ele><time>2021-07-17T09:25:21Z</time><extensions><speed>0.216226</speed><course>244.782913</course><hAcc>0.888125</hAcc><vAcc>0.713466</vAcc></extensions></trkpt>
      <trkpt lon="-4.126337" lat="53.010453"><ele>260.476440</ele><time>2021-07-17T09:25:22Z</time><extensions><speed>0.181312</speed><course>241.105591</course><hAcc>0.888133</hAcc><vAcc>0.713456</vAcc></extensions></trkpt>
      <trkpt lon="-4.126335" lat="53.010452"><ele>260.416290</ele><time>2021-07-17T09:25:23Z</time><extensions><speed>0.149531</speed><course>241.841278</course><hAcc>0.888135</hAcc><vAcc>0.713424</vAcc></extensions></trkpt>
      <trkpt lon="-4.126334" lat="53.010451"><ele>260.359558</ele><time>2021-07-17T09:25:24Z</time><extensions><speed>0.121984</speed><course>247.506363</course><hAcc>0.888133</hAcc><vAcc>0.713381</vAcc></extensions></trkpt>
      <trkpt lon="-4.126332" lat="53.010451"><ele>260.306610</ele><time>2021-07-17T09:25:25Z</time><extensions><speed>0.099690</speed><course>242.562668</course><hAcc>0.888130</hAcc><vAcc>0.713340</vAcc></extensions></trkpt>
      <trkpt lon="-4.126331" lat="53.010450"><ele>260.257843</ele><time>2021-07-17T09:25:26Z</time><extensions><speed>0.083654</speed><course>234.547913</course><hAcc>0.888129</hAcc><vAcc>0.713310</vAcc></extensions></trkpt>
      <trkpt lon="-4.126330" lat="53.010450"><ele>260.213654</ele><time>2021-07-17T09:25:27Z</time><extensions><speed>0.074735</speed><course>233.783096</course><hAcc>0.888134</hAcc><vAcc>0.713301</vAcc></extensions></trkpt>
      <trkpt lon="-4.126330" lat="53.010449"><ele>260.174225</ele><time>2021-07-17T09:25:28Z</time><extensions><speed>0.072788</speed><course>240.761246</course><hAcc>0.888147</hAcc><vAcc>0.713320</vAcc></extensions></trkpt>
      <trkpt lon="-4.126329" lat="53.010448"><ele>260.139709</ele><time>2021-07-17T09:25:29Z</time><extensions><speed>0.076518</speed><course>245.023636</course><hAcc>0.888174</hAcc><vAcc>0.713378</vAcc></extensions></trkpt>
      <trkpt lon="-4.126329" lat="53.010448"><ele>260.110138</ele><time>2021-07-17T09:25:30Z</time><extensions><speed>0.084369</speed><course>239.268997</course><hAcc>0.888217</hAcc><vAcc>0.713484</vAcc></extensions></trkpt>
      <trkpt lon="-4.126329" lat="53.010447"><ele>260.085510</ele><time>2021-07-17T09:25:31Z</time><extensions><speed>0.095237</speed><course>233.922195</course><hAcc>0.888283</hAcc><vAcc>0.713649</vAcc></extensions></trkpt>
      <trkpt lon="-4.126328" lat="53.010446"><ele>260.065735</ele><time>2021-07-17T09:25:32Z</time><extensions><speed>0.108178</speed><course>243.689804</course><hAcc>0.888378</hAcc><vAcc>0.713891</vAcc></extensions></trkpt>
      <trkpt lon="-4.126328" lat="53.010445"><ele>260.050629</ele><time>2021-07-17T09:25:33Z</time><extensions><speed>0.122109</speed><course>241.582306</course><hAcc>0.888511</hAcc><vAcc>0.714232</vAcc></extensions></trkpt>
      <trkpt lon="-4.126327" lat="53.010444"><ele>260.039825</ele><time>2021-07-17T09:25:34Z</time><extensions><speed>0.135365</speed><course>234.000381</course><hAcc>0.888694</hAcc><vAcc>0.714694</vAcc></extensions></trkpt>
      <trkpt lon="-4.126326" lat="53.010443"><ele>260.032623</ele><time>2021-07-17T09:25:35Z</time><extensions><speed>0.145734</speed><course>232.801285</course><hAcc>0.888939</hAcc><vAcc>0.715302</vAcc></extensions></trkpt>
      <trkpt lon="-4.126325" lat="53.010442"><ele>260.028229</ele><time>2021-07-17T09:25:36Z</time><extensions><speed>0.151472</speed><course>225.454575</course><hAcc>0.889265</hAcc><vAcc>0.716086</vAcc></extensions></trkpt>
      <trkpt lon="-4.126324" lat="53.010441"><ele>260.025818</ele><time>2021-07-17T09:25:37Z</time><extensions><speed>0.151807</speed><course>225.479065</course><hAcc>0.889692</hAcc><vAcc>0.717076</vAcc></extensions></trkpt>
      <trkpt lon="-4.126323" lat="53.010439"><ele>260.024658</ele><time>2021-07-17T09:25:38Z</time><extensions><speed>0.147059</speed><course>225.536407</course><hAcc>0.890248</hAcc><vAcc>0.718297</vAcc></extensions></trkpt>
      <trkpt lon="-4.126322" lat="53.010438"><ele>260.024292</ele><time>2021-07-17T09:25:39Z</time><extensions><speed>0.138328</speed><course>220.839218</course><hAcc>0.890961</hAcc><vAcc>0.719750</vAcc></extensions></trkpt>
      <trkpt lon="-4.126321" lat="53.010437"><ele>260.024323</ele><time>2021-07-17T09:25:40Z</time><extensions><speed>0.126911</speed><course>219.954422</course><hAcc>0.891865</hAcc><vAcc>0.721420</vAcc></extensions></trkpt>
      <trkpt lon="-4.126320" lat="53.010436"><ele>260.024506</ele><time>2021-07-17T09:25:41Z</time><extensions><speed>0.113883</speed><course>226.997269</course><hAcc>0.892991</hAcc><vAcc>0.723281</vAcc></extensions></trkpt>
      <trkpt lon="-4.126319" lat="53.010435"><ele>260.024719</ele><time>2021-07-17T09:25:42Z</time><extensions><speed>0.100111</speed><course>219.731979</course><hAcc>0.894368</hAcc><vAcc>0.725304</vAcc></extensions></trkpt>
      <trkpt lon="-4.126318" lat="53.010435"><ele>260.024811</ele><time>2021-07-17T09:25:43Z</time><extensions><speed>0.086271</speed><course>220.392471</course><hAcc>0.896007</hAcc><vAcc>0.727449</vAcc></extensions></trkpt>
      <trkpt lon="-4.126318" lat="53.010434"><ele>260.024719</ele><time>2021-07-17T09:25:44Z</time><extensions><speed>0.072874</speed><course>222.627365</course><hAcc>0.897902</hAcc><vAcc>0.729661</vAcc></extensions></trkpt>
      <trkpt lon="-4.126317" lat="53.010434"><ele>260.024475</ele><time>2021-07-17T09:25:45Z</time><extensions><speed>0.060283</speed><course>223.593750</course><hAcc>0.900012</hAcc><vAcc>0.731863</vAcc></extensions></trkpt>
      <trkpt lon="-4.126317" lat="53.010433"><ele>260.024048</ele><time>2021-07-17T09:25:46Z</time><extensions><speed>0.048745</speed><course>219.066330</course><hAcc>0.902254</hAcc><vAcc>0.733948</vAcc></extensions></trkpt>
      <trkpt lon="-4.126317" lat="53.010433"><ele>260.023468</ele><time>2021-07-17T09:25:47Z</time><extensions><speed>0.038403</speed><course>216.668152</course><hAcc>0.904501</hAcc><vAcc>0.735788</vAcc></extensions></trkpt>
      <trkpt lon="-4.126317" lat="53.010433"><ele>260.022797</ele><time>2021-07-17T09:25:48Z</time><extensions><speed>0.029324</speed><course>214.351715</course><hAcc>0.906581</hAcc><vAcc>0.737250</vAcc></extensions></trkpt>
      <trkpt lon="-4.126316" lat="53.010432"><ele>260.022003</ele><time>2021-07-17T09:25:49Z</time><extensions><speed>0.021512</speed><course>212.858276</course><hAcc>0.908304</hAcc><vAcc>0.738229</vAcc></extensions></trkpt>
      <trkpt lon="-4.126316" lat="53.010432"><ele>260.021210</ele><time>2021-07-17T09:25:50Z</time><extensions><speed>0.014930</speed><course>217.669159</course><hAcc>0.909515</hAcc><vAcc>0.738718</vAcc></extensions></trkpt>
      <trkpt lon="-4.126316" lat="53.010432"><ele>260.020386</ele><time>2021-07-17T09:25:51Z</time><extensions><speed>0.009520</speed><course>215.893677</course><hAcc>0.910195</hAcc><vAcc>0.738903</vAcc></extensions></trkpt>
      <trkpt lon="-4.126316" lat="53.010432"><ele>260.019562</ele><time>2021-07-17T09:25:52Z</time><extensions><speed>0.005243</speed><course>216.118942</course><hAcc>0.910626</hAcc><vAcc>0.739307</vAcc></extensions></trkpt>
      <trkpt lon="-4.126316" lat="53.010432"><ele>260.018799</ele><time>2021-07-17T09:25:54Z</time><extensions><speed>0.002346</speed><course>218.056366</course><hAcc>0.911630</hAcc><vAcc>0.740979</vAcc></extensions></trkpt>
      <trkpt lon="-4.126316" lat="53.010432"><ele>260.018097</ele><time>2021-07-17T09:25:55Z</time><extensions><speed>0.002355</speed><course>213.622818</course><hAcc>0.914959</hAcc><vAcc>0.745738</vAcc></extensions></trkpt>
      <trkpt lon="-4.126316" lat="53.010432"><ele>260.017426</ele><time>2021-07-17T09:25:56Z</time><extensions><speed>0.003903</speed><course>203.498123</course><hAcc>0.923722</hAcc><vAcc>0.756408</vAcc></extensions></trkpt>
      <trkpt lon="-4.126316" lat="53.010432"><ele>260.016815</ele><time>2021-07-17T09:25:57Z</time><extensions><speed>0.005229</speed><course>209.881683</course><hAcc>0.942747</hAcc><vAcc>0.776902</vAcc></extensions></trkpt>
      <trkpt lon="-4.126316" lat="53.010432"><ele>260.016266</ele><time>2021-07-17T09:25:58Z</time><extensions><speed>0.006177</speed><course>222.607315</course><hAcc>0.978712</hAcc><vAcc>0.812072</vAcc></extensions></trkpt>
      <trkpt lon="-4.126317" lat="53.010433"><ele>260.022400</ele><time>2021-07-17T09:25:59Z</time><extensions><speed>0.000000</speed><course>207.637573</course><hAcc>0.940635</hAcc><vAcc>0.776650</vAcc></extensions></trkpt>
      <trkpt lon="-4.126317" lat="53.010433"><ele>260.022400</ele><time>2021-07-17T09:26:00Z</time><extensions><speed>0.000000</speed><course>199.781464</course><hAcc>0.921320</hAcc><vAcc>0.755812</vAcc></extensions></trkpt>
      <trkpt lon="-4.126317" lat="53.010433"><ele>260.022400</ele><time>2021-07-17T09:26:01Z</time><extensions><speed>0.000000</speed><course>204.898392</course><hAcc>0.913611</hAcc><vAcc>0.745971</vAcc></extensions></trkpt>
      <trkpt lon="-4.126317" lat="53.010433"><ele>260.022400</ele><time>2021-07-17T09:26:02Z</time><extensions><speed>0.000000</speed><course>218.988647</course><hAcc>0.912030</hAcc><vAcc>0.742777</vAcc></extensions></trkpt>
      <trkpt lon="-4.126317" lat="53.010433"><ele>260.022400</ele><time>2021-07-17T09:26:03Z</time><extensions><speed>0.000000</speed><course>240.875916</course><hAcc>0.913090</hAcc><vAcc>0.743099</vAcc></extensions></trkpt>
      <trkpt lon="-4.126317" lat="53.010433"><ele>260.022400</ele><time>2021-07-17T09:26:04Z</time><extensions><speed>0.000000</speed><course>240.875916</course><hAcc>0.914845</hAcc><vAcc>0.744907</vAcc></extensions></trkpt>
      <trkpt lon="-4.126317" lat="53.010433"><ele>260.022400</ele><time>2021-07-17T09:26:05Z</time><extensions><speed>0.000000</speed><course>240.875916</course><hAcc>0.916384</hAcc><vAcc>0.747022</vAcc></extensions></trkpt>
      <trkpt lon="-4.126317" lat="53.010433"><ele>260.022400</ele><time>2021-07-17T09:26:06Z</time><extensions><speed>0.000000</speed><course>240.875916</course><hAcc>0.917416</hAcc><vAcc>0.748839</vAcc></extensions></trkpt>
      <trkpt lon="-4.126317" lat="53.010433"><ele>260.022400</ele><time>2021-07-17T09:26:07Z</time><extensions><speed>0.000000</speed><course>240.875916</course><hAcc>0.917960</hAcc><vAcc>0.750105</vAcc></extensions></trkpt>
      <trkpt lon="-4.126317" lat="53.010433"><ele>260.022400</ele><time>2021-07-17T09:26:08Z</time><extensions><speed>0.000000</speed><course>240.875916</course><hAcc>0.918142</hAcc><vAcc>0.750748</vAcc></extensions></trkpt>
      <trkpt lon="-4.126317" lat="53.010433"><ele>260.022400</ele><time>2021-07-17T09:26:09Z</time><extensions><speed>0.000000</speed><course>269.430084</course><hAcc>0.918078</hAcc><vAcc>0.750776</vAcc></extensions></trkpt>
      <trkpt lon="-4.126317" lat="53.010433"><ele>260.022400</ele><time>2021-07-17T09:26:10Z</time><extensions><speed>0.000000</speed><course>274.056000</course><hAcc>0.917810</hAcc><vAcc>0.750220</vAcc></extensions></trkpt>
      <trkpt lon="-4.126317" lat="53.010433"><ele>260.022400</ele><time>2021-07-17T09:26:11Z</time><extensions><speed>0.000000</speed><course>273.580658</course><hAcc>0.917308</hAcc><vAcc>0.749132</vAcc></extensions></trkpt>
      <trkpt lon="-4.126317" lat="53.010433"><ele>260.022400</ele><time>2021-07-17T09:26:12Z</time><extensions><speed>0.000000</speed><course>266.285736</course><hAcc>0.916520</hAcc><vAcc>0.747626</vAcc></extensions></trkpt>
      <trkpt lon="-4.126317" lat="53.010433"><ele>260.022400</ele><time>2021-07-17T09:26:13Z</time><extensions><speed>0.000000</speed><course>280.416809</course><hAcc>0.915474</hAcc><vAcc>0.745971</vAcc></extensions></trkpt>
      <trkpt lon="-4.126317" lat="53.010433"><ele>260.022400</ele><time>2021-07-17T09:26:14Z</time><extensions><speed>0.000000</speed><course>289.633057</course><hAcc>0.914466</hAcc><vAcc>0.744742</vAcc></extensions></trkpt>
      <trkpt lon="-4.126317" lat="53.010433"><ele>260.022400</ele><time>2021-07-17T09:26:15Z</time><extensions><speed>0.000000</speed><course>274.042023</course><hAcc>0.914321</hAcc><vAcc>0.745015</vAcc></extensions></trkpt>
      <trkpt lon="-4.126317" lat="53.010433"><ele>260.022400</ele><time>2021-07-17T09:26:16Z</time><extensions><speed>0.000000</speed><course>259.398621</course><hAcc>0.916765</hAcc><vAcc>0.748612</vAcc></extensions></trkpt>
      <trkpt lon="-4.126317" lat="53.010433"><ele>260.022400</ele><time>2021-07-17T09:26:17Z</time><extensions><speed>0.000000</speed><course>235.228027</course><hAcc>0.924857</hAcc><vAcc>0.758336</vAcc></extensions></trkpt>
      <trkpt lon="-4.126317" lat="53.010433"><ele>260.022400</ele><time>2021-07-17T09:26:18Z</time><extensions><speed>0.000000</speed><course>233.943741</course><hAcc>0.943397</hAcc><vAcc>0.778086</vAcc></extensions></trkpt>
      <trkpt lon="-4.126317" lat="53.010433"><ele>260.022400</ele><time>2021-07-17T09:26:19Z</time><extensions><speed>0.000000</speed><course>251.986771</course><hAcc>0.979039</hAcc><vAcc>0.812699</vAcc></extensions></trkpt>
      <trkpt lon="-4.126317" lat="53.010433"><ele>260.022400</ele><time>2021-07-17T09:26:20Z</time><extensions><speed>0.000000</speed><course>207.637573</course><hAcc>0.940751</hAcc><vAcc>0.776958</vAcc></extensions></trkpt>
      <trkpt lon="-4.126317" lat="53.010433"><ele>260.022400</ele><time>2021-07-17T09:26:21Z</time><extensions><speed>0.000000</speed><course>199.781464</course><hAcc>0.921391</hAcc><vAcc>0.755986</vAcc></extensions></trkpt>
      <trkpt lon="-4.126317" lat="53.010433"><ele>260.022400</ele><time>2021-07-17T09:26:22Z</time><extensions><speed>0.000000</speed><course>204.898392</course><hAcc>0.913645</hAcc><vAcc>0.746035</vAcc></extensions></trkpt>
      <trkpt lon="-4.126317" lat="53.010433"><ele>260.022400</ele><time>2021-07-17T09:26:23Z</time><extensions><speed>0.000000</speed><course>218.988647</course><hAcc>0.912035</hAcc><vAcc>0.742763</vAcc></extensions></trkpt>
      <trkpt lon="-4.126317" lat="53.010433"><ele>260.022400</ele><time>2021-07-17T09:26:24Z</time><extensions><speed>0.000000</speed><course>240.875916</course><hAcc>0.913072</hAcc><vAcc>0.743039</vAcc></extensions></trkpt>
      <trkpt lon="-4.126317" lat="53.010433"><ele>260.022400</ele><time>2021-07-17T09:26:25Z</time><extensions><speed>0.000000</speed><course>240.875916</course><hAcc>0.914809</hAcc><vAcc>0.744832</vAcc></extensions></trkpt>
      <trkpt lon="-4.126317" lat="53.010433"><ele>260.022400</ele><time>2021-07-17T09:26:26Z</time><extensions><speed>0.000000</speed><course>240.875916</course><hAcc>0.916332</hAcc><vAcc>0.746955</vAcc></extensions></trkpt>
      <trkpt lon="-4.126317" lat="53.010433"><ele>260.022400</ele><time>2021-07-17T09:26:27Z</time><extensions><speed>0.000000</speed><course>240.875916</course><hAcc>0.917349</hAcc><vAcc>0.748797</vAcc></extensions></trkpt>
      <trkpt lon="-4.126317" lat="53.010433"><ele>260.022400</ele><time>2021-07-17T09:26:28Z</time><extensions><speed>0.000000</speed><course>240.875916</course><hAcc>0.917875</hAcc><vAcc>0.750095</vAcc></extensions></trkpt>
      <trkpt lon="-4.126317" lat="53.010433"><ele>260.022400</ele><time>2021-07-17T09:26:28Z</time><extensions><speed>0.000000</speed><course>240.875916</course><hAcc>0.918070</hAcc><vAcc>0.750797</vAcc></extensions></trkpt>
      <trkpt lon="-4.126317" lat="53.010433"><ele>260.022400</ele><time>2021-07-17T09:26:29Z</time><extensions><speed>0.000000</speed><course>269.430084</course><hAcc>0.918050</hAcc><vAcc>0.750906</vAcc></extensions></trkpt>
      <trkpt lon="-4.126317" lat="53.010433"><ele>260.022400</ele><time>2021-07-17T09:26:30Z</time><extensions><speed>0.000000</speed><course>274.056000</course><hAcc>0.917821</hAcc><vAcc>0.750426</vAcc></extensions></trkpt>
      <trkpt lon="-4.126317" lat="53.010433"><ele>260.022400</ele><time>2021-07-17T09:26:31Z</time><extensions><speed>0.000000</speed><course>273.580658</course><hAcc>0.917354</hAcc><vAcc>0.749406</vAcc></extensions></trkpt>
      <trkpt lon="-4.126317" lat="53.010433"><ele>260.022400</ele><time>2021-07-17T09:26:32Z</time><extensions><speed>0.000000</speed><course>266.285736</course><hAcc>0.916598</hAcc><vAcc>0.747963</vAcc></extensions></trkpt>
      <trkpt lon="-4.126317" lat="53.010433"><ele>260.022400</ele><time>2021-07-17T09:26:33Z</time><extensions><speed>0.000000</speed><course>280.416809</course><hAcc>0.915583</hAcc><vAcc>0.746370</vAcc></extensions></trkpt>
      <trkpt lon="-4.126317" lat="53.010433"><ele>260.022400</ele><time>2021-07-17T09:26:34Z</time><extensions><speed>0.000000</speed><course>289.633057</course><hAcc>0.914607</hAcc><vAcc>0.745203</vAcc></extensions></trkpt>
      <trkpt lon="-4.126317" lat="53.010433"><ele>260.022400</ele><time>2021-07-17T09:26:35Z</time><extensions><speed>0.000000</speed><course>274.042023</course><hAcc>0.914496</hAcc><vAcc>0.745543</vAcc></extensions></trkpt>
      <trkpt lon="-4.126317" lat="53.010433"><ele>260.022400</ele><time>2021-07-17T09:26:36Z</time><extensions><speed>0.000000</speed><course>259.398621</course><hAcc>0.916975</hAcc><vAcc>0.749216</vAcc></extensions></trkpt>
      <trkpt lon="-4.126317" lat="53.010433"><ele>260.022400</ele><time>2021-07-17T09:26:37Z</time><extensions><speed>0.000000</speed><course>235.228027</course><hAcc>0.925104</hAcc><vAcc>0.759022</vAcc></extensions></trkpt>
      <trkpt lon="-4.126317" lat="53.010433"><ele>260.022400</ele><time>2021-07-17T09:26:38Z</time><extensions><speed>0.000000</speed><course>233.943741</course><hAcc>0.943680</hAcc><vAcc>0.778856</vAcc></extensions></trkpt>
      <trkpt lon="-4.126317" lat="53.010433"><ele>260.022400</ele><time>2021-07-17T09:26:39Z</time><extensions><speed>0.000000</speed><course>251.986771</course><hAcc>0.979352</hAcc><vAcc>0.813552</vAcc></extensions></trkpt>
      <trkpt lon="-4.126317" lat="53.010433"><ele>260.025085</ele><time>2021-07-17T09:26:40Z</time><extensions><speed>0.001363</speed><course>207.637573</course><hAcc>0.940503</hAcc><vAcc>0.776902</vAcc></extensions></trkpt>
      <trkpt lon="-4.126317" lat="53.010433"><ele>260.024963</ele><time>2021-07-17T09:26:41Z</time><extensions><speed>0.001362</speed><course>199.781464</course><hAcc>0.920709</hAcc><vAcc>0.755298</vAcc></extensions></trkpt>
      <trkpt lon="-4.126317" lat="53.010433"><ele>260.024780</ele><time>2021-07-17T09:26:42Z</time><extensions><speed>0.001341</speed><course>204.898392</course><hAcc>0.912351</hAcc><vAcc>0.744511</vAcc></extensions></trkpt>
      <trkpt lon="-4.126317" lat="53.010433"><ele>260.024506</ele><time>2021-07-17T09:26:43Z</time><extensions><speed>0.001297</speed><course>218.988647</course><hAcc>0.909934</hAcc><vAcc>0.740201</vAcc></extensions></trkpt>
      <trkpt lon="-4.126317" lat="53.010433"><ele>260.024078</ele><time>2021-07-17T09:26:44Z</time><extensions><speed>0.001243</speed><course>240.875916</course><hAcc>0.909948</hAcc><vAcc>0.739241</vAcc></extensions></trkpt>
      <trkpt lon="-4.126317" lat="53.010433"><ele>260.023468</ele><time>2021-07-17T09:26:45Z</time><extensions><speed>0.001226</speed><course>240.875916</course><hAcc>0.910424</hAcc><vAcc>0.739610</vAcc></extensions></trkpt>
      <trkpt lon="-4.126317" lat="53.010433"><ele>260.022675</ele><time>2021-07-17T09:26:46Z</time><extensions><speed>0.001340</speed><course>240.875916</course><hAcc>0.910437</hAcc><vAcc>0.740148</vAcc></extensions></trkpt>
      <trkpt lon="-4.126317" lat="53.010433"><ele>260.021667</ele><time>2021-07-17T09:26:47Z</time><extensions><speed>0.001696</speed><course>240.875916</course><hAcc>0.909701</hAcc><vAcc>0.740291</vAcc></extensions></trkpt>
      <trkpt lon="-4.126317" lat="53.010433"><ele>260.020386</ele><time>2021-07-17T09:26:48Z</time><extensions><speed>0.002342</speed><course>240.875916</course><hAcc>0.908271</hAcc><vAcc>0.739858</vAcc></extensions></trkpt>
      <trkpt lon="-4.126317" lat="53.010432"><ele>260.018768</ele><time>2021-07-17T09:26:49Z</time><extensions><speed>0.003277</speed><course>240.875916</course><hAcc>0.906352</hAcc><vAcc>0.738878</vAcc></extensions></trkpt>
      <trkpt lon="-4.126317" lat="53.010432"><ele>260.016815</ele><time>2021-07-17T09:26:50Z</time><extensions><speed>0.004496</speed><course>269.430084</course><hAcc>0.904183</hAcc><vAcc>0.737487</vAcc></extensions></trkpt>
      <trkpt lon="-4.126317" lat="53.010432"><ele>260.014496</ele><time>2021-07-17T09:26:51Z</time><extensions><speed>0.005995</speed><course>274.056000</course><hAcc>0.901979</hAcc><vAcc>0.735849</vAcc></extensions></trkpt>
      <trkpt lon="-4.126317" lat="53.010432"><ele>260.011749</ele><time>2021-07-17T09:26:52Z</time><extensions><speed>0.007771</speed><course>273.580658</course><hAcc>0.899899</hAcc><vAcc>0.734120</vAcc></extensions></trkpt>
      <trkpt lon="-4.126317" lat="53.010432"><ele>260.008575</ele><time>2021-07-17T09:26:53Z</time><extensions><speed>0.009809</speed><course>266.285736</course><hAcc>0.898046</hAcc><vAcc>0.732423</vAcc></extensions></trkpt>
      <trkpt lon="-4.126316" lat="53.010432"><ele>260.004974</ele><time>2021-07-17T09:26:54Z</time><extensions><speed>0.012075</speed><course>280.416809</course><hAcc>0.896470</hAcc><vAcc>0.730847</vAcc></extensions></trkpt>
      <trkpt lon="-4.126316" lat="53.010432"><ele>260.000946</ele><time>2021-07-17T09:26:55Z</time><extensions><speed>0.014515</speed><course>289.633057</course><hAcc>0.895182</hAcc><vAcc>0.729442</vAcc></extensions></trkpt>
      <trkpt lon="-4.126316" lat="53.010432"><ele>259.996490</ele><time>2021-07-17T09:26:56Z</time><extensions><speed>0.017040</speed><course>274.042023</course><hAcc>0.894165</hAcc><vAcc>0.728235</vAcc></extensions></trkpt>
      <trkpt lon="-4.126316" lat="53.010432"><ele>259.991669</ele><time>2021-07-17T09:26:57Z</time><extensions><speed>0.019530</speed><course>259.398621</course><hAcc>0.893386</hAcc><vAcc>0.727227</vAcc></extensions></trkpt>
      <trkpt lon="-4.126315" lat="53.010432"><ele>259.986603</ele><time>2021-07-17T09:26:58Z</time><extensions><speed>0.021818</speed><course>235.228027</course><hAcc>0.892807</hAcc><vAcc>0.726407</vAcc></extensions></trkpt>
      <trkpt lon="-4.126315" lat="53.010432"><ele>259.981384</ele><time>2021-07-17T09:26:59Z</time><extensions><speed>0.023688</speed><course>233.943741</course><hAcc>0.892387</hAcc><vAcc>0.725754</vAcc></extensions></trkpt>
      <trkpt lon="-4.126315" lat="53.010432"><ele>259.976166</ele><time>2021-07-17T09:27:00Z</time><extensions><speed>0.024875</speed><course>251.986771</course><hAcc>0.892089</hAcc><vAcc>0.725243</vAcc></extensions></trkpt>
      <trkpt lon="-4.126314" lat="53.010432"><ele>259.971191</ele><time>2021-07-17T09:27:01Z</time><extensions><speed>0.025059</speed><course>230.632401</course><hAcc>0.891883</hAcc><vAcc>0.724850</vAcc></extensions></trkpt>
      <trkpt lon="-4.126314" lat="53.010432"><ele>259.966705</ele><time>2021-07-17T09:27:02Z</time><extensions><speed>0.023879</speed><course>208.539734</course><hAcc>0.891743</hAcc><vAcc>0.724553</vAcc></extensions></trkpt>
      <trkpt lon="-4.126314" lat="53.010432"><ele>259.963104</ele><time>2021-07-17T09:27:03Z</time><extensions><speed>0.020980</speed><course>217.062653</course><hAcc>0.891649</hAcc><vAcc>0.724336</vAcc></extensions></trkpt>
      <trkpt lon="-4.126313" lat="53.010432"><ele>259.960785</ele><time>2021-07-17T09:27:04Z</time><extensions><speed>0.016215</speed><course>216.480164</course><hAcc>0.891587</hAcc><vAcc>0.724184</vAcc></extensions></trkpt>
      <trkpt lon="-4.126313" lat="53.010432"><ele>259.960266</ele><time>2021-07-17T09:27:05Z</time><extensions><speed>0.010961</speed><course>215.204285</course><hAcc>0.891546</hAcc><vAcc>0.724084</vAcc></extensions></trkpt>
      <trkpt lon="-4.126313" lat="53.010433"><ele>259.962158</ele><time>2021-07-17T09:27:06Z</time><extensions><speed>0.013612</speed><course>192.608246</course><hAcc>0.891519</hAcc><vAcc>0.724023</vAcc></extensions></trkpt>
      <trkpt lon="-4.126313" lat="53.010433"><ele>259.967102</ele><time>2021-07-17T09:27:07Z</time><extensions><speed>0.027717</speed><course>196.818375</course><hAcc>0.891501</hAcc><vAcc>0.723989</vAcc></extensions></trkpt>
      <trkpt lon="-4.126314" lat="53.010433"><ele>259.975891</ele><time>2021-07-17T09:27:08Z</time><extensions><speed>0.048627</speed><course>200.564194</course><hAcc>0.891490</hAcc><vAcc>0.723973</vAcc></extensions></trkpt>
      <trkpt lon="-4.126315" lat="53.010433"><ele>259.989380</ele><time>2021-07-17T09:27:09Z</time><extensions><speed>0.075518</speed><course>224.718231</course><hAcc>0.891484</hAcc><vAcc>0.723970</vAcc></extensions></trkpt>
      <trkpt lon="-4.126316" lat="53.010433"><ele>260.008484</ele><time>2021-07-17T09:27:10Z</time><extensions><speed>0.108514</speed><course>228.969803</course><hAcc>0.891480</hAcc><vAcc>0.723973</vAcc></extensions></trkpt>
      <trkpt lon="-4.126318" lat="53.010433"><ele>260.034210</ele><time>2021-07-17T09:27:11Z</time><extensions><speed>0.147750</speed><course>250.366501</course><hAcc>0.891478</hAcc><vAcc>0.723979</vAcc></extensions></trkpt>
      <trkpt lon="-4.126320" lat="53.010434"><ele>260.067566</ele><time>2021-07-17T09:27:12Z</time><extensions><speed>0.193134</speed><course>-1.000000</course><hAcc>0.891476</hAcc><vAcc>0.723986</vAcc></extensions></trkpt>
      <trkpt lon="-4.126324" lat="53.010434"><ele>260.109589</ele><time>2021-07-17T09:27:13Z</time><extensions><speed>0.244206</speed><course>232.063629</course><hAcc>0.891473</hAcc><vAcc>0.723992</vAcc></extensions></trkpt>
      <trkpt lon="-4.126328" lat="53.010434"><ele>260.161194</ele><time>2021-07-17T09:27:14Z</time><extensions><speed>0.300005</speed><course>232.063614</course><hAcc>0.891469</hAcc><vAcc>0.723994</vAcc></extensions></trkpt>
      <trkpt lon="-4.126333" lat="53.010435"><ele>260.223297</ele><time>2021-07-17T09:27:15Z</time><extensions><speed>0.358928</speed><course>232.063614</course><hAcc>0.891461</hAcc><vAcc>0.723989</vAcc></extensions></trkpt>
      <trkpt lon="-4.126338" lat="53.010435"><ele>260.296509</ele><time>2021-07-17T09:27:16Z</time><extensions><speed>0.418581</speed><course>232.063599</course><hAcc>0.891449</hAcc><vAcc>0.723974</vAcc></extensions></trkpt>
      <trkpt lon="-4.126345" lat="53.010436"><ele>260.381287</ele><time>2021-07-17T09:27:17Z</time><extensions><speed>0.475620</speed><course>232.063599</course><hAcc>0.891432</hAcc><vAcc>0.723944</vAcc></extensions></trkpt>
      <trkpt lon="-4.126352" lat="53.010436"><ele>260.477600</ele><time>2021-07-17T09:27:18Z</time><extensions><speed>0.525595</speed><course>232.063583</course><hAcc>0.891409</hAcc><vAcc>0.723892</vAcc></extensions></trkpt>
      <trkpt lon="-4.126360" lat="53.010436"><ele>260.585022</ele><time>2021-07-17T09:27:19Z</time><extensions><speed>0.562797</speed><course>232.063583</course><hAcc>0.891378</hAcc><vAcc>0.723812</vAcc></extensions></trkpt>
      <trkpt lon="-4.126369" lat="53.010437"><ele>260.702423</ele><time>2021-07-17T09:27:20Z</time><extensions><speed>0.580121</speed><course>248.555511</course><hAcc>0.891340</hAcc><vAcc>0.723700</vAcc></extensions></trkpt>
      <trkpt lon="-4.126378" lat="53.010437"><ele>260.828033</ele><time>2021-07-17T09:27:21Z</time><extensions><speed>0.576078</speed><course>214.727661</course><hAcc>0.891294</hAcc><vAcc>0.723551</vAcc></extensions></trkpt>
      <trkpt lon="-4.126386" lat="53.010437"><ele>260.959534</ele><time>2021-07-17T09:27:22Z</time><extensions><speed>0.555343</speed><course>215.656113</course><hAcc>0.891241</hAcc><vAcc>0.723366</vAcc></extensions></trkpt>
      <trkpt lon="-4.126394" lat="53.010437"><ele>261.094604</ele><time>2021-07-17T09:27:23Z</time><extensions><speed>0.522130</speed><course>205.637772</course><hAcc>0.891180</hAcc><vAcc>0.723146</vAcc></extensions></trkpt>
      <trkpt lon="-4.126401" lat="53.010437"><ele>261.230957</ele><time>2021-07-17T09:27:24Z</time><extensions><speed>0.479662</speed><course>201.575424</course><hAcc>0.891112</hAcc><vAcc>0.722897</vAcc></extensions></trkpt>
      <trkpt lon="-4.126408" lat="53.010438"><ele>261.366394</ele><time>2021-07-17T09:27:25Z</time><extensions><speed>0.430698</speed><course>196.854248</course><hAcc>0.891040</hAcc><vAcc>0.722623</vAcc></extensions></trkpt>
      <trkpt lon="-4.126414" lat="53.010438"><ele>261.498871</ele><time>2021-07-17T09:27:26Z</time><extensions><speed>0.378381</speed><course>198.264053</course><hAcc>0.890964</hAcc><vAcc>0.722330</vAcc></extensions></trkpt>
      <trkpt lon="-4.126420" lat="53.010438"><ele>261.626953</ele><time>2021-07-17T09:27:28Z</time><extensions><speed>0.325829</speed><course>198.636932</course><hAcc>0.890869</hAcc><vAcc>0.722010</vAcc></extensions></trkpt>
      <trkpt lon="-4.126424" lat="53.010437"><ele>261.749298</ele><time>2021-07-17T09:27:29Z</time><extensions><speed>0.276436</speed><course>192.727798</course><hAcc>0.890756</hAcc><vAcc>0.721668</vAcc></extensions></trkpt>
      <trkpt lon="-4.126428" lat="53.010437"><ele>261.865540</ele><time>2021-07-17T09:27:30Z</time><extensions><speed>0.233021</speed><course>184.691818</course><hAcc>0.890645</hAcc><vAcc>0.721322</vAcc></extensions></trkpt>
      <trkpt lon="-4.126431" lat="53.010437"><ele>261.975677</ele><time>2021-07-17T09:27:31Z</time><extensions><speed>0.197846</speed><course>177.917740</course><hAcc>0.890535</hAcc><vAcc>0.720976</vAcc></extensions></trkpt>
      <trkpt lon="-4.126434" lat="53.010437"><ele>262.080170</ele><time>2021-07-17T09:27:32Z</time><extensions><speed>0.172386</speed><course>169.935883</course><hAcc>0.890427</hAcc><vAcc>0.720635</vAcc></extensions></trkpt>
      <trkpt lon="-4.126436" lat="53.010437"><ele>262.179962</ele><time>2021-07-17T09:27:33Z</time><extensions><speed>0.157428</speed><course>168.290512</course><hAcc>0.890322</hAcc><vAcc>0.720302</vAcc></extensions></trkpt>
      <trkpt lon="-4.126438" lat="53.010436"><ele>262.276154</ele><time>2021-07-17T09:27:34Z</time><extensions><speed>0.153082</speed><course>175.847488</course><hAcc>0.890221</hAcc><vAcc>0.719980</vAcc></extensions></trkpt>
      <trkpt lon="-4.126441" lat="53.010436"><ele>262.370117</ele><time>2021-07-17T09:27:35Z</time><extensions><speed>0.158748</speed><course>182.489380</course><hAcc>0.890123</hAcc><vAcc>0.719671</vAcc></extensions></trkpt>
      <trkpt lon="-4.126443" lat="53.010435"><ele>262.463226</ele><time>2021-07-17T09:27:36Z</time><extensions><speed>0.173149</speed><course>193.224472</course><hAcc>0.890030</hAcc><vAcc>0.719377</vAcc></extensions></trkpt>
      <trkpt lon="-4.126445" lat="53.010434"><ele>262.556946</ele><time>2021-07-17T09:27:37Z</time><extensions><speed>0.194465</speed><course>210.457108</course><hAcc>0.889940</hAcc><vAcc>0.719098</vAcc></extensions></trkpt>
      <trkpt lon="-4.126448" lat="53.010433"><ele>262.652649</ele><time>2021-07-17T09:27:38Z</time><extensions><speed>0.220526</speed><course>227.054108</course><hAcc>0.889855</hAcc><vAcc>0.718832</vAcc></extensions></trkpt>
      <trkpt lon="-4.126451" lat="53.010432"><ele>262.751648</ele><time>2021-07-17T09:27:39Z</time><extensions><speed>0.249143</speed><course>247.666534</course><hAcc>0.889773</hAcc><vAcc>0.718578</vAcc></extensions></trkpt>
      <trkpt lon="-4.126454" lat="53.010431"><ele>262.855042</ele><time>2021-07-17T09:27:40Z</time><extensions><speed>0.278372</speed><course>261.197876</course><hAcc>0.889693</hAcc><vAcc>0.718335</vAcc></extensions></trkpt>
      <trkpt lon="-4.126458" lat="53.010429"><ele>262.963684</ele><time>2021-07-17T09:27:41Z</time><extensions><speed>0.306713</speed><course>263.217255</course><hAcc>0.889615</hAcc><vAcc>0.718101</vAcc></extensions></trkpt>
      <trkpt lon="-4.126461" lat="53.010428"><ele>263.078125</ele><time>2021-07-17T09:27:42Z</time><extensions><speed>0.333398</speed><course>271.463165</course><hAcc>0.889537</hAcc><vAcc>0.717871</vAcc></extensions></trkpt>
      <trkpt lon="-4.126465" lat="53.010426"><ele>263.198822</ele><time>2021-07-17T09:27:43Z</time><extensions><speed>0.358064</speed><course>281.991608</course><hAcc>0.889459</hAcc><vAcc>0.717642</vAcc></extensions></trkpt>
      <trkpt lon="-4.126470" lat="53.010424"><ele>263.325989</ele><time>2021-07-17T09:27:44Z</time><extensions><speed>0.380512</speed><course>285.895782</course><hAcc>0.889379</hAcc><vAcc>0.717408</vAcc></extensions></trkpt>
      <trkpt lon="-4.126474" lat="53.010421"><ele>263.459747</ele><time>2021-07-17T09:27:45Z</time><extensions><speed>0.401137</speed><course>287.327179</course><hAcc>0.889297</hAcc><vAcc>0.717166</vAcc></extensions></trkpt>
      <trkpt lon="-4.126478" lat="53.010419"><ele>263.600342</ele><time>2021-07-17T09:27:46Z</time><extensions><speed>0.420679</speed><course>297.396240</course><hAcc>0.889211</hAcc><vAcc>0.716911</vAcc></extensions></trkpt>
      <trkpt lon="-4.126482" lat="53.010416"><ele>263.747833</ele><time>2021-07-17T09:27:47Z</time><extensions><speed>0.439731</speed><course>299.473175</course><hAcc>0.889124</hAcc><vAcc>0.716642</vAcc></extensions></trkpt>
      <trkpt lon="-4.126487" lat="53.010413"><ele>263.902313</ele><time>2021-07-17T09:27:48Z</time><extensions><speed>0.458542</speed><course>297.683289</course><hAcc>0.889034</hAcc><vAcc>0.716356</vAcc></extensions></trkpt>
      <trkpt lon="-4.126491" lat="53.010409"><ele>264.063843</ele><time>2021-07-17T09:27:49Z</time><extensions><speed>0.477043</speed><course>292.365356</course><hAcc>0.888945</hAcc><vAcc>0.716052</vAcc></extensions></trkpt>
      <trkpt lon="-4.126496" lat="53.010406"><ele>264.232178</ele><time>2021-07-17T09:27:50Z</time><extensions><speed>0.495162</speed><course>291.092651</course><hAcc>0.888858</hAcc><vAcc>0.715736</vAcc></extensions></trkpt>
      <trkpt lon="-4.126500" lat="53.010402"><ele>264.406982</ele><time>2021-07-17T09:27:51Z</time><extensions><speed>0.512956</speed><course>297.007721</course><hAcc>0.888775</hAcc><vAcc>0.715419</vAcc></extensions></trkpt>
      <trkpt lon="-4.126505" lat="53.010398"><ele>264.587952</ele><time>2021-07-17T09:27:52Z</time><extensions><speed>0.530644</speed><course>291.539093</course><hAcc>0.888698</hAcc><vAcc>0.715119</vAcc></extensions></trkpt>
      <trkpt lon="-4.126509" lat="53.010394"><ele>264.774689</ele><time>2021-07-17T09:27:53Z</time><extensions><speed>0.548349</speed><course>293.314819</course><hAcc>0.888629</hAcc><vAcc>0.714855</vAcc></extensions></trkpt>
      <trkpt lon="-4.126514" lat="53.010390"><ele>264.966766</ele><time>2021-07-17T09:27:54Z</time><extensions><speed>0.565843</speed><course>297.043213</course><hAcc>0.888571</hAcc><vAcc>0.714642</vAcc></extensions></trkpt>
      <trkpt lon="-4.126518" lat="53.010386"><ele>265.163727</ele><time>2021-07-17T09:27:55Z</time><extensions><speed>0.582756</speed><course>301.573547</course><hAcc>0.888523</hAcc><vAcc>0.714487</vAcc></extensions></trkpt>
      <trkpt lon="-4.126523" lat="53.010381"><ele>265.364929</ele><time>2021-07-17T09:27:56Z</time><extensions><speed>0.598910</speed><course>305.542847</course><hAcc>0.888487</hAcc><vAcc>0.714387</vAcc></extensions></trkpt>
      <trkpt lon="-4.126528" lat="53.010377"><ele>265.569794</ele><time>2021-07-17T09:27:57Z</time><extensions><speed>0.614383</speed><course>304.461029</course><hAcc>0.888462</hAcc><vAcc>0.714336</vAcc></extensions></trkpt>
      <trkpt lon="-4.126533" lat="53.010372"><ele>265.777893</ele><time>2021-07-17T09:27:58Z</time><extensions><speed>0.629348</speed><course>304.519958</course><hAcc>0.888446</hAcc><vAcc>0.714324</vAcc></extensions></trkpt>
      <trkpt lon="-4.126538" lat="53.010367"><ele>265.988678</ele><time>2021-07-17T09:27:59Z</time><extensions><speed>0.643931</speed><course>306.835541</course><hAcc>0.888439</hAcc><vAcc>0.714338</vAcc></extensions></trkpt>
      <trkpt lon="-4.126543" lat="53.010362"><ele>266.201782</ele><time>2021-07-17T09:28:00Z</time><extensions><speed>0.658076</speed><course>312.924469</course><hAcc>0.888437</hAcc><vAcc>0.714369</vAcc></extensions></trkpt>
      <trkpt lon="-4.126548" lat="53.010357"><ele>266.416656</ele><time>2021-07-17T09:28:01Z</time><extensions><speed>0.671696</speed><course>313.121582</course><hAcc>0.888438</hAcc><vAcc>0.714406</vAcc></extensions></trkpt>
      <trkpt lon="-4.126554" lat="53.010352"><ele>266.632721</ele><time>2021-07-17T09:28:02Z</time><extensions><speed>0.684764</speed><course>312.363678</course><hAcc>0.888437</hAcc><vAcc>0.714440</vAcc></extensions></trkpt>
      <trkpt lon="-4.126559" lat="53.010347"><ele>266.849335</ele><time>2021-07-17T09:28:03Z</time><extensions><speed>0.697233</speed><course>309.905548</course><hAcc>0.888434</hAcc><vAcc>0.714462</vAcc></extensions></trkpt>
      <trkpt lon="-4.126565" lat="53.010341"><ele>267.065796</ele><time>2021-07-17T09:28:04Z</time><extensions><speed>0.709004</speed><course>308.597687</course><hAcc>0.888425</hAcc><vAcc>0.714462</vAcc></extensions></trkpt>
      <trkpt lon="-4.126570" lat="53.010336"><ele>267.281403</ele><time>2021-07-17T09:28:05Z</time><extensions><speed>0.719822</speed><course>307.103394</course><hAcc>0.888409</hAcc><vAcc>0.714430</vAcc></extensions></trkpt>
      <trkpt lon="-4.126576" lat="53.010330"><ele>267.495453</ele><time>2021-07-17T09:28:06Z</time><extensions><speed>0.729593</speed><course>306.897400</course><hAcc>0.888386</hAcc><vAcc>0.714362</vAcc></extensions></trkpt>
      <trkpt lon="-4.126581" lat="53.010325"><ele>267.707306</ele><time>2021-07-17T09:28:07Z</time><extensions><speed>0.738545</speed><course>302.152618</course><hAcc>0.888355</hAcc><vAcc>0.714254</vAcc></extensions></trkpt>
      <trkpt lon="-4.126587" lat="53.010319"><ele>267.916534</ele><time>2021-07-17T09:28:08Z</time><extensions><speed>0.747008</speed><course>297.726410</course><hAcc>0.888319</hAcc><vAcc>0.714111</vAcc></extensions></trkpt>
      <trkpt lon="-4.126593" lat="53.010313"><ele>268.123108</ele><time>2021-07-17T09:28:09Z</time><extensions><speed>0.755023</speed><course>300.194183</course><hAcc>0.888278</hAcc><vAcc>0.713942</vAcc></extensions></trkpt>
      <trkpt lon="-4.126599" lat="53.010308"><ele>268.327454</ele><time>2021-07-17T09:28:10Z</time><extensions><speed>0.762365</speed><course>297.151825</course><hAcc>0.888236</hAcc><vAcc>0.713761</vAcc></extensions></trkpt>
      <trkpt lon="-4.126605" lat="53.010302"><ele>268.530060</ele><time>2021-07-17T09:28:11Z</time><extensions><speed>0.768689</speed><course>298.399384</course><hAcc>0.888196</hAcc><vAcc>0.713584</vAcc></extensions></trkpt>
      <trkpt lon="-4.126611" lat="53.010296"><ele>268.731598</ele><time>2021-07-17T09:28:12Z</time><extensions><speed>0.773361</speed><course>300.837921</course><hAcc>0.888159</hAcc><vAcc>0.713425</vAcc></extensions></trkpt>
      <trkpt lon="-4.126617" lat="53.010290"><ele>268.932709</ele><time>2021-07-17T09:28:13Z</time><extensions><speed>0.775833</speed><course>299.844330</course><hAcc>0.888131</hAcc><vAcc>0.713294</vAcc></extensions></trkpt>
      <trkpt lon="-4.126623" lat="53.010284"><ele>269.133972</ele><time>2021-07-17T09:28:14Z</time><extensions><speed>0.775880</speed><course>300.001373</course><hAcc>0.888113</hAcc><vAcc>0.713202</vAcc></extensions></trkpt>
      <trkpt lon="-4.126630" lat="53.010278"><ele>269.335907</ele><time>2021-07-17T09:28:15Z</time><extensions><speed>0.773555</speed><course>294.568817</course><hAcc>0.888107</hAcc><vAcc>0.713161</vAcc></extensions></trkpt>
      <trkpt lon="-4.126636" lat="53.010272"><ele>269.538849</ele><time>2021-07-17T09:28:16Z</time><extensions><speed>0.768995</speed><course>300.687103</course><hAcc>0.888115</hAcc><vAcc>0.713178</vAcc></extensions></trkpt>
      <trkpt lon="-4.126642" lat="53.010267"><ele>269.742767</ele><time>2021-07-17T09:28:17Z</time><extensions><speed>0.762313</speed><course>297.691925</course><hAcc>0.888137</hAcc><vAcc>0.713259</vAcc></extensions></trkpt>
      <trkpt lon="-4.126649" lat="53.010261"><ele>269.947174</ele><time>2021-07-17T09:28:18Z</time><extensions><speed>0.753522</speed><course>293.928223</course><hAcc>0.888171</hAcc><vAcc>0.713401</vAcc></extensions></trkpt>
      <trkpt lon="-4.126655" lat="53.010256"><ele>270.151398</ele><time>2021-07-17T09:28:19Z</time><extensions><speed>0.742356</speed><course>297.041656</course><hAcc>0.888215</hAcc><vAcc>0.713595</vAcc></extensions></trkpt>
      <trkpt lon="-4.126662" lat="53.010250"><ele>270.354614</ele><time>2021-07-17T09:28:20Z</time><extensions><speed>0.728516</speed><course>298.722290</course><hAcc>0.888266</hAcc><vAcc>0.713823</vAcc></extensions></trkpt>
      <trkpt lon="-4.126668" lat="53.010245"><ele>270.556000</ele><time>2021-07-17T09:28:21Z</time><extensions><speed>0.711996</speed><course>296.674316</course><hAcc>0.888322</hAcc><vAcc>0.714065</vAcc></extensions></trkpt>
      <trkpt lon="-4.126674" lat="53.010240"><ele>270.754791</ele><time>2021-07-17T09:28:22Z</time><extensions><speed>0.693029</speed><course>301.147156</course><hAcc>0.888379</hAcc><vAcc>0.714298</vAcc></extensions></trkpt>
      <trkpt lon="-4.126681" lat="53.010235"><ele>270.950317</ele><time>2021-07-17T09:28:23Z</time><extensions><speed>0.671968</speed><course>301.618805</course><hAcc>0.888433</hAcc><vAcc>0.714507</vAcc></extensions></trkpt>
      <trkpt lon="-4.126687" lat="53.010231"><ele>271.142151</ele><time>2021-07-17T09:28:24Z</time><extensions><speed>0.649297</speed><course>300.678009</course><hAcc>0.888481</hAcc><vAcc>0.714679</vAcc></extensions></trkpt>
      <trkpt lon="-4.126693" lat="53.010226"><ele>271.329895</ele><time>2021-07-17T09:28:25Z</time><extensions><speed>0.625732</speed><course>306.078644</course><hAcc>0.888522</hAcc><vAcc>0.714809</vAcc></extensions></trkpt>
      <trkpt lon="-4.126698" lat="53.010222"><ele>271.513306</ele><time>2021-07-17T09:28:26Z</time><extensions><speed>0.602128</speed><course>302.099213</course><hAcc>0.888551</hAcc><vAcc>0.714891</vAcc></extensions></trkpt>
      <trkpt lon="-4.126704" lat="53.010218"><ele>271.692322</ele><time>2021-07-17T09:28:27Z</time><extensions><speed>0.579269</speed><course>298.253754</course><hAcc>0.888568</hAcc><vAcc>0.714929</vAcc></extensions></trkpt>
      <trkpt lon="-4.126709" lat="53.010214"><ele>271.866943</ele><time>2021-07-17T09:28:28Z</time><extensions><speed>0.557948</speed><course>299.772583</course><hAcc>0.888571</hAcc><vAcc>0.714927</vAcc></extensions></trkpt>
      <trkpt lon="-4.126714" lat="53.010210"><ele>272.037476</ele><time>2021-07-17T09:28:29Z</time><extensions><speed>0.538883</speed><course>299.946075</course><hAcc>0.888558</hAcc><vAcc>0.714891</vAcc></extensions></trkpt>
      <trkpt lon="-4.126719" lat="53.010206"><ele>272.204285</ele><time>2021-07-17T09:28:30Z</time><extensions><speed>0.522438</speed><course>303.968170</course><hAcc>0.888528</hAcc><vAcc>0.714822</vAcc></extensions></trkpt>
      <trkpt lon="-4.126724" lat="53.010202"><ele>272.368042</ele><time>2021-07-17T09:28:31Z</time><extensions><speed>0.508692</speed><course>302.223755</course><hAcc>0.888479</hAcc><vAcc>0.714718</vAcc></extensions></trkpt>
      <trkpt lon="-4.126728" lat="53.010199"><ele>272.529358</ele><time>2021-07-17T09:28:32Z</time><extensions><speed>0.497704</speed><course>303.590851</course><hAcc>0.888412</hAcc><vAcc>0.714568</vAcc></extensions></trkpt>
      <trkpt lon="-4.126733" lat="53.010195"><ele>272.689117</ele><time>2021-07-17T09:28:33Z</time><extensions><speed>0.489568</speed><course>302.656281</course><hAcc>0.888327</hAcc><vAcc>0.714359</vAcc></extensions></trkpt>
      <trkpt lon="-4.126737" lat="53.010192"><ele>272.848145</ele><time>2021-07-17T09:28:34Z</time><extensions><speed>0.484256</speed><course>307.857574</course><hAcc>0.888223</hAcc><vAcc>0.714081</vAcc></extensions></trkpt>
      <trkpt lon="-4.126741" lat="53.010188"><ele>273.007141</ele><time>2021-07-17T09:28:34Z</time><extensions><speed>0.481560</speed><course>306.241272</course><hAcc>0.888121</hAcc><vAcc>0.713744</vAcc></extensions></trkpt>
      <trkpt lon="-4.126745" lat="53.010184"><ele>273.167023</ele><time>2021-07-17T09:28:35Z</time><extensions><speed>0.481144</speed><course>302.560516</course><hAcc>0.888025</hAcc><vAcc>0.713355</vAcc></extensions></trkpt>
      <trkpt lon="-4.126749" lat="53.010181"><ele>273.328094</ele><time>2021-07-17T09:28:36Z</time><extensions><speed>0.482758</speed><course>304.207947</course><hAcc>0.887920</hAcc><vAcc>0.712920</vAcc></extensions></trkpt>
      <trkpt lon="-4.126753" lat="53.010177"><ele>273.490570</ele><time>2021-07-17T09:28:37Z</time><extensions><speed>0.486154</speed><course>304.678192</course><hAcc>0.887812</hAcc><vAcc>0.712468</vAcc></extensions></trkpt>
      <trkpt lon="-4.126757" lat="53.010173"><ele>273.654602</ele><time>2021-07-17T09:28:38Z</time><extensions><speed>0.490986</speed><course>300.816559</course><hAcc>0.887708</hAcc><vAcc>0.712029</vAcc></extensions></trkpt>
      <trkpt lon="-4.126760" lat="53.010170"><ele>273.820099</ele><time>2021-07-17T09:28:39Z</time><extensions><speed>0.496904</speed><course>302.457642</course><hAcc>0.887614</hAcc><vAcc>0.711630</vAcc></extensions></trkpt>
      <trkpt lon="-4.126764" lat="53.010166"><ele>273.986938</ele><time>2021-07-17T09:28:40Z</time><extensions><speed>0.503569</speed><course>303.405792</course><hAcc>0.887534</hAcc><vAcc>0.711298</vAcc></extensions></trkpt>
      <trkpt lon="-4.126768" lat="53.010162"><ele>274.154846</ele><time>2021-07-17T09:28:41Z</time><extensions><speed>0.510806</speed><course>305.179382</course><hAcc>0.887475</hAcc><vAcc>0.711053</vAcc></extensions></trkpt>
      <trkpt lon="-4.126772" lat="53.010158"><ele>274.323486</ele><time>2021-07-17T09:28:42Z</time><extensions><speed>0.518488</speed><course>301.811188</course><hAcc>0.887439</hAcc><vAcc>0.710914</vAcc></extensions></trkpt>
      <trkpt lon="-4.126776" lat="53.010154"><ele>274.492645</ele><time>2021-07-17T09:28:43Z</time><extensions><speed>0.526442</speed><course>294.111877</course><hAcc>0.887428</hAcc><vAcc>0.710889</vAcc></extensions></trkpt>
      <trkpt lon="-4.126781" lat="53.010150"><ele>274.662201</ele><time>2021-07-17T09:28:44Z</time><extensions><speed>0.534455</speed><course>291.186249</course><hAcc>0.887440</hAcc><vAcc>0.710977</vAcc></extensions></trkpt>
      <trkpt lon="-4.126785" lat="53.010146"><ele>274.832001</ele><time>2021-07-17T09:28:45Z</time><extensions><speed>0.542015</speed><course>291.833313</course><hAcc>0.887474</hAcc><vAcc>0.711163</vAcc></extensions></trkpt>
      <trkpt lon="-4.126790" lat="53.010142"><ele>275.001892</ele><time>2021-07-17T09:28:46Z</time><extensions><speed>0.548511</speed><course>293.198639</course><hAcc>0.887526</hAcc><vAcc>0.711422</vAcc></extensions></trkpt>
      <trkpt lon="-4.126795" lat="53.010138"><ele>275.171539</ele><time>2021-07-17T09:28:47Z</time><extensions><speed>0.553465</speed><course>297.953094</course><hAcc>0.887593</hAcc><vAcc>0.711724</vAcc></extensions></trkpt>
      <trkpt lon="-4.126800" lat="53.010134"><ele>275.340637</ele><time>2021-07-17T09:28:48Z</time><extensions><speed>0.556410</speed><course>294.998413</course><hAcc>0.887670</hAcc><vAcc>0.712039</vAcc></extensions></trkpt>
      <trkpt lon="-4.126805" lat="53.010130"><ele>275.508667</ele><time>2021-07-17T09:28:49Z</time><extensions><speed>0.557031</speed><course>290.333923</course><hAcc>0.887754</hAcc><vAcc>0.712342</vAcc></extensions></trkpt>
      <trkpt lon="-4.126810" lat="53.010126"><ele>275.675079</ele><time>2021-07-17T09:28:50Z</time><extensions><speed>0.555194</speed><course>297.336884</course><hAcc>0.887842</hAcc><vAcc>0.712620</vAcc></extensions></trkpt>
      <trkpt lon="-4.126815" lat="53.010122"><ele>275.839264</ele><time>2021-07-17T09:28:51Z</time><extensions><speed>0.550923</speed><course>291.763641</course><hAcc>0.887931</hAcc><vAcc>0.712871</vAcc></extensions></trkpt>
      <trkpt lon="-4.126821" lat="53.010119"><ele>276.000549</ele><time>2021-07-17T09:28:52Z</time><extensions><speed>0.544505</speed><course>293.588959</course><hAcc>0.888021</hAcc><vAcc>0.713105</vAcc></extensions></trkpt>
      <trkpt lon="-4.126826" lat="53.010115"><ele>276.158386</ele><time>2021-07-17T09:28:53Z</time><extensions><speed>0.536237</speed><course>298.534668</course><hAcc>0.888111</hAcc><vAcc>0.713339</vAcc></extensions></trkpt>
      <trkpt lon="-4.126831" lat="53.010111"><ele>276.312317</ele><time>2021-07-17T09:28:54Z</time><extensions><speed>0.526287</speed><course>294.834351</course><hAcc>0.888202</hAcc><vAcc>0.713589</vAcc></extensions></trkpt>
      <trkpt lon="-4.126836" lat="53.010108"><ele>276.461853</ele><time>2021-07-17T09:28:55Z</time><extensions><speed>0.514773</speed><course>297.698059</course><hAcc>0.888294</hAcc><vAcc>0.713863</vAcc></extensions></trkpt>
      <trkpt lon="-4.126841" lat="53.010104"><ele>276.606506</ele><time>2021-07-17T09:28:56Z</time><extensions><speed>0.501801</speed><course>298.511444</course><hAcc>0.888388</hAcc><vAcc>0.714162</vAcc></extensions></trkpt>
      <trkpt lon="-4.126846" lat="53.010101"><ele>276.745758</ele><time>2021-07-17T09:28:57Z</time><extensions><speed>0.487543</speed><course>303.054443</course><hAcc>0.888484</hAcc><vAcc>0.714481</vAcc></extensions></trkpt>
      <trkpt lon="-4.126851" lat="53.010098"><ele>276.878967</ele><time>2021-07-17T09:28:58Z</time><extensions><speed>0.472369</speed><course>300.594757</course><hAcc>0.888583</hAcc><vAcc>0.714815</vAcc></extensions></trkpt>
      <trkpt lon="-4.126856" lat="53.010095"><ele>277.005737</ele><time>2021-07-17T09:28:59Z</time><extensions><speed>0.456975</speed><course>303.489990</course><hAcc>0.888684</hAcc><vAcc>0.715158</vAcc></extensions></trkpt>
      <trkpt lon="-4.126860" lat="53.010092"><ele>277.125854</ele><time>2021-07-17T09:29:00Z</time><extensions><speed>0.442173</speed><course>307.296783</course><hAcc>0.888785</hAcc><vAcc>0.715505</vAcc></extensions></trkpt>
      <trkpt lon="-4.126864" lat="53.010089"><ele>277.239594</ele><time>2021-07-17T09:29:01Z</time><extensions><speed>0.428660</speed><course>306.846466</course><hAcc>0.888885</hAcc><vAcc>0.715849</vAcc></extensions></trkpt>
      <trkpt lon="-4.126869" lat="53.010086"><ele>277.347656</ele><time>2021-07-17T09:29:02Z</time><extensions><speed>0.417008</speed><course>314.303711</course><hAcc>0.888982</hAcc><vAcc>0.716184</vAcc></extensions></trkpt>
      <trkpt lon="-4.126873" lat="53.010083"><ele>277.450989</ele><time>2021-07-17T09:29:03Z</time><extensions><speed>0.408116</speed><course>316.753265</course><hAcc>0.889074</hAcc><vAcc>0.716499</vAcc></extensions></trkpt>
      <trkpt lon="-4.126877" lat="53.010081"><ele>277.550720</ele><time>2021-07-17T09:29:04Z</time><extensions><speed>0.402916</speed><course>312.101562</course><hAcc>0.889158</hAcc><vAcc>0.716786</vAcc></extensions></trkpt>
      <trkpt lon="-4.126881" lat="53.010078"><ele>277.647949</ele><time>2021-07-17T09:29:05Z</time><extensions><speed>0.401718</speed><course>310.983948</course><hAcc>0.889233</hAcc><vAcc>0.717038</vAcc></extensions></trkpt>
      <trkpt lon="-4.126885" lat="53.010076"><ele>277.743652</ele><time>2021-07-17T09:29:06Z</time><extensions><speed>0.404340</speed><course>316.824890</course><hAcc>0.889296</hAcc><vAcc>0.717249</vAcc></extensions></trkpt>
      <trkpt lon="-4.126890" lat="53.010073"><ele>277.838470</ele><time>2021-07-17T09:29:07Z</time><extensions><speed>0.410086</speed><course>324.005005</course><hAcc>0.889344</hAcc><vAcc>0.717414</vAcc></extensions></trkpt>
      <trkpt lon="-4.126894" lat="53.010070"><ele>277.932922</ele><time>2021-07-17T09:29:08Z</time><extensions><speed>0.418093</speed><course>322.091736</course><hAcc>0.889376</hAcc><vAcc>0.717526</vAcc></extensions></trkpt>
      <trkpt lon="-4.126899" lat="53.010068"><ele>278.027405</ele><time>2021-07-17T09:29:09Z</time><extensions><speed>0.427385</speed><course>322.830170</course><hAcc>0.889389</hAcc><vAcc>0.717582</vAcc></extensions></trkpt>
      <trkpt lon="-4.126903" lat="53.010065"><ele>278.122223</ele><time>2021-07-17T09:29:10Z</time><extensions><speed>0.436923</speed><course>325.823517</course><hAcc>0.889381</hAcc><vAcc>0.717574</vAcc></extensions></trkpt>
      <trkpt lon="-4.126908" lat="53.010062"><ele>278.217743</ele><time>2021-07-17T09:29:11Z</time><extensions><speed>0.445785</speed><course>331.853210</course><hAcc>0.889350</hAcc><vAcc>0.717497</vAcc></extensions></trkpt>
      <trkpt lon="-4.126913" lat="53.010060"><ele>278.314178</ele><time>2021-07-17T09:29:12Z</time><extensions><speed>0.453068</speed><course>331.260956</course><hAcc>0.889293</hAcc><vAcc>0.717344</vAcc></extensions></trkpt>
      <trkpt lon="-4.126918" lat="53.010057"><ele>278.411682</ele><time>2021-07-17T09:29:13Z</time><extensions><speed>0.458179</speed><course>329.072571</course><hAcc>0.889208</hAcc><vAcc>0.717106</vAcc></extensions></trkpt>
      <trkpt lon="-4.126923" lat="53.010054"><ele>278.510376</ele><time>2021-07-17T09:29:14Z</time><extensions><speed>0.460887</speed><course>325.473938</course><hAcc>0.889093</hAcc><vAcc>0.716778</vAcc></extensions></trkpt>
      <trkpt lon="-4.126928" lat="53.010051"><ele>278.610291</ele><time>2021-07-17T09:29:15Z</time><extensions><speed>0.461141</speed><course>325.383026</course><hAcc>0.888948</hAcc><vAcc>0.716352</vAcc></extensions></trkpt>
      <trkpt lon="-4.126933" lat="53.010048"><ele>278.711334</ele><time>2021-07-17T09:29:16Z</time><extensions><speed>0.459021</speed><course>325.061401</course><hAcc>0.888773</hAcc><vAcc>0.715823</vAcc></extensions></trkpt>
      <trkpt lon="-4.126938" lat="53.010045"><ele>278.813507</ele><time>2021-07-17T09:29:17Z</time><extensions><speed>0.454620</speed><course>325.207275</course><hAcc>0.888570</hAcc><vAcc>0.715188</vAcc></extensions></trkpt>
      <trkpt lon="-4.126942" lat="53.010042"><ele>278.916718</ele><time>2021-07-17T09:29:18Z</time><extensions><speed>0.448047</speed><course>322.410889</course><hAcc>0.888341</hAcc><vAcc>0.714449</vAcc></extensions></trkpt>
      <trkpt lon="-4.126946" lat="53.010039"><ele>279.020966</ele><time>2021-07-17T09:29:19Z</time><extensions><speed>0.439846</speed><course>319.218658</course><hAcc>0.888093</hAcc><vAcc>0.713616</vAcc></extensions></trkpt>
      <trkpt lon="-4.126950" lat="53.010036"><ele>279.126221</ele><time>2021-07-17T09:29:20Z</time><extensions><speed>0.430946</speed><course>319.790588</course><hAcc>0.887831</hAcc><vAcc>0.712707</vAcc></extensions></trkpt>
      <trkpt lon="-4.126953" lat="53.010033"><ele>279.232697</ele><time>2021-07-17T09:29:21Z</time><extensions><speed>0.422130</speed><course>318.972229</course><hAcc>0.887565</hAcc><vAcc>0.711753</vAcc></extensions></trkpt>
      <trkpt lon="-4.126957" lat="53.010030"><ele>279.340637</ele><time>2021-07-17T09:29:22Z</time><extensions><speed>0.413992</speed><course>320.354065</course><hAcc>0.887304</hAcc><vAcc>0.710793</vAcc></extensions></trkpt>
      <trkpt lon="-4.126960" lat="53.010026"><ele>279.450439</ele><time>2021-07-17T09:29:23Z</time><extensions><speed>0.406857</speed><course>320.541016</course><hAcc>0.887059</hAcc><vAcc>0.709874</vAcc></extensions></trkpt>
      <trkpt lon="-4.126962" lat="53.010023"><ele>279.562744</ele><time>2021-07-17T09:29:24Z</time><extensions><speed>0.400807</speed><course>317.906189</course><hAcc>0.886839</hAcc><vAcc>0.709041</vAcc></extensions></trkpt>
      <trkpt lon="-4.126965" lat="53.010020"><ele>279.678253</ele><time>2021-07-17T09:29:25Z</time><extensions><speed>0.396071</speed><course>316.077393</course><hAcc>0.886654</hAcc><vAcc>0.708338</vAcc></extensions></trkpt>
      <trkpt lon="-4.126967" lat="53.010017"><ele>279.797638</ele><time>2021-07-17T09:29:26Z</time><extensions><speed>0.393031</speed><course>307.356537</course><hAcc>0.886511</hAcc><vAcc>0.707799</vAcc></extensions></trkpt>
      <trkpt lon="-4.126970" lat="53.010013"><ele>279.921570</ele><time>2021-07-17T09:29:27Z</time><extensions><speed>0.391786</speed><course>302.004150</course><hAcc>0.886415</hAcc><vAcc>0.707456</vAcc></extensions></trkpt>
      <trkpt lon="-4.126972" lat="53.010010"><ele>280.050507</ele><time>2021-07-17T09:29:28Z</time><extensions><speed>0.392236</speed><course>310.520874</course><hAcc>0.886367</hAcc><vAcc>0.707325</vAcc></extensions></trkpt>
      <trkpt lon="-4.126975" lat="53.010007"><ele>280.184967</ele><time>2021-07-17T09:29:29Z</time><extensions><speed>0.394153</speed><course>307.778412</course><hAcc>0.886364</hAcc><vAcc>0.707401</vAcc></extensions></trkpt>
      <trkpt lon="-4.126978" lat="53.010004"><ele>280.325287</ele><time>2021-07-17T09:29:30Z</time><extensions><speed>0.396871</speed><course>310.132080</course><hAcc>0.886401</hAcc><vAcc>0.707656</vAcc></extensions></trkpt>
      <trkpt lon="-4.126980" lat="53.010001"><ele>280.471436</ele><time>2021-07-17T09:29:31Z</time><extensions><speed>0.399511</speed><course>310.327301</course><hAcc>0.886467</hAcc><vAcc>0.708041</vAcc></extensions></trkpt>
      <trkpt lon="-4.126983" lat="53.009998"><ele>280.623047</ele><time>2021-07-17T09:29:32Z</time><extensions><speed>0.401370</speed><course>308.925873</course><hAcc>0.886552</hAcc><vAcc>0.708492</vAcc></extensions></trkpt>
      <trkpt lon="-4.126986" lat="53.009994"><ele>280.779266</ele><time>2021-07-17T09:29:33Z</time><extensions><speed>0.402112</speed><course>308.955322</course><hAcc>0.886642</hAcc><vAcc>0.708943</vAcc></extensions></trkpt>
      <trkpt lon="-4.126989" lat="53.009991"><ele>280.939178</ele><time>2021-07-17T09:29:34Z</time><extensions><speed>0.401491</speed><course>303.152588</course><hAcc>0.886724</hAcc><vAcc>0.709340</vAcc></extensions></trkpt>
      <trkpt lon="-4.126992" lat="53.009988"><ele>281.101776</ele><time>2021-07-17T09:29:35Z</time><extensions><speed>0.399218</speed><course>313.156525</course><hAcc>0.886788</hAcc><vAcc>0.709641</vAcc></extensions></trkpt>
      <trkpt lon="-4.126995" lat="53.009985"><ele>281.265961</ele><time>2021-07-17T09:29:36Z</time><extensions><speed>0.395348</speed><course>307.864197</course><hAcc>0.886826</hAcc><vAcc>0.709808</vAcc></extensions></trkpt>
      <trkpt lon="-4.126998" lat="53.009982"><ele>281.430450</ele><time>2021-07-17T09:29:37Z</time><extensions><speed>0.390336</speed><course>309.541687</course><hAcc>0.886830</hAcc><vAcc>0.709819</vAcc></extensions></trkpt>
      <trkpt lon="-4.127001" lat="53.009979"><ele>281.594360</ele><time>2021-07-17T09:29:38Z</time><extensions><speed>0.384484</speed><course>312.130341</course><hAcc>0.886797</hAcc><vAcc>0.709664</vAcc></extensions></trkpt>
      <trkpt lon="-4.127004" lat="53.009976"><ele>281.756958</ele><time>2021-07-17T09:29:39Z</time><extensions><speed>0.377963</speed><course>310.268982</course><hAcc>0.886727</hAcc><vAcc>0.709356</vAcc></extensions></trkpt>
      <trkpt lon="-4.127006" lat="53.009973"><ele>281.917664</ele><time>2021-07-17T09:29:40Z</time><extensions><speed>0.371216</speed><course>308.247070</course><hAcc>0.886621</hAcc><vAcc>0.708920</vAcc></extensions></trkpt>
      <trkpt lon="-4.127008" lat="53.009970"><ele>282.076080</ele><time>2021-07-17T09:29:41Z</time><extensions><speed>0.364809</speed><course>304.229858</course><hAcc>0.886482</hAcc><vAcc>0.708390</vAcc></extensions></trkpt>
      <trkpt lon="-4.127010" lat="53.009967"><ele>282.231934</ele><time>2021-07-17T09:29:42Z</time><extensions><speed>0.359147</speed><course>308.310059</course><hAcc>0.886313</hAcc><vAcc>0.707797</vAcc></extensions></trkpt>
      <trkpt lon="-4.127012" lat="53.009964"><ele>282.385223</ele><time>2021-07-17T09:29:43Z</time><extensions><speed>0.354426</speed><course>311.142822</course><hAcc>0.886121</hAcc><vAcc>0.707158</vAcc></extensions></trkpt>
      <trkpt lon="-4.127013" lat="53.009961"><ele>282.535919</ele><time>2021-07-17T09:29:44Z</time><extensions><speed>0.350743</speed><course>305.518036</course><hAcc>0.885911</hAcc><vAcc>0.706481</vAcc></extensions></trkpt>
      <trkpt lon="-4.127014" lat="53.009958"><ele>282.684052</ele><time>2021-07-17T09:29:45Z</time><extensions><speed>0.348115</speed><course>303.061462</course><hAcc>0.885691</hAcc><vAcc>0.705766</vAcc></extensions></trkpt>
      <trkpt lon="-4.127015" lat="53.009955"><ele>282.829712</ele><time>2021-07-17T09:29:47Z</time><extensions><speed>0.346579</speed><course>298.232086</course><hAcc>0.885452</hAcc><vAcc>0.704999</vAcc></extensions></trkpt>
      <trkpt lon="-4.127016" lat="53.009952"><ele>282.972443</ele><time>2021-07-17T09:29:48Z</time><extensions><speed>0.346204</speed><course>289.358276</course><hAcc>0.885202</hAcc><vAcc>0.704189</vAcc></extensions></trkpt>
      <trkpt lon="-4.127016" lat="53.009949"><ele>283.112213</ele><time>2021-07-17T09:29:49Z</time><extensions><speed>0.346968</speed><course>285.924469</course><hAcc>0.884972</hAcc><vAcc>0.703375</vAcc></extensions></trkpt>
      <trkpt lon="-4.127016" lat="53.009945"><ele>283.249115</ele><time>2021-07-17T09:29:50Z</time><extensions><speed>0.348679</speed><course>280.520447</course><hAcc>0.884772</hAcc><vAcc>0.702607</vAcc></extensions></trkpt>
      <trkpt lon="-4.127015" lat="53.009942"><ele>283.383453</ele><time>2021-07-17T09:29:51Z</time><extensions><speed>0.351038</speed><course>286.862061</course><hAcc>0.884615</hAcc><vAcc>0.701951</vAcc></extensions></trkpt>
      <trkpt lon="-4.127015" lat="53.009939"><ele>283.515961</ele><time>2021-07-17T09:29:52Z</time><extensions><speed>0.353677</speed><course>295.700317</course><hAcc>0.884512</hAcc><vAcc>0.701480</vAcc></extensions></trkpt>
      <trkpt lon="-4.127015" lat="53.009936"><ele>283.647644</ele><time>2021-07-17T09:29:53Z</time><extensions><speed>0.356335</speed><course>296.161560</course><hAcc>0.884473</hAcc><vAcc>0.701256</vAcc></extensions></trkpt>
      <trkpt lon="-4.127015" lat="53.009933"><ele>283.779755</ele><time>2021-07-17T09:29:54Z</time><extensions><speed>0.359197</speed><course>298.229218</course><hAcc>0.884504</hAcc><vAcc>0.701320</vAcc></extensions></trkpt>
      <trkpt lon="-4.127015" lat="53.009929"><ele>283.913330</ele><time>2021-07-17T09:29:55Z</time><extensions><speed>0.362786</speed><course>297.545471</course><hAcc>0.884607</hAcc><vAcc>0.701691</vAcc></extensions></trkpt>
      <trkpt lon="-4.127015" lat="53.009926"><ele>284.049377</ele><time>2021-07-17T09:29:56Z</time><extensions><speed>0.367541</speed><course>292.454163</course><hAcc>0.884778</hAcc><vAcc>0.702353</vAcc></extensions></trkpt>
      <trkpt lon="-4.127016" lat="53.009923"><ele>284.188568</ele><time>2021-07-17T09:29:57Z</time><extensions><speed>0.373374</speed><course>287.195465</course><hAcc>0.885009</hAcc><vAcc>0.703266</vAcc></extensions></trkpt>
      <trkpt lon="-4.127017" lat="53.009920"><ele>284.331146</ele><time>2021-07-17T09:29:58Z</time><extensions><speed>0.379376</speed><course>283.339600</course><hAcc>0.885286</hAcc><vAcc>0.704360</vAcc></extensions></trkpt>
      <trkpt lon="-4.127019" lat="53.009916"><ele>284.477051</ele><time>2021-07-17T09:29:59Z</time><extensions><speed>0.384490</speed><course>283.687531</course><hAcc>0.885594</hAcc><vAcc>0.705551</vAcc></extensions></trkpt>
      <trkpt lon="-4.127021" lat="53.009913"><ele>284.625824</ele><time>2021-07-17T09:30:00Z</time><extensions><speed>0.388053</speed><course>284.089417</course><hAcc>0.885916</hAcc><vAcc>0.706752</vAcc></extensions></trkpt>
      <trkpt lon="-4.127023" lat="53.009910"><ele>284.776703</ele><time>2021-07-17T09:30:01Z</time><extensions><speed>0.389481</speed><course>286.432800</course><hAcc>0.886235</hAcc><vAcc>0.707891</vAcc></extensions></trkpt>
      <trkpt lon="-4.127025" lat="53.009907"><ele>284.928772</ele><time>2021-07-17T09:30:02Z</time><extensions><speed>0.388706</speed><course>288.844025</course><hAcc>0.886536</hAcc><vAcc>0.708918</vAcc></extensions></trkpt>
      <trkpt lon="-4.127028" lat="53.009904"><ele>285.081177</ele><time>2021-07-17T09:30:03Z</time><extensions><speed>0.386204</speed><course>294.600861</course><hAcc>0.886806</hAcc><vAcc>0.709799</vAcc></extensions></trkpt>
      <trkpt lon="-4.127031" lat="53.009901"><ele>285.233307</ele><time>2021-07-17T09:30:04Z</time><extensions><speed>0.382664</speed><course>289.399475</course><hAcc>0.887034</hAcc><vAcc>0.710519</vAcc></extensions></trkpt>
      <trkpt lon="-4.127033" lat="53.009898"><ele>285.384949</ele><time>2021-07-17T09:30:05Z</time><extensions><speed>0.379034</speed><course>292.462738</course><hAcc>0.887213</hAcc><vAcc>0.711072</vAcc></extensions></trkpt>
      <trkpt lon="-4.127036" lat="53.009895"><ele>285.536133</ele><time>2021-07-17T09:30:06Z</time><extensions><speed>0.376231</speed><course>292.044128</course><hAcc>0.887340</hAcc><vAcc>0.711457</vAcc></extensions></trkpt>
      <trkpt lon="-4.127039" lat="53.009892"><ele>285.687134</ele><time>2021-07-17T09:30:07Z</time><extensions><speed>0.374771</speed><course>289.426849</course><hAcc>0.887411</hAcc><vAcc>0.711675</vAcc></extensions></trkpt>
      <trkpt lon="-4.127042" lat="53.009889"><ele>285.838348</ele><time>2021-07-17T09:30:08Z</time><extensions><speed>0.374675</speed><course>292.821838</course><hAcc>0.887428</hAcc><vAcc>0.711722</vAcc></extensions></trkpt>
      <trkpt lon="-4.127044" lat="53.009886"><ele>285.990173</ele><time>2021-07-17T09:30:09Z</time><extensions><speed>0.375496</speed><course>287.405121</course><hAcc>0.887393</hAcc><vAcc>0.711595</vAcc></extensions></trkpt>
      <trkpt lon="-4.127047" lat="53.009883"><ele>286.142700</ele><time>2021-07-17T09:30:10Z</time><extensions><speed>0.376774</speed><course>289.328461</course><hAcc>0.887311</hAcc><vAcc>0.711299</vAcc></extensions></trkpt>
      <trkpt lon="-4.127050" lat="53.009880"><ele>286.296021</ele><time>2021-07-17T09:30:11Z</time><extensions><speed>0.378486</speed><course>290.686554</course><hAcc>0.887188</hAcc><vAcc>0.710844</vAcc></extensions></trkpt>
      <trkpt lon="-4.127052" lat="53.009877"><ele>286.450348</ele><time>2021-07-17T09:30:12Z</time><extensions><speed>0.380753</speed><course>291.519623</course><hAcc>0.887028</hAcc><vAcc>0.710253</vAcc></extensions></trkpt>
      <trkpt lon="-4.127054" lat="53.009874"><ele>286.605896</ele><time>2021-07-17T09:30:13Z</time><extensions><speed>0.383610</speed><course>289.260345</course><hAcc>0.886840</hAcc><vAcc>0.709557</vAcc></extensions></trkpt>
      <trkpt lon="-4.127057" lat="53.009870"><ele>286.762756</ele><time>2021-07-17T09:30:14Z</time><extensions><speed>0.386944</speed><course>291.671295</course><hAcc>0.886630</hAcc><vAcc>0.708793</vAcc></extensions></trkpt>
      <trkpt lon="-4.127058" lat="53.009867"><ele>286.920715</ele><time>2021-07-17T09:30:15Z</time><extensions><speed>0.390550</speed><course>285.797272</course><hAcc>0.886403</hAcc><vAcc>0.708000</vAcc></extensions></trkpt>
      <trkpt lon="-4.127060" lat="53.009864"><ele>287.079651</ele><time>2021-07-17T09:30:16Z</time><extensions><speed>0.394342</speed><course>284.045776</course><hAcc>0.886166</hAcc><vAcc>0.707205</vAcc></extensions></trkpt>
      <trkpt lon="-4.127062" lat="53.009860"><ele>287.239380</ele><time>2021-07-17T09:30:17Z</time><extensions><speed>0.398316</speed><course>290.744446</course><hAcc>0.885923</hAcc><vAcc>0.706422</vAcc></extensions></trkpt>
      <trkpt lon="-4.127063" lat="53.009857"><ele>287.399689</ele><time>2021-07-17T09:30:18Z</time><extensions><speed>0.402443</speed><course>286.155334</course><hAcc>0.885676</hAcc><vAcc>0.705653</vAcc></extensions></trkpt>
      <trkpt lon="-4.127064" lat="53.009853"><ele>287.560394</ele><time>2021-07-17T09:30:19Z</time><extensions><speed>0.406785</speed><course>292.078705</course><hAcc>0.885430</hAcc><vAcc>0.704896</vAcc></extensions></trkpt>
      <trkpt lon="-4.127065" lat="53.009849"><ele>287.721100</ele><time>2021-07-17T09:30:20Z</time><extensions><speed>0.411255</speed><course>292.906311</course><hAcc>0.885184</hAcc><vAcc>0.704145</vAcc></extensions></trkpt>
      <trkpt lon="-4.127065" lat="53.009846"><ele>287.881317</ele><time>2021-07-17T09:30:21Z</time><extensions><speed>0.415317</speed><course>291.462067</course><hAcc>0.884940</hAcc><vAcc>0.703398</vAcc></extensions></trkpt>
      <trkpt lon="-4.127065" lat="53.009842"><ele>288.040375</ele><time>2021-07-17T09:30:22Z</time><extensions><speed>0.418384</speed><course>290.448425</course><hAcc>0.884701</hAcc><vAcc>0.702651</vAcc></extensions></trkpt>
      <trkpt lon="-4.127066" lat="53.009838"><ele>288.197662</ele><time>2021-07-17T09:30:23Z</time><extensions><speed>0.419889</speed><course>295.857269</course><hAcc>0.884468</hAcc><vAcc>0.701905</vAcc></extensions></trkpt>
      <trkpt lon="-4.127066" lat="53.009834"><ele>288.352570</ele><time>2021-07-17T09:30:24Z</time><extensions><speed>0.419197</speed><course>298.185364</course><hAcc>0.884245</hAcc><vAcc>0.701166</vAcc></extensions></trkpt>
      <trkpt lon="-4.127065" lat="53.009831"><ele>288.504639</ele><time>2021-07-17T09:30:25Z</time><extensions><speed>0.415783</speed><course>294.469940</course><hAcc>0.884035</hAcc><vAcc>0.700452</vAcc></extensions></trkpt>
      <trkpt lon="-4.127065" lat="53.009827"><ele>288.653473</ele><time>2021-07-17T09:30:26Z</time><extensions><speed>0.409295</speed><course>292.898438</course><hAcc>0.883846</hAcc><vAcc>0.699783</vAcc></extensions></trkpt>
      <trkpt lon="-4.127065" lat="53.009823"><ele>288.798523</ele><time>2021-07-17T09:30:27Z</time><extensions><speed>0.399445</speed><course>292.422791</course><hAcc>0.883681</hAcc><vAcc>0.699186</vAcc></extensions></trkpt>
      <trkpt lon="-4.127065" lat="53.009820"><ele>288.939148</ele><time>2021-07-17T09:30:28Z</time><extensions><speed>0.386144</speed><course>292.622986</course><hAcc>0.883547</hAcc><vAcc>0.698693</vAcc></extensions></trkpt>
      <trkpt lon="-4.127064" lat="53.009816"><ele>289.074646</ele><time>2021-07-17T09:30:29Z</time><extensions><speed>0.369623</speed><course>292.749084</course><hAcc>0.883451</hAcc><vAcc>0.698331</vAcc></extensions></trkpt>
      <trkpt lon="-4.127064" lat="53.009813"><ele>289.204163</ele><time>2021-07-17T09:30:30Z</time><extensions><speed>0.350288</speed><course>294.832458</course><hAcc>0.883394</hAcc><vAcc>0.698125</vAcc></extensions></trkpt>
      <trkpt lon="-4.127065" lat="53.009810"><ele>289.326782</ele><time>2021-07-17T09:30:31Z</time><extensions><speed>0.328414</speed><course>290.563019</course><hAcc>0.883380</hAcc><vAcc>0.698086</vAcc></extensions></trkpt>
      <trkpt lon="-4.127065" lat="53.009807"><ele>289.441711</ele><time>2021-07-17T09:30:32Z</time><extensions><speed>0.304079</speed><course>288.082062</course><hAcc>0.883409</hAcc><vAcc>0.698216</vAcc></extensions></trkpt>
      <trkpt lon="-4.127065" lat="53.009805"><ele>289.548187</ele><time>2021-07-17T09:30:33Z</time><extensions><speed>0.277430</speed><course>289.238037</course><hAcc>0.883476</hAcc><vAcc>0.698504</vAcc></extensions></trkpt>
      <trkpt lon="-4.127066" lat="53.009802"><ele>289.645416</ele><time>2021-07-17T09:30:34Z</time><extensions><speed>0.248636</speed><course>289.037109</course><hAcc>0.883577</hAcc><vAcc>0.698921</vAcc></extensions></trkpt>
      <trkpt lon="-4.127067" lat="53.009800"><ele>289.732635</ele><time>2021-07-17T09:30:35Z</time><extensions><speed>0.217985</speed><course>291.884949</course><hAcc>0.883705</hAcc><vAcc>0.699426</vAcc></extensions></trkpt>
      <trkpt lon="-4.127067" lat="53.009799"><ele>289.809204</ele><time>2021-07-17T09:30:36Z</time><extensions><speed>0.186174</speed><course>287.567657</course><hAcc>0.883851</hAcc><vAcc>0.699976</vAcc></extensions></trkpt>
      <trkpt lon="-4.127068" lat="53.009797"><ele>289.874939</ele><time>2021-07-17T09:30:37Z</time><extensions><speed>0.154340</speed><course>291.768890</course><hAcc>0.884009</hAcc><vAcc>0.700540</vAcc></extensions></trkpt>
      <trkpt lon="-4.127069" lat="53.009796"><ele>289.929901</ele><time>2021-07-17T09:30:38Z</time><extensions><speed>0.124026</speed><course>296.126740</course><hAcc>0.884171</hAcc><vAcc>0.701096</vAcc></extensions></trkpt>
      <trkpt lon="-4.127069" lat="53.009795"><ele>289.974609</ele><time>2021-07-17T09:30:39Z</time><extensions><speed>0.096651</speed><course>297.059143</course><hAcc>0.884331</hAcc><vAcc>0.701631</vAcc></extensions></trkpt>
      <trkpt lon="-4.127070" lat="53.009794"><ele>290.009979</ele><time>2021-07-17T09:30:40Z</time><extensions><speed>0.073041</speed><course>303.696320</course><hAcc>0.884485</hAcc><vAcc>0.702142</vAcc></extensions></trkpt>
      <trkpt lon="-4.127070" lat="53.009794"><ele>290.037170</ele><time>2021-07-17T09:30:40Z</time><extensions><speed>0.053509</speed><course>307.460022</course><hAcc>0.884645</hAcc><vAcc>0.702641</vAcc></extensions></trkpt>
      <trkpt lon="-4.127070" lat="53.009793"><ele>290.057617</ele><time>2021-07-17T09:30:41Z</time><extensions><speed>0.037872</speed><course>302.094666</course><hAcc>0.884811</hAcc><vAcc>0.703129</vAcc></extensions></trkpt>
      <trkpt lon="-4.127071" lat="53.009793"><ele>290.072693</ele><time>2021-07-17T09:30:42Z</time><extensions><speed>0.025850</speed><course>294.763123</course><hAcc>0.884961</hAcc><vAcc>0.703587</vAcc></extensions></trkpt>
      <trkpt lon="-4.127071" lat="53.009793"><ele>290.083740</ele><time>2021-07-17T09:30:43Z</time><extensions><speed>0.017112</speed><course>292.310913</course><hAcc>0.885093</hAcc><vAcc>0.704004</vAcc></extensions></trkpt>
      <trkpt lon="-4.127071" lat="53.009793"><ele>290.092041</ele><time>2021-07-17T09:30:44Z</time><extensions><speed>0.011364</speed><course>286.252472</course><hAcc>0.885206</hAcc><vAcc>0.704372</vAcc></extensions></trkpt>
      <trkpt lon="-4.127071" lat="53.009793"><ele>290.098877</ele><time>2021-07-17T09:30:45Z</time><extensions><speed>0.007932</speed><course>277.085999</course><hAcc>0.885297</hAcc><vAcc>0.704677</vAcc></extensions></trkpt>
      <trkpt lon="-4.127071" lat="53.009793"><ele>290.105499</ele><time>2021-07-17T09:30:46Z</time><extensions><speed>0.005836</speed><course>269.880463</course><hAcc>0.885363</hAcc><vAcc>0.704907</vAcc></extensions></trkpt>
      <trkpt lon="-4.127071" lat="53.009793"><ele>290.113129</ele><time>2021-07-17T09:30:47Z</time><extensions><speed>0.005789</speed><course>256.014618</course><hAcc>0.885400</hAcc><vAcc>0.705052</vAcc></extensions></trkpt>
      <trkpt lon="-4.127071" lat="53.009793"><ele>290.122925</ele><time>2021-07-17T09:30:48Z</time><extensions><speed>0.010209</speed><course>250.524368</course><hAcc>0.885406</hAcc><vAcc>0.705101</vAcc></extensions></trkpt>
      <trkpt lon="-4.127071" lat="53.009793"><ele>290.135864</ele><time>2021-07-17T09:30:49Z</time><extensions><speed>0.018525</speed><course>237.491638</course><hAcc>0.885377</hAcc><vAcc>0.705045</vAcc></extensions></trkpt>
      <trkpt lon="-4.127071" lat="53.009792"><ele>290.152893</ele><time>2021-07-17T09:30:50Z</time><extensions><speed>0.030000</speed><course>231.976761</course><hAcc>0.885311</hAcc><vAcc>0.704874</vAcc></extensions></trkpt>
      <trkpt lon="-4.127071" lat="53.009792"><ele>290.174835</ele><time>2021-07-17T09:30:51Z</time><extensions><speed>0.044369</speed><course>228.504318</course><hAcc>0.885207</hAcc><vAcc>0.704580</vAcc></extensions></trkpt>
      <trkpt lon="-4.127071" lat="53.009792"><ele>290.202576</ele><time>2021-07-17T09:30:52Z</time><extensions><speed>0.061421</speed><course>227.577087</course><hAcc>0.885065</hAcc><vAcc>0.704156</vAcc></extensions></trkpt>
      <trkpt lon="-4.127071" lat="53.009791"><ele>290.236755</ele><time>2021-07-17T09:30:53Z</time><extensions><speed>0.080939</speed><course>219.513672</course><hAcc>0.884887</hAcc><vAcc>0.703598</vAcc></extensions></trkpt>
      <trkpt lon="-4.127071" lat="53.009790"><ele>290.277802</ele><time>2021-07-17T09:30:54Z</time><extensions><speed>0.102710</speed><course>224.903015</course><hAcc>0.884677</hAcc><vAcc>0.702905</vAcc></extensions></trkpt>
      <trkpt lon="-4.127070" lat="53.009789"><ele>290.325989</ele><time>2021-07-17T09:30:55Z</time><extensions><speed>0.126447</speed><course>222.390198</course><hAcc>0.884441</hAcc><vAcc>0.702093</vAcc></extensions></trkpt>
      <trkpt lon="-4.127070" lat="53.009788"><ele>290.381317</ele><time>2021-07-17T09:30:56Z</time><extensions><speed>0.151546</speed><course>223.313202</course><hAcc>0.884188</hAcc><vAcc>0.701191</vAcc></extensions></trkpt>
      <trkpt lon="-4.127069" lat="53.009787"><ele>290.443665</ele><time>2021-07-17T09:30:57Z</time><extensions><speed>0.177167</speed><course>224.045700</course><hAcc>0.883929</hAcc><vAcc>0.700243</vAcc></extensions></trkpt>
      <trkpt lon="-4.127068" lat="53.009785"><ele>290.512695</ele><time>2021-07-17T09:30:58Z</time><extensions><speed>0.202598</speed><course>224.975723</course><hAcc>0.883677</hAcc><vAcc>0.699305</vAcc></extensions></trkpt>
      <trkpt lon="-4.127067" lat="53.009783"><ele>290.588074</ele><time>2021-07-17T09:30:59Z</time><extensions><speed>0.227351</speed><course>226.513992</course><hAcc>0.883442</hAcc><vAcc>0.698433</vAcc></extensions></trkpt>
      <trkpt lon="-4.127066" lat="53.009781"><ele>290.669617</ele><time>2021-07-17T09:31:00Z</time><extensions><speed>0.251096</speed><course>227.291473</course><hAcc>0.883238</hAcc><vAcc>0.697683</vAcc></extensions></trkpt>
      <trkpt lon="-4.127065" lat="53.009779"><ele>290.757111</ele><time>2021-07-17T09:31:01Z</time><extensions><speed>0.273562</speed><course>231.833313</course><hAcc>0.883074</hAcc><vAcc>0.697097</vAcc></extensions></trkpt>
      <trkpt lon="-4.127064" lat="53.009776"><ele>290.850372</ele><time>2021-07-17T09:31:02Z</time><extensions><speed>0.294307</speed><course>230.421005</course><hAcc>0.882956</hAcc><vAcc>0.696699</vAcc></extensions></trkpt>
      <trkpt lon="-4.127063" lat="53.009774"><ele>290.949005</ele><time>2021-07-17T09:31:03Z</time><extensions><speed>0.312745</speed><course>235.980087</course><hAcc>0.882888</hAcc><vAcc>0.696495</vAcc></extensions></trkpt>
      <trkpt lon="-4.127062" lat="53.009771"><ele>291.052521</ele><time>2021-07-17T09:31:04Z</time><extensions><speed>0.328479</speed><course>243.213364</course><hAcc>0.882871</hAcc><vAcc>0.696477</vAcc></extensions></trkpt>
      <trkpt lon="-4.127061" lat="53.009768"><ele>291.160309</ele><time>2021-07-17T09:31:05Z</time><extensions><speed>0.341399</speed><course>253.165268</course><hAcc>0.882901</hAcc><vAcc>0.696625</vAcc></extensions></trkpt>
      <trkpt lon="-4.127060" lat="53.009765"><ele>291.271637</ele><time>2021-07-17T09:31:06Z</time><extensions><speed>0.351506</speed><course>266.505096</course><hAcc>0.882975</hAcc><vAcc>0.696918</vAcc></extensions></trkpt>
      <trkpt lon="-4.127058" lat="53.009762"><ele>291.385742</ele><time>2021-07-17T09:31:07Z</time><extensions><speed>0.358806</speed><course>267.255646</course><hAcc>0.883088</hAcc><vAcc>0.697332</vAcc></extensions></trkpt>
      <trkpt lon="-4.127057" lat="53.009759"><ele>291.501709</ele><time>2021-07-17T09:31:08Z</time><extensions><speed>0.363343</speed><course>271.176971</course><hAcc>0.883231</hAcc><vAcc>0.697845</vAcc></extensions></trkpt>
      <trkpt lon="-4.127056" lat="53.009756"><ele>291.618439</ele><time>2021-07-17T09:31:09Z</time><extensions><speed>0.365105</speed><course>283.145996</course><hAcc>0.883399</hAcc><vAcc>0.698430</vAcc></extensions></trkpt>
      <trkpt lon="-4.127054" lat="53.009752"><ele>291.734894</ele><time>2021-07-17T09:31:10Z</time><extensions><speed>0.363994</speed><course>291.499756</course><hAcc>0.883584</hAcc><vAcc>0.699064</vAcc></extensions></trkpt>
      <trkpt lon="-4.127053" lat="53.009749"><ele>291.850189</ele><time>2021-07-17T09:31:11Z</time><extensions><speed>0.360252</speed><course>295.960785</course><hAcc>0.883779</hAcc><vAcc>0.699727</vAcc></extensions></trkpt>
      <trkpt lon="-4.127052" lat="53.009746"><ele>291.963684</ele><time>2021-07-17T09:31:12Z</time><extensions><speed>0.354380</speed><course>298.309418</course><hAcc>0.883977</hAcc><vAcc>0.700395</vAcc></extensions></trkpt>
      <trkpt lon="-4.127051" lat="53.009743"><ele>292.075104</ele><time>2021-07-17T09:31:13Z</time><extensions><speed>0.346971</speed><course>301.442566</course><hAcc>0.884173</hAcc><vAcc>0.701042</vAcc></extensions></trkpt>
      <trkpt lon="-4.127050" lat="53.009740"><ele>292.184387</ele><time>2021-07-17T09:31:14Z</time><extensions><speed>0.339122</speed><course>301.820831</course><hAcc>0.884361</hAcc><vAcc>0.701651</vAcc></extensions></trkpt>
      <trkpt lon="-4.127050" lat="53.009737"><ele>292.291748</ele><time>2021-07-17T09:31:15Z</time><extensions><speed>0.332033</speed><course>306.533081</course><hAcc>0.884537</hAcc><vAcc>0.702212</vAcc></extensions></trkpt>
      <trkpt lon="-4.127050" lat="53.009734"><ele>292.397766</ele><time>2021-07-17T09:31:16Z</time><extensions><speed>0.326136</speed><course>310.759277</course><hAcc>0.884698</hAcc><vAcc>0.702718</vAcc></extensions></trkpt>
      <trkpt lon="-4.127050" lat="53.009731"><ele>292.503296</ele><time>2021-07-17T09:31:17Z</time><extensions><speed>0.321393</speed><course>315.721252</course><hAcc>0.884842</hAcc><vAcc>0.703161</vAcc></extensions></trkpt>
      <trkpt lon="-4.127050" lat="53.009728"><ele>292.608978</ele><time>2021-07-17T09:31:18Z</time><extensions><speed>0.317839</speed><course>321.376434</course><hAcc>0.884968</hAcc><vAcc>0.703530</vAcc></extensions></trkpt>
      <trkpt lon="-4.127051" lat="53.009725"><ele>292.715149</ele><time>2021-07-17T09:31:19Z</time><extensions><speed>0.315409</speed><course>321.893402</course><hAcc>0.885075</hAcc><vAcc>0.703823</vAcc></extensions></trkpt>
      <trkpt lon="-4.127051" lat="53.009723"><ele>292.822052</ele><time>2021-07-17T09:31:21Z</time><extensions><speed>0.313792</speed><course>325.867676</course><hAcc>0.885146</hAcc><vAcc>0.704031</vAcc></extensions></trkpt>
      <trkpt lon="-4.127052" lat="53.009720"><ele>292.929474</ele><time>2021-07-17T09:31:22Z</time><extensions><speed>0.312644</speed><course>319.975250</course><hAcc>0.885179</hAcc><vAcc>0.704161</vAcc></extensions></trkpt>
      <trkpt lon="-4.127052" lat="53.009717"><ele>293.037140</ele><time>2021-07-17T09:31:23Z</time><extensions><speed>0.311689</speed><course>320.826599</course><hAcc>0.885195</hAcc><vAcc>0.704238</vAcc></extensions></trkpt>
      <trkpt lon="-4.127053" lat="53.009714"><ele>293.144775</ele><time>2021-07-17T09:31:24Z</time><extensions><speed>0.310848</speed><course>320.826599</course><hAcc>0.885194</hAcc><vAcc>0.704265</vAcc></extensions></trkpt>
      <trkpt lon="-4.127053" lat="53.009711"><ele>293.252533</ele><time>2021-07-17T09:31:25Z</time><extensions><speed>0.310103</speed><course>320.826599</course><hAcc>0.885175</hAcc><vAcc>0.704238</vAcc></extensions></trkpt>
      <trkpt lon="-4.127053" lat="53.009709"><ele>293.360901</ele><time>2021-07-17T09:31:26Z</time><extensions><speed>0.309372</speed><course>320.826599</course><hAcc>0.885142</hAcc><vAcc>0.704151</vAcc></extensions></trkpt>
      <trkpt lon="-4.127053" lat="53.009706"><ele>293.470093</ele><time>2021-07-17T09:31:27Z</time><extensions><speed>0.308882</speed><course>320.826599</course><hAcc>0.885098</hAcc><vAcc>0.703999</vAcc></extensions></trkpt>
      <trkpt lon="-4.127053" lat="53.009703"><ele>293.580444</ele><time>2021-07-17T09:31:28Z</time><extensions><speed>0.309211</speed><course>320.826599</course><hAcc>0.885049</hAcc><vAcc>0.703793</vAcc></extensions></trkpt>
      <trkpt lon="-4.127053" lat="53.009700"><ele>293.692139</ele><time>2021-07-17T09:31:29Z</time><extensions><speed>0.310955</speed><course>320.826599</course><hAcc>0.884999</hAcc><vAcc>0.703557</vAcc></extensions></trkpt>
      <trkpt lon="-4.127053" lat="53.009697"><ele>293.805298</ele><time>2021-07-17T09:31:30Z</time><extensions><speed>0.314480</speed><course>320.826599</course><hAcc>0.884958</hAcc><vAcc>0.703328</vAcc></extensions></trkpt>
      <trkpt lon="-4.127052" lat="53.009695"><ele>293.920074</ele><time>2021-07-17T09:31:31Z</time><extensions><speed>0.319839</speed><course>320.826599</course><hAcc>0.884932</hAcc><vAcc>0.703144</vAcc></extensions></trkpt>
      <trkpt lon="-4.127051" lat="53.009692"><ele>294.036530</ele><time>2021-07-17T09:31:32Z</time><extensions><speed>0.326568</speed><course>320.826599</course><hAcc>0.884930</hAcc><vAcc>0.703047</vAcc></extensions></trkpt>
      <trkpt lon="-4.127050" lat="53.009689"><ele>294.154724</ele><time>2021-07-17T09:31:33Z</time><extensions><speed>0.333762</speed><course>320.826599</course><hAcc>0.884960</hAcc><vAcc>0.703071</vAcc></extensions></trkpt>
      <trkpt lon="-4.127049" lat="53.009686"><ele>294.274628</ele><time>2021-07-17T09:31:34Z</time><extensions><speed>0.340521</speed><course>320.826599</course><hAcc>0.885027</hAcc><vAcc>0.703245</vAcc></extensions></trkpt>
      <trkpt lon="-4.127048" lat="53.009683"><ele>294.396057</ele><time>2021-07-17T09:31:35Z</time><extensions><speed>0.346330</speed><course>320.826599</course><hAcc>0.885134</hAcc><vAcc>0.703581</vAcc></extensions></trkpt>
      <trkpt lon="-4.127048" lat="53.009680"><ele>294.519165</ele><time>2021-07-17T09:31:36Z</time><extensions><speed>0.351297</speed><course>320.826599</course><hAcc>0.885281</hAcc><vAcc>0.704072</vAcc></extensions></trkpt>
      <trkpt lon="-4.127047" lat="53.009677"><ele>294.644135</ele><time>2021-07-17T09:31:37Z</time><extensions><speed>0.355982</speed><course>320.826599</course><hAcc>0.885467</hAcc><vAcc>0.704706</vAcc></extensions></trkpt>
      <trkpt lon="-4.127047" lat="53.009673"><ele>294.771301</ele><time>2021-07-17T09:31:38Z</time><extensions><speed>0.361321</speed><course>320.826599</course><hAcc>0.885687</hAcc><vAcc>0.705467</vAcc></extensions></trkpt>
      <trkpt lon="-4.127047" lat="53.009670"><ele>294.900940</ele><time>2021-07-17T09:31:39Z</time><extensions><speed>0.367988</speed><course>320.826599</course><hAcc>0.885934</hAcc><vAcc>0.706335</vAcc></extensions></trkpt>
      <trkpt lon="-4.127048" lat="53.009667"><ele>295.033325</ele><time>2021-07-17T09:31:40Z</time><extensions><speed>0.375573</speed><course>320.826599</course><hAcc>0.886199</hAcc><vAcc>0.707282</vAcc></extensions></trkpt>
      <trkpt lon="-4.127050" lat="53.009664"><ele>295.168518</ele><time>2021-07-17T09:31:41Z</time><extensions><speed>0.383044</speed><course>320.826599</course><hAcc>0.886472</hAcc><vAcc>0.708267</vAcc></extensions></trkpt>
      <trkpt lon="-4.127051" lat="53.009660"><ele>295.306366</ele><time>2021-07-17T09:31:42Z</time><extensions><speed>0.389598</speed><course>320.826599</course><hAcc>0.886741</hAcc><vAcc>0.709241</vAcc></extensions></trkpt>
      <trkpt lon="-4.127054" lat="53.009657"><ele>295.446777</ele><time>2021-07-17T09:31:43Z</time><extensions><speed>0.394776</speed><course>320.826599</course><hAcc>0.886994</hAcc><vAcc>0.710158</vAcc></extensions></trkpt>
      <trkpt lon="-4.127056" lat="53.009654"><ele>295.589508</ele><time>2021-07-17T09:31:44Z</time><extensions><speed>0.398195</speed><course>320.826569</course><hAcc>0.887219</hAcc><vAcc>0.710976</vAcc></extensions></trkpt>
      <trkpt lon="-4.127059" lat="53.009651"><ele>295.734314</ele><time>2021-07-17T09:31:45Z</time><extensions><speed>0.399305</speed><course>320.826569</course><hAcc>0.887408</hAcc><vAcc>0.711659</vAcc></extensions></trkpt>
      <trkpt lon="-4.127062" lat="53.009648"><ele>295.880859</ele><time>2021-07-17T09:31:46Z</time><extensions><speed>0.397523</speed><course>320.826569</course><hAcc>0.887549</hAcc><vAcc>0.712179</vAcc></extensions></trkpt>
      <trkpt lon="-4.127065" lat="53.009644"><ele>296.028534</ele><time>2021-07-17T09:31:47Z</time><extensions><speed>0.392721</speed><course>320.826569</course><hAcc>0.887638</hAcc><vAcc>0.712515</vAcc></extensions></trkpt>
      <trkpt lon="-4.127068" lat="53.009642"><ele>296.176666</ele><time>2021-07-17T09:31:48Z</time><extensions><speed>0.385188</speed><course>306.179871</course><hAcc>0.887669</hAcc><vAcc>0.712653</vAcc></extensions></trkpt>
      <trkpt lon="-4.127071" lat="53.009639"><ele>296.324524</ele><time>2021-07-17T09:31:49Z</time><extensions><speed>0.375216</speed><course>252.340622</course><hAcc>0.887641</hAcc><vAcc>0.712583</vAcc></extensions></trkpt>
      <trkpt lon="-4.127074" lat="53.009636"><ele>296.471466</ele><time>2021-07-17T09:31:50Z</time><extensions><speed>0.363046</speed><course>240.417450</course><hAcc>0.887559</hAcc><vAcc>0.712305</vAcc></extensions></trkpt>
      <trkpt lon="-4.127077" lat="53.009633"><ele>296.617004</ele><time>2021-07-17T09:31:51Z</time><extensions><speed>0.348954</speed><course>226.735764</course><hAcc>0.887429</hAcc><vAcc>0.711827</vAcc></extensions></trkpt>
      <trkpt lon="-4.127080" lat="53.009631"><ele>296.760742</ele><time>2021-07-17T09:31:52Z</time><extensions><speed>0.333254</speed><course>213.254318</course><hAcc>0.887260</hAcc><vAcc>0.711173</vAcc></extensions></trkpt>
      <trkpt lon="-4.127082" lat="53.009628"><ele>296.902588</ele><time>2021-07-17T09:31:53Z</time><extensions><speed>0.316671</speed><course>209.983795</course><hAcc>0.887065</hAcc><vAcc>0.710383</vAcc></extensions></trkpt>
      <trkpt lon="-4.127084" lat="53.009625"><ele>297.042450</ele><time>2021-07-17T09:31:54Z</time><extensions><speed>0.300430</speed><course>212.464371</course><hAcc>0.886860</hAcc><vAcc>0.709520</vAcc></extensions></trkpt>
      <trkpt lon="-4.127085" lat="53.009623"><ele>297.180298</ele><time>2021-07-17T09:31:55Z</time><extensions><speed>0.285820</speed><course>212.464355</course><hAcc>0.886661</hAcc><vAcc>0.708658</vAcc></extensions></trkpt>
      <trkpt lon="-4.127086" lat="53.009621"><ele>297.315918</ele><time>2021-07-17T09:31:56Z</time><extensions><speed>0.273472</speed><course>212.464355</course><hAcc>0.886483</hAcc><vAcc>0.707877</vAcc></extensions></trkpt>
      <trkpt lon="-4.127087" lat="53.009618"><ele>297.449097</ele><time>2021-07-17T09:31:57Z</time><extensions><speed>0.263123</speed><course>212.464340</course><hAcc>0.886340</hAcc><vAcc>0.707255</vAcc></extensions></trkpt>
      <trkpt lon="-4.127088" lat="53.009616"><ele>297.579559</ele><time>2021-07-17T09:31:58Z</time><extensions><speed>0.254171</speed><course>212.464325</course><hAcc>0.886244</hAcc><vAcc>0.706852</vAcc></extensions></trkpt>
      <trkpt lon="-4.127089" lat="53.009614"><ele>297.707001</ele><time>2021-07-17T09:31:59Z</time><extensions><speed>0.245956</speed><course>212.464325</course><hAcc>0.886202</hAcc><vAcc>0.706709</vAcc></extensions></trkpt>
      <trkpt lon="-4.127090" lat="53.009612"><ele>297.831024</ele><time>2021-07-17T09:32:00Z</time><extensions><speed>0.238262</speed><course>212.464325</course><hAcc>0.886216</hAcc><vAcc>0.706837</vAcc></extensions></trkpt>
      <trkpt lon="-4.127091" lat="53.009610"><ele>297.951202</ele><time>2021-07-17T09:32:01Z</time><extensions><speed>0.231551</speed><course>212.464310</course><hAcc>0.886283</hAcc><vAcc>0.707213</vAcc></extensions></trkpt>
      <trkpt lon="-4.127092" lat="53.009608"><ele>298.067383</ele><time>2021-07-17T09:32:02Z</time><extensions><speed>0.226653</speed><course>305.064514</course><hAcc>0.886397</hAcc><vAcc>0.707779</vAcc></extensions></trkpt>
      <trkpt lon="-4.127093" lat="53.009606"><ele>298.179901</ele><time>2021-07-17T09:32:03Z</time><extensions><speed>0.224509</speed><course>295.507660</course><hAcc>0.886548</hAcc><vAcc>0.708459</vAcc></extensions></trkpt>
      <trkpt lon="-4.127095" lat="53.009604"><ele>298.289490</ele><time>2021-07-17T09:32:04Z</time><extensions><speed>0.225749</speed><course>292.618195</course><hAcc>0.886725</hAcc><vAcc>0.709175</vAcc></extensions></trkpt>
      <trkpt lon="-4.127097" lat="53.009602"><ele>298.397156</ele><time>2021-07-17T09:32:05Z</time><extensions><speed>0.230657</speed><course>285.374146</course><hAcc>0.886916</hAcc><vAcc>0.709868</vAcc></extensions></trkpt>
      <trkpt lon="-4.127099" lat="53.009601"><ele>298.503754</ele><time>2021-07-17T09:32:06Z</time><extensions><speed>0.239251</speed><course>282.990997</course><hAcc>0.887112</hAcc><vAcc>0.710506</vAcc></extensions></trkpt>
      <trkpt lon="-4.127102" lat="53.009599"><ele>298.610229</ele><time>2021-07-17T09:32:07Z</time><extensions><speed>0.251400</speed><course>269.408752</course><hAcc>0.887304</hAcc><vAcc>0.711080</vAcc></extensions></trkpt>
      <trkpt lon="-4.127105" lat="53.009598"><ele>298.717560</ele><time>2021-07-17T09:32:08Z</time><extensions><speed>0.266854</speed><course>268.581787</course><hAcc>0.887488</hAcc><vAcc>0.711599</vAcc></extensions></trkpt>
      <trkpt lon="-4.127108" lat="53.009596"><ele>298.826569</ele><time>2021-07-17T09:32:09Z</time><extensions><speed>0.285210</speed><course>262.171875</course><hAcc>0.887659</hAcc><vAcc>0.712078</vAcc></extensions></trkpt>
      <trkpt lon="-4.127112" lat="53.009595"><ele>298.937836</ele><time>2021-07-17T09:32:10Z</time><extensions><speed>0.305714</speed><course>261.539520</course><hAcc>0.887815</hAcc><vAcc>0.712527</vAcc></extensions></trkpt>
      <trkpt lon="-4.127116" lat="53.009593"><ele>299.052063</ele><time>2021-07-17T09:32:11Z</time><extensions><speed>0.327231</speed><course>255.803879</course><hAcc>0.887957</hAcc><vAcc>0.712947</vAcc></extensions></trkpt>
      <trkpt lon="-4.127120" lat="53.009592"><ele>299.170074</ele><time>2021-07-17T09:32:12Z</time><extensions><speed>0.348461</speed><course>247.733398</course><hAcc>0.888085</hAcc><vAcc>0.713338</vAcc></extensions></trkpt>
      <trkpt lon="-4.127125" lat="53.009590"><ele>299.292786</ele><time>2021-07-17T09:32:13Z</time><extensions><speed>0.367943</speed><course>231.932861</course><hAcc>0.888200</hAcc><vAcc>0.713697</vAcc></extensions></trkpt>
      <trkpt lon="-4.127129" lat="53.009588"><ele>299.420837</ele><time>2021-07-17T09:32:14Z</time><extensions><speed>0.384468</speed><course>232.043365</course><hAcc>0.888300</hAcc><vAcc>0.714024</vAcc></extensions></trkpt>
      <trkpt lon="-4.127134" lat="53.009586"><ele>299.554718</ele><time>2021-07-17T09:32:15Z</time><extensions><speed>0.397294</speed><course>225.182800</course><hAcc>0.888387</hAcc><vAcc>0.714316</vAcc></extensions></trkpt>
      <trkpt lon="-4.127139" lat="53.009584"><ele>299.694672</ele><time>2021-07-17T09:32:16Z</time><extensions><speed>0.406116</speed><course>222.937302</course><hAcc>0.888457</hAcc><vAcc>0.714564</vAcc></extensions></trkpt>
      <trkpt lon="-4.127144" lat="53.009582"><ele>299.840881</ele><time>2021-07-17T09:32:17Z</time><extensions><speed>0.410979</speed><course>226.615036</course><hAcc>0.888511</hAcc><vAcc>0.714761</vAcc></extensions></trkpt>
      <trkpt lon="-4.127148" lat="53.009580"><ele>299.993317</ele><time>2021-07-17T09:32:18Z</time><extensions><speed>0.412329</speed><course>227.377960</course><hAcc>0.888544</hAcc><vAcc>0.714896</vAcc></extensions></trkpt>
      <trkpt lon="-4.127153" lat="53.009577"><ele>300.151733</ele><time>2021-07-17T09:32:19Z</time><extensions><speed>0.411176</speed><course>225.027542</course><hAcc>0.888555</hAcc><vAcc>0.714960</vAcc></extensions></trkpt>
      <trkpt lon="-4.127156" lat="53.009574"><ele>300.315491</ele><time>2021-07-17T09:32:20Z</time><extensions><speed>0.408543</speed><course>217.523773</course><hAcc>0.888541</hAcc><vAcc>0.714946</vAcc></extensions></trkpt>
      <trkpt lon="-4.127160" lat="53.009571"><ele>300.483643</ele><time>2021-07-17T09:32:21Z</time><extensions><speed>0.405059</speed><course>217.503448</course><hAcc>0.888500</hAcc><vAcc>0.714845</vAcc></extensions></trkpt>
      <trkpt lon="-4.127162" lat="53.009568"><ele>300.654938</ele><time>2021-07-17T09:32:22Z</time><extensions><speed>0.401505</speed><course>222.947372</course><hAcc>0.888429</hAcc><vAcc>0.714644</vAcc></extensions></trkpt>
      <trkpt lon="-4.127164" lat="53.009564"><ele>300.828125</ele><time>2021-07-17T09:32:23Z</time><extensions><speed>0.399207</speed><course>228.737518</course><hAcc>0.888330</hAcc><vAcc>0.714333</vAcc></extensions></trkpt>
      <trkpt lon="-4.127165" lat="53.009561"><ele>301.001892</ele><time>2021-07-17T09:32:24Z</time><extensions><speed>0.399707</speed><course>234.887939</course><hAcc>0.888203</hAcc><vAcc>0.713908</vAcc></extensions></trkpt>
      <trkpt lon="-4.127166" lat="53.009557"><ele>301.175293</ele><time>2021-07-17T09:32:25Z</time><extensions><speed>0.404513</speed><course>232.671463</course><hAcc>0.888032</hAcc><vAcc>0.713355</vAcc></extensions></trkpt>
      <trkpt lon="-4.127166" lat="53.009553"><ele>301.346710</ele><time>2021-07-17T09:32:26Z</time><extensions><speed>0.414364</speed><course>228.680756</course><hAcc>0.887821</hAcc><vAcc>0.712681</vAcc></extensions></trkpt>
      <trkpt lon="-4.127165" lat="53.009550"><ele>301.515198</ele><time>2021-07-17T09:32:27Z</time><extensions><speed>0.428579</speed><course>228.367065</course><hAcc>0.887593</hAcc><vAcc>0.711914</vAcc></extensions></trkpt>
      <trkpt lon="-4.127163" lat="53.009546"><ele>301.679840</ele><time>2021-07-17T09:32:28Z</time><extensions><speed>0.445214</speed><course>227.760208</course><hAcc>0.887353</hAcc><vAcc>0.711081</vAcc></extensions></trkpt>
      <trkpt lon="-4.127161" lat="53.009542"><ele>301.839844</ele><time>2021-07-17T09:32:29Z</time><extensions><speed>0.461280</speed><course>230.377014</course><hAcc>0.887110</hAcc><vAcc>0.710217</vAcc></extensions></trkpt>
      <trkpt lon="-4.127158" lat="53.009538"><ele>301.994568</ele><time>2021-07-17T09:32:30Z</time><extensions><speed>0.473846</speed><course>236.559235</course><hAcc>0.886870</hAcc><vAcc>0.709358</vAcc></extensions></trkpt>
      <trkpt lon="-4.127154" lat="53.009535"><ele>302.143463</ele><time>2021-07-17T09:32:31Z</time><extensions><speed>0.480956</speed><course>232.877869</course><hAcc>0.886644</hAcc><vAcc>0.708542</vAcc></extensions></trkpt>
      <trkpt lon="-4.127151" lat="53.009531"><ele>302.286469</ele><time>2021-07-17T09:32:32Z</time><extensions><speed>0.481443</speed><course>233.901962</course><hAcc>0.886439</hAcc><vAcc>0.707800</vAcc></extensions></trkpt>
      <trkpt lon="-4.127147" lat="53.009527"><ele>302.423676</ele><time>2021-07-17T09:32:33Z</time><extensions><speed>0.474936</speed><course>234.840546</course><hAcc>0.886265</hAcc><vAcc>0.707165</vAcc></extensions></trkpt>
      <trkpt lon="-4.127143" lat="53.009524"><ele>302.555420</ele><time>2021-07-17T09:32:34Z</time><extensions><speed>0.461640</speed><course>231.563858</course><hAcc>0.886127</hAcc><vAcc>0.706665</vAcc></extensions></trkpt>
      <trkpt lon="-4.127140" lat="53.009520"><ele>302.682220</ele><time>2021-07-17T09:32:35Z</time><extensions><speed>0.442485</speed><course>226.163422</course><hAcc>0.886030</hAcc><vAcc>0.706326</vAcc></extensions></trkpt>
      <trkpt lon="-4.127137" lat="53.009517"><ele>302.804626</ele><time>2021-07-17T09:32:36Z</time><extensions><speed>0.419451</speed><course>224.694687</course><hAcc>0.885975</hAcc><vAcc>0.706165</vAcc></extensions></trkpt>
      <trkpt lon="-4.127134" lat="53.009513"><ele>302.923279</ele><time>2021-07-17T09:32:37Z</time><extensions><speed>0.395211</speed><course>227.400024</course><hAcc>0.885963</hAcc><vAcc>0.706186</vAcc></extensions></trkpt>
      <trkpt lon="-4.127132" lat="53.009510"><ele>303.038940</ele><time>2021-07-17T09:32:38Z</time><extensions><speed>0.372548</speed><course>225.215622</course><hAcc>0.885989</hAcc><vAcc>0.706380</vAcc></extensions></trkpt>
      <trkpt lon="-4.127131" lat="53.009507"><ele>303.152435</ele><time>2021-07-17T09:32:39Z</time><extensions><speed>0.353644</speed><course>227.979385</course><hAcc>0.886048</hAcc><vAcc>0.706717</vAcc></extensions></trkpt>
      <trkpt lon="-4.127130" lat="53.009504"><ele>303.264587</ele><time>2021-07-17T09:32:40Z</time><extensions><speed>0.339535</speed><course>238.133682</course><hAcc>0.886131</hAcc><vAcc>0.707147</vAcc></extensions></trkpt>
      <trkpt lon="-4.127129" lat="53.009501"><ele>303.376068</ele><time>2021-07-17T09:32:41Z</time><extensions><speed>0.330183</speed><course>235.678314</course><hAcc>0.886231</hAcc><vAcc>0.707613</vAcc></extensions></trkpt>
      <trkpt lon="-4.127129" lat="53.009498"><ele>303.487579</ele><time>2021-07-17T09:32:42Z</time><extensions><speed>0.324649</speed><course>238.960709</course><hAcc>0.886340</hAcc><vAcc>0.708063</vAcc></extensions></trkpt>
      <trkpt lon="-4.127129" lat="53.009495"><ele>303.599518</ele><time>2021-07-17T09:32:43Z</time><extensions><speed>0.321671</speed><course>237.793289</course><hAcc>0.886453</hAcc><vAcc>0.708465</vAcc></extensions></trkpt>
      <trkpt lon="-4.127129" lat="53.009492"><ele>303.712067</ele><time>2021-07-17T09:32:44Z</time><extensions><speed>0.320210</speed><course>238.209671</course><hAcc>0.886564</hAcc><vAcc>0.708806</vAcc></extensions></trkpt>
      <trkpt lon="-4.127130" lat="53.009489"><ele>303.825073</ele><time>2021-07-17T09:32:45Z</time><extensions><speed>0.319722</speed><course>239.435074</course><hAcc>0.886670</hAcc><vAcc>0.709097</vAcc></extensions></trkpt>
      <trkpt lon="-4.127131" lat="53.009486"><ele>303.938416</ele><time>2021-07-17T09:32:46Z</time><extensions><speed>0.320078</speed><course>238.666733</course><hAcc>0.886770</hAcc><vAcc>0.709366</vAcc></extensions></trkpt>
      <trkpt lon="-4.127131" lat="53.009484"><ele>304.051727</ele><time>2021-07-17T09:32:46Z</time><extensions><speed>0.321569</speed><course>234.077820</course><hAcc>0.886897</hAcc><vAcc>0.709678</vAcc></extensions></trkpt>
      <trkpt lon="-4.127133" lat="53.009481"><ele>304.165619</ele><time>2021-07-17T09:32:47Z</time><extensions><speed>0.324678</speed><course>227.293335</course><hAcc>0.887055</hAcc><vAcc>0.710064</vAcc></extensions></trkpt>
      <trkpt lon="-4.127134" lat="53.009478"><ele>304.280090</ele><time>2021-07-17T09:32:48Z</time><extensions><speed>0.329434</speed><course>230.072769</course><hAcc>0.887205</hAcc><vAcc>0.710515</vAcc></extensions></trkpt>
      <trkpt lon="-4.127136" lat="53.009475"><ele>304.395416</ele><time>2021-07-17T09:32:49Z</time><extensions><speed>0.335078</speed><course>228.397232</course><hAcc>0.887348</hAcc><vAcc>0.711021</vAcc></extensions></trkpt>
      <trkpt lon="-4.127138" lat="53.009472"><ele>304.511444</ele><time>2021-07-17T09:32:50Z</time><extensions><speed>0.340316</speed><course>230.234772</course><hAcc>0.887483</hAcc><vAcc>0.711553</vAcc></extensions></trkpt>
      <trkpt lon="-4.127140" lat="53.009470"><ele>304.627838</ele><time>2021-07-17T09:32:51Z</time><extensions><speed>0.343970</speed><course>226.599274</course><hAcc>0.887609</hAcc><vAcc>0.712067</vAcc></extensions></trkpt>
      <trkpt lon="-4.127142" lat="53.009467"><ele>304.744202</ele><time>2021-07-17T09:32:52Z</time><extensions><speed>0.344993</speed><course>226.515137</course><hAcc>0.887722</hAcc><vAcc>0.712518</vAcc></extensions></trkpt>
      <trkpt lon="-4.127145" lat="53.009464"><ele>304.860352</ele><time>2021-07-17T09:32:53Z</time><extensions><speed>0.342758</speed><course>226.136917</course><hAcc>0.887820</hAcc><vAcc>0.712873</vAcc></extensions></trkpt>
      <trkpt lon="-4.127147" lat="53.009462"><ele>304.975983</ele><time>2021-07-17T09:32:54Z</time><extensions><speed>0.337229</speed><course>230.381958</course><hAcc>0.887902</hAcc><vAcc>0.713115</vAcc></extensions></trkpt>
      <trkpt lon="-4.127150" lat="53.009459"><ele>305.090668</ele><time>2021-07-17T09:32:55Z</time><extensions><speed>0.328986</speed><course>226.727509</course><hAcc>0.887967</hAcc><vAcc>0.713247</vAcc></extensions></trkpt>
      <trkpt lon="-4.127152" lat="53.009457"><ele>305.203949</ele><time>2021-07-17T09:32:56Z</time><extensions><speed>0.319178</speed><course>230.180862</course><hAcc>0.888016</hAcc><vAcc>0.713289</vAcc></extensions></trkpt>
      <trkpt lon="-4.127155" lat="53.009454"><ele>305.315369</ele><time>2021-07-17T09:32:57Z</time><extensions><speed>0.308742</speed><course>225.214905</course><hAcc>0.888052</hAcc><vAcc>0.713270</vAcc></extensions></trkpt>
      <trkpt lon="-4.127157" lat="53.009452"><ele>305.424530</ele><time>2021-07-17T09:32:58Z</time><extensions><speed>0.298473</speed><course>228.288971</course><hAcc>0.888076</hAcc><vAcc>0.713228</vAcc></extensions></trkpt>
      <trkpt lon="-4.127159" lat="53.009449"><ele>305.531036</ele><time>2021-07-17T09:32:59Z</time><extensions><speed>0.289214</speed><course>234.392639</course><hAcc>0.888092</hAcc><vAcc>0.713198</vAcc></extensions></trkpt>
      <trkpt lon="-4.127161" lat="53.009447"><ele>305.634521</ele><time>2021-07-17T09:33:00Z</time><extensions><speed>0.281348</speed><course>233.208801</course><hAcc>0.888101</hAcc><vAcc>0.713202</vAcc></extensions></trkpt>
      <trkpt lon="-4.127164" lat="53.009445"><ele>305.734772</ele><time>2021-07-17T09:33:01Z</time><extensions><speed>0.274839</speed><course>238.158752</course><hAcc>0.888103</hAcc><vAcc>0.713242</vAcc></extensions></trkpt>
      <trkpt lon="-4.127166" lat="53.009443"><ele>305.831573</ele><time>2021-07-17T09:33:02Z</time><extensions><speed>0.269290</speed><course>239.142517</course><hAcc>0.888098</hAcc><vAcc>0.713303</vAcc></extensions></trkpt>
      <trkpt lon="-4.127168" lat="53.009441"><ele>305.924561</ele><time>2021-07-17T09:33:03Z</time><extensions><speed>0.264069</speed><course>241.003922</course><hAcc>0.888083</hAcc><vAcc>0.713358</vAcc></extensions></trkpt>
      <trkpt lon="-4.127170" lat="53.009439"><ele>306.013153</ele><time>2021-07-17T09:33:04Z</time><extensions><speed>0.258670</speed><course>244.474228</course><hAcc>0.888054</hAcc><vAcc>0.713378</vAcc></extensions></trkpt>
      <trkpt lon="-4.127172" lat="53.009437"><ele>306.096924</ele><time>2021-07-17T09:33:05Z</time><extensions><speed>0.252942</speed><course>238.879150</course><hAcc>0.888010</hAcc><vAcc>0.713336</vAcc></extensions></trkpt>
      <trkpt lon="-4.127175" lat="53.009435"><ele>306.175598</ele><time>2021-07-17T09:33:06Z</time><extensions><speed>0.247008</speed><course>237.538528</course><hAcc>0.887945</hAcc><vAcc>0.713209</vAcc></extensions></trkpt>
      <trkpt lon="-4.127177" lat="53.009434"><ele>306.249390</ele><time>2021-07-17T09:33:07Z</time><extensions><speed>0.240839</speed><course>249.037552</course><hAcc>0.887859</hAcc><vAcc>0.712978</vAcc></extensions></trkpt>
      <trkpt lon="-4.127179" lat="53.009432"><ele>306.318848</ele><time>2021-07-17T09:33:08Z</time><extensions><speed>0.234077</speed><course>259.361603</course><hAcc>0.887752</hAcc><vAcc>0.712634</vAcc></extensions></trkpt>
      <trkpt lon="-4.127181" lat="53.009430"><ele>306.384705</ele><time>2021-07-17T09:33:09Z</time><extensions><speed>0.226451</speed><course>261.193176</course><hAcc>0.887627</hAcc><vAcc>0.712178</vAcc></extensions></trkpt>
      <trkpt lon="-4.127183" lat="53.009429"><ele>306.447632</ele><time>2021-07-17T09:33:10Z</time><extensions><speed>0.218197</speed><course>261.193146</course><hAcc>0.887488</hAcc><vAcc>0.711628</vAcc></extensions></trkpt>
      <trkpt lon="-4.127185" lat="53.009427"><ele>306.508301</ele><time>2021-07-17T09:33:11Z</time><extensions><speed>0.209992</speed><course>261.193146</course><hAcc>0.887342</hAcc><vAcc>0.711019</vAcc></extensions></trkpt>
      <trkpt lon="-4.127186" lat="53.009426"><ele>306.567261</ele><time>2021-07-17T09:33:12Z</time><extensions><speed>0.202549</speed><course>261.193146</course><hAcc>0.887197</hAcc><vAcc>0.710401</vAcc></extensions></trkpt>
      <trkpt lon="-4.127188" lat="53.009424"><ele>306.624969</ele><time>2021-07-17T09:33:13Z</time><extensions><speed>0.195870</speed><course>261.193146</course><hAcc>0.887059</hAcc><vAcc>0.709827</vAcc></extensions></trkpt>
      <trkpt lon="-4.127189" lat="53.009423"><ele>306.681702</ele><time>2021-07-17T09:33:14Z</time><extensions><speed>0.189281</speed><course>261.193146</course><hAcc>0.886936</hAcc><vAcc>0.709344</vAcc></extensions></trkpt>
      <trkpt lon="-4.127190" lat="53.009421"><ele>306.737549</ele><time>2021-07-17T09:33:15Z</time><extensions><speed>0.182048</speed><course>261.193146</course><hAcc>0.886834</hAcc><vAcc>0.708978</vAcc></extensions></trkpt>
      <trkpt lon="-4.127191" lat="53.009420"><ele>306.792542</ele><time>2021-07-17T09:33:16Z</time><extensions><speed>0.173831</speed><course>261.193146</course><hAcc>0.886756</hAcc><vAcc>0.708738</vAcc></extensions></trkpt>
      <trkpt lon="-4.127192" lat="53.009418"><ele>306.846649</ele><time>2021-07-17T09:33:17Z</time><extensions><speed>0.164833</speed><course>261.193146</course><hAcc>0.886705</hAcc><vAcc>0.708617</vAcc></extensions></trkpt>
      <trkpt lon="-4.127193" lat="53.009417"><ele>306.899780</ele><time>2021-07-17T09:33:18Z</time><extensions><speed>0.155395</speed><course>234.852402</course><hAcc>0.886681</hAcc><vAcc>0.708598</vAcc></extensions></trkpt>
      <trkpt lon="-4.127194" lat="53.009416"><ele>306.951843</ele><time>2021-07-17T09:33:19Z</time><extensions><speed>0.145513</speed><course>215.025620</course><hAcc>0.886682</hAcc><vAcc>0.708656</vAcc></extensions></trkpt>
      <trkpt lon="-4.127195" lat="53.009414"><ele>307.002777</ele><time>2021-07-17T09:33:20Z</time><extensions><speed>0.135089</speed><course>206.872131</course><hAcc>0.886706</hAcc><vAcc>0.708769</vAcc></extensions></trkpt>
      <trkpt lon="-4.127195" lat="53.009413"><ele>307.052521</ele><time>2021-07-17T09:33:21Z</time><extensions><speed>0.124221</speed><course>205.862991</course><hAcc>0.886750</hAcc><vAcc>0.708917</vAcc></extensions></trkpt>
      <trkpt lon="-4.127196" lat="53.009412"><ele>307.100830</ele><time>2021-07-17T09:33:22Z</time><extensions><speed>0.113150</speed><course>205.862976</course><hAcc>0.886811</hAcc><vAcc>0.709096</vAcc></extensions></trkpt>
      <trkpt lon="-4.127196" lat="53.009411"><ele>307.147430</ele><time>2021-07-17T09:33:23Z</time><extensions><speed>0.102120</speed><course>234.677673</course><hAcc>0.886886</hAcc><vAcc>0.709303</vAcc></extensions></trkpt>
      <trkpt lon="-4.127197" lat="53.009410"><ele>307.191925</ele><time>2021-07-17T09:33:25Z</time><extensions><speed>0.091252</speed><course>246.321655</course><hAcc>0.886953</hAcc><vAcc>0.709524</vAcc></extensions></trkpt>
      <trkpt lon="-4.127197" lat="53.009410"><ele>307.233917</ele><time>2021-07-17T09:33:26Z</time><extensions><speed>0.080816</speed><course>256.732239</course><hAcc>0.887009</hAcc><vAcc>0.709756</vAcc></extensions></trkpt>
      <trkpt lon="-4.127197" lat="53.009409"><ele>307.273132</ele><time>2021-07-17T09:33:27Z</time><extensions><speed>0.070982</speed><course>257.461731</course><hAcc>0.887069</hAcc><vAcc>0.710001</vAcc></extensions></trkpt>
      <trkpt lon="-4.127198" lat="53.009408"><ele>307.309387</ele><time>2021-07-17T09:33:28Z</time><extensions><speed>0.061722</speed><course>256.219269</course><hAcc>0.887129</hAcc><vAcc>0.710248</vAcc></extensions></trkpt>
      <trkpt lon="-4.127198" lat="53.009408"><ele>307.342621</ele><time>2021-07-17T09:33:29Z</time><extensions><speed>0.052923</speed><course>253.669510</course><hAcc>0.887185</hAcc><vAcc>0.710479</vAcc></extensions></trkpt>
      <trkpt lon="-4.127198" lat="53.009408"><ele>307.372894</ele><time>2021-07-17T09:33:30Z</time><extensions><speed>0.044695</speed><course>253.907227</course><hAcc>0.887235</hAcc><vAcc>0.710682</vAcc></extensions></trkpt>
      <trkpt lon="-4.127198" lat="53.009407"><ele>307.400391</ele><time>2021-07-17T09:33:31Z</time><extensions><speed>0.037102</speed><course>260.189209</course><hAcc>0.887277</hAcc><vAcc>0.710844</vAcc></extensions></trkpt>
      <trkpt lon="-4.127198" lat="53.009407"><ele>307.425262</ele><time>2021-07-17T09:33:32Z</time><extensions><speed>0.030102</speed><course>263.253174</course><hAcc>0.887311</hAcc><vAcc>0.710960</vAcc></extensions></trkpt>
      <trkpt lon="-4.127198" lat="53.009407"><ele>307.447754</ele><time>2021-07-17T09:33:33Z</time><extensions><speed>0.024150</speed><course>264.349060</course><hAcc>0.887335</hAcc><vAcc>0.711028</vAcc></extensions></trkpt>
      <trkpt lon="-4.127198" lat="53.009407"><ele>307.468170</ele><time>2021-07-17T09:33:34Z</time><extensions><speed>0.020678</speed><course>258.002991</course><hAcc>0.887352</hAcc><vAcc>0.711053</vAcc></extensions></trkpt>
      <trkpt lon="-4.127198" lat="53.009406"><ele>307.486786</ele><time>2021-07-17T09:33:35Z</time><extensions><speed>0.021852</speed><course>264.832825</course><hAcc>0.887363</hAcc><vAcc>0.711045</vAcc></extensions></trkpt>
      <trkpt lon="-4.127198" lat="53.009406"><ele>307.503784</ele><time>2021-07-17T09:33:36Z</time><extensions><speed>0.028041</speed><course>262.654938</course><hAcc>0.887369</hAcc><vAcc>0.711019</vAcc></extensions></trkpt>
      <trkpt lon="-4.127197" lat="53.009406"><ele>307.519257</ele><time>2021-07-17T09:33:37Z</time><extensions><speed>0.037148</speed><course>262.654938</course><hAcc>0.887375</hAcc><vAcc>0.710992</vAcc></extensions></trkpt>
      <trkpt lon="-4.127197" lat="53.009406"><ele>307.533234</ele><time>2021-07-17T09:33:38Z</time><extensions><speed>0.047004</speed><course>262.654938</course><hAcc>0.887382</hAcc><vAcc>0.710975</vAcc></extensions></trkpt>
      <trkpt lon="-4.127196" lat="53.009406"><ele>307.545654</ele><time>2021-07-17T09:33:39Z</time><extensions><speed>0.056206</speed><course>262.654938</course><hAcc>0.887393</hAcc><vAcc>0.710977</vAcc></extensions></trkpt>
      <trkpt lon="-4.127195" lat="53.009406"><ele>307.556427</ele><time>2021-07-17T09:33:40Z</time><extensions><speed>0.063715</speed><course>262.654938</course><hAcc>0.887409</hAcc><vAcc>0.711008</vAcc></extensions></trkpt>
      <trkpt lon="-4.127194" lat="53.009407"><ele>307.565308</ele><time>2021-07-17T09:33:41Z</time><extensions><speed>0.068798</speed><course>262.654938</course><hAcc>0.887432</hAcc><vAcc>0.711077</vAcc></extensions></trkpt>
      <trkpt lon="-4.127193" lat="53.009407"><ele>307.571899</ele><time>2021-07-17T09:33:42Z</time><extensions><speed>0.071494</speed><course>262.654938</course><hAcc>0.887459</hAcc><vAcc>0.711186</vAcc></extensions></trkpt>
      <trkpt lon="-4.127192" lat="53.009407"><ele>307.575958</ele><time>2021-07-17T09:33:43Z</time><extensions><speed>0.072433</speed><course>262.654938</course><hAcc>0.887490</hAcc><vAcc>0.711325</vAcc></extensions></trkpt>
      <trkpt lon="-4.127191" lat="53.009407"><ele>307.577332</ele><time>2021-07-17T09:33:44Z</time><extensions><speed>0.072309</speed><course>262.654938</course><hAcc>0.887521</hAcc><vAcc>0.711481</vAcc></extensions></trkpt>
      <trkpt lon="-4.127190" lat="53.009407"><ele>307.575897</ele><time>2021-07-17T09:33:45Z</time><extensions><speed>0.071583</speed><course>262.654938</course><hAcc>0.887549</hAcc><vAcc>0.711635</vAcc></extensions></trkpt>
      <trkpt lon="-4.127189" lat="53.009408"><ele>307.571503</ele><time>2021-07-17T09:33:46Z</time><extensions><speed>0.070387</speed><course>262.654938</course><hAcc>0.887569</hAcc><vAcc>0.711768</vAcc></extensions></trkpt>
      <trkpt lon="-4.127188" lat="53.009408"><ele>307.563873</ele><time>2021-07-17T09:33:47Z</time><extensions><speed>0.068701</speed><course>262.654938</course><hAcc>0.887577</hAcc><vAcc>0.711858</vAcc></extensions></trkpt>
      <trkpt lon="-4.127188" lat="53.009408"><ele>307.553040</ele><time>2021-07-17T09:33:48Z</time><extensions><speed>0.066353</speed><course>262.654938</course><hAcc>0.887570</hAcc><vAcc>0.711888</vAcc></extensions></trkpt>
      <trkpt lon="-4.127187" lat="53.009409"><ele>307.539154</ele><time>2021-07-17T09:33:49Z</time><extensions><speed>0.063090</speed><course>262.654938</course><hAcc>0.887545</hAcc><vAcc>0.711845</vAcc></extensions></trkpt>
      <trkpt lon="-4.127186" lat="53.009409"><ele>307.522583</ele><time>2021-07-17T09:33:50Z</time><extensions><speed>0.058906</speed><course>262.654938</course><hAcc>0.887501</hAcc><vAcc>0.711720</vAcc></extensions></trkpt>
      <trkpt lon="-4.127186" lat="53.009410"><ele>307.503754</ele><time>2021-07-17T09:33:51Z</time><extensions><speed>0.054146</speed><course>262.654938</course><hAcc>0.887439</hAcc><vAcc>0.711510</vAcc></extensions></trkpt>
      <trkpt lon="-4.127185" lat="53.009410"><ele>307.483185</ele><time>2021-07-17T09:33:52Z</time><extensions><speed>0.048912</speed><course>262.654938</course><hAcc>0.887361</hAcc><vAcc>0.711219</vAcc></extensions></trkpt>
      <trkpt lon="-4.127185" lat="53.009410"><ele>307.461334</ele><time>2021-07-17T09:33:53Z</time><extensions><speed>0.043150</speed><course>262.654938</course><hAcc>0.887272</hAcc><vAcc>0.710858</vAcc></extensions></trkpt>
      <trkpt lon="-4.127184" lat="53.009411"><ele>307.438629</ele><time>2021-07-17T09:33:54Z</time><extensions><speed>0.037049</speed><course>262.654938</course><hAcc>0.887177</hAcc><vAcc>0.710452</vAcc></extensions></trkpt>
      <trkpt lon="-4.127184" lat="53.009411"><ele>307.415710</ele><time>2021-07-17T09:33:55Z</time><extensions><speed>0.030810</speed><course>262.654938</course><hAcc>0.887082</hAcc><vAcc>0.710039</vAcc></extensions></trkpt>
      <trkpt lon="-4.127184" lat="53.009411"><ele>307.393127</ele><time>2021-07-17T09:33:56Z</time><extensions><speed>0.024401</speed><course>262.654938</course><hAcc>0.886996</hAcc><vAcc>0.709662</vAcc></extensions></trkpt>
      <trkpt lon="-4.127184" lat="53.009411"><ele>307.371429</ele><time>2021-07-17T09:33:57Z</time><extensions><speed>0.017710</speed><course>262.654938</course><hAcc>0.886923</hAcc><vAcc>0.709357</vAcc></extensions></trkpt>
      <trkpt lon="-4.127184" lat="53.009411"><ele>307.351105</ele><time>2021-07-17T09:33:58Z</time><extensions><speed>0.010814</speed><course>262.654938</course><hAcc>0.886869</hAcc><vAcc>0.709147</vAcc></extensions></trkpt>
      <trkpt lon="-4.127184" lat="53.009411"><ele>307.332825</ele><time>2021-07-17T09:33:59Z</time><extensions><speed>0.004383</speed><course>262.654938</course><hAcc>0.886840</hAcc><vAcc>0.709041</vAcc></extensions></trkpt>
      <trkpt lon="-4.127184" lat="53.009411"><ele>307.317230</ele><time>2021-07-17T09:34:00Z</time><extensions><speed>0.005725</speed><course>262.654938</course><hAcc>0.886839</hAcc><vAcc>0.709042</vAcc></extensions></trkpt>
      <trkpt lon="-4.127184" lat="53.009411"><ele>307.304993</ele><time>2021-07-17T09:34:01Z</time><extensions><speed>0.013113</speed><course>262.654938</course><hAcc>0.886866</hAcc><vAcc>0.709150</vAcc></extensions></trkpt>
      <trkpt lon="-4.127184" lat="53.009411"><ele>307.296570</ele><time>2021-07-17T09:34:02Z</time><extensions><speed>0.021145</speed><course>262.654938</course><hAcc>0.886924</hAcc><vAcc>0.709362</vAcc></extensions></trkpt>
      <trkpt lon="-4.127184" lat="53.009411"><ele>307.292145</ele><time>2021-07-17T09:34:03Z</time><extensions><speed>0.029465</speed><course>262.654938</course><hAcc>0.887011</hAcc><vAcc>0.709670</vAcc></extensions></trkpt>
      <trkpt lon="-4.127184" lat="53.009411"><ele>307.291443</ele><time>2021-07-17T09:34:04Z</time><extensions><speed>0.037955</speed><course>262.654938</course><hAcc>0.887127</hAcc><vAcc>0.710062</vAcc></extensions></trkpt>
      <trkpt lon="-4.127184" lat="53.009410"><ele>307.294067</ele><time>2021-07-17T09:34:05Z</time><extensions><speed>0.046168</speed><course>262.654938</course><hAcc>0.887270</hAcc><vAcc>0.710528</vAcc></extensions></trkpt>
      <trkpt lon="-4.127184" lat="53.009410"><ele>307.299530</ele><time>2021-07-17T09:34:06Z</time><extensions><speed>0.053342</speed><course>262.654938</course><hAcc>0.887438</hAcc><vAcc>0.711061</vAcc></extensions></trkpt>
      <trkpt lon="-4.127184" lat="53.009409"><ele>307.307343</ele><time>2021-07-17T09:34:07Z</time><extensions><speed>0.058814</speed><course>262.654938</course><hAcc>0.887628</hAcc><vAcc>0.711662</vAcc></extensions></trkpt>
      <trkpt lon="-4.127184" lat="53.009409"><ele>307.316925</ele><time>2021-07-17T09:34:08Z</time><extensions><speed>0.062137</speed><course>262.654938</course><hAcc>0.887837</hAcc><vAcc>0.712328</vAcc></extensions></trkpt>
      <trkpt lon="-4.127184" lat="53.009408"><ele>307.327728</ele><time>2021-07-17T09:34:09Z</time><extensions><speed>0.063057</speed><course>262.654938</course><hAcc>0.888061</hAcc><vAcc>0.713057</vAcc></extensions></trkpt>
      <trkpt lon="-4.127185" lat="53.009408"><ele>307.339172</ele><time>2021-07-17T09:34:10Z</time><extensions><speed>0.061683</speed><course>262.654938</course><hAcc>0.888296</hAcc><vAcc>0.713845</vAcc></extensions></trkpt>
      <trkpt lon="-4.127185" lat="53.009407"><ele>307.350677</ele><time>2021-07-17T09:34:11Z</time><extensions><speed>0.058468</speed><course>262.654938</course><hAcc>0.888536</hAcc><vAcc>0.714680</vAcc></extensions></trkpt>
      <trkpt lon="-4.127185" lat="53.009407"><ele>307.361786</ele><time>2021-07-17T09:34:12Z</time><extensions><speed>0.053950</speed><course>262.654938</course><hAcc>0.888777</hAcc><vAcc>0.715539</vAcc></extensions></trkpt>
      <trkpt lon="-4.127185" lat="53.009406"><ele>307.372162</ele><time>2021-07-17T09:34:13Z</time><extensions><speed>0.048583</speed><course>262.654938</course><hAcc>0.889013</hAcc><vAcc>0.716390</vAcc></extensions></trkpt>
      <trkpt lon="-4.127185" lat="53.009406"><ele>307.381561</ele><time>2021-07-17T09:34:14Z</time><extensions><speed>0.042740</speed><course>262.654938</course><hAcc>0.889238</hAcc><vAcc>0.717198</vAcc></extensions></trkpt>
      <trkpt lon="-4.127185" lat="53.009405"><ele>307.389923</ele><time>2021-07-17T09:34:15Z</time><extensions><speed>0.036714</speed><course>262.654938</course><hAcc>0.889447</hAcc><vAcc>0.717934</vAcc></extensions></trkpt>
      <trkpt lon="-4.127186" lat="53.009405"><ele>307.397156</ele><time>2021-07-17T09:34:16Z</time><extensions><speed>0.030735</speed><course>262.654938</course><hAcc>0.889637</hAcc><vAcc>0.718573</vAcc></extensions></trkpt>
      <trkpt lon="-4.127186" lat="53.009405"><ele>307.403229</ele><time>2021-07-17T09:34:17Z</time><extensions><speed>0.024972</speed><course>262.654938</course><hAcc>0.889803</hAcc><vAcc>0.719104</vAcc></extensions></trkpt>
      <trkpt lon="-4.127186" lat="53.009405"><ele>307.408234</ele><time>2021-07-17T09:34:18Z</time><extensions><speed>0.019546</speed><course>262.654938</course><hAcc>0.889944</hAcc><vAcc>0.719525</vAcc></extensions></trkpt>
      <trkpt lon="-4.127186" lat="53.009405"><ele>307.412201</ele><time>2021-07-17T09:34:19Z</time><extensions><speed>0.014539</speed><course>262.654938</course><hAcc>0.890057</hAcc><vAcc>0.719842</vAcc></extensions></trkpt>
      <trkpt lon="-4.127186" lat="53.009404"><ele>307.415192</ele><time>2021-07-17T09:34:20Z</time><extensions><speed>0.010004</speed><course>262.654938</course><hAcc>0.890144</hAcc><vAcc>0.720065</vAcc></extensions></trkpt>
      <trkpt lon="-4.127186" lat="53.009404"><ele>307.417297</ele><time>2021-07-17T09:34:21Z</time><extensions><speed>0.005972</speed><course>262.654938</course><hAcc>0.890207</hAcc><vAcc>0.720205</vAcc></extensions></trkpt>
      <trkpt lon="-4.127186" lat="53.009404"><ele>307.418579</ele><time>2021-07-17T09:34:22Z</time><extensions><speed>0.002474</speed><course>262.654938</course><hAcc>0.890248</hAcc><vAcc>0.720277</vAcc></extensions></trkpt>
      <trkpt lon="-4.127186" lat="53.009404"><ele>307.419128</ele><time>2021-07-17T09:34:23Z</time><extensions><speed>0.000800</speed><course>262.654938</course><hAcc>0.890272</hAcc><vAcc>0.720296</vAcc></extensions></trkpt>
      <trkpt lon="-4.127186" lat="53.009404"><ele>307.419006</ele><time>2021-07-17T09:34:24Z</time><extensions><speed>0.003153</speed><course>262.654938</course><hAcc>0.890281</hAcc><vAcc>0.720276</vAcc></extensions></trkpt>
      <trkpt lon="-4.127186" lat="53.009404"><ele>307.418213</ele><time>2021-07-17T09:34:25Z</time><extensions><speed>0.005133</speed><course>262.654938</course><hAcc>0.890282</hAcc><vAcc>0.720232</vAcc></extensions></trkpt>
      <trkpt lon="-4.127186" lat="53.009404"><ele>307.416840</ele><time>2021-07-17T09:34:26Z</time><extensions><speed>0.006609</speed><course>262.654938</course><hAcc>0.890278</hAcc><vAcc>0.720176</vAcc></extensions></trkpt>
      <trkpt lon="-4.127186" lat="53.009404"><ele>307.414917</ele><time>2021-07-17T09:34:27Z</time><extensions><speed>0.007563</speed><course>262.654938</course><hAcc>0.890274</hAcc><vAcc>0.720118</vAcc></extensions></trkpt>
      <trkpt lon="-4.127186" lat="53.009405"><ele>307.412476</ele><time>2021-07-17T09:34:28Z</time><extensions><speed>0.007972</speed><course>262.654938</course><hAcc>0.890273</hAcc><vAcc>0.720071</vAcc></extensions></trkpt>
      <trkpt lon="-4.127186" lat="53.009405"><ele>307.409515</ele><time>2021-07-17T09:34:29Z</time><extensions><speed>0.007805</speed><course>262.654938</course><hAcc>0.890280</hAcc><vAcc>0.720042</vAcc></extensions></trkpt>
      <trkpt lon="-4.127186" lat="53.009405"><ele>307.406128</ele><time>2021-07-17T09:34:30Z</time><extensions><speed>0.007023</speed><course>262.654938</course><hAcc>0.890298</hAcc><vAcc>0.720041</vAcc></extensions></trkpt>
      <trkpt lon="-4.127186" lat="53.009405"><ele>307.402283</ele><time>2021-07-17T09:34:31Z</time><extensions><speed>0.005586</speed><course>262.654938</course><hAcc>0.890310</hAcc><vAcc>0.720062</vAcc></extensions></trkpt>
      <trkpt lon="-4.127186" lat="53.009405"><ele>307.398071</ele><time>2021-07-17T09:34:32Z</time><extensions><speed>0.003542</speed><course>262.654938</course><hAcc>0.890319</hAcc><vAcc>0.720111</vAcc></extensions></trkpt>
      <trkpt lon="-4.127186" lat="53.009405"><ele>307.393585</ele><time>2021-07-17T09:34:33Z</time><extensions><speed>0.001961</speed><course>209.646423</course><hAcc>0.890342</hAcc><vAcc>0.720205</vAcc></extensions></trkpt>
      <trkpt lon="-4.127186" lat="53.009405"><ele>307.388885</ele><time>2021-07-17T09:34:34Z</time><extensions><speed>0.004674</speed><course>207.502853</course><hAcc>0.890378</hAcc><vAcc>0.720342</vAcc></extensions></trkpt>
      <trkpt lon="-4.127186" lat="53.009405"><ele>307.384186</ele><time>2021-07-17T09:34:35Z</time><extensions><speed>0.009551</speed><course>210.649872</course><hAcc>0.890424</hAcc><vAcc>0.720523</vAcc></extensions></trkpt>
      <trkpt lon="-4.127186" lat="53.009405"><ele>307.379608</ele><time>2021-07-17T09:34:36Z</time><extensions><speed>0.015694</speed><course>218.307190</course><hAcc>0.890478</hAcc><vAcc>0.720741</vAcc></extensions></trkpt>
      <trkpt lon="-4.127186" lat="53.009404"><ele>307.375397</ele><time>2021-07-17T09:34:37Z</time><extensions><speed>0.023074</speed><course>221.774033</course><hAcc>0.890537</hAcc><vAcc>0.720986</vAcc></extensions></trkpt>
      <trkpt lon="-4.127186" lat="53.009404"><ele>307.371796</ele><time>2021-07-17T09:34:38Z</time><extensions><speed>0.031719</speed><course>225.071381</course><hAcc>0.890597</hAcc><vAcc>0.721242</vAcc></extensions></trkpt>
      <trkpt lon="-4.127186" lat="53.009404"><ele>307.369171</ele><time>2021-07-17T09:34:39Z</time><extensions><speed>0.041641</speed><course>229.682953</course><hAcc>0.890654</hAcc><vAcc>0.721490</vAcc></extensions></trkpt>
      <trkpt lon="-4.127186" lat="53.009403"><ele>307.367859</ele><time>2021-07-17T09:34:40Z</time><extensions><speed>0.052807</speed><course>228.187271</course><hAcc>0.890704</hAcc><vAcc>0.721711</vAcc></extensions></trkpt>
      <trkpt lon="-4.127186" lat="53.009403"><ele>307.368286</ele><time>2021-07-17T09:34:41Z</time><extensions><speed>0.065118</speed><course>224.821243</course><hAcc>0.890741</hAcc><vAcc>0.721890</vAcc></extensions></trkpt>
      <trkpt lon="-4.127187" lat="53.009402"><ele>307.370880</ele><time>2021-07-17T09:34:42Z</time><extensions><speed>0.078394</speed><course>222.757462</course><hAcc>0.890763</hAcc><vAcc>0.722012</vAcc></extensions></trkpt>
      <trkpt lon="-4.127187" lat="53.009402"><ele>307.376129</ele><time>2021-07-17T09:34:43Z</time><extensions><speed>0.092346</speed><course>223.047150</course><hAcc>0.890764</hAcc><vAcc>0.722066</vAcc></extensions></trkpt>
      <trkpt lon="-4.127188" lat="53.009401"><ele>307.384521</ele><time>2021-07-17T09:34:44Z</time><extensions><speed>0.106558</speed><course>218.695862</course><hAcc>0.890741</hAcc><vAcc>0.722037</vAcc></extensions></trkpt>
      <trkpt lon="-4.127188" lat="53.009400"><ele>307.396484</ele><time>2021-07-17T09:34:45Z</time><extensions><speed>0.120458</speed><course>216.351273</course><hAcc>0.890694</hAcc><vAcc>0.721917</vAcc></extensions></trkpt>
      <trkpt lon="-4.127189" lat="53.009399"><ele>307.412506</ele><time>2021-07-17T09:34:46Z</time><extensions><speed>0.133298</speed><course>219.658188</course><hAcc>0.890621</hAcc><vAcc>0.721700</vAcc></extensions></trkpt>
      <trkpt lon="-4.127190" lat="53.009398"><ele>307.432861</ele><time>2021-07-17T09:34:47Z</time><extensions><speed>0.144125</speed><course>221.748871</course><hAcc>0.890523</hAcc><vAcc>0.721384</vAcc></extensions></trkpt>
      <trkpt lon="-4.127191" lat="53.009396"><ele>307.457764</ele><time>2021-07-17T09:34:48Z</time><extensions><speed>0.151766</speed><course>225.723022</course><hAcc>0.890399</hAcc><vAcc>0.720974</vAcc></extensions></trkpt>
      <trkpt lon="-4.127192" lat="53.009395"><ele>307.487274</ele><time>2021-07-17T09:34:49Z</time><extensions><speed>0.154813</speed><course>227.303833</course><hAcc>0.890253</hAcc><vAcc>0.720481</vAcc></extensions></trkpt>
      <trkpt lon="-4.127193" lat="53.009394"><ele>307.521240</ele><time>2021-07-17T09:34:50Z</time><extensions><speed>0.153359</speed><course>225.742310</course><hAcc>0.890085</hAcc><vAcc>0.719921</vAcc></extensions></trkpt>
      <trkpt lon="-4.127194" lat="53.009393"><ele>307.559357</ele><time>2021-07-17T09:34:51Z</time><extensions><speed>0.149025</speed><course>225.742310</course><hAcc>0.889898</hAcc><vAcc>0.719316</vAcc></extensions></trkpt>
      <trkpt lon="-4.127194" lat="53.009391"><ele>307.601410</ele><time>2021-07-17T09:34:52Z</time><extensions><speed>0.143298</speed><course>225.742325</course><hAcc>0.889693</hAcc><vAcc>0.718680</vAcc></extensions></trkpt>
      <trkpt lon="-4.127195" lat="53.009390"><ele>307.647003</ele><time>2021-07-17T09:34:52Z</time><extensions><speed>0.137474</speed><course>225.742325</course><hAcc>0.889511</hAcc><vAcc>0.718054</vAcc></extensions></trkpt>
      <trkpt lon="-4.127195" lat="53.009389"><ele>307.696075</ele><time>2021-07-17T09:34:53Z</time><extensions><speed>0.132561</speed><course>225.742325</course><hAcc>0.889354</hAcc><vAcc>0.717447</vAcc></extensions></trkpt>
      <trkpt lon="-4.127196" lat="53.009388"><ele>307.748199</ele><time>2021-07-17T09:34:54Z</time><extensions><speed>0.129492</speed><course>224.360504</course><hAcc>0.889192</hAcc><vAcc>0.716847</vAcc></extensions></trkpt>
      <trkpt lon="-4.127196" lat="53.009387"><ele>307.803162</ele><time>2021-07-17T09:34:55Z</time><extensions><speed>0.129006</speed><course>231.374908</course><hAcc>0.889029</hAcc><vAcc>0.716267</vAcc></extensions></trkpt>
      <trkpt lon="-4.127196" lat="53.009386"><ele>307.860870</ele><time>2021-07-17T09:34:56Z</time><extensions><speed>0.131736</speed><course>226.234039</course><hAcc>0.888867</hAcc><vAcc>0.715718</vAcc></extensions></trkpt>
      <trkpt lon="-4.127196" lat="53.009384"><ele>307.921356</ele><time>2021-07-17T09:34:57Z</time><extensions><speed>0.138114</speed><course>228.443588</course><hAcc>0.888709</hAcc><vAcc>0.715204</vAcc></extensions></trkpt>
      <trkpt lon="-4.127195" lat="53.009383"><ele>307.984863</ele><time>2021-07-17T09:34:58Z</time><extensions><speed>0.148118</speed><course>217.150848</course><hAcc>0.888554</hAcc><vAcc>0.714727</vAcc></extensions></trkpt>
      <trkpt lon="-4.127195" lat="53.009382"><ele>308.051575</ele><time>2021-07-17T09:34:59Z</time><extensions><speed>0.161254</speed><course>214.670395</course><hAcc>0.888404</hAcc><vAcc>0.714281</vAcc></extensions></trkpt>
      <trkpt lon="-4.127194" lat="53.009380"><ele>308.121826</ele><time>2021-07-17T09:35:00Z</time><extensions><speed>0.176819</speed><course>219.066208</course><hAcc>0.888258</hAcc><vAcc>0.713852</vAcc></extensions></trkpt>
      <trkpt lon="-4.127193" lat="53.009379"><ele>308.195862</ele><time>2021-07-17T09:35:01Z</time><extensions><speed>0.194121</speed><course>218.042282</course><hAcc>0.888117</hAcc><vAcc>0.713426</vAcc></extensions></trkpt>
      <trkpt lon="-4.127192" lat="53.009377"><ele>308.274109</ele><time>2021-07-17T09:35:02Z</time><extensions><speed>0.212647</speed><course>220.994385</course><hAcc>0.887979</hAcc><vAcc>0.712994</vAcc></extensions></trkpt>
      <trkpt lon="-4.127191" lat="53.009375"><ele>308.357025</ele><time>2021-07-17T09:35:03Z</time><extensions><speed>0.232239</speed><course>227.746307</course><hAcc>0.887846</hAcc><vAcc>0.712555</vAcc></extensions></trkpt>
      <trkpt lon="-4.127190" lat="53.009373"><ele>308.445007</ele><time>2021-07-17T09:35:04Z</time><extensions><speed>0.252951</speed><course>224.855316</course><hAcc>0.887718</hAcc><vAcc>0.712115</vAcc></extensions></trkpt>
      <trkpt lon="-4.127189" lat="53.009371"><ele>308.538574</ele><time>2021-07-17T09:35:05Z</time><extensions><speed>0.274807</speed><course>223.584900</course><hAcc>0.887594</hAcc><vAcc>0.711684</vAcc></extensions></trkpt>
      <trkpt lon="-4.127188" lat="53.009368"><ele>308.638123</ele><time>2021-07-17T09:35:06Z</time><extensions><speed>0.297662</speed><course>224.383530</course><hAcc>0.887477</hAcc><vAcc>0.711273</vAcc></extensions></trkpt>
      <trkpt lon="-4.127188" lat="53.009365"><ele>308.743774</ele><time>2021-07-17T09:35:07Z</time><extensions><speed>0.321176</speed><course>225.716217</course><hAcc>0.887368</hAcc><vAcc>0.710891</vAcc></extensions></trkpt>
      <trkpt lon="-4.127187" lat="53.009362"><ele>308.855469</ele><time>2021-07-17T09:35:08Z</time><extensions><speed>0.344911</speed><course>229.189102</course><hAcc>0.887266</hAcc><vAcc>0.710548</vAcc></extensions></trkpt>
      <trkpt lon="-4.127186" lat="53.009359"><ele>308.972870</ele><time>2021-07-17T09:35:09Z</time><extensions><speed>0.368500</speed><course>224.817474</course><hAcc>0.887173</hAcc><vAcc>0.710247</vAcc></extensions></trkpt>
      <trkpt lon="-4.127185" lat="53.009356"><ele>309.095367</ele><time>2021-07-17T09:35:10Z</time><extensions><speed>0.391595</speed><course>225.227936</course><hAcc>0.887088</hAcc><vAcc>0.709990</vAcc></extensions></trkpt>
      <trkpt lon="-4.127185" lat="53.009352"><ele>309.222137</ele><time>2021-07-17T09:35:11Z</time><extensions><speed>0.414336</speed><course>228.251373</course><hAcc>0.887011</hAcc><vAcc>0.709769</vAcc></extensions></trkpt>
      <trkpt lon="-4.127184" lat="53.009348"><ele>309.352478</ele><time>2021-07-17T09:35:12Z</time><extensions><speed>0.437123</speed><course>230.721024</course><hAcc>0.886939</hAcc><vAcc>0.709576</vAcc></extensions></trkpt>
      <trkpt lon="-4.127183" lat="53.009344"><ele>309.485809</ele><time>2021-07-17T09:35:13Z</time><extensions><speed>0.460389</speed><course>234.697540</course><hAcc>0.886872</hAcc><vAcc>0.709394</vAcc></extensions></trkpt>
      <trkpt lon="-4.127183" lat="53.009340"><ele>309.621796</ele><time>2021-07-17T09:35:14Z</time><extensions><speed>0.484780</speed><course>236.619934</course><hAcc>0.886808</hAcc><vAcc>0.709213</vAcc></extensions></trkpt>
      <trkpt lon="-4.127182" lat="53.009336"><ele>309.760376</ele><time>2021-07-17T09:35:15Z</time><extensions><speed>0.510760</speed><course>247.542679</course><hAcc>0.886744</hAcc><vAcc>0.709018</vAcc></extensions></trkpt>
      <trkpt lon="-4.127181" lat="53.009331"><ele>309.901428</ele><time>2021-07-17T09:35:16Z</time><extensions><speed>0.538093</speed><course>242.855072</course><hAcc>0.886681</hAcc><vAcc>0.708798</vAcc></extensions></trkpt>
      <trkpt lon="-4.127181" lat="53.009326"><ele>310.044922</ele><time>2021-07-17T09:35:18Z</time><extensions><speed>0.566383</speed><course>241.397278</course><hAcc>0.886599</hAcc><vAcc>0.708535</vAcc></extensions></trkpt>
      <trkpt lon="-4.127180" lat="53.009321"><ele>310.190338</ele><time>2021-07-17T09:35:19Z</time><extensions><speed>0.595240</speed><course>241.667068</course><hAcc>0.886497</hAcc><vAcc>0.708229</vAcc></extensions></trkpt>
      <trkpt lon="-4.127178" lat="53.009315"><ele>310.337616</ele><time>2021-07-17T09:35:20Z</time><extensions><speed>0.623894</speed><course>241.132874</course><hAcc>0.886392</hAcc><vAcc>0.707900</vAcc></extensions></trkpt>
      <trkpt lon="-4.127177" lat="53.009310"><ele>310.486694</ele><time>2021-07-17T09:35:21Z</time><extensions><speed>0.651465</speed><course>242.509506</course><hAcc>0.886283</hAcc><vAcc>0.707556</vAcc></extensions></trkpt>
      <trkpt lon="-4.127176" lat="53.009304"><ele>310.637207</ele><time>2021-07-17T09:35:22Z</time><extensions><speed>0.677529</speed><course>242.195404</course><hAcc>0.886170</hAcc><vAcc>0.707205</vAcc></extensions></trkpt>
      <trkpt lon="-4.127174" lat="53.009298"><ele>310.788910</ele><time>2021-07-17T09:35:23Z</time><extensions><speed>0.701661</speed><course>244.443573</course><hAcc>0.886051</hAcc><vAcc>0.706845</vAcc></extensions></trkpt>
      <trkpt lon="-4.127172" lat="53.009292"><ele>310.941772</ele><time>2021-07-17T09:35:24Z</time><extensions><speed>0.723225</speed><course>246.780472</course><hAcc>0.885926</hAcc><vAcc>0.706472</vAcc></extensions></trkpt>
      <trkpt lon="-4.127170" lat="53.009285"><ele>311.096069</ele><time>2021-07-17T09:35:25Z</time><extensions><speed>0.741671</speed><course>247.423477</course><hAcc>0.885795</hAcc><vAcc>0.706080</vAcc></extensions></trkpt>
      <trkpt lon="-4.127168" lat="53.009278"><ele>311.252197</ele><time>2021-07-17T09:35:26Z</time><extensions><speed>0.756432</speed><course>252.345490</course><hAcc>0.885659</hAcc><vAcc>0.705663</vAcc></extensions></trkpt>
      <trkpt lon="-4.127166" lat="53.009272"><ele>311.410461</ele><time>2021-07-17T09:35:27Z</time><extensions><speed>0.767063</speed><course>252.366760</course><hAcc>0.885516</hAcc><vAcc>0.705218</vAcc></extensions></trkpt>
      <trkpt lon="-4.127164" lat="53.009265"><ele>311.571289</ele><time>2021-07-17T09:35:28Z</time><extensions><speed>0.773402</speed><course>254.889893</course><hAcc>0.885367</hAcc><vAcc>0.704750</vAcc></extensions></trkpt>
      <trkpt lon="-4.127162" lat="53.009258"><ele>311.735077</ele><time>2021-07-17T09:35:29Z</time><extensions><speed>0.775382</speed><course>257.492432</course><hAcc>0.885215</hAcc><vAcc>0.704265</vAcc></extensions></trkpt>
      <trkpt lon="-4.127160" lat="53.009251"><ele>311.902039</ele><time>2021-07-17T09:35:30Z</time><extensions><speed>0.773147</speed><course>255.728439</course><hAcc>0.885060</hAcc><vAcc>0.703769</vAcc></extensions></trkpt>
      <trkpt lon="-4.127159" lat="53.009244"><ele>312.072174</ele><time>2021-07-17T09:35:31Z</time><extensions><speed>0.767101</speed><course>258.375061</course><hAcc>0.884907</hAcc><vAcc>0.703268</vAcc></extensions></trkpt>
      <trkpt lon="-4.127158" lat="53.009237"><ele>312.245331</ele><time>2021-07-17T09:35:32Z</time><extensions><speed>0.757721</speed><course>260.722260</course><hAcc>0.884759</hAcc><vAcc>0.702770</vAcc></extensions></trkpt>
      <trkpt lon="-4.127157" lat="53.009231"><ele>312.421265</ele><time>2021-07-17T09:35:33Z</time><extensions><speed>0.745591</speed><course>260.722260</course><hAcc>0.884621</hAcc><vAcc>0.702289</vAcc></extensions></trkpt>
      <trkpt lon="-4.127156" lat="53.009224"><ele>312.599640</ele><time>2021-07-17T09:35:34Z</time><extensions><speed>0.731205</speed><course>260.722260</course><hAcc>0.884501</hAcc><vAcc>0.701843</vAcc></extensions></trkpt>
      <trkpt lon="-4.127156" lat="53.009218"><ele>312.780273</ele><time>2021-07-17T09:35:35Z</time><extensions><speed>0.714916</speed><course>260.722260</course><hAcc>0.884405</hAcc><vAcc>0.701459</vAcc></extensions></trkpt>
      <trkpt lon="-4.127155" lat="53.009211"><ele>312.963043</ele><time>2021-07-17T09:35:36Z</time><extensions><speed>0.697311</speed><course>260.722260</course><hAcc>0.884341</hAcc><vAcc>0.701167</vAcc></extensions></trkpt>
      <trkpt lon="-4.127155" lat="53.009205"><ele>313.147705</ele><time>2021-07-17T09:35:37Z</time><extensions><speed>0.679357</speed><course>260.722260</course><hAcc>0.884316</hAcc><vAcc>0.701003</vAcc></extensions></trkpt>
      <trkpt lon="-4.127155" lat="53.009199"><ele>313.333862</ele><time>2021-07-17T09:35:38Z</time><extensions><speed>0.662217</speed><course>260.722260</course><hAcc>0.884337</hAcc><vAcc>0.701002</vAcc></extensions></trkpt>
      <trkpt lon="-4.127156" lat="53.009193"><ele>313.521118</ele><time>2021-07-17T09:35:39Z</time><extensions><speed>0.646865</speed><course>260.722229</course><hAcc>0.884408</hAcc><vAcc>0.701194</vAcc></extensions></trkpt>
      <trkpt lon="-4.127156" lat="53.009187"><ele>313.709229</ele><time>2021-07-17T09:35:40Z</time><extensions><speed>0.633934</speed><course>268.575928</course><hAcc>0.884531</hAcc><vAcc>0.701595</vAcc></extensions></trkpt>
      <trkpt lon="-4.127157" lat="53.009182"><ele>313.898071</ele><time>2021-07-17T09:35:41Z</time><extensions><speed>0.623475</speed><course>268.685822</course><hAcc>0.884705</hAcc><vAcc>0.702204</vAcc></extensions></trkpt>
      <trkpt lon="-4.127159" lat="53.009176"><ele>314.087708</ele><time>2021-07-17T09:35:42Z</time><extensions><speed>0.614950</speed><course>264.169769</course><hAcc>0.884925</hAcc><vAcc>0.703003</vAcc></extensions></trkpt>
      <trkpt lon="-4.127160" lat="53.009171"><ele>314.278137</ele><time>2021-07-17T09:35:43Z</time><extensions><speed>0.607601</speed><course>272.216278</course><hAcc>0.885185</hAcc><vAcc>0.703954</vAcc></extensions></trkpt>
      <trkpt lon="-4.127162" lat="53.009166"><ele>314.469269</ele><time>2021-07-17T09:35:44Z</time><extensions><speed>0.600491</speed><course>279.707916</course><hAcc>0.885476</hAcc><vAcc>0.705008</vAcc></extensions></trkpt>
      <trkpt lon="-4.127165" lat="53.009160"><ele>314.660919</ele><time>2021-07-17T09:35:45Z</time><extensions><speed>0.592949</speed><course>277.974487</course><hAcc>0.885788</hAcc><vAcc>0.706114</vAcc></extensions></trkpt>
      <trkpt lon="-4.127168" lat="53.009155"><ele>314.852875</ele><time>2021-07-17T09:35:46Z</time><extensions><speed>0.584983</speed><course>285.359497</course><hAcc>0.886112</hAcc><vAcc>0.707223</vAcc></extensions></trkpt>
      <trkpt lon="-4.127171" lat="53.009151"><ele>315.044952</ele><time>2021-07-17T09:35:47Z</time><extensions><speed>0.576940</speed><course>288.896698</course><hAcc>0.886438</hAcc><vAcc>0.708301</vAcc></extensions></trkpt>
      <trkpt lon="-4.127174" lat="53.009146"><ele>315.237091</ele><time>2021-07-17T09:35:48Z</time><extensions><speed>0.569182</speed><course>285.949463</course><hAcc>0.886758</hAcc><vAcc>0.709329</vAcc></extensions></trkpt>
      <trkpt lon="-4.127178" lat="53.009141"><ele>315.429199</ele><time>2021-07-17T09:35:49Z</time><extensions><speed>0.562018</speed><course>279.328217</course><hAcc>0.887068</hAcc><vAcc>0.710299</vAcc></extensions></trkpt>
      <trkpt lon="-4.127181" lat="53.009137"><ele>315.621246</ele><time>2021-07-17T09:35:50Z</time><extensions><speed>0.555666</speed><course>280.252258</course><hAcc>0.887361</hAcc><vAcc>0.711211</vAcc></extensions></trkpt>
      <trkpt lon="-4.127186" lat="53.009133"><ele>315.813202</ele><time>2021-07-17T09:35:51Z</time><extensions><speed>0.550215</speed><course>280.968384</course><hAcc>0.887636</hAcc><vAcc>0.712063</vAcc></extensions></trkpt>
      <trkpt lon="-4.127190" lat="53.009128"><ele>316.005066</ele><time>2021-07-17T09:35:52Z</time><extensions><speed>0.545610</speed><course>279.577759</course><hAcc>0.887891</hAcc><vAcc>0.712854</vAcc></extensions></trkpt>
      <trkpt lon="-4.127195" lat="53.009124"><ele>316.196808</ele><time>2021-07-17T09:35:53Z</time><extensions><speed>0.541843</speed><course>280.039124</course><hAcc>0.888125</hAcc><vAcc>0.713583</vAcc></extensions></trkpt>
      <trkpt lon="-4.127199" lat="53.009120"><ele>316.388489</ele><time>2021-07-17T09:35:54Z</time><extensions><speed>0.539057</speed><course>285.588440</course><hAcc>0.888337</hAcc><vAcc>0.714248</vAcc></extensions></trkpt>
      <trkpt lon="-4.127204" lat="53.009117"><ele>316.580170</ele><time>2021-07-17T09:35:55Z</time><extensions><speed>0.537311</speed><course>287.653503</course><hAcc>0.888527</hAcc><vAcc>0.714850</vAcc></extensions></trkpt>
      <trkpt lon="-4.127210" lat="53.009113"><ele>316.772003</ele><time>2021-07-17T09:35:56Z</time><extensions><speed>0.536607</speed><course>285.239563</course><hAcc>0.888695</hAcc><vAcc>0.715388</vAcc></extensions></trkpt>
      <trkpt lon="-4.127215" lat="53.009109"><ele>316.964081</ele><time>2021-07-17T09:35:57Z</time><extensions><speed>0.536962</speed><course>283.468018</course><hAcc>0.888841</hAcc><vAcc>0.715861</vAcc></extensions></trkpt>
      <trkpt lon="-4.127220" lat="53.009106"><ele>317.156647</ele><time>2021-07-17T09:35:58Z</time><extensions><speed>0.537811</speed><course>279.656525</course><hAcc>0.888964</hAcc><vAcc>0.716264</vAcc></extensions></trkpt>
      <trkpt lon="-4.127226" lat="53.009103"><ele>317.349884</ele><time>2021-07-17T09:35:59Z</time><extensions><speed>0.538107</speed><course>278.539093</course><hAcc>0.889063</hAcc><vAcc>0.716595</vAcc></extensions></trkpt>
      <trkpt lon="-4.127232" lat="53.009099"><ele>317.544037</ele><time>2021-07-17T09:36:00Z</time><extensions><speed>0.537207</speed><course>281.435120</course><hAcc>0.889139</hAcc><vAcc>0.716850</vAcc></extensions></trkpt>
      <trkpt lon="-4.127238" lat="53.009096"><ele>317.739105</ele><time>2021-07-17T09:36:01Z</time><extensions><speed>0.535058</speed><course>285.299316</course><hAcc>0.889191</hAcc><vAcc>0.717024</vAcc></extensions></trkpt>
      <trkpt lon="-4.127243" lat="53.009092"><ele>317.934814</ele><time>2021-07-17T09:36:02Z</time><extensions><speed>0.531597</speed><course>278.729095</course><hAcc>0.889219</hAcc><vAcc>0.717116</vAcc></extensions></trkpt>
      <trkpt lon="-4.127249" lat="53.009089"><ele>318.130768</ele><time>2021-07-17T09:36:03Z</time><extensions><speed>0.526890</speed><course>281.499542</course><hAcc>0.889224</hAcc><vAcc>0.717127</vAcc></extensions></trkpt>
      <trkpt lon="-4.127254" lat="53.009086"><ele>318.326569</ele><time>2021-07-17T09:36:04Z</time><extensions><speed>0.521386</speed><course>280.886475</course><hAcc>0.889207</hAcc><vAcc>0.717059</vAcc></extensions></trkpt>
      <trkpt lon="-4.127260" lat="53.009082"><ele>318.521667</ele><time>2021-07-17T09:36:05Z</time><extensions><speed>0.515401</speed><course>287.541565</course><hAcc>0.889170</hAcc><vAcc>0.716920</vAcc></extensions></trkpt>
      <trkpt lon="-4.127265" lat="53.009079"><ele>318.715546</ele><time>2021-07-17T09:36:06Z</time><extensions><speed>0.509222</speed><course>288.221985</course><hAcc>0.889114</hAcc><vAcc>0.716716</vAcc></extensions></trkpt>
      <trkpt lon="-4.127270" lat="53.009076"><ele>318.907593</ele><time>2021-07-17T09:36:07Z</time><extensions><speed>0.503115</speed><course>291.891876</course><hAcc>0.889043</hAcc><vAcc>0.716458</vAcc></extensions></trkpt>
      <trkpt lon="-4.127275" lat="53.009072"><ele>319.097321</ele><time>2021-07-17T09:36:08Z</time><extensions><speed>0.497030</speed><course>289.035248</course><hAcc>0.888961</hAcc><vAcc>0.716154</vAcc></extensions></trkpt>
      <trkpt lon="-4.127279" lat="53.009069"><ele>319.284210</ele><time>2021-07-17T09:36:09Z</time><extensions><speed>0.490567</speed><course>286.354584</course><hAcc>0.888870</hAcc><vAcc>0.715817</vAcc></extensions></trkpt>
      <trkpt lon="-4.127284" lat="53.009065"><ele>319.467773</ele><time>2021-07-17T09:36:10Z</time><extensions><speed>0.483506</speed><course>285.070648</course><hAcc>0.888776</hAcc><vAcc>0.715460</vAcc></extensions></trkpt>
      <trkpt lon="-4.127288" lat="53.009062"><ele>319.647644</ele><time>2021-07-17T09:36:11Z</time><extensions><speed>0.475872</speed><course>282.456329</course><hAcc>0.888682</hAcc><vAcc>0.715099</vAcc></extensions></trkpt>
      <trkpt lon="-4.127292" lat="53.009058"><ele>319.823334</ele><time>2021-07-17T09:36:12Z</time><extensions><speed>0.467808</speed><course>277.579590</course><hAcc>0.888591</hAcc><vAcc>0.714755</vAcc></extensions></trkpt>
      <trkpt lon="-4.127296" lat="53.009055"><ele>319.994720</ele><time>2021-07-17T09:36:13Z</time><extensions><speed>0.459899</speed><course>280.944580</course><hAcc>0.888507</hAcc><vAcc>0.714446</vAcc></extensions></trkpt>
      <trkpt lon="-4.127300" lat="53.009051"><ele>320.161987</ele><time>2021-07-17T09:36:14Z</time><extensions><speed>0.452927</speed><course>286.555664</course><hAcc>0.888430</hAcc><vAcc>0.714187</vAcc></extensions></trkpt>
      <trkpt lon="-4.127303" lat="53.009048"><ele>320.325775</ele><time>2021-07-17T09:36:15Z</time><extensions><speed>0.447476</speed><course>286.867188</course><hAcc>0.888361</hAcc><vAcc>0.713983</vAcc></extensions></trkpt>
      <trkpt lon="-4.127306" lat="53.009044"><ele>320.486877</ele><time>2021-07-17T09:36:16Z</time><extensions><speed>0.443614</speed><course>285.747314</course><hAcc>0.888300</hAcc><vAcc>0.713830</vAcc></extensions></trkpt>
      <trkpt lon="-4.127310" lat="53.009041"><ele>320.646057</ele><time>2021-07-17T09:36:17Z</time><extensions><speed>0.441018</speed><course>288.748718</course><hAcc>0.888247</hAcc><vAcc>0.713714</vAcc></extensions></trkpt>
      <trkpt lon="-4.127313" lat="53.009038"><ele>320.803864</ele><time>2021-07-17T09:36:18Z</time><extensions><speed>0.439390</speed><course>282.056335</course><hAcc>0.888201</hAcc><vAcc>0.713613</vAcc></extensions></trkpt>
      <trkpt lon="-4.127316" lat="53.009034"><ele>320.960663</ele><time>2021-07-17T09:36:19Z</time><extensions><speed>0.438432</speed><course>284.841522</course><hAcc>0.888160</hAcc><vAcc>0.713512</vAcc></extensions></trkpt>
      <trkpt lon="-4.127319" lat="53.009031"><ele>321.116455</ele><time>2021-07-17T09:36:20Z</time><extensions><speed>0.437671</speed><course>283.873260</course><hAcc>0.888123</hAcc><vAcc>0.713402</vAcc></extensions></trkpt>
      <trkpt lon="-4.127322" lat="53.009027"><ele>321.270905</ele><time>2021-07-17T09:36:21Z</time><extensions><speed>0.436581</speed><course>280.645142</course><hAcc>0.888090</hAcc><vAcc>0.713280</vAcc></extensions></trkpt>
      <trkpt lon="-4.127325" lat="53.009024"><ele>321.423523</ele><time>2021-07-17T09:36:22Z</time><extensions><speed>0.435058</speed><course>278.726105</course><hAcc>0.888060</hAcc><vAcc>0.713149</vAcc></extensions></trkpt>
      <trkpt lon="-4.127328" lat="53.009020"><ele>321.573944</ele><time>2021-07-17T09:36:23Z</time><extensions><speed>0.433365</speed><course>276.107971</course><hAcc>0.888035</hAcc><vAcc>0.713013</vAcc></extensions></trkpt>
      <trkpt lon="-4.127331" lat="53.009017"><ele>321.721954</ele><time>2021-07-17T09:36:24Z</time><extensions><speed>0.431900</speed><course>275.135803</course><hAcc>0.888018</hAcc><vAcc>0.712881</vAcc></extensions></trkpt>
      <trkpt lon="-4.127334" lat="53.009013"><ele>321.867462</ele><time>2021-07-17T09:36:25Z</time><extensions><speed>0.430962</speed><course>273.705627</course><hAcc>0.888011</hAcc><vAcc>0.712764</vAcc></extensions></trkpt>
      <trkpt lon="-4.127337" lat="53.009010"><ele>322.010620</ele><time>2021-07-17T09:36:26Z</time><extensions><speed>0.430332</speed><course>279.700806</course><hAcc>0.887999</hAcc><vAcc>0.712665</vAcc></extensions></trkpt>
      <trkpt lon="-4.127340" lat="53.009006"><ele>322.151123</ele><time>2021-07-17T09:36:27Z</time><extensions><speed>0.429467</speed><course>279.102997</course><hAcc>0.887987</hAcc><vAcc>0.712602</vAcc></extensions></trkpt>
      <trkpt lon="-4.127343" lat="53.009003"><ele>322.289185</ele><time>2021-07-17T09:36:28Z</time><extensions><speed>0.428033</speed><course>281.416626</course><hAcc>0.887994</hAcc><vAcc>0.712604</vAcc></extensions></trkpt>
      <trkpt lon="-4.127346" lat="53.009000"><ele>322.424774</ele><time>2021-07-17T09:36:29Z</time><extensions><speed>0.425748</speed><course>274.399658</course><hAcc>0.888023</hAcc><vAcc>0.712686</vAcc></extensions></trkpt>
      <trkpt lon="-4.127349" lat="53.008996"><ele>322.558136</ele><time>2021-07-17T09:36:30Z</time><extensions><speed>0.422344</speed><course>277.055237</course><hAcc>0.888077</hAcc><vAcc>0.712861</vAcc></extensions></trkpt>
      <trkpt lon="-4.127352" lat="53.008993"><ele>322.689423</ele><time>2021-07-17T09:36:31Z</time><extensions><speed>0.418001</speed><course>271.055908</course><hAcc>0.888160</hAcc><vAcc>0.713135</vAcc></extensions></trkpt>
      <trkpt lon="-4.127355" lat="53.008990"><ele>322.821198</ele><time>2021-07-17T09:36:32Z</time><extensions><speed>0.409822</speed><course>215.204285</course><hAcc>0.888225</hAcc><vAcc>0.713418</vAcc></extensions></trkpt>
      <trkpt lon="-4.127358" lat="53.008987"><ele>322.949799</ele><time>2021-07-17T09:36:33Z</time><extensions><speed>0.404773</speed><course>192.608246</course><hAcc>0.888321</hAcc><vAcc>0.713788</vAcc></extensions></trkpt>
      <trkpt lon="-4.127362" lat="53.008984"><ele>323.077209</ele><time>2021-07-17T09:36:34Z</time><extensions><speed>0.400678</speed><course>196.818375</course><hAcc>0.888438</hAcc><vAcc>0.714212</vAcc></extensions></trkpt>
      <trkpt lon="-4.127365" lat="53.008981"><ele>323.204193</ele><time>2021-07-17T09:36:35Z</time><extensions><speed>0.398600</speed><course>200.564194</course><hAcc>0.888568</hAcc><vAcc>0.714671</vAcc></extensions></trkpt>
      <trkpt lon="-4.127369" lat="53.008978"><ele>323.331573</ele><time>2021-07-17T09:36:36Z</time><extensions><speed>0.399249</speed><course>224.718231</course><hAcc>0.888708</hAcc><vAcc>0.715151</vAcc></extensions></trkpt>
      <trkpt lon="-4.127372" lat="53.008975"><ele>323.460022</ele><time>2021-07-17T09:36:37Z</time><extensions><speed>0.402750</speed><course>228.969803</course><hAcc>0.888855</hAcc><vAcc>0.715642</vAcc></extensions></trkpt>
      <trkpt lon="-4.127376" lat="53.008972"><ele>323.590240</ele><time>2021-07-17T09:36:38Z</time><extensions><speed>0.408948</speed><course>250.366501</course><hAcc>0.889005</hAcc><vAcc>0.716138</vAcc></extensions></trkpt>
      <trkpt lon="-4.127381" lat="53.008970"><ele>323.722687</ele><time>2021-07-17T09:36:39Z</time><extensions><speed>0.417272</speed><course>-1.000000</course><hAcc>0.889154</hAcc><vAcc>0.716635</vAcc></extensions></trkpt>
      <trkpt lon="-4.127385" lat="53.008967"><ele>323.857483</ele><time>2021-07-17T09:36:40Z</time><extensions><speed>0.426823</speed><course>232.063629</course><hAcc>0.889301</hAcc><vAcc>0.717128</vAcc></extensions></trkpt>
      <trkpt lon="-4.127390" lat="53.008965"><ele>323.994415</ele><time>2021-07-17T09:36:41Z</time><extensions><speed>0.436858</speed><course>232.063614</course><hAcc>0.889443</hAcc><vAcc>0.717611</vAcc></extensions></trkpt>
      <trkpt lon="-4.127395" lat="53.008962"><ele>324.133087</ele><time>2021-07-17T09:36:42Z</time><extensions><speed>0.447044</speed><course>232.063614</course><hAcc>0.889579</hAcc><vAcc>0.718077</vAcc></extensions></trkpt>
      <trkpt lon="-4.127400" lat="53.008960"><ele>324.272980</ele><time>2021-07-17T09:36:43Z</time><extensions><speed>0.457273</speed><course>232.063599</course><hAcc>0.889706</hAcc><vAcc>0.718515</vAcc></extensions></trkpt>
      <trkpt lon="-4.127406" lat="53.008957"><ele>324.413574</ele><time>2021-07-17T09:36:44Z</time><extensions><speed>0.467205</speed><course>232.063599</course><hAcc>0.889825</hAcc><vAcc>0.718914</vAcc></extensions></trkpt>
      <trkpt lon="-4.127412" lat="53.008955"><ele>324.554443</ele><time>2021-07-17T09:36:45Z</time><extensions><speed>0.476613</speed><course>232.063583</course><hAcc>0.889932</hAcc><vAcc>0.719269</vAcc></extensions></trkpt>
      <trkpt lon="-4.127418" lat="53.008953"><ele>324.695251</ele><time>2021-07-17T09:36:46Z</time><extensions><speed>0.485463</speed><course>232.063583</course><hAcc>0.890028</hAcc><vAcc>0.719576</vAcc></extensions></trkpt>
      <trkpt lon="-4.127424" lat="53.008950"><ele>324.835724</ele><time>2021-07-17T09:36:47Z</time><extensions><speed>0.493596</speed><course>248.555511</course><hAcc>0.890111</hAcc><vAcc>0.719835</vAcc></extensions></trkpt>
      <trkpt lon="-4.127431" lat="53.008948"><ele>324.975647</ele><time>2021-07-17T09:36:48Z</time><extensions><speed>0.500868</speed><course>214.727661</course><hAcc>0.890180</hAcc><vAcc>0.720048</vAcc></extensions></trkpt>
      <trkpt lon="-4.127437" lat="53.008946"><ele>325.114899</ele><time>2021-07-17T09:36:49Z</time><extensions><speed>0.507121</speed><course>215.656113</course><hAcc>0.890234</hAcc><vAcc>0.720218</vAcc></extensions></trkpt>
      <trkpt lon="-4.127444" lat="53.008943"><ele>325.253326</ele><time>2021-07-17T09:36:50Z</time><extensions><speed>0.512248</speed><course>205.637772</course><hAcc>0.890271</hAcc><vAcc>0.720344</vAcc></extensions></trkpt>
      <trkpt lon="-4.127450" lat="53.008941"><ele>325.390625</ele><time>2021-07-17T09:36:51Z</time><extensions><speed>0.516403</speed><course>201.575424</course><hAcc>0.890292</hAcc><vAcc>0.720427</vAcc></extensions></trkpt>
      <trkpt lon="-4.127457" lat="53.008939"><ele>325.526550</ele><time>2021-07-17T09:36:52Z</time><extensions><speed>0.519749</speed><course>196.854248</course><hAcc>0.890295</hAcc><vAcc>0.720462</vAcc></extensions></trkpt>
      <trkpt lon="-4.127463" lat="53.008936"><ele>325.661194</ele><time>2021-07-17T09:36:53Z</time><extensions><speed>0.522570</speed><course>198.264053</course><hAcc>0.890278</hAcc><vAcc>0.720445</vAcc></extensions></trkpt>
      <trkpt lon="-4.127470" lat="53.008933"><ele>325.794769</ele><time>2021-07-17T09:36:54Z</time><extensions><speed>0.525441</speed><course>198.636932</course><hAcc>0.890240</hAcc><vAcc>0.720370</vAcc></extensions></trkpt>
      <trkpt lon="-4.127476" lat="53.008931"><ele>325.927582</ele><time>2021-07-17T09:36:55Z</time><extensions><speed>0.528843</speed><course>192.727798</course><hAcc>0.890180</hAcc><vAcc>0.720232</vAcc></extensions></trkpt>
      <trkpt lon="-4.127482" lat="53.008928"><ele>326.059998</ele><time>2021-07-17T09:36:56Z</time><extensions><speed>0.533033</speed><course>184.691818</course><hAcc>0.890096</hAcc><vAcc>0.720024</vAcc></extensions></trkpt>
      <trkpt lon="-4.127489" lat="53.008925"><ele>326.192291</ele><time>2021-07-17T09:36:57Z</time><extensions><speed>0.537962</speed><course>177.917740</course><hAcc>0.889987</hAcc><vAcc>0.719740</vAcc></extensions></trkpt>
      <trkpt lon="-4.127495" lat="53.008922"><ele>326.324768</ele><time>2021-07-17T09:36:58Z</time><extensions><speed>0.543430</speed><course>169.935883</course><hAcc>0.889851</hAcc><vAcc>0.719376</vAcc></extensions></trkpt>
      <trkpt lon="-4.127501" lat="53.008918"><ele>326.457672</ele><time>2021-07-17T09:36:58Z</time><extensions><speed>0.549118</speed><course>168.290512</course><hAcc>0.889724</hAcc><vAcc>0.718961</vAcc></extensions></trkpt>
      <trkpt lon="-4.127507" lat="53.008915"><ele>326.591919</ele><time>2021-07-17T09:36:59Z</time><extensions><speed>0.554582</speed><course>175.847488</course><hAcc>0.889607</hAcc><vAcc>0.718497</vAcc></extensions></trkpt>
      <trkpt lon="-4.127512" lat="53.008911"><ele>326.727722</ele><time>2021-07-17T09:37:00Z</time><extensions><speed>0.558790</speed><course>182.489380</course><hAcc>0.889467</hAcc><vAcc>0.717971</vAcc></extensions></trkpt>
      <trkpt lon="-4.127518" lat="53.008907"><ele>326.865234</ele><time>2021-07-17T09:37:01Z</time><extensions><speed>0.560360</speed><course>193.224472</course><hAcc>0.889308</hAcc><vAcc>0.717397</vAcc></extensions></trkpt>
      <trkpt lon="-4.127523" lat="53.008903"><ele>327.004272</ele><time>2021-07-17T09:37:02Z</time><extensions><speed>0.558303</speed><course>210.457108</course><hAcc>0.889134</hAcc><vAcc>0.716785</vAcc></extensions></trkpt>
      <trkpt lon="-4.127528" lat="53.008899"><ele>327.144287</ele><time>2021-07-17T09:37:03Z</time><extensions><speed>0.551934</speed><course>227.054108</course><hAcc>0.888950</hAcc><vAcc>0.716145</vAcc></extensions></trkpt>
      <trkpt lon="-4.127533" lat="53.008895"><ele>327.284668</ele><time>2021-07-17T09:37:04Z</time><extensions><speed>0.540835</speed><course>247.666534</course><hAcc>0.888762</hAcc><vAcc>0.715487</vAcc></extensions></trkpt>
      <trkpt lon="-4.127537" lat="53.008891"><ele>327.424561</ele><time>2021-07-17T09:37:05Z</time><extensions><speed>0.525190</speed><course>261.197876</course><hAcc>0.888573</hAcc><vAcc>0.714824</vAcc></extensions></trkpt>
      <trkpt lon="-4.127541" lat="53.008888"><ele>327.563080</ele><time>2021-07-17T09:37:06Z</time><extensions><speed>0.505608</speed><course>263.217255</course><hAcc>0.888388</hAcc><vAcc>0.714169</vAcc></extensions></trkpt>
      <trkpt lon="-4.127545" lat="53.008884"><ele>327.699402</ele><time>2021-07-17T09:37:07Z</time><extensions><speed>0.482837</speed><course>271.463165</course><hAcc>0.888211</hAcc><vAcc>0.713543</vAcc></extensions></trkpt>
      <trkpt lon="-4.127548" lat="53.008880"><ele>327.832581</ele><time>2021-07-17T09:37:08Z</time><extensions><speed>0.457916</speed><course>281.991608</course><hAcc>0.888044</hAcc><vAcc>0.712962</vAcc></extensions></trkpt>
      <trkpt lon="-4.127551" lat="53.008876"><ele>327.961670</ele><time>2021-07-17T09:37:09Z</time><extensions><speed>0.431996</speed><course>285.895782</course><hAcc>0.887889</hAcc><vAcc>0.712442</vAcc></extensions></trkpt>
      <trkpt lon="-4.127554" lat="53.008873"><ele>328.085785</ele><time>2021-07-17T09:37:10Z</time><extensions><speed>0.406245</speed><course>287.327179</course><hAcc>0.887744</hAcc><vAcc>0.711991</vAcc></extensions></trkpt>
      <trkpt lon="-4.127556" lat="53.008870"><ele>328.204590</ele><time>2021-07-17T09:37:11Z</time><extensions><speed>0.381662</speed><course>297.396240</course><hAcc>0.887608</hAcc><vAcc>0.711609</vAcc></extensions></trkpt>
      <trkpt lon="-4.127558" lat="53.008867"><ele>328.318146</ele><time>2021-07-17T09:37:12Z</time><extensions><speed>0.358837</speed><course>299.473175</course><hAcc>0.887479</hAcc><vAcc>0.711285</vAcc></extensions></trkpt>
      <trkpt lon="-4.127560" lat="53.008864"><ele>328.426666</ele><time>2021-07-17T09:37:13Z</time><extensions><speed>0.338125</speed><course>297.683289</course><hAcc>0.887352</hAcc><vAcc>0.710996</vAcc></extensions></trkpt>
      <trkpt lon="-4.127562" lat="53.008861"><ele>328.530426</ele><time>2021-07-17T09:37:14Z</time><extensions><speed>0.319965</speed><course>292.365356</course><hAcc>0.887225</hAcc><vAcc>0.710708</vAcc></extensions></trkpt>
      <trkpt lon="-4.127563" lat="53.008858"><ele>328.629639</ele><time>2021-07-17T09:37:15Z</time><extensions><speed>0.305181</speed><course>291.092651</course><hAcc>0.887095</hAcc><vAcc>0.710385</vAcc></extensions></trkpt>
      <trkpt lon="-4.127564" lat="53.008856"><ele>328.724762</ele><time>2021-07-17T09:37:16Z</time><extensions><speed>0.294803</speed><course>297.007721</course><hAcc>0.886961</hAcc><vAcc>0.709999</vAcc></extensions></trkpt>
      <trkpt lon="-4.127565" lat="53.008853"><ele>328.816406</ele><time>2021-07-17T09:37:17Z</time><extensions><speed>0.289596</speed><course>291.539093</course><hAcc>0.886824</hAcc><vAcc>0.709538</vAcc></extensions></trkpt>
      <trkpt lon="-4.127565" lat="53.008850"><ele>328.905426</ele><time>2021-07-17T09:37:18Z</time><extensions><speed>0.289789</speed><course>293.314819</course><hAcc>0.886688</hAcc><vAcc>0.709014</vAcc></extensions></trkpt>
      <trkpt lon="-4.127565" lat="53.008848"><ele>328.992828</ele><time>2021-07-17T09:37:19Z</time><extensions><speed>0.294631</speed><course>297.043213</course><hAcc>0.886558</hAcc><vAcc>0.708460</vAcc></extensions></trkpt>
      <trkpt lon="-4.127565" lat="53.008845"><ele>329.079590</ele><time>2021-07-17T09:37:20Z</time><extensions><speed>0.302631</speed><course>301.573547</course><hAcc>0.886441</hAcc><vAcc>0.707925</vAcc></extensions></trkpt>
      <trkpt lon="-4.127565" lat="53.008842"><ele>329.166412</ele><time>2021-07-17T09:37:21Z</time><extensions><speed>0.312498</speed><course>305.542847</course><hAcc>0.886344</hAcc><vAcc>0.707463</vAcc></extensions></trkpt>
      <trkpt lon="-4.127565" lat="53.008840"><ele>329.253662</ele><time>2021-07-17T09:37:22Z</time><extensions><speed>0.323627</speed><course>304.461029</course><hAcc>0.886275</hAcc><vAcc>0.707121</vAcc></extensions></trkpt>
      <trkpt lon="-4.127565" lat="53.008837"><ele>329.341431</ele><time>2021-07-17T09:37:23Z</time><extensions><speed>0.336089</speed><course>304.519958</course><hAcc>0.886241</hAcc><vAcc>0.706931</vAcc></extensions></trkpt>
      <trkpt lon="-4.127565" lat="53.008833"><ele>329.429718</ele><time>2021-07-17T09:37:24Z</time><extensions><speed>0.350349</speed><course>306.835541</course><hAcc>0.886245</hAcc><vAcc>0.706910</vAcc></extensions></trkpt>
      <trkpt lon="-4.127566" lat="53.008830"><ele>329.518707</ele><time>2021-07-17T09:37:25Z</time><extensions><speed>0.366776</speed><course>312.924469</course><hAcc>0.886290</hAcc><vAcc>0.707059</vAcc></extensions></trkpt>
      <trkpt lon="-4.127567" lat="53.008827"><ele>329.608673</ele><time>2021-07-17T09:37:27Z</time><extensions><speed>0.385218</speed><course>313.121582</course><hAcc>0.886356</hAcc><vAcc>0.707350</vAcc></extensions></trkpt>
      <trkpt lon="-4.127569" lat="53.008824"><ele>329.699646</ele><time>2021-07-17T09:37:28Z</time><extensions><speed>0.404842</speed><course>312.363678</course><hAcc>0.886438</hAcc><vAcc>0.707755</vAcc></extensions></trkpt>
      <trkpt lon="-4.127571" lat="53.008820"><ele>329.791718</ele><time>2021-07-17T09:37:29Z</time><extensions><speed>0.424253</speed><course>309.905548</course><hAcc>0.886547</hAcc><vAcc>0.708248</vAcc></extensions></trkpt>
      <trkpt lon="-4.127573" lat="53.008816"><ele>329.884827</ele><time>2021-07-17T09:37:30Z</time><extensions><speed>0.441647</speed><course>308.597687</course><hAcc>0.886676</hAcc><vAcc>0.708787</vAcc></extensions></trkpt>
      <trkpt lon="-4.127575" lat="53.008813"><ele>329.978973</ele><time>2021-07-17T09:37:31Z</time><extensions><speed>0.455842</speed><course>307.103394</course><hAcc>0.886815</hAcc><vAcc>0.709333</vAcc></extensions></trkpt>
      <trkpt lon="-4.127578" lat="53.008809"><ele>330.074341</ele><time>2021-07-17T09:37:32Z</time><extensions><speed>0.466877</speed><course>306.897400</course><hAcc>0.886956</hAcc><vAcc>0.709854</vAcc></extensions></trkpt>
      <trkpt lon="-4.127581" lat="53.008805"><ele>330.171204</ele><time>2021-07-17T09:37:33Z</time><extensions><speed>0.475441</speed><course>302.152618</course><hAcc>0.887092</hAcc><vAcc>0.710326</vAcc></extensions></trkpt>
      <trkpt lon="-4.127584" lat="53.008801"><ele>330.269958</ele><time>2021-07-17T09:37:34Z</time><extensions><speed>0.482394</speed><course>297.726410</course><hAcc>0.887218</hAcc><vAcc>0.710734</vAcc></extensions></trkpt>
      <trkpt lon="-4.127588" lat="53.008797"><ele>330.371063</ele><time>2021-07-17T09:37:35Z</time><extensions><speed>0.488281</speed><course>300.194183</course><hAcc>0.887328</hAcc><vAcc>0.711073</vAcc></extensions></trkpt>
      <trkpt lon="-4.127591" lat="53.008793"><ele>330.474884</ele><time>2021-07-17T09:37:36Z</time><extensions><speed>0.493074</speed><course>297.151825</course><hAcc>0.887421</hAcc><vAcc>0.711345</vAcc></extensions></trkpt>
      <trkpt lon="-4.127594" lat="53.008789"><ele>330.581543</ele><time>2021-07-17T09:37:37Z</time><extensions><speed>0.496578</speed><course>298.399384</course><hAcc>0.887494</hAcc><vAcc>0.711557</vAcc></extensions></trkpt>
      <trkpt lon="-4.127597" lat="53.008785"><ele>330.690918</ele><time>2021-07-17T09:37:38Z</time><extensions><speed>0.498554</speed><course>300.837921</course><hAcc>0.887546</hAcc><vAcc>0.711714</vAcc></extensions></trkpt>
      <trkpt lon="-4.127600" lat="53.008781"><ele>330.802673</ele><time>2021-07-17T09:37:39Z</time><extensions><speed>0.498873</speed><course>299.844330</course><hAcc>0.887579</hAcc><vAcc>0.711819</vAcc></extensions></trkpt>
      <trkpt lon="-4.127604" lat="53.008777"><ele>330.916382</ele><time>2021-07-17T09:37:40Z</time><extensions><speed>0.497668</speed><course>300.001373</course><hAcc>0.887595</hAcc><vAcc>0.711871</vAcc></extensions></trkpt>
      <trkpt lon="-4.127607" lat="53.008773"><ele>331.031616</ele><time>2021-07-17T09:37:41Z</time><extensions><speed>0.495069</speed><course>294.568817</course><hAcc>0.887594</hAcc><vAcc>0.711871</vAcc></extensions></trkpt>
      <trkpt lon="-4.127610" lat="53.008769"><ele>331.148010</ele><time>2021-07-17T09:37:42Z</time><extensions><speed>0.491181</speed><course>300.687103</course><hAcc>0.887581</hAcc><vAcc>0.711818</vAcc></extensions></trkpt>
      <trkpt lon="-4.127613" lat="53.008765"><ele>331.264984</ele><time>2021-07-17T09:37:43Z</time><extensions><speed>0.486493</speed><course>297.691925</course><hAcc>0.887558</hAcc><vAcc>0.711714</vAcc></extensions></trkpt>
      <trkpt lon="-4.127616" lat="53.008761"><ele>331.381989</ele><time>2021-07-17T09:37:44Z</time><extensions><speed>0.481822</speed><course>293.928223</course><hAcc>0.887531</hAcc><vAcc>0.711571</vAcc></extensions></trkpt>
      <trkpt lon="-4.127619" lat="53.008757"><ele>331.498718</ele><time>2021-07-17T09:37:45Z</time><extensions><speed>0.478159</speed><course>297.041656</course><hAcc>0.887503</hAcc><vAcc>0.711407</vAcc></extensions></trkpt>
      <trkpt lon="-4.127623" lat="53.008754"><ele>331.615356</ele><time>2021-07-17T09:37:46Z</time><extensions><speed>0.476304</speed><course>298.722290</course><hAcc>0.887478</hAcc><vAcc>0.711249</vAcc></extensions></trkpt>
      <trkpt lon="-4.127626" lat="53.008750"><ele>331.732086</ele><time>2021-07-17T09:37:47Z</time><extensions><speed>0.476888</speed><course>296.674316</course><hAcc>0.887459</hAcc><vAcc>0.711127</vAcc></extensions></trkpt>
      <trkpt lon="-4.127630" lat="53.008746"><ele>331.849365</ele><time>2021-07-17T09:37:48Z</time><extensions><speed>0.479847</speed><course>301.147156</course><hAcc>0.887448</hAcc><vAcc>0.711066</vAcc></extensions></trkpt>
      <trkpt lon="-4.127633" lat="53.008742"><ele>331.967438</ele><time>2021-07-17T09:37:49Z</time><extensions><speed>0.483930</speed><course>301.618805</course><hAcc>0.887448</hAcc><vAcc>0.711080</vAcc></extensions></trkpt>
      <trkpt lon="-4.127637" lat="53.008739"><ele>332.086456</ele><time>2021-07-17T09:37:50Z</time><extensions><speed>0.488234</speed><course>300.678009</course><hAcc>0.887459</hAcc><vAcc>0.711162</vAcc></extensions></trkpt>
      <trkpt lon="-4.127641" lat="53.008735"><ele>332.206451</ele><time>2021-07-17T09:37:51Z</time><extensions><speed>0.492609</speed><course>306.078644</course><hAcc>0.887480</hAcc><vAcc>0.711292</vAcc></extensions></trkpt>
      <trkpt lon="-4.127645" lat="53.008731"><ele>332.327393</ele><time>2021-07-17T09:37:52Z</time><extensions><speed>0.496955</speed><course>302.099213</course><hAcc>0.887510</hAcc><vAcc>0.711448</vAcc></extensions></trkpt>
      <trkpt lon="-4.127650" lat="53.008728"><ele>332.449249</ele><time>2021-07-17T09:37:53Z</time><extensions><speed>0.501489</speed><course>298.253754</course><hAcc>0.887548</hAcc><vAcc>0.711610</vAcc></extensions></trkpt>
      <trkpt lon="-4.127654" lat="53.008724"><ele>332.571991</ele><time>2021-07-17T09:37:54Z</time><extensions><speed>0.506550</speed><course>299.772583</course><hAcc>0.887592</hAcc><vAcc>0.711767</vAcc></extensions></trkpt>
      <trkpt lon="-4.127658" lat="53.008720"><ele>332.695526</ele><time>2021-07-17T09:37:55Z</time><extensions><speed>0.511854</speed><course>299.946075</course><hAcc>0.887640</hAcc><vAcc>0.711912</vAcc></extensions></trkpt>
      <trkpt lon="-4.127663" lat="53.008717"><ele>332.819580</ele><time>2021-07-17T09:37:56Z</time><extensions><speed>0.517076</speed><course>303.968170</course><hAcc>0.887693</hAcc><vAcc>0.712048</vAcc></extensions></trkpt>
      <trkpt lon="-4.127667" lat="53.008713"><ele>332.944061</ele><time>2021-07-17T09:37:57Z</time><extensions><speed>0.522341</speed><course>302.223755</course><hAcc>0.887749</hAcc><vAcc>0.712181</vAcc></extensions></trkpt>
      <trkpt lon="-4.127672" lat="53.008709"><ele>333.069061</ele><time>2021-07-17T09:37:58Z</time><extensions><speed>0.527991</speed><course>303.590851</course><hAcc>0.887810</hAcc><vAcc>0.712324</vAcc></extensions></trkpt>
      <trkpt lon="-4.127676" lat="53.008705"><ele>333.194977</ele><time>2021-07-17T09:37:59Z</time><extensions><speed>0.534969</speed><course>302.656281</course><hAcc>0.887876</hAcc><vAcc>0.712493</vAcc></extensions></trkpt>
      <trkpt lon="-4.127681" lat="53.008701"><ele>333.322083</ele><time>2021-07-17T09:38:00Z</time><extensions><speed>0.544071</speed><course>307.857574</course><hAcc>0.887946</hAcc><vAcc>0.712700</vAcc></extensions></trkpt>
      <trkpt lon="-4.127686" lat="53.008697"><ele>333.450470</ele><time>2021-07-17T09:38:01Z</time><extensions><speed>0.555124</speed><course>306.241272</course><hAcc>0.888020</hAcc><vAcc>0.712951</vAcc></extensions></trkpt>
      <trkpt lon="-4.127690" lat="53.008693"><ele>333.580261</ele><time>2021-07-17T09:38:02Z</time><extensions><speed>0.567722</speed><course>302.560516</course><hAcc>0.888097</hAcc><vAcc>0.713241</vAcc></extensions></trkpt>
      <trkpt lon="-4.127695" lat="53.008689"><ele>333.711548</ele><time>2021-07-17T09:38:03Z</time><extensions><speed>0.581286</speed><course>304.207947</course><hAcc>0.888177</hAcc><vAcc>0.713557</vAcc></extensions></trkpt>
      <trkpt lon="-4.127700" lat="53.008684"><ele>333.844299</ele><time>2021-07-17T09:38:04Z</time><extensions><speed>0.595026</speed><course>304.678192</course><hAcc>0.888256</hAcc><vAcc>0.713875</vAcc></extensions></trkpt>
      <trkpt lon="-4.127706" lat="53.008680"><ele>333.978363</ele><time>2021-07-17T09:38:05Z</time><extensions><speed>0.608334</speed><course>300.816559</course><hAcc>0.888335</hAcc><vAcc>0.714173</vAcc></extensions></trkpt>
      <trkpt lon="-4.127711" lat="53.008675"><ele>334.113800</ele><time>2021-07-17T09:38:06Z</time><extensions><speed>0.620836</speed><course>302.457642</course><hAcc>0.888409</hAcc><vAcc>0.714433</vAcc></extensions></trkpt>
      <trkpt lon="-4.127716" lat="53.008671"><ele>334.251007</ele><time>2021-07-17T09:38:07Z</time><extensions><speed>0.632683</speed><course>303.405792</course><hAcc>0.888479</hAcc><vAcc>0.714649</vAcc></extensions></trkpt>
      <trkpt lon="-4.127721" lat="53.008666"><ele>334.390594</ele><time>2021-07-17T09:38:08Z</time><extensions><speed>0.644206</speed><course>305.179382</course><hAcc>0.888543</hAcc><vAcc>0.714822</vAcc></extensions></trkpt>
      <trkpt lon="-4.127727" lat="53.008661"><ele>334.533020</ele><time>2021-07-17T09:38:09Z</time><extensions><speed>0.655508</speed><course>301.811188</course><hAcc>0.888598</hAcc><vAcc>0.714963</vAcc></extensions></trkpt>
      <trkpt lon="-4.127732" lat="53.008656"><ele>334.678864</ele><time>2021-07-17T09:38:10Z</time><extensions><speed>0.666857</speed><course>294.111877</course><hAcc>0.888645</hAcc><vAcc>0.715084</vAcc></extensions></trkpt>
      <trkpt lon="-4.127737" lat="53.008651"><ele>334.828552</ele><time>2021-07-17T09:38:11Z</time><extensions><speed>0.678358</speed><course>291.186249</course><hAcc>0.888683</hAcc><vAcc>0.715193</vAcc></extensions></trkpt>
      <trkpt lon="-4.127742" lat="53.008646"><ele>334.982330</ele><time>2021-07-17T09:38:12Z</time><extensions><speed>0.689472</speed><course>291.833313</course><hAcc>0.888712</hAcc><vAcc>0.715293</vAcc></extensions></trkpt>
      <trkpt lon="-4.127748" lat="53.008640"><ele>335.140411</ele><time>2021-07-17T09:38:13Z</time><extensions><speed>0.699588</speed><course>293.198639</course><hAcc>0.888733</hAcc><vAcc>0.715379</vAcc></extensions></trkpt>
      <trkpt lon="-4.127753" lat="53.008635"><ele>335.302765</ele><time>2021-07-17T09:38:14Z</time><extensions><speed>0.708197</speed><course>297.953094</course><hAcc>0.888747</hAcc><vAcc>0.715442</vAcc></extensions></trkpt>
      <trkpt lon="-4.127758" lat="53.008629"><ele>335.469330</ele><time>2021-07-17T09:38:15Z</time><extensions><speed>0.714548</speed><course>294.998413</course><hAcc>0.888756</hAcc><vAcc>0.715475</vAcc></extensions></trkpt>
      <trkpt lon="-4.127763" lat="53.008623"><ele>335.640045</ele><time>2021-07-17T09:38:16Z</time><extensions><speed>0.717949</speed><course>290.333923</course><hAcc>0.888759</hAcc><vAcc>0.715476</vAcc></extensions></trkpt>
      <trkpt lon="-4.127767" lat="53.008618"><ele>335.814911</ele><time>2021-07-17T09:38:17Z</time><extensions><speed>0.718169</speed><course>297.336884</course><hAcc>0.888759</hAcc><vAcc>0.715450</vAcc></extensions></trkpt>
      <trkpt lon="-4.127772" lat="53.008612"><ele>335.993744</ele><time>2021-07-17T09:38:18Z</time><extensions><speed>0.715301</speed><course>291.763641</course><hAcc>0.888756</hAcc><vAcc>0.715405</vAcc></extensions></trkpt>
      <trkpt lon="-4.127777" lat="53.008606"><ele>336.176270</ele><time>2021-07-17T09:38:19Z</time><extensions><speed>0.709431</speed><course>293.588959</course><hAcc>0.888751</hAcc><vAcc>0.715356</vAcc></extensions></trkpt>
      <trkpt lon="-4.127781" lat="53.008600"><ele>336.362030</ele><time>2021-07-17T09:38:20Z</time><extensions><speed>0.700699</speed><course>298.534668</course><hAcc>0.888747</hAcc><vAcc>0.715315</vAcc></extensions></trkpt>
      <trkpt lon="-4.127785" lat="53.008594"><ele>336.550293</ele><time>2021-07-17T09:38:21Z</time><extensions><speed>0.689466</speed><course>294.834351</course><hAcc>0.888745</hAcc><vAcc>0.715290</vAcc></extensions></trkpt>
      <trkpt lon="-4.127789" lat="53.008589"><ele>336.740295</ele><time>2021-07-17T09:38:22Z</time><extensions><speed>0.675915</speed><course>297.698059</course><hAcc>0.888745</hAcc><vAcc>0.715285</vAcc></extensions></trkpt>
      <trkpt lon="-4.127793" lat="53.008583"><ele>336.931396</ele><time>2021-07-17T09:38:23Z</time><extensions><speed>0.660143</speed><course>298.511444</course><hAcc>0.888751</hAcc><vAcc>0.715301</vAcc></extensions></trkpt>
      <trkpt lon="-4.127797" lat="53.008578"><ele>337.123474</ele><time>2021-07-17T09:38:24Z</time><extensions><speed>0.642534</speed><course>303.054443</course><hAcc>0.888764</hAcc><vAcc>0.715338</vAcc></extensions></trkpt>
      <trkpt lon="-4.127801" lat="53.008573"><ele>337.316498</ele><time>2021-07-17T09:38:25Z</time><extensions><speed>0.623781</speed><course>300.594757</course><hAcc>0.888784</hAcc><vAcc>0.715397</vAcc></extensions></trkpt>
      <trkpt lon="-4.127804" lat="53.008568"><ele>337.510254</ele><time>2021-07-17T09:38:26Z</time><extensions><speed>0.604529</speed><course>303.489990</course><hAcc>0.888813</hAcc><vAcc>0.715478</vAcc></extensions></trkpt>
      <trkpt lon="-4.127808" lat="53.008563"><ele>337.704346</ele><time>2021-07-17T09:38:27Z</time><extensions><speed>0.585243</speed><course>307.296783</course><hAcc>0.888851</hAcc><vAcc>0.715584</vAcc></extensions></trkpt>
      <trkpt lon="-4.127811" lat="53.008558"><ele>337.898407</ele><time>2021-07-17T09:38:28Z</time><extensions><speed>0.566707</speed><course>306.846466</course><hAcc>0.888899</hAcc><vAcc>0.715717</vAcc></extensions></trkpt>
      <trkpt lon="-4.127815" lat="53.008554"><ele>338.092285</ele><time>2021-07-17T09:38:29Z</time><extensions><speed>0.549905</speed><course>314.303711</course><hAcc>0.888955</hAcc><vAcc>0.715884</vAcc></extensions></trkpt>
      <trkpt lon="-4.127819" lat="53.008549"><ele>338.285736</ele><time>2021-07-17T09:38:30Z</time><extensions><speed>0.535516</speed><course>316.753265</course><hAcc>0.889020</hAcc><vAcc>0.716087</vAcc></extensions></trkpt>
      <trkpt lon="-4.127823" lat="53.008545"><ele>338.478455</ele><time>2021-07-17T09:38:31Z</time><extensions><speed>0.523988</speed><course>312.101562</course><hAcc>0.889093</hAcc><vAcc>0.716324</vAcc></extensions></trkpt>
      <trkpt lon="-4.127828" lat="53.008541"><ele>338.669952</ele><time>2021-07-17T09:38:32Z</time><extensions><speed>0.515529</speed><course>310.983948</course><hAcc>0.889173</hAcc><vAcc>0.716590</vAcc></extensions></trkpt>
      <trkpt lon="-4.127832" lat="53.008538"><ele>338.859863</ele><time>2021-07-17T09:38:33Z</time><extensions><speed>0.510177</speed><course>316.824890</course><hAcc>0.889258</hAcc><vAcc>0.716876</vAcc></extensions></trkpt>
      <trkpt lon="-4.127837" lat="53.008534"><ele>339.047821</ele><time>2021-07-17T09:38:34Z</time><extensions><speed>0.507627</speed><course>324.005005</course><hAcc>0.889347</hAcc><vAcc>0.717171</vAcc></extensions></trkpt>
      <trkpt lon="-4.127842" lat="53.008531"><ele>339.233643</ele><time>2021-07-17T09:38:35Z</time><extensions><speed>0.507158</speed><course>322.091736</course><hAcc>0.889438</hAcc><vAcc>0.717464</vAcc></extensions></trkpt>
      <trkpt lon="-4.127848" lat="53.008528"><ele>339.417297</ele><time>2021-07-17T09:38:36Z</time><extensions><speed>0.508118</speed><course>322.830170</course><hAcc>0.889513</hAcc><vAcc>0.717733</vAcc></extensions></trkpt>
      <trkpt lon="-4.127853" lat="53.008525"><ele>339.598297</ele><time>2021-07-17T09:38:37Z</time><extensions><speed>0.510239</speed><course>325.823517</course><hAcc>0.889569</hAcc><vAcc>0.717968</vAcc></extensions></trkpt>
      <trkpt lon="-4.127859" lat="53.008522"><ele>339.776581</ele><time>2021-07-17T09:38:38Z</time><extensions><speed>0.513701</speed><course>331.853210</course><hAcc>0.889623</hAcc><vAcc>0.718176</vAcc></extensions></trkpt>
      <trkpt lon="-4.127865" lat="53.008519"><ele>339.951965</ele><time>2021-07-17T09:38:39Z</time><extensions><speed>0.518762</speed><course>331.260956</course><hAcc>0.889673</hAcc><vAcc>0.718352</vAcc></extensions></trkpt>
      <trkpt lon="-4.127871" lat="53.008516"><ele>340.124420</ele><time>2021-07-17T09:38:40Z</time><extensions><speed>0.525594</speed><course>329.072571</course><hAcc>0.889718</hAcc><vAcc>0.718495</vAcc></extensions></trkpt>
      <trkpt lon="-4.127877" lat="53.008513"><ele>340.294067</ele><time>2021-07-17T09:38:41Z</time><extensions><speed>0.534182</speed><course>325.473938</course><hAcc>0.889758</hAcc><vAcc>0.718608</vAcc></extensions></trkpt>
      <trkpt lon="-4.127884" lat="53.008510"><ele>340.461090</ele><time>2021-07-17T09:38:42Z</time><extensions><speed>0.543989</speed><course>325.383026</course><hAcc>0.889794</hAcc><vAcc>0.718698</vAcc></extensions></trkpt>
      <trkpt lon="-4.127890" lat="53.008507"><ele>340.625793</ele><time>2021-07-17T09:38:43Z</time><extensions><speed>0.554251</speed><course>325.061401</course><hAcc>0.889826</hAcc><vAcc>0.718774</vAcc></extensions></trkpt>
      <trkpt lon="-4.127897" lat="53.008504"><ele>340.788574</ele><time>2021-07-17T09:38:44Z</time><extensions><speed>0.564384</speed><course>325.207275</course><hAcc>0.889855</hAcc><vAcc>0.718846</vAcc></extensions></trkpt>
      <trkpt lon="-4.127903" lat="53.008501"><ele>340.949921</ele><time>2021-07-17T09:38:45Z</time><extensions><speed>0.573937</speed><course>322.410889</course><hAcc>0.889883</hAcc><vAcc>0.718919</vAcc></extensions></trkpt>
      <trkpt lon="-4.127910" lat="53.008498"><ele>341.110382</ele><time>2021-07-17T09:38:46Z</time><extensions><speed>0.582760</speed><course>319.218658</course><hAcc>0.889910</hAcc><vAcc>0.718999</vAcc></extensions></trkpt>
      <trkpt lon="-4.127917" lat="53.008494"><ele>341.270416</ele><time>2021-07-17T09:38:47Z</time><extensions><speed>0.590834</speed><course>319.790588</course><hAcc>0.889938</hAcc><vAcc>0.719086</vAcc></extensions></trkpt>
      <trkpt lon="-4.127924" lat="53.008491"><ele>341.430481</ele><time>2021-07-17T09:38:48Z</time><extensions><speed>0.598217</speed><course>318.972229</course><hAcc>0.889966</hAcc><vAcc>0.719181</vAcc></extensions></trkpt>
      <trkpt lon="-4.127931" lat="53.008488"><ele>341.590942</ele><time>2021-07-17T09:38:49Z</time><extensions><speed>0.605246</speed><course>320.354065</course><hAcc>0.889997</hAcc><vAcc>0.719285</vAcc></extensions></trkpt>
      <trkpt lon="-4.127939" lat="53.008484"><ele>341.752075</ele><time>2021-07-17T09:38:50Z</time><extensions><speed>0.612382</speed><course>320.541016</course><hAcc>0.890028</hAcc><vAcc>0.719397</vAcc></extensions></trkpt>
      <trkpt lon="-4.127946" lat="53.008481"><ele>341.914124</ele><time>2021-07-17T09:38:51Z</time><extensions><speed>0.620032</speed><course>317.906189</course><hAcc>0.890060</hAcc><vAcc>0.719514</vAcc></extensions></trkpt>
      <trkpt lon="-4.127953" lat="53.008478"><ele>342.077515</ele><time>2021-07-17T09:38:52Z</time><extensions><speed>0.628140</speed><course>316.077393</course><hAcc>0.890092</hAcc><vAcc>0.719631</vAcc></extensions></trkpt>
      <trkpt lon="-4.127961" lat="53.008474"><ele>342.242706</ele><time>2021-07-17T09:38:53Z</time><extensions><speed>0.636133</speed><course>307.356537</course><hAcc>0.890124</hAcc><vAcc>0.719744</vAcc></extensions></trkpt>
      <trkpt lon="-4.127969" lat="53.008471"><ele>342.410095</ele><time>2021-07-17T09:38:54Z</time><extensions><speed>0.643352</speed><course>302.004150</course><hAcc>0.890153</hAcc><vAcc>0.719851</vAcc></extensions></trkpt>
      <trkpt lon="-4.127976" lat="53.008468"><ele>342.579987</ele><time>2021-07-17T09:38:55Z</time><extensions><speed>0.649478</speed><course>310.520874</course><hAcc>0.890179</hAcc><vAcc>0.719948</vAcc></extensions></trkpt>
      <trkpt lon="-4.127984" lat="53.008464"><ele>342.752594</ele><time>2021-07-17T09:38:56Z</time><extensions><speed>0.654620</speed><course>307.778412</course><hAcc>0.890199</hAcc><vAcc>0.720032</vAcc></extensions></trkpt>
      <trkpt lon="-4.127992" lat="53.008461"><ele>342.928131</ele><time>2021-07-17T09:38:57Z</time><extensions><speed>0.658707</speed><course>310.132080</course><hAcc>0.890212</hAcc><vAcc>0.720099</vAcc></extensions></trkpt>
      <trkpt lon="-4.128000" lat="53.008457"><ele>343.106873</ele><time>2021-07-17T09:38:58Z</time><extensions><speed>0.661167</speed><course>310.327301</course><hAcc>0.890216</hAcc><vAcc>0.720143</vAcc></extensions></trkpt>
      <trkpt lon="-4.128008" lat="53.008454"><ele>343.289001</ele><time>2021-07-17T09:38:59Z</time><extensions><speed>0.661347</speed><course>308.925873</course><hAcc>0.890210</hAcc><vAcc>0.720158</vAcc></extensions></trkpt>
      <trkpt lon="-4.128016" lat="53.008450"><ele>343.474274</ele><time>2021-07-17T09:39:00Z</time><extensions><speed>0.659018</speed><course>308.955322</course><hAcc>0.890193</hAcc><vAcc>0.720138</vAcc></extensions></trkpt>
      <trkpt lon="-4.128024" lat="53.008447"><ele>343.662262</ele><time>2021-07-17T09:39:01Z</time><extensions><speed>0.654081</speed><course>303.152588</course><hAcc>0.890162</hAcc><vAcc>0.720080</vAcc></extensions></trkpt>
      <trkpt lon="-4.128031" lat="53.008443"><ele>343.852478</ele><time>2021-07-17T09:39:02Z</time><extensions><speed>0.646479</speed><course>313.156525</course><hAcc>0.890117</hAcc><vAcc>0.719979</vAcc></extensions></trkpt>
      <trkpt lon="-4.128039" lat="53.008439"><ele>344.044617</ele><time>2021-07-17T09:39:03Z</time><extensions><speed>0.636321</speed><course>307.864197</course><hAcc>0.890057</hAcc><vAcc>0.719835</vAcc></extensions></trkpt>
      <trkpt lon="-4.128046" lat="53.008435"><ele>344.238342</ele><time>2021-07-17T09:39:04Z</time><extensions><speed>0.623819</speed><course>309.541687</course><hAcc>0.889981</hAcc><vAcc>0.719647</vAcc></extensions></trkpt>
      <trkpt lon="-4.128052" lat="53.008432"><ele>344.433014</ele><time>2021-07-17T09:39:04Z</time><extensions><speed>0.609533</speed><course>312.130341</course><hAcc>0.889924</hAcc><vAcc>0.719446</vAcc></extensions></trkpt>
      <trkpt lon="-4.128059" lat="53.008428"><ele>344.629028</ele><time>2021-07-17T09:39:05Z</time><extensions><speed>0.593965</speed><course>310.268982</course><hAcc>0.889889</hAcc><vAcc>0.719235</vAcc></extensions></trkpt>
      <trkpt lon="-4.128065" lat="53.008424"><ele>344.825439</ele><time>2021-07-17T09:39:06Z</time><extensions><speed>0.577644</speed><course>308.247070</course><hAcc>0.889841</hAcc><vAcc>0.719002</vAcc></extensions></trkpt>
      <trkpt lon="-4.128070" lat="53.008420"><ele>345.021606</ele><time>2021-07-17T09:39:07Z</time><extensions><speed>0.560681</speed><course>304.229858</course><hAcc>0.889784</hAcc><vAcc>0.718755</vAcc></extensions></trkpt>
      <trkpt lon="-4.128076" lat="53.008416"><ele>345.216888</ele><time>2021-07-17T09:39:08Z</time><extensions><speed>0.543130</speed><course>308.310059</course><hAcc>0.889722</hAcc><vAcc>0.718505</vAcc></extensions></trkpt>
      <trkpt lon="-4.128080" lat="53.008413"><ele>345.410645</ele><time>2021-07-17T09:39:09Z</time><extensions><speed>0.525503</speed><course>311.142822</course><hAcc>0.889656</hAcc><vAcc>0.718260</vAcc></extensions></trkpt>
      <trkpt lon="-4.128085" lat="53.008409"><ele>345.602386</ele><time>2021-07-17T09:39:10Z</time><extensions><speed>0.508450</speed><course>305.518036</course><hAcc>0.889590</hAcc><vAcc>0.718027</vAcc></extensions></trkpt>
      <trkpt lon="-4.128089" lat="53.008405"><ele>345.791687</ele><time>2021-07-17T09:39:11Z</time><extensions><speed>0.492522</speed><course>303.061462</course><hAcc>0.889527</hAcc><vAcc>0.717808</vAcc></extensions></trkpt>
      <trkpt lon="-4.128093" lat="53.008401"><ele>345.978149</ele><time>2021-07-17T09:39:12Z</time><extensions><speed>0.478443</speed><course>298.232086</course><hAcc>0.889468</hAcc><vAcc>0.717606</vAcc></extensions></trkpt>
      <trkpt lon="-4.128097" lat="53.008398"><ele>346.161499</ele><time>2021-07-17T09:39:13Z</time><extensions><speed>0.467234</speed><course>289.358276</course><hAcc>0.889417</hAcc><vAcc>0.717423</vAcc></extensions></trkpt>
      <trkpt lon="-4.128101" lat="53.008394"><ele>346.341614</ele><time>2021-07-17T09:39:14Z</time><extensions><speed>0.460177</speed><course>285.924469</course><hAcc>0.889374</hAcc><vAcc>0.717264</vAcc></extensions></trkpt>
      <trkpt lon="-4.128104" lat="53.008391"><ele>346.518921</ele><time>2021-07-17T09:39:15Z</time><extensions><speed>0.458153</speed><course>280.520447</course><hAcc>0.889342</hAcc><vAcc>0.717135</vAcc></extensions></trkpt>
      <trkpt lon="-4.128108" lat="53.008387"><ele>346.694519</ele><time>2021-07-17T09:39:16Z</time><extensions><speed>0.461075</speed><course>286.862061</course><hAcc>0.889320</hAcc><vAcc>0.717044</vAcc></extensions></trkpt>
      <trkpt lon="-4.128112" lat="53.008384"><ele>346.869507</ele><time>2021-07-17T09:39:17Z</time><extensions><speed>0.467963</speed><course>295.700317</course><hAcc>0.889308</hAcc><vAcc>0.716997</vAcc></extensions></trkpt>
      <trkpt lon="-4.128117" lat="53.008381"><ele>347.044525</ele><time>2021-07-17T09:39:18Z</time><extensions><speed>0.476833</speed><course>296.161560</course><hAcc>0.889307</hAcc><vAcc>0.716994</vAcc></extensions></trkpt>
      <trkpt lon="-4.128121" lat="53.008377"><ele>347.219360</ele><time>2021-07-17T09:39:19Z</time><extensions><speed>0.485137</speed><course>298.229218</course><hAcc>0.889316</hAcc><vAcc>0.717031</vAcc></extensions></trkpt>
      <trkpt lon="-4.128126" lat="53.008374"><ele>347.393341</ele><time>2021-07-17T09:39:20Z</time><extensions><speed>0.490829</speed><course>297.545471</course><hAcc>0.889332</hAcc><vAcc>0.717104</vAcc></extensions></trkpt>
      <trkpt lon="-4.128131" lat="53.008371"><ele>347.565491</ele><time>2021-07-17T09:39:21Z</time><extensions><speed>0.492693</speed><course>292.454163</course><hAcc>0.889352</hAcc><vAcc>0.717207</vAcc></extensions></trkpt>
      <trkpt lon="-4.128137" lat="53.008368"><ele>347.734711</ele><time>2021-07-17T09:39:22Z</time><extensions><speed>0.490057</speed><course>287.195465</course><hAcc>0.889374</hAcc><vAcc>0.717326</vAcc></extensions></trkpt>
      <trkpt lon="-4.128142" lat="53.008365"><ele>347.899750</ele><time>2021-07-17T09:39:23Z</time><extensions><speed>0.482700</speed><course>283.339600</course><hAcc>0.889393</hAcc><vAcc>0.717449</vAcc></extensions></trkpt>
      <trkpt lon="-4.128148" lat="53.008363"><ele>348.059448</ele><time>2021-07-17T09:39:24Z</time><extensions><speed>0.470791</speed><course>283.687531</course><hAcc>0.889405</hAcc><vAcc>0.717555</vAcc></extensions></trkpt>
      <trkpt lon="-4.128154" lat="53.008360"><ele>348.212891</ele><time>2021-07-17T09:39:25Z</time><extensions><speed>0.454762</speed><course>284.089417</course><hAcc>0.889407</hAcc><vAcc>0.717625</vAcc></extensions></trkpt>
      <trkpt lon="-4.128159" lat="53.008358"><ele>348.359528</ele><time>2021-07-17T09:39:26Z</time><extensions><speed>0.435360</speed><course>286.432800</course><hAcc>0.889395</hAcc><vAcc>0.717642</vAcc></extensions></trkpt>
      <trkpt lon="-4.128164" lat="53.008356"><ele>348.499023</ele><time>2021-07-17T09:39:27Z</time><extensions><speed>0.413583</speed><course>288.844025</course><hAcc>0.889367</hAcc><vAcc>0.717589</vAcc></extensions></trkpt>
      <trkpt lon="-4.128169" lat="53.008354"><ele>348.631378</ele><time>2021-07-17T09:39:28Z</time><extensions><speed>0.390631</speed><course>294.600861</course><hAcc>0.889320</hAcc><vAcc>0.717457</vAcc></extensions></trkpt>
      <trkpt lon="-4.128174" lat="53.008352"><ele>348.756653</ele><time>2021-07-17T09:39:29Z</time><extensions><speed>0.367214</speed><course>289.399475</course><hAcc>0.889255</hAcc><vAcc>0.717243</vAcc></extensions></trkpt>
      <trkpt lon="-4.128178" lat="53.008350"><ele>348.875397</ele><time>2021-07-17T09:39:30Z</time><extensions><speed>0.343816</speed><course>292.462738</course><hAcc>0.889172</hAcc><vAcc>0.716949</vAcc></extensions></trkpt>
      <trkpt lon="-4.128182" lat="53.008348"><ele>348.988678</ele><time>2021-07-17T09:39:31Z</time><extensions><speed>0.321437</speed><course>292.044128</course><hAcc>0.889073</hAcc><vAcc>0.716584</vAcc></extensions></trkpt>
      <trkpt lon="-4.128186" lat="53.008347"><ele>349.097992</ele><time>2021-07-17T09:39:32Z</time><extensions><speed>0.301107</speed><course>289.426849</course><hAcc>0.888960</hAcc><vAcc>0.716161</vAcc></extensions></trkpt>
      <trkpt lon="-4.128189" lat="53.008345"><ele>349.204895</ele><time>2021-07-17T09:39:33Z</time><extensions><speed>0.284521</speed><course>292.821838</course><hAcc>0.888838</hAcc><vAcc>0.715697</vAcc></extensions></trkpt>
      <trkpt lon="-4.128192" lat="53.008343"><ele>349.310791</ele><time>2021-07-17T09:39:34Z</time><extensions><speed>0.273154</speed><course>287.405121</course><hAcc>0.888711</hAcc><vAcc>0.715216</vAcc></extensions></trkpt>
      <trkpt lon="-4.128194" lat="53.008341"><ele>349.416901</ele><time>2021-07-17T09:39:35Z</time><extensions><speed>0.266895</speed><course>289.328461</course><hAcc>0.888582</hAcc><vAcc>0.714742</vAcc></extensions></trkpt>
      <trkpt lon="-4.128197" lat="53.008339"><ele>349.524048</ele><time>2021-07-17T09:39:36Z</time><extensions><speed>0.264927</speed><course>290.686554</course><hAcc>0.888454</hAcc><vAcc>0.714295</vAcc></extensions></trkpt>
      <trkpt lon="-4.128198" lat="53.008337"><ele>349.632660</ele><time>2021-07-17T09:39:37Z</time><extensions><speed>0.266692</speed><course>291.519623</course><hAcc>0.888331</hAcc><vAcc>0.713890</vAcc></extensions></trkpt>
      <trkpt lon="-4.128200" lat="53.008335"><ele>349.742920</ele><time>2021-07-17T09:39:38Z</time><extensions><speed>0.271720</speed><course>289.260345</course><hAcc>0.888214</hAcc><vAcc>0.713534</vAcc></extensions></trkpt>
      <trkpt lon="-4.128201" lat="53.008332"><ele>349.855103</ele><time>2021-07-17T09:39:39Z</time><extensions><speed>0.279151</speed><course>291.671295</course><hAcc>0.888105</hAcc><vAcc>0.713227</vAcc></extensions></trkpt>
      <trkpt lon="-4.128202" lat="53.008330"><ele>349.969391</ele><time>2021-07-17T09:39:40Z</time><extensions><speed>0.287856</speed><course>285.797272</course><hAcc>0.888006</hAcc><vAcc>0.712959</vAcc></extensions></trkpt>
      <trkpt lon="-4.128203" lat="53.008327"><ele>350.085876</ele><time>2021-07-17T09:39:41Z</time><extensions><speed>0.296911</speed><course>284.045776</course><hAcc>0.887917</hAcc><vAcc>0.712718</vAcc></extensions></trkpt>
      <trkpt lon="-4.128204" lat="53.008325"><ele>350.204529</ele><time>2021-07-17T09:39:42Z</time><extensions><speed>0.305495</speed><course>290.744446</course><hAcc>0.887840</hAcc><vAcc>0.712489</vAcc></extensions></trkpt>
      <trkpt lon="-4.128204" lat="53.008322"><ele>350.325165</ele><time>2021-07-17T09:39:43Z</time><extensions><speed>0.312713</speed><course>286.155334</course><hAcc>0.887776</hAcc><vAcc>0.712270</vAcc></extensions></trkpt>
      <trkpt lon="-4.128205" lat="53.008319"><ele>350.447357</ele><time>2021-07-17T09:39:44Z</time><extensions><speed>0.317869</speed><course>292.078705</course><hAcc>0.887729</hAcc><vAcc>0.712065</vAcc></extensions></trkpt>
      <trkpt lon="-4.128205" lat="53.008316"><ele>350.570557</ele><time>2021-07-17T09:39:45Z</time><extensions><speed>0.320767</speed><course>292.906311</course><hAcc>0.887701</hAcc><vAcc>0.711893</vAcc></extensions></trkpt>
      <trkpt lon="-4.128206" lat="53.008313"><ele>350.694122</ele><time>2021-07-17T09:39:46Z</time><extensions><speed>0.321703</speed><course>291.462067</course><hAcc>0.887695</hAcc><vAcc>0.711781</vAcc></extensions></trkpt>
      <trkpt lon="-4.128207" lat="53.008311"><ele>350.817566</ele><time>2021-07-17T09:39:47Z</time><extensions><speed>0.321219</speed><course>290.448425</course><hAcc>0.887712</hAcc><vAcc>0.711758</vAcc></extensions></trkpt>
      <trkpt lon="-4.128208" lat="53.008308"><ele>350.940430</ele><time>2021-07-17T09:39:48Z</time><extensions><speed>0.319730</speed><course>295.857269</course><hAcc>0.887756</hAcc><vAcc>0.711848</vAcc></extensions></trkpt>
      <trkpt lon="-4.128209" lat="53.008305"><ele>351.062073</ele><time>2021-07-17T09:39:49Z</time><extensions><speed>0.317630</speed><course>298.185364</course><hAcc>0.887827</hAcc><vAcc>0.712064</vAcc></extensions></trkpt>
      <trkpt lon="-4.128210" lat="53.008302"><ele>351.181732</ele><time>2021-07-17T09:39:50Z</time><extensions><speed>0.315188</speed><course>294.469940</course><hAcc>0.887923</hAcc><vAcc>0.712403</vAcc></extensions></trkpt>
      <trkpt lon="-4.128212" lat="53.008300"><ele>351.298798</ele><time>2021-07-17T09:39:51Z</time><extensions><speed>0.312376</speed><course>292.898438</course><hAcc>0.888043</hAcc><vAcc>0.712848</vAcc></extensions></trkpt>
      <trkpt lon="-4.128214" lat="53.008297"><ele>351.412476</ele><time>2021-07-17T09:39:52Z</time><extensions><speed>0.309011</speed><course>292.422791</course><hAcc>0.888184</hAcc><vAcc>0.713373</vAcc></extensions></trkpt>
      <trkpt lon="-4.128217" lat="53.008295"><ele>351.522034</ele><time>2021-07-17T09:39:53Z</time><extensions><speed>0.304881</speed><course>292.622986</course><hAcc>0.888341</hAcc><vAcc>0.713945</vAcc></extensions></trkpt>
      <trkpt lon="-4.128220" lat="53.008293"><ele>351.627045</ele><time>2021-07-17T09:39:55Z</time><extensions><speed>0.299921</speed><course>292.749084</course><hAcc>0.888490</hAcc><vAcc>0.714515</vAcc></extensions></trkpt>
      <trkpt lon="-4.128223" lat="53.008291"><ele>351.726746</ele><time>2021-07-17T09:39:56Z</time><extensions><speed>0.294450</speed><course>294.832458</course><hAcc>0.888626</hAcc><vAcc>0.715050</vAcc></extensions></trkpt>
      <trkpt lon="-4.128226" lat="53.008289"><ele>351.820862</ele><time>2021-07-17T09:39:57Z</time><extensions><speed>0.288816</speed><course>290.563019</course><hAcc>0.888759</hAcc><vAcc>0.715539</vAcc></extensions></trkpt>
      <trkpt lon="-4.128229" lat="53.008287"><ele>351.909119</ele><time>2021-07-17T09:39:58Z</time><extensions><speed>0.283020</speed><course>288.082062</course><hAcc>0.888884</hAcc><vAcc>0.715968</vAcc></extensions></trkpt>
      <trkpt lon="-4.128232" lat="53.008286"><ele>351.991669</ele><time>2021-07-17T09:39:59Z</time><extensions><speed>0.276936</speed><course>289.238037</course><hAcc>0.888995</hAcc><vAcc>0.716330</vAcc></extensions></trkpt>
      <trkpt lon="-4.128235" lat="53.008284"><ele>352.068939</ele><time>2021-07-17T09:40:00Z</time><extensions><speed>0.270630</speed><course>289.037109</course><hAcc>0.889087</hAcc><vAcc>0.716623</vAcc></extensions></trkpt>
      <trkpt lon="-4.128239" lat="53.008283"><ele>352.141815</ele><time>2021-07-17T09:40:01Z</time><extensions><speed>0.264492</speed><course>291.884949</course><hAcc>0.889157</hAcc><vAcc>0.716846</vAcc></extensions></trkpt>
      <trkpt lon="-4.128242" lat="53.008281"><ele>352.211365</ele><time>2021-07-17T09:40:02Z</time><extensions><speed>0.259063</speed><course>287.567657</course><hAcc>0.889202</hAcc><vAcc>0.717000</vAcc></extensions></trkpt>
      <trkpt lon="-4.128245" lat="53.008280"><ele>352.278748</ele><time>2021-07-17T09:40:03Z</time><extensions><speed>0.254633</speed><course>291.768890</course><hAcc>0.889221</hAcc><vAcc>0.717081</vAcc></extensions></trkpt>
      <trkpt lon="-4.128248" lat="53.008279"><ele>352.344940</ele><time>2021-07-17T09:40:04Z</time><extensions><speed>0.251096</speed><course>296.126740</course><hAcc>0.889212</hAcc><vAcc>0.717083</vAcc></extensions></trkpt>
      <trkpt lon="-4.128251" lat="53.008277"><ele>352.410858</ele><time>2021-07-17T09:40:05Z</time><extensions><speed>0.247852</speed><course>297.059143</course><hAcc>0.889176</hAcc><vAcc>0.717000</vAcc></extensions></trkpt>
      <trkpt lon="-4.128254" lat="53.008276"><ele>352.477112</ele><time>2021-07-17T09:40:06Z</time><extensions><speed>0.243956</speed><course>303.696320</course><hAcc>0.889113</hAcc><vAcc>0.716825</vAcc></extensions></trkpt>
      <trkpt lon="-4.128256" lat="53.008274"><ele>352.543945</ele><time>2021-07-17T09:40:07Z</time><extensions><speed>0.238951</speed><course>307.460022</course><hAcc>0.889025</hAcc><vAcc>0.716552</vAcc></extensions></trkpt>
      <trkpt lon="-4.128258" lat="53.008273"><ele>352.611359</ele><time>2021-07-17T09:40:08Z</time><extensions><speed>0.233464</speed><course>302.094666</course><hAcc>0.888915</hAcc><vAcc>0.716180</vAcc></extensions></trkpt>
      <trkpt lon="-4.128260" lat="53.008271"><ele>352.679474</ele><time>2021-07-17T09:40:09Z</time><extensions><speed>0.228579</speed><course>294.763123</course><hAcc>0.888785</hAcc><vAcc>0.715717</vAcc></extensions></trkpt>
      <trkpt lon="-4.128262" lat="53.008269"><ele>352.748444</ele><time>2021-07-17T09:40:10Z</time><extensions><speed>0.225491</speed><course>292.310913</course><hAcc>0.888639</hAcc><vAcc>0.715182</vAcc></extensions></trkpt>
      <trkpt lon="-4.128263" lat="53.008267"><ele>352.818481</ele><time>2021-07-17T09:40:11Z</time><extensions><speed>0.225015</speed><course>286.252472</course><hAcc>0.888482</hAcc><vAcc>0.714604</vAcc></extensions></trkpt>
      <trkpt lon="-4.128264" lat="53.008265"><ele>352.889771</ele><time>2021-07-17T09:40:12Z</time><extensions><speed>0.226975</speed><course>277.085999</course><hAcc>0.888318</hAcc><vAcc>0.714011</vAcc></extensions></trkpt>
      <trkpt lon="-4.128265" lat="53.008263"><ele>352.962189</ele><time>2021-07-17T09:40:13Z</time><extensions><speed>0.230702</speed><course>269.880463</course><hAcc>0.888152</hAcc><vAcc>0.713426</vAcc></extensions></trkpt>
      <trkpt lon="-4.128265" lat="53.008261"><ele>353.035522</ele><time>2021-07-17T09:40:14Z</time><extensions><speed>0.235323</speed><course>256.014618</course><hAcc>0.887990</hAcc><vAcc>0.712866</vAcc></extensions></trkpt>
      <trkpt lon="-4.128265" lat="53.008259"><ele>353.109680</ele><time>2021-07-17T09:40:15Z</time><extensions><speed>0.239768</speed><course>250.524368</course><hAcc>0.887837</hAcc><vAcc>0.712344</vAcc></extensions></trkpt>
      <trkpt lon="-4.128265" lat="53.008257"><ele>353.184662</ele><time>2021-07-17T09:40:16Z</time><extensions><speed>0.243218</speed><course>237.491638</course><hAcc>0.887699</hAcc><vAcc>0.711872</vAcc></extensions></trkpt>
      <trkpt lon="-4.128264" lat="53.008255"><ele>353.260651</ele><time>2021-07-17T09:40:17Z</time><extensions><speed>0.245316</speed><course>231.976761</course><hAcc>0.887580</hAcc><vAcc>0.711463</vAcc></extensions></trkpt>
      <trkpt lon="-4.128263" lat="53.008253"><ele>353.337799</ele><time>2021-07-17T09:40:18Z</time><extensions><speed>0.246225</speed><course>228.504318</course><hAcc>0.887485</hAcc><vAcc>0.711129</vAcc></extensions></trkpt>
      <trkpt lon="-4.128263" lat="53.008250"><ele>353.416412</ele><time>2021-07-17T09:40:19Z</time><extensions><speed>0.246257</speed><course>227.577087</course><hAcc>0.887416</hAcc><vAcc>0.710883</vAcc></extensions></trkpt>
      <trkpt lon="-4.128262" lat="53.008248"><ele>353.496948</ele><time>2021-07-17T09:40:20Z</time><extensions><speed>0.246006</speed><course>219.513672</course><hAcc>0.887377</hAcc><vAcc>0.710737</vAcc></extensions></trkpt>
      <trkpt lon="-4.128262" lat="53.008246"><ele>353.580078</ele><time>2021-07-17T09:40:21Z</time><extensions><speed>0.246457</speed><course>224.903015</course><hAcc>0.887369</hAcc><vAcc>0.710699</vAcc></extensions></trkpt>
      <trkpt lon="-4.128262" lat="53.008244"><ele>353.666534</ele><time>2021-07-17T09:40:22Z</time><extensions><speed>0.248431</speed><course>222.390198</course><hAcc>0.887393</hAcc><vAcc>0.710772</vAcc></extensions></trkpt>
      <trkpt lon="-4.128262" lat="53.008242"><ele>353.757050</ele><time>2021-07-17T09:40:23Z</time><extensions><speed>0.252534</speed><course>223.313202</course><hAcc>0.887449</hAcc><vAcc>0.710952</vAcc></extensions></trkpt>
      <trkpt lon="-4.128263" lat="53.008239"><ele>353.852234</ele><time>2021-07-17T09:40:24Z</time><extensions><speed>0.259097</speed><course>224.045700</course><hAcc>0.887535</hAcc><vAcc>0.711237</vAcc></extensions></trkpt>
      <trkpt lon="-4.128263" lat="53.008237"><ele>353.952484</ele><time>2021-07-17T09:40:25Z</time><extensions><speed>0.268082</speed><course>224.975723</course><hAcc>0.887648</hAcc><vAcc>0.711623</vAcc></extensions></trkpt>
      <trkpt lon="-4.128264" lat="53.008235"><ele>354.057983</ele><time>2021-07-17T09:40:26Z</time><extensions><speed>0.279085</speed><course>226.513992</course><hAcc>0.887783</hAcc><vAcc>0.712100</vAcc></extensions></trkpt>
      <trkpt lon="-4.128266" lat="53.008232"><ele>354.168915</ele><time>2021-07-17T09:40:27Z</time><extensions><speed>0.291474</speed><course>227.291473</course><hAcc>0.887936</hAcc><vAcc>0.712656</vAcc></extensions></trkpt>
      <trkpt lon="-4.128267" lat="53.008230"><ele>354.285461</ele><time>2021-07-17T09:40:28Z</time><extensions><speed>0.304531</speed><course>231.833313</course><hAcc>0.888100</hAcc><vAcc>0.713265</vAcc></extensions></trkpt>
      <trkpt lon="-4.128269" lat="53.008227"><ele>354.407745</ele><time>2021-07-17T09:40:29Z</time><extensions><speed>0.317535</speed><course>230.421005</course><hAcc>0.888267</hAcc><vAcc>0.713898</vAcc></extensions></trkpt>
      <trkpt lon="-4.128272" lat="53.008225"><ele>354.535828</ele><time>2021-07-17T09:40:30Z</time><extensions><speed>0.330128</speed><course>235.980087</course><hAcc>0.888431</hAcc><vAcc>0.714520</vAcc></extensions></trkpt>
      <trkpt lon="-4.128274" lat="53.008222"><ele>354.669739</ele><time>2021-07-17T09:40:31Z</time><extensions><speed>0.342405</speed><course>243.213364</course><hAcc>0.888583</hAcc><vAcc>0.715095</vAcc></extensions></trkpt>
      <trkpt lon="-4.128276" lat="53.008219"><ele>354.809662</ele><time>2021-07-17T09:40:32Z</time><extensions><speed>0.354534</speed><course>253.165268</course><hAcc>0.888716</hAcc><vAcc>0.715596</vAcc></extensions></trkpt>
      <trkpt lon="-4.128279" lat="53.008216"><ele>354.955933</ele><time>2021-07-17T09:40:33Z</time><extensions><speed>0.366649</speed><course>266.505096</course><hAcc>0.888825</hAcc><vAcc>0.715998</vAcc></extensions></trkpt>
      <trkpt lon="-4.128281" lat="53.008213"><ele>355.108734</ele><time>2021-07-17T09:40:34Z</time><extensions><speed>0.378858</speed><course>267.255646</course><hAcc>0.888904</hAcc><vAcc>0.716282</vAcc></extensions></trkpt>
      <trkpt lon="-4.128284" lat="53.008210"><ele>355.268005</ele><time>2021-07-17T09:40:35Z</time><extensions><speed>0.390988</speed><course>271.176971</course><hAcc>0.888950</hAcc><vAcc>0.716438</vAcc></extensions></trkpt>
      <trkpt lon="-4.128287" lat="53.008207"><ele>355.433533</ele><time>2021-07-17T09:40:36Z</time><extensions><speed>0.402677</speed><course>283.145996</course><hAcc>0.888961</hAcc><vAcc>0.716461</vAcc></extensions></trkpt>
      <trkpt lon="-4.128289" lat="53.008204"><ele>355.605042</ele><time>2021-07-17T09:40:37Z</time><extensions><speed>0.413584</speed><course>291.499756</course><hAcc>0.888939</hAcc><vAcc>0.716355</vAcc></extensions></trkpt>
      <trkpt lon="-4.128292" lat="53.008200"><ele>355.782104</ele><time>2021-07-17T09:40:38Z</time><extensions><speed>0.423623</speed><course>295.960785</course><hAcc>0.888883</hAcc><vAcc>0.716129</vAcc></extensions></trkpt>
      <trkpt lon="-4.128294" lat="53.008197"><ele>355.964142</ele><time>2021-07-17T09:40:39Z</time><extensions><speed>0.432860</speed><course>298.309418</course><hAcc>0.888799</hAcc><vAcc>0.715798</vAcc></extensions></trkpt>
      <trkpt lon="-4.128296" lat="53.008193"><ele>356.150391</ele><time>2021-07-17T09:40:40Z</time><extensions><speed>0.441397</speed><course>301.442566</course><hAcc>0.888691</hAcc><vAcc>0.715380</vAcc></extensions></trkpt>
      <trkpt lon="-4.128298" lat="53.008189"><ele>356.340088</ele><time>2021-07-17T09:40:41Z</time><extensions><speed>0.449445</speed><course>301.820831</course><hAcc>0.888564</hAcc><vAcc>0.714899</vAcc></extensions></trkpt>
      <trkpt lon="-4.128300" lat="53.008185"><ele>356.532471</ele><time>2021-07-17T09:40:42Z</time><extensions><speed>0.456959</speed><course>306.533081</course><hAcc>0.888424</hAcc><vAcc>0.714380</vAcc></extensions></trkpt>
      <trkpt lon="-4.128302" lat="53.008181"><ele>356.726685</ele><time>2021-07-17T09:40:43Z</time><extensions><speed>0.463770</speed><course>310.759277</course><hAcc>0.888278</hAcc><vAcc>0.713849</vAcc></extensions></trkpt>
      <trkpt lon="-4.128304" lat="53.008177"><ele>356.921967</ele><time>2021-07-17T09:40:44Z</time><extensions><speed>0.469636</speed><course>315.721252</course><hAcc>0.888131</hAcc><vAcc>0.713326</vAcc></extensions></trkpt>
      <trkpt lon="-4.128306" lat="53.008173"><ele>357.117798</ele><time>2021-07-17T09:40:45Z</time><extensions><speed>0.474229</speed><course>321.376434</course><hAcc>0.887990</hAcc><vAcc>0.712830</vAcc></extensions></trkpt>
      <trkpt lon="-4.128308" lat="53.008169"><ele>357.313782</ele><time>2021-07-17T09:40:46Z</time><extensions><speed>0.477415</speed><course>321.893402</course><hAcc>0.887860</hAcc><vAcc>0.712376</vAcc></extensions></trkpt>
      <trkpt lon="-4.128310" lat="53.008165"><ele>357.509644</ele><time>2021-07-17T09:40:47Z</time><extensions><speed>0.479161</speed><course>325.867676</course><hAcc>0.887745</hAcc><vAcc>0.711979</vAcc></extensions></trkpt>
      <trkpt lon="-4.128312" lat="53.008161"><ele>357.704987</ele><time>2021-07-17T09:40:48Z</time><extensions><speed>0.479501</speed><course>319.975250</course><hAcc>0.887647</hAcc><vAcc>0.711650</vAcc></extensions></trkpt>
      <trkpt lon="-4.128313" lat="53.008157"><ele>357.899536</ele><time>2021-07-17T09:40:49Z</time><extensions><speed>0.478584</speed><course>320.826599</course><hAcc>0.887569</hAcc><vAcc>0.711398</vAcc></extensions></trkpt>
      <trkpt lon="-4.128315" lat="53.008152"><ele>358.093140</ele><time>2021-07-17T09:40:50Z</time><extensions><speed>0.476741</speed><course>320.826599</course><hAcc>0.887511</hAcc><vAcc>0.711227</vAcc></extensions></trkpt>
      <trkpt lon="-4.128317" lat="53.008148"><ele>358.285797</ele><time>2021-07-17T09:40:51Z</time><extensions><speed>0.474149</speed><course>320.826599</course><hAcc>0.887473</hAcc><vAcc>0.711133</vAcc></extensions></trkpt>
      <trkpt lon="-4.128319" lat="53.008144"><ele>358.477234</ele><time>2021-07-17T09:40:52Z</time><extensions><speed>0.470858</speed><course>320.826599</course><hAcc>0.887454</hAcc><vAcc>0.711109</vAcc></extensions></trkpt>
      <trkpt lon="-4.128320" lat="53.008140"><ele>358.667084</ele><time>2021-07-17T09:40:53Z</time><extensions><speed>0.466968</speed><course>320.826599</course><hAcc>0.887453</hAcc><vAcc>0.711141</vAcc></extensions></trkpt>
      <trkpt lon="-4.128322" lat="53.008136"><ele>358.854980</ele><time>2021-07-17T09:40:54Z</time><extensions><speed>0.462722</speed><course>320.826599</course><hAcc>0.887466</hAcc><vAcc>0.711215</vAcc></extensions></trkpt>
      <trkpt lon="-4.128324" lat="53.008132"><ele>359.040771</ele><time>2021-07-17T09:40:55Z</time><extensions><speed>0.458625</speed><course>320.826599</course><hAcc>0.887494</hAcc><vAcc>0.711319</vAcc></extensions></trkpt>
      <trkpt lon="-4.128325" lat="53.008128"><ele>359.224609</ele><time>2021-07-17T09:40:56Z</time><extensions><speed>0.455036</speed><course>320.826599</course><hAcc>0.887532</hAcc><vAcc>0.711449</vAcc></extensions></trkpt>
      <trkpt lon="-4.128327" lat="53.008124"><ele>359.406891</ele><time>2021-07-17T09:40:57Z</time><extensions><speed>0.452429</speed><course>320.826599</course><hAcc>0.887581</hAcc><vAcc>0.711598</vAcc></extensions></trkpt>
      <trkpt lon="-4.128329" lat="53.008120"><ele>359.587982</ele><time>2021-07-17T09:40:58Z</time><extensions><speed>0.451468</speed><course>320.826599</course><hAcc>0.887638</hAcc><vAcc>0.711766</vAcc></extensions></trkpt>
      <trkpt lon="-4.128331" lat="53.008116"><ele>359.768188</ele><time>2021-07-17T09:40:59Z</time><extensions><speed>0.452484</speed><course>320.826599</course><hAcc>0.887702</hAcc><vAcc>0.711950</vAcc></extensions></trkpt>
      <trkpt lon="-4.128333" lat="53.008112"><ele>359.948090</ele><time>2021-07-17T09:41:00Z</time><extensions><speed>0.455621</speed><course>320.826599</course><hAcc>0.887774</hAcc><vAcc>0.712151</vAcc></extensions></trkpt>
      <trkpt lon="-4.128335" lat="53.008108"><ele>360.128662</ele><time>2021-07-17T09:41:01Z</time><extensions><speed>0.460994</speed><course>320.826599</course><hAcc>0.887853</hAcc><vAcc>0.712367</vAcc></extensions></trkpt>
      <trkpt lon="-4.128337" lat="53.008104"><ele>360.310944</ele><time>2021-07-17T09:41:02Z</time><extensions><speed>0.468201</speed><course>320.826599</course><hAcc>0.887920</hAcc><vAcc>0.712584</vAcc></extensions></trkpt>
      <trkpt lon="-4.128339" lat="53.008100"><ele>360.495270</ele><time>2021-07-17T09:41:03Z</time><extensions><speed>0.476574</speed><course>320.826599</course><hAcc>0.887973</hAcc><vAcc>0.712801</vAcc></extensions></trkpt>
      <trkpt lon="-4.128342" lat="53.008096"><ele>360.682129</ele><time>2021-07-17T09:41:04Z</time><extensions><speed>0.485611</speed><course>320.826599</course><hAcc>0.888029</hAcc><vAcc>0.713027</vAcc></extensions></trkpt>
      <trkpt lon="-4.128344" lat="53.008092"><ele>360.871552</ele><time>2021-07-17T09:41:05Z</time><extensions><speed>0.494619</speed><course>320.826599</course><hAcc>0.888084</hAcc><vAcc>0.713256</vAcc></extensions></trkpt>
      <trkpt lon="-4.128347" lat="53.008088"><ele>361.063293</ele><time>2021-07-17T09:41:06Z</time><extensions><speed>0.502836</speed><course>320.826599</course><hAcc>0.888134</hAcc><vAcc>0.713480</vAcc></extensions></trkpt>
      <trkpt lon="-4.128350" lat="53.008084"><ele>361.256744</ele><time>2021-07-17T09:41:07Z</time><extensions><speed>0.509483</speed><course>320.826599</course><hAcc>0.888175</hAcc><vAcc>0.713691</vAcc></extensions></trkpt>
      <trkpt lon="-4.128353" lat="53.008080"><ele>361.451294</ele><time>2021-07-17T09:41:08Z</time><extensions><speed>0.513820</speed><course>320.826599</course><hAcc>0.888202</hAcc><vAcc>0.713878</vAcc></extensions></trkpt>
      <trkpt lon="-4.128356" lat="53.008075"><ele>361.646423</ele><time>2021-07-17T09:41:09Z</time><extensions><speed>0.515428</speed><course>320.826599</course><hAcc>0.888211</hAcc><vAcc>0.714022</vAcc></extensions></trkpt>
      <trkpt lon="-4.128358" lat="53.008071"><ele>361.841736</ele><time>2021-07-17T09:41:10Z</time><extensions><speed>0.514405</speed><course>320.826569</course><hAcc>0.888198</hAcc><vAcc>0.714103</vAcc></extensions></trkpt>
      <trkpt lon="-4.128361" lat="53.008067"><ele>362.036285</ele><time>2021-07-17T09:41:10Z</time><extensions><speed>0.511345</speed><course>320.826569</course><hAcc>0.888196</hAcc><vAcc>0.714129</vAcc></extensions></trkpt>
      <trkpt lon="-4.128363" lat="53.008062"><ele>362.230255</ele><time>2021-07-17T09:41:11Z</time><extensions><speed>0.507146</speed><course>320.826569</course><hAcc>0.888203</hAcc><vAcc>0.714091</vAcc></extensions></trkpt>
      <trkpt lon="-4.128365" lat="53.008058"><ele>362.422424</ele><time>2021-07-17T09:41:12Z</time><extensions><speed>0.502724</speed><course>320.826569</course><hAcc>0.888184</hAcc><vAcc>0.713966</vAcc></extensions></trkpt>
      <trkpt lon="-4.128367" lat="53.008054"><ele>362.612030</ele><time>2021-07-17T09:41:13Z</time><extensions><speed>0.498862</speed><course>306.179871</course><hAcc>0.888142</hAcc><vAcc>0.713761</vAcc></extensions></trkpt>
      <trkpt lon="-4.128368" lat="53.008049"><ele>362.798401</ele><time>2021-07-17T09:41:14Z</time><extensions><speed>0.496245</speed><course>252.340622</course><hAcc>0.888079</hAcc><vAcc>0.713489</vAcc></extensions></trkpt>
      <trkpt lon="-4.128368" lat="53.008045"><ele>362.980957</ele><time>2021-07-17T09:41:15Z</time><extensions><speed>0.495310</speed><course>240.417450</course><hAcc>0.887999</hAcc><vAcc>0.713165</vAcc></extensions></trkpt>
      <trkpt lon="-4.128368" lat="53.008040"><ele>363.159149</ele><time>2021-07-17T09:41:16Z</time><extensions><speed>0.496150</speed><course>226.735764</course><hAcc>0.887907</hAcc><vAcc>0.712805</vAcc></extensions></trkpt>
      <trkpt lon="-4.128367" lat="53.008036"><ele>363.332672</ele><time>2021-07-17T09:41:17Z</time><extensions><speed>0.498288</speed><course>213.254318</course><hAcc>0.887807</hAcc><vAcc>0.712427</vAcc></extensions></trkpt>
      <trkpt lon="-4.128367" lat="53.008031"><ele>363.501556</ele><time>2021-07-17T09:41:18Z</time><extensions><speed>0.500820</speed><course>209.983795</course><hAcc>0.887704</hAcc><vAcc>0.712050</vAcc></extensions></trkpt>
      <trkpt lon="-4.128365" lat="53.008027"><ele>363.666260</ele><time>2021-07-17T09:41:19Z</time><extensions><speed>0.502933</speed><course>212.464371</course><hAcc>0.887604</hAcc><vAcc>0.711689</vAcc></extensions></trkpt>
      <trkpt lon="-4.128364" lat="53.008022"><ele>363.827545</ele><time>2021-07-17T09:41:20Z</time><extensions><speed>0.504218</speed><course>212.464355</course><hAcc>0.887510</hAcc><vAcc>0.711354</vAcc></extensions></trkpt>
      <trkpt lon="-4.128363" lat="53.008018"><ele>363.986176</ele><time>2021-07-17T09:41:21Z</time><extensions><speed>0.504428</speed><course>212.464355</course><hAcc>0.887428</hAcc><vAcc>0.711054</vAcc></extensions></trkpt>
      <trkpt lon="-4.128361" lat="53.008014"><ele>364.142822</ele><time>2021-07-17T09:41:22Z</time><extensions><speed>0.503296</speed><course>212.464340</course><hAcc>0.887361</hAcc><vAcc>0.710799</vAcc></extensions></trkpt>
      <trkpt lon="-4.128360" lat="53.008009"><ele>364.298096</ele><time>2021-07-17T09:41:23Z</time><extensions><speed>0.500896</speed><course>212.464325</course><hAcc>0.887311</hAcc><vAcc>0.710601</vAcc></extensions></trkpt>
      <trkpt lon="-4.128359" lat="53.008005"><ele>364.452454</ele><time>2021-07-17T09:41:24Z</time><extensions><speed>0.497582</speed><course>212.464325</course><hAcc>0.887280</hAcc><vAcc>0.710473</vAcc></extensions></trkpt>
      <trkpt lon="-4.128358" lat="53.008000"><ele>364.606354</ele><time>2021-07-17T09:41:25Z</time><extensions><speed>0.493898</speed><course>212.464325</course><hAcc>0.887268</hAcc><vAcc>0.710423</vAcc></extensions></trkpt>
      <trkpt lon="-4.128357" lat="53.007996"><ele>364.760437</ele><time>2021-07-17T09:41:26Z</time><extensions><speed>0.490378</speed><course>212.464310</course><hAcc>0.887273</hAcc><vAcc>0.710458</vAcc></extensions></trkpt>
      <trkpt lon="-4.128357" lat="53.007991"><ele>364.915344</ele><time>2021-07-17T09:41:27Z</time><extensions><speed>0.487062</speed><course>305.064514</course><hAcc>0.887292</hAcc><vAcc>0.710577</vAcc></extensions></trkpt>
      <trkpt lon="-4.128357" lat="53.007987"><ele>365.071503</ele><time>2021-07-17T09:41:28Z</time><extensions><speed>0.483788</speed><course>295.507660</course><hAcc>0.887320</hAcc><vAcc>0.710765</vAcc></extensions></trkpt>
      <trkpt lon="-4.128357" lat="53.007983"><ele>365.228973</ele><time>2021-07-17T09:41:29Z</time><extensions><speed>0.480319</speed><course>292.618195</course><hAcc>0.887352</hAcc><vAcc>0.710994</vAcc></extensions></trkpt>
      <trkpt lon="-4.128358" lat="53.007978"><ele>365.387695</ele><time>2021-07-17T09:41:30Z</time><extensions><speed>0.475841</speed><course>285.374146</course><hAcc>0.887383</hAcc><vAcc>0.711225</vAcc></extensions></trkpt>
      <trkpt lon="-4.128359" lat="53.007974"><ele>365.547302</ele><time>2021-07-17T09:41:31Z</time><extensions><speed>0.469267</speed><course>282.990997</course><hAcc>0.887409</hAcc><vAcc>0.711414</vAcc></extensions></trkpt>
      <trkpt lon="-4.128359" lat="53.007970"><ele>365.707184</ele><time>2021-07-17T09:41:32Z</time><extensions><speed>0.459768</speed><course>269.408752</course><hAcc>0.887428</hAcc><vAcc>0.711527</vAcc></extensions></trkpt>
      <trkpt lon="-4.128360" lat="53.007966"><ele>365.866272</ele><time>2021-07-17T09:41:33Z</time><extensions><speed>0.446956</speed><course>268.581787</course><hAcc>0.887438</hAcc><vAcc>0.711545</vAcc></extensions></trkpt>
      <trkpt lon="-4.128361" lat="53.007962"><ele>366.023071</ele><time>2021-07-17T09:41:34Z</time><extensions><speed>0.430782</speed><course>262.171875</course><hAcc>0.887441</hAcc><vAcc>0.711470</vAcc></extensions></trkpt>
      <trkpt lon="-4.128362" lat="53.007958"><ele>366.175720</ele><time>2021-07-17T09:41:35Z</time><extensions><speed>0.411499</speed><course>261.539520</course><hAcc>0.887443</hAcc><vAcc>0.711329</vAcc></extensions></trkpt>
      <trkpt lon="-4.128363" lat="53.007955"><ele>366.322449</ele><time>2021-07-17T09:41:36Z</time><extensions><speed>0.389930</speed><course>255.803879</course><hAcc>0.887447</hAcc><vAcc>0.711164</vAcc></extensions></trkpt>
      <trkpt lon="-4.128363" lat="53.007951"><ele>366.461914</ele><time>2021-07-17T09:41:37Z</time><extensions><speed>0.366837</speed><course>247.733398</course><hAcc>0.887461</hAcc><vAcc>0.711030</vAcc></extensions></trkpt>
      <trkpt lon="-4.128364" lat="53.007948"><ele>366.593323</ele><time>2021-07-17T09:41:38Z</time><extensions><speed>0.342692</speed><course>231.932861</course><hAcc>0.887492</hAcc><vAcc>0.710981</vAcc></extensions></trkpt>
      <trkpt lon="-4.128365" lat="53.007945"><ele>366.716187</ele><time>2021-07-17T09:41:39Z</time><extensions><speed>0.317621</speed><course>232.043365</course><hAcc>0.887547</hAcc><vAcc>0.711058</vAcc></extensions></trkpt>
      <trkpt lon="-4.128366" lat="53.007943"><ele>366.830292</ele><time>2021-07-17T09:41:41Z</time><extensions><speed>0.291500</speed><course>225.182800</course><hAcc>0.887612</hAcc><vAcc>0.711264</vAcc></extensions></trkpt>
      <trkpt lon="-4.128367" lat="53.007940"><ele>366.935242</ele><time>2021-07-17T09:41:42Z</time><extensions><speed>0.265113</speed><course>222.937302</course><hAcc>0.887689</hAcc><vAcc>0.711591</vAcc></extensions></trkpt>
      <trkpt lon="-4.128369" lat="53.007938"><ele>367.031311</ele><time>2021-07-17T09:41:43Z</time><extensions><speed>0.239422</speed><course>226.615036</course><hAcc>0.887795</hAcc><vAcc>0.712031</vAcc></extensions></trkpt>
      <trkpt lon="-4.128370" lat="53.007936"><ele>367.118958</ele><time>2021-07-17T09:41:44Z</time><extensions><speed>0.215121</speed><course>227.377960</course><hAcc>0.887928</hAcc><vAcc>0.712554</vAcc></extensions></trkpt>
      <trkpt lon="-4.128371" lat="53.007935"><ele>367.198792</ele><time>2021-07-17T09:41:45Z</time><extensions><speed>0.192859</speed><course>225.027542</course><hAcc>0.888082</hAcc><vAcc>0.713136</vAcc></extensions></trkpt>
      <trkpt lon="-4.128373" lat="53.007933"><ele>367.271576</ele><time>2021-07-17T09:41:46Z</time><extensions><speed>0.173178</speed><course>217.523773</course><hAcc>0.888251</hAcc><vAcc>0.713754</vAcc></extensions></trkpt>
      <trkpt lon="-4.128374" lat="53.007932"><ele>367.338135</ele><time>2021-07-17T09:41:47Z</time><extensions><speed>0.156226</speed><course>217.503448</course><hAcc>0.888429</hAcc><vAcc>0.714387</vAcc></extensions></trkpt>
      <trkpt lon="-4.128376" lat="53.007931"><ele>367.399231</ele><time>2021-07-17T09:41:48Z</time><extensions><speed>0.142033</speed><course>222.947372</course><hAcc>0.888611</hAcc><vAcc>0.715016</vAcc></extensions></trkpt>
      <trkpt lon="-4.128377" lat="53.007930"><ele>367.455505</ele><time>2021-07-17T09:41:49Z</time><extensions><speed>0.130719</speed><course>228.737518</course><hAcc>0.888790</hAcc><vAcc>0.715625</vAcc></extensions></trkpt>
      <trkpt lon="-4.128379" lat="53.007930"><ele>367.507721</ele><time>2021-07-17T09:41:50Z</time><extensions><speed>0.122278</speed><course>234.887939</course><hAcc>0.888962</hAcc><vAcc>0.716198</vAcc></extensions></trkpt>
      <trkpt lon="-4.128380" lat="53.007929"><ele>367.556580</ele><time>2021-07-17T09:41:51Z</time><extensions><speed>0.116288</speed><course>232.671463</course><hAcc>0.889123</hAcc><vAcc>0.716724</vAcc></extensions></trkpt>
      <trkpt lon="-4.128382" lat="53.007928"><ele>367.602753</ele><time>2021-07-17T09:41:52Z</time><extensions><speed>0.111913</speed><course>228.680756</course><hAcc>0.889271</hAcc><vAcc>0.717197</vAcc></extensions></trkpt>
      <trkpt lon="-4.128383" lat="53.007928"><ele>367.646637</ele><time>2021-07-17T09:41:53Z</time><extensions><speed>0.107989</speed><course>228.367065</course><hAcc>0.889403</hAcc><vAcc>0.717615</vAcc></extensions></trkpt>
      <trkpt lon="-4.128385" lat="53.007928"><ele>367.688477</ele><time>2021-07-17T09:41:54Z</time><extensions><speed>0.103127</speed><course>227.760208</course><hAcc>0.889519</hAcc><vAcc>0.717975</vAcc></extensions></trkpt>
      <trkpt lon="-4.128386" lat="53.007927"><ele>367.728119</ele><time>2021-07-17T09:41:55Z</time><extensions><speed>0.096048</speed><course>230.377014</course><hAcc>0.889617</hAcc><vAcc>0.718279</vAcc></extensions></trkpt>
      <trkpt lon="-4.128387" lat="53.007927"><ele>367.765289</ele><time>2021-07-17T09:41:56Z</time><extensions><speed>0.085800</speed><course>236.559235</course><hAcc>0.889699</hAcc><vAcc>0.718527</vAcc></extensions></trkpt>
      <trkpt lon="-4.128388" lat="53.007927"><ele>367.799744</ele><time>2021-07-17T09:41:57Z</time><extensions><speed>0.073020</speed><course>232.877869</course><hAcc>0.889766</hAcc><vAcc>0.718722</vAcc></extensions></trkpt>
      <trkpt lon="-4.128389" lat="53.007926"><ele>367.831482</ele><time>2021-07-17T09:41:58Z</time><extensions><speed>0.060184</speed><course>233.901962</course><hAcc>0.889817</hAcc><vAcc>0.718868</vAcc></extensions></trkpt>
      <trkpt lon="-4.128390" lat="53.007926"><ele>367.860779</ele><time>2021-07-17T09:41:59Z</time><extensions><speed>0.049525</speed><course>234.840546</course><hAcc>0.889855</hAcc><vAcc>0.718971</vAcc></extensions></trkpt>
      <trkpt lon="-4.128391" lat="53.007926"><ele>367.888306</ele><time>2021-07-17T09:42:00Z</time><extensions><speed>0.042240</speed><course>231.563858</course><hAcc>0.889882</hAcc><vAcc>0.719037</vAcc></extensions></trkpt>
      <trkpt lon="-4.128391" lat="53.007926"><ele>367.914764</ele><time>2021-07-17T09:42:01Z</time><extensions><speed>0.038845</speed><course>226.163422</course><hAcc>0.889899</hAcc><vAcc>0.719072</vAcc></extensions></trkpt>
      <trkpt lon="-4.128391" lat="53.007925"><ele>367.941162</ele><time>2021-07-17T09:42:02Z</time><extensions><speed>0.039294</speed><course>224.694687</course><hAcc>0.889908</hAcc><vAcc>0.719083</vAcc></extensions></trkpt>
      <trkpt lon="-4.128392" lat="53.007925"><ele>367.968414</ele><time>2021-07-17T09:42:03Z</time><extensions><speed>0.043186</speed><course>227.400024</course><hAcc>0.889911</hAcc><vAcc>0.719076</vAcc></extensions></trkpt>
      <trkpt lon="-4.128392" lat="53.007925"><ele>367.997681</ele><time>2021-07-17T09:42:04Z</time><extensions><speed>0.050299</speed><course>225.215622</course><hAcc>0.889908</hAcc><vAcc>0.719056</vAcc></extensions></trkpt>
      <trkpt lon="-4.128393" lat="53.007924"><ele>368.030090</ele><time>2021-07-17T09:42:05Z</time><extensions><speed>0.060901</speed><course>227.979385</course><hAcc>0.889904</hAcc><vAcc>0.719028</vAcc></extensions></trkpt>
      <trkpt lon="-4.128393" lat="53.007924"><ele>368.066895</ele><time>2021-07-17T09:42:06Z</time><extensions><speed>0.075392</speed><course>238.133682</course><hAcc>0.889897</hAcc><vAcc>0.718996</vAcc></extensions></trkpt>
      <trkpt lon="-4.128394" lat="53.007924"><ele>368.109070</ele><time>2021-07-17T09:42:07Z</time><extensions><speed>0.093939</speed><course>235.678314</course><hAcc>0.889891</hAcc><vAcc>0.718964</vAcc></extensions></trkpt>
      <trkpt lon="-4.128396" lat="53.007923"><ele>368.157623</ele><time>2021-07-17T09:42:08Z</time><extensions><speed>0.116201</speed><course>238.960709</course><hAcc>0.889886</hAcc><vAcc>0.718936</vAcc></extensions></trkpt>
      <trkpt lon="-4.128397" lat="53.007922"><ele>368.213348</ele><time>2021-07-17T09:42:09Z</time><extensions><speed>0.141274</speed><course>237.793289</course><hAcc>0.889882</hAcc><vAcc>0.718915</vAcc></extensions></trkpt>
      <trkpt lon="-4.128399" lat="53.007922"><ele>368.276825</ele><time>2021-07-17T09:42:10Z</time><extensions><speed>0.167962</speed><course>238.209671</course><hAcc>0.889881</hAcc><vAcc>0.718903</vAcc></extensions></trkpt>
      <trkpt lon="-4.128401" lat="53.007921"><ele>368.348389</ele><time>2021-07-17T09:42:11Z</time><extensions><speed>0.195104</speed><course>239.435074</course><hAcc>0.889881</hAcc><vAcc>0.718903</vAcc></extensions></trkpt>
      <trkpt lon="-4.128404" lat="53.007920"><ele>368.428131</ele><time>2021-07-17T09:42:12Z</time><extensions><speed>0.221530</speed><course>238.666733</course><hAcc>0.889883</hAcc><vAcc>0.718916</vAcc></extensions></trkpt>
      <trkpt lon="-4.128407" lat="53.007919"><ele>368.515961</ele><time>2021-07-17T09:42:13Z</time><extensions><speed>0.245971</speed><course>234.077820</course><hAcc>0.889885</hAcc><vAcc>0.718941</vAcc></extensions></trkpt>
      <trkpt lon="-4.128411" lat="53.007918"><ele>368.611450</ele><time>2021-07-17T09:42:14Z</time><extensions><speed>0.267165</speed><course>227.293335</course><hAcc>0.889887</hAcc><vAcc>0.718972</vAcc></extensions></trkpt>
      <trkpt lon="-4.128414" lat="53.007917"><ele>368.714111</ele><time>2021-07-17T09:42:15Z</time><extensions><speed>0.284537</speed><course>230.072769</course><hAcc>0.889886</hAcc><vAcc>0.719001</vAcc></extensions></trkpt>
      <trkpt lon="-4.128418" lat="53.007916"><ele>368.823120</ele><time>2021-07-17T09:42:16Z</time><extensions><speed>0.298476</speed><course>228.397232</course><hAcc>0.889881</hAcc><vAcc>0.719014</vAcc></extensions></trkpt>
      <trkpt lon="-4.128422" lat="53.007914"><ele>368.937347</ele><time>2021-07-17T09:42:17Z</time><extensions><speed>0.309469</speed><course>230.234772</course><hAcc>0.889870</hAcc><vAcc>0.719001</vAcc></extensions></trkpt>
      <trkpt lon="-4.128426" lat="53.007913"><ele>369.055725</ele><time>2021-07-17T09:42:18Z</time><extensions><speed>0.317729</speed><course>226.599274</course><hAcc>0.889851</hAcc><vAcc>0.718954</vAcc></extensions></trkpt>
      <trkpt lon="-4.128431" lat="53.007912"><ele>369.177155</ele><time>2021-07-17T09:42:19Z</time><extensions><speed>0.323389</speed><course>226.515137</course><hAcc>0.889820</hAcc><vAcc>0.718868</vAcc></extensions></trkpt>
      <trkpt lon="-4.128435" lat="53.007910"><ele>369.300446</ele><time>2021-07-17T09:42:20Z</time><extensions><speed>0.326338</speed><course>226.136917</course><hAcc>0.889775</hAcc><vAcc>0.718740</vAcc></extensions></trkpt>
      <trkpt lon="-4.128439" lat="53.007909"><ele>369.424164</ele><time>2021-07-17T09:42:21Z</time><extensions><speed>0.326030</speed><course>230.381958</course><hAcc>0.889713</hAcc><vAcc>0.718566</vAcc></extensions></trkpt>
      <trkpt lon="-4.128443" lat="53.007907"><ele>369.546844</ele><time>2021-07-17T09:42:22Z</time><extensions><speed>0.322576</speed><course>226.727509</course><hAcc>0.889630</hAcc><vAcc>0.718337</vAcc></extensions></trkpt>
      <trkpt lon="-4.128447" lat="53.007905"><ele>369.667725</ele><time>2021-07-17T09:42:23Z</time><extensions><speed>0.316643</speed><course>230.180862</course><hAcc>0.889524</hAcc><vAcc>0.718044</vAcc></extensions></trkpt>
      <trkpt lon="-4.128450" lat="53.007903"><ele>369.786469</ele><time>2021-07-17T09:42:24Z</time><extensions><speed>0.308343</speed><course>225.214905</course><hAcc>0.889395</hAcc><vAcc>0.717680</vAcc></extensions></trkpt>
      <trkpt lon="-4.128454" lat="53.007902"><ele>369.902893</ele><time>2021-07-17T09:42:25Z</time><extensions><speed>0.297715</speed><course>228.288971</course><hAcc>0.889240</hAcc><vAcc>0.717236</vAcc></extensions></trkpt>
      <trkpt lon="-4.128456" lat="53.007900"><ele>370.016724</ele><time>2021-07-17T09:42:26Z</time><extensions><speed>0.285293</speed><course>234.392639</course><hAcc>0.889062</hAcc><vAcc>0.716703</vAcc></extensions></trkpt>
      <trkpt lon="-4.128459" lat="53.007898"><ele>370.127747</ele><time>2021-07-17T09:42:27Z</time><extensions><speed>0.272029</speed><course>233.208801</course><hAcc>0.888862</hAcc><vAcc>0.716077</vAcc></extensions></trkpt>
      <trkpt lon="-4.128461" lat="53.007896"><ele>370.235870</ele><time>2021-07-17T09:42:28Z</time><extensions><speed>0.259068</speed><course>238.158752</course><hAcc>0.888646</hAcc><vAcc>0.715358</vAcc></extensions></trkpt>
      <trkpt lon="-4.128463" lat="53.007894"><ele>370.340942</ele><time>2021-07-17T09:42:29Z</time><extensions><speed>0.247826</speed><course>239.142517</course><hAcc>0.888421</hAcc><vAcc>0.714560</vAcc></extensions></trkpt>
      <trkpt lon="-4.128464" lat="53.007891"><ele>370.443024</ele><time>2021-07-17T09:42:30Z</time><extensions><speed>0.239438</speed><course>241.003922</course><hAcc>0.888193</hAcc><vAcc>0.713712</vAcc></extensions></trkpt>
      <trkpt lon="-4.128464" lat="53.007889"><ele>370.542206</ele><time>2021-07-17T09:42:31Z</time><extensions><speed>0.233764</speed><course>244.474228</course><hAcc>0.887974</hAcc><vAcc>0.712858</vAcc></extensions></trkpt>
      <trkpt lon="-4.128464" lat="53.007887"><ele>370.638672</ele><time>2021-07-17T09:42:32Z</time><extensions><speed>0.229585</speed><course>238.879150</course><hAcc>0.887771</hAcc><vAcc>0.712052</vAcc></extensions></trkpt>
      <trkpt lon="-4.128464" lat="53.007885"><ele>370.732819</ele><time>2021-07-17T09:42:33Z</time><extensions><speed>0.225090</speed><course>237.538528</course><hAcc>0.887595</hAcc><vAcc>0.711348</vAcc></extensions></trkpt>
      <trkpt lon="-4.128464" lat="53.007883"><ele>370.825195</ele><time>2021-07-17T09:42:34Z</time><extensions><speed>0.218801</speed><course>249.037552</course><hAcc>0.887454</hAcc><vAcc>0.710790</vAcc></extensions></trkpt>
      <trkpt lon="-4.128464" lat="53.007881"><ele>370.916321</ele><time>2021-07-17T09:42:35Z</time><extensions><speed>0.210438</speed><course>259.361603</course><hAcc>0.887355</hAcc><vAcc>0.710411</vAcc></extensions></trkpt>
      <trkpt lon="-4.128464" lat="53.007879"><ele>371.006836</ele><time>2021-07-17T09:42:36Z</time><extensions><speed>0.201655</speed><course>261.193176</course><hAcc>0.887301</hAcc><vAcc>0.710227</vAcc></extensions></trkpt>
      <trkpt lon="-4.128465" lat="53.007878"><ele>371.097565</ele><time>2021-07-17T09:42:37Z</time><extensions><speed>0.195882</speed><course>261.193146</course><hAcc>0.887294</hAcc><vAcc>0.710241</vAcc></extensions></trkpt>
      <trkpt lon="-4.128466" lat="53.007876"><ele>371.189514</ele><time>2021-07-17T09:42:38Z</time><extensions><speed>0.196625</speed><course>261.193146</course><hAcc>0.887332</hAcc><vAcc>0.710443</vAcc></extensions></trkpt>
      <trkpt lon="-4.128467" lat="53.007874"><ele>371.283508</ele><time>2021-07-17T09:42:39Z</time><extensions><speed>0.205700</speed><course>261.193146</course><hAcc>0.887411</hAcc><vAcc>0.710809</vAcc></extensions></trkpt>
      <trkpt lon="-4.128469" lat="53.007873"><ele>371.380188</ele><time>2021-07-17T09:42:40Z</time><extensions><speed>0.222109</speed><course>261.193146</course><hAcc>0.887522</hAcc><vAcc>0.711301</vAcc></extensions></trkpt>
      <trkpt lon="-4.128472" lat="53.007872"><ele>371.479980</ele><time>2021-07-17T09:42:41Z</time><extensions><speed>0.242914</speed><course>261.193146</course><hAcc>0.887658</hAcc><vAcc>0.711871</vAcc></extensions></trkpt>
      <trkpt lon="-4.128475" lat="53.007870"><ele>371.582977</ele><time>2021-07-17T09:42:42Z</time><extensions><speed>0.265084</speed><course>261.193146</course><hAcc>0.887811</hAcc><vAcc>0.712471</vAcc></extensions></trkpt>
      <trkpt lon="-4.128479" lat="53.007869"><ele>371.689026</ele><time>2021-07-17T09:42:43Z</time><extensions><speed>0.285925</speed><course>261.193146</course><hAcc>0.887970</hAcc><vAcc>0.713061</vAcc></extensions></trkpt>
      <trkpt lon="-4.128483" lat="53.007868"><ele>371.797882</ele><time>2021-07-17T09:42:44Z</time><extensions><speed>0.303352</speed><course>261.193146</course><hAcc>0.888129</hAcc><vAcc>0.713614</vAcc></extensions></trkpt>
      <trkpt lon="-4.128487" lat="53.007867"><ele>371.909271</ele><time>2021-07-17T09:42:45Z</time><extensions><speed>0.316293</speed><course>234.852402</course><hAcc>0.888280</hAcc><vAcc>0.714109</vAcc></extensions></trkpt>
      <trkpt lon="-4.128491" lat="53.007866"><ele>372.022949</ele><time>2021-07-17T09:42:46Z</time><extensions><speed>0.324452</speed><course>215.025620</course><hAcc>0.888419</hAcc><vAcc>0.714537</vAcc></extensions></trkpt>
      <trkpt lon="-4.128496" lat="53.007865"><ele>372.138580</ele><time>2021-07-17T09:42:47Z</time><extensions><speed>0.328344</speed><course>206.872131</course><hAcc>0.888543</hAcc><vAcc>0.714893</vAcc></extensions></trkpt>
      <trkpt lon="-4.128500" lat="53.007864"><ele>372.255432</ele><time>2021-07-17T09:42:48Z</time><extensions><speed>0.329125</speed><course>205.862991</course><hAcc>0.888651</hAcc><vAcc>0.715181</vAcc></extensions></trkpt>
      <trkpt lon="-4.128505" lat="53.007863"><ele>372.372559</ele><time>2021-07-17T09:42:49Z</time><extensions><speed>0.328571</speed><course>205.862976</course><hAcc>0.888745</hAcc><vAcc>0.715413</vAcc></extensions></trkpt>
      <trkpt lon="-4.128510" lat="53.007862"><ele>372.488953</ele><time>2021-07-17T09:42:50Z</time><extensions><speed>0.328285</speed><course>234.677673</course><hAcc>0.888825</hAcc><vAcc>0.715602</vAcc></extensions></trkpt>
      <trkpt lon="-4.128514" lat="53.007861"><ele>372.603577</ele><time>2021-07-17T09:42:51Z</time><extensions><speed>0.328971</speed><course>246.321655</course><hAcc>0.888895</hAcc><vAcc>0.715758</vAcc></extensions></trkpt>
      <trkpt lon="-4.128519" lat="53.007860"><ele>372.715698</ele><time>2021-07-17T09:42:52Z</time><extensions><speed>0.330852</speed><course>256.732239</course><hAcc>0.888939</hAcc><vAcc>0.715876</vAcc></extensions></trkpt>
      <trkpt lon="-4.128524" lat="53.007860"><ele>372.824646</ele><time>2021-07-17T09:42:53Z</time><extensions><speed>0.333905</speed><course>257.461731</course><hAcc>0.888963</hAcc><vAcc>0.715959</vAcc></extensions></trkpt>
      <trkpt lon="-4.128529" lat="53.007859"><ele>372.930298</ele><time>2021-07-17T09:42:54Z</time><extensions><speed>0.337967</speed><course>256.219269</course><hAcc>0.888984</hAcc><vAcc>0.716029</vAcc></extensions></trkpt>
      <trkpt lon="-4.128534" lat="53.007859"><ele>373.032562</ele><time>2021-07-17T09:42:55Z</time><extensions><speed>0.342353</speed><course>253.669510</course><hAcc>0.889007</hAcc><vAcc>0.716095</vAcc></extensions></trkpt>
      <trkpt lon="-4.128539" lat="53.007859"><ele>373.131439</ele><time>2021-07-17T09:42:56Z</time><extensions><speed>0.345647</speed><course>253.907227</course><hAcc>0.889031</hAcc><vAcc>0.716167</vAcc></extensions></trkpt>
      <trkpt lon="-4.128544" lat="53.007859"><ele>373.226868</ele><time>2021-07-17T09:42:57Z</time><extensions><speed>0.346058</speed><course>260.189209</course><hAcc>0.889058</hAcc><vAcc>0.716251</vAcc></extensions></trkpt>
      <trkpt lon="-4.128549" lat="53.007858"><ele>373.318756</ele><time>2021-07-17T09:42:58Z</time><extensions><speed>0.342013</speed><course>263.253174</course><hAcc>0.889090</hAcc><vAcc>0.716351</vAcc></extensions></trkpt>
      <trkpt lon="-4.128554" lat="53.007858"><ele>373.406891</ele><time>2021-07-17T09:42:59Z</time><extensions><speed>0.332794</speed><course>264.349060</course><hAcc>0.889126</hAcc><vAcc>0.716469</vAcc></extensions></trkpt>
      <trkpt lon="-4.128559" lat="53.007858"><ele>373.491302</ele><time>2021-07-17T09:43:00Z</time><extensions><speed>0.318597</speed><course>258.002991</course><hAcc>0.889167</hAcc><vAcc>0.716605</vAcc></extensions></trkpt>
      <trkpt lon="-4.128564" lat="53.007858"><ele>373.572052</ele><time>2021-07-17T09:43:01Z</time><extensions><speed>0.299875</speed><course>264.832825</course><hAcc>0.889213</hAcc><vAcc>0.716759</vAcc></extensions></trkpt>
      <trkpt lon="-4.128568" lat="53.007858"><ele>373.649109</ele><time>2021-07-17T09:43:02Z</time><extensions><speed>0.277264</speed><course>262.654938</course><hAcc>0.889262</hAcc><vAcc>0.716931</vAcc></extensions></trkpt>
      <trkpt lon="-4.128572" lat="53.007858"><ele>373.722534</ele><time>2021-07-17T09:43:03Z</time><extensions><speed>0.252154</speed><course>262.654938</course><hAcc>0.889312</hAcc><vAcc>0.717116</vAcc></extensions></trkpt>
      <trkpt lon="-4.128576" lat="53.007858"><ele>373.792572</ele><time>2021-07-17T09:43:04Z</time><extensions><speed>0.226483</speed><course>262.654938</course><hAcc>0.889363</hAcc><vAcc>0.717309</vAcc></extensions></trkpt>
      <trkpt lon="-4.128579" lat="53.007858"><ele>373.859589</ele><time>2021-07-17T09:43:05Z</time><extensions><speed>0.201768</speed><course>262.654938</course><hAcc>0.889411</hAcc><vAcc>0.717501</vAcc></extensions></trkpt>
      <trkpt lon="-4.128582" lat="53.007857"><ele>373.923950</ele><time>2021-07-17T09:43:06Z</time><extensions><speed>0.179250</speed><course>262.654938</course><hAcc>0.889455</hAcc><vAcc>0.717681</vAcc></extensions></trkpt>
      <trkpt lon="-4.128584" lat="53.007857"><ele>373.985870</ele><time>2021-07-17T09:43:07Z</time><extensions><speed>0.159954</speed><course>262.654938</course><hAcc>0.889492</hAcc><vAcc>0.717837</vAcc></extensions></trkpt>
      <trkpt lon="-4.128586" lat="53.007857"><ele>374.045502</ele><time>2021-07-17T09:43:08Z</time><extensions><speed>0.144260</speed><course>262.654938</course><hAcc>0.889520</hAcc><vAcc>0.717959</vAcc></extensions></trkpt>
      <trkpt lon="-4.128588" lat="53.007857"><ele>374.102814</ele><time>2021-07-17T09:43:09Z</time><extensions><speed>0.132507</speed><course>262.654938</course><hAcc>0.889538</hAcc><vAcc>0.718039</vAcc></extensions></trkpt>
      <trkpt lon="-4.128590" lat="53.007857"><ele>374.157867</ele><time>2021-07-17T09:43:10Z</time><extensions><speed>0.124829</speed><course>262.654938</course><hAcc>0.889545</hAcc><vAcc>0.718074</vAcc></extensions></trkpt>
      <trkpt lon="-4.128592" lat="53.007857"><ele>374.211060</ele><time>2021-07-17T09:43:11Z</time><extensions><speed>0.120977</speed><course>262.654938</course><hAcc>0.889539</hAcc><vAcc>0.718064</vAcc></extensions></trkpt>
      <trkpt lon="-4.128594" lat="53.007857"><ele>374.263000</ele><time>2021-07-17T09:43:12Z</time><extensions><speed>0.121019</speed><course>262.654938</course><hAcc>0.889521</hAcc><vAcc>0.718009</vAcc></extensions></trkpt>
      <trkpt lon="-4.128596" lat="53.007857"><ele>374.314484</ele><time>2021-07-17T09:43:13Z</time><extensions><speed>0.125158</speed><course>262.654938</course><hAcc>0.889490</hAcc><vAcc>0.717915</vAcc></extensions></trkpt>
      <trkpt lon="-4.128598" lat="53.007857"><ele>374.366394</ele><time>2021-07-17T09:43:14Z</time><extensions><speed>0.133562</speed><course>262.654938</course><hAcc>0.889449</hAcc><vAcc>0.717788</vAcc></extensions></trkpt>
      <trkpt lon="-4.128600" lat="53.007857"><ele>374.419739</ele><time>2021-07-17T09:43:15Z</time><extensions><speed>0.146321</speed><course>262.654938</course><hAcc>0.889397</hAcc><vAcc>0.717636</vAcc></extensions></trkpt>
      <trkpt lon="-4.128602" lat="53.007856"><ele>374.475891</ele><time>2021-07-17T09:43:16Z</time><extensions><speed>0.163250</speed><course>262.654938</course><hAcc>0.889336</hAcc><vAcc>0.717470</vAcc></extensions></trkpt>
      <trkpt lon="-4.128605" lat="53.007856"><ele>374.536133</ele><time>2021-07-17T09:43:16Z</time><extensions><speed>0.183690</speed><course>262.654938</course><hAcc>0.889304</hAcc><vAcc>0.717326</vAcc></extensions></trkpt>
      <trkpt lon="-4.128607" lat="53.007856"><ele>374.602081</ele><time>2021-07-17T09:43:17Z</time><extensions><speed>0.206889</speed><course>262.654938</course><hAcc>0.889302</hAcc><vAcc>0.717216</vAcc></extensions></trkpt>
      <trkpt lon="-4.128610" lat="53.007855"><ele>374.674713</ele><time>2021-07-17T09:43:18Z</time><extensions><speed>0.231717</speed><course>262.654938</course><hAcc>0.889297</hAcc><vAcc>0.717125</vAcc></extensions></trkpt>
      <trkpt lon="-4.128614" lat="53.007854"><ele>374.754913</ele><time>2021-07-17T09:43:19Z</time><extensions><speed>0.257102</speed><course>262.654938</course><hAcc>0.889293</hAcc><vAcc>0.717065</vAcc></extensions></trkpt>
      <trkpt lon="-4.128618" lat="53.007853"><ele>374.843231</ele><time>2021-07-17T09:43:20Z</time><extensions><speed>0.282347</speed><course>262.654938</course><hAcc>0.889291</hAcc><vAcc>0.717040</vAcc></extensions></trkpt>
      <trkpt lon="-4.128622" lat="53.007852"><ele>374.939880</ele><time>2021-07-17T09:43:21Z</time><extensions><speed>0.306781</speed><course>262.654938</course><hAcc>0.889295</hAcc><vAcc>0.717052</vAcc></extensions></trkpt>
      <trkpt lon="-4.128626" lat="53.007851"><ele>375.044769</ele><time>2021-07-17T09:43:22Z</time><extensions><speed>0.329449</speed><course>262.654938</course><hAcc>0.889304</hAcc><vAcc>0.717093</vAcc></extensions></trkpt>
      <trkpt lon="-4.128630" lat="53.007849"><ele>375.157684</ele><time>2021-07-17T09:43:23Z</time><extensions><speed>0.350066</speed><course>262.654938</course><hAcc>0.889319</hAcc><vAcc>0.717155</vAcc></extensions></trkpt>
      <trkpt lon="-4.128634" lat="53.007847"><ele>375.278229</ele><time>2021-07-17T09:43:24Z</time><extensions><speed>0.368821</speed><course>262.654938</course><hAcc>0.889341</hAcc><vAcc>0.717232</vAcc></extensions></trkpt>
      <trkpt lon="-4.128639" lat="53.007846"><ele>375.406067</ele><time>2021-07-17T09:43:25Z</time><extensions><speed>0.385527</speed><course>262.654938</course><hAcc>0.889370</hAcc><vAcc>0.717319</vAcc></extensions></trkpt>
      <trkpt lon="-4.128644" lat="53.007843"><ele>375.540802</ele><time>2021-07-17T09:43:26Z</time><extensions><speed>0.399786</speed><course>262.654938</course><hAcc>0.889405</hAcc><vAcc>0.717418</vAcc></extensions></trkpt>
      <trkpt lon="-4.128648" lat="53.007841"><ele>375.681854</ele><time>2021-07-17T09:43:27Z</time><extensions><speed>0.411551</speed><course>262.654938</course><hAcc>0.889446</hAcc><vAcc>0.717530</vAcc></extensions></trkpt>
      <trkpt lon="-4.128653" lat="53.007839"><ele>375.828491</ele><time>2021-07-17T09:43:28Z</time><extensions><speed>0.421285</speed><course>262.654938</course><hAcc>0.889493</hAcc><vAcc>0.717660</vAcc></extensions></trkpt>
      <trkpt lon="-4.128658" lat="53.007836"><ele>375.979706</ele><time>2021-07-17T09:43:29Z</time><extensions><speed>0.429908</speed><course>262.654938</course><hAcc>0.889544</hAcc><vAcc>0.717808</vAcc></extensions></trkpt>
      <trkpt lon="-4.128663" lat="53.007834"><ele>376.134491</ele><time>2021-07-17T09:43:30Z</time><extensions><speed>0.438080</speed><course>262.654938</course><hAcc>0.889600</hAcc><vAcc>0.717980</vAcc></extensions></trkpt>
      <trkpt lon="-4.128668" lat="53.007831"><ele>376.291626</ele><time>2021-07-17T09:43:31Z</time><extensions><speed>0.445690</speed><course>262.654938</course><hAcc>0.889660</hAcc><vAcc>0.718176</vAcc></extensions></trkpt>
      <trkpt lon="-4.128673" lat="53.007829"><ele>376.449738</ele><time>2021-07-17T09:43:32Z</time><extensions><speed>0.452464</speed><course>262.654938</course><hAcc>0.889720</hAcc><vAcc>0.718392</vAcc></extensions></trkpt>
      <trkpt lon="-4.128679" lat="53.007826"><ele>376.607422</ele><time>2021-07-17T09:43:33Z</time><extensions><speed>0.458269</speed><course>262.654938</course><hAcc>0.889781</hAcc><vAcc>0.718618</vAcc></extensions></trkpt>
      <trkpt lon="-4.128684" lat="53.007824"><ele>376.763519</ele><time>2021-07-17T09:43:34Z</time><extensions><speed>0.462854</speed><course>262.654938</course><hAcc>0.889840</hAcc><vAcc>0.718844</vAcc></extensions></trkpt>
      <trkpt lon="-4.128690" lat="53.007821"><ele>376.917114</ele><time>2021-07-17T09:43:35Z</time><extensions><speed>0.466212</speed><course>262.654938</course><hAcc>0.889893</hAcc><vAcc>0.719056</vAcc></extensions></trkpt>
      <trkpt lon="-4.128696" lat="53.007819"><ele>377.068115</ele><time>2021-07-17T09:43:36Z</time><extensions><speed>0.468606</speed><course>262.654938</course><hAcc>0.889938</hAcc><vAcc>0.719242</vAcc></extensions></trkpt>
      <trkpt lon="-4.128701" lat="53.007816"><ele>377.217163</ele><time>2021-07-17T09:43:37Z</time><extensions><speed>0.470147</speed><course>262.654938</course><hAcc>0.889973</hAcc><vAcc>0.719389</vAcc></extensions></trkpt>
      <trkpt lon="-4.128707" lat="53.007814"><ele>377.365356</ele><time>2021-07-17T09:43:38Z</time><extensions><speed>0.470896</speed><course>262.654938</course><hAcc>0.889993</hAcc><vAcc>0.719487</vAcc></extensions></trkpt>
      <trkpt lon="-4.128713" lat="53.007811"><ele>377.514038</ele><time>2021-07-17T09:43:39Z</time><extensions><speed>0.470931</speed><course>262.654938</course><hAcc>0.889998</hAcc><vAcc>0.719527</vAcc></extensions></trkpt>
      <trkpt lon="-4.128718" lat="53.007809"><ele>377.664581</ele><time>2021-07-17T09:43:40Z</time><extensions><speed>0.470441</speed><course>262.654938</course><hAcc>0.889985</hAcc><vAcc>0.719502</vAcc></extensions></trkpt>
      <trkpt lon="-4.128724" lat="53.007806"><ele>377.818207</ele><time>2021-07-17T09:43:41Z</time><extensions><speed>0.469936</speed><course>262.654938</course><hAcc>0.889953</hAcc><vAcc>0.719409</vAcc></extensions></trkpt>
      <trkpt lon="-4.128729" lat="53.007803"><ele>377.975952</ele><time>2021-07-17T09:43:42Z</time><extensions><speed>0.469988</speed><course>262.654938</course><hAcc>0.889903</hAcc><vAcc>0.719245</vAcc></extensions></trkpt>
      <trkpt lon="-4.128734" lat="53.007800"><ele>378.138397</ele><time>2021-07-17T09:43:43Z</time><extensions><speed>0.470715</speed><course>262.654938</course><hAcc>0.889835</hAcc><vAcc>0.719014</vAcc></extensions></trkpt>
      <trkpt lon="-4.128738" lat="53.007797"><ele>378.305786</ele><time>2021-07-17T09:43:44Z</time><extensions><speed>0.471690</speed><course>262.654938</course><hAcc>0.889753</hAcc><vAcc>0.718722</vAcc></extensions></trkpt>
      <trkpt lon="-4.128743" lat="53.007794"><ele>378.477905</ele><time>2021-07-17T09:43:45Z</time><extensions><speed>0.472585</speed><course>262.654938</course><hAcc>0.889659</hAcc><vAcc>0.718380</vAcc></extensions></trkpt>
      <trkpt lon="-4.128747" lat="53.007791"><ele>378.654083</ele><time>2021-07-17T09:43:46Z</time><extensions><speed>0.473631</speed><course>262.654938</course><hAcc>0.889557</hAcc><vAcc>0.718001</vAcc></extensions></trkpt>
      <trkpt lon="-4.128751" lat="53.007787"><ele>378.833313</ele><time>2021-07-17T09:43:47Z</time><extensions><speed>0.475424</speed><course>262.654938</course><hAcc>0.889452</hAcc><vAcc>0.717602</vAcc></extensions></trkpt>
      <trkpt lon="-4.128755" lat="53.007783"><ele>379.014435</ele><time>2021-07-17T09:43:48Z</time><extensions><speed>0.478554</speed><course>262.654938</course><hAcc>0.889350</hAcc><vAcc>0.717202</vAcc></extensions></trkpt>
      <trkpt lon="-4.128758" lat="53.007780"><ele>379.196503</ele><time>2021-07-17T09:43:49Z</time><extensions><speed>0.483133</speed><course>262.654938</course><hAcc>0.889256</hAcc><vAcc>0.716824</vAcc></extensions></trkpt>
      <trkpt lon="-4.128762" lat="53.007776"><ele>379.378693</ele><time>2021-07-17T09:43:50Z</time><extensions><speed>0.488879</speed><course>262.654938</course><hAcc>0.889175</hAcc><vAcc>0.716494</vAcc></extensions></trkpt>
      <trkpt lon="-4.128765" lat="53.007772"><ele>379.560455</ele><time>2021-07-17T09:43:51Z</time><extensions><speed>0.495415</speed><course>262.654938</course><hAcc>0.889110</hAcc><vAcc>0.716234</vAcc></extensions></trkpt>
      <trkpt lon="-4.128769" lat="53.007768"><ele>379.741119</ele><time>2021-07-17T09:43:52Z</time><extensions><speed>0.502352</speed><course>262.654938</course><hAcc>0.889065</hAcc><vAcc>0.716062</vAcc></extensions></trkpt>
      <trkpt lon="-4.128773" lat="53.007764"><ele>379.920197</ele><time>2021-07-17T09:43:53Z</time><extensions><speed>0.509208</speed><course>262.654938</course><hAcc>0.889042</hAcc><vAcc>0.715987</vAcc></extensions></trkpt>
      <trkpt lon="-4.128777" lat="53.007760"><ele>380.097168</ele><time>2021-07-17T09:43:54Z</time><extensions><speed>0.515393</speed><course>262.654938</course><hAcc>0.889040</hAcc><vAcc>0.716007</vAcc></extensions></trkpt>
      <trkpt lon="-4.128781" lat="53.007756"><ele>380.271606</ele><time>2021-07-17T09:43:55Z</time><extensions><speed>0.520330</speed><course>262.654938</course><hAcc>0.889059</hAcc><vAcc>0.716112</vAcc></extensions></trkpt>
      <trkpt lon="-4.128786" lat="53.007753"><ele>380.443085</ele><time>2021-07-17T09:43:56Z</time><extensions><speed>0.523612</speed><course>262.654938</course><hAcc>0.889098</hAcc><vAcc>0.716287</vAcc></extensions></trkpt>
      <trkpt lon="-4.128791" lat="53.007749"><ele>380.611389</ele><time>2021-07-17T09:43:57Z</time><extensions><speed>0.525132</speed><course>262.654938</course><hAcc>0.889151</hAcc><vAcc>0.716514</vAcc></extensions></trkpt>
      <trkpt lon="-4.128796" lat="53.007745"><ele>380.776520</ele><time>2021-07-17T09:43:58Z</time><extensions><speed>0.525139</speed><course>209.646423</course><hAcc>0.889215</hAcc><vAcc>0.716773</vAcc></extensions></trkpt>
      <trkpt lon="-4.128801" lat="53.007742"><ele>380.938873</ele><time>2021-07-17T09:43:59Z</time><extensions><speed>0.524224</speed><course>207.502853</course><hAcc>0.889284</hAcc><vAcc>0.717047</vAcc></extensions></trkpt>
      <trkpt lon="-4.128807" lat="53.007739"><ele>381.098633</ele><time>2021-07-17T09:44:00Z</time><extensions><speed>0.522851</speed><course>210.649872</course><hAcc>0.889352</hAcc><vAcc>0.717319</vAcc></extensions></trkpt>
      <trkpt lon="-4.128812" lat="53.007735"><ele>381.255890</ele><time>2021-07-17T09:44:01Z</time><extensions><speed>0.521050</speed><course>218.307190</course><hAcc>0.889412</hAcc><vAcc>0.717571</vAcc></extensions></trkpt>
      <trkpt lon="-4.128818" lat="53.007732"><ele>381.410675</ele><time>2021-07-17T09:44:02Z</time><extensions><speed>0.518591</speed><course>221.774033</course><hAcc>0.889459</hAcc><vAcc>0.717784</vAcc></extensions></trkpt>
      <trkpt lon="-4.128823" lat="53.007729"><ele>381.563110</ele><time>2021-07-17T09:44:03Z</time><extensions><speed>0.515170</speed><course>225.071381</course><hAcc>0.889488</hAcc><vAcc>0.717939</vAcc></extensions></trkpt>
      <trkpt lon="-4.128829" lat="53.007726"><ele>381.713287</ele><time>2021-07-17T09:44:04Z</time><extensions><speed>0.510621</speed><course>229.682953</course><hAcc>0.889495</hAcc><vAcc>0.718015</vAcc></extensions></trkpt>
      <trkpt lon="-4.128834" lat="53.007722"><ele>381.861359</ele><time>2021-07-17T09:44:05Z</time><extensions><speed>0.504802</speed><course>228.187271</course><hAcc>0.889478</hAcc><vAcc>0.717996</vAcc></extensions></trkpt>
      <trkpt lon="-4.128839" lat="53.007719"><ele>382.007416</ele><time>2021-07-17T09:44:06Z</time><extensions><speed>0.497597</speed><course>224.821243</course><hAcc>0.889437</hAcc><vAcc>0.717871</vAcc></extensions></trkpt>
      <trkpt lon="-4.128844" lat="53.007716"><ele>382.151642</ele><time>2021-07-17T09:44:07Z</time><extensions><speed>0.488831</speed><course>222.757462</course><hAcc>0.889375</hAcc><vAcc>0.717634</vAcc></extensions></trkpt>
      <trkpt lon="-4.128849" lat="53.007713"><ele>382.294403</ele><time>2021-07-17T09:44:08Z</time><extensions><speed>0.478775</speed><course>223.047150</course><hAcc>0.889294</hAcc><vAcc>0.717291</vAcc></extensions></trkpt>
      <trkpt lon="-4.128853" lat="53.007709"><ele>382.436493</ele><time>2021-07-17T09:44:10Z</time><extensions><speed>0.468465</speed><course>218.695862</course><hAcc>0.889182</hAcc><vAcc>0.716845</vAcc></extensions></trkpt>
      <trkpt lon="-4.128857" lat="53.007706"><ele>382.578308</ele><time>2021-07-17T09:44:11Z</time><extensions><speed>0.459121</speed><course>216.351273</course><hAcc>0.889046</hAcc><vAcc>0.716324</vAcc></extensions></trkpt>
      <trkpt lon="-4.128861" lat="53.007702"><ele>382.720612</ele><time>2021-07-17T09:44:12Z</time><extensions><speed>0.451632</speed><course>219.658188</course><hAcc>0.888909</hAcc><vAcc>0.715776</vAcc></extensions></trkpt>
      <trkpt lon="-4.128864" lat="53.007699"><ele>382.863770</ele><time>2021-07-17T09:44:13Z</time><extensions><speed>0.446133</speed><course>221.748871</course><hAcc>0.888777</hAcc><vAcc>0.715242</vAcc></extensions></trkpt>
      <trkpt lon="-4.128867" lat="53.007695"><ele>383.007935</ele><time>2021-07-17T09:44:14Z</time><extensions><speed>0.441985</speed><course>225.723022</course><hAcc>0.888657</hAcc><vAcc>0.714763</vAcc></extensions></trkpt>
      <trkpt lon="-4.128869" lat="53.007691"><ele>383.152802</ele><time>2021-07-17T09:44:15Z</time><extensions><speed>0.438119</speed><course>227.303833</course><hAcc>0.888553</hAcc><vAcc>0.714372</vAcc></extensions></trkpt>
      <trkpt lon="-4.128871" lat="53.007688"><ele>383.297638</ele><time>2021-07-17T09:44:16Z</time><extensions><speed>0.433678</speed><course>225.742310</course><hAcc>0.888467</hAcc><vAcc>0.714088</vAcc></extensions></trkpt>
      <trkpt lon="-4.128873" lat="53.007684"><ele>383.441620</ele><time>2021-07-17T09:44:17Z</time><extensions><speed>0.428306</speed><course>225.742310</course><hAcc>0.888402</hAcc><vAcc>0.713916</vAcc></extensions></trkpt>
      <trkpt lon="-4.128875" lat="53.007680"><ele>383.584167</ele><time>2021-07-17T09:44:18Z</time><extensions><speed>0.421805</speed><course>225.742325</course><hAcc>0.888357</hAcc><vAcc>0.713849</vAcc></extensions></trkpt>
      <trkpt lon="-4.128877" lat="53.007677"><ele>383.724976</ele><time>2021-07-17T09:44:19Z</time><extensions><speed>0.414119</speed><course>225.742325</course><hAcc>0.888327</hAcc><vAcc>0.713866</vAcc></extensions></trkpt>
      <trkpt lon="-4.128879" lat="53.007673"><ele>383.863678</ele><time>2021-07-17T09:44:20Z</time><extensions><speed>0.405341</speed><course>225.742325</course><hAcc>0.888309</hAcc><vAcc>0.713938</vAcc></extensions></trkpt>
      <trkpt lon="-4.128880" lat="53.007670"><ele>383.999847</ele><time>2021-07-17T09:44:21Z</time><extensions><speed>0.395743</speed><course>224.360504</course><hAcc>0.888298</hAcc><vAcc>0.714028</vAcc></extensions></trkpt>
      <trkpt lon="-4.128882" lat="53.007666"><ele>384.133026</ele><time>2021-07-17T09:44:22Z</time><extensions><speed>0.385954</speed><course>231.374908</course><hAcc>0.888289</hAcc><vAcc>0.714098</vAcc></extensions></trkpt>
      <trkpt lon="-4.128883" lat="53.007663"><ele>384.262878</ele><time>2021-07-17T09:44:23Z</time><extensions><speed>0.376957</speed><course>226.234039</course><hAcc>0.888277</hAcc><vAcc>0.714118</vAcc></extensions></trkpt>
      <trkpt lon="-4.128884" lat="53.007660"><ele>384.389343</ele><time>2021-07-17T09:44:24Z</time><extensions><speed>0.369880</speed><course>228.443588</course><hAcc>0.888260</hAcc><vAcc>0.714070</vAcc></extensions></trkpt>
      <trkpt lon="-4.128885" lat="53.007656"><ele>384.512756</ele><time>2021-07-17T09:44:25Z</time><extensions><speed>0.365742</speed><course>217.150848</course><hAcc>0.888235</hAcc><vAcc>0.713949</vAcc></extensions></trkpt>
      <trkpt lon="-4.128885" lat="53.007653"><ele>384.633575</ele><time>2021-07-17T09:44:26Z</time><extensions><speed>0.364981</speed><course>214.670395</course><hAcc>0.888201</hAcc><vAcc>0.713769</vAcc></extensions></trkpt>
      <trkpt lon="-4.128886" lat="53.007650"><ele>384.752228</ele><time>2021-07-17T09:44:27Z</time><extensions><speed>0.367644</speed><course>219.066208</course><hAcc>0.888159</hAcc><vAcc>0.713551</vAcc></extensions></trkpt>
      <trkpt lon="-4.128886" lat="53.007647"><ele>384.869232</ele><time>2021-07-17T09:44:28Z</time><extensions><speed>0.373547</speed><course>218.042282</course><hAcc>0.888111</hAcc><vAcc>0.713320</vAcc></extensions></trkpt>
      <trkpt lon="-4.128887" lat="53.007643"><ele>384.984924</ele><time>2021-07-17T09:44:29Z</time><extensions><speed>0.382317</speed><course>220.994385</course><hAcc>0.888058</hAcc><vAcc>0.713095</vAcc></extensions></trkpt>
      <trkpt lon="-4.128887" lat="53.007640"><ele>385.099640</ele><time>2021-07-17T09:44:30Z</time><extensions><speed>0.393644</speed><course>227.746307</course><hAcc>0.888002</hAcc><vAcc>0.712891</vAcc></extensions></trkpt>
      <trkpt lon="-4.128887" lat="53.007636"><ele>385.213593</ele><time>2021-07-17T09:44:31Z</time><extensions><speed>0.407423</speed><course>224.855316</course><hAcc>0.887944</hAcc><vAcc>0.712715</vAcc></extensions></trkpt>
      <trkpt lon="-4.128887" lat="53.007632"><ele>385.327026</ele><time>2021-07-17T09:44:32Z</time><extensions><speed>0.423702</speed><course>223.584900</course><hAcc>0.887887</hAcc><vAcc>0.712564</vAcc></extensions></trkpt>
      <trkpt lon="-4.128886" lat="53.007628"><ele>385.440002</ele><time>2021-07-17T09:44:33Z</time><extensions><speed>0.442308</speed><course>224.383530</course><hAcc>0.887830</hAcc><vAcc>0.712430</vAcc></extensions></trkpt>
      <trkpt lon="-4.128886" lat="53.007624"><ele>385.552521</ele><time>2021-07-17T09:44:34Z</time><extensions><speed>0.462882</speed><course>225.716217</course><hAcc>0.887773</hAcc><vAcc>0.712298</vAcc></extensions></trkpt>
      <trkpt lon="-4.128885" lat="53.007620"><ele>385.664429</ele><time>2021-07-17T09:44:35Z</time><extensions><speed>0.485317</speed><course>229.189102</course><hAcc>0.887717</hAcc><vAcc>0.712154</vAcc></extensions></trkpt>
      <trkpt lon="-4.128884" lat="53.007616"><ele>385.775635</ele><time>2021-07-17T09:44:36Z</time><extensions><speed>0.509604</speed><course>224.817474</course><hAcc>0.887661</hAcc><vAcc>0.711989</vAcc></extensions></trkpt>
      <trkpt lon="-4.128882" lat="53.007611"><ele>385.886414</ele><time>2021-07-17T09:44:37Z</time><extensions><speed>0.535055</speed><course>225.227936</course><hAcc>0.887605</hAcc><vAcc>0.711802</vAcc></extensions></trkpt>
      <trkpt lon="-4.128880" lat="53.007606"><ele>385.997131</ele><time>2021-07-17T09:44:38Z</time><extensions><speed>0.560651</speed><course>228.251373</course><hAcc>0.887550</hAcc><vAcc>0.711600</vAcc></extensions></trkpt>
      <trkpt lon="-4.128878" lat="53.007601"><ele>386.108215</ele><time>2021-07-17T09:44:39Z</time><extensions><speed>0.585699</speed><course>230.721024</course><hAcc>0.887497</hAcc><vAcc>0.711393</vAcc></extensions></trkpt>
      <trkpt lon="-4.128876" lat="53.007596"><ele>386.220001</ele><time>2021-07-17T09:44:40Z</time><extensions><speed>0.609543</speed><course>234.697540</course><hAcc>0.887448</hAcc><vAcc>0.711195</vAcc></extensions></trkpt>
      <trkpt lon="-4.128873" lat="53.007591"><ele>386.332672</ele><time>2021-07-17T09:44:41Z</time><extensions><speed>0.631507</speed><course>236.619934</course><hAcc>0.887405</hAcc><vAcc>0.711017</vAcc></extensions></trkpt>
      <trkpt lon="-4.128871" lat="53.007585"><ele>386.446533</ele><time>2021-07-17T09:44:42Z</time><extensions><speed>0.651031</speed><course>247.542679</course><hAcc>0.887371</hAcc><vAcc>0.710873</vAcc></extensions></trkpt>
      <trkpt lon="-4.128868" lat="53.007580"><ele>386.561920</ele><time>2021-07-17T09:44:43Z</time><extensions><speed>0.667870</speed><course>242.855072</course><hAcc>0.887347</hAcc><vAcc>0.710773</vAcc></extensions></trkpt>
      <trkpt lon="-4.128865" lat="53.007574"><ele>386.679504</ele><time>2021-07-17T09:44:44Z</time><extensions><speed>0.682132</speed><course>241.397278</course><hAcc>0.887335</hAcc><vAcc>0.710725</vAcc></extensions></trkpt>
      <trkpt lon="-4.128863" lat="53.007568"><ele>386.800140</ele><time>2021-07-17T09:44:45Z</time><extensions><speed>0.694024</speed><course>241.667068</course><hAcc>0.887337</hAcc><vAcc>0.710732</vAcc></extensions></trkpt>
      <trkpt lon="-4.128860" lat="53.007562"><ele>386.924744</ele><time>2021-07-17T09:44:46Z</time><extensions><speed>0.703843</speed><course>241.132874</course><hAcc>0.887352</hAcc><vAcc>0.710791</vAcc></extensions></trkpt>
      <trkpt lon="-4.128858" lat="53.007556"><ele>387.054352</ele><time>2021-07-17T09:44:47Z</time><extensions><speed>0.712283</speed><course>242.509506</course><hAcc>0.887382</hAcc><vAcc>0.710897</vAcc></extensions></trkpt>
      <trkpt lon="-4.128856" lat="53.007549"><ele>387.189453</ele><time>2021-07-17T09:44:48Z</time><extensions><speed>0.720435</speed><course>242.195404</course><hAcc>0.887424</hAcc><vAcc>0.711045</vAcc></extensions></trkpt>
      <trkpt lon="-4.128854" lat="53.007543"><ele>387.330353</ele><time>2021-07-17T09:44:49Z</time><extensions><speed>0.729480</speed><course>244.443573</course><hAcc>0.887476</hAcc><vAcc>0.711230</vAcc></extensions></trkpt>
      <trkpt lon="-4.128853" lat="53.007536"><ele>387.476868</ele><time>2021-07-17T09:44:50Z</time><extensions><speed>0.740436</speed><course>246.780472</course><hAcc>0.887537</hAcc><vAcc>0.711449</vAcc></extensions></trkpt>
      <trkpt lon="-4.128852" lat="53.007530"><ele>387.628601</ele><time>2021-07-17T09:44:51Z</time><extensions><speed>0.753777</speed><course>247.423477</course><hAcc>0.887602</hAcc><vAcc>0.711698</vAcc></extensions></trkpt>
      <trkpt lon="-4.128851" lat="53.007523"><ele>387.784943</ele><time>2021-07-17T09:44:52Z</time><extensions><speed>0.769319</speed><course>252.345490</course><hAcc>0.887668</hAcc><vAcc>0.711963</vAcc></extensions></trkpt>
      <trkpt lon="-4.128851" lat="53.007516"><ele>387.945068</ele><time>2021-07-17T09:44:53Z</time><extensions><speed>0.786459</speed><course>252.366760</course><hAcc>0.887733</hAcc><vAcc>0.712227</vAcc></extensions></trkpt>
      <trkpt lon="-4.128851" lat="53.007509"><ele>388.107971</ele><time>2021-07-17T09:44:54Z</time><extensions><speed>0.804247</speed><course>254.889893</course><hAcc>0.887793</hAcc><vAcc>0.712467</vAcc></extensions></trkpt>
      <trkpt lon="-4.128851" lat="53.007501"><ele>388.272247</ele><time>2021-07-17T09:44:55Z</time><extensions><speed>0.821549</speed><course>257.492432</course><hAcc>0.887846</hAcc><vAcc>0.712664</vAcc></extensions></trkpt>
      <trkpt lon="-4.128851" lat="53.007494"><ele>388.436218</ele><time>2021-07-17T09:44:56Z</time><extensions><speed>0.837403</speed><course>255.728439</course><hAcc>0.887889</hAcc><vAcc>0.712807</vAcc></extensions></trkpt>
      <trkpt lon="-4.128852" lat="53.007486"><ele>388.597992</ele><time>2021-07-17T09:44:57Z</time><extensions><speed>0.851288</speed><course>258.375061</course><hAcc>0.887922</hAcc><vAcc>0.712894</vAcc></extensions></trkpt>
      <trkpt lon="-4.128852" lat="53.007479"><ele>388.755737</ele><time>2021-07-17T09:44:58Z</time><extensions><speed>0.863121</speed><course>260.722260</course><hAcc>0.887943</hAcc><vAcc>0.712932</vAcc></extensions></trkpt>
      <trkpt lon="-4.128852" lat="53.007471"><ele>388.907745</ele><time>2021-07-17T09:44:59Z</time><extensions><speed>0.873220</speed><course>260.722260</course><hAcc>0.887952</hAcc><vAcc>0.712928</vAcc></extensions></trkpt>
      <trkpt lon="-4.128853" lat="53.007463"><ele>389.052582</ele><time>2021-07-17T09:45:00Z</time><extensions><speed>0.882294</speed><course>260.722260</course><hAcc>0.887950</hAcc><vAcc>0.712893</vAcc></extensions></trkpt>
      <trkpt lon="-4.128853" lat="53.007455"><ele>389.188904</ele><time>2021-07-17T09:45:01Z</time><extensions><speed>0.890933</speed><course>260.722260</course><hAcc>0.887938</hAcc><vAcc>0.712835</vAcc></extensions></trkpt>
      <trkpt lon="-4.128853" lat="53.007447"><ele>389.315765</ele><time>2021-07-17T09:45:02Z</time><extensions><speed>0.899168</speed><course>260.722260</course><hAcc>0.887918</hAcc><vAcc>0.712761</vAcc></extensions></trkpt>
      <trkpt lon="-4.128853" lat="53.007439"><ele>389.432434</ele><time>2021-07-17T09:45:03Z</time><extensions><speed>0.906687</speed><course>260.722260</course><hAcc>0.887890</hAcc><vAcc>0.712672</vAcc></extensions></trkpt>
      <trkpt lon="-4.128854" lat="53.007431"><ele>389.538635</ele><time>2021-07-17T09:45:04Z</time><extensions><speed>0.913090</speed><course>260.722260</course><hAcc>0.887856</hAcc><vAcc>0.712568</vAcc></extensions></trkpt>
      <trkpt lon="-4.128854" lat="53.007422"><ele>389.634399</ele><time>2021-07-17T09:45:05Z</time><extensions><speed>0.917888</speed><course>260.722229</course><hAcc>0.887819</hAcc><vAcc>0.712449</vAcc></extensions></trkpt>
      <trkpt lon="-4.128853" lat="53.007414"><ele>389.720367</ele><time>2021-07-17T09:45:06Z</time><extensions><speed>0.920658</speed><course>268.575928</course><hAcc>0.887781</hAcc><vAcc>0.712316</vAcc></extensions></trkpt>
      <trkpt lon="-4.128853" lat="53.007406"><ele>389.797394</ele><time>2021-07-17T09:45:07Z</time><extensions><speed>0.921110</speed><course>268.685822</course><hAcc>0.887743</hAcc><vAcc>0.712173</vAcc></extensions></trkpt>
      <trkpt lon="-4.128853" lat="53.007398"><ele>389.866608</ele><time>2021-07-17T09:45:08Z</time><extensions><speed>0.919039</speed><course>264.169769</course><hAcc>0.887707</hAcc><vAcc>0.712029</vAcc></extensions></trkpt>
      <trkpt lon="-4.128852" lat="53.007389"><ele>389.928986</ele><time>2021-07-17T09:45:09Z</time><extensions><speed>0.914507</speed><course>272.216278</course><hAcc>0.887675</hAcc><vAcc>0.711894</vAcc></extensions></trkpt>
      <trkpt lon="-4.128851" lat="53.007381"><ele>389.985474</ele><time>2021-07-17T09:45:10Z</time><extensions><speed>0.907810</speed><course>279.707916</course><hAcc>0.887650</hAcc><vAcc>0.711781</vAcc></extensions></trkpt>
      <trkpt lon="-4.128850" lat="53.007373"><ele>390.036865</ele><time>2021-07-17T09:45:11Z</time><extensions><speed>0.899485</speed><course>277.974487</course><hAcc>0.887632</hAcc><vAcc>0.711699</vAcc></extensions></trkpt>
      <trkpt lon="-4.128849" lat="53.007365"><ele>390.083679</ele><time>2021-07-17T09:45:12Z</time><extensions><speed>0.890043</speed><course>285.359497</course><hAcc>0.887622</hAcc><vAcc>0.711655</vAcc></extensions></trkpt>
      <trkpt lon="-4.128847" lat="53.007357"><ele>390.126343</ele><time>2021-07-17T09:45:13Z</time><extensions><speed>0.879708</speed><course>288.896698</course><hAcc>0.887621</hAcc><vAcc>0.711652</vAcc></extensions></trkpt>
      <trkpt lon="-4.128845" lat="53.007349"><ele>390.165558</ele><time>2021-07-17T09:45:14Z</time><extensions><speed>0.868623</speed><course>285.949463</course><hAcc>0.887628</hAcc><vAcc>0.711688</vAcc></extensions></trkpt>
      <trkpt lon="-4.128844" lat="53.007342"><ele>390.202057</ele><time>2021-07-17T09:45:15Z</time><extensions><speed>0.856480</speed><course>279.328217</course><hAcc>0.887644</hAcc><vAcc>0.711759</vAcc></extensions></trkpt>
      <trkpt lon="-4.128842" lat="53.007334"><ele>390.236664</ele><time>2021-07-17T09:45:16Z</time><extensions><speed>0.842798</speed><course>280.252258</course><hAcc>0.887666</hAcc><vAcc>0.711857</vAcc></extensions></trkpt>
      <trkpt lon="-4.128840" lat="53.007327"><ele>390.270111</ele><time>2021-07-17T09:45:17Z</time><extensions><speed>0.827711</speed><course>280.968384</course><hAcc>0.887694</hAcc><vAcc>0.711968</vAcc></extensions></trkpt>
      <trkpt lon="-4.128838" lat="53.007319"><ele>390.303070</ele><time>2021-07-17T09:45:18Z</time><extensions><speed>0.811826</speed><course>279.577759</course><hAcc>0.887725</hAcc><vAcc>0.712083</vAcc></extensions></trkpt>
      <trkpt lon="-4.128835" lat="53.007312"><ele>390.336029</ele><time>2021-07-17T09:45:19Z</time><extensions><speed>0.795622</speed><course>280.039124</course><hAcc>0.887740</hAcc><vAcc>0.712177</vAcc></extensions></trkpt>
      <trkpt lon="-4.128833" lat="53.007305"><ele>390.369202</ele><time>2021-07-17T09:45:20Z</time><extensions><speed>0.779489</speed><course>285.588440</course><hAcc>0.887735</hAcc><vAcc>0.712246</vAcc></extensions></trkpt>
      <trkpt lon="-4.128831" lat="53.007299"><ele>390.402893</ele><time>2021-07-17T09:45:21Z</time><extensions><speed>0.763835</speed><course>287.653503</course><hAcc>0.887726</hAcc><vAcc>0.712296</vAcc></extensions></trkpt>
      <trkpt lon="-4.128829" lat="53.007292"><ele>390.437378</ele><time>2021-07-17T09:45:22Z</time><extensions><speed>0.749016</speed><course>285.239563</course><hAcc>0.887708</hAcc><vAcc>0.712326</vAcc></extensions></trkpt>
      <trkpt lon="-4.128828" lat="53.007285"><ele>390.472961</ele><time>2021-07-17T09:45:22Z</time><extensions><speed>0.735250</speed><course>283.468018</course><hAcc>0.887716</hAcc><vAcc>0.712359</vAcc></extensions></trkpt>
      <trkpt lon="-4.128826" lat="53.007279"><ele>390.510284</ele><time>2021-07-17T09:45:23Z</time><extensions><speed>0.722308</speed><course>279.656525</course><hAcc>0.887747</hAcc><vAcc>0.712396</vAcc></extensions></trkpt>
      <trkpt lon="-4.128824" lat="53.007272"><ele>390.549683</ele><time>2021-07-17T09:45:24Z</time><extensions><speed>0.709895</speed><course>278.539093</course><hAcc>0.887768</hAcc><vAcc>0.712411</vAcc></extensions></trkpt>
      <trkpt lon="-4.128823" lat="53.007266"><ele>390.591461</ele><time>2021-07-17T09:45:25Z</time><extensions><speed>0.697684</speed><course>281.435120</course><hAcc>0.887778</hAcc><vAcc>0.712408</vAcc></extensions></trkpt>
      <trkpt lon="-4.128822" lat="53.007260"><ele>390.635620</ele><time>2021-07-17T09:45:26Z</time><extensions><speed>0.685626</speed><course>285.299316</course><hAcc>0.887780</hAcc><vAcc>0.712387</vAcc></extensions></trkpt>
      <trkpt lon="-4.128821" lat="53.007254"><ele>390.682098</ele><time>2021-07-17T09:45:27Z</time><extensions><speed>0.674249</speed><course>278.729095</course><hAcc>0.887775</hAcc><vAcc>0.712352</vAcc></extensions></trkpt>
      <trkpt lon="-4.128820" lat="53.007248"><ele>390.730499</ele><time>2021-07-17T09:45:28Z</time><extensions><speed>0.664419</speed><course>281.499542</course><hAcc>0.887764</hAcc><vAcc>0.712305</vAcc></extensions></trkpt>
      <trkpt lon="-4.128819" lat="53.007242"><ele>390.780060</ele><time>2021-07-17T09:45:29Z</time><extensions><speed>0.657087</speed><course>280.886475</course><hAcc>0.887749</hAcc><vAcc>0.712248</vAcc></extensions></trkpt>
      <trkpt lon="-4.128819" lat="53.007236"><ele>390.829926</ele><time>2021-07-17T09:45:30Z</time><extensions><speed>0.652942</speed><course>287.541565</course><hAcc>0.887733</hAcc><vAcc>0.712182</vAcc></extensions></trkpt>
      <trkpt lon="-4.128818" lat="53.007230"><ele>390.879120</ele><time>2021-07-17T09:45:31Z</time><extensions><speed>0.652311</speed><course>288.221985</course><hAcc>0.887717</hAcc><vAcc>0.712110</vAcc></extensions></trkpt>
      <trkpt lon="-4.128818" lat="53.007224"><ele>390.926849</ele><time>2021-07-17T09:45:32Z</time><extensions><speed>0.655646</speed><course>291.891876</course><hAcc>0.887704</hAcc><vAcc>0.712038</vAcc></extensions></trkpt>
      <trkpt lon="-4.128819" lat="53.007219"><ele>390.972656</ele><time>2021-07-17T09:45:33Z</time><extensions><speed>0.663073</speed><course>289.035248</course><hAcc>0.887696</hAcc><vAcc>0.711974</vAcc></extensions></trkpt>
      <trkpt lon="-4.128819" lat="53.007213"><ele>391.016357</ele><time>2021-07-17T09:45:34Z</time><extensions><speed>0.673917</speed><course>286.354584</course><hAcc>0.887696</hAcc><vAcc>0.711931</vAcc></extensions></trkpt>
      <trkpt lon="-4.128820" lat="53.007206"><ele>391.057892</ele><time>2021-07-17T09:45:35Z</time><extensions><speed>0.687016</speed><course>285.070648</course><hAcc>0.887708</hAcc><vAcc>0.711920</vAcc></extensions></trkpt>
      <trkpt lon="-4.128821" lat="53.007200"><ele>391.097504</ele><time>2021-07-17T09:45:36Z</time><extensions><speed>0.701303</speed><course>282.456329</course><hAcc>0.887732</hAcc><vAcc>0.711955</vAcc></extensions></trkpt>
      <trkpt lon="-4.128823" lat="53.007194"><ele>391.135590</ele><time>2021-07-17T09:45:37Z</time><extensions><speed>0.715878</speed><course>277.579590</course><hAcc>0.887770</hAcc><vAcc>0.712045</vAcc></extensions></trkpt>
      <trkpt lon="-4.128825" lat="53.007188"><ele>391.172791</ele><time>2021-07-17T09:45:38Z</time><extensions><speed>0.729798</speed><course>280.944580</course><hAcc>0.887823</hAcc><vAcc>0.712199</vAcc></extensions></trkpt>
      <trkpt lon="-4.128827" lat="53.007181"><ele>391.209869</ele><time>2021-07-17T09:45:39Z</time><extensions><speed>0.742274</speed><course>286.555664</course><hAcc>0.887890</hAcc><vAcc>0.712420</vAcc></extensions></trkpt>
      <trkpt lon="-4.128830" lat="53.007175"><ele>391.247772</ele><time>2021-07-17T09:45:40Z</time><extensions><speed>0.752661</speed><course>286.867188</course><hAcc>0.887967</hAcc><vAcc>0.712706</vAcc></extensions></trkpt>
      <trkpt lon="-4.128833" lat="53.007168"><ele>391.287628</ele><time>2021-07-17T09:45:41Z</time><extensions><speed>0.760730</speed><course>285.747314</course><hAcc>0.888052</hAcc><vAcc>0.713045</vAcc></extensions></trkpt>
      <trkpt lon="-4.128836" lat="53.007161"><ele>391.330414</ele><time>2021-07-17T09:45:42Z</time><extensions><speed>0.766638</speed><course>288.748718</course><hAcc>0.888141</hAcc><vAcc>0.713419</vAcc></extensions></trkpt>
      <trkpt lon="-4.128840" lat="53.007155"><ele>391.377167</ele><time>2021-07-17T09:45:43Z</time><extensions><speed>0.770659</speed><course>282.056335</course><hAcc>0.888228</hAcc><vAcc>0.713799</vAcc></extensions></trkpt>
      <trkpt lon="-4.128844" lat="53.007148"><ele>391.428528</ele><time>2021-07-17T09:45:44Z</time><extensions><speed>0.772677</speed><course>284.841522</course><hAcc>0.888309</hAcc><vAcc>0.714153</vAcc></extensions></trkpt>
      <trkpt lon="-4.128848" lat="53.007142"><ele>391.485229</ele><time>2021-07-17T09:45:45Z</time><extensions><speed>0.772262</speed><course>283.873260</course><hAcc>0.888381</hAcc><vAcc>0.714448</vAcc></extensions></trkpt>
      <trkpt lon="-4.128852" lat="53.007136"><ele>391.548004</ele><time>2021-07-17T09:45:46Z</time><extensions><speed>0.769069</speed><course>280.645142</course><hAcc>0.888443</hAcc><vAcc>0.714657</vAcc></extensions></trkpt>
      <trkpt lon="-4.128857" lat="53.007129"><ele>391.617432</ele><time>2021-07-17T09:45:47Z</time><extensions><speed>0.762782</speed><course>278.726105</course><hAcc>0.888493</hAcc><vAcc>0.714770</vAcc></extensions></trkpt>
      <trkpt lon="-4.128861" lat="53.007123"><ele>391.693970</ele><time>2021-07-17T09:45:48Z</time><extensions><speed>0.753327</speed><course>276.107971</course><hAcc>0.888533</hAcc><vAcc>0.714792</vAcc></extensions></trkpt>
      <trkpt lon="-4.128866" lat="53.007117"><ele>391.777863</ele><time>2021-07-17T09:45:49Z</time><extensions><speed>0.741067</speed><course>275.135803</course><hAcc>0.888568</hAcc><vAcc>0.714747</vAcc></extensions></trkpt>
      <trkpt lon="-4.128870" lat="53.007111"><ele>391.869141</ele><time>2021-07-17T09:45:51Z</time><extensions><speed>0.726801</speed><course>273.705627</course><hAcc>0.888582</hAcc><vAcc>0.714653</vAcc></extensions></trkpt>
      <trkpt lon="-4.128875" lat="53.007105"><ele>391.967621</ele><time>2021-07-17T09:45:52Z</time><extensions><speed>0.711510</speed><course>279.700806</course><hAcc>0.888579</hAcc><vAcc>0.714551</vAcc></extensions></trkpt>
      <trkpt lon="-4.128879" lat="53.007099"><ele>392.073273</ele><time>2021-07-17T09:45:53Z</time><extensions><speed>0.695950</speed><course>279.102997</course><hAcc>0.888584</hAcc><vAcc>0.714490</vAcc></extensions></trkpt>
      <trkpt lon="-4.128883" lat="53.007094"><ele>392.185974</ele><time>2021-07-17T09:45:54Z</time><extensions><speed>0.680792</speed><course>281.416626</course><hAcc>0.888600</hAcc><vAcc>0.714500</vAcc></extensions></trkpt>
      <trkpt lon="-4.128887" lat="53.007088"><ele>392.305115</ele><time>2021-07-17T09:45:55Z</time><extensions><speed>0.666482</speed><course>274.399658</course><hAcc>0.888630</hAcc><vAcc>0.714597</vAcc></extensions></trkpt>
      <trkpt lon="-4.128891" lat="53.007083"><ele>392.429810</ele><time>2021-07-17T09:45:56Z</time><extensions><speed>0.653271</speed><course>277.055237</course><hAcc>0.888680</hAcc><vAcc>0.714783</vAcc></extensions></trkpt>
      <trkpt lon="-4.128895" lat="53.007077"><ele>392.559204</ele><time>2021-07-17T09:45:57Z</time><extensions><speed>0.641634</speed><course>271.055908</course><hAcc>0.888754</hAcc><vAcc>0.715051</vAcc></extensions></trkpt>
      <trkpt lon="-4.128899" lat="53.007072"><ele>392.692566</ele><time>2021-07-17T09:45:58Z</time><extensions><speed>0.632267</speed><course>270.959534</course><hAcc>0.888857</hAcc><vAcc>0.715395</vAcc></extensions></trkpt>
      <trkpt lon="-4.128903" lat="53.007067"><ele>392.829193</ele><time>2021-07-17T09:45:59Z</time><extensions><speed>0.625893</speed><course>273.311462</course><hAcc>0.888997</hAcc><vAcc>0.715812</vAcc></extensions></trkpt>
      <trkpt lon="-4.128907" lat="53.007062"><ele>392.968750</ele><time>2021-07-17T09:46:00Z</time><extensions><speed>0.623116</speed><course>270.079376</course><hAcc>0.889184</hAcc><vAcc>0.716304</vAcc></extensions></trkpt>
      <trkpt lon="-4.128911" lat="53.007057"><ele>393.111053</ele><time>2021-07-17T09:46:01Z</time><extensions><speed>0.623660</speed><course>269.858612</course><hAcc>0.889432</hAcc><vAcc>0.716883</vAcc></extensions></trkpt>
      <trkpt lon="-4.128915" lat="53.007052"><ele>393.255920</ele><time>2021-07-17T09:46:02Z</time><extensions><speed>0.626408</speed><course>271.614288</course><hAcc>0.889761</hAcc><vAcc>0.717565</vAcc></extensions></trkpt>
      <trkpt lon="-4.128920" lat="53.007047"><ele>393.402954</ele><time>2021-07-17T09:46:03Z</time><extensions><speed>0.630172</speed><course>269.703888</course><hAcc>0.890198</hAcc><vAcc>0.718370</vAcc></extensions></trkpt>
      <trkpt lon="-4.128924" lat="53.007042"><ele>393.552002</ele><time>2021-07-17T09:46:04Z</time><extensions><speed>0.634021</speed><course>271.185974</course><hAcc>0.890775</hAcc><vAcc>0.719316</vAcc></extensions></trkpt>
      <trkpt lon="-4.128929" lat="53.007037"><ele>393.703339</ele><time>2021-07-17T09:46:05Z</time><extensions><speed>0.637366</speed><course>276.545776</course><hAcc>0.891528</hAcc><vAcc>0.720415</vAcc></extensions></trkpt>
      <trkpt lon="-4.128934" lat="53.007032"><ele>393.857452</ele><time>2021-07-17T09:46:06Z</time><extensions><speed>0.639555</speed><course>274.150604</course><hAcc>0.892496</hAcc><vAcc>0.721676</vAcc></extensions></trkpt>
      <trkpt lon="-4.128939" lat="53.007027"><ele>394.014862</ele><time>2021-07-17T09:46:07Z</time><extensions><speed>0.639493</speed><course>269.686920</course><hAcc>0.893712</hAcc><vAcc>0.723101</vAcc></extensions></trkpt>
      <trkpt lon="-4.128944" lat="53.007022"><ele>394.175964</ele><time>2021-07-17T09:46:08Z</time><extensions><speed>0.636270</speed><course>266.852386</course><hAcc>0.895197</hAcc><vAcc>0.724681</vAcc></extensions></trkpt>
      <trkpt lon="-4.128949" lat="53.007017"><ele>394.340851</ele><time>2021-07-17T09:46:09Z</time><extensions><speed>0.629705</speed><course>267.243347</course><hAcc>0.896951</hAcc><vAcc>0.726390</vAcc></extensions></trkpt>
      <trkpt lon="-4.128954" lat="53.007013"><ele>394.509216</ele><time>2021-07-17T09:46:10Z</time><extensions><speed>0.620260</speed><course>260.829193</course><hAcc>0.898940</hAcc><vAcc>0.728171</vAcc></extensions></trkpt>
      <trkpt lon="-4.128959" lat="53.007008"><ele>394.680542</ele><time>2021-07-17T09:46:11Z</time><extensions><speed>0.608865</speed><course>268.227509</course><hAcc>0.901087</hAcc><vAcc>0.729932</vAcc></extensions></trkpt>
      <trkpt lon="-4.128965" lat="53.007004"><ele>394.854218</ele><time>2021-07-17T09:46:12Z</time><extensions><speed>0.596623</speed><course>261.241119</course><hAcc>0.903264</hAcc><vAcc>0.731553</vAcc></extensions></trkpt>
      <trkpt lon="-4.128970" lat="53.007000"><ele>395.029724</ele><time>2021-07-17T09:46:13Z</time><extensions><speed>0.584380</speed><course>259.199677</course><hAcc>0.905300</hAcc><vAcc>0.732895</vAcc></extensions></trkpt>
      <trkpt lon="-4.128975" lat="53.006996"><ele>395.206604</ele><time>2021-07-17T09:46:14Z</time><extensions><speed>0.572422</speed><course>258.372070</course><hAcc>0.907000</hAcc><vAcc>0.733847</vAcc></extensions></trkpt>
      <trkpt lon="-4.128981" lat="53.006992"><ele>395.384430</ele><time>2021-07-17T09:46:15Z</time><extensions><speed>0.560697</speed><course>251.644882</course><hAcc>0.908202</hAcc><vAcc>0.734381</vAcc></extensions></trkpt>
      <trkpt lon="-4.128987" lat="53.006988"><ele>395.562927</ele><time>2021-07-17T09:46:16Z</time><extensions><speed>0.549131</speed><course>250.726257</course><hAcc>0.908878</hAcc><vAcc>0.734657</vAcc></extensions></trkpt>
      <trkpt lon="-4.128992" lat="53.006985"><ele>395.741852</ele><time>2021-07-17T09:46:17Z</time><extensions><speed>0.537836</speed><course>245.632431</course><hAcc>0.909297</hAcc><vAcc>0.735169</vAcc></extensions></trkpt>
      <trkpt lon="-4.128998" lat="53.006982"><ele>395.921051</ele><time>2021-07-17T09:46:18Z</time><extensions><speed>0.527104</speed><course>245.967255</course><hAcc>0.910288</hAcc><vAcc>0.736934</vAcc></extensions></trkpt>
      <trkpt lon="-4.129004" lat="53.006978"><ele>396.100586</ele><time>2021-07-17T09:46:19Z</time><extensions><speed>0.516938</speed><course>241.448837</course><hAcc>0.913591</hAcc><vAcc>0.741735</vAcc></extensions></trkpt>
      <trkpt lon="-4.129010" lat="53.006976"><ele>396.280518</ele><time>2021-07-17T09:46:20Z</time><extensions><speed>0.507094</speed><course>246.306168</course><hAcc>0.922288</hAcc><vAcc>0.752347</vAcc></extensions></trkpt>
      <trkpt lon="-4.129016" lat="53.006973"><ele>396.460907</ele><time>2021-07-17T09:46:21Z</time><extensions><speed>0.497716</speed><course>241.853012</course><hAcc>0.941207</hAcc><vAcc>0.772657</vAcc></extensions></trkpt>
      <trkpt lon="-4.129022" lat="53.006970"><ele>396.641754</ele><time>2021-07-17T09:46:22Z</time><extensions><speed>0.489218</speed><course>247.017685</course><hAcc>0.977035</hAcc><vAcc>0.807514</vAcc></extensions></trkpt>
      <trkpt lon="-4.129027" lat="53.006973"><ele>396.885437</ele><time>2021-07-17T09:46:23Z</time><extensions><speed>0.382352</speed><course>207.637573</course><hAcc>0.938656</hAcc><vAcc>0.771764</vAcc></extensions></trkpt>
      <trkpt lon="-4.129032" lat="53.006974"><ele>397.079620</ele><time>2021-07-17T09:46:24Z</time><extensions><speed>0.386258</speed><course>199.781464</course><hAcc>0.919029</hAcc><vAcc>0.750490</vAcc></extensions></trkpt>
      <trkpt lon="-4.129037" lat="53.006976"><ele>397.270721</ele><time>2021-07-17T09:46:25Z</time><extensions><speed>0.393737</speed><course>204.898392</course><hAcc>0.910805</hAcc><vAcc>0.739924</vAcc></extensions></trkpt>
      <trkpt lon="-4.129042" lat="53.006978"><ele>397.458069</ele><time>2021-07-17T09:46:26Z</time><extensions><speed>0.405186</speed><course>218.988647</course><hAcc>0.908481</hAcc><vAcc>0.735734</vAcc></extensions></trkpt>
      <trkpt lon="-4.129047" lat="53.006980"><ele>397.641083</ele><time>2021-07-17T09:46:27Z</time><extensions><speed>0.420024</speed><course>240.875916</course><hAcc>0.908548</hAcc><vAcc>0.734811</vAcc></extensions></trkpt>
      <trkpt lon="-4.129052" lat="53.006983"><ele>397.819550</ele><time>2021-07-17T09:46:28Z</time><extensions><speed>0.436893</speed><course>240.875916</course><hAcc>0.909044</hAcc><vAcc>0.735162</vAcc></extensions></trkpt>
      <trkpt lon="-4.129057" lat="53.006985"><ele>397.993591</ele><time>2021-07-17T09:46:29Z</time><extensions><speed>0.454054</speed><course>240.875916</course><hAcc>0.909053</hAcc><vAcc>0.735655</vAcc></extensions></trkpt>
      <trkpt lon="-4.129061" lat="53.006988"><ele>398.163391</ele><time>2021-07-17T09:46:30Z</time><extensions><speed>0.469749</speed><course>240.875916</course><hAcc>0.908298</hAcc><vAcc>0.735748</vAcc></extensions></trkpt>
      <trkpt lon="-4.129066" lat="53.006992"><ele>398.329010</ele><time>2021-07-17T09:46:31Z</time><extensions><speed>0.482740</speed><course>240.875916</course><hAcc>0.906842</hAcc><vAcc>0.735268</vAcc></extensions></trkpt>
      <trkpt lon="-4.129071" lat="53.006995"><ele>398.490753</ele><time>2021-07-17T09:46:32Z</time><extensions><speed>0.492298</speed><course>240.875916</course><hAcc>0.904896</hAcc><vAcc>0.734250</vAcc></extensions></trkpt>
      <trkpt lon="-4.129075" lat="53.006998"><ele>398.648956</ele><time>2021-07-17T09:46:33Z</time><extensions><speed>0.498258</speed><course>269.430084</course><hAcc>0.902705</hAcc><vAcc>0.732826</vAcc></extensions></trkpt>
      <trkpt lon="-4.129080" lat="53.007002"><ele>398.804016</ele><time>2021-07-17T09:46:34Z</time><extensions><speed>0.500960</speed><course>274.056000</course><hAcc>0.900484</hAcc><vAcc>0.731163</vAcc></extensions></trkpt>
      <trkpt lon="-4.129085" lat="53.007006"><ele>398.955994</ele><time>2021-07-17T09:46:35Z</time><extensions><speed>0.501255</speed><course>273.580658</course><hAcc>0.898394</hAcc><vAcc>0.729414</vAcc></extensions></trkpt>
      <trkpt lon="-4.129089" lat="53.007009"><ele>399.105011</ele><time>2021-07-17T09:46:36Z</time><extensions><speed>0.500298</speed><course>266.285736</course><hAcc>0.896535</hAcc><vAcc>0.727704</vAcc></extensions></trkpt>
      <trkpt lon="-4.129094" lat="53.007013"><ele>399.251099</ele><time>2021-07-17T09:46:37Z</time><extensions><speed>0.499061</speed><course>280.416809</course><hAcc>0.894957</hAcc><vAcc>0.726118</vAcc></extensions></trkpt>
      <trkpt lon="-4.129098" lat="53.007016"><ele>399.394470</ele><time>2021-07-17T09:46:38Z</time><extensions><speed>0.498173</speed><course>289.633057</course><hAcc>0.893668</hAcc><vAcc>0.724706</vAcc></extensions></trkpt>
      <trkpt lon="-4.129103" lat="53.007020"><ele>399.535553</ele><time>2021-07-17T09:46:39Z</time><extensions><speed>0.497871</speed><course>274.042023</course><hAcc>0.892650</hAcc><vAcc>0.723490</vAcc></extensions></trkpt>
      <trkpt lon="-4.129107" lat="53.007023"><ele>399.674927</ele><time>2021-07-17T09:46:40Z</time><extensions><speed>0.497857</speed><course>259.398621</course><hAcc>0.891868</hAcc><vAcc>0.722468</vAcc></extensions></trkpt>
      <trkpt lon="-4.129112" lat="53.007027"><ele>399.813293</ele><time>2021-07-17T09:46:41Z</time><extensions><speed>0.497197</speed><course>235.228027</course><hAcc>0.891282</hAcc><vAcc>0.721625</vAcc></extensions></trkpt>
      <trkpt lon="-4.129117" lat="53.007030"><ele>399.951355</ele><time>2021-07-17T09:46:42Z</time><extensions><speed>0.494848</speed><course>233.943741</course><hAcc>0.890851</hAcc><vAcc>0.720935</vAcc></extensions></trkpt>
      <trkpt lon="-4.129122" lat="53.007033"><ele>400.089783</ele><time>2021-07-17T09:46:43Z</time><extensions><speed>0.490425</speed><course>251.986771</course><hAcc>0.890538</hAcc><vAcc>0.720371</vAcc></extensions></trkpt>
      <trkpt lon="-4.129127" lat="53.007037"><ele>400.229156</ele><time>2021-07-17T09:46:44Z</time><extensions><speed>0.484023</speed><course>230.632401</course><hAcc>0.890311</hAcc><vAcc>0.719908</vAcc></extensions></trkpt>
      <trkpt lon="-4.129132" lat="53.007040"><ele>400.369781</ele><time>2021-07-17T09:46:45Z</time><extensions><speed>0.475859</speed><course>208.539734</course><hAcc>0.890145</hAcc><vAcc>0.719524</vAcc></extensions></trkpt>
      <trkpt lon="-4.129137" lat="53.007043"><ele>400.511414</ele><time>2021-07-17T09:46:46Z</time><extensions><speed>0.466294</speed><course>217.062653</course><hAcc>0.890024</hAcc><vAcc>0.719202</vAcc></extensions></trkpt>
      <trkpt lon="-4.129142" lat="53.007045"><ele>400.653534</ele><time>2021-07-17T09:46:47Z</time><extensions><speed>0.455848</speed><course>216.480164</course><hAcc>0.889933</hAcc><vAcc>0.718930</vAcc></extensions></trkpt>
      <trkpt lon="-4.129147" lat="53.007048"><ele>400.795593</ele><time>2021-07-17T09:46:48Z</time><extensions><speed>0.445194</speed><course>215.204285</course><hAcc>0.889864</hAcc><vAcc>0.718702</vAcc></extensions></trkpt>
      <trkpt lon="-4.129152" lat="53.007051"><ele>400.937195</ele><time>2021-07-17T09:46:49Z</time><extensions><speed>0.434767</speed><course>192.608246</course><hAcc>0.889812</hAcc><vAcc>0.718515</vAcc></extensions></trkpt>
      <trkpt lon="-4.129157" lat="53.007053"><ele>401.078064</ele><time>2021-07-17T09:46:50Z</time><extensions><speed>0.424720</speed><course>196.818375</course><hAcc>0.889775</hAcc><vAcc>0.718370</vAcc></extensions></trkpt>
      <trkpt lon="-4.129162" lat="53.007055"><ele>401.217773</ele><time>2021-07-17T09:46:51Z</time><extensions><speed>0.415293</speed><course>200.564194</course><hAcc>0.889751</hAcc><vAcc>0.718274</vAcc></extensions></trkpt>
      <trkpt lon="-4.129167" lat="53.007058"><ele>401.355713</ele><time>2021-07-17T09:46:52Z</time><extensions><speed>0.407055</speed><course>224.718231</course><hAcc>0.889739</hAcc><vAcc>0.718230</vAcc></extensions></trkpt>
      <trkpt lon="-4.129172" lat="53.007060"><ele>401.491272</ele><time>2021-07-17T09:46:53Z</time><extensions><speed>0.400336</speed><course>228.969803</course><hAcc>0.889739</hAcc><vAcc>0.718240</vAcc></extensions></trkpt>
      <trkpt lon="-4.129176" lat="53.007062"><ele>401.623932</ele><time>2021-07-17T09:46:54Z</time><extensions><speed>0.394895</speed><course>250.366501</course><hAcc>0.889748</hAcc><vAcc>0.718302</vAcc></extensions></trkpt>
      <trkpt lon="-4.129181" lat="53.007064"><ele>401.753235</ele><time>2021-07-17T09:46:55Z</time><extensions><speed>0.390392</speed><course>-1.000000</course><hAcc>0.889768</hAcc><vAcc>0.718409</vAcc></extensions></trkpt>
      <trkpt lon="-4.129186" lat="53.007066"><ele>401.879089</ele><time>2021-07-17T09:46:56Z</time><extensions><speed>0.386491</speed><course>232.063629</course><hAcc>0.889796</hAcc><vAcc>0.718546</vAcc></extensions></trkpt>
      <trkpt lon="-4.129191" lat="53.007067"><ele>402.001587</ele><time>2021-07-17T09:46:57Z</time><extensions><speed>0.382900</speed><course>232.063614</course><hAcc>0.889831</hAcc><vAcc>0.718699</vAcc></extensions></trkpt>
      <trkpt lon="-4.129196" lat="53.007069"><ele>402.121124</ele><time>2021-07-17T09:46:58Z</time><extensions><speed>0.379312</speed><course>232.063614</course><hAcc>0.889871</hAcc><vAcc>0.718854</vAcc></extensions></trkpt>
      <trkpt lon="-4.129201" lat="53.007071"><ele>402.238190</ele><time>2021-07-17T09:46:59Z</time><extensions><speed>0.375044</speed><course>232.063599</course><hAcc>0.889917</hAcc><vAcc>0.719000</vAcc></extensions></trkpt>
      <trkpt lon="-4.129206" lat="53.007072"><ele>402.353546</ele><time>2021-07-17T09:47:00Z</time><extensions><speed>0.369796</speed><course>232.063599</course><hAcc>0.889967</hAcc><vAcc>0.719131</vAcc></extensions></trkpt>
      <trkpt lon="-4.129211" lat="53.007073"><ele>402.468079</ele><time>2021-07-17T09:47:01Z</time><extensions><speed>0.364125</speed><course>232.063583</course><hAcc>0.890002</hAcc><vAcc>0.719233</vAcc></extensions></trkpt>
      <trkpt lon="-4.129216" lat="53.007074"><ele>402.582245</ele><time>2021-07-17T09:47:02Z</time><extensions><speed>0.358745</speed><course>232.063583</course><hAcc>0.890021</hAcc><vAcc>0.719310</vAcc></extensions></trkpt>
      <trkpt lon="-4.129222" lat="53.007075"><ele>402.696686</ele><time>2021-07-17T09:47:03Z</time><extensions><speed>0.353862</speed><course>248.555511</course><hAcc>0.890041</hAcc><vAcc>0.719378</vAcc></extensions></trkpt>
      <trkpt lon="-4.129227" lat="53.007075"><ele>402.811554</ele><time>2021-07-17T09:47:04Z</time><extensions><speed>0.349060</speed><course>214.727661</course><hAcc>0.890060</hAcc><vAcc>0.719443</vAcc></extensions></trkpt>
      <trkpt lon="-4.129232" lat="53.007075"><ele>402.926758</ele><time>2021-07-17T09:47:05Z</time><extensions><speed>0.343710</speed><course>215.656113</course><hAcc>0.890078</hAcc><vAcc>0.719509</vAcc></extensions></trkpt>
      <trkpt lon="-4.129237" lat="53.007075"><ele>403.042053</ele><time>2021-07-17T09:47:06Z</time><extensions><speed>0.337184</speed><course>205.637772</course><hAcc>0.890094</hAcc><vAcc>0.719574</vAcc></extensions></trkpt>
      <trkpt lon="-4.129242" lat="53.007075"><ele>403.157104</ele><time>2021-07-17T09:47:07Z</time><extensions><speed>0.329160</speed><course>201.575424</course><hAcc>0.890107</hAcc><vAcc>0.719637</vAcc></extensions></trkpt>
      <trkpt lon="-4.129247" lat="53.007074"><ele>403.271576</ele><time>2021-07-17T09:47:08Z</time><extensions><speed>0.319815</speed><course>196.854248</course><hAcc>0.890117</hAcc><vAcc>0.719692</vAcc></extensions></trkpt>
      <trkpt lon="-4.129251" lat="53.007074"><ele>403.385162</ele><time>2021-07-17T09:47:09Z</time><extensions><speed>0.309540</speed><course>198.264053</course><hAcc>0.890124</hAcc><vAcc>0.719736</vAcc></extensions></trkpt>
      <trkpt lon="-4.129256" lat="53.007073"><ele>403.497498</ele><time>2021-07-17T09:47:10Z</time><extensions><speed>0.298552</speed><course>198.636932</course><hAcc>0.890128</hAcc><vAcc>0.719767</vAcc></extensions></trkpt>
      <trkpt lon="-4.129260" lat="53.007072"><ele>403.608276</ele><time>2021-07-17T09:47:11Z</time><extensions><speed>0.287066</speed><course>192.727798</course><hAcc>0.890128</hAcc><vAcc>0.719780</vAcc></extensions></trkpt>
      <trkpt lon="-4.129264" lat="53.007071"><ele>403.717255</ele><time>2021-07-17T09:47:12Z</time><extensions><speed>0.275571</speed><course>184.691818</course><hAcc>0.890124</hAcc><vAcc>0.719775</vAcc></extensions></trkpt>
      <trkpt lon="-4.129268" lat="53.007071"><ele>403.824402</ele><time>2021-07-17T09:47:13Z</time><extensions><speed>0.264918</speed><course>177.917740</course><hAcc>0.890118</hAcc><vAcc>0.719751</vAcc></extensions></trkpt>
      <trkpt lon="-4.129271" lat="53.007070"><ele>403.929962</ele><time>2021-07-17T09:47:14Z</time><extensions><speed>0.256351</speed><course>169.935883</course><hAcc>0.890110</hAcc><vAcc>0.719711</vAcc></extensions></trkpt>
      <trkpt lon="-4.129275" lat="53.007069"><ele>404.034393</ele><time>2021-07-17T09:47:15Z</time><extensions><speed>0.250973</speed><course>168.290512</course><hAcc>0.890101</hAcc><vAcc>0.719658</vAcc></extensions></trkpt>
      <trkpt lon="-4.129278" lat="53.007068"><ele>404.138367</ele><time>2021-07-17T09:47:16Z</time><extensions><speed>0.249131</speed><course>175.847488</course><hAcc>0.890094</hAcc><vAcc>0.719600</vAcc></extensions></trkpt>
      <trkpt lon="-4.129282" lat="53.007067"><ele>404.242798</ele><time>2021-07-17T09:47:17Z</time><extensions><speed>0.250632</speed><course>182.489380</course><hAcc>0.890091</hAcc><vAcc>0.719547</vAcc></extensions></trkpt>
      <trkpt lon="-4.129285" lat="53.007067"><ele>404.348633</ele><time>2021-07-17T09:47:18Z</time><extensions><speed>0.255138</speed><course>193.224472</course><hAcc>0.890091</hAcc><vAcc>0.719510</vAcc></extensions></trkpt>
      <trkpt lon="-4.129289" lat="53.007066"><ele>404.456665</ele><time>2021-07-17T09:47:19Z</time><extensions><speed>0.262082</speed><course>210.457108</course><hAcc>0.890098</hAcc><vAcc>0.719502</vAcc></extensions></trkpt>
      <trkpt lon="-4.129293" lat="53.007065"><ele>404.567688</ele><time>2021-07-17T09:47:20Z</time><extensions><speed>0.270733</speed><course>227.054108</course><hAcc>0.890111</hAcc><vAcc>0.719532</vAcc></extensions></trkpt>
      <trkpt lon="-4.129297" lat="53.007065"><ele>404.682159</ele><time>2021-07-17T09:47:21Z</time><extensions><speed>0.280390</speed><course>247.666534</course><hAcc>0.890131</hAcc><vAcc>0.719604</vAcc></extensions></trkpt>
      <trkpt lon="-4.129301" lat="53.007064"><ele>404.800293</ele><time>2021-07-17T09:47:22Z</time><extensions><speed>0.290407</speed><course>261.197876</course><hAcc>0.890156</hAcc><vAcc>0.719719</vAcc></extensions></trkpt>
      <trkpt lon="-4.129305" lat="53.007064"><ele>404.921936</ele><time>2021-07-17T09:47:23Z</time><extensions><speed>0.300226</speed><course>263.217255</course><hAcc>0.890184</hAcc><vAcc>0.719868</vAcc></extensions></trkpt>
      <trkpt lon="-4.129310" lat="53.007063"><ele>405.046631</ele><time>2021-07-17T09:47:24Z</time><extensions><speed>0.309141</speed><course>271.463165</course><hAcc>0.890215</hAcc><vAcc>0.720037</vAcc></extensions></trkpt>
      <trkpt lon="-4.129314" lat="53.007063"><ele>405.173553</ele><time>2021-07-17T09:47:25Z</time><extensions><speed>0.316323</speed><course>281.991608</course><hAcc>0.890245</hAcc><vAcc>0.720209</vAcc></extensions></trkpt>
      <trkpt lon="-4.129319" lat="53.007063"><ele>405.301483</ele><time>2021-07-17T09:47:26Z</time><extensions><speed>0.321270</speed><course>285.895782</course><hAcc>0.890270</hAcc><vAcc>0.720369</vAcc></extensions></trkpt>
      <trkpt lon="-4.129324" lat="53.007063"><ele>405.429108</ele><time>2021-07-17T09:47:27Z</time><extensions><speed>0.324727</speed><course>287.327179</course><hAcc>0.890288</hAcc><vAcc>0.720505</vAcc></extensions></trkpt>
      <trkpt lon="-4.129329" lat="53.007063"><ele>405.555084</ele><time>2021-07-17T09:47:28Z</time><extensions><speed>0.328460</speed><course>297.396240</course><hAcc>0.890295</hAcc><vAcc>0.720604</vAcc></extensions></trkpt>
      <trkpt lon="-4.129334" lat="53.007064"><ele>405.678070</ele><time>2021-07-17T09:47:29Z</time><extensions><speed>0.334378</speed><course>299.473175</course><hAcc>0.890306</hAcc><vAcc>0.720673</vAcc></extensions></trkpt>
      <trkpt lon="-4.129338" lat="53.007065"><ele>405.797180</ele><time>2021-07-17T09:47:30Z</time><extensions><speed>0.344250</speed><course>297.683289</course><hAcc>0.890320</hAcc><vAcc>0.720706</vAcc></extensions></trkpt>
      <trkpt lon="-4.129343" lat="53.007066"><ele>405.911224</ele><time>2021-07-17T09:47:30Z</time><extensions><speed>0.358681</speed><course>292.365356</course><hAcc>0.890336</hAcc><vAcc>0.720707</vAcc></extensions></trkpt>
      <trkpt lon="-4.129348" lat="53.007068"><ele>406.019989</ele><time>2021-07-17T09:47:31Z</time><extensions><speed>0.376834</speed><course>291.092651</course><hAcc>0.890354</hAcc><vAcc>0.720681</vAcc></extensions></trkpt>
      <trkpt lon="-4.129353" lat="53.007069"><ele>406.123169</ele><time>2021-07-17T09:47:32Z</time><extensions><speed>0.397063</speed><course>297.007721</course><hAcc>0.890359</hAcc><vAcc>0.720626</vAcc></extensions></trkpt>
      <trkpt lon="-4.129358" lat="53.007071"><ele>406.220673</ele><time>2021-07-17T09:47:33Z</time><extensions><speed>0.417550</speed><course>291.539093</course><hAcc>0.890353</hAcc><vAcc>0.720551</vAcc></extensions></trkpt>
      <trkpt lon="-4.129364" lat="53.007073"><ele>406.312286</ele><time>2021-07-17T09:47:34Z</time><extensions><speed>0.436082</speed><course>293.314819</course><hAcc>0.890337</hAcc><vAcc>0.720462</vAcc></extensions></trkpt>
      <trkpt lon="-4.129369" lat="53.007076"><ele>406.397797</ele><time>2021-07-17T09:47:35Z</time><extensions><speed>0.450489</speed><course>297.043213</course><hAcc>0.890316</hAcc><vAcc>0.720364</vAcc></extensions></trkpt>
      <trkpt lon="-4.129375" lat="53.007078"><ele>406.477020</ele><time>2021-07-17T09:47:36Z</time><extensions><speed>0.459009</speed><course>301.573547</course><hAcc>0.890289</hAcc><vAcc>0.720258</vAcc></extensions></trkpt>
      <trkpt lon="-4.129380" lat="53.007080"><ele>406.549835</ele><time>2021-07-17T09:47:37Z</time><extensions><speed>0.460602</speed><course>305.542847</course><hAcc>0.890261</hAcc><vAcc>0.720151</vAcc></extensions></trkpt>
      <trkpt lon="-4.129386" lat="53.007083"><ele>406.616089</ele><time>2021-07-17T09:47:38Z</time><extensions><speed>0.455084</speed><course>304.461029</course><hAcc>0.890230</hAcc><vAcc>0.720043</vAcc></extensions></trkpt>
      <trkpt lon="-4.129391" lat="53.007085"><ele>406.675690</ele><time>2021-07-17T09:47:39Z</time><extensions><speed>0.442819</speed><course>304.519958</course><hAcc>0.890199</hAcc><vAcc>0.719939</vAcc></extensions></trkpt>
      <trkpt lon="-4.129396" lat="53.007088"><ele>406.728638</ele><time>2021-07-17T09:47:40Z</time><extensions><speed>0.424337</speed><course>306.835541</course><hAcc>0.890168</hAcc><vAcc>0.719837</vAcc></extensions></trkpt>
      <trkpt lon="-4.129401" lat="53.007090"><ele>406.775177</ele><time>2021-07-17T09:47:41Z</time><extensions><speed>0.400232</speed><course>312.924469</course><hAcc>0.890137</hAcc><vAcc>0.719739</vAcc></extensions></trkpt>
      <trkpt lon="-4.129406" lat="53.007092"><ele>406.815765</ele><time>2021-07-17T09:47:42Z</time><extensions><speed>0.371630</speed><course>313.121582</course><hAcc>0.890107</hAcc><vAcc>0.719643</vAcc></extensions></trkpt>
      <trkpt lon="-4.129410" lat="53.007094"><ele>406.850952</ele><time>2021-07-17T09:47:43Z</time><extensions><speed>0.340208</speed><course>312.363678</course><hAcc>0.890076</hAcc><vAcc>0.719549</vAcc></extensions></trkpt>
      <trkpt lon="-4.129414" lat="53.007096"><ele>406.881287</ele><time>2021-07-17T09:47:44Z</time><extensions><speed>0.307730</speed><course>309.905548</course><hAcc>0.890046</hAcc><vAcc>0.719456</vAcc></extensions></trkpt>
      <trkpt lon="-4.129417" lat="53.007097"><ele>406.907410</ele><time>2021-07-17T09:47:45Z</time><extensions><speed>0.275793</speed><course>308.597687</course><hAcc>0.890014</hAcc><vAcc>0.719363</vAcc></extensions></trkpt>
      <trkpt lon="-4.129420" lat="53.007099"><ele>406.929657</ele><time>2021-07-17T09:47:46Z</time><extensions><speed>0.245534</speed><course>307.103394</course><hAcc>0.889981</hAcc><vAcc>0.719269</vAcc></extensions></trkpt>
      <trkpt lon="-4.129423" lat="53.007100"><ele>406.948425</ele><time>2021-07-17T09:47:47Z</time><extensions><speed>0.217459</speed><course>306.897400</course><hAcc>0.889945</hAcc><vAcc>0.719170</vAcc></extensions></trkpt>
      <trkpt lon="-4.129425" lat="53.007101"><ele>406.964355</ele><time>2021-07-17T09:47:48Z</time><extensions><speed>0.191684</speed><course>302.152618</course><hAcc>0.889907</hAcc><vAcc>0.719062</vAcc></extensions></trkpt>
      <trkpt lon="-4.129427" lat="53.007102"><ele>406.978271</ele><time>2021-07-17T09:47:49Z</time><extensions><speed>0.168398</speed><course>297.726410</course><hAcc>0.889867</hAcc><vAcc>0.718940</vAcc></extensions></trkpt>
      <trkpt lon="-4.129429" lat="53.007103"><ele>406.990936</ele><time>2021-07-17T09:47:50Z</time><extensions><speed>0.147851</speed><course>300.194183</course><hAcc>0.889823</hAcc><vAcc>0.718802</vAcc></extensions></trkpt>
      <trkpt lon="-4.129431" lat="53.007104"><ele>407.002991</ele><time>2021-07-17T09:47:51Z</time><extensions><speed>0.130167</speed><course>297.151825</course><hAcc>0.889778</hAcc><vAcc>0.718647</vAcc></extensions></trkpt>
      <trkpt lon="-4.129432" lat="53.007105"><ele>407.014954</ele><time>2021-07-17T09:47:52Z</time><extensions><speed>0.115267</speed><course>298.399384</course><hAcc>0.889729</hAcc><vAcc>0.718480</vAcc></extensions></trkpt>
      <trkpt lon="-4.129433" lat="53.007105"><ele>407.027100</ele><time>2021-07-17T09:47:53Z</time><extensions><speed>0.102825</speed><course>300.837921</course><hAcc>0.889679</hAcc><vAcc>0.718305</vAcc></extensions></trkpt>
      <trkpt lon="-4.129435" lat="53.007106"><ele>407.039429</ele><time>2021-07-17T09:47:54Z</time><extensions><speed>0.092325</speed><course>299.844330</course><hAcc>0.889628</hAcc><vAcc>0.718126</vAcc></extensions></trkpt>
      <trkpt lon="-4.129436" lat="53.007106"><ele>407.051788</ele><time>2021-07-17T09:47:55Z</time><extensions><speed>0.083160</speed><course>300.001373</course><hAcc>0.889576</hAcc><vAcc>0.717949</vAcc></extensions></trkpt>
      <trkpt lon="-4.129437" lat="53.007106"><ele>407.063904</ele><time>2021-07-17T09:47:56Z</time><extensions><speed>0.074864</speed><course>294.568817</course><hAcc>0.889526</hAcc><vAcc>0.717776</vAcc></extensions></trkpt>
      <trkpt lon="-4.129438" lat="53.007107"><ele>407.075500</ele><time>2021-07-17T09:47:57Z</time><extensions><speed>0.067249</speed><course>300.687103</course><hAcc>0.889477</hAcc><vAcc>0.717611</vAcc></extensions></trkpt>
      <trkpt lon="-4.129439" lat="53.007107"><ele>407.086212</ele><time>2021-07-17T09:47:58Z</time><extensions><speed>0.060217</speed><course>297.691925</course><hAcc>0.889432</hAcc><vAcc>0.717458</vAcc></extensions></trkpt>
      <trkpt lon="-4.129439" lat="53.007107"><ele>407.095825</ele><time>2021-07-17T09:47:59Z</time><extensions><speed>0.053670</speed><course>293.928223</course><hAcc>0.889391</hAcc><vAcc>0.717320</vAcc></extensions></trkpt>
      <trkpt lon="-4.129440" lat="53.007107"><ele>407.104248</ele><time>2021-07-17T09:48:00Z</time><extensions><speed>0.047637</speed><course>297.041656</course><hAcc>0.889357</hAcc><vAcc>0.717200</vAcc></extensions></trkpt>
      <trkpt lon="-4.129441" lat="53.007107"><ele>407.111603</ele><time>2021-07-17T09:48:01Z</time><extensions><speed>0.042346</speed><course>298.722290</course><hAcc>0.889331</hAcc><vAcc>0.717102</vAcc></extensions></trkpt>
      <trkpt lon="-4.129441" lat="53.007107"><ele>407.118011</ele><time>2021-07-17T09:48:02Z</time><extensions><speed>0.038054</speed><course>296.674316</course><hAcc>0.889313</hAcc><vAcc>0.717030</vAcc></extensions></trkpt>
      <trkpt lon="-4.129442" lat="53.007107"><ele>407.123627</ele><time>2021-07-17T09:48:03Z</time><extensions><speed>0.034851</speed><course>301.147156</course><hAcc>0.889306</hAcc><vAcc>0.716987</vAcc></extensions></trkpt>
      <trkpt lon="-4.129442" lat="53.007107"><ele>407.128662</ele><time>2021-07-17T09:48:04Z</time><extensions><speed>0.032702</speed><course>301.618805</course><hAcc>0.889312</hAcc><vAcc>0.716978</vAcc></extensions></trkpt>
      <trkpt lon="-4.129443" lat="53.007107"><ele>407.133423</ele><time>2021-07-17T09:48:05Z</time><extensions><speed>0.031395</speed><course>300.678009</course><hAcc>0.889332</hAcc><vAcc>0.717008</vAcc></extensions></trkpt>
      <trkpt lon="-4.129443" lat="53.007107"><ele>407.138123</ele><time>2021-07-17T09:48:06Z</time><extensions><speed>0.030853</speed><course>306.078644</course><hAcc>0.889367</hAcc><vAcc>0.717082</vAcc></extensions></trkpt>
      <trkpt lon="-4.129444" lat="53.007107"><ele>407.142944</ele><time>2021-07-17T09:48:07Z</time><extensions><speed>0.031280</speed><course>302.099213</course><hAcc>0.889419</hAcc><vAcc>0.717204</vAcc></extensions></trkpt>
      <trkpt lon="-4.129444" lat="53.007107"><ele>407.147980</ele><time>2021-07-17T09:48:08Z</time><extensions><speed>0.032600</speed><course>298.253754</course><hAcc>0.889488</hAcc><vAcc>0.717381</vAcc></extensions></trkpt>
      <trkpt lon="-4.129444" lat="53.007107"><ele>407.153198</ele><time>2021-07-17T09:48:10Z</time><extensions><speed>0.034354</speed><course>299.772583</course><hAcc>0.889556</hAcc><vAcc>0.717602</vAcc></extensions></trkpt>
      <trkpt lon="-4.129445" lat="53.007106"><ele>407.158447</ele><time>2021-07-17T09:48:11Z</time><extensions><speed>0.036012</speed><course>299.946075</course><hAcc>0.889620</hAcc><vAcc>0.717865</vAcc></extensions></trkpt>
      <trkpt lon="-4.129445" lat="53.007106"><ele>407.163605</ele><time>2021-07-17T09:48:12Z</time><extensions><speed>0.037074</speed><course>303.968170</course><hAcc>0.889698</hAcc><vAcc>0.718175</vAcc></extensions></trkpt>
      <trkpt lon="-4.129445" lat="53.007106"><ele>407.168640</ele><time>2021-07-17T09:48:13Z</time><extensions><speed>0.037118</speed><course>302.223755</course><hAcc>0.889783</hAcc><vAcc>0.718518</vAcc></extensions></trkpt>
      <trkpt lon="-4.129446" lat="53.007106"><ele>407.173462</ele><time>2021-07-17T09:48:14Z</time><extensions><speed>0.035942</speed><course>303.590851</course><hAcc>0.889874</hAcc><vAcc>0.718879</vAcc></extensions></trkpt>
      <trkpt lon="-4.129446" lat="53.007105"><ele>407.178101</ele><time>2021-07-17T09:48:15Z</time><extensions><speed>0.033562</speed><course>302.656281</course><hAcc>0.889964</hAcc><vAcc>0.719241</vAcc></extensions></trkpt>
      <trkpt lon="-4.129446" lat="53.007105"><ele>407.182587</ele><time>2021-07-17T09:48:16Z</time><extensions><speed>0.030125</speed><course>307.857574</course><hAcc>0.890050</hAcc><vAcc>0.719584</vAcc></extensions></trkpt>
      <trkpt lon="-4.129446" lat="53.007105"><ele>407.186829</ele><time>2021-07-17T09:48:17Z</time><extensions><speed>0.025905</speed><course>306.241272</course><hAcc>0.890129</hAcc><vAcc>0.719890</vAcc></extensions></trkpt>
      <trkpt lon="-4.129447" lat="53.007105"><ele>407.190826</ele><time>2021-07-17T09:48:18Z</time><extensions><speed>0.021237</speed><course>302.560516</course><hAcc>0.890196</hAcc><vAcc>0.720143</vAcc></extensions></trkpt>
      <trkpt lon="-4.129447" lat="53.007104"><ele>407.194489</ele><time>2021-07-17T09:48:19Z</time><extensions><speed>0.016381</speed><course>304.207947</course><hAcc>0.890249</hAcc><vAcc>0.720334</vAcc></extensions></trkpt>
      <trkpt lon="-4.129447" lat="53.007104"><ele>407.197784</ele><time>2021-07-17T09:48:20Z</time><extensions><speed>0.011540</speed><course>304.678192</course><hAcc>0.890286</hAcc><vAcc>0.720456</vAcc></extensions></trkpt>
      <trkpt lon="-4.129447" lat="53.007104"><ele>407.200653</ele><time>2021-07-17T09:48:21Z</time><extensions><speed>0.006876</speed><course>300.816559</course><hAcc>0.890306</hAcc><vAcc>0.720508</vAcc></extensions></trkpt>
      <trkpt lon="-4.129447" lat="53.007104"><ele>407.203033</ele><time>2021-07-17T09:48:22Z</time><extensions><speed>0.002628</speed><course>302.457642</course><hAcc>0.890310</hAcc><vAcc>0.720494</vAcc></extensions></trkpt>
      <trkpt lon="-4.129447" lat="53.007104"><ele>407.204681</ele><time>2021-07-17T09:48:23Z</time><extensions><speed>0.002692</speed><course>303.405792</course><hAcc>0.890298</hAcc><vAcc>0.720419</vAcc></extensions></trkpt>
      <trkpt lon="-4.129447" lat="53.007104"><ele>407.205414</ele><time>2021-07-17T09:48:24Z</time><extensions><speed>0.006443</speed><course>305.179382</course><hAcc>0.890271</hAcc><vAcc>0.720295</vAcc></extensions></trkpt>
      <trkpt lon="-4.129447" lat="53.007104"><ele>407.205139</ele><time>2021-07-17T09:48:25Z</time><extensions><speed>0.009976</speed><course>301.811188</course><hAcc>0.890233</hAcc><vAcc>0.720133</vAcc></extensions></trkpt>
      <trkpt lon="-4.129447" lat="53.007104"><ele>407.203979</ele><time>2021-07-17T09:48:26Z</time><extensions><speed>0.013007</speed><course>294.111877</course><hAcc>0.890186</hAcc><vAcc>0.719945</vAcc></extensions></trkpt>
      <trkpt lon="-4.129446" lat="53.007105"><ele>407.202087</ele><time>2021-07-17T09:48:27Z</time><extensions><speed>0.015521</speed><course>291.186249</course><hAcc>0.890133</hAcc><vAcc>0.719743</vAcc></extensions></trkpt>
      <trkpt lon="-4.129446" lat="53.007105"><ele>407.199738</ele><time>2021-07-17T09:48:28Z</time><extensions><speed>0.017505</speed><course>291.833313</course><hAcc>0.890077</hAcc><vAcc>0.719535</vAcc></extensions></trkpt>
      <trkpt lon="-4.129446" lat="53.007105"><ele>407.197266</ele><time>2021-07-17T09:48:29Z</time><extensions><speed>0.018952</speed><course>293.198639</course><hAcc>0.890022</hAcc><vAcc>0.719332</vAcc></extensions></trkpt>
      <trkpt lon="-4.129446" lat="53.007105"><ele>407.194916</ele><time>2021-07-17T09:48:30Z</time><extensions><speed>0.019879</speed><course>297.953094</course><hAcc>0.889970</hAcc><vAcc>0.719141</vAcc></extensions></trkpt>
      <trkpt lon="-4.129446" lat="53.007105"><ele>407.192993</ele><time>2021-07-17T09:48:31Z</time><extensions><speed>0.020358</speed><course>294.998413</course><hAcc>0.889924</hAcc><vAcc>0.718971</vAcc></extensions></trkpt>
      <trkpt lon="-4.129445" lat="53.007105"><ele>407.191620</ele><time>2021-07-17T09:48:32Z</time><extensions><speed>0.020458</speed><course>290.333923</course><hAcc>0.889885</hAcc><vAcc>0.718830</vAcc></extensions></trkpt>
      <trkpt lon="-4.129445" lat="53.007105"><ele>407.191071</ele><time>2021-07-17T09:48:33Z</time><extensions><speed>0.020182</speed><course>297.336884</course><hAcc>0.889856</hAcc><vAcc>0.718725</vAcc></extensions></trkpt>
      <trkpt lon="-4.129445" lat="53.007105"><ele>407.191498</ele><time>2021-07-17T09:48:34Z</time><extensions><speed>0.019705</speed><course>291.763641</course><hAcc>0.889837</hAcc><vAcc>0.718659</vAcc></extensions></trkpt>
      <trkpt lon="-4.129445" lat="53.007105"><ele>407.193237</ele><time>2021-07-17T09:48:35Z</time><extensions><speed>0.019538</speed><course>293.588959</course><hAcc>0.889829</hAcc><vAcc>0.718635</vAcc></extensions></trkpt>
      <trkpt lon="-4.129444" lat="53.007105"><ele>407.196625</ele><time>2021-07-17T09:48:36Z</time><extensions><speed>0.020332</speed><course>298.534668</course><hAcc>0.889830</hAcc><vAcc>0.718652</vAcc></extensions></trkpt>
      <trkpt lon="-4.129444" lat="53.007105"><ele>407.202026</ele><time>2021-07-17T09:48:37Z</time><extensions><speed>0.022484</speed><course>294.834351</course><hAcc>0.889841</hAcc><vAcc>0.718706</vAcc></extensions></trkpt>
      <trkpt lon="-4.129444" lat="53.007105"><ele>407.209717</ele><time>2021-07-17T09:48:38Z</time><extensions><speed>0.025896</speed><course>297.698059</course><hAcc>0.889859</hAcc><vAcc>0.718794</vAcc></extensions></trkpt>
      <trkpt lon="-4.129443" lat="53.007105"><ele>407.219696</ele><time>2021-07-17T09:48:39Z</time><extensions><speed>0.030112</speed><course>298.511444</course><hAcc>0.889885</hAcc><vAcc>0.718904</vAcc></extensions></trkpt>
      <trkpt lon="-4.129443" lat="53.007105"><ele>407.231689</ele><time>2021-07-17T09:48:40Z</time><extensions><speed>0.034273</speed><course>303.054443</course><hAcc>0.889915</hAcc><vAcc>0.719027</vAcc></extensions></trkpt>
      <trkpt lon="-4.129443" lat="53.007104"><ele>407.245087</ele><time>2021-07-17T09:48:41Z</time><extensions><speed>0.037621</speed><course>300.594757</course><hAcc>0.889949</hAcc><vAcc>0.719154</vAcc></extensions></trkpt>
      <trkpt lon="-4.129442" lat="53.007104"><ele>407.259125</ele><time>2021-07-17T09:48:42Z</time><extensions><speed>0.039859</speed><course>303.489990</course><hAcc>0.889984</hAcc><vAcc>0.719281</vAcc></extensions></trkpt>
      <trkpt lon="-4.129442" lat="53.007104"><ele>407.273102</ele><time>2021-07-17T09:48:43Z</time><extensions><speed>0.040915</speed><course>307.296783</course><hAcc>0.890018</hAcc><vAcc>0.719403</vAcc></extensions></trkpt>
      <trkpt lon="-4.129442" lat="53.007104"><ele>407.286346</ele><time>2021-07-17T09:48:44Z</time><extensions><speed>0.040911</speed><course>306.846466</course><hAcc>0.890050</hAcc><vAcc>0.719517</vAcc></extensions></trkpt>
      <trkpt lon="-4.129441" lat="53.007103"><ele>407.298340</ele><time>2021-07-17T09:48:45Z</time><extensions><speed>0.040257</speed><course>314.303711</course><hAcc>0.890078</hAcc><vAcc>0.719619</vAcc></extensions></trkpt>
      <trkpt lon="-4.129441" lat="53.007103"><ele>407.308685</ele><time>2021-07-17T09:48:46Z</time><extensions><speed>0.039322</speed><course>316.753265</course><hAcc>0.890103</hAcc><vAcc>0.719705</vAcc></extensions></trkpt>
      <trkpt lon="-4.129441" lat="53.007103"><ele>407.317078</ele><time>2021-07-17T09:48:47Z</time><extensions><speed>0.038294</speed><course>312.101562</course><hAcc>0.890122</hAcc><vAcc>0.719771</vAcc></extensions></trkpt>
      <trkpt lon="-4.129440" lat="53.007102"><ele>407.323303</ele><time>2021-07-17T09:48:48Z</time><extensions><speed>0.037453</speed><course>310.983948</course><hAcc>0.890138</hAcc><vAcc>0.719818</vAcc></extensions></trkpt>
      <trkpt lon="-4.129440" lat="53.007102"><ele>407.327301</ele><time>2021-07-17T09:48:49Z</time><extensions><speed>0.037058</speed><course>316.824890</course><hAcc>0.890149</hAcc><vAcc>0.719844</vAcc></extensions></trkpt>
      <trkpt lon="-4.129439" lat="53.007102"><ele>407.329224</ele><time>2021-07-17T09:48:50Z</time><extensions><speed>0.037222</speed><course>324.005005</course><hAcc>0.890158</hAcc><vAcc>0.719853</vAcc></extensions></trkpt>
      <trkpt lon="-4.129439" lat="53.007102"><ele>407.329132</ele><time>2021-07-17T09:48:51Z</time><extensions><speed>0.038069</speed><course>322.091736</course><hAcc>0.890165</hAcc><vAcc>0.719849</vAcc></extensions></trkpt>
      <trkpt lon="-4.129438" lat="53.007102"><ele>407.327240</ele><time>2021-07-17T09:48:52Z</time><extensions><speed>0.039532</speed><course>322.830170</course><hAcc>0.890171</hAcc><vAcc>0.719839</vAcc></extensions></trkpt>
      <trkpt lon="-4.129438" lat="53.007101"><ele>407.323853</ele><time>2021-07-17T09:48:53Z</time><extensions><speed>0.040918</speed><course>325.823517</course><hAcc>0.890178</hAcc><vAcc>0.719832</vAcc></extensions></trkpt>
      <trkpt lon="-4.129437" lat="53.007101"><ele>407.319489</ele><time>2021-07-17T09:48:54Z</time><extensions><speed>0.041284</speed><course>331.853210</course><hAcc>0.890185</hAcc><vAcc>0.719837</vAcc></extensions></trkpt>
      <trkpt lon="-4.129437" lat="53.007101"><ele>407.314758</ele><time>2021-07-17T09:48:55Z</time><extensions><speed>0.039844</speed><course>331.260956</course><hAcc>0.890194</hAcc><vAcc>0.719859</vAcc></extensions></trkpt>
      <trkpt lon="-4.129436" lat="53.007101"><ele>407.310150</ele><time>2021-07-17T09:48:56Z</time><extensions><speed>0.036091</speed><course>329.072571</course><hAcc>0.890204</hAcc><vAcc>0.719898</vAcc></extensions></trkpt>
      <trkpt lon="-4.129436" lat="53.007101"><ele>407.305969</ele><time>2021-07-17T09:48:57Z</time><extensions><speed>0.029873</speed><course>325.473938</course><hAcc>0.890216</hAcc><vAcc>0.719952</vAcc></extensions></trkpt>
      <trkpt lon="-4.129435" lat="53.007101"><ele>407.302338</ele><time>2021-07-17T09:48:58Z</time><extensions><speed>0.021282</speed><course>325.383026</course><hAcc>0.890230</hAcc><vAcc>0.720017</vAcc></extensions></trkpt>
      <trkpt lon="-4.129435" lat="53.007101"><ele>407.299347</ele><time>2021-07-17T09:48:59Z</time><extensions><speed>0.010956</speed><course>325.061401</course><hAcc>0.890243</hAcc><vAcc>0.720087</vAcc></extensions></trkpt>
      <trkpt lon="-4.129435" lat="53.007101"><ele>407.297119</ele><time>2021-07-17T09:49:00Z</time><extensions><speed>0.004921</speed><course>325.207275</course><hAcc>0.890255</hAcc><vAcc>0.720155</vAcc></extensions></trkpt>
      <trkpt lon="-4.129435" lat="53.007101"><ele>407.295776</ele><time>2021-07-17T09:49:01Z</time><extensions><speed>0.015344</speed><course>322.410889</course><hAcc>0.890265</hAcc><vAcc>0.720210</vAcc></extensions></trkpt>
      <trkpt lon="-4.129436" lat="53.007101"><ele>407.295258</ele><time>2021-07-17T09:49:02Z</time><extensions><speed>0.026987</speed><course>319.218658</course><hAcc>0.890270</hAcc><vAcc>0.720247</vAcc></extensions></trkpt>
      <trkpt lon="-4.129436" lat="53.007101"><ele>407.295410</ele><time>2021-07-17T09:49:03Z</time><extensions><speed>0.037607</speed><course>319.790588</course><hAcc>0.890270</hAcc><vAcc>0.720261</vAcc></extensions></trkpt>
      <trkpt lon="-4.129437" lat="53.007101"><ele>407.295868</ele><time>2021-07-17T09:49:04Z</time><extensions><speed>0.046941</speed><course>318.972229</course><hAcc>0.890263</hAcc><vAcc>0.720252</vAcc></extensions></trkpt>
      <trkpt lon="-4.129437" lat="53.007101"><ele>407.296265</ele><time>2021-07-17T09:49:05Z</time><extensions><speed>0.054909</speed><course>320.354065</course><hAcc>0.890248</hAcc><vAcc>0.720215</vAcc></extensions></trkpt>
      <trkpt lon="-4.129438" lat="53.007101"><ele>407.296448</ele><time>2021-07-17T09:49:06Z</time><extensions><speed>0.061298</speed><course>320.541016</course><hAcc>0.890226</hAcc><vAcc>0.720146</vAcc></extensions></trkpt>
      <trkpt lon="-4.129439" lat="53.007101"><ele>407.296600</ele><time>2021-07-17T09:49:07Z</time><extensions><speed>0.065911</speed><course>317.906189</course><hAcc>0.890198</hAcc><vAcc>0.720040</vAcc></extensions></trkpt>
      <trkpt lon="-4.129440" lat="53.007102"><ele>407.296967</ele><time>2021-07-17T09:49:08Z</time><extensions><speed>0.068703</speed><course>316.077393</course><hAcc>0.890164</hAcc><vAcc>0.719900</vAcc></extensions></trkpt>
      <trkpt lon="-4.129441" lat="53.007102"><ele>407.297791</ele><time>2021-07-17T09:49:09Z</time><extensions><speed>0.069784</speed><course>307.356537</course><hAcc>0.890126</hAcc><vAcc>0.719733</vAcc></extensions></trkpt>
      <trkpt lon="-4.129442" lat="53.007102"><ele>407.299103</ele><time>2021-07-17T09:49:10Z</time><extensions><speed>0.069395</speed><course>302.004150</course><hAcc>0.890084</hAcc><vAcc>0.719552</vAcc></extensions></trkpt>
      <trkpt lon="-4.129443" lat="53.007103"><ele>407.300751</ele><time>2021-07-17T09:49:11Z</time><extensions><speed>0.067805</speed><course>310.520874</course><hAcc>0.890040</hAcc><vAcc>0.719372</vAcc></extensions></trkpt>
      <trkpt lon="-4.129443" lat="53.007103"><ele>407.302429</ele><time>2021-07-17T09:49:12Z</time><extensions><speed>0.065419</speed><course>307.778412</course><hAcc>0.889996</hAcc><vAcc>0.719205</vAcc></extensions></trkpt>
      <trkpt lon="-4.129444" lat="53.007104"><ele>407.303833</ele><time>2021-07-17T09:49:13Z</time><extensions><speed>0.062449</speed><course>310.132080</course><hAcc>0.889952</hAcc><vAcc>0.719054</vAcc></extensions></trkpt>
      <trkpt lon="-4.129445" lat="53.007104"><ele>407.304932</ele><time>2021-07-17T09:49:14Z</time><extensions><speed>0.058830</speed><course>310.327301</course><hAcc>0.889910</hAcc><vAcc>0.718920</vAcc></extensions></trkpt>
      <trkpt lon="-4.129445" lat="53.007104"><ele>407.305756</ele><time>2021-07-17T09:49:15Z</time><extensions><speed>0.054581</speed><course>308.925873</course><hAcc>0.889874</hAcc><vAcc>0.718799</vAcc></extensions></trkpt>
      <trkpt lon="-4.129446" lat="53.007105"><ele>407.306549</ele><time>2021-07-17T09:49:16Z</time><extensions><speed>0.049642</speed><course>308.955322</course><hAcc>0.889845</hAcc><vAcc>0.718688</vAcc></extensions></trkpt>
      <trkpt lon="-4.129446" lat="53.007105"><ele>407.307617</ele><time>2021-07-17T09:49:17Z</time><extensions><speed>0.043972</speed><course>303.152588</course><hAcc>0.889826</hAcc><vAcc>0.718590</vAcc></extensions></trkpt>
      <trkpt lon="-4.129446" lat="53.007105"><ele>407.309265</ele><time>2021-07-17T09:49:18Z</time><extensions><speed>0.037739</speed><course>313.156525</course><hAcc>0.889820</hAcc><vAcc>0.718513</vAcc></extensions></trkpt>
      <trkpt lon="-4.129446" lat="53.007106"><ele>407.311554</ele><time>2021-07-17T09:49:19Z</time><extensions><speed>0.031218</speed><course>307.864197</course><hAcc>0.889832</hAcc><vAcc>0.718474</vAcc></extensions></trkpt>
      <trkpt lon="-4.129447" lat="53.007106"><ele>407.314270</ele><time>2021-07-17T09:49:20Z</time><extensions><speed>0.024758</speed><course>309.541687</course><hAcc>0.889865</hAcc><vAcc>0.718490</vAcc></extensions></trkpt>
      <trkpt lon="-4.129447" lat="53.007106"><ele>407.317047</ele><time>2021-07-17T09:49:21Z</time><extensions><speed>0.018773</speed><course>312.130341</course><hAcc>0.889909</hAcc><vAcc>0.718569</vAcc></extensions></trkpt>
      <trkpt lon="-4.129447" lat="53.007106"><ele>407.319519</ele><time>2021-07-17T09:49:22Z</time><extensions><speed>0.013612</speed><course>310.268982</course><hAcc>0.889970</hAcc><vAcc>0.718729</vAcc></extensions></trkpt>
      <trkpt lon="-4.129447" lat="53.007106"><ele>407.321350</ele><time>2021-07-17T09:49:23Z</time><extensions><speed>0.009480</speed><course>308.247070</course><hAcc>0.890079</hAcc><vAcc>0.719000</vAcc></extensions></trkpt>
      <trkpt lon="-4.129447" lat="53.007106"><ele>407.322296</ele><time>2021-07-17T09:49:24Z</time><extensions><speed>0.006545</speed><course>304.229858</course><hAcc>0.890248</hAcc><vAcc>0.719401</vAcc></extensions></trkpt>
      <trkpt lon="-4.129447" lat="53.007106"><ele>407.322327</ele><time>2021-07-17T09:49:25Z</time><extensions><speed>0.004858</speed><course>308.310059</course><hAcc>0.890493</hAcc><vAcc>0.719953</vAcc></extensions></trkpt>
      <trkpt lon="-4.129447" lat="53.007106"><ele>407.321564</ele><time>2021-07-17T09:49:26Z</time><extensions><speed>0.004112</speed><course>311.142822</course><hAcc>0.890837</hAcc><vAcc>0.720676</vAcc></extensions></trkpt>
      <trkpt lon="-4.129447" lat="53.007106"><ele>407.320190</ele><time>2021-07-17T09:49:27Z</time><extensions><speed>0.003857</speed><course>305.518036</course><hAcc>0.891305</hAcc><vAcc>0.721592</vAcc></extensions></trkpt>
      <trkpt lon="-4.129447" lat="53.007106"><ele>407.318420</ele><time>2021-07-17T09:49:28Z</time><extensions><speed>0.003822</speed><course>303.061462</course><hAcc>0.891929</hAcc><vAcc>0.722714</vAcc></extensions></trkpt>
      <trkpt lon="-4.129447" lat="53.007106"><ele>407.316376</ele><time>2021-07-17T09:49:29Z</time><extensions><speed>0.003837</speed><course>298.232086</course><hAcc>0.892742</hAcc><vAcc>0.724049</vAcc></extensions></trkpt>
      <trkpt lon="-4.129447" lat="53.007106"><ele>407.314148</ele><time>2021-07-17T09:49:30Z</time><extensions><speed>0.003816</speed><course>289.358276</course><hAcc>0.893776</hAcc><vAcc>0.725593</vAcc></extensions></trkpt>
      <trkpt lon="-4.129447" lat="53.007106"><ele>407.311859</ele><time>2021-07-17T09:49:31Z</time><extensions><speed>0.003733</speed><course>285.924469</course><hAcc>0.895060</hAcc><vAcc>0.727329</vAcc></extensions></trkpt>
      <trkpt lon="-4.129447" lat="53.007106"><ele>407.309601</ele><time>2021-07-17T09:49:32Z</time><extensions><speed>0.003586</speed><course>280.520447</course><hAcc>0.896608</hAcc><vAcc>0.729222</vAcc></extensions></trkpt>
      <trkpt lon="-4.129447" lat="53.007106"><ele>407.307404</ele><time>2021-07-17T09:49:33Z</time><extensions><speed>0.003388</speed><course>286.862061</course><hAcc>0.898412</hAcc><vAcc>0.731214</vAcc></extensions></trkpt>
      <trkpt lon="-4.129447" lat="53.007106"><ele>407.305328</ele><time>2021-07-17T09:49:34Z</time><extensions><speed>0.003151</speed><course>295.700317</course><hAcc>0.900431</hAcc><vAcc>0.733217</vAcc></extensions></trkpt>
      <trkpt lon="-4.129447" lat="53.007106"><ele>407.303406</ele><time>2021-07-17T09:49:35Z</time><extensions><speed>0.002891</speed><course>296.161560</course><hAcc>0.902598</hAcc><vAcc>0.735128</vAcc></extensions></trkpt>
      <trkpt lon="-4.129447" lat="53.007106"><ele>407.301666</ele><time>2021-07-17T09:49:36Z</time><extensions><speed>0.002620</speed><course>298.229218</course><hAcc>0.904789</hAcc><vAcc>0.736815</vAcc></extensions></trkpt>
      <trkpt lon="-4.129447" lat="53.007106"><ele>407.300079</ele><time>2021-07-17T09:49:37Z</time><extensions><speed>0.002348</speed><course>297.545471</course><hAcc>0.906810</hAcc><vAcc>0.738124</vAcc></extensions></trkpt>
      <trkpt lon="-4.129447" lat="53.007106"><ele>407.298645</ele><time>2021-07-17T09:49:38Z</time><extensions><speed>0.002085</speed><course>292.454163</course><hAcc>0.908472</hAcc><vAcc>0.738951</vAcc></extensions></trkpt>
      <trkpt lon="-4.129447" lat="53.007106"><ele>407.297424</ele><time>2021-07-17T09:49:38Z</time><extensions><speed>0.001838</speed><course>287.195465</course><hAcc>0.909637</hAcc><vAcc>0.739301</vAcc></extensions></trkpt>
      <trkpt lon="-4.129447" lat="53.007106"><ele>407.296326</ele><time>2021-07-17T09:49:39Z</time><extensions><speed>0.001610</speed><course>283.339600</course><hAcc>0.910286</hAcc><vAcc>0.739362</vAcc></extensions></trkpt>
      <trkpt lon="-4.129447" lat="53.007106"><ele>407.295380</ele><time>2021-07-17T09:49:40Z</time><extensions><speed>0.001405</speed><course>283.687531</course><hAcc>0.910682</hAcc><vAcc>0.739650</vAcc></extensions></trkpt>
      <trkpt lon="-4.129447" lat="53.007106"><ele>407.294586</ele><time>2021-07-17T09:49:41Z</time><extensions><speed>0.001226</speed><course>284.089417</course><hAcc>0.911668</hAcc><vAcc>0.741225</vAcc></extensions></trkpt>
      <trkpt lon="-4.129447" lat="53.007106"><ele>407.293884</ele><time>2021-07-17T09:49:42Z</time><extensions><speed>0.001073</speed><course>286.432800</course><hAcc>0.914994</hAcc><vAcc>0.745914</vAcc></extensions></trkpt>
      <trkpt lon="-4.129447" lat="53.007106"><ele>407.293274</ele><time>2021-07-17T09:49:43Z</time><extensions><speed>0.000946</speed><course>288.844025</course><hAcc>0.923753</hAcc><vAcc>0.756529</vAcc></extensions></trkpt>
      <trkpt lon="-4.129447" lat="53.007106"><ele>407.292755</ele><time>2021-07-17T09:49:44Z</time><extensions><speed>0.000845</speed><course>294.600861</course><hAcc>0.942772</hAcc><vAcc>0.776984</vAcc></extensions></trkpt>
      <trkpt lon="-4.129447" lat="53.007106"><ele>407.292297</ele><time>2021-07-17T09:49:45Z</time><extensions><speed>0.000767</speed><course>289.399475</course><hAcc>0.978732</hAcc><vAcc>0.812127</vAcc></extensions></trkpt>
      <trkpt lon="-4.129447" lat="53.007106"><ele>407.293854</ele><time>2021-07-17T09:49:46Z</time><extensions><speed>0.000000</speed><course>207.637573</course><hAcc>0.940636</hAcc><vAcc>0.776630</vAcc></extensions></trkpt>
      <trkpt lon="-4.129447" lat="53.007106"><ele>407.293854</ele><time>2021-07-17T09:49:47Z</time><extensions><speed>0.000000</speed><course>199.781464</course><hAcc>0.921348</hAcc><vAcc>0.755867</vAcc></extensions></trkpt>
      <trkpt lon="-4.129447" lat="53.007106"><ele>407.293854</ele><time>2021-07-17T09:49:48Z</time><extensions><speed>0.000000</speed><course>204.898392</course><hAcc>0.913665</hAcc><vAcc>0.746096</vAcc></extensions></trkpt>
      <trkpt lon="-4.129447" lat="53.007106"><ele>407.293854</ele><time>2021-07-17T09:49:49Z</time><extensions><speed>0.000000</speed><course>218.988647</course><hAcc>0.912111</hAcc><vAcc>0.742972</vAcc></extensions></trkpt>
      <trkpt lon="-4.129447" lat="53.007106"><ele>407.293854</ele><time>2021-07-17T09:49:50Z</time><extensions><speed>0.000000</speed><course>240.875916</course><hAcc>0.913196</hAcc><vAcc>0.743364</vAcc></extensions></trkpt>
      <trkpt lon="-4.129447" lat="53.007106"><ele>407.293854</ele><time>2021-07-17T09:49:51Z</time><extensions><speed>0.000000</speed><course>240.875916</course><hAcc>0.914972</hAcc><vAcc>0.745246</vAcc></extensions></trkpt>
      <trkpt lon="-4.129447" lat="53.007106"><ele>407.293854</ele><time>2021-07-17T09:49:52Z</time><extensions><speed>0.000000</speed><course>240.875916</course><hAcc>0.916530</hAcc><vAcc>0.747434</vAcc></extensions></trkpt>
      <trkpt lon="-4.129447" lat="53.007106"><ele>407.293854</ele><time>2021-07-17T09:49:53Z</time><extensions><speed>0.000000</speed><course>240.875916</course><hAcc>0.917576</hAcc><vAcc>0.749320</vAcc></extensions></trkpt>
      <trkpt lon="-4.129447" lat="53.007106"><ele>407.293854</ele><time>2021-07-17T09:49:54Z</time><extensions><speed>0.000000</speed><course>240.875916</course><hAcc>0.918129</hAcc><vAcc>0.750642</vAcc></extensions></trkpt>
      <trkpt lon="-4.129447" lat="53.007106"><ele>407.293854</ele><time>2021-07-17T09:49:55Z</time><extensions><speed>0.000000</speed><course>240.875916</course><hAcc>0.918315</hAcc><vAcc>0.751320</vAcc></extensions></trkpt>
      <trkpt lon="-4.129447" lat="53.007106"><ele>407.293854</ele><time>2021-07-17T09:49:56Z</time><extensions><speed>0.000000</speed><course>269.430084</course><hAcc>0.918247</hAcc><vAcc>0.751354</vAcc></extensions></trkpt>
      <trkpt lon="-4.129447" lat="53.007106"><ele>407.293854</ele><time>2021-07-17T09:49:57Z</time><extensions><speed>0.000000</speed><course>274.056000</course><hAcc>0.917967</hAcc><vAcc>0.750768</vAcc></extensions></trkpt>
      <trkpt lon="-4.129447" lat="53.007106"><ele>407.293854</ele><time>2021-07-17T09:49:58Z</time><extensions><speed>0.000000</speed><course>273.580658</course><hAcc>0.917446</hAcc><vAcc>0.749610</vAcc></extensions></trkpt>
      <trkpt lon="-4.129447" lat="53.007106"><ele>407.293854</ele><time>2021-07-17T09:49:59Z</time><extensions><speed>0.000000</speed><course>266.285736</course><hAcc>0.916630</hAcc><vAcc>0.747995</vAcc></extensions></trkpt>
      <trkpt lon="-4.129447" lat="53.007106"><ele>407.293854</ele><time>2021-07-17T09:50:00Z</time><extensions><speed>0.000000</speed><course>280.416809</course><hAcc>0.915549</hAcc><vAcc>0.746197</vAcc></extensions></trkpt>
      <trkpt lon="-4.129447" lat="53.007106"><ele>407.293854</ele><time>2021-07-17T09:50:01Z</time><extensions><speed>0.000000</speed><course>289.633057</course><hAcc>0.914498</hAcc><vAcc>0.744791</vAcc></extensions></trkpt>
      <trkpt lon="-4.129447" lat="53.007106"><ele>407.293854</ele><time>2021-07-17T09:50:02Z</time><extensions><speed>0.000000</speed><course>274.042023</course><hAcc>0.914302</hAcc><vAcc>0.744862</vAcc></extensions></trkpt>
      <trkpt lon="-4.129447" lat="53.007106"><ele>407.293854</ele><time>2021-07-17T09:50:03Z</time><extensions><speed>0.000000</speed><course>259.398621</course><hAcc>0.916685</hAcc><vAcc>0.748240</vAcc></extensions></trkpt>
      <trkpt lon="-4.129447" lat="53.007106"><ele>407.293854</ele><time>2021-07-17T09:50:04Z</time><extensions><speed>0.000000</speed><course>235.228027</course><hAcc>0.924710</hAcc><vAcc>0.757736</vAcc></extensions></trkpt>
      <trkpt lon="-4.129447" lat="53.007106"><ele>407.293854</ele><time>2021-07-17T09:50:06Z</time><extensions><speed>0.000000</speed><course>233.943741</course><hAcc>0.943186</hAcc><vAcc>0.777279</vAcc></extensions></trkpt>
      <trkpt lon="-4.129447" lat="53.007106"><ele>407.293854</ele><time>2021-07-17T09:50:07Z</time><extensions><speed>0.000000</speed><course>251.986771</course><hAcc>0.978746</hAcc><vAcc>0.811694</vAcc></extensions></trkpt>
      <trkpt lon="-4.129447" lat="53.007106"><ele>407.293854</ele><time>2021-07-17T09:50:08Z</time><extensions><speed>0.000000</speed><course>207.637573</course><hAcc>0.940479</hAcc><vAcc>0.776033</vAcc></extensions></trkpt>
      <trkpt lon="-4.129447" lat="53.007106"><ele>407.293854</ele><time>2021-07-17T09:50:09Z</time><extensions><speed>0.000000</speed><course>199.781464</course><hAcc>0.921170</hAcc><vAcc>0.755180</vAcc></extensions></trkpt>
      <trkpt lon="-4.129447" lat="53.007106"><ele>407.293854</ele><time>2021-07-17T09:50:10Z</time><extensions><speed>0.000000</speed><course>204.898392</course><hAcc>0.913471</hAcc><vAcc>0.745365</vAcc></extensions></trkpt>
      <trkpt lon="-4.129447" lat="53.007106"><ele>407.293854</ele><time>2021-07-17T09:50:11Z</time><extensions><speed>0.000000</speed><course>218.988647</course><hAcc>0.911908</hAcc><vAcc>0.742236</vAcc></extensions></trkpt>
      <trkpt lon="-4.129447" lat="53.007106"><ele>407.293854</ele><time>2021-07-17T09:50:12Z</time><extensions><speed>0.000000</speed><course>240.875916</course><hAcc>0.912991</hAcc><vAcc>0.742650</vAcc></extensions></trkpt>
      <trkpt lon="-4.129447" lat="53.007106"><ele>407.293854</ele><time>2021-07-17T09:50:13Z</time><extensions><speed>0.000000</speed><course>240.875916</course><hAcc>0.914774</hAcc><vAcc>0.744572</vAcc></extensions></trkpt>
      <trkpt lon="-4.129447" lat="53.007106"><ele>407.293854</ele><time>2021-07-17T09:50:14Z</time><extensions><speed>0.000000</speed><course>240.875916</course><hAcc>0.916347</hAcc><vAcc>0.746814</vAcc></extensions></trkpt>
      <trkpt lon="-4.129447" lat="53.007106"><ele>407.293854</ele><time>2021-07-17T09:50:15Z</time><extensions><speed>0.000000</speed><course>240.875916</course><hAcc>0.917415</hAcc><vAcc>0.748767</vAcc></extensions></trkpt>
      <trkpt lon="-4.129447" lat="53.007106"><ele>407.293854</ele><time>2021-07-17T09:50:16Z</time><extensions><speed>0.000000</speed><course>240.875916</course><hAcc>0.917999</hAcc><vAcc>0.750171</vAcc></extensions></trkpt>
      <trkpt lon="-4.129447" lat="53.007106"><ele>407.293854</ele><time>2021-07-17T09:50:17Z</time><extensions><speed>0.000000</speed><course>240.875916</course><hAcc>0.918221</hAcc><vAcc>0.750955</vAcc></extensions></trkpt>
      <trkpt lon="-4.129447" lat="53.007106"><ele>407.293854</ele><time>2021-07-17T09:50:18Z</time><extensions><speed>0.000000</speed><course>269.430084</course><hAcc>0.918197</hAcc><vAcc>0.751124</vAcc></extensions></trkpt>
      <trkpt lon="-4.129447" lat="53.007106"><ele>407.293854</ele><time>2021-07-17T09:50:19Z</time><extensions><speed>0.000000</speed><course>274.056000</course><hAcc>0.917967</hAcc><vAcc>0.750708</vAcc></extensions></trkpt>
      <trkpt lon="-4.129447" lat="53.007106"><ele>407.293854</ele><time>2021-07-17T09:50:20Z</time><extensions><speed>0.000000</speed><course>273.580658</course><hAcc>0.917503</hAcc><vAcc>0.749757</vAcc></extensions></trkpt>
      <trkpt lon="-4.129447" lat="53.007106"><ele>407.293854</ele><time>2021-07-17T09:50:21Z</time><extensions><speed>0.000000</speed><course>266.285736</course><hAcc>0.916750</hAcc><vAcc>0.748381</vAcc></extensions></trkpt>
      <trkpt lon="-4.129447" lat="53.007106"><ele>407.293854</ele><time>2021-07-17T09:50:22Z</time><extensions><speed>0.000000</speed><course>280.416809</course><hAcc>0.915742</hAcc><vAcc>0.746849</vAcc></extensions></trkpt>
      <trkpt lon="-4.129447" lat="53.007106"><ele>407.293854</ele><time>2021-07-17T09:50:23Z</time><extensions><speed>0.000000</speed><course>289.633057</course><hAcc>0.914775</hAcc><vAcc>0.745737</vAcc></extensions></trkpt>
      <trkpt lon="-4.129447" lat="53.007106"><ele>407.293854</ele><time>2021-07-17T09:50:24Z</time><extensions><speed>0.000000</speed><course>274.042023</course><hAcc>0.914677</hAcc><vAcc>0.746126</vAcc></extensions></trkpt>
      <trkpt lon="-4.129447" lat="53.007106"><ele>407.293854</ele><time>2021-07-17T09:50:25Z</time><extensions><speed>0.000000</speed><course>259.398621</course><hAcc>0.917176</hAcc><vAcc>0.749845</vAcc></extensions></trkpt>
      <trkpt lon="-4.129447" lat="53.007106"><ele>407.293854</ele><time>2021-07-17T09:50:26Z</time><extensions><speed>0.000000</speed><course>235.228027</course><hAcc>0.925332</hAcc><vAcc>0.759703</vAcc></extensions></trkpt>
      <trkpt lon="-4.129447" lat="53.007106"><ele>407.293854</ele><time>2021-07-17T09:50:27Z</time><extensions><speed>0.000000</speed><course>233.943741</course><hAcc>0.943946</hAcc><vAcc>0.779604</vAcc></extensions></trkpt>
      <trkpt lon="-4.129447" lat="53.007106"><ele>407.293854</ele><time>2021-07-17T09:50:28Z</time><extensions><speed>0.000000</speed><course>251.986771</course><hAcc>0.979665</hAcc><vAcc>0.814387</vAcc></extensions></trkpt>
      <trkpt lon="-4.129447" lat="53.007106"><ele>407.293854</ele><time>2021-07-17T09:50:29Z</time><extensions><speed>0.000000</speed><course>207.637573</course><hAcc>0.941328</hAcc><vAcc>0.778515</vAcc></extensions></trkpt>
      <trkpt lon="-4.129447" lat="53.007106"><ele>407.293854</ele><time>2021-07-17T09:50:30Z</time><extensions><speed>0.000000</speed><course>199.781464</course><hAcc>0.921875</hAcc><vAcc>0.757331</vAcc></extensions></trkpt>
      <trkpt lon="-4.129447" lat="53.007106"><ele>407.293854</ele><time>2021-07-17T09:50:31Z</time><extensions><speed>0.000000</speed><course>204.898392</course><hAcc>0.914043</hAcc><vAcc>0.747185</vAcc></extensions></trkpt>
      <trkpt lon="-4.129447" lat="53.007106"><ele>407.293854</ele><time>2021-07-17T09:50:32Z</time><extensions><speed>0.000000</speed><course>218.988647</course><hAcc>0.912358</hAcc><vAcc>0.743732</vAcc></extensions></trkpt>
      <trkpt lon="-4.129447" lat="53.007106"><ele>407.293854</ele><time>2021-07-17T09:50:33Z</time><extensions><speed>0.000000</speed><course>240.875916</course><hAcc>0.913330</hAcc><vAcc>0.743831</vAcc></extensions></trkpt>
      <trkpt lon="-4.129447" lat="53.007106"><ele>407.293854</ele><time>2021-07-17T09:50:34Z</time><extensions><speed>0.000000</speed><course>240.875916</course><hAcc>0.915010</hAcc><vAcc>0.745442</vAcc></extensions></trkpt>
      <trkpt lon="-4.129447" lat="53.007106"><ele>407.293854</ele><time>2021-07-17T09:50:35Z</time><extensions><speed>0.000000</speed><course>240.875916</course><hAcc>0.916484</hAcc><vAcc>0.747373</vAcc></extensions></trkpt>
      <trkpt lon="-4.129447" lat="53.007106"><ele>407.293854</ele><time>2021-07-17T09:50:36Z</time><extensions><speed>0.000000</speed><course>240.875916</course><hAcc>0.917456</hAcc><vAcc>0.749009</vAcc></extensions></trkpt>
      <trkpt lon="-4.129447" lat="53.007106"><ele>407.293854</ele><time>2021-07-17T09:50:37Z</time><extensions><speed>0.000000</speed><course>240.875916</course><hAcc>0.917943</hAcc><vAcc>0.750090</vAcc></extensions></trkpt>
      <trkpt lon="-4.129447" lat="53.007106"><ele>407.293854</ele><time>2021-07-17T09:50:38Z</time><extensions><speed>0.000000</speed><course>240.875916</course><hAcc>0.918071</hAcc><vAcc>0.750543</vAcc></extensions></trkpt>
      <trkpt lon="-4.129447" lat="53.007106"><ele>407.293854</ele><time>2021-07-17T09:50:39Z</time><extensions><speed>0.000000</speed><course>269.430084</course><hAcc>0.917954</hAcc><vAcc>0.750378</vAcc></extensions></trkpt>
      <trkpt lon="-4.129447" lat="53.007106"><ele>407.293854</ele><time>2021-07-17T09:50:40Z</time><extensions><speed>0.000000</speed><course>274.056000</course><hAcc>0.917636</hAcc><vAcc>0.749630</vAcc></extensions></trkpt>
      <trkpt lon="-4.129447" lat="53.007106"><ele>407.293854</ele><time>2021-07-17T09:50:41Z</time><extensions><speed>0.000000</speed><course>273.580658</course><hAcc>0.917089</hAcc><vAcc>0.748357</vAcc></extensions></trkpt>
      <trkpt lon="-4.129447" lat="53.007106"><ele>407.293854</ele><time>2021-07-17T09:50:42Z</time><extensions><speed>0.000000</speed><course>266.285736</course><hAcc>0.916260</hAcc><vAcc>0.746681</vAcc></extensions></trkpt>
      <trkpt lon="-4.129447" lat="53.007106"><ele>407.293854</ele><time>2021-07-17T09:50:43Z</time><extensions><speed>0.000000</speed><course>280.416809</course><hAcc>0.915181</hAcc><vAcc>0.744883</vAcc></extensions></trkpt>
      <trkpt lon="-4.129447" lat="53.007106"><ele>407.293854</ele><time>2021-07-17T09:50:44Z</time><extensions><speed>0.000000</speed><course>289.633057</course><hAcc>0.914148</hAcc><vAcc>0.743548</vAcc></extensions></trkpt>
      <trkpt lon="-4.129447" lat="53.007106"><ele>407.293854</ele><time>2021-07-17T09:50:45Z</time><extensions><speed>0.000000</speed><course>274.042023</course><hAcc>0.913988</hAcc><vAcc>0.743762</vAcc></extensions></trkpt>
      <trkpt lon="-4.129447" lat="53.007106"><ele>407.293854</ele><time>2021-07-17T09:50:46Z</time><extensions><speed>0.000000</speed><course>259.398621</course><hAcc>0.916427</hAcc><vAcc>0.747359</vAcc></extensions></trkpt>
      <trkpt lon="-4.129447" lat="53.007106"><ele>407.293854</ele><time>2021-07-17T09:50:47Z</time><extensions><speed>0.000000</speed><course>235.228027</course><hAcc>0.924528</hAcc><vAcc>0.757147</vAcc></extensions></trkpt>
      <trkpt lon="-4.129447" lat="53.007106"><ele>407.293854</ele><time>2021-07-17T09:50:48Z</time><extensions><speed>0.000000</speed><course>233.943741</course><hAcc>0.943092</hAcc><vAcc>0.777026</vAcc></extensions></trkpt>
      <trkpt lon="-4.129447" lat="53.007106"><ele>407.293854</ele><time>2021-07-17T09:50:49Z</time><extensions><speed>0.000000</speed><course>251.986771</course><hAcc>0.978774</hAcc><vAcc>0.811827</vAcc></extensions></trkpt>
      <trkpt lon="-4.129447" lat="53.007106"><ele>407.293854</ele><time>2021-07-17T09:50:50Z</time><extensions><speed>0.000000</speed><course>207.637573</course><hAcc>0.940296</hAcc><vAcc>0.775747</vAcc></extensions></trkpt>
      <trkpt lon="-4.129447" lat="53.007106"><ele>407.293854</ele><time>2021-07-17T09:50:51Z</time><extensions><speed>0.000000</speed><course>199.781464</course><hAcc>0.921085</hAcc><vAcc>0.755199</vAcc></extensions></trkpt>
      <trkpt lon="-4.129447" lat="53.007106"><ele>407.293854</ele><time>2021-07-17T09:50:52Z</time><extensions><speed>0.000000</speed><course>204.898392</course><hAcc>0.913464</hAcc><vAcc>0.745592</vAcc></extensions></trkpt>
      <trkpt lon="-4.129447" lat="53.007106"><ele>407.293854</ele><time>2021-07-17T09:50:53Z</time><extensions><speed>0.000000</speed><course>218.988647</course><hAcc>0.911955</hAcc><vAcc>0.742581</vAcc></extensions></trkpt>
      <trkpt lon="-4.129447" lat="53.007106"><ele>407.293854</ele><time>2021-07-17T09:50:54Z</time><extensions><speed>0.000000</speed><course>240.875916</course><hAcc>0.913070</hAcc><vAcc>0.743041</vAcc></extensions></trkpt>
      <trkpt lon="-4.129447" lat="53.007106"><ele>407.293854</ele><time>2021-07-17T09:50:55Z</time><extensions><speed>0.000000</speed><course>240.875916</course><hAcc>0.914864</hAcc><vAcc>0.744953</vAcc></extensions></trkpt>
      <trkpt lon="-4.129447" lat="53.007106"><ele>407.293854</ele><time>2021-07-17T09:50:56Z</time><extensions><speed>0.000000</speed><course>240.875916</course><hAcc>0.916432</hAcc><vAcc>0.747145</vAcc></extensions></trkpt>
      <trkpt lon="-4.129447" lat="53.007106"><ele>407.293854</ele><time>2021-07-17T09:50:57Z</time><extensions><speed>0.000000</speed><course>240.875916</course><hAcc>0.917482</hAcc><vAcc>0.749019</vAcc></extensions></trkpt>
      <trkpt lon="-4.129447" lat="53.007106"><ele>407.293854</ele><time>2021-07-17T09:50:58Z</time><extensions><speed>0.000000</speed><course>240.875916</course><hAcc>0.918036</hAcc><vAcc>0.750322</vAcc></extensions></trkpt>
      <trkpt lon="-4.129447" lat="53.007106"><ele>407.293854</ele><time>2021-07-17T09:50:59Z</time><extensions><speed>0.000000</speed><course>240.875916</course><hAcc>0.918223</hAcc><vAcc>0.750987</vAcc></extensions></trkpt>
      <trkpt lon="-4.129447" lat="53.007106"><ele>407.293854</ele><time>2021-07-17T09:51:00Z</time><extensions><speed>0.000000</speed><course>269.430084</course><hAcc>0.918156</hAcc><vAcc>0.751020</vAcc></extensions></trkpt>
      <trkpt lon="-4.129447" lat="53.007106"><ele>407.293854</ele><time>2021-07-17T09:51:01Z</time><extensions><speed>0.000000</speed><course>274.056000</course><hAcc>0.917881</hAcc><vAcc>0.750454</vAcc></extensions></trkpt>
      <trkpt lon="-4.129447" lat="53.007106"><ele>407.293854</ele><time>2021-07-17T09:51:02Z</time><extensions><speed>0.000000</speed><course>273.580658</course><hAcc>0.917368</hAcc><vAcc>0.749339</vAcc></extensions></trkpt>
      <trkpt lon="-4.129447" lat="53.007106"><ele>407.293854</ele><time>2021-07-17T09:51:03Z</time><extensions><speed>0.000000</speed><course>266.285736</course><hAcc>0.916566</hAcc><vAcc>0.747791</vAcc></extensions></trkpt>
      <trkpt lon="-4.129447" lat="53.007106"><ele>407.293854</ele><time>2021-07-17T09:51:04Z</time><extensions><speed>0.000000</speed><course>280.416809</course><hAcc>0.915505</hAcc><vAcc>0.746081</vAcc></extensions></trkpt>
      <trkpt lon="-4.129447" lat="53.007106"><ele>407.293854</ele><time>2021-07-17T09:51:05Z</time><extensions><speed>0.000000</speed><course>289.633057</course><hAcc>0.914484</hAcc><vAcc>0.744788</vAcc></extensions></trkpt>
      <trkpt lon="-4.129447" lat="53.007106"><ele>407.293854</ele><time>2021-07-17T09:51:06Z</time><extensions><speed>0.000000</speed><course>274.042023</course><hAcc>0.914330</hAcc><vAcc>0.744997</vAcc></extensions></trkpt>
      <trkpt lon="-4.129447" lat="53.007106"><ele>407.293854</ele><time>2021-07-17T09:51:07Z</time><extensions><speed>0.000000</speed><course>259.398621</course><hAcc>0.916770</hAcc><vAcc>0.748543</vAcc></extensions></trkpt>
      <trkpt lon="-4.129447" lat="53.007106"><ele>407.293854</ele><time>2021-07-17T09:51:08Z</time><extensions><speed>0.000000</speed><course>235.228027</course><hAcc>0.924869</hAcc><vAcc>0.758246</vAcc></extensions></trkpt>
      <trkpt lon="-4.129447" lat="53.007106"><ele>407.293854</ele><time>2021-07-17T09:51:09Z</time><extensions><speed>0.000000</speed><course>233.943741</course><hAcc>0.943427</hAcc><vAcc>0.778022</vAcc></extensions></trkpt>
      <trkpt lon="-4.129447" lat="53.007106"><ele>407.293854</ele><time>2021-07-17T09:51:10Z</time><extensions><speed>0.000000</speed><course>251.986771</course><hAcc>0.979100</hAcc><vAcc>0.812723</vAcc></extensions></trkpt>
      <trkpt lon="-4.129447" lat="53.007106"><ele>407.293854</ele><time>2021-07-17T09:51:11Z</time><extensions><speed>0.000000</speed><course>207.637573</course><hAcc>0.940749</hAcc><vAcc>0.776863</vAcc></extensions></trkpt>
      <trkpt lon="-4.129447" lat="53.007106"><ele>407.293854</ele><time>2021-07-17T09:51:12Z</time><extensions><speed>0.000000</speed><course>199.781464</course><hAcc>0.921431</hAcc><vAcc>0.756035</vAcc></extensions></trkpt>
      <trkpt lon="-4.129447" lat="53.007106"><ele>407.293854</ele><time>2021-07-17T09:51:13Z</time><extensions><speed>0.000000</speed><course>204.898392</course><hAcc>0.913726</hAcc><vAcc>0.746235</vAcc></extensions></trkpt>
      <trkpt lon="-4.129447" lat="53.007106"><ele>407.293854</ele><time>2021-07-17T09:51:14Z</time><extensions><speed>0.000000</speed><course>218.988647</course><hAcc>0.912159</hAcc><vAcc>0.743103</vAcc></extensions></trkpt>
      <trkpt lon="-4.129447" lat="53.007106"><ele>407.293854</ele><time>2021-07-17T09:51:15Z</time><extensions><speed>0.000000</speed><course>240.875916</course><hAcc>0.913239</hAcc><vAcc>0.743497</vAcc></extensions></trkpt>
      <trkpt lon="-4.129447" lat="53.007106"><ele>407.293854</ele><time>2021-07-17T09:51:16Z</time><extensions><speed>0.000000</speed><course>240.875916</course><hAcc>0.915018</hAcc><vAcc>0.745380</vAcc></extensions></trkpt>
      <trkpt lon="-4.129447" lat="53.007106"><ele>407.293854</ele><time>2021-07-17T09:51:17Z</time><extensions><speed>0.000000</speed><course>240.875916</course><hAcc>0.916586</hAcc><vAcc>0.747564</vAcc></extensions></trkpt>
      <trkpt lon="-4.129447" lat="53.007106"><ele>407.293854</ele><time>2021-07-17T09:51:18Z</time><extensions><speed>0.000000</speed><course>240.875916</course><hAcc>0.917650</hAcc><vAcc>0.749445</vAcc></extensions></trkpt>
      <trkpt lon="-4.129447" lat="53.007106"><ele>407.293854</ele><time>2021-07-17T09:51:19Z</time><extensions><speed>0.000000</speed><course>240.875916</course><hAcc>0.918227</hAcc><vAcc>0.750769</vAcc></extensions></trkpt>
      <trkpt lon="-4.129447" lat="53.007106"><ele>407.293854</ele><time>2021-07-17T09:51:20Z</time><extensions><speed>0.000000</speed><course>240.875916</course><hAcc>0.918426</hAcc><vAcc>0.751455</vAcc></extensions></trkpt>
      <trkpt lon="-4.129447" lat="53.007106"><ele>407.293854</ele><time>2021-07-17T09:51:21Z</time><extensions><speed>0.000000</speed><course>269.430084</course><hAcc>0.918361</hAcc><vAcc>0.751512</vAcc></extensions></trkpt>
      <trkpt lon="-4.129447" lat="53.007106"><ele>407.293854</ele><time>2021-07-17T09:51:22Z</time><extensions><speed>0.000000</speed><course>274.056000</course><hAcc>0.918093</hAcc><vAcc>0.750988</vAcc></extensions></trkpt>
      <trkpt lon="-4.129447" lat="53.007106"><ele>407.293854</ele><time>2021-07-17T09:51:23Z</time><extensions><speed>0.000000</speed><course>273.580658</course><hAcc>0.917592</hAcc><vAcc>0.749933</vAcc></extensions></trkpt>
      <trkpt lon="-4.129447" lat="53.007106"><ele>407.293854</ele><time>2021-07-17T09:51:24Z</time><extensions><speed>0.000000</speed><course>266.285736</course><hAcc>0.916805</hAcc><vAcc>0.748458</vAcc></extensions></trkpt>
      <trkpt lon="-4.129447" lat="53.007106"><ele>407.293854</ele><time>2021-07-17T09:51:25Z</time><extensions><speed>0.000000</speed><course>280.416809</course><hAcc>0.915763</hAcc><vAcc>0.746835</vAcc></extensions></trkpt>
      <trkpt lon="-4.129447" lat="53.007106"><ele>407.293854</ele><time>2021-07-17T09:51:26Z</time><extensions><speed>0.000000</speed><course>289.633057</course><hAcc>0.914764</hAcc><vAcc>0.745636</vAcc></extensions></trkpt>
      <trkpt lon="-4.129447" lat="53.007106"><ele>407.293854</ele><time>2021-07-17T09:51:27Z</time><extensions><speed>0.000000</speed><course>274.042023</course><hAcc>0.914633</hAcc><vAcc>0.745942</vAcc></extensions></trkpt>
      <trkpt lon="-4.129447" lat="53.007106"><ele>407.293854</ele><time>2021-07-17T09:51:28Z</time><extensions><speed>0.000000</speed><course>259.398621</course><hAcc>0.917099</hAcc><vAcc>0.749582</vAcc></extensions></trkpt>
      <trkpt lon="-4.129447" lat="53.007106"><ele>407.293854</ele><time>2021-07-17T09:51:29Z</time><extensions><speed>0.000000</speed><course>235.228027</course><hAcc>0.925221</hAcc><vAcc>0.759362</vAcc></extensions></trkpt>
      <trkpt lon="-4.129447" lat="53.007106"><ele>407.293854</ele><time>2021-07-17T09:51:30Z</time><extensions><speed>0.000000</speed><course>233.943741</course><hAcc>0.943800</hAcc><vAcc>0.779184</vAcc></extensions></trkpt>
      <trkpt lon="-4.129447" lat="53.007106"><ele>407.293854</ele><time>2021-07-17T09:51:31Z</time><extensions><speed>0.000000</speed><course>251.986771</course><hAcc>0.979486</hAcc><vAcc>0.813886</vAcc></extensions></trkpt>
      <trkpt lon="-4.129447" lat="53.007106"><ele>407.293854</ele><time>2021-07-17T09:51:32Z</time><extensions><speed>0.000000</speed><course>207.637573</course><hAcc>0.941189</hAcc><vAcc>0.778118</vAcc></extensions></trkpt>
      <trkpt lon="-4.129447" lat="53.007106"><ele>407.293854</ele><time>2021-07-17T09:51:33Z</time><extensions><speed>0.000000</speed><course>199.781464</course><hAcc>0.921787</hAcc><vAcc>0.757058</vAcc></extensions></trkpt>
      <trkpt lon="-4.129447" lat="53.007106"><ele>407.293854</ele><time>2021-07-17T09:51:34Z</time><extensions><speed>0.000000</speed><course>204.898392</course><hAcc>0.914010</hAcc><vAcc>0.747051</vAcc></extensions></trkpt>
      <trkpt lon="-4.129447" lat="53.007106"><ele>407.293854</ele><time>2021-07-17T09:51:35Z</time><extensions><speed>0.000000</speed><course>218.988647</course><hAcc>0.912382</hAcc><vAcc>0.743754</vAcc></extensions></trkpt>
      <trkpt lon="-4.129447" lat="53.007106"><ele>407.293854</ele><time>2021-07-17T09:51:36Z</time><extensions><speed>0.000000</speed><course>240.875916</course><hAcc>0.913414</hAcc><vAcc>0.744027</vAcc></extensions></trkpt>
      <trkpt lon="-4.129447" lat="53.007106"><ele>407.293854</ele><time>2021-07-17T09:51:37Z</time><extensions><speed>0.000000</speed><course>240.875916</course><hAcc>0.915154</hAcc><vAcc>0.745832</vAcc></extensions></trkpt>
      <trkpt lon="-4.129447" lat="53.007106"><ele>407.293854</ele><time>2021-07-17T09:51:38Z</time><extensions><speed>0.000000</speed><course>240.875916</course><hAcc>0.916690</hAcc><vAcc>0.747976</vAcc></extensions></trkpt>
      <trkpt lon="-4.129447" lat="53.007106"><ele>407.293854</ele><time>2021-07-17T09:51:39Z</time><extensions><speed>0.000000</speed><course>240.875916</course><hAcc>0.917724</hAcc><vAcc>0.749841</vAcc></extensions></trkpt>
      <trkpt lon="-4.129447" lat="53.007106"><ele>407.293854</ele><time>2021-07-17T09:51:40Z</time><extensions><speed>0.000000</speed><course>240.875916</course><hAcc>0.918271</hAcc><vAcc>0.751161</vAcc></extensions></trkpt>
      <trkpt lon="-4.129447" lat="53.007106"><ele>407.293854</ele><time>2021-07-17T09:51:41Z</time><extensions><speed>0.000000</speed><course>240.875916</course><hAcc>0.918472</hAcc><vAcc>0.751868</vAcc></extensions></trkpt>
      <trkpt lon="-4.129447" lat="53.007106"><ele>407.293854</ele><time>2021-07-17T09:51:42Z</time><extensions><speed>0.000000</speed><course>269.430084</course><hAcc>0.918440</hAcc><vAcc>0.751965</vAcc></extensions></trkpt>
      <trkpt lon="-4.129447" lat="53.007106"><ele>407.293854</ele><time>2021-07-17T09:51:43Z</time><extensions><speed>0.000000</speed><course>274.056000</course><hAcc>0.918197</hAcc><vAcc>0.751469</vAcc></extensions></trkpt>
      <trkpt lon="-4.129447" lat="53.007106"><ele>407.293854</ele><time>2021-07-17T09:51:44Z</time><extensions><speed>0.000000</speed><course>273.580658</course><hAcc>0.917713</hAcc><vAcc>0.750428</vAcc></extensions></trkpt>
      <trkpt lon="-4.129447" lat="53.007106"><ele>407.293854</ele><time>2021-07-17T09:51:45Z</time><extensions><speed>0.000000</speed><course>266.285736</course><hAcc>0.916935</hAcc><vAcc>0.748955</vAcc></extensions></trkpt>
      <trkpt lon="-4.129447" lat="53.007106"><ele>407.293854</ele><time>2021-07-17T09:51:46Z</time><extensions><speed>0.000000</speed><course>280.416809</course><hAcc>0.915893</hAcc><vAcc>0.747319</vAcc></extensions></trkpt>
      <trkpt lon="-4.129447" lat="53.007106"><ele>407.293854</ele><time>2021-07-17T09:51:47Z</time><extensions><speed>0.000000</speed><course>289.633057</course><hAcc>0.914882</hAcc><vAcc>0.746090</vAcc></extensions></trkpt>
      <trkpt lon="-4.129447" lat="53.007106"><ele>407.293854</ele><time>2021-07-17T09:51:48Z</time><extensions><speed>0.000000</speed><course>274.042023</course><hAcc>0.914729</hAcc><vAcc>0.746344</vAcc></extensions></trkpt>
      <trkpt lon="-4.129447" lat="53.007106"><ele>407.293854</ele><time>2021-07-17T09:51:49Z</time><extensions><speed>0.000000</speed><course>259.398621</course><hAcc>0.917159</hAcc><vAcc>0.749900</vAcc></extensions></trkpt>
      <trkpt lon="-4.129447" lat="53.007106"><ele>407.293854</ele><time>2021-07-17T09:51:50Z</time><extensions><speed>0.000000</speed><course>235.228027</course><hAcc>0.925233</hAcc><vAcc>0.759552</vAcc></extensions></trkpt>
      <trkpt lon="-4.129447" lat="53.007106"><ele>407.293854</ele><time>2021-07-17T09:51:51Z</time><extensions><speed>0.000000</speed><course>233.943741</course><hAcc>0.943752</hAcc><vAcc>0.779198</vAcc></extensions></trkpt>
      <trkpt lon="-4.129447" lat="53.007106"><ele>407.293854</ele><time>2021-07-17T09:51:52Z</time><extensions><speed>0.000000</speed><course>251.986771</course><hAcc>0.979371</hAcc><vAcc>0.813674</vAcc></extensions></trkpt>
      <trkpt lon="-4.129447" lat="53.007106"><ele>407.293854</ele><time>2021-07-17T09:51:53Z</time><extensions><speed>0.000000</speed><course>207.637573</course><hAcc>0.941121</hAcc><vAcc>0.777960</vAcc></extensions></trkpt>
      <trkpt lon="-4.129447" lat="53.007106"><ele>407.293854</ele><time>2021-07-17T09:51:54Z</time><extensions><speed>0.000000</speed><course>199.781464</course><hAcc>0.921618</hAcc><vAcc>0.756593</vAcc></extensions></trkpt>
      <trkpt lon="-4.129447" lat="53.007106"><ele>407.293854</ele><time>2021-07-17T09:51:54Z</time><extensions><speed>0.000000</speed><course>204.898392</course><hAcc>0.913763</hAcc><vAcc>0.746302</vAcc></extensions></trkpt>
      <trkpt lon="-4.129447" lat="53.007106"><ele>407.293854</ele><time>2021-07-17T09:51:55Z</time><extensions><speed>0.000000</speed><course>218.988647</course><hAcc>0.912075</hAcc><vAcc>0.742743</vAcc></extensions></trkpt>
      <trkpt lon="-4.129447" lat="53.007106"><ele>407.293854</ele><time>2021-07-17T09:51:56Z</time><extensions><speed>0.000000</speed><course>240.875916</course><hAcc>0.913058</hAcc><vAcc>0.742789</vAcc></extensions></trkpt>
      <trkpt lon="-4.129447" lat="53.007106"><ele>407.293854</ele><time>2021-07-17T09:51:57Z</time><extensions><speed>0.000000</speed><course>240.875916</course><hAcc>0.914762</hAcc><vAcc>0.744404</vAcc></extensions></trkpt>
      <trkpt lon="-4.129447" lat="53.007106"><ele>407.293854</ele><time>2021-07-17T09:51:59Z</time><extensions><speed>0.000000</speed><course>240.875916</course><hAcc>0.916259</hAcc><vAcc>0.746389</vAcc></extensions></trkpt>
      <trkpt lon="-4.129447" lat="53.007106"><ele>407.293854</ele><time>2021-07-17T09:52:00Z</time><extensions><speed>0.000000</speed><course>240.875916</course><hAcc>0.917249</hAcc><vAcc>0.748122</vAcc></extensions></trkpt>
      <trkpt lon="-4.129447" lat="53.007106"><ele>407.293854</ele><time>2021-07-17T09:52:01Z</time><extensions><speed>0.000000</speed><course>240.875916</course><hAcc>0.917768</hAcc><vAcc>0.749349</vAcc></extensions></trkpt>
      <trkpt lon="-4.129447" lat="53.007106"><ele>407.293854</ele><time>2021-07-17T09:52:02Z</time><extensions><speed>0.000000</speed><course>240.875916</course><hAcc>0.917940</hAcc><vAcc>0.749991</vAcc></extensions></trkpt>
      <trkpt lon="-4.129447" lat="53.007106"><ele>407.293854</ele><time>2021-07-17T09:52:03Z</time><extensions><speed>0.000000</speed><course>269.430084</course><hAcc>0.917876</hAcc><vAcc>0.750043</vAcc></extensions></trkpt>
      <trkpt lon="-4.129447" lat="53.007106"><ele>407.293854</ele><time>2021-07-17T09:52:04Z</time><extensions><speed>0.000000</speed><course>274.056000</course><hAcc>0.917616</hAcc><vAcc>0.749532</vAcc></extensions></trkpt>
      <trkpt lon="-4.129447" lat="53.007106"><ele>407.293854</ele><time>2021-07-17T09:52:05Z</time><extensions><speed>0.000000</speed><course>273.580658</course><hAcc>0.917124</hAcc><vAcc>0.748499</vAcc></extensions></trkpt>
      <trkpt lon="-4.129447" lat="53.007106"><ele>407.293854</ele><time>2021-07-17T09:52:06Z</time><extensions><speed>0.000000</speed><course>266.285736</course><hAcc>0.916344</hAcc><vAcc>0.747049</vAcc></extensions></trkpt>
      <trkpt lon="-4.129447" lat="53.007106"><ele>407.293854</ele><time>2021-07-17T09:52:07Z</time><extensions><speed>0.000000</speed><course>280.416809</course><hAcc>0.915300</hAcc><vAcc>0.745437</vAcc></extensions></trkpt>
      <trkpt lon="-4.129447" lat="53.007106"><ele>407.293854</ele><time>2021-07-17T09:52:08Z</time><extensions><speed>0.000000</speed><course>289.633057</course><hAcc>0.914282</hAcc><vAcc>0.744221</vAcc></extensions></trkpt>
      <trkpt lon="-4.129447" lat="53.007106"><ele>407.293854</ele><time>2021-07-17T09:52:09Z</time><extensions><speed>0.000000</speed><course>274.042023</course><hAcc>0.914111</hAcc><vAcc>0.744458</vAcc></extensions></trkpt>
      <trkpt lon="-4.129447" lat="53.007106"><ele>407.293854</ele><time>2021-07-17T09:52:10Z</time><extensions><speed>0.000000</speed><course>259.398621</course><hAcc>0.916508</hAcc><vAcc>0.747953</vAcc></extensions></trkpt>
      <trkpt lon="-4.129447" lat="53.007106"><ele>407.293854</ele><time>2021-07-17T09:52:11Z</time><extensions><speed>0.000000</speed><course>235.228027</course><hAcc>0.924529</hAcc><vAcc>0.757497</vAcc></extensions></trkpt>
      <trkpt lon="-4.129447" lat="53.007106"><ele>407.293854</ele><time>2021-07-17T09:52:12Z</time><extensions><speed>0.000000</speed><course>233.943741</course><hAcc>0.942976</hAcc><vAcc>0.776983</vAcc></extensions></trkpt>
      <trkpt lon="-4.129447" lat="53.007106"><ele>407.293854</ele><time>2021-07-17T09:52:13Z</time><extensions><speed>0.000000</speed><course>251.986771</course><hAcc>0.978508</hAcc><vAcc>0.811261</vAcc></extensions></trkpt>
      <trkpt lon="-4.129447" lat="53.007106"><ele>407.293854</ele><time>2021-07-17T09:52:14Z</time><extensions><speed>0.000000</speed><course>207.637573</course><hAcc>0.940533</hAcc><vAcc>0.776178</vAcc></extensions></trkpt>
      <trkpt lon="-4.129447" lat="53.007106"><ele>407.293854</ele><time>2021-07-17T09:52:15Z</time><extensions><speed>0.000000</speed><course>199.781464</course><hAcc>0.921158</hAcc><vAcc>0.755105</vAcc></extensions></trkpt>
      <trkpt lon="-4.129447" lat="53.007106"><ele>407.293854</ele><time>2021-07-17T09:52:16Z</time><extensions><speed>0.000000</speed><course>204.898392</course><hAcc>0.913407</hAcc><vAcc>0.745102</vAcc></extensions></trkpt>
      <trkpt lon="-4.129447" lat="53.007106"><ele>407.293854</ele><time>2021-07-17T09:52:17Z</time><extensions><speed>0.000000</speed><course>218.988647</course><hAcc>0.911801</hAcc><vAcc>0.741826</vAcc></extensions></trkpt>
      <trkpt lon="-4.129447" lat="53.007106"><ele>407.293854</ele><time>2021-07-17T09:52:18Z</time><extensions><speed>0.000000</speed><course>240.875916</course><hAcc>0.912852</hAcc><vAcc>0.742140</vAcc></extensions></trkpt>
      <trkpt lon="-4.129447" lat="53.007106"><ele>407.293854</ele><time>2021-07-17T09:52:19Z</time><extensions><speed>0.000000</speed><course>240.875916</course><hAcc>0.914608</hAcc><vAcc>0.744000</vAcc></extensions></trkpt>
      <trkpt lon="-4.129447" lat="53.007106"><ele>407.293854</ele><time>2021-07-17T09:52:20Z</time><extensions><speed>0.000000</speed><course>240.875916</course><hAcc>0.916160</hAcc><vAcc>0.746210</vAcc></extensions></trkpt>
      <trkpt lon="-4.129447" lat="53.007106"><ele>407.293854</ele><time>2021-07-17T09:52:21Z</time><extensions><speed>0.000000</speed><course>240.875916</course><hAcc>0.917213</hAcc><vAcc>0.748146</vAcc></extensions></trkpt>
      <trkpt lon="-4.129447" lat="53.007106"><ele>407.293854</ele><time>2021-07-17T09:52:22Z</time><extensions><speed>0.000000</speed><course>240.875916</course><hAcc>0.917782</hAcc><vAcc>0.749538</vAcc></extensions></trkpt>
      <trkpt lon="-4.129447" lat="53.007106"><ele>407.293854</ele><time>2021-07-17T09:52:23Z</time><extensions><speed>0.000000</speed><course>240.875916</course><hAcc>0.917992</hAcc><vAcc>0.750304</vAcc></extensions></trkpt>
      <trkpt lon="-4.129447" lat="53.007106"><ele>407.293854</ele><time>2021-07-17T09:52:24Z</time><extensions><speed>0.000000</speed><course>269.430084</course><hAcc>0.917954</hAcc><vAcc>0.750439</vAcc></extensions></trkpt>
      <trkpt lon="-4.129447" lat="53.007106"><ele>407.293854</ele><time>2021-07-17T09:52:25Z</time><extensions><speed>0.000000</speed><course>274.056000</course><hAcc>0.917709</hAcc><vAcc>0.749968</vAcc></extensions></trkpt>
      <trkpt lon="-4.129447" lat="53.007106"><ele>407.293854</ele><time>2021-07-17T09:52:26Z</time><extensions><speed>0.000000</speed><course>273.580658</course><hAcc>0.917223</hAcc><vAcc>0.748935</vAcc></extensions></trkpt>
      <trkpt lon="-4.129447" lat="53.007106"><ele>407.293854</ele><time>2021-07-17T09:52:27Z</time><extensions><speed>0.000000</speed><course>266.285736</course><hAcc>0.916441</hAcc><vAcc>0.747448</vAcc></extensions></trkpt>
      <trkpt lon="-4.129447" lat="53.007106"><ele>407.293854</ele><time>2021-07-17T09:52:28Z</time><extensions><speed>0.000000</speed><course>280.416809</course><hAcc>0.915391</hAcc><vAcc>0.745773</vAcc></extensions></trkpt>
      <trkpt lon="-4.129447" lat="53.007106"><ele>407.293854</ele><time>2021-07-17T09:52:29Z</time><extensions><speed>0.000000</speed><course>289.633057</course><hAcc>0.914364</hAcc><vAcc>0.744479</vAcc></extensions></trkpt>
      <trkpt lon="-4.129447" lat="53.007106"><ele>407.293854</ele><time>2021-07-17T09:52:30Z</time><extensions><speed>0.000000</speed><course>274.042023</course><hAcc>0.914185</hAcc><vAcc>0.744641</vAcc></extensions></trkpt>
      <trkpt lon="-4.129447" lat="53.007106"><ele>407.293854</ele><time>2021-07-17T09:52:31Z</time><extensions><speed>0.000000</speed><course>259.398621</course><hAcc>0.916576</hAcc><vAcc>0.748082</vAcc></extensions></trkpt>
      <trkpt lon="-4.129447" lat="53.007106"><ele>407.293854</ele><time>2021-07-17T09:52:32Z</time><extensions><speed>0.000000</speed><course>235.228027</course><hAcc>0.924598</hAcc><vAcc>0.757604</vAcc></extensions></trkpt>
      <trkpt lon="-4.129447" lat="53.007106"><ele>407.293854</ele><time>2021-07-17T09:52:33Z</time><extensions><speed>0.000000</speed><course>233.943741</course><hAcc>0.943052</hAcc><vAcc>0.777111</vAcc></extensions></trkpt>
      <trkpt lon="-4.129447" lat="53.007106"><ele>407.293854</ele><time>2021-07-17T09:52:34Z</time><extensions><speed>0.000000</speed><course>251.986771</course><hAcc>0.978600</hAcc><vAcc>0.811453</vAcc></extensions></trkpt>
      <trkpt lon="-4.129447" lat="53.007106"><ele>407.293854</ele><time>2021-07-17T09:52:35Z</time><extensions><speed>0.000000</speed><course>207.637573</course><hAcc>0.940376</hAcc><vAcc>0.775812</vAcc></extensions></trkpt>
      <trkpt lon="-4.129447" lat="53.007106"><ele>407.293854</ele><time>2021-07-17T09:52:36Z</time><extensions><speed>0.000000</speed><course>199.781464</course><hAcc>0.921000</hAcc><vAcc>0.754750</vAcc></extensions></trkpt>
      <trkpt lon="-4.129447" lat="53.007106"><ele>407.293854</ele><time>2021-07-17T09:52:37Z</time><extensions><speed>0.000000</speed><course>204.898392</course><hAcc>0.913232</hAcc><vAcc>0.744701</vAcc></extensions></trkpt>
      <trkpt lon="-4.129447" lat="53.007106"><ele>407.293854</ele><time>2021-07-17T09:52:38Z</time><extensions><speed>0.000000</speed><course>218.988647</course><hAcc>0.911597</hAcc><vAcc>0.741324</vAcc></extensions></trkpt>
      <trkpt lon="-4.129447" lat="53.007106"><ele>407.293854</ele><time>2021-07-17T09:52:39Z</time><extensions><speed>0.000000</speed><course>240.875916</course><hAcc>0.912607</hAcc><vAcc>0.741487</vAcc></extensions></trkpt>
      <trkpt lon="-4.129447" lat="53.007106"><ele>407.293854</ele><time>2021-07-17T09:52:40Z</time><extensions><speed>0.000000</speed><course>240.875916</course><hAcc>0.914314</hAcc><vAcc>0.743162</vAcc></extensions></trkpt>
      <trkpt lon="-4.129447" lat="53.007106"><ele>407.293854</ele><time>2021-07-17T09:52:41Z</time><extensions><speed>0.000000</speed><course>240.875916</course><hAcc>0.915812</hAcc><vAcc>0.745166</vAcc></extensions></trkpt>
      <trkpt lon="-4.129447" lat="53.007106"><ele>407.293854</ele><time>2021-07-17T09:52:42Z</time><extensions><speed>0.000000</speed><course>240.875916</course><hAcc>0.916808</hAcc><vAcc>0.746892</vAcc></extensions></trkpt>
      <trkpt lon="-4.129447" lat="53.007106"><ele>407.293854</ele><time>2021-07-17T09:52:43Z</time><extensions><speed>0.000000</speed><course>240.875916</course><hAcc>0.917322</hAcc><vAcc>0.748084</vAcc></extensions></trkpt>
      <trkpt lon="-4.129447" lat="53.007106"><ele>407.293854</ele><time>2021-07-17T09:52:44Z</time><extensions><speed>0.000000</speed><course>240.875916</course><hAcc>0.917484</hAcc><vAcc>0.748671</vAcc></extensions></trkpt>
      <trkpt lon="-4.129447" lat="53.007106"><ele>407.293854</ele><time>2021-07-17T09:52:45Z</time><extensions><speed>0.000000</speed><course>269.430084</course><hAcc>0.917407</hAcc><vAcc>0.748659</vAcc></extensions></trkpt>
      <trkpt lon="-4.129447" lat="53.007106"><ele>407.293854</ele><time>2021-07-17T09:52:46Z</time><extensions><speed>0.000000</speed><course>274.056000</course><hAcc>0.917135</hAcc><vAcc>0.748081</vAcc></extensions></trkpt>
      <trkpt lon="-4.129447" lat="53.007106"><ele>407.293854</ele><time>2021-07-17T09:52:47Z</time><extensions><speed>0.000000</speed><course>273.580658</course><hAcc>0.916639</hAcc><vAcc>0.746989</vAcc></extensions></trkpt>
      <trkpt lon="-4.129447" lat="53.007106"><ele>407.293854</ele><time>2021-07-17T09:52:48Z</time><extensions><speed>0.000000</speed><course>266.285736</course><hAcc>0.915863</hAcc><vAcc>0.745499</vAcc></extensions></trkpt>
      <trkpt lon="-4.129447" lat="53.007106"><ele>407.293854</ele><time>2021-07-17T09:52:49Z</time><extensions><speed>0.000000</speed><course>280.416809</course><hAcc>0.914837</hAcc><vAcc>0.743883</vAcc></extensions></trkpt>
      <trkpt lon="-4.129447" lat="53.007106"><ele>407.293854</ele><time>2021-07-17T09:52:50Z</time><extensions><speed>0.000000</speed><course>289.633057</course><hAcc>0.913855</hAcc><vAcc>0.742717</vAcc></extensions></trkpt>
      <trkpt lon="-4.129447" lat="53.007106"><ele>407.293854</ele><time>2021-07-17T09:52:51Z</time><extensions><speed>0.000000</speed><course>274.042023</course><hAcc>0.913742</hAcc><vAcc>0.743083</vAcc></extensions></trkpt>
      <trkpt lon="-4.129447" lat="53.007106"><ele>407.293854</ele><time>2021-07-17T09:52:52Z</time><extensions><speed>0.000000</speed><course>259.398621</course><hAcc>0.916221</hAcc><vAcc>0.746806</vAcc></extensions></trkpt>
      <trkpt lon="-4.129447" lat="53.007106"><ele>407.293854</ele><time>2021-07-17T09:52:53Z</time><extensions><speed>0.000000</speed><course>235.228027</course><hAcc>0.924354</hAcc><vAcc>0.756693</vAcc></extensions></trkpt>
      <trkpt lon="-4.129447" lat="53.007106"><ele>407.293854</ele><time>2021-07-17T09:52:54Z</time><extensions><speed>0.000000</speed><course>233.943741</course><hAcc>0.942941</hAcc><vAcc>0.776639</vAcc></extensions></trkpt>
      <trkpt lon="-4.129447" lat="53.007106"><ele>407.293854</ele><time>2021-07-17T09:52:55Z</time><extensions><speed>0.000000</speed><course>251.986771</course><hAcc>0.978637</hAcc><vAcc>0.811476</vAcc></extensions></trkpt>
      <trkpt lon="-4.129443" lat="53.007107"><ele>407.231384</ele><time>2021-07-17T09:52:56Z</time><extensions><speed>0.071926</speed><course>207.637573</course><hAcc>0.939693</hAcc><vAcc>0.774746</vAcc></extensions></trkpt>
      <trkpt lon="-4.129442" lat="53.007108"><ele>407.218170</ele><time>2021-07-17T09:52:57Z</time><extensions><speed>0.068226</speed><course>199.781464</course><hAcc>0.920077</hAcc><vAcc>0.753642</vAcc></extensions></trkpt>
      <trkpt lon="-4.129441" lat="53.007108"><ele>407.205688</ele><time>2021-07-17T09:52:58Z</time><extensions><speed>0.061655</speed><course>204.898392</course><hAcc>0.911874</hAcc><vAcc>0.743276</vAcc></extensions></trkpt>
      <trkpt lon="-4.129440" lat="53.007108"><ele>407.194366</ele><time>2021-07-17T09:52:59Z</time><extensions><speed>0.051137</speed><course>218.988647</course><hAcc>0.909584</hAcc><vAcc>0.739298</vAcc></extensions></trkpt>
      <trkpt lon="-4.129440" lat="53.007108"><ele>407.184906</ele><time>2021-07-17T09:53:00Z</time><extensions><speed>0.035612</speed><course>240.875916</course><hAcc>0.909694</hAcc><vAcc>0.738584</vAcc></extensions></trkpt>
      <trkpt lon="-4.129439" lat="53.007109"><ele>407.178162</ele><time>2021-07-17T09:53:01Z</time><extensions><speed>0.015634</speed><course>240.875916</course><hAcc>0.910238</hAcc><vAcc>0.739124</vAcc></extensions></trkpt>
      <trkpt lon="-4.129440" lat="53.007109"><ele>407.175171</ele><time>2021-07-17T09:53:02Z</time><extensions><speed>0.023020</speed><course>240.875916</course><hAcc>0.910296</hAcc><vAcc>0.739770</vAcc></extensions></trkpt>
      <trkpt lon="-4.129440" lat="53.007109"><ele>407.177277</ele><time>2021-07-17T09:53:03Z</time><extensions><speed>0.062062</speed><course>240.875916</course><hAcc>0.909587</hAcc><vAcc>0.739968</vAcc></extensions></trkpt>
      <trkpt lon="-4.129441" lat="53.007109"><ele>407.185944</ele><time>2021-07-17T09:53:04Z</time><extensions><speed>0.113755</speed><course>240.875916</course><hAcc>0.908170</hAcc><vAcc>0.739546</vAcc></extensions></trkpt>
      <trkpt lon="-4.129444" lat="53.007108"><ele>407.202972</ele><time>2021-07-17T09:53:05Z</time><extensions><speed>0.178245</speed><course>240.875916</course><hAcc>0.906254</hAcc><vAcc>0.738544</vAcc></extensions></trkpt>
      <trkpt lon="-4.129447" lat="53.007108"><ele>407.230286</ele><time>2021-07-17T09:53:06Z</time><extensions><speed>0.256343</speed><course>269.430084</course><hAcc>0.904082</hAcc><vAcc>0.737108</vAcc></extensions></trkpt>
      <trkpt lon="-4.129451" lat="53.007107"><ele>407.270020</ele><time>2021-07-17T09:53:07Z</time><extensions><speed>0.348502</speed><course>274.056000</course><hAcc>0.901870</hAcc><vAcc>0.735412</vAcc></extensions></trkpt>
      <trkpt lon="-4.129457" lat="53.007106"><ele>407.324402</ele><time>2021-07-17T09:53:08Z</time><extensions><speed>0.454524</speed><course>273.580658</course><hAcc>0.899780</hAcc><vAcc>0.733618</vAcc></extensions></trkpt>
      <trkpt lon="-4.129464" lat="53.007105"><ele>407.395721</ele><time>2021-07-17T09:53:09Z</time><extensions><speed>0.573304</speed><course>266.285736</course><hAcc>0.897914</hAcc><vAcc>0.731856</vAcc></extensions></trkpt>
      <trkpt lon="-4.129473" lat="53.007103"><ele>407.486237</ele><time>2021-07-17T09:53:10Z</time><extensions><speed>0.702809</speed><course>280.416809</course><hAcc>0.896305</hAcc><vAcc>0.730199</vAcc></extensions></trkpt>
      <trkpt lon="-4.129484" lat="53.007101"><ele>407.597778</ele><time>2021-07-17T09:53:11Z</time><extensions><speed>0.838728</speed><course>289.633057</course><hAcc>0.894966</hAcc><vAcc>0.728697</vAcc></extensions></trkpt>
      <trkpt lon="-4.129497" lat="53.007099"><ele>407.731934</ele><time>2021-07-17T09:53:12Z</time><extensions><speed>0.975692</speed><course>274.042023</course><hAcc>0.893895</hAcc><vAcc>0.727377</vAcc></extensions></trkpt>
      <trkpt lon="-4.129512" lat="53.007096"><ele>407.889709</ele><time>2021-07-17T09:53:13Z</time><extensions><speed>1.105920</speed><course>259.398621</course><hAcc>0.893058</hAcc><vAcc>0.726231</vAcc></extensions></trkpt>
      <trkpt lon="-4.129529" lat="53.007093"><ele>408.071136</ele><time>2021-07-17T09:53:14Z</time><extensions><speed>1.219155</speed><course>235.228027</course><hAcc>0.892415</hAcc><vAcc>0.725239</vAcc></extensions></trkpt>
      <trkpt lon="-4.129546" lat="53.007089"><ele>408.275055</ele><time>2021-07-17T09:53:15Z</time><extensions><speed>1.302405</speed><course>233.943741</course><hAcc>0.891925</hAcc><vAcc>0.724375</vAcc></extensions></trkpt>
      <trkpt lon="-4.129565" lat="53.007085"><ele>408.498749</ele><time>2021-07-17T09:53:16Z</time><extensions><speed>1.339826</speed><course>251.986771</course><hAcc>0.891550</hAcc><vAcc>0.723614</vAcc></extensions></trkpt>
      <trkpt lon="-4.129583" lat="53.007081"><ele>408.738281</ele><time>2021-07-17T09:53:17Z</time><extensions><speed>1.330910</speed><course>230.632401</course><hAcc>0.891258</hAcc><vAcc>0.722936</vAcc></extensions></trkpt>
      <trkpt lon="-4.129601" lat="53.007076"><ele>408.989441</ele><time>2021-07-17T09:53:18Z</time><extensions><speed>1.290338</speed><course>208.539734</course><hAcc>0.891022</hAcc><vAcc>0.722324</vAcc></extensions></trkpt>
      <trkpt lon="-4.129618" lat="53.007071"><ele>409.248383</ele><time>2021-07-17T09:53:19Z</time><extensions><speed>1.230024</speed><course>217.062653</course><hAcc>0.890824</hAcc><vAcc>0.721765</vAcc></extensions></trkpt>
      <trkpt lon="-4.129633" lat="53.007065"><ele>409.511688</ele><time>2021-07-17T09:53:20Z</time><extensions><speed>1.159287</speed><course>216.480164</course><hAcc>0.890650</hAcc><vAcc>0.721247</vAcc></extensions></trkpt>
      <trkpt lon="-4.129647" lat="53.007060"><ele>409.776398</ele><time>2021-07-17T09:53:21Z</time><extensions><speed>1.084997</speed><course>215.204285</course><hAcc>0.890490</hAcc><vAcc>0.720761</vAcc></extensions></trkpt>
      <trkpt lon="-4.129660" lat="53.007054"><ele>410.039917</ele><time>2021-07-17T09:53:22Z</time><extensions><speed>1.011865</speed><course>192.608246</course><hAcc>0.890340</hAcc><vAcc>0.720298</vAcc></extensions></trkpt>
      <trkpt lon="-4.129671" lat="53.007049"><ele>410.299896</ele><time>2021-07-17T09:53:23Z</time><extensions><speed>0.942815</speed><course>196.818375</course><hAcc>0.890197</hAcc><vAcc>0.719849</vAcc></extensions></trkpt>
      <trkpt lon="-4.129681" lat="53.007043"><ele>410.554382</ele><time>2021-07-17T09:53:24Z</time><extensions><speed>0.879358</speed><course>200.564194</course><hAcc>0.890061</hAcc><vAcc>0.719412</vAcc></extensions></trkpt>
      <trkpt lon="-4.129689" lat="53.007037"><ele>410.801788</ele><time>2021-07-17T09:53:25Z</time><extensions><speed>0.821768</speed><course>224.718231</course><hAcc>0.889933</hAcc><vAcc>0.718987</vAcc></extensions></trkpt>
      <trkpt lon="-4.129696" lat="53.007032"><ele>411.040680</ele><time>2021-07-17T09:53:26Z</time><extensions><speed>0.769364</speed><course>228.969803</course><hAcc>0.889814</hAcc><vAcc>0.718584</vAcc></extensions></trkpt>
      <trkpt lon="-4.129703" lat="53.007026"><ele>411.269806</ele><time>2021-07-17T09:53:27Z</time><extensions><speed>0.720764</speed><course>250.366501</course><hAcc>0.889707</hAcc><vAcc>0.718212</vAcc></extensions></trkpt>
      <trkpt lon="-4.129708" lat="53.007021"><ele>411.488068</ele><time>2021-07-17T09:53:28Z</time><extensions><speed>0.674435</speed><course>-1.000000</course><hAcc>0.889613</hAcc><vAcc>0.717884</vAcc></extensions></trkpt>
      <trkpt lon="-4.129713" lat="53.007016"><ele>411.694733</ele><time>2021-07-17T09:53:29Z</time><extensions><speed>0.629305</speed><course>232.063629</course><hAcc>0.889536</hAcc><vAcc>0.717610</vAcc></extensions></trkpt>
      <trkpt lon="-4.129717" lat="53.007011"><ele>411.889038</ele><time>2021-07-17T09:53:30Z</time><extensions><speed>0.585024</speed><course>232.063614</course><hAcc>0.889477</hAcc><vAcc>0.717400</vAcc></extensions></trkpt>
      <trkpt lon="-4.129721" lat="53.007006"><ele>412.070374</ele><time>2021-07-17T09:53:31Z</time><extensions><speed>0.541796</speed><course>232.063614</course><hAcc>0.889438</hAcc><vAcc>0.717263</vAcc></extensions></trkpt>
      <trkpt lon="-4.129724" lat="53.007002"><ele>412.238586</ele><time>2021-07-17T09:53:32Z</time><extensions><speed>0.500147</speed><course>232.063599</course><hAcc>0.889419</hAcc><vAcc>0.717205</vAcc></extensions></trkpt>
      <trkpt lon="-4.129726" lat="53.006998"><ele>412.393890</ele><time>2021-07-17T09:53:33Z</time><extensions><speed>0.460711</speed><course>232.063599</course><hAcc>0.889421</hAcc><vAcc>0.717227</vAcc></extensions></trkpt>
      <trkpt lon="-4.129729" lat="53.006994"><ele>412.536804</ele><time>2021-07-17T09:53:34Z</time><extensions><speed>0.424045</speed><course>232.063583</course><hAcc>0.889442</hAcc><vAcc>0.717328</vAcc></extensions></trkpt>
      <trkpt lon="-4.129731" lat="53.006991"><ele>412.668213</ele><time>2021-07-17T09:53:35Z</time><extensions><speed>0.390899</speed><course>232.063583</course><hAcc>0.889481</hAcc><vAcc>0.717499</vAcc></extensions></trkpt>
      <trkpt lon="-4.129733" lat="53.006988"><ele>412.789276</ele><time>2021-07-17T09:53:36Z</time><extensions><speed>0.362371</speed><course>248.555511</course><hAcc>0.889534</hAcc><vAcc>0.717726</vAcc></extensions></trkpt>
      <trkpt lon="-4.129735" lat="53.006985"><ele>412.901672</ele><time>2021-07-17T09:53:37Z</time><extensions><speed>0.339804</speed><course>214.727661</course><hAcc>0.889600</hAcc><vAcc>0.717990</vAcc></extensions></trkpt>
      <trkpt lon="-4.129738" lat="53.006982"><ele>413.007507</ele><time>2021-07-17T09:53:38Z</time><extensions><speed>0.324293</speed><course>215.656113</course><hAcc>0.889673</hAcc><vAcc>0.718273</vAcc></extensions></trkpt>
      <trkpt lon="-4.129740" lat="53.006980"><ele>413.109192</ele><time>2021-07-17T09:53:39Z</time><extensions><speed>0.316457</speed><course>205.637772</course><hAcc>0.889751</hAcc><vAcc>0.718560</vAcc></extensions></trkpt>
      <trkpt lon="-4.129742" lat="53.006977"><ele>413.209198</ele><time>2021-07-17T09:53:40Z</time><extensions><speed>0.316384</speed><course>201.575424</course><hAcc>0.889829</hAcc><vAcc>0.718840</vAcc></extensions></trkpt>
      <trkpt lon="-4.129745" lat="53.006975"><ele>413.309906</ele><time>2021-07-17T09:53:41Z</time><extensions><speed>0.323263</speed><course>196.854248</course><hAcc>0.889901</hAcc><vAcc>0.719106</vAcc></extensions></trkpt>
      <trkpt lon="-4.129748" lat="53.006973"><ele>413.413391</ele><time>2021-07-17T09:53:42Z</time><extensions><speed>0.335646</speed><course>198.264053</course><hAcc>0.889963</hAcc><vAcc>0.719349</vAcc></extensions></trkpt>
      <trkpt lon="-4.129751" lat="53.006970"><ele>413.521362</ele><time>2021-07-17T09:53:43Z</time><extensions><speed>0.352067</speed><course>198.636932</course><hAcc>0.890011</hAcc><vAcc>0.719559</vAcc></extensions></trkpt>
      <trkpt lon="-4.129755" lat="53.006968"><ele>413.635132</ele><time>2021-07-17T09:53:44Z</time><extensions><speed>0.371218</speed><course>192.727798</course><hAcc>0.890040</hAcc><vAcc>0.719724</vAcc></extensions></trkpt>
      <trkpt lon="-4.129758" lat="53.006965"><ele>413.755524</ele><time>2021-07-17T09:53:45Z</time><extensions><speed>0.391890</speed><course>184.691818</course><hAcc>0.890047</hAcc><vAcc>0.719831</vAcc></extensions></trkpt>
      <trkpt lon="-4.129762" lat="53.006962"><ele>413.882874</ele><time>2021-07-17T09:53:46Z</time><extensions><speed>0.412973</speed><course>177.917740</course><hAcc>0.890029</hAcc><vAcc>0.719865</vAcc></extensions></trkpt>
      <trkpt lon="-4.129766" lat="53.006959"><ele>414.016724</ele><time>2021-07-17T09:53:47Z</time><extensions><speed>0.433933</speed><course>169.935883</course><hAcc>0.890002</hAcc><vAcc>0.719825</vAcc></extensions></trkpt>
      <trkpt lon="-4.129770" lat="53.006956"><ele>414.156464</ele><time>2021-07-17T09:53:48Z</time><extensions><speed>0.454876</speed><course>168.290512</course><hAcc>0.889967</hAcc><vAcc>0.719702</vAcc></extensions></trkpt>
      <trkpt lon="-4.129774" lat="53.006953"><ele>414.300659</ele><time>2021-07-17T09:53:49Z</time><extensions><speed>0.475464</speed><course>175.847488</course><hAcc>0.889905</hAcc><vAcc>0.719481</vAcc></extensions></trkpt>
      <trkpt lon="-4.129778" lat="53.006949"><ele>414.448120</ele><time>2021-07-17T09:53:50Z</time><extensions><speed>0.494891</speed><course>182.489380</course><hAcc>0.889821</hAcc><vAcc>0.719174</vAcc></extensions></trkpt>
      <trkpt lon="-4.129782" lat="53.006945"><ele>414.597931</ele><time>2021-07-17T09:53:50Z</time><extensions><speed>0.512264</speed><course>193.224472</course><hAcc>0.889734</hAcc><vAcc>0.718810</vAcc></extensions></trkpt>
      <trkpt lon="-4.129787" lat="53.006941"><ele>414.749878</ele><time>2021-07-17T09:53:51Z</time><extensions><speed>0.527054</speed><course>210.457108</course><hAcc>0.889650</hAcc><vAcc>0.718412</vAcc></extensions></trkpt>
      <trkpt lon="-4.129791" lat="53.006937"><ele>414.903503</ele><time>2021-07-17T09:53:52Z</time><extensions><speed>0.538817</speed><course>227.054108</course><hAcc>0.889556</hAcc><vAcc>0.717992</vAcc></extensions></trkpt>
      <trkpt lon="-4.129795" lat="53.006933"><ele>415.058502</ele><time>2021-07-17T09:53:53Z</time><extensions><speed>0.547512</speed><course>247.666534</course><hAcc>0.889458</hAcc><vAcc>0.717573</vAcc></extensions></trkpt>
      <trkpt lon="-4.129799" lat="53.006929"><ele>415.214569</ele><time>2021-07-17T09:53:54Z</time><extensions><speed>0.553379</speed><course>261.197876</course><hAcc>0.889360</hAcc><vAcc>0.717181</vAcc></extensions></trkpt>
      <trkpt lon="-4.129803" lat="53.006925"><ele>415.371521</ele><time>2021-07-17T09:53:55Z</time><extensions><speed>0.556478</speed><course>263.217255</course><hAcc>0.889269</hAcc><vAcc>0.716835</vAcc></extensions></trkpt>
      <trkpt lon="-4.129807" lat="53.006920"><ele>415.529144</ele><time>2021-07-17T09:53:56Z</time><extensions><speed>0.556778</speed><course>271.463165</course><hAcc>0.889186</hAcc><vAcc>0.716549</vAcc></extensions></trkpt>
      <trkpt lon="-4.129811" lat="53.006916"><ele>415.687042</ele><time>2021-07-17T09:53:57Z</time><extensions><speed>0.554453</speed><course>281.991608</course><hAcc>0.889115</hAcc><vAcc>0.716327</vAcc></extensions></trkpt>
      <trkpt lon="-4.129815" lat="53.006912"><ele>415.844604</ele><time>2021-07-17T09:53:58Z</time><extensions><speed>0.549690</speed><course>285.895782</course><hAcc>0.889056</hAcc><vAcc>0.716166</vAcc></extensions></trkpt>
      <trkpt lon="-4.129819" lat="53.006907"><ele>416.001312</ele><time>2021-07-17T09:53:59Z</time><extensions><speed>0.542852</speed><course>287.327179</course><hAcc>0.889010</hAcc><vAcc>0.716058</vAcc></extensions></trkpt>
      <trkpt lon="-4.129824" lat="53.006903"><ele>416.156769</ele><time>2021-07-17T09:54:00Z</time><extensions><speed>0.534554</speed><course>297.396240</course><hAcc>0.888975</hAcc><vAcc>0.715991</vAcc></extensions></trkpt>
      <trkpt lon="-4.129828" lat="53.006899"><ele>416.310547</ele><time>2021-07-17T09:54:01Z</time><extensions><speed>0.525307</speed><course>299.473175</course><hAcc>0.888951</hAcc><vAcc>0.715951</vAcc></extensions></trkpt>
      <trkpt lon="-4.129832" lat="53.006895"><ele>416.462372</ele><time>2021-07-17T09:54:02Z</time><extensions><speed>0.515619</speed><course>297.683289</course><hAcc>0.888936</hAcc><vAcc>0.715926</vAcc></extensions></trkpt>
      <trkpt lon="-4.129835" lat="53.006891"><ele>416.612091</ele><time>2021-07-17T09:54:03Z</time><extensions><speed>0.506227</speed><course>292.365356</course><hAcc>0.888927</hAcc><vAcc>0.715909</vAcc></extensions></trkpt>
      <trkpt lon="-4.129839" lat="53.006887"><ele>416.759735</ele><time>2021-07-17T09:54:04Z</time><extensions><speed>0.497871</speed><course>291.092651</course><hAcc>0.888924</hAcc><vAcc>0.715897</vAcc></extensions></trkpt>
      <trkpt lon="-4.129843" lat="53.006883"><ele>416.905487</ele><time>2021-07-17T09:54:05Z</time><extensions><speed>0.491050</speed><course>297.007721</course><hAcc>0.888925</hAcc><vAcc>0.715889</vAcc></extensions></trkpt>
      <trkpt lon="-4.129846" lat="53.006879"><ele>417.049774</ele><time>2021-07-17T09:54:06Z</time><extensions><speed>0.485961</speed><course>291.539093</course><hAcc>0.888928</hAcc><vAcc>0.715890</vAcc></extensions></trkpt>
      <trkpt lon="-4.129850" lat="53.006876"><ele>417.193176</ele><time>2021-07-17T09:54:07Z</time><extensions><speed>0.482348</speed><course>293.314819</course><hAcc>0.888932</hAcc><vAcc>0.715904</vAcc></extensions></trkpt>
      <trkpt lon="-4.129853" lat="53.006872"><ele>417.336060</ele><time>2021-07-17T09:54:08Z</time><extensions><speed>0.479463</speed><course>297.043213</course><hAcc>0.888936</hAcc><vAcc>0.715930</vAcc></extensions></trkpt>
      <trkpt lon="-4.129856" lat="53.006868"><ele>417.478516</ele><time>2021-07-17T09:54:09Z</time><extensions><speed>0.476189</speed><course>301.573547</course><hAcc>0.888940</hAcc><vAcc>0.715962</vAcc></extensions></trkpt>
      <trkpt lon="-4.129859" lat="53.006864"><ele>417.620178</ele><time>2021-07-17T09:54:10Z</time><extensions><speed>0.471222</speed><course>305.542847</course><hAcc>0.888946</hAcc><vAcc>0.715993</vAcc></extensions></trkpt>
      <trkpt lon="-4.129862" lat="53.006860"><ele>417.760498</ele><time>2021-07-17T09:54:11Z</time><extensions><speed>0.463685</speed><course>304.461029</course><hAcc>0.888952</hAcc><vAcc>0.716016</vAcc></extensions></trkpt>
      <trkpt lon="-4.129865" lat="53.006857"><ele>417.898895</ele><time>2021-07-17T09:54:12Z</time><extensions><speed>0.453529</speed><course>304.519958</course><hAcc>0.888961</hAcc><vAcc>0.716032</vAcc></extensions></trkpt>
      <trkpt lon="-4.129868" lat="53.006853"><ele>418.035095</ele><time>2021-07-17T09:54:13Z</time><extensions><speed>0.441720</speed><course>306.835541</course><hAcc>0.888972</hAcc><vAcc>0.716043</vAcc></extensions></trkpt>
      <trkpt lon="-4.129871" lat="53.006849"><ele>418.168915</ele><time>2021-07-17T09:54:14Z</time><extensions><speed>0.429971</speed><course>312.924469</course><hAcc>0.888987</hAcc><vAcc>0.716058</vAcc></extensions></trkpt>
      <trkpt lon="-4.129873" lat="53.006846"><ele>418.300751</ele><time>2021-07-17T09:54:15Z</time><extensions><speed>0.419711</speed><course>313.121582</course><hAcc>0.889007</hAcc><vAcc>0.716085</vAcc></extensions></trkpt>
      <trkpt lon="-4.129876" lat="53.006842"><ele>418.431183</ele><time>2021-07-17T09:54:16Z</time><extensions><speed>0.411572</speed><course>312.363678</course><hAcc>0.889033</hAcc><vAcc>0.716134</vAcc></extensions></trkpt>
      <trkpt lon="-4.129878" lat="53.006839"><ele>418.560913</ele><time>2021-07-17T09:54:17Z</time><extensions><speed>0.405745</speed><course>309.905548</course><hAcc>0.889065</hAcc><vAcc>0.716213</vAcc></extensions></trkpt>
      <trkpt lon="-4.129880" lat="53.006836"><ele>418.690765</ele><time>2021-07-17T09:54:18Z</time><extensions><speed>0.402435</speed><course>308.597687</course><hAcc>0.889103</hAcc><vAcc>0.716325</vAcc></extensions></trkpt>
      <trkpt lon="-4.129883" lat="53.006832"><ele>418.821411</ele><time>2021-07-17T09:54:19Z</time><extensions><speed>0.402059</speed><course>307.103394</course><hAcc>0.889146</hAcc><vAcc>0.716470</vAcc></extensions></trkpt>
      <trkpt lon="-4.129885" lat="53.006829"><ele>418.953613</ele><time>2021-07-17T09:54:20Z</time><extensions><speed>0.405114</speed><course>306.897400</course><hAcc>0.889192</hAcc><vAcc>0.716644</vAcc></extensions></trkpt>
      <trkpt lon="-4.129887" lat="53.006826"><ele>419.087921</ele><time>2021-07-17T09:54:21Z</time><extensions><speed>0.411903</speed><course>302.152618</course><hAcc>0.889241</hAcc><vAcc>0.716837</vAcc></extensions></trkpt>
      <trkpt lon="-4.129890" lat="53.006822"><ele>419.224792</ele><time>2021-07-17T09:54:22Z</time><extensions><speed>0.422529</speed><course>297.726410</course><hAcc>0.889288</hAcc><vAcc>0.717037</vAcc></extensions></trkpt>
      <trkpt lon="-4.129892" lat="53.006819"><ele>419.364716</ele><time>2021-07-17T09:54:23Z</time><extensions><speed>0.436939</speed><course>300.194183</course><hAcc>0.889331</hAcc><vAcc>0.717226</vAcc></extensions></trkpt>
      <trkpt lon="-4.129895" lat="53.006815"><ele>419.507965</ele><time>2021-07-17T09:54:24Z</time><extensions><speed>0.454716</speed><course>297.151825</course><hAcc>0.889367</hAcc><vAcc>0.717383</vAcc></extensions></trkpt>
      <trkpt lon="-4.129898" lat="53.006811"><ele>419.654510</ele><time>2021-07-17T09:54:25Z</time><extensions><speed>0.475089</speed><course>298.399384</course><hAcc>0.889395</hAcc><vAcc>0.717491</vAcc></extensions></trkpt>
      <trkpt lon="-4.129901" lat="53.006807"><ele>419.804016</ele><time>2021-07-17T09:54:27Z</time><extensions><speed>0.497257</speed><course>300.837921</course><hAcc>0.889394</hAcc><vAcc>0.717522</vAcc></extensions></trkpt>
      <trkpt lon="-4.129904" lat="53.006803"><ele>419.955322</ele><time>2021-07-17T09:54:28Z</time><extensions><speed>0.520523</speed><course>299.844330</course><hAcc>0.889365</hAcc><vAcc>0.717468</vAcc></extensions></trkpt>
      <trkpt lon="-4.129906" lat="53.006799"><ele>420.108002</ele><time>2021-07-17T09:54:29Z</time><extensions><speed>0.544274</speed><course>300.001373</course><hAcc>0.889323</hAcc><vAcc>0.717340</vAcc></extensions></trkpt>
      <trkpt lon="-4.129909" lat="53.006794"><ele>420.261444</ele><time>2021-07-17T09:54:30Z</time><extensions><speed>0.567344</speed><course>294.568817</course><hAcc>0.889271</hAcc><vAcc>0.717143</vAcc></extensions></trkpt>
      <trkpt lon="-4.129912" lat="53.006789"><ele>420.415131</ele><time>2021-07-17T09:54:31Z</time><extensions><speed>0.588353</speed><course>300.687103</course><hAcc>0.889210</hAcc><vAcc>0.716891</vAcc></extensions></trkpt>
      <trkpt lon="-4.129915" lat="53.006784"><ele>420.568420</ele><time>2021-07-17T09:54:32Z</time><extensions><speed>0.605902</speed><course>297.691925</course><hAcc>0.889143</hAcc><vAcc>0.716605</vAcc></extensions></trkpt>
      <trkpt lon="-4.129918" lat="53.006779"><ele>420.720581</ele><time>2021-07-17T09:54:33Z</time><extensions><speed>0.619056</speed><course>293.928223</course><hAcc>0.889073</hAcc><vAcc>0.716309</vAcc></extensions></trkpt>
      <trkpt lon="-4.129921" lat="53.006773"><ele>420.871155</ele><time>2021-07-17T09:54:34Z</time><extensions><speed>0.627317</speed><course>297.041656</course><hAcc>0.889003</hAcc><vAcc>0.716026</vAcc></extensions></trkpt>
      <trkpt lon="-4.129923" lat="53.006768"><ele>421.019897</ele><time>2021-07-17T09:54:35Z</time><extensions><speed>0.630087</speed><course>298.722290</course><hAcc>0.888937</hAcc><vAcc>0.715777</vAcc></extensions></trkpt>
      <trkpt lon="-4.129926" lat="53.006762"><ele>421.166840</ele><time>2021-07-17T09:54:36Z</time><extensions><speed>0.627118</speed><course>296.674316</course><hAcc>0.888878</hAcc><vAcc>0.715576</vAcc></extensions></trkpt>
      <trkpt lon="-4.129929" lat="53.006757"><ele>421.312317</ele><time>2021-07-17T09:54:37Z</time><extensions><speed>0.618756</speed><course>301.147156</course><hAcc>0.888828</hAcc><vAcc>0.715426</vAcc></extensions></trkpt>
      <trkpt lon="-4.129932" lat="53.006752"><ele>421.456940</ele><time>2021-07-17T09:54:38Z</time><extensions><speed>0.605547</speed><course>301.618805</course><hAcc>0.888790</hAcc><vAcc>0.715325</vAcc></extensions></trkpt>
      <trkpt lon="-4.129934" lat="53.006747"><ele>421.601257</ele><time>2021-07-17T09:54:39Z</time><extensions><speed>0.588117</speed><course>300.678009</course><hAcc>0.888763</hAcc><vAcc>0.715267</vAcc></extensions></trkpt>
      <trkpt lon="-4.129937" lat="53.006742"><ele>421.745972</ele><time>2021-07-17T09:54:40Z</time><extensions><speed>0.567250</speed><course>306.078644</course><hAcc>0.888748</hAcc><vAcc>0.715245</vAcc></extensions></trkpt>
      <trkpt lon="-4.129940" lat="53.006737"><ele>421.891846</ele><time>2021-07-17T09:54:41Z</time><extensions><speed>0.544153</speed><course>302.099213</course><hAcc>0.888745</hAcc><vAcc>0.715252</vAcc></extensions></trkpt>
      <trkpt lon="-4.129943" lat="53.006733"><ele>422.039825</ele><time>2021-07-17T09:54:42Z</time><extensions><speed>0.520426</speed><course>298.253754</course><hAcc>0.888752</hAcc><vAcc>0.715285</vAcc></extensions></trkpt>
      <trkpt lon="-4.129945" lat="53.006728"><ele>422.190765</ele><time>2021-07-17T09:54:43Z</time><extensions><speed>0.497612</speed><course>299.772583</course><hAcc>0.888768</hAcc><vAcc>0.715342</vAcc></extensions></trkpt>
      <trkpt lon="-4.129948" lat="53.006724"><ele>422.345459</ele><time>2021-07-17T09:54:44Z</time><extensions><speed>0.476892</speed><course>299.946075</course><hAcc>0.888792</hAcc><vAcc>0.715425</vAcc></extensions></trkpt>
      <trkpt lon="-4.129951" lat="53.006721"><ele>422.504425</ele><time>2021-07-17T09:54:45Z</time><extensions><speed>0.459080</speed><course>303.968170</course><hAcc>0.888823</hAcc><vAcc>0.715532</vAcc></extensions></trkpt>
      <trkpt lon="-4.129954" lat="53.006717"><ele>422.668030</ele><time>2021-07-17T09:54:46Z</time><extensions><speed>0.444566</speed><course>302.223755</course><hAcc>0.888859</hAcc><vAcc>0.715659</vAcc></extensions></trkpt>
      <trkpt lon="-4.129957" lat="53.006713"><ele>422.836334</ele><time>2021-07-17T09:54:47Z</time><extensions><speed>0.433251</speed><course>303.590851</course><hAcc>0.888901</hAcc><vAcc>0.715802</vAcc></extensions></trkpt>
      <trkpt lon="-4.129961" lat="53.006710"><ele>423.009094</ele><time>2021-07-17T09:54:48Z</time><extensions><speed>0.424786</speed><course>302.656281</course><hAcc>0.888948</hAcc><vAcc>0.715957</vAcc></extensions></trkpt>
      <trkpt lon="-4.129964" lat="53.006707"><ele>423.185547</ele><time>2021-07-17T09:54:49Z</time><extensions><speed>0.418702</speed><course>307.857574</course><hAcc>0.889001</hAcc><vAcc>0.716122</vAcc></extensions></trkpt>
      <trkpt lon="-4.129968" lat="53.006704"><ele>423.364807</ele><time>2021-07-17T09:54:50Z</time><extensions><speed>0.414581</speed><course>306.241272</course><hAcc>0.889059</hAcc><vAcc>0.716296</vAcc></extensions></trkpt>
      <trkpt lon="-4.129973" lat="53.006702"><ele>423.545563</ele><time>2021-07-17T09:54:51Z</time><extensions><speed>0.411997</speed><course>302.560516</course><hAcc>0.889123</hAcc><vAcc>0.716480</vAcc></extensions></trkpt>
      <trkpt lon="-4.129977" lat="53.006699"><ele>423.726471</ele><time>2021-07-17T09:54:52Z</time><extensions><speed>0.410413</speed><course>304.207947</course><hAcc>0.889193</hAcc><vAcc>0.716677</vAcc></extensions></trkpt>
      <trkpt lon="-4.129982" lat="53.006697"><ele>423.906158</ele><time>2021-07-17T09:54:53Z</time><extensions><speed>0.409510</speed><course>304.678192</course><hAcc>0.889269</hAcc><vAcc>0.716894</vAcc></extensions></trkpt>
      <trkpt lon="-4.129987" lat="53.006695"><ele>424.083679</ele><time>2021-07-17T09:54:54Z</time><extensions><speed>0.409525</speed><course>300.816559</course><hAcc>0.889350</hAcc><vAcc>0.717136</vAcc></extensions></trkpt>
      <trkpt lon="-4.129993" lat="53.006693"><ele>424.258423</ele><time>2021-07-17T09:54:55Z</time><extensions><speed>0.410229</speed><course>302.457642</course><hAcc>0.889435</hAcc><vAcc>0.717411</vAcc></extensions></trkpt>
      <trkpt lon="-4.129998" lat="53.006691"><ele>424.429871</ele><time>2021-07-17T09:54:56Z</time><extensions><speed>0.410421</speed><course>303.405792</course><hAcc>0.889523</hAcc><vAcc>0.717717</vAcc></extensions></trkpt>
      <trkpt lon="-4.130004" lat="53.006690"><ele>424.597473</ele><time>2021-07-17T09:54:57Z</time><extensions><speed>0.409051</speed><course>305.179382</course><hAcc>0.889610</hAcc><vAcc>0.718047</vAcc></extensions></trkpt>
      <trkpt lon="-4.130009" lat="53.006689"><ele>424.760712</ele><time>2021-07-17T09:54:58Z</time><extensions><speed>0.405504</speed><course>301.811188</course><hAcc>0.889695</hAcc><vAcc>0.718385</vAcc></extensions></trkpt>
      <trkpt lon="-4.130015" lat="53.006687"><ele>424.919312</ele><time>2021-07-17T09:54:59Z</time><extensions><speed>0.399341</speed><course>294.111877</course><hAcc>0.889775</hAcc><vAcc>0.718711</vAcc></extensions></trkpt>
      <trkpt lon="-4.130020" lat="53.006686"><ele>425.073029</ele><time>2021-07-17T09:55:00Z</time><extensions><speed>0.390317</speed><course>291.186249</course><hAcc>0.889847</hAcc><vAcc>0.719004</vAcc></extensions></trkpt>
      <trkpt lon="-4.130026" lat="53.006685"><ele>425.221741</ele><time>2021-07-17T09:55:01Z</time><extensions><speed>0.378455</speed><course>291.833313</course><hAcc>0.889909</hAcc><vAcc>0.719248</vAcc></extensions></trkpt>
      <trkpt lon="-4.130031" lat="53.006684"><ele>425.365570</ele><time>2021-07-17T09:55:02Z</time><extensions><speed>0.364353</speed><course>293.198639</course><hAcc>0.889958</hAcc><vAcc>0.719431</vAcc></extensions></trkpt>
      <trkpt lon="-4.130036" lat="53.006683"><ele>425.504730</ele><time>2021-07-17T09:55:03Z</time><extensions><speed>0.349444</speed><course>297.953094</course><hAcc>0.889995</hAcc><vAcc>0.719546</vAcc></extensions></trkpt>
      <trkpt lon="-4.130041" lat="53.006682"><ele>425.639496</ele><time>2021-07-17T09:55:04Z</time><extensions><speed>0.334897</speed><course>294.998413</course><hAcc>0.890018</hAcc><vAcc>0.719594</vAcc></extensions></trkpt>
      <trkpt lon="-4.130045" lat="53.006680"><ele>425.770325</ele><time>2021-07-17T09:55:05Z</time><extensions><speed>0.321930</speed><course>290.333923</course><hAcc>0.890031</hAcc><vAcc>0.719580</vAcc></extensions></trkpt>
      <trkpt lon="-4.130049" lat="53.006679"><ele>425.898010</ele><time>2021-07-17T09:55:06Z</time><extensions><speed>0.312206</speed><course>297.336884</course><hAcc>0.890033</hAcc><vAcc>0.719517</vAcc></extensions></trkpt>
      <trkpt lon="-4.130053" lat="53.006678"><ele>426.023621</ele><time>2021-07-17T09:55:07Z</time><extensions><speed>0.306943</speed><course>291.763641</course><hAcc>0.890029</hAcc><vAcc>0.719424</vAcc></extensions></trkpt>
      <trkpt lon="-4.130057" lat="53.006677"><ele>426.148254</ele><time>2021-07-17T09:55:08Z</time><extensions><speed>0.306507</speed><course>293.588959</course><hAcc>0.890021</hAcc><vAcc>0.719323</vAcc></extensions></trkpt>
      <trkpt lon="-4.130061" lat="53.006675"><ele>426.272888</ele><time>2021-07-17T09:55:09Z</time><extensions><speed>0.310190</speed><course>298.534668</course><hAcc>0.890010</hAcc><vAcc>0.719233</vAcc></extensions></trkpt>
      <trkpt lon="-4.130065" lat="53.006674"><ele>426.398224</ele><time>2021-07-17T09:55:10Z</time><extensions><speed>0.316722</speed><course>294.834351</course><hAcc>0.889999</hAcc><vAcc>0.719171</vAcc></extensions></trkpt>
      <trkpt lon="-4.130069" lat="53.006672"><ele>426.524628</ele><time>2021-07-17T09:55:11Z</time><extensions><speed>0.324943</speed><course>297.698059</course><hAcc>0.889989</hAcc><vAcc>0.719142</vAcc></extensions></trkpt>
      <trkpt lon="-4.130073" lat="53.006670"><ele>426.652283</ele><time>2021-07-17T09:55:12Z</time><extensions><speed>0.334352</speed><course>298.511444</course><hAcc>0.889980</hAcc><vAcc>0.719144</vAcc></extensions></trkpt>
      <trkpt lon="-4.130077" lat="53.006668"><ele>426.781067</ele><time>2021-07-17T09:55:13Z</time><extensions><speed>0.344618</speed><course>303.054443</course><hAcc>0.889972</hAcc><vAcc>0.719169</vAcc></extensions></trkpt>
      <trkpt lon="-4.130081" lat="53.006667"><ele>426.910767</ele><time>2021-07-17T09:55:14Z</time><extensions><speed>0.355151</speed><course>300.594757</course><hAcc>0.889962</hAcc><vAcc>0.719204</vAcc></extensions></trkpt>
      <trkpt lon="-4.130086" lat="53.006665"><ele>427.040985</ele><time>2021-07-17T09:55:15Z</time><extensions><speed>0.365302</speed><course>303.489990</course><hAcc>0.889949</hAcc><vAcc>0.719233</vAcc></extensions></trkpt>
      <trkpt lon="-4.130090" lat="53.006663"><ele>427.171234</ele><time>2021-07-17T09:55:16Z</time><extensions><speed>0.374326</speed><course>307.296783</course><hAcc>0.889930</hAcc><vAcc>0.719238</vAcc></extensions></trkpt>
      <trkpt lon="-4.130095" lat="53.006660"><ele>427.301025</ele><time>2021-07-17T09:55:17Z</time><extensions><speed>0.381326</speed><course>306.846466</course><hAcc>0.889903</hAcc><vAcc>0.719203</vAcc></extensions></trkpt>
      <trkpt lon="-4.130099" lat="53.006658"><ele>427.429596</ele><time>2021-07-17T09:55:18Z</time><extensions><speed>0.385832</speed><course>314.303711</course><hAcc>0.889866</hAcc><vAcc>0.719113</vAcc></extensions></trkpt>
      <trkpt lon="-4.130103" lat="53.006656"><ele>427.556305</ele><time>2021-07-17T09:55:19Z</time><extensions><speed>0.388046</speed><course>316.753265</course><hAcc>0.889820</hAcc><vAcc>0.718961</vAcc></extensions></trkpt>
      <trkpt lon="-4.130108" lat="53.006654"><ele>427.680756</ele><time>2021-07-17T09:55:20Z</time><extensions><speed>0.388458</speed><course>312.101562</course><hAcc>0.889763</hAcc><vAcc>0.718746</vAcc></extensions></trkpt>
      <trkpt lon="-4.130112" lat="53.006651"><ele>427.803040</ele><time>2021-07-17T09:55:21Z</time><extensions><speed>0.387555</speed><course>310.983948</course><hAcc>0.889697</hAcc><vAcc>0.718479</vAcc></extensions></trkpt>
      <trkpt lon="-4.130116" lat="53.006649"><ele>427.923157</ele><time>2021-07-17T09:55:22Z</time><extensions><speed>0.385941</speed><course>316.824890</course><hAcc>0.889623</hAcc><vAcc>0.718177</vAcc></extensions></trkpt>
      <trkpt lon="-4.130120" lat="53.006646"><ele>428.040985</ele><time>2021-07-17T09:55:23Z</time><extensions><speed>0.383965</speed><course>324.005005</course><hAcc>0.889542</hAcc><vAcc>0.717860</vAcc></extensions></trkpt>
      <trkpt lon="-4.130123" lat="53.006644"><ele>428.156342</ele><time>2021-07-17T09:55:24Z</time><extensions><speed>0.381290</speed><course>322.091736</course><hAcc>0.889457</hAcc><vAcc>0.717545</vAcc></extensions></trkpt>
      <trkpt lon="-4.130127" lat="53.006641"><ele>428.268890</ele><time>2021-07-17T09:55:25Z</time><extensions><speed>0.377122</speed><course>322.830170</course><hAcc>0.889370</hAcc><vAcc>0.717243</vAcc></extensions></trkpt>
      <trkpt lon="-4.130130" lat="53.006638"><ele>428.378235</ele><time>2021-07-17T09:55:26Z</time><extensions><speed>0.371244</speed><course>325.823517</course><hAcc>0.889284</hAcc><vAcc>0.716961</vAcc></extensions></trkpt>
      <trkpt lon="-4.130134" lat="53.006636"><ele>428.484070</ele><time>2021-07-17T09:55:27Z</time><extensions><speed>0.364156</speed><course>331.853210</course><hAcc>0.889202</hAcc><vAcc>0.716700</vAcc></extensions></trkpt>
      <trkpt lon="-4.130137" lat="53.006633"><ele>428.585999</ele><time>2021-07-17T09:55:28Z</time><extensions><speed>0.356178</speed><course>331.260956</course><hAcc>0.889125</hAcc><vAcc>0.716461</vAcc></extensions></trkpt>
      <trkpt lon="-4.130140" lat="53.006630"><ele>428.683777</ele><time>2021-07-17T09:55:29Z</time><extensions><speed>0.347699</speed><course>329.072571</course><hAcc>0.889056</hAcc><vAcc>0.716244</vAcc></extensions></trkpt>
      <trkpt lon="-4.130142" lat="53.006628"><ele>428.777435</ele><time>2021-07-17T09:55:30Z</time><extensions><speed>0.338932</speed><course>325.473938</course><hAcc>0.888995</hAcc><vAcc>0.716051</vAcc></extensions></trkpt>
      <trkpt lon="-4.130145" lat="53.006625"><ele>428.867279</ele><time>2021-07-17T09:55:31Z</time><extensions><speed>0.329571</speed><course>325.383026</course><hAcc>0.888945</hAcc><vAcc>0.715882</vAcc></extensions></trkpt>
      <trkpt lon="-4.130147" lat="53.006623"><ele>428.953491</ele><time>2021-07-17T09:55:32Z</time><extensions><speed>0.319052</speed><course>325.061401</course><hAcc>0.888907</hAcc><vAcc>0.715743</vAcc></extensions></trkpt>
      <trkpt lon="-4.130149" lat="53.006620"><ele>429.036316</ele><time>2021-07-17T09:55:33Z</time><extensions><speed>0.307230</speed><course>325.207275</course><hAcc>0.888882</hAcc><vAcc>0.715640</vAcc></extensions></trkpt>
      <trkpt lon="-4.130151" lat="53.006618"><ele>429.115967</ele><time>2021-07-17T09:55:34Z</time><extensions><speed>0.294838</speed><course>322.410889</course><hAcc>0.888870</hAcc><vAcc>0.715580</vAcc></extensions></trkpt>
      <trkpt lon="-4.130153" lat="53.006615"><ele>429.192963</ele><time>2021-07-17T09:55:35Z</time><extensions><speed>0.282839</speed><course>319.218658</course><hAcc>0.888874</hAcc><vAcc>0.715572</vAcc></extensions></trkpt>
      <trkpt lon="-4.130155" lat="53.006613"><ele>429.268005</ele><time>2021-07-17T09:55:36Z</time><extensions><speed>0.271527</speed><course>319.790588</course><hAcc>0.888893</hAcc><vAcc>0.715621</vAcc></extensions></trkpt>
      <trkpt lon="-4.130156" lat="53.006611"><ele>429.341827</ele><time>2021-07-17T09:55:37Z</time><extensions><speed>0.260670</speed><course>318.972229</course><hAcc>0.888929</hAcc><vAcc>0.715727</vAcc></extensions></trkpt>
      <trkpt lon="-4.130158" lat="53.006609"><ele>429.415131</ele><time>2021-07-17T09:55:38Z</time><extensions><speed>0.250211</speed><course>320.354065</course><hAcc>0.888981</hAcc><vAcc>0.715890</vAcc></extensions></trkpt>
      <trkpt lon="-4.130159" lat="53.006607"><ele>429.488495</ele><time>2021-07-17T09:55:39Z</time><extensions><speed>0.240406</speed><course>320.541016</course><hAcc>0.889049</hAcc><vAcc>0.716109</vAcc></extensions></trkpt>
      <trkpt lon="-4.130161" lat="53.006605"><ele>429.562531</ele><time>2021-07-17T09:55:40Z</time><extensions><speed>0.231736</speed><course>317.906189</course><hAcc>0.889131</hAcc><vAcc>0.716382</vAcc></extensions></trkpt>
      <trkpt lon="-4.130162" lat="53.006603"><ele>429.637909</ele><time>2021-07-17T09:55:41Z</time><extensions><speed>0.224865</speed><course>316.077393</course><hAcc>0.889226</hAcc><vAcc>0.716706</vAcc></extensions></trkpt>
      <trkpt lon="-4.130164" lat="53.006601"><ele>429.715393</ele><time>2021-07-17T09:55:42Z</time><extensions><speed>0.220597</speed><course>307.356537</course><hAcc>0.889330</hAcc><vAcc>0.717071</vAcc></extensions></trkpt>
      <trkpt lon="-4.130166" lat="53.006600"><ele>429.795929</ele><time>2021-07-17T09:55:43Z</time><extensions><speed>0.219673</speed><course>302.004150</course><hAcc>0.889443</hAcc><vAcc>0.717464</vAcc></extensions></trkpt>
      <trkpt lon="-4.130168" lat="53.006598"><ele>429.880463</ele><time>2021-07-17T09:55:44Z</time><extensions><speed>0.222440</speed><course>310.520874</course><hAcc>0.889561</hAcc><vAcc>0.717867</vAcc></extensions></trkpt>
      <trkpt lon="-4.130170" lat="53.006596"><ele>429.969910</ele><time>2021-07-17T09:55:45Z</time><extensions><speed>0.229101</speed><course>307.778412</course><hAcc>0.889681</hAcc><vAcc>0.718265</vAcc></extensions></trkpt>
      <trkpt lon="-4.130172" lat="53.006595"><ele>430.065155</ele><time>2021-07-17T09:55:46Z</time><extensions><speed>0.239852</speed><course>310.132080</course><hAcc>0.889782</hAcc><vAcc>0.718630</vAcc></extensions></trkpt>
      <trkpt lon="-4.130175" lat="53.006593"><ele>430.166718</ele><time>2021-07-17T09:55:47Z</time><extensions><speed>0.254390</speed><course>310.327301</course><hAcc>0.889861</hAcc><vAcc>0.718951</vAcc></extensions></trkpt>
      <trkpt lon="-4.130177" lat="53.006592"><ele>430.275269</ele><time>2021-07-17T09:55:48Z</time><extensions><speed>0.272089</speed><course>308.925873</course><hAcc>0.889931</hAcc><vAcc>0.719231</vAcc></extensions></trkpt>
      <trkpt lon="-4.130180" lat="53.006590"><ele>430.391296</ele><time>2021-07-17T09:55:49Z</time><extensions><speed>0.292065</speed><course>308.955322</course><hAcc>0.889987</hAcc><vAcc>0.719464</vAcc></extensions></trkpt>
      <trkpt lon="-4.130184" lat="53.006588"><ele>430.515045</ele><time>2021-07-17T09:55:50Z</time><extensions><speed>0.313120</speed><course>303.152588</course><hAcc>0.890024</hAcc><vAcc>0.719645</vAcc></extensions></trkpt>
      <trkpt lon="-4.130187" lat="53.006586"><ele>430.646423</ele><time>2021-07-17T09:55:51Z</time><extensions><speed>0.334088</speed><course>313.156525</course><hAcc>0.890040</hAcc><vAcc>0.719769</vAcc></extensions></trkpt>
      <trkpt lon="-4.130190" lat="53.006583"><ele>430.784882</ele><time>2021-07-17T09:55:52Z</time><extensions><speed>0.354162</speed><course>307.864197</course><hAcc>0.890030</hAcc><vAcc>0.719830</vAcc></extensions></trkpt>
      <trkpt lon="-4.130194" lat="53.006581"><ele>430.929138</ele><time>2021-07-17T09:55:52Z</time><extensions><speed>0.372516</speed><course>309.541687</course><hAcc>0.890027</hAcc><vAcc>0.719848</vAcc></extensions></trkpt>
      <trkpt lon="-4.130197" lat="53.006578"><ele>431.078247</ele><time>2021-07-17T09:55:53Z</time><extensions><speed>0.388676</speed><course>312.130341</course><hAcc>0.890032</hAcc><vAcc>0.719818</vAcc></extensions></trkpt>
      <trkpt lon="-4.130200" lat="53.006575"><ele>431.229950</ele><time>2021-07-17T09:55:54Z</time><extensions><speed>0.402864</speed><course>310.268982</course><hAcc>0.890011</hAcc><vAcc>0.719710</vAcc></extensions></trkpt>
      <trkpt lon="-4.130203" lat="53.006572"><ele>431.382477</ele><time>2021-07-17T09:55:56Z</time><extensions><speed>0.415700</speed><course>308.247070</course><hAcc>0.889948</hAcc><vAcc>0.719506</vAcc></extensions></trkpt>
      <trkpt lon="-4.130205" lat="53.006568"><ele>431.533478</ele><time>2021-07-17T09:55:56Z</time><extensions><speed>0.427269</speed><course>304.229858</course><hAcc>0.889868</hAcc><vAcc>0.719219</vAcc></extensions></trkpt>
      <trkpt lon="-4.130207" lat="53.006565"><ele>431.681946</ele><time>2021-07-17T09:55:58Z</time><extensions><speed>0.437600</speed><course>308.310059</course><hAcc>0.889774</hAcc><vAcc>0.718857</vAcc></extensions></trkpt>
      <trkpt lon="-4.130209" lat="53.006561"><ele>431.825867</ele><time>2021-07-17T09:55:58Z</time><extensions><speed>0.446741</speed><course>311.142822</course><hAcc>0.889672</hAcc><vAcc>0.718441</vAcc></extensions></trkpt>
      <trkpt lon="-4.130211" lat="53.006557"><ele>431.965240</ele><time>2021-07-17T09:56:00Z</time><extensions><speed>0.454511</speed><course>305.518036</course><hAcc>0.889567</hAcc><vAcc>0.718001</vAcc></extensions></trkpt>
      <trkpt lon="-4.130213" lat="53.006553"><ele>432.099701</ele><time>2021-07-17T09:56:00Z</time><extensions><speed>0.460216</speed><course>303.061462</course><hAcc>0.889464</hAcc><vAcc>0.717573</vAcc></extensions></trkpt>
      <trkpt lon="-4.130214" lat="53.006549"><ele>432.230286</ele><time>2021-07-17T09:56:01Z</time><extensions><speed>0.463899</speed><course>298.232086</course><hAcc>0.889388</hAcc><vAcc>0.717200</vAcc></extensions></trkpt>
      <trkpt lon="-4.130216" lat="53.006545"><ele>432.357880</ele><time>2021-07-17T09:56:02Z</time><extensions><speed>0.466009</speed><course>289.358276</course><hAcc>0.889325</hAcc><vAcc>0.716900</vAcc></extensions></trkpt>
      <trkpt lon="-4.130218" lat="53.006541"><ele>432.483673</ele><time>2021-07-17T09:56:03Z</time><extensions><speed>0.467269</speed><course>285.924469</course><hAcc>0.889280</hAcc><vAcc>0.716697</vAcc></extensions></trkpt>
      <trkpt lon="-4.130221" lat="53.006537"><ele>432.608887</ele><time>2021-07-17T09:56:04Z</time><extensions><speed>0.468515</speed><course>280.520447</course><hAcc>0.889255</hAcc><vAcc>0.716605</vAcc></extensions></trkpt>
      <trkpt lon="-4.130224" lat="53.006533"><ele>432.734619</ele><time>2021-07-17T09:56:05Z</time><extensions><speed>0.470334</speed><course>286.862061</course><hAcc>0.889249</hAcc><vAcc>0.716627</vAcc></extensions></trkpt>
      <trkpt lon="-4.130227" lat="53.006529"><ele>432.861877</ele><time>2021-07-17T09:56:06Z</time><extensions><speed>0.472977</speed><course>295.700317</course><hAcc>0.889261</hAcc><vAcc>0.716751</vAcc></extensions></trkpt>
      <trkpt lon="-4.130230" lat="53.006526"><ele>432.991486</ele><time>2021-07-17T09:56:07Z</time><extensions><speed>0.476332</speed><course>296.161560</course><hAcc>0.889288</hAcc><vAcc>0.716953</vAcc></extensions></trkpt>
      <trkpt lon="-4.130234" lat="53.006522"><ele>433.123962</ele><time>2021-07-17T09:56:08Z</time><extensions><speed>0.479849</speed><course>298.229218</course><hAcc>0.889325</hAcc><vAcc>0.717198</vAcc></extensions></trkpt>
      <trkpt lon="-4.130238" lat="53.006518"><ele>433.259460</ele><time>2021-07-17T09:56:09Z</time><extensions><speed>0.482659</speed><course>297.545471</course><hAcc>0.889369</hAcc><vAcc>0.717450</vAcc></extensions></trkpt>
      <trkpt lon="-4.130242" lat="53.006515"><ele>433.397919</ele><time>2021-07-17T09:56:10Z</time><extensions><speed>0.483978</speed><course>292.454163</course><hAcc>0.889414</hAcc><vAcc>0.717674</vAcc></extensions></trkpt>
      <trkpt lon="-4.130247" lat="53.006511"><ele>433.539032</ele><time>2021-07-17T09:56:11Z</time><extensions><speed>0.483593</speed><course>287.195465</course><hAcc>0.889457</hAcc><vAcc>0.717846</vAcc></extensions></trkpt>
      <trkpt lon="-4.130251" lat="53.006508"><ele>433.682526</ele><time>2021-07-17T09:56:12Z</time><extensions><speed>0.481994</speed><course>283.339600</course><hAcc>0.889495</hAcc><vAcc>0.717955</vAcc></extensions></trkpt>
      <trkpt lon="-4.130255" lat="53.006505"><ele>433.828003</ele><time>2021-07-17T09:56:13Z</time><extensions><speed>0.479851</speed><course>283.687531</course><hAcc>0.889527</hAcc><vAcc>0.718001</vAcc></extensions></trkpt>
      <trkpt lon="-4.130260" lat="53.006501"><ele>433.975159</ele><time>2021-07-17T09:56:14Z</time><extensions><speed>0.477726</speed><course>284.089417</course><hAcc>0.889552</hAcc><vAcc>0.718000</vAcc></extensions></trkpt>
      <trkpt lon="-4.130264" lat="53.006498"><ele>434.123596</ele><time>2021-07-17T09:56:15Z</time><extensions><speed>0.476189</speed><course>286.432800</course><hAcc>0.889570</hAcc><vAcc>0.717972</vAcc></extensions></trkpt>
      <trkpt lon="-4.130269" lat="53.006494"><ele>434.273132</ele><time>2021-07-17T09:56:16Z</time><extensions><speed>0.475230</speed><course>288.844025</course><hAcc>0.889583</hAcc><vAcc>0.717942</vAcc></extensions></trkpt>
      <trkpt lon="-4.130273" lat="53.006491"><ele>434.423553</ele><time>2021-07-17T09:56:17Z</time><extensions><speed>0.474282</speed><course>294.600861</course><hAcc>0.889592</hAcc><vAcc>0.717929</vAcc></extensions></trkpt>
      <trkpt lon="-4.130277" lat="53.006488"><ele>434.574829</ele><time>2021-07-17T09:56:18Z</time><extensions><speed>0.473129</speed><course>289.399475</course><hAcc>0.889600</hAcc><vAcc>0.717943</vAcc></extensions></trkpt>
      <trkpt lon="-4.130281" lat="53.006484"><ele>434.726898</ele><time>2021-07-17T09:56:19Z</time><extensions><speed>0.471855</speed><course>292.462738</course><hAcc>0.889608</hAcc><vAcc>0.717981</vAcc></extensions></trkpt>
      <trkpt lon="-4.130286" lat="53.006481"><ele>434.879578</ele><time>2021-07-17T09:56:20Z</time><extensions><speed>0.470687</speed><course>292.044128</course><hAcc>0.889617</hAcc><vAcc>0.718038</vAcc></extensions></trkpt>
      <trkpt lon="-4.130290" lat="53.006478"><ele>435.032654</ele><time>2021-07-17T09:56:21Z</time><extensions><speed>0.469959</speed><course>289.426849</course><hAcc>0.889628</hAcc><vAcc>0.718105</vAcc></extensions></trkpt>
      <trkpt lon="-4.130294" lat="53.006474"><ele>435.186066</ele><time>2021-07-17T09:56:22Z</time><extensions><speed>0.469983</speed><course>292.821838</course><hAcc>0.889641</hAcc><vAcc>0.718173</vAcc></extensions></trkpt>
      <trkpt lon="-4.130298" lat="53.006471"><ele>435.339661</ele><time>2021-07-17T09:56:23Z</time><extensions><speed>0.470402</speed><course>287.405121</course><hAcc>0.889653</hAcc><vAcc>0.718235</vAcc></extensions></trkpt>
      <trkpt lon="-4.130302" lat="53.006467"><ele>435.493164</ele><time>2021-07-17T09:56:24Z</time><extensions><speed>0.469943</speed><course>289.328461</course><hAcc>0.889664</hAcc><vAcc>0.718285</vAcc></extensions></trkpt>
      <trkpt lon="-4.130307" lat="53.006464"><ele>435.646088</ele><time>2021-07-17T09:56:25Z</time><extensions><speed>0.467702</speed><course>290.686554</course><hAcc>0.889669</hAcc><vAcc>0.718320</vAcc></extensions></trkpt>
      <trkpt lon="-4.130311" lat="53.006461"><ele>435.797882</ele><time>2021-07-17T09:56:26Z</time><extensions><speed>0.463544</speed><course>291.519623</course><hAcc>0.889668</hAcc><vAcc>0.718333</vAcc></extensions></trkpt>
      <trkpt lon="-4.130314" lat="53.006457"><ele>435.948120</ele><time>2021-07-17T09:56:27Z</time><extensions><speed>0.457268</speed><course>289.260345</course><hAcc>0.889657</hAcc><vAcc>0.718319</vAcc></extensions></trkpt>
      <trkpt lon="-4.130318" lat="53.006454"><ele>436.096497</ele><time>2021-07-17T09:56:28Z</time><extensions><speed>0.448642</speed><course>291.671295</course><hAcc>0.889634</hAcc><vAcc>0.718270</vAcc></extensions></trkpt>
      <trkpt lon="-4.130322" lat="53.006450"><ele>436.242859</ele><time>2021-07-17T09:56:29Z</time><extensions><speed>0.437639</speed><course>285.797272</course><hAcc>0.889596</hAcc><vAcc>0.718180</vAcc></extensions></trkpt>
      <trkpt lon="-4.130325" lat="53.006447"><ele>436.387085</ele><time>2021-07-17T09:56:30Z</time><extensions><speed>0.424289</speed><course>284.045776</course><hAcc>0.889542</hAcc><vAcc>0.718041</vAcc></extensions></trkpt>
      <trkpt lon="-4.130328" lat="53.006444"><ele>436.528717</ele><time>2021-07-17T09:56:31Z</time><extensions><speed>0.408800</speed><course>290.744446</course><hAcc>0.889470</hAcc><vAcc>0.717843</vAcc></extensions></trkpt>
      <trkpt lon="-4.130330" lat="53.006440"><ele>436.667145</ele><time>2021-07-17T09:56:32Z</time><extensions><speed>0.391957</speed><course>286.155334</course><hAcc>0.889380</hAcc><vAcc>0.717579</vAcc></extensions></trkpt>
      <trkpt lon="-4.130333" lat="53.006437"><ele>436.801636</ele><time>2021-07-17T09:56:33Z</time><extensions><speed>0.375178</speed><course>292.078705</course><hAcc>0.889272</hAcc><vAcc>0.717242</vAcc></extensions></trkpt>
      <trkpt lon="-4.130334" lat="53.006434"><ele>436.931549</ele><time>2021-07-17T09:56:34Z</time><extensions><speed>0.359996</speed><course>292.906311</course><hAcc>0.889148</hAcc><vAcc>0.716830</vAcc></extensions></trkpt>
      <trkpt lon="-4.130335" lat="53.006431"><ele>437.056641</ele><time>2021-07-17T09:56:35Z</time><extensions><speed>0.347733</speed><course>291.462067</course><hAcc>0.889010</hAcc><vAcc>0.716353</vAcc></extensions></trkpt>
      <trkpt lon="-4.130336" lat="53.006428"><ele>437.176880</ele><time>2021-07-17T09:56:36Z</time><extensions><speed>0.338831</speed><course>290.448425</course><hAcc>0.888860</hAcc><vAcc>0.715824</vAcc></extensions></trkpt>
      <trkpt lon="-4.130336" lat="53.006425"><ele>437.292389</ele><time>2021-07-17T09:56:37Z</time><extensions><speed>0.333154</speed><course>295.857269</course><hAcc>0.888702</hAcc><vAcc>0.715264</vAcc></extensions></trkpt>
      <trkpt lon="-4.130336" lat="53.006422"><ele>437.403564</ele><time>2021-07-17T09:56:38Z</time><extensions><speed>0.330268</speed><course>298.185364</course><hAcc>0.888542</hAcc><vAcc>0.714693</vAcc></extensions></trkpt>
      <trkpt lon="-4.130336" lat="53.006419"><ele>437.511078</ele><time>2021-07-17T09:56:39Z</time><extensions><speed>0.329337</speed><course>294.469940</course><hAcc>0.888385</hAcc><vAcc>0.714128</vAcc></extensions></trkpt>
      <trkpt lon="-4.130336" lat="53.006416"><ele>437.615723</ele><time>2021-07-17T09:56:40Z</time><extensions><speed>0.329522</speed><course>292.898438</course><hAcc>0.888237</hAcc><vAcc>0.713587</vAcc></extensions></trkpt>
      <trkpt lon="-4.130335" lat="53.006413"><ele>437.718323</ele><time>2021-07-17T09:56:41Z</time><extensions><speed>0.330303</speed><course>292.422791</course><hAcc>0.888105</hAcc><vAcc>0.713089</vAcc></extensions></trkpt>
      <trkpt lon="-4.130335" lat="53.006410"><ele>437.819580</ele><time>2021-07-17T09:56:42Z</time><extensions><speed>0.331492</speed><course>292.622986</course><hAcc>0.887994</hAcc><vAcc>0.712656</vAcc></extensions></trkpt>
      <trkpt lon="-4.130334" lat="53.006407"><ele>437.920166</ele><time>2021-07-17T09:56:43Z</time><extensions><speed>0.333024</speed><course>292.749084</course><hAcc>0.887911</hAcc><vAcc>0.712312</vAcc></extensions></trkpt>
      <trkpt lon="-4.130334" lat="53.006404"><ele>438.020447</ele><time>2021-07-17T09:56:44Z</time><extensions><speed>0.334853</speed><course>294.832458</course><hAcc>0.887859</hAcc><vAcc>0.712084</vAcc></extensions></trkpt>
      <trkpt lon="-4.130334" lat="53.006401"><ele>438.120819</ele><time>2021-07-17T09:56:45Z</time><extensions><speed>0.336746</speed><course>290.563019</course><hAcc>0.887841</hAcc><vAcc>0.711991</vAcc></extensions></trkpt>
      <trkpt lon="-4.130334" lat="53.006398"><ele>438.221527</ele><time>2021-07-17T09:56:47Z</time><extensions><speed>0.338215</speed><course>288.082062</course><hAcc>0.887839</hAcc><vAcc>0.712024</vAcc></extensions></trkpt>
      <trkpt lon="-4.130334" lat="53.006395"><ele>438.322296</ele><time>2021-07-17T09:56:48Z</time><extensions><speed>0.338450</speed><course>289.238037</course><hAcc>0.887855</hAcc><vAcc>0.712167</vAcc></extensions></trkpt>
      <trkpt lon="-4.130335" lat="53.006392"><ele>438.422760</ele><time>2021-07-17T09:56:49Z</time><extensions><speed>0.336727</speed><course>289.037109</course><hAcc>0.887903</hAcc><vAcc>0.712408</vAcc></extensions></trkpt>
      <trkpt lon="-4.130336" lat="53.006389"><ele>438.522308</ele><time>2021-07-17T09:56:50Z</time><extensions><speed>0.332645</speed><course>291.884949</course><hAcc>0.887980</hAcc><vAcc>0.712721</vAcc></extensions></trkpt>
      <trkpt lon="-4.130337" lat="53.006386"><ele>438.620300</ele><time>2021-07-17T09:56:51Z</time><extensions><speed>0.326170</speed><course>287.567657</course><hAcc>0.888083</hAcc><vAcc>0.713087</vAcc></extensions></trkpt>
      <trkpt lon="-4.130339" lat="53.006384"><ele>438.716217</ele><time>2021-07-17T09:56:52Z</time><extensions><speed>0.317712</speed><course>291.768890</course><hAcc>0.888207</hAcc><vAcc>0.713499</vAcc></extensions></trkpt>
      <trkpt lon="-4.130340" lat="53.006381"><ele>438.809784</ele><time>2021-07-17T09:56:53Z</time><extensions><speed>0.307860</speed><course>296.126740</course><hAcc>0.888347</hAcc><vAcc>0.713957</vAcc></extensions></trkpt>
      <trkpt lon="-4.130342" lat="53.006378"><ele>438.901154</ele><time>2021-07-17T09:56:54Z</time><extensions><speed>0.297113</speed><course>297.059143</course><hAcc>0.888500</hAcc><vAcc>0.714463</vAcc></extensions></trkpt>
      <trkpt lon="-4.130344" lat="53.006376"><ele>438.990540</ele><time>2021-07-17T09:56:55Z</time><extensions><speed>0.285544</speed><course>303.696320</course><hAcc>0.888662</hAcc><vAcc>0.715011</vAcc></extensions></trkpt>
      <trkpt lon="-4.130346" lat="53.006374"><ele>439.078369</ele><time>2021-07-17T09:56:56Z</time><extensions><speed>0.273081</speed><course>307.460022</course><hAcc>0.888829</hAcc><vAcc>0.715588</vAcc></extensions></trkpt>
      <trkpt lon="-4.130348" lat="53.006372"><ele>439.164917</ele><time>2021-07-17T09:56:57Z</time><extensions><speed>0.259683</speed><course>302.094666</course><hAcc>0.888998</hAcc><vAcc>0.716174</vAcc></extensions></trkpt>
      <trkpt lon="-4.130350" lat="53.006370"><ele>439.250275</ele><time>2021-07-17T09:56:58Z</time><extensions><speed>0.245616</speed><course>294.763123</course><hAcc>0.889166</hAcc><vAcc>0.716751</vAcc></extensions></trkpt>
      <trkpt lon="-4.130352" lat="53.006368"><ele>439.334656</ele><time>2021-07-17T09:56:59Z</time><extensions><speed>0.231589</speed><course>292.310913</course><hAcc>0.889331</hAcc><vAcc>0.717304</vAcc></extensions></trkpt>
      <trkpt lon="-4.130355" lat="53.006367"><ele>439.418335</ele><time>2021-07-17T09:57:00Z</time><extensions><speed>0.218531</speed><course>286.252472</course><hAcc>0.889490</hAcc><vAcc>0.717824</vAcc></extensions></trkpt>
      <trkpt lon="-4.130357" lat="53.006366"><ele>439.501495</ele><time>2021-07-17T09:57:01Z</time><extensions><speed>0.207419</speed><course>277.085999</course><hAcc>0.889639</hAcc><vAcc>0.718305</vAcc></extensions></trkpt>
      <trkpt lon="-4.130359" lat="53.006364"><ele>439.583954</ele><time>2021-07-17T09:57:02Z</time><extensions><speed>0.199198</speed><course>269.880463</course><hAcc>0.889779</hAcc><vAcc>0.718744</vAcc></extensions></trkpt>
      <trkpt lon="-4.130362" lat="53.006363"><ele>439.665222</ele><time>2021-07-17T09:57:03Z</time><extensions><speed>0.194558</speed><course>256.014618</course><hAcc>0.889906</hAcc><vAcc>0.719140</vAcc></extensions></trkpt>
      <trkpt lon="-4.130364" lat="53.006362"><ele>439.744537</ele><time>2021-07-17T09:57:04Z</time><extensions><speed>0.193891</speed><course>250.524368</course><hAcc>0.890019</hAcc><vAcc>0.719493</vAcc></extensions></trkpt>
      <trkpt lon="-4.130367" lat="53.006362"><ele>439.820740</ele><time>2021-07-17T09:57:05Z</time><extensions><speed>0.197509</speed><course>237.491638</course><hAcc>0.890117</hAcc><vAcc>0.719803</vAcc></extensions></trkpt>
      <trkpt lon="-4.130370" lat="53.006361"><ele>439.893066</ele><time>2021-07-17T09:57:06Z</time><extensions><speed>0.205716</speed><course>231.976761</course><hAcc>0.890198</hAcc><vAcc>0.720068</vAcc></extensions></trkpt>
      <trkpt lon="-4.130373" lat="53.006361"><ele>439.961700</ele><time>2021-07-17T09:57:07Z</time><extensions><speed>0.217783</speed><course>228.504318</course><hAcc>0.890261</hAcc><vAcc>0.720285</vAcc></extensions></trkpt>
      <trkpt lon="-4.130376" lat="53.006361"><ele>440.027435</ele><time>2021-07-17T09:57:08Z</time><extensions><speed>0.231448</speed><course>227.577087</course><hAcc>0.890303</hAcc><vAcc>0.720446</vAcc></extensions></trkpt>
      <trkpt lon="-4.130380" lat="53.006360"><ele>440.091217</ele><time>2021-07-17T09:57:09Z</time><extensions><speed>0.244234</speed><course>219.513672</course><hAcc>0.890325</hAcc><vAcc>0.720546</vAcc></extensions></trkpt>
      <trkpt lon="-4.130383" lat="53.006360"><ele>440.153992</ele><time>2021-07-17T09:57:10Z</time><extensions><speed>0.254262</speed><course>224.903015</course><hAcc>0.890323</hAcc><vAcc>0.720576</vAcc></extensions></trkpt>
      <trkpt lon="-4.130387" lat="53.006360"><ele>440.216461</ele><time>2021-07-17T09:57:11Z</time><extensions><speed>0.260088</speed><course>222.390198</course><hAcc>0.890295</hAcc><vAcc>0.720530</vAcc></extensions></trkpt>
      <trkpt lon="-4.130391" lat="53.006360"><ele>440.279358</ele><time>2021-07-17T09:57:12Z</time><extensions><speed>0.260415</speed><course>223.313202</course><hAcc>0.890241</hAcc><vAcc>0.720400</vAcc></extensions></trkpt>
      <trkpt lon="-4.130395" lat="53.006360"><ele>440.343262</ele><time>2021-07-17T09:57:13Z</time><extensions><speed>0.254140</speed><course>224.045700</course><hAcc>0.890160</hAcc><vAcc>0.720177</vAcc></extensions></trkpt>
      <trkpt lon="-4.130398" lat="53.006360"><ele>440.408508</ele><time>2021-07-17T09:57:14Z</time><extensions><speed>0.240764</speed><course>224.975723</course><hAcc>0.890054</hAcc><vAcc>0.719857</vAcc></extensions></trkpt>
      <trkpt lon="-4.130402" lat="53.006360"><ele>440.475311</ele><time>2021-07-17T09:57:15Z</time><extensions><speed>0.220608</speed><course>226.513992</course><hAcc>0.889924</hAcc><vAcc>0.719436</vAcc></extensions></trkpt>
      <trkpt lon="-4.130405" lat="53.006360"><ele>440.543488</ele><time>2021-07-17T09:57:16Z</time><extensions><speed>0.195120</speed><course>227.291473</course><hAcc>0.889775</hAcc><vAcc>0.718917</vAcc></extensions></trkpt>
      <trkpt lon="-4.130407" lat="53.006359"><ele>440.612946</ele><time>2021-07-17T09:57:17Z</time><extensions><speed>0.167786</speed><course>231.833313</course><hAcc>0.889611</hAcc><vAcc>0.718312</vAcc></extensions></trkpt>
      <trkpt lon="-4.130410" lat="53.006359"><ele>440.683502</ele><time>2021-07-17T09:57:18Z</time><extensions><speed>0.143675</speed><course>230.421005</course><hAcc>0.889438</hAcc><vAcc>0.717649</vAcc></extensions></trkpt>
      <trkpt lon="-4.130411" lat="53.006358"><ele>440.755066</ele><time>2021-07-17T09:57:19Z</time><extensions><speed>0.128217</speed><course>235.980087</course><hAcc>0.889261</hAcc><vAcc>0.716964</vAcc></extensions></trkpt>
      <trkpt lon="-4.130412" lat="53.006357"><ele>440.827606</ele><time>2021-07-17T09:57:20Z</time><extensions><speed>0.125340</speed><course>243.213364</course><hAcc>0.889086</hAcc><vAcc>0.716297</vAcc></extensions></trkpt>
      <trkpt lon="-4.130413" lat="53.006356"><ele>440.900940</ele><time>2021-07-17T09:57:21Z</time><extensions><speed>0.133812</speed><course>253.165268</course><hAcc>0.888918</hAcc><vAcc>0.715681</vAcc></extensions></trkpt>
      <trkpt lon="-4.130413" lat="53.006354"><ele>440.974945</ele><time>2021-07-17T09:57:22Z</time><extensions><speed>0.148241</speed><course>266.505096</course><hAcc>0.888762</hAcc><vAcc>0.715141</vAcc></extensions></trkpt>
      <trkpt lon="-4.130412" lat="53.006353"><ele>441.049347</ele><time>2021-07-17T09:57:23Z</time><extensions><speed>0.163579</speed><course>267.255646</course><hAcc>0.888623</hAcc><vAcc>0.714688</vAcc></extensions></trkpt>
      <trkpt lon="-4.130412" lat="53.006352"><ele>441.124054</ele><time>2021-07-17T09:57:24Z</time><extensions><speed>0.177030</speed><course>271.176971</course><hAcc>0.888502</hAcc><vAcc>0.714323</vAcc></extensions></trkpt>
      <trkpt lon="-4.130412" lat="53.006350"><ele>441.199005</ele><time>2021-07-17T09:57:25Z</time><extensions><speed>0.187643</speed><course>283.145996</course><hAcc>0.888403</hAcc><vAcc>0.714035</vAcc></extensions></trkpt>
      <trkpt lon="-4.130411" lat="53.006348"><ele>441.274078</ele><time>2021-07-17T09:57:26Z</time><extensions><speed>0.195469</speed><course>291.499756</course><hAcc>0.888324</hAcc><vAcc>0.713814</vAcc></extensions></trkpt>
      <trkpt lon="-4.130411" lat="53.006347"><ele>441.349182</ele><time>2021-07-17T09:57:27Z</time><extensions><speed>0.201246</speed><course>295.960785</course><hAcc>0.888264</hAcc><vAcc>0.713651</vAcc></extensions></trkpt>
      <trkpt lon="-4.130410" lat="53.006345"><ele>441.424164</ele><time>2021-07-17T09:57:28Z</time><extensions><speed>0.206087</speed><course>298.309418</course><hAcc>0.888222</hAcc><vAcc>0.713544</vAcc></extensions></trkpt>
      <trkpt lon="-4.130411" lat="53.006343"><ele>441.498932</ele><time>2021-07-17T09:57:29Z</time><extensions><speed>0.210945</speed><course>301.442566</course><hAcc>0.888192</hAcc><vAcc>0.713490</vAcc></extensions></trkpt>
      <trkpt lon="-4.130411" lat="53.006341"><ele>441.573517</ele><time>2021-07-17T09:57:30Z</time><extensions><speed>0.216599</speed><course>301.820831</course><hAcc>0.888173</hAcc><vAcc>0.713479</vAcc></extensions></trkpt>
      <trkpt lon="-4.130412" lat="53.006339"><ele>441.648010</ele><time>2021-07-17T09:57:31Z</time><extensions><speed>0.223371</speed><course>306.533081</course><hAcc>0.888160</hAcc><vAcc>0.713494</vAcc></extensions></trkpt>
      <trkpt lon="-4.130413" lat="53.006337"><ele>441.722595</ele><time>2021-07-17T09:57:32Z</time><extensions><speed>0.230707</speed><course>310.759277</course><hAcc>0.888151</hAcc><vAcc>0.713512</vAcc></extensions></trkpt>
      <trkpt lon="-4.130414" lat="53.006335"><ele>441.797302</ele><time>2021-07-17T09:57:33Z</time><extensions><speed>0.237581</speed><course>315.721252</course><hAcc>0.888143</hAcc><vAcc>0.713514</vAcc></extensions></trkpt>
      <trkpt lon="-4.130415" lat="53.006333"><ele>441.872009</ele><time>2021-07-17T09:57:34Z</time><extensions><speed>0.243194</speed><course>321.376434</course><hAcc>0.888135</hAcc><vAcc>0.713489</vAcc></extensions></trkpt>
      <trkpt lon="-4.130416" lat="53.006331"><ele>441.946503</ele><time>2021-07-17T09:57:35Z</time><extensions><speed>0.247212</speed><course>321.893402</course><hAcc>0.888125</hAcc><vAcc>0.713435</vAcc></extensions></trkpt>
      <trkpt lon="-4.130417" lat="53.006329"><ele>442.020447</ele><time>2021-07-17T09:57:36Z</time><extensions><speed>0.249752</speed><course>325.867676</course><hAcc>0.888113</hAcc><vAcc>0.713359</vAcc></extensions></trkpt>
      <trkpt lon="-4.130418" lat="53.006327"><ele>442.093384</ele><time>2021-07-17T09:57:37Z</time><extensions><speed>0.251122</speed><course>319.975250</course><hAcc>0.888098</hAcc><vAcc>0.713276</vAcc></extensions></trkpt>
      <trkpt lon="-4.130419" lat="53.006324"><ele>442.164764</ele><time>2021-07-17T09:57:38Z</time><extensions><speed>0.251539</speed><course>320.826599</course><hAcc>0.888080</hAcc><vAcc>0.713200</vAcc></extensions></trkpt>
      <trkpt lon="-4.130419" lat="53.006322"><ele>442.233978</ele><time>2021-07-17T09:57:39Z</time><extensions><speed>0.251278</speed><course>320.826599</course><hAcc>0.888060</hAcc><vAcc>0.713138</vAcc></extensions></trkpt>
      <trkpt lon="-4.130420" lat="53.006320"><ele>442.300385</ele><time>2021-07-17T09:57:40Z</time><extensions><speed>0.250968</speed><course>320.826599</course><hAcc>0.888038</hAcc><vAcc>0.713088</vAcc></extensions></trkpt>
      <trkpt lon="-4.130420" lat="53.006318"><ele>442.363281</ele><time>2021-07-17T09:57:41Z</time><extensions><speed>0.251323</speed><course>320.826599</course><hAcc>0.888018</hAcc><vAcc>0.713043</vAcc></extensions></trkpt>
      <trkpt lon="-4.130419" lat="53.006315"><ele>442.422180</ele><time>2021-07-17T09:57:42Z</time><extensions><speed>0.252830</speed><course>320.826599</course><hAcc>0.887999</hAcc><vAcc>0.713000</vAcc></extensions></trkpt>
      <trkpt lon="-4.130418" lat="53.006313"><ele>442.476746</ele><time>2021-07-17T09:57:43Z</time><extensions><speed>0.255368</speed><course>320.826599</course><hAcc>0.887986</hAcc><vAcc>0.712955</vAcc></extensions></trkpt>
      <trkpt lon="-4.130417" lat="53.006311"><ele>442.527039</ele><time>2021-07-17T09:57:44Z</time><extensions><speed>0.258227</speed><course>320.826599</course><hAcc>0.887981</hAcc><vAcc>0.712911</vAcc></extensions></trkpt>
      <trkpt lon="-4.130416" lat="53.006309"><ele>442.573212</ele><time>2021-07-17T09:57:45Z</time><extensions><speed>0.260366</speed><course>320.826599</course><hAcc>0.887988</hAcc><vAcc>0.712876</vAcc></extensions></trkpt>
      <trkpt lon="-4.130414" lat="53.006307"><ele>442.615509</ele><time>2021-07-17T09:57:46Z</time><extensions><speed>0.260703</speed><course>320.826599</course><hAcc>0.888009</hAcc><vAcc>0.712871</vAcc></extensions></trkpt>
      <trkpt lon="-4.130412" lat="53.006305"><ele>442.654144</ele><time>2021-07-17T09:57:47Z</time><extensions><speed>0.258383</speed><course>320.826599</course><hAcc>0.888049</hAcc><vAcc>0.712921</vAcc></extensions></trkpt>
      <trkpt lon="-4.130410" lat="53.006303"><ele>442.689362</ele><time>2021-07-17T09:57:48Z</time><extensions><speed>0.252905</speed><course>320.826599</course><hAcc>0.888111</hAcc><vAcc>0.713048</vAcc></extensions></trkpt>
      <trkpt lon="-4.130409" lat="53.006301"><ele>442.721741</ele><time>2021-07-17T09:57:49Z</time><extensions><speed>0.243961</speed><course>320.826599</course><hAcc>0.888197</hAcc><vAcc>0.713275</vAcc></extensions></trkpt>
      <trkpt lon="-4.130407" lat="53.006299"><ele>442.752289</ele><time>2021-07-17T09:57:50Z</time><extensions><speed>0.231514</speed><course>320.826599</course><hAcc>0.888307</hAcc><vAcc>0.713620</vAcc></extensions></trkpt>
      <trkpt lon="-4.130406" lat="53.006297"><ele>442.782471</ele><time>2021-07-17T09:57:51Z</time><extensions><speed>0.216373</speed><course>320.826599</course><hAcc>0.888441</hAcc><vAcc>0.714085</vAcc></extensions></trkpt>
      <trkpt lon="-4.130405" lat="53.006295"><ele>442.813904</ele><time>2021-07-17T09:57:52Z</time><extensions><speed>0.200241</speed><course>320.826599</course><hAcc>0.888596</hAcc><vAcc>0.714656</vAcc></extensions></trkpt>
      <trkpt lon="-4.130404" lat="53.006293"><ele>442.847992</ele><time>2021-07-17T09:57:53Z</time><extensions><speed>0.185138</speed><course>320.826599</course><hAcc>0.888768</hAcc><vAcc>0.715308</vAcc></extensions></trkpt>
      <trkpt lon="-4.130404" lat="53.006292"><ele>442.886078</ele><time>2021-07-17T09:57:54Z</time><extensions><speed>0.172881</speed><course>320.826599</course><hAcc>0.888952</hAcc><vAcc>0.716008</vAcc></extensions></trkpt>
      <trkpt lon="-4.130404" lat="53.006290"><ele>442.929321</ele><time>2021-07-17T09:57:55Z</time><extensions><speed>0.165095</speed><course>320.826599</course><hAcc>0.889140</hAcc><vAcc>0.716720</vAcc></extensions></trkpt>
      <trkpt lon="-4.130404" lat="53.006289"><ele>442.978821</ele><time>2021-07-17T09:57:56Z</time><extensions><speed>0.162861</speed><course>320.826599</course><hAcc>0.889325</hAcc><vAcc>0.717413</vAcc></extensions></trkpt>
      <trkpt lon="-4.130405" lat="53.006288"><ele>443.035645</ele><time>2021-07-17T09:57:57Z</time><extensions><speed>0.165924</speed><course>320.826599</course><hAcc>0.889498</hAcc><vAcc>0.718059</vAcc></extensions></trkpt>
      <trkpt lon="-4.130406" lat="53.006286"><ele>443.100616</ele><time>2021-07-17T09:57:58Z</time><extensions><speed>0.172617</speed><course>320.826599</course><hAcc>0.889652</hAcc><vAcc>0.718638</vAcc></extensions></trkpt>
      <trkpt lon="-4.130408" lat="53.006285"><ele>443.174042</ele><time>2021-07-17T09:57:58Z</time><extensions><speed>0.181443</speed><course>320.826569</course><hAcc>0.889798</hAcc><vAcc>0.719143</vAcc></extensions></trkpt>
      <trkpt lon="-4.130410" lat="53.006284"><ele>443.256226</ele><time>2021-07-17T09:57:59Z</time><extensions><speed>0.192238</speed><course>320.826569</course><hAcc>0.889931</hAcc><vAcc>0.719564</vAcc></extensions></trkpt>
      <trkpt lon="-4.130412" lat="53.006283"><ele>443.347321</ele><time>2021-07-17T09:58:00Z</time><extensions><speed>0.204954</speed><course>320.826569</course><hAcc>0.890030</hAcc><vAcc>0.719879</vAcc></extensions></trkpt>
      <trkpt lon="-4.130415" lat="53.006282"><ele>443.447266</ele><time>2021-07-17T09:58:01Z</time><extensions><speed>0.219050</speed><course>320.826569</course><hAcc>0.890095</hAcc><vAcc>0.720080</vAcc></extensions></trkpt>
      <trkpt lon="-4.130418" lat="53.006280"><ele>443.555786</ele><time>2021-07-17T09:58:02Z</time><extensions><speed>0.233910</speed><course>306.179871</course><hAcc>0.890128</hAcc><vAcc>0.720165</vAcc></extensions></trkpt>
      <trkpt lon="-4.130421" lat="53.006279"><ele>443.672211</ele><time>2021-07-17T09:58:03Z</time><extensions><speed>0.249045</speed><course>252.340622</course><hAcc>0.890130</hAcc><vAcc>0.720132</vAcc></extensions></trkpt>
      <trkpt lon="-4.130424" lat="53.006278"><ele>443.795654</ele><time>2021-07-17T09:58:04Z</time><extensions><speed>0.263694</speed><course>240.417450</course><hAcc>0.890107</hAcc><vAcc>0.719992</vAcc></extensions></trkpt>
      <trkpt lon="-4.130428" lat="53.006277"><ele>443.924652</ele><time>2021-07-17T09:58:05Z</time><extensions><speed>0.276995</speed><course>226.735764</course><hAcc>0.890065</hAcc><vAcc>0.719760</vAcc></extensions></trkpt>
      <trkpt lon="-4.130431" lat="53.006276"><ele>444.057648</ele><time>2021-07-17T09:58:06Z</time><extensions><speed>0.288935</speed><course>213.254318</course><hAcc>0.890010</hAcc><vAcc>0.719463</vAcc></extensions></trkpt>
      <trkpt lon="-4.130435" lat="53.006275"><ele>444.193512</ele><time>2021-07-17T09:58:07Z</time><extensions><speed>0.300224</speed><course>209.983795</course><hAcc>0.889948</hAcc><vAcc>0.719134</vAcc></extensions></trkpt>
      <trkpt lon="-4.130440" lat="53.006274"><ele>444.330994</ele><time>2021-07-17T09:58:08Z</time><extensions><speed>0.311605</speed><course>212.464371</course><hAcc>0.889887</hAcc><vAcc>0.718814</vAcc></extensions></trkpt>
      <trkpt lon="-4.130444" lat="53.006273"><ele>444.468842</ele><time>2021-07-17T09:58:09Z</time><extensions><speed>0.323975</speed><course>212.464355</course><hAcc>0.889831</hAcc><vAcc>0.718539</vAcc></extensions></trkpt>
      <trkpt lon="-4.130449" lat="53.006272"><ele>444.606232</ele><time>2021-07-17T09:58:10Z</time><extensions><speed>0.337953</speed><course>212.464355</course><hAcc>0.889787</hAcc><vAcc>0.718340</vAcc></extensions></trkpt>
      <trkpt lon="-4.130454" lat="53.006271"><ele>444.742493</ele><time>2021-07-17T09:58:11Z</time><extensions><speed>0.353682</speed><course>212.464340</course><hAcc>0.889757</hAcc><vAcc>0.718235</vAcc></extensions></trkpt>
      <trkpt lon="-4.130459" lat="53.006270"><ele>444.877197</ele><time>2021-07-17T09:58:12Z</time><extensions><speed>0.370021</speed><course>212.464325</course><hAcc>0.889744</hAcc><vAcc>0.718227</vAcc></extensions></trkpt>
      <trkpt lon="-4.130464" lat="53.006270"><ele>445.009796</ele><time>2021-07-17T09:58:13Z</time><extensions><speed>0.384840</speed><course>212.464325</course><hAcc>0.889749</hAcc><vAcc>0.718304</vAcc></extensions></trkpt>
      <trkpt lon="-4.130470" lat="53.006270"><ele>445.139709</ele><time>2021-07-17T09:58:14Z</time><extensions><speed>0.397282</speed><course>212.464325</course><hAcc>0.889772</hAcc><vAcc>0.718445</vAcc></extensions></trkpt>
      <trkpt lon="-4.130476" lat="53.006269"><ele>445.266388</ele><time>2021-07-17T09:58:15Z</time><extensions><speed>0.407744</speed><course>212.464310</course><hAcc>0.889810</hAcc><vAcc>0.718631</vAcc></extensions></trkpt>
      <trkpt lon="-4.130482" lat="53.006269"><ele>445.389862</ele><time>2021-07-17T09:58:16Z</time><extensions><speed>0.416673</speed><course>305.064514</course><hAcc>0.889862</hAcc><vAcc>0.718843</vAcc></extensions></trkpt>
      <trkpt lon="-4.130489" lat="53.006269"><ele>445.510681</ele><time>2021-07-17T09:58:17Z</time><extensions><speed>0.424158</speed><course>295.507660</course><hAcc>0.889923</hAcc><vAcc>0.719068</vAcc></extensions></trkpt>
      <trkpt lon="-4.130495" lat="53.006270"><ele>445.629700</ele><time>2021-07-17T09:58:18Z</time><extensions><speed>0.429691</speed><course>292.618195</course><hAcc>0.889990</hAcc><vAcc>0.719299</vAcc></extensions></trkpt>
      <trkpt lon="-4.130501" lat="53.006270"><ele>445.747650</ele><time>2021-07-17T09:58:19Z</time><extensions><speed>0.432629</speed><course>285.374146</course><hAcc>0.890057</hAcc><vAcc>0.719528</vAcc></extensions></trkpt>
      <trkpt lon="-4.130508" lat="53.006270"><ele>445.865234</ele><time>2021-07-17T09:58:20Z</time><extensions><speed>0.433046</speed><course>282.990997</course><hAcc>0.890122</hAcc><vAcc>0.719750</vAcc></extensions></trkpt>
      <trkpt lon="-4.130514" lat="53.006270"><ele>445.983215</ele><time>2021-07-17T09:58:21Z</time><extensions><speed>0.431235</speed><course>269.408752</course><hAcc>0.890181</hAcc><vAcc>0.719956</vAcc></extensions></trkpt>
      <trkpt lon="-4.130521" lat="53.006270"><ele>446.102509</ele><time>2021-07-17T09:58:22Z</time><extensions><speed>0.427228</speed><course>268.581787</course><hAcc>0.890231</hAcc><vAcc>0.720138</vAcc></extensions></trkpt>
      <trkpt lon="-4.130527" lat="53.006270"><ele>446.224121</ele><time>2021-07-17T09:58:23Z</time><extensions><speed>0.421236</speed><course>262.171875</course><hAcc>0.890269</hAcc><vAcc>0.720287</vAcc></extensions></trkpt>
      <trkpt lon="-4.130533" lat="53.006269"><ele>446.348846</ele><time>2021-07-17T09:58:24Z</time><extensions><speed>0.413878</speed><course>261.539520</course><hAcc>0.890293</hAcc><vAcc>0.720394</vAcc></extensions></trkpt>
      <trkpt lon="-4.130539" lat="53.006269"><ele>446.477661</ele><time>2021-07-17T09:58:25Z</time><extensions><speed>0.406074</speed><course>255.803879</course><hAcc>0.890301</hAcc><vAcc>0.720451</vAcc></extensions></trkpt>
      <trkpt lon="-4.130545" lat="53.006268"><ele>446.611420</ele><time>2021-07-17T09:58:26Z</time><extensions><speed>0.398415</speed><course>247.733398</course><hAcc>0.890292</hAcc><vAcc>0.720451</vAcc></extensions></trkpt>
      <trkpt lon="-4.130551" lat="53.006267"><ele>446.751038</ele><time>2021-07-17T09:58:27Z</time><extensions><speed>0.391154</speed><course>231.932861</course><hAcc>0.890264</hAcc><vAcc>0.720388</vAcc></extensions></trkpt>
      <trkpt lon="-4.130556" lat="53.006266"><ele>446.897095</ele><time>2021-07-17T09:58:28Z</time><extensions><speed>0.384743</speed><course>232.043365</course><hAcc>0.890217</hAcc><vAcc>0.720256</vAcc></extensions></trkpt>
      <trkpt lon="-4.130561" lat="53.006265"><ele>447.049530</ele><time>2021-07-17T09:58:29Z</time><extensions><speed>0.379936</speed><course>225.182800</course><hAcc>0.890154</hAcc><vAcc>0.720050</vAcc></extensions></trkpt>
      <trkpt lon="-4.130566" lat="53.006263"><ele>447.207764</ele><time>2021-07-17T09:58:30Z</time><extensions><speed>0.377229</speed><course>222.937302</course><hAcc>0.890077</hAcc><vAcc>0.719769</vAcc></extensions></trkpt>
      <trkpt lon="-4.130571" lat="53.006261"><ele>447.370972</ele><time>2021-07-17T09:58:31Z</time><extensions><speed>0.376549</speed><course>226.615036</course><hAcc>0.889988</hAcc><vAcc>0.719424</vAcc></extensions></trkpt>
      <trkpt lon="-4.130575" lat="53.006259"><ele>447.538330</ele><time>2021-07-17T09:58:32Z</time><extensions><speed>0.377371</speed><course>227.377960</course><hAcc>0.889890</hAcc><vAcc>0.719034</vAcc></extensions></trkpt>
      <trkpt lon="-4.130579" lat="53.006256"><ele>447.708801</ele><time>2021-07-17T09:58:33Z</time><extensions><speed>0.379259</speed><course>225.027542</course><hAcc>0.889785</hAcc><vAcc>0.718626</vAcc></extensions></trkpt>
      <trkpt lon="-4.130583" lat="53.006254"><ele>447.881470</ele><time>2021-07-17T09:58:34Z</time><extensions><speed>0.381828</speed><course>217.523773</course><hAcc>0.889678</hAcc><vAcc>0.718222</vAcc></extensions></trkpt>
      <trkpt lon="-4.130587" lat="53.006251"><ele>448.055542</ele><time>2021-07-17T09:58:35Z</time><extensions><speed>0.384210</speed><course>217.503448</course><hAcc>0.889570</hAcc><vAcc>0.717844</vAcc></extensions></trkpt>
      <trkpt lon="-4.130590" lat="53.006248"><ele>448.230286</ele><time>2021-07-17T09:58:36Z</time><extensions><speed>0.385216</speed><course>222.947372</course><hAcc>0.889467</hAcc><vAcc>0.717502</vAcc></extensions></trkpt>
      <trkpt lon="-4.130593" lat="53.006246"><ele>448.405060</ele><time>2021-07-17T09:58:37Z</time><extensions><speed>0.383997</speed><course>228.737518</course><hAcc>0.889370</hAcc><vAcc>0.717200</vAcc></extensions></trkpt>
      <trkpt lon="-4.130597" lat="53.006243"><ele>448.579224</ele><time>2021-07-17T09:58:38Z</time><extensions><speed>0.380400</speed><course>234.887939</course><hAcc>0.889282</hAcc><vAcc>0.716935</vAcc></extensions></trkpt>
      <trkpt lon="-4.130600" lat="53.006240"><ele>448.752411</ele><time>2021-07-17T09:58:39Z</time><extensions><speed>0.374622</speed><course>232.671463</course><hAcc>0.889208</hAcc><vAcc>0.716703</vAcc></extensions></trkpt>
      <trkpt lon="-4.130603" lat="53.006237"><ele>448.924133</ele><time>2021-07-17T09:58:40Z</time><extensions><speed>0.367239</speed><course>228.680756</course><hAcc>0.889147</hAcc><vAcc>0.716500</vAcc></extensions></trkpt>
      <trkpt lon="-4.130605" lat="53.006234"><ele>449.093811</ele><time>2021-07-17T09:58:41Z</time><extensions><speed>0.358884</speed><course>228.367065</course><hAcc>0.889102</hAcc><vAcc>0.716328</vAcc></extensions></trkpt>
      <trkpt lon="-4.130608" lat="53.006232"><ele>449.260956</ele><time>2021-07-17T09:58:42Z</time><extensions><speed>0.350289</speed><course>227.760208</course><hAcc>0.889074</hAcc><vAcc>0.716198</vAcc></extensions></trkpt>
      <trkpt lon="-4.130611" lat="53.006229"><ele>449.425079</ele><time>2021-07-17T09:58:43Z</time><extensions><speed>0.341891</speed><course>230.377014</course><hAcc>0.889061</hAcc><vAcc>0.716121</vAcc></extensions></trkpt>
      <trkpt lon="-4.130613" lat="53.006226"><ele>449.585785</ele><time>2021-07-17T09:58:44Z</time><extensions><speed>0.333600</speed><course>236.559235</course><hAcc>0.889062</hAcc><vAcc>0.716109</vAcc></extensions></trkpt>
      <trkpt lon="-4.130616" lat="53.006224"><ele>449.742584</ele><time>2021-07-17T09:58:45Z</time><extensions><speed>0.325429</speed><course>232.877869</course><hAcc>0.889075</hAcc><vAcc>0.716163</vAcc></extensions></trkpt>
      <trkpt lon="-4.130619" lat="53.006221"><ele>449.894989</ele><time>2021-07-17T09:58:46Z</time><extensions><speed>0.317465</speed><course>233.901962</course><hAcc>0.889098</hAcc><vAcc>0.716275</vAcc></extensions></trkpt>
      <trkpt lon="-4.130621" lat="53.006219"><ele>450.042664</ele><time>2021-07-17T09:58:47Z</time><extensions><speed>0.309968</speed><course>234.840546</course><hAcc>0.889126</hAcc><vAcc>0.716428</vAcc></extensions></trkpt>
      <trkpt lon="-4.130624" lat="53.006217"><ele>450.185211</ele><time>2021-07-17T09:58:48Z</time><extensions><speed>0.302932</speed><course>231.563858</course><hAcc>0.889155</hAcc><vAcc>0.716599</vAcc></extensions></trkpt>
      <trkpt lon="-4.130627" lat="53.006215"><ele>450.322144</ele><time>2021-07-17T09:58:49Z</time><extensions><speed>0.295529</speed><course>226.163422</course><hAcc>0.889181</hAcc><vAcc>0.716760</vAcc></extensions></trkpt>
      <trkpt lon="-4.130630" lat="53.006213"><ele>450.452881</ele><time>2021-07-17T09:58:50Z</time><extensions><speed>0.287104</speed><course>224.694687</course><hAcc>0.889199</hAcc><vAcc>0.716884</vAcc></extensions></trkpt>
      <trkpt lon="-4.130632" lat="53.006211"><ele>450.577179</ele><time>2021-07-17T09:58:51Z</time><extensions><speed>0.277746</speed><course>227.400024</course><hAcc>0.889206</hAcc><vAcc>0.716946</vAcc></extensions></trkpt>
      <trkpt lon="-4.130635" lat="53.006209"><ele>450.695068</ele><time>2021-07-17T09:58:53Z</time><extensions><speed>0.267790</speed><course>225.215622</course><hAcc>0.889181</hAcc><vAcc>0.716916</vAcc></extensions></trkpt>
      <trkpt lon="-4.130637" lat="53.006207"><ele>450.806732</ele><time>2021-07-17T09:58:54Z</time><extensions><speed>0.257409</speed><course>227.979385</course><hAcc>0.889122</hAcc><vAcc>0.716782</vAcc></extensions></trkpt>
      <trkpt lon="-4.130639" lat="53.006205"><ele>450.912964</ele><time>2021-07-17T09:58:55Z</time><extensions><speed>0.246611</speed><course>238.133682</course><hAcc>0.889048</hAcc><vAcc>0.716553</vAcc></extensions></trkpt>
      <trkpt lon="-4.130641" lat="53.006203"><ele>451.014465</ele><time>2021-07-17T09:58:56Z</time><extensions><speed>0.235779</speed><course>235.678314</course><hAcc>0.888959</hAcc><vAcc>0.716233</vAcc></extensions></trkpt>
      <trkpt lon="-4.130643" lat="53.006201"><ele>451.112030</ele><time>2021-07-17T09:58:57Z</time><extensions><speed>0.225664</speed><course>238.960709</course><hAcc>0.888860</hAcc><vAcc>0.715840</vAcc></extensions></trkpt>
      <trkpt lon="-4.130644" lat="53.006200"><ele>451.206482</ele><time>2021-07-17T09:58:58Z</time><extensions><speed>0.217411</speed><course>237.793289</course><hAcc>0.888756</hAcc><vAcc>0.715403</vAcc></extensions></trkpt>
      <trkpt lon="-4.130645" lat="53.006198"><ele>451.299011</ele><time>2021-07-17T09:58:59Z</time><extensions><speed>0.212168</speed><course>238.209671</course><hAcc>0.888654</hAcc><vAcc>0.714958</vAcc></extensions></trkpt>
      <trkpt lon="-4.130647" lat="53.006196"><ele>451.390869</ele><time>2021-07-17T09:59:00Z</time><extensions><speed>0.210634</speed><course>239.435074</course><hAcc>0.888561</hAcc><vAcc>0.714545</vAcc></extensions></trkpt>
      <trkpt lon="-4.130648" lat="53.006194"><ele>451.483337</ele><time>2021-07-17T09:59:01Z</time><extensions><speed>0.212975</speed><course>238.666733</course><hAcc>0.888486</hAcc><vAcc>0.714199</vAcc></extensions></trkpt>
      <trkpt lon="-4.130649" lat="53.006193"><ele>451.577637</ele><time>2021-07-17T09:59:02Z</time><extensions><speed>0.218956</speed><course>234.077820</course><hAcc>0.888435</hAcc><vAcc>0.713953</vAcc></extensions></trkpt>
      <trkpt lon="-4.130651" lat="53.006191"><ele>451.674896</ele><time>2021-07-17T09:59:03Z</time><extensions><speed>0.228024</speed><course>227.293335</course><hAcc>0.888414</hAcc><vAcc>0.713834</vAcc></extensions></trkpt>
      <trkpt lon="-4.130653" lat="53.006189"><ele>451.775787</ele><time>2021-07-17T09:59:04Z</time><extensions><speed>0.239095</speed><course>230.072769</course><hAcc>0.888426</hAcc><vAcc>0.713859</vAcc></extensions></trkpt>
      <trkpt lon="-4.130655" lat="53.006187"><ele>451.880493</ele><time>2021-07-17T09:59:05Z</time><extensions><speed>0.250624</speed><course>228.397232</course><hAcc>0.888474</hAcc><vAcc>0.714035</vAcc></extensions></trkpt>
      <trkpt lon="-4.130657" lat="53.006185"><ele>451.988922</ele><time>2021-07-17T09:59:06Z</time><extensions><speed>0.261862</speed><course>230.234772</course><hAcc>0.888556</hAcc><vAcc>0.714356</vAcc></extensions></trkpt>
      <trkpt lon="-4.130660" lat="53.006184"><ele>452.100891</ele><time>2021-07-17T09:59:07Z</time><extensions><speed>0.272928</speed><course>226.599274</course><hAcc>0.888669</hAcc><vAcc>0.714805</vAcc></extensions></trkpt>
      <trkpt lon="-4.130663" lat="53.006182"><ele>452.216431</ele><time>2021-07-17T09:59:08Z</time><extensions><speed>0.283600</speed><course>226.515137</course><hAcc>0.888808</hAcc><vAcc>0.715358</vAcc></extensions></trkpt>
      <trkpt lon="-4.130666" lat="53.006180"><ele>452.335785</ele><time>2021-07-17T09:59:09Z</time><extensions><speed>0.293634</speed><course>226.136917</course><hAcc>0.888968</hAcc><vAcc>0.715980</vAcc></extensions></trkpt>
      <trkpt lon="-4.130670" lat="53.006179"><ele>452.459106</ele><time>2021-07-17T09:59:10Z</time><extensions><speed>0.302815</speed><course>230.381958</course><hAcc>0.889142</hAcc><vAcc>0.716635</vAcc></extensions></trkpt>
      <trkpt lon="-4.130673" lat="53.006177"><ele>452.586273</ele><time>2021-07-17T09:59:11Z</time><extensions><speed>0.310767</speed><course>226.727509</course><hAcc>0.889322</hAcc><vAcc>0.717291</vAcc></extensions></trkpt>
      <trkpt lon="-4.130677" lat="53.006175"><ele>452.716797</ele><time>2021-07-17T09:59:12Z</time><extensions><speed>0.317573</speed><course>230.180862</course><hAcc>0.889503</hAcc><vAcc>0.717921</vAcc></extensions></trkpt>
      <trkpt lon="-4.130681" lat="53.006174"><ele>452.850311</ele><time>2021-07-17T09:59:13Z</time><extensions><speed>0.323604</speed><course>225.214905</course><hAcc>0.889679</hAcc><vAcc>0.718506</vAcc></extensions></trkpt>
      <trkpt lon="-4.130686" lat="53.006173"><ele>452.986450</ele><time>2021-07-17T09:59:14Z</time><extensions><speed>0.329197</speed><course>228.288971</course><hAcc>0.889845</hAcc><vAcc>0.719035</vAcc></extensions></trkpt>
      <trkpt lon="-4.130690" lat="53.006172"><ele>453.124725</ele><time>2021-07-17T09:59:15Z</time><extensions><speed>0.334275</speed><course>234.392639</course><hAcc>0.889996</hAcc><vAcc>0.719504</vAcc></extensions></trkpt>
      <trkpt lon="-4.130695" lat="53.006171"><ele>453.264526</ele><time>2021-07-17T09:59:16Z</time><extensions><speed>0.338443</speed><course>233.208801</course><hAcc>0.890130</hAcc><vAcc>0.719915</vAcc></extensions></trkpt>
      <trkpt lon="-4.130700" lat="53.006170"><ele>453.404907</ele><time>2021-07-17T09:59:17Z</time><extensions><speed>0.341236</speed><course>238.158752</course><hAcc>0.890246</hAcc><vAcc>0.720271</vAcc></extensions></trkpt>
      <trkpt lon="-4.130705" lat="53.006169"><ele>453.544769</ele><time>2021-07-17T09:59:18Z</time><extensions><speed>0.342219</speed><course>239.142517</course><hAcc>0.890343</hAcc><vAcc>0.720571</vAcc></extensions></trkpt>
      <trkpt lon="-4.130710" lat="53.006168"><ele>453.682678</ele><time>2021-07-17T09:59:19Z</time><extensions><speed>0.342271</speed><course>241.003922</course><hAcc>0.890421</hAcc><vAcc>0.720817</vAcc></extensions></trkpt>
      <trkpt lon="-4.130715" lat="53.006167"><ele>453.817169</ele><time>2021-07-17T09:59:20Z</time><extensions><speed>0.343052</speed><course>244.474228</course><hAcc>0.890483</hAcc><vAcc>0.721005</vAcc></extensions></trkpt>
      <trkpt lon="-4.130720" lat="53.006167"><ele>453.947021</ele><time>2021-07-17T09:59:21Z</time><extensions><speed>0.345703</speed><course>238.879150</course><hAcc>0.890528</hAcc><vAcc>0.721140</vAcc></extensions></trkpt>
      <trkpt lon="-4.130725" lat="53.006167"><ele>454.071320</ele><time>2021-07-17T09:59:22Z</time><extensions><speed>0.350665</speed><course>237.538528</course><hAcc>0.890560</hAcc><vAcc>0.721226</vAcc></extensions></trkpt>
      <trkpt lon="-4.130730" lat="53.006167"><ele>454.189850</ele><time>2021-07-17T09:59:23Z</time><extensions><speed>0.358106</speed><course>249.037552</course><hAcc>0.890579</hAcc><vAcc>0.721268</vAcc></extensions></trkpt>
      <trkpt lon="-4.130736" lat="53.006167"><ele>454.303101</ele><time>2021-07-17T09:59:24Z</time><extensions><speed>0.367727</speed><course>259.361603</course><hAcc>0.890588</hAcc><vAcc>0.721271</vAcc></extensions></trkpt>
      <trkpt lon="-4.130741" lat="53.006167"><ele>454.411957</ele><time>2021-07-17T09:59:25Z</time><extensions><speed>0.378368</speed><course>261.193176</course><hAcc>0.890590</hAcc><vAcc>0.721242</vAcc></extensions></trkpt>
      <trkpt lon="-4.130747" lat="53.006168"><ele>454.517212</ele><time>2021-07-17T09:59:26Z</time><extensions><speed>0.388899</speed><course>261.193146</course><hAcc>0.890586</hAcc><vAcc>0.721191</vAcc></extensions></trkpt>
      <trkpt lon="-4.130753" lat="53.006168"><ele>454.619629</ele><time>2021-07-17T09:59:27Z</time><extensions><speed>0.398534</speed><course>261.193146</course><hAcc>0.890579</hAcc><vAcc>0.721131</vAcc></extensions></trkpt>
      <trkpt lon="-4.130759" lat="53.006168"><ele>454.719940</ele><time>2021-07-17T09:59:28Z</time><extensions><speed>0.406619</speed><course>261.193146</course><hAcc>0.890569</hAcc><vAcc>0.721071</vAcc></extensions></trkpt>
      <trkpt lon="-4.130765" lat="53.006169"><ele>454.818817</ele><time>2021-07-17T09:59:29Z</time><extensions><speed>0.412662</speed><course>261.193146</course><hAcc>0.890559</hAcc><vAcc>0.721021</vAcc></extensions></trkpt>
      <trkpt lon="-4.130771" lat="53.006169"><ele>454.916962</ele><time>2021-07-17T09:59:30Z</time><extensions><speed>0.416220</speed><course>261.193146</course><hAcc>0.890549</hAcc><vAcc>0.720985</vAcc></extensions></trkpt>
      <trkpt lon="-4.130777" lat="53.006170"><ele>455.015106</ele><time>2021-07-17T09:59:31Z</time><extensions><speed>0.417421</speed><course>261.193146</course><hAcc>0.890539</hAcc><vAcc>0.720964</vAcc></extensions></trkpt>
      <trkpt lon="-4.130783" lat="53.006170"><ele>455.114258</ele><time>2021-07-17T09:59:32Z</time><extensions><speed>0.417090</speed><course>261.193146</course><hAcc>0.890530</hAcc><vAcc>0.720953</vAcc></extensions></trkpt>
      <trkpt lon="-4.130789" lat="53.006170"><ele>455.215607</ele><time>2021-07-17T09:59:33Z</time><extensions><speed>0.415699</speed><course>261.193146</course><hAcc>0.890521</hAcc><vAcc>0.720947</vAcc></extensions></trkpt>
      <trkpt lon="-4.130796" lat="53.006171"><ele>455.320190</ele><time>2021-07-17T09:59:34Z</time><extensions><speed>0.412973</speed><course>234.852402</course><hAcc>0.890511</hAcc><vAcc>0.720941</vAcc></extensions></trkpt>
      <trkpt lon="-4.130802" lat="53.006171"><ele>455.428741</ele><time>2021-07-17T09:59:35Z</time><extensions><speed>0.408493</speed><course>215.025620</course><hAcc>0.890499</hAcc><vAcc>0.720931</vAcc></extensions></trkpt>
      <trkpt lon="-4.130808" lat="53.006170"><ele>455.541748</ele><time>2021-07-17T09:59:36Z</time><extensions><speed>0.401887</speed><course>206.872131</course><hAcc>0.890485</hAcc><vAcc>0.720909</vAcc></extensions></trkpt>
      <trkpt lon="-4.130814" lat="53.006170"><ele>455.659302</ele><time>2021-07-17T09:59:37Z</time><extensions><speed>0.393453</speed><course>205.862991</course><hAcc>0.890466</hAcc><vAcc>0.720871</vAcc></extensions></trkpt>
      <trkpt lon="-4.130819" lat="53.006169"><ele>455.781311</ele><time>2021-07-17T09:59:38Z</time><extensions><speed>0.383833</speed><course>205.862976</course><hAcc>0.890443</hAcc><vAcc>0.720809</vAcc></extensions></trkpt>
      <trkpt lon="-4.130825" lat="53.006169"><ele>455.907593</ele><time>2021-07-17T09:59:39Z</time><extensions><speed>0.373749</speed><course>234.677673</course><hAcc>0.890416</hAcc><vAcc>0.720720</vAcc></extensions></trkpt>
      <trkpt lon="-4.130830" lat="53.006168"><ele>456.037964</ele><time>2021-07-17T09:59:40Z</time><extensions><speed>0.364546</speed><course>246.321655</course><hAcc>0.890385</hAcc><vAcc>0.720603</vAcc></extensions></trkpt>
      <trkpt lon="-4.130835" lat="53.006167"><ele>456.172333</ele><time>2021-07-17T09:59:41Z</time><extensions><speed>0.357438</speed><course>256.732239</course><hAcc>0.890350</hAcc><vAcc>0.720466</vAcc></extensions></trkpt>
      <trkpt lon="-4.130840" lat="53.006166"><ele>456.310730</ele><time>2021-07-17T09:59:42Z</time><extensions><speed>0.353383</speed><course>257.461731</course><hAcc>0.890313</hAcc><vAcc>0.720316</vAcc></extensions></trkpt>
      <trkpt lon="-4.130845" lat="53.006164"><ele>456.453247</ele><time>2021-07-17T09:59:43Z</time><extensions><speed>0.352888</speed><course>256.219269</course><hAcc>0.890274</hAcc><vAcc>0.720165</vAcc></extensions></trkpt>
      <trkpt lon="-4.130850" lat="53.006163"><ele>456.599945</ele><time>2021-07-17T09:59:44Z</time><extensions><speed>0.355667</speed><course>253.669510</course><hAcc>0.890236</hAcc><vAcc>0.720024</vAcc></extensions></trkpt>
      <trkpt lon="-4.130854" lat="53.006162"><ele>456.750671</ele><time>2021-07-17T09:59:45Z</time><extensions><speed>0.360770</speed><course>253.907227</course><hAcc>0.890201</hAcc><vAcc>0.719897</vAcc></extensions></trkpt>
      <trkpt lon="-4.130859" lat="53.006160"><ele>456.904907</ele><time>2021-07-17T09:59:46Z</time><extensions><speed>0.366762</speed><course>260.189209</course><hAcc>0.890171</hAcc><vAcc>0.719784</vAcc></extensions></trkpt>
      <trkpt lon="-4.130864" lat="53.006158"><ele>457.061676</ele><time>2021-07-17T09:59:47Z</time><extensions><speed>0.372247</speed><course>263.253174</course><hAcc>0.890148</hAcc><vAcc>0.719688</vAcc></extensions></trkpt>
      <trkpt lon="-4.130868" lat="53.006156"><ele>457.219513</ele><time>2021-07-17T09:59:48Z</time><extensions><speed>0.376086</speed><course>264.349060</course><hAcc>0.890134</hAcc><vAcc>0.719614</vAcc></extensions></trkpt>
      <trkpt lon="-4.130873" lat="53.006154"><ele>457.376648</ele><time>2021-07-17T09:59:49Z</time><extensions><speed>0.378001</speed><course>258.002991</course><hAcc>0.890129</hAcc><vAcc>0.719572</vAcc></extensions></trkpt>
      <trkpt lon="-4.130878" lat="53.006153"><ele>457.531250</ele><time>2021-07-17T09:59:50Z</time><extensions><speed>0.378296</speed><course>264.832825</course><hAcc>0.890132</hAcc><vAcc>0.719571</vAcc></extensions></trkpt>
      <trkpt lon="-4.130883" lat="53.006151"><ele>457.681610</ele><time>2021-07-17T09:59:51Z</time><extensions><speed>0.376992</speed><course>262.654938</course><hAcc>0.890144</hAcc><vAcc>0.719616</vAcc></extensions></trkpt>
      <trkpt lon="-4.130887" lat="53.006149"><ele>457.826233</ele><time>2021-07-17T09:59:52Z</time><extensions><speed>0.373922</speed><course>262.654938</course><hAcc>0.890163</hAcc><vAcc>0.719703</vAcc></extensions></trkpt>
      <trkpt lon="-4.130892" lat="53.006147"><ele>457.963989</ele><time>2021-07-17T09:59:53Z</time><extensions><speed>0.368675</speed><course>262.654938</course><hAcc>0.890187</hAcc><vAcc>0.719825</vAcc></extensions></trkpt>
      <trkpt lon="-4.130897" lat="53.006146"><ele>458.094086</ele><time>2021-07-17T09:59:54Z</time><extensions><speed>0.360571</speed><course>262.654938</course><hAcc>0.890212</hAcc><vAcc>0.719967</vAcc></extensions></trkpt>
      <trkpt lon="-4.130902" lat="53.006145"><ele>458.216003</ele><time>2021-07-17T09:59:55Z</time><extensions><speed>0.348519</speed><course>262.654938</course><hAcc>0.890238</hAcc><vAcc>0.720111</vAcc></extensions></trkpt>
      <trkpt lon="-4.130907" lat="53.006144"><ele>458.329376</ele><time>2021-07-17T09:59:56Z</time><extensions><speed>0.331306</speed><course>262.654938</course><hAcc>0.890259</hAcc><vAcc>0.720241</vAcc></extensions></trkpt>
      <trkpt lon="-4.130911" lat="53.006143"><ele>458.433929</ele><time>2021-07-17T09:59:57Z</time><extensions><speed>0.308705</speed><course>262.654938</course><hAcc>0.890274</hAcc><vAcc>0.720342</vAcc></extensions></trkpt>
      <trkpt lon="-4.130915" lat="53.006142"><ele>458.529388</ele><time>2021-07-17T09:59:58Z</time><extensions><speed>0.281480</speed><course>262.654938</course><hAcc>0.890279</hAcc><vAcc>0.720401</vAcc></extensions></trkpt>
      <trkpt lon="-4.130919" lat="53.006141"><ele>458.615570</ele><time>2021-07-17T09:59:59Z</time><extensions><speed>0.250994</speed><course>262.654938</course><hAcc>0.890274</hAcc><vAcc>0.720406</vAcc></extensions></trkpt>
      <trkpt lon="-4.130922" lat="53.006140"><ele>458.692566</ele><time>2021-07-17T10:00:00Z</time><extensions><speed>0.219102</speed><course>262.654938</course><hAcc>0.890256</hAcc><vAcc>0.720353</vAcc></extensions></trkpt>
      <trkpt lon="-4.130925" lat="53.006140"><ele>458.760498</ele><time>2021-07-17T10:00:01Z</time><extensions><speed>0.187454</speed><course>262.654938</course><hAcc>0.890225</hAcc><vAcc>0.720244</vAcc></extensions></trkpt>
      <trkpt lon="-4.130928" lat="53.006139"><ele>458.819855</ele><time>2021-07-17T10:00:02Z</time><extensions><speed>0.157138</speed><course>262.654938</course><hAcc>0.890182</hAcc><vAcc>0.720088</vAcc></extensions></trkpt>
      <trkpt lon="-4.130930" lat="53.006139"><ele>458.871307</ele><time>2021-07-17T10:00:03Z</time><extensions><speed>0.128869</speed><course>262.654938</course><hAcc>0.890129</hAcc><vAcc>0.719895</vAcc></extensions></trkpt>
      <trkpt lon="-4.130931" lat="53.006138"><ele>458.915680</ele><time>2021-07-17T10:00:04Z</time><extensions><speed>0.103280</speed><course>262.654938</course><hAcc>0.890066</hAcc><vAcc>0.719676</vAcc></extensions></trkpt>
      <trkpt lon="-4.130933" lat="53.006138"><ele>458.953766</ele><time>2021-07-17T10:00:04Z</time><extensions><speed>0.080927</speed><course>262.654938</course><hAcc>0.890015</hAcc><vAcc>0.719460</vAcc></extensions></trkpt>
      <trkpt lon="-4.130933" lat="53.006138"><ele>458.986450</ele><time>2021-07-17T10:00:05Z</time><extensions><speed>0.062230</speed><course>262.654938</course><hAcc>0.889979</hAcc><vAcc>0.719260</vAcc></extensions></trkpt>
      <trkpt lon="-4.130934" lat="53.006137"><ele>459.014435</ele><time>2021-07-17T10:00:06Z</time><extensions><speed>0.048276</speed><course>262.654938</course><hAcc>0.889944</hAcc><vAcc>0.719079</vAcc></extensions></trkpt>
      <trkpt lon="-4.130934" lat="53.006137"><ele>459.038513</ele><time>2021-07-17T10:00:07Z</time><extensions><speed>0.040507</speed><course>262.654938</course><hAcc>0.889914</hAcc><vAcc>0.718929</vAcc></extensions></trkpt>
      <trkpt lon="-4.130935" lat="53.006137"><ele>459.059387</ele><time>2021-07-17T10:00:08Z</time><extensions><speed>0.039506</speed><course>262.654938</course><hAcc>0.889892</hAcc><vAcc>0.718821</vAcc></extensions></trkpt>
      <trkpt lon="-4.130934" lat="53.006136"><ele>459.077637</ele><time>2021-07-17T10:00:09Z</time><extensions><speed>0.043566</speed><course>262.654938</course><hAcc>0.889880</hAcc><vAcc>0.718764</vAcc></extensions></trkpt>
      <trkpt lon="-4.130934" lat="53.006136"><ele>459.093781</ele><time>2021-07-17T10:00:10Z</time><extensions><speed>0.049804</speed><course>262.654938</course><hAcc>0.889879</hAcc><vAcc>0.718762</vAcc></extensions></trkpt>
      <trkpt lon="-4.130934" lat="53.006136"><ele>459.108215</ele><time>2021-07-17T10:00:11Z</time><extensions><speed>0.056136</speed><course>262.654938</course><hAcc>0.889888</hAcc><vAcc>0.718811</vAcc></extensions></trkpt>
      <trkpt lon="-4.130933" lat="53.006135"><ele>459.121277</ele><time>2021-07-17T10:00:12Z</time><extensions><speed>0.061518</speed><course>262.654938</course><hAcc>0.889908</hAcc><vAcc>0.718905</vAcc></extensions></trkpt>
      <trkpt lon="-4.130933" lat="53.006135"><ele>459.133270</ele><time>2021-07-17T10:00:13Z</time><extensions><speed>0.065316</speed><course>262.654938</course><hAcc>0.889937</hAcc><vAcc>0.719035</vAcc></extensions></trkpt>
      <trkpt lon="-4.130932" lat="53.006134"><ele>459.144562</ele><time>2021-07-17T10:00:14Z</time><extensions><speed>0.067143</speed><course>262.654938</course><hAcc>0.889973</hAcc><vAcc>0.719189</vAcc></extensions></trkpt>
      <trkpt lon="-4.130931" lat="53.006134"><ele>459.155670</ele><time>2021-07-17T10:00:15Z</time><extensions><speed>0.066848</speed><course>262.654938</course><hAcc>0.890013</hAcc><vAcc>0.719355</vAcc></extensions></trkpt>
      <trkpt lon="-4.130930" lat="53.006134"><ele>459.167206</ele><time>2021-07-17T10:00:16Z</time><extensions><speed>0.064326</speed><course>262.654938</course><hAcc>0.890056</hAcc><vAcc>0.719521</vAcc></extensions></trkpt>
      <trkpt lon="-4.130929" lat="53.006133"><ele>459.179718</ele><time>2021-07-17T10:00:17Z</time><extensions><speed>0.059714</speed><course>262.654938</course><hAcc>0.890098</hAcc><vAcc>0.719679</vAcc></extensions></trkpt>
      <trkpt lon="-4.130929" lat="53.006133"><ele>459.194031</ele><time>2021-07-17T10:00:18Z</time><extensions><speed>0.053682</speed><course>262.654938</course><hAcc>0.890138</hAcc><vAcc>0.719822</vAcc></extensions></trkpt>
      <trkpt lon="-4.130928" lat="53.006133"><ele>459.211090</ele><time>2021-07-17T10:00:19Z</time><extensions><speed>0.048052</speed><course>262.654938</course><hAcc>0.890175</hAcc><vAcc>0.719945</vAcc></extensions></trkpt>
      <trkpt lon="-4.130928" lat="53.006132"><ele>459.232025</ele><time>2021-07-17T10:00:20Z</time><extensions><speed>0.046419</speed><course>262.654938</course><hAcc>0.890208</hAcc><vAcc>0.720047</vAcc></extensions></trkpt>
      <trkpt lon="-4.130928" lat="53.006132"><ele>459.258057</ele><time>2021-07-17T10:00:21Z</time><extensions><speed>0.053047</speed><course>262.654938</course><hAcc>0.890236</hAcc><vAcc>0.720126</vAcc></extensions></trkpt>
      <trkpt lon="-4.130928" lat="53.006131"><ele>459.290588</ele><time>2021-07-17T10:00:22Z</time><extensions><speed>0.069108</speed><course>262.654938</course><hAcc>0.890259</hAcc><vAcc>0.720186</vAcc></extensions></trkpt>
      <trkpt lon="-4.130929" lat="53.006131"><ele>459.330872</ele><time>2021-07-17T10:00:23Z</time><extensions><speed>0.092851</speed><course>262.654938</course><hAcc>0.890279</hAcc><vAcc>0.720229</vAcc></extensions></trkpt>
      <trkpt lon="-4.130930" lat="53.006130"><ele>459.380310</ele><time>2021-07-17T10:00:24Z</time><extensions><speed>0.122438</speed><course>262.654938</course><hAcc>0.890297</hAcc><vAcc>0.720260</vAcc></extensions></trkpt>
      <trkpt lon="-4.130932" lat="53.006129"><ele>459.440155</ele><time>2021-07-17T10:00:25Z</time><extensions><speed>0.156637</speed><course>262.654938</course><hAcc>0.890314</hAcc><vAcc>0.720285</vAcc></extensions></trkpt>
      <trkpt lon="-4.130934" lat="53.006128"><ele>459.511597</ele><time>2021-07-17T10:00:26Z</time><extensions><speed>0.194427</speed><course>262.654938</course><hAcc>0.890330</hAcc><vAcc>0.720311</vAcc></extensions></trkpt>
      <trkpt lon="-4.130936" lat="53.006127"><ele>459.595612</ele><time>2021-07-17T10:00:27Z</time><extensions><speed>0.234592</speed><course>262.654938</course><hAcc>0.890348</hAcc><vAcc>0.720345</vAcc></extensions></trkpt>
      <trkpt lon="-4.130940" lat="53.006126"><ele>459.692963</ele><time>2021-07-17T10:00:28Z</time><extensions><speed>0.275452</speed><course>262.654938</course><hAcc>0.890367</hAcc><vAcc>0.720393</vAcc></extensions></trkpt>
      <trkpt lon="-4.130943" lat="53.006124"><ele>459.803894</ele><time>2021-07-17T10:00:29Z</time><extensions><speed>0.314784</speed><course>262.654938</course><hAcc>0.890386</hAcc><vAcc>0.720459</vAcc></extensions></trkpt>
      <trkpt lon="-4.130947" lat="53.006123"><ele>459.928223</ele><time>2021-07-17T10:00:30Z</time><extensions><speed>0.350246</speed><course>262.654938</course><hAcc>0.890406</hAcc><vAcc>0.720544</vAcc></extensions></trkpt>
      <trkpt lon="-4.130952" lat="53.006121"><ele>460.065063</ele><time>2021-07-17T10:00:31Z</time><extensions><speed>0.380168</speed><course>262.654938</course><hAcc>0.890425</hAcc><vAcc>0.720641</vAcc></extensions></trkpt>
      <trkpt lon="-4.130957" lat="53.006119"><ele>460.213074</ele><time>2021-07-17T10:00:32Z</time><extensions><speed>0.403611</speed><course>262.654938</course><hAcc>0.890440</hAcc><vAcc>0.720738</vAcc></extensions></trkpt>
      <trkpt lon="-4.130962" lat="53.006117"><ele>460.370453</ele><time>2021-07-17T10:00:33Z</time><extensions><speed>0.420232</speed><course>262.654938</course><hAcc>0.890452</hAcc><vAcc>0.720821</vAcc></extensions></trkpt>
      <trkpt lon="-4.130967" lat="53.006115"><ele>460.535095</ele><time>2021-07-17T10:00:34Z</time><extensions><speed>0.430408</speed><course>262.654938</course><hAcc>0.890456</hAcc><vAcc>0.720876</vAcc></extensions></trkpt>
      <trkpt lon="-4.130973" lat="53.006113"><ele>460.704681</ele><time>2021-07-17T10:00:35Z</time><extensions><speed>0.434604</speed><course>262.654938</course><hAcc>0.890450</hAcc><vAcc>0.720891</vAcc></extensions></trkpt>
      <trkpt lon="-4.130978" lat="53.006110"><ele>460.876831</ele><time>2021-07-17T10:00:36Z</time><extensions><speed>0.432567</speed><course>262.654938</course><hAcc>0.890432</hAcc><vAcc>0.720857</vAcc></extensions></trkpt>
      <trkpt lon="-4.130983" lat="53.006108"><ele>461.049072</ele><time>2021-07-17T10:00:37Z</time><extensions><speed>0.423904</speed><course>262.654938</course><hAcc>0.890399</hAcc><vAcc>0.720766</vAcc></extensions></trkpt>
      <trkpt lon="-4.130988" lat="53.006106"><ele>461.218964</ele><time>2021-07-17T10:00:38Z</time><extensions><speed>0.408799</speed><course>262.654938</course><hAcc>0.890349</hAcc><vAcc>0.720614</vAcc></extensions></trkpt>
      <trkpt lon="-4.130993" lat="53.006104"><ele>461.384216</ele><time>2021-07-17T10:00:39Z</time><extensions><speed>0.387620</speed><course>262.654938</course><hAcc>0.890281</hAcc><vAcc>0.720400</vAcc></extensions></trkpt>
      <trkpt lon="-4.130997" lat="53.006102"><ele>461.542877</ele><time>2021-07-17T10:00:40Z</time><extensions><speed>0.360743</speed><course>262.654938</course><hAcc>0.890191</hAcc><vAcc>0.720121</vAcc></extensions></trkpt>
      <trkpt lon="-4.131001" lat="53.006100"><ele>461.693115</ele><time>2021-07-17T10:00:41Z</time><extensions><speed>0.328810</speed><course>262.654938</course><hAcc>0.890081</hAcc><vAcc>0.719778</vAcc></extensions></trkpt>
      <trkpt lon="-4.131005" lat="53.006098"><ele>461.833130</ele><time>2021-07-17T10:00:42Z</time><extensions><speed>0.292730</speed><course>262.654938</course><hAcc>0.889949</hAcc><vAcc>0.719369</vAcc></extensions></trkpt>
      <trkpt lon="-4.131008" lat="53.006096"><ele>461.961304</ele><time>2021-07-17T10:00:43Z</time><extensions><speed>0.253616</speed><course>262.654938</course><hAcc>0.889798</hAcc><vAcc>0.718893</vAcc></extensions></trkpt>
      <trkpt lon="-4.131011" lat="53.006095"><ele>462.076416</ele><time>2021-07-17T10:00:44Z</time><extensions><speed>0.212613</speed><course>262.654938</course><hAcc>0.889628</hAcc><vAcc>0.718349</vAcc></extensions></trkpt>
      <trkpt lon="-4.131013" lat="53.006094"><ele>462.177551</ele><time>2021-07-17T10:00:45Z</time><extensions><speed>0.171483</speed><course>262.654938</course><hAcc>0.889444</hAcc><vAcc>0.717740</vAcc></extensions></trkpt>
      <trkpt lon="-4.131015" lat="53.006093"><ele>462.264282</ele><time>2021-07-17T10:00:46Z</time><extensions><speed>0.132359</speed><course>262.654938</course><hAcc>0.889248</hAcc><vAcc>0.717076</vAcc></extensions></trkpt>
      <trkpt lon="-4.131016" lat="53.006093"><ele>462.336639</ele><time>2021-07-17T10:00:47Z</time><extensions><speed>0.097692</speed><course>209.646423</course><hAcc>0.889044</hAcc><vAcc>0.716372</vAcc></extensions></trkpt>
      <trkpt lon="-4.131018" lat="53.006093"><ele>462.394928</ele><time>2021-07-17T10:00:48Z</time><extensions><speed>0.071377</speed><course>207.502853</course><hAcc>0.888838</hAcc><vAcc>0.715650</vAcc></extensions></trkpt>
      <trkpt lon="-4.131019" lat="53.006093"><ele>462.439636</ele><time>2021-07-17T10:00:49Z</time><extensions><speed>0.058691</speed><course>210.649872</course><hAcc>0.888635</hAcc><vAcc>0.714931</vAcc></extensions></trkpt>
      <trkpt lon="-4.131019" lat="53.006093"><ele>462.471405</ele><time>2021-07-17T10:00:50Z</time><extensions><speed>0.061413</speed><course>218.307190</course><hAcc>0.888441</hAcc><vAcc>0.714242</vAcc></extensions></trkpt>
      <trkpt lon="-4.131020" lat="53.006094"><ele>462.490997</ele><time>2021-07-17T10:00:51Z</time><extensions><speed>0.072909</speed><course>221.774033</course><hAcc>0.888263</hAcc><vAcc>0.713606</vAcc></extensions></trkpt>
      <trkpt lon="-4.131020" lat="53.006095"><ele>462.499512</ele><time>2021-07-17T10:00:52Z</time><extensions><speed>0.086327</speed><course>225.071381</course><hAcc>0.888106</hAcc><vAcc>0.713044</vAcc></extensions></trkpt>
      <trkpt lon="-4.131020" lat="53.006095"><ele>462.498077</ele><time>2021-07-17T10:00:53Z</time><extensions><speed>0.098582</speed><course>229.682953</course><hAcc>0.887976</hAcc><vAcc>0.712575</vAcc></extensions></trkpt>
      <trkpt lon="-4.131020" lat="53.006096"><ele>462.487762</ele><time>2021-07-17T10:00:54Z</time><extensions><speed>0.108544</speed><course>228.187271</course><hAcc>0.887878</hAcc><vAcc>0.712215</vAcc></extensions></trkpt>
      <trkpt lon="-4.131021" lat="53.006097"><ele>462.469604</ele><time>2021-07-17T10:00:55Z</time><extensions><speed>0.115861</speed><course>224.821243</course><hAcc>0.887815</hAcc><vAcc>0.711977</vAcc></extensions></trkpt>
      <trkpt lon="-4.131021" lat="53.006098"><ele>462.444672</ele><time>2021-07-17T10:00:56Z</time><extensions><speed>0.120465</speed><course>222.757462</course><hAcc>0.887789</hAcc><vAcc>0.711874</vAcc></extensions></trkpt>
      <trkpt lon="-4.131021" lat="53.006099"><ele>462.414032</ele><time>2021-07-17T10:00:57Z</time><extensions><speed>0.122416</speed><course>223.047150</course><hAcc>0.887801</hAcc><vAcc>0.711913</vAcc></extensions></trkpt>
      <trkpt lon="-4.131021" lat="53.006101"><ele>462.378662</ele><time>2021-07-17T10:00:58Z</time><extensions><speed>0.121903</speed><course>218.695862</course><hAcc>0.887850</hAcc><vAcc>0.712094</vAcc></extensions></trkpt>
      <trkpt lon="-4.131021" lat="53.006102"><ele>462.339569</ele><time>2021-07-17T10:00:59Z</time><extensions><speed>0.119131</speed><course>216.351273</course><hAcc>0.887934</hAcc><vAcc>0.712408</vAcc></extensions></trkpt>
      <trkpt lon="-4.131021" lat="53.006103"><ele>462.297729</ele><time>2021-07-17T10:01:00Z</time><extensions><speed>0.114279</speed><course>219.658188</course><hAcc>0.888049</hAcc><vAcc>0.712835</vAcc></extensions></trkpt>
      <trkpt lon="-4.131021" lat="53.006104"><ele>462.254089</ele><time>2021-07-17T10:01:01Z</time><extensions><speed>0.107485</speed><course>221.748871</course><hAcc>0.888192</hAcc><vAcc>0.713345</vAcc></extensions></trkpt>
      <trkpt lon="-4.131021" lat="53.006105"><ele>462.209747</ele><time>2021-07-17T10:01:02Z</time><extensions><speed>0.099125</speed><course>225.723022</course><hAcc>0.888357</hAcc><vAcc>0.713913</vAcc></extensions></trkpt>
      <trkpt lon="-4.131021" lat="53.006105"><ele>462.165771</ele><time>2021-07-17T10:01:03Z</time><extensions><speed>0.089803</speed><course>227.303833</course><hAcc>0.888541</hAcc><vAcc>0.714518</vAcc></extensions></trkpt>
      <trkpt lon="-4.131021" lat="53.006106"><ele>462.123077</ele><time>2021-07-17T10:01:04Z</time><extensions><speed>0.079940</speed><course>225.742310</course><hAcc>0.888739</hAcc><vAcc>0.715151</vAcc></extensions></trkpt>
      <trkpt lon="-4.131021" lat="53.006107"><ele>462.082611</ele><time>2021-07-17T10:01:05Z</time><extensions><speed>0.069861</speed><course>225.742310</course><hAcc>0.888949</hAcc><vAcc>0.715807</vAcc></extensions></trkpt>
      <trkpt lon="-4.131021" lat="53.006107"><ele>462.045074</ele><time>2021-07-17T10:01:06Z</time><extensions><speed>0.059925</speed><course>225.742325</course><hAcc>0.889172</hAcc><vAcc>0.716486</vAcc></extensions></trkpt>
      <trkpt lon="-4.131021" lat="53.006108"><ele>462.011047</ele><time>2021-07-17T10:01:08Z</time><extensions><speed>0.050422</speed><course>225.742325</course><hAcc>0.889392</hAcc><vAcc>0.717172</vAcc></extensions></trkpt>
      <trkpt lon="-4.131021" lat="53.006108"><ele>461.980835</ele><time>2021-07-17T10:01:09Z</time><extensions><speed>0.041605</speed><course>225.742325</course><hAcc>0.889616</hAcc><vAcc>0.717863</vAcc></extensions></trkpt>
      <trkpt lon="-4.131021" lat="53.006109"><ele>461.954559</ele><time>2021-07-17T10:01:10Z</time><extensions><speed>0.033590</speed><course>224.360504</course><hAcc>0.889872</hAcc><vAcc>0.718575</vAcc></extensions></trkpt>
      <trkpt lon="-4.131021" lat="53.006109"><ele>461.932098</ele><time>2021-07-17T10:01:11Z</time><extensions><speed>0.026453</speed><course>231.374908</course><hAcc>0.890176</hAcc><vAcc>0.719319</vAcc></extensions></trkpt>
      <trkpt lon="-4.131021" lat="53.006109"><ele>461.913239</ele><time>2021-07-17T10:01:12Z</time><extensions><speed>0.020217</speed><course>226.234039</course><hAcc>0.890549</hAcc><vAcc>0.720114</vAcc></extensions></trkpt>
      <trkpt lon="-4.131021" lat="53.006109"><ele>461.897766</ele><time>2021-07-17T10:01:13Z</time><extensions><speed>0.014868</speed><course>228.443588</course><hAcc>0.891021</hAcc><vAcc>0.720987</vAcc></extensions></trkpt>
      <trkpt lon="-4.131021" lat="53.006109"><ele>461.885284</ele><time>2021-07-17T10:01:14Z</time><extensions><speed>0.010372</speed><course>217.150848</course><hAcc>0.891625</hAcc><vAcc>0.721968</vAcc></extensions></trkpt>
      <trkpt lon="-4.131021" lat="53.006109"><ele>461.875488</ele><time>2021-07-17T10:01:15Z</time><extensions><speed>0.006689</speed><course>214.670395</course><hAcc>0.892399</hAcc><vAcc>0.723086</vAcc></extensions></trkpt>
      <trkpt lon="-4.131021" lat="53.006110"><ele>461.867950</ele><time>2021-07-17T10:01:16Z</time><extensions><speed>0.003848</speed><course>219.066208</course><hAcc>0.893382</hAcc><vAcc>0.724366</vAcc></extensions></trkpt>
      <trkpt lon="-4.131021" lat="53.006110"><ele>461.862366</ele><time>2021-07-17T10:01:17Z</time><extensions><speed>0.002247</speed><course>218.042282</course><hAcc>0.894607</hAcc><vAcc>0.725818</vAcc></extensions></trkpt>
      <trkpt lon="-4.131021" lat="53.006110"><ele>461.858307</ele><time>2021-07-17T10:01:18Z</time><extensions><speed>0.002633</speed><course>220.994385</course><hAcc>0.896097</hAcc><vAcc>0.727431</vAcc></extensions></trkpt>
      <trkpt lon="-4.131021" lat="53.006110"><ele>461.855530</ele><time>2021-07-17T10:01:19Z</time><extensions><speed>0.003904</speed><course>227.746307</course><hAcc>0.897849</hAcc><vAcc>0.729171</vAcc></extensions></trkpt>
      <trkpt lon="-4.131021" lat="53.006109"><ele>461.853638</ele><time>2021-07-17T10:01:20Z</time><extensions><speed>0.005235</speed><course>224.855316</course><hAcc>0.899830</hAcc><vAcc>0.730969</vAcc></extensions></trkpt>
      <trkpt lon="-4.131021" lat="53.006109"><ele>461.852417</ele><time>2021-07-17T10:01:21Z</time><extensions><speed>0.006560</speed><course>223.584900</course><hAcc>0.901960</hAcc><vAcc>0.732721</vAcc></extensions></trkpt>
      <trkpt lon="-4.131021" lat="53.006109"><ele>461.851593</ele><time>2021-07-17T10:01:22Z</time><extensions><speed>0.007994</speed><course>224.383530</course><hAcc>0.904113</hAcc><vAcc>0.734299</vAcc></extensions></trkpt>
      <trkpt lon="-4.131021" lat="53.006109"><ele>461.850983</ele><time>2021-07-17T10:01:23Z</time><extensions><speed>0.009697</speed><course>225.716217</course><hAcc>0.906116</hAcc><vAcc>0.735560</vAcc></extensions></trkpt>
      <trkpt lon="-4.131021" lat="53.006109"><ele>461.850372</ele><time>2021-07-17T10:01:24Z</time><extensions><speed>0.011842</speed><course>229.189102</course><hAcc>0.907775</hAcc><vAcc>0.736390</vAcc></extensions></trkpt>
      <trkpt lon="-4.131021" lat="53.006109"><ele>461.849670</ele><time>2021-07-17T10:01:25Z</time><extensions><speed>0.014580</speed><course>224.817474</course><hAcc>0.908931</hAcc><vAcc>0.736769</vAcc></extensions></trkpt>
      <trkpt lon="-4.131021" lat="53.006109"><ele>461.848724</ele><time>2021-07-17T10:01:26Z</time><extensions><speed>0.018026</speed><course>225.227936</course><hAcc>0.909557</hAcc><vAcc>0.736863</vAcc></extensions></trkpt>
      <trkpt lon="-4.131022" lat="53.006109"><ele>461.847504</ele><time>2021-07-17T10:01:27Z</time><extensions><speed>0.022248</speed><course>228.251373</course><hAcc>0.909927</hAcc><vAcc>0.737178</vAcc></extensions></trkpt>
      <trkpt lon="-4.131022" lat="53.006109"><ele>461.845917</ele><time>2021-07-17T10:01:28Z</time><extensions><speed>0.027273</speed><course>230.721024</course><hAcc>0.910873</hAcc><vAcc>0.738746</vAcc></extensions></trkpt>
      <trkpt lon="-4.131022" lat="53.006108"><ele>461.843933</ele><time>2021-07-17T10:01:29Z</time><extensions><speed>0.033074</speed><course>234.697540</course><hAcc>0.914139</hAcc><vAcc>0.743367</vAcc></extensions></trkpt>
      <trkpt lon="-4.131022" lat="53.006108"><ele>461.841583</ele><time>2021-07-17T10:01:30Z</time><extensions><speed>0.039573</speed><course>236.619934</course><hAcc>0.922812</hAcc><vAcc>0.753834</vAcc></extensions></trkpt>
      <trkpt lon="-4.131023" lat="53.006108"><ele>461.838837</ele><time>2021-07-17T10:01:31Z</time><extensions><speed>0.046620</speed><course>247.542679</course><hAcc>0.941719</hAcc><vAcc>0.774048</vAcc></extensions></trkpt>
      <trkpt lon="-4.131023" lat="53.006108"><ele>461.835785</ele><time>2021-07-17T10:01:32Z</time><extensions><speed>0.053988</speed><course>242.855072</course><hAcc>0.977550</hAcc><vAcc>0.808871</vAcc></extensions></trkpt>
      <trkpt lon="-4.131026" lat="53.006105"><ele>461.775391</ele><time>2021-07-17T10:01:33Z</time><extensions><speed>0.293813</speed><course>207.637573</course><hAcc>0.939133</hAcc><vAcc>0.773064</vAcc></extensions></trkpt>
      <trkpt lon="-4.131029" lat="53.006103"><ele>461.836395</ele><time>2021-07-17T10:01:34Z</time><extensions><speed>0.317412</speed><course>199.781464</course><hAcc>0.919488</hAcc><vAcc>0.751807</vAcc></extensions></trkpt>
      <trkpt lon="-4.131032" lat="53.006101"><ele>461.908478</ele><time>2021-07-17T10:01:35Z</time><extensions><speed>0.343899</speed><course>204.898392</course><hAcc>0.911251</hAcc><vAcc>0.741291</vAcc></extensions></trkpt>
      <trkpt lon="-4.131036" lat="53.006098"><ele>461.993713</ele><time>2021-07-17T10:01:36Z</time><extensions><speed>0.371307</speed><course>218.988647</course><hAcc>0.908921</hAcc><vAcc>0.737167</vAcc></extensions></trkpt>
      <trkpt lon="-4.131040" lat="53.006096"><ele>462.094025</ele><time>2021-07-17T10:01:37Z</time><extensions><speed>0.396912</speed><course>240.875916</course><hAcc>0.908985</hAcc><vAcc>0.736310</vAcc></extensions></trkpt>
      <trkpt lon="-4.131044" lat="53.006093"><ele>462.210876</ele><time>2021-07-17T10:01:38Z</time><extensions><speed>0.419259</speed><course>240.875916</course><hAcc>0.909478</hAcc><vAcc>0.736704</vAcc></extensions></trkpt>
      <trkpt lon="-4.131049" lat="53.006091"><ele>462.345001</ele><time>2021-07-17T10:01:39Z</time><extensions><speed>0.438658</speed><course>240.875916</course><hAcc>0.909483</hAcc><vAcc>0.737198</vAcc></extensions></trkpt>
      <trkpt lon="-4.131054" lat="53.006088"><ele>462.496552</ele><time>2021-07-17T10:01:40Z</time><extensions><speed>0.455572</speed><course>240.875916</course><hAcc>0.908720</hAcc><vAcc>0.737242</vAcc></extensions></trkpt>
      <trkpt lon="-4.131059" lat="53.006085"><ele>462.665039</ele><time>2021-07-17T10:01:41Z</time><extensions><speed>0.470576</speed><course>240.875916</course><hAcc>0.907249</hAcc><vAcc>0.736665</vAcc></extensions></trkpt>
      <trkpt lon="-4.131064" lat="53.006082"><ele>462.849579</ele><time>2021-07-17T10:01:42Z</time><extensions><speed>0.484221</speed><course>240.875916</course><hAcc>0.905281</hAcc><vAcc>0.735516</vAcc></extensions></trkpt>
      <trkpt lon="-4.131069" lat="53.006079"><ele>463.048920</ele><time>2021-07-17T10:01:43Z</time><extensions><speed>0.496424</speed><course>269.430084</course><hAcc>0.903060</hAcc><vAcc>0.733944</vAcc></extensions></trkpt>
      <trkpt lon="-4.131075" lat="53.006076"><ele>463.261383</ele><time>2021-07-17T10:01:44Z</time><extensions><speed>0.506326</speed><course>274.056000</course><hAcc>0.900802</hAcc><vAcc>0.732130</vAcc></extensions></trkpt>
      <trkpt lon="-4.131080" lat="53.006073"><ele>463.485229</ele><time>2021-07-17T10:01:45Z</time><extensions><speed>0.513460</speed><course>273.580658</course><hAcc>0.898670</hAcc><vAcc>0.730236</vAcc></extensions></trkpt>
      <trkpt lon="-4.131086" lat="53.006070"><ele>463.718536</ele><time>2021-07-17T10:01:46Z</time><extensions><speed>0.517946</speed><course>266.285736</course><hAcc>0.896767</hAcc><vAcc>0.728387</vAcc></extensions></trkpt>
      <trkpt lon="-4.131092" lat="53.006067"><ele>463.959473</ele><time>2021-07-17T10:01:47Z</time><extensions><speed>0.520288</speed><course>280.416809</course><hAcc>0.895147</hAcc><vAcc>0.726670</vAcc></extensions></trkpt>
      <trkpt lon="-4.131097" lat="53.006063"><ele>464.206329</ele><time>2021-07-17T10:01:48Z</time><extensions><speed>0.521313</speed><course>289.633057</course><hAcc>0.893819</hAcc><vAcc>0.725135</vAcc></extensions></trkpt>
      <trkpt lon="-4.131103" lat="53.006060"><ele>464.457458</ele><time>2021-07-17T10:01:49Z</time><extensions><speed>0.521922</speed><course>274.042023</course><hAcc>0.892769</hAcc><vAcc>0.723804</vAcc></extensions></trkpt>
      <trkpt lon="-4.131109" lat="53.006057"><ele>464.711365</ele><time>2021-07-17T10:01:50Z</time><extensions><speed>0.523118</speed><course>259.398621</course><hAcc>0.891965</hAcc><vAcc>0.722682</vAcc></extensions></trkpt>
      <trkpt lon="-4.131114" lat="53.006054"><ele>464.966888</ele><time>2021-07-17T10:01:51Z</time><extensions><speed>0.525860</speed><course>235.228027</course><hAcc>0.891368</hAcc><vAcc>0.721766</vAcc></extensions></trkpt>
      <trkpt lon="-4.131120" lat="53.006051"><ele>465.223053</ele><time>2021-07-17T10:01:52Z</time><extensions><speed>0.530555</speed><course>233.943741</course><hAcc>0.890939</hAcc><vAcc>0.721043</vAcc></extensions></trkpt>
      <trkpt lon="-4.131126" lat="53.006047"><ele>465.478851</ele><time>2021-07-17T10:01:53Z</time><extensions><speed>0.536839</speed><course>251.986771</course><hAcc>0.890642</hAcc><vAcc>0.720499</vAcc></extensions></trkpt>
      <trkpt lon="-4.131132" lat="53.006044"><ele>465.733154</ele><time>2021-07-17T10:01:54Z</time><extensions><speed>0.544011</speed><course>230.632401</course><hAcc>0.890446</hAcc><vAcc>0.720116</vAcc></extensions></trkpt>
      <trkpt lon="-4.131138" lat="53.006041"><ele>465.984833</ele><time>2021-07-17T10:01:55Z</time><extensions><speed>0.551709</speed><course>208.539734</course><hAcc>0.890326</hAcc><vAcc>0.719875</vAcc></extensions></trkpt>
      <trkpt lon="-4.131145" lat="53.006038"><ele>466.232788</ele><time>2021-07-17T10:01:56Z</time><extensions><speed>0.560220</speed><course>217.062653</course><hAcc>0.890262</hAcc><vAcc>0.719758</vAcc></extensions></trkpt>
      <trkpt lon="-4.131152" lat="53.006035"><ele>466.475891</ele><time>2021-07-17T10:01:57Z</time><extensions><speed>0.569716</speed><course>216.480164</course><hAcc>0.890241</hAcc><vAcc>0.719747</vAcc></extensions></trkpt>
      <trkpt lon="-4.131159" lat="53.006032"><ele>466.713226</ele><time>2021-07-17T10:01:58Z</time><extensions><speed>0.579924</speed><course>215.204285</course><hAcc>0.890250</hAcc><vAcc>0.719825</vAcc></extensions></trkpt>
      <trkpt lon="-4.131167" lat="53.006030"><ele>466.944092</ele><time>2021-07-17T10:01:59Z</time><extensions><speed>0.590250</speed><course>192.608246</course><hAcc>0.890282</hAcc><vAcc>0.719974</vAcc></extensions></trkpt>
      <trkpt lon="-4.131175" lat="53.006027"><ele>467.168091</ele><time>2021-07-17T10:02:00Z</time><extensions><speed>0.599968</speed><course>196.818375</course><hAcc>0.890329</hAcc><vAcc>0.720177</vAcc></extensions></trkpt>
      <trkpt lon="-4.131183" lat="53.006025"><ele>467.385162</ele><time>2021-07-17T10:02:01Z</time><extensions><speed>0.608272</speed><course>200.564194</course><hAcc>0.890386</hAcc><vAcc>0.720415</vAcc></extensions></trkpt>
      <trkpt lon="-4.131191" lat="53.006023"><ele>467.595306</ele><time>2021-07-17T10:02:02Z</time><extensions><speed>0.614294</speed><course>224.718231</course><hAcc>0.890448</hAcc><vAcc>0.720672</vAcc></extensions></trkpt>
      <trkpt lon="-4.131200" lat="53.006021"><ele>467.798523</ele><time>2021-07-17T10:02:03Z</time><extensions><speed>0.617438</speed><course>228.969803</course><hAcc>0.890511</hAcc><vAcc>0.720929</vAcc></extensions></trkpt>
      <trkpt lon="-4.131209" lat="53.006020"><ele>467.994873</ele><time>2021-07-17T10:02:04Z</time><extensions><speed>0.617279</speed><course>250.366501</course><hAcc>0.890572</hAcc><vAcc>0.721175</vAcc></extensions></trkpt>
      <trkpt lon="-4.131218" lat="53.006018"><ele>468.184540</ele><time>2021-07-17T10:02:05Z</time><extensions><speed>0.613585</speed><course>-1.000000</course><hAcc>0.890627</hAcc><vAcc>0.721396</vAcc></extensions></trkpt>
      <trkpt lon="-4.131226" lat="53.006017"><ele>468.367920</ele><time>2021-07-17T10:02:06Z</time><extensions><speed>0.606419</speed><course>232.063629</course><hAcc>0.890674</hAcc><vAcc>0.721583</vAcc></extensions></trkpt>
      <trkpt lon="-4.131235" lat="53.006015"><ele>468.545441</ele><time>2021-07-17T10:02:07Z</time><extensions><speed>0.595865</speed><course>232.063614</course><hAcc>0.890709</hAcc><vAcc>0.721730</vAcc></extensions></trkpt>
      <trkpt lon="-4.131243" lat="53.006014"><ele>468.717621</ele><time>2021-07-17T10:02:08Z</time><extensions><speed>0.582168</speed><course>232.063614</course><hAcc>0.890731</hAcc><vAcc>0.721830</vAcc></extensions></trkpt>
      <trkpt lon="-4.131252" lat="53.006013"><ele>468.884888</ele><time>2021-07-17T10:02:09Z</time><extensions><speed>0.565936</speed><course>232.063599</course><hAcc>0.890737</hAcc><vAcc>0.721879</vAcc></extensions></trkpt>
      <trkpt lon="-4.131260" lat="53.006011"><ele>469.047546</ele><time>2021-07-17T10:02:10Z</time><extensions><speed>0.547878</speed><course>232.063599</course><hAcc>0.890725</hAcc><vAcc>0.721878</vAcc></extensions></trkpt>
      <trkpt lon="-4.131267" lat="53.006010"><ele>469.205658</ele><time>2021-07-17T10:02:10Z</time><extensions><speed>0.528193</speed><course>232.063583</course><hAcc>0.890713</hAcc><vAcc>0.721838</vAcc></extensions></trkpt>
      <trkpt lon="-4.131275" lat="53.006009"><ele>469.359589</ele><time>2021-07-17T10:02:11Z</time><extensions><speed>0.506476</speed><course>232.063583</course><hAcc>0.890699</hAcc><vAcc>0.721762</vAcc></extensions></trkpt>
      <trkpt lon="-4.131282" lat="53.006007"><ele>469.509277</ele><time>2021-07-17T10:02:12Z</time><extensions><speed>0.482492</speed><course>248.555511</course><hAcc>0.890666</hAcc><vAcc>0.721638</vAcc></extensions></trkpt>
      <trkpt lon="-4.131288" lat="53.006006"><ele>469.654755</ele><time>2021-07-17T10:02:13Z</time><extensions><speed>0.456078</speed><course>214.727661</course><hAcc>0.890616</hAcc><vAcc>0.721465</vAcc></extensions></trkpt>
      <trkpt lon="-4.131294" lat="53.006004"><ele>469.796021</ele><time>2021-07-17T10:02:14Z</time><extensions><speed>0.427277</speed><course>215.656113</course><hAcc>0.890549</hAcc><vAcc>0.721243</vAcc></extensions></trkpt>
      <trkpt lon="-4.131300" lat="53.006003"><ele>469.932953</ele><time>2021-07-17T10:02:15Z</time><extensions><speed>0.396565</speed><course>205.637772</course><hAcc>0.890467</hAcc><vAcc>0.720970</vAcc></extensions></trkpt>
      <trkpt lon="-4.131305" lat="53.006001"><ele>470.065460</ele><time>2021-07-17T10:02:16Z</time><extensions><speed>0.365027</speed><course>201.575424</course><hAcc>0.890372</hAcc><vAcc>0.720648</vAcc></extensions></trkpt>
      <trkpt lon="-4.131309" lat="53.005999"><ele>470.193665</ele><time>2021-07-17T10:02:17Z</time><extensions><speed>0.334331</speed><course>196.854248</course><hAcc>0.890265</hAcc><vAcc>0.720281</vAcc></extensions></trkpt>
      <trkpt lon="-4.131313" lat="53.005998"><ele>470.318024</ele><time>2021-07-17T10:02:18Z</time><extensions><speed>0.306515</speed><course>198.264053</course><hAcc>0.890149</hAcc><vAcc>0.719877</vAcc></extensions></trkpt>
      <trkpt lon="-4.131316" lat="53.005996"><ele>470.439270</ele><time>2021-07-17T10:02:19Z</time><extensions><speed>0.283329</speed><course>198.636932</course><hAcc>0.890025</hAcc><vAcc>0.719446</vAcc></extensions></trkpt>
      <trkpt lon="-4.131319" lat="53.005994"><ele>470.558105</ele><time>2021-07-17T10:02:20Z</time><extensions><speed>0.266078</speed><course>192.727798</course><hAcc>0.889895</hAcc><vAcc>0.718999</vAcc></extensions></trkpt>
      <trkpt lon="-4.131321" lat="53.005992"><ele>470.675171</ele><time>2021-07-17T10:02:21Z</time><extensions><speed>0.255923</speed><course>184.691818</course><hAcc>0.889761</hAcc><vAcc>0.718547</vAcc></extensions></trkpt>
      <trkpt lon="-4.131322" lat="53.005990"><ele>470.790863</ele><time>2021-07-17T10:02:22Z</time><extensions><speed>0.253401</speed><course>177.917740</course><hAcc>0.889624</hAcc><vAcc>0.718095</vAcc></extensions></trkpt>
      <trkpt lon="-4.131323" lat="53.005987"><ele>470.905548</ele><time>2021-07-17T10:02:23Z</time><extensions><speed>0.258167</speed><course>169.935883</course><hAcc>0.889487</hAcc><vAcc>0.717649</vAcc></extensions></trkpt>
      <trkpt lon="-4.131323" lat="53.005985"><ele>471.019562</ele><time>2021-07-17T10:02:24Z</time><extensions><speed>0.269123</speed><course>168.290512</course><hAcc>0.889351</hAcc><vAcc>0.717212</vAcc></extensions></trkpt>
      <trkpt lon="-4.131323" lat="53.005983"><ele>471.133270</ele><time>2021-07-17T10:02:25Z</time><extensions><speed>0.284683</speed><course>175.847488</course><hAcc>0.889218</hAcc><vAcc>0.716787</vAcc></extensions></trkpt>
      <trkpt lon="-4.131322" lat="53.005980"><ele>471.246948</ele><time>2021-07-17T10:02:26Z</time><extensions><speed>0.302964</speed><course>182.489380</course><hAcc>0.889090</hAcc><vAcc>0.716376</vAcc></extensions></trkpt>
      <trkpt lon="-4.131321" lat="53.005977"><ele>471.360779</ele><time>2021-07-17T10:02:27Z</time><extensions><speed>0.321973</speed><course>193.224472</course><hAcc>0.888969</hAcc><vAcc>0.715981</vAcc></extensions></trkpt>
      <trkpt lon="-4.131319" lat="53.005974"><ele>471.474762</ele><time>2021-07-17T10:02:28Z</time><extensions><speed>0.339820</speed><course>210.457108</course><hAcc>0.888857</hAcc><vAcc>0.715607</vAcc></extensions></trkpt>
      <trkpt lon="-4.131318" lat="53.005972"><ele>471.588745</ele><time>2021-07-17T10:02:29Z</time><extensions><speed>0.355049</speed><course>227.054108</course><hAcc>0.888756</hAcc><vAcc>0.715260</vAcc></extensions></trkpt>
      <trkpt lon="-4.131316" lat="53.005968"><ele>471.702515</ele><time>2021-07-17T10:02:30Z</time><extensions><speed>0.366808</speed><course>247.666534</course><hAcc>0.888668</hAcc><vAcc>0.714949</vAcc></extensions></trkpt>
      <trkpt lon="-4.131314" lat="53.005965"><ele>471.816040</ele><time>2021-07-17T10:02:31Z</time><extensions><speed>0.374591</speed><course>261.197876</course><hAcc>0.888597</hAcc><vAcc>0.714684</vAcc></extensions></trkpt>
      <trkpt lon="-4.131312" lat="53.005962"><ele>471.929321</ele><time>2021-07-17T10:02:32Z</time><extensions><speed>0.378162</speed><course>263.217255</course><hAcc>0.888544</hAcc><vAcc>0.714477</vAcc></extensions></trkpt>
      <trkpt lon="-4.131310" lat="53.005959"><ele>472.042389</ele><time>2021-07-17T10:02:33Z</time><extensions><speed>0.377621</speed><course>271.463165</course><hAcc>0.888513</hAcc><vAcc>0.714338</vAcc></extensions></trkpt>
      <trkpt lon="-4.131309" lat="53.005956"><ele>472.155609</ele><time>2021-07-17T10:02:34Z</time><extensions><speed>0.373272</speed><course>281.991608</course><hAcc>0.888505</hAcc><vAcc>0.714280</vAcc></extensions></trkpt>
      <trkpt lon="-4.131307" lat="53.005952"><ele>472.269379</ele><time>2021-07-17T10:02:35Z</time><extensions><speed>0.365535</speed><course>285.895782</course><hAcc>0.888522</hAcc><vAcc>0.714311</vAcc></extensions></trkpt>
      <trkpt lon="-4.131306" lat="53.005949"><ele>472.384338</ele><time>2021-07-17T10:02:36Z</time><extensions><speed>0.355098</speed><course>287.327179</course><hAcc>0.888565</hAcc><vAcc>0.714436</vAcc></extensions></trkpt>
      <trkpt lon="-4.131306" lat="53.005946"><ele>472.501221</ele><time>2021-07-17T10:02:37Z</time><extensions><speed>0.343007</speed><course>297.396240</course><hAcc>0.888634</hAcc><vAcc>0.714656</vAcc></extensions></trkpt>
      <trkpt lon="-4.131305" lat="53.005943"><ele>472.620941</ele><time>2021-07-17T10:02:38Z</time><extensions><speed>0.330831</speed><course>299.473175</course><hAcc>0.888731</hAcc><vAcc>0.714963</vAcc></extensions></trkpt>
      <trkpt lon="-4.131306" lat="53.005940"><ele>472.744476</ele><time>2021-07-17T10:02:39Z</time><extensions><speed>0.320620</speed><course>297.683289</course><hAcc>0.888853</hAcc><vAcc>0.715346</vAcc></extensions></trkpt>
      <trkpt lon="-4.131306" lat="53.005937"><ele>472.872864</ele><time>2021-07-17T10:02:41Z</time><extensions><speed>0.314627</speed><course>292.365356</course><hAcc>0.888983</hAcc><vAcc>0.715783</vAcc></extensions></trkpt>
      <trkpt lon="-4.131308" lat="53.005935"><ele>473.006500</ele><time>2021-07-17T10:02:42Z</time><extensions><speed>0.314976</speed><course>291.092651</course><hAcc>0.889115</hAcc><vAcc>0.716264</vAcc></extensions></trkpt>
      <trkpt lon="-4.131310" lat="53.005932"><ele>473.145874</ele><time>2021-07-17T10:02:43Z</time><extensions><speed>0.323089</speed><course>297.007721</course><hAcc>0.889266</hAcc><vAcc>0.716795</vAcc></extensions></trkpt>
      <trkpt lon="-4.131313" lat="53.005930"><ele>473.290863</ele><time>2021-07-17T10:02:44Z</time><extensions><speed>0.338973</speed><course>291.539093</course><hAcc>0.889429</hAcc><vAcc>0.717368</vAcc></extensions></trkpt>
      <trkpt lon="-4.131317" lat="53.005928"><ele>473.441071</ele><time>2021-07-17T10:02:45Z</time><extensions><speed>0.361249</speed><course>293.314819</course><hAcc>0.889600</hAcc><vAcc>0.717973</vAcc></extensions></trkpt>
      <trkpt lon="-4.131321" lat="53.005926"><ele>473.595825</ele><time>2021-07-17T10:02:46Z</time><extensions><speed>0.387795</speed><course>297.043213</course><hAcc>0.889773</hAcc><vAcc>0.718593</vAcc></extensions></trkpt>
      <trkpt lon="-4.131326" lat="53.005924"><ele>473.754425</ele><time>2021-07-17T10:02:47Z</time><extensions><speed>0.416098</speed><course>301.573547</course><hAcc>0.889944</hAcc><vAcc>0.719209</vAcc></extensions></trkpt>
      <trkpt lon="-4.131332" lat="53.005922"><ele>473.916046</ele><time>2021-07-17T10:02:48Z</time><extensions><speed>0.443851</speed><course>305.542847</course><hAcc>0.890108</hAcc><vAcc>0.719797</vAcc></extensions></trkpt>
      <trkpt lon="-4.131338" lat="53.005921"><ele>474.079773</ele><time>2021-07-17T10:02:49Z</time><extensions><speed>0.469056</speed><course>304.461029</course><hAcc>0.890261</hAcc><vAcc>0.720336</vAcc></extensions></trkpt>
      <trkpt lon="-4.131345" lat="53.005919"><ele>474.244934</ele><time>2021-07-17T10:02:50Z</time><extensions><speed>0.490061</speed><course>304.519958</course><hAcc>0.890397</hAcc><vAcc>0.720810</vAcc></extensions></trkpt>
      <trkpt lon="-4.131352" lat="53.005918"><ele>474.411102</ele><time>2021-07-17T10:02:51Z</time><extensions><speed>0.505467</speed><course>306.835541</course><hAcc>0.890513</hAcc><vAcc>0.721207</vAcc></extensions></trkpt>
      <trkpt lon="-4.131360" lat="53.005917"><ele>474.577911</ele><time>2021-07-17T10:02:52Z</time><extensions><speed>0.514283</speed><course>312.924469</course><hAcc>0.890606</hAcc><vAcc>0.721519</vAcc></extensions></trkpt>
      <trkpt lon="-4.131367" lat="53.005916"><ele>474.744965</ele><time>2021-07-17T10:02:53Z</time><extensions><speed>0.516109</speed><course>313.121582</course><hAcc>0.890671</hAcc><vAcc>0.721744</vAcc></extensions></trkpt>
      <trkpt lon="-4.131375" lat="53.005915"><ele>474.911682</ele><time>2021-07-17T10:02:54Z</time><extensions><speed>0.510940</speed><course>312.363678</course><hAcc>0.890709</hAcc><vAcc>0.721875</vAcc></extensions></trkpt>
      <trkpt lon="-4.131382" lat="53.005914"><ele>475.077362</ele><time>2021-07-17T10:02:55Z</time><extensions><speed>0.498867</speed><course>309.905548</course><hAcc>0.890718</hAcc><vAcc>0.721911</vAcc></extensions></trkpt>
      <trkpt lon="-4.131389" lat="53.005913"><ele>475.241211</ele><time>2021-07-17T10:02:56Z</time><extensions><speed>0.480363</speed><course>308.597687</course><hAcc>0.890699</hAcc><vAcc>0.721851</vAcc></extensions></trkpt>
      <trkpt lon="-4.131396" lat="53.005912"><ele>475.402466</ele><time>2021-07-17T10:02:57Z</time><extensions><speed>0.456515</speed><course>307.103394</course><hAcc>0.890654</hAcc><vAcc>0.721697</vAcc></extensions></trkpt>
      <trkpt lon="-4.131402" lat="53.005910"><ele>475.560913</ele><time>2021-07-17T10:02:58Z</time><extensions><speed>0.428893</speed><course>306.897400</course><hAcc>0.890587</hAcc><vAcc>0.721452</vAcc></extensions></trkpt>
      <trkpt lon="-4.131408" lat="53.005909"><ele>475.716675</ele><time>2021-07-17T10:02:59Z</time><extensions><speed>0.399401</speed><course>302.152618</course><hAcc>0.890501</hAcc><vAcc>0.721126</vAcc></extensions></trkpt>
      <trkpt lon="-4.131413" lat="53.005908"><ele>475.870178</ele><time>2021-07-17T10:03:00Z</time><extensions><speed>0.369737</speed><course>297.726410</course><hAcc>0.890402</hAcc><vAcc>0.720735</vAcc></extensions></trkpt>
      <trkpt lon="-4.131418" lat="53.005906"><ele>476.021973</ele><time>2021-07-17T10:03:01Z</time><extensions><speed>0.341000</speed><course>300.194183</course><hAcc>0.890295</hAcc><vAcc>0.720302</vAcc></extensions></trkpt>
      <trkpt lon="-4.131422" lat="53.005905"><ele>476.172607</ele><time>2021-07-17T10:03:02Z</time><extensions><speed>0.314423</speed><course>297.151825</course><hAcc>0.890186</hAcc><vAcc>0.719856</vAcc></extensions></trkpt>
      <trkpt lon="-4.131426" lat="53.005904"><ele>476.322815</ele><time>2021-07-17T10:03:03Z</time><extensions><speed>0.291461</speed><course>298.399384</course><hAcc>0.890080</hAcc><vAcc>0.719426</vAcc></extensions></trkpt>
      <trkpt lon="-4.131429" lat="53.005902"><ele>476.473267</ele><time>2021-07-17T10:03:04Z</time><extensions><speed>0.272913</speed><course>300.837921</course><hAcc>0.889982</hAcc><vAcc>0.719039</vAcc></extensions></trkpt>
      <trkpt lon="-4.131432" lat="53.005901"><ele>476.624756</ele><time>2021-07-17T10:03:05Z</time><extensions><speed>0.258526</speed><course>299.844330</course><hAcc>0.889896</hAcc><vAcc>0.718716</vAcc></extensions></trkpt>
      <trkpt lon="-4.131435" lat="53.005899"><ele>476.777679</ele><time>2021-07-17T10:03:06Z</time><extensions><speed>0.247243</speed><course>300.001373</course><hAcc>0.889827</hAcc><vAcc>0.718473</vAcc></extensions></trkpt>
      <trkpt lon="-4.131438" lat="53.005897"><ele>476.932129</ele><time>2021-07-17T10:03:07Z</time><extensions><speed>0.237840</speed><course>294.568817</course><hAcc>0.889776</hAcc><vAcc>0.718315</vAcc></extensions></trkpt>
      <trkpt lon="-4.131440" lat="53.005896"><ele>477.087738</ele><time>2021-07-17T10:03:08Z</time><extensions><speed>0.229445</speed><course>300.687103</course><hAcc>0.889745</hAcc><vAcc>0.718241</vAcc></extensions></trkpt>
      <trkpt lon="-4.131442" lat="53.005894"><ele>477.244110</ele><time>2021-07-17T10:03:09Z</time><extensions><speed>0.221903</speed><course>297.691925</course><hAcc>0.889733</hAcc><vAcc>0.718244</vAcc></extensions></trkpt>
      <trkpt lon="-4.131444" lat="53.005893"><ele>477.401184</ele><time>2021-07-17T10:03:10Z</time><extensions><speed>0.215496</speed><course>293.928223</course><hAcc>0.889740</hAcc><vAcc>0.718312</vAcc></extensions></trkpt>
      <trkpt lon="-4.131446" lat="53.005891"><ele>477.559326</ele><time>2021-07-17T10:03:11Z</time><extensions><speed>0.210596</speed><course>297.041656</course><hAcc>0.889764</hAcc><vAcc>0.718433</vAcc></extensions></trkpt>
      <trkpt lon="-4.131448" lat="53.005890"><ele>477.719025</ele><time>2021-07-17T10:03:12Z</time><extensions><speed>0.207219</speed><course>298.722290</course><hAcc>0.889800</hAcc><vAcc>0.718595</vAcc></extensions></trkpt>
      <trkpt lon="-4.131450" lat="53.005889"><ele>477.880676</ele><time>2021-07-17T10:03:13Z</time><extensions><speed>0.205267</speed><course>296.674316</course><hAcc>0.889847</hAcc><vAcc>0.718784</vAcc></extensions></trkpt>
      <trkpt lon="-4.131453" lat="53.005887"><ele>478.044647</ele><time>2021-07-17T10:03:14Z</time><extensions><speed>0.205123</speed><course>301.147156</course><hAcc>0.889900</hAcc><vAcc>0.718986</vAcc></extensions></trkpt>
      <trkpt lon="-4.131455" lat="53.005886"><ele>478.211090</ele><time>2021-07-17T10:03:15Z</time><extensions><speed>0.206925</speed><course>301.618805</course><hAcc>0.889956</hAcc><vAcc>0.719191</vAcc></extensions></trkpt>
      <trkpt lon="-4.131458" lat="53.005885"><ele>478.379547</ele><time>2021-07-17T10:03:16Z</time><extensions><speed>0.210324</speed><course>300.678009</course><hAcc>0.890013</hAcc><vAcc>0.719390</vAcc></extensions></trkpt>
      <trkpt lon="-4.131461" lat="53.005884"><ele>478.548401</ele><time>2021-07-17T10:03:17Z</time><extensions><speed>0.215155</speed><course>306.078644</course><hAcc>0.890068</hAcc><vAcc>0.719578</vAcc></extensions></trkpt>
      <trkpt lon="-4.131464" lat="53.005884"><ele>478.714905</ele><time>2021-07-17T10:03:18Z</time><extensions><speed>0.220871</speed><course>302.099213</course><hAcc>0.890118</hAcc><vAcc>0.719751</vAcc></extensions></trkpt>
      <trkpt lon="-4.131467" lat="53.005883"><ele>478.876312</ele><time>2021-07-17T10:03:19Z</time><extensions><speed>0.226485</speed><course>298.253754</course><hAcc>0.890162</hAcc><vAcc>0.719902</vAcc></extensions></trkpt>
      <trkpt lon="-4.131470" lat="53.005883"><ele>479.029877</ele><time>2021-07-17T10:03:20Z</time><extensions><speed>0.231796</speed><course>299.772583</course><hAcc>0.890199</hAcc><vAcc>0.720028</vAcc></extensions></trkpt>
      <trkpt lon="-4.131474" lat="53.005882"><ele>479.172668</ele><time>2021-07-17T10:03:21Z</time><extensions><speed>0.237088</speed><course>299.946075</course><hAcc>0.890229</hAcc><vAcc>0.720127</vAcc></extensions></trkpt>
      <trkpt lon="-4.131477" lat="53.005882"><ele>479.302460</ele><time>2021-07-17T10:03:22Z</time><extensions><speed>0.242659</speed><course>303.968170</course><hAcc>0.890252</hAcc><vAcc>0.720197</vAcc></extensions></trkpt>
      <trkpt lon="-4.131481" lat="53.005883"><ele>479.417969</ele><time>2021-07-17T10:03:23Z</time><extensions><speed>0.248684</speed><course>302.223755</course><hAcc>0.890268</hAcc><vAcc>0.720240</vAcc></extensions></trkpt>
      <trkpt lon="-4.131485" lat="53.005883"><ele>479.518768</ele><time>2021-07-17T10:03:24Z</time><extensions><speed>0.255071</speed><course>303.590851</course><hAcc>0.890280</hAcc><vAcc>0.720255</vAcc></extensions></trkpt>
      <trkpt lon="-4.131488" lat="53.005883"><ele>479.605072</ele><time>2021-07-17T10:03:25Z</time><extensions><speed>0.261304</speed><course>302.656281</course><hAcc>0.890287</hAcc><vAcc>0.720248</vAcc></extensions></trkpt>
      <trkpt lon="-4.131492" lat="53.005884"><ele>479.677582</ele><time>2021-07-17T10:03:26Z</time><extensions><speed>0.266470</speed><course>307.857574</course><hAcc>0.890291</hAcc><vAcc>0.720229</vAcc></extensions></trkpt>
      <trkpt lon="-4.131496" lat="53.005885"><ele>479.737305</ele><time>2021-07-17T10:03:27Z</time><extensions><speed>0.269648</speed><course>306.241272</course><hAcc>0.890293</hAcc><vAcc>0.720206</vAcc></extensions></trkpt>
      <trkpt lon="-4.131500" lat="53.005885"><ele>479.785217</ele><time>2021-07-17T10:03:28Z</time><extensions><speed>0.270107</speed><course>302.560516</course><hAcc>0.890294</hAcc><vAcc>0.720187</vAcc></extensions></trkpt>
      <trkpt lon="-4.131504" lat="53.005886"><ele>479.822296</ele><time>2021-07-17T10:03:29Z</time><extensions><speed>0.267082</speed><course>304.207947</course><hAcc>0.890292</hAcc><vAcc>0.720176</vAcc></extensions></trkpt>
      <trkpt lon="-4.131507" lat="53.005887"><ele>479.849640</ele><time>2021-07-17T10:03:30Z</time><extensions><speed>0.259737</speed><course>304.678192</course><hAcc>0.890289</hAcc><vAcc>0.720174</vAcc></extensions></trkpt>
      <trkpt lon="-4.131511" lat="53.005887"><ele>479.868347</ele><time>2021-07-17T10:03:31Z</time><extensions><speed>0.247334</speed><course>300.816559</course><hAcc>0.890284</hAcc><vAcc>0.720179</vAcc></extensions></trkpt>
      <trkpt lon="-4.131514" lat="53.005888"><ele>479.879150</ele><time>2021-07-17T10:03:32Z</time><extensions><speed>0.229655</speed><course>302.457642</course><hAcc>0.890274</hAcc><vAcc>0.720184</vAcc></extensions></trkpt>
      <trkpt lon="-4.131518" lat="53.005888"><ele>479.882446</ele><time>2021-07-17T10:03:33Z</time><extensions><speed>0.207646</speed><course>303.405792</course><hAcc>0.890258</hAcc><vAcc>0.720177</vAcc></extensions></trkpt>
      <trkpt lon="-4.131521" lat="53.005888"><ele>479.878967</ele><time>2021-07-17T10:03:34Z</time><extensions><speed>0.182809</speed><course>305.179382</course><hAcc>0.890234</hAcc><vAcc>0.720147</vAcc></extensions></trkpt>
      <trkpt lon="-4.131523" lat="53.005888"><ele>479.870117</ele><time>2021-07-17T10:03:35Z</time><extensions><speed>0.157359</speed><course>301.811188</course><hAcc>0.890199</hAcc><vAcc>0.720080</vAcc></extensions></trkpt>
      <trkpt lon="-4.131525" lat="53.005888"><ele>479.857635</ele><time>2021-07-17T10:03:36Z</time><extensions><speed>0.134088</speed><course>294.111877</course><hAcc>0.890151</hAcc><vAcc>0.719966</vAcc></extensions></trkpt>
      <trkpt lon="-4.131527" lat="53.005888"><ele>479.843414</ele><time>2021-07-17T10:03:37Z</time><extensions><speed>0.115318</speed><course>291.186249</course><hAcc>0.890087</hAcc><vAcc>0.719795</vAcc></extensions></trkpt>
      <trkpt lon="-4.131529" lat="53.005888"><ele>479.829437</ele><time>2021-07-17T10:03:38Z</time><extensions><speed>0.102850</speed><course>291.833313</course><hAcc>0.890007</hAcc><vAcc>0.719561</vAcc></extensions></trkpt>
      <trkpt lon="-4.131530" lat="53.005887"><ele>479.817596</ele><time>2021-07-17T10:03:39Z</time><extensions><speed>0.097783</speed><course>293.198639</course><hAcc>0.889911</hAcc><vAcc>0.719259</vAcc></extensions></trkpt>
      <trkpt lon="-4.131531" lat="53.005887"><ele>479.809906</ele><time>2021-07-17T10:03:40Z</time><extensions><speed>0.099821</speed><course>297.953094</course><hAcc>0.889798</hAcc><vAcc>0.718890</vAcc></extensions></trkpt>
      <trkpt lon="-4.131532" lat="53.005886"><ele>479.808105</ele><time>2021-07-17T10:03:41Z</time><extensions><speed>0.107333</speed><course>294.998413</course><hAcc>0.889672</hAcc><vAcc>0.718457</vAcc></extensions></trkpt>
      <trkpt lon="-4.131533" lat="53.005885"><ele>479.813812</ele><time>2021-07-17T10:03:42Z</time><extensions><speed>0.118507</speed><course>290.333923</course><hAcc>0.889535</hAcc><vAcc>0.717973</vAcc></extensions></trkpt>
      <trkpt lon="-4.131533" lat="53.005884"><ele>479.828461</ele><time>2021-07-17T10:03:43Z</time><extensions><speed>0.131892</speed><course>297.336884</course><hAcc>0.889391</hAcc><vAcc>0.717456</vAcc></extensions></trkpt>
      <trkpt lon="-4.131534" lat="53.005883"><ele>479.853455</ele><time>2021-07-17T10:03:44Z</time><extensions><speed>0.146324</speed><course>291.763641</course><hAcc>0.889246</hAcc><vAcc>0.716926</vAcc></extensions></trkpt>
      <trkpt lon="-4.131535" lat="53.005882"><ele>479.889648</ele><time>2021-07-17T10:03:45Z</time><extensions><speed>0.160871</speed><course>293.588959</course><hAcc>0.889106</hAcc><vAcc>0.716405</vAcc></extensions></trkpt>
      <trkpt lon="-4.131535" lat="53.005880"><ele>479.937378</ele><time>2021-07-17T10:03:46Z</time><extensions><speed>0.175108</speed><course>298.534668</course><hAcc>0.888979</hAcc><vAcc>0.715914</vAcc></extensions></trkpt>
      <trkpt lon="-4.131536" lat="53.005879"><ele>479.996643</ele><time>2021-07-17T10:03:47Z</time><extensions><speed>0.189039</speed><course>294.834351</course><hAcc>0.888870</hAcc><vAcc>0.715479</vAcc></extensions></trkpt>
      <trkpt lon="-4.131537" lat="53.005877"><ele>480.067139</ele><time>2021-07-17T10:03:48Z</time><extensions><speed>0.202821</speed><course>297.698059</course><hAcc>0.888787</hAcc><vAcc>0.715126</vAcc></extensions></trkpt>
      <trkpt lon="-4.131539" lat="53.005875"><ele>480.148315</ele><time>2021-07-17T10:03:49Z</time><extensions><speed>0.216413</speed><course>298.511444</course><hAcc>0.888734</hAcc><vAcc>0.714885</vAcc></extensions></trkpt>
      <trkpt lon="-4.131540" lat="53.005873"><ele>480.239563</ele><time>2021-07-17T10:03:50Z</time><extensions><speed>0.229350</speed><course>303.054443</course><hAcc>0.888714</hAcc><vAcc>0.714778</vAcc></extensions></trkpt>
      <trkpt lon="-4.131541" lat="53.005872"><ele>480.339996</ele><time>2021-07-17T10:03:51Z</time><extensions><speed>0.241491</speed><course>300.594757</course><hAcc>0.888730</hAcc><vAcc>0.714822</vAcc></extensions></trkpt>
      <trkpt lon="-4.131543" lat="53.005870"><ele>480.448883</ele><time>2021-07-17T10:03:52Z</time><extensions><speed>0.252994</speed><course>303.489990</course><hAcc>0.888781</hAcc><vAcc>0.715015</vAcc></extensions></trkpt>
      <trkpt lon="-4.131545" lat="53.005868"><ele>480.565338</ele><time>2021-07-17T10:03:53Z</time><extensions><speed>0.263503</speed><course>307.296783</course><hAcc>0.888865</hAcc><vAcc>0.715347</vAcc></extensions></trkpt>
      <trkpt lon="-4.131548" lat="53.005866"><ele>480.688416</ele><time>2021-07-17T10:03:54Z</time><extensions><speed>0.272579</speed><course>306.846466</course><hAcc>0.888978</hAcc><vAcc>0.715793</vAcc></extensions></trkpt>
      <trkpt lon="-4.131550" lat="53.005864"><ele>480.816925</ele><time>2021-07-17T10:03:55Z</time><extensions><speed>0.279840</speed><course>314.303711</course><hAcc>0.889115</hAcc><vAcc>0.716319</vAcc></extensions></trkpt>
      <trkpt lon="-4.131552" lat="53.005862"><ele>480.949646</ele><time>2021-07-17T10:03:56Z</time><extensions><speed>0.284674</speed><course>316.753265</course><hAcc>0.889268</hAcc><vAcc>0.716891</vAcc></extensions></trkpt>
      <trkpt lon="-4.131555" lat="53.005859"><ele>481.085510</ele><time>2021-07-17T10:03:57Z</time><extensions><speed>0.286379</speed><course>312.101562</course><hAcc>0.889430</hAcc><vAcc>0.717479</vAcc></extensions></trkpt>
      <trkpt lon="-4.131557" lat="53.005857"><ele>481.223328</ele><time>2021-07-17T10:03:58Z</time><extensions><speed>0.284152</speed><course>310.983948</course><hAcc>0.889593</hAcc><vAcc>0.718054</vAcc></extensions></trkpt>
      <trkpt lon="-4.131560" lat="53.005855"><ele>481.361694</ele><time>2021-07-17T10:03:59Z</time><extensions><speed>0.277382</speed><course>316.824890</course><hAcc>0.889731</hAcc><vAcc>0.718580</vAcc></extensions></trkpt>
      <trkpt lon="-4.131562" lat="53.005853"><ele>481.498291</ele><time>2021-07-17T10:04:00Z</time><extensions><speed>0.266727</speed><course>324.005005</course><hAcc>0.889836</hAcc><vAcc>0.719030</vAcc></extensions></trkpt>
      <trkpt lon="-4.131564" lat="53.005851"><ele>481.631256</ele><time>2021-07-17T10:04:01Z</time><extensions><speed>0.253837</speed><course>322.091736</course><hAcc>0.889922</hAcc><vAcc>0.719391</vAcc></extensions></trkpt>
      <trkpt lon="-4.131566" lat="53.005849"><ele>481.759216</ele><time>2021-07-17T10:04:02Z</time><extensions><speed>0.240434</speed><course>322.830170</course><hAcc>0.889984</hAcc><vAcc>0.719641</vAcc></extensions></trkpt>
      <trkpt lon="-4.131567" lat="53.005847"><ele>481.881622</ele><time>2021-07-17T10:04:03Z</time><extensions><speed>0.228221</speed><course>325.823517</course><hAcc>0.890018</hAcc><vAcc>0.719767</vAcc></extensions></trkpt>
      <trkpt lon="-4.131567" lat="53.005845"><ele>481.998352</ele><time>2021-07-17T10:04:04Z</time><extensions><speed>0.218605</speed><course>331.853210</course><hAcc>0.890023</hAcc><vAcc>0.719765</vAcc></extensions></trkpt>
      <trkpt lon="-4.131568" lat="53.005843"><ele>482.109741</ele><time>2021-07-17T10:04:05Z</time><extensions><speed>0.212939</speed><course>331.260956</course><hAcc>0.890000</hAcc><vAcc>0.719641</vAcc></extensions></trkpt>
      <trkpt lon="-4.131568" lat="53.005841"><ele>482.216461</ele><time>2021-07-17T10:04:06Z</time><extensions><speed>0.212210</speed><course>329.072571</course><hAcc>0.889950</hAcc><vAcc>0.719413</vAcc></extensions></trkpt>
      <trkpt lon="-4.131567" lat="53.005840"><ele>482.319550</ele><time>2021-07-17T10:04:07Z</time><extensions><speed>0.216318</speed><course>325.473938</course><hAcc>0.889875</hAcc><vAcc>0.719104</vAcc></extensions></trkpt>
      <trkpt lon="-4.131566" lat="53.005838"><ele>482.420135</ele><time>2021-07-17T10:04:08Z</time><extensions><speed>0.224484</speed><course>325.383026</course><hAcc>0.889779</hAcc><vAcc>0.718738</vAcc></extensions></trkpt>
      <trkpt lon="-4.131565" lat="53.005836"><ele>482.519348</ele><time>2021-07-17T10:04:09Z</time><extensions><speed>0.235632</speed><course>325.061401</course><hAcc>0.889665</hAcc><vAcc>0.718337</vAcc></extensions></trkpt>
      <trkpt lon="-4.131564" lat="53.005834"><ele>482.618439</ele><time>2021-07-17T10:04:10Z</time><extensions><speed>0.248310</speed><course>325.207275</course><hAcc>0.889538</hAcc><vAcc>0.717913</vAcc></extensions></trkpt>
      <trkpt lon="-4.131562" lat="53.005832"><ele>482.718506</ele><time>2021-07-17T10:04:11Z</time><extensions><speed>0.261010</speed><course>322.410889</course><hAcc>0.889403</hAcc><vAcc>0.717476</vAcc></extensions></trkpt>
      <trkpt lon="-4.131561" lat="53.005829"><ele>482.820435</ele><time>2021-07-17T10:04:12Z</time><extensions><speed>0.272485</speed><course>319.218658</course><hAcc>0.889264</hAcc><vAcc>0.717031</vAcc></extensions></trkpt>
      <trkpt lon="-4.131559" lat="53.005827"><ele>482.924744</ele><time>2021-07-17T10:04:13Z</time><extensions><speed>0.281591</speed><course>319.790588</course><hAcc>0.889126</hAcc><vAcc>0.716587</vAcc></extensions></trkpt>
      <trkpt lon="-4.131557" lat="53.005825"><ele>483.031403</ele><time>2021-07-17T10:04:14Z</time><extensions><speed>0.287887</speed><course>318.972229</course><hAcc>0.888991</hAcc><vAcc>0.716152</vAcc></extensions></trkpt>
      <trkpt lon="-4.131556" lat="53.005822"><ele>483.139984</ele><time>2021-07-17T10:04:15Z</time><extensions><speed>0.291895</speed><course>320.354065</course><hAcc>0.888860</hAcc><vAcc>0.715745</vAcc></extensions></trkpt>
      <trkpt lon="-4.131555" lat="53.005820"><ele>483.249664</ele><time>2021-07-17T10:04:16Z</time><extensions><speed>0.294359</speed><course>320.541016</course><hAcc>0.888734</hAcc><vAcc>0.715383</vAcc></extensions></trkpt>
      <trkpt lon="-4.131554" lat="53.005817"><ele>483.359314</ele><time>2021-07-17T10:04:16Z</time><extensions><speed>0.296129</speed><course>317.906189</course><hAcc>0.888648</hAcc><vAcc>0.715107</vAcc></extensions></trkpt>
      <trkpt lon="-4.131554" lat="53.005815"><ele>483.468842</ele><time>2021-07-17T10:04:17Z</time><extensions><speed>0.297913</speed><course>316.077393</course><hAcc>0.888603</hAcc><vAcc>0.714921</vAcc></extensions></trkpt>
      <trkpt lon="-4.131553" lat="53.005812"><ele>483.577972</ele><time>2021-07-17T10:04:18Z</time><extensions><speed>0.299982</speed><course>307.356537</course><hAcc>0.888564</hAcc><vAcc>0.714797</vAcc></extensions></trkpt>
      <trkpt lon="-4.131553" lat="53.005809"><ele>483.686798</ele><time>2021-07-17T10:04:19Z</time><extensions><speed>0.302039</speed><course>302.004150</course><hAcc>0.888533</hAcc><vAcc>0.714716</vAcc></extensions></trkpt>
      <trkpt lon="-4.131554" lat="53.005806"><ele>483.795410</ele><time>2021-07-17T10:04:20Z</time><extensions><speed>0.303012</speed><course>310.520874</course><hAcc>0.888512</hAcc><vAcc>0.714659</vAcc></extensions></trkpt>
      <trkpt lon="-4.131554" lat="53.005804"><ele>483.904022</ele><time>2021-07-17T10:04:21Z</time><extensions><speed>0.301862</speed><course>307.778412</course><hAcc>0.888503</hAcc><vAcc>0.714614</vAcc></extensions></trkpt>
      <trkpt lon="-4.131554" lat="53.005801"><ele>484.012848</ele><time>2021-07-17T10:04:22Z</time><extensions><speed>0.298072</speed><course>310.132080</course><hAcc>0.888508</hAcc><vAcc>0.714580</vAcc></extensions></trkpt>
      <trkpt lon="-4.131555" lat="53.005798"><ele>484.121948</ele><time>2021-07-17T10:04:23Z</time><extensions><speed>0.291538</speed><course>310.327301</course><hAcc>0.888529</hAcc><vAcc>0.714569</vAcc></extensions></trkpt>
      <trkpt lon="-4.131556" lat="53.005796"><ele>484.230774</ele><time>2021-07-17T10:04:24Z</time><extensions><speed>0.282664</speed><course>308.925873</course><hAcc>0.888566</hAcc><vAcc>0.714600</vAcc></extensions></trkpt>
      <trkpt lon="-4.131556" lat="53.005793"><ele>484.338928</ele><time>2021-07-17T10:04:25Z</time><extensions><speed>0.272179</speed><course>308.955322</course><hAcc>0.888621</hAcc><vAcc>0.714698</vAcc></extensions></trkpt>
      <trkpt lon="-4.131557" lat="53.005791"><ele>484.446289</ele><time>2021-07-17T10:04:26Z</time><extensions><speed>0.261035</speed><course>303.152588</course><hAcc>0.888694</hAcc><vAcc>0.714882</vAcc></extensions></trkpt>
      <trkpt lon="-4.131558" lat="53.005789"><ele>484.552795</ele><time>2021-07-17T10:04:27Z</time><extensions><speed>0.250410</speed><course>313.156525</course><hAcc>0.888787</hAcc><vAcc>0.715164</vAcc></extensions></trkpt>
      <trkpt lon="-4.131560" lat="53.005787"><ele>484.658020</ele><time>2021-07-17T10:04:28Z</time><extensions><speed>0.241373</speed><course>307.864197</course><hAcc>0.888897</hAcc><vAcc>0.715545</vAcc></extensions></trkpt>
      <trkpt lon="-4.131561" lat="53.005785"><ele>484.761200</ele><time>2021-07-17T10:04:29Z</time><extensions><speed>0.233891</speed><course>309.541687</course><hAcc>0.889021</hAcc><vAcc>0.716014</vAcc></extensions></trkpt>
      <trkpt lon="-4.131563" lat="53.005783"><ele>484.861298</ele><time>2021-07-17T10:04:30Z</time><extensions><speed>0.226419</speed><course>312.130341</course><hAcc>0.889156</hAcc><vAcc>0.716548</vAcc></extensions></trkpt>
      <trkpt lon="-4.131566" lat="53.005782"><ele>484.956543</ele><time>2021-07-17T10:04:31Z</time><extensions><speed>0.217044</speed><course>310.268982</course><hAcc>0.889297</hAcc><vAcc>0.717115</vAcc></extensions></trkpt>
      <trkpt lon="-4.131568" lat="53.005781"><ele>485.044556</ele><time>2021-07-17T10:04:32Z</time><extensions><speed>0.204703</speed><course>308.247070</course><hAcc>0.889437</hAcc><vAcc>0.717679</vAcc></extensions></trkpt>
      <trkpt lon="-4.131570" lat="53.005779"><ele>485.123474</ele><time>2021-07-17T10:04:33Z</time><extensions><speed>0.189487</speed><course>304.229858</course><hAcc>0.889573</hAcc><vAcc>0.718205</vAcc></extensions></trkpt>
      <trkpt lon="-4.131572" lat="53.005779"><ele>485.192474</ele><time>2021-07-17T10:04:34Z</time><extensions><speed>0.172125</speed><course>308.310059</course><hAcc>0.889699</hAcc><vAcc>0.718663</vAcc></extensions></trkpt>
      <trkpt lon="-4.131575" lat="53.005778"><ele>485.251556</ele><time>2021-07-17T10:04:35Z</time><extensions><speed>0.153410</speed><course>311.142822</course><hAcc>0.889809</hAcc><vAcc>0.719035</vAcc></extensions></trkpt>
      <trkpt lon="-4.131577" lat="53.005777"><ele>485.301056</ele><time>2021-07-17T10:04:36Z</time><extensions><speed>0.134158</speed><course>305.518036</course><hAcc>0.889901</hAcc><vAcc>0.719316</vAcc></extensions></trkpt>
      <trkpt lon="-4.131578" lat="53.005777"><ele>485.341644</ele><time>2021-07-17T10:04:37Z</time><extensions><speed>0.115343</speed><course>303.061462</course><hAcc>0.889973</hAcc><vAcc>0.719507</vAcc></extensions></trkpt>
      <trkpt lon="-4.131580" lat="53.005777"><ele>485.373901</ele><time>2021-07-17T10:04:38Z</time><extensions><speed>0.097821</speed><course>298.232086</course><hAcc>0.890024</hAcc><vAcc>0.719617</vAcc></extensions></trkpt>
      <trkpt lon="-4.131581" lat="53.005777"><ele>485.398773</ele><time>2021-07-17T10:04:39Z</time><extensions><speed>0.082315</speed><course>289.358276</course><hAcc>0.890056</hAcc><vAcc>0.719657</vAcc></extensions></trkpt>
      <trkpt lon="-4.131582" lat="53.005777"><ele>485.417389</ele><time>2021-07-17T10:04:40Z</time><extensions><speed>0.069558</speed><course>285.924469</course><hAcc>0.890069</hAcc><vAcc>0.719643</vAcc></extensions></trkpt>
      <trkpt lon="-4.131583" lat="53.005777"><ele>485.431030</ele><time>2021-07-17T10:04:41Z</time><extensions><speed>0.060012</speed><course>280.520447</course><hAcc>0.890067</hAcc><vAcc>0.719591</vAcc></extensions></trkpt>
      <trkpt lon="-4.131584" lat="53.005777"><ele>485.440857</ele><time>2021-07-17T10:04:42Z</time><extensions><speed>0.053328</speed><course>286.862061</course><hAcc>0.890053</hAcc><vAcc>0.719514</vAcc></extensions></trkpt>
      <trkpt lon="-4.131585" lat="53.005777"><ele>485.447876</ele><time>2021-07-17T10:04:43Z</time><extensions><speed>0.048333</speed><course>295.700317</course><hAcc>0.890031</hAcc><vAcc>0.719421</vAcc></extensions></trkpt>
      <trkpt lon="-4.131585" lat="53.005777"><ele>485.452789</ele><time>2021-07-17T10:04:44Z</time><extensions><speed>0.043847</speed><course>296.161560</course><hAcc>0.890006</hAcc><vAcc>0.719318</vAcc></extensions></trkpt>
      <trkpt lon="-4.131586" lat="53.005777"><ele>485.455963</ele><time>2021-07-17T10:04:45Z</time><extensions><speed>0.039188</speed><course>298.229218</course><hAcc>0.889980</hAcc><vAcc>0.719210</vAcc></extensions></trkpt>
      <trkpt lon="-4.131587" lat="53.005778"><ele>485.457397</ele><time>2021-07-17T10:04:46Z</time><extensions><speed>0.033998</speed><course>297.545471</course><hAcc>0.889958</hAcc><vAcc>0.719108</vAcc></extensions></trkpt>
      <trkpt lon="-4.131587" lat="53.005778"><ele>485.457184</ele><time>2021-07-17T10:04:47Z</time><extensions><speed>0.028056</speed><course>292.454163</course><hAcc>0.889942</hAcc><vAcc>0.719021</vAcc></extensions></trkpt>
      <trkpt lon="-4.131587" lat="53.005778"><ele>485.455597</ele><time>2021-07-17T10:04:48Z</time><extensions><speed>0.021575</speed><course>287.195465</course><hAcc>0.889934</hAcc><vAcc>0.718963</vAcc></extensions></trkpt>
      <trkpt lon="-4.131587" lat="53.005778"><ele>485.452881</ele><time>2021-07-17T10:04:49Z</time><extensions><speed>0.015165</speed><course>283.339600</course><hAcc>0.889935</hAcc><vAcc>0.718943</vAcc></extensions></trkpt>
      <trkpt lon="-4.131588" lat="53.005778"><ele>485.449249</ele><time>2021-07-17T10:04:50Z</time><extensions><speed>0.009361</speed><course>283.687531</course><hAcc>0.889944</hAcc><vAcc>0.718969</vAcc></extensions></trkpt>
      <trkpt lon="-4.131588" lat="53.005778"><ele>485.444916</ele><time>2021-07-17T10:04:51Z</time><extensions><speed>0.004486</speed><course>284.089417</course><hAcc>0.889964</hAcc><vAcc>0.719041</vAcc></extensions></trkpt>
      <trkpt lon="-4.131588" lat="53.005778"><ele>485.440063</ele><time>2021-07-17T10:04:52Z</time><extensions><speed>0.000797</speed><course>286.432800</course><hAcc>0.889990</hAcc><vAcc>0.719154</vAcc></extensions></trkpt>
      <trkpt lon="-4.131588" lat="53.005778"><ele>485.434967</ele><time>2021-07-17T10:04:53Z</time><extensions><speed>0.001963</speed><course>288.844025</course><hAcc>0.890023</hAcc><vAcc>0.719299</vAcc></extensions></trkpt>
      <trkpt lon="-4.131588" lat="53.005778"><ele>485.429993</ele><time>2021-07-17T10:04:54Z</time><extensions><speed>0.003817</speed><course>294.600861</course><hAcc>0.890059</hAcc><vAcc>0.719465</vAcc></extensions></trkpt>
      <trkpt lon="-4.131588" lat="53.005778"><ele>485.425629</ele><time>2021-07-17T10:04:55Z</time><extensions><speed>0.005228</speed><course>289.399475</course><hAcc>0.890096</hAcc><vAcc>0.719635</vAcc></extensions></trkpt>
      <trkpt lon="-4.131588" lat="53.005778"><ele>485.422363</ele><time>2021-07-17T10:04:56Z</time><extensions><speed>0.006314</speed><course>292.462738</course><hAcc>0.890128</hAcc><vAcc>0.719792</vAcc></extensions></trkpt>
      <trkpt lon="-4.131588" lat="53.005778"><ele>485.420715</ele><time>2021-07-17T10:04:57Z</time><extensions><speed>0.007350</speed><course>292.044128</course><hAcc>0.890154</hAcc><vAcc>0.719922</vAcc></extensions></trkpt>
      <trkpt lon="-4.131588" lat="53.005778"><ele>485.421204</ele><time>2021-07-17T10:04:58Z</time><extensions><speed>0.008519</speed><course>289.426849</course><hAcc>0.890170</hAcc><vAcc>0.720011</vAcc></extensions></trkpt>
      <trkpt lon="-4.131588" lat="53.005778"><ele>485.424255</ele><time>2021-07-17T10:04:59Z</time><extensions><speed>0.009591</speed><course>292.821838</course><hAcc>0.890172</hAcc><vAcc>0.720047</vAcc></extensions></trkpt>
      <trkpt lon="-4.131588" lat="53.005778"><ele>485.430145</ele><time>2021-07-17T10:05:00Z</time><extensions><speed>0.010154</speed><course>287.405121</course><hAcc>0.890159</hAcc><vAcc>0.720022</vAcc></extensions></trkpt>
      <trkpt lon="-4.131588" lat="53.005777"><ele>485.438843</ele><time>2021-07-17T10:05:01Z</time><extensions><speed>0.010026</speed><course>289.328461</course><hAcc>0.890130</hAcc><vAcc>0.719929</vAcc></extensions></trkpt>
      <trkpt lon="-4.131588" lat="53.005777"><ele>485.450256</ele><time>2021-07-17T10:05:02Z</time><extensions><speed>0.009409</speed><course>290.686554</course><hAcc>0.890086</hAcc><vAcc>0.719769</vAcc></extensions></trkpt>
      <trkpt lon="-4.131588" lat="53.005777"><ele>485.464233</ele><time>2021-07-17T10:05:03Z</time><extensions><speed>0.008704</speed><course>291.519623</course><hAcc>0.890028</hAcc><vAcc>0.719546</vAcc></extensions></trkpt>
      <trkpt lon="-4.131588" lat="53.005777"><ele>485.480438</ele><time>2021-07-17T10:05:04Z</time><extensions><speed>0.008278</speed><course>289.260345</course><hAcc>0.889958</hAcc><vAcc>0.719268</vAcc></extensions></trkpt>
      <trkpt lon="-4.131588" lat="53.005777"><ele>485.498413</ele><time>2021-07-17T10:05:05Z</time><extensions><speed>0.008404</speed><course>291.671295</course><hAcc>0.889881</hAcc><vAcc>0.718948</vAcc></extensions></trkpt>
      <trkpt lon="-4.131588" lat="53.005777"><ele>485.517639</ele><time>2021-07-17T10:05:06Z</time><extensions><speed>0.009161</speed><course>285.797272</course><hAcc>0.889801</hAcc><vAcc>0.718603</vAcc></extensions></trkpt>
      <trkpt lon="-4.131587" lat="53.005777"><ele>485.537628</ele><time>2021-07-17T10:05:07Z</time><extensions><speed>0.010316</speed><course>284.045776</course><hAcc>0.889723</hAcc><vAcc>0.718252</vAcc></extensions></trkpt>
      <trkpt lon="-4.131587" lat="53.005777"><ele>485.557831</ele><time>2021-07-17T10:05:09Z</time><extensions><speed>0.011649</speed><course>290.744446</course><hAcc>0.889635</hAcc><vAcc>0.717905</vAcc></extensions></trkpt>
      <trkpt lon="-4.131587" lat="53.005777"><ele>485.577576</ele><time>2021-07-17T10:05:10Z</time><extensions><speed>0.013037</speed><course>286.155334</course><hAcc>0.889541</hAcc><vAcc>0.717580</vAcc></extensions></trkpt>
      <trkpt lon="-4.131587" lat="53.005777"><ele>485.596283</ele><time>2021-07-17T10:05:11Z</time><extensions><speed>0.014461</speed><course>292.078705</course><hAcc>0.889463</hAcc><vAcc>0.717308</vAcc></extensions></trkpt>
      <trkpt lon="-4.131587" lat="53.005777"><ele>485.613342</ele><time>2021-07-17T10:05:12Z</time><extensions><speed>0.015962</speed><course>292.906311</course><hAcc>0.889404</hAcc><vAcc>0.717104</vAcc></extensions></trkpt>
      <trkpt lon="-4.131587" lat="53.005777"><ele>485.628265</ele><time>2021-07-17T10:05:13Z</time><extensions><speed>0.017603</speed><course>291.462067</course><hAcc>0.889366</hAcc><vAcc>0.716979</vAcc></extensions></trkpt>
      <trkpt lon="-4.131587" lat="53.005776"><ele>485.640808</ele><time>2021-07-17T10:05:14Z</time><extensions><speed>0.019513</speed><course>290.448425</course><hAcc>0.889350</hAcc><vAcc>0.716938</vAcc></extensions></trkpt>
      <trkpt lon="-4.131586" lat="53.005776"><ele>485.650909</ele><time>2021-07-17T10:05:15Z</time><extensions><speed>0.021708</speed><course>295.857269</course><hAcc>0.889356</hAcc><vAcc>0.716984</vAcc></extensions></trkpt>
      <trkpt lon="-4.131586" lat="53.005776"><ele>485.658569</ele><time>2021-07-17T10:05:16Z</time><extensions><speed>0.024137</speed><course>298.185364</course><hAcc>0.889382</hAcc><vAcc>0.717113</vAcc></extensions></trkpt>
      <trkpt lon="-4.131586" lat="53.005776"><ele>485.664032</ele><time>2021-07-17T10:05:17Z</time><extensions><speed>0.026670</speed><course>294.469940</course><hAcc>0.889426</hAcc><vAcc>0.717313</vAcc></extensions></trkpt>
      <trkpt lon="-4.131586" lat="53.005776"><ele>485.667542</ele><time>2021-07-17T10:05:18Z</time><extensions><speed>0.029009</speed><course>292.898438</course><hAcc>0.889487</hAcc><vAcc>0.717568</vAcc></extensions></trkpt>
      <trkpt lon="-4.131585" lat="53.005776"><ele>485.669281</ele><time>2021-07-17T10:05:19Z</time><extensions><speed>0.030844</speed><course>292.422791</course><hAcc>0.889562</hAcc><vAcc>0.717857</vAcc></extensions></trkpt>
      <trkpt lon="-4.131585" lat="53.005775"><ele>485.669434</ele><time>2021-07-17T10:05:20Z</time><extensions><speed>0.031994</speed><course>292.622986</course><hAcc>0.889648</hAcc><vAcc>0.718163</vAcc></extensions></trkpt>
      <trkpt lon="-4.131585" lat="53.005775"><ele>485.668030</ele><time>2021-07-17T10:05:21Z</time><extensions><speed>0.032427</speed><course>292.749084</course><hAcc>0.889741</hAcc><vAcc>0.718476</vAcc></extensions></trkpt>
      <trkpt lon="-4.131584" lat="53.005775"><ele>485.664886</ele><time>2021-07-17T10:05:22Z</time><extensions><speed>0.032138</speed><course>294.832458</course><hAcc>0.889838</hAcc><vAcc>0.718791</vAcc></extensions></trkpt>
      <trkpt lon="-4.131584" lat="53.005775"><ele>485.659912</ele><time>2021-07-17T10:05:23Z</time><extensions><speed>0.031053</speed><course>290.563019</course><hAcc>0.889937</hAcc><vAcc>0.719104</vAcc></extensions></trkpt>
      <trkpt lon="-4.131583" lat="53.005775"><ele>485.652985</ele><time>2021-07-17T10:05:24Z</time><extensions><speed>0.028946</speed><course>288.082062</course><hAcc>0.890033</hAcc><vAcc>0.719415</vAcc></extensions></trkpt>
      <trkpt lon="-4.131583" lat="53.005775"><ele>485.644196</ele><time>2021-07-17T10:05:25Z</time><extensions><speed>0.025685</speed><course>289.238037</course><hAcc>0.890127</hAcc><vAcc>0.719719</vAcc></extensions></trkpt>
      <trkpt lon="-4.131583" lat="53.005775"><ele>485.633606</ele><time>2021-07-17T10:05:26Z</time><extensions><speed>0.021591</speed><course>289.037109</course><hAcc>0.890215</hAcc><vAcc>0.720012</vAcc></extensions></trkpt>
      <trkpt lon="-4.131583" lat="53.005774"><ele>485.621490</ele><time>2021-07-17T10:05:27Z</time><extensions><speed>0.017321</speed><course>291.884949</course><hAcc>0.890298</hAcc><vAcc>0.720285</vAcc></extensions></trkpt>
      <trkpt lon="-4.131582" lat="53.005774"><ele>485.608002</ele><time>2021-07-17T10:05:28Z</time><extensions><speed>0.013916</speed><course>287.567657</course><hAcc>0.890374</hAcc><vAcc>0.720532</vAcc></extensions></trkpt>
      <trkpt lon="-4.131582" lat="53.005775"><ele>485.593414</ele><time>2021-07-17T10:05:29Z</time><extensions><speed>0.012418</speed><course>291.768890</course><hAcc>0.890444</hAcc><vAcc>0.720751</vAcc></extensions></trkpt>
      <trkpt lon="-4.131582" lat="53.005775"><ele>485.578247</ele><time>2021-07-17T10:05:30Z</time><extensions><speed>0.013182</speed><course>296.126740</course><hAcc>0.890508</hAcc><vAcc>0.720941</vAcc></extensions></trkpt>
      <trkpt lon="-4.131582" lat="53.005775"><ele>485.563141</ele><time>2021-07-17T10:05:31Z</time><extensions><speed>0.015528</speed><course>297.059143</course><hAcc>0.890567</hAcc><vAcc>0.721105</vAcc></extensions></trkpt>
      <trkpt lon="-4.131582" lat="53.005775"><ele>485.548920</ele><time>2021-07-17T10:05:32Z</time><extensions><speed>0.018615</speed><course>303.696320</course><hAcc>0.890623</hAcc><vAcc>0.721250</vAcc></extensions></trkpt>
      <trkpt lon="-4.131582" lat="53.005775"><ele>485.536377</ele><time>2021-07-17T10:05:33Z</time><extensions><speed>0.022165</speed><course>307.460022</course><hAcc>0.890678</hAcc><vAcc>0.721386</vAcc></extensions></trkpt>
      <trkpt lon="-4.131582" lat="53.005775"><ele>485.526215</ele><time>2021-07-17T10:05:34Z</time><extensions><speed>0.025855</speed><course>302.094666</course><hAcc>0.890737</hAcc><vAcc>0.721524</vAcc></extensions></trkpt>
      <trkpt lon="-4.131582" lat="53.005775"><ele>485.519226</ele><time>2021-07-17T10:05:35Z</time><extensions><speed>0.029162</speed><course>294.763123</course><hAcc>0.890806</hAcc><vAcc>0.721680</vAcc></extensions></trkpt>
      <trkpt lon="-4.131583" lat="53.005776"><ele>485.516083</ele><time>2021-07-17T10:05:36Z</time><extensions><speed>0.031605</speed><course>292.310913</course><hAcc>0.890893</hAcc><vAcc>0.721874</vAcc></extensions></trkpt>
      <trkpt lon="-4.131583" lat="53.005776"><ele>485.517090</ele><time>2021-07-17T10:05:37Z</time><extensions><speed>0.033055</speed><course>286.252472</course><hAcc>0.891009</hAcc><vAcc>0.722130</vAcc></extensions></trkpt>
      <trkpt lon="-4.131584" lat="53.005776"><ele>485.522034</ele><time>2021-07-17T10:05:38Z</time><extensions><speed>0.033450</speed><course>277.085999</course><hAcc>0.891168</hAcc><vAcc>0.722471</vAcc></extensions></trkpt>
      <trkpt lon="-4.131584" lat="53.005776"><ele>485.530396</ele><time>2021-07-17T10:05:39Z</time><extensions><speed>0.032810</speed><course>269.880463</course><hAcc>0.891388</hAcc><vAcc>0.722922</vAcc></extensions></trkpt>
      <trkpt lon="-4.131584" lat="53.005776"><ele>485.541321</ele><time>2021-07-17T10:05:40Z</time><extensions><speed>0.031313</speed><course>256.014618</course><hAcc>0.891693</hAcc><vAcc>0.723505</vAcc></extensions></trkpt>
      <trkpt lon="-4.131585" lat="53.005777"><ele>485.553925</ele><time>2021-07-17T10:05:41Z</time><extensions><speed>0.029075</speed><course>250.524368</course><hAcc>0.892111</hAcc><vAcc>0.724241</vAcc></extensions></trkpt>
      <trkpt lon="-4.131585" lat="53.005777"><ele>485.567474</ele><time>2021-07-17T10:05:42Z</time><extensions><speed>0.026266</speed><course>237.491638</course><hAcc>0.892676</hAcc><vAcc>0.725145</vAcc></extensions></trkpt>
      <trkpt lon="-4.131585" lat="53.005777"><ele>485.581299</ele><time>2021-07-17T10:05:43Z</time><extensions><speed>0.023145</speed><course>231.976761</course><hAcc>0.893425</hAcc><vAcc>0.726230</vAcc></extensions></trkpt>
      <trkpt lon="-4.131586" lat="53.005777"><ele>485.594971</ele><time>2021-07-17T10:05:44Z</time><extensions><speed>0.019919</speed><course>228.504318</course><hAcc>0.894394</hAcc><vAcc>0.727501</vAcc></extensions></trkpt>
      <trkpt lon="-4.131586" lat="53.005777"><ele>485.608032</ele><time>2021-07-17T10:05:45Z</time><extensions><speed>0.016746</speed><course>227.577087</course><hAcc>0.895612</hAcc><vAcc>0.728957</vAcc></extensions></trkpt>
      <trkpt lon="-4.131586" lat="53.005777"><ele>485.620270</ele><time>2021-07-17T10:05:46Z</time><extensions><speed>0.013743</speed><course>219.513672</course><hAcc>0.897097</hAcc><vAcc>0.730578</vAcc></extensions></trkpt>
      <trkpt lon="-4.131586" lat="53.005777"><ele>485.631470</ele><time>2021-07-17T10:05:47Z</time><extensions><speed>0.010986</speed><course>224.903015</course><hAcc>0.898845</hAcc><vAcc>0.732318</vAcc></extensions></trkpt>
      <trkpt lon="-4.131586" lat="53.005777"><ele>485.641541</ele><time>2021-07-17T10:05:48Z</time><extensions><speed>0.008523</speed><course>222.390198</course><hAcc>0.900819</hAcc><vAcc>0.734103</vAcc></extensions></trkpt>
      <trkpt lon="-4.131586" lat="53.005777"><ele>485.650452</ele><time>2021-07-17T10:05:49Z</time><extensions><speed>0.006376</speed><course>223.313202</course><hAcc>0.902937</hAcc><vAcc>0.735826</vAcc></extensions></trkpt>
      <trkpt lon="-4.131587" lat="53.005777"><ele>485.658203</ele><time>2021-07-17T10:05:50Z</time><extensions><speed>0.004549</speed><course>224.045700</course><hAcc>0.905071</hAcc><vAcc>0.737353</vAcc></extensions></trkpt>
      <trkpt lon="-4.131587" lat="53.005777"><ele>485.664795</ele><time>2021-07-17T10:05:51Z</time><extensions><speed>0.003032</speed><course>224.975723</course><hAcc>0.907050</hAcc><vAcc>0.738545</vAcc></extensions></trkpt>
      <trkpt lon="-4.131587" lat="53.005777"><ele>485.670349</ele><time>2021-07-17T10:05:52Z</time><extensions><speed>0.001807</speed><course>226.513992</course><hAcc>0.908681</hAcc><vAcc>0.739290</vAcc></extensions></trkpt>
      <trkpt lon="-4.131587" lat="53.005777"><ele>485.674927</ele><time>2021-07-17T10:05:53Z</time><extensions><speed>0.000868</speed><course>227.291473</course><hAcc>0.909806</hAcc><vAcc>0.739570</vAcc></extensions></trkpt>
      <trkpt lon="-4.131587" lat="53.005777"><ele>485.678619</ele><time>2021-07-17T10:05:54Z</time><extensions><speed>0.000373</speed><course>231.833313</course><hAcc>0.910402</hAcc><vAcc>0.739560</vAcc></extensions></trkpt>
      <trkpt lon="-4.131587" lat="53.005777"><ele>485.681580</ele><time>2021-07-17T10:05:55Z</time><extensions><speed>0.000659</speed><course>230.421005</course><hAcc>0.910747</hAcc><vAcc>0.739773</vAcc></extensions></trkpt>
      <trkpt lon="-4.131587" lat="53.005777"><ele>485.683838</ele><time>2021-07-17T10:05:56Z</time><extensions><speed>0.001024</speed><course>235.980087</course><hAcc>0.911677</hAcc><vAcc>0.741252</vAcc></extensions></trkpt>
      <trkpt lon="-4.131587" lat="53.005777"><ele>485.685577</ele><time>2021-07-17T10:05:57Z</time><extensions><speed>0.001292</speed><course>243.213364</course><hAcc>0.914938</hAcc><vAcc>0.745804</vAcc></extensions></trkpt>
      <trkpt lon="-4.131587" lat="53.005777"><ele>485.686859</ele><time>2021-07-17T10:05:58Z</time><extensions><speed>0.001469</speed><course>253.165268</course><hAcc>0.923619</hAcc><vAcc>0.756229</vAcc></extensions></trkpt>
      <trkpt lon="-4.131587" lat="53.005777"><ele>485.687775</ele><time>2021-07-17T10:05:59Z</time><extensions><speed>0.001576</speed><course>266.505096</course><hAcc>0.942546</hAcc><vAcc>0.776430</vAcc></extensions></trkpt>
      <trkpt lon="-4.131587" lat="53.005777"><ele>485.688416</ele><time>2021-07-17T10:06:00Z</time><extensions><speed>0.001633</speed><course>267.255646</course><hAcc>0.978402</hAcc><vAcc>0.811262</vAcc></extensions></trkpt>
      <trkpt lon="-4.131586" lat="53.005777"><ele>485.678955</ele><time>2021-07-17T10:06:01Z</time><extensions><speed>0.000000</speed><course>207.637573</course><hAcc>0.940454</hAcc><vAcc>0.776035</vAcc></extensions></trkpt>
      <trkpt lon="-4.131586" lat="53.005777"><ele>485.678955</ele><time>2021-07-17T10:06:02Z</time><extensions><speed>0.000000</speed><course>199.781464</course><hAcc>0.921079</hAcc><vAcc>0.754976</vAcc></extensions></trkpt>
      <trkpt lon="-4.131586" lat="53.005777"><ele>485.678955</ele><time>2021-07-17T10:06:03Z</time><extensions><speed>0.000000</speed><course>204.898392</course><hAcc>0.913314</hAcc><vAcc>0.744929</vAcc></extensions></trkpt>
      <trkpt lon="-4.131586" lat="53.005777"><ele>485.678955</ele><time>2021-07-17T10:06:04Z</time><extensions><speed>0.000000</speed><course>218.988647</course><hAcc>0.911686</hAcc><vAcc>0.741557</vAcc></extensions></trkpt>
      <trkpt lon="-4.131586" lat="53.005777"><ele>485.678955</ele><time>2021-07-17T10:06:05Z</time><extensions><speed>0.000000</speed><course>240.875916</course><hAcc>0.912705</hAcc><vAcc>0.741734</vAcc></extensions></trkpt>
      <trkpt lon="-4.131586" lat="53.005777"><ele>485.678955</ele><time>2021-07-17T10:06:06Z</time><extensions><speed>0.000000</speed><course>240.875916</course><hAcc>0.914425</hAcc><vAcc>0.743435</vAcc></extensions></trkpt>
      <trkpt lon="-4.131586" lat="53.005777"><ele>485.678955</ele><time>2021-07-17T10:06:07Z</time><extensions><speed>0.000000</speed><course>240.875916</course><hAcc>0.915938</hAcc><vAcc>0.745480</vAcc></extensions></trkpt>
      <trkpt lon="-4.131586" lat="53.005777"><ele>485.678955</ele><time>2021-07-17T10:06:08Z</time><extensions><speed>0.000000</speed><course>240.875916</course><hAcc>0.916954</hAcc><vAcc>0.747264</vAcc></extensions></trkpt>
      <trkpt lon="-4.131586" lat="53.005777"><ele>485.678955</ele><time>2021-07-17T10:06:09Z</time><extensions><speed>0.000000</speed><course>240.875916</course><hAcc>0.917491</hAcc><vAcc>0.748530</vAcc></extensions></trkpt>
      <trkpt lon="-4.131586" lat="53.005777"><ele>485.678955</ele><time>2021-07-17T10:06:10Z</time><extensions><speed>0.000000</speed><course>240.875916</course><hAcc>0.917677</hAcc><vAcc>0.749205</vAcc></extensions></trkpt>
      <trkpt lon="-4.131586" lat="53.005777"><ele>485.678955</ele><time>2021-07-17T10:06:11Z</time><extensions><speed>0.000000</speed><course>269.430084</course><hAcc>0.917626</hAcc><vAcc>0.749292</vAcc></extensions></trkpt>
      <trkpt lon="-4.131586" lat="53.005777"><ele>485.678955</ele><time>2021-07-17T10:06:12Z</time><extensions><speed>0.000000</speed><course>274.056000</course><hAcc>0.917382</hAcc><vAcc>0.748820</vAcc></extensions></trkpt>
      <trkpt lon="-4.131586" lat="53.005777"><ele>485.678955</ele><time>2021-07-17T10:06:13Z</time><extensions><speed>0.000000</speed><course>273.580658</course><hAcc>0.916913</hAcc><vAcc>0.747839</vAcc></extensions></trkpt>
      <trkpt lon="-4.131586" lat="53.005777"><ele>485.678955</ele><time>2021-07-17T10:06:14Z</time><extensions><speed>0.000000</speed><course>266.285736</course><hAcc>0.916165</hAcc><vAcc>0.746460</vAcc></extensions></trkpt>
      <trkpt lon="-4.131586" lat="53.005777"><ele>485.678955</ele><time>2021-07-17T10:06:15Z</time><extensions><speed>0.000000</speed><course>280.416809</course><hAcc>0.915169</hAcc><vAcc>0.744954</vAcc></extensions></trkpt>
      <trkpt lon="-4.131586" lat="53.005777"><ele>485.678955</ele><time>2021-07-17T10:06:16Z</time><extensions><speed>0.000000</speed><course>289.633057</course><hAcc>0.914218</hAcc><vAcc>0.743895</vAcc></extensions></trkpt>
      <trkpt lon="-4.131586" lat="53.005777"><ele>485.678955</ele><time>2021-07-17T10:06:17Z</time><extensions><speed>0.000000</speed><course>274.042023</course><hAcc>0.914139</hAcc><vAcc>0.744364</vAcc></extensions></trkpt>
      <trkpt lon="-4.131586" lat="53.005777"><ele>485.678955</ele><time>2021-07-17T10:06:18Z</time><extensions><speed>0.000000</speed><course>259.398621</course><hAcc>0.916656</hAcc><vAcc>0.748187</vAcc></extensions></trkpt>
      <trkpt lon="-4.131586" lat="53.005777"><ele>485.678955</ele><time>2021-07-17T10:06:19Z</time><extensions><speed>0.000000</speed><course>235.228027</course><hAcc>0.924832</hAcc><vAcc>0.758167</vAcc></extensions></trkpt>
      <trkpt lon="-4.131586" lat="53.005777"><ele>485.678955</ele><time>2021-07-17T10:06:20Z</time><extensions><speed>0.000000</speed><course>233.943741</course><hAcc>0.943466</hAcc><vAcc>0.778197</vAcc></extensions></trkpt>
      <trkpt lon="-4.131586" lat="53.005777"><ele>485.678955</ele><time>2021-07-17T10:06:21Z</time><extensions><speed>0.000000</speed><course>251.986771</course><hAcc>0.979210</hAcc><vAcc>0.813103</vAcc></extensions></trkpt>
      <trkpt lon="-4.131586" lat="53.005777"><ele>485.678955</ele><time>2021-07-17T10:06:22Z</time><extensions><speed>0.000000</speed><course>207.637573</course><hAcc>0.940755</hAcc><vAcc>0.777068</vAcc></extensions></trkpt>
      <trkpt lon="-4.131586" lat="53.005777"><ele>485.678955</ele><time>2021-07-17T10:06:23Z</time><extensions><speed>0.000000</speed><course>199.781464</course><hAcc>0.921433</hAcc><vAcc>0.756244</vAcc></extensions></trkpt>
      <trkpt lon="-4.131586" lat="53.005777"><ele>485.678955</ele><time>2021-07-17T10:06:24Z</time><extensions><speed>0.000000</speed><course>204.898392</course><hAcc>0.913710</hAcc><vAcc>0.746390</vAcc></extensions></trkpt>
      <trkpt lon="-4.131586" lat="53.005777"><ele>485.678955</ele><time>2021-07-17T10:06:24Z</time><extensions><speed>0.000000</speed><course>218.988647</course><hAcc>0.912130</hAcc><vAcc>0.743183</vAcc></extensions></trkpt>
      <trkpt lon="-4.131586" lat="53.005777"><ele>485.678955</ele><time>2021-07-17T10:06:25Z</time><extensions><speed>0.000000</speed><course>240.875916</course><hAcc>0.913206</hAcc><vAcc>0.743496</vAcc></extensions></trkpt>
      <trkpt lon="-4.131586" lat="53.005777"><ele>485.678955</ele><time>2021-07-17T10:06:26Z</time><extensions><speed>0.000000</speed><course>240.875916</course><hAcc>0.914975</hAcc><vAcc>0.745302</vAcc></extensions></trkpt>
      <trkpt lon="-4.131586" lat="53.005777"><ele>485.678955</ele><time>2021-07-17T10:06:27Z</time><extensions><speed>0.000000</speed><course>240.875916</course><hAcc>0.916529</hAcc><vAcc>0.747423</vAcc></extensions></trkpt>
      <trkpt lon="-4.131586" lat="53.005777"><ele>485.678955</ele><time>2021-07-17T10:06:28Z</time><extensions><speed>0.000000</speed><course>240.875916</course><hAcc>0.917576</hAcc><vAcc>0.749260</vAcc></extensions></trkpt>
      <trkpt lon="-4.131586" lat="53.005777"><ele>485.678955</ele><time>2021-07-17T10:06:29Z</time><extensions><speed>0.000000</speed><course>240.875916</course><hAcc>0.918134</hAcc><vAcc>0.750558</vAcc></extensions></trkpt>
      <trkpt lon="-4.131586" lat="53.005777"><ele>485.678955</ele><time>2021-07-17T10:06:30Z</time><extensions><speed>0.000000</speed><course>240.875916</course><hAcc>0.918330</hAcc><vAcc>0.751247</vAcc></extensions></trkpt>
      <trkpt lon="-4.131586" lat="53.005777"><ele>485.678955</ele><time>2021-07-17T10:06:31Z</time><extensions><speed>0.000000</speed><course>269.430084</course><hAcc>0.918279</hAcc><vAcc>0.751332</vAcc></extensions></trkpt>
      <trkpt lon="-4.131586" lat="53.005777"><ele>485.678955</ele><time>2021-07-17T10:06:32Z</time><extensions><speed>0.000000</speed><course>274.056000</course><hAcc>0.918023</hAcc><vAcc>0.750840</vAcc></extensions></trkpt>
      <trkpt lon="-4.131586" lat="53.005777"><ele>485.678955</ele><time>2021-07-17T10:06:33Z</time><extensions><speed>0.000000</speed><course>273.580658</course><hAcc>0.917533</hAcc><vAcc>0.749817</vAcc></extensions></trkpt>
      <trkpt lon="-4.131586" lat="53.005777"><ele>485.678955</ele><time>2021-07-17T10:06:34Z</time><extensions><speed>0.000000</speed><course>266.285736</course><hAcc>0.916757</hAcc><vAcc>0.748371</vAcc></extensions></trkpt>
      <trkpt lon="-4.131586" lat="53.005777"><ele>485.678955</ele><time>2021-07-17T10:06:35Z</time><extensions><speed>0.000000</speed><course>280.416809</course><hAcc>0.915726</hAcc><vAcc>0.746771</vAcc></extensions></trkpt>
      <trkpt lon="-4.131586" lat="53.005777"><ele>485.678955</ele><time>2021-07-17T10:06:36Z</time><extensions><speed>0.000000</speed><course>289.633057</course><hAcc>0.914736</hAcc><vAcc>0.745591</vAcc></extensions></trkpt>
      <trkpt lon="-4.131586" lat="53.005777"><ele>485.678955</ele><time>2021-07-17T10:06:37Z</time><extensions><speed>0.000000</speed><course>274.042023</course><hAcc>0.914616</hAcc><vAcc>0.745912</vAcc></extensions></trkpt>
      <trkpt lon="-4.131586" lat="53.005777"><ele>485.678955</ele><time>2021-07-17T10:06:38Z</time><extensions><speed>0.000000</speed><course>259.398621</course><hAcc>0.917092</hAcc><vAcc>0.749565</vAcc></extensions></trkpt>
      <trkpt lon="-4.131586" lat="53.005777"><ele>485.678955</ele><time>2021-07-17T10:06:39Z</time><extensions><speed>0.000000</speed><course>235.228027</course><hAcc>0.925226</hAcc><vAcc>0.759361</vAcc></extensions></trkpt>
      <trkpt lon="-4.131586" lat="53.005777"><ele>485.678955</ele><time>2021-07-17T10:06:40Z</time><extensions><speed>0.000000</speed><course>233.943741</course><hAcc>0.943818</hAcc><vAcc>0.779204</vAcc></extensions></trkpt>
      <trkpt lon="-4.131586" lat="53.005777"><ele>485.678955</ele><time>2021-07-17T10:06:41Z</time><extensions><speed>0.000000</speed><course>251.986771</course><hAcc>0.979518</hAcc><vAcc>0.813938</vAcc></extensions></trkpt>
      <trkpt lon="-4.131587" lat="53.005777"><ele>485.686523</ele><time>2021-07-17T10:06:42Z</time><extensions><speed>0.002379</speed><course>207.637573</course><hAcc>0.940636</hAcc><vAcc>0.777249</vAcc></extensions></trkpt>
      <trkpt lon="-4.131587" lat="53.005777"><ele>485.686584</ele><time>2021-07-17T10:06:43Z</time><extensions><speed>0.002780</speed><course>199.781464</course><hAcc>0.920811</hAcc><vAcc>0.755595</vAcc></extensions></trkpt>
      <trkpt lon="-4.131587" lat="53.005777"><ele>485.686340</ele><time>2021-07-17T10:06:44Z</time><extensions><speed>0.003338</speed><course>204.898392</course><hAcc>0.912431</hAcc><vAcc>0.744780</vAcc></extensions></trkpt>
      <trkpt lon="-4.131587" lat="53.005777"><ele>485.685760</ele><time>2021-07-17T10:06:45Z</time><extensions><speed>0.004075</speed><course>218.988647</course><hAcc>0.910000</hAcc><vAcc>0.740453</vAcc></extensions></trkpt>
      <trkpt lon="-4.131587" lat="53.005777"><ele>485.684692</ele><time>2021-07-17T10:06:46Z</time><extensions><speed>0.005009</speed><course>240.875916</course><hAcc>0.910004</hAcc><vAcc>0.739475</vAcc></extensions></trkpt>
      <trkpt lon="-4.131587" lat="53.005777"><ele>485.683044</ele><time>2021-07-17T10:06:47Z</time><extensions><speed>0.006150</speed><course>240.875916</course><hAcc>0.910471</hAcc><vAcc>0.739816</vAcc></extensions></trkpt>
      <trkpt lon="-4.131587" lat="53.005777"><ele>485.680695</ele><time>2021-07-17T10:06:48Z</time><extensions><speed>0.007505</speed><course>240.875916</course><hAcc>0.910475</hAcc><vAcc>0.740312</vAcc></extensions></trkpt>
      <trkpt lon="-4.131587" lat="53.005777"><ele>485.677551</ele><time>2021-07-17T10:06:49Z</time><extensions><speed>0.009073</speed><course>240.875916</course><hAcc>0.909729</hAcc><vAcc>0.740399</vAcc></extensions></trkpt>
      <trkpt lon="-4.131587" lat="53.005777"><ele>485.673492</ele><time>2021-07-17T10:06:50Z</time><extensions><speed>0.010843</speed><course>240.875916</course><hAcc>0.908288</hAcc><vAcc>0.739897</vAcc></extensions></trkpt>
      <trkpt lon="-4.131586" lat="53.005778"><ele>485.668396</ele><time>2021-07-17T10:06:51Z</time><extensions><speed>0.012795</speed><course>240.875916</course><hAcc>0.906358</hAcc><vAcc>0.738840</vAcc></extensions></trkpt>
      <trkpt lon="-4.131586" lat="53.005778"><ele>485.662140</ele><time>2021-07-17T10:06:52Z</time><extensions><speed>0.014893</speed><course>269.430084</course><hAcc>0.904180</hAcc><vAcc>0.737371</vAcc></extensions></trkpt>
      <trkpt lon="-4.131586" lat="53.005778"><ele>485.654694</ele><time>2021-07-17T10:06:53Z</time><extensions><speed>0.017086</speed><course>274.056000</course><hAcc>0.901969</hAcc><vAcc>0.735663</vAcc></extensions></trkpt>
      <trkpt lon="-4.131586" lat="53.005778"><ele>485.646027</ele><time>2021-07-17T10:06:54Z</time><extensions><speed>0.019296</speed><course>273.580658</course><hAcc>0.899886</hAcc><vAcc>0.733879</vAcc></extensions></trkpt>
      <trkpt lon="-4.131586" lat="53.005778"><ele>485.636078</ele><time>2021-07-17T10:06:55Z</time><extensions><speed>0.021424</speed><course>266.285736</course><hAcc>0.898036</hAcc><vAcc>0.732154</vAcc></extensions></trkpt>
      <trkpt lon="-4.131586" lat="53.005778"><ele>485.624969</ele><time>2021-07-17T10:06:56Z</time><extensions><speed>0.023340</speed><course>280.416809</course><hAcc>0.896469</hAcc><vAcc>0.730579</vAcc></extensions></trkpt>
      <trkpt lon="-4.131586" lat="53.005778"><ele>485.612823</ele><time>2021-07-17T10:06:57Z</time><extensions><speed>0.024882</speed><course>289.633057</course><hAcc>0.895197</hAcc><vAcc>0.729209</vAcc></extensions></trkpt>
      <trkpt lon="-4.131585" lat="53.005779"><ele>485.599854</ele><time>2021-07-17T10:06:59Z</time><extensions><speed>0.025862</speed><course>274.042023</course><hAcc>0.894186</hAcc><vAcc>0.728050</vAcc></extensions></trkpt>
      <trkpt lon="-4.131585" lat="53.005779"><ele>485.586456</ele><time>2021-07-17T10:07:00Z</time><extensions><speed>0.026070</speed><course>259.398621</course><hAcc>0.893402</hAcc><vAcc>0.727098</vAcc></extensions></trkpt>
      <trkpt lon="-4.131585" lat="53.005779"><ele>485.573090</ele><time>2021-07-17T10:07:01Z</time><extensions><speed>0.025313</speed><course>235.228027</course><hAcc>0.892823</hAcc><vAcc>0.726343</vAcc></extensions></trkpt>
      <trkpt lon="-4.131584" lat="53.005779"><ele>485.560425</ele><time>2021-07-17T10:07:02Z</time><extensions><speed>0.023515</speed><course>233.943741</course><hAcc>0.892406</hAcc><vAcc>0.725753</vAcc></extensions></trkpt>
      <trkpt lon="-4.131584" lat="53.005779"><ele>485.549255</ele><time>2021-07-17T10:07:03Z</time><extensions><speed>0.020999</speed><course>251.986771</course><hAcc>0.892113</hAcc><vAcc>0.725297</vAcc></extensions></trkpt>
      <trkpt lon="-4.131584" lat="53.005779"><ele>485.540619</ele><time>2021-07-17T10:07:04Z</time><extensions><speed>0.019320</speed><course>230.632401</course><hAcc>0.891910</hAcc><vAcc>0.724945</vAcc></extensions></trkpt>
      <trkpt lon="-4.131584" lat="53.005779"><ele>485.535736</ele><time>2021-07-17T10:07:05Z</time><extensions><speed>0.022104</speed><course>208.539734</course><hAcc>0.891772</hAcc><vAcc>0.724672</vAcc></extensions></trkpt>
      <trkpt lon="-4.131583" lat="53.005779"><ele>485.536041</ele><time>2021-07-17T10:07:06Z</time><extensions><speed>0.032113</speed><course>217.062653</course><hAcc>0.891676</hAcc><vAcc>0.724456</vAcc></extensions></trkpt>
      <trkpt lon="-4.131583" lat="53.005778"><ele>485.543274</ele><time>2021-07-17T10:07:07Z</time><extensions><speed>0.048917</speed><course>216.480164</course><hAcc>0.891610</hAcc><vAcc>0.724281</vAcc></extensions></trkpt>
      <trkpt lon="-4.131584" lat="53.005778"><ele>485.559326</ele><time>2021-07-17T10:07:08Z</time><extensions><speed>0.071821</speed><course>215.204285</course><hAcc>0.891564</hAcc><vAcc>0.724137</vAcc></extensions></trkpt>
      <trkpt lon="-4.131584" lat="53.005777"><ele>485.586273</ele><time>2021-07-17T10:07:09Z</time><extensions><speed>0.100731</speed><course>192.608246</course><hAcc>0.891531</hAcc><vAcc>0.724018</vAcc></extensions></trkpt>
      <trkpt lon="-4.131585" lat="53.005776"><ele>485.626434</ele><time>2021-07-17T10:07:10Z</time><extensions><speed>0.135789</speed><course>196.818375</course><hAcc>0.891508</hAcc><vAcc>0.723922</vAcc></extensions></trkpt>
      <trkpt lon="-4.131586" lat="53.005775"><ele>485.682190</ele><time>2021-07-17T10:07:11Z</time><extensions><speed>0.177109</speed><course>200.564194</course><hAcc>0.891492</hAcc><vAcc>0.723854</vAcc></extensions></trkpt>
      <trkpt lon="-4.131587" lat="53.005773"><ele>485.756012</ele><time>2021-07-17T10:07:12Z</time><extensions><speed>0.224617</speed><course>224.718231</course><hAcc>0.891482</hAcc><vAcc>0.723816</vAcc></extensions></trkpt>
      <trkpt lon="-4.131590" lat="53.005772"><ele>485.850281</ele><time>2021-07-17T10:07:13Z</time><extensions><speed>0.277934</speed><course>228.969803</course><hAcc>0.891477</hAcc><vAcc>0.723810</vAcc></extensions></trkpt>
      <trkpt lon="-4.131592" lat="53.005769"><ele>485.967224</ele><time>2021-07-17T10:07:14Z</time><extensions><speed>0.336249</speed><course>250.366501</course><hAcc>0.891475</hAcc><vAcc>0.723836</vAcc></extensions></trkpt>
      <trkpt lon="-4.131596" lat="53.005767"><ele>486.108643</ele><time>2021-07-17T10:07:15Z</time><extensions><speed>0.398197</speed><course>-1.000000</course><hAcc>0.891476</hAcc><vAcc>0.723887</vAcc></extensions></trkpt>
      <trkpt lon="-4.131600" lat="53.005764"><ele>486.275848</ele><time>2021-07-17T10:07:16Z</time><extensions><speed>0.461716</speed><course>232.063629</course><hAcc>0.891478</hAcc><vAcc>0.723953</vAcc></extensions></trkpt>
      <trkpt lon="-4.131605" lat="53.005761"><ele>486.469299</ele><time>2021-07-17T10:07:17Z</time><extensions><speed>0.523905</speed><course>232.063614</course><hAcc>0.891479</hAcc><vAcc>0.724021</vAcc></extensions></trkpt>
      <trkpt lon="-4.131611" lat="53.005757"><ele>486.688354</ele><time>2021-07-17T10:07:18Z</time><extensions><speed>0.580866</speed><course>232.063614</course><hAcc>0.891478</hAcc><vAcc>0.724076</vAcc></extensions></trkpt>
      <trkpt lon="-4.131617" lat="53.005753"><ele>486.930939</ele><time>2021-07-17T10:07:19Z</time><extensions><speed>0.627558</speed><course>232.063599</course><hAcc>0.891472</hAcc><vAcc>0.724105</vAcc></extensions></trkpt>
      <trkpt lon="-4.131624" lat="53.005749"><ele>487.193176</ele><time>2021-07-17T10:07:20Z</time><extensions><speed>0.657653</speed><course>232.063599</course><hAcc>0.891461</hAcc><vAcc>0.724096</vAcc></extensions></trkpt>
      <trkpt lon="-4.131631" lat="53.005745"><ele>487.469727</ele><time>2021-07-17T10:07:21Z</time><extensions><speed>0.670181</speed><course>232.063583</course><hAcc>0.891441</hAcc><vAcc>0.724042</vAcc></extensions></trkpt>
      <trkpt lon="-4.131639" lat="53.005741"><ele>487.755035</ele><time>2021-07-17T10:07:22Z</time><extensions><speed>0.669764</speed><course>232.063583</course><hAcc>0.891412</hAcc><vAcc>0.723938</vAcc></extensions></trkpt>
      <trkpt lon="-4.131646" lat="53.005737"><ele>488.044098</ele><time>2021-07-17T10:07:23Z</time><extensions><speed>0.660197</speed><course>248.555511</course><hAcc>0.891373</hAcc><vAcc>0.723786</vAcc></extensions></trkpt>
      <trkpt lon="-4.131654" lat="53.005734"><ele>488.332642</ele><time>2021-07-17T10:07:24Z</time><extensions><speed>0.644542</speed><course>214.727661</course><hAcc>0.891322</hAcc><vAcc>0.723591</vAcc></extensions></trkpt>
      <trkpt lon="-4.131661" lat="53.005730"><ele>488.617004</ele><time>2021-07-17T10:07:25Z</time><extensions><speed>0.624963</speed><course>215.656113</course><hAcc>0.891256</hAcc><vAcc>0.723363</vAcc></extensions></trkpt>
      <trkpt lon="-4.131668" lat="53.005727"><ele>488.894073</ele><time>2021-07-17T10:07:26Z</time><extensions><speed>0.602544</speed><course>205.637772</course><hAcc>0.891173</hAcc><vAcc>0.723108</vAcc></extensions></trkpt>
      <trkpt lon="-4.131675" lat="53.005723"><ele>489.161194</ele><time>2021-07-17T10:07:27Z</time><extensions><speed>0.577553</speed><course>201.575424</course><hAcc>0.891071</hAcc><vAcc>0.722825</vAcc></extensions></trkpt>
      <trkpt lon="-4.131682" lat="53.005720"><ele>489.416595</ele><time>2021-07-17T10:07:28Z</time><extensions><speed>0.550678</speed><course>196.854248</course><hAcc>0.890949</hAcc><vAcc>0.722502</vAcc></extensions></trkpt>
      <trkpt lon="-4.131688" lat="53.005717"><ele>489.659607</ele><time>2021-07-17T10:07:29Z</time><extensions><speed>0.523136</speed><course>198.264053</course><hAcc>0.890805</hAcc><vAcc>0.722121</vAcc></extensions></trkpt>
      <trkpt lon="-4.131694" lat="53.005714"><ele>489.890411</ele><time>2021-07-17T10:07:30Z</time><extensions><speed>0.495540</speed><course>198.636932</course><hAcc>0.890641</hAcc><vAcc>0.721662</vAcc></extensions></trkpt>
      <trkpt lon="-4.131699" lat="53.005711"><ele>490.109650</ele><time>2021-07-17T10:07:31Z</time><extensions><speed>0.468343</speed><course>192.727798</course><hAcc>0.890456</hAcc><vAcc>0.721113</vAcc></extensions></trkpt>
      <trkpt lon="-4.131703" lat="53.005708"><ele>490.317932</ele><time>2021-07-17T10:07:32Z</time><extensions><speed>0.442937</speed><course>184.691818</course><hAcc>0.890251</hAcc><vAcc>0.720467</vAcc></extensions></trkpt>
      <trkpt lon="-4.131707" lat="53.005705"><ele>490.516052</ele><time>2021-07-17T10:07:33Z</time><extensions><speed>0.421435</speed><course>177.917740</course><hAcc>0.890029</hAcc><vAcc>0.719727</vAcc></extensions></trkpt>
      <trkpt lon="-4.131711" lat="53.005702"><ele>490.704987</ele><time>2021-07-17T10:07:34Z</time><extensions><speed>0.405470</speed><course>169.935883</course><hAcc>0.889793</hAcc><vAcc>0.718906</vAcc></extensions></trkpt>
      <trkpt lon="-4.131713" lat="53.005698"><ele>490.885590</ele><time>2021-07-17T10:07:35Z</time><extensions><speed>0.395693</speed><course>168.290512</course><hAcc>0.889548</hAcc><vAcc>0.718029</vAcc></extensions></trkpt>
      <trkpt lon="-4.131715" lat="53.005695"><ele>491.058411</ele><time>2021-07-17T10:07:36Z</time><extensions><speed>0.391913</speed><course>175.847488</course><hAcc>0.889300</hAcc><vAcc>0.717127</vAcc></extensions></trkpt>
      <trkpt lon="-4.131716" lat="53.005692"><ele>491.224091</ele><time>2021-07-17T10:07:37Z</time><extensions><speed>0.393106</speed><course>182.489380</course><hAcc>0.889055</hAcc><vAcc>0.716233</vAcc></extensions></trkpt>
      <trkpt lon="-4.131717" lat="53.005688"><ele>491.383514</ele><time>2021-07-17T10:07:38Z</time><extensions><speed>0.397235</speed><course>193.224472</course><hAcc>0.888822</hAcc><vAcc>0.715383</vAcc></extensions></trkpt>
      <trkpt lon="-4.131718" lat="53.005685"><ele>491.537659</ele><time>2021-07-17T10:07:39Z</time><extensions><speed>0.402199</speed><course>210.457108</course><hAcc>0.888606</hAcc><vAcc>0.714609</vAcc></extensions></trkpt>
      <trkpt lon="-4.131718" lat="53.005681"><ele>491.687469</ele><time>2021-07-17T10:07:40Z</time><extensions><speed>0.406779</speed><course>227.054108</course><hAcc>0.888415</hAcc><vAcc>0.713938</vAcc></extensions></trkpt>
      <trkpt lon="-4.131718" lat="53.005677"><ele>491.833771</ele><time>2021-07-17T10:07:41Z</time><extensions><speed>0.410572</speed><course>247.666534</course><hAcc>0.888253</hAcc><vAcc>0.713390</vAcc></extensions></trkpt>
      <trkpt lon="-4.131719" lat="53.005674"><ele>491.977295</ele><time>2021-07-17T10:07:42Z</time><extensions><speed>0.413756</speed><course>261.197876</course><hAcc>0.888125</hAcc><vAcc>0.712974</vAcc></extensions></trkpt>
      <trkpt lon="-4.131719" lat="53.005670"><ele>492.118713</ele><time>2021-07-17T10:07:43Z</time><extensions><speed>0.416785</speed><course>263.217255</course><hAcc>0.888032</hAcc><vAcc>0.712692</vAcc></extensions></trkpt>
      <trkpt lon="-4.131720" lat="53.005666"><ele>492.258942</ele><time>2021-07-17T10:07:44Z</time><extensions><speed>0.420196</speed><course>271.463165</course><hAcc>0.887974</hAcc><vAcc>0.712538</vAcc></extensions></trkpt>
      <trkpt lon="-4.131721" lat="53.005662"><ele>492.398865</ele><time>2021-07-17T10:07:45Z</time><extensions><speed>0.424037</speed><course>281.991608</course><hAcc>0.887951</hAcc><vAcc>0.712502</vAcc></extensions></trkpt>
      <trkpt lon="-4.131722" lat="53.005659"><ele>492.539215</ele><time>2021-07-17T10:07:46Z</time><extensions><speed>0.427729</speed><course>285.895782</course><hAcc>0.887959</hAcc><vAcc>0.712570</vAcc></extensions></trkpt>
      <trkpt lon="-4.131723" lat="53.005655"><ele>492.680542</ele><time>2021-07-17T10:07:47Z</time><extensions><speed>0.430505</speed><course>287.327179</course><hAcc>0.887994</hAcc><vAcc>0.712728</vAcc></extensions></trkpt>
      <trkpt lon="-4.131725" lat="53.005651"><ele>492.823151</ele><time>2021-07-17T10:07:48Z</time><extensions><speed>0.431772</speed><course>297.396240</course><hAcc>0.888051</hAcc><vAcc>0.712961</vAcc></extensions></trkpt>
      <trkpt lon="-4.131727" lat="53.005647"><ele>492.967133</ele><time>2021-07-17T10:07:49Z</time><extensions><speed>0.431348</speed><course>299.473175</course><hAcc>0.888122</hAcc><vAcc>0.713252</vAcc></extensions></trkpt>
      <trkpt lon="-4.131729" lat="53.005644"><ele>493.112427</ele><time>2021-07-17T10:07:50Z</time><extensions><speed>0.429351</speed><course>297.683289</course><hAcc>0.888203</hAcc><vAcc>0.713581</vAcc></extensions></trkpt>
      <trkpt lon="-4.131731" lat="53.005640"><ele>493.258667</ele><time>2021-07-17T10:07:51Z</time><extensions><speed>0.426221</speed><course>292.365356</course><hAcc>0.888285</hAcc><vAcc>0.713926</vAcc></extensions></trkpt>
      <trkpt lon="-4.131733" lat="53.005637"><ele>493.405609</ele><time>2021-07-17T10:07:52Z</time><extensions><speed>0.422549</speed><course>291.092651</course><hAcc>0.888363</hAcc><vAcc>0.714261</vAcc></extensions></trkpt>
      <trkpt lon="-4.131735" lat="53.005633"><ele>493.553162</ele><time>2021-07-17T10:07:53Z</time><extensions><speed>0.418877</speed><course>297.007721</course><hAcc>0.888430</hAcc><vAcc>0.714558</vAcc></extensions></trkpt>
      <trkpt lon="-4.131737" lat="53.005629"><ele>493.701447</ele><time>2021-07-17T10:07:54Z</time><extensions><speed>0.415521</speed><course>291.539093</course><hAcc>0.888483</hAcc><vAcc>0.714790</vAcc></extensions></trkpt>
      <trkpt lon="-4.131739" lat="53.005626"><ele>493.850403</ele><time>2021-07-17T10:07:55Z</time><extensions><speed>0.412567</speed><course>293.314819</course><hAcc>0.888518</hAcc><vAcc>0.714934</vAcc></extensions></trkpt>
      <trkpt lon="-4.131742" lat="53.005623"><ele>493.999756</ele><time>2021-07-17T10:07:56Z</time><extensions><speed>0.410381</speed><course>297.043213</course><hAcc>0.888535</hAcc><vAcc>0.714978</vAcc></extensions></trkpt>
      <trkpt lon="-4.131744" lat="53.005619"><ele>494.149170</ele><time>2021-07-17T10:07:57Z</time><extensions><speed>0.409630</speed><course>301.573547</course><hAcc>0.888532</hAcc><vAcc>0.714926</vAcc></extensions></trkpt>
      <trkpt lon="-4.131746" lat="53.005616"><ele>494.298431</ele><time>2021-07-17T10:07:58Z</time><extensions><speed>0.410897</speed><course>305.542847</course><hAcc>0.888511</hAcc><vAcc>0.714791</vAcc></extensions></trkpt>
      <trkpt lon="-4.131747" lat="53.005612"><ele>494.447601</ele><time>2021-07-17T10:07:59Z</time><extensions><speed>0.414423</speed><course>304.461029</course><hAcc>0.888476</hAcc><vAcc>0.714596</vAcc></extensions></trkpt>
      <trkpt lon="-4.131749" lat="53.005608"><ele>494.596741</ele><time>2021-07-17T10:08:00Z</time><extensions><speed>0.420584</speed><course>304.519958</course><hAcc>0.888429</hAcc><vAcc>0.714364</vAcc></extensions></trkpt>
      <trkpt lon="-4.131751" lat="53.005605"><ele>494.745758</ele><time>2021-07-17T10:08:01Z</time><extensions><speed>0.429920</speed><course>306.835541</course><hAcc>0.888376</hAcc><vAcc>0.714117</vAcc></extensions></trkpt>
      <trkpt lon="-4.131753" lat="53.005601"><ele>494.894623</ele><time>2021-07-17T10:08:02Z</time><extensions><speed>0.442421</speed><course>312.924469</course><hAcc>0.888321</hAcc><vAcc>0.713879</vAcc></extensions></trkpt>
      <trkpt lon="-4.131755" lat="53.005597"><ele>495.043152</ele><time>2021-07-17T10:08:03Z</time><extensions><speed>0.457814</speed><course>313.121582</course><hAcc>0.888270</hAcc><vAcc>0.713670</vAcc></extensions></trkpt>
      <trkpt lon="-4.131757" lat="53.005593"><ele>495.191223</ele><time>2021-07-17T10:08:04Z</time><extensions><speed>0.475827</speed><course>312.363678</course><hAcc>0.888227</hAcc><vAcc>0.713505</vAcc></extensions></trkpt>
      <trkpt lon="-4.131759" lat="53.005589"><ele>495.338867</ele><time>2021-07-17T10:08:05Z</time><extensions><speed>0.495986</speed><course>309.905548</course><hAcc>0.888194</hAcc><vAcc>0.713393</vAcc></extensions></trkpt>
      <trkpt lon="-4.131762" lat="53.005585"><ele>495.486267</ele><time>2021-07-17T10:08:06Z</time><extensions><speed>0.517515</speed><course>308.597687</course><hAcc>0.888174</hAcc><vAcc>0.713340</vAcc></extensions></trkpt>
      <trkpt lon="-4.131764" lat="53.005580"><ele>495.633636</ele><time>2021-07-17T10:08:07Z</time><extensions><speed>0.539298</speed><course>307.103394</course><hAcc>0.888170</hAcc><vAcc>0.713343</vAcc></extensions></trkpt>
      <trkpt lon="-4.131767" lat="53.005576"><ele>495.781219</ele><time>2021-07-17T10:08:08Z</time><extensions><speed>0.560130</speed><course>306.897400</course><hAcc>0.888181</hAcc><vAcc>0.713399</vAcc></extensions></trkpt>
      <trkpt lon="-4.131771" lat="53.005571"><ele>495.929138</ele><time>2021-07-17T10:08:09Z</time><extensions><speed>0.578976</speed><course>302.152618</course><hAcc>0.888209</hAcc><vAcc>0.713500</vAcc></extensions></trkpt>
      <trkpt lon="-4.131774" lat="53.005566"><ele>496.077576</ele><time>2021-07-17T10:08:10Z</time><extensions><speed>0.595269</speed><course>297.726410</course><hAcc>0.888254</hAcc><vAcc>0.713640</vAcc></extensions></trkpt>
      <trkpt lon="-4.131778" lat="53.005561"><ele>496.226807</ele><time>2021-07-17T10:08:11Z</time><extensions><speed>0.609025</speed><course>300.194183</course><hAcc>0.888315</hAcc><vAcc>0.713816</vAcc></extensions></trkpt>
      <trkpt lon="-4.131782" lat="53.005556"><ele>496.377319</ele><time>2021-07-17T10:08:12Z</time><extensions><speed>0.620698</speed><course>297.151825</course><hAcc>0.888393</hAcc><vAcc>0.714030</vAcc></extensions></trkpt>
      <trkpt lon="-4.131786" lat="53.005551"><ele>496.529449</ele><time>2021-07-17T10:08:13Z</time><extensions><speed>0.630382</speed><course>298.399384</course><hAcc>0.888486</hAcc><vAcc>0.714288</vAcc></extensions></trkpt>
      <trkpt lon="-4.131790" lat="53.005546"><ele>496.683380</ele><time>2021-07-17T10:08:14Z</time><extensions><speed>0.637737</speed><course>300.837921</course><hAcc>0.888593</hAcc><vAcc>0.714597</vAcc></extensions></trkpt>
      <trkpt lon="-4.131795" lat="53.005541"><ele>496.838867</ele><time>2021-07-17T10:08:15Z</time><extensions><speed>0.642736</speed><course>299.844330</course><hAcc>0.888713</hAcc><vAcc>0.714960</vAcc></extensions></trkpt>
      <trkpt lon="-4.131799" lat="53.005536"><ele>496.995697</ele><time>2021-07-17T10:08:16Z</time><extensions><speed>0.645878</speed><course>300.001373</course><hAcc>0.888826</hAcc><vAcc>0.715358</vAcc></extensions></trkpt>
      <trkpt lon="-4.131804" lat="53.005531"><ele>497.153137</ele><time>2021-07-17T10:08:17Z</time><extensions><speed>0.648170</speed><course>294.568817</course><hAcc>0.888927</hAcc><vAcc>0.715778</vAcc></extensions></trkpt>
      <trkpt lon="-4.131808" lat="53.005526"><ele>497.310974</ele><time>2021-07-17T10:08:18Z</time><extensions><speed>0.650878</speed><course>300.687103</course><hAcc>0.889031</hAcc><vAcc>0.716211</vAcc></extensions></trkpt>
      <trkpt lon="-4.131813" lat="53.005520"><ele>497.469086</ele><time>2021-07-17T10:08:19Z</time><extensions><speed>0.654876</speed><course>297.691925</course><hAcc>0.889133</hAcc><vAcc>0.716634</vAcc></extensions></trkpt>
      <trkpt lon="-4.131818" lat="53.005515"><ele>497.627686</ele><time>2021-07-17T10:08:20Z</time><extensions><speed>0.660428</speed><course>293.928223</course><hAcc>0.889229</hAcc><vAcc>0.717023</vAcc></extensions></trkpt>
      <trkpt lon="-4.131823" lat="53.005510"><ele>497.787079</ele><time>2021-07-17T10:08:21Z</time><extensions><speed>0.666924</speed><course>297.041656</course><hAcc>0.889315</hAcc><vAcc>0.717356</vAcc></extensions></trkpt>
      <trkpt lon="-4.131828" lat="53.005505"><ele>497.947479</ele><time>2021-07-17T10:08:22Z</time><extensions><speed>0.672867</speed><course>298.722290</course><hAcc>0.889388</hAcc><vAcc>0.717619</vAcc></extensions></trkpt>
      <trkpt lon="-4.131833" lat="53.005500"><ele>498.108765</ele><time>2021-07-17T10:08:23Z</time><extensions><speed>0.677337</speed><course>296.674316</course><hAcc>0.889446</hAcc><vAcc>0.717808</vAcc></extensions></trkpt>
      <trkpt lon="-4.131838" lat="53.005494"><ele>498.270752</ele><time>2021-07-17T10:08:24Z</time><extensions><speed>0.680328</speed><course>301.147156</course><hAcc>0.889488</hAcc><vAcc>0.717924</vAcc></extensions></trkpt>
      <trkpt lon="-4.131843" lat="53.005489"><ele>498.433472</ele><time>2021-07-17T10:08:25Z</time><extensions><speed>0.681871</speed><course>301.618805</course><hAcc>0.889512</hAcc><vAcc>0.717978</vAcc></extensions></trkpt>
      <trkpt lon="-4.131849" lat="53.005484"><ele>498.597046</ele><time>2021-07-17T10:08:26Z</time><extensions><speed>0.681931</speed><course>300.678009</course><hAcc>0.889519</hAcc><vAcc>0.717981</vAcc></extensions></trkpt>
      <trkpt lon="-4.131854" lat="53.005479"><ele>498.761475</ele><time>2021-07-17T10:08:27Z</time><extensions><speed>0.680384</speed><course>306.078644</course><hAcc>0.889512</hAcc><vAcc>0.717944</vAcc></extensions></trkpt>
      <trkpt lon="-4.131859" lat="53.005474"><ele>498.926666</ele><time>2021-07-17T10:08:28Z</time><extensions><speed>0.677125</speed><course>302.099213</course><hAcc>0.889490</hAcc><vAcc>0.717875</vAcc></extensions></trkpt>
      <trkpt lon="-4.131865" lat="53.005468"><ele>499.092438</ele><time>2021-07-17T10:08:29Z</time><extensions><speed>0.672342</speed><course>298.253754</course><hAcc>0.889476</hAcc><vAcc>0.717797</vAcc></extensions></trkpt>
      <trkpt lon="-4.131870" lat="53.005463"><ele>499.259277</ele><time>2021-07-17T10:08:30Z</time><extensions><speed>0.666622</speed><course>299.772583</course><hAcc>0.889471</hAcc><vAcc>0.717718</vAcc></extensions></trkpt>
      <trkpt lon="-4.131875" lat="53.005458"><ele>499.426971</ele><time>2021-07-17T10:08:31Z</time><extensions><speed>0.660618</speed><course>299.946075</course><hAcc>0.889461</hAcc><vAcc>0.717636</vAcc></extensions></trkpt>
      <trkpt lon="-4.131880" lat="53.005453"><ele>499.595551</ele><time>2021-07-17T10:08:32Z</time><extensions><speed>0.654685</speed><course>303.968170</course><hAcc>0.889446</hAcc><vAcc>0.717559</vAcc></extensions></trkpt>
      <trkpt lon="-4.131885" lat="53.005448"><ele>499.764923</ele><time>2021-07-17T10:08:33Z</time><extensions><speed>0.648941</speed><course>302.223755</course><hAcc>0.889429</hAcc><vAcc>0.717497</vAcc></extensions></trkpt>
      <trkpt lon="-4.131889" lat="53.005443"><ele>499.935120</ele><time>2021-07-17T10:08:34Z</time><extensions><speed>0.643451</speed><course>303.590851</course><hAcc>0.889409</hAcc><vAcc>0.717452</vAcc></extensions></trkpt>
      <trkpt lon="-4.131894" lat="53.005438"><ele>500.106049</ele><time>2021-07-17T10:08:35Z</time><extensions><speed>0.638408</speed><course>302.656281</course><hAcc>0.889384</hAcc><vAcc>0.717427</vAcc></extensions></trkpt>
      <trkpt lon="-4.131898" lat="53.005433"><ele>500.277710</ele><time>2021-07-17T10:08:36Z</time><extensions><speed>0.634167</speed><course>307.857574</course><hAcc>0.889352</hAcc><vAcc>0.717410</vAcc></extensions></trkpt>
      <trkpt lon="-4.131903" lat="53.005428"><ele>500.449860</ele><time>2021-07-17T10:08:36Z</time><extensions><speed>0.631113</speed><course>306.241272</course><hAcc>0.889330</hAcc><vAcc>0.717401</vAcc></extensions></trkpt>
      <trkpt lon="-4.131907" lat="53.005423"><ele>500.622803</ele><time>2021-07-17T10:08:37Z</time><extensions><speed>0.629595</speed><course>302.560516</course><hAcc>0.889316</hAcc><vAcc>0.717380</vAcc></extensions></trkpt>
      <trkpt lon="-4.131911" lat="53.005418"><ele>500.796204</ele><time>2021-07-17T10:08:38Z</time><extensions><speed>0.630141</speed><course>304.207947</course><hAcc>0.889291</hAcc><vAcc>0.717316</vAcc></extensions></trkpt>
      <trkpt lon="-4.131914" lat="53.005412"><ele>500.970032</ele><time>2021-07-17T10:08:39Z</time><extensions><speed>0.633404</speed><course>304.678192</course><hAcc>0.889255</hAcc><vAcc>0.717198</vAcc></extensions></trkpt>
      <trkpt lon="-4.131917" lat="53.005407"><ele>501.144501</ele><time>2021-07-17T10:08:40Z</time><extensions><speed>0.639790</speed><course>300.816559</course><hAcc>0.889208</hAcc><vAcc>0.717022</vAcc></extensions></trkpt>
      <trkpt lon="-4.131921" lat="53.005401"><ele>501.319855</ele><time>2021-07-17T10:08:41Z</time><extensions><speed>0.649155</speed><course>302.457642</course><hAcc>0.889151</hAcc><vAcc>0.716791</vAcc></extensions></trkpt>
      <trkpt lon="-4.131924" lat="53.005396"><ele>501.496185</ele><time>2021-07-17T10:08:42Z</time><extensions><speed>0.660880</speed><course>303.405792</course><hAcc>0.889085</hAcc><vAcc>0.716520</vAcc></extensions></trkpt>
      <trkpt lon="-4.131926" lat="53.005390"><ele>501.673462</ele><time>2021-07-17T10:08:43Z</time><extensions><speed>0.674124</speed><course>305.179382</course><hAcc>0.889010</hAcc><vAcc>0.716224</vAcc></extensions></trkpt>
      <trkpt lon="-4.131929" lat="53.005384"><ele>501.851868</ele><time>2021-07-17T10:08:44Z</time><extensions><speed>0.687926</speed><course>301.811188</course><hAcc>0.888931</hAcc><vAcc>0.715917</vAcc></extensions></trkpt>
      <trkpt lon="-4.131932" lat="53.005378"><ele>502.031982</ele><time>2021-07-17T10:08:45Z</time><extensions><speed>0.701364</speed><course>294.111877</course><hAcc>0.888848</hAcc><vAcc>0.715612</vAcc></extensions></trkpt>
      <trkpt lon="-4.131935" lat="53.005372"><ele>502.214508</ele><time>2021-07-17T10:08:46Z</time><extensions><speed>0.713713</speed><course>291.186249</course><hAcc>0.888764</hAcc><vAcc>0.715317</vAcc></extensions></trkpt>
      <trkpt lon="-4.131937" lat="53.005366"><ele>502.399902</ele><time>2021-07-17T10:08:47Z</time><extensions><speed>0.724309</speed><course>291.833313</course><hAcc>0.888680</hAcc><vAcc>0.715039</vAcc></extensions></trkpt>
      <trkpt lon="-4.131940" lat="53.005359"><ele>502.588379</ele><time>2021-07-17T10:08:48Z</time><extensions><speed>0.732689</speed><course>293.198639</course><hAcc>0.888600</hAcc><vAcc>0.714783</vAcc></extensions></trkpt>
      <trkpt lon="-4.131942" lat="53.005353"><ele>502.779846</ele><time>2021-07-17T10:08:49Z</time><extensions><speed>0.738938</speed><course>297.953094</course><hAcc>0.888521</hAcc><vAcc>0.714547</vAcc></extensions></trkpt>
      <trkpt lon="-4.131944" lat="53.005346"><ele>502.973938</ele><time>2021-07-17T10:08:50Z</time><extensions><speed>0.743485</speed><course>294.998413</course><hAcc>0.888446</hAcc><vAcc>0.714330</vAcc></extensions></trkpt>
      <trkpt lon="-4.131946" lat="53.005340"><ele>503.170074</ele><time>2021-07-17T10:08:51Z</time><extensions><speed>0.746949</speed><course>290.333923</course><hAcc>0.888373</hAcc><vAcc>0.714125</vAcc></extensions></trkpt>
      <trkpt lon="-4.131948" lat="53.005333"><ele>503.367432</ele><time>2021-07-17T10:08:52Z</time><extensions><speed>0.750330</speed><course>297.336884</course><hAcc>0.888301</hAcc><vAcc>0.713926</vAcc></extensions></trkpt>
      <trkpt lon="-4.131949" lat="53.005326"><ele>503.565094</ele><time>2021-07-17T10:08:53Z</time><extensions><speed>0.754690</speed><course>291.763641</course><hAcc>0.888231</hAcc><vAcc>0.713724</vAcc></extensions></trkpt>
      <trkpt lon="-4.131950" lat="53.005320"><ele>503.762329</ele><time>2021-07-17T10:08:54Z</time><extensions><speed>0.760446</speed><course>293.588959</course><hAcc>0.888161</hAcc><vAcc>0.713511</vAcc></extensions></trkpt>
      <trkpt lon="-4.131950" lat="53.005313"><ele>503.958527</ele><time>2021-07-17T10:08:55Z</time><extensions><speed>0.767365</speed><course>298.534668</course><hAcc>0.888090</hAcc><vAcc>0.713285</vAcc></extensions></trkpt>
      <trkpt lon="-4.131950" lat="53.005306"><ele>504.153076</ele><time>2021-07-17T10:08:56Z</time><extensions><speed>0.774957</speed><course>294.834351</course><hAcc>0.888019</hAcc><vAcc>0.713048</vAcc></extensions></trkpt>
      <trkpt lon="-4.131950" lat="53.005299"><ele>504.345520</ele><time>2021-07-17T10:08:57Z</time><extensions><speed>0.782826</speed><course>297.698059</course><hAcc>0.887949</hAcc><vAcc>0.712806</vAcc></extensions></trkpt>
      <trkpt lon="-4.131950" lat="53.005292"><ele>504.535553</ele><time>2021-07-17T10:08:58Z</time><extensions><speed>0.790699</speed><course>298.511444</course><hAcc>0.887878</hAcc><vAcc>0.712563</vAcc></extensions></trkpt>
      <trkpt lon="-4.131950" lat="53.005285"><ele>504.722656</ele><time>2021-07-17T10:08:59Z</time><extensions><speed>0.798322</speed><course>303.054443</course><hAcc>0.887809</hAcc><vAcc>0.712325</vAcc></extensions></trkpt>
      <trkpt lon="-4.131950" lat="53.005277"><ele>504.906250</ele><time>2021-07-17T10:09:00Z</time><extensions><speed>0.805599</speed><course>300.594757</course><hAcc>0.887744</hAcc><vAcc>0.712094</vAcc></extensions></trkpt>
      <trkpt lon="-4.131949" lat="53.005270"><ele>505.085571</ele><time>2021-07-17T10:09:01Z</time><extensions><speed>0.812586</speed><course>303.489990</course><hAcc>0.887683</hAcc><vAcc>0.711877</vAcc></extensions></trkpt>
      <trkpt lon="-4.131949" lat="53.005263"><ele>505.259949</ele><time>2021-07-17T10:09:02Z</time><extensions><speed>0.819231</speed><course>307.296783</course><hAcc>0.887629</hAcc><vAcc>0.711680</vAcc></extensions></trkpt>
      <trkpt lon="-4.131948" lat="53.005256"><ele>505.429047</ele><time>2021-07-17T10:09:03Z</time><extensions><speed>0.825319</speed><course>306.846466</course><hAcc>0.887585</hAcc><vAcc>0.711512</vAcc></extensions></trkpt>
      <trkpt lon="-4.131948" lat="53.005248"><ele>505.593140</ele><time>2021-07-17T10:09:04Z</time><extensions><speed>0.830527</speed><course>314.303711</course><hAcc>0.887551</hAcc><vAcc>0.711379</vAcc></extensions></trkpt>
      <trkpt lon="-4.131947" lat="53.005241"><ele>505.753143</ele><time>2021-07-17T10:09:05Z</time><extensions><speed>0.834272</speed><course>316.753265</course><hAcc>0.887530</hAcc><vAcc>0.711287</vAcc></extensions></trkpt>
      <trkpt lon="-4.131947" lat="53.005233"><ele>505.910553</ele><time>2021-07-17T10:09:06Z</time><extensions><speed>0.835746</speed><course>312.101562</course><hAcc>0.887525</hAcc><vAcc>0.711239</vAcc></extensions></trkpt>
      <trkpt lon="-4.131946" lat="53.005226"><ele>506.066895</ele><time>2021-07-17T10:09:07Z</time><extensions><speed>0.834189</speed><course>310.983948</course><hAcc>0.887539</hAcc><vAcc>0.711239</vAcc></extensions></trkpt>
      <trkpt lon="-4.131946" lat="53.005218"><ele>506.223083</ele><time>2021-07-17T10:09:09Z</time><extensions><speed>0.829143</speed><course>316.824890</course><hAcc>0.887555</hAcc><vAcc>0.711279</vAcc></extensions></trkpt>
      <trkpt lon="-4.131946" lat="53.005211"><ele>506.378662</ele><time>2021-07-17T10:09:10Z</time><extensions><speed>0.820598</speed><course>324.005005</course><hAcc>0.887576</hAcc><vAcc>0.711364</vAcc></extensions></trkpt>
      <trkpt lon="-4.131946" lat="53.005203"><ele>506.533539</ele><time>2021-07-17T10:09:11Z</time><extensions><speed>0.808790</speed><course>322.091736</course><hAcc>0.887620</hAcc><vAcc>0.711510</vAcc></extensions></trkpt>
      <trkpt lon="-4.131947" lat="53.005196"><ele>506.687836</ele><time>2021-07-17T10:09:12Z</time><extensions><speed>0.794109</speed><course>322.830170</course><hAcc>0.887690</hAcc><vAcc>0.711722</vAcc></extensions></trkpt>
      <trkpt lon="-4.131948" lat="53.005189"><ele>506.842041</ele><time>2021-07-17T10:09:13Z</time><extensions><speed>0.776925</speed><course>325.823517</course><hAcc>0.887784</hAcc><vAcc>0.712008</vAcc></extensions></trkpt>
      <trkpt lon="-4.131950" lat="53.005182"><ele>506.996582</ele><time>2021-07-17T10:09:14Z</time><extensions><speed>0.757581</speed><course>331.853210</course><hAcc>0.887904</hAcc><vAcc>0.712375</vAcc></extensions></trkpt>
      <trkpt lon="-4.131952" lat="53.005176"><ele>507.151520</ele><time>2021-07-17T10:09:15Z</time><extensions><speed>0.736755</speed><course>331.260956</course><hAcc>0.888049</hAcc><vAcc>0.712831</vAcc></extensions></trkpt>
      <trkpt lon="-4.131955" lat="53.005170"><ele>507.306732</ele><time>2021-07-17T10:09:16Z</time><extensions><speed>0.715254</speed><course>329.072571</course><hAcc>0.888217</hAcc><vAcc>0.713379</vAcc></extensions></trkpt>
      <trkpt lon="-4.131959" lat="53.005164"><ele>507.461975</ele><time>2021-07-17T10:09:17Z</time><extensions><speed>0.693960</speed><course>325.473938</course><hAcc>0.888405</hAcc><vAcc>0.714017</vAcc></extensions></trkpt>
      <trkpt lon="-4.131963" lat="53.005158"><ele>507.616882</ele><time>2021-07-17T10:09:18Z</time><extensions><speed>0.673928</speed><course>325.383026</course><hAcc>0.888610</hAcc><vAcc>0.714735</vAcc></extensions></trkpt>
      <trkpt lon="-4.131969" lat="53.005153"><ele>507.770905</ele><time>2021-07-17T10:09:19Z</time><extensions><speed>0.656311</speed><course>325.061401</course><hAcc>0.888828</hAcc><vAcc>0.715515</vAcc></extensions></trkpt>
      <trkpt lon="-4.131975" lat="53.005149"><ele>507.923248</ele><time>2021-07-17T10:09:20Z</time><extensions><speed>0.642369</speed><course>325.207275</course><hAcc>0.889052</hAcc><vAcc>0.716327</vAcc></extensions></trkpt>
      <trkpt lon="-4.131982" lat="53.005145"><ele>508.073090</ele><time>2021-07-17T10:09:21Z</time><extensions><speed>0.633242</speed><course>322.410889</course><hAcc>0.889279</hAcc><vAcc>0.717143</vAcc></extensions></trkpt>
      <trkpt lon="-4.131989" lat="53.005141"><ele>508.219543</ele><time>2021-07-17T10:09:22Z</time><extensions><speed>0.629880</speed><course>319.218658</course><hAcc>0.889502</hAcc><vAcc>0.717931</vAcc></extensions></trkpt>
      <trkpt lon="-4.131997" lat="53.005138"><ele>508.361786</ele><time>2021-07-17T10:09:23Z</time><extensions><speed>0.632841</speed><course>319.790588</course><hAcc>0.889716</hAcc><vAcc>0.718667</vAcc></extensions></trkpt>
      <trkpt lon="-4.132006" lat="53.005136"><ele>508.499176</ele><time>2021-07-17T10:09:24Z</time><extensions><speed>0.641638</speed><course>318.972229</course><hAcc>0.889917</hAcc><vAcc>0.719333</vAcc></extensions></trkpt>
      <trkpt lon="-4.132015" lat="53.005134"><ele>508.631073</ele><time>2021-07-17T10:09:25Z</time><extensions><speed>0.654836</speed><course>320.354065</course><hAcc>0.890102</hAcc><vAcc>0.719921</vAcc></extensions></trkpt>
      <trkpt lon="-4.132024" lat="53.005132"><ele>508.757294</ele><time>2021-07-17T10:09:26Z</time><extensions><speed>0.670889</speed><course>320.541016</course><hAcc>0.890267</hAcc><vAcc>0.720427</vAcc></extensions></trkpt>
      <trkpt lon="-4.132034" lat="53.005131"><ele>508.878326</ele><time>2021-07-17T10:09:27Z</time><extensions><speed>0.688289</speed><course>317.906189</course><hAcc>0.890412</hAcc><vAcc>0.720855</vAcc></extensions></trkpt>
      <trkpt lon="-4.132044" lat="53.005130"><ele>508.995209</ele><time>2021-07-17T10:09:28Z</time><extensions><speed>0.704948</speed><course>316.077393</course><hAcc>0.890536</hAcc><vAcc>0.721209</vAcc></extensions></trkpt>
      <trkpt lon="-4.132055" lat="53.005130"><ele>509.109467</ele><time>2021-07-17T10:09:29Z</time><extensions><speed>0.718798</speed><course>307.356537</course><hAcc>0.890638</hAcc><vAcc>0.721497</vAcc></extensions></trkpt>
      <trkpt lon="-4.132066" lat="53.005129"><ele>509.223114</ele><time>2021-07-17T10:09:30Z</time><extensions><speed>0.728454</speed><course>302.004150</course><hAcc>0.890720</hAcc><vAcc>0.721728</vAcc></extensions></trkpt>
      <trkpt lon="-4.132077" lat="53.005128"><ele>509.338318</ele><time>2021-07-17T10:09:31Z</time><extensions><speed>0.733120</speed><course>310.520874</course><hAcc>0.890783</hAcc><vAcc>0.721907</vAcc></extensions></trkpt>
      <trkpt lon="-4.132087" lat="53.005128"><ele>509.457123</ele><time>2021-07-17T10:09:32Z</time><extensions><speed>0.732804</speed><course>307.778412</course><hAcc>0.890827</hAcc><vAcc>0.722042</vAcc></extensions></trkpt>
      <trkpt lon="-4.132098" lat="53.005126"><ele>509.581207</ele><time>2021-07-17T10:09:33Z</time><extensions><speed>0.728319</speed><course>310.132080</course><hAcc>0.890853</hAcc><vAcc>0.722133</vAcc></extensions></trkpt>
      <trkpt lon="-4.132109" lat="53.005125"><ele>509.711761</ele><time>2021-07-17T10:09:34Z</time><extensions><speed>0.721268</speed><course>310.327301</course><hAcc>0.890862</hAcc><vAcc>0.722178</vAcc></extensions></trkpt>
      <trkpt lon="-4.132119" lat="53.005123"><ele>509.849792</ele><time>2021-07-17T10:09:35Z</time><extensions><speed>0.713396</speed><course>308.925873</course><hAcc>0.890854</hAcc><vAcc>0.722174</vAcc></extensions></trkpt>
      <trkpt lon="-4.132129" lat="53.005121"><ele>509.996246</ele><time>2021-07-17T10:09:36Z</time><extensions><speed>0.705507</speed><course>308.955322</course><hAcc>0.890830</hAcc><vAcc>0.722115</vAcc></extensions></trkpt>
      <trkpt lon="-4.132138" lat="53.005119"><ele>510.151825</ele><time>2021-07-17T10:09:37Z</time><extensions><speed>0.697324</speed><course>303.152588</course><hAcc>0.890790</hAcc><vAcc>0.721997</vAcc></extensions></trkpt>
      <trkpt lon="-4.132148" lat="53.005116"><ele>510.316772</ele><time>2021-07-17T10:09:38Z</time><extensions><speed>0.688151</speed><course>313.156525</course><hAcc>0.890734</hAcc><vAcc>0.721817</vAcc></extensions></trkpt>
      <trkpt lon="-4.132156" lat="53.005113"><ele>510.490814</ele><time>2021-07-17T10:09:39Z</time><extensions><speed>0.677633</speed><course>307.864197</course><hAcc>0.890662</hAcc><vAcc>0.721578</vAcc></extensions></trkpt>
      <trkpt lon="-4.132164" lat="53.005109"><ele>510.673187</ele><time>2021-07-17T10:09:40Z</time><extensions><speed>0.665928</speed><course>309.541687</course><hAcc>0.890574</hAcc><vAcc>0.721284</vAcc></extensions></trkpt>
      <trkpt lon="-4.132172" lat="53.005105"><ele>510.862732</ele><time>2021-07-17T10:09:41Z</time><extensions><speed>0.653039</speed><course>312.130341</course><hAcc>0.890470</hAcc><vAcc>0.720941</vAcc></extensions></trkpt>
      <trkpt lon="-4.132178" lat="53.005101"><ele>511.058197</ele><time>2021-07-17T10:09:42Z</time><extensions><speed>0.638824</speed><course>310.268982</course><hAcc>0.890353</hAcc><vAcc>0.720553</vAcc></extensions></trkpt>
      <trkpt lon="-4.132184" lat="53.005097"><ele>511.258118</ele><time>2021-07-17T10:09:43Z</time><extensions><speed>0.623511</speed><course>308.247070</course><hAcc>0.890223</hAcc><vAcc>0.720126</vAcc></extensions></trkpt>
      <trkpt lon="-4.132190" lat="53.005092"><ele>511.461060</ele><time>2021-07-17T10:09:44Z</time><extensions><speed>0.607779</speed><course>304.229858</course><hAcc>0.890083</hAcc><vAcc>0.719665</vAcc></extensions></trkpt>
      <trkpt lon="-4.132195" lat="53.005088"><ele>511.665588</ele><time>2021-07-17T10:09:45Z</time><extensions><speed>0.592646</speed><course>308.310059</course><hAcc>0.889935</hAcc><vAcc>0.719174</vAcc></extensions></trkpt>
      <trkpt lon="-4.132199" lat="53.005083"><ele>511.870331</ele><time>2021-07-17T10:09:46Z</time><extensions><speed>0.579183</speed><course>311.142822</course><hAcc>0.889784</hAcc><vAcc>0.718662</vAcc></extensions></trkpt>
      <trkpt lon="-4.132202" lat="53.005078"><ele>512.074097</ele><time>2021-07-17T10:09:47Z</time><extensions><speed>0.567917</speed><course>305.518036</course><hAcc>0.889631</hAcc><vAcc>0.718138</vAcc></extensions></trkpt>
      <trkpt lon="-4.132205" lat="53.005074"><ele>512.275879</ele><time>2021-07-17T10:09:48Z</time><extensions><speed>0.558134</speed><course>303.061462</course><hAcc>0.889483</hAcc><vAcc>0.717618</vAcc></extensions></trkpt>
      <trkpt lon="-4.132208" lat="53.005069"><ele>512.474792</ele><time>2021-07-17T10:09:49Z</time><extensions><speed>0.548846</speed><course>298.232086</course><hAcc>0.889342</hAcc><vAcc>0.717119</vAcc></extensions></trkpt>
      <trkpt lon="-4.132210" lat="53.005064"><ele>512.669983</ele><time>2021-07-17T10:09:50Z</time><extensions><speed>0.539567</speed><course>289.358276</course><hAcc>0.889214</hAcc><vAcc>0.716658</vAcc></extensions></trkpt>
      <trkpt lon="-4.132212" lat="53.005059"><ele>512.861023</ele><time>2021-07-17T10:09:51Z</time><extensions><speed>0.529969</speed><course>285.924469</course><hAcc>0.889103</hAcc><vAcc>0.716253</vAcc></extensions></trkpt>
      <trkpt lon="-4.132214" lat="53.005055"><ele>513.047607</ele><time>2021-07-17T10:09:52Z</time><extensions><speed>0.520036</speed><course>280.520447</course><hAcc>0.889013</hAcc><vAcc>0.715919</vAcc></extensions></trkpt>
      <trkpt lon="-4.132216" lat="53.005050"><ele>513.229431</ele><time>2021-07-17T10:09:53Z</time><extensions><speed>0.510230</speed><course>286.862061</course><hAcc>0.888948</hAcc><vAcc>0.715672</vAcc></extensions></trkpt>
      <trkpt lon="-4.132218" lat="53.005046"><ele>513.406494</ele><time>2021-07-17T10:09:54Z</time><extensions><speed>0.501439</speed><course>295.700317</course><hAcc>0.888912</hAcc><vAcc>0.715524</vAcc></extensions></trkpt>
      <trkpt lon="-4.132221" lat="53.005042"><ele>513.578674</ele><time>2021-07-17T10:09:55Z</time><extensions><speed>0.494860</speed><course>296.161560</course><hAcc>0.888908</hAcc><vAcc>0.715485</vAcc></extensions></trkpt>
      <trkpt lon="-4.132223" lat="53.005038"><ele>513.746155</ele><time>2021-07-17T10:09:56Z</time><extensions><speed>0.491427</speed><course>298.229218</course><hAcc>0.888936</hAcc><vAcc>0.715561</vAcc></extensions></trkpt>
      <trkpt lon="-4.132227" lat="53.005034"><ele>513.908691</ele><time>2021-07-17T10:09:57Z</time><extensions><speed>0.491376</speed><course>297.545471</course><hAcc>0.888996</hAcc><vAcc>0.715754</vAcc></extensions></trkpt>
      <trkpt lon="-4.132231" lat="53.005030"><ele>514.066284</ele><time>2021-07-17T10:09:58Z</time><extensions><speed>0.494862</speed><course>292.454163</course><hAcc>0.889087</hAcc><vAcc>0.716065</vAcc></extensions></trkpt>
      <trkpt lon="-4.132235" lat="53.005026"><ele>514.218811</ele><time>2021-07-17T10:09:59Z</time><extensions><speed>0.501965</speed><course>287.195465</course><hAcc>0.889204</hAcc><vAcc>0.716490</vAcc></extensions></trkpt>
      <trkpt lon="-4.132240" lat="53.005023"><ele>514.366394</ele><time>2021-07-17T10:10:00Z</time><extensions><speed>0.512376</speed><course>283.339600</course><hAcc>0.889344</hAcc><vAcc>0.717015</vAcc></extensions></trkpt>
      <trkpt lon="-4.132245" lat="53.005020"><ele>514.508972</ele><time>2021-07-17T10:10:01Z</time><extensions><speed>0.525501</speed><course>283.687531</course><hAcc>0.889499</hAcc><vAcc>0.717614</vAcc></extensions></trkpt>
      <trkpt lon="-4.132251" lat="53.005017"><ele>514.646667</ele><time>2021-07-17T10:10:02Z</time><extensions><speed>0.540633</speed><course>284.089417</course><hAcc>0.889664</hAcc><vAcc>0.718253</vAcc></extensions></trkpt>
      <trkpt lon="-4.132258" lat="53.005014"><ele>514.779968</ele><time>2021-07-17T10:10:03Z</time><extensions><speed>0.556926</speed><course>286.432800</course><hAcc>0.889831</hAcc><vAcc>0.718891</vAcc></extensions></trkpt>
      <trkpt lon="-4.132265" lat="53.005011"><ele>514.909851</ele><time>2021-07-17T10:10:04Z</time><extensions><speed>0.572833</speed><course>288.844025</course><hAcc>0.889993</hAcc><vAcc>0.719498</vAcc></extensions></trkpt>
      <trkpt lon="-4.132272" lat="53.005008"><ele>515.037292</ele><time>2021-07-17T10:10:05Z</time><extensions><speed>0.586243</speed><course>294.600861</course><hAcc>0.890141</hAcc><vAcc>0.720044</vAcc></extensions></trkpt>
      <trkpt lon="-4.132280" lat="53.005005"><ele>515.163635</ele><time>2021-07-17T10:10:06Z</time><extensions><speed>0.595620</speed><course>289.399475</course><hAcc>0.890270</hAcc><vAcc>0.720509</vAcc></extensions></trkpt>
      <trkpt lon="-4.132287" lat="53.005002"><ele>515.290100</ele><time>2021-07-17T10:10:07Z</time><extensions><speed>0.600312</speed><course>292.462738</course><hAcc>0.890372</hAcc><vAcc>0.720876</vAcc></extensions></trkpt>
      <trkpt lon="-4.132295" lat="53.005000"><ele>515.418030</ele><time>2021-07-17T10:10:08Z</time><extensions><speed>0.600383</speed><course>292.044128</course><hAcc>0.890445</hAcc><vAcc>0.721131</vAcc></extensions></trkpt>
      <trkpt lon="-4.132302" lat="53.004997"><ele>515.548340</ele><time>2021-07-17T10:10:09Z</time><extensions><speed>0.596533</speed><course>289.426849</course><hAcc>0.890485</hAcc><vAcc>0.721265</vAcc></extensions></trkpt>
      <trkpt lon="-4.132310" lat="53.004994"><ele>515.681763</ele><time>2021-07-17T10:10:10Z</time><extensions><speed>0.589855</speed><course>292.821838</course><hAcc>0.890491</hAcc><vAcc>0.721276</vAcc></extensions></trkpt>
      <trkpt lon="-4.132316" lat="53.004990"><ele>515.818787</ele><time>2021-07-17T10:10:11Z</time><extensions><speed>0.581652</speed><course>287.405121</course><hAcc>0.890464</hAcc><vAcc>0.721165</vAcc></extensions></trkpt>
      <trkpt lon="-4.132323" lat="53.004987"><ele>515.959534</ele><time>2021-07-17T10:10:12Z</time><extensions><speed>0.573484</speed><course>289.328461</course><hAcc>0.890407</hAcc><vAcc>0.720938</vAcc></extensions></trkpt>
      <trkpt lon="-4.132329" lat="53.004983"><ele>516.104187</ele><time>2021-07-17T10:10:13Z</time><extensions><speed>0.567105</speed><course>290.686554</course><hAcc>0.890323</hAcc><vAcc>0.720608</vAcc></extensions></trkpt>
      <trkpt lon="-4.132335" lat="53.004980"><ele>516.252808</ele><time>2021-07-17T10:10:14Z</time><extensions><speed>0.563760</speed><course>291.519623</course><hAcc>0.890217</hAcc><vAcc>0.720192</vAcc></extensions></trkpt>
      <trkpt lon="-4.132340" lat="53.004976"><ele>516.405273</ele><time>2021-07-17T10:10:15Z</time><extensions><speed>0.563657</speed><course>289.260345</course><hAcc>0.890094</hAcc><vAcc>0.719715</vAcc></extensions></trkpt>
      <trkpt lon="-4.132345" lat="53.004972"><ele>516.561401</ele><time>2021-07-17T10:10:16Z</time><extensions><speed>0.566313</speed><course>291.671295</course><hAcc>0.889959</hAcc><vAcc>0.719202</vAcc></extensions></trkpt>
      <trkpt lon="-4.132349" lat="53.004967"><ele>516.721191</ele><time>2021-07-17T10:10:17Z</time><extensions><speed>0.571234</speed><course>285.797272</course><hAcc>0.889817</hAcc><vAcc>0.718679</vAcc></extensions></trkpt>
      <trkpt lon="-4.132353" lat="53.004963"><ele>516.884766</ele><time>2021-07-17T10:10:18Z</time><extensions><speed>0.578148</speed><course>284.045776</course><hAcc>0.889674</hAcc><vAcc>0.718168</vAcc></extensions></trkpt>
      <trkpt lon="-4.132357" lat="53.004958"><ele>517.052063</ele><time>2021-07-17T10:10:19Z</time><extensions><speed>0.586832</speed><course>290.744446</course><hAcc>0.889534</hAcc><vAcc>0.717685</vAcc></extensions></trkpt>
      <trkpt lon="-4.132361" lat="53.004953"><ele>517.222656</ele><time>2021-07-17T10:10:20Z</time><extensions><speed>0.596483</speed><course>286.155334</course><hAcc>0.889402</hAcc><vAcc>0.717241</vAcc></extensions></trkpt>
      <trkpt lon="-4.132364" lat="53.004948"><ele>517.396118</ele><time>2021-07-17T10:10:21Z</time><extensions><speed>0.605814</speed><course>292.078705</course><hAcc>0.889281</hAcc><vAcc>0.716846</vAcc></extensions></trkpt>
      <trkpt lon="-4.132367" lat="53.004943"><ele>517.571838</ele><time>2021-07-17T10:10:22Z</time><extensions><speed>0.613964</speed><course>292.906311</course><hAcc>0.889173</hAcc><vAcc>0.716504</vAcc></extensions></trkpt>
      <trkpt lon="-4.132370" lat="53.004938"><ele>517.749390</ele><time>2021-07-17T10:10:23Z</time><extensions><speed>0.620601</speed><course>291.462067</course><hAcc>0.889080</hAcc><vAcc>0.716216</vAcc></extensions></trkpt>
      <trkpt lon="-4.132372" lat="53.004932"><ele>517.928345</ele><time>2021-07-17T10:10:24Z</time><extensions><speed>0.625636</speed><course>290.448425</course><hAcc>0.889003</hAcc><vAcc>0.715979</vAcc></extensions></trkpt>
      <trkpt lon="-4.132375" lat="53.004927"><ele>518.108459</ele><time>2021-07-17T10:10:25Z</time><extensions><speed>0.629003</speed><course>295.857269</course><hAcc>0.888940</hAcc><vAcc>0.715792</vAcc></extensions></trkpt>
      <trkpt lon="-4.132377" lat="53.004921"><ele>518.289612</ele><time>2021-07-17T10:10:26Z</time><extensions><speed>0.630629</speed><course>298.185364</course><hAcc>0.888892</hAcc><vAcc>0.715649</vAcc></extensions></trkpt>
      <trkpt lon="-4.132379" lat="53.004916"><ele>518.471436</ele><time>2021-07-17T10:10:27Z</time><extensions><speed>0.630747</speed><course>294.469940</course><hAcc>0.888856</hAcc><vAcc>0.715548</vAcc></extensions></trkpt>
      <trkpt lon="-4.132380" lat="53.004910"><ele>518.653442</ele><time>2021-07-17T10:10:28Z</time><extensions><speed>0.629708</speed><course>292.898438</course><hAcc>0.888831</hAcc><vAcc>0.715485</vAcc></extensions></trkpt>
      <trkpt lon="-4.132382" lat="53.004905"><ele>518.834595</ele><time>2021-07-17T10:10:29Z</time><extensions><speed>0.627705</speed><course>292.422791</course><hAcc>0.888816</hAcc><vAcc>0.715454</vAcc></extensions></trkpt>
      <trkpt lon="-4.132383" lat="53.004899"><ele>519.013794</ele><time>2021-07-17T10:10:30Z</time><extensions><speed>0.624840</speed><course>292.622986</course><hAcc>0.888807</hAcc><vAcc>0.715448</vAcc></extensions></trkpt>
      <trkpt lon="-4.132384" lat="53.004893"><ele>519.189880</ele><time>2021-07-17T10:10:31Z</time><extensions><speed>0.621398</speed><course>292.749084</course><hAcc>0.888803</hAcc><vAcc>0.715456</vAcc></extensions></trkpt>
      <trkpt lon="-4.132384" lat="53.004888"><ele>519.361816</ele><time>2021-07-17T10:10:32Z</time><extensions><speed>0.618042</speed><course>294.832458</course><hAcc>0.888784</hAcc><vAcc>0.715453</vAcc></extensions></trkpt>
      <trkpt lon="-4.132384" lat="53.004882"><ele>519.528076</ele><time>2021-07-17T10:10:33Z</time><extensions><speed>0.615524</speed><course>290.563019</course><hAcc>0.888746</hAcc><vAcc>0.715430</vAcc></extensions></trkpt>
      <trkpt lon="-4.132384" lat="53.004877"><ele>519.687927</ele><time>2021-07-17T10:10:34Z</time><extensions><speed>0.614504</speed><course>288.082062</course><hAcc>0.888704</hAcc><vAcc>0.715391</vAcc></extensions></trkpt>
      <trkpt lon="-4.132383" lat="53.004871"><ele>519.840637</ele><time>2021-07-17T10:10:34Z</time><extensions><speed>0.615487</speed><course>289.238037</course><hAcc>0.888692</hAcc><vAcc>0.715358</vAcc></extensions></trkpt>
      <trkpt lon="-4.132382" lat="53.004866"><ele>519.986816</ele><time>2021-07-17T10:10:35Z</time><extensions><speed>0.618449</speed><course>289.037109</course><hAcc>0.888707</hAcc><vAcc>0.715334</vAcc></extensions></trkpt>
      <trkpt lon="-4.132381" lat="53.004860"><ele>520.126648</ele><time>2021-07-17T10:10:37Z</time><extensions><speed>0.622613</speed><course>291.884949</course><hAcc>0.888695</hAcc><vAcc>0.715283</vAcc></extensions></trkpt>
      <trkpt lon="-4.132379" lat="53.004855"><ele>520.260437</ele><time>2021-07-17T10:10:38Z</time><extensions><speed>0.626833</speed><course>287.567657</course><hAcc>0.888656</hAcc><vAcc>0.715206</vAcc></extensions></trkpt>
      <trkpt lon="-4.132377" lat="53.004849"><ele>520.389465</ele><time>2021-07-17T10:10:38Z</time><extensions><speed>0.630324</speed><course>291.768890</course><hAcc>0.888627</hAcc><vAcc>0.715125</vAcc></extensions></trkpt>
      <trkpt lon="-4.132376" lat="53.004844"><ele>520.515564</ele><time>2021-07-17T10:10:39Z</time><extensions><speed>0.632945</speed><course>296.126740</course><hAcc>0.888609</hAcc><vAcc>0.715037</vAcc></extensions></trkpt>
      <trkpt lon="-4.132374" lat="53.004838"><ele>520.640564</ele><time>2021-07-17T10:10:40Z</time><extensions><speed>0.635175</speed><course>297.059143</course><hAcc>0.888585</hAcc><vAcc>0.714930</vAcc></extensions></trkpt>
      <trkpt lon="-4.132373" lat="53.004832"><ele>520.766113</ele><time>2021-07-17T10:10:41Z</time><extensions><speed>0.637772</speed><course>303.696320</course><hAcc>0.888559</hAcc><vAcc>0.714809</vAcc></extensions></trkpt>
      <trkpt lon="-4.132372" lat="53.004827"><ele>520.893494</ele><time>2021-07-17T10:10:42Z</time><extensions><speed>0.641222</speed><course>307.460022</course><hAcc>0.888533</hAcc><vAcc>0.714684</vAcc></extensions></trkpt>
      <trkpt lon="-4.132372" lat="53.004821"><ele>521.023804</ele><time>2021-07-17T10:10:43Z</time><extensions><speed>0.645629</speed><course>302.094666</course><hAcc>0.888511</hAcc><vAcc>0.714562</vAcc></extensions></trkpt>
      <trkpt lon="-4.132373" lat="53.004815"><ele>521.157837</ele><time>2021-07-17T10:10:44Z</time><extensions><speed>0.650786</speed><course>294.763123</course><hAcc>0.888496</hAcc><vAcc>0.714455</vAcc></extensions></trkpt>
      <trkpt lon="-4.132373" lat="53.004809"><ele>521.296204</ele><time>2021-07-17T10:10:45Z</time><extensions><speed>0.656348</speed><course>292.310913</course><hAcc>0.888492</hAcc><vAcc>0.714377</vAcc></extensions></trkpt>
      <trkpt lon="-4.132374" lat="53.004803"><ele>521.439270</ele><time>2021-07-17T10:10:46Z</time><extensions><speed>0.661904</speed><course>286.252472</course><hAcc>0.888500</hAcc><vAcc>0.714345</vAcc></extensions></trkpt>
      <trkpt lon="-4.132376" lat="53.004797"><ele>521.587524</ele><time>2021-07-17T10:10:47Z</time><extensions><speed>0.666884</speed><course>277.085999</course><hAcc>0.888523</hAcc><vAcc>0.714373</vAcc></extensions></trkpt>
      <trkpt lon="-4.132378" lat="53.004791"><ele>521.741455</ele><time>2021-07-17T10:10:48Z</time><extensions><speed>0.670510</speed><course>269.880463</course><hAcc>0.888559</hAcc><vAcc>0.714474</vAcc></extensions></trkpt>
      <trkpt lon="-4.132380" lat="53.004786"><ele>521.901428</ele><time>2021-07-17T10:10:49Z</time><extensions><speed>0.671952</speed><course>256.014618</course><hAcc>0.888609</hAcc><vAcc>0.714652</vAcc></extensions></trkpt>
      <trkpt lon="-4.132383" lat="53.004780"><ele>522.067505</ele><time>2021-07-17T10:10:50Z</time><extensions><speed>0.670370</speed><course>250.524368</course><hAcc>0.888667</hAcc><vAcc>0.714904</vAcc></extensions></trkpt>
      <trkpt lon="-4.132386" lat="53.004774"><ele>522.239319</ele><time>2021-07-17T10:10:51Z</time><extensions><speed>0.665499</speed><course>237.491638</course><hAcc>0.888730</hAcc><vAcc>0.715213</vAcc></extensions></trkpt>
      <trkpt lon="-4.132389" lat="53.004768"><ele>522.416321</ele><time>2021-07-17T10:10:52Z</time><extensions><speed>0.657592</speed><course>231.976761</course><hAcc>0.888792</hAcc><vAcc>0.715548</vAcc></extensions></trkpt>
      <trkpt lon="-4.132391" lat="53.004763"><ele>522.597839</ele><time>2021-07-17T10:10:53Z</time><extensions><speed>0.646923</speed><course>228.504318</course><hAcc>0.888849</hAcc><vAcc>0.715868</vAcc></extensions></trkpt>
      <trkpt lon="-4.132394" lat="53.004757"><ele>522.783264</ele><time>2021-07-17T10:10:54Z</time><extensions><speed>0.633930</speed><course>227.577087</course><hAcc>0.888894</hAcc><vAcc>0.716131</vAcc></extensions></trkpt>
      <trkpt lon="-4.132397" lat="53.004752"><ele>522.972046</ele><time>2021-07-17T10:10:55Z</time><extensions><speed>0.619364</speed><course>219.513672</course><hAcc>0.888923</hAcc><vAcc>0.716302</vAcc></extensions></trkpt>
      <trkpt lon="-4.132399" lat="53.004747"><ele>523.163391</ele><time>2021-07-17T10:10:56Z</time><extensions><speed>0.604212</speed><course>224.903015</course><hAcc>0.888935</hAcc><vAcc>0.716361</vAcc></extensions></trkpt>
      <trkpt lon="-4.132402" lat="53.004741"><ele>523.356384</ele><time>2021-07-17T10:10:57Z</time><extensions><speed>0.589354</speed><course>222.390198</course><hAcc>0.888929</hAcc><vAcc>0.716304</vAcc></extensions></trkpt>
      <trkpt lon="-4.132403" lat="53.004736"><ele>523.549988</ele><time>2021-07-17T10:10:58Z</time><extensions><speed>0.575741</speed><course>223.313202</course><hAcc>0.888905</hAcc><vAcc>0.716141</vAcc></extensions></trkpt>
      <trkpt lon="-4.132405" lat="53.004731"><ele>523.743164</ele><time>2021-07-17T10:10:59Z</time><extensions><speed>0.564009</speed><course>224.045700</course><hAcc>0.888869</hAcc><vAcc>0.715899</vAcc></extensions></trkpt>
      <trkpt lon="-4.132406" lat="53.004726"><ele>523.935303</ele><time>2021-07-17T10:11:00Z</time><extensions><speed>0.554076</speed><course>224.975723</course><hAcc>0.888826</hAcc><vAcc>0.715613</vAcc></extensions></trkpt>
      <trkpt lon="-4.132407" lat="53.004721"><ele>524.125916</ele><time>2021-07-17T10:11:01Z</time><extensions><speed>0.545581</speed><course>226.513992</course><hAcc>0.888783</hAcc><vAcc>0.715324</vAcc></extensions></trkpt>
      <trkpt lon="-4.132409" lat="53.004717"><ele>524.314514</ele><time>2021-07-17T10:11:02Z</time><extensions><speed>0.538328</speed><course>227.291473</course><hAcc>0.888747</hAcc><vAcc>0.715075</vAcc></extensions></trkpt>
      <trkpt lon="-4.132410" lat="53.004712"><ele>524.500732</ele><time>2021-07-17T10:11:03Z</time><extensions><speed>0.532445</speed><course>231.833313</course><hAcc>0.888726</hAcc><vAcc>0.714901</vAcc></extensions></trkpt>
      <trkpt lon="-4.132412" lat="53.004707"><ele>524.684448</ele><time>2021-07-17T10:11:04Z</time><extensions><speed>0.528117</speed><course>230.421005</course><hAcc>0.888724</hAcc><vAcc>0.714831</vAcc></extensions></trkpt>
      <trkpt lon="-4.132413" lat="53.004702"><ele>524.865784</ele><time>2021-07-17T10:11:05Z</time><extensions><speed>0.525475</speed><course>235.980087</course><hAcc>0.888744</hAcc><vAcc>0.714886</vAcc></extensions></trkpt>
      <trkpt lon="-4.132415" lat="53.004698"><ele>525.045044</ele><time>2021-07-17T10:11:06Z</time><extensions><speed>0.524732</speed><course>243.213364</course><hAcc>0.888789</hAcc><vAcc>0.715070</vAcc></extensions></trkpt>
      <trkpt lon="-4.132418" lat="53.004693"><ele>525.222412</ele><time>2021-07-17T10:11:07Z</time><extensions><speed>0.526071</speed><course>253.165268</course><hAcc>0.888856</hAcc><vAcc>0.715374</vAcc></extensions></trkpt>
      <trkpt lon="-4.132421" lat="53.004689"><ele>525.398499</ele><time>2021-07-17T10:11:08Z</time><extensions><speed>0.529257</speed><course>266.505096</course><hAcc>0.888941</hAcc><vAcc>0.715769</vAcc></extensions></trkpt>
      <trkpt lon="-4.132424" lat="53.004685"><ele>525.573730</ele><time>2021-07-17T10:11:09Z</time><extensions><speed>0.533451</speed><course>267.255646</course><hAcc>0.889041</hAcc><vAcc>0.716218</vAcc></extensions></trkpt>
      <trkpt lon="-4.132428" lat="53.004680"><ele>525.748535</ele><time>2021-07-17T10:11:10Z</time><extensions><speed>0.537755</speed><course>271.176971</course><hAcc>0.889150</hAcc><vAcc>0.716678</vAcc></extensions></trkpt>
      <trkpt lon="-4.132432" lat="53.004676"><ele>525.923340</ele><time>2021-07-17T10:11:11Z</time><extensions><speed>0.541704</speed><course>283.145996</course><hAcc>0.889263</hAcc><vAcc>0.717111</vAcc></extensions></trkpt>
      <trkpt lon="-4.132436" lat="53.004672"><ele>526.098694</ele><time>2021-07-17T10:11:12Z</time><extensions><speed>0.544811</speed><course>291.499756</course><hAcc>0.889377</hAcc><vAcc>0.717488</vAcc></extensions></trkpt>
      <trkpt lon="-4.132440" lat="53.004668"><ele>526.274963</ele><time>2021-07-17T10:11:14Z</time><extensions><speed>0.546564</speed><course>295.960785</course><hAcc>0.889470</hAcc><vAcc>0.717781</vAcc></extensions></trkpt>
      <trkpt lon="-4.132444" lat="53.004663"><ele>526.451843</ele><time>2021-07-17T10:11:15Z</time><extensions><speed>0.546635</speed><course>298.309418</course><hAcc>0.889539</hAcc><vAcc>0.717987</vAcc></extensions></trkpt>
      <trkpt lon="-4.132448" lat="53.004659"><ele>526.629517</ele><time>2021-07-17T10:11:16Z</time><extensions><speed>0.544939</speed><course>301.442566</course><hAcc>0.889603</hAcc><vAcc>0.718132</vAcc></extensions></trkpt>
      <trkpt lon="-4.132452" lat="53.004655"><ele>526.807434</ele><time>2021-07-17T10:11:17Z</time><extensions><speed>0.541336</speed><course>301.820831</course><hAcc>0.889660</hAcc><vAcc>0.718236</vAcc></extensions></trkpt>
      <trkpt lon="-4.132456" lat="53.004651"><ele>526.985168</ele><time>2021-07-17T10:11:18Z</time><extensions><speed>0.535607</speed><course>306.533081</course><hAcc>0.889713</hAcc><vAcc>0.718324</vAcc></extensions></trkpt>
      <trkpt lon="-4.132460" lat="53.004647"><ele>527.161682</ele><time>2021-07-17T10:11:19Z</time><extensions><speed>0.527929</speed><course>310.759277</course><hAcc>0.889762</hAcc><vAcc>0.718419</vAcc></extensions></trkpt>
      <trkpt lon="-4.132464" lat="53.004643"><ele>527.336182</ele><time>2021-07-17T10:11:20Z</time><extensions><speed>0.518746</speed><course>315.721252</course><hAcc>0.889811</hAcc><vAcc>0.718535</vAcc></extensions></trkpt>
      <trkpt lon="-4.132468" lat="53.004639"><ele>527.507568</ele><time>2021-07-17T10:11:21Z</time><extensions><speed>0.508627</speed><course>321.376434</course><hAcc>0.889863</hAcc><vAcc>0.718685</vAcc></extensions></trkpt>
      <trkpt lon="-4.132472" lat="53.004635"><ele>527.674622</ele><time>2021-07-17T10:11:22Z</time><extensions><speed>0.498226</speed><course>321.893402</course><hAcc>0.889918</hAcc><vAcc>0.718873</vAcc></extensions></trkpt>
      <trkpt lon="-4.132476" lat="53.004631"><ele>527.836426</ele><time>2021-07-17T10:11:23Z</time><extensions><speed>0.488529</speed><course>325.867676</course><hAcc>0.889977</hAcc><vAcc>0.719096</vAcc></extensions></trkpt>
      <trkpt lon="-4.132480" lat="53.004628"><ele>527.992371</ele><time>2021-07-17T10:11:24Z</time><extensions><speed>0.480618</speed><course>319.975250</course><hAcc>0.890040</hAcc><vAcc>0.719346</vAcc></extensions></trkpt>
      <trkpt lon="-4.132485" lat="53.004624"><ele>528.142273</ele><time>2021-07-17T10:11:25Z</time><extensions><speed>0.474898</speed><course>320.826599</course><hAcc>0.890104</hAcc><vAcc>0.719608</vAcc></extensions></trkpt>
      <trkpt lon="-4.132489" lat="53.004621"><ele>528.286194</ele><time>2021-07-17T10:11:26Z</time><extensions><speed>0.471118</speed><course>320.826599</course><hAcc>0.890169</hAcc><vAcc>0.719868</vAcc></extensions></trkpt>
      <trkpt lon="-4.132494" lat="53.004618"><ele>528.424683</ele><time>2021-07-17T10:11:27Z</time><extensions><speed>0.469000</speed><course>320.826599</course><hAcc>0.890231</hAcc><vAcc>0.720111</vAcc></extensions></trkpt>
      <trkpt lon="-4.132499" lat="53.004615"><ele>528.558228</ele><time>2021-07-17T10:11:28Z</time><extensions><speed>0.468467</speed><course>320.826599</course><hAcc>0.890287</hAcc><vAcc>0.720327</vAcc></extensions></trkpt>
      <trkpt lon="-4.132505" lat="53.004613"><ele>528.687378</ele><time>2021-07-17T10:11:29Z</time><extensions><speed>0.469484</speed><course>320.826599</course><hAcc>0.890333</hAcc><vAcc>0.720506</vAcc></extensions></trkpt>
      <trkpt lon="-4.132510" lat="53.004610"><ele>528.812683</ele><time>2021-07-17T10:11:30Z</time><extensions><speed>0.472078</speed><course>320.826599</course><hAcc>0.890368</hAcc><vAcc>0.720639</vAcc></extensions></trkpt>
      <trkpt lon="-4.132516" lat="53.004608"><ele>528.934814</ele><time>2021-07-17T10:11:31Z</time><extensions><speed>0.475979</speed><course>320.826599</course><hAcc>0.890389</hAcc><vAcc>0.720722</vAcc></extensions></trkpt>
      <trkpt lon="-4.132522" lat="53.004605"><ele>529.054565</ele><time>2021-07-17T10:11:32Z</time><extensions><speed>0.480284</speed><course>320.826599</course><hAcc>0.890395</hAcc><vAcc>0.720751</vAcc></extensions></trkpt>
      <trkpt lon="-4.132528" lat="53.004603"><ele>529.172668</ele><time>2021-07-17T10:11:33Z</time><extensions><speed>0.483665</speed><course>320.826599</course><hAcc>0.890386</hAcc><vAcc>0.720725</vAcc></extensions></trkpt>
      <trkpt lon="-4.132534" lat="53.004600"><ele>529.289490</ele><time>2021-07-17T10:11:34Z</time><extensions><speed>0.484985</speed><course>320.826599</course><hAcc>0.890365</hAcc><vAcc>0.720646</vAcc></extensions></trkpt>
      <trkpt lon="-4.132540" lat="53.004598"><ele>529.404846</ele><time>2021-07-17T10:11:35Z</time><extensions><speed>0.484172</speed><course>320.826599</course><hAcc>0.890333</hAcc><vAcc>0.720515</vAcc></extensions></trkpt>
      <trkpt lon="-4.132546" lat="53.004596"><ele>529.518616</ele><time>2021-07-17T10:11:36Z</time><extensions><speed>0.482097</speed><course>320.826599</course><hAcc>0.890294</hAcc><vAcc>0.720339</vAcc></extensions></trkpt>
      <trkpt lon="-4.132552" lat="53.004593"><ele>529.630493</ele><time>2021-07-17T10:11:37Z</time><extensions><speed>0.479842</speed><course>320.826599</course><hAcc>0.890253</hAcc><vAcc>0.720131</vAcc></extensions></trkpt>
      <trkpt lon="-4.132558" lat="53.004591"><ele>529.740173</ele><time>2021-07-17T10:11:38Z</time><extensions><speed>0.478408</speed><course>320.826599</course><hAcc>0.890214</hAcc><vAcc>0.719913</vAcc></extensions></trkpt>
      <trkpt lon="-4.132564" lat="53.004589"><ele>529.847290</ele><time>2021-07-17T10:11:39Z</time><extensions><speed>0.478796</speed><course>320.826599</course><hAcc>0.890179</hAcc><vAcc>0.719710</vAcc></extensions></trkpt>
      <trkpt lon="-4.132570" lat="53.004586"><ele>529.951599</ele><time>2021-07-17T10:11:40Z</time><extensions><speed>0.481912</speed><course>320.826599</course><hAcc>0.890153</hAcc><vAcc>0.719549</vAcc></extensions></trkpt>
      <trkpt lon="-4.132576" lat="53.004584"><ele>530.053223</ele><time>2021-07-17T10:11:41Z</time><extensions><speed>0.487934</speed><course>320.826599</course><hAcc>0.890137</hAcc><vAcc>0.719454</vAcc></extensions></trkpt>
      <trkpt lon="-4.132582" lat="53.004582"><ele>530.152527</ele><time>2021-07-17T10:11:42Z</time><extensions><speed>0.496378</speed><course>320.826599</course><hAcc>0.890130</hAcc><vAcc>0.719438</vAcc></extensions></trkpt>
      <trkpt lon="-4.132589" lat="53.004579"><ele>530.249939</ele><time>2021-07-17T10:11:43Z</time><extensions><speed>0.506575</speed><course>320.826599</course><hAcc>0.890133</hAcc><vAcc>0.719501</vAcc></extensions></trkpt>
      <trkpt lon="-4.132595" lat="53.004577"><ele>530.346130</ele><time>2021-07-17T10:11:44Z</time><extensions><speed>0.518006</speed><course>320.826599</course><hAcc>0.890144</hAcc><vAcc>0.719627</vAcc></extensions></trkpt>
      <trkpt lon="-4.132602" lat="53.004574"><ele>530.441772</ele><time>2021-07-17T10:11:45Z</time><extensions><speed>0.530179</speed><course>320.826599</course><hAcc>0.890159</hAcc><vAcc>0.719790</vAcc></extensions></trkpt>
      <trkpt lon="-4.132609" lat="53.004572"><ele>530.537720</ele><time>2021-07-17T10:11:46Z</time><extensions><speed>0.541879</speed><course>320.826569</course><hAcc>0.890175</hAcc><vAcc>0.719958</vAcc></extensions></trkpt>
      <trkpt lon="-4.132616" lat="53.004569"><ele>530.634399</ele><time>2021-07-17T10:11:47Z</time><extensions><speed>0.552555</speed><course>320.826569</course><hAcc>0.890188</hAcc><vAcc>0.720100</vAcc></extensions></trkpt>
      <trkpt lon="-4.132622" lat="53.004566"><ele>530.732605</ele><time>2021-07-17T10:11:48Z</time><extensions><speed>0.562849</speed><course>320.826569</course><hAcc>0.890196</hAcc><vAcc>0.720189</vAcc></extensions></trkpt>
      <trkpt lon="-4.132629" lat="53.004563"><ele>530.833130</ele><time>2021-07-17T10:11:49Z</time><extensions><speed>0.573058</speed><course>320.826569</course><hAcc>0.890195</hAcc><vAcc>0.720207</vAcc></extensions></trkpt>
      <trkpt lon="-4.132636" lat="53.004560"><ele>530.936890</ele><time>2021-07-17T10:11:50Z</time><extensions><speed>0.583047</speed><course>306.179871</course><hAcc>0.890184</hAcc><vAcc>0.720148</vAcc></extensions></trkpt>
      <trkpt lon="-4.132643" lat="53.004557"><ele>531.044678</ele><time>2021-07-17T10:11:51Z</time><extensions><speed>0.592515</speed><course>252.340622</course><hAcc>0.890162</hAcc><vAcc>0.720019</vAcc></extensions></trkpt>
      <trkpt lon="-4.132650" lat="53.004554"><ele>531.157104</ele><time>2021-07-17T10:11:52Z</time><extensions><speed>0.600804</speed><course>240.417450</course><hAcc>0.890128</hAcc><vAcc>0.719837</vAcc></extensions></trkpt>
      <trkpt lon="-4.132656" lat="53.004550"><ele>531.274719</ele><time>2021-07-17T10:11:53Z</time><extensions><speed>0.607098</speed><course>226.735764</course><hAcc>0.890085</hAcc><vAcc>0.719621</vAcc></extensions></trkpt>
      <trkpt lon="-4.132663" lat="53.004546"><ele>531.397644</ele><time>2021-07-17T10:11:54Z</time><extensions><speed>0.610855</speed><course>213.254318</course><hAcc>0.890034</hAcc><vAcc>0.719392</vAcc></extensions></trkpt>
      <trkpt lon="-4.132669" lat="53.004542"><ele>531.525696</ele><time>2021-07-17T10:11:55Z</time><extensions><speed>0.611867</speed><course>209.983795</course><hAcc>0.889979</hAcc><vAcc>0.719167</vAcc></extensions></trkpt>
      <trkpt lon="-4.132676" lat="53.004538"><ele>531.658447</ele><time>2021-07-17T10:11:56Z</time><extensions><speed>0.609994</speed><course>212.464371</course><hAcc>0.889922</hAcc><vAcc>0.718955</vAcc></extensions></trkpt>
      <trkpt lon="-4.132682" lat="53.004534"><ele>531.795349</ele><time>2021-07-17T10:11:57Z</time><extensions><speed>0.605068</speed><course>212.464355</course><hAcc>0.889868</hAcc><vAcc>0.718765</vAcc></extensions></trkpt>
      <trkpt lon="-4.132688" lat="53.004530"><ele>531.935852</ele><time>2021-07-17T10:11:58Z</time><extensions><speed>0.596939</speed><course>212.464355</course><hAcc>0.889818</hAcc><vAcc>0.718599</vAcc></extensions></trkpt>
      <trkpt lon="-4.132693" lat="53.004526"><ele>532.079224</ele><time>2021-07-17T10:11:59Z</time><extensions><speed>0.585581</speed><course>212.464340</course><hAcc>0.889773</hAcc><vAcc>0.718459</vAcc></extensions></trkpt>
      <trkpt lon="-4.132699" lat="53.004522"><ele>532.224792</ele><time>2021-07-17T10:12:00Z</time><extensions><speed>0.571176</speed><course>212.464325</course><hAcc>0.889734</hAcc><vAcc>0.718341</vAcc></extensions></trkpt>
      <trkpt lon="-4.132704" lat="53.004518"><ele>532.371521</ele><time>2021-07-17T10:12:01Z</time><extensions><speed>0.553971</speed><course>212.464325</course><hAcc>0.889699</hAcc><vAcc>0.718243</vAcc></extensions></trkpt>
      <trkpt lon="-4.132708" lat="53.004514"><ele>532.518616</ele><time>2021-07-17T10:12:02Z</time><extensions><speed>0.534281</speed><course>212.464325</course><hAcc>0.889666</hAcc><vAcc>0.718164</vAcc></extensions></trkpt>
      <trkpt lon="-4.132713" lat="53.004510"><ele>532.665039</ele><time>2021-07-17T10:12:03Z</time><extensions><speed>0.512443</speed><course>212.464310</course><hAcc>0.889633</hAcc><vAcc>0.718098</vAcc></extensions></trkpt>
      <trkpt lon="-4.132717" lat="53.004506"><ele>532.809814</ele><time>2021-07-17T10:12:04Z</time><extensions><speed>0.488779</speed><course>305.064514</course><hAcc>0.889595</hAcc><vAcc>0.718040</vAcc></extensions></trkpt>
      <trkpt lon="-4.132720" lat="53.004503"><ele>532.951965</ele><time>2021-07-17T10:12:05Z</time><extensions><speed>0.463742</speed><course>295.507660</course><hAcc>0.889548</hAcc><vAcc>0.717976</vAcc></extensions></trkpt>
      <trkpt lon="-4.132723" lat="53.004499"><ele>533.090576</ele><time>2021-07-17T10:12:06Z</time><extensions><speed>0.438202</speed><course>292.618195</course><hAcc>0.889489</hAcc><vAcc>0.717885</vAcc></extensions></trkpt>
      <trkpt lon="-4.132726" lat="53.004495"><ele>533.224854</ele><time>2021-07-17T10:12:07Z</time><extensions><speed>0.413639</speed><course>285.374146</course><hAcc>0.889417</hAcc><vAcc>0.717740</vAcc></extensions></trkpt>
      <trkpt lon="-4.132728" lat="53.004492"><ele>533.354492</ele><time>2021-07-17T10:12:08Z</time><extensions><speed>0.392023</speed><course>282.990997</course><hAcc>0.889330</hAcc><vAcc>0.717516</vAcc></extensions></trkpt>
      <trkpt lon="-4.132729" lat="53.004489"><ele>533.479614</ele><time>2021-07-17T10:12:09Z</time><extensions><speed>0.375382</speed><course>269.408752</course><hAcc>0.889231</hAcc><vAcc>0.717198</vAcc></extensions></trkpt>
      <trkpt lon="-4.132730" lat="53.004485"><ele>533.600647</ele><time>2021-07-17T10:12:10Z</time><extensions><speed>0.364610</speed><course>268.581787</course><hAcc>0.889120</hAcc><vAcc>0.716790</vAcc></extensions></trkpt>
      <trkpt lon="-4.132730" lat="53.004482"><ele>533.718201</ele><time>2021-07-17T10:12:11Z</time><extensions><speed>0.359312</speed><course>262.171875</course><hAcc>0.889002</hAcc><vAcc>0.716312</vAcc></extensions></trkpt>
      <trkpt lon="-4.132730" lat="53.004479"><ele>533.832825</ele><time>2021-07-17T10:12:12Z</time><extensions><speed>0.357793</speed><course>261.539520</course><hAcc>0.888882</hAcc><vAcc>0.715799</vAcc></extensions></trkpt>
      <trkpt lon="-4.132729" lat="53.004476"><ele>533.945129</ele><time>2021-07-17T10:12:13Z</time><extensions><speed>0.357566</speed><course>255.803879</course><hAcc>0.888765</hAcc><vAcc>0.715293</vAcc></extensions></trkpt>
      <trkpt lon="-4.132728" lat="53.004472"><ele>534.055664</ele><time>2021-07-17T10:12:14Z</time><extensions><speed>0.356571</speed><course>247.733398</course><hAcc>0.888660</hAcc><vAcc>0.714833</vAcc></extensions></trkpt>
      <trkpt lon="-4.132727" lat="53.004469"><ele>534.165039</ele><time>2021-07-17T10:12:15Z</time><extensions><speed>0.354036</speed><course>231.932861</course><hAcc>0.888572</hAcc><vAcc>0.714454</vAcc></extensions></trkpt>
      <trkpt lon="-4.132727" lat="53.004466"><ele>534.273804</ele><time>2021-07-17T10:12:16Z</time><extensions><speed>0.350495</speed><course>232.043365</course><hAcc>0.888509</hAcc><vAcc>0.714179</vAcc></extensions></trkpt>
      <trkpt lon="-4.132727" lat="53.004463"><ele>534.382690</ele><time>2021-07-17T10:12:17Z</time><extensions><speed>0.347101</speed><course>225.182800</course><hAcc>0.888475</hAcc><vAcc>0.714028</vAcc></extensions></trkpt>
      <trkpt lon="-4.132727" lat="53.004460"><ele>534.492432</ele><time>2021-07-17T10:12:18Z</time><extensions><speed>0.344763</speed><course>222.937302</course><hAcc>0.888475</hAcc><vAcc>0.714013</vAcc></extensions></trkpt>
      <trkpt lon="-4.132728" lat="53.004457"><ele>534.603516</ele><time>2021-07-17T10:12:19Z</time><extensions><speed>0.343640</speed><course>226.615036</course><hAcc>0.888508</hAcc><vAcc>0.714139</vAcc></extensions></trkpt>
      <trkpt lon="-4.132729" lat="53.004454"><ele>534.716248</ele><time>2021-07-17T10:12:20Z</time><extensions><speed>0.343470</speed><course>227.377960</course><hAcc>0.888573</hAcc><vAcc>0.714400</vAcc></extensions></trkpt>
      <trkpt lon="-4.132731" lat="53.004451"><ele>534.830383</ele><time>2021-07-17T10:12:21Z</time><extensions><speed>0.343860</speed><course>225.027542</course><hAcc>0.888666</hAcc><vAcc>0.714784</vAcc></extensions></trkpt>
      <trkpt lon="-4.132733" lat="53.004448"><ele>534.945435</ele><time>2021-07-17T10:12:22Z</time><extensions><speed>0.344393</speed><course>217.523773</course><hAcc>0.888782</hAcc><vAcc>0.715268</vAcc></extensions></trkpt>
      <trkpt lon="-4.132736" lat="53.004446"><ele>535.060730</ele><time>2021-07-17T10:12:23Z</time><extensions><speed>0.344766</speed><course>217.503448</course><hAcc>0.888913</hAcc><vAcc>0.715819</vAcc></extensions></trkpt>
      <trkpt lon="-4.132739" lat="53.004443"><ele>535.175720</ele><time>2021-07-17T10:12:24Z</time><extensions><speed>0.345144</speed><course>222.947372</course><hAcc>0.889053</hAcc><vAcc>0.716397</vAcc></extensions></trkpt>
      <trkpt lon="-4.132743" lat="53.004441"><ele>535.289490</ele><time>2021-07-17T10:12:25Z</time><extensions><speed>0.345923</speed><course>228.737518</course><hAcc>0.889195</hAcc><vAcc>0.716962</vAcc></extensions></trkpt>
      <trkpt lon="-4.132747" lat="53.004439"><ele>535.401611</ele><time>2021-07-17T10:12:26Z</time><extensions><speed>0.347113</speed><course>234.887939</course><hAcc>0.889332</hAcc><vAcc>0.717478</vAcc></extensions></trkpt>
      <trkpt lon="-4.132751" lat="53.004437"><ele>535.511963</ele><time>2021-07-17T10:12:27Z</time><extensions><speed>0.348659</speed><course>232.671463</course><hAcc>0.889461</hAcc><vAcc>0.717920</vAcc></extensions></trkpt>
      <trkpt lon="-4.132755" lat="53.004435"><ele>535.620483</ele><time>2021-07-17T10:12:28Z</time><extensions><speed>0.350845</speed><course>228.680756</course><hAcc>0.889579</hAcc><vAcc>0.718278</vAcc></extensions></trkpt>
      <trkpt lon="-4.132759" lat="53.004434"><ele>535.727051</ele><time>2021-07-17T10:12:29Z</time><extensions><speed>0.354034</speed><course>228.367065</course><hAcc>0.889685</hAcc><vAcc>0.718551</vAcc></extensions></trkpt>
      <trkpt lon="-4.132764" lat="53.004432"><ele>535.831726</ele><time>2021-07-17T10:12:30Z</time><extensions><speed>0.358531</speed><course>227.760208</course><hAcc>0.889779</hAcc><vAcc>0.718752</vAcc></extensions></trkpt>
      <trkpt lon="-4.132768" lat="53.004430"><ele>535.934814</ele><time>2021-07-17T10:12:31Z</time><extensions><speed>0.364707</speed><course>230.377014</course><hAcc>0.889864</hAcc><vAcc>0.718904</vAcc></extensions></trkpt>
      <trkpt lon="-4.132773" lat="53.004428"><ele>536.036926</ele><time>2021-07-17T10:12:32Z</time><extensions><speed>0.372996</speed><course>236.559235</course><hAcc>0.889942</hAcc><vAcc>0.719035</vAcc></extensions></trkpt>
      <trkpt lon="-4.132778" lat="53.004427"><ele>536.138306</ele><time>2021-07-17T10:12:33Z</time><extensions><speed>0.383924</speed><course>232.877869</course><hAcc>0.890015</hAcc><vAcc>0.719175</vAcc></extensions></trkpt>
      <trkpt lon="-4.132783" lat="53.004425"><ele>536.239380</ele><time>2021-07-17T10:12:34Z</time><extensions><speed>0.397741</speed><course>233.901962</course><hAcc>0.890088</hAcc><vAcc>0.719346</vAcc></extensions></trkpt>
      <trkpt lon="-4.132788" lat="53.004423"><ele>536.340454</ele><time>2021-07-17T10:12:35Z</time><extensions><speed>0.414166</speed><course>234.840546</course><hAcc>0.890162</hAcc><vAcc>0.719559</vAcc></extensions></trkpt>
      <trkpt lon="-4.132794" lat="53.004422"><ele>536.442078</ele><time>2021-07-17T10:12:36Z</time><extensions><speed>0.432286</speed><course>231.563858</course><hAcc>0.890218</hAcc><vAcc>0.719800</vAcc></extensions></trkpt>
      <trkpt lon="-4.132800" lat="53.004420"><ele>536.544739</ele><time>2021-07-17T10:12:37Z</time><extensions><speed>0.450610</speed><course>226.163422</course><hAcc>0.890255</hAcc><vAcc>0.720057</vAcc></extensions></trkpt>
      <trkpt lon="-4.132806" lat="53.004418"><ele>536.649109</ele><time>2021-07-17T10:12:38Z</time><extensions><speed>0.468396</speed><course>224.694687</course><hAcc>0.890288</hAcc><vAcc>0.720319</vAcc></extensions></trkpt>
      <trkpt lon="-4.132812" lat="53.004416"><ele>536.756226</ele><time>2021-07-17T10:12:39Z</time><extensions><speed>0.485421</speed><course>227.400024</course><hAcc>0.890311</hAcc><vAcc>0.720561</vAcc></extensions></trkpt>
      <trkpt lon="-4.132819" lat="53.004414"><ele>536.867249</ele><time>2021-07-17T10:12:40Z</time><extensions><speed>0.501438</speed><course>225.215622</course><hAcc>0.890316</hAcc><vAcc>0.720755</vAcc></extensions></trkpt>
      <trkpt lon="-4.132826" lat="53.004412"><ele>536.983582</ele><time>2021-07-17T10:12:40Z</time><extensions><speed>0.515909</speed><course>227.979385</course><hAcc>0.890336</hAcc><vAcc>0.720900</vAcc></extensions></trkpt>
      <trkpt lon="-4.132833" lat="53.004410"><ele>537.106934</ele><time>2021-07-17T10:12:41Z</time><extensions><speed>0.528094</speed><course>238.133682</course><hAcc>0.890365</hAcc><vAcc>0.720977</vAcc></extensions></trkpt>
      <trkpt lon="-4.132839" lat="53.004407"><ele>537.238098</ele><time>2021-07-17T10:12:42Z</time><extensions><speed>0.537321</speed><course>235.678314</course><hAcc>0.890363</hAcc><vAcc>0.720948</vAcc></extensions></trkpt>
      <trkpt lon="-4.132846" lat="53.004405"><ele>537.377441</ele><time>2021-07-17T10:12:43Z</time><extensions><speed>0.543500</speed><course>238.960709</course><hAcc>0.890332</hAcc><vAcc>0.720807</vAcc></extensions></trkpt>
      <trkpt lon="-4.132852" lat="53.004402"><ele>537.525269</ele><time>2021-07-17T10:12:44Z</time><extensions><speed>0.546718</speed><course>237.793289</course><hAcc>0.890269</hAcc><vAcc>0.720556</vAcc></extensions></trkpt>
      <trkpt lon="-4.132859" lat="53.004398"><ele>537.681458</ele><time>2021-07-17T10:12:45Z</time><extensions><speed>0.546934</speed><course>238.209671</course><hAcc>0.890177</hAcc><vAcc>0.720203</vAcc></extensions></trkpt>
      <trkpt lon="-4.132864" lat="53.004395"><ele>537.845825</ele><time>2021-07-17T10:12:46Z</time><extensions><speed>0.544265</speed><course>239.435074</course><hAcc>0.890058</hAcc><vAcc>0.719761</vAcc></extensions></trkpt>
      <trkpt lon="-4.132870" lat="53.004391"><ele>538.018005</ele><time>2021-07-17T10:12:47Z</time><extensions><speed>0.539487</speed><course>238.666733</course><hAcc>0.889915</hAcc><vAcc>0.719243</vAcc></extensions></trkpt>
      <trkpt lon="-4.132875" lat="53.004388"><ele>538.197266</ele><time>2021-07-17T10:12:48Z</time><extensions><speed>0.533719</speed><course>234.077820</course><hAcc>0.889753</hAcc><vAcc>0.718663</vAcc></extensions></trkpt>
      <trkpt lon="-4.132879" lat="53.004384"><ele>538.382629</ele><time>2021-07-17T10:12:49Z</time><extensions><speed>0.527935</speed><course>227.293335</course><hAcc>0.889580</hAcc><vAcc>0.718038</vAcc></extensions></trkpt>
      <trkpt lon="-4.132883" lat="53.004380"><ele>538.573242</ele><time>2021-07-17T10:12:51Z</time><extensions><speed>0.522693</speed><course>230.072769</course><hAcc>0.889384</hAcc><vAcc>0.717373</vAcc></extensions></trkpt>
      <trkpt lon="-4.132887" lat="53.004376"><ele>538.767578</ele><time>2021-07-17T10:12:52Z</time><extensions><speed>0.518281</speed><course>228.397232</course><hAcc>0.889171</hAcc><vAcc>0.716691</vAcc></extensions></trkpt>
      <trkpt lon="-4.132890" lat="53.004371"><ele>538.964355</ele><time>2021-07-17T10:12:52Z</time><extensions><speed>0.514740</speed><course>230.234772</course><hAcc>0.888986</hAcc><vAcc>0.716040</vAcc></extensions></trkpt>
      <trkpt lon="-4.132893" lat="53.004367"><ele>539.162903</ele><time>2021-07-17T10:12:53Z</time><extensions><speed>0.511856</speed><course>226.599274</course><hAcc>0.888835</hAcc><vAcc>0.715445</vAcc></extensions></trkpt>
      <trkpt lon="-4.132895" lat="53.004363"><ele>539.361816</ele><time>2021-07-17T10:12:54Z</time><extensions><speed>0.509432</speed><course>226.515137</course><hAcc>0.888707</hAcc><vAcc>0.714924</vAcc></extensions></trkpt>
      <trkpt lon="-4.132898" lat="53.004358"><ele>539.560059</ele><time>2021-07-17T10:12:55Z</time><extensions><speed>0.506939</speed><course>226.136917</course><hAcc>0.888609</hAcc><vAcc>0.714509</vAcc></extensions></trkpt>
      <trkpt lon="-4.132900" lat="53.004354"><ele>539.756897</ele><time>2021-07-17T10:12:56Z</time><extensions><speed>0.503825</speed><course>230.381958</course><hAcc>0.888547</hAcc><vAcc>0.714230</vAcc></extensions></trkpt>
      <trkpt lon="-4.132902" lat="53.004350"><ele>539.951660</ele><time>2021-07-17T10:12:57Z</time><extensions><speed>0.499968</speed><course>226.727509</course><hAcc>0.888524</hAcc><vAcc>0.714109</vAcc></extensions></trkpt>
      <trkpt lon="-4.132905" lat="53.004345"><ele>540.144165</ele><time>2021-07-17T10:12:58Z</time><extensions><speed>0.495468</speed><course>230.180862</course><hAcc>0.888538</hAcc><vAcc>0.714160</vAcc></extensions></trkpt>
      <trkpt lon="-4.132907" lat="53.004341"><ele>540.334534</ele><time>2021-07-17T10:12:59Z</time><extensions><speed>0.490733</speed><course>225.214905</course><hAcc>0.888589</hAcc><vAcc>0.714384</vAcc></extensions></trkpt>
      <trkpt lon="-4.132910" lat="53.004337"><ele>540.523071</ele><time>2021-07-17T10:13:00Z</time><extensions><speed>0.486248</speed><course>228.288971</course><hAcc>0.888671</hAcc><vAcc>0.714762</vAcc></extensions></trkpt>
      <trkpt lon="-4.132913" lat="53.004333"><ele>540.710144</ele><time>2021-07-17T10:13:01Z</time><extensions><speed>0.482254</speed><course>234.392639</course><hAcc>0.888777</hAcc><vAcc>0.715257</vAcc></extensions></trkpt>
      <trkpt lon="-4.132916" lat="53.004330"><ele>540.895996</ele><time>2021-07-17T10:13:02Z</time><extensions><speed>0.478536</speed><course>233.208801</course><hAcc>0.888898</hAcc><vAcc>0.715821</vAcc></extensions></trkpt>
      <trkpt lon="-4.132920" lat="53.004326"><ele>541.080933</ele><time>2021-07-17T10:13:03Z</time><extensions><speed>0.474234</speed><course>238.158752</course><hAcc>0.889024</hAcc><vAcc>0.716398</vAcc></extensions></trkpt>
      <trkpt lon="-4.132924" lat="53.004322"><ele>541.265137</ele><time>2021-07-17T10:13:04Z</time><extensions><speed>0.468676</speed><course>239.142517</course><hAcc>0.889149</hAcc><vAcc>0.716936</vAcc></extensions></trkpt>
      <trkpt lon="-4.132928" lat="53.004319"><ele>541.448914</ele><time>2021-07-17T10:13:05Z</time><extensions><speed>0.461657</speed><course>241.003922</course><hAcc>0.889262</hAcc><vAcc>0.717391</vAcc></extensions></trkpt>
      <trkpt lon="-4.132931" lat="53.004315"><ele>541.632080</ele><time>2021-07-17T10:13:06Z</time><extensions><speed>0.453140</speed><course>244.474228</course><hAcc>0.889360</hAcc><vAcc>0.717731</vAcc></extensions></trkpt>
      <trkpt lon="-4.132935" lat="53.004312"><ele>541.814453</ele><time>2021-07-17T10:13:07Z</time><extensions><speed>0.443504</speed><course>238.879150</course><hAcc>0.889440</hAcc><vAcc>0.717943</vAcc></extensions></trkpt>
      <trkpt lon="-4.132938" lat="53.004309"><ele>541.995667</ele><time>2021-07-17T10:13:08Z</time><extensions><speed>0.433330</speed><course>237.538528</course><hAcc>0.889499</hAcc><vAcc>0.718030</vAcc></extensions></trkpt>
      <trkpt lon="-4.132942" lat="53.004305"><ele>542.175293</ele><time>2021-07-17T10:13:09Z</time><extensions><speed>0.423193</speed><course>249.037552</course><hAcc>0.889541</hAcc><vAcc>0.718011</vAcc></extensions></trkpt>
      <trkpt lon="-4.132945" lat="53.004302"><ele>542.352783</ele><time>2021-07-17T10:13:10Z</time><extensions><speed>0.413690</speed><course>259.361603</course><hAcc>0.889569</hAcc><vAcc>0.717919</vAcc></extensions></trkpt>
      <trkpt lon="-4.132948" lat="53.004299"><ele>542.527954</ele><time>2021-07-17T10:13:12Z</time><extensions><speed>0.405415</speed><course>261.193176</course><hAcc>0.889569</hAcc><vAcc>0.717780</vAcc></extensions></trkpt>
      <trkpt lon="-4.132951" lat="53.004296"><ele>542.700500</ele><time>2021-07-17T10:13:13Z</time><extensions><speed>0.398745</speed><course>261.193146</course><hAcc>0.889545</hAcc><vAcc>0.717631</vAcc></extensions></trkpt>
      <trkpt lon="-4.132954" lat="53.004293"><ele>542.870667</ele><time>2021-07-17T10:13:14Z</time><extensions><speed>0.393601</speed><course>261.193146</course><hAcc>0.889518</hAcc><vAcc>0.717511</vAcc></extensions></trkpt>
      <trkpt lon="-4.132956" lat="53.004289"><ele>543.038452</ele><time>2021-07-17T10:13:15Z</time><extensions><speed>0.389662</speed><course>261.193146</course><hAcc>0.889491</hAcc><vAcc>0.717432</vAcc></extensions></trkpt>
      <trkpt lon="-4.132959" lat="53.004286"><ele>543.203857</ele><time>2021-07-17T10:13:16Z</time><extensions><speed>0.386367</speed><course>261.193146</course><hAcc>0.889465</hAcc><vAcc>0.717397</vAcc></extensions></trkpt>
      <trkpt lon="-4.132962" lat="53.004283"><ele>543.367065</ele><time>2021-07-17T10:13:17Z</time><extensions><speed>0.383007</speed><course>261.193146</course><hAcc>0.889439</hAcc><vAcc>0.717393</vAcc></extensions></trkpt>
      <trkpt lon="-4.132964" lat="53.004280"><ele>543.528198</ele><time>2021-07-17T10:13:18Z</time><extensions><speed>0.379593</speed><course>261.193146</course><hAcc>0.889409</hAcc><vAcc>0.717403</vAcc></extensions></trkpt>
      <trkpt lon="-4.132967" lat="53.004277"><ele>543.687866</ele><time>2021-07-17T10:13:19Z</time><extensions><speed>0.377197</speed><course>261.193146</course><hAcc>0.889374</hAcc><vAcc>0.717402</vAcc></extensions></trkpt>
      <trkpt lon="-4.132969" lat="53.004274"><ele>543.847046</ele><time>2021-07-17T10:13:20Z</time><extensions><speed>0.376752</speed><course>261.193146</course><hAcc>0.889329</hAcc><vAcc>0.717364</vAcc></extensions></trkpt>
      <trkpt lon="-4.132970" lat="53.004271"><ele>544.006531</ele><time>2021-07-17T10:13:21Z</time><extensions><speed>0.378317</speed><course>234.852402</course><hAcc>0.889271</hAcc><vAcc>0.717262</vAcc></extensions></trkpt>
      <trkpt lon="-4.132972" lat="53.004268"><ele>544.166809</ele><time>2021-07-17T10:13:22Z</time><extensions><speed>0.382224</speed><course>215.025620</course><hAcc>0.889195</hAcc><vAcc>0.717078</vAcc></extensions></trkpt>
      <trkpt lon="-4.132973" lat="53.004264"><ele>544.328308</ele><time>2021-07-17T10:13:23Z</time><extensions><speed>0.389434</speed><course>206.872131</course><hAcc>0.889102</hAcc><vAcc>0.716798</vAcc></extensions></trkpt>
      <trkpt lon="-4.132974" lat="53.004261"><ele>544.491211</ele><time>2021-07-17T10:13:24Z</time><extensions><speed>0.400518</speed><course>205.862991</course><hAcc>0.888990</hAcc><vAcc>0.716420</vAcc></extensions></trkpt>
      <trkpt lon="-4.132974" lat="53.004257"><ele>544.655579</ele><time>2021-07-17T10:13:25Z</time><extensions><speed>0.415215</speed><course>205.862976</course><hAcc>0.888861</hAcc><vAcc>0.715955</vAcc></extensions></trkpt>
      <trkpt lon="-4.132973" lat="53.004253"><ele>544.821472</ele><time>2021-07-17T10:13:26Z</time><extensions><speed>0.431967</speed><course>234.677673</course><hAcc>0.888720</hAcc><vAcc>0.715421</vAcc></extensions></trkpt>
      <trkpt lon="-4.132973" lat="53.004249"><ele>544.988953</ele><time>2021-07-17T10:13:27Z</time><extensions><speed>0.448456</speed><course>246.321655</course><hAcc>0.888571</hAcc><vAcc>0.714846</vAcc></extensions></trkpt>
      <trkpt lon="-4.132972" lat="53.004245"><ele>545.158325</ele><time>2021-07-17T10:13:28Z</time><extensions><speed>0.462901</speed><course>256.732239</course><hAcc>0.888422</hAcc><vAcc>0.714260</vAcc></extensions></trkpt>
      <trkpt lon="-4.132971" lat="53.004241"><ele>545.329956</ele><time>2021-07-17T10:13:29Z</time><extensions><speed>0.474239</speed><course>257.461731</course><hAcc>0.888280</hAcc><vAcc>0.713695</vAcc></extensions></trkpt>
      <trkpt lon="-4.132970" lat="53.004237"><ele>545.504395</ele><time>2021-07-17T10:13:30Z</time><extensions><speed>0.482272</speed><course>256.219269</course><hAcc>0.888153</hAcc><vAcc>0.713185</vAcc></extensions></trkpt>
      <trkpt lon="-4.132969" lat="53.004232"><ele>545.682129</ele><time>2021-07-17T10:13:31Z</time><extensions><speed>0.487949</speed><course>253.669510</course><hAcc>0.888050</hAcc><vAcc>0.712766</vAcc></extensions></trkpt>
      <trkpt lon="-4.132969" lat="53.004228"><ele>545.863770</ele><time>2021-07-17T10:13:32Z</time><extensions><speed>0.493079</speed><course>253.907227</course><hAcc>0.887974</hAcc><vAcc>0.712466</vAcc></extensions></trkpt>
      <trkpt lon="-4.132969" lat="53.004224"><ele>546.050049</ele><time>2021-07-17T10:13:33Z</time><extensions><speed>0.499712</speed><course>260.189209</course><hAcc>0.887933</hAcc><vAcc>0.712306</vAcc></extensions></trkpt>
      <trkpt lon="-4.132970" lat="53.004219"><ele>546.241577</ele><time>2021-07-17T10:13:34Z</time><extensions><speed>0.509216</speed><course>263.253174</course><hAcc>0.887927</hAcc><vAcc>0.712299</vAcc></extensions></trkpt>
      <trkpt lon="-4.132972" lat="53.004215"><ele>546.438965</ele><time>2021-07-17T10:13:35Z</time><extensions><speed>0.521647</speed><course>264.349060</course><hAcc>0.887957</hAcc><vAcc>0.712442</vAcc></extensions></trkpt>
      <trkpt lon="-4.132974" lat="53.004210"><ele>546.642578</ele><time>2021-07-17T10:13:36Z</time><extensions><speed>0.535583</speed><course>258.002991</course><hAcc>0.888024</hAcc><vAcc>0.712724</vAcc></extensions></trkpt>
      <trkpt lon="-4.132978" lat="53.004206"><ele>546.852356</ele><time>2021-07-17T10:13:37Z</time><extensions><speed>0.548705</speed><course>264.832825</course><hAcc>0.888123</hAcc><vAcc>0.713121</vAcc></extensions></trkpt>
      <trkpt lon="-4.132982" lat="53.004201"><ele>547.067871</ele><time>2021-07-17T10:13:38Z</time><extensions><speed>0.559085</speed><course>262.654938</course><hAcc>0.888251</hAcc><vAcc>0.713603</vAcc></extensions></trkpt>
      <trkpt lon="-4.132986" lat="53.004197"><ele>547.288391</ele><time>2021-07-17T10:13:39Z</time><extensions><speed>0.565640</speed><course>262.654938</course><hAcc>0.888404</hAcc><vAcc>0.714144</vAcc></extensions></trkpt>
      <trkpt lon="-4.132991" lat="53.004193"><ele>547.512634</ele><time>2021-07-17T10:13:40Z</time><extensions><speed>0.567935</speed><course>262.654938</course><hAcc>0.888577</hAcc><vAcc>0.714725</vAcc></extensions></trkpt>
      <trkpt lon="-4.132997" lat="53.004189"><ele>547.739319</ele><time>2021-07-17T10:13:41Z</time><extensions><speed>0.566011</speed><course>262.654938</course><hAcc>0.888764</hAcc><vAcc>0.715337</vAcc></extensions></trkpt>
      <trkpt lon="-4.133003" lat="53.004185"><ele>547.967163</ele><time>2021-07-17T10:13:42Z</time><extensions><speed>0.560074</speed><course>262.654938</course><hAcc>0.888960</hAcc><vAcc>0.715973</vAcc></extensions></trkpt>
      <trkpt lon="-4.133009" lat="53.004182"><ele>548.194763</ele><time>2021-07-17T10:13:43Z</time><extensions><speed>0.550592</speed><course>262.654938</course><hAcc>0.889161</hAcc><vAcc>0.716630</vAcc></extensions></trkpt>
      <trkpt lon="-4.133015" lat="53.004179"><ele>548.420471</ele><time>2021-07-17T10:13:44Z</time><extensions><speed>0.538080</speed><course>262.654938</course><hAcc>0.889361</hAcc><vAcc>0.717297</vAcc></extensions></trkpt>
      <trkpt lon="-4.133021" lat="53.004176"><ele>548.642822</ele><time>2021-07-17T10:13:45Z</time><extensions><speed>0.522674</speed><course>262.654938</course><hAcc>0.889557</hAcc><vAcc>0.717961</vAcc></extensions></trkpt>
      <trkpt lon="-4.133028" lat="53.004174"><ele>548.860291</ele><time>2021-07-17T10:13:46Z</time><extensions><speed>0.504784</speed><course>262.654938</course><hAcc>0.889746</hAcc><vAcc>0.718604</vAcc></extensions></trkpt>
      <trkpt lon="-4.133035" lat="53.004172"><ele>549.071228</ele><time>2021-07-17T10:13:47Z</time><extensions><speed>0.485340</speed><course>262.654938</course><hAcc>0.889926</hAcc><vAcc>0.719212</vAcc></extensions></trkpt>
      <trkpt lon="-4.133041" lat="53.004170"><ele>549.274048</ele><time>2021-07-17T10:13:48Z</time><extensions><speed>0.465734</speed><course>262.654938</course><hAcc>0.890092</hAcc><vAcc>0.719772</vAcc></extensions></trkpt>
      <trkpt lon="-4.133047" lat="53.004169"><ele>549.467041</ele><time>2021-07-17T10:13:49Z</time><extensions><speed>0.447949</speed><course>262.654938</course><hAcc>0.890243</hAcc><vAcc>0.720275</vAcc></extensions></trkpt>
      <trkpt lon="-4.133054" lat="53.004168"><ele>549.648560</ele><time>2021-07-17T10:13:50Z</time><extensions><speed>0.434334</speed><course>262.654938</course><hAcc>0.890378</hAcc><vAcc>0.720714</vAcc></extensions></trkpt>
      <trkpt lon="-4.133060" lat="53.004168"><ele>549.817200</ele><time>2021-07-17T10:13:51Z</time><extensions><speed>0.427003</speed><course>262.654938</course><hAcc>0.890494</hAcc><vAcc>0.721086</vAcc></extensions></trkpt>
      <trkpt lon="-4.133067" lat="53.004168"><ele>549.972168</ele><time>2021-07-17T10:13:52Z</time><extensions><speed>0.427126</speed><course>262.654938</course><hAcc>0.890592</hAcc><vAcc>0.721388</vAcc></extensions></trkpt>
      <trkpt lon="-4.133073" lat="53.004168"><ele>550.112610</ele><time>2021-07-17T10:13:53Z</time><extensions><speed>0.434812</speed><course>262.654938</course><hAcc>0.890671</hAcc><vAcc>0.721622</vAcc></extensions></trkpt>
      <trkpt lon="-4.133079" lat="53.004169"><ele>550.238037</ele><time>2021-07-17T10:13:54Z</time><extensions><speed>0.449535</speed><course>262.654938</course><hAcc>0.890733</hAcc><vAcc>0.721794</vAcc></extensions></trkpt>
      <trkpt lon="-4.133086" lat="53.004170"><ele>550.348206</ele><time>2021-07-17T10:13:55Z</time><extensions><speed>0.470370</speed><course>262.654938</course><hAcc>0.890779</hAcc><vAcc>0.721911</vAcc></extensions></trkpt>
      <trkpt lon="-4.133093" lat="53.004171"><ele>550.442749</ele><time>2021-07-17T10:13:56Z</time><extensions><speed>0.496201</speed><course>262.654938</course><hAcc>0.890810</hAcc><vAcc>0.721979</vAcc></extensions></trkpt>
      <trkpt lon="-4.133100" lat="53.004173"><ele>550.521729</ele><time>2021-07-17T10:13:57Z</time><extensions><speed>0.525938</speed><course>262.654938</course><hAcc>0.890829</hAcc><vAcc>0.722008</vAcc></extensions></trkpt>
      <trkpt lon="-4.133107" lat="53.004175"><ele>550.585083</ele><time>2021-07-17T10:13:58Z</time><extensions><speed>0.558640</speed><course>262.654938</course><hAcc>0.890838</hAcc><vAcc>0.722006</vAcc></extensions></trkpt>
      <trkpt lon="-4.133115" lat="53.004177"><ele>550.633606</ele><time>2021-07-17T10:13:59Z</time><extensions><speed>0.592800</speed><course>262.654938</course><hAcc>0.890839</hAcc><vAcc>0.721982</vAcc></extensions></trkpt>
      <trkpt lon="-4.133123" lat="53.004180"><ele>550.668335</ele><time>2021-07-17T10:14:00Z</time><extensions><speed>0.625835</speed><course>262.654938</course><hAcc>0.890833</hAcc><vAcc>0.721944</vAcc></extensions></trkpt>
      <trkpt lon="-4.133131" lat="53.004183"><ele>550.690735</ele><time>2021-07-17T10:14:01Z</time><extensions><speed>0.655526</speed><course>262.654938</course><hAcc>0.890823</hAcc><vAcc>0.721899</vAcc></extensions></trkpt>
      <trkpt lon="-4.133140" lat="53.004186"><ele>550.702759</ele><time>2021-07-17T10:14:02Z</time><extensions><speed>0.680656</speed><course>262.654938</course><hAcc>0.890810</hAcc><vAcc>0.721851</vAcc></extensions></trkpt>
      <trkpt lon="-4.133149" lat="53.004188"><ele>550.706543</ele><time>2021-07-17T10:14:03Z</time><extensions><speed>0.700518</speed><course>262.654938</course><hAcc>0.890795</hAcc><vAcc>0.721801</vAcc></extensions></trkpt>
      <trkpt lon="-4.133158" lat="53.004191"><ele>550.704590</ele><time>2021-07-17T10:14:04Z</time><extensions><speed>0.714531</speed><course>262.654938</course><hAcc>0.890780</hAcc><vAcc>0.721752</vAcc></extensions></trkpt>
      <trkpt lon="-4.133168" lat="53.004194"><ele>550.699707</ele><time>2021-07-17T10:14:05Z</time><extensions><speed>0.721960</speed><course>262.654938</course><hAcc>0.890765</hAcc><vAcc>0.721704</vAcc></extensions></trkpt>
      <trkpt lon="-4.133178" lat="53.004196"><ele>550.694702</ele><time>2021-07-17T10:14:06Z</time><extensions><speed>0.722440</speed><course>262.654938</course><hAcc>0.890751</hAcc><vAcc>0.721658</vAcc></extensions></trkpt>
      <trkpt lon="-4.133188" lat="53.004199"><ele>550.692322</ele><time>2021-07-17T10:14:07Z</time><extensions><speed>0.716153</speed><course>262.654938</course><hAcc>0.890738</hAcc><vAcc>0.721615</vAcc></extensions></trkpt>
      <trkpt lon="-4.133198" lat="53.004201"><ele>550.695068</ele><time>2021-07-17T10:14:08Z</time><extensions><speed>0.703755</speed><course>262.654938</course><hAcc>0.890726</hAcc><vAcc>0.721574</vAcc></extensions></trkpt>
      <trkpt lon="-4.133208" lat="53.004202"><ele>550.705322</ele><time>2021-07-17T10:14:09Z</time><extensions><speed>0.686340</speed><course>262.654938</course><hAcc>0.890715</hAcc><vAcc>0.721537</vAcc></extensions></trkpt>
      <trkpt lon="-4.133218" lat="53.004204"><ele>550.724976</ele><time>2021-07-17T10:14:10Z</time><extensions><speed>0.665130</speed><course>262.654938</course><hAcc>0.890703</hAcc><vAcc>0.721503</vAcc></extensions></trkpt>
      <trkpt lon="-4.133228" lat="53.004205"><ele>550.755554</ele><time>2021-07-17T10:14:11Z</time><extensions><speed>0.641654</speed><course>262.654938</course><hAcc>0.890691</hAcc><vAcc>0.721472</vAcc></extensions></trkpt>
      <trkpt lon="-4.133237" lat="53.004205"><ele>550.798462</ele><time>2021-07-17T10:14:12Z</time><extensions><speed>0.617745</speed><course>262.654938</course><hAcc>0.890678</hAcc><vAcc>0.721442</vAcc></extensions></trkpt>
      <trkpt lon="-4.133246" lat="53.004205"><ele>550.854797</ele><time>2021-07-17T10:14:13Z</time><extensions><speed>0.595167</speed><course>262.654938</course><hAcc>0.890662</hAcc><vAcc>0.721409</vAcc></extensions></trkpt>
      <trkpt lon="-4.133255" lat="53.004205"><ele>550.924927</ele><time>2021-07-17T10:14:14Z</time><extensions><speed>0.575540</speed><course>262.654938</course><hAcc>0.890644</hAcc><vAcc>0.721370</vAcc></extensions></trkpt>
      <trkpt lon="-4.133263" lat="53.004204"><ele>551.009033</ele><time>2021-07-17T10:14:15Z</time><extensions><speed>0.559483</speed><course>262.654938</course><hAcc>0.890622</hAcc><vAcc>0.721318</vAcc></extensions></trkpt>
      <trkpt lon="-4.133271" lat="53.004203"><ele>551.106689</ele><time>2021-07-17T10:14:16Z</time><extensions><speed>0.546649</speed><course>262.654938</course><hAcc>0.890596</hAcc><vAcc>0.721247</vAcc></extensions></trkpt>
      <trkpt lon="-4.133279" lat="53.004202"><ele>551.217163</ele><time>2021-07-17T10:14:17Z</time><extensions><speed>0.536482</speed><course>262.654938</course><hAcc>0.890566</hAcc><vAcc>0.721154</vAcc></extensions></trkpt>
      <trkpt lon="-4.133286" lat="53.004200"><ele>551.339233</ele><time>2021-07-17T10:14:18Z</time><extensions><speed>0.527834</speed><course>262.654938</course><hAcc>0.890531</hAcc><vAcc>0.721039</vAcc></extensions></trkpt>
      <trkpt lon="-4.133293" lat="53.004198"><ele>551.471375</ele><time>2021-07-17T10:14:19Z</time><extensions><speed>0.519639</speed><course>262.654938</course><hAcc>0.890491</hAcc><vAcc>0.720903</vAcc></extensions></trkpt>
      <trkpt lon="-4.133300" lat="53.004196"><ele>551.611755</ele><time>2021-07-17T10:14:20Z</time><extensions><speed>0.511365</speed><course>262.654938</course><hAcc>0.890447</hAcc><vAcc>0.720751</vAcc></extensions></trkpt>
      <trkpt lon="-4.133307" lat="53.004194"><ele>551.758362</ele><time>2021-07-17T10:14:21Z</time><extensions><speed>0.502735</speed><course>262.654938</course><hAcc>0.890399</hAcc><vAcc>0.720585</vAcc></extensions></trkpt>
      <trkpt lon="-4.133314" lat="53.004192"><ele>551.909424</ele><time>2021-07-17T10:14:22Z</time><extensions><speed>0.493784</speed><course>262.654938</course><hAcc>0.890347</hAcc><vAcc>0.720410</vAcc></extensions></trkpt>
      <trkpt lon="-4.133320" lat="53.004190"><ele>552.063232</ele><time>2021-07-17T10:14:23Z</time><extensions><speed>0.484753</speed><course>262.654938</course><hAcc>0.890293</hAcc><vAcc>0.720227</vAcc></extensions></trkpt>
      <trkpt lon="-4.133326" lat="53.004188"><ele>552.218323</ele><time>2021-07-17T10:14:24Z</time><extensions><speed>0.476057</speed><course>262.654938</course><hAcc>0.890237</hAcc><vAcc>0.720039</vAcc></extensions></trkpt>
      <trkpt lon="-4.133333" lat="53.004186"><ele>552.373169</ele><time>2021-07-17T10:14:25Z</time><extensions><speed>0.468010</speed><course>262.654938</course><hAcc>0.890181</hAcc><vAcc>0.719848</vAcc></extensions></trkpt>
      <trkpt lon="-4.133339" lat="53.004184"><ele>552.527039</ele><time>2021-07-17T10:14:26Z</time><extensions><speed>0.460244</speed><course>262.654938</course><hAcc>0.890125</hAcc><vAcc>0.719657</vAcc></extensions></trkpt>
      <trkpt lon="-4.133344" lat="53.004182"><ele>552.679199</ele><time>2021-07-17T10:14:27Z</time><extensions><speed>0.452555</speed><course>262.654938</course><hAcc>0.890070</hAcc><vAcc>0.719471</vAcc></extensions></trkpt>
      <trkpt lon="-4.133350" lat="53.004180"><ele>552.829468</ele><time>2021-07-17T10:14:28Z</time><extensions><speed>0.445492</speed><course>262.654938</course><hAcc>0.890017</hAcc><vAcc>0.719291</vAcc></extensions></trkpt>
      <trkpt lon="-4.133356" lat="53.004178"><ele>552.977661</ele><time>2021-07-17T10:14:29Z</time><extensions><speed>0.439550</speed><course>262.654938</course><hAcc>0.889965</hAcc><vAcc>0.719121</vAcc></extensions></trkpt>
      <trkpt lon="-4.133361" lat="53.004176"><ele>553.124023</ele><time>2021-07-17T10:14:30Z</time><extensions><speed>0.434563</speed><course>262.654938</course><hAcc>0.889916</hAcc><vAcc>0.718962</vAcc></extensions></trkpt>
      <trkpt lon="-4.133367" lat="53.004174"><ele>553.268799</ele><time>2021-07-17T10:14:31Z</time><extensions><speed>0.429949</speed><course>262.654938</course><hAcc>0.889868</hAcc><vAcc>0.718816</vAcc></extensions></trkpt>
      <trkpt lon="-4.133372" lat="53.004171"><ele>553.412537</ele><time>2021-07-17T10:14:32Z</time><extensions><speed>0.425173</speed><course>262.654938</course><hAcc>0.889822</hAcc><vAcc>0.718679</vAcc></extensions></trkpt>
      <trkpt lon="-4.133377" lat="53.004169"><ele>553.555969</ele><time>2021-07-17T10:14:33Z</time><extensions><speed>0.419664</speed><course>262.654938</course><hAcc>0.889776</hAcc><vAcc>0.718548</vAcc></extensions></trkpt>
      <trkpt lon="-4.133382" lat="53.004167"><ele>553.699524</ele><time>2021-07-17T10:14:34Z</time><extensions><speed>0.412912</speed><course>262.654938</course><hAcc>0.889729</hAcc><vAcc>0.718417</vAcc></extensions></trkpt>
      <trkpt lon="-4.133387" lat="53.004165"><ele>553.843567</ele><time>2021-07-17T10:14:35Z</time><extensions><speed>0.405041</speed><course>209.646423</course><hAcc>0.889682</hAcc><vAcc>0.718280</vAcc></extensions></trkpt>
      <trkpt lon="-4.133392" lat="53.004163"><ele>553.988220</ele><time>2021-07-17T10:14:36Z</time><extensions><speed>0.396726</speed><course>207.502853</course><hAcc>0.889634</hAcc><vAcc>0.718128</vAcc></extensions></trkpt>
      <trkpt lon="-4.133397" lat="53.004161"><ele>554.133484</ele><time>2021-07-17T10:14:37Z</time><extensions><speed>0.388842</speed><course>210.649872</course><hAcc>0.889585</hAcc><vAcc>0.717955</vAcc></extensions></trkpt>
      <trkpt lon="-4.133401" lat="53.004159"><ele>554.279297</ele><time>2021-07-17T10:14:38Z</time><extensions><speed>0.382489</speed><course>218.307190</course><hAcc>0.889536</hAcc><vAcc>0.717762</vAcc></extensions></trkpt>
      <trkpt lon="-4.133405" lat="53.004156"><ele>554.425842</ele><time>2021-07-17T10:14:39Z</time><extensions><speed>0.378351</speed><course>221.774033</course><hAcc>0.889468</hAcc><vAcc>0.717541</vAcc></extensions></trkpt>
      <trkpt lon="-4.133410" lat="53.004154"><ele>554.572876</ele><time>2021-07-17T10:14:40Z</time><extensions><speed>0.376349</speed><course>225.071381</course><hAcc>0.889382</hAcc><vAcc>0.717300</vAcc></extensions></trkpt>
      <trkpt lon="-4.133414" lat="53.004152"><ele>554.720520</ele><time>2021-07-17T10:14:41Z</time><extensions><speed>0.375980</speed><course>229.682953</course><hAcc>0.889295</hAcc><vAcc>0.717058</vAcc></extensions></trkpt>
      <trkpt lon="-4.133417" lat="53.004149"><ele>554.868835</ele><time>2021-07-17T10:14:42Z</time><extensions><speed>0.376509</speed><course>228.187271</course><hAcc>0.889206</hAcc><vAcc>0.716813</vAcc></extensions></trkpt>
      <trkpt lon="-4.133421" lat="53.004147"><ele>555.017517</ele><time>2021-07-17T10:14:43Z</time><extensions><speed>0.377547</speed><course>224.821243</course><hAcc>0.889118</hAcc><vAcc>0.716561</vAcc></extensions></trkpt>
      <trkpt lon="-4.133425" lat="53.004144"><ele>555.166443</ele><time>2021-07-17T10:14:44Z</time><extensions><speed>0.379448</speed><course>222.757462</course><hAcc>0.889031</hAcc><vAcc>0.716302</vAcc></extensions></trkpt>
      <trkpt lon="-4.133429" lat="53.004142"><ele>555.315491</ele><time>2021-07-17T10:14:45Z</time><extensions><speed>0.382798</speed><course>223.047150</course><hAcc>0.888946</hAcc><vAcc>0.716039</vAcc></extensions></trkpt>
      <trkpt lon="-4.133432" lat="53.004139"><ele>555.464600</ele><time>2021-07-17T10:14:46Z</time><extensions><speed>0.387712</speed><course>218.695862</course><hAcc>0.888862</hAcc><vAcc>0.715783</vAcc></extensions></trkpt>
      <trkpt lon="-4.133436" lat="53.004136"><ele>555.613770</ele><time>2021-07-17T10:14:47Z</time><extensions><speed>0.393958</speed><course>216.351273</course><hAcc>0.888799</hAcc><vAcc>0.715559</vAcc></extensions></trkpt>
      <trkpt lon="-4.133440" lat="53.004134"><ele>555.763123</ele><time>2021-07-17T10:14:48Z</time><extensions><speed>0.401114</speed><course>219.658188</course><hAcc>0.888756</hAcc><vAcc>0.715386</vAcc></extensions></trkpt>
      <trkpt lon="-4.133444" lat="53.004131"><ele>555.912292</ele><time>2021-07-17T10:14:48Z</time><extensions><speed>0.408194</speed><course>221.748871</course><hAcc>0.888732</hAcc><vAcc>0.715275</vAcc></extensions></trkpt>
      <trkpt lon="-4.133448" lat="53.004128"><ele>556.061401</ele><time>2021-07-17T10:14:49Z</time><extensions><speed>0.413895</speed><course>225.723022</course><hAcc>0.888726</hAcc><vAcc>0.715231</vAcc></extensions></trkpt>
      <trkpt lon="-4.133452" lat="53.004125"><ele>556.209961</ele><time>2021-07-17T10:14:50Z</time><extensions><speed>0.417246</speed><course>227.303833</course><hAcc>0.888720</hAcc><vAcc>0.715236</vAcc></extensions></trkpt>
      <trkpt lon="-4.133455" lat="53.004122"><ele>556.357483</ele><time>2021-07-17T10:14:51Z</time><extensions><speed>0.417896</speed><course>225.742310</course><hAcc>0.888712</hAcc><vAcc>0.715271</vAcc></extensions></trkpt>
      <trkpt lon="-4.133459" lat="53.004119"><ele>556.503601</ele><time>2021-07-17T10:14:52Z</time><extensions><speed>0.415741</speed><course>225.742310</course><hAcc>0.888700</hAcc><vAcc>0.715314</vAcc></extensions></trkpt>
      <trkpt lon="-4.133463" lat="53.004116"><ele>556.647888</ele><time>2021-07-17T10:14:53Z</time><extensions><speed>0.410871</speed><course>225.742325</course><hAcc>0.888683</hAcc><vAcc>0.715338</vAcc></extensions></trkpt>
      <trkpt lon="-4.133466" lat="53.004113"><ele>556.790100</ele><time>2021-07-17T10:14:54Z</time><extensions><speed>0.403359</speed><course>225.742325</course><hAcc>0.888659</hAcc><vAcc>0.715320</vAcc></extensions></trkpt>
      <trkpt lon="-4.133469" lat="53.004110"><ele>556.929932</ele><time>2021-07-17T10:14:55Z</time><extensions><speed>0.393604</speed><course>225.742325</course><hAcc>0.888629</hAcc><vAcc>0.715242</vAcc></extensions></trkpt>
      <trkpt lon="-4.133471" lat="53.004107"><ele>557.066833</ele><time>2021-07-17T10:14:56Z</time><extensions><speed>0.382569</speed><course>224.360504</course><hAcc>0.888594</hAcc><vAcc>0.715098</vAcc></extensions></trkpt>
      <trkpt lon="-4.133473" lat="53.004103"><ele>557.200134</ele><time>2021-07-17T10:14:57Z</time><extensions><speed>0.371318</speed><course>231.374908</course><hAcc>0.888558</hAcc><vAcc>0.714894</vAcc></extensions></trkpt>
      <trkpt lon="-4.133475" lat="53.004100"><ele>557.329285</ele><time>2021-07-17T10:14:58Z</time><extensions><speed>0.360525</speed><course>226.234039</course><hAcc>0.888525</hAcc><vAcc>0.714656</vAcc></extensions></trkpt>
      <trkpt lon="-4.133477" lat="53.004097"><ele>557.453796</ele><time>2021-07-17T10:14:59Z</time><extensions><speed>0.350245</speed><course>228.443588</course><hAcc>0.888501</hAcc><vAcc>0.714422</vAcc></extensions></trkpt>
      <trkpt lon="-4.133478" lat="53.004094"><ele>557.573425</ele><time>2021-07-17T10:15:00Z</time><extensions><speed>0.340340</speed><course>217.150848</course><hAcc>0.888491</hAcc><vAcc>0.714237</vAcc></extensions></trkpt>
      <trkpt lon="-4.133479" lat="53.004091"><ele>557.687866</ele><time>2021-07-17T10:15:01Z</time><extensions><speed>0.330864</speed><course>214.670395</course><hAcc>0.888499</hAcc><vAcc>0.714146</vAcc></extensions></trkpt>
      <trkpt lon="-4.133480" lat="53.004089"><ele>557.797485</ele><time>2021-07-17T10:15:02Z</time><extensions><speed>0.322036</speed><course>219.066208</course><hAcc>0.888528</hAcc><vAcc>0.714186</vAcc></extensions></trkpt>
      <trkpt lon="-4.133482" lat="53.004086"><ele>557.903076</ele><time>2021-07-17T10:15:03Z</time><extensions><speed>0.314558</speed><course>218.042282</course><hAcc>0.888577</hAcc><vAcc>0.714373</vAcc></extensions></trkpt>
      <trkpt lon="-4.133483" lat="53.004083"><ele>558.005737</ele><time>2021-07-17T10:15:04Z</time><extensions><speed>0.309262</speed><course>220.994385</course><hAcc>0.888644</hAcc><vAcc>0.714699</vAcc></extensions></trkpt>
      <trkpt lon="-4.133484" lat="53.004080"><ele>558.107056</ele><time>2021-07-17T10:15:05Z</time><extensions><speed>0.306339</speed><course>227.746307</course><hAcc>0.888724</hAcc><vAcc>0.715131</vAcc></extensions></trkpt>
      <trkpt lon="-4.133486" lat="53.004078"><ele>558.208557</ele><time>2021-07-17T10:15:06Z</time><extensions><speed>0.305500</speed><course>224.855316</course><hAcc>0.888810</hAcc><vAcc>0.715615</vAcc></extensions></trkpt>
      <trkpt lon="-4.133488" lat="53.004075"><ele>558.311890</ele><time>2021-07-17T10:15:07Z</time><extensions><speed>0.306201</speed><course>223.584900</course><hAcc>0.888894</hAcc><vAcc>0.716088</vAcc></extensions></trkpt>
      <trkpt lon="-4.133490" lat="53.004073"><ele>558.418518</ele><time>2021-07-17T10:15:08Z</time><extensions><speed>0.307575</speed><course>224.383530</course><hAcc>0.888969</hAcc><vAcc>0.716491</vAcc></extensions></trkpt>
      <trkpt lon="-4.133492" lat="53.004071"><ele>558.529724</ele><time>2021-07-17T10:15:09Z</time><extensions><speed>0.308593</speed><course>225.716217</course><hAcc>0.889027</hAcc><vAcc>0.716778</vAcc></extensions></trkpt>
      <trkpt lon="-4.133494" lat="53.004068"><ele>558.646118</ele><time>2021-07-17T10:15:10Z</time><extensions><speed>0.308161</speed><course>229.189102</course><hAcc>0.889065</hAcc><vAcc>0.716919</vAcc></extensions></trkpt>
      <trkpt lon="-4.133497" lat="53.004066"><ele>558.767822</ele><time>2021-07-17T10:15:11Z</time><extensions><speed>0.305540</speed><course>224.817474</course><hAcc>0.889081</hAcc><vAcc>0.716907</vAcc></extensions></trkpt>
      <trkpt lon="-4.133499" lat="53.004063"><ele>558.894409</ele><time>2021-07-17T10:15:12Z</time><extensions><speed>0.300949</speed><course>225.227936</course><hAcc>0.889077</hAcc><vAcc>0.716757</vAcc></extensions></trkpt>
      <trkpt lon="-4.133501" lat="53.004061"><ele>559.025024</ele><time>2021-07-17T10:15:13Z</time><extensions><speed>0.295466</speed><course>228.251373</course><hAcc>0.889056</hAcc><vAcc>0.716501</vAcc></extensions></trkpt>
      <trkpt lon="-4.133504" lat="53.004059"><ele>559.158691</ele><time>2021-07-17T10:15:14Z</time><extensions><speed>0.290461</speed><course>230.721024</course><hAcc>0.889026</hAcc><vAcc>0.716187</vAcc></extensions></trkpt>
      <trkpt lon="-4.133506" lat="53.004057"><ele>559.294434</ele><time>2021-07-17T10:15:15Z</time><extensions><speed>0.287450</speed><course>234.697540</course><hAcc>0.888995</hAcc><vAcc>0.715873</vAcc></extensions></trkpt>
      <trkpt lon="-4.133508" lat="53.004055"><ele>559.431335</ele><time>2021-07-17T10:15:16Z</time><extensions><speed>0.288022</speed><course>236.619934</course><hAcc>0.888970</hAcc><vAcc>0.715612</vAcc></extensions></trkpt>
      <trkpt lon="-4.133511" lat="53.004053"><ele>559.568787</ele><time>2021-07-17T10:15:18Z</time><extensions><speed>0.293901</speed><course>247.542679</course><hAcc>0.888942</hAcc><vAcc>0.715435</vAcc></extensions></trkpt>
      <trkpt lon="-4.133514" lat="53.004051"><ele>559.706177</ele><time>2021-07-17T10:15:19Z</time><extensions><speed>0.306250</speed><course>242.855072</course><hAcc>0.888916</hAcc><vAcc>0.715368</vAcc></extensions></trkpt>
      <trkpt lon="-4.133518" lat="53.004049"><ele>559.843811</ele><time>2021-07-17T10:15:20Z</time><extensions><speed>0.325082</speed><course>241.397278</course><hAcc>0.888913</hAcc><vAcc>0.715427</vAcc></extensions></trkpt>
      <trkpt lon="-4.133522" lat="53.004047"><ele>559.982056</ele><time>2021-07-17T10:15:21Z</time><extensions><speed>0.349544</speed><course>241.667068</course><hAcc>0.888934</hAcc><vAcc>0.715595</vAcc></extensions></trkpt>
      <trkpt lon="-4.133527" lat="53.004046"><ele>560.121155</ele><time>2021-07-17T10:15:22Z</time><extensions><speed>0.378058</speed><course>241.132874</course><hAcc>0.888976</hAcc><vAcc>0.715846</vAcc></extensions></trkpt>
      <trkpt lon="-4.133532" lat="53.004044"><ele>560.261597</ele><time>2021-07-17T10:15:23Z</time><extensions><speed>0.408689</speed><course>242.509506</course><hAcc>0.889036</hAcc><vAcc>0.716150</vAcc></extensions></trkpt>
      <trkpt lon="-4.133538" lat="53.004043"><ele>560.403748</ele><time>2021-07-17T10:15:24Z</time><extensions><speed>0.439390</speed><course>242.195404</course><hAcc>0.889110</hAcc><vAcc>0.716477</vAcc></extensions></trkpt>
      <trkpt lon="-4.133544" lat="53.004041"><ele>560.548157</ele><time>2021-07-17T10:15:25Z</time><extensions><speed>0.468091</speed><course>244.443573</course><hAcc>0.889192</hAcc><vAcc>0.716802</vAcc></extensions></trkpt>
      <trkpt lon="-4.133551" lat="53.004040"><ele>560.695190</ele><time>2021-07-17T10:15:26Z</time><extensions><speed>0.492810</speed><course>246.780472</course><hAcc>0.889276</hAcc><vAcc>0.717105</vAcc></extensions></trkpt>
      <trkpt lon="-4.133558" lat="53.004039"><ele>560.845398</ele><time>2021-07-17T10:15:27Z</time><extensions><speed>0.511641</speed><course>247.423477</course><hAcc>0.889358</hAcc><vAcc>0.717375</vAcc></extensions></trkpt>
      <trkpt lon="-4.133566" lat="53.004037"><ele>560.999084</ele><time>2021-07-17T10:15:28Z</time><extensions><speed>0.522991</speed><course>252.345490</course><hAcc>0.889432</hAcc><vAcc>0.717606</vAcc></extensions></trkpt>
      <trkpt lon="-4.133573" lat="53.004036"><ele>561.156189</ele><time>2021-07-17T10:15:29Z</time><extensions><speed>0.525834</speed><course>252.366760</course><hAcc>0.889493</hAcc><vAcc>0.717797</vAcc></extensions></trkpt>
      <trkpt lon="-4.133581" lat="53.004035"><ele>561.316345</ele><time>2021-07-17T10:15:30Z</time><extensions><speed>0.519713</speed><course>254.889893</course><hAcc>0.889537</hAcc><vAcc>0.717948</vAcc></extensions></trkpt>
      <trkpt lon="-4.133588" lat="53.004034"><ele>561.478943</ele><time>2021-07-17T10:15:31Z</time><extensions><speed>0.504925</speed><course>257.492432</course><hAcc>0.889561</hAcc><vAcc>0.718055</vAcc></extensions></trkpt>
      <trkpt lon="-4.133595" lat="53.004032"><ele>561.642639</ele><time>2021-07-17T10:15:32Z</time><extensions><speed>0.482437</speed><course>255.728439</course><hAcc>0.889561</hAcc><vAcc>0.718110</vAcc></extensions></trkpt>
      <trkpt lon="-4.133602" lat="53.004031"><ele>561.805969</ele><time>2021-07-17T10:15:33Z</time><extensions><speed>0.453835</speed><course>258.375061</course><hAcc>0.889536</hAcc><vAcc>0.718098</vAcc></extensions></trkpt>
      <trkpt lon="-4.133608" lat="53.004030"><ele>561.967346</ele><time>2021-07-17T10:15:34Z</time><extensions><speed>0.420992</speed><course>260.722260</course><hAcc>0.889484</hAcc><vAcc>0.718006</vAcc></extensions></trkpt>
      <trkpt lon="-4.133613" lat="53.004028"><ele>562.125793</ele><time>2021-07-17T10:15:35Z</time><extensions><speed>0.386115</speed><course>260.722260</course><hAcc>0.889407</hAcc><vAcc>0.717816</vAcc></extensions></trkpt>
      <trkpt lon="-4.133618" lat="53.004027"><ele>562.280823</ele><time>2021-07-17T10:15:36Z</time><extensions><speed>0.351644</speed><course>260.722260</course><hAcc>0.889306</hAcc><vAcc>0.717515</vAcc></extensions></trkpt>
      <trkpt lon="-4.133622" lat="53.004025"><ele>562.432373</ele><time>2021-07-17T10:15:37Z</time><extensions><speed>0.319928</speed><course>260.722260</course><hAcc>0.889187</hAcc><vAcc>0.717103</vAcc></extensions></trkpt>
      <trkpt lon="-4.133626" lat="53.004023"><ele>562.580566</ele><time>2021-07-17T10:15:38Z</time><extensions><speed>0.293405</speed><course>260.722260</course><hAcc>0.889055</hAcc><vAcc>0.716591</vAcc></extensions></trkpt>
      <trkpt lon="-4.133629" lat="53.004021"><ele>562.725403</ele><time>2021-07-17T10:15:39Z</time><extensions><speed>0.274515</speed><course>260.722260</course><hAcc>0.888917</hAcc><vAcc>0.716008</vAcc></extensions></trkpt>
      <trkpt lon="-4.133631" lat="53.004019"><ele>562.867004</ele><time>2021-07-17T10:15:40Z</time><extensions><speed>0.265587</speed><course>260.722260</course><hAcc>0.888781</hAcc><vAcc>0.715398</vAcc></extensions></trkpt>
      <trkpt lon="-4.133633" lat="53.004017"><ele>563.005554</ele><time>2021-07-17T10:15:41Z</time><extensions><speed>0.267024</speed><course>260.722229</course><hAcc>0.888654</hAcc><vAcc>0.714815</vAcc></extensions></trkpt>
      <trkpt lon="-4.133634" lat="53.004015"><ele>563.141418</ele><time>2021-07-17T10:15:42Z</time><extensions><speed>0.276815</speed><course>268.575928</course><hAcc>0.888543</hAcc><vAcc>0.714316</vAcc></extensions></trkpt>
      <trkpt lon="-4.133635" lat="53.004012"><ele>563.275085</ele><time>2021-07-17T10:15:43Z</time><extensions><speed>0.292010</speed><course>268.685822</course><hAcc>0.888453</hAcc><vAcc>0.713943</vAcc></extensions></trkpt>
      <trkpt lon="-4.133636" lat="53.004010"><ele>563.406860</ele><time>2021-07-17T10:15:44Z</time><extensions><speed>0.309988</speed><course>264.169769</course><hAcc>0.888387</hAcc><vAcc>0.713720</vAcc></extensions></trkpt>
      <trkpt lon="-4.133637" lat="53.004007"><ele>563.536987</ele><time>2021-07-17T10:15:45Z</time><extensions><speed>0.329038</speed><course>272.216278</course><hAcc>0.888343</hAcc><vAcc>0.713649</vAcc></extensions></trkpt>
      <trkpt lon="-4.133637" lat="53.004004"><ele>563.665894</ele><time>2021-07-17T10:15:46Z</time><extensions><speed>0.348205</speed><course>279.707916</course><hAcc>0.888319</hAcc><vAcc>0.713709</vAcc></extensions></trkpt>
      <trkpt lon="-4.133638" lat="53.004001"><ele>563.794373</ele><time>2021-07-17T10:15:47Z</time><extensions><speed>0.366697</speed><course>277.974487</course><hAcc>0.888308</hAcc><vAcc>0.713859</vAcc></extensions></trkpt>
      <trkpt lon="-4.133639" lat="53.003997"><ele>563.923218</ele><time>2021-07-17T10:15:48Z</time><extensions><speed>0.383695</speed><course>285.359497</course><hAcc>0.888305</hAcc><vAcc>0.714044</vAcc></extensions></trkpt>
      <trkpt lon="-4.133639" lat="53.003994"><ele>564.052795</ele><time>2021-07-17T10:15:49Z</time><extensions><speed>0.398757</speed><course>288.896698</course><hAcc>0.888300</hAcc><vAcc>0.714205</vAcc></extensions></trkpt>
      <trkpt lon="-4.133639" lat="53.003990"><ele>564.182861</ele><time>2021-07-17T10:15:50Z</time><extensions><speed>0.412113</speed><course>285.949463</course><hAcc>0.888287</hAcc><vAcc>0.714291</vAcc></extensions></trkpt>
      <trkpt lon="-4.133639" lat="53.003986"><ele>564.313538</ele><time>2021-07-17T10:15:51Z</time><extensions><speed>0.424197</speed><course>279.328217</course><hAcc>0.888261</hAcc><vAcc>0.714266</vAcc></extensions></trkpt>
      <trkpt lon="-4.133639" lat="53.003983"><ele>564.445007</ele><time>2021-07-17T10:15:52Z</time><extensions><speed>0.435183</speed><course>280.252258</course><hAcc>0.888218</hAcc><vAcc>0.714116</vAcc></extensions></trkpt>
      <trkpt lon="-4.133638" lat="53.003979"><ele>564.577637</ele><time>2021-07-17T10:15:53Z</time><extensions><speed>0.445111</speed><course>280.968384</course><hAcc>0.888158</hAcc><vAcc>0.713846</vAcc></extensions></trkpt>
      <trkpt lon="-4.133637" lat="53.003975"><ele>564.711853</ele><time>2021-07-17T10:15:54Z</time><extensions><speed>0.453707</speed><course>279.577759</course><hAcc>0.888084</hAcc><vAcc>0.713483</vAcc></extensions></trkpt>
      <trkpt lon="-4.133636" lat="53.003971"><ele>564.848083</ele><time>2021-07-17T10:15:55Z</time><extensions><speed>0.460615</speed><course>280.039124</course><hAcc>0.888002</hAcc><vAcc>0.713065</vAcc></extensions></trkpt>
      <trkpt lon="-4.133635" lat="53.003967"><ele>564.986694</ele><time>2021-07-17T10:15:56Z</time><extensions><speed>0.465126</speed><course>285.588440</course><hAcc>0.887919</hAcc><vAcc>0.712637</vAcc></extensions></trkpt>
      <trkpt lon="-4.133633" lat="53.003963"><ele>565.127563</ele><time>2021-07-17T10:15:57Z</time><extensions><speed>0.466151</speed><course>287.653503</course><hAcc>0.887845</hAcc><vAcc>0.712247</vAcc></extensions></trkpt>
      <trkpt lon="-4.133631" lat="53.003958"><ele>565.270447</ele><time>2021-07-17T10:15:58Z</time><extensions><speed>0.463253</speed><course>285.239563</course><hAcc>0.887789</hAcc><vAcc>0.711937</vAcc></extensions></trkpt>
      <trkpt lon="-4.133630" lat="53.003954"><ele>565.414856</ele><time>2021-07-17T10:15:59Z</time><extensions><speed>0.456921</speed><course>283.468018</course><hAcc>0.887760</hAcc><vAcc>0.711746</vAcc></extensions></trkpt>
      <trkpt lon="-4.133629" lat="53.003950"><ele>565.560425</ele><time>2021-07-17T10:16:00Z</time><extensions><speed>0.448262</speed><course>279.656525</course><hAcc>0.887764</hAcc><vAcc>0.711700</vAcc></extensions></trkpt>
      <trkpt lon="-4.133628" lat="53.003946"><ele>565.706848</ele><time>2021-07-17T10:16:01Z</time><extensions><speed>0.438873</speed><course>278.539093</course><hAcc>0.887805</hAcc><vAcc>0.711817</vAcc></extensions></trkpt>
      <trkpt lon="-4.133628" lat="53.003943"><ele>565.853821</ele><time>2021-07-17T10:16:02Z</time><extensions><speed>0.430750</speed><course>281.435120</course><hAcc>0.887884</hAcc><vAcc>0.712104</vAcc></extensions></trkpt>
      <trkpt lon="-4.133628" lat="53.003939"><ele>566.001343</ele><time>2021-07-17T10:16:03Z</time><extensions><speed>0.426232</speed><course>285.299316</course><hAcc>0.887997</hAcc><vAcc>0.712553</vAcc></extensions></trkpt>
      <trkpt lon="-4.133629" lat="53.003935"><ele>566.149353</ele><time>2021-07-17T10:16:04Z</time><extensions><speed>0.427095</speed><course>278.729095</course><hAcc>0.888137</hAcc><vAcc>0.713142</vAcc></extensions></trkpt>
      <trkpt lon="-4.133630" lat="53.003931"><ele>566.297974</ele><time>2021-07-17T10:16:05Z</time><extensions><speed>0.433535</speed><course>281.499542</course><hAcc>0.888297</hAcc><vAcc>0.713831</vAcc></extensions></trkpt>
      <trkpt lon="-4.133632" lat="53.003927"><ele>566.447144</ele><time>2021-07-17T10:16:06Z</time><extensions><speed>0.444330</speed><course>280.886475</course><hAcc>0.888465</hAcc><vAcc>0.714562</vAcc></extensions></trkpt>
      <trkpt lon="-4.133635" lat="53.003924"><ele>566.596924</ele><time>2021-07-17T10:16:07Z</time><extensions><speed>0.457335</speed><course>287.541565</course><hAcc>0.888631</hAcc><vAcc>0.715276</vAcc></extensions></trkpt>
      <trkpt lon="-4.133638" lat="53.003920"><ele>566.747314</ele><time>2021-07-17T10:16:08Z</time><extensions><speed>0.470218</speed><course>288.221985</course><hAcc>0.888786</hAcc><vAcc>0.715916</vAcc></extensions></trkpt>
      <trkpt lon="-4.133641" lat="53.003916"><ele>566.898376</ele><time>2021-07-17T10:16:09Z</time><extensions><speed>0.481146</speed><course>291.891876</course><hAcc>0.888919</hAcc><vAcc>0.716438</vAcc></extensions></trkpt>
      <trkpt lon="-4.133645" lat="53.003912"><ele>567.049988</ele><time>2021-07-17T10:16:10Z</time><extensions><speed>0.488994</speed><course>289.035248</course><hAcc>0.889024</hAcc><vAcc>0.716813</vAcc></extensions></trkpt>
      <trkpt lon="-4.133648" lat="53.003909"><ele>567.202148</ele><time>2021-07-17T10:16:11Z</time><extensions><speed>0.493359</speed><course>286.354584</course><hAcc>0.889099</hAcc><vAcc>0.717028</vAcc></extensions></trkpt>
      <trkpt lon="-4.133652" lat="53.003905"><ele>567.354675</ele><time>2021-07-17T10:16:12Z</time><extensions><speed>0.494318</speed><course>285.070648</course><hAcc>0.889143</hAcc><vAcc>0.717085</vAcc></extensions></trkpt>
      <trkpt lon="-4.133655" lat="53.003901"><ele>567.507141</ele><time>2021-07-17T10:16:13Z</time><extensions><speed>0.492401</speed><course>282.456329</course><hAcc>0.889160</hAcc><vAcc>0.717006</vAcc></extensions></trkpt>
      <trkpt lon="-4.133658" lat="53.003897"><ele>567.658997</ele><time>2021-07-17T10:16:14Z</time><extensions><speed>0.488614</speed><course>277.579590</course><hAcc>0.889154</hAcc><vAcc>0.716825</vAcc></extensions></trkpt>
      <trkpt lon="-4.133661" lat="53.003893"><ele>567.809570</ele><time>2021-07-17T10:16:15Z</time><extensions><speed>0.484276</speed><course>280.944580</course><hAcc>0.889133</hAcc><vAcc>0.716586</vAcc></extensions></trkpt>
      <trkpt lon="-4.133664" lat="53.003889"><ele>567.958191</ele><time>2021-07-17T10:16:16Z</time><extensions><speed>0.480563</speed><course>286.555664</course><hAcc>0.889107</hAcc><vAcc>0.716337</vAcc></extensions></trkpt>
      <trkpt lon="-4.133667" lat="53.003885"><ele>568.104248</ele><time>2021-07-17T10:16:17Z</time><extensions><speed>0.478570</speed><course>286.867188</course><hAcc>0.889082</hAcc><vAcc>0.716122</vAcc></extensions></trkpt>
      <trkpt lon="-4.133670" lat="53.003881"><ele>568.247375</ele><time>2021-07-17T10:16:18Z</time><extensions><speed>0.479194</speed><course>285.747314</course><hAcc>0.889067</hAcc><vAcc>0.715980</vAcc></extensions></trkpt>
      <trkpt lon="-4.133673" lat="53.003877"><ele>568.387146</ele><time>2021-07-17T10:16:19Z</time><extensions><speed>0.482845</speed><course>288.748718</course><hAcc>0.889067</hAcc><vAcc>0.715937</vAcc></extensions></trkpt>
      <trkpt lon="-4.133676" lat="53.003873"><ele>568.523193</ele><time>2021-07-17T10:16:20Z</time><extensions><speed>0.489440</speed><course>282.056335</course><hAcc>0.889085</hAcc><vAcc>0.716007</vAcc></extensions></trkpt>
      <trkpt lon="-4.133680" lat="53.003869"><ele>568.655518</ele><time>2021-07-17T10:16:21Z</time><extensions><speed>0.498193</speed><course>284.841522</course><hAcc>0.889122</hAcc><vAcc>0.716189</vAcc></extensions></trkpt>
      <trkpt lon="-4.133683" lat="53.003865"><ele>568.783936</ele><time>2021-07-17T10:16:22Z</time><extensions><speed>0.507792</speed><course>283.873260</course><hAcc>0.889174</hAcc><vAcc>0.716467</vAcc></extensions></trkpt>
      <trkpt lon="-4.133687" lat="53.003861"><ele>568.908752</ele><time>2021-07-17T10:16:23Z</time><extensions><speed>0.517156</speed><course>280.645142</course><hAcc>0.889238</hAcc><vAcc>0.716808</vAcc></extensions></trkpt>
      <trkpt lon="-4.133692" lat="53.003857"><ele>569.030151</ele><time>2021-07-17T10:16:24Z</time><extensions><speed>0.525874</speed><course>278.726105</course><hAcc>0.889307</hAcc><vAcc>0.717174</vAcc></extensions></trkpt>
      <trkpt lon="-4.133696" lat="53.003853"><ele>569.148621</ele><time>2021-07-17T10:16:25Z</time><extensions><speed>0.533553</speed><course>276.107971</course><hAcc>0.889376</hAcc><vAcc>0.717522</vAcc></extensions></trkpt>
      <trkpt lon="-4.133701" lat="53.003849"><ele>569.264771</ele><time>2021-07-17T10:16:26Z</time><extensions><speed>0.539974</speed><course>275.135803</course><hAcc>0.889437</hAcc><vAcc>0.717815</vAcc></extensions></trkpt>
      <trkpt lon="-4.133705" lat="53.003845"><ele>569.379089</ele><time>2021-07-17T10:16:27Z</time><extensions><speed>0.545442</speed><course>273.705627</course><hAcc>0.889484</hAcc><vAcc>0.718023</vAcc></extensions></trkpt>
      <trkpt lon="-4.133710" lat="53.003841"><ele>569.492188</ele><time>2021-07-17T10:16:28Z</time><extensions><speed>0.550315</speed><course>279.700806</course><hAcc>0.889512</hAcc><vAcc>0.718131</vAcc></extensions></trkpt>
      <trkpt lon="-4.133715" lat="53.003837"><ele>569.604553</ele><time>2021-07-17T10:16:29Z</time><extensions><speed>0.554885</speed><course>279.102997</course><hAcc>0.889518</hAcc><vAcc>0.718134</vAcc></extensions></trkpt>
      <trkpt lon="-4.133719" lat="53.003833"><ele>569.716675</ele><time>2021-07-17T10:16:30Z</time><extensions><speed>0.559369</speed><course>281.416626</course><hAcc>0.889501</hAcc><vAcc>0.718035</vAcc></extensions></trkpt>
      <trkpt lon="-4.133724" lat="53.003829"><ele>569.828918</ele><time>2021-07-17T10:16:31Z</time><extensions><speed>0.563952</speed><course>274.399658</course><hAcc>0.889462</hAcc><vAcc>0.717845</vAcc></extensions></trkpt>
      <trkpt lon="-4.133728" lat="53.003824"><ele>569.941711</ele><time>2021-07-17T10:16:32Z</time><extensions><speed>0.568663</speed><course>277.055237</course><hAcc>0.889404</hAcc><vAcc>0.717582</vAcc></extensions></trkpt>
      <trkpt lon="-4.133732" lat="53.003820"><ele>570.055298</ele><time>2021-07-17T10:16:33Z</time><extensions><speed>0.573520</speed><course>271.055908</course><hAcc>0.889331</hAcc><vAcc>0.717267</vAcc></extensions></trkpt>
      <trkpt lon="-4.133737" lat="53.003816"><ele>570.169861</ele><time>2021-07-17T10:16:34Z</time><extensions><speed>0.578449</speed><course>270.959534</course><hAcc>0.889251</hAcc><vAcc>0.716924</vAcc></extensions></trkpt>
      <trkpt lon="-4.133741" lat="53.003811"><ele>570.285522</ele><time>2021-07-17T10:16:35Z</time><extensions><speed>0.583278</speed><course>273.311462</course><hAcc>0.889168</hAcc><vAcc>0.716578</vAcc></extensions></trkpt>
      <trkpt lon="-4.133745" lat="53.003806"><ele>570.402100</ele><time>2021-07-17T10:16:36Z</time><extensions><speed>0.588114</speed><course>270.079376</course><hAcc>0.889090</hAcc><vAcc>0.716252</vAcc></extensions></trkpt>
      <trkpt lon="-4.133750" lat="53.003802"><ele>570.519592</ele><time>2021-07-17T10:16:37Z</time><extensions><speed>0.593443</speed><course>269.858612</course><hAcc>0.889022</hAcc><vAcc>0.715967</vAcc></extensions></trkpt>
      <trkpt lon="-4.133754" lat="53.003797"><ele>570.638000</ele><time>2021-07-17T10:16:38Z</time><extensions><speed>0.599919</speed><course>271.614288</course><hAcc>0.888971</hAcc><vAcc>0.715744</vAcc></extensions></trkpt>
      <trkpt lon="-4.133759" lat="53.003793"><ele>570.757446</ele><time>2021-07-17T10:16:39Z</time><extensions><speed>0.608067</speed><course>269.703888</course><hAcc>0.888940</hAcc><vAcc>0.715603</vAcc></extensions></trkpt>
      <trkpt lon="-4.133764" lat="53.003788"><ele>570.878113</ele><time>2021-07-17T10:16:40Z</time><extensions><speed>0.618320</speed><course>271.185974</course><hAcc>0.888930</hAcc><vAcc>0.715556</vAcc></extensions></trkpt>
      <trkpt lon="-4.133769" lat="53.003784"><ele>571.000244</ele><time>2021-07-17T10:16:41Z</time><extensions><speed>0.630871</speed><course>276.545776</course><hAcc>0.888942</hAcc><vAcc>0.715610</vAcc></extensions></trkpt>
      <trkpt lon="-4.133775" lat="53.003779"><ele>571.124268</ele><time>2021-07-17T10:16:42Z</time><extensions><speed>0.645962</speed><course>274.150604</course><hAcc>0.888976</hAcc><vAcc>0.715757</vAcc></extensions></trkpt>
      <trkpt lon="-4.133781" lat="53.003774"><ele>571.250854</ele><time>2021-07-17T10:16:43Z</time><extensions><speed>0.663435</speed><course>269.686920</course><hAcc>0.889027</hAcc><vAcc>0.715980</vAcc></extensions></trkpt>
      <trkpt lon="-4.133788" lat="53.003770"><ele>571.380676</ele><time>2021-07-17T10:16:44Z</time><extensions><speed>0.681588</speed><course>266.852386</course><hAcc>0.889092</hAcc><vAcc>0.716254</vAcc></extensions></trkpt>
      <trkpt lon="-4.133795" lat="53.003765"><ele>571.514771</ele><time>2021-07-17T10:16:45Z</time><extensions><speed>0.697768</speed><course>267.243347</course><hAcc>0.889166</hAcc><vAcc>0.716551</vAcc></extensions></trkpt>
      <trkpt lon="-4.133802" lat="53.003761"><ele>571.653931</ele><time>2021-07-17T10:16:46Z</time><extensions><speed>0.709846</speed><course>260.829193</course><hAcc>0.889225</hAcc><vAcc>0.716833</vAcc></extensions></trkpt>
      <trkpt lon="-4.133809" lat="53.003756"><ele>571.798401</ele><time>2021-07-17T10:16:47Z</time><extensions><speed>0.716457</speed><course>268.227509</course><hAcc>0.889261</hAcc><vAcc>0.717076</vAcc></extensions></trkpt>
      <trkpt lon="-4.133816" lat="53.003751"><ele>571.948547</ele><time>2021-07-17T10:16:48Z</time><extensions><speed>0.716947</speed><course>261.241119</course><hAcc>0.889284</hAcc><vAcc>0.717270</vAcc></extensions></trkpt>
      <trkpt lon="-4.133823" lat="53.003746"><ele>572.104431</ele><time>2021-07-17T10:16:49Z</time><extensions><speed>0.711339</speed><course>259.199677</course><hAcc>0.889288</hAcc><vAcc>0.717393</vAcc></extensions></trkpt>
      <trkpt lon="-4.133830" lat="53.003741"><ele>572.266296</ele><time>2021-07-17T10:16:50Z</time><extensions><speed>0.700314</speed><course>258.372070</course><hAcc>0.889267</hAcc><vAcc>0.717422</vAcc></extensions></trkpt>
      <trkpt lon="-4.133836" lat="53.003736"><ele>572.434204</ele><time>2021-07-17T10:16:51Z</time><extensions><speed>0.685192</speed><course>251.644882</course><hAcc>0.889217</hAcc><vAcc>0.717343</vAcc></extensions></trkpt>
      <trkpt lon="-4.133841" lat="53.003731"><ele>572.607788</ele><time>2021-07-17T10:16:52Z</time><extensions><speed>0.667841</speed><course>250.726257</course><hAcc>0.889136</hAcc><vAcc>0.717148</vAcc></extensions></trkpt>
      <trkpt lon="-4.133846" lat="53.003726"><ele>572.785889</ele><time>2021-07-17T10:16:52Z</time><extensions><speed>0.650394</speed><course>245.632431</course><hAcc>0.889061</hAcc><vAcc>0.716864</vAcc></extensions></trkpt>
      <trkpt lon="-4.133851" lat="53.003721"><ele>572.968140</ele><time>2021-07-17T10:16:53Z</time><extensions><speed>0.634692</speed><course>245.967255</course><hAcc>0.888994</hAcc><vAcc>0.716501</vAcc></extensions></trkpt>
      <trkpt lon="-4.133854" lat="53.003716"><ele>573.152771</ele><time>2021-07-17T10:16:54Z</time><extensions><speed>0.622130</speed><course>241.448837</course><hAcc>0.888905</hAcc><vAcc>0.716057</vAcc></extensions></trkpt>
      <trkpt lon="-4.133857" lat="53.003710"><ele>573.338379</ele><time>2021-07-17T10:16:55Z</time><extensions><speed>0.613285</speed><course>246.306168</course><hAcc>0.888801</hAcc><vAcc>0.715560</vAcc></extensions></trkpt>
      <trkpt lon="-4.133859" lat="53.003705"><ele>573.523499</ele><time>2021-07-17T10:16:57Z</time><extensions><speed>0.608343</speed><course>241.853012</course><hAcc>0.888672</hAcc><vAcc>0.715030</vAcc></extensions></trkpt>
      <trkpt lon="-4.133861" lat="53.003700"><ele>573.706543</ele><time>2021-07-17T10:16:58Z</time><extensions><speed>0.607065</speed><course>247.017685</course><hAcc>0.888525</hAcc><vAcc>0.714498</vAcc></extensions></trkpt>
      <trkpt lon="-4.133863" lat="53.003694"><ele>573.886536</ele><time>2021-07-17T10:16:59Z</time><extensions><speed>0.608947</speed><course>242.793106</course><hAcc>0.888382</hAcc><vAcc>0.714007</vAcc></extensions></trkpt>
      <trkpt lon="-4.133864" lat="53.003689"><ele>574.062500</ele><time>2021-07-17T10:17:00Z</time><extensions><speed>0.613626</speed><course>241.528748</course><hAcc>0.888248</hAcc><vAcc>0.713576</vAcc></extensions></trkpt>
      <trkpt lon="-4.133865" lat="53.003683"><ele>574.233826</ele><time>2021-07-17T10:17:00Z</time><extensions><speed>0.620896</speed><course>239.773132</course><hAcc>0.888143</hAcc><vAcc>0.713233</vAcc></extensions></trkpt>
      <trkpt lon="-4.133866" lat="53.003678"><ele>574.400940</ele><time>2021-07-17T10:17:01Z</time><extensions><speed>0.630621</speed><course>228.079361</course><hAcc>0.888069</hAcc><vAcc>0.712981</vAcc></extensions></trkpt>
      <trkpt lon="-4.133867" lat="53.003672"><ele>574.563843</ele><time>2021-07-17T10:17:02Z</time><extensions><speed>0.642488</speed><course>235.745880</course><hAcc>0.888009</hAcc><vAcc>0.712805</vAcc></extensions></trkpt>
      <trkpt lon="-4.133867" lat="53.003666"><ele>574.722778</ele><time>2021-07-17T10:17:03Z</time><extensions><speed>0.656126</speed><course>241.026978</course><hAcc>0.887963</hAcc><vAcc>0.712692</vAcc></extensions></trkpt>
      <trkpt lon="-4.133868" lat="53.003660"><ele>574.877930</ele><time>2021-07-17T10:17:04Z</time><extensions><speed>0.671087</speed><course>241.201813</course><hAcc>0.887932</hAcc><vAcc>0.712625</vAcc></extensions></trkpt>
      <trkpt lon="-4.133869" lat="53.003654"><ele>575.029663</ele><time>2021-07-17T10:17:05Z</time><extensions><speed>0.686887</speed><course>237.798721</course><hAcc>0.887916</hAcc><vAcc>0.712583</vAcc></extensions></trkpt>
      <trkpt lon="-4.133870" lat="53.003648"><ele>575.178772</ele><time>2021-07-17T10:17:07Z</time><extensions><speed>0.703447</speed><course>239.932953</course><hAcc>0.887897</hAcc><vAcc>0.712537</vAcc></extensions></trkpt>
      <trkpt lon="-4.133870" lat="53.003642"><ele>575.325378</ele><time>2021-07-17T10:17:08Z</time><extensions><speed>0.720913</speed><course>236.617691</course><hAcc>0.887873</hAcc><vAcc>0.712482</vAcc></extensions></trkpt>
      <trkpt lon="-4.133871" lat="53.003635"><ele>575.470154</ele><time>2021-07-17T10:17:09Z</time><extensions><speed>0.739178</speed><course>241.818802</course><hAcc>0.887864</hAcc><vAcc>0.712436</vAcc></extensions></trkpt>
      <trkpt lon="-4.133872" lat="53.003628"><ele>575.613770</ele><time>2021-07-17T10:17:10Z</time><extensions><speed>0.757673</speed><course>239.437317</course><hAcc>0.887871</hAcc><vAcc>0.712411</vAcc></extensions></trkpt>
      <trkpt lon="-4.133874" lat="53.003622"><ele>575.756775</ele><time>2021-07-17T10:17:11Z</time><extensions><speed>0.775688</speed><course>246.363113</course><hAcc>0.887893</hAcc><vAcc>0.712426</vAcc></extensions></trkpt>
      <trkpt lon="-4.133876" lat="53.003615"><ele>575.899719</ele><time>2021-07-17T10:17:12Z</time><extensions><speed>0.792625</speed><course>246.700150</course><hAcc>0.887934</hAcc><vAcc>0.712503</vAcc></extensions></trkpt>
      <trkpt lon="-4.133878" lat="53.003608"><ele>576.042969</ele><time>2021-07-17T10:17:13Z</time><extensions><speed>0.808045</speed><course>246.096832</course><hAcc>0.887995</hAcc><vAcc>0.712662</vAcc></extensions></trkpt>
      <trkpt lon="-4.133881" lat="53.003601"><ele>576.187073</ele><time>2021-07-17T10:17:14Z</time><extensions><speed>0.821628</speed><course>243.815796</course><hAcc>0.888078</hAcc><vAcc>0.712913</vAcc></extensions></trkpt>
      <trkpt lon="-4.133884" lat="53.003593"><ele>576.332214</ele><time>2021-07-17T10:17:15Z</time><extensions><speed>0.833182</speed><course>246.512634</course><hAcc>0.888184</hAcc><vAcc>0.713255</vAcc></extensions></trkpt>
      <trkpt lon="-4.133889" lat="53.003586"><ele>576.478577</ele><time>2021-07-17T10:17:16Z</time><extensions><speed>0.842574</speed><course>244.050751</course><hAcc>0.888312</hAcc><vAcc>0.713681</vAcc></extensions></trkpt>
      <trkpt lon="-4.133893" lat="53.003579"><ele>576.626038</ele><time>2021-07-17T10:17:17Z</time><extensions><speed>0.849670</speed><course>244.230560</course><hAcc>0.888460</hAcc><vAcc>0.714184</vAcc></extensions></trkpt>
      <trkpt lon="-4.133899" lat="53.003572"><ele>576.774475</ele><time>2021-07-17T10:17:18Z</time><extensions><speed>0.854270</speed><course>245.032242</course><hAcc>0.888626</hAcc><vAcc>0.714753</vAcc></extensions></trkpt>
      <trkpt lon="-4.133905" lat="53.003566"><ele>576.924011</ele><time>2021-07-17T10:17:19Z</time><extensions><speed>0.856398</speed><course>246.179367</course><hAcc>0.888804</hAcc><vAcc>0.715380</vAcc></extensions></trkpt>
      <trkpt lon="-4.133912" lat="53.003559"><ele>577.074646</ele><time>2021-07-17T10:17:20Z</time><extensions><speed>0.856080</speed><course>241.821411</course><hAcc>0.888989</hAcc><vAcc>0.716048</vAcc></extensions></trkpt>
      <trkpt lon="-4.133919" lat="53.003553"><ele>577.226440</ele><time>2021-07-17T10:17:21Z</time><extensions><speed>0.852897</speed><course>243.788040</course><hAcc>0.889174</hAcc><vAcc>0.716736</vAcc></extensions></trkpt>
      <trkpt lon="-4.133927" lat="53.003547"><ele>577.379456</ele><time>2021-07-17T10:17:22Z</time><extensions><speed>0.845863</speed><course>243.693268</course><hAcc>0.889354</hAcc><vAcc>0.717414</vAcc></extensions></trkpt>
      <trkpt lon="-4.133935" lat="53.003541"><ele>577.533447</ele><time>2021-07-17T10:17:23Z</time><extensions><speed>0.833932</speed><course>242.775101</course><hAcc>0.889522</hAcc><vAcc>0.718048</vAcc></extensions></trkpt>
      <trkpt lon="-4.133943" lat="53.003536"><ele>577.688110</ele><time>2021-07-17T10:17:24Z</time><extensions><speed>0.816454</speed><course>245.970306</course><hAcc>0.889673</hAcc><vAcc>0.718610</vAcc></extensions></trkpt>
      <trkpt lon="-4.133951" lat="53.003530"><ele>577.842712</ele><time>2021-07-17T10:17:25Z</time><extensions><speed>0.793181</speed><course>242.405746</course><hAcc>0.889804</hAcc><vAcc>0.719076</vAcc></extensions></trkpt>
      <trkpt lon="-4.133959" lat="53.003525"><ele>577.996277</ele><time>2021-07-17T10:17:26Z</time><extensions><speed>0.764170</speed><course>242.953247</course><hAcc>0.889913</hAcc><vAcc>0.719431</vAcc></extensions></trkpt>
      <trkpt lon="-4.133967" lat="53.003520"><ele>578.147888</ele><time>2021-07-17T10:17:27Z</time><extensions><speed>0.729562</speed><course>243.898651</course><hAcc>0.889998</hAcc><vAcc>0.719672</vAcc></extensions></trkpt>
      <trkpt lon="-4.133975" lat="53.003516"><ele>578.296021</ele><time>2021-07-17T10:17:28Z</time><extensions><speed>0.689705</speed><course>246.283890</course><hAcc>0.890061</hAcc><vAcc>0.719804</vAcc></extensions></trkpt>
      <trkpt lon="-4.133981" lat="53.003512"><ele>578.439148</ele><time>2021-07-17T10:17:29Z</time><extensions><speed>0.645422</speed><course>244.954941</course><hAcc>0.890105</hAcc><vAcc>0.719846</vAcc></extensions></trkpt>
      <trkpt lon="-4.133988" lat="53.003507"><ele>578.575500</ele><time>2021-07-17T10:17:30Z</time><extensions><speed>0.598149</speed><course>242.649384</course><hAcc>0.890133</hAcc><vAcc>0.719822</vAcc></extensions></trkpt>
      <trkpt lon="-4.133994" lat="53.003504"><ele>578.703369</ele><time>2021-07-17T10:17:31Z</time><extensions><speed>0.549439</speed><course>244.763245</course><hAcc>0.890150</hAcc><vAcc>0.719763</vAcc></extensions></trkpt>
      <trkpt lon="-4.133999" lat="53.003500"><ele>578.821106</ele><time>2021-07-17T10:17:32Z</time><extensions><speed>0.500234</speed><course>244.903290</course><hAcc>0.890160</hAcc><vAcc>0.719698</vAcc></extensions></trkpt>
      <trkpt lon="-4.134004" lat="53.003497"><ele>578.927063</ele><time>2021-07-17T10:17:33Z</time><extensions><speed>0.451287</speed><course>245.405487</course><hAcc>0.890168</hAcc><vAcc>0.719656</vAcc></extensions></trkpt>
      <trkpt lon="-4.134008" lat="53.003494"><ele>579.019775</ele><time>2021-07-17T10:17:34Z</time><extensions><speed>0.403340</speed><course>244.116837</course><hAcc>0.890177</hAcc><vAcc>0.719654</vAcc></extensions></trkpt>
      <trkpt lon="-4.134012" lat="53.003492"><ele>579.098328</ele><time>2021-07-17T10:17:35Z</time><extensions><speed>0.356676</speed><course>244.373413</course><hAcc>0.890189</hAcc><vAcc>0.719702</vAcc></extensions></trkpt>
      <trkpt lon="-4.134015" lat="53.003489"><ele>579.161987</ele><time>2021-07-17T10:17:36Z</time><extensions><speed>0.311610</speed><course>242.926376</course><hAcc>0.890206</hAcc><vAcc>0.719797</vAcc></extensions></trkpt>
      <trkpt lon="-4.134018" lat="53.003487"><ele>579.211182</ele><time>2021-07-17T10:17:37Z</time><extensions><speed>0.269104</speed><course>245.132996</course><hAcc>0.890228</hAcc><vAcc>0.719926</vAcc></extensions></trkpt>
      <trkpt lon="-4.134020" lat="53.003486"><ele>579.246826</ele><time>2021-07-17T10:17:38Z</time><extensions><speed>0.230777</speed><course>244.501526</course><hAcc>0.890252</hAcc><vAcc>0.720073</vAcc></extensions></trkpt>
      <trkpt lon="-4.134022" lat="53.003484"><ele>579.270508</ele><time>2021-07-17T10:17:39Z</time><extensions><speed>0.198031</speed><course>246.537445</course><hAcc>0.890277</hAcc><vAcc>0.720218</vAcc></extensions></trkpt>
      <trkpt lon="-4.134024" lat="53.003483"><ele>579.283997</ele><time>2021-07-17T10:17:40Z</time><extensions><speed>0.171192</speed><course>249.471207</course><hAcc>0.890298</hAcc><vAcc>0.720345</vAcc></extensions></trkpt>
      <trkpt lon="-4.134026" lat="53.003482"><ele>579.289246</ele><time>2021-07-17T10:17:41Z</time><extensions><speed>0.149910</speed><course>248.775497</course><hAcc>0.890311</hAcc><vAcc>0.720436</vAcc></extensions></trkpt>
      <trkpt lon="-4.134028" lat="53.003481"><ele>579.288208</ele><time>2021-07-17T10:17:42Z</time><extensions><speed>0.134065</speed><course>246.941742</course><hAcc>0.890313</hAcc><vAcc>0.720479</vAcc></extensions></trkpt>
      <trkpt lon="-4.134030" lat="53.003481"><ele>579.282898</ele><time>2021-07-17T10:17:43Z</time><extensions><speed>0.123843</speed><course>244.433502</course><hAcc>0.890300</hAcc><vAcc>0.720464</vAcc></extensions></trkpt>
      <trkpt lon="-4.134031" lat="53.003480"><ele>579.275085</ele><time>2021-07-17T10:17:44Z</time><extensions><speed>0.119071</speed><course>244.037323</course><hAcc>0.890267</hAcc><vAcc>0.720383</vAcc></extensions></trkpt>
      <trkpt lon="-4.134033" lat="53.003480"><ele>579.266357</ele><time>2021-07-17T10:17:45Z</time><extensions><speed>0.119031</speed><course>247.924194</course><hAcc>0.890214</hAcc><vAcc>0.720231</vAcc></extensions></trkpt>
      <trkpt lon="-4.134034" lat="53.003480"><ele>579.257996</ele><time>2021-07-17T10:17:46Z</time><extensions><speed>0.122661</speed><course>244.193863</course><hAcc>0.890139</hAcc><vAcc>0.720003</vAcc></extensions></trkpt>
      <trkpt lon="-4.134036" lat="53.003479"><ele>579.251282</ele><time>2021-07-17T10:17:47Z</time><extensions><speed>0.128387</speed><course>245.117035</course><hAcc>0.890043</hAcc><vAcc>0.719696</vAcc></extensions></trkpt>
      <trkpt lon="-4.134038" lat="53.003479"><ele>579.247314</ele><time>2021-07-17T10:17:48Z</time><extensions><speed>0.133966</speed><course>240.947311</course><hAcc>0.889927</hAcc><vAcc>0.719308</vAcc></extensions></trkpt>
      <trkpt lon="-4.134040" lat="53.003479"><ele>579.246765</ele><time>2021-07-17T10:17:49Z</time><extensions><speed>0.137339</speed><course>248.726425</course><hAcc>0.889793</hAcc><vAcc>0.718846</vAcc></extensions></trkpt>
      <trkpt lon="-4.134042" lat="53.003478"><ele>579.249756</ele><time>2021-07-17T10:17:50Z</time><extensions><speed>0.137412</speed><course>246.210281</course><hAcc>0.889647</hAcc><vAcc>0.718323</vAcc></extensions></trkpt>
      <trkpt lon="-4.134044" lat="53.003478"><ele>579.256042</ele><time>2021-07-17T10:17:51Z</time><extensions><speed>0.133585</speed><course>244.130585</course><hAcc>0.889491</hAcc><vAcc>0.717759</vAcc></extensions></trkpt>
      <trkpt lon="-4.134046" lat="53.003478"><ele>579.265015</ele><time>2021-07-17T10:17:52Z</time><extensions><speed>0.125634</speed><course>242.385971</course><hAcc>0.889332</hAcc><vAcc>0.717173</vAcc></extensions></trkpt>
      <trkpt lon="-4.134048" lat="53.003478"><ele>579.276245</ele><time>2021-07-17T10:17:53Z</time><extensions><speed>0.114144</speed><course>242.586807</course><hAcc>0.889174</hAcc><vAcc>0.716591</vAcc></extensions></trkpt>
      <trkpt lon="-4.134049" lat="53.003478"><ele>579.289307</ele><time>2021-07-17T10:17:54Z</time><extensions><speed>0.099919</speed><course>243.360626</course><hAcc>0.889023</hAcc><vAcc>0.716035</vAcc></extensions></trkpt>
      <trkpt lon="-4.134051" lat="53.003478"><ele>579.303772</ele><time>2021-07-17T10:17:55Z</time><extensions><speed>0.083788</speed><course>243.971695</course><hAcc>0.888883</hAcc><vAcc>0.715531</vAcc></extensions></trkpt>
      <trkpt lon="-4.134052" lat="53.003478"><ele>579.319092</ele><time>2021-07-17T10:17:56Z</time><extensions><speed>0.066855</speed><course>240.206924</course><hAcc>0.888759</hAcc><vAcc>0.715098</vAcc></extensions></trkpt>
      <trkpt lon="-4.134053" lat="53.003478"><ele>579.334717</ele><time>2021-07-17T10:17:57Z</time><extensions><speed>0.050225</speed><course>239.075470</course><hAcc>0.888655</hAcc><vAcc>0.714748</vAcc></extensions></trkpt>
      <trkpt lon="-4.134053" lat="53.003478"><ele>579.349976</ele><time>2021-07-17T10:17:58Z</time><extensions><speed>0.035013</speed><course>237.642349</course><hAcc>0.888572</hAcc><vAcc>0.714488</vAcc></extensions></trkpt>
      <trkpt lon="-4.134054" lat="53.003478"><ele>579.364380</ele><time>2021-07-17T10:17:59Z</time><extensions><speed>0.022760</speed><course>240.263168</course><hAcc>0.888512</hAcc><vAcc>0.714316</vAcc></extensions></trkpt>
      <trkpt lon="-4.134054" lat="53.003479"><ele>579.377380</ele><time>2021-07-17T10:18:00Z</time><extensions><speed>0.017177</speed><course>236.992905</course><hAcc>0.888475</hAcc><vAcc>0.714226</vAcc></extensions></trkpt>
      <trkpt lon="-4.134054" lat="53.003479"><ele>579.388611</ele><time>2021-07-17T10:18:01Z</time><extensions><speed>0.021163</speed><course>237.814407</course><hAcc>0.888460</hAcc><vAcc>0.714213</vAcc></extensions></trkpt>
      <trkpt lon="-4.134053" lat="53.003479"><ele>579.397766</ele><time>2021-07-17T10:18:02Z</time><extensions><speed>0.029227</speed><course>233.161377</course><hAcc>0.888465</hAcc><vAcc>0.714267</vAcc></extensions></trkpt>
      <trkpt lon="-4.134053" lat="53.003479"><ele>579.404480</ele><time>2021-07-17T10:18:03Z</time><extensions><speed>0.036741</speed><course>231.854340</course><hAcc>0.888489</hAcc><vAcc>0.714377</vAcc></extensions></trkpt>
      <trkpt lon="-4.134052" lat="53.003479"><ele>579.408569</ele><time>2021-07-17T10:18:04Z</time><extensions><speed>0.041961</speed><course>230.330582</course><hAcc>0.888529</hAcc><vAcc>0.714529</vAcc></extensions></trkpt>
      <trkpt lon="-4.134052" lat="53.003479"><ele>579.409973</ele><time>2021-07-17T10:18:05Z</time><extensions><speed>0.044644</speed><course>225.955917</course><hAcc>0.888583</hAcc><vAcc>0.714714</vAcc></extensions></trkpt>
      <trkpt lon="-4.134051" lat="53.003479"><ele>579.408691</ele><time>2021-07-17T10:18:06Z</time><extensions><speed>0.045171</speed><course>228.667099</course><hAcc>0.888647</hAcc><vAcc>0.714927</vAcc></extensions></trkpt>
      <trkpt lon="-4.134051" lat="53.003480"><ele>579.404724</ele><time>2021-07-17T10:18:07Z</time><extensions><speed>0.044090</speed><course>231.197586</course><hAcc>0.888719</hAcc><vAcc>0.715164</vAcc></extensions></trkpt>
      <trkpt lon="-4.134050" lat="53.003480"><ele>579.398132</ele><time>2021-07-17T10:18:08Z</time><extensions><speed>0.041701</speed><course>231.649063</course><hAcc>0.888796</hAcc><vAcc>0.715425</vAcc></extensions></trkpt>
      <trkpt lon="-4.134050" lat="53.003480"><ele>579.389038</ele><time>2021-07-17T10:18:09Z</time><extensions><speed>0.038160</speed><course>225.252350</course><hAcc>0.888875</hAcc><vAcc>0.715704</vAcc></extensions></trkpt>
      <trkpt lon="-4.134049" lat="53.003480"><ele>579.377991</ele><time>2021-07-17T10:18:10Z</time><extensions><speed>0.033487</speed><course>227.044876</course><hAcc>0.888955</hAcc><vAcc>0.715990</vAcc></extensions></trkpt>
      <trkpt lon="-4.134049" lat="53.003480"><ele>579.365601</ele><time>2021-07-17T10:18:11Z</time><extensions><speed>0.027744</speed><course>232.104660</course><hAcc>0.889033</hAcc><vAcc>0.716270</vAcc></extensions></trkpt>
      <trkpt lon="-4.134049" lat="53.003481"><ele>579.352417</ele><time>2021-07-17T10:18:12Z</time><extensions><speed>0.021436</speed><course>229.338486</course><hAcc>0.889108</hAcc><vAcc>0.716531</vAcc></extensions></trkpt>
      <trkpt lon="-4.134049" lat="53.003481"><ele>579.339233</ele><time>2021-07-17T10:18:13Z</time><extensions><speed>0.016335</speed><course>229.521286</course><hAcc>0.889178</hAcc><vAcc>0.716766</vAcc></extensions></trkpt>
      <trkpt lon="-4.134049" lat="53.003481"><ele>579.326843</ele><time>2021-07-17T10:18:14Z</time><extensions><speed>0.016384</speed><course>230.490311</course><hAcc>0.889241</hAcc><vAcc>0.716971</vAcc></extensions></trkpt>
      <trkpt lon="-4.134049" lat="53.003481"><ele>579.315918</ele><time>2021-07-17T10:18:15Z</time><extensions><speed>0.022372</speed><course>231.378189</course><hAcc>0.889298</hAcc><vAcc>0.717147</vAcc></extensions></trkpt>
      <trkpt lon="-4.134049" lat="53.003481"><ele>579.307129</ele><time>2021-07-17T10:18:16Z</time><extensions><speed>0.030619</speed><course>228.697189</course><hAcc>0.889348</hAcc><vAcc>0.717292</vAcc></extensions></trkpt>
      <trkpt lon="-4.134050" lat="53.003481"><ele>579.300903</ele><time>2021-07-17T10:18:17Z</time><extensions><speed>0.038624</speed><course>226.471390</course><hAcc>0.889391</hAcc><vAcc>0.717412</vAcc></extensions></trkpt>
      <trkpt lon="-4.134051" lat="53.003481"><ele>579.297607</ele><time>2021-07-17T10:18:18Z</time><extensions><speed>0.045117</speed><course>220.030243</course><hAcc>0.889427</hAcc><vAcc>0.717510</vAcc></extensions></trkpt>
      <trkpt lon="-4.134051" lat="53.003481"><ele>579.297180</ele><time>2021-07-17T10:18:19Z</time><extensions><speed>0.049507</speed><course>220.714050</course><hAcc>0.889459</hAcc><vAcc>0.717589</vAcc></extensions></trkpt>
      <trkpt lon="-4.134052" lat="53.003481"><ele>579.299683</ele><time>2021-07-17T10:18:20Z</time><extensions><speed>0.051598</speed><course>225.627274</course><hAcc>0.889486</hAcc><vAcc>0.717656</vAcc></extensions></trkpt>
      <trkpt lon="-4.134053" lat="53.003481"><ele>579.304810</ele><time>2021-07-17T10:18:21Z</time><extensions><speed>0.051336</speed><course>226.764282</course><hAcc>0.889510</hAcc><vAcc>0.717718</vAcc></extensions></trkpt>
      <trkpt lon="-4.134053" lat="53.003481"><ele>579.312195</ele><time>2021-07-17T10:18:22Z</time><extensions><speed>0.048739</speed><course>226.578552</course><hAcc>0.889531</hAcc><vAcc>0.717779</vAcc></extensions></trkpt>
      <trkpt lon="-4.134054" lat="53.003481"><ele>579.321472</ele><time>2021-07-17T10:18:23Z</time><extensions><speed>0.044087</speed><course>225.919083</course><hAcc>0.889552</hAcc><vAcc>0.717842</vAcc></extensions></trkpt>
      <trkpt lon="-4.134055" lat="53.003480"><ele>579.331909</ele><time>2021-07-17T10:18:24Z</time><extensions><speed>0.037823</speed><course>231.063477</course><hAcc>0.889573</hAcc><vAcc>0.717907</vAcc></extensions></trkpt>
      <trkpt lon="-4.134055" lat="53.003480"><ele>579.342896</ele><time>2021-07-17T10:18:25Z</time><extensions><speed>0.030371</speed><course>239.724365</course><hAcc>0.889595</hAcc><vAcc>0.717976</vAcc></extensions></trkpt>
      <trkpt lon="-4.134056" lat="53.003480"><ele>579.353699</ele><time>2021-07-17T10:18:26Z</time><extensions><speed>0.022081</speed><course>234.846985</course><hAcc>0.889618</hAcc><vAcc>0.718048</vAcc></extensions></trkpt>
      <trkpt lon="-4.134056" lat="53.003480"><ele>579.363708</ele><time>2021-07-17T10:18:27Z</time><extensions><speed>0.013319</speed><course>233.853561</course><hAcc>0.889644</hAcc><vAcc>0.718124</vAcc></extensions></trkpt>
      <trkpt lon="-4.134056" lat="53.003480"><ele>579.372375</ele><time>2021-07-17T10:18:28Z</time><extensions><speed>0.005775</speed><course>233.915298</course><hAcc>0.889673</hAcc><vAcc>0.718206</vAcc></extensions></trkpt>
      <trkpt lon="-4.134056" lat="53.003480"><ele>579.378845</ele><time>2021-07-17T10:18:29Z</time><extensions><speed>0.010718</speed><course>223.625214</course><hAcc>0.889704</hAcc><vAcc>0.718298</vAcc></extensions></trkpt>
      <trkpt lon="-4.134056" lat="53.003480"><ele>579.382629</ele><time>2021-07-17T10:18:30Z</time><extensions><speed>0.022711</speed><course>224.382111</course><hAcc>0.889738</hAcc><vAcc>0.718404</vAcc></extensions></trkpt>
      <trkpt lon="-4.134055" lat="53.003480"><ele>579.383118</ele><time>2021-07-17T10:18:31Z</time><extensions><speed>0.036262</speed><course>225.549652</course><hAcc>0.889776</hAcc><vAcc>0.718524</vAcc></extensions></trkpt>
      <trkpt lon="-4.134054" lat="53.003480"><ele>579.379883</ele><time>2021-07-17T10:18:32Z</time><extensions><speed>0.050415</speed><course>226.825943</course><hAcc>0.889816</hAcc><vAcc>0.718659</vAcc></extensions></trkpt>
      <trkpt lon="-4.134054" lat="53.003480"><ele>579.372498</ele><time>2021-07-17T10:18:33Z</time><extensions><speed>0.064326</speed><course>220.216599</course><hAcc>0.889859</hAcc><vAcc>0.718805</vAcc></extensions></trkpt>
      <trkpt lon="-4.134053" lat="53.003480"><ele>579.360718</ele><time>2021-07-17T10:18:34Z</time><extensions><speed>0.077434</speed><course>222.039505</course><hAcc>0.889906</hAcc><vAcc>0.718957</vAcc></extensions></trkpt>
      <trkpt lon="-4.134051" lat="53.003480"><ele>579.344299</ele><time>2021-07-17T10:18:35Z</time><extensions><speed>0.089423</speed><course>227.811584</course><hAcc>0.889955</hAcc><vAcc>0.719113</vAcc></extensions></trkpt>
      <trkpt lon="-4.134050" lat="53.003481"><ele>579.323181</ele><time>2021-07-17T10:18:36Z</time><extensions><speed>0.100031</speed><course>229.822403</course><hAcc>0.890008</hAcc><vAcc>0.719274</vAcc></extensions></trkpt>
      <trkpt lon="-4.134049" lat="53.003481"><ele>579.297363</ele><time>2021-07-17T10:18:37Z</time><extensions><speed>0.109119</speed><course>226.344223</course><hAcc>0.890063</hAcc><vAcc>0.719442</vAcc></extensions></trkpt>
      <trkpt lon="-4.134047" lat="53.003481"><ele>579.266907</ele><time>2021-07-17T10:18:38Z</time><extensions><speed>0.116418</speed><course>227.863098</course><hAcc>0.890120</hAcc><vAcc>0.719618</vAcc></extensions></trkpt>
      <trkpt lon="-4.134045" lat="53.003482"><ele>579.231934</ele><time>2021-07-17T10:18:39Z</time><extensions><speed>0.121700</speed><course>224.422241</course><hAcc>0.890178</hAcc><vAcc>0.719801</vAcc></extensions></trkpt>
      <trkpt lon="-4.134043" lat="53.003482"><ele>579.192932</ele><time>2021-07-17T10:18:40Z</time><extensions><speed>0.125072</speed><course>216.486084</course><hAcc>0.890237</hAcc><vAcc>0.719988</vAcc></extensions></trkpt>
      <trkpt lon="-4.134042" lat="53.003482"><ele>579.150574</ele><time>2021-07-17T10:18:41Z</time><extensions><speed>0.126810</speed><course>218.578918</course><hAcc>0.890296</hAcc><vAcc>0.720177</vAcc></extensions></trkpt>
      <trkpt lon="-4.134040" lat="53.003483"><ele>579.105408</ele><time>2021-07-17T10:18:42Z</time><extensions><speed>0.127098</speed><course>214.758057</course><hAcc>0.890355</hAcc><vAcc>0.720363</vAcc></extensions></trkpt>
      <trkpt lon="-4.134038" lat="53.003483"><ele>579.058350</ele><time>2021-07-17T10:18:43Z</time><extensions><speed>0.125886</speed><course>215.942535</course><hAcc>0.890413</hAcc><vAcc>0.720544</vAcc></extensions></trkpt>
      <trkpt lon="-4.134036" lat="53.003483"><ele>579.010498</ele><time>2021-07-17T10:18:44Z</time><extensions><speed>0.122893</speed><course>217.256287</course><hAcc>0.890469</hAcc><vAcc>0.720718</vAcc></extensions></trkpt>
      <trkpt lon="-4.134035" lat="53.003484"><ele>578.963074</ele><time>2021-07-17T10:18:45Z</time><extensions><speed>0.117844</speed><course>217.763580</course><hAcc>0.890524</hAcc><vAcc>0.720881</vAcc></extensions></trkpt>
      <trkpt lon="-4.134033" lat="53.003484"><ele>578.917358</ele><time>2021-07-17T10:18:46Z</time><extensions><speed>0.110715</speed><course>218.954041</course><hAcc>0.890559</hAcc><vAcc>0.721014</vAcc></extensions></trkpt>
      <trkpt lon="-4.134031" lat="53.003484"><ele>578.874451</ele><time>2021-07-17T10:18:47Z</time><extensions><speed>0.101900</speed><course>217.422287</course><hAcc>0.890574</hAcc><vAcc>0.721110</vAcc></extensions></trkpt>
      <trkpt lon="-4.134030" lat="53.003484"><ele>578.835510</ele><time>2021-07-17T10:18:48Z</time><extensions><speed>0.092024</speed><course>223.047699</course><hAcc>0.890587</hAcc><vAcc>0.721176</vAcc></extensions></trkpt>
      <trkpt lon="-4.134029" lat="53.003484"><ele>578.801270</ele><time>2021-07-17T10:18:49Z</time><extensions><speed>0.081695</speed><course>226.677948</course><hAcc>0.890598</hAcc><vAcc>0.721212</vAcc></extensions></trkpt>
      <trkpt lon="-4.134028" lat="53.003484"><ele>578.772583</ele><time>2021-07-17T10:18:50Z</time><extensions><speed>0.071516</speed><course>227.703995</course><hAcc>0.890605</hAcc><vAcc>0.721223</vAcc></extensions></trkpt>
      <trkpt lon="-4.134027" lat="53.003484"><ele>578.749817</ele><time>2021-07-17T10:18:51Z</time><extensions><speed>0.062073</speed><course>230.590866</course><hAcc>0.890611</hAcc><vAcc>0.721216</vAcc></extensions></trkpt>
      <trkpt lon="-4.134026" lat="53.003484"><ele>578.733337</ele><time>2021-07-17T10:18:52Z</time><extensions><speed>0.053887</speed><course>227.438507</course><hAcc>0.890614</hAcc><vAcc>0.721199</vAcc></extensions></trkpt>
      <trkpt lon="-4.134025" lat="53.003484"><ele>578.723145</ele><time>2021-07-17T10:18:53Z</time><extensions><speed>0.047415</speed><course>225.468048</course><hAcc>0.890616</hAcc><vAcc>0.721184</vAcc></extensions></trkpt>
      <trkpt lon="-4.134024" lat="53.003484"><ele>578.719299</ele><time>2021-07-17T10:18:54Z</time><extensions><speed>0.042713</speed><course>227.529541</course><hAcc>0.890616</hAcc><vAcc>0.721180</vAcc></extensions></trkpt>
      <trkpt lon="-4.134024" lat="53.003484"><ele>578.721680</ele><time>2021-07-17T10:18:55Z</time><extensions><speed>0.039486</speed><course>229.101913</course><hAcc>0.890614</hAcc><vAcc>0.721192</vAcc></extensions></trkpt>
      <trkpt lon="-4.134024" lat="53.003484"><ele>578.729858</ele><time>2021-07-17T10:18:56Z</time><extensions><speed>0.037515</speed><course>232.658401</course><hAcc>0.890610</hAcc><vAcc>0.721224</vAcc></extensions></trkpt>
      <trkpt lon="-4.134023" lat="53.003483"><ele>578.743469</ele><time>2021-07-17T10:18:57Z</time><extensions><speed>0.036807</speed><course>240.985550</course><hAcc>0.890602</hAcc><vAcc>0.721271</vAcc></extensions></trkpt>
      <trkpt lon="-4.134023" lat="53.003483"><ele>578.762085</ele><time>2021-07-17T10:18:58Z</time><extensions><speed>0.037484</speed><course>247.754288</course><hAcc>0.890591</hAcc><vAcc>0.721330</vAcc></extensions></trkpt>
      <trkpt lon="-4.134023" lat="53.003483"><ele>578.785095</ele><time>2021-07-17T10:18:58Z</time><extensions><speed>0.039343</speed><course>248.647888</course><hAcc>0.890614</hAcc><vAcc>0.721416</vAcc></extensions></trkpt>
      <trkpt lon="-4.134023" lat="53.003482"><ele>578.811890</ele><time>2021-07-17T10:18:59Z</time><extensions><speed>0.041801</speed><course>249.837509</course><hAcc>0.890672</hAcc><vAcc>0.721531</vAcc></extensions></trkpt>
      <trkpt lon="-4.134024" lat="53.003482"><ele>578.841858</ele><time>2021-07-17T10:19:00Z</time><extensions><speed>0.044015</speed><course>249.805771</course><hAcc>0.890736</hAcc><vAcc>0.721651</vAcc></extensions></trkpt>
      <trkpt lon="-4.134024" lat="53.003482"><ele>578.874451</ele><time>2021-07-17T10:19:01Z</time><extensions><speed>0.045375</speed><course>248.499069</course><hAcc>0.890813</hAcc><vAcc>0.721791</vAcc></extensions></trkpt>
      <trkpt lon="-4.134024" lat="53.003481"><ele>578.908936</ele><time>2021-07-17T10:19:02Z</time><extensions><speed>0.045627</speed><course>253.940247</course><hAcc>0.890915</hAcc><vAcc>0.721969</vAcc></extensions></trkpt>
      <trkpt lon="-4.134025" lat="53.003481"><ele>578.944580</ele><time>2021-07-17T10:19:03Z</time><extensions><speed>0.044698</speed><course>258.336456</course><hAcc>0.891056</hAcc><vAcc>0.722211</vAcc></extensions></trkpt>
      <trkpt lon="-4.134025" lat="53.003481"><ele>578.980469</ele><time>2021-07-17T10:19:04Z</time><extensions><speed>0.042767</speed><course>262.374329</course><hAcc>0.891255</hAcc><vAcc>0.722546</vAcc></extensions></trkpt>
      <trkpt lon="-4.134026" lat="53.003480"><ele>579.015808</ele><time>2021-07-17T10:19:05Z</time><extensions><speed>0.040033</speed><course>267.969177</course><hAcc>0.891536</hAcc><vAcc>0.723007</vAcc></extensions></trkpt>
      <trkpt lon="-4.134026" lat="53.003480"><ele>579.049805</ele><time>2021-07-17T10:19:06Z</time><extensions><speed>0.036568</speed><course>264.224579</course><hAcc>0.891930</hAcc><vAcc>0.723624</vAcc></extensions></trkpt>
      <trkpt lon="-4.134026" lat="53.003480"><ele>579.081726</ele><time>2021-07-17T10:19:07Z</time><extensions><speed>0.032550</speed><course>268.129974</course><hAcc>0.892471</hAcc><vAcc>0.724421</vAcc></extensions></trkpt>
      <trkpt lon="-4.134027" lat="53.003480"><ele>579.111084</ele><time>2021-07-17T10:19:08Z</time><extensions><speed>0.028268</speed><course>264.321320</course><hAcc>0.893196</hAcc><vAcc>0.725418</vAcc></extensions></trkpt>
      <trkpt lon="-4.134027" lat="53.003480"><ele>579.137512</ele><time>2021-07-17T10:19:09Z</time><extensions><speed>0.023962</speed><course>264.580688</course><hAcc>0.894142</hAcc><vAcc>0.726623</vAcc></extensions></trkpt>
      <trkpt lon="-4.134027" lat="53.003480"><ele>579.160889</ele><time>2021-07-17T10:19:10Z</time><extensions><speed>0.019816</speed><course>261.702026</course><hAcc>0.895343</hAcc><vAcc>0.728033</vAcc></extensions></trkpt>
      <trkpt lon="-4.134028" lat="53.003480"><ele>579.181152</ele><time>2021-07-17T10:19:11Z</time><extensions><speed>0.015966</speed><course>257.883942</course><hAcc>0.896815</hAcc><vAcc>0.729625</vAcc></extensions></trkpt>
      <trkpt lon="-4.134028" lat="53.003480"><ele>579.198425</ele><time>2021-07-17T10:19:12Z</time><extensions><speed>0.012503</speed><course>263.828339</course><hAcc>0.898556</hAcc><vAcc>0.731351</vAcc></extensions></trkpt>
      <trkpt lon="-4.134028" lat="53.003479"><ele>579.212891</ele><time>2021-07-17T10:19:13Z</time><extensions><speed>0.009485</speed><course>263.187408</course><hAcc>0.900527</hAcc><vAcc>0.733137</vAcc></extensions></trkpt>
      <trkpt lon="-4.134028" lat="53.003479"><ele>579.224792</ele><time>2021-07-17T10:19:14Z</time><extensions><speed>0.006946</speed><course>268.276398</course><hAcc>0.902649</hAcc><vAcc>0.734873</vAcc></extensions></trkpt>
      <trkpt lon="-4.134028" lat="53.003479"><ele>579.234314</ele><time>2021-07-17T10:19:15Z</time><extensions><speed>0.004912</speed><course>267.108978</course><hAcc>0.904794</hAcc><vAcc>0.736429</vAcc></extensions></trkpt>
      <trkpt lon="-4.134028" lat="53.003479"><ele>579.241699</ele><time>2021-07-17T10:19:16Z</time><extensions><speed>0.003423</speed><course>258.999207</course><hAcc>0.906788</hAcc><vAcc>0.737664</vAcc></extensions></trkpt>
      <trkpt lon="-4.134028" lat="53.003479"><ele>579.247314</ele><time>2021-07-17T10:19:17Z</time><extensions><speed>0.002545</speed><course>261.609131</course><hAcc>0.908440</hAcc><vAcc>0.738470</vAcc></extensions></trkpt>
      <trkpt lon="-4.134028" lat="53.003479"><ele>579.251404</ele><time>2021-07-17T10:19:18Z</time><extensions><speed>0.002278</speed><course>260.762634</course><hAcc>0.909591</hAcc><vAcc>0.738830</vAcc></extensions></trkpt>
      <trkpt lon="-4.134028" lat="53.003480"><ele>579.254150</ele><time>2021-07-17T10:19:19Z</time><extensions><speed>0.002395</speed><course>257.773804</course><hAcc>0.910218</hAcc><vAcc>0.738920</vAcc></extensions></trkpt>
      <trkpt lon="-4.134028" lat="53.003480"><ele>579.255859</ele><time>2021-07-17T10:19:20Z</time><extensions><speed>0.002617</speed><course>262.016693</course><hAcc>0.910601</hAcc><vAcc>0.739253</vAcc></extensions></trkpt>
      <trkpt lon="-4.134028" lat="53.003480"><ele>579.256714</ele><time>2021-07-17T10:19:21Z</time><extensions><speed>0.002808</speed><course>259.305511</course><hAcc>0.911575</hAcc><vAcc>0.740871</vAcc></extensions></trkpt>
      <trkpt lon="-4.134028" lat="53.003480"><ele>579.256836</ele><time>2021-07-17T10:19:22Z</time><extensions><speed>0.002928</speed><course>255.993027</course><hAcc>0.914888</hAcc><vAcc>0.745582</vAcc></extensions></trkpt>
      <trkpt lon="-4.134028" lat="53.003480"><ele>579.256470</ele><time>2021-07-17T10:19:23Z</time><extensions><speed>0.002982</speed><course>263.841553</course><hAcc>0.923629</hAcc><vAcc>0.756186</vAcc></extensions></trkpt>
      <trkpt lon="-4.134028" lat="53.003480"><ele>579.255737</ele><time>2021-07-17T10:19:24Z</time><extensions><speed>0.002985</speed><course>263.463287</course><hAcc>0.942622</hAcc><vAcc>0.776585</vAcc></extensions></trkpt>
      <trkpt lon="-4.134028" lat="53.003480"><ele>579.254700</ele><time>2021-07-17T10:19:25Z</time><extensions><speed>0.002957</speed><course>263.463287</course><hAcc>0.978549</hAcc><vAcc>0.811624</vAcc></extensions></trkpt>
      <trkpt lon="-4.134028" lat="53.003480"><ele>579.239929</ele><time>2021-07-17T10:19:26Z</time><extensions><speed>0.000000</speed><course>207.637573</course><hAcc>0.940580</hAcc><vAcc>0.776386</vAcc></extensions></trkpt>
      <trkpt lon="-4.134028" lat="53.003480"><ele>579.239929</ele><time>2021-07-17T10:19:27Z</time><extensions><speed>0.000000</speed><course>199.781464</course><hAcc>0.921229</hAcc><vAcc>0.755416</vAcc></extensions></trkpt>
      <trkpt lon="-4.134028" lat="53.003480"><ele>579.239929</ele><time>2021-07-17T10:19:28Z</time><extensions><speed>0.000000</speed><course>204.898392</course><hAcc>0.913487</hAcc><vAcc>0.745446</vAcc></extensions></trkpt>
      <trkpt lon="-4.134028" lat="53.003480"><ele>579.239929</ele><time>2021-07-17T10:19:29Z</time><extensions><speed>0.000000</speed><course>218.988647</course><hAcc>0.911880</hAcc><vAcc>0.742137</vAcc></extensions></trkpt>
      <trkpt lon="-4.134028" lat="53.003480"><ele>579.239929</ele><time>2021-07-17T10:19:30Z</time><extensions><speed>0.000000</speed><course>240.875916</course><hAcc>0.912919</hAcc><vAcc>0.742361</vAcc></extensions></trkpt>
      <trkpt lon="-4.134028" lat="53.003480"><ele>579.239929</ele><time>2021-07-17T10:19:31Z</time><extensions><speed>0.000000</speed><course>240.875916</course><hAcc>0.914659</hAcc><vAcc>0.744094</vAcc></extensions></trkpt>
      <trkpt lon="-4.134028" lat="53.003480"><ele>579.239929</ele><time>2021-07-17T10:19:32Z</time><extensions><speed>0.000000</speed><course>240.875916</course><hAcc>0.916193</hAcc><vAcc>0.746157</vAcc></extensions></trkpt>
      <trkpt lon="-4.134028" lat="53.003480"><ele>579.239929</ele><time>2021-07-17T10:19:34Z</time><extensions><speed>0.000000</speed><course>240.875916</course><hAcc>0.917211</hAcc><vAcc>0.747935</vAcc></extensions></trkpt>
      <trkpt lon="-4.134028" lat="53.003480"><ele>579.239929</ele><time>2021-07-17T10:19:35Z</time><extensions><speed>0.000000</speed><course>240.875916</course><hAcc>0.917731</hAcc><vAcc>0.749171</vAcc></extensions></trkpt>
      <trkpt lon="-4.134028" lat="53.003480"><ele>579.239929</ele><time>2021-07-17T10:19:36Z</time><extensions><speed>0.000000</speed><course>240.875916</course><hAcc>0.917900</hAcc><vAcc>0.749807</vAcc></extensions></trkpt>
      <trkpt lon="-4.134028" lat="53.003480"><ele>579.239929</ele><time>2021-07-17T10:19:37Z</time><extensions><speed>0.000000</speed><course>269.430084</course><hAcc>0.917829</hAcc><vAcc>0.749849</vAcc></extensions></trkpt>
      <trkpt lon="-4.134028" lat="53.003480"><ele>579.239929</ele><time>2021-07-17T10:19:38Z</time><extensions><speed>0.000000</speed><course>274.056000</course><hAcc>0.917561</hAcc><vAcc>0.749324</vAcc></extensions></trkpt>
      <trkpt lon="-4.134028" lat="53.003480"><ele>579.239929</ele><time>2021-07-17T10:19:39Z</time><extensions><speed>0.000000</speed><course>273.580658</course><hAcc>0.917065</hAcc><vAcc>0.748276</vAcc></extensions></trkpt>
      <trkpt lon="-4.134028" lat="53.003480"><ele>579.239929</ele><time>2021-07-17T10:19:40Z</time><extensions><speed>0.000000</speed><course>266.285736</course><hAcc>0.916284</hAcc><vAcc>0.746814</vAcc></extensions></trkpt>
      <trkpt lon="-4.134028" lat="53.003480"><ele>579.239929</ele><time>2021-07-17T10:19:41Z</time><extensions><speed>0.000000</speed><course>280.416809</course><hAcc>0.915246</hAcc><vAcc>0.745202</vAcc></extensions></trkpt>
      <trkpt lon="-4.134028" lat="53.003480"><ele>579.239929</ele><time>2021-07-17T10:19:42Z</time><extensions><speed>0.000000</speed><course>289.633057</course><hAcc>0.914245</hAcc><vAcc>0.744007</vAcc></extensions></trkpt>
      <trkpt lon="-4.134028" lat="53.003480"><ele>579.239929</ele><time>2021-07-17T10:19:43Z</time><extensions><speed>0.000000</speed><course>274.042023</course><hAcc>0.914105</hAcc><vAcc>0.744300</vAcc></extensions></trkpt>
      <trkpt lon="-4.134028" lat="53.003480"><ele>579.239929</ele><time>2021-07-17T10:19:44Z</time><extensions><speed>0.000000</speed><course>259.398621</course><hAcc>0.916547</hAcc><vAcc>0.747903</vAcc></extensions></trkpt>
      <trkpt lon="-4.134028" lat="53.003480"><ele>579.239929</ele><time>2021-07-17T10:19:45Z</time><extensions><speed>0.000000</speed><course>235.228027</course><hAcc>0.924634</hAcc><vAcc>0.757615</vAcc></extensions></trkpt>
      <trkpt lon="-4.134028" lat="53.003480"><ele>579.239929</ele><time>2021-07-17T10:19:46Z</time><extensions><speed>0.000000</speed><course>233.943741</course><hAcc>0.943164</hAcc><vAcc>0.777340</vAcc></extensions></trkpt>
      <trkpt lon="-4.134028" lat="53.003480"><ele>579.239929</ele><time>2021-07-17T10:19:47Z</time><extensions><speed>0.000000</speed><course>251.986771</course><hAcc>0.978794</hAcc><vAcc>0.811920</vAcc></extensions></trkpt>
      <trkpt lon="-4.134028" lat="53.003480"><ele>579.239929</ele><time>2021-07-17T10:19:48Z</time><extensions><speed>0.000000</speed><course>207.637573</course><hAcc>0.940530</hAcc><vAcc>0.776232</vAcc></extensions></trkpt>
      <trkpt lon="-4.134028" lat="53.003480"><ele>579.239929</ele><time>2021-07-17T10:19:49Z</time><extensions><speed>0.000000</speed><course>199.781464</course><hAcc>0.921187</hAcc><vAcc>0.755293</vAcc></extensions></trkpt>
      <trkpt lon="-4.134028" lat="53.003480"><ele>579.239929</ele><time>2021-07-17T10:19:50Z</time><extensions><speed>0.000000</speed><course>204.898392</course><hAcc>0.913454</hAcc><vAcc>0.745366</vAcc></extensions></trkpt>
      <trkpt lon="-4.134028" lat="53.003480"><ele>579.239929</ele><time>2021-07-17T10:19:51Z</time><extensions><speed>0.000000</speed><course>218.988647</course><hAcc>0.911855</hAcc><vAcc>0.742105</vAcc></extensions></trkpt>
      <trkpt lon="-4.134028" lat="53.003480"><ele>579.239929</ele><time>2021-07-17T10:19:52Z</time><extensions><speed>0.000000</speed><course>240.875916</course><hAcc>0.912900</hAcc><vAcc>0.742378</vAcc></extensions></trkpt>
      <trkpt lon="-4.134028" lat="53.003480"><ele>579.239929</ele><time>2021-07-17T10:19:53Z</time><extensions><speed>0.000000</speed><course>240.875916</course><hAcc>0.914644</hAcc><vAcc>0.744157</vAcc></extensions></trkpt>
      <trkpt lon="-4.134028" lat="53.003480"><ele>579.239929</ele><time>2021-07-17T10:19:54Z</time><extensions><speed>0.000000</speed><course>240.875916</course><hAcc>0.916177</hAcc><vAcc>0.746258</vAcc></extensions></trkpt>
      <trkpt lon="-4.134028" lat="53.003480"><ele>579.239929</ele><time>2021-07-17T10:19:55Z</time><extensions><speed>0.000000</speed><course>240.875916</course><hAcc>0.917207</hAcc><vAcc>0.748077</vAcc></extensions></trkpt>
      <trkpt lon="-4.134028" lat="53.003480"><ele>579.239929</ele><time>2021-07-17T10:19:56Z</time><extensions><speed>0.000000</speed><course>240.875916</course><hAcc>0.917753</hAcc><vAcc>0.749359</vAcc></extensions></trkpt>
      <trkpt lon="-4.134028" lat="53.003480"><ele>579.239929</ele><time>2021-07-17T10:19:57Z</time><extensions><speed>0.000000</speed><course>240.875916</course><hAcc>0.917942</hAcc><vAcc>0.750031</vAcc></extensions></trkpt>
      <trkpt lon="-4.134028" lat="53.003480"><ele>579.239929</ele><time>2021-07-17T10:19:58Z</time><extensions><speed>0.000000</speed><course>269.430084</course><hAcc>0.917887</hAcc><vAcc>0.750098</vAcc></extensions></trkpt>
      <trkpt lon="-4.134028" lat="53.003480"><ele>579.239929</ele><time>2021-07-17T10:19:59Z</time><extensions><speed>0.000000</speed><course>274.056000</course><hAcc>0.917631</hAcc><vAcc>0.749589</vAcc></extensions></trkpt>
      <trkpt lon="-4.134028" lat="53.003480"><ele>579.239929</ele><time>2021-07-17T10:20:00Z</time><extensions><speed>0.000000</speed><course>273.580658</course><hAcc>0.917142</hAcc><vAcc>0.748551</vAcc></extensions></trkpt>
      <trkpt lon="-4.134028" lat="53.003480"><ele>579.239929</ele><time>2021-07-17T10:20:01Z</time><extensions><speed>0.000000</speed><course>266.285736</course><hAcc>0.916365</hAcc><vAcc>0.747092</vAcc></extensions></trkpt>
      <trkpt lon="-4.134028" lat="53.003480"><ele>579.239929</ele><time>2021-07-17T10:20:02Z</time><extensions><speed>0.000000</speed><course>280.416809</course><hAcc>0.915329</hAcc><vAcc>0.745478</vAcc></extensions></trkpt>
      <trkpt lon="-4.134028" lat="53.003480"><ele>579.239929</ele><time>2021-07-17T10:20:03Z</time><extensions><speed>0.000000</speed><course>289.633057</course><hAcc>0.914326</hAcc><vAcc>0.744276</vAcc></extensions></trkpt>
      <trkpt lon="-4.134028" lat="53.003480"><ele>579.239929</ele><time>2021-07-17T10:20:04Z</time><extensions><speed>0.000000</speed><course>274.042023</course><hAcc>0.914181</hAcc><vAcc>0.744558</vAcc></extensions></trkpt>
      <trkpt lon="-4.134028" lat="53.003480"><ele>579.239929</ele><time>2021-07-17T10:20:05Z</time><extensions><speed>0.000000</speed><course>259.398621</course><hAcc>0.916617</hAcc><vAcc>0.748142</vAcc></extensions></trkpt>
      <trkpt lon="-4.134028" lat="53.003480"><ele>579.239929</ele><time>2021-07-17T10:20:06Z</time><extensions><speed>0.000000</speed><course>235.228027</course><hAcc>0.924693</hAcc><vAcc>0.757825</vAcc></extensions></trkpt>
      <trkpt lon="-4.134028" lat="53.003480"><ele>579.239929</ele><time>2021-07-17T10:20:07Z</time><extensions><speed>0.000000</speed><course>233.943741</course><hAcc>0.943210</hAcc><vAcc>0.777508</vAcc></extensions></trkpt>
      <trkpt lon="-4.134028" lat="53.003480"><ele>579.239929</ele><time>2021-07-17T10:20:08Z</time><extensions><speed>0.000000</speed><course>251.986771</course><hAcc>0.978825</hAcc><vAcc>0.812033</vAcc></extensions></trkpt>
      <trkpt lon="-4.134028" lat="53.003480"><ele>579.239929</ele><time>2021-07-17T10:20:09Z</time><extensions><speed>0.000000</speed><course>207.637573</course><hAcc>0.940589</hAcc><vAcc>0.776388</vAcc></extensions></trkpt>
      <trkpt lon="-4.134028" lat="53.003480"><ele>579.239929</ele><time>2021-07-17T10:20:10Z</time><extensions><speed>0.000000</speed><course>199.781464</course><hAcc>0.921226</hAcc><vAcc>0.755384</vAcc></extensions></trkpt>
      <trkpt lon="-4.134028" lat="53.003480"><ele>579.239929</ele><time>2021-07-17T10:20:11Z</time><extensions><speed>0.000000</speed><course>204.898392</course><hAcc>0.913475</hAcc><vAcc>0.745400</vAcc></extensions></trkpt>
      <trkpt lon="-4.134028" lat="53.003480"><ele>579.239929</ele><time>2021-07-17T10:20:12Z</time><extensions><speed>0.000000</speed><course>218.988647</course><hAcc>0.911862</hAcc><vAcc>0.742093</vAcc></extensions></trkpt>
      <trkpt lon="-4.134028" lat="53.003480"><ele>579.239929</ele><time>2021-07-17T10:20:13Z</time><extensions><speed>0.000000</speed><course>240.875916</course><hAcc>0.912896</hAcc><vAcc>0.742334</vAcc></extensions></trkpt>
      <trkpt lon="-4.134028" lat="53.003480"><ele>579.239929</ele><time>2021-07-17T10:20:14Z</time><extensions><speed>0.000000</speed><course>240.875916</course><hAcc>0.914631</hAcc><vAcc>0.744093</vAcc></extensions></trkpt>
      <trkpt lon="-4.134028" lat="53.003480"><ele>579.239929</ele><time>2021-07-17T10:20:15Z</time><extensions><speed>0.000000</speed><course>240.875916</course><hAcc>0.916159</hAcc><vAcc>0.746185</vAcc></extensions></trkpt>
      <trkpt lon="-4.134028" lat="53.003480"><ele>579.239929</ele><time>2021-07-17T10:20:16Z</time><extensions><speed>0.000000</speed><course>240.875916</course><hAcc>0.917185</hAcc><vAcc>0.748002</vAcc></extensions></trkpt>
      <trkpt lon="-4.134028" lat="53.003480"><ele>579.239929</ele><time>2021-07-17T10:20:17Z</time><extensions><speed>0.000000</speed><course>240.875916</course><hAcc>0.917730</hAcc><vAcc>0.749286</vAcc></extensions></trkpt>
      <trkpt lon="-4.134028" lat="53.003480"><ele>579.239929</ele><time>2021-07-17T10:20:18Z</time><extensions><speed>0.000000</speed><course>240.875916</course><hAcc>0.917919</hAcc><vAcc>0.749963</vAcc></extensions></trkpt>
      <trkpt lon="-4.134028" lat="53.003480"><ele>579.239929</ele><time>2021-07-17T10:20:19Z</time><extensions><speed>0.000000</speed><course>269.430084</course><hAcc>0.917865</hAcc><vAcc>0.750036</vAcc></extensions></trkpt>
      <trkpt lon="-4.134028" lat="53.003480"><ele>579.239929</ele><time>2021-07-17T10:20:20Z</time><extensions><speed>0.000000</speed><course>274.056000</course><hAcc>0.917611</hAcc><vAcc>0.749532</vAcc></extensions></trkpt>
      <trkpt lon="-4.134028" lat="53.003480"><ele>579.239929</ele><time>2021-07-17T10:20:21Z</time><extensions><speed>0.000000</speed><course>273.580658</course><hAcc>0.917126</hAcc><vAcc>0.748501</vAcc></extensions></trkpt>
      <trkpt lon="-4.134028" lat="53.003480"><ele>579.239929</ele><time>2021-07-17T10:20:22Z</time><extensions><speed>0.000000</speed><course>266.285736</course><hAcc>0.916354</hAcc><vAcc>0.747050</vAcc></extensions></trkpt>
      <trkpt lon="-4.134028" lat="53.003480"><ele>579.239929</ele><time>2021-07-17T10:20:23Z</time><extensions><speed>0.000000</speed><course>280.416809</course><hAcc>0.915323</hAcc><vAcc>0.745448</vAcc></extensions></trkpt>
      <trkpt lon="-4.134028" lat="53.003480"><ele>579.239929</ele><time>2021-07-17T10:20:24Z</time><extensions><speed>0.000000</speed><course>289.633057</course><hAcc>0.914326</hAcc><vAcc>0.744263</vAcc></extensions></trkpt>
      <trkpt lon="-4.134028" lat="53.003480"><ele>579.239929</ele><time>2021-07-17T10:20:25Z</time><extensions><speed>0.000000</speed><course>274.042023</course><hAcc>0.914187</hAcc><vAcc>0.744566</vAcc></extensions></trkpt>
      <trkpt lon="-4.134028" lat="53.003480"><ele>579.239929</ele><time>2021-07-17T10:20:26Z</time><extensions><speed>0.000000</speed><course>259.398621</course><hAcc>0.916630</hAcc><vAcc>0.748175</vAcc></extensions></trkpt>
      <trkpt lon="-4.134028" lat="53.003480"><ele>579.239929</ele><time>2021-07-17T10:20:27Z</time><extensions><speed>0.000000</speed><course>235.228027</course><hAcc>0.924715</hAcc><vAcc>0.757886</vAcc></extensions></trkpt>
      <trkpt lon="-4.134028" lat="53.003480"><ele>579.239929</ele><time>2021-07-17T10:20:28Z</time><extensions><speed>0.000000</speed><course>233.943741</course><hAcc>0.943240</hAcc><vAcc>0.777596</vAcc></extensions></trkpt>
      <trkpt lon="-4.134028" lat="53.003480"><ele>579.239929</ele><time>2021-07-17T10:20:29Z</time><extensions><speed>0.000000</speed><course>251.986771</course><hAcc>0.978862</hAcc><vAcc>0.812145</vAcc></extensions></trkpt>
      <trkpt lon="-4.134028" lat="53.003480"><ele>579.239929</ele><time>2021-07-17T10:20:30Z</time><extensions><speed>0.000000</speed><course>207.637573</course><hAcc>0.940614</hAcc><vAcc>0.776477</vAcc></extensions></trkpt>
      <trkpt lon="-4.134028" lat="53.003480"><ele>579.239929</ele><time>2021-07-17T10:20:31Z</time><extensions><speed>0.000000</speed><course>199.781464</course><hAcc>0.921245</hAcc><vAcc>0.755460</vAcc></extensions></trkpt>
      <trkpt lon="-4.134028" lat="53.003480"><ele>579.239929</ele><time>2021-07-17T10:20:32Z</time><extensions><speed>0.000000</speed><course>204.898392</course><hAcc>0.913488</hAcc><vAcc>0.745454</vAcc></extensions></trkpt>
      <trkpt lon="-4.134028" lat="53.003480"><ele>579.239929</ele><time>2021-07-17T10:20:33Z</time><extensions><speed>0.000000</speed><course>218.988647</course><hAcc>0.911867</hAcc><vAcc>0.742121</vAcc></extensions></trkpt>
      <trkpt lon="-4.134028" lat="53.003480"><ele>579.239929</ele><time>2021-07-17T10:20:34Z</time><extensions><speed>0.000000</speed><course>240.875916</course><hAcc>0.912895</hAcc><vAcc>0.742334</vAcc></extensions></trkpt>
      <trkpt lon="-4.134028" lat="53.003480"><ele>579.239929</ele><time>2021-07-17T10:20:35Z</time><extensions><speed>0.000000</speed><course>240.875916</course><hAcc>0.914623</hAcc><vAcc>0.744064</vAcc></extensions></trkpt>
      <trkpt lon="-4.134028" lat="53.003480"><ele>579.239929</ele><time>2021-07-17T10:20:36Z</time><extensions><speed>0.000000</speed><course>240.875916</course><hAcc>0.916145</hAcc><vAcc>0.746131</vAcc></extensions></trkpt>
      <trkpt lon="-4.134028" lat="53.003480"><ele>579.239929</ele><time>2021-07-17T10:20:37Z</time><extensions><speed>0.000000</speed><course>240.875916</course><hAcc>0.917167</hAcc><vAcc>0.747928</vAcc></extensions></trkpt>
      <trkpt lon="-4.134028" lat="53.003480"><ele>579.239929</ele><time>2021-07-17T10:20:38Z</time><extensions><speed>0.000000</speed><course>240.875916</course><hAcc>0.917708</hAcc><vAcc>0.749197</vAcc></extensions></trkpt>
      <trkpt lon="-4.134028" lat="53.003480"><ele>579.239929</ele><time>2021-07-17T10:20:39Z</time><extensions><speed>0.000000</speed><course>240.875916</course><hAcc>0.917896</hAcc><vAcc>0.749867</vAcc></extensions></trkpt>
      <trkpt lon="-4.134028" lat="53.003480"><ele>579.239929</ele><time>2021-07-17T10:20:40Z</time><extensions><speed>0.000000</speed><course>269.430084</course><hAcc>0.917843</hAcc><vAcc>0.749942</vAcc></extensions></trkpt>
      <trkpt lon="-4.134028" lat="53.003480"><ele>579.239929</ele><time>2021-07-17T10:20:41Z</time><extensions><speed>0.000000</speed><course>274.056000</course><hAcc>0.917591</hAcc><vAcc>0.749450</vAcc></extensions></trkpt>
      <trkpt lon="-4.134028" lat="53.003480"><ele>579.239929</ele><time>2021-07-17T10:20:42Z</time><extensions><speed>0.000000</speed><course>273.580658</course><hAcc>0.917110</hAcc><vAcc>0.748437</vAcc></extensions></trkpt>
      <trkpt lon="-4.134028" lat="53.003480"><ele>579.239929</ele><time>2021-07-17T10:20:43Z</time><extensions><speed>0.000000</speed><course>266.285736</course><hAcc>0.916344</hAcc><vAcc>0.747012</vAcc></extensions></trkpt>
      <trkpt lon="-4.134028" lat="53.003480"><ele>579.239929</ele><time>2021-07-17T10:20:44Z</time><extensions><speed>0.000000</speed><course>280.416809</course><hAcc>0.915322</hAcc><vAcc>0.745441</vAcc></extensions></trkpt>
      <trkpt lon="-4.134028" lat="53.003480"><ele>579.239929</ele><time>2021-07-17T10:20:45Z</time><extensions><speed>0.000000</speed><course>289.633057</course><hAcc>0.914334</hAcc><vAcc>0.744290</vAcc></extensions></trkpt>
      <trkpt lon="-4.134028" lat="53.003480"><ele>579.239929</ele><time>2021-07-17T10:20:46Z</time><extensions><speed>0.000000</speed><course>274.042023</course><hAcc>0.914206</hAcc><vAcc>0.744630</vAcc></extensions></trkpt>
      <trkpt lon="-4.134028" lat="53.003480"><ele>579.239929</ele><time>2021-07-17T10:20:47Z</time><extensions><speed>0.000000</speed><course>259.398621</course><hAcc>0.916660</hAcc><vAcc>0.748275</vAcc></extensions></trkpt>
      <trkpt lon="-4.134028" lat="53.003480"><ele>579.239929</ele><time>2021-07-17T10:20:48Z</time><extensions><speed>0.000000</speed><course>235.228027</course><hAcc>0.924755</hAcc><vAcc>0.758020</vAcc></extensions></trkpt>
      <trkpt lon="-4.134028" lat="53.003480"><ele>579.239929</ele><time>2021-07-17T10:20:49Z</time><extensions><speed>0.000000</speed><course>233.943741</course><hAcc>0.943290</hAcc><vAcc>0.777758</vAcc></extensions></trkpt>
      <trkpt lon="-4.134028" lat="53.003480"><ele>579.239929</ele><time>2021-07-17T10:20:50Z</time><extensions><speed>0.000000</speed><course>251.986771</course><hAcc>0.978920</hAcc><vAcc>0.812325</vAcc></extensions></trkpt>
      <trkpt lon="-4.134028" lat="53.003480"><ele>579.239929</ele><time>2021-07-17T10:20:51Z</time><extensions><speed>0.000000</speed><course>207.637573</course><hAcc>0.940680</hAcc><vAcc>0.776673</vAcc></extensions></trkpt>
      <trkpt lon="-4.134028" lat="53.003480"><ele>579.239929</ele><time>2021-07-17T10:20:52Z</time><extensions><speed>0.000000</speed><course>199.781464</course><hAcc>0.921293</hAcc><vAcc>0.755609</vAcc></extensions></trkpt>
      <trkpt lon="-4.134028" lat="53.003480"><ele>579.239929</ele><time>2021-07-17T10:20:53Z</time><extensions><speed>0.000000</speed><course>204.898392</course><hAcc>0.913516</hAcc><vAcc>0.745551</vAcc></extensions></trkpt>
      <trkpt lon="-4.134028" lat="53.003480"><ele>579.239929</ele><time>2021-07-17T10:20:54Z</time><extensions><speed>0.000000</speed><course>218.988647</course><hAcc>0.911874</hAcc><vAcc>0.742162</vAcc></extensions></trkpt>
      <trkpt lon="-4.134028" lat="53.003480"><ele>579.239929</ele><time>2021-07-17T10:20:55Z</time><extensions><speed>0.000000</speed><course>240.875916</course><hAcc>0.912879</hAcc><vAcc>0.742315</vAcc></extensions></trkpt>
      <trkpt lon="-4.134028" lat="53.003480"><ele>579.239929</ele><time>2021-07-17T10:20:56Z</time><extensions><speed>0.000000</speed><course>240.875916</course><hAcc>0.914584</hAcc><vAcc>0.743980</vAcc></extensions></trkpt>
      <trkpt lon="-4.134028" lat="53.003480"><ele>579.239929</ele><time>2021-07-17T10:20:57Z</time><extensions><speed>0.000000</speed><course>240.875916</course><hAcc>0.916081</hAcc><vAcc>0.745975</vAcc></extensions></trkpt>
      <trkpt lon="-4.134028" lat="53.003480"><ele>579.239929</ele><time>2021-07-17T10:20:58Z</time><extensions><speed>0.000000</speed><course>240.875916</course><hAcc>0.917077</hAcc><vAcc>0.747691</vAcc></extensions></trkpt>
      <trkpt lon="-4.134028" lat="53.003480"><ele>579.239929</ele><time>2021-07-17T10:20:59Z</time><extensions><speed>0.000000</speed><course>240.875916</course><hAcc>0.917591</hAcc><vAcc>0.748871</vAcc></extensions></trkpt>
      <trkpt lon="-4.134028" lat="53.003480"><ele>579.239929</ele><time>2021-07-17T10:21:00Z</time><extensions><speed>0.000000</speed><course>240.875916</course><hAcc>0.917752</hAcc><vAcc>0.749444</vAcc></extensions></trkpt>
      <trkpt lon="-4.134028" lat="53.003480"><ele>579.239929</ele><time>2021-07-17T10:21:01Z</time><extensions><speed>0.000000</speed><course>269.430084</course><hAcc>0.917672</hAcc><vAcc>0.749417</vAcc></extensions></trkpt>
      <trkpt lon="-4.134028" lat="53.003480"><ele>579.239929</ele><time>2021-07-17T10:21:02Z</time><extensions><speed>0.000000</speed><course>274.056000</course><hAcc>0.917396</hAcc><vAcc>0.748822</vAcc></extensions></trkpt>
      <trkpt lon="-4.134028" lat="53.003480"><ele>579.239929</ele><time>2021-07-17T10:21:03Z</time><extensions><speed>0.000000</speed><course>273.580658</course><hAcc>0.916891</hAcc><vAcc>0.747711</vAcc></extensions></trkpt>
      <trkpt lon="-4.134028" lat="53.003480"><ele>579.239929</ele><time>2021-07-17T10:21:04Z</time><extensions><speed>0.000000</speed><course>266.285736</course><hAcc>0.916084</hAcc><vAcc>0.746183</vAcc></extensions></trkpt>
      <trkpt lon="-4.134028" lat="53.003480"><ele>579.239929</ele><time>2021-07-17T10:21:05Z</time><extensions><speed>0.000000</speed><course>280.416809</course><hAcc>0.915024</hAcc><vAcc>0.744525</vAcc></extensions></trkpt>
      <trkpt lon="-4.134028" lat="53.003480"><ele>579.239929</ele><time>2021-07-17T10:21:06Z</time><extensions><speed>0.000000</speed><course>289.633057</course><hAcc>0.914018</hAcc><vAcc>0.743314</vAcc></extensions></trkpt>
      <trkpt lon="-4.134028" lat="53.003480"><ele>579.239929</ele><time>2021-07-17T10:21:07Z</time><extensions><speed>0.000000</speed><course>274.042023</course><hAcc>0.913871</hAcc><vAcc>0.743613</vAcc></extensions></trkpt>
      <trkpt lon="-4.134028" lat="53.003480"><ele>579.239929</ele><time>2021-07-17T10:21:08Z</time><extensions><speed>0.000000</speed><course>259.398621</course><hAcc>0.916308</hAcc><vAcc>0.747240</vAcc></extensions></trkpt>
      <trkpt lon="-4.134028" lat="53.003480"><ele>579.239929</ele><time>2021-07-17T10:21:08Z</time><extensions><speed>0.000000</speed><course>235.228027</course><hAcc>0.924395</hAcc><vAcc>0.756989</vAcc></extensions></trkpt>
      <trkpt lon="-4.134028" lat="53.003480"><ele>579.239929</ele><time>2021-07-17T10:21:09Z</time><extensions><speed>0.000000</speed><course>233.943741</course><hAcc>0.942940</hAcc><vAcc>0.776765</vAcc></extensions></trkpt>
      <trkpt lon="-4.134028" lat="53.003480"><ele>579.239929</ele><time>2021-07-17T10:21:10Z</time><extensions><speed>0.000000</speed><course>251.986771</course><hAcc>0.978578</hAcc><vAcc>0.811385</vAcc></extensions></trkpt>
      <trkpt lon="-4.134028" lat="53.003480"><ele>579.239929</ele><time>2021-07-17T10:21:11Z</time><extensions><speed>0.000000</speed><course>207.637573</course><hAcc>0.940298</hAcc><vAcc>0.775632</vAcc></extensions></trkpt>
      <trkpt lon="-4.134028" lat="53.003480"><ele>579.239929</ele><time>2021-07-17T10:21:13Z</time><extensions><speed>0.000000</speed><course>199.781464</course><hAcc>0.920987</hAcc><vAcc>0.754812</vAcc></extensions></trkpt>
      <trkpt lon="-4.134028" lat="53.003480"><ele>579.239929</ele><time>2021-07-17T10:21:14Z</time><extensions><speed>0.000000</speed><course>204.898392</course><hAcc>0.913277</hAcc><vAcc>0.744966</vAcc></extensions></trkpt>
      <trkpt lon="-4.134028" lat="53.003480"><ele>579.239929</ele><time>2021-07-17T10:21:14Z</time><extensions><speed>0.000000</speed><course>218.988647</course><hAcc>0.911698</hAcc><vAcc>0.741753</vAcc></extensions></trkpt>
      <trkpt lon="-4.134028" lat="53.003480"><ele>579.239929</ele><time>2021-07-17T10:21:15Z</time><extensions><speed>0.000000</speed><course>240.875916</course><hAcc>0.912766</hAcc><vAcc>0.742049</vAcc></extensions></trkpt>
      <trkpt lon="-4.134028" lat="53.003480"><ele>579.239929</ele><time>2021-07-17T10:21:16Z</time><extensions><speed>0.000000</speed><course>240.875916</course><hAcc>0.914521</hAcc><vAcc>0.743828</vAcc></extensions></trkpt>
      <trkpt lon="-4.134028" lat="53.003480"><ele>579.239929</ele><time>2021-07-17T10:21:17Z</time><extensions><speed>0.000000</speed><course>240.875916</course><hAcc>0.916057</hAcc><vAcc>0.745916</vAcc></extensions></trkpt>
      <trkpt lon="-4.134028" lat="53.003480"><ele>579.239929</ele><time>2021-07-17T10:21:18Z</time><extensions><speed>0.000000</speed><course>240.875916</course><hAcc>0.917084</hAcc><vAcc>0.747713</vAcc></extensions></trkpt>
      <trkpt lon="-4.134028" lat="53.003480"><ele>579.239929</ele><time>2021-07-17T10:21:19Z</time><extensions><speed>0.000000</speed><course>240.875916</course><hAcc>0.917623</hAcc><vAcc>0.748967</vAcc></extensions></trkpt>
      <trkpt lon="-4.134028" lat="53.003480"><ele>579.239929</ele><time>2021-07-17T10:21:20Z</time><extensions><speed>0.000000</speed><course>240.875916</course><hAcc>0.917804</hAcc><vAcc>0.749611</vAcc></extensions></trkpt>
      <trkpt lon="-4.134028" lat="53.003480"><ele>579.239929</ele><time>2021-07-17T10:21:21Z</time><extensions><speed>0.000000</speed><course>269.430084</course><hAcc>0.917742</hAcc><vAcc>0.749651</vAcc></extensions></trkpt>
      <trkpt lon="-4.134028" lat="53.003480"><ele>579.239929</ele><time>2021-07-17T10:21:22Z</time><extensions><speed>0.000000</speed><course>274.056000</course><hAcc>0.917480</hAcc><vAcc>0.749120</vAcc></extensions></trkpt>
      <trkpt lon="-4.134028" lat="53.003480"><ele>579.239929</ele><time>2021-07-17T10:21:23Z</time><extensions><speed>0.000000</speed><course>273.580658</course><hAcc>0.916990</hAcc><vAcc>0.748067</vAcc></extensions></trkpt>
      <trkpt lon="-4.134028" lat="53.003480"><ele>579.239929</ele><time>2021-07-17T10:21:24Z</time><extensions><speed>0.000000</speed><course>266.285736</course><hAcc>0.916217</hAcc><vAcc>0.746606</vAcc></extensions></trkpt>
      <trkpt lon="-4.134028" lat="53.003480"><ele>579.239929</ele><time>2021-07-17T10:21:25Z</time><extensions><speed>0.000000</speed><course>280.416809</course><hAcc>0.915192</hAcc><vAcc>0.745008</vAcc></extensions></trkpt>
      <trkpt lon="-4.134028" lat="53.003480"><ele>579.239929</ele><time>2021-07-17T10:21:26Z</time><extensions><speed>0.000000</speed><course>289.633057</course><hAcc>0.914208</hAcc><vAcc>0.743847</vAcc></extensions></trkpt>
      <trkpt lon="-4.134028" lat="53.003480"><ele>579.239929</ele><time>2021-07-17T10:21:27Z</time><extensions><speed>0.000000</speed><course>274.042023</course><hAcc>0.914092</hAcc><vAcc>0.744201</vAcc></extensions></trkpt>
      <trkpt lon="-4.134028" lat="53.003480"><ele>579.239929</ele><time>2021-07-17T10:21:28Z</time><extensions><speed>0.000000</speed><course>259.398621</course><hAcc>0.916568</hAcc><vAcc>0.747895</vAcc></extensions></trkpt>
      <trkpt lon="-4.134028" lat="53.003480"><ele>579.239929</ele><time>2021-07-17T10:21:29Z</time><extensions><speed>0.000000</speed><course>235.228027</course><hAcc>0.924697</hAcc><vAcc>0.757734</vAcc></extensions></trkpt>
      <trkpt lon="-4.134028" lat="53.003480"><ele>579.239929</ele><time>2021-07-17T10:21:30Z</time><extensions><speed>0.000000</speed><course>233.943741</course><hAcc>0.943278</hAcc><vAcc>0.777616</vAcc></extensions></trkpt>
      <trkpt lon="-4.134028" lat="53.003480"><ele>579.239929</ele><time>2021-07-17T10:21:31Z</time><extensions><speed>0.000000</speed><course>251.986771</course><hAcc>0.978966</hAcc><vAcc>0.812376</vAcc></extensions></trkpt>
      <trkpt lon="-4.134028" lat="53.003480"><ele>579.239929</ele><time>2021-07-17T10:21:32Z</time><extensions><speed>0.000000</speed><course>207.637573</course><hAcc>0.940593</hAcc><vAcc>0.776473</vAcc></extensions></trkpt>
      <trkpt lon="-4.134028" lat="53.003480"><ele>579.239929</ele><time>2021-07-17T10:21:33Z</time><extensions><speed>0.000000</speed><course>199.781464</course><hAcc>0.921287</hAcc><vAcc>0.755657</vAcc></extensions></trkpt>
      <trkpt lon="-4.134028" lat="53.003480"><ele>579.239929</ele><time>2021-07-17T10:21:34Z</time><extensions><speed>0.000000</speed><course>204.898392</course><hAcc>0.913584</hAcc><vAcc>0.745820</vAcc></extensions></trkpt>
      <trkpt lon="-4.134028" lat="53.003480"><ele>579.239929</ele><time>2021-07-17T10:21:35Z</time><extensions><speed>0.000000</speed><course>218.988647</course><hAcc>0.912008</hAcc><vAcc>0.742619</vAcc></extensions></trkpt>
      <trkpt lon="-4.134028" lat="53.003480"><ele>579.239929</ele><time>2021-07-17T10:21:36Z</time><extensions><speed>0.000000</speed><course>240.875916</course><hAcc>0.913071</hAcc><vAcc>0.742925</vAcc></extensions></trkpt>
      <trkpt lon="-4.134028" lat="53.003480"><ele>579.239929</ele><time>2021-07-17T10:21:37Z</time><extensions><speed>0.000000</speed><course>240.875916</course><hAcc>0.914827</hAcc><vAcc>0.744716</vAcc></extensions></trkpt>
      <trkpt lon="-4.134028" lat="53.003480"><ele>579.239929</ele><time>2021-07-17T10:21:38Z</time><extensions><speed>0.000000</speed><course>240.875916</course><hAcc>0.916368</hAcc><vAcc>0.746813</vAcc></extensions></trkpt>
      <trkpt lon="-4.134028" lat="53.003480"><ele>579.239929</ele><time>2021-07-17T10:21:39Z</time><extensions><speed>0.000000</speed><course>240.875916</course><hAcc>0.917404</hAcc><vAcc>0.748616</vAcc></extensions></trkpt>
      <trkpt lon="-4.134028" lat="53.003480"><ele>579.239929</ele><time>2021-07-17T10:21:40Z</time><extensions><speed>0.000000</speed><course>240.875916</course><hAcc>0.917956</hAcc><vAcc>0.749871</vAcc></extensions></trkpt>
      <trkpt lon="-4.134028" lat="53.003480"><ele>579.239929</ele><time>2021-07-17T10:21:42Z</time><extensions><speed>0.000000</speed><course>240.875916</course><hAcc>0.918132</hAcc><vAcc>0.750496</vAcc></extensions></trkpt>
      <trkpt lon="-4.134028" lat="53.003480"><ele>579.239929</ele><time>2021-07-17T10:21:43Z</time><extensions><speed>0.000000</speed><course>269.430084</course><hAcc>0.918046</hAcc><vAcc>0.750499</vAcc></extensions></trkpt>
      <trkpt lon="-4.134028" lat="53.003480"><ele>579.239929</ele><time>2021-07-17T10:21:44Z</time><extensions><speed>0.000000</speed><course>274.056000</course><hAcc>0.917762</hAcc><vAcc>0.749923</vAcc></extensions></trkpt>
      <trkpt lon="-4.134028" lat="53.003480"><ele>579.239929</ele><time>2021-07-17T10:21:45Z</time><extensions><speed>0.000000</speed><course>273.580658</course><hAcc>0.917247</hAcc><vAcc>0.748818</vAcc></extensions></trkpt>
      <trkpt lon="-4.134028" lat="53.003480"><ele>579.239929</ele><time>2021-07-17T10:21:46Z</time><extensions><speed>0.000000</speed><course>266.285736</course><hAcc>0.916447</hAcc><vAcc>0.747296</vAcc></extensions></trkpt>
      <trkpt lon="-4.134028" lat="53.003480"><ele>579.239929</ele><time>2021-07-17T10:21:47Z</time><extensions><speed>0.000000</speed><course>280.416809</course><hAcc>0.915392</hAcc><vAcc>0.745626</vAcc></extensions></trkpt>
      <trkpt lon="-4.134028" lat="53.003480"><ele>579.239929</ele><time>2021-07-17T10:21:48Z</time><extensions><speed>0.000000</speed><course>289.633057</course><hAcc>0.914376</hAcc><vAcc>0.744380</vAcc></extensions></trkpt>
      <trkpt lon="-4.134028" lat="53.003480"><ele>579.239929</ele><time>2021-07-17T10:21:49Z</time><extensions><speed>0.000000</speed><course>274.042023</course><hAcc>0.914227</hAcc><vAcc>0.744635</vAcc></extensions></trkpt>
      <trkpt lon="-4.134028" lat="53.003480"><ele>579.239929</ele><time>2021-07-17T10:21:50Z</time><extensions><speed>0.000000</speed><course>259.398621</course><hAcc>0.916668</hAcc><vAcc>0.748220</vAcc></extensions></trkpt>
      <trkpt lon="-4.134028" lat="53.003480"><ele>579.239929</ele><time>2021-07-17T10:21:51Z</time><extensions><speed>0.000000</speed><course>235.228027</course><hAcc>0.924762</hAcc><vAcc>0.757940</vAcc></extensions></trkpt>
      <trkpt lon="-4.134028" lat="53.003480"><ele>579.239929</ele><time>2021-07-17T10:21:52Z</time><extensions><speed>0.000000</speed><course>233.943741</course><hAcc>0.943310</hAcc><vAcc>0.777703</vAcc></extensions></trkpt>
      <trkpt lon="-4.134028" lat="53.003480"><ele>579.239929</ele><time>2021-07-17T10:21:53Z</time><extensions><speed>0.000000</speed><course>251.986771</course><hAcc>0.978968</hAcc><vAcc>0.812355</vAcc></extensions></trkpt>
      <trkpt lon="-4.134028" lat="53.003480"><ele>579.239929</ele><time>2021-07-17T10:21:54Z</time><extensions><speed>0.000000</speed><course>207.637573</course><hAcc>0.940673</hAcc><vAcc>0.776627</vAcc></extensions></trkpt>
      <trkpt lon="-4.134028" lat="53.003480"><ele>579.239929</ele><time>2021-07-17T10:21:55Z</time><extensions><speed>0.000000</speed><course>199.781464</course><hAcc>0.921348</hAcc><vAcc>0.755764</vAcc></extensions></trkpt>
      <trkpt lon="-4.134028" lat="53.003480"><ele>579.239929</ele><time>2021-07-17T10:21:56Z</time><extensions><speed>0.000000</speed><course>204.898392</course><hAcc>0.913634</hAcc><vAcc>0.745921</vAcc></extensions></trkpt>
      <trkpt lon="-4.134028" lat="53.003480"><ele>579.239929</ele><time>2021-07-17T10:21:57Z</time><extensions><speed>0.000000</speed><course>218.988647</course><hAcc>0.912053</hAcc><vAcc>0.742748</vAcc></extensions></trkpt>
      <trkpt lon="-4.134028" lat="53.003480"><ele>579.239929</ele><time>2021-07-17T10:21:58Z</time><extensions><speed>0.000000</speed><course>240.875916</course><hAcc>0.913116</hAcc><vAcc>0.743102</vAcc></extensions></trkpt>
      <trkpt lon="-4.134028" lat="53.003480"><ele>579.239929</ele><time>2021-07-17T10:21:59Z</time><extensions><speed>0.000000</speed><course>240.875916</course><hAcc>0.914876</hAcc><vAcc>0.744946</vAcc></extensions></trkpt>
      <trkpt lon="-4.134028" lat="53.003480"><ele>579.239929</ele><time>2021-07-17T10:22:00Z</time><extensions><speed>0.000000</speed><course>240.875916</course><hAcc>0.916423</hAcc><vAcc>0.747093</vAcc></extensions></trkpt>
      <trkpt lon="-4.134028" lat="53.003480"><ele>579.239929</ele><time>2021-07-17T10:22:01Z</time><extensions><speed>0.000000</speed><course>240.875916</course><hAcc>0.917463</hAcc><vAcc>0.748935</vAcc></extensions></trkpt>
      <trkpt lon="-4.134028" lat="53.003480"><ele>579.239929</ele><time>2021-07-17T10:22:02Z</time><extensions><speed>0.000000</speed><course>240.875916</course><hAcc>0.918014</hAcc><vAcc>0.750218</vAcc></extensions></trkpt>
      <trkpt lon="-4.134028" lat="53.003480"><ele>579.239929</ele><time>2021-07-17T10:22:03Z</time><extensions><speed>0.000000</speed><course>240.875916</course><hAcc>0.918202</hAcc><vAcc>0.750872</vAcc></extensions></trkpt>
      <trkpt lon="-4.134028" lat="53.003480"><ele>579.239929</ele><time>2021-07-17T10:22:04Z</time><extensions><speed>0.000000</speed><course>269.430084</course><hAcc>0.918141</hAcc><vAcc>0.750906</vAcc></extensions></trkpt>
      <trkpt lon="-4.134028" lat="53.003480"><ele>579.239929</ele><time>2021-07-17T10:22:05Z</time><extensions><speed>0.000000</speed><course>274.056000</course><hAcc>0.917875</hAcc><vAcc>0.750352</vAcc></extensions></trkpt>
      <trkpt lon="-4.134028" lat="53.003480"><ele>579.239929</ele><time>2021-07-17T10:22:06Z</time><extensions><speed>0.000000</speed><course>273.580658</course><hAcc>0.917372</hAcc><vAcc>0.749261</vAcc></extensions></trkpt>
      <trkpt lon="-4.134028" lat="53.003480"><ele>579.239929</ele><time>2021-07-17T10:22:07Z</time><extensions><speed>0.000000</speed><course>266.285736</course><hAcc>0.916580</hAcc><vAcc>0.747746</vAcc></extensions></trkpt>
      <trkpt lon="-4.134028" lat="53.003480"><ele>579.239929</ele><time>2021-07-17T10:22:08Z</time><extensions><speed>0.000000</speed><course>280.416809</course><hAcc>0.915529</hAcc><vAcc>0.746077</vAcc></extensions></trkpt>
      <trkpt lon="-4.134028" lat="53.003480"><ele>579.239929</ele><time>2021-07-17T10:22:09Z</time><extensions><speed>0.000000</speed><course>289.633057</course><hAcc>0.914513</hAcc><vAcc>0.744826</vAcc></extensions></trkpt>
      <trkpt lon="-4.134028" lat="53.003480"><ele>579.239929</ele><time>2021-07-17T10:22:10Z</time><extensions><speed>0.000000</speed><course>274.042023</course><hAcc>0.914358</hAcc><vAcc>0.745069</vAcc></extensions></trkpt>
      <trkpt lon="-4.134028" lat="53.003480"><ele>579.239929</ele><time>2021-07-17T10:22:11Z</time><extensions><speed>0.000000</speed><course>259.398621</course><hAcc>0.916788</hAcc><vAcc>0.748628</vAcc></extensions></trkpt>
      <trkpt lon="-4.134028" lat="53.003480"><ele>579.239929</ele><time>2021-07-17T10:22:12Z</time><extensions><speed>0.000000</speed><course>235.228027</course><hAcc>0.924865</hAcc><vAcc>0.758303</vAcc></extensions></trkpt>
      <trkpt lon="-4.134028" lat="53.003480"><ele>579.239929</ele><time>2021-07-17T10:22:13Z</time><extensions><speed>0.000000</speed><course>233.943741</course><hAcc>0.943388</hAcc><vAcc>0.777996</vAcc></extensions></trkpt>
      <trkpt lon="-4.134028" lat="53.003480"><ele>579.239929</ele><time>2021-07-17T10:22:14Z</time><extensions><speed>0.000000</speed><course>251.986771</course><hAcc>0.979013</hAcc><vAcc>0.812547</vAcc></extensions></trkpt>
      <trkpt lon="-4.134028" lat="53.003480"><ele>579.239929</ele><time>2021-07-17T10:22:15Z</time><extensions><speed>0.000000</speed><course>207.637573</course><hAcc>0.940745</hAcc><vAcc>0.776829</vAcc></extensions></trkpt>
      <trkpt lon="-4.134028" lat="53.003480"><ele>579.239929</ele><time>2021-07-17T10:22:16Z</time><extensions><speed>0.000000</speed><course>199.781464</course><hAcc>0.921363</hAcc><vAcc>0.755783</vAcc></extensions></trkpt>
      <trkpt lon="-4.134028" lat="53.003480"><ele>579.239929</ele><time>2021-07-17T10:22:17Z</time><extensions><speed>0.000000</speed><course>204.898392</course><hAcc>0.913597</hAcc><vAcc>0.745764</vAcc></extensions></trkpt>
      <trkpt lon="-4.134028" lat="53.003480"><ele>579.239929</ele><time>2021-07-17T10:22:18Z</time><extensions><speed>0.000000</speed><course>218.988647</course><hAcc>0.911972</hAcc><vAcc>0.742430</vAcc></extensions></trkpt>
      <trkpt lon="-4.134028" lat="53.003480"><ele>579.239929</ele><time>2021-07-17T10:22:19Z</time><extensions><speed>0.000000</speed><course>240.875916</course><hAcc>0.912998</hAcc><vAcc>0.742649</vAcc></extensions></trkpt>
      <trkpt lon="-4.134028" lat="53.003480"><ele>579.239929</ele><time>2021-07-17T10:22:20Z</time><extensions><speed>0.000000</speed><course>240.875916</course><hAcc>0.914729</hAcc><vAcc>0.744392</vAcc></extensions></trkpt>
      <trkpt lon="-4.134028" lat="53.003480"><ele>579.239929</ele><time>2021-07-17T10:22:21Z</time><extensions><speed>0.000000</speed><course>240.875916</course><hAcc>0.916253</hAcc><vAcc>0.746473</vAcc></extensions></trkpt>
      <trkpt lon="-4.134028" lat="53.003480"><ele>579.239929</ele><time>2021-07-17T10:22:22Z</time><extensions><speed>0.000000</speed><course>240.875916</course><hAcc>0.917278</hAcc><vAcc>0.748284</vAcc></extensions></trkpt>
      <trkpt lon="-4.134028" lat="53.003480"><ele>579.239929</ele><time>2021-07-17T10:22:23Z</time><extensions><speed>0.000000</speed><course>240.875916</course><hAcc>0.917820</hAcc><vAcc>0.749563</vAcc></extensions></trkpt>
      <trkpt lon="-4.134028" lat="53.003480"><ele>579.239929</ele><time>2021-07-17T10:22:24Z</time><extensions><speed>0.000000</speed><course>240.875916</course><hAcc>0.918005</hAcc><vAcc>0.750236</vAcc></extensions></trkpt>
      <trkpt lon="-4.134028" lat="53.003480"><ele>579.239929</ele><time>2021-07-17T10:22:25Z</time><extensions><speed>0.000000</speed><course>269.430084</course><hAcc>0.917947</hAcc><vAcc>0.750301</vAcc></extensions></trkpt>
      <trkpt lon="-4.134028" lat="53.003480"><ele>579.239929</ele><time>2021-07-17T10:22:26Z</time><extensions><speed>0.000000</speed><course>274.056000</course><hAcc>0.917686</hAcc><vAcc>0.749785</vAcc></extensions></trkpt>
      <trkpt lon="-4.134028" lat="53.003480"><ele>579.239929</ele><time>2021-07-17T10:22:27Z</time><extensions><speed>0.000000</speed><course>273.580658</course><hAcc>0.917192</hAcc><vAcc>0.748731</vAcc></extensions></trkpt>
      <trkpt lon="-4.134028" lat="53.003480"><ele>579.239929</ele><time>2021-07-17T10:22:28Z</time><extensions><speed>0.000000</speed><course>266.285736</course><hAcc>0.916410</hAcc><vAcc>0.747249</vAcc></extensions></trkpt>
      <trkpt lon="-4.134028" lat="53.003480"><ele>579.239929</ele><time>2021-07-17T10:22:29Z</time><extensions><speed>0.000000</speed><course>280.416809</course><hAcc>0.915367</hAcc><vAcc>0.745606</vAcc></extensions></trkpt>
      <trkpt lon="-4.134028" lat="53.003480"><ele>579.239929</ele><time>2021-07-17T10:22:30Z</time><extensions><speed>0.000000</speed><course>289.633057</course><hAcc>0.914358</hAcc><vAcc>0.744371</vAcc></extensions></trkpt>
      <trkpt lon="-4.134028" lat="53.003480"><ele>579.239929</ele><time>2021-07-17T10:22:31Z</time><extensions><speed>0.000000</speed><course>274.042023</course><hAcc>0.914207</hAcc><vAcc>0.744621</vAcc></extensions></trkpt>
      <trkpt lon="-4.134028" lat="53.003480"><ele>579.239929</ele><time>2021-07-17T10:22:32Z</time><extensions><speed>0.000000</speed><course>259.398621</course><hAcc>0.916637</hAcc><vAcc>0.748177</vAcc></extensions></trkpt>
      <trkpt lon="-4.134028" lat="53.003480"><ele>579.239929</ele><time>2021-07-17T10:22:33Z</time><extensions><speed>0.000000</speed><course>235.228027</course><hAcc>0.924709</hAcc><vAcc>0.757841</vAcc></extensions></trkpt>
      <trkpt lon="-4.134028" lat="53.003480"><ele>579.239929</ele><time>2021-07-17T10:22:34Z</time><extensions><speed>0.000000</speed><course>233.943741</course><hAcc>0.943223</hAcc><vAcc>0.777517</vAcc></extensions></trkpt>
      <trkpt lon="-4.134028" lat="53.003480"><ele>579.239929</ele><time>2021-07-17T10:22:35Z</time><extensions><speed>0.000000</speed><course>251.986771</course><hAcc>0.978837</hAcc><vAcc>0.812046</vAcc></extensions></trkpt>
      <trkpt lon="-4.134028" lat="53.003480"><ele>579.239929</ele><time>2021-07-17T10:22:36Z</time><extensions><speed>0.000000</speed><course>207.637573</course><hAcc>0.940594</hAcc><vAcc>0.776398</vAcc></extensions></trkpt>
      <trkpt lon="-4.134028" lat="53.003480"><ele>579.239929</ele><time>2021-07-17T10:22:37Z</time><extensions><speed>0.000000</speed><course>199.781464</course><hAcc>0.921238</hAcc><vAcc>0.755420</vAcc></extensions></trkpt>
      <trkpt lon="-4.134028" lat="53.003480"><ele>579.239929</ele><time>2021-07-17T10:22:38Z</time><extensions><speed>0.000000</speed><course>204.898392</course><hAcc>0.913496</hAcc><vAcc>0.745465</vAcc></extensions></trkpt>
      <trkpt lon="-4.134028" lat="53.003480"><ele>579.239929</ele><time>2021-07-17T10:22:39Z</time><extensions><speed>0.000000</speed><course>218.988647</course><hAcc>0.911892</hAcc><vAcc>0.742188</vAcc></extensions></trkpt>
      <trkpt lon="-4.134028" lat="53.003480"><ele>579.239929</ele><time>2021-07-17T10:22:40Z</time><extensions><speed>0.000000</speed><course>240.875916</course><hAcc>0.912937</hAcc><vAcc>0.742459</vAcc></extensions></trkpt>
      <trkpt lon="-4.134028" lat="53.003480"><ele>579.239929</ele><time>2021-07-17T10:22:41Z</time><extensions><speed>0.000000</speed><course>240.875916</course><hAcc>0.914684</hAcc><vAcc>0.744247</vAcc></extensions></trkpt>
      <trkpt lon="-4.134028" lat="53.003480"><ele>579.239929</ele><time>2021-07-17T10:22:42Z</time><extensions><speed>0.000000</speed><course>240.875916</course><hAcc>0.916224</hAcc><vAcc>0.746371</vAcc></extensions></trkpt>
      <trkpt lon="-4.134028" lat="53.003480"><ele>579.239929</ele><time>2021-07-17T10:22:43Z</time><extensions><speed>0.000000</speed><course>240.875916</course><hAcc>0.917263</hAcc><vAcc>0.748222</vAcc></extensions></trkpt>
      <trkpt lon="-4.134028" lat="53.003480"><ele>579.239929</ele><time>2021-07-17T10:22:44Z</time><extensions><speed>0.000000</speed><course>240.875916</course><hAcc>0.917820</hAcc><vAcc>0.749544</vAcc></extensions></trkpt>
      <trkpt lon="-4.134028" lat="53.003480"><ele>579.239929</ele><time>2021-07-17T10:22:45Z</time><extensions><speed>0.000000</speed><course>240.875916</course><hAcc>0.918022</hAcc><vAcc>0.750262</vAcc></extensions></trkpt>
      <trkpt lon="-4.134028" lat="53.003480"><ele>579.239929</ele><time>2021-07-17T10:22:46Z</time><extensions><speed>0.000000</speed><course>269.430084</course><hAcc>0.917981</hAcc><vAcc>0.750382</vAcc></extensions></trkpt>
      <trkpt lon="-4.134028" lat="53.003480"><ele>579.239929</ele><time>2021-07-17T10:22:47Z</time><extensions><speed>0.000000</speed><course>274.056000</course><hAcc>0.917740</hAcc><vAcc>0.749929</vAcc></extensions></trkpt>
      <trkpt lon="-4.134028" lat="53.003480"><ele>579.239929</ele><time>2021-07-17T10:22:48Z</time><extensions><speed>0.000000</speed><course>273.580658</course><hAcc>0.917268</hAcc><vAcc>0.748950</vAcc></extensions></trkpt>
      <trkpt lon="-4.134028" lat="53.003480"><ele>579.239929</ele><time>2021-07-17T10:22:49Z</time><extensions><speed>0.000000</speed><course>266.285736</course><hAcc>0.916511</hAcc><vAcc>0.747554</vAcc></extensions></trkpt>
      <trkpt lon="-4.134028" lat="53.003480"><ele>579.239929</ele><time>2021-07-17T10:22:50Z</time><extensions><speed>0.000000</speed><course>280.416809</course><hAcc>0.915497</hAcc><vAcc>0.746009</vAcc></extensions></trkpt>
      <trkpt lon="-4.134028" lat="53.003480"><ele>579.239929</ele><time>2021-07-17T10:22:51Z</time><extensions><speed>0.000000</speed><course>289.633057</course><hAcc>0.914519</hAcc><vAcc>0.744883</vAcc></extensions></trkpt>
      <trkpt lon="-4.134028" lat="53.003480"><ele>579.239929</ele><time>2021-07-17T10:22:52Z</time><extensions><speed>0.000000</speed><course>274.042023</course><hAcc>0.914405</hAcc><vAcc>0.745251</vAcc></extensions></trkpt>
      <trkpt lon="-4.134028" lat="53.003480"><ele>579.239929</ele><time>2021-07-17T10:22:53Z</time><extensions><speed>0.000000</speed><course>259.398621</course><hAcc>0.916877</hAcc><vAcc>0.748931</vAcc></extensions></trkpt>
      <trkpt lon="-4.134028" lat="53.003480"><ele>579.239929</ele><time>2021-07-17T10:22:54Z</time><extensions><speed>0.000000</speed><course>235.228027</course><hAcc>0.924996</hAcc><vAcc>0.758722</vAcc></extensions></trkpt>
      <trkpt lon="-4.134028" lat="53.003480"><ele>579.239929</ele><time>2021-07-17T10:22:55Z</time><extensions><speed>0.000000</speed><course>233.943741</course><hAcc>0.943559</hAcc><vAcc>0.778518</vAcc></extensions></trkpt>
      <trkpt lon="-4.134028" lat="53.003480"><ele>579.239929</ele><time>2021-07-17T10:22:56Z</time><extensions><speed>0.000000</speed><course>251.986771</course><hAcc>0.979221</hAcc><vAcc>0.813156</vAcc></extensions></trkpt>
      <trkpt lon="-4.134028" lat="53.003480"><ele>579.239929</ele><time>2021-07-17T10:22:57Z</time><extensions><speed>0.000000</speed><course>207.637573</course><hAcc>0.940971</hAcc><vAcc>0.777473</vAcc></extensions></trkpt>
      <trkpt lon="-4.134028" lat="53.003480"><ele>579.239929</ele><time>2021-07-17T10:22:58Z</time><extensions><speed>0.000000</speed><course>199.781464</course><hAcc>0.921555</hAcc><vAcc>0.756343</vAcc></extensions></trkpt>
      <trkpt lon="-4.134028" lat="53.003480"><ele>579.239929</ele><time>2021-07-17T10:22:59Z</time><extensions><speed>0.000000</speed><course>204.898392</course><hAcc>0.913758</hAcc><vAcc>0.746244</vAcc></extensions></trkpt>
      <trkpt lon="-4.134028" lat="53.003480"><ele>579.239929</ele><time>2021-07-17T10:23:00Z</time><extensions><speed>0.000000</speed><course>218.988647</course><hAcc>0.912107</hAcc><vAcc>0.742839</vAcc></extensions></trkpt>
      <trkpt lon="-4.134028" lat="53.003480"><ele>579.239929</ele><time>2021-07-17T10:23:01Z</time><extensions><speed>0.000000</speed><course>240.875916</course><hAcc>0.913112</hAcc><vAcc>0.742998</vAcc></extensions></trkpt>
      <trkpt lon="-4.134028" lat="53.003480"><ele>579.239929</ele><time>2021-07-17T10:23:02Z</time><extensions><speed>0.000000</speed><course>240.875916</course><hAcc>0.914826</hAcc><vAcc>0.744691</vAcc></extensions></trkpt>
      <trkpt lon="-4.134028" lat="53.003480"><ele>579.239929</ele><time>2021-07-17T10:23:03Z</time><extensions><speed>0.000000</speed><course>240.875916</course><hAcc>0.916337</hAcc><vAcc>0.746730</vAcc></extensions></trkpt>
      <trkpt lon="-4.134028" lat="53.003480"><ele>579.239929</ele><time>2021-07-17T10:23:04Z</time><extensions><speed>0.000000</speed><course>240.875916</course><hAcc>0.917351</hAcc><vAcc>0.748506</vAcc></extensions></trkpt>
      <trkpt lon="-4.134028" lat="53.003480"><ele>579.239929</ele><time>2021-07-17T10:23:05Z</time><extensions><speed>0.000000</speed><course>240.875916</course><hAcc>0.917886</hAcc><vAcc>0.749758</vAcc></extensions></trkpt>
      <trkpt lon="-4.134028" lat="53.003480"><ele>579.239929</ele><time>2021-07-17T10:23:06Z</time><extensions><speed>0.000000</speed><course>240.875916</course><hAcc>0.918067</hAcc><vAcc>0.750410</vAcc></extensions></trkpt>
      <trkpt lon="-4.134028" lat="53.003480"><ele>579.239929</ele><time>2021-07-17T10:23:07Z</time><extensions><speed>0.000000</speed><course>269.430084</course><hAcc>0.918006</hAcc><vAcc>0.750464</vAcc></extensions></trkpt>
      <trkpt lon="-4.134028" lat="53.003480"><ele>579.239929</ele><time>2021-07-17T10:23:08Z</time><extensions><speed>0.000000</speed><course>274.056000</course><hAcc>0.917747</hAcc><vAcc>0.749949</vAcc></extensions></trkpt>
      <trkpt lon="-4.134028" lat="53.003480"><ele>579.239929</ele><time>2021-07-17T10:23:09Z</time><extensions><speed>0.000000</speed><course>273.580658</course><hAcc>0.917257</hAcc><vAcc>0.748912</vAcc></extensions></trkpt>
      <trkpt lon="-4.134028" lat="53.003480"><ele>579.239929</ele><time>2021-07-17T10:23:10Z</time><extensions><speed>0.000000</speed><course>266.285736</course><hAcc>0.916484</hAcc><vAcc>0.747468</vAcc></extensions></trkpt>
      <trkpt lon="-4.134028" lat="53.003480"><ele>579.239929</ele><time>2021-07-17T10:23:11Z</time><extensions><speed>0.000000</speed><course>280.416809</course><hAcc>0.915457</hAcc><vAcc>0.745887</vAcc></extensions></trkpt>
      <trkpt lon="-4.134028" lat="53.003480"><ele>579.239929</ele><time>2021-07-17T10:23:12Z</time><extensions><speed>0.000000</speed><course>289.633057</course><hAcc>0.914469</hAcc><vAcc>0.744742</vAcc></extensions></trkpt>
      <trkpt lon="-4.134028" lat="53.003480"><ele>579.239929</ele><time>2021-07-17T10:23:13Z</time><extensions><speed>0.000000</speed><course>274.042023</course><hAcc>0.914348</hAcc><vAcc>0.745113</vAcc></extensions></trkpt>
      <trkpt lon="-4.134028" lat="53.003480"><ele>579.239929</ele><time>2021-07-17T10:23:14Z</time><extensions><speed>0.000000</speed><course>259.398621</course><hAcc>0.916819</hAcc><vAcc>0.748821</vAcc></extensions></trkpt>
      <trkpt lon="-4.134028" lat="53.003480"><ele>579.239929</ele><time>2021-07-17T10:23:14Z</time><extensions><speed>0.000000</speed><course>235.228027</course><hAcc>0.924950</hAcc><vAcc>0.758662</vAcc></extensions></trkpt>
      <trkpt lon="-4.134028" lat="53.003480"><ele>579.239929</ele><time>2021-07-17T10:23:15Z</time><extensions><speed>0.000000</speed><course>233.943741</course><hAcc>0.943549</hAcc><vAcc>0.778541</vAcc></extensions></trkpt>
      <trkpt lon="-4.134028" lat="53.003480"><ele>579.239929</ele><time>2021-07-17T10:23:16Z</time><extensions><speed>0.000000</speed><course>251.986771</course><hAcc>0.979245</hAcc><vAcc>0.813270</vAcc></extensions></trkpt>
      <trkpt lon="-4.134028" lat="53.003480"><ele>579.239929</ele><time>2021-07-17T10:23:17Z</time><extensions><speed>0.000000</speed><course>207.637573</course><hAcc>0.940920</hAcc><vAcc>0.777413</vAcc></extensions></trkpt>
      <trkpt lon="-4.134028" lat="53.003480"><ele>579.239929</ele><time>2021-07-17T10:23:18Z</time><extensions><speed>0.000000</speed><course>199.781464</course><hAcc>0.921528</hAcc><vAcc>0.756360</vAcc></extensions></trkpt>
      <trkpt lon="-4.134028" lat="53.003480"><ele>579.239929</ele><time>2021-07-17T10:23:19Z</time><extensions><speed>0.000000</speed><course>204.898392</course><hAcc>0.913751</hAcc><vAcc>0.746311</vAcc></extensions></trkpt>
      <trkpt lon="-4.134028" lat="53.003480"><ele>579.239929</ele><time>2021-07-17T10:23:20Z</time><extensions><speed>0.000000</speed><course>218.988647</course><hAcc>0.912115</hAcc><vAcc>0.742932</vAcc></extensions></trkpt>
      <trkpt lon="-4.134028" lat="53.003480"><ele>579.239929</ele><time>2021-07-17T10:23:21Z</time><extensions><speed>0.000000</speed><course>240.875916</course><hAcc>0.913130</hAcc><vAcc>0.743097</vAcc></extensions></trkpt>
      <trkpt lon="-4.134028" lat="53.003480"><ele>579.239929</ele><time>2021-07-17T10:23:22Z</time><extensions><speed>0.000000</speed><course>240.875916</course><hAcc>0.914849</hAcc><vAcc>0.744781</vAcc></extensions></trkpt>
      <trkpt lon="-4.134028" lat="53.003480"><ele>579.239929</ele><time>2021-07-17T10:23:23Z</time><extensions><speed>0.000000</speed><course>240.875916</course><hAcc>0.916361</hAcc><vAcc>0.746803</vAcc></extensions></trkpt>
      <trkpt lon="-4.134028" lat="53.003480"><ele>579.239929</ele><time>2021-07-17T10:23:24Z</time><extensions><speed>0.000000</speed><course>240.875916</course><hAcc>0.917374</hAcc><vAcc>0.748559</vAcc></extensions></trkpt>
      <trkpt lon="-4.134028" lat="53.003480"><ele>579.239929</ele><time>2021-07-17T10:23:25Z</time><extensions><speed>0.000000</speed><course>240.875916</course><hAcc>0.917904</hAcc><vAcc>0.749792</vAcc></extensions></trkpt>
      <trkpt lon="-4.134028" lat="53.003480"><ele>579.239929</ele><time>2021-07-17T10:23:26Z</time><extensions><speed>0.000000</speed><course>240.875916</course><hAcc>0.918080</hAcc><vAcc>0.750427</vAcc></extensions></trkpt>
      <trkpt lon="-4.134028" lat="53.003480"><ele>579.239929</ele><time>2021-07-17T10:23:27Z</time><extensions><speed>0.000000</speed><course>269.430084</course><hAcc>0.918012</hAcc><vAcc>0.750466</vAcc></extensions></trkpt>
      <trkpt lon="-4.134028" lat="53.003480"><ele>579.239929</ele><time>2021-07-17T10:23:28Z</time><extensions><speed>0.000000</speed><course>274.056000</course><hAcc>0.917745</hAcc><vAcc>0.749934</vAcc></extensions></trkpt>
      <trkpt lon="-4.134028" lat="53.003480"><ele>579.239929</ele><time>2021-07-17T10:23:29Z</time><extensions><speed>0.000000</speed><course>273.580658</course><hAcc>0.917247</hAcc><vAcc>0.748875</vAcc></extensions></trkpt>
      <trkpt lon="-4.134028" lat="53.003480"><ele>579.239929</ele><time>2021-07-17T10:23:30Z</time><extensions><speed>0.000000</speed><course>266.285736</course><hAcc>0.916463</hAcc><vAcc>0.747397</vAcc></extensions></trkpt>
      <trkpt lon="-4.134028" lat="53.003480"><ele>579.239929</ele><time>2021-07-17T10:23:31Z</time><extensions><speed>0.000000</speed><course>280.416809</course><hAcc>0.915423</hAcc><vAcc>0.745767</vAcc></extensions></trkpt>
      <trkpt lon="-4.134028" lat="53.003480"><ele>579.239929</ele><time>2021-07-17T10:23:32Z</time><extensions><speed>0.000000</speed><course>289.633057</course><hAcc>0.914421</hAcc><vAcc>0.744555</vAcc></extensions></trkpt>
      <trkpt lon="-4.134028" lat="53.003480"><ele>579.239929</ele><time>2021-07-17T10:23:33Z</time><extensions><speed>0.000000</speed><course>274.042023</course><hAcc>0.914282</hAcc><vAcc>0.744839</vAcc></extensions></trkpt>
      <trkpt lon="-4.134028" lat="53.003480"><ele>579.239929</ele><time>2021-07-17T10:23:34Z</time><extensions><speed>0.000000</speed><course>259.398621</course><hAcc>0.916729</hAcc><vAcc>0.748441</vAcc></extensions></trkpt>
      <trkpt lon="-4.134028" lat="53.003480"><ele>579.239929</ele><time>2021-07-17T10:23:35Z</time><extensions><speed>0.000000</speed><course>235.228027</course><hAcc>0.924825</hAcc><vAcc>0.758166</vAcc></extensions></trkpt>
      <trkpt lon="-4.134028" lat="53.003480"><ele>579.239929</ele><time>2021-07-17T10:23:36Z</time><extensions><speed>0.000000</speed><course>233.943741</course><hAcc>0.943370</hAcc><vAcc>0.777916</vAcc></extensions></trkpt>
      <trkpt lon="-4.134028" lat="53.003480"><ele>579.239929</ele><time>2021-07-17T10:23:37Z</time><extensions><speed>0.000000</speed><course>251.986771</course><hAcc>0.979017</hAcc><vAcc>0.812533</vAcc></extensions></trkpt>
      <trkpt lon="-4.134028" lat="53.003480"><ele>579.239929</ele><time>2021-07-17T10:23:38Z</time><extensions><speed>0.000000</speed><course>207.637573</course><hAcc>0.940751</hAcc><vAcc>0.776837</vAcc></extensions></trkpt>
      <trkpt lon="-4.134028" lat="53.003480"><ele>579.239929</ele><time>2021-07-17T10:23:39Z</time><extensions><speed>0.000000</speed><course>199.781464</course><hAcc>0.921401</hAcc><vAcc>0.755891</vAcc></extensions></trkpt>
      <trkpt lon="-4.134028" lat="53.003480"><ele>579.239929</ele><time>2021-07-17T10:23:40Z</time><extensions><speed>0.000000</speed><course>204.898392</course><hAcc>0.913667</hAcc><vAcc>0.745971</vAcc></extensions></trkpt>
      <trkpt lon="-4.134028" lat="53.003480"><ele>579.239929</ele><time>2021-07-17T10:23:41Z</time><extensions><speed>0.000000</speed><course>218.988647</course><hAcc>0.912072</hAcc><vAcc>0.742731</vAcc></extensions></trkpt>
      <trkpt lon="-4.134028" lat="53.003480"><ele>579.239929</ele><time>2021-07-17T10:23:42Z</time><extensions><speed>0.000000</speed><course>240.875916</course><hAcc>0.913127</hAcc><vAcc>0.743038</vAcc></extensions></trkpt>
      <trkpt lon="-4.134028" lat="53.003480"><ele>579.239929</ele><time>2021-07-17T10:23:43Z</time><extensions><speed>0.000000</speed><course>240.875916</course><hAcc>0.914883</hAcc><vAcc>0.744858</vAcc></extensions></trkpt>
      <trkpt lon="-4.134028" lat="53.003480"><ele>579.239929</ele><time>2021-07-17T10:23:44Z</time><extensions><speed>0.000000</speed><course>240.875916</course><hAcc>0.916432</hAcc><vAcc>0.747005</vAcc></extensions></trkpt>
      <trkpt lon="-4.134028" lat="53.003480"><ele>579.239929</ele><time>2021-07-17T10:23:45Z</time><extensions><speed>0.000000</speed><course>240.875916</course><hAcc>0.917480</hAcc><vAcc>0.748869</vAcc></extensions></trkpt>
      <trkpt lon="-4.134028" lat="53.003480"><ele>579.239929</ele><time>2021-07-17T10:23:46Z</time><extensions><speed>0.000000</speed><course>240.875916</course><hAcc>0.918044</hAcc><vAcc>0.750187</vAcc></extensions></trkpt>
      <trkpt lon="-4.134028" lat="53.003480"><ele>579.239929</ele><time>2021-07-17T10:23:47Z</time><extensions><speed>0.000000</speed><course>240.875916</course><hAcc>0.918253</hAcc><vAcc>0.750887</vAcc></extensions></trkpt>
      <trkpt lon="-4.134028" lat="53.003480"><ele>579.239929</ele><time>2021-07-17T10:23:49Z</time><extensions><speed>0.000000</speed><course>269.430084</course><hAcc>0.918200</hAcc><vAcc>0.750959</vAcc></extensions></trkpt>
      <trkpt lon="-4.134028" lat="53.003480"><ele>579.239929</ele><time>2021-07-17T10:23:50Z</time><extensions><speed>0.000000</speed><course>274.056000</course><hAcc>0.917929</hAcc><vAcc>0.750435</vAcc></extensions></trkpt>
      <trkpt lon="-4.134028" lat="53.003480"><ele>579.239929</ele><time>2021-07-17T10:23:51Z</time><extensions><speed>0.000000</speed><course>273.580658</course><hAcc>0.917428</hAcc><vAcc>0.749379</vAcc></extensions></trkpt>
      <trkpt lon="-4.134028" lat="53.003480"><ele>579.239929</ele><time>2021-07-17T10:23:52Z</time><extensions><speed>0.000000</speed><course>266.285736</course><hAcc>0.916641</hAcc><vAcc>0.747902</vAcc></extensions></trkpt>
      <trkpt lon="-4.134028" lat="53.003480"><ele>579.239929</ele><time>2021-07-17T10:23:53Z</time><extensions><speed>0.000000</speed><course>280.416809</course><hAcc>0.915600</hAcc><vAcc>0.746275</vAcc></extensions></trkpt>
      <trkpt lon="-4.134028" lat="53.003480"><ele>579.239929</ele><time>2021-07-17T10:23:54Z</time><extensions><speed>0.000000</speed><course>289.633057</course><hAcc>0.914599</hAcc><vAcc>0.745071</vAcc></extensions></trkpt>
      <trkpt lon="-4.134028" lat="53.003480"><ele>579.239929</ele><time>2021-07-17T10:23:55Z</time><extensions><speed>0.000000</speed><course>274.042023</course><hAcc>0.914465</hAcc><vAcc>0.745372</vAcc></extensions></trkpt>
      <trkpt lon="-4.134028" lat="53.003480"><ele>579.239929</ele><time>2021-07-17T10:23:56Z</time><extensions><speed>0.000000</speed><course>259.398621</course><hAcc>0.916925</hAcc><vAcc>0.749004</vAcc></extensions></trkpt>
      <trkpt lon="-4.134028" lat="53.003480"><ele>579.239929</ele><time>2021-07-17T10:23:57Z</time><extensions><speed>0.000000</speed><course>235.228027</course><hAcc>0.925039</hAcc><vAcc>0.758772</vAcc></extensions></trkpt>
      <trkpt lon="-4.134028" lat="53.003480"><ele>579.239929</ele><time>2021-07-17T10:23:58Z</time><extensions><speed>0.000000</speed><course>233.943741</course><hAcc>0.943609</hAcc><vAcc>0.778579</vAcc></extensions></trkpt>
      <trkpt lon="-4.134028" lat="53.003480"><ele>579.239929</ele><time>2021-07-17T10:23:59Z</time><extensions><speed>0.000000</speed><course>251.986771</course><hAcc>0.979285</hAcc><vAcc>0.813268</vAcc></extensions></trkpt>
      <trkpt lon="-4.134028" lat="53.003480"><ele>579.239929</ele><time>2021-07-17T10:24:00Z</time><extensions><speed>0.000000</speed><course>207.637573</course><hAcc>0.940947</hAcc><vAcc>0.777412</vAcc></extensions></trkpt>
      <trkpt lon="-4.134028" lat="53.003480"><ele>579.239929</ele><time>2021-07-17T10:24:01Z</time><extensions><speed>0.000000</speed><course>199.781464</course><hAcc>0.921551</hAcc><vAcc>0.756357</vAcc></extensions></trkpt>
      <trkpt lon="-4.134028" lat="53.003480"><ele>579.239929</ele><time>2021-07-17T10:24:02Z</time><extensions><speed>0.000000</speed><course>204.898392</course><hAcc>0.913773</hAcc><vAcc>0.746328</vAcc></extensions></trkpt>
      <trkpt lon="-4.134028" lat="53.003480"><ele>579.239929</ele><time>2021-07-17T10:24:03Z</time><extensions><speed>0.000000</speed><course>218.988647</course><hAcc>0.912137</hAcc><vAcc>0.742981</vAcc></extensions></trkpt>
      <trkpt lon="-4.134028" lat="53.003480"><ele>579.239929</ele><time>2021-07-17T10:24:04Z</time><extensions><speed>0.000000</speed><course>240.875916</course><hAcc>0.913156</hAcc><vAcc>0.743183</vAcc></extensions></trkpt>
      <trkpt lon="-4.134028" lat="53.003480"><ele>579.239929</ele><time>2021-07-17T10:24:05Z</time><extensions><speed>0.000000</speed><course>240.875916</course><hAcc>0.914880</hAcc><vAcc>0.744899</vAcc></extensions></trkpt>
      <trkpt lon="-4.134028" lat="53.003480"><ele>579.239929</ele><time>2021-07-17T10:24:06Z</time><extensions><speed>0.000000</speed><course>240.875916</course><hAcc>0.916399</hAcc><vAcc>0.746947</vAcc></extensions></trkpt>
      <trkpt lon="-4.134028" lat="53.003480"><ele>579.239929</ele><time>2021-07-17T10:24:07Z</time><extensions><speed>0.000000</speed><course>240.875916</course><hAcc>0.917419</hAcc><vAcc>0.748722</vAcc></extensions></trkpt>
      <trkpt lon="-4.134028" lat="53.003480"><ele>579.239929</ele><time>2021-07-17T10:24:08Z</time><extensions><speed>0.000000</speed><course>240.875916</course><hAcc>0.917957</hAcc><vAcc>0.749969</vAcc></extensions></trkpt>
      <trkpt lon="-4.134028" lat="53.003480"><ele>579.239929</ele><time>2021-07-17T10:24:09Z</time><extensions><speed>0.000000</speed><course>240.875916</course><hAcc>0.918138</hAcc><vAcc>0.750617</vAcc></extensions></trkpt>
      <trkpt lon="-4.134028" lat="53.003480"><ele>579.239929</ele><time>2021-07-17T10:24:10Z</time><extensions><speed>0.000000</speed><course>269.430084</course><hAcc>0.918076</hAcc><vAcc>0.750667</vAcc></extensions></trkpt>
      <trkpt lon="-4.134028" lat="53.003480"><ele>579.239929</ele><time>2021-07-17T10:24:11Z</time><extensions><speed>0.000000</speed><course>274.056000</course><hAcc>0.917814</hAcc><vAcc>0.750146</vAcc></extensions></trkpt>
      <trkpt lon="-4.134028" lat="53.003480"><ele>579.239929</ele><time>2021-07-17T10:24:12Z</time><extensions><speed>0.000000</speed><course>273.580658</course><hAcc>0.917320</hAcc><vAcc>0.749098</vAcc></extensions></trkpt>
      <trkpt lon="-4.134028" lat="53.003480"><ele>579.239929</ele><time>2021-07-17T10:24:13Z</time><extensions><speed>0.000000</speed><course>266.285736</course><hAcc>0.916540</hAcc><vAcc>0.747632</vAcc></extensions></trkpt>
      <trkpt lon="-4.134028" lat="53.003480"><ele>579.239929</ele><time>2021-07-17T10:24:14Z</time><extensions><speed>0.000000</speed><course>280.416809</course><hAcc>0.915505</hAcc><vAcc>0.746017</vAcc></extensions></trkpt>
      <trkpt lon="-4.134028" lat="53.003480"><ele>579.239929</ele><time>2021-07-17T10:24:15Z</time><extensions><speed>0.000000</speed><course>289.633057</course><hAcc>0.914507</hAcc><vAcc>0.744822</vAcc></extensions></trkpt>
      <trkpt lon="-4.134028" lat="53.003480"><ele>579.239929</ele><time>2021-07-17T10:24:16Z</time><extensions><speed>0.000000</speed><course>274.042023</course><hAcc>0.914373</hAcc><vAcc>0.745124</vAcc></extensions></trkpt>
      <trkpt lon="-4.134028" lat="53.003480"><ele>579.239929</ele><time>2021-07-17T10:24:17Z</time><extensions><speed>0.000000</speed><course>259.398621</course><hAcc>0.916827</hAcc><vAcc>0.748747</vAcc></extensions></trkpt>
      <trkpt lon="-4.134028" lat="53.003480"><ele>579.239929</ele><time>2021-07-17T10:24:18Z</time><extensions><speed>0.000000</speed><course>235.228027</course><hAcc>0.924931</hAcc><vAcc>0.758492</vAcc></extensions></trkpt>
      <trkpt lon="-4.134028" lat="53.003480"><ele>579.239929</ele><time>2021-07-17T10:24:19Z</time><extensions><speed>0.000000</speed><course>233.943741</course><hAcc>0.943482</hAcc><vAcc>0.778258</vAcc></extensions></trkpt>
      <trkpt lon="-4.134028" lat="53.003480"><ele>579.239929</ele><time>2021-07-17T10:24:20Z</time><extensions><speed>0.000000</speed><course>251.986771</course><hAcc>0.979135</hAcc><vAcc>0.812883</vAcc></extensions></trkpt>
      <trkpt lon="-4.134028" lat="53.003480"><ele>579.239929</ele><time>2021-07-17T10:24:21Z</time><extensions><speed>0.000000</speed><course>207.637573</course><hAcc>0.940802</hAcc><vAcc>0.777025</vAcc></extensions></trkpt>
      <trkpt lon="-4.134028" lat="53.003480"><ele>579.239929</ele><time>2021-07-17T10:24:22Z</time><extensions><speed>0.000000</speed><course>199.781464</course><hAcc>0.921431</hAcc><vAcc>0.756021</vAcc></extensions></trkpt>
      <trkpt lon="-4.134028" lat="53.003480"><ele>579.239929</ele><time>2021-07-17T10:24:23Z</time><extensions><speed>0.000000</speed><course>204.898392</course><hAcc>0.913673</hAcc><vAcc>0.746028</vAcc></extensions></trkpt>
      <trkpt lon="-4.134028" lat="53.003480"><ele>579.239929</ele><time>2021-07-17T10:24:24Z</time><extensions><speed>0.000000</speed><course>218.988647</course><hAcc>0.912053</hAcc><vAcc>0.742709</vAcc></extensions></trkpt>
      <trkpt lon="-4.134028" lat="53.003480"><ele>579.239929</ele><time>2021-07-17T10:24:25Z</time><extensions><speed>0.000000</speed><course>240.875916</course><hAcc>0.913082</hAcc><vAcc>0.742933</vAcc></extensions></trkpt>
      <trkpt lon="-4.134028" lat="53.003480"><ele>579.239929</ele><time>2021-07-17T10:24:26Z</time><extensions><speed>0.000000</speed><course>240.875916</course><hAcc>0.914814</hAcc><vAcc>0.744673</vAcc></extensions></trkpt>
      <trkpt lon="-4.134028" lat="53.003480"><ele>579.239929</ele><time>2021-07-17T10:24:27Z</time><extensions><speed>0.000000</speed><course>240.875916</course><hAcc>0.916338</hAcc><vAcc>0.746746</vAcc></extensions></trkpt>
      <trkpt lon="-4.134028" lat="53.003480"><ele>579.239929</ele><time>2021-07-17T10:24:28Z</time><extensions><speed>0.000000</speed><course>240.875916</course><hAcc>0.917362</hAcc><vAcc>0.748545</vAcc></extensions></trkpt>
      <trkpt lon="-4.134028" lat="53.003480"><ele>579.239929</ele><time>2021-07-17T10:24:29Z</time><extensions><speed>0.000000</speed><course>240.875916</course><hAcc>0.917904</hAcc><vAcc>0.749812</vAcc></extensions></trkpt>
      <trkpt lon="-4.134028" lat="53.003480"><ele>579.239929</ele><time>2021-07-17T10:24:30Z</time><extensions><speed>0.000000</speed><course>240.875916</course><hAcc>0.918090</hAcc><vAcc>0.750474</vAcc></extensions></trkpt>
      <trkpt lon="-4.134028" lat="53.003480"><ele>579.239929</ele><time>2021-07-17T10:24:31Z</time><extensions><speed>0.000000</speed><course>269.430084</course><hAcc>0.918033</hAcc><vAcc>0.750535</vAcc></extensions></trkpt>
      <trkpt lon="-4.134028" lat="53.003480"><ele>579.239929</ele><time>2021-07-17T10:24:32Z</time><extensions><speed>0.000000</speed><course>274.056000</course><hAcc>0.917777</hAcc><vAcc>0.750025</vAcc></extensions></trkpt>
      <trkpt lon="-4.134028" lat="53.003480"><ele>579.239929</ele><time>2021-07-17T10:24:33Z</time><extensions><speed>0.000000</speed><course>273.580658</course><hAcc>0.917289</hAcc><vAcc>0.748994</vAcc></extensions></trkpt>
      <trkpt lon="-4.134028" lat="53.003480"><ele>579.239929</ele><time>2021-07-17T10:24:34Z</time><extensions><speed>0.000000</speed><course>266.285736</course><hAcc>0.916516</hAcc><vAcc>0.747550</vAcc></extensions></trkpt>
      <trkpt lon="-4.134028" lat="53.003480"><ele>579.239929</ele><time>2021-07-17T10:24:35Z</time><extensions><speed>0.000000</speed><course>280.416809</course><hAcc>0.915486</hAcc><vAcc>0.745961</vAcc></extensions></trkpt>
      <trkpt lon="-4.134028" lat="53.003480"><ele>579.239929</ele><time>2021-07-17T10:24:36Z</time><extensions><speed>0.000000</speed><course>289.633057</course><hAcc>0.914495</hAcc><vAcc>0.744794</vAcc></extensions></trkpt>
      <trkpt lon="-4.134028" lat="53.003480"><ele>579.239929</ele><time>2021-07-17T10:24:37Z</time><extensions><speed>0.000000</speed><course>274.042023</course><hAcc>0.914368</hAcc><vAcc>0.745122</vAcc></extensions></trkpt>
      <trkpt lon="-4.134028" lat="53.003480"><ele>579.239929</ele><time>2021-07-17T10:24:38Z</time><extensions><speed>0.000000</speed><course>259.398621</course><hAcc>0.916829</hAcc><vAcc>0.748766</vAcc></extensions></trkpt>
      <trkpt lon="-4.134028" lat="53.003480"><ele>579.239929</ele><time>2021-07-17T10:24:39Z</time><extensions><speed>0.000000</speed><course>235.228027</course><hAcc>0.924938</hAcc><vAcc>0.758528</vAcc></extensions></trkpt>
      <trkpt lon="-4.134028" lat="53.003480"><ele>579.239929</ele><time>2021-07-17T10:24:40Z</time><extensions><speed>0.000000</speed><course>233.943741</course><hAcc>0.943496</hAcc><vAcc>0.778306</vAcc></extensions></trkpt>
      <trkpt lon="-4.134028" lat="53.003480"><ele>579.239929</ele><time>2021-07-17T10:24:41Z</time><extensions><speed>0.000000</speed><course>251.986771</course><hAcc>0.979154</hAcc><vAcc>0.812941</vAcc></extensions></trkpt>
      <trkpt lon="-4.134028" lat="53.003480"><ele>579.239929</ele><time>2021-07-17T10:24:42Z</time><extensions><speed>0.000000</speed><course>207.637573</course><hAcc>0.940856</hAcc><vAcc>0.777153</vAcc></extensions></trkpt>
      <trkpt lon="-4.134028" lat="53.003480"><ele>579.239929</ele><time>2021-07-17T10:24:43Z</time><extensions><speed>0.000000</speed><course>199.781464</course><hAcc>0.921446</hAcc><vAcc>0.756046</vAcc></extensions></trkpt>
      <trkpt lon="-4.134028" lat="53.003480"><ele>579.239929</ele><time>2021-07-17T10:24:44Z</time><extensions><speed>0.000000</speed><course>204.898392</course><hAcc>0.913652</hAcc><vAcc>0.745959</vAcc></extensions></trkpt>
      <trkpt lon="-4.134028" lat="53.003480"><ele>579.239929</ele><time>2021-07-17T10:24:45Z</time><extensions><speed>0.000000</speed><course>218.988647</course><hAcc>0.912000</hAcc><vAcc>0.742553</vAcc></extensions></trkpt>
      <trkpt lon="-4.134028" lat="53.003480"><ele>579.239929</ele><time>2021-07-17T10:24:46Z</time><extensions><speed>0.000000</speed><course>240.875916</course><hAcc>0.913000</hAcc><vAcc>0.742695</vAcc></extensions></trkpt>
      <trkpt lon="-4.134028" lat="53.003480"><ele>579.239929</ele><time>2021-07-17T10:24:47Z</time><extensions><speed>0.000000</speed><course>240.875916</course><hAcc>0.914706</hAcc><vAcc>0.744356</vAcc></extensions></trkpt>
      <trkpt lon="-4.134028" lat="53.003480"><ele>579.239929</ele><time>2021-07-17T10:24:48Z</time><extensions><speed>0.000000</speed><course>240.875916</course><hAcc>0.916208</hAcc><vAcc>0.746354</vAcc></extensions></trkpt>
      <trkpt lon="-4.134028" lat="53.003480"><ele>579.239929</ele><time>2021-07-17T10:24:49Z</time><extensions><speed>0.000000</speed><course>240.875916</course><hAcc>0.917213</hAcc><vAcc>0.748082</vAcc></extensions></trkpt>
      <trkpt lon="-4.134028" lat="53.003480"><ele>579.239929</ele><time>2021-07-17T10:24:50Z</time><extensions><speed>0.000000</speed><course>240.875916</course><hAcc>0.917739</hAcc><vAcc>0.749288</vAcc></extensions></trkpt>
      <trkpt lon="-4.134028" lat="53.003480"><ele>579.239929</ele><time>2021-07-17T10:24:51Z</time><extensions><speed>0.000000</speed><course>240.875916</course><hAcc>0.917912</hAcc><vAcc>0.749899</vAcc></extensions></trkpt>
      <trkpt lon="-4.134028" lat="53.003480"><ele>579.239929</ele><time>2021-07-17T10:24:52Z</time><extensions><speed>0.000000</speed><course>269.430084</course><hAcc>0.917846</hAcc><vAcc>0.749924</vAcc></extensions></trkpt>
      <trkpt lon="-4.134028" lat="53.003480"><ele>579.239929</ele><time>2021-07-17T10:24:53Z</time><extensions><speed>0.000000</speed><course>274.056000</course><hAcc>0.917583</hAcc><vAcc>0.749391</vAcc></extensions></trkpt>
      <trkpt lon="-4.134028" lat="53.003480"><ele>579.239929</ele><time>2021-07-17T10:24:54Z</time><extensions><speed>0.000000</speed><course>273.580658</course><hAcc>0.917092</hAcc><vAcc>0.748347</vAcc></extensions></trkpt>
      <trkpt lon="-4.134028" lat="53.003480"><ele>579.239929</ele><time>2021-07-17T10:24:55Z</time><extensions><speed>0.000000</speed><course>266.285736</course><hAcc>0.916318</hAcc><vAcc>0.746901</vAcc></extensions></trkpt>
      <trkpt lon="-4.134028" lat="53.003480"><ele>579.239929</ele><time>2021-07-17T10:24:56Z</time><extensions><speed>0.000000</speed><course>280.416809</course><hAcc>0.915289</hAcc><vAcc>0.745317</vAcc></extensions></trkpt>
      <trkpt lon="-4.134028" lat="53.003480"><ele>579.239929</ele><time>2021-07-17T10:24:57Z</time><extensions><speed>0.000000</speed><course>289.633057</course><hAcc>0.914297</hAcc><vAcc>0.744161</vAcc></extensions></trkpt>
      <trkpt lon="-4.134028" lat="53.003480"><ele>579.239929</ele><time>2021-07-17T10:24:58Z</time><extensions><speed>0.000000</speed><course>274.042023</course><hAcc>0.914168</hAcc><vAcc>0.744501</vAcc></extensions></trkpt>
      <trkpt lon="-4.134028" lat="53.003480"><ele>579.239929</ele><time>2021-07-17T10:24:59Z</time><extensions><speed>0.000000</speed><course>259.398621</course><hAcc>0.916623</hAcc><vAcc>0.748152</vAcc></extensions></trkpt>
      <trkpt lon="-4.134028" lat="53.003480"><ele>579.239929</ele><time>2021-07-17T10:25:00Z</time><extensions><speed>0.000000</speed><course>235.228027</course><hAcc>0.924724</hAcc><vAcc>0.757909</vAcc></extensions></trkpt>
      <trkpt lon="-4.134028" lat="53.003480"><ele>579.239929</ele><time>2021-07-17T10:25:01Z</time><extensions><speed>0.000000</speed><course>233.943741</course><hAcc>0.943267</hAcc><vAcc>0.777669</vAcc></extensions></trkpt>
      <trkpt lon="-4.134028" lat="53.003480"><ele>579.239929</ele><time>2021-07-17T10:25:02Z</time><extensions><speed>0.000000</speed><course>251.986771</course><hAcc>0.978910</hAcc><vAcc>0.812271</vAcc></extensions></trkpt>
      <trkpt lon="-4.134028" lat="53.003480"><ele>579.239929</ele><time>2021-07-17T10:25:03Z</time><extensions><speed>0.000000</speed><course>207.637573</course><hAcc>0.940692</hAcc><vAcc>0.776679</vAcc></extensions></trkpt>
      <trkpt lon="-4.134028" lat="53.003480"><ele>579.239929</ele><time>2021-07-17T10:25:04Z</time><extensions><speed>0.000000</speed><course>199.781464</course><hAcc>0.921310</hAcc><vAcc>0.755636</vAcc></extensions></trkpt>
      <trkpt lon="-4.134028" lat="53.003480"><ele>579.239929</ele><time>2021-07-17T10:25:05Z</time><extensions><speed>0.000000</speed><course>204.898392</course><hAcc>0.913540</hAcc><vAcc>0.745612</vAcc></extensions></trkpt>
      <trkpt lon="-4.134028" lat="53.003480"><ele>579.239929</ele><time>2021-07-17T10:25:06Z</time><extensions><speed>0.000000</speed><course>218.988647</course><hAcc>0.911908</hAcc><vAcc>0.742264</vAcc></extensions></trkpt>
      <trkpt lon="-4.134028" lat="53.003480"><ele>579.239929</ele><time>2021-07-17T10:25:07Z</time><extensions><speed>0.000000</speed><course>240.875916</course><hAcc>0.912925</hAcc><vAcc>0.742460</vAcc></extensions></trkpt>
      <trkpt lon="-4.134028" lat="53.003480"><ele>579.239929</ele><time>2021-07-17T10:25:08Z</time><extensions><speed>0.000000</speed><course>240.875916</course><hAcc>0.914644</hAcc><vAcc>0.744168</vAcc></extensions></trkpt>
      <trkpt lon="-4.134028" lat="53.003480"><ele>579.239929</ele><time>2021-07-17T10:25:09Z</time><extensions><speed>0.000000</speed><course>240.875916</course><hAcc>0.916154</hAcc><vAcc>0.746203</vAcc></extensions></trkpt>
      <trkpt lon="-4.134028" lat="53.003480"><ele>579.239929</ele><time>2021-07-17T10:25:10Z</time><extensions><speed>0.000000</speed><course>240.875916</course><hAcc>0.917163</hAcc><vAcc>0.747958</vAcc></extensions></trkpt>
      <trkpt lon="-4.134028" lat="53.003480"><ele>579.239929</ele><time>2021-07-17T10:25:11Z</time><extensions><speed>0.000000</speed><course>240.875916</course><hAcc>0.917691</hAcc><vAcc>0.749178</vAcc></extensions></trkpt>
      <trkpt lon="-4.134028" lat="53.003480"><ele>579.239929</ele><time>2021-07-17T10:25:12Z</time><extensions><speed>0.000000</speed><course>240.875916</course><hAcc>0.917863</hAcc><vAcc>0.749790</vAcc></extensions></trkpt>
      <trkpt lon="-4.134028" lat="53.003480"><ele>579.239929</ele><time>2021-07-17T10:25:13Z</time><extensions><speed>0.000000</speed><course>269.430084</course><hAcc>0.917794</hAcc><vAcc>0.749802</vAcc></extensions></trkpt>
      <trkpt lon="-4.134028" lat="53.003480"><ele>579.239929</ele><time>2021-07-17T10:25:14Z</time><extensions><speed>0.000000</speed><course>274.056000</course><hAcc>0.917527</hAcc><vAcc>0.749244</vAcc></extensions></trkpt>
      <trkpt lon="-4.134028" lat="53.003480"><ele>579.239929</ele><time>2021-07-17T10:25:15Z</time><extensions><speed>0.000000</speed><course>273.580658</course><hAcc>0.917031</hAcc><vAcc>0.748168</vAcc></extensions></trkpt>
      <trkpt lon="-4.134028" lat="53.003480"><ele>579.239929</ele><time>2021-07-17T10:25:16Z</time><extensions><speed>0.000000</speed><course>266.285736</course><hAcc>0.916251</hAcc><vAcc>0.746686</vAcc></extensions></trkpt>
      <trkpt lon="-4.134028" lat="53.003480"><ele>579.239929</ele><time>2021-07-17T10:25:17Z</time><extensions><speed>0.000000</speed><course>280.416809</course><hAcc>0.915218</hAcc><vAcc>0.745068</vAcc></extensions></trkpt>
      <trkpt lon="-4.134028" lat="53.003480"><ele>579.239929</ele><time>2021-07-17T10:25:18Z</time><extensions><speed>0.000000</speed><course>289.633057</course><hAcc>0.914223</hAcc><vAcc>0.743884</vAcc></extensions></trkpt>
      <trkpt lon="-4.134028" lat="53.003480"><ele>579.239929</ele><time>2021-07-17T10:25:19Z</time><extensions><speed>0.000000</speed><course>274.042023</course><hAcc>0.914093</hAcc><vAcc>0.744209</vAcc></extensions></trkpt>
      <trkpt lon="-4.134028" lat="53.003480"><ele>579.239929</ele><time>2021-07-17T10:25:20Z</time><extensions><speed>0.000000</speed><course>259.398621</course><hAcc>0.916550</hAcc><vAcc>0.747864</vAcc></extensions></trkpt>
      <trkpt lon="-4.134028" lat="53.003480"><ele>579.239929</ele><time>2021-07-17T10:25:21Z</time><extensions><speed>0.000000</speed><course>235.228027</course><hAcc>0.924656</hAcc><vAcc>0.757647</vAcc></extensions></trkpt>
      <trkpt lon="-4.134028" lat="53.003480"><ele>579.239929</ele><time>2021-07-17T10:25:22Z</time><extensions><speed>0.000000</speed><course>233.943741</course><hAcc>0.943208</hAcc><vAcc>0.777454</vAcc></extensions></trkpt>
      <trkpt lon="-4.134028" lat="53.003480"><ele>579.239929</ele><time>2021-07-17T10:25:23Z</time><extensions><speed>0.000000</speed><course>251.986771</course><hAcc>0.978863</hAcc><vAcc>0.812120</vAcc></extensions></trkpt>
      <trkpt lon="-4.134028" lat="53.003480"><ele>579.239929</ele><time>2021-07-17T10:25:24Z</time><extensions><speed>0.000000</speed><course>207.637573</course><hAcc>0.940547</hAcc><vAcc>0.776348</vAcc></extensions></trkpt>
      <trkpt lon="-4.134028" lat="53.003480"><ele>579.239929</ele><time>2021-07-17T10:25:25Z</time><extensions><speed>0.000000</speed><course>199.781464</course><hAcc>0.921221</hAcc><vAcc>0.755470</vAcc></extensions></trkpt>
      <trkpt lon="-4.134028" lat="53.003480"><ele>579.239929</ele><time>2021-07-17T10:25:26Z</time><extensions><speed>0.000000</speed><course>204.898392</course><hAcc>0.913498</hAcc><vAcc>0.745577</vAcc></extensions></trkpt>
      <trkpt lon="-4.134028" lat="53.003480"><ele>579.239929</ele><time>2021-07-17T10:25:27Z</time><extensions><speed>0.000000</speed><course>218.988647</course><hAcc>0.911901</hAcc><vAcc>0.742329</vAcc></extensions></trkpt>
      <trkpt lon="-4.134028" lat="53.003480"><ele>579.239929</ele><time>2021-07-17T10:25:28Z</time><extensions><speed>0.000000</speed><course>240.875916</course><hAcc>0.912942</hAcc><vAcc>0.742598</vAcc></extensions></trkpt>
      <trkpt lon="-4.134028" lat="53.003480"><ele>579.239929</ele><time>2021-07-17T10:25:29Z</time><extensions><speed>0.000000</speed><course>240.875916</course><hAcc>0.914675</hAcc><vAcc>0.744358</vAcc></extensions></trkpt>
      <trkpt lon="-4.134028" lat="53.003480"><ele>579.239929</ele><time>2021-07-17T10:25:30Z</time><extensions><speed>0.000000</speed><course>240.875916</course><hAcc>0.916191</hAcc><vAcc>0.746430</vAcc></extensions></trkpt>
      <trkpt lon="-4.134028" lat="53.003480"><ele>579.239929</ele><time>2021-07-17T10:25:30Z</time><extensions><speed>0.000000</speed><course>240.875916</course><hAcc>0.917216</hAcc><vAcc>0.748220</vAcc></extensions></trkpt>
      <trkpt lon="-4.134028" lat="53.003480"><ele>579.239929</ele><time>2021-07-17T10:25:31Z</time><extensions><speed>0.000000</speed><course>240.875916</course><hAcc>0.917772</hAcc><vAcc>0.749477</vAcc></extensions></trkpt>
      <trkpt lon="-4.134028" lat="53.003480"><ele>579.239929</ele><time>2021-07-17T10:25:33Z</time><extensions><speed>0.000000</speed><course>240.875916</course><hAcc>0.917948</hAcc><vAcc>0.750104</vAcc></extensions></trkpt>
      <trkpt lon="-4.134028" lat="53.003480"><ele>579.239929</ele><time>2021-07-17T10:25:34Z</time><extensions><speed>0.000000</speed><course>269.430084</course><hAcc>0.917859</hAcc><vAcc>0.750106</vAcc></extensions></trkpt>
      <trkpt lon="-4.134028" lat="53.003480"><ele>579.239929</ele><time>2021-07-17T10:25:34Z</time><extensions><speed>0.000000</speed><course>274.056000</course><hAcc>0.917584</hAcc><vAcc>0.749540</vAcc></extensions></trkpt>
      <trkpt lon="-4.134028" lat="53.003480"><ele>579.239929</ele><time>2021-07-17T10:25:35Z</time><extensions><speed>0.000000</speed><course>273.580658</course><hAcc>0.917093</hAcc><vAcc>0.748456</vAcc></extensions></trkpt>
      <trkpt lon="-4.134028" lat="53.003480"><ele>579.239929</ele><time>2021-07-17T10:25:36Z</time><extensions><speed>0.000000</speed><course>266.285736</course><hAcc>0.916312</hAcc><vAcc>0.746957</vAcc></extensions></trkpt>
      <trkpt lon="-4.134028" lat="53.003480"><ele>579.239929</ele><time>2021-07-17T10:25:37Z</time><extensions><speed>0.000000</speed><course>280.416809</course><hAcc>0.915273</hAcc><vAcc>0.745309</vAcc></extensions></trkpt>
      <trkpt lon="-4.134028" lat="53.003480"><ele>579.239929</ele><time>2021-07-17T10:25:38Z</time><extensions><speed>0.000000</speed><course>289.633057</course><hAcc>0.914269</hAcc><vAcc>0.744085</vAcc></extensions></trkpt>
      <trkpt lon="-4.134028" lat="53.003480"><ele>579.239929</ele><time>2021-07-17T10:25:39Z</time><extensions><speed>0.000000</speed><course>274.042023</course><hAcc>0.914127</hAcc><vAcc>0.744361</vAcc></extensions></trkpt>
      <trkpt lon="-4.134028" lat="53.003480"><ele>579.239929</ele><time>2021-07-17T10:25:40Z</time><extensions><speed>0.000000</speed><course>259.398621</course><hAcc>0.916570</hAcc><vAcc>0.747957</vAcc></extensions></trkpt>
      <trkpt lon="-4.134028" lat="53.003480"><ele>579.239929</ele><time>2021-07-17T10:25:41Z</time><extensions><speed>0.000000</speed><course>235.228027</course><hAcc>0.924660</hAcc><vAcc>0.757678</vAcc></extensions></trkpt>
      <trkpt lon="-4.134028" lat="53.003480"><ele>579.239929</ele><time>2021-07-17T10:25:42Z</time><extensions><speed>0.000000</speed><course>233.943741</course><hAcc>0.943197</hAcc><vAcc>0.777423</vAcc></extensions></trkpt>
      <trkpt lon="-4.134028" lat="53.003480"><ele>579.239929</ele><time>2021-07-17T10:25:43Z</time><extensions><speed>0.000000</speed><course>251.986771</course><hAcc>0.978837</hAcc><vAcc>0.812034</vAcc></extensions></trkpt>
      <trkpt lon="-4.134028" lat="53.003480"><ele>579.239929</ele><time>2021-07-17T10:25:44Z</time><extensions><speed>0.000000</speed><course>207.637573</course><hAcc>0.940552</hAcc><vAcc>0.776306</vAcc></extensions></trkpt>
      <trkpt lon="-4.134028" lat="53.003480"><ele>579.239929</ele><time>2021-07-17T10:25:45Z</time><extensions><speed>0.000000</speed><course>199.781464</course><hAcc>0.921225</hAcc><vAcc>0.755417</vAcc></extensions></trkpt>
      <trkpt lon="-4.134028" lat="53.003480"><ele>579.239929</ele><time>2021-07-17T10:25:46Z</time><extensions><speed>0.000000</speed><course>204.898392</course><hAcc>0.913508</hAcc><vAcc>0.745536</vAcc></extensions></trkpt>
      <trkpt lon="-4.134028" lat="53.003480"><ele>579.239929</ele><time>2021-07-17T10:25:47Z</time><extensions><speed>0.000000</speed><course>218.988647</course><hAcc>0.911924</hAcc><vAcc>0.742319</vAcc></extensions></trkpt>
      <trkpt lon="-4.134028" lat="53.003480"><ele>579.239929</ele><time>2021-07-17T10:25:48Z</time><extensions><speed>0.000000</speed><course>240.875916</course><hAcc>0.912983</hAcc><vAcc>0.742634</vAcc></extensions></trkpt>
      <trkpt lon="-4.134028" lat="53.003480"><ele>579.239929</ele><time>2021-07-17T10:25:49Z</time><extensions><speed>0.000000</speed><course>240.875916</course><hAcc>0.914740</hAcc><vAcc>0.744451</vAcc></extensions></trkpt>
      <trkpt lon="-4.134028" lat="53.003480"><ele>579.239929</ele><time>2021-07-17T10:25:50Z</time><extensions><speed>0.000000</speed><course>240.875916</course><hAcc>0.916285</hAcc><vAcc>0.746589</vAcc></extensions></trkpt>
      <trkpt lon="-4.134028" lat="53.003480"><ele>579.239929</ele><time>2021-07-17T10:25:51Z</time><extensions><speed>0.000000</speed><course>240.875916</course><hAcc>0.917326</hAcc><vAcc>0.748442</vAcc></extensions></trkpt>
      <trkpt lon="-4.134028" lat="53.003480"><ele>579.239929</ele><time>2021-07-17T10:25:52Z</time><extensions><speed>0.000000</speed><course>240.875916</course><hAcc>0.917881</hAcc><vAcc>0.749754</vAcc></extensions></trkpt>
      <trkpt lon="-4.134028" lat="53.003480"><ele>579.239929</ele><time>2021-07-17T10:25:53Z</time><extensions><speed>0.000000</speed><course>240.875916</course><hAcc>0.918078</hAcc><vAcc>0.750450</vAcc></extensions></trkpt>
      <trkpt lon="-4.134028" lat="53.003480"><ele>579.239929</ele><time>2021-07-17T10:25:54Z</time><extensions><speed>0.000000</speed><course>269.430084</course><hAcc>0.918028</hAcc><vAcc>0.750533</vAcc></extensions></trkpt>
      <trkpt lon="-4.134028" lat="53.003480"><ele>579.239929</ele><time>2021-07-17T10:25:55Z</time><extensions><speed>0.000000</speed><course>274.056000</course><hAcc>0.917774</hAcc><vAcc>0.750029</vAcc></extensions></trkpt>
      <trkpt lon="-4.134028" lat="53.003480"><ele>579.239929</ele><time>2021-07-17T10:25:56Z</time><extensions><speed>0.000000</speed><course>273.580658</course><hAcc>0.917287</hAcc><vAcc>0.748982</vAcc></extensions></trkpt>
      <trkpt lon="-4.134028" lat="53.003480"><ele>579.239929</ele><time>2021-07-17T10:25:57Z</time><extensions><speed>0.000000</speed><course>266.285736</course><hAcc>0.916510</hAcc><vAcc>0.747501</vAcc></extensions></trkpt>
      <trkpt lon="-4.134028" lat="53.003480"><ele>579.239929</ele><time>2021-07-17T10:25:58Z</time><extensions><speed>0.000000</speed><course>280.416809</course><hAcc>0.915472</hAcc><vAcc>0.745850</vAcc></extensions></trkpt>
      <trkpt lon="-4.134028" lat="53.003480"><ele>579.239929</ele><time>2021-07-17T10:25:59Z</time><extensions><speed>0.000000</speed><course>289.633057</course><hAcc>0.914467</hAcc><vAcc>0.744597</vAcc></extensions></trkpt>
      <trkpt lon="-4.134028" lat="53.003480"><ele>579.239929</ele><time>2021-07-17T10:26:01Z</time><extensions><speed>0.000000</speed><course>274.042023</course><hAcc>0.914299</hAcc><vAcc>0.744805</vAcc></extensions></trkpt>
      <trkpt lon="-4.134028" lat="53.003480"><ele>579.239929</ele><time>2021-07-17T10:26:02Z</time><extensions><speed>0.000000</speed><course>259.398621</course><hAcc>0.916695</hAcc><vAcc>0.748296</vAcc></extensions></trkpt>
      <trkpt lon="-4.134028" lat="53.003480"><ele>579.239929</ele><time>2021-07-17T10:26:03Z</time><extensions><speed>0.000000</speed><course>235.228027</course><hAcc>0.924732</hAcc><vAcc>0.757881</vAcc></extensions></trkpt>
      <trkpt lon="-4.134028" lat="53.003480"><ele>579.239929</ele><time>2021-07-17T10:26:04Z</time><extensions><speed>0.000000</speed><course>233.943741</course><hAcc>0.943209</hAcc><vAcc>0.777464</vAcc></extensions></trkpt>
      <trkpt lon="-4.134028" lat="53.003480"><ele>579.239929</ele><time>2021-07-17T10:26:05Z</time><extensions><speed>0.000000</speed><course>251.986771</course><hAcc>0.978785</hAcc><vAcc>0.811890</vAcc></extensions></trkpt>
      <trkpt lon="-4.134028" lat="53.003480"><ele>579.239929</ele><time>2021-07-17T10:26:06Z</time><extensions><speed>0.000000</speed><course>207.637573</course><hAcc>0.940540</hAcc><vAcc>0.776236</vAcc></extensions></trkpt>
      <trkpt lon="-4.134028" lat="53.003480"><ele>579.239929</ele><time>2021-07-17T10:26:07Z</time><extensions><speed>0.000000</speed><course>199.781464</course><hAcc>0.921163</hAcc><vAcc>0.755187</vAcc></extensions></trkpt>
      <trkpt lon="-4.134028" lat="53.003480"><ele>579.239929</ele><time>2021-07-17T10:26:08Z</time><extensions><speed>0.000000</speed><course>204.898392</course><hAcc>0.913398</hAcc><vAcc>0.745159</vAcc></extensions></trkpt>
      <trkpt lon="-4.134028" lat="53.003480"><ele>579.239929</ele><time>2021-07-17T10:26:09Z</time><extensions><speed>0.000000</speed><course>218.988647</course><hAcc>0.911771</hAcc><vAcc>0.741812</vAcc></extensions></trkpt>
      <trkpt lon="-4.134028" lat="53.003480"><ele>579.239929</ele><time>2021-07-17T10:26:10Z</time><extensions><speed>0.000000</speed><course>240.875916</course><hAcc>0.912792</hAcc><vAcc>0.742013</vAcc></extensions></trkpt>
      <trkpt lon="-4.134028" lat="53.003480"><ele>579.239929</ele><time>2021-07-17T10:26:11Z</time><extensions><speed>0.000000</speed><course>240.875916</course><hAcc>0.914515</hAcc><vAcc>0.743733</vAcc></extensions></trkpt>
      <trkpt lon="-4.134028" lat="53.003480"><ele>579.239929</ele><time>2021-07-17T10:26:12Z</time><extensions><speed>0.000000</speed><course>240.875916</course><hAcc>0.916030</hAcc><vAcc>0.745788</vAcc></extensions></trkpt>
      <trkpt lon="-4.134028" lat="53.003480"><ele>579.239929</ele><time>2021-07-17T10:26:13Z</time><extensions><speed>0.000000</speed><course>240.875916</course><hAcc>0.917045</hAcc><vAcc>0.747569</vAcc></extensions></trkpt>
      <trkpt lon="-4.134028" lat="53.003480"><ele>579.239929</ele><time>2021-07-17T10:26:14Z</time><extensions><speed>0.000000</speed><course>240.875916</course><hAcc>0.917579</hAcc><vAcc>0.748819</vAcc></extensions></trkpt>
      <trkpt lon="-4.134028" lat="53.003480"><ele>579.239929</ele><time>2021-07-17T10:26:15Z</time><extensions><speed>0.000000</speed><course>240.875916</course><hAcc>0.917759</hAcc><vAcc>0.749465</vAcc></extensions></trkpt>
      <trkpt lon="-4.134028" lat="53.003480"><ele>579.239929</ele><time>2021-07-17T10:26:16Z</time><extensions><speed>0.000000</speed><course>269.430084</course><hAcc>0.917698</hAcc><vAcc>0.749512</vAcc></extensions></trkpt>
      <trkpt lon="-4.134028" lat="53.003480"><ele>579.239929</ele><time>2021-07-17T10:26:17Z</time><extensions><speed>0.000000</speed><course>274.056000</course><hAcc>0.917438</hAcc><vAcc>0.748987</vAcc></extensions></trkpt>
      <trkpt lon="-4.134028" lat="53.003480"><ele>579.239929</ele><time>2021-07-17T10:26:18Z</time><extensions><speed>0.000000</speed><course>273.580658</course><hAcc>0.916949</hAcc><vAcc>0.747940</vAcc></extensions></trkpt>
      <trkpt lon="-4.134028" lat="53.003480"><ele>579.239929</ele><time>2021-07-17T10:26:19Z</time><extensions><speed>0.000000</speed><course>266.285736</course><hAcc>0.916176</hAcc><vAcc>0.746481</vAcc></extensions></trkpt>
      <trkpt lon="-4.134028" lat="53.003480"><ele>579.239929</ele><time>2021-07-17T10:26:20Z</time><extensions><speed>0.000000</speed><course>280.416809</course><hAcc>0.915146</hAcc><vAcc>0.744875</vAcc></extensions></trkpt>
      <trkpt lon="-4.134028" lat="53.003480"><ele>579.239929</ele><time>2021-07-17T10:26:21Z</time><extensions><speed>0.000000</speed><course>289.633057</course><hAcc>0.914151</hAcc><vAcc>0.743691</vAcc></extensions></trkpt>
      <trkpt lon="-4.134028" lat="53.003480"><ele>579.239929</ele><time>2021-07-17T10:26:22Z</time><extensions><speed>0.000000</speed><course>274.042023</course><hAcc>0.914018</hAcc><vAcc>0.744004</vAcc></extensions></trkpt>
      <trkpt lon="-4.134028" lat="53.003480"><ele>579.239929</ele><time>2021-07-17T10:26:23Z</time><extensions><speed>0.000000</speed><course>259.398621</course><hAcc>0.916467</hAcc><vAcc>0.747633</vAcc></extensions></trkpt>
      <trkpt lon="-4.134028" lat="53.003480"><ele>579.239929</ele><time>2021-07-17T10:26:24Z</time><extensions><speed>0.000000</speed><course>235.228027</course><hAcc>0.924558</hAcc><vAcc>0.757377</vAcc></extensions></trkpt>
      <trkpt lon="-4.134028" lat="53.003480"><ele>579.239929</ele><time>2021-07-17T10:26:25Z</time><extensions><speed>0.000000</speed><course>233.943741</course><hAcc>0.943092</hAcc><vAcc>0.777135</vAcc></extensions></trkpt>
      <trkpt lon="-4.134028" lat="53.003480"><ele>579.239929</ele><time>2021-07-17T10:26:26Z</time><extensions><speed>0.000000</speed><course>251.986771</course><hAcc>0.978726</hAcc><vAcc>0.811742</vAcc></extensions></trkpt>
      <trkpt lon="-4.134028" lat="53.003480"><ele>579.239929</ele><time>2021-07-17T10:26:27Z</time><extensions><speed>0.000000</speed><course>207.637573</course><hAcc>0.940369</hAcc><vAcc>0.775852</vAcc></extensions></trkpt>
      <trkpt lon="-4.134028" lat="53.003480"><ele>579.239929</ele><time>2021-07-17T10:26:28Z</time><extensions><speed>0.000000</speed><course>199.781464</course><hAcc>0.921037</hAcc><vAcc>0.754940</vAcc></extensions></trkpt>
      <trkpt lon="-4.134028" lat="53.003480"><ele>579.239929</ele><time>2021-07-17T10:26:29Z</time><extensions><speed>0.000000</speed><course>204.898392</course><hAcc>0.913304</hAcc><vAcc>0.744993</vAcc></extensions></trkpt>
      <trkpt lon="-4.134028" lat="53.003480"><ele>579.239929</ele><time>2021-07-17T10:26:30Z</time><extensions><speed>0.000000</speed><course>218.988647</course><hAcc>0.911695</hAcc><vAcc>0.741677</vAcc></extensions></trkpt>
      <trkpt lon="-4.134028" lat="53.003480"><ele>579.239929</ele><time>2021-07-17T10:26:31Z</time><extensions><speed>0.000000</speed><course>240.875916</course><hAcc>0.912723</hAcc><vAcc>0.741869</vAcc></extensions></trkpt>
      <trkpt lon="-4.134028" lat="53.003480"><ele>579.239929</ele><time>2021-07-17T10:26:32Z</time><extensions><speed>0.000000</speed><course>240.875916</course><hAcc>0.914445</hAcc><vAcc>0.743551</vAcc></extensions></trkpt>
      <trkpt lon="-4.134028" lat="53.003480"><ele>579.239929</ele><time>2021-07-17T10:26:33Z</time><extensions><speed>0.000000</speed><course>240.875916</course><hAcc>0.915952</hAcc><vAcc>0.745551</vAcc></extensions></trkpt>
      <trkpt lon="-4.134028" lat="53.003480"><ele>579.239929</ele><time>2021-07-17T10:26:34Z</time><extensions><speed>0.000000</speed><course>240.875916</course><hAcc>0.916957</hAcc><vAcc>0.747273</vAcc></extensions></trkpt>
      <trkpt lon="-4.134028" lat="53.003480"><ele>579.239929</ele><time>2021-07-17T10:26:35Z</time><extensions><speed>0.000000</speed><course>240.875916</course><hAcc>0.917479</hAcc><vAcc>0.748469</vAcc></extensions></trkpt>
      <trkpt lon="-4.134028" lat="53.003480"><ele>579.239929</ele><time>2021-07-17T10:26:36Z</time><extensions><speed>0.000000</speed><course>240.875916</course><hAcc>0.917648</hAcc><vAcc>0.749072</vAcc></extensions></trkpt>
      <trkpt lon="-4.134028" lat="53.003480"><ele>579.239929</ele><time>2021-07-17T10:26:37Z</time><extensions><speed>0.000000</speed><course>269.430084</course><hAcc>0.917579</hAcc><vAcc>0.749093</vAcc></extensions></trkpt>
      <trkpt lon="-4.134028" lat="53.003480"><ele>579.239929</ele><time>2021-07-17T10:26:38Z</time><extensions><speed>0.000000</speed><course>274.056000</course><hAcc>0.917313</hAcc><vAcc>0.748560</vAcc></extensions></trkpt>
      <trkpt lon="-4.134028" lat="53.003480"><ele>579.239929</ele><time>2021-07-17T10:26:39Z</time><extensions><speed>0.000000</speed><course>273.580658</course><hAcc>0.916820</hAcc><vAcc>0.747517</vAcc></extensions></trkpt>
      <trkpt lon="-4.134028" lat="53.003480"><ele>579.239929</ele><time>2021-07-17T10:26:40Z</time><extensions><speed>0.000000</speed><course>266.285736</course><hAcc>0.916044</hAcc><vAcc>0.746070</vAcc></extensions></trkpt>
      <trkpt lon="-4.134028" lat="53.003480"><ele>579.239929</ele><time>2021-07-17T10:26:41Z</time><extensions><speed>0.000000</speed><course>280.416809</course><hAcc>0.915012</hAcc><vAcc>0.744478</vAcc></extensions></trkpt>
      <trkpt lon="-4.134028" lat="53.003480"><ele>579.239929</ele><time>2021-07-17T10:26:42Z</time><extensions><speed>0.000000</speed><course>289.633057</course><hAcc>0.914016</hAcc><vAcc>0.743304</vAcc></extensions></trkpt>
      <trkpt lon="-4.134028" lat="53.003480"><ele>579.239929</ele><time>2021-07-17T10:26:43Z</time><extensions><speed>0.000000</speed><course>274.042023</course><hAcc>0.913879</hAcc><vAcc>0.743616</vAcc></extensions></trkpt>
      <trkpt lon="-4.134028" lat="53.003480"><ele>579.239929</ele><time>2021-07-17T10:26:44Z</time><extensions><speed>0.000000</speed><course>259.398621</course><hAcc>0.916323</hAcc><vAcc>0.747233</vAcc></extensions></trkpt>
      <trkpt lon="-4.134028" lat="53.003480"><ele>579.239929</ele><time>2021-07-17T10:26:45Z</time><extensions><speed>0.000000</speed><course>235.228027</course><hAcc>0.924406</hAcc><vAcc>0.756953</vAcc></extensions></trkpt>
      <trkpt lon="-4.134028" lat="53.003480"><ele>579.239929</ele><time>2021-07-17T10:26:46Z</time><extensions><speed>0.000000</speed><course>233.943741</course><hAcc>0.942930</hAcc><vAcc>0.776676</vAcc></extensions></trkpt>
      <trkpt lon="-4.134028" lat="53.003480"><ele>579.239929</ele><time>2021-07-17T10:26:47Z</time><extensions><speed>0.000000</speed><course>251.986771</course><hAcc>0.978551</hAcc><vAcc>0.811246</vAcc></extensions></trkpt>
      <trkpt lon="-4.134028" lat="53.003480"><ele>579.239929</ele><time>2021-07-17T10:26:48Z</time><extensions><speed>0.000000</speed><course>207.637573</course><hAcc>0.940306</hAcc><vAcc>0.775618</vAcc></extensions></trkpt>
      <trkpt lon="-4.134028" lat="53.003480"><ele>579.239929</ele><time>2021-07-17T10:26:49Z</time><extensions><speed>0.000000</speed><course>199.781464</course><hAcc>0.921001</hAcc><vAcc>0.754778</vAcc></extensions></trkpt>
      <trkpt lon="-4.134028" lat="53.003480"><ele>579.239929</ele><time>2021-07-17T10:26:50Z</time><extensions><speed>0.000000</speed><course>204.898392</course><hAcc>0.913300</hAcc><vAcc>0.744930</vAcc></extensions></trkpt>
      <trkpt lon="-4.134028" lat="53.003480"><ele>579.239929</ele><time>2021-07-17T10:26:51Z</time><extensions><speed>0.000000</speed><course>218.988647</course><hAcc>0.911724</hAcc><vAcc>0.741729</vAcc></extensions></trkpt>
      <trkpt lon="-4.134028" lat="53.003480"><ele>579.239929</ele><time>2021-07-17T10:26:52Z</time><extensions><speed>0.000000</speed><course>240.875916</course><hAcc>0.912785</hAcc><vAcc>0.742045</vAcc></extensions></trkpt>
      <trkpt lon="-4.134028" lat="53.003480"><ele>579.239929</ele><time>2021-07-17T10:26:53Z</time><extensions><speed>0.000000</speed><course>240.875916</course><hAcc>0.914539</hAcc><vAcc>0.743850</vAcc></extensions></trkpt>
      <trkpt lon="-4.134028" lat="53.003480"><ele>579.239929</ele><time>2021-07-17T10:26:54Z</time><extensions><speed>0.000000</speed><course>240.875916</course><hAcc>0.916077</hAcc><vAcc>0.745965</vAcc></extensions></trkpt>
      <trkpt lon="-4.134028" lat="53.003480"><ele>579.239929</ele><time>2021-07-17T10:26:55Z</time><extensions><speed>0.000000</speed><course>240.875916</course><hAcc>0.917109</hAcc><vAcc>0.747788</vAcc></extensions></trkpt>
      <trkpt lon="-4.134028" lat="53.003480"><ele>579.239929</ele><time>2021-07-17T10:26:56Z</time><extensions><speed>0.000000</speed><course>240.875916</course><hAcc>0.917657</hAcc><vAcc>0.749067</vAcc></extensions></trkpt>
      <trkpt lon="-4.134028" lat="53.003480"><ele>579.239929</ele><time>2021-07-17T10:26:57Z</time><extensions><speed>0.000000</speed><course>240.875916</course><hAcc>0.917847</hAcc><vAcc>0.749734</vAcc></extensions></trkpt>
      <trkpt lon="-4.134028" lat="53.003480"><ele>579.239929</ele><time>2021-07-17T10:26:58Z</time><extensions><speed>0.000000</speed><course>269.430084</course><hAcc>0.917795</hAcc><vAcc>0.749799</vAcc></extensions></trkpt>
      <trkpt lon="-4.134028" lat="53.003480"><ele>579.239929</ele><time>2021-07-17T10:26:59Z</time><extensions><speed>0.000000</speed><course>274.056000</course><hAcc>0.917544</hAcc><vAcc>0.749295</vAcc></extensions></trkpt>
      <trkpt lon="-4.134028" lat="53.003480"><ele>579.239929</ele><time>2021-07-17T10:27:00Z</time><extensions><speed>0.000000</speed><course>273.580658</course><hAcc>0.917064</hAcc><vAcc>0.748274</vAcc></extensions></trkpt>
      <trkpt lon="-4.134028" lat="53.003480"><ele>579.239929</ele><time>2021-07-17T10:27:01Z</time><extensions><speed>0.000000</speed><course>266.285736</course><hAcc>0.916300</hAcc><vAcc>0.746849</vAcc></extensions></trkpt>
      <trkpt lon="-4.134028" lat="53.003480"><ele>579.239929</ele><time>2021-07-17T10:27:02Z</time><extensions><speed>0.000000</speed><course>280.416809</course><hAcc>0.915281</hAcc><vAcc>0.745287</vAcc></extensions></trkpt>
      <trkpt lon="-4.134028" lat="53.003480"><ele>579.239929</ele><time>2021-07-17T10:27:03Z</time><extensions><speed>0.000000</speed><course>289.633057</course><hAcc>0.914300</hAcc><vAcc>0.744156</vAcc></extensions></trkpt>
      <trkpt lon="-4.134028" lat="53.003480"><ele>579.239929</ele><time>2021-07-17T10:27:04Z</time><extensions><speed>0.000000</speed><course>274.042023</course><hAcc>0.914182</hAcc><vAcc>0.744529</vAcc></extensions></trkpt>
      <trkpt lon="-4.134028" lat="53.003480"><ele>579.239929</ele><time>2021-07-17T10:27:05Z</time><extensions><speed>0.000000</speed><course>259.398621</course><hAcc>0.916651</hAcc><vAcc>0.748222</vAcc></extensions></trkpt>
      <trkpt lon="-4.134028" lat="53.003480"><ele>579.239929</ele><time>2021-07-17T10:27:06Z</time><extensions><speed>0.000000</speed><course>235.228027</course><hAcc>0.924764</hAcc><vAcc>0.758027</vAcc></extensions></trkpt>
      <trkpt lon="-4.134028" lat="53.003480"><ele>579.239929</ele><time>2021-07-17T10:27:07Z</time><extensions><speed>0.000000</speed><course>233.943741</course><hAcc>0.943322</hAcc><vAcc>0.777835</vAcc></extensions></trkpt>
      <trkpt lon="-4.134028" lat="53.003480"><ele>579.239929</ele><time>2021-07-17T10:27:08Z</time><extensions><speed>0.000000</speed><course>251.986771</course><hAcc>0.978978</hAcc><vAcc>0.812480</vAcc></extensions></trkpt>
      <trkpt lon="-4.134028" lat="53.003480"><ele>579.239929</ele><time>2021-07-17T10:27:09Z</time><extensions><speed>0.000000</speed><course>207.637573</course><hAcc>0.940719</hAcc><vAcc>0.776805</vAcc></extensions></trkpt>
      <trkpt lon="-4.134028" lat="53.003480"><ele>579.239929</ele><time>2021-07-17T10:27:10Z</time><extensions><speed>0.000000</speed><course>199.781464</course><hAcc>0.921370</hAcc><vAcc>0.755852</vAcc></extensions></trkpt>
      <trkpt lon="-4.134028" lat="53.003480"><ele>579.239929</ele><time>2021-07-17T10:27:11Z</time><extensions><speed>0.000000</speed><course>204.898392</course><hAcc>0.913630</hAcc><vAcc>0.745902</vAcc></extensions></trkpt>
      <trkpt lon="-4.134028" lat="53.003480"><ele>579.239929</ele><time>2021-07-17T10:27:12Z</time><extensions><speed>0.000000</speed><course>218.988647</course><hAcc>0.912024</hAcc><vAcc>0.742617</vAcc></extensions></trkpt>
      <trkpt lon="-4.134028" lat="53.003480"><ele>579.239929</ele><time>2021-07-17T10:27:13Z</time><extensions><speed>0.000000</speed><course>240.875916</course><hAcc>0.913064</hAcc><vAcc>0.742871</vAcc></extensions></trkpt>
      <trkpt lon="-4.134028" lat="53.003480"><ele>579.239929</ele><time>2021-07-17T10:27:14Z</time><extensions><speed>0.000000</speed><course>240.875916</course><hAcc>0.914803</hAcc><vAcc>0.744637</vAcc></extensions></trkpt>
      <trkpt lon="-4.134028" lat="53.003480"><ele>579.239929</ele><time>2021-07-17T10:27:15Z</time><extensions><speed>0.000000</speed><course>240.875916</course><hAcc>0.916333</hAcc><vAcc>0.746731</vAcc></extensions></trkpt>
      <trkpt lon="-4.134028" lat="53.003480"><ele>579.239929</ele><time>2021-07-17T10:27:16Z</time><extensions><speed>0.000000</speed><course>240.875916</course><hAcc>0.917361</hAcc><vAcc>0.748546</vAcc></extensions></trkpt>
      <trkpt lon="-4.134028" lat="53.003480"><ele>579.239929</ele><time>2021-07-17T10:27:17Z</time><extensions><speed>0.000000</speed><course>240.875916</course><hAcc>0.917906</hAcc><vAcc>0.749823</vAcc></extensions></trkpt>
      <trkpt lon="-4.134028" lat="53.003480"><ele>579.239929</ele><time>2021-07-17T10:27:18Z</time><extensions><speed>0.000000</speed><course>240.875916</course><hAcc>0.918094</hAcc><vAcc>0.750490</vAcc></extensions></trkpt>
      <trkpt lon="-4.134028" lat="53.003480"><ele>579.239929</ele><time>2021-07-17T10:27:19Z</time><extensions><speed>0.000000</speed><course>269.430084</course><hAcc>0.918039</hAcc><vAcc>0.750555</vAcc></extensions></trkpt>
      <trkpt lon="-4.134028" lat="53.003480"><ele>579.239929</ele><time>2021-07-17T10:27:20Z</time><extensions><speed>0.000000</speed><course>274.056000</course><hAcc>0.917783</hAcc><vAcc>0.750047</vAcc></extensions></trkpt>
      <trkpt lon="-4.134028" lat="53.003480"><ele>579.239929</ele><time>2021-07-17T10:27:21Z</time><extensions><speed>0.000000</speed><course>273.580658</course><hAcc>0.917297</hAcc><vAcc>0.749017</vAcc></extensions></trkpt>
      <trkpt lon="-4.134028" lat="53.003480"><ele>579.239929</ele><time>2021-07-17T10:27:22Z</time><extensions><speed>0.000000</speed><course>266.285736</course><hAcc>0.916525</hAcc><vAcc>0.747576</vAcc></extensions></trkpt>
      <trkpt lon="-4.134028" lat="53.003480"><ele>579.239929</ele><time>2021-07-17T10:27:23Z</time><extensions><speed>0.000000</speed><course>280.416809</course><hAcc>0.915498</hAcc><vAcc>0.745995</vAcc></extensions></trkpt>
      <trkpt lon="-4.134028" lat="53.003480"><ele>579.239929</ele><time>2021-07-17T10:27:24Z</time><extensions><speed>0.000000</speed><course>289.633057</course><hAcc>0.914512</hAcc><vAcc>0.744844</vAcc></extensions></trkpt>
      <trkpt lon="-4.134028" lat="53.003480"><ele>579.239929</ele><time>2021-07-17T10:27:25Z</time><extensions><speed>0.000000</speed><course>274.042023</course><hAcc>0.914393</hAcc><vAcc>0.745202</vAcc></extensions></trkpt>
      <trkpt lon="-4.134028" lat="53.003480"><ele>579.239929</ele><time>2021-07-17T10:27:26Z</time><extensions><speed>0.000000</speed><course>259.398621</course><hAcc>0.916868</hAcc><vAcc>0.748891</vAcc></extensions></trkpt>
      <trkpt lon="-4.134028" lat="53.003480"><ele>579.239929</ele><time>2021-07-17T10:27:27Z</time><extensions><speed>0.000000</speed><course>235.228027</course><hAcc>0.924998</hAcc><vAcc>0.758715</vAcc></extensions></trkpt>
      <trkpt lon="-4.134028" lat="53.003480"><ele>579.239929</ele><time>2021-07-17T10:27:28Z</time><extensions><speed>0.000000</speed><course>233.943741</course><hAcc>0.943585</hAcc><vAcc>0.778573</vAcc></extensions></trkpt>
      <trkpt lon="-4.134028" lat="53.003480"><ele>579.239929</ele><time>2021-07-17T10:27:29Z</time><extensions><speed>0.000000</speed><course>251.986771</course><hAcc>0.979283</hAcc><vAcc>0.813304</vAcc></extensions></trkpt>
      <trkpt lon="-4.134028" lat="53.003480"><ele>579.243652</ele><time>2021-07-17T10:27:30Z</time><extensions><speed>0.002856</speed><course>207.637573</course><hAcc>0.940447</hAcc><vAcc>0.776794</vAcc></extensions></trkpt>
      <trkpt lon="-4.134028" lat="53.003480"><ele>579.244385</ele><time>2021-07-17T10:27:30Z</time><extensions><speed>0.002898</speed><course>199.781464</course><hAcc>0.920666</hAcc><vAcc>0.755231</vAcc></extensions></trkpt>
      <trkpt lon="-4.134029" lat="53.003480"><ele>579.245056</ele><time>2021-07-17T10:27:31Z</time><extensions><speed>0.003058</speed><course>204.898392</course><hAcc>0.912321</hAcc><vAcc>0.744483</vAcc></extensions></trkpt>
      <trkpt lon="-4.134029" lat="53.003480"><ele>579.245544</ele><time>2021-07-17T10:27:32Z</time><extensions><speed>0.003448</speed><course>218.988647</course><hAcc>0.909924</hAcc><vAcc>0.740219</vAcc></extensions></trkpt>
      <trkpt lon="-4.134029" lat="53.003480"><ele>579.245850</ele><time>2021-07-17T10:27:33Z</time><extensions><speed>0.004188</speed><course>240.875916</course><hAcc>0.909957</hAcc><vAcc>0.739301</vAcc></extensions></trkpt>
      <trkpt lon="-4.134029" lat="53.003480"><ele>579.245972</ele><time>2021-07-17T10:27:34Z</time><extensions><speed>0.005360</speed><course>240.875916</course><hAcc>0.910448</hAcc><vAcc>0.739699</vAcc></extensions></trkpt>
      <trkpt lon="-4.134029" lat="53.003480"><ele>579.245728</ele><time>2021-07-17T10:27:35Z</time><extensions><speed>0.007005</speed><course>240.875916</course><hAcc>0.910472</hAcc><vAcc>0.740248</vAcc></extensions></trkpt>
      <trkpt lon="-4.134028" lat="53.003480"><ele>579.245117</ele><time>2021-07-17T10:27:36Z</time><extensions><speed>0.009143</speed><course>240.875916</course><hAcc>0.909740</hAcc><vAcc>0.740381</vAcc></extensions></trkpt>
      <trkpt lon="-4.134028" lat="53.003480"><ele>579.244019</ele><time>2021-07-17T10:27:37Z</time><extensions><speed>0.011786</speed><course>240.875916</course><hAcc>0.908310</hAcc><vAcc>0.739915</vAcc></extensions></trkpt>
      <trkpt lon="-4.134028" lat="53.003480"><ele>579.242432</ele><time>2021-07-17T10:27:38Z</time><extensions><speed>0.014937</speed><course>240.875916</course><hAcc>0.906388</hAcc><vAcc>0.738888</vAcc></extensions></trkpt>
      <trkpt lon="-4.134028" lat="53.003480"><ele>579.240173</ele><time>2021-07-17T10:27:39Z</time><extensions><speed>0.018578</speed><course>269.430084</course><hAcc>0.904218</hAcc><vAcc>0.737444</vAcc></extensions></trkpt>
      <trkpt lon="-4.134028" lat="53.003480"><ele>579.237244</ele><time>2021-07-17T10:27:40Z</time><extensions><speed>0.022670</speed><course>274.056000</course><hAcc>0.902021</hAcc><vAcc>0.735765</vAcc></extensions></trkpt>
      <trkpt lon="-4.134028" lat="53.003480"><ele>579.233521</ele><time>2021-07-17T10:27:41Z</time><extensions><speed>0.027132</speed><course>273.580658</course><hAcc>0.899965</hAcc><vAcc>0.734023</vAcc></extensions></trkpt>
      <trkpt lon="-4.134027" lat="53.003481"><ele>579.229004</ele><time>2021-07-17T10:27:42Z</time><extensions><speed>0.031836</speed><course>266.285736</course><hAcc>0.898163</hAcc><vAcc>0.732368</vAcc></extensions></trkpt>
      <trkpt lon="-4.134027" lat="53.003481"><ele>579.223572</ele><time>2021-07-17T10:27:43Z</time><extensions><speed>0.036593</speed><course>280.416809</course><hAcc>0.896681</hAcc><vAcc>0.730912</vAcc></extensions></trkpt>
      <trkpt lon="-4.134026" lat="53.003481"><ele>579.217285</ele><time>2021-07-17T10:27:44Z</time><extensions><speed>0.041143</speed><course>289.633057</course><hAcc>0.895551</hAcc><vAcc>0.729736</vAcc></extensions></trkpt>
      <trkpt lon="-4.134026" lat="53.003481"><ele>579.210266</ele><time>2021-07-17T10:27:45Z</time><extensions><speed>0.045141</speed><course>274.042023</course><hAcc>0.894780</hAcc><vAcc>0.728892</vAcc></extensions></trkpt>
      <trkpt lon="-4.134025" lat="53.003481"><ele>579.202515</ele><time>2021-07-17T10:27:46Z</time><extensions><speed>0.048149</speed><course>259.398621</course><hAcc>0.894365</hAcc><vAcc>0.728410</vAcc></extensions></trkpt>
      <trkpt lon="-4.134024" lat="53.003481"><ele>579.194336</ele><time>2021-07-17T10:27:47Z</time><extensions><speed>0.049633</speed><course>235.228027</course><hAcc>0.894303</hAcc><vAcc>0.728306</vAcc></extensions></trkpt>
      <trkpt lon="-4.134024" lat="53.003482"><ele>579.185913</ele><time>2021-07-17T10:27:48Z</time><extensions><speed>0.048971</speed><course>233.943741</course><hAcc>0.894590</hAcc><vAcc>0.728581</vAcc></extensions></trkpt>
      <trkpt lon="-4.134023" lat="53.003482"><ele>579.177673</ele><time>2021-07-17T10:27:49Z</time><extensions><speed>0.045499</speed><course>251.986771</course><hAcc>0.895225</hAcc><vAcc>0.729222</vAcc></extensions></trkpt>
      <trkpt lon="-4.134022" lat="53.003482"><ele>579.170166</ele><time>2021-07-17T10:27:50Z</time><extensions><speed>0.038681</speed><course>230.632401</course><hAcc>0.896210</hAcc><vAcc>0.730206</vAcc></extensions></trkpt>
      <trkpt lon="-4.134022" lat="53.003482"><ele>579.163940</ele><time>2021-07-17T10:27:51Z</time><extensions><speed>0.028932</speed><course>208.539734</course><hAcc>0.897535</hAcc><vAcc>0.731487</vAcc></extensions></trkpt>
      <trkpt lon="-4.134022" lat="53.003482"><ele>579.159912</ele><time>2021-07-17T10:27:52Z</time><extensions><speed>0.022469</speed><course>217.062653</course><hAcc>0.899177</hAcc><vAcc>0.732997</vAcc></extensions></trkpt>
      <trkpt lon="-4.134022" lat="53.003481"><ele>579.158997</ele><time>2021-07-17T10:27:53Z</time><extensions><speed>0.036150</speed><course>216.480164</course><hAcc>0.901083</hAcc><vAcc>0.734640</vAcc></extensions></trkpt>
      <trkpt lon="-4.134022" lat="53.003481"><ele>579.162292</ele><time>2021-07-17T10:27:54Z</time><extensions><speed>0.067973</speed><course>215.204285</course><hAcc>0.903161</hAcc><vAcc>0.736289</vAcc></extensions></trkpt>
      <trkpt lon="-4.134023" lat="53.003480"><ele>579.171082</ele><time>2021-07-17T10:27:55Z</time><extensions><speed>0.112173</speed><course>192.608246</course><hAcc>0.905277</hAcc><vAcc>0.737797</vAcc></extensions></trkpt>
      <trkpt lon="-4.134025" lat="53.003480"><ele>579.186768</ele><time>2021-07-17T10:27:56Z</time><extensions><speed>0.168113</speed><course>196.818375</course><hAcc>0.907251</hAcc><vAcc>0.739011</vAcc></extensions></trkpt>
      <trkpt lon="-4.134027" lat="53.003479"><ele>579.210938</ele><time>2021-07-17T10:27:57Z</time><extensions><speed>0.236122</speed><course>200.564194</course><hAcc>0.908890</hAcc><vAcc>0.739811</vAcc></extensions></trkpt>
      <trkpt lon="-4.134031" lat="53.003477"><ele>579.245117</ele><time>2021-07-17T10:27:58Z</time><extensions><speed>0.316416</speed><course>224.718231</course><hAcc>0.910032</hAcc><vAcc>0.740175</vAcc></extensions></trkpt>
      <trkpt lon="-4.134035" lat="53.003476"><ele>579.291016</ele><time>2021-07-17T10:27:59Z</time><extensions><speed>0.408726</speed><course>228.969803</course><hAcc>0.910655</hAcc><vAcc>0.740275</vAcc></extensions></trkpt>
      <trkpt lon="-4.134041" lat="53.003474"><ele>579.350159</ele><time>2021-07-17T10:28:00Z</time><extensions><speed>0.512039</speed><course>250.366501</course><hAcc>0.911039</hAcc><vAcc>0.740623</vAcc></extensions></trkpt>
      <trkpt lon="-4.134049" lat="53.003471"><ele>579.423889</ele><time>2021-07-17T10:28:01Z</time><extensions><speed>0.624338</speed><course>-1.000000</course><hAcc>0.912021</hAcc><vAcc>0.742261</vAcc></extensions></trkpt>
      <trkpt lon="-4.134058" lat="53.003469"><ele>579.513245</ele><time>2021-07-17T10:28:02Z</time><extensions><speed>0.742326</speed><course>232.063629</course><hAcc>0.915350</hAcc><vAcc>0.746997</vAcc></extensions></trkpt>
      <trkpt lon="-4.134069" lat="53.003465"><ele>579.618835</ele><time>2021-07-17T10:28:03Z</time><extensions><speed>0.861137</speed><course>232.063614</course><hAcc>0.924115</hAcc><vAcc>0.757631</vAcc></extensions></trkpt>
      <trkpt lon="-4.134081" lat="53.003462"><ele>579.740479</ele><time>2021-07-17T10:28:04Z</time><extensions><speed>0.974027</speed><course>232.063614</course><hAcc>0.943142</hAcc><vAcc>0.778069</vAcc></extensions></trkpt>
      <trkpt lon="-4.134095" lat="53.003458"><ele>579.877136</ele><time>2021-07-17T10:28:05Z</time><extensions><speed>1.072077</speed><course>232.063599</course><hAcc>0.979104</hAcc><vAcc>0.813160</vAcc></extensions></trkpt>
      <trkpt lon="-4.134114" lat="53.003456"><ele>580.210144</ele><time>2021-07-17T10:28:06Z</time><extensions><speed>1.345823</speed><course>207.637573</course><hAcc>0.940621</hAcc><vAcc>0.777150</vAcc></extensions></trkpt>
      <trkpt lon="-4.134133" lat="53.003453"><ele>580.523071</ele><time>2021-07-17T10:28:07Z</time><extensions><speed>1.301826</speed><course>199.781464</course><hAcc>0.920774</hAcc><vAcc>0.755413</vAcc></extensions></trkpt>
      <trkpt lon="-4.134151" lat="53.003450"><ele>580.836670</ele><time>2021-07-17T10:28:08Z</time><extensions><speed>1.244246</speed><course>204.898392</course><hAcc>0.912375</hAcc><vAcc>0.744526</vAcc></extensions></trkpt>
      <trkpt lon="-4.134169" lat="53.003448"><ele>581.149841</ele><time>2021-07-17T10:28:09Z</time><extensions><speed>1.179202</speed><course>218.988647</course><hAcc>0.909930</hAcc><vAcc>0.740140</vAcc></extensions></trkpt>
      <trkpt lon="-4.134185" lat="53.003445"><ele>581.461487</ele><time>2021-07-17T10:28:10Z</time><extensions><speed>1.111512</speed><course>240.875916</course><hAcc>0.909923</hAcc><vAcc>0.739120</vAcc></extensions></trkpt>
      <trkpt lon="-4.134201" lat="53.003444"><ele>581.770813</ele><time>2021-07-17T10:28:11Z</time><extensions><speed>1.044752</speed><course>240.875916</course><hAcc>0.910383</hAcc><vAcc>0.739436</vAcc></extensions></trkpt>
      <trkpt lon="-4.134216" lat="53.003443"><ele>582.077087</ele><time>2021-07-17T10:28:12Z</time><extensions><speed>0.981476</speed><course>240.875916</course><hAcc>0.910385</hAcc><vAcc>0.739920</vAcc></extensions></trkpt>
      <trkpt lon="-4.134230" lat="53.003442"><ele>582.380005</ele><time>2021-07-17T10:28:13Z</time><extensions><speed>0.922997</speed><course>240.875916</course><hAcc>0.909640</hAcc><vAcc>0.740006</vAcc></extensions></trkpt>
      <trkpt lon="-4.134244" lat="53.003441"><ele>582.679260</ele><time>2021-07-17T10:28:14Z</time><extensions><speed>0.869582</speed><course>240.875916</course><hAcc>0.908205</hAcc><vAcc>0.739512</vAcc></extensions></trkpt>
      <trkpt lon="-4.134256" lat="53.003440"><ele>582.974731</ele><time>2021-07-17T10:28:15Z</time><extensions><speed>0.821183</speed><course>240.875916</course><hAcc>0.906286</hAcc><vAcc>0.738471</vAcc></extensions></trkpt>
      <trkpt lon="-4.134268" lat="53.003440"><ele>583.266479</ele><time>2021-07-17T10:28:17Z</time><extensions><speed>0.777378</speed><course>269.430084</course><hAcc>0.904103</hAcc><vAcc>0.737009</vAcc></extensions></trkpt>
      <trkpt lon="-4.134279" lat="53.003440"><ele>583.554016</ele><time>2021-07-17T10:28:18Z</time><extensions><speed>0.737846</speed><course>274.056000</course><hAcc>0.901874</hAcc><vAcc>0.735299</vAcc></extensions></trkpt>
      <trkpt lon="-4.134290" lat="53.003440"><ele>583.837708</ele><time>2021-07-17T10:28:19Z</time><extensions><speed>0.702103</speed><course>273.580658</course><hAcc>0.899776</hAcc><vAcc>0.733514</vAcc></extensions></trkpt>
      <trkpt lon="-4.134300" lat="53.003440"><ele>584.117554</ele><time>2021-07-17T10:28:20Z</time><extensions><speed>0.669537</speed><course>266.285736</course><hAcc>0.897911</hAcc><vAcc>0.731782</vAcc></extensions></trkpt>
      <trkpt lon="-4.134310" lat="53.003440"><ele>584.393372</ele><time>2021-07-17T10:28:21Z</time><extensions><speed>0.639549</speed><course>280.416809</course><hAcc>0.896327</hAcc><vAcc>0.730194</vAcc></extensions></trkpt>
      <trkpt lon="-4.134319" lat="53.003440"><ele>584.664856</ele><time>2021-07-17T10:28:22Z</time><extensions><speed>0.611815</speed><course>289.633057</course><hAcc>0.895034</hAcc><vAcc>0.728802</vAcc></extensions></trkpt>
      <trkpt lon="-4.134328" lat="53.003440"><ele>584.931763</ele><time>2021-07-17T10:28:23Z</time><extensions><speed>0.586097</speed><course>274.042023</course><hAcc>0.894013</hAcc><vAcc>0.727625</vAcc></extensions></trkpt>
      <trkpt lon="-4.134337" lat="53.003440"><ele>585.193726</ele><time>2021-07-17T10:28:24Z</time><extensions><speed>0.562276</speed><course>259.398621</course><hAcc>0.893231</hAcc><vAcc>0.726654</vAcc></extensions></trkpt>
      <trkpt lon="-4.134345" lat="53.003440"><ele>585.450867</ele><time>2021-07-17T10:28:25Z</time><extensions><speed>0.540474</speed><course>235.228027</course><hAcc>0.892646</hAcc><vAcc>0.725865</vAcc></extensions></trkpt>
      <trkpt lon="-4.134353" lat="53.003440"><ele>585.703918</ele><time>2021-07-17T10:28:26Z</time><extensions><speed>0.520988</speed><course>233.943741</course><hAcc>0.892215</hAcc><vAcc>0.725224</vAcc></extensions></trkpt>
      <trkpt lon="-4.134360" lat="53.003440"><ele>585.953857</ele><time>2021-07-17T10:28:27Z</time><extensions><speed>0.504428</speed><course>251.986771</course><hAcc>0.891900</hAcc><vAcc>0.724697</vAcc></extensions></trkpt>
      <trkpt lon="-4.134368" lat="53.003439"><ele>586.201721</ele><time>2021-07-17T10:28:28Z</time><extensions><speed>0.491999</speed><course>230.632401</course><hAcc>0.891668</hAcc><vAcc>0.724252</vAcc></extensions></trkpt>
      <trkpt lon="-4.134375" lat="53.003438"><ele>586.448364</ele><time>2021-07-17T10:28:29Z</time><extensions><speed>0.484760</speed><course>208.539734</course><hAcc>0.891491</hAcc><vAcc>0.723861</vAcc></extensions></trkpt>
      <trkpt lon="-4.134382" lat="53.003436"><ele>586.694336</ele><time>2021-07-17T10:28:30Z</time><extensions><speed>0.482814</speed><course>217.062653</course><hAcc>0.891349</hAcc><vAcc>0.723500</vAcc></extensions></trkpt>
      <trkpt lon="-4.134388" lat="53.003434"><ele>586.940125</ele><time>2021-07-17T10:28:31Z</time><extensions><speed>0.485099</speed><course>216.480164</course><hAcc>0.891229</hAcc><vAcc>0.723153</vAcc></extensions></trkpt>
      <trkpt lon="-4.134394" lat="53.003432"><ele>587.185730</ele><time>2021-07-17T10:28:32Z</time><extensions><speed>0.489583</speed><course>215.204285</course><hAcc>0.891122</hAcc><vAcc>0.722811</vAcc></extensions></trkpt>
      <trkpt lon="-4.134400" lat="53.003429"><ele>587.430664</ele><time>2021-07-17T10:28:33Z</time><extensions><speed>0.493797</speed><course>192.608246</course><hAcc>0.891023</hAcc><vAcc>0.722470</vAcc></extensions></trkpt>
      <trkpt lon="-4.134406" lat="53.003427"><ele>587.674377</ele><time>2021-07-17T10:28:34Z</time><extensions><speed>0.495507</speed><course>196.818375</course><hAcc>0.890930</hAcc><vAcc>0.722136</vAcc></extensions></trkpt>
      <trkpt lon="-4.134412" lat="53.003424"><ele>587.915894</ele><time>2021-07-17T10:28:35Z</time><extensions><speed>0.493268</speed><course>200.564194</course><hAcc>0.890843</hAcc><vAcc>0.721814</vAcc></extensions></trkpt>
      <trkpt lon="-4.134417" lat="53.003421"><ele>588.154419</ele><time>2021-07-17T10:28:36Z</time><extensions><speed>0.486339</speed><course>224.718231</course><hAcc>0.890764</hAcc><vAcc>0.721517</vAcc></extensions></trkpt>
      <trkpt lon="-4.134423" lat="53.003418"><ele>588.388916</ele><time>2021-07-17T10:28:37Z</time><extensions><speed>0.474754</speed><course>228.969803</course><hAcc>0.890697</hAcc><vAcc>0.721257</vAcc></extensions></trkpt>
      <trkpt lon="-4.134428" lat="53.003416"><ele>588.618347</ele><time>2021-07-17T10:28:38Z</time><extensions><speed>0.459598</speed><course>250.366501</course><hAcc>0.890644</hAcc><vAcc>0.721047</vAcc></extensions></trkpt>
      <trkpt lon="-4.134434" lat="53.003413"><ele>588.841736</ele><time>2021-07-17T10:28:39Z</time><extensions><speed>0.442979</speed><course>-1.000000</course><hAcc>0.890607</hAcc><vAcc>0.720900</vAcc></extensions></trkpt>
      <trkpt lon="-4.134439" lat="53.003411"><ele>589.058350</ele><time>2021-07-17T10:28:40Z</time><extensions><speed>0.428175</speed><course>232.063629</course><hAcc>0.890587</hAcc><vAcc>0.720829</vAcc></extensions></trkpt>
      <trkpt lon="-4.134445" lat="53.003410"><ele>589.268066</ele><time>2021-07-17T10:28:41Z</time><extensions><speed>0.419154</speed><course>232.063614</course><hAcc>0.890586</hAcc><vAcc>0.720842</vAcc></extensions></trkpt>
      <trkpt lon="-4.134451" lat="53.003409"><ele>589.471008</ele><time>2021-07-17T10:28:42Z</time><extensions><speed>0.419275</speed><course>232.063614</course><hAcc>0.890602</hAcc><vAcc>0.720939</vAcc></extensions></trkpt>
      <trkpt lon="-4.134457" lat="53.003408"><ele>589.667664</ele><time>2021-07-17T10:28:43Z</time><extensions><speed>0.429947</speed><course>232.063599</course><hAcc>0.890635</hAcc><vAcc>0.721113</vAcc></extensions></trkpt>
      <trkpt lon="-4.134464" lat="53.003408"><ele>589.859070</ele><time>2021-07-17T10:28:44Z</time><extensions><speed>0.450111</speed><course>232.063599</course><hAcc>0.890685</hAcc><vAcc>0.721347</vAcc></extensions></trkpt>
      <trkpt lon="-4.134471" lat="53.003409"><ele>590.046814</ele><time>2021-07-17T10:28:45Z</time><extensions><speed>0.476902</speed><course>232.063583</course><hAcc>0.890750</hAcc><vAcc>0.721617</vAcc></extensions></trkpt>
      <trkpt lon="-4.134478" lat="53.003410"><ele>590.232361</ele><time>2021-07-17T10:28:46Z</time><extensions><speed>0.506795</speed><course>232.063583</course><hAcc>0.890827</hAcc><vAcc>0.721904</vAcc></extensions></trkpt>
      <trkpt lon="-4.134485" lat="53.003411"><ele>590.417419</ele><time>2021-07-17T10:28:47Z</time><extensions><speed>0.536791</speed><course>248.555511</course><hAcc>0.890916</hAcc><vAcc>0.722198</vAcc></extensions></trkpt>
      <trkpt lon="-4.134493" lat="53.003412"><ele>590.603394</ele><time>2021-07-17T10:28:48Z</time><extensions><speed>0.564972</speed><course>214.727661</course><hAcc>0.891013</hAcc><vAcc>0.722494</vAcc></extensions></trkpt>
      <trkpt lon="-4.134501" lat="53.003414"><ele>590.791382</ele><time>2021-07-17T10:28:49Z</time><extensions><speed>0.590095</speed><course>215.656113</course><hAcc>0.891116</hAcc><vAcc>0.722796</vAcc></extensions></trkpt>
      <trkpt lon="-4.134510" lat="53.003416"><ele>590.982300</ele><time>2021-07-17T10:28:50Z</time><extensions><speed>0.611127</speed><course>205.637772</course><hAcc>0.891221</hAcc><vAcc>0.723107</vAcc></extensions></trkpt>
      <trkpt lon="-4.134518" lat="53.003418"><ele>591.176880</ele><time>2021-07-17T10:28:51Z</time><extensions><speed>0.627007</speed><course>201.575424</course><hAcc>0.891326</hAcc><vAcc>0.723429</vAcc></extensions></trkpt>
      <trkpt lon="-4.134527" lat="53.003420"><ele>591.375854</ele><time>2021-07-17T10:28:52Z</time><extensions><speed>0.636635</speed><course>196.854248</course><hAcc>0.891426</hAcc><vAcc>0.723760</vAcc></extensions></trkpt>
      <trkpt lon="-4.134536" lat="53.003422"><ele>591.580078</ele><time>2021-07-17T10:28:53Z</time><extensions><speed>0.638968</speed><course>198.264053</course><hAcc>0.891519</hAcc><vAcc>0.724096</vAcc></extensions></trkpt>
      <trkpt lon="-4.134545" lat="53.003423"><ele>591.790833</ele><time>2021-07-17T10:28:54Z</time><extensions><speed>0.633203</speed><course>198.636932</course><hAcc>0.891599</hAcc><vAcc>0.724422</vAcc></extensions></trkpt>
      <trkpt lon="-4.134554" lat="53.003424"><ele>592.009216</ele><time>2021-07-17T10:28:55Z</time><extensions><speed>0.618799</speed><course>192.727798</course><hAcc>0.891661</hAcc><vAcc>0.724723</vAcc></extensions></trkpt>
      <trkpt lon="-4.134563" lat="53.003425"><ele>592.236450</ele><time>2021-07-17T10:28:56Z</time><extensions><speed>0.595475</speed><course>184.691818</course><hAcc>0.891702</hAcc><vAcc>0.724974</vAcc></extensions></trkpt>
      <trkpt lon="-4.134572" lat="53.003426"><ele>592.473572</ele><time>2021-07-17T10:28:57Z</time><extensions><speed>0.563684</speed><course>177.917740</course><hAcc>0.891715</hAcc><vAcc>0.725145</vAcc></extensions></trkpt>
      <trkpt lon="-4.134580" lat="53.003427"><ele>592.721680</ele><time>2021-07-17T10:28:58Z</time><extensions><speed>0.525007</speed><course>169.935883</course><hAcc>0.891698</hAcc><vAcc>0.725204</vAcc></extensions></trkpt>
      <trkpt lon="-4.134587" lat="53.003427"><ele>592.981934</ele><time>2021-07-17T10:28:59Z</time><extensions><speed>0.482106</speed><course>168.290512</course><hAcc>0.891650</hAcc><vAcc>0.725125</vAcc></extensions></trkpt>
      <trkpt lon="-4.134594" lat="53.003427"><ele>593.255005</ele><time>2021-07-17T10:29:00Z</time><extensions><speed>0.438628</speed><course>175.847488</course><hAcc>0.891569</hAcc><vAcc>0.724889</vAcc></extensions></trkpt>
      <trkpt lon="-4.134600" lat="53.003426"><ele>593.540588</ele><time>2021-07-17T10:29:01Z</time><extensions><speed>0.399270</speed><course>182.489380</course><hAcc>0.891456</hAcc><vAcc>0.724494</vAcc></extensions></trkpt>
      <trkpt lon="-4.134606" lat="53.003425"><ele>593.837585</ele><time>2021-07-17T10:29:02Z</time><extensions><speed>0.369455</speed><course>193.224472</course><hAcc>0.891313</hAcc><vAcc>0.723953</vAcc></extensions></trkpt>
      <trkpt lon="-4.134611" lat="53.003424"><ele>594.143982</ele><time>2021-07-17T10:29:03Z</time><extensions><speed>0.354209</speed><course>210.457108</course><hAcc>0.891144</hAcc><vAcc>0.723293</vAcc></extensions></trkpt>
      <trkpt lon="-4.134615" lat="53.003422"><ele>594.457397</ele><time>2021-07-17T10:29:04Z</time><extensions><speed>0.356188</speed><course>227.054108</course><hAcc>0.890953</hAcc><vAcc>0.722545</vAcc></extensions></trkpt>
      <trkpt lon="-4.134618" lat="53.003419"><ele>594.775146</ele><time>2021-07-17T10:29:05Z</time><extensions><speed>0.374114</speed><course>247.666534</course><hAcc>0.890748</hAcc><vAcc>0.721747</vAcc></extensions></trkpt>
      <trkpt lon="-4.134621" lat="53.003416"><ele>595.094360</ele><time>2021-07-17T10:29:06Z</time><extensions><speed>0.404068</speed><course>261.197876</course><hAcc>0.890537</hAcc><vAcc>0.720936</vAcc></extensions></trkpt>
      <trkpt lon="-4.134624" lat="53.003413"><ele>595.412415</ele><time>2021-07-17T10:29:07Z</time><extensions><speed>0.441274</speed><course>263.217255</course><hAcc>0.890327</hAcc><vAcc>0.720149</vAcc></extensions></trkpt>
      <trkpt lon="-4.134626" lat="53.003409"><ele>595.727417</ele><time>2021-07-17T10:29:08Z</time><extensions><speed>0.481143</speed><course>271.463165</course><hAcc>0.890126</hAcc><vAcc>0.719418</vAcc></extensions></trkpt>
      <trkpt lon="-4.134628" lat="53.003405"><ele>596.038208</ele><time>2021-07-17T10:29:09Z</time><extensions><speed>0.520347</speed><course>281.991608</course><hAcc>0.889940</hAcc><vAcc>0.718770</vAcc></extensions></trkpt>
      <trkpt lon="-4.134630" lat="53.003400"><ele>596.344116</ele><time>2021-07-17T10:29:10Z</time><extensions><speed>0.557045</speed><course>285.895782</course><hAcc>0.889773</hAcc><vAcc>0.718221</vAcc></extensions></trkpt>
      <trkpt lon="-4.134632" lat="53.003395"><ele>596.644836</ele><time>2021-07-17T10:29:11Z</time><extensions><speed>0.590356</speed><course>287.327179</course><hAcc>0.889629</hAcc><vAcc>0.717777</vAcc></extensions></trkpt>
      <trkpt lon="-4.134634" lat="53.003390"><ele>596.940247</ele><time>2021-07-17T10:29:12Z</time><extensions><speed>0.619788</speed><course>297.396240</course><hAcc>0.889508</hAcc><vAcc>0.717434</vAcc></extensions></trkpt>
      <trkpt lon="-4.134636" lat="53.003384"><ele>597.230103</ele><time>2021-07-17T10:29:13Z</time><extensions><speed>0.645059</speed><course>299.473175</course><hAcc>0.889410</hAcc><vAcc>0.717184</vAcc></extensions></trkpt>
      <trkpt lon="-4.134638" lat="53.003378"><ele>597.514404</ele><time>2021-07-17T10:29:14Z</time><extensions><speed>0.665972</speed><course>297.683289</course><hAcc>0.889332</hAcc><vAcc>0.717009</vAcc></extensions></trkpt>
      <trkpt lon="-4.134641" lat="53.003372"><ele>597.793274</ele><time>2021-07-17T10:29:15Z</time><extensions><speed>0.682348</speed><course>292.365356</course><hAcc>0.889272</hAcc><vAcc>0.716890</vAcc></extensions></trkpt>
      <trkpt lon="-4.134644" lat="53.003366"><ele>598.067139</ele><time>2021-07-17T10:29:16Z</time><extensions><speed>0.694167</speed><course>291.092651</course><hAcc>0.889227</hAcc><vAcc>0.716804</vAcc></extensions></trkpt>
      <trkpt lon="-4.134646" lat="53.003360"><ele>598.336426</ele><time>2021-07-17T10:29:17Z</time><extensions><speed>0.701597</speed><course>297.007721</course><hAcc>0.889193</hAcc><vAcc>0.716733</vAcc></extensions></trkpt>
      <trkpt lon="-4.134649" lat="53.003354"><ele>598.600891</ele><time>2021-07-17T10:29:18Z</time><extensions><speed>0.705186</speed><course>291.539093</course><hAcc>0.889166</hAcc><vAcc>0.716664</vAcc></extensions></trkpt>
      <trkpt lon="-4.134652" lat="53.003348"><ele>598.860107</ele><time>2021-07-17T10:29:19Z</time><extensions><speed>0.705985</speed><course>293.314819</course><hAcc>0.889144</hAcc><vAcc>0.716589</vAcc></extensions></trkpt>
      <trkpt lon="-4.134654" lat="53.003342"><ele>599.113647</ele><time>2021-07-17T10:29:20Z</time><extensions><speed>0.705350</speed><course>297.043213</course><hAcc>0.889122</hAcc><vAcc>0.716506</vAcc></extensions></trkpt>
      <trkpt lon="-4.134657" lat="53.003336"><ele>599.361267</ele><time>2021-07-17T10:29:21Z</time><extensions><speed>0.704571</speed><course>301.573547</course><hAcc>0.889098</hAcc><vAcc>0.716419</vAcc></extensions></trkpt>
      <trkpt lon="-4.134660" lat="53.003330"><ele>599.602905</ele><time>2021-07-17T10:29:22Z</time><extensions><speed>0.704310</speed><course>305.542847</course><hAcc>0.889067</hAcc><vAcc>0.716330</vAcc></extensions></trkpt>
      <trkpt lon="-4.134662" lat="53.003324"><ele>599.838745</ele><time>2021-07-17T10:29:23Z</time><extensions><speed>0.704708</speed><course>304.461029</course><hAcc>0.889027</hAcc><vAcc>0.716239</vAcc></extensions></trkpt>
      <trkpt lon="-4.134665" lat="53.003318"><ele>600.069031</ele><time>2021-07-17T10:29:24Z</time><extensions><speed>0.705599</speed><course>304.519958</course><hAcc>0.888974</hAcc><vAcc>0.716136</vAcc></extensions></trkpt>
      <trkpt lon="-4.134668" lat="53.003311"><ele>600.294189</ele><time>2021-07-17T10:29:25Z</time><extensions><speed>0.706628</speed><course>306.835541</course><hAcc>0.888906</hAcc><vAcc>0.716004</vAcc></extensions></trkpt>
      <trkpt lon="-4.134670" lat="53.003305"><ele>600.514282</ele><time>2021-07-17T10:29:26Z</time><extensions><speed>0.707468</speed><course>312.924469</course><hAcc>0.888821</hAcc><vAcc>0.715818</vAcc></extensions></trkpt>
      <trkpt lon="-4.134672" lat="53.003299"><ele>600.729309</ele><time>2021-07-17T10:29:27Z</time><extensions><speed>0.707468</speed><course>313.121582</course><hAcc>0.888718</hAcc><vAcc>0.715554</vAcc></extensions></trkpt>
      <trkpt lon="-4.134674" lat="53.003293"><ele>600.938843</ele><time>2021-07-17T10:29:28Z</time><extensions><speed>0.706072</speed><course>312.363678</course><hAcc>0.888599</hAcc><vAcc>0.715197</vAcc></extensions></trkpt>
      <trkpt lon="-4.134676" lat="53.003287"><ele>601.142029</ele><time>2021-07-17T10:29:29Z</time><extensions><speed>0.703390</speed><course>309.905548</course><hAcc>0.888464</hAcc><vAcc>0.714743</vAcc></extensions></trkpt>
      <trkpt lon="-4.134677" lat="53.003280"><ele>601.337646</ele><time>2021-07-17T10:29:30Z</time><extensions><speed>0.699937</speed><course>308.597687</course><hAcc>0.888316</hAcc><vAcc>0.714205</vAcc></extensions></trkpt>
      <trkpt lon="-4.134678" lat="53.003274"><ele>601.524841</ele><time>2021-07-17T10:29:31Z</time><extensions><speed>0.696217</speed><course>307.103394</course><hAcc>0.888158</hAcc><vAcc>0.713614</vAcc></extensions></trkpt>
      <trkpt lon="-4.134679" lat="53.003268"><ele>601.703064</ele><time>2021-07-17T10:29:32Z</time><extensions><speed>0.692403</speed><course>306.897400</course><hAcc>0.887994</hAcc><vAcc>0.713005</vAcc></extensions></trkpt>
      <trkpt lon="-4.134679" lat="53.003262"><ele>601.872070</ele><time>2021-07-17T10:29:33Z</time><extensions><speed>0.688348</speed><course>302.152618</course><hAcc>0.887827</hAcc><vAcc>0.712411</vAcc></extensions></trkpt>
      <trkpt lon="-4.134679" lat="53.003255"><ele>602.031616</ele><time>2021-07-17T10:29:34Z</time><extensions><speed>0.683991</speed><course>297.726410</course><hAcc>0.887662</hAcc><vAcc>0.711857</vAcc></extensions></trkpt>
      <trkpt lon="-4.134679" lat="53.003249"><ele>602.181458</ele><time>2021-07-17T10:29:34Z</time><extensions><speed>0.679628</speed><course>300.194183</course><hAcc>0.887523</hAcc><vAcc>0.711374</vAcc></extensions></trkpt>
      <trkpt lon="-4.134679" lat="53.003243"><ele>602.321716</ele><time>2021-07-17T10:29:35Z</time><extensions><speed>0.675563</speed><course>297.151825</course><hAcc>0.887413</hAcc><vAcc>0.710971</vAcc></extensions></trkpt>
      <trkpt lon="-4.134679" lat="53.003237"><ele>602.452637</ele><time>2021-07-17T10:29:36Z</time><extensions><speed>0.671935</speed><course>298.399384</course><hAcc>0.887316</hAcc><vAcc>0.710639</vAcc></extensions></trkpt>
      <trkpt lon="-4.134678" lat="53.003231"><ele>602.574768</ele><time>2021-07-17T10:29:37Z</time><extensions><speed>0.668837</speed><course>300.837921</course><hAcc>0.887237</hAcc><vAcc>0.710379</vAcc></extensions></trkpt>
      <trkpt lon="-4.134678" lat="53.003225"><ele>602.688538</ele><time>2021-07-17T10:29:38Z</time><extensions><speed>0.666416</speed><course>299.844330</course><hAcc>0.887175</hAcc><vAcc>0.710184</vAcc></extensions></trkpt>
      <trkpt lon="-4.134677" lat="53.003219"><ele>602.794678</ele><time>2021-07-17T10:29:39Z</time><extensions><speed>0.664902</speed><course>300.001373</course><hAcc>0.887131</hAcc><vAcc>0.710050</vAcc></extensions></trkpt>
      <trkpt lon="-4.134677" lat="53.003213"><ele>602.893677</ele><time>2021-07-17T10:29:40Z</time><extensions><speed>0.664538</speed><course>294.568817</course><hAcc>0.887100</hAcc><vAcc>0.709971</vAcc></extensions></trkpt>
      <trkpt lon="-4.134676" lat="53.003207"><ele>602.986084</ele><time>2021-07-17T10:29:41Z</time><extensions><speed>0.665316</speed><course>300.687103</course><hAcc>0.887081</hAcc><vAcc>0.709943</vAcc></extensions></trkpt>
      <trkpt lon="-4.134675" lat="53.003201"><ele>603.072327</ele><time>2021-07-17T10:29:42Z</time><extensions><speed>0.667150</speed><course>297.691925</course><hAcc>0.887069</hAcc><vAcc>0.709956</vAcc></extensions></trkpt>
      <trkpt lon="-4.134674" lat="53.003195"><ele>603.152588</ele><time>2021-07-17T10:29:43Z</time><extensions><speed>0.670130</speed><course>293.928223</course><hAcc>0.887057</hAcc><vAcc>0.709991</vAcc></extensions></trkpt>
      <trkpt lon="-4.134673" lat="53.003189"><ele>603.227051</ele><time>2021-07-17T10:29:44Z</time><extensions><speed>0.674308</speed><course>297.041656</course><hAcc>0.887041</hAcc><vAcc>0.710027</vAcc></extensions></trkpt>
      <trkpt lon="-4.134672" lat="53.003183"><ele>603.295898</ele><time>2021-07-17T10:29:45Z</time><extensions><speed>0.679507</speed><course>298.722290</course><hAcc>0.887016</hAcc><vAcc>0.710034</vAcc></extensions></trkpt>
      <trkpt lon="-4.134671" lat="53.003177"><ele>603.358887</ele><time>2021-07-17T10:29:46Z</time><extensions><speed>0.685312</speed><course>296.674316</course><hAcc>0.886977</hAcc><vAcc>0.709983</vAcc></extensions></trkpt>
      <trkpt lon="-4.134669" lat="53.003171"><ele>603.415588</ele><time>2021-07-17T10:29:47Z</time><extensions><speed>0.691400</speed><course>301.147156</course><hAcc>0.886923</hAcc><vAcc>0.709850</vAcc></extensions></trkpt>
      <trkpt lon="-4.134668" lat="53.003165"><ele>603.464844</ele><time>2021-07-17T10:29:48Z</time><extensions><speed>0.698020</speed><course>301.618805</course><hAcc>0.886850</hAcc><vAcc>0.709621</vAcc></extensions></trkpt>
      <trkpt lon="-4.134666" lat="53.003159"><ele>603.504578</ele><time>2021-07-17T10:29:49Z</time><extensions><speed>0.705915</speed><course>300.678009</course><hAcc>0.886761</hAcc><vAcc>0.709300</vAcc></extensions></trkpt>
      <trkpt lon="-4.134664" lat="53.003152"><ele>603.532837</ele><time>2021-07-17T10:29:50Z</time><extensions><speed>0.716026</speed><course>306.078644</course><hAcc>0.886658</hAcc><vAcc>0.708901</vAcc></extensions></trkpt>
      <trkpt lon="-4.134661" lat="53.003146"><ele>603.548523</ele><time>2021-07-17T10:29:51Z</time><extensions><speed>0.729204</speed><course>302.099213</course><hAcc>0.886545</hAcc><vAcc>0.708450</vAcc></extensions></trkpt>
      <trkpt lon="-4.134659" lat="53.003140"><ele>603.551270</ele><time>2021-07-17T10:29:52Z</time><extensions><speed>0.745818</speed><course>298.253754</course><hAcc>0.886429</hAcc><vAcc>0.707980</vAcc></extensions></trkpt>
      <trkpt lon="-4.134656" lat="53.003133"><ele>603.541138</ele><time>2021-07-17T10:29:53Z</time><extensions><speed>0.765775</speed><course>299.772583</course><hAcc>0.886318</hAcc><vAcc>0.707525</vAcc></extensions></trkpt>
      <trkpt lon="-4.134652" lat="53.003126"><ele>603.518799</ele><time>2021-07-17T10:29:54Z</time><extensions><speed>0.788695</speed><course>299.946075</course><hAcc>0.886218</hAcc><vAcc>0.707118</vAcc></extensions></trkpt>
      <trkpt lon="-4.134649" lat="53.003120"><ele>603.484985</ele><time>2021-07-17T10:29:55Z</time><extensions><speed>0.813780</speed><course>303.968170</course><hAcc>0.886136</hAcc><vAcc>0.706786</vAcc></extensions></trkpt>
      <trkpt lon="-4.134645" lat="53.003113"><ele>603.440796</ele><time>2021-07-17T10:29:56Z</time><extensions><speed>0.839557</speed><course>302.223755</course><hAcc>0.886079</hAcc><vAcc>0.706555</vAcc></extensions></trkpt>
      <trkpt lon="-4.134641" lat="53.003105"><ele>603.387207</ele><time>2021-07-17T10:29:57Z</time><extensions><speed>0.864308</speed><course>303.590851</course><hAcc>0.886052</hAcc><vAcc>0.706444</vAcc></extensions></trkpt>
      <trkpt lon="-4.134637" lat="53.003098"><ele>603.326111</ele><time>2021-07-17T10:29:58Z</time><extensions><speed>0.887059</speed><course>302.656281</course><hAcc>0.886056</hAcc><vAcc>0.706462</vAcc></extensions></trkpt>
      <trkpt lon="-4.134633" lat="53.003090"><ele>603.259644</ele><time>2021-07-17T10:29:59Z</time><extensions><speed>0.907551</speed><course>307.857574</course><hAcc>0.886092</hAcc><vAcc>0.706608</vAcc></extensions></trkpt>
      <trkpt lon="-4.134629" lat="53.003082"><ele>603.190430</ele><time>2021-07-17T10:30:00Z</time><extensions><speed>0.925730</speed><course>306.241272</course><hAcc>0.886160</hAcc><vAcc>0.706870</vAcc></extensions></trkpt>
      <trkpt lon="-4.134626" lat="53.003074"><ele>603.121277</ele><time>2021-07-17T10:30:01Z</time><extensions><speed>0.941806</speed><course>302.560516</course><hAcc>0.886255</hAcc><vAcc>0.707232</vAcc></extensions></trkpt>
      <trkpt lon="-4.134623" lat="53.003066"><ele>603.055176</ele><time>2021-07-17T10:30:02Z</time><extensions><speed>0.956193</speed><course>304.207947</course><hAcc>0.886373</hAcc><vAcc>0.707674</vAcc></extensions></trkpt>
      <trkpt lon="-4.134621" lat="53.003057"><ele>602.994629</ele><time>2021-07-17T10:30:03Z</time><extensions><speed>0.969140</speed><course>304.678192</course><hAcc>0.886510</hAcc><vAcc>0.708171</vAcc></extensions></trkpt>
      <trkpt lon="-4.134619" lat="53.003048"><ele>602.941711</ele><time>2021-07-17T10:30:04Z</time><extensions><speed>0.980483</speed><course>300.816559</course><hAcc>0.886661</hAcc><vAcc>0.708702</vAcc></extensions></trkpt>
      <trkpt lon="-4.134619" lat="53.003040"><ele>602.898010</ele><time>2021-07-17T10:30:05Z</time><extensions><speed>0.989703</speed><course>302.457642</course><hAcc>0.886818</hAcc><vAcc>0.709246</vAcc></extensions></trkpt>
      <trkpt lon="-4.134618" lat="53.003031"><ele>602.864685</ele><time>2021-07-17T10:30:06Z</time><extensions><speed>0.996199</speed><course>303.405792</course><hAcc>0.886978</hAcc><vAcc>0.709785</vAcc></extensions></trkpt>
      <trkpt lon="-4.134618" lat="53.003022"><ele>602.842651</ele><time>2021-07-17T10:30:07Z</time><extensions><speed>0.999383</speed><course>305.179382</course><hAcc>0.887136</hAcc><vAcc>0.710308</vAcc></extensions></trkpt>
      <trkpt lon="-4.134619" lat="53.003013"><ele>602.832092</ele><time>2021-07-17T10:30:08Z</time><extensions><speed>0.998838</speed><course>301.811188</course><hAcc>0.887289</hAcc><vAcc>0.710805</vAcc></extensions></trkpt>
      <trkpt lon="-4.134620" lat="53.003004"><ele>602.832703</ele><time>2021-07-17T10:30:09Z</time><extensions><speed>0.994312</speed><course>294.111877</course><hAcc>0.887434</hAcc><vAcc>0.711270</vAcc></extensions></trkpt>
      <trkpt lon="-4.134621" lat="53.002995"><ele>602.843872</ele><time>2021-07-17T10:30:10Z</time><extensions><speed>0.985631</speed><course>291.186249</course><hAcc>0.887570</hAcc><vAcc>0.711698</vAcc></extensions></trkpt>
      <trkpt lon="-4.134622" lat="53.002986"><ele>602.864441</ele><time>2021-07-17T10:30:11Z</time><extensions><speed>0.972825</speed><course>291.833313</course><hAcc>0.887697</hAcc><vAcc>0.712088</vAcc></extensions></trkpt>
      <trkpt lon="-4.134624" lat="53.002977"><ele>602.893311</ele><time>2021-07-17T10:30:12Z</time><extensions><speed>0.956173</speed><course>293.198639</course><hAcc>0.887814</hAcc><vAcc>0.712439</vAcc></extensions></trkpt>
      <trkpt lon="-4.134625" lat="53.002969"><ele>602.929688</ele><time>2021-07-17T10:30:13Z</time><extensions><speed>0.935733</speed><course>297.953094</course><hAcc>0.887924</hAcc><vAcc>0.712756</vAcc></extensions></trkpt>
      <trkpt lon="-4.134626" lat="53.002961"><ele>602.972839</ele><time>2021-07-17T10:30:14Z</time><extensions><speed>0.911205</speed><course>294.998413</course><hAcc>0.888030</hAcc><vAcc>0.713049</vAcc></extensions></trkpt>
      <trkpt lon="-4.134628" lat="53.002953"><ele>603.021667</ele><time>2021-07-17T10:30:15Z</time><extensions><speed>0.882378</speed><course>290.333923</course><hAcc>0.888133</hAcc><vAcc>0.713329</vAcc></extensions></trkpt>
      <trkpt lon="-4.134630" lat="53.002945"><ele>603.074951</ele><time>2021-07-17T10:30:16Z</time><extensions><speed>0.849204</speed><course>297.336884</course><hAcc>0.888238</hAcc><vAcc>0.713609</vAcc></extensions></trkpt>
      <trkpt lon="-4.134631" lat="53.002938"><ele>603.131592</ele><time>2021-07-17T10:30:17Z</time><extensions><speed>0.811645</speed><course>291.763641</course><hAcc>0.888348</hAcc><vAcc>0.713902</vAcc></extensions></trkpt>
      <trkpt lon="-4.134633" lat="53.002931"><ele>603.190552</ele><time>2021-07-17T10:30:18Z</time><extensions><speed>0.769887</speed><course>293.588959</course><hAcc>0.888469</hAcc><vAcc>0.714223</vAcc></extensions></trkpt>
      <trkpt lon="-4.134635" lat="53.002924"><ele>603.251099</ele><time>2021-07-17T10:30:19Z</time><extensions><speed>0.724402</speed><course>298.534668</course><hAcc>0.888604</hAcc><vAcc>0.714583</vAcc></extensions></trkpt>
      <trkpt lon="-4.134637" lat="53.002918"><ele>603.312561</ele><time>2021-07-17T10:30:21Z</time><extensions><speed>0.675619</speed><course>294.834351</course><hAcc>0.888739</hAcc><vAcc>0.714981</vAcc></extensions></trkpt>
      <trkpt lon="-4.134639" lat="53.002912"><ele>603.374329</ele><time>2021-07-17T10:30:22Z</time><extensions><speed>0.624306</speed><course>297.698059</course><hAcc>0.888877</hAcc><vAcc>0.715424</vAcc></extensions></trkpt>
      <trkpt lon="-4.134642" lat="53.002907"><ele>603.435730</ele><time>2021-07-17T10:30:23Z</time><extensions><speed>0.571093</speed><course>298.511444</course><hAcc>0.889038</hAcc><vAcc>0.715934</vAcc></extensions></trkpt>
      <trkpt lon="-4.134645" lat="53.002902"><ele>603.496521</ele><time>2021-07-17T10:30:24Z</time><extensions><speed>0.516974</speed><course>303.054443</course><hAcc>0.889221</hAcc><vAcc>0.716518</vAcc></extensions></trkpt>
      <trkpt lon="-4.134648" lat="53.002899"><ele>603.556641</ele><time>2021-07-17T10:30:25Z</time><extensions><speed>0.463360</speed><course>300.594757</course><hAcc>0.889425</hAcc><vAcc>0.717180</vAcc></extensions></trkpt>
      <trkpt lon="-4.134651" lat="53.002895"><ele>603.616272</ele><time>2021-07-17T10:30:26Z</time><extensions><speed>0.412141</speed><course>303.489990</course><hAcc>0.889648</hAcc><vAcc>0.717919</vAcc></extensions></trkpt>
      <trkpt lon="-4.134655" lat="53.002892"><ele>603.675293</ele><time>2021-07-17T10:30:27Z</time><extensions><speed>0.365511</speed><course>307.296783</course><hAcc>0.889885</hAcc><vAcc>0.718728</vAcc></extensions></trkpt>
      <trkpt lon="-4.134658" lat="53.002890"><ele>603.733765</ele><time>2021-07-17T10:30:28Z</time><extensions><speed>0.325889</speed><course>306.846466</course><hAcc>0.890132</hAcc><vAcc>0.719594</vAcc></extensions></trkpt>
      <trkpt lon="-4.134662" lat="53.002889"><ele>603.792114</ele><time>2021-07-17T10:30:29Z</time><extensions><speed>0.295684</speed><course>314.303711</course><hAcc>0.890383</hAcc><vAcc>0.720493</vAcc></extensions></trkpt>
      <trkpt lon="-4.134666" lat="53.002887"><ele>603.851379</ele><time>2021-07-17T10:30:30Z</time><extensions><speed>0.276094</speed><course>316.753265</course><hAcc>0.890629</hAcc><vAcc>0.721396</vAcc></extensions></trkpt>
      <trkpt lon="-4.134670" lat="53.002887"><ele>603.913025</ele><time>2021-07-17T10:30:31Z</time><extensions><speed>0.266128</speed><course>312.101562</course><hAcc>0.890863</hAcc><vAcc>0.722270</vAcc></extensions></trkpt>
      <trkpt lon="-4.134674" lat="53.002886"><ele>603.978577</ele><time>2021-07-17T10:30:32Z</time><extensions><speed>0.262886</speed><course>310.983948</course><hAcc>0.891077</hAcc><vAcc>0.723079</vAcc></extensions></trkpt>
      <trkpt lon="-4.134677" lat="53.002886"><ele>604.049927</ele><time>2021-07-17T10:30:33Z</time><extensions><speed>0.262749</speed><course>316.824890</course><hAcc>0.891262</hAcc><vAcc>0.723792</vAcc></extensions></trkpt>
      <trkpt lon="-4.134681" lat="53.002886"><ele>604.129028</ele><time>2021-07-17T10:30:34Z</time><extensions><speed>0.262522</speed><course>324.005005</course><hAcc>0.891414</hAcc><vAcc>0.724377</vAcc></extensions></trkpt>
      <trkpt lon="-4.134685" lat="53.002886"><ele>604.217834</ele><time>2021-07-17T10:30:35Z</time><extensions><speed>0.259913</speed><course>322.091736</course><hAcc>0.891526</hAcc><vAcc>0.724808</vAcc></extensions></trkpt>
      <trkpt lon="-4.134689" lat="53.002886"><ele>604.318176</ele><time>2021-07-17T10:30:36Z</time><extensions><speed>0.254035</speed><course>322.830170</course><hAcc>0.891596</hAcc><vAcc>0.725064</vAcc></extensions></trkpt>
      <trkpt lon="-4.134693" lat="53.002886"><ele>604.431580</ele><time>2021-07-17T10:30:37Z</time><extensions><speed>0.245577</speed><course>325.823517</course><hAcc>0.891623</hAcc><vAcc>0.725137</vAcc></extensions></trkpt>
      <trkpt lon="-4.134696" lat="53.002886"><ele>604.558960</ele><time>2021-07-17T10:30:38Z</time><extensions><speed>0.236385</speed><course>331.853210</course><hAcc>0.891610</hAcc><vAcc>0.725028</vAcc></extensions></trkpt>
      <trkpt lon="-4.134700" lat="53.002886"><ele>604.700562</ele><time>2021-07-17T10:30:39Z</time><extensions><speed>0.228821</speed><course>331.260956</course><hAcc>0.891560</hAcc><vAcc>0.724753</vAcc></extensions></trkpt>
      <trkpt lon="-4.134703" lat="53.002885"><ele>604.855347</ele><time>2021-07-17T10:30:40Z</time><extensions><speed>0.224432</speed><course>329.072571</course><hAcc>0.891476</hAcc><vAcc>0.724338</vAcc></extensions></trkpt>
      <trkpt lon="-4.134706" lat="53.002885"><ele>605.021301</ele><time>2021-07-17T10:30:41Z</time><extensions><speed>0.223338</speed><course>325.473938</course><hAcc>0.891365</hAcc><vAcc>0.723823</vAcc></extensions></trkpt>
      <trkpt lon="-4.134709" lat="53.002884"><ele>605.195801</ele><time>2021-07-17T10:30:42Z</time><extensions><speed>0.225083</speed><course>325.383026</course><hAcc>0.891232</hAcc><vAcc>0.723252</vAcc></extensions></trkpt>
      <trkpt lon="-4.134713" lat="53.002883"><ele>605.376404</ele><time>2021-07-17T10:30:43Z</time><extensions><speed>0.228787</speed><course>325.061401</course><hAcc>0.891082</hAcc><vAcc>0.722666</vAcc></extensions></trkpt>
      <trkpt lon="-4.134716" lat="53.002882"><ele>605.560913</ele><time>2021-07-17T10:30:44Z</time><extensions><speed>0.232966</speed><course>325.207275</course><hAcc>0.890921</hAcc><vAcc>0.722094</vAcc></extensions></trkpt>
      <trkpt lon="-4.134719" lat="53.002881"><ele>605.747681</ele><time>2021-07-17T10:30:45Z</time><extensions><speed>0.236532</speed><course>322.410889</course><hAcc>0.890755</hAcc><vAcc>0.721552</vAcc></extensions></trkpt>
      <trkpt lon="-4.134722" lat="53.002880"><ele>605.935669</ele><time>2021-07-17T10:30:46Z</time><extensions><speed>0.238842</speed><course>319.218658</course><hAcc>0.890589</hAcc><vAcc>0.721043</vAcc></extensions></trkpt>
      <trkpt lon="-4.134725" lat="53.002879"><ele>606.123962</ele><time>2021-07-17T10:30:47Z</time><extensions><speed>0.239334</speed><course>319.790588</course><hAcc>0.890428</hAcc><vAcc>0.720565</vAcc></extensions></trkpt>
      <trkpt lon="-4.134728" lat="53.002878"><ele>606.311890</ele><time>2021-07-17T10:30:48Z</time><extensions><speed>0.237861</speed><course>318.972229</course><hAcc>0.890275</hAcc><vAcc>0.720110</vAcc></extensions></trkpt>
      <trkpt lon="-4.134731" lat="53.002877"><ele>606.498657</ele><time>2021-07-17T10:30:49Z</time><extensions><speed>0.234690</speed><course>320.354065</course><hAcc>0.890135</hAcc><vAcc>0.719675</vAcc></extensions></trkpt>
      <trkpt lon="-4.134734" lat="53.002875"><ele>606.683594</ele><time>2021-07-17T10:30:50Z</time><extensions><speed>0.230528</speed><course>320.541016</course><hAcc>0.890011</hAcc><vAcc>0.719258</vAcc></extensions></trkpt>
      <trkpt lon="-4.134736" lat="53.002874"><ele>606.865723</ele><time>2021-07-17T10:30:51Z</time><extensions><speed>0.226067</speed><course>317.906189</course><hAcc>0.889906</hAcc><vAcc>0.718869</vAcc></extensions></trkpt>
      <trkpt lon="-4.134738" lat="53.002873"><ele>607.044189</ele><time>2021-07-17T10:30:52Z</time><extensions><speed>0.221609</speed><course>316.077393</course><hAcc>0.889821</hAcc><vAcc>0.718525</vAcc></extensions></trkpt>
      <trkpt lon="-4.134741" lat="53.002871"><ele>607.218262</ele><time>2021-07-17T10:30:53Z</time><extensions><speed>0.217386</speed><course>307.356537</course><hAcc>0.889758</hAcc><vAcc>0.718249</vAcc></extensions></trkpt>
      <trkpt lon="-4.134743" lat="53.002870"><ele>607.387329</ele><time>2021-07-17T10:30:54Z</time><extensions><speed>0.213740</speed><course>302.004150</course><hAcc>0.889719</hAcc><vAcc>0.718067</vAcc></extensions></trkpt>
      <trkpt lon="-4.134745" lat="53.002868"><ele>607.551086</ele><time>2021-07-17T10:30:55Z</time><extensions><speed>0.210771</speed><course>310.520874</course><hAcc>0.889705</hAcc><vAcc>0.717998</vAcc></extensions></trkpt>
      <trkpt lon="-4.134747" lat="53.002867"><ele>607.709167</ele><time>2021-07-17T10:30:56Z</time><extensions><speed>0.209195</speed><course>307.778412</course><hAcc>0.889715</hAcc><vAcc>0.718046</vAcc></extensions></trkpt>
      <trkpt lon="-4.134750" lat="53.002866"><ele>607.861572</ele><time>2021-07-17T10:30:57Z</time><extensions><speed>0.210699</speed><course>310.132080</course><hAcc>0.889750</hAcc><vAcc>0.718207</vAcc></extensions></trkpt>
      <trkpt lon="-4.134753" lat="53.002865"><ele>608.008728</ele><time>2021-07-17T10:30:58Z</time><extensions><speed>0.216521</speed><course>310.327301</course><hAcc>0.889807</hAcc><vAcc>0.718460</vAcc></extensions></trkpt>
      <trkpt lon="-4.134756" lat="53.002864"><ele>608.151306</ele><time>2021-07-17T10:30:59Z</time><extensions><speed>0.226422</speed><course>308.925873</course><hAcc>0.889884</hAcc><vAcc>0.718781</vAcc></extensions></trkpt>
      <trkpt lon="-4.134759" lat="53.002864"><ele>608.290161</ele><time>2021-07-17T10:31:00Z</time><extensions><speed>0.238760</speed><course>308.955322</course><hAcc>0.889979</hAcc><vAcc>0.719144</vAcc></extensions></trkpt>
      <trkpt lon="-4.134763" lat="53.002863"><ele>608.426147</ele><time>2021-07-17T10:31:01Z</time><extensions><speed>0.251431</speed><course>303.152588</course><hAcc>0.890087</hAcc><vAcc>0.719530</vAcc></extensions></trkpt>
      <trkpt lon="-4.134767" lat="53.002863"><ele>608.560181</ele><time>2021-07-17T10:31:02Z</time><extensions><speed>0.262811</speed><course>313.156525</course><hAcc>0.890203</hAcc><vAcc>0.719924</vAcc></extensions></trkpt>
      <trkpt lon="-4.134770" lat="53.002863"><ele>608.693054</ele><time>2021-07-17T10:31:03Z</time><extensions><speed>0.271988</speed><course>307.864197</course><hAcc>0.890324</hAcc><vAcc>0.720318</vAcc></extensions></trkpt>
      <trkpt lon="-4.134774" lat="53.002862"><ele>608.825500</ele><time>2021-07-17T10:31:04Z</time><extensions><speed>0.278390</speed><course>309.541687</course><hAcc>0.890444</hAcc><vAcc>0.720705</vAcc></extensions></trkpt>
      <trkpt lon="-4.134779" lat="53.002862"><ele>608.958252</ele><time>2021-07-17T10:31:05Z</time><extensions><speed>0.281513</speed><course>312.130341</course><hAcc>0.890557</hAcc><vAcc>0.721081</vAcc></extensions></trkpt>
      <trkpt lon="-4.134783" lat="53.002861"><ele>609.091675</ele><time>2021-07-17T10:31:06Z</time><extensions><speed>0.281316</speed><course>310.268982</course><hAcc>0.890660</hAcc><vAcc>0.721439</vAcc></extensions></trkpt>
      <trkpt lon="-4.134787" lat="53.002861"><ele>609.225769</ele><time>2021-07-17T10:31:07Z</time><extensions><speed>0.278902</speed><course>308.247070</course><hAcc>0.890748</hAcc><vAcc>0.721770</vAcc></extensions></trkpt>
      <trkpt lon="-4.134791" lat="53.002860"><ele>609.360779</ele><time>2021-07-17T10:31:08Z</time><extensions><speed>0.276840</speed><course>304.229858</course><hAcc>0.890815</hAcc><vAcc>0.722061</vAcc></extensions></trkpt>
      <trkpt lon="-4.134794" lat="53.002859"><ele>609.497314</ele><time>2021-07-17T10:31:09Z</time><extensions><speed>0.277777</speed><course>308.310059</course><hAcc>0.890860</hAcc><vAcc>0.722291</vAcc></extensions></trkpt>
      <trkpt lon="-4.134798" lat="53.002857"><ele>609.635986</ele><time>2021-07-17T10:31:10Z</time><extensions><speed>0.282882</speed><course>311.142822</course><hAcc>0.890879</hAcc><vAcc>0.722442</vAcc></extensions></trkpt>
      <trkpt lon="-4.134801" lat="53.002856"><ele>609.777344</ele><time>2021-07-17T10:31:11Z</time><extensions><speed>0.292030</speed><course>305.518036</course><hAcc>0.890872</hAcc><vAcc>0.722494</vAcc></extensions></trkpt>
      <trkpt lon="-4.134804" lat="53.002854"><ele>609.921387</ele><time>2021-07-17T10:31:12Z</time><extensions><speed>0.304009</speed><course>303.061462</course><hAcc>0.890840</hAcc><vAcc>0.722428</vAcc></extensions></trkpt>
      <trkpt lon="-4.134807" lat="53.002852"><ele>610.067810</ele><time>2021-07-17T10:31:13Z</time><extensions><speed>0.317347</speed><course>298.232086</course><hAcc>0.890786</hAcc><vAcc>0.722237</vAcc></extensions></trkpt>
      <trkpt lon="-4.134810" lat="53.002849"><ele>610.215881</ele><time>2021-07-17T10:31:14Z</time><extensions><speed>0.331059</speed><course>289.358276</course><hAcc>0.890717</hAcc><vAcc>0.721928</vAcc></extensions></trkpt>
      <trkpt lon="-4.134813" lat="53.002847"><ele>610.364624</ele><time>2021-07-17T10:31:15Z</time><extensions><speed>0.344525</speed><course>285.924469</course><hAcc>0.890636</hAcc><vAcc>0.721526</vAcc></extensions></trkpt>
      <trkpt lon="-4.134816" lat="53.002844"><ele>610.513062</ele><time>2021-07-17T10:31:16Z</time><extensions><speed>0.357249</speed><course>280.520447</course><hAcc>0.890552</hAcc><vAcc>0.721078</vAcc></extensions></trkpt>
      <trkpt lon="-4.134819" lat="53.002841"><ele>610.660278</ele><time>2021-07-17T10:31:17Z</time><extensions><speed>0.368898</speed><course>286.862061</course><hAcc>0.890470</hAcc><vAcc>0.720640</vAcc></extensions></trkpt>
      <trkpt lon="-4.134822" lat="53.002839"><ele>610.805786</ele><time>2021-07-17T10:31:18Z</time><extensions><speed>0.379397</speed><course>295.700317</course><hAcc>0.890399</hAcc><vAcc>0.720261</vAcc></extensions></trkpt>
      <trkpt lon="-4.134825" lat="53.002836"><ele>610.949036</ele><time>2021-07-17T10:31:19Z</time><extensions><speed>0.388977</speed><course>296.161560</course><hAcc>0.890347</hAcc><vAcc>0.719983</vAcc></extensions></trkpt>
      <trkpt lon="-4.134828" lat="53.002833"><ele>611.089783</ele><time>2021-07-17T10:31:20Z</time><extensions><speed>0.398204</speed><course>298.229218</course><hAcc>0.890322</hAcc><vAcc>0.719837</vAcc></extensions></trkpt>
      <trkpt lon="-4.134832" lat="53.002830"><ele>611.228088</ele><time>2021-07-17T10:31:21Z</time><extensions><speed>0.407422</speed><course>297.545471</course><hAcc>0.890329</hAcc><vAcc>0.719837</vAcc></extensions></trkpt>
      <trkpt lon="-4.134836" lat="53.002827"><ele>611.364197</ele><time>2021-07-17T10:31:22Z</time><extensions><speed>0.416392</speed><course>292.454163</course><hAcc>0.890375</hAcc><vAcc>0.719988</vAcc></extensions></trkpt>
      <trkpt lon="-4.134841" lat="53.002825"><ele>611.498718</ele><time>2021-07-17T10:31:23Z</time><extensions><speed>0.425606</speed><course>287.195465</course><hAcc>0.890462</hAcc><vAcc>0.720287</vAcc></extensions></trkpt>
      <trkpt lon="-4.134845" lat="53.002822"><ele>611.632324</ele><time>2021-07-17T10:31:24Z</time><extensions><speed>0.436440</speed><course>283.339600</course><hAcc>0.890589</hAcc><vAcc>0.720728</vAcc></extensions></trkpt>
      <trkpt lon="-4.134850" lat="53.002819"><ele>611.765991</ele><time>2021-07-17T10:31:25Z</time><extensions><speed>0.449715</speed><course>283.687531</course><hAcc>0.890755</hAcc><vAcc>0.721304</vAcc></extensions></trkpt>
      <trkpt lon="-4.134856" lat="53.002817"><ele>611.900330</ele><time>2021-07-17T10:31:26Z</time><extensions><speed>0.465362</speed><course>284.089417</course><hAcc>0.890955</hAcc><vAcc>0.722002</vAcc></extensions></trkpt>
      <trkpt lon="-4.134861" lat="53.002814"><ele>612.035950</ele><time>2021-07-17T10:31:27Z</time><extensions><speed>0.482775</speed><course>286.432800</course><hAcc>0.891183</hAcc><vAcc>0.722804</vAcc></extensions></trkpt>
      <trkpt lon="-4.134867" lat="53.002812"><ele>612.173706</ele><time>2021-07-17T10:31:28Z</time><extensions><speed>0.501883</speed><course>288.844025</course><hAcc>0.891432</hAcc><vAcc>0.723686</vAcc></extensions></trkpt>
      <trkpt lon="-4.134874" lat="53.002809"><ele>612.314575</ele><time>2021-07-17T10:31:29Z</time><extensions><speed>0.523370</speed><course>294.600861</course><hAcc>0.891692</hAcc><vAcc>0.724615</vAcc></extensions></trkpt>
      <trkpt lon="-4.134880" lat="53.002806"><ele>612.460144</ele><time>2021-07-17T10:31:30Z</time><extensions><speed>0.547187</speed><course>289.399475</course><hAcc>0.891952</hAcc><vAcc>0.725561</vAcc></extensions></trkpt>
      <trkpt lon="-4.134887" lat="53.002804"><ele>612.612183</ele><time>2021-07-17T10:31:31Z</time><extensions><speed>0.572362</speed><course>292.462738</course><hAcc>0.892203</hAcc><vAcc>0.726490</vAcc></extensions></trkpt>
      <trkpt lon="-4.134894" lat="53.002801"><ele>612.772522</ele><time>2021-07-17T10:31:32Z</time><extensions><speed>0.597669</speed><course>292.044128</course><hAcc>0.892431</hAcc><vAcc>0.727367</vAcc></extensions></trkpt>
      <trkpt lon="-4.134902" lat="53.002797"><ele>612.942993</ele><time>2021-07-17T10:31:33Z</time><extensions><speed>0.621411</speed><course>289.426849</course><hAcc>0.892626</hAcc><vAcc>0.728155</vAcc></extensions></trkpt>
      <trkpt lon="-4.134909" lat="53.002794"><ele>613.125549</ele><time>2021-07-17T10:31:34Z</time><extensions><speed>0.642213</speed><course>292.821838</course><hAcc>0.892777</hAcc><vAcc>0.728810</vAcc></extensions></trkpt>
      <trkpt lon="-4.134917" lat="53.002790"><ele>613.321777</ele><time>2021-07-17T10:31:35Z</time><extensions><speed>0.659516</speed><course>287.405121</course><hAcc>0.892876</hAcc><vAcc>0.729293</vAcc></extensions></trkpt>
      <trkpt lon="-4.134924" lat="53.002786"><ele>613.533081</ele><time>2021-07-17T10:31:36Z</time><extensions><speed>0.673225</speed><course>289.328461</course><hAcc>0.892916</hAcc><vAcc>0.729564</vAcc></extensions></trkpt>
      <trkpt lon="-4.134931" lat="53.002782"><ele>613.760376</ele><time>2021-07-17T10:31:37Z</time><extensions><speed>0.683120</speed><course>290.686554</course><hAcc>0.892895</hAcc><vAcc>0.729593</vAcc></extensions></trkpt>
      <trkpt lon="-4.134938" lat="53.002777"><ele>614.004211</ele><time>2021-07-17T10:31:38Z</time><extensions><speed>0.689118</speed><course>291.519623</course><hAcc>0.892812</hAcc><vAcc>0.729361</vAcc></extensions></trkpt>
      <trkpt lon="-4.134944" lat="53.002772"><ele>614.264404</ele><time>2021-07-17T10:31:39Z</time><extensions><speed>0.692011</speed><course>289.260345</course><hAcc>0.892671</hAcc><vAcc>0.728864</vAcc></extensions></trkpt>
      <trkpt lon="-4.134950" lat="53.002767"><ele>614.539978</ele><time>2021-07-17T10:31:40Z</time><extensions><speed>0.692423</speed><course>291.671295</course><hAcc>0.892477</hAcc><vAcc>0.728119</vAcc></extensions></trkpt>
      <trkpt lon="-4.134955" lat="53.002762"><ele>614.828979</ele><time>2021-07-17T10:31:41Z</time><extensions><speed>0.690501</speed><course>285.797272</course><hAcc>0.892238</hAcc><vAcc>0.727158</vAcc></extensions></trkpt>
      <trkpt lon="-4.134959" lat="53.002756"><ele>615.128296</ele><time>2021-07-17T10:31:42Z</time><extensions><speed>0.686180</speed><course>284.045776</course><hAcc>0.891964</hAcc><vAcc>0.726038</vAcc></extensions></trkpt>
      <trkpt lon="-4.134963" lat="53.002750"><ele>615.433899</ele><time>2021-07-17T10:31:43Z</time><extensions><speed>0.679225</speed><course>290.744446</course><hAcc>0.891665</hAcc><vAcc>0.724828</vAcc></extensions></trkpt>
      <trkpt lon="-4.134967" lat="53.002745"><ele>615.741638</ele><time>2021-07-17T10:31:44Z</time><extensions><speed>0.669430</speed><course>286.155334</course><hAcc>0.891352</hAcc><vAcc>0.723602</vAcc></extensions></trkpt>
      <trkpt lon="-4.134970" lat="53.002739"><ele>616.047363</ele><time>2021-07-17T10:31:45Z</time><extensions><speed>0.656439</speed><course>292.078705</course><hAcc>0.891036</hAcc><vAcc>0.722423</vAcc></extensions></trkpt>
      <trkpt lon="-4.134973" lat="53.002734"><ele>616.347412</ele><time>2021-07-17T10:31:46Z</time><extensions><speed>0.639985</speed><course>292.906311</course><hAcc>0.890728</hAcc><vAcc>0.721338</vAcc></extensions></trkpt>
      <trkpt lon="-4.134975" lat="53.002728"><ele>616.638367</ele><time>2021-07-17T10:31:46Z</time><extensions><speed>0.620340</speed><course>291.462067</course><hAcc>0.890459</hAcc><vAcc>0.720394</vAcc></extensions></trkpt>
      <trkpt lon="-4.134978" lat="53.002723"><ele>616.918091</ele><time>2021-07-17T10:31:47Z</time><extensions><speed>0.597777</speed><course>290.448425</course><hAcc>0.890237</hAcc><vAcc>0.719609</vAcc></extensions></trkpt>
      <trkpt lon="-4.134980" lat="53.002718"><ele>617.184265</ele><time>2021-07-17T10:31:48Z</time><extensions><speed>0.572638</speed><course>295.857269</course><hAcc>0.890052</hAcc><vAcc>0.718985</vAcc></extensions></trkpt>
      <trkpt lon="-4.134983" lat="53.002713"><ele>617.435547</ele><time>2021-07-17T10:31:49Z</time><extensions><speed>0.545421</speed><course>298.185364</course><hAcc>0.889910</hAcc><vAcc>0.718529</vAcc></extensions></trkpt>
      <trkpt lon="-4.134986" lat="53.002709"><ele>617.670959</ele><time>2021-07-17T10:31:50Z</time><extensions><speed>0.516908</speed><course>294.469940</course><hAcc>0.889813</hAcc><vAcc>0.718239</vAcc></extensions></trkpt>
      <trkpt lon="-4.134989" lat="53.002705"><ele>617.890259</ele><time>2021-07-17T10:31:51Z</time><extensions><speed>0.488025</speed><course>292.898438</course><hAcc>0.889763</hAcc><vAcc>0.718110</vAcc></extensions></trkpt>
      <trkpt lon="-4.134993" lat="53.002701"><ele>618.093018</ele><time>2021-07-17T10:31:52Z</time><extensions><speed>0.459763</speed><course>292.422791</course><hAcc>0.889759</hAcc><vAcc>0.718132</vAcc></extensions></trkpt>
      <trkpt lon="-4.134996" lat="53.002698"><ele>618.278992</ele><time>2021-07-17T10:31:53Z</time><extensions><speed>0.433244</speed><course>292.622986</course><hAcc>0.889799</hAcc><vAcc>0.718292</vAcc></extensions></trkpt>
      <trkpt lon="-4.135001" lat="53.002695"><ele>618.447815</ele><time>2021-07-17T10:31:54Z</time><extensions><speed>0.409615</speed><course>292.749084</course><hAcc>0.889881</hAcc><vAcc>0.718579</vAcc></extensions></trkpt>
      <trkpt lon="-4.135005" lat="53.002692"><ele>618.599426</ele><time>2021-07-17T10:31:55Z</time><extensions><speed>0.389926</speed><course>294.832458</course><hAcc>0.889999</hAcc><vAcc>0.718984</vAcc></extensions></trkpt>
      <trkpt lon="-4.135010" lat="53.002691"><ele>618.734131</ele><time>2021-07-17T10:31:56Z</time><extensions><speed>0.375139</speed><course>290.563019</course><hAcc>0.890152</hAcc><vAcc>0.719496</vAcc></extensions></trkpt>
      <trkpt lon="-4.135015" lat="53.002689"><ele>618.852661</ele><time>2021-07-17T10:31:57Z</time><extensions><speed>0.365816</speed><course>288.082062</course><hAcc>0.890333</hAcc><vAcc>0.720107</vAcc></extensions></trkpt>
      <trkpt lon="-4.135020" lat="53.002689"><ele>618.955688</ele><time>2021-07-17T10:31:58Z</time><extensions><speed>0.361509</speed><course>289.238037</course><hAcc>0.890541</hAcc><vAcc>0.720804</vAcc></extensions></trkpt>
      <trkpt lon="-4.135026" lat="53.002688"><ele>619.044373</ele><time>2021-07-17T10:31:59Z</time><extensions><speed>0.361107</speed><course>289.037109</course><hAcc>0.890769</hAcc><vAcc>0.721576</vAcc></extensions></trkpt>
      <trkpt lon="-4.135031" lat="53.002688"><ele>619.120117</ele><time>2021-07-17T10:32:00Z</time><extensions><speed>0.363239</speed><course>291.884949</course><hAcc>0.891014</hAcc><vAcc>0.722407</vAcc></extensions></trkpt>
      <trkpt lon="-4.135036" lat="53.002689"><ele>619.185059</ele><time>2021-07-17T10:32:01Z</time><extensions><speed>0.366640</speed><course>287.567657</course><hAcc>0.891273</hAcc><vAcc>0.723277</vAcc></extensions></trkpt>
      <trkpt lon="-4.135042" lat="53.002690"><ele>619.241821</ele><time>2021-07-17T10:32:02Z</time><extensions><speed>0.370585</speed><course>291.768890</course><hAcc>0.891541</hAcc><vAcc>0.724168</vAcc></extensions></trkpt>
      <trkpt lon="-4.135047" lat="53.002691"><ele>619.293274</ele><time>2021-07-17T10:32:03Z</time><extensions><speed>0.374758</speed><course>296.126740</course><hAcc>0.891813</hAcc><vAcc>0.725064</vAcc></extensions></trkpt>
      <trkpt lon="-4.135052" lat="53.002693"><ele>619.342102</ele><time>2021-07-17T10:32:04Z</time><extensions><speed>0.378369</speed><course>297.059143</course><hAcc>0.892084</hAcc><vAcc>0.725954</vAcc></extensions></trkpt>
      <trkpt lon="-4.135057" lat="53.002695"><ele>619.391235</ele><time>2021-07-17T10:32:05Z</time><extensions><speed>0.380080</speed><course>303.696320</course><hAcc>0.892348</hAcc><vAcc>0.726826</vAcc></extensions></trkpt>
      <trkpt lon="-4.135061" lat="53.002697"><ele>619.443665</ele><time>2021-07-17T10:32:06Z</time><extensions><speed>0.379069</speed><course>307.460022</course><hAcc>0.892598</hAcc><vAcc>0.727670</vAcc></extensions></trkpt>
      <trkpt lon="-4.135066" lat="53.002699"><ele>619.502686</ele><time>2021-07-17T10:32:07Z</time><extensions><speed>0.375190</speed><course>302.094666</course><hAcc>0.892827</hAcc><vAcc>0.728470</vAcc></extensions></trkpt>
      <trkpt lon="-4.135070" lat="53.002700"><ele>619.571594</ele><time>2021-07-17T10:32:08Z</time><extensions><speed>0.368526</speed><course>294.763123</course><hAcc>0.893027</hAcc><vAcc>0.729208</vAcc></extensions></trkpt>
      <trkpt lon="-4.135075" lat="53.002702"><ele>619.653687</ele><time>2021-07-17T10:32:09Z</time><extensions><speed>0.359405</speed><course>292.310913</course><hAcc>0.893191</hAcc><vAcc>0.729863</vAcc></extensions></trkpt>
      <trkpt lon="-4.135079" lat="53.002704"><ele>619.752075</ele><time>2021-07-17T10:32:10Z</time><extensions><speed>0.348850</speed><course>286.252472</course><hAcc>0.893313</hAcc><vAcc>0.730404</vAcc></extensions></trkpt>
      <trkpt lon="-4.135084" lat="53.002706"><ele>619.869568</ele><time>2021-07-17T10:32:11Z</time><extensions><speed>0.338331</speed><course>277.085999</course><hAcc>0.893387</hAcc><vAcc>0.730801</vAcc></extensions></trkpt>
      <trkpt lon="-4.135088" lat="53.002707"><ele>620.008606</ele><time>2021-07-17T10:32:12Z</time><extensions><speed>0.329159</speed><course>269.880463</course><hAcc>0.893411</hAcc><vAcc>0.731020</vAcc></extensions></trkpt>
      <trkpt lon="-4.135093" lat="53.002708"><ele>620.170898</ele><time>2021-07-17T10:32:13Z</time><extensions><speed>0.321827</speed><course>256.014618</course><hAcc>0.893383</hAcc><vAcc>0.731031</vAcc></extensions></trkpt>
      <trkpt lon="-4.135097" lat="53.002709"><ele>620.357300</ele><time>2021-07-17T10:32:14Z</time><extensions><speed>0.315953</speed><course>250.524368</course><hAcc>0.893308</hAcc><vAcc>0.730817</vAcc></extensions></trkpt>
      <trkpt lon="-4.135102" lat="53.002709"><ele>620.567627</ele><time>2021-07-17T10:32:15Z</time><extensions><speed>0.311403</speed><course>237.491638</course><hAcc>0.893188</hAcc><vAcc>0.730372</vAcc></extensions></trkpt>
      <trkpt lon="-4.135106" lat="53.002709"><ele>620.800171</ele><time>2021-07-17T10:32:16Z</time><extensions><speed>0.308270</speed><course>231.976761</course><hAcc>0.893029</hAcc><vAcc>0.729714</vAcc></extensions></trkpt>
      <trkpt lon="-4.135111" lat="53.002709"><ele>621.052063</ele><time>2021-07-17T10:32:17Z</time><extensions><speed>0.306383</speed><course>228.504318</course><hAcc>0.892839</hAcc><vAcc>0.728879</vAcc></extensions></trkpt>
      <trkpt lon="-4.135115" lat="53.002709"><ele>621.319153</ele><time>2021-07-17T10:32:18Z</time><extensions><speed>0.305729</speed><course>227.577087</course><hAcc>0.892623</hAcc><vAcc>0.727930</vAcc></extensions></trkpt>
      <trkpt lon="-4.135120" lat="53.002708"><ele>621.596802</ele><time>2021-07-17T10:32:19Z</time><extensions><speed>0.306242</speed><course>219.513672</course><hAcc>0.892387</hAcc><vAcc>0.726932</vAcc></extensions></trkpt>
      <trkpt lon="-4.135124" lat="53.002708"><ele>621.880798</ele><time>2021-07-17T10:32:20Z</time><extensions><speed>0.307637</speed><course>224.903015</course><hAcc>0.892139</hAcc><vAcc>0.725945</vAcc></extensions></trkpt>
      <trkpt lon="-4.135129" lat="53.002707"><ele>622.167480</ele><time>2021-07-17T10:32:21Z</time><extensions><speed>0.309719</speed><course>222.390198</course><hAcc>0.891889</hAcc><vAcc>0.725014</vAcc></extensions></trkpt>
      <trkpt lon="-4.135133" lat="53.002706"><ele>622.454285</ele><time>2021-07-17T10:32:22Z</time><extensions><speed>0.312721</speed><course>223.313202</course><hAcc>0.891646</hAcc><vAcc>0.724165</vAcc></extensions></trkpt>
      <trkpt lon="-4.135138" lat="53.002705"><ele>622.739441</ele><time>2021-07-17T10:32:23Z</time><extensions><speed>0.316912</speed><course>224.045700</course><hAcc>0.891415</hAcc><vAcc>0.723413</vAcc></extensions></trkpt>
      <trkpt lon="-4.135142" lat="53.002704"><ele>623.021851</ele><time>2021-07-17T10:32:24Z</time><extensions><speed>0.322349</speed><course>224.975723</course><hAcc>0.891205</hAcc><vAcc>0.722761</vAcc></extensions></trkpt>
      <trkpt lon="-4.135147" lat="53.002703"><ele>623.300476</ele><time>2021-07-17T10:32:25Z</time><extensions><speed>0.329380</speed><course>226.513992</course><hAcc>0.891019</hAcc><vAcc>0.722205</vAcc></extensions></trkpt>
      <trkpt lon="-4.135151" lat="53.002702"><ele>623.574402</ele><time>2021-07-17T10:32:26Z</time><extensions><speed>0.338434</speed><course>227.291473</course><hAcc>0.890858</hAcc><vAcc>0.721739</vAcc></extensions></trkpt>
      <trkpt lon="-4.135156" lat="53.002701"><ele>623.842407</ele><time>2021-07-17T10:32:27Z</time><extensions><speed>0.349838</speed><course>231.833313</course><hAcc>0.890724</hAcc><vAcc>0.721353</vAcc></extensions></trkpt>
      <trkpt lon="-4.135161" lat="53.002700"><ele>624.103760</ele><time>2021-07-17T10:32:28Z</time><extensions><speed>0.363773</speed><course>230.421005</course><hAcc>0.890615</hAcc><vAcc>0.721040</vAcc></extensions></trkpt>
      <trkpt lon="-4.135167" lat="53.002699"><ele>624.358154</ele><time>2021-07-17T10:32:29Z</time><extensions><speed>0.379880</speed><course>235.980087</course><hAcc>0.890533</hAcc><vAcc>0.720792</vAcc></extensions></trkpt>
      <trkpt lon="-4.135172" lat="53.002698"><ele>624.606079</ele><time>2021-07-17T10:32:30Z</time><extensions><speed>0.397185</speed><course>243.213364</course><hAcc>0.890476</hAcc><vAcc>0.720605</vAcc></extensions></trkpt>
      <trkpt lon="-4.135178" lat="53.002697"><ele>624.848083</ele><time>2021-07-17T10:32:31Z</time><extensions><speed>0.414849</speed><course>253.165268</course><hAcc>0.890443</hAcc><vAcc>0.720478</vAcc></extensions></trkpt>
      <trkpt lon="-4.135184" lat="53.002696"><ele>625.084534</ele><time>2021-07-17T10:32:32Z</time><extensions><speed>0.432072</speed><course>266.505096</course><hAcc>0.890434</hAcc><vAcc>0.720416</vAcc></extensions></trkpt>
      <trkpt lon="-4.135190" lat="53.002694"><ele>625.315613</ele><time>2021-07-17T10:32:33Z</time><extensions><speed>0.447910</speed><course>267.255646</course><hAcc>0.890449</hAcc><vAcc>0.720424</vAcc></extensions></trkpt>
      <trkpt lon="-4.135196" lat="53.002693"><ele>625.541504</ele><time>2021-07-17T10:32:34Z</time><extensions><speed>0.461618</speed><course>271.176971</course><hAcc>0.890487</hAcc><vAcc>0.720511</vAcc></extensions></trkpt>
      <trkpt lon="-4.135203" lat="53.002691"><ele>625.762085</ele><time>2021-07-17T10:32:35Z</time><extensions><speed>0.472621</speed><course>283.145996</course><hAcc>0.890548</hAcc><vAcc>0.720685</vAcc></extensions></trkpt>
      <trkpt lon="-4.135209" lat="53.002690"><ele>625.977295</ele><time>2021-07-17T10:32:36Z</time><extensions><speed>0.480150</speed><course>291.499756</course><hAcc>0.890631</hAcc><vAcc>0.720950</vAcc></extensions></trkpt>
      <trkpt lon="-4.135216" lat="53.002688"><ele>626.186584</ele><time>2021-07-17T10:32:37Z</time><extensions><speed>0.483043</speed><course>295.960785</course><hAcc>0.890736</hAcc><vAcc>0.721302</vAcc></extensions></trkpt>
      <trkpt lon="-4.135223" lat="53.002687"><ele>626.389648</ele><time>2021-07-17T10:32:38Z</time><extensions><speed>0.480475</speed><course>298.309418</course><hAcc>0.890863</hAcc><vAcc>0.721731</vAcc></extensions></trkpt>
      <trkpt lon="-4.135230" lat="53.002686"><ele>626.586304</ele><time>2021-07-17T10:32:40Z</time><extensions><speed>0.472168</speed><course>301.442566</course><hAcc>0.890993</hAcc><vAcc>0.722203</vAcc></extensions></trkpt>
      <trkpt lon="-4.135236" lat="53.002684"><ele>626.776428</ele><time>2021-07-17T10:32:41Z</time><extensions><speed>0.458469</speed><course>301.820831</course><hAcc>0.891125</hAcc><vAcc>0.722698</vAcc></extensions></trkpt>
      <trkpt lon="-4.135243" lat="53.002683"><ele>626.960876</ele><time>2021-07-17T10:32:42Z</time><extensions><speed>0.440610</speed><course>306.533081</course><hAcc>0.891275</hAcc><vAcc>0.723213</vAcc></extensions></trkpt>
      <trkpt lon="-4.135249" lat="53.002683"><ele>627.140259</ele><time>2021-07-17T10:32:43Z</time><extensions><speed>0.420403</speed><course>310.759277</course><hAcc>0.891439</hAcc><vAcc>0.723742</vAcc></extensions></trkpt>
      <trkpt lon="-4.135255" lat="53.002682"><ele>627.314941</ele><time>2021-07-17T10:32:44Z</time><extensions><speed>0.399318</speed><course>315.721252</course><hAcc>0.891614</hAcc><vAcc>0.724287</vAcc></extensions></trkpt>
      <trkpt lon="-4.135261" lat="53.002682"><ele>627.485229</ele><time>2021-07-17T10:32:45Z</time><extensions><speed>0.378018</speed><course>321.376434</course><hAcc>0.891794</hAcc><vAcc>0.724856</vAcc></extensions></trkpt>
      <trkpt lon="-4.135266" lat="53.002682"><ele>627.651123</ele><time>2021-07-17T10:32:46Z</time><extensions><speed>0.357117</speed><course>321.893402</course><hAcc>0.891975</hAcc><vAcc>0.725453</vAcc></extensions></trkpt>
      <trkpt lon="-4.135271" lat="53.002682"><ele>627.812927</ele><time>2021-07-17T10:32:47Z</time><extensions><speed>0.337718</speed><course>325.867676</course><hAcc>0.892152</hAcc><vAcc>0.726068</vAcc></extensions></trkpt>
      <trkpt lon="-4.135276" lat="53.002683"><ele>627.971130</ele><time>2021-07-17T10:32:48Z</time><extensions><speed>0.320903</speed><course>319.975250</course><hAcc>0.892320</hAcc><vAcc>0.726685</vAcc></extensions></trkpt>
      <trkpt lon="-4.135281" lat="53.002684"><ele>628.126160</ele><time>2021-07-17T10:32:49Z</time><extensions><speed>0.307363</speed><course>320.826599</course><hAcc>0.892475</hAcc><vAcc>0.727280</vAcc></extensions></trkpt>
      <trkpt lon="-4.135285" lat="53.002685"><ele>628.278687</ele><time>2021-07-17T10:32:50Z</time><extensions><speed>0.297258</speed><course>320.826599</course><hAcc>0.892610</hAcc><vAcc>0.727828</vAcc></extensions></trkpt>
      <trkpt lon="-4.135288" lat="53.002686"><ele>628.429749</ele><time>2021-07-17T10:32:51Z</time><extensions><speed>0.290085</speed><course>320.826599</course><hAcc>0.892722</hAcc><vAcc>0.728303</vAcc></extensions></trkpt>
      <trkpt lon="-4.135292" lat="53.002688"><ele>628.580750</ele><time>2021-07-17T10:32:52Z</time><extensions><speed>0.284974</speed><course>320.826599</course><hAcc>0.892804</hAcc><vAcc>0.728680</vAcc></extensions></trkpt>
      <trkpt lon="-4.135294" lat="53.002690"><ele>628.733093</ele><time>2021-07-17T10:32:53Z</time><extensions><speed>0.280803</speed><course>320.826599</course><hAcc>0.892854</hAcc><vAcc>0.728935</vAcc></extensions></trkpt>
      <trkpt lon="-4.135297" lat="53.002692"><ele>628.887939</ele><time>2021-07-17T10:32:54Z</time><extensions><speed>0.276754</speed><course>320.826599</course><hAcc>0.892871</hAcc><vAcc>0.729050</vAcc></extensions></trkpt>
      <trkpt lon="-4.135299" lat="53.002694"><ele>629.045837</ele><time>2021-07-17T10:32:55Z</time><extensions><speed>0.272737</speed><course>320.826599</course><hAcc>0.892855</hAcc><vAcc>0.729014</vAcc></extensions></trkpt>
      <trkpt lon="-4.135301" lat="53.002696"><ele>629.206543</ele><time>2021-07-17T10:32:56Z</time><extensions><speed>0.268301</speed><course>320.826599</course><hAcc>0.892812</hAcc><vAcc>0.728827</vAcc></extensions></trkpt>
      <trkpt lon="-4.135303" lat="53.002698"><ele>629.369202</ele><time>2021-07-17T10:32:57Z</time><extensions><speed>0.262734</speed><course>320.826599</course><hAcc>0.892747</hAcc><vAcc>0.728502</vAcc></extensions></trkpt>
      <trkpt lon="-4.135305" lat="53.002700"><ele>629.532471</ele><time>2021-07-17T10:32:58Z</time><extensions><speed>0.256178</speed><course>320.826599</course><hAcc>0.892668</hAcc><vAcc>0.728069</vAcc></extensions></trkpt>
      <trkpt lon="-4.135307" lat="53.002702"><ele>629.694641</ele><time>2021-07-17T10:32:59Z</time><extensions><speed>0.249770</speed><course>320.826599</course><hAcc>0.892584</hAcc><vAcc>0.727572</vAcc></extensions></trkpt>
      <trkpt lon="-4.135309" lat="53.002704"><ele>629.854065</ele><time>2021-07-17T10:33:00Z</time><extensions><speed>0.244884</speed><course>320.826599</course><hAcc>0.892503</hAcc><vAcc>0.727072</vAcc></extensions></trkpt>
      <trkpt lon="-4.135312" lat="53.002705"><ele>630.008545</ele><time>2021-07-17T10:33:01Z</time><extensions><speed>0.242799</speed><course>320.826599</course><hAcc>0.892433</hAcc><vAcc>0.726632</vAcc></extensions></trkpt>
      <trkpt lon="-4.135315" lat="53.002707"><ele>630.155762</ele><time>2021-07-17T10:33:02Z</time><extensions><speed>0.244538</speed><course>320.826599</course><hAcc>0.892381</hAcc><vAcc>0.726308</vAcc></extensions></trkpt>
      <trkpt lon="-4.135318" lat="53.002708"><ele>630.293640</ele><time>2021-07-17T10:33:03Z</time><extensions><speed>0.250223</speed><course>320.826599</course><hAcc>0.892354</hAcc><vAcc>0.726142</vAcc></extensions></trkpt>
      <trkpt lon="-4.135321" lat="53.002709"><ele>630.420471</ele><time>2021-07-17T10:33:04Z</time><extensions><speed>0.258837</speed><course>320.826599</course><hAcc>0.892356</hAcc><vAcc>0.726152</vAcc></extensions></trkpt>
      <trkpt lon="-4.135325" lat="53.002710"><ele>630.534851</ele><time>2021-07-17T10:33:05Z</time><extensions><speed>0.268404</speed><course>320.826599</course><hAcc>0.892391</hAcc><vAcc>0.726337</vAcc></extensions></trkpt>
      <trkpt lon="-4.135329" lat="53.002710"><ele>630.635925</ele><time>2021-07-17T10:33:06Z</time><extensions><speed>0.276249</speed><course>320.826599</course><hAcc>0.892460</hAcc><vAcc>0.726674</vAcc></extensions></trkpt>
      <trkpt lon="-4.135333" lat="53.002711"><ele>630.722900</ele><time>2021-07-17T10:33:07Z</time><extensions><speed>0.280222</speed><course>320.826599</course><hAcc>0.892562</hAcc><vAcc>0.727132</vAcc></extensions></trkpt>
      <trkpt lon="-4.135337" lat="53.002711"><ele>630.795166</ele><time>2021-07-17T10:33:08Z</time><extensions><speed>0.279388</speed><course>320.826599</course><hAcc>0.892693</hAcc><vAcc>0.727679</vAcc></extensions></trkpt>
      <trkpt lon="-4.135341" lat="53.002711"><ele>630.852417</ele><time>2021-07-17T10:33:09Z</time><extensions><speed>0.273785</speed><course>320.826599</course><hAcc>0.892847</hAcc><vAcc>0.728282</vAcc></extensions></trkpt>
      <trkpt lon="-4.135345" lat="53.002711"><ele>630.894470</ele><time>2021-07-17T10:33:10Z</time><extensions><speed>0.263773</speed><course>320.826569</course><hAcc>0.893018</hAcc><vAcc>0.728916</vAcc></extensions></trkpt>
      <trkpt lon="-4.135349" lat="53.002711"><ele>630.921204</ele><time>2021-07-17T10:33:11Z</time><extensions><speed>0.249586</speed><course>320.826569</course><hAcc>0.893200</hAcc><vAcc>0.729559</vAcc></extensions></trkpt>
      <trkpt lon="-4.135352" lat="53.002711"><ele>630.932922</ele><time>2021-07-17T10:33:12Z</time><extensions><speed>0.231824</speed><course>320.826569</course><hAcc>0.893386</hAcc><vAcc>0.730194</vAcc></extensions></trkpt>
      <trkpt lon="-4.135356" lat="53.002711"><ele>630.930481</ele><time>2021-07-17T10:33:13Z</time><extensions><speed>0.211568</speed><course>320.826569</course><hAcc>0.893572</hAcc><vAcc>0.730807</vAcc></extensions></trkpt>
      <trkpt lon="-4.135359" lat="53.002711"><ele>630.915466</ele><time>2021-07-17T10:33:14Z</time><extensions><speed>0.190327</speed><course>306.179871</course><hAcc>0.893753</hAcc><vAcc>0.731392</vAcc></extensions></trkpt>
      <trkpt lon="-4.135361" lat="53.002710"><ele>630.890076</ele><time>2021-07-17T10:33:15Z</time><extensions><speed>0.169906</speed><course>252.340622</course><hAcc>0.893927</hAcc><vAcc>0.731943</vAcc></extensions></trkpt>
      <trkpt lon="-4.135364" lat="53.002710"><ele>630.856567</ele><time>2021-07-17T10:33:16Z</time><extensions><speed>0.151946</speed><course>240.417450</course><hAcc>0.894093</hAcc><vAcc>0.732459</vAcc></extensions></trkpt>
      <trkpt lon="-4.135366" lat="53.002710"><ele>630.817383</ele><time>2021-07-17T10:33:17Z</time><extensions><speed>0.137766</speed><course>226.735764</course><hAcc>0.894249</hAcc><vAcc>0.732938</vAcc></extensions></trkpt>
      <trkpt lon="-4.135368" lat="53.002709"><ele>630.775024</ele><time>2021-07-17T10:33:18Z</time><extensions><speed>0.128316</speed><course>213.254318</course><hAcc>0.894396</hAcc><vAcc>0.733385</vAcc></extensions></trkpt>
      <trkpt lon="-4.135369" lat="53.002709"><ele>630.731995</ele><time>2021-07-17T10:33:19Z</time><extensions><speed>0.124257</speed><course>209.983795</course><hAcc>0.894533</hAcc><vAcc>0.733800</vAcc></extensions></trkpt>
      <trkpt lon="-4.135371" lat="53.002708"><ele>630.690613</ele><time>2021-07-17T10:33:20Z</time><extensions><speed>0.125891</speed><course>212.464371</course><hAcc>0.894661</hAcc><vAcc>0.734188</vAcc></extensions></trkpt>
      <trkpt lon="-4.135372" lat="53.002707"><ele>630.652771</ele><time>2021-07-17T10:33:21Z</time><extensions><speed>0.133061</speed><course>212.464355</course><hAcc>0.894780</hAcc><vAcc>0.734552</vAcc></extensions></trkpt>
      <trkpt lon="-4.135374" lat="53.002707"><ele>630.619751</ele><time>2021-07-17T10:33:22Z</time><extensions><speed>0.145074</speed><course>212.464355</course><hAcc>0.894887</hAcc><vAcc>0.734892</vAcc></extensions></trkpt>
      <trkpt lon="-4.135375" lat="53.002706"><ele>630.592529</ele><time>2021-07-17T10:33:23Z</time><extensions><speed>0.160839</speed><course>212.464340</course><hAcc>0.894982</hAcc><vAcc>0.735207</vAcc></extensions></trkpt>
      <trkpt lon="-4.135377" lat="53.002704"><ele>630.571960</ele><time>2021-07-17T10:33:24Z</time><extensions><speed>0.179593</speed><course>212.464325</course><hAcc>0.895060</hAcc><vAcc>0.735496</vAcc></extensions></trkpt>
      <trkpt lon="-4.135379" lat="53.002703"><ele>630.558777</ele><time>2021-07-17T10:33:25Z</time><extensions><speed>0.200755</speed><course>212.464325</course><hAcc>0.895119</hAcc><vAcc>0.735748</vAcc></extensions></trkpt>
      <trkpt lon="-4.135380" lat="53.002701"><ele>630.553833</ele><time>2021-07-17T10:33:26Z</time><extensions><speed>0.223634</speed><course>212.464325</course><hAcc>0.895153</hAcc><vAcc>0.735951</vAcc></extensions></trkpt>
      <trkpt lon="-4.135382" lat="53.002699"><ele>630.558105</ele><time>2021-07-17T10:33:27Z</time><extensions><speed>0.247616</speed><course>212.464310</course><hAcc>0.895158</hAcc><vAcc>0.736085</vAcc></extensions></trkpt>
      <trkpt lon="-4.135384" lat="53.002697"><ele>630.572693</ele><time>2021-07-17T10:33:28Z</time><extensions><speed>0.271917</speed><course>305.064514</course><hAcc>0.895130</hAcc><vAcc>0.736125</vAcc></extensions></trkpt>
      <trkpt lon="-4.135385" lat="53.002695"><ele>630.598816</ele><time>2021-07-17T10:33:29Z</time><extensions><speed>0.296174</speed><course>295.507660</course><hAcc>0.895066</hAcc><vAcc>0.736041</vAcc></extensions></trkpt>
      <trkpt lon="-4.135387" lat="53.002692"><ele>630.637817</ele><time>2021-07-17T10:33:30Z</time><extensions><speed>0.320766</speed><course>292.618195</course><hAcc>0.894963</hAcc><vAcc>0.735807</vAcc></extensions></trkpt>
      <trkpt lon="-4.135388" lat="53.002689"><ele>630.691284</ele><time>2021-07-17T10:33:31Z</time><extensions><speed>0.345824</speed><course>285.374146</course><hAcc>0.894820</hAcc><vAcc>0.735400</vAcc></extensions></trkpt>
      <trkpt lon="-4.135389" lat="53.002686"><ele>630.761230</ele><time>2021-07-17T10:33:32Z</time><extensions><speed>0.370856</speed><course>282.990997</course><hAcc>0.894631</hAcc><vAcc>0.734814</vAcc></extensions></trkpt>
      <trkpt lon="-4.135390" lat="53.002683"><ele>630.850037</ele><time>2021-07-17T10:33:33Z</time><extensions><speed>0.395468</speed><course>269.408752</course><hAcc>0.894396</hAcc><vAcc>0.734052</vAcc></extensions></trkpt>
      <trkpt lon="-4.135391" lat="53.002679"><ele>630.960571</ele><time>2021-07-17T10:33:34Z</time><extensions><speed>0.419479</speed><course>268.581787</course><hAcc>0.894112</hAcc><vAcc>0.733124</vAcc></extensions></trkpt>
      <trkpt lon="-4.135392" lat="53.002676"><ele>631.095703</ele><time>2021-07-17T10:33:35Z</time><extensions><speed>0.442669</speed><course>262.171875</course><hAcc>0.893783</hAcc><vAcc>0.732042</vAcc></extensions></trkpt>
      <trkpt lon="-4.135393" lat="53.002671"><ele>631.257751</ele><time>2021-07-17T10:33:36Z</time><extensions><speed>0.464975</speed><course>261.539520</course><hAcc>0.893413</hAcc><vAcc>0.730816</vAcc></extensions></trkpt>
      <trkpt lon="-4.135394" lat="53.002667"><ele>631.447937</ele><time>2021-07-17T10:33:37Z</time><extensions><speed>0.486461</speed><course>255.803879</course><hAcc>0.893011</hAcc><vAcc>0.729463</vAcc></extensions></trkpt>
      <trkpt lon="-4.135396" lat="53.002663"><ele>631.666138</ele><time>2021-07-17T10:33:38Z</time><extensions><speed>0.507221</speed><course>247.733398</course><hAcc>0.892588</hAcc><vAcc>0.728006</vAcc></extensions></trkpt>
      <trkpt lon="-4.135397" lat="53.002658"><ele>631.910339</ele><time>2021-07-17T10:33:39Z</time><extensions><speed>0.527786</speed><course>231.932861</course><hAcc>0.892155</hAcc><vAcc>0.726477</vAcc></extensions></trkpt>
      <trkpt lon="-4.135399" lat="53.002654"><ele>632.176697</ele><time>2021-07-17T10:33:40Z</time><extensions><speed>0.549127</speed><course>232.043365</course><hAcc>0.891722</hAcc><vAcc>0.724925</vAcc></extensions></trkpt>
      <trkpt lon="-4.135401" lat="53.002649"><ele>632.459351</ele><time>2021-07-17T10:33:40Z</time><extensions><speed>0.571508</speed><course>225.182800</course><hAcc>0.891317</hAcc><vAcc>0.723424</vAcc></extensions></trkpt>
      <trkpt lon="-4.135404" lat="53.002644"><ele>632.753174</ele><time>2021-07-17T10:33:41Z</time><extensions><speed>0.594860</speed><course>222.937302</course><hAcc>0.890948</hAcc><vAcc>0.722032</vAcc></extensions></trkpt>
      <trkpt lon="-4.135407" lat="53.002639"><ele>633.052979</ele><time>2021-07-17T10:33:42Z</time><extensions><speed>0.618829</speed><course>226.615036</course><hAcc>0.890605</hAcc><vAcc>0.720790</vAcc></extensions></trkpt>
      <trkpt lon="-4.135410" lat="53.002633"><ele>633.354980</ele><time>2021-07-17T10:33:43Z</time><extensions><speed>0.642439</speed><course>227.377960</course><hAcc>0.890297</hAcc><vAcc>0.719727</vAcc></extensions></trkpt>
      <trkpt lon="-4.135414" lat="53.002628"><ele>633.656128</ele><time>2021-07-17T10:33:44Z</time><extensions><speed>0.664042</speed><course>225.027542</course><hAcc>0.890027</hAcc><vAcc>0.718856</vAcc></extensions></trkpt>
      <trkpt lon="-4.135419" lat="53.002623"><ele>633.954285</ele><time>2021-07-17T10:33:45Z</time><extensions><speed>0.681841</speed><course>217.523773</course><hAcc>0.889800</hAcc><vAcc>0.718170</vAcc></extensions></trkpt>
      <trkpt lon="-4.135424" lat="53.002617"><ele>634.247437</ele><time>2021-07-17T10:33:46Z</time><extensions><speed>0.694734</speed><course>217.503448</course><hAcc>0.889616</hAcc><vAcc>0.717649</vAcc></extensions></trkpt>
      <trkpt lon="-4.135429" lat="53.002612"><ele>634.533936</ele><time>2021-07-17T10:33:47Z</time><extensions><speed>0.702448</speed><course>222.947372</course><hAcc>0.889474</hAcc><vAcc>0.717268</vAcc></extensions></trkpt>
      <trkpt lon="-4.135434" lat="53.002606"><ele>634.812378</ele><time>2021-07-17T10:33:48Z</time><extensions><speed>0.705195</speed><course>228.737518</course><hAcc>0.889370</hAcc><vAcc>0.717005</vAcc></extensions></trkpt>
      <trkpt lon="-4.135439" lat="53.002601"><ele>635.081665</ele><time>2021-07-17T10:33:49Z</time><extensions><speed>0.703299</speed><course>234.887939</course><hAcc>0.889301</hAcc><vAcc>0.716837</vAcc></extensions></trkpt>
      <trkpt lon="-4.135445" lat="53.002595"><ele>635.340881</ele><time>2021-07-17T10:33:50Z</time><extensions><speed>0.697110</speed><course>232.671463</course><hAcc>0.889259</hAcc><vAcc>0.716749</vAcc></extensions></trkpt>
      <trkpt lon="-4.135450" lat="53.002590"><ele>635.589417</ele><time>2021-07-17T10:33:51Z</time><extensions><speed>0.687346</speed><course>228.680756</course><hAcc>0.889239</hAcc><vAcc>0.716727</vAcc></extensions></trkpt>
      <trkpt lon="-4.135455" lat="53.002585"><ele>635.826660</ele><time>2021-07-17T10:33:52Z</time><extensions><speed>0.674808</speed><course>228.367065</course><hAcc>0.889235</hAcc><vAcc>0.716756</vAcc></extensions></trkpt>
      <trkpt lon="-4.135460" lat="53.002580"><ele>636.052429</ele><time>2021-07-17T10:33:53Z</time><extensions><speed>0.659852</speed><course>227.760208</course><hAcc>0.889240</hAcc><vAcc>0.716822</vAcc></extensions></trkpt>
      <trkpt lon="-4.135466" lat="53.002575"><ele>636.266602</ele><time>2021-07-17T10:33:54Z</time><extensions><speed>0.642627</speed><course>230.377014</course><hAcc>0.889250</hAcc><vAcc>0.716909</vAcc></extensions></trkpt>
      <trkpt lon="-4.135471" lat="53.002570"><ele>636.469299</ele><time>2021-07-17T10:33:55Z</time><extensions><speed>0.623186</speed><course>236.559235</course><hAcc>0.889259</hAcc><vAcc>0.716997</vAcc></extensions></trkpt>
      <trkpt lon="-4.135475" lat="53.002565"><ele>636.660339</ele><time>2021-07-17T10:33:56Z</time><extensions><speed>0.601525</speed><course>232.877869</course><hAcc>0.889265</hAcc><vAcc>0.717068</vAcc></extensions></trkpt>
      <trkpt lon="-4.135480" lat="53.002561"><ele>636.839783</ele><time>2021-07-17T10:33:57Z</time><extensions><speed>0.577617</speed><course>233.901962</course><hAcc>0.889266</hAcc><vAcc>0.717103</vAcc></extensions></trkpt>
      <trkpt lon="-4.135484" lat="53.002556"><ele>637.007507</ele><time>2021-07-17T10:33:58Z</time><extensions><speed>0.551552</speed><course>234.840546</course><hAcc>0.889260</hAcc><vAcc>0.717089</vAcc></extensions></trkpt>
      <trkpt lon="-4.135488" lat="53.002552"><ele>637.163635</ele><time>2021-07-17T10:33:59Z</time><extensions><speed>0.524071</speed><course>231.563858</course><hAcc>0.889246</hAcc><vAcc>0.717023</vAcc></extensions></trkpt>
      <trkpt lon="-4.135492" lat="53.002548"><ele>637.308411</ele><time>2021-07-17T10:34:00Z</time><extensions><speed>0.496389</speed><course>226.163422</course><hAcc>0.889227</hAcc><vAcc>0.716911</vAcc></extensions></trkpt>
      <trkpt lon="-4.135495" lat="53.002544"><ele>637.442139</ele><time>2021-07-17T10:34:01Z</time><extensions><speed>0.469278</speed><course>224.694687</course><hAcc>0.889202</hAcc><vAcc>0.716771</vAcc></extensions></trkpt>
      <trkpt lon="-4.135498" lat="53.002540"><ele>637.565186</ele><time>2021-07-17T10:34:02Z</time><extensions><speed>0.443163</speed><course>227.400024</course><hAcc>0.889174</hAcc><vAcc>0.716621</vAcc></extensions></trkpt>
      <trkpt lon="-4.135500" lat="53.002537"><ele>637.678101</ele><time>2021-07-17T10:34:03Z</time><extensions><speed>0.418710</speed><course>225.215622</course><hAcc>0.889145</hAcc><vAcc>0.716481</vAcc></extensions></trkpt>
      <trkpt lon="-4.135503" lat="53.002534"><ele>637.781677</ele><time>2021-07-17T10:34:04Z</time><extensions><speed>0.396862</speed><course>227.979385</course><hAcc>0.889116</hAcc><vAcc>0.716364</vAcc></extensions></trkpt>
      <trkpt lon="-4.135505" lat="53.002530"><ele>637.876770</ele><time>2021-07-17T10:34:05Z</time><extensions><speed>0.378244</speed><course>238.133682</course><hAcc>0.889092</hAcc><vAcc>0.716278</vAcc></extensions></trkpt>
      <trkpt lon="-4.135507" lat="53.002527"><ele>637.964111</ele><time>2021-07-17T10:34:06Z</time><extensions><speed>0.362729</speed><course>235.678314</course><hAcc>0.889075</hAcc><vAcc>0.716226</vAcc></extensions></trkpt>
      <trkpt lon="-4.135509" lat="53.002524"><ele>638.044189</ele><time>2021-07-17T10:34:07Z</time><extensions><speed>0.349794</speed><course>238.960709</course><hAcc>0.889066</hAcc><vAcc>0.716207</vAcc></extensions></trkpt>
      <trkpt lon="-4.135510" lat="53.002521"><ele>638.117249</ele><time>2021-07-17T10:34:08Z</time><extensions><speed>0.339412</speed><course>237.793289</course><hAcc>0.889068</hAcc><vAcc>0.716218</vAcc></extensions></trkpt>
      <trkpt lon="-4.135512" lat="53.002518"><ele>638.183960</ele><time>2021-07-17T10:34:09Z</time><extensions><speed>0.331817</speed><course>238.209671</course><hAcc>0.889083</hAcc><vAcc>0.716258</vAcc></extensions></trkpt>
      <trkpt lon="-4.135513" lat="53.002516"><ele>638.245239</ele><time>2021-07-17T10:34:10Z</time><extensions><speed>0.326774</speed><course>239.435074</course><hAcc>0.889112</hAcc><vAcc>0.716329</vAcc></extensions></trkpt>
      <trkpt lon="-4.135515" lat="53.002513"><ele>638.302185</ele><time>2021-07-17T10:34:11Z</time><extensions><speed>0.323757</speed><course>238.666733</course><hAcc>0.889155</hAcc><vAcc>0.716438</vAcc></extensions></trkpt>
      <trkpt lon="-4.135517" lat="53.002510"><ele>638.355835</ele><time>2021-07-17T10:34:12Z</time><extensions><speed>0.322234</speed><course>234.077820</course><hAcc>0.889213</hAcc><vAcc>0.716594</vAcc></extensions></trkpt>
      <trkpt lon="-4.135518" lat="53.002507"><ele>638.407532</ele><time>2021-07-17T10:34:13Z</time><extensions><speed>0.321959</speed><course>227.293335</course><hAcc>0.889285</hAcc><vAcc>0.716808</vAcc></extensions></trkpt>
      <trkpt lon="-4.135520" lat="53.002505"><ele>638.458618</ele><time>2021-07-17T10:34:14Z</time><extensions><speed>0.323011</speed><course>230.072769</course><hAcc>0.889370</hAcc><vAcc>0.717087</vAcc></extensions></trkpt>
      <trkpt lon="-4.135522" lat="53.002502"><ele>638.510254</ele><time>2021-07-17T10:34:15Z</time><extensions><speed>0.325538</speed><course>228.397232</course><hAcc>0.889468</hAcc><vAcc>0.717431</vAcc></extensions></trkpt>
      <trkpt lon="-4.135525" lat="53.002500"><ele>638.563232</ele><time>2021-07-17T10:34:16Z</time><extensions><speed>0.329391</speed><course>230.234772</course><hAcc>0.889577</hAcc><vAcc>0.717831</vAcc></extensions></trkpt>
      <trkpt lon="-4.135528" lat="53.002497"><ele>638.618042</ele><time>2021-07-17T10:34:17Z</time><extensions><speed>0.335025</speed><course>226.599274</course><hAcc>0.889696</hAcc><vAcc>0.718271</vAcc></extensions></trkpt>
      <trkpt lon="-4.135531" lat="53.002495"><ele>638.675049</ele><time>2021-07-17T10:34:18Z</time><extensions><speed>0.342917</speed><course>226.515137</course><hAcc>0.889824</hAcc><vAcc>0.718735</vAcc></extensions></trkpt>
      <trkpt lon="-4.135534" lat="53.002492"><ele>638.734863</ele><time>2021-07-17T10:34:19Z</time><extensions><speed>0.352181</speed><course>226.136917</course><hAcc>0.889960</hAcc><vAcc>0.719204</vAcc></extensions></trkpt>
      <trkpt lon="-4.135538" lat="53.002490"><ele>638.797668</ele><time>2021-07-17T10:34:20Z</time><extensions><speed>0.361295</speed><course>230.381958</course><hAcc>0.890106</hAcc><vAcc>0.719667</vAcc></extensions></trkpt>
      <trkpt lon="-4.135542" lat="53.002488"><ele>638.863159</ele><time>2021-07-17T10:34:21Z</time><extensions><speed>0.369557</speed><course>226.727509</course><hAcc>0.890260</hAcc><vAcc>0.720120</vAcc></extensions></trkpt>
      <trkpt lon="-4.135547" lat="53.002486"><ele>638.930847</ele><time>2021-07-17T10:34:22Z</time><extensions><speed>0.377494</speed><course>230.180862</course><hAcc>0.890423</hAcc><vAcc>0.720573</vAcc></extensions></trkpt>
      <trkpt lon="-4.135552" lat="53.002484"><ele>639.000305</ele><time>2021-07-17T10:34:23Z</time><extensions><speed>0.385627</speed><course>225.214905</course><hAcc>0.890595</hAcc><vAcc>0.721044</vAcc></extensions></trkpt>
      <trkpt lon="-4.135557" lat="53.002483"><ele>639.071228</ele><time>2021-07-17T10:34:24Z</time><extensions><speed>0.393359</speed><course>228.288971</course><hAcc>0.890776</hAcc><vAcc>0.721556</vAcc></extensions></trkpt>
      <trkpt lon="-4.135562" lat="53.002481"><ele>639.143066</ele><time>2021-07-17T10:34:25Z</time><extensions><speed>0.399237</speed><course>234.392639</course><hAcc>0.890967</hAcc><vAcc>0.722127</vAcc></extensions></trkpt>
      <trkpt lon="-4.135567" lat="53.002480"><ele>639.215271</ele><time>2021-07-17T10:34:26Z</time><extensions><speed>0.402294</speed><course>233.208801</course><hAcc>0.891169</hAcc><vAcc>0.722765</vAcc></extensions></trkpt>
      <trkpt lon="-4.135573" lat="53.002478"><ele>639.287170</ele><time>2021-07-17T10:34:27Z</time><extensions><speed>0.402418</speed><course>238.158752</course><hAcc>0.891380</hAcc><vAcc>0.723469</vAcc></extensions></trkpt>
      <trkpt lon="-4.135579" lat="53.002477"><ele>639.358582</ele><time>2021-07-17T10:34:28Z</time><extensions><speed>0.399118</speed><course>239.142517</course><hAcc>0.891600</hAcc><vAcc>0.724229</vAcc></extensions></trkpt>
      <trkpt lon="-4.135584" lat="53.002476"><ele>639.428833</ele><time>2021-07-17T10:34:29Z</time><extensions><speed>0.391765</speed><course>241.003922</course><hAcc>0.891829</hAcc><vAcc>0.725029</vAcc></extensions></trkpt>
      <trkpt lon="-4.135590" lat="53.002476"><ele>639.497375</ele><time>2021-07-17T10:34:30Z</time><extensions><speed>0.380485</speed><course>244.474228</course><hAcc>0.892063</hAcc><vAcc>0.725850</vAcc></extensions></trkpt>
      <trkpt lon="-4.135595" lat="53.002475"><ele>639.563660</ele><time>2021-07-17T10:34:31Z</time><extensions><speed>0.366007</speed><course>238.879150</course><hAcc>0.892302</hAcc><vAcc>0.726673</vAcc></extensions></trkpt>
      <trkpt lon="-4.135601" lat="53.002474"><ele>639.628113</ele><time>2021-07-17T10:34:32Z</time><extensions><speed>0.349879</speed><course>237.538528</course><hAcc>0.892541</hAcc><vAcc>0.727482</vAcc></extensions></trkpt>
      <trkpt lon="-4.135606" lat="53.002474"><ele>639.691528</ele><time>2021-07-17T10:34:33Z</time><extensions><speed>0.333379</speed><course>249.037552</course><hAcc>0.892779</hAcc><vAcc>0.728264</vAcc></extensions></trkpt>
      <trkpt lon="-4.135611" lat="53.002474"><ele>639.754822</ele><time>2021-07-17T10:34:34Z</time><extensions><speed>0.317475</speed><course>259.361603</course><hAcc>0.893011</hAcc><vAcc>0.729013</vAcc></extensions></trkpt>
      <trkpt lon="-4.135615" lat="53.002473"><ele>639.819153</ele><time>2021-07-17T10:34:35Z</time><extensions><speed>0.302843</speed><course>261.193176</course><hAcc>0.893237</hAcc><vAcc>0.729724</vAcc></extensions></trkpt>
      <trkpt lon="-4.135620" lat="53.002474"><ele>639.885498</ele><time>2021-07-17T10:34:36Z</time><extensions><speed>0.289348</speed><course>261.193146</course><hAcc>0.893453</hAcc><vAcc>0.730398</vAcc></extensions></trkpt>
      <trkpt lon="-4.135624" lat="53.002474"><ele>639.954834</ele><time>2021-07-17T10:34:37Z</time><extensions><speed>0.276939</speed><course>261.193146</course><hAcc>0.893659</hAcc><vAcc>0.731037</vAcc></extensions></trkpt>
      <trkpt lon="-4.135628" lat="53.002474"><ele>640.028381</ele><time>2021-07-17T10:34:38Z</time><extensions><speed>0.265678</speed><course>261.193146</course><hAcc>0.893854</hAcc><vAcc>0.731643</vAcc></extensions></trkpt>
      <trkpt lon="-4.135631" lat="53.002475"><ele>640.107178</ele><time>2021-07-17T10:34:39Z</time><extensions><speed>0.255647</speed><course>261.193146</course><hAcc>0.894038</hAcc><vAcc>0.732218</vAcc></extensions></trkpt>
      <trkpt lon="-4.135635" lat="53.002476"><ele>640.192017</ele><time>2021-07-17T10:34:40Z</time><extensions><speed>0.247487</speed><course>261.193146</course><hAcc>0.894212</hAcc><vAcc>0.732763</vAcc></extensions></trkpt>
      <trkpt lon="-4.135638" lat="53.002477"><ele>640.283020</ele><time>2021-07-17T10:34:41Z</time><extensions><speed>0.243031</speed><course>261.193146</course><hAcc>0.894377</hAcc><vAcc>0.733277</vAcc></extensions></trkpt>
      <trkpt lon="-4.135641" lat="53.002478"><ele>640.380310</ele><time>2021-07-17T10:34:42Z</time><extensions><speed>0.244137</speed><course>261.193146</course><hAcc>0.894534</hAcc><vAcc>0.733761</vAcc></extensions></trkpt>
      <trkpt lon="-4.135644" lat="53.002480"><ele>640.483887</ele><time>2021-07-17T10:34:43Z</time><extensions><speed>0.251442</speed><course>261.193146</course><hAcc>0.894686</hAcc><vAcc>0.734214</vAcc></extensions></trkpt>
      <trkpt lon="-4.135646" lat="53.002481"><ele>640.593933</ele><time>2021-07-17T10:34:45Z</time><extensions><speed>0.264085</speed><course>234.852402</course><hAcc>0.894815</hAcc><vAcc>0.734624</vAcc></extensions></trkpt>
      <trkpt lon="-4.135648" lat="53.002483"><ele>640.710266</ele><time>2021-07-17T10:34:46Z</time><extensions><speed>0.280293</speed><course>215.025620</course><hAcc>0.894921</hAcc><vAcc>0.734990</vAcc></extensions></trkpt>
      <trkpt lon="-4.135650" lat="53.002486"><ele>640.833435</ele><time>2021-07-17T10:34:47Z</time><extensions><speed>0.298610</speed><course>206.872131</course><hAcc>0.895023</hAcc><vAcc>0.735325</vAcc></extensions></trkpt>
      <trkpt lon="-4.135652" lat="53.002488"><ele>640.963684</ele><time>2021-07-17T10:34:48Z</time><extensions><speed>0.317952</speed><course>205.862991</course><hAcc>0.895118</hAcc><vAcc>0.735628</vAcc></extensions></trkpt>
      <trkpt lon="-4.135654" lat="53.002491"><ele>641.101807</ele><time>2021-07-17T10:34:49Z</time><extensions><speed>0.337747</speed><course>205.862976</course><hAcc>0.895205</hAcc><vAcc>0.735898</vAcc></extensions></trkpt>
      <trkpt lon="-4.135656" lat="53.002494"><ele>641.248474</ele><time>2021-07-17T10:34:50Z</time><extensions><speed>0.357977</speed><course>234.677673</course><hAcc>0.895280</hAcc><vAcc>0.736134</vAcc></extensions></trkpt>
      <trkpt lon="-4.135658" lat="53.002497"><ele>641.404663</ele><time>2021-07-17T10:34:51Z</time><extensions><speed>0.379026</speed><course>246.321655</course><hAcc>0.895337</hAcc><vAcc>0.736335</vAcc></extensions></trkpt>
      <trkpt lon="-4.135660" lat="53.002500"><ele>641.571472</ele><time>2021-07-17T10:34:52Z</time><extensions><speed>0.401413</speed><course>256.732239</course><hAcc>0.895368</hAcc><vAcc>0.736497</vAcc></extensions></trkpt>
      <trkpt lon="-4.135662" lat="53.002504"><ele>641.750122</ele><time>2021-07-17T10:34:53Z</time><extensions><speed>0.425193</speed><course>257.461731</course><hAcc>0.895364</hAcc><vAcc>0.736611</vAcc></extensions></trkpt>
      <trkpt lon="-4.135665" lat="53.002507"><ele>641.941406</ele><time>2021-07-17T10:34:54Z</time><extensions><speed>0.449571</speed><course>256.219269</course><hAcc>0.895317</hAcc><vAcc>0.736655</vAcc></extensions></trkpt>
      <trkpt lon="-4.135667" lat="53.002511"><ele>642.146057</ele><time>2021-07-17T10:34:55Z</time><extensions><speed>0.472902</speed><course>253.669510</course><hAcc>0.895219</hAcc><vAcc>0.736591</vAcc></extensions></trkpt>
      <trkpt lon="-4.135670" lat="53.002515"><ele>642.364258</ele><time>2021-07-17T10:34:56Z</time><extensions><speed>0.493195</speed><course>253.907227</course><hAcc>0.895066</hAcc><vAcc>0.736375</vAcc></extensions></trkpt>
      <trkpt lon="-4.135672" lat="53.002519"><ele>642.596008</ele><time>2021-07-17T10:34:57Z</time><extensions><speed>0.508925</speed><course>260.189209</course><hAcc>0.894856</hAcc><vAcc>0.735956</vAcc></extensions></trkpt>
      <trkpt lon="-4.135675" lat="53.002524"><ele>642.840637</ele><time>2021-07-17T10:34:58Z</time><extensions><speed>0.519597</speed><course>263.253174</course><hAcc>0.894591</hAcc><vAcc>0.735291</vAcc></extensions></trkpt>
      <trkpt lon="-4.135678" lat="53.002528"><ele>643.097290</ele><time>2021-07-17T10:34:59Z</time><extensions><speed>0.525772</speed><course>264.349060</course><hAcc>0.894275</hAcc><vAcc>0.734351</vAcc></extensions></trkpt>
      <trkpt lon="-4.135680" lat="53.002533"><ele>643.364502</ele><time>2021-07-17T10:35:00Z</time><extensions><speed>0.528433</speed><course>258.002991</course><hAcc>0.893915</hAcc><vAcc>0.733128</vAcc></extensions></trkpt>
      <trkpt lon="-4.135682" lat="53.002537"><ele>643.640564</ele><time>2021-07-17T10:35:01Z</time><extensions><speed>0.528469</speed><course>264.832825</course><hAcc>0.893520</hAcc><vAcc>0.731646</vAcc></extensions></trkpt>
      <trkpt lon="-4.135683" lat="53.002542"><ele>643.922791</ele><time>2021-07-17T10:35:02Z</time><extensions><speed>0.526770</speed><course>262.654938</course><hAcc>0.893095</hAcc><vAcc>0.729967</vAcc></extensions></trkpt>
      <trkpt lon="-4.135684" lat="53.002547"><ele>644.207703</ele><time>2021-07-17T10:35:03Z</time><extensions><speed>0.524159</speed><course>262.654938</course><hAcc>0.892648</hAcc><vAcc>0.728175</vAcc></extensions></trkpt>
      <trkpt lon="-4.135685" lat="53.002551"><ele>644.491455</ele><time>2021-07-17T10:35:04Z</time><extensions><speed>0.521332</speed><course>262.654938</course><hAcc>0.892188</hAcc><vAcc>0.726362</vAcc></extensions></trkpt>
      <trkpt lon="-4.135686" lat="53.002556"><ele>644.770569</ele><time>2021-07-17T10:35:05Z</time><extensions><speed>0.519094</speed><course>262.654938</course><hAcc>0.891724</hAcc><vAcc>0.724605</vAcc></extensions></trkpt>
      <trkpt lon="-4.135686" lat="53.002561"><ele>645.041931</ele><time>2021-07-17T10:35:06Z</time><extensions><speed>0.518341</speed><course>262.654938</course><hAcc>0.891269</hAcc><vAcc>0.722960</vAcc></extensions></trkpt>
      <trkpt lon="-4.135686" lat="53.002565"><ele>645.302917</ele><time>2021-07-17T10:35:07Z</time><extensions><speed>0.519832</speed><course>262.654938</course><hAcc>0.890835</hAcc><vAcc>0.721465</vAcc></extensions></trkpt>
      <trkpt lon="-4.135686" lat="53.002570"><ele>645.551880</ele><time>2021-07-17T10:35:08Z</time><extensions><speed>0.524220</speed><course>262.654938</course><hAcc>0.890430</hAcc><vAcc>0.720138</vAcc></extensions></trkpt>
      <trkpt lon="-4.135686" lat="53.002575"><ele>645.787842</ele><time>2021-07-17T10:35:09Z</time><extensions><speed>0.531483</speed><course>262.654938</course><hAcc>0.890063</hAcc><vAcc>0.718980</vAcc></extensions></trkpt>
      <trkpt lon="-4.135685" lat="53.002580"><ele>646.010254</ele><time>2021-07-17T10:35:10Z</time><extensions><speed>0.540548</speed><course>262.654938</course><hAcc>0.889737</hAcc><vAcc>0.717986</vAcc></extensions></trkpt>
      <trkpt lon="-4.135685" lat="53.002584"><ele>646.219360</ele><time>2021-07-17T10:35:11Z</time><extensions><speed>0.550002</speed><course>262.654938</course><hAcc>0.889453</hAcc><vAcc>0.717145</vAcc></extensions></trkpt>
      <trkpt lon="-4.135684" lat="53.002589"><ele>646.415771</ele><time>2021-07-17T10:35:12Z</time><extensions><speed>0.559087</speed><course>262.654938</course><hAcc>0.889208</hAcc><vAcc>0.716448</vAcc></extensions></trkpt>
      <trkpt lon="-4.135684" lat="53.002594"><ele>646.600098</ele><time>2021-07-17T10:35:13Z</time><extensions><speed>0.568122</speed><course>262.654938</course><hAcc>0.888999</hAcc><vAcc>0.715875</vAcc></extensions></trkpt>
      <trkpt lon="-4.135683" lat="53.002600"><ele>646.773682</ele><time>2021-07-17T10:35:14Z</time><extensions><speed>0.577509</speed><course>262.654938</course><hAcc>0.888820</hAcc><vAcc>0.715396</vAcc></extensions></trkpt>
      <trkpt lon="-4.135683" lat="53.002605"><ele>646.938049</ele><time>2021-07-17T10:35:15Z</time><extensions><speed>0.586968</speed><course>262.654938</course><hAcc>0.888669</hAcc><vAcc>0.714982</vAcc></extensions></trkpt>
      <trkpt lon="-4.135682" lat="53.002610"><ele>647.094849</ele><time>2021-07-17T10:35:16Z</time><extensions><speed>0.595949</speed><course>262.654938</course><hAcc>0.888539</hAcc><vAcc>0.714615</vAcc></extensions></trkpt>
      <trkpt lon="-4.135682" lat="53.002616"><ele>647.245667</ele><time>2021-07-17T10:35:17Z</time><extensions><speed>0.604041</speed><course>262.654938</course><hAcc>0.888428</hAcc><vAcc>0.714282</vAcc></extensions></trkpt>
      <trkpt lon="-4.135682" lat="53.002621"><ele>647.391602</ele><time>2021-07-17T10:35:18Z</time><extensions><speed>0.610932</speed><course>262.654938</course><hAcc>0.888333</hAcc><vAcc>0.713975</vAcc></extensions></trkpt>
      <trkpt lon="-4.135682" lat="53.002627"><ele>647.533325</ele><time>2021-07-17T10:35:19Z</time><extensions><speed>0.616398</speed><course>262.654938</course><hAcc>0.888256</hAcc><vAcc>0.713694</vAcc></extensions></trkpt>
      <trkpt lon="-4.135682" lat="53.002632"><ele>647.671082</ele><time>2021-07-17T10:35:20Z</time><extensions><speed>0.620628</speed><course>262.654938</course><hAcc>0.888195</hAcc><vAcc>0.713446</vAcc></extensions></trkpt>
      <trkpt lon="-4.135682" lat="53.002638"><ele>647.805298</ele><time>2021-07-17T10:35:21Z</time><extensions><speed>0.624259</speed><course>262.654938</course><hAcc>0.888155</hAcc><vAcc>0.713246</vAcc></extensions></trkpt>
      <trkpt lon="-4.135683" lat="53.002643"><ele>647.936584</ele><time>2021-07-17T10:35:22Z</time><extensions><speed>0.628023</speed><course>262.654938</course><hAcc>0.888136</hAcc><vAcc>0.713114</vAcc></extensions></trkpt>
      <trkpt lon="-4.135683" lat="53.002649"><ele>648.065552</ele><time>2021-07-17T10:35:23Z</time><extensions><speed>0.632178</speed><course>262.654938</course><hAcc>0.888143</hAcc><vAcc>0.713072</vAcc></extensions></trkpt>
      <trkpt lon="-4.135684" lat="53.002655"><ele>648.192993</ele><time>2021-07-17T10:35:24Z</time><extensions><speed>0.636078</speed><course>262.654938</course><hAcc>0.888176</hAcc><vAcc>0.713139</vAcc></extensions></trkpt>
      <trkpt lon="-4.135685" lat="53.002660"><ele>648.319946</ele><time>2021-07-17T10:35:25Z</time><extensions><speed>0.638945</speed><course>262.654938</course><hAcc>0.888238</hAcc><vAcc>0.713325</vAcc></extensions></trkpt>
      <trkpt lon="-4.135687" lat="53.002666"><ele>648.447937</ele><time>2021-07-17T10:35:26Z</time><extensions><speed>0.640135</speed><course>262.654938</course><hAcc>0.888327</hAcc><vAcc>0.713630</vAcc></extensions></trkpt>
      <trkpt lon="-4.135688" lat="53.002672"><ele>648.578796</ele><time>2021-07-17T10:35:27Z</time><extensions><speed>0.639005</speed><course>262.654938</course><hAcc>0.888441</hAcc><vAcc>0.714046</vAcc></extensions></trkpt>
      <trkpt lon="-4.135690" lat="53.002677"><ele>648.714294</ele><time>2021-07-17T10:35:28Z</time><extensions><speed>0.635235</speed><course>262.654938</course><hAcc>0.888578</hAcc><vAcc>0.714560</vAcc></extensions></trkpt>
      <trkpt lon="-4.135693" lat="53.002683"><ele>648.855652</ele><time>2021-07-17T10:35:29Z</time><extensions><speed>0.628661</speed><course>262.654938</course><hAcc>0.888731</hAcc><vAcc>0.715146</vAcc></extensions></trkpt>
      <trkpt lon="-4.135695" lat="53.002688"><ele>649.003906</ele><time>2021-07-17T10:35:30Z</time><extensions><speed>0.619175</speed><course>262.654938</course><hAcc>0.888893</hAcc><vAcc>0.715776</vAcc></extensions></trkpt>
      <trkpt lon="-4.135698" lat="53.002693"><ele>649.159607</ele><time>2021-07-17T10:35:31Z</time><extensions><speed>0.606630</speed><course>262.654938</course><hAcc>0.889059</hAcc><vAcc>0.716416</vAcc></extensions></trkpt>
      <trkpt lon="-4.135701" lat="53.002699"><ele>649.322693</ele><time>2021-07-17T10:35:32Z</time><extensions><speed>0.590856</speed><course>262.654938</course><hAcc>0.889221</hAcc><vAcc>0.717029</vAcc></extensions></trkpt>
      <trkpt lon="-4.135703" lat="53.002703"><ele>649.492859</ele><time>2021-07-17T10:35:33Z</time><extensions><speed>0.571958</speed><course>262.654938</course><hAcc>0.889371</hAcc><vAcc>0.717583</vAcc></extensions></trkpt>
      <trkpt lon="-4.135706" lat="53.002708"><ele>649.669983</ele><time>2021-07-17T10:35:34Z</time><extensions><speed>0.550690</speed><course>262.654938</course><hAcc>0.889504</hAcc><vAcc>0.718050</vAcc></extensions></trkpt>
      <trkpt lon="-4.135709" lat="53.002713"><ele>649.853210</ele><time>2021-07-17T10:35:35Z</time><extensions><speed>0.528074</speed><course>262.654938</course><hAcc>0.889613</hAcc><vAcc>0.718412</vAcc></extensions></trkpt>
      <trkpt lon="-4.135712" lat="53.002717"><ele>650.041748</ele><time>2021-07-17T10:35:36Z</time><extensions><speed>0.505014</speed><course>262.654938</course><hAcc>0.889694</hAcc><vAcc>0.718664</vAcc></extensions></trkpt>
      <trkpt lon="-4.135714" lat="53.002721"><ele>650.234619</ele><time>2021-07-17T10:35:37Z</time><extensions><speed>0.482349</speed><course>262.654938</course><hAcc>0.889742</hAcc><vAcc>0.718806</vAcc></extensions></trkpt>
      <trkpt lon="-4.135717" lat="53.002725"><ele>650.430786</ele><time>2021-07-17T10:35:38Z</time><extensions><speed>0.460709</speed><course>262.654938</course><hAcc>0.889753</hAcc><vAcc>0.718843</vAcc></extensions></trkpt>
      <trkpt lon="-4.135719" lat="53.002729"><ele>650.629150</ele><time>2021-07-17T10:35:39Z</time><extensions><speed>0.440759</speed><course>262.654938</course><hAcc>0.889725</hAcc><vAcc>0.718775</vAcc></extensions></trkpt>
      <trkpt lon="-4.135722" lat="53.002733"><ele>650.828735</ele><time>2021-07-17T10:35:40Z</time><extensions><speed>0.423102</speed><course>262.654938</course><hAcc>0.889659</hAcc><vAcc>0.718595</vAcc></extensions></trkpt>
      <trkpt lon="-4.135724" lat="53.002736"><ele>651.028870</ele><time>2021-07-17T10:35:41Z</time><extensions><speed>0.407984</speed><course>262.654938</course><hAcc>0.889556</hAcc><vAcc>0.718299</vAcc></extensions></trkpt>
      <trkpt lon="-4.135726" lat="53.002739"><ele>651.228577</ele><time>2021-07-17T10:35:42Z</time><extensions><speed>0.395550</speed><course>262.654938</course><hAcc>0.889417</hAcc><vAcc>0.717885</vAcc></extensions></trkpt>
      <trkpt lon="-4.135728" lat="53.002743"><ele>651.426575</ele><time>2021-07-17T10:35:43Z</time><extensions><speed>0.386287</speed><course>262.654938</course><hAcc>0.889249</hAcc><vAcc>0.717353</vAcc></extensions></trkpt>
      <trkpt lon="-4.135729" lat="53.002746"><ele>651.621216</ele><time>2021-07-17T10:35:44Z</time><extensions><speed>0.381132</speed><course>262.654938</course><hAcc>0.889056</hAcc><vAcc>0.716713</vAcc></extensions></trkpt>
      <trkpt lon="-4.135730" lat="53.002750"><ele>651.810608</ele><time>2021-07-17T10:35:45Z</time><extensions><speed>0.381061</speed><course>262.654938</course><hAcc>0.888846</hAcc><vAcc>0.715984</vAcc></extensions></trkpt>
      <trkpt lon="-4.135731" lat="53.002753"><ele>651.992676</ele><time>2021-07-17T10:35:46Z</time><extensions><speed>0.386545</speed><course>262.654938</course><hAcc>0.888628</hAcc><vAcc>0.715194</vAcc></extensions></trkpt>
      <trkpt lon="-4.135731" lat="53.002756"><ele>652.165466</ele><time>2021-07-17T10:35:46Z</time><extensions><speed>0.397027</speed><course>262.654938</course><hAcc>0.888430</hAcc><vAcc>0.714400</vAcc></extensions></trkpt>
      <trkpt lon="-4.135731" lat="53.002760"><ele>652.327454</ele><time>2021-07-17T10:35:47Z</time><extensions><speed>0.410995</speed><course>262.654938</course><hAcc>0.888262</hAcc><vAcc>0.713653</vAcc></extensions></trkpt>
      <trkpt lon="-4.135730" lat="53.002764"><ele>652.477112</ele><time>2021-07-17T10:35:48Z</time><extensions><speed>0.426349</speed><course>262.654938</course><hAcc>0.888117</hAcc><vAcc>0.713001</vAcc></extensions></trkpt>
      <trkpt lon="-4.135730" lat="53.002768"><ele>652.613464</ele><time>2021-07-17T10:35:49Z</time><extensions><speed>0.441067</speed><course>262.654938</course><hAcc>0.888004</hAcc><vAcc>0.712499</vAcc></extensions></trkpt>
      <trkpt lon="-4.135730" lat="53.002772"><ele>652.736023</ele><time>2021-07-17T10:35:50Z</time><extensions><speed>0.454130</speed><course>262.654938</course><hAcc>0.887928</hAcc><vAcc>0.712187</vAcc></extensions></trkpt>
      <trkpt lon="-4.135730" lat="53.002776"><ele>652.844727</ele><time>2021-07-17T10:35:51Z</time><extensions><speed>0.465537</speed><course>262.654938</course><hAcc>0.887893</hAcc><vAcc>0.712082</vAcc></extensions></trkpt>
      <trkpt lon="-4.135730" lat="53.002780"><ele>652.939941</ele><time>2021-07-17T10:35:52Z</time><extensions><speed>0.475351</speed><course>262.654938</course><hAcc>0.887899</hAcc><vAcc>0.712175</vAcc></extensions></trkpt>
      <trkpt lon="-4.135730" lat="53.002784"><ele>653.022583</ele><time>2021-07-17T10:35:53Z</time><extensions><speed>0.483270</speed><course>262.654938</course><hAcc>0.887942</hAcc><vAcc>0.712438</vAcc></extensions></trkpt>
      <trkpt lon="-4.135731" lat="53.002789"><ele>653.093567</ele><time>2021-07-17T10:35:54Z</time><extensions><speed>0.488548</speed><course>262.654938</course><hAcc>0.888015</hAcc><vAcc>0.712826</vAcc></extensions></trkpt>
      <trkpt lon="-4.135732" lat="53.002793"><ele>653.154053</ele><time>2021-07-17T10:35:55Z</time><extensions><speed>0.490299</speed><course>262.654938</course><hAcc>0.888111</hAcc><vAcc>0.713290</vAcc></extensions></trkpt>
      <trkpt lon="-4.135734" lat="53.002797"><ele>653.204834</ele><time>2021-07-17T10:35:56Z</time><extensions><speed>0.487736</speed><course>262.654938</course><hAcc>0.888220</hAcc><vAcc>0.713777</vAcc></extensions></trkpt>
      <trkpt lon="-4.135735" lat="53.002802"><ele>653.246582</ele><time>2021-07-17T10:35:57Z</time><extensions><speed>0.480343</speed><course>262.654938</course><hAcc>0.888332</hAcc><vAcc>0.714242</vAcc></extensions></trkpt>
      <trkpt lon="-4.135737" lat="53.002806"><ele>653.279724</ele><time>2021-07-17T10:35:58Z</time><extensions><speed>0.467899</speed><course>209.646423</course><hAcc>0.888440</hAcc><vAcc>0.714648</vAcc></extensions></trkpt>
      <trkpt lon="-4.135739" lat="53.002810"><ele>653.304688</ele><time>2021-07-17T10:35:59Z</time><extensions><speed>0.450241</speed><course>207.502853</course><hAcc>0.888537</hAcc><vAcc>0.714974</vAcc></extensions></trkpt>
      <trkpt lon="-4.135741" lat="53.002813"><ele>653.322083</ele><time>2021-07-17T10:36:00Z</time><extensions><speed>0.427507</speed><course>210.649872</course><hAcc>0.888616</hAcc><vAcc>0.715211</vAcc></extensions></trkpt>
      <trkpt lon="-4.135743" lat="53.002817"><ele>653.332581</ele><time>2021-07-17T10:36:01Z</time><extensions><speed>0.400095</speed><course>218.307190</course><hAcc>0.888675</hAcc><vAcc>0.715363</vAcc></extensions></trkpt>
      <trkpt lon="-4.135745" lat="53.002820"><ele>653.336975</ele><time>2021-07-17T10:36:02Z</time><extensions><speed>0.368542</speed><course>221.774033</course><hAcc>0.888713</hAcc><vAcc>0.715435</vAcc></extensions></trkpt>
      <trkpt lon="-4.135747" lat="53.002823"><ele>653.335876</ele><time>2021-07-17T10:36:03Z</time><extensions><speed>0.333676</speed><course>225.071381</course><hAcc>0.888731</hAcc><vAcc>0.715437</vAcc></extensions></trkpt>
      <trkpt lon="-4.135748" lat="53.002826"><ele>653.329712</ele><time>2021-07-17T10:36:04Z</time><extensions><speed>0.296712</speed><course>229.682953</course><hAcc>0.888732</hAcc><vAcc>0.715381</vAcc></extensions></trkpt>
      <trkpt lon="-4.135750" lat="53.002828"><ele>653.319214</ele><time>2021-07-17T10:36:05Z</time><extensions><speed>0.259234</speed><course>228.187271</course><hAcc>0.888718</hAcc><vAcc>0.715285</vAcc></extensions></trkpt>
      <trkpt lon="-4.135752" lat="53.002830"><ele>653.305420</ele><time>2021-07-17T10:36:06Z</time><extensions><speed>0.222698</speed><course>224.821243</course><hAcc>0.888693</hAcc><vAcc>0.715163</vAcc></extensions></trkpt>
      <trkpt lon="-4.135753" lat="53.002832"><ele>653.289795</ele><time>2021-07-17T10:36:07Z</time><extensions><speed>0.187952</speed><course>222.757462</course><hAcc>0.888662</hAcc><vAcc>0.715028</vAcc></extensions></trkpt>
      <trkpt lon="-4.135755" lat="53.002833"><ele>653.273804</ele><time>2021-07-17T10:36:08Z</time><extensions><speed>0.155237</speed><course>223.047150</course><hAcc>0.888628</hAcc><vAcc>0.714891</vAcc></extensions></trkpt>
      <trkpt lon="-4.135756" lat="53.002834"><ele>653.259094</ele><time>2021-07-17T10:36:09Z</time><extensions><speed>0.124336</speed><course>218.695862</course><hAcc>0.888594</hAcc><vAcc>0.714761</vAcc></extensions></trkpt>
      <trkpt lon="-4.135758" lat="53.002834"><ele>653.247375</ele><time>2021-07-17T10:36:10Z</time><extensions><speed>0.095356</speed><course>216.351273</course><hAcc>0.888563</hAcc><vAcc>0.714642</vAcc></extensions></trkpt>
      <trkpt lon="-4.135759" lat="53.002835"><ele>653.239929</ele><time>2021-07-17T10:36:11Z</time><extensions><speed>0.069648</speed><course>219.658188</course><hAcc>0.888535</hAcc><vAcc>0.714540</vAcc></extensions></trkpt>
      <trkpt lon="-4.135760" lat="53.002835"><ele>653.237915</ele><time>2021-07-17T10:36:12Z</time><extensions><speed>0.050284</speed><course>221.748871</course><hAcc>0.888511</hAcc><vAcc>0.714461</vAcc></extensions></trkpt>
      <trkpt lon="-4.135760" lat="53.002835"><ele>653.242310</ele><time>2021-07-17T10:36:13Z</time><extensions><speed>0.043476</speed><course>225.723022</course><hAcc>0.888489</hAcc><vAcc>0.714412</vAcc></extensions></trkpt>
      <trkpt lon="-4.135761" lat="53.002834"><ele>653.253784</ele><time>2021-07-17T10:36:14Z</time><extensions><speed>0.051652</speed><course>227.303833</course><hAcc>0.888468</hAcc><vAcc>0.714389</vAcc></extensions></trkpt>
      <trkpt lon="-4.135761" lat="53.002834"><ele>653.271973</ele><time>2021-07-17T10:36:15Z</time><extensions><speed>0.067209</speed><course>225.742310</course><hAcc>0.888443</hAcc><vAcc>0.714362</vAcc></extensions></trkpt>
      <trkpt lon="-4.135761" lat="53.002833"><ele>653.296021</ele><time>2021-07-17T10:36:17Z</time><extensions><speed>0.083867</speed><course>225.742310</course><hAcc>0.888394</hAcc><vAcc>0.714281</vAcc></extensions></trkpt>
      <trkpt lon="-4.135760" lat="53.002832"><ele>653.323853</ele><time>2021-07-17T10:36:18Z</time><extensions><speed>0.098721</speed><course>225.742325</course><hAcc>0.888314</hAcc><vAcc>0.714116</vAcc></extensions></trkpt>
      <trkpt lon="-4.135760" lat="53.002831"><ele>653.353088</ele><time>2021-07-17T10:36:19Z</time><extensions><speed>0.110604</speed><course>225.742325</course><hAcc>0.888217</hAcc><vAcc>0.713861</vAcc></extensions></trkpt>
      <trkpt lon="-4.135759" lat="53.002831"><ele>653.381653</ele><time>2021-07-17T10:36:20Z</time><extensions><speed>0.119397</speed><course>225.742325</course><hAcc>0.888094</hAcc><vAcc>0.713510</vAcc></extensions></trkpt>
      <trkpt lon="-4.135758" lat="53.002830"><ele>653.408325</ele><time>2021-07-17T10:36:21Z</time><extensions><speed>0.125104</speed><course>224.360504</course><hAcc>0.887939</hAcc><vAcc>0.713062</vAcc></extensions></trkpt>
      <trkpt lon="-4.135757" lat="53.002829"><ele>653.432129</ele><time>2021-07-17T10:36:22Z</time><extensions><speed>0.127588</speed><course>231.374908</course><hAcc>0.887746</hAcc><vAcc>0.712517</vAcc></extensions></trkpt>
      <trkpt lon="-4.135756" lat="53.002828"><ele>653.452209</ele><time>2021-07-17T10:36:23Z</time><extensions><speed>0.127001</speed><course>226.234039</course><hAcc>0.887512</hAcc><vAcc>0.711867</vAcc></extensions></trkpt>
      <trkpt lon="-4.135755" lat="53.002827"><ele>653.467896</ele><time>2021-07-17T10:36:24Z</time><extensions><speed>0.123752</speed><course>228.443588</course><hAcc>0.887236</hAcc><vAcc>0.711095</vAcc></extensions></trkpt>
      <trkpt lon="-4.135754" lat="53.002826"><ele>653.479065</ele><time>2021-07-17T10:36:25Z</time><extensions><speed>0.118473</speed><course>217.150848</course><hAcc>0.886918</hAcc><vAcc>0.710177</vAcc></extensions></trkpt>
      <trkpt lon="-4.135753" lat="53.002825"><ele>653.486206</ele><time>2021-07-17T10:36:26Z</time><extensions><speed>0.111929</speed><course>214.670395</course><hAcc>0.886565</hAcc><vAcc>0.709089</vAcc></extensions></trkpt>
      <trkpt lon="-4.135751" lat="53.002824"><ele>653.489929</ele><time>2021-07-17T10:36:27Z</time><extensions><speed>0.104833</speed><course>219.066208</course><hAcc>0.886186</hAcc><vAcc>0.707830</vAcc></extensions></trkpt>
      <trkpt lon="-4.135750" lat="53.002824"><ele>653.491028</ele><time>2021-07-17T10:36:28Z</time><extensions><speed>0.097681</speed><course>218.042282</course><hAcc>0.885792</hAcc><vAcc>0.706431</vAcc></extensions></trkpt>
      <trkpt lon="-4.135749" lat="53.002823"><ele>653.489929</ele><time>2021-07-17T10:36:29Z</time><extensions><speed>0.090679</speed><course>220.994385</course><hAcc>0.885398</hAcc><vAcc>0.704961</vAcc></extensions></trkpt>
      <trkpt lon="-4.135748" lat="53.002823"><ele>653.486755</ele><time>2021-07-17T10:36:30Z</time><extensions><speed>0.083588</speed><course>227.746307</course><hAcc>0.885020</hAcc><vAcc>0.703510</vAcc></extensions></trkpt>
      <trkpt lon="-4.135747" lat="53.002822"><ele>653.480774</ele><time>2021-07-17T10:36:31Z</time><extensions><speed>0.076425</speed><course>224.855316</course><hAcc>0.884674</hAcc><vAcc>0.702179</vAcc></extensions></trkpt>
      <trkpt lon="-4.135746" lat="53.002822"><ele>653.471375</ele><time>2021-07-17T10:36:32Z</time><extensions><speed>0.069742</speed><course>223.584900</course><hAcc>0.884376</hAcc><vAcc>0.701054</vAcc></extensions></trkpt>
      <trkpt lon="-4.135745" lat="53.002822"><ele>653.458496</ele><time>2021-07-17T10:36:33Z</time><extensions><speed>0.064124</speed><course>224.383530</course><hAcc>0.884138</hAcc><vAcc>0.700196</vAcc></extensions></trkpt>
      <trkpt lon="-4.135745" lat="53.002822"><ele>653.442383</ele><time>2021-07-17T10:36:34Z</time><extensions><speed>0.059740</speed><course>225.716217</course><hAcc>0.883967</hAcc><vAcc>0.699635</vAcc></extensions></trkpt>
      <trkpt lon="-4.135744" lat="53.002821"><ele>653.423340</ele><time>2021-07-17T10:36:35Z</time><extensions><speed>0.056387</speed><course>229.189102</course><hAcc>0.883866</hAcc><vAcc>0.699372</vAcc></extensions></trkpt>
      <trkpt lon="-4.135743" lat="53.002821"><ele>653.401978</ele><time>2021-07-17T10:36:36Z</time><extensions><speed>0.053900</speed><course>224.817474</course><hAcc>0.883834</hAcc><vAcc>0.699377</vAcc></extensions></trkpt>
      <trkpt lon="-4.135742" lat="53.002821"><ele>653.379028</ele><time>2021-07-17T10:36:37Z</time><extensions><speed>0.052210</speed><course>225.227936</course><hAcc>0.883861</hAcc><vAcc>0.699592</vAcc></extensions></trkpt>
      <trkpt lon="-4.135742" lat="53.002821"><ele>653.355408</ele><time>2021-07-17T10:36:38Z</time><extensions><speed>0.051082</speed><course>228.251373</course><hAcc>0.883940</hAcc><vAcc>0.699961</vAcc></extensions></trkpt>
      <trkpt lon="-4.135741" lat="53.002820"><ele>653.332031</ele><time>2021-07-17T10:36:39Z</time><extensions><speed>0.050023</speed><course>230.721024</course><hAcc>0.884062</hAcc><vAcc>0.700441</vAcc></extensions></trkpt>
      <trkpt lon="-4.135741" lat="53.002820"><ele>653.309265</ele><time>2021-07-17T10:36:40Z</time><extensions><speed>0.049031</speed><course>234.697540</course><hAcc>0.884218</hAcc><vAcc>0.701001</vAcc></extensions></trkpt>
      <trkpt lon="-4.135740" lat="53.002820"><ele>653.287048</ele><time>2021-07-17T10:36:41Z</time><extensions><speed>0.047867</speed><course>236.619934</course><hAcc>0.884403</hAcc><vAcc>0.701612</vAcc></extensions></trkpt>
      <trkpt lon="-4.135740" lat="53.002819"><ele>653.265503</ele><time>2021-07-17T10:36:42Z</time><extensions><speed>0.046179</speed><course>247.542679</course><hAcc>0.884614</hAcc><vAcc>0.702250</vAcc></extensions></trkpt>
      <trkpt lon="-4.135740" lat="53.002819"><ele>653.244324</ele><time>2021-07-17T10:36:43Z</time><extensions><speed>0.044032</speed><course>242.855072</course><hAcc>0.884853</hAcc><vAcc>0.702915</vAcc></extensions></trkpt>
      <trkpt lon="-4.135740" lat="53.002819"><ele>653.223389</ele><time>2021-07-17T10:36:44Z</time><extensions><speed>0.041418</speed><course>241.397278</course><hAcc>0.885124</hAcc><vAcc>0.703637</vAcc></extensions></trkpt>
      <trkpt lon="-4.135740" lat="53.002818"><ele>653.202454</ele><time>2021-07-17T10:36:45Z</time><extensions><speed>0.038478</speed><course>241.667068</course><hAcc>0.885437</hAcc><vAcc>0.704467</vAcc></extensions></trkpt>
      <trkpt lon="-4.135739" lat="53.002818"><ele>653.181580</ele><time>2021-07-17T10:36:46Z</time><extensions><speed>0.035511</speed><course>241.132874</course><hAcc>0.885807</hAcc><vAcc>0.705461</vAcc></extensions></trkpt>
      <trkpt lon="-4.135739" lat="53.002818"><ele>653.160889</ele><time>2021-07-17T10:36:47Z</time><extensions><speed>0.032632</speed><course>242.509506</course><hAcc>0.886250</hAcc><vAcc>0.706655</vAcc></extensions></trkpt>
      <trkpt lon="-4.135740" lat="53.002817"><ele>653.140808</ele><time>2021-07-17T10:36:48Z</time><extensions><speed>0.029716</speed><course>242.195404</course><hAcc>0.886788</hAcc><vAcc>0.708061</vAcc></extensions></trkpt>
      <trkpt lon="-4.135740" lat="53.002817"><ele>653.121704</ele><time>2021-07-17T10:36:49Z</time><extensions><speed>0.026733</speed><course>244.443573</course><hAcc>0.887447</hAcc><vAcc>0.709662</vAcc></extensions></trkpt>
      <trkpt lon="-4.135740" lat="53.002817"><ele>653.103882</ele><time>2021-07-17T10:36:50Z</time><extensions><speed>0.023721</speed><course>246.780472</course><hAcc>0.888254</hAcc><vAcc>0.711436</vAcc></extensions></trkpt>
      <trkpt lon="-4.135740" lat="53.002817"><ele>653.087646</ele><time>2021-07-17T10:36:51Z</time><extensions><speed>0.020737</speed><course>247.423477</course><hAcc>0.889241</hAcc><vAcc>0.713363</vAcc></extensions></trkpt>
      <trkpt lon="-4.135740" lat="53.002816"><ele>653.073059</ele><time>2021-07-17T10:36:52Z</time><extensions><speed>0.017842</speed><course>252.345490</course><hAcc>0.890440</hAcc><vAcc>0.715427</vAcc></extensions></trkpt>
      <trkpt lon="-4.135740" lat="53.002816"><ele>653.060181</ele><time>2021-07-17T10:36:53Z</time><extensions><speed>0.015089</speed><course>252.366760</course><hAcc>0.891879</hAcc><vAcc>0.717612</vAcc></extensions></trkpt>
      <trkpt lon="-4.135740" lat="53.002816"><ele>653.049011</ele><time>2021-07-17T10:36:54Z</time><extensions><speed>0.012525</speed><course>254.889893</course><hAcc>0.893574</hAcc><vAcc>0.719893</vAcc></extensions></trkpt>
      <trkpt lon="-4.135740" lat="53.002816"><ele>653.039551</ele><time>2021-07-17T10:36:55Z</time><extensions><speed>0.010185</speed><course>257.492432</course><hAcc>0.895520</hAcc><vAcc>0.722228</vAcc></extensions></trkpt>
      <trkpt lon="-4.135740" lat="53.002816"><ele>653.031616</ele><time>2021-07-17T10:36:56Z</time><extensions><speed>0.008092</speed><course>255.728439</course><hAcc>0.897680</hAcc><vAcc>0.724550</vAcc></extensions></trkpt>
      <trkpt lon="-4.135740" lat="53.002816"><ele>653.025085</ele><time>2021-07-17T10:36:57Z</time><extensions><speed>0.006261</speed><course>258.375061</course><hAcc>0.899976</hAcc><vAcc>0.726762</vAcc></extensions></trkpt>
      <trkpt lon="-4.135741" lat="53.002816"><ele>653.019897</ele><time>2021-07-17T10:36:58Z</time><extensions><speed>0.004698</speed><course>260.722260</course><hAcc>0.902279</hAcc><vAcc>0.728738</vAcc></extensions></trkpt>
      <trkpt lon="-4.135741" lat="53.002816"><ele>653.015869</ele><time>2021-07-17T10:36:59Z</time><extensions><speed>0.003412</speed><course>260.722260</course><hAcc>0.904417</hAcc><vAcc>0.730347</vAcc></extensions></trkpt>
      <trkpt lon="-4.135741" lat="53.002816"><ele>653.012878</ele><time>2021-07-17T10:37:00Z</time><extensions><speed>0.002416</speed><course>260.722260</course><hAcc>0.906194</hAcc><vAcc>0.731479</vAcc></extensions></trkpt>
      <trkpt lon="-4.135741" lat="53.002816"><ele>653.010742</ele><time>2021-07-17T10:37:01Z</time><extensions><speed>0.001745</speed><course>260.722260</course><hAcc>0.907449</hAcc><vAcc>0.732116</vAcc></extensions></trkpt>
      <trkpt lon="-4.135741" lat="53.002816"><ele>653.009399</ele><time>2021-07-17T10:37:02Z</time><extensions><speed>0.001440</speed><course>260.722260</course><hAcc>0.908151</hAcc><vAcc>0.732424</vAcc></extensions></trkpt>
      <trkpt lon="-4.135741" lat="53.002816"><ele>653.008606</ele><time>2021-07-17T10:37:03Z</time><extensions><speed>0.001444</speed><course>260.722260</course><hAcc>0.908569</hAcc><vAcc>0.732901</vAcc></extensions></trkpt>
      <trkpt lon="-4.135741" lat="53.002816"><ele>653.008362</ele><time>2021-07-17T10:37:04Z</time><extensions><speed>0.001592</speed><course>260.722260</course><hAcc>0.909529</hAcc><vAcc>0.734569</vAcc></extensions></trkpt>
      <trkpt lon="-4.135741" lat="53.002816"><ele>653.008545</ele><time>2021-07-17T10:37:05Z</time><extensions><speed>0.001760</speed><course>260.722229</course><hAcc>0.912768</hAcc><vAcc>0.739212</vAcc></extensions></trkpt>
      <trkpt lon="-4.135741" lat="53.002816"><ele>653.008972</ele><time>2021-07-17T10:37:06Z</time><extensions><speed>0.001899</speed><course>268.575928</course><hAcc>0.921371</hAcc><vAcc>0.749606</vAcc></extensions></trkpt>
      <trkpt lon="-4.135741" lat="53.002816"><ele>653.009644</ele><time>2021-07-17T10:37:07Z</time><extensions><speed>0.001998</speed><course>268.685822</course><hAcc>0.940168</hAcc><vAcc>0.769643</vAcc></extensions></trkpt>
      <trkpt lon="-4.135741" lat="53.002816"><ele>653.010559</ele><time>2021-07-17T10:37:08Z</time><extensions><speed>0.002059</speed><course>264.169769</course><hAcc>0.975861</hAcc><vAcc>0.804184</vAcc></extensions></trkpt>
      <trkpt lon="-4.135741" lat="53.002816"><ele>653.020569</ele><time>2021-07-17T10:37:09Z</time><extensions><speed>0.000000</speed><course>207.637573</course><hAcc>0.938091</hAcc><vAcc>0.769469</vAcc></extensions></trkpt>
      <trkpt lon="-4.135741" lat="53.002816"><ele>653.020569</ele><time>2021-07-17T10:37:10Z</time><extensions><speed>0.000000</speed><course>199.781464</course><hAcc>0.919018</hAcc><vAcc>0.749120</vAcc></extensions></trkpt>
      <trkpt lon="-4.135741" lat="53.002816"><ele>653.020569</ele><time>2021-07-17T10:37:11Z</time><extensions><speed>0.000000</speed><course>204.898392</course><hAcc>0.911497</hAcc><vAcc>0.739613</vAcc></extensions></trkpt>
      <trkpt lon="-4.135741" lat="53.002816"><ele>653.020569</ele><time>2021-07-17T10:37:12Z</time><extensions><speed>0.000000</speed><course>218.988647</course><hAcc>0.910043</hAcc><vAcc>0.736618</vAcc></extensions></trkpt>
      <trkpt lon="-4.135741" lat="53.002816"><ele>653.020569</ele><time>2021-07-17T10:37:13Z</time><extensions><speed>0.000000</speed><course>240.875916</course><hAcc>0.911175</hAcc><vAcc>0.737034</vAcc></extensions></trkpt>
      <trkpt lon="-4.135741" lat="53.002816"><ele>653.020569</ele><time>2021-07-17T10:37:14Z</time><extensions><speed>0.000000</speed><course>240.875916</course><hAcc>0.912959</hAcc><vAcc>0.738873</vAcc></extensions></trkpt>
      <trkpt lon="-4.135741" lat="53.002816"><ele>653.020569</ele><time>2021-07-17T10:37:15Z</time><extensions><speed>0.000000</speed><course>240.875916</course><hAcc>0.914501</hAcc><vAcc>0.740987</vAcc></extensions></trkpt>
      <trkpt lon="-4.135741" lat="53.002816"><ele>653.020569</ele><time>2021-07-17T10:37:16Z</time><extensions><speed>0.000000</speed><course>240.875916</course><hAcc>0.915524</hAcc><vAcc>0.742798</vAcc></extensions></trkpt>
      <trkpt lon="-4.135741" lat="53.002816"><ele>653.020569</ele><time>2021-07-17T10:37:17Z</time><extensions><speed>0.000000</speed><course>240.875916</course><hAcc>0.916060</hAcc><vAcc>0.744073</vAcc></extensions></trkpt>
      <trkpt lon="-4.135741" lat="53.002816"><ele>653.020569</ele><time>2021-07-17T10:37:18Z</time><extensions><speed>0.000000</speed><course>240.875916</course><hAcc>0.916243</hAcc><vAcc>0.744751</vAcc></extensions></trkpt>
      <trkpt lon="-4.135741" lat="53.002816"><ele>653.020569</ele><time>2021-07-17T10:37:19Z</time><extensions><speed>0.000000</speed><course>269.430084</course><hAcc>0.916194</hAcc><vAcc>0.744846</vAcc></extensions></trkpt>
      <trkpt lon="-4.135741" lat="53.002816"><ele>653.020569</ele><time>2021-07-17T10:37:20Z</time><extensions><speed>0.000000</speed><course>274.056000</course><hAcc>0.915954</hAcc><vAcc>0.744387</vAcc></extensions></trkpt>
      <trkpt lon="-4.135741" lat="53.002816"><ele>653.020569</ele><time>2021-07-17T10:37:21Z</time><extensions><speed>0.000000</speed><course>273.580658</course><hAcc>0.915491</hAcc><vAcc>0.743418</vAcc></extensions></trkpt>
      <trkpt lon="-4.135741" lat="53.002816"><ele>653.020569</ele><time>2021-07-17T10:37:22Z</time><extensions><speed>0.000000</speed><course>266.285736</course><hAcc>0.914744</hAcc><vAcc>0.742040</vAcc></extensions></trkpt>
      <trkpt lon="-4.135741" lat="53.002816"><ele>653.020569</ele><time>2021-07-17T10:37:23Z</time><extensions><speed>0.000000</speed><course>280.416809</course><hAcc>0.913733</hAcc><vAcc>0.740503</vAcc></extensions></trkpt>
      <trkpt lon="-4.135741" lat="53.002816"><ele>653.020569</ele><time>2021-07-17T10:37:24Z</time><extensions><speed>0.000000</speed><course>289.633057</course><hAcc>0.912740</hAcc><vAcc>0.739359</vAcc></extensions></trkpt>
      <trkpt lon="-4.135741" lat="53.002816"><ele>653.020569</ele><time>2021-07-17T10:37:25Z</time><extensions><speed>0.000000</speed><course>274.042023</course><hAcc>0.912579</hAcc><vAcc>0.739657</vAcc></extensions></trkpt>
      <trkpt lon="-4.135741" lat="53.002816"><ele>653.020569</ele><time>2021-07-17T10:37:26Z</time><extensions><speed>0.000000</speed><course>259.398621</course><hAcc>0.914962</hAcc><vAcc>0.743192</vAcc></extensions></trkpt>
      <trkpt lon="-4.135741" lat="53.002816"><ele>653.020569</ele><time>2021-07-17T10:37:27Z</time><extensions><speed>0.000000</speed><course>235.228027</course><hAcc>0.922943</hAcc><vAcc>0.752740</vAcc></extensions></trkpt>
      <trkpt lon="-4.135741" lat="53.002816"><ele>653.020569</ele><time>2021-07-17T10:37:28Z</time><extensions><speed>0.000000</speed><course>233.943741</course><hAcc>0.941326</hAcc><vAcc>0.772187</vAcc></extensions></trkpt>
      <trkpt lon="-4.135741" lat="53.002816"><ele>653.020569</ele><time>2021-07-17T10:37:29Z</time><extensions><speed>0.000000</speed><course>251.986771</course><hAcc>0.976779</hAcc><vAcc>0.806380</vAcc></extensions></trkpt>
      <trkpt lon="-4.135741" lat="53.002816"><ele>653.020569</ele><time>2021-07-17T10:37:30Z</time><extensions><speed>0.000000</speed><course>207.637573</course><hAcc>0.938676</hAcc><vAcc>0.771087</vAcc></extensions></trkpt>
      <trkpt lon="-4.135741" lat="53.002816"><ele>653.020569</ele><time>2021-07-17T10:37:31Z</time><extensions><speed>0.000000</speed><course>199.781464</course><hAcc>0.919527</hAcc><vAcc>0.750561</vAcc></extensions></trkpt>
      <trkpt lon="-4.135741" lat="53.002816"><ele>653.020569</ele><time>2021-07-17T10:37:32Z</time><extensions><speed>0.000000</speed><course>204.898392</course><hAcc>0.911944</hAcc><vAcc>0.740920</vAcc></extensions></trkpt>
      <trkpt lon="-4.135741" lat="53.002816"><ele>653.020569</ele><time>2021-07-17T10:37:33Z</time><extensions><speed>0.000000</speed><course>218.988647</course><hAcc>0.910446</hAcc><vAcc>0.737830</vAcc></extensions></trkpt>
      <trkpt lon="-4.135741" lat="53.002816"><ele>653.020569</ele><time>2021-07-17T10:37:34Z</time><extensions><speed>0.000000</speed><course>240.875916</course><hAcc>0.911548</hAcc><vAcc>0.738185</vAcc></extensions></trkpt>
      <trkpt lon="-4.135741" lat="53.002816"><ele>653.020569</ele><time>2021-07-17T10:37:35Z</time><extensions><speed>0.000000</speed><course>240.875916</course><hAcc>0.913313</hAcc><vAcc>0.739984</vAcc></extensions></trkpt>
      <trkpt lon="-4.135741" lat="53.002816"><ele>653.020569</ele><time>2021-07-17T10:37:36Z</time><extensions><speed>0.000000</speed><course>240.875916</course><hAcc>0.914845</hAcc><vAcc>0.742071</vAcc></extensions></trkpt>
      <trkpt lon="-4.135741" lat="53.002816"><ele>653.020569</ele><time>2021-07-17T10:37:37Z</time><extensions><speed>0.000000</speed><course>240.875916</course><hAcc>0.915863</hAcc><vAcc>0.743861</vAcc></extensions></trkpt>
      <trkpt lon="-4.135741" lat="53.002816"><ele>653.020569</ele><time>2021-07-17T10:37:38Z</time><extensions><speed>0.000000</speed><course>240.875916</course><hAcc>0.916395</hAcc><vAcc>0.745116</vAcc></extensions></trkpt>
      <trkpt lon="-4.135741" lat="53.002816"><ele>653.020569</ele><time>2021-07-17T10:37:39Z</time><extensions><speed>0.000000</speed><course>240.875916</course><hAcc>0.916574</hAcc><vAcc>0.745772</vAcc></extensions></trkpt>
      <trkpt lon="-4.135741" lat="53.002816"><ele>653.020569</ele><time>2021-07-17T10:37:40Z</time><extensions><speed>0.000000</speed><course>269.430084</course><hAcc>0.916518</hAcc><vAcc>0.745842</vAcc></extensions></trkpt>
      <trkpt lon="-4.135741" lat="53.002816"><ele>653.020569</ele><time>2021-07-17T10:37:41Z</time><extensions><speed>0.000000</speed><course>274.056000</course><hAcc>0.916269</hAcc><vAcc>0.745353</vAcc></extensions></trkpt>
      <trkpt lon="-4.135741" lat="53.002816"><ele>653.020569</ele><time>2021-07-17T10:37:42Z</time><extensions><speed>0.000000</speed><course>273.580658</course><hAcc>0.915796</hAcc><vAcc>0.744351</vAcc></extensions></trkpt>
      <trkpt lon="-4.135741" lat="53.002816"><ele>653.020569</ele><time>2021-07-17T10:37:43Z</time><extensions><speed>0.000000</speed><course>266.285736</course><hAcc>0.915037</hAcc><vAcc>0.742938</vAcc></extensions></trkpt>
      <trkpt lon="-4.135741" lat="53.002816"><ele>653.020569</ele><time>2021-07-17T10:37:44Z</time><extensions><speed>0.000000</speed><course>280.416809</course><hAcc>0.914013</hAcc><vAcc>0.741368</vAcc></extensions></trkpt>
      <trkpt lon="-4.135741" lat="53.002816"><ele>653.020569</ele><time>2021-07-17T10:37:45Z</time><extensions><speed>0.000000</speed><course>289.633057</course><hAcc>0.913010</hAcc><vAcc>0.740194</vAcc></extensions></trkpt>
      <trkpt lon="-4.135741" lat="53.002816"><ele>653.020569</ele><time>2021-07-17T10:37:46Z</time><extensions><speed>0.000000</speed><course>274.042023</course><hAcc>0.912842</hAcc><vAcc>0.740470</vAcc></extensions></trkpt>
      <trkpt lon="-4.135741" lat="53.002816"><ele>653.020569</ele><time>2021-07-17T10:37:47Z</time><extensions><speed>0.000000</speed><course>259.398621</course><hAcc>0.915224</hAcc><vAcc>0.743994</vAcc></extensions></trkpt>
      <trkpt lon="-4.135741" lat="53.002816"><ele>653.020569</ele><time>2021-07-17T10:37:48Z</time><extensions><speed>0.000000</speed><course>235.228027</course><hAcc>0.923214</hAcc><vAcc>0.753547</vAcc></extensions></trkpt>
      <trkpt lon="-4.135741" lat="53.002816"><ele>653.020569</ele><time>2021-07-17T10:37:49Z</time><extensions><speed>0.000000</speed><course>233.943741</course><hAcc>0.941613</hAcc><vAcc>0.773020</vAcc></extensions></trkpt>
      <trkpt lon="-4.135741" lat="53.002816"><ele>653.020569</ele><time>2021-07-17T10:37:50Z</time><extensions><speed>0.000000</speed><course>251.986771</course><hAcc>0.977094</hAcc><vAcc>0.807258</vAcc></extensions></trkpt>
      <trkpt lon="-4.135741" lat="53.002816"><ele>653.019165</ele><time>2021-07-17T10:37:51Z</time><extensions><speed>0.000983</speed><course>207.637573</course><hAcc>0.938436</hAcc><vAcc>0.771129</vAcc></extensions></trkpt>
      <trkpt lon="-4.135741" lat="53.002816"><ele>653.019409</ele><time>2021-07-17T10:37:52Z</time><extensions><speed>0.000937</speed><course>199.781464</course><hAcc>0.918831</hAcc><vAcc>0.749948</vAcc></extensions></trkpt>
      <trkpt lon="-4.135741" lat="53.002816"><ele>653.019775</ele><time>2021-07-17T10:37:52Z</time><extensions><speed>0.000861</speed><course>204.898392</course><hAcc>0.910642</hAcc><vAcc>0.739487</vAcc></extensions></trkpt>
      <trkpt lon="-4.135741" lat="53.002816"><ele>653.020142</ele><time>2021-07-17T10:37:53Z</time><extensions><speed>0.000757</speed><course>218.988647</course><hAcc>0.908356</hAcc><vAcc>0.735391</vAcc></extensions></trkpt>
      <trkpt lon="-4.135741" lat="53.002816"><ele>653.020691</ele><time>2021-07-17T10:37:54Z</time><extensions><speed>0.000652</speed><course>240.875916</course><hAcc>0.908455</hAcc><vAcc>0.734550</vAcc></extensions></trkpt>
      <trkpt lon="-4.135741" lat="53.002816"><ele>653.021301</ele><time>2021-07-17T10:37:55Z</time><extensions><speed>0.000651</speed><course>240.875916</course><hAcc>0.908977</hAcc><vAcc>0.734968</vAcc></extensions></trkpt>
      <trkpt lon="-4.135741" lat="53.002816"><ele>653.022034</ele><time>2021-07-17T10:37:56Z</time><extensions><speed>0.000893</speed><course>240.875916</course><hAcc>0.909011</hAcc><vAcc>0.735509</vAcc></extensions></trkpt>
      <trkpt lon="-4.135741" lat="53.002816"><ele>653.023010</ele><time>2021-07-17T10:37:57Z</time><extensions><speed>0.001389</speed><course>240.875916</course><hAcc>0.908281</hAcc><vAcc>0.735633</vAcc></extensions></trkpt>
      <trkpt lon="-4.135741" lat="53.002816"><ele>653.024109</ele><time>2021-07-17T10:37:58Z</time><extensions><speed>0.002098</speed><course>240.875916</course><hAcc>0.906857</hAcc><vAcc>0.735179</vAcc></extensions></trkpt>
      <trkpt lon="-4.135741" lat="53.002816"><ele>653.025391</ele><time>2021-07-17T10:37:59Z</time><extensions><speed>0.003006</speed><course>240.875916</course><hAcc>0.904958</hAcc><vAcc>0.734199</vAcc></extensions></trkpt>
      <trkpt lon="-4.135741" lat="53.002816"><ele>653.026917</ele><time>2021-07-17T10:38:00Z</time><extensions><speed>0.004111</speed><course>269.430084</course><hAcc>0.902837</hAcc><vAcc>0.732849</vAcc></extensions></trkpt>
      <trkpt lon="-4.135741" lat="53.002816"><ele>653.028625</ele><time>2021-07-17T10:38:01Z</time><extensions><speed>0.005411</speed><course>274.056000</course><hAcc>0.900724</hAcc><vAcc>0.731315</vAcc></extensions></trkpt>
      <trkpt lon="-4.135741" lat="53.002816"><ele>653.030579</ele><time>2021-07-17T10:38:02Z</time><extensions><speed>0.006898</speed><course>273.580658</course><hAcc>0.898795</hAcc><vAcc>0.729775</vAcc></extensions></trkpt>
      <trkpt lon="-4.135741" lat="53.002816"><ele>653.032715</ele><time>2021-07-17T10:38:03Z</time><extensions><speed>0.008549</speed><course>266.285736</course><hAcc>0.897170</hAcc><vAcc>0.728374</vAcc></extensions></trkpt>
      <trkpt lon="-4.135741" lat="53.002816"><ele>653.035034</ele><time>2021-07-17T10:38:04Z</time><extensions><speed>0.010326</speed><course>280.416809</course><hAcc>0.895917</hAcc><vAcc>0.727218</vAcc></extensions></trkpt>
      <trkpt lon="-4.135741" lat="53.002816"><ele>653.037476</ele><time>2021-07-17T10:38:05Z</time><extensions><speed>0.012167</speed><course>289.633057</course><hAcc>0.895069</hAcc><vAcc>0.726373</vAcc></extensions></trkpt>
      <trkpt lon="-4.135741" lat="53.002816"><ele>653.040039</ele><time>2021-07-17T10:38:06Z</time><extensions><speed>0.013985</speed><course>274.042023</course><hAcc>0.894626</hAcc><vAcc>0.725869</vAcc></extensions></trkpt>
      <trkpt lon="-4.135742" lat="53.002816"><ele>653.042603</ele><time>2021-07-17T10:38:07Z</time><extensions><speed>0.015662</speed><course>259.398621</course><hAcc>0.894570</hAcc><vAcc>0.725704</vAcc></extensions></trkpt>
      <trkpt lon="-4.135742" lat="53.002816"><ele>653.045044</ele><time>2021-07-17T10:38:08Z</time><extensions><speed>0.017041</speed><course>235.228027</course><hAcc>0.894871</hAcc><vAcc>0.725850</vAcc></extensions></trkpt>
      <trkpt lon="-4.135742" lat="53.002816"><ele>653.047302</ele><time>2021-07-17T10:38:09Z</time><extensions><speed>0.017928</speed><course>233.943741</course><hAcc>0.895481</hAcc><vAcc>0.726256</vAcc></extensions></trkpt>
      <trkpt lon="-4.135742" lat="53.002816"><ele>653.049194</ele><time>2021-07-17T10:38:10Z</time><extensions><speed>0.018086</speed><course>251.986771</course><hAcc>0.896345</hAcc><vAcc>0.726853</vAcc></extensions></trkpt>
      <trkpt lon="-4.135743" lat="53.002816"><ele>653.050415</ele><time>2021-07-17T10:38:11Z</time><extensions><speed>0.017234</speed><course>230.632401</course><hAcc>0.897387</hAcc><vAcc>0.727559</vAcc></extensions></trkpt>
      <trkpt lon="-4.135743" lat="53.002816"><ele>653.050842</ele><time>2021-07-17T10:38:12Z</time><extensions><speed>0.015058</speed><course>208.539734</course><hAcc>0.898522</hAcc><vAcc>0.728290</vAcc></extensions></trkpt>
      <trkpt lon="-4.135743" lat="53.002816"><ele>653.050171</ele><time>2021-07-17T10:38:13Z</time><extensions><speed>0.011251</speed><course>217.062653</course><hAcc>0.899658</hAcc><vAcc>0.728973</vAcc></extensions></trkpt>
      <trkpt lon="-4.135743" lat="53.002816"><ele>653.048096</ele><time>2021-07-17T10:38:14Z</time><extensions><speed>0.005873</speed><course>216.480164</course><hAcc>0.900716</hAcc><vAcc>0.729576</vAcc></extensions></trkpt>
      <trkpt lon="-4.135743" lat="53.002816"><ele>653.044128</ele><time>2021-07-17T10:38:15Z</time><extensions><speed>0.005834</speed><course>215.204285</course><hAcc>0.901669</hAcc><vAcc>0.730148</vAcc></extensions></trkpt>
      <trkpt lon="-4.135743" lat="53.002816"><ele>653.038025</ele><time>2021-07-17T10:38:16Z</time><extensions><speed>0.016644</speed><course>192.608246</course><hAcc>0.902612</hAcc><vAcc>0.730885</vAcc></extensions></trkpt>
      <trkpt lon="-4.135743" lat="53.002816"><ele>653.029236</ele><time>2021-07-17T10:38:17Z</time><extensions><speed>0.031765</speed><course>196.818375</course><hAcc>0.903863</hAcc><vAcc>0.732207</vAcc></extensions></trkpt>
      <trkpt lon="-4.135742" lat="53.002816"><ele>653.017273</ele><time>2021-07-17T10:38:18Z</time><extensions><speed>0.050929</speed><course>200.564194</course><hAcc>0.906116</hAcc><vAcc>0.734874</vAcc></extensions></trkpt>
      <trkpt lon="-4.135741" lat="53.002816"><ele>653.001709</ele><time>2021-07-17T10:38:19Z</time><extensions><speed>0.074367</speed><course>224.718231</course><hAcc>0.910641</hAcc><vAcc>0.740111</vAcc></extensions></trkpt>
      <trkpt lon="-4.135740" lat="53.002816"><ele>652.981995</ele><time>2021-07-17T10:38:20Z</time><extensions><speed>0.102238</speed><course>228.969803</course><hAcc>0.919519</hAcc><vAcc>0.749720</vAcc></extensions></trkpt>
      <trkpt lon="-4.135738" lat="53.002816"><ele>652.957703</ele><time>2021-07-17T10:38:21Z</time><extensions><speed>0.134517</speed><course>250.366501</course><hAcc>0.935843</hAcc><vAcc>0.766147</vAcc></extensions></trkpt>
      <trkpt lon="-4.135736" lat="53.002816"><ele>652.928345</ele><time>2021-07-17T10:38:22Z</time><extensions><speed>0.170915</speed><course>-1.000000</course><hAcc>0.963795</hAcc><vAcc>0.792417</vAcc></extensions></trkpt>
      <trkpt lon="-4.135733" lat="53.002815"><ele>652.893677</ele><time>2021-07-17T10:38:23Z</time><extensions><speed>0.210790</speed><course>232.063629</course><hAcc>1.008435</hAcc><vAcc>0.831888</vAcc></extensions></trkpt>
      <trkpt lon="-4.135730" lat="53.002815"><ele>652.853394</ele><time>2021-07-17T10:38:24Z</time><extensions><speed>0.253049</speed><course>232.063614</course><hAcc>1.075094</hAcc><vAcc>0.887811</vAcc></extensions></trkpt>
      <trkpt lon="-4.135726" lat="53.002815"><ele>652.807495</ele><time>2021-07-17T10:38:25Z</time><extensions><speed>0.296043</speed><course>232.063614</course><hAcc>1.168452</hAcc><vAcc>0.962801</vAcc></extensions></trkpt>
      <trkpt lon="-4.135721" lat="53.002815"><ele>652.756165</ele><time>2021-07-17T10:38:26Z</time><extensions><speed>0.337460</speed><course>232.063599</course><hAcc>1.291605</hAcc><vAcc>1.058394</vAcc></extensions></trkpt>
      <trkpt lon="-4.135716" lat="53.002815"><ele>652.699951</ele><time>2021-07-17T10:38:27Z</time><extensions><speed>0.374206</speed><course>232.063599</course><hAcc>1.445466</hAcc><vAcc>1.174811</vAcc></extensions></trkpt>
      <trkpt lon="-4.135688" lat="53.002813"><ele>652.378723</ele><time>2021-07-17T10:38:34Z</time><extensions><speed>0.170861</speed><course>232.063583</course><hAcc>1.903351</hAcc><vAcc>1.501506</vAcc></extensions></trkpt>
      <trkpt lon="-4.135685" lat="53.002813"><ele>652.347717</ele><time>2021-07-17T10:38:35Z</time><extensions><speed>0.123825</speed><course>232.063583</course><hAcc>1.880909</hAcc><vAcc>1.477482</vAcc></extensions></trkpt>
      <trkpt lon="-4.135684" lat="53.002813"><ele>652.323669</ele><time>2021-07-17T10:38:36Z</time><extensions><speed>0.067573</speed><course>248.555511</course><hAcc>1.863582</hAcc><vAcc>1.456735</vAcc></extensions></trkpt>
      <trkpt lon="-4.135683" lat="53.002813"><ele>652.307922</ele><time>2021-07-17T10:38:37Z</time><extensions><speed>0.016658</speed><course>214.727661</course><hAcc>1.846469</hAcc><vAcc>1.436052</vAcc></extensions></trkpt>
      <trkpt lon="-4.135684" lat="53.002812"><ele>652.300537</ele><time>2021-07-17T10:38:38Z</time><extensions><speed>0.056750</speed><course>215.656113</course><hAcc>1.825752</hAcc><vAcc>1.413001</vAcc></extensions></trkpt>
      <trkpt lon="-4.135685" lat="53.002812"><ele>652.300293</ele><time>2021-07-17T10:38:39Z</time><extensions><speed>0.108466</speed><course>205.637772</course><hAcc>1.798736</hAcc><vAcc>1.385930</vAcc></extensions></trkpt>
      <trkpt lon="-4.135687" lat="53.002812"><ele>652.307129</ele><time>2021-07-17T10:38:41Z</time><extensions><speed>0.159432</speed><course>201.575424</course><hAcc>1.760204</hAcc><vAcc>1.350984</vAcc></extensions></trkpt>
      <trkpt lon="-4.135690" lat="53.002812"><ele>652.319519</ele><time>2021-07-17T10:38:42Z</time><extensions><speed>0.197049</speed><course>196.854248</course><hAcc>1.713660</hAcc><vAcc>1.311672</vAcc></extensions></trkpt>
      <trkpt lon="-4.135693" lat="53.002812"><ele>652.336914</ele><time>2021-07-17T10:38:43Z</time><extensions><speed>0.226544</speed><course>198.264053</course><hAcc>1.658392</hAcc><vAcc>1.267120</vAcc></extensions></trkpt>
      <trkpt lon="-4.135696" lat="53.002812"><ele>652.359009</ele><time>2021-07-17T10:38:44Z</time><extensions><speed>0.247710</speed><course>198.636932</course><hAcc>1.595131</hAcc><vAcc>1.217926</vAcc></extensions></trkpt>
      <trkpt lon="-4.135700" lat="53.002812"><ele>652.385254</ele><time>2021-07-17T10:38:45Z</time><extensions><speed>0.260835</speed><course>192.727798</course><hAcc>1.525167</hAcc><vAcc>1.165080</vAcc></extensions></trkpt>
      <trkpt lon="-4.135704" lat="53.002812"><ele>652.415222</ele><time>2021-07-17T10:38:46Z</time><extensions><speed>0.266611</speed><course>184.691818</course><hAcc>1.449850</hAcc><vAcc>1.109628</vAcc></extensions></trkpt>
      <trkpt lon="-4.135708" lat="53.002812"><ele>652.448059</ele><time>2021-07-17T10:38:47Z</time><extensions><speed>0.265701</speed><course>177.917740</course><hAcc>1.370937</hAcc><vAcc>1.052896</vAcc></extensions></trkpt>
      <trkpt lon="-4.135712" lat="53.002813"><ele>652.482666</ele><time>2021-07-17T10:38:48Z</time><extensions><speed>0.258853</speed><course>169.935883</course><hAcc>1.290370</hAcc><vAcc>0.996267</vAcc></extensions></trkpt>
      <trkpt lon="-4.135716" lat="53.002813"><ele>652.517761</ele><time>2021-07-17T10:38:49Z</time><extensions><speed>0.246821</speed><course>168.290512</course><hAcc>1.210377</hAcc><vAcc>0.941188</vAcc></extensions></trkpt>
      <trkpt lon="-4.135719" lat="53.002813"><ele>652.551636</ele><time>2021-07-17T10:38:50Z</time><extensions><speed>0.230431</speed><course>175.847488</course><hAcc>1.133584</hAcc><vAcc>0.889212</vAcc></extensions></trkpt>
      <trkpt lon="-4.135720" lat="53.002813"><ele>652.559570</ele><time>2021-07-17T10:38:50Z</time><extensions><speed>0.229307</speed><course>182.489380</course><hAcc>1.116207</hAcc><vAcc>0.877566</vAcc></extensions></trkpt>
      <trkpt lon="-4.135723" lat="53.002813"><ele>652.583313</ele><time>2021-07-17T10:38:50Z</time><extensions><speed>0.217781</speed><course>193.224472</course><hAcc>1.069780</hAcc><vAcc>0.846635</vAcc></extensions></trkpt>
      <trkpt lon="-4.135726" lat="53.002813"><ele>652.612244</ele><time>2021-07-17T10:38:51Z</time><extensions><speed>0.195838</speed><course>210.457108</course><hAcc>1.019217</hAcc><vAcc>0.813079</vAcc></extensions></trkpt>
      <trkpt lon="-4.135728" lat="53.002814"><ele>652.637939</ele><time>2021-07-17T10:38:52Z</time><extensions><speed>0.173358</speed><course>227.054108</course><hAcc>0.978961</hAcc><vAcc>0.786259</vAcc></extensions></trkpt>
      <trkpt lon="-4.135731" lat="53.002814"><ele>652.660706</ele><time>2021-07-17T10:38:53Z</time><extensions><speed>0.151103</speed><course>247.666534</course><hAcc>0.948662</hAcc><vAcc>0.765877</vAcc></extensions></trkpt>
      <trkpt lon="-4.135733" lat="53.002815"><ele>652.680969</ele><time>2021-07-17T10:38:54Z</time><extensions><speed>0.129306</speed><course>261.197876</course><hAcc>0.927160</hAcc><vAcc>0.751218</vAcc></extensions></trkpt>
      <trkpt lon="-4.135734" lat="53.002815"><ele>652.698853</ele><time>2021-07-17T10:38:56Z</time><extensions><speed>0.108380</speed><course>263.217255</course><hAcc>0.912833</hAcc><vAcc>0.741328</vAcc></extensions></trkpt>
      <trkpt lon="-4.135736" lat="53.002815"><ele>652.714539</ele><time>2021-07-17T10:38:57Z</time><extensions><speed>0.089167</speed><course>271.463165</course><hAcc>0.904023</hAcc><vAcc>0.735223</vAcc></extensions></trkpt>
      <trkpt lon="-4.135737" lat="53.002816"><ele>652.728149</ele><time>2021-07-17T10:38:58Z</time><extensions><speed>0.072062</speed><course>281.991608</course><hAcc>0.899194</hAcc><vAcc>0.731957</vAcc></extensions></trkpt>
      <trkpt lon="-4.135737" lat="53.002816"><ele>652.739746</ele><time>2021-07-17T10:38:59Z</time><extensions><speed>0.057291</speed><course>285.895782</course><hAcc>0.897090</hAcc><vAcc>0.730720</vAcc></extensions></trkpt>
      <trkpt lon="-4.135738" lat="53.002816"><ele>652.749573</ele><time>2021-07-17T10:39:00Z</time><extensions><speed>0.044935</speed><course>287.327179</course><hAcc>0.896761</hAcc><vAcc>0.730864</vAcc></extensions></trkpt>
      <trkpt lon="-4.135738" lat="53.002817"><ele>652.757751</ele><time>2021-07-17T10:39:01Z</time><extensions><speed>0.034962</speed><course>297.396240</course><hAcc>0.897546</hAcc><vAcc>0.731897</vAcc></extensions></trkpt>
      <trkpt lon="-4.135739" lat="53.002817"><ele>652.764404</ele><time>2021-07-17T10:39:02Z</time><extensions><speed>0.027260</speed><course>299.473175</course><hAcc>0.899007</hAcc><vAcc>0.733464</vAcc></extensions></trkpt>
      <trkpt lon="-4.135739" lat="53.002817"><ele>652.769836</ele><time>2021-07-17T10:39:03Z</time><extensions><speed>0.021632</speed><course>297.683289</course><hAcc>0.900867</hAcc><vAcc>0.735301</vAcc></extensions></trkpt>
      <trkpt lon="-4.135739" lat="53.002817"><ele>652.774109</ele><time>2021-07-17T10:39:04Z</time><extensions><speed>0.017776</speed><course>292.365356</course><hAcc>0.902943</hAcc><vAcc>0.737204</vAcc></extensions></trkpt>
      <trkpt lon="-4.135739" lat="53.002817"><ele>652.777405</ele><time>2021-07-17T10:39:05Z</time><extensions><speed>0.015278</speed><course>291.092651</course><hAcc>0.905092</hAcc><vAcc>0.739000</vAcc></extensions></trkpt>
      <trkpt lon="-4.135739" lat="53.002817"><ele>652.779907</ele><time>2021-07-17T10:39:06Z</time><extensions><speed>0.013667</speed><course>297.007721</course><hAcc>0.907174</hAcc><vAcc>0.740531</vAcc></extensions></trkpt>
      <trkpt lon="-4.135738" lat="53.002818"><ele>652.781616</ele><time>2021-07-17T10:39:07Z</time><extensions><speed>0.012531</speed><course>291.539093</course><hAcc>0.909029</hAcc><vAcc>0.741657</vAcc></extensions></trkpt>
      <trkpt lon="-4.135738" lat="53.002818"><ele>652.782837</ele><time>2021-07-17T10:39:08Z</time><extensions><speed>0.011594</speed><course>293.314819</course><hAcc>0.910489</hAcc><vAcc>0.742284</vAcc></extensions></trkpt>
      <trkpt lon="-4.135738" lat="53.002818"><ele>652.783508</ele><time>2021-07-17T10:39:09Z</time><extensions><speed>0.010713</speed><course>297.043213</course><hAcc>0.911423</hAcc><vAcc>0.742414</vAcc></extensions></trkpt>
      <trkpt lon="-4.135738" lat="53.002818"><ele>652.783813</ele><time>2021-07-17T10:39:10Z</time><extensions><speed>0.009838</speed><course>301.573547</course><hAcc>0.911829</hAcc><vAcc>0.742244</vAcc></extensions></trkpt>
      <trkpt lon="-4.135738" lat="53.002818"><ele>652.783813</ele><time>2021-07-17T10:39:11Z</time><extensions><speed>0.008973</speed><course>305.542847</course><hAcc>0.912004</hAcc><vAcc>0.742312</vAcc></extensions></trkpt>
      <trkpt lon="-4.135738" lat="53.002818"><ele>652.783569</ele><time>2021-07-17T10:39:12Z</time><extensions><speed>0.008144</speed><course>304.461029</course><hAcc>0.912798</hAcc><vAcc>0.743680</vAcc></extensions></trkpt>
      <trkpt lon="-4.135738" lat="53.002818"><ele>652.783142</ele><time>2021-07-17T10:39:13Z</time><extensions><speed>0.007382</speed><course>304.519958</course><hAcc>0.915966</hAcc><vAcc>0.748176</vAcc></extensions></trkpt>
      <trkpt lon="-4.135738" lat="53.002818"><ele>652.782593</ele><time>2021-07-17T10:39:14Z</time><extensions><speed>0.006713</speed><course>306.835541</course><hAcc>0.924601</hAcc><vAcc>0.758613</vAcc></extensions></trkpt>
      <trkpt lon="-4.135737" lat="53.002818"><ele>652.781921</ele><time>2021-07-17T10:39:15Z</time><extensions><speed>0.006154</speed><course>312.924469</course><hAcc>0.943529</hAcc><vAcc>0.778906</vAcc></extensions></trkpt>
      <trkpt lon="-4.135737" lat="53.002818"><ele>652.781189</ele><time>2021-07-17T10:39:16Z</time><extensions><speed>0.005711</speed><course>313.121582</course><hAcc>0.979425</hAcc><vAcc>0.813907</vAcc></extensions></trkpt>
      <trkpt lon="-4.135737" lat="53.002817"><ele>652.756592</ele><time>2021-07-17T10:39:17Z</time><extensions><speed>0.008214</speed><course>207.637573</course><hAcc>0.941335</hAcc><vAcc>0.778361</vAcc></extensions></trkpt>
      <trkpt lon="-4.135738" lat="53.002817"><ele>652.753296</ele><time>2021-07-17T10:39:18Z</time><extensions><speed>0.008974</speed><course>199.781464</course><hAcc>0.921824</hAcc><vAcc>0.757040</vAcc></extensions></trkpt>
      <trkpt lon="-4.135738" lat="53.002817"><ele>652.750122</ele><time>2021-07-17T10:39:19Z</time><extensions><speed>0.009831</speed><course>204.898392</course><hAcc>0.913880</hAcc><vAcc>0.746691</vAcc></extensions></trkpt>
      <trkpt lon="-4.135738" lat="53.002817"><ele>652.747192</ele><time>2021-07-17T10:39:20Z</time><extensions><speed>0.010723</speed><course>218.988647</course><hAcc>0.912017</hAcc><vAcc>0.742959</vAcc></extensions></trkpt>
      <trkpt lon="-4.135738" lat="53.002817"><ele>652.744568</ele><time>2021-07-17T10:39:21Z</time><extensions><speed>0.011560</speed><course>240.875916</course><hAcc>0.912726</hAcc><vAcc>0.742697</vAcc></extensions></trkpt>
      <trkpt lon="-4.135738" lat="53.002817"><ele>652.742493</ele><time>2021-07-17T10:39:22Z</time><extensions><speed>0.012228</speed><course>240.875916</course><hAcc>0.914038</hAcc><vAcc>0.743859</vAcc></extensions></trkpt>
      <trkpt lon="-4.135738" lat="53.002817"><ele>652.741089</ele><time>2021-07-17T10:39:23Z</time><extensions><speed>0.012582</speed><course>240.875916</course><hAcc>0.915019</hAcc><vAcc>0.745254</vAcc></extensions></trkpt>
      <trkpt lon="-4.135739" lat="53.002817"><ele>652.740540</ele><time>2021-07-17T10:39:24Z</time><extensions><speed>0.012447</speed><course>240.875916</course><hAcc>0.915362</hAcc><vAcc>0.746277</vAcc></extensions></trkpt>
      <trkpt lon="-4.135739" lat="53.002817"><ele>652.741028</ele><time>2021-07-17T10:39:25Z</time><extensions><speed>0.011625</speed><course>240.875916</course><hAcc>0.915084</hAcc><vAcc>0.746697</vAcc></extensions></trkpt>
      <trkpt lon="-4.135739" lat="53.002817"><ele>652.742920</ele><time>2021-07-17T10:39:26Z</time><extensions><speed>0.009900</speed><course>240.875916</course><hAcc>0.914336</hAcc><vAcc>0.746494</vAcc></extensions></trkpt>
      <trkpt lon="-4.135739" lat="53.002817"><ele>652.746399</ele><time>2021-07-17T10:39:27Z</time><extensions><speed>0.007112</speed><course>269.430084</course><hAcc>0.913296</hAcc><vAcc>0.745764</vAcc></extensions></trkpt>
      <trkpt lon="-4.135739" lat="53.002817"><ele>652.751892</ele><time>2021-07-17T10:39:28Z</time><extensions><speed>0.003798</speed><course>274.056000</course><hAcc>0.912126</hAcc><vAcc>0.744672</vAcc></extensions></trkpt>
      <trkpt lon="-4.135739" lat="53.002817"><ele>652.759583</ele><time>2021-07-17T10:39:29Z</time><extensions><speed>0.005892</speed><course>273.580658</course><hAcc>0.910982</hAcc><vAcc>0.743447</vAcc></extensions></trkpt>
      <trkpt lon="-4.135739" lat="53.002817"><ele>652.770020</ele><time>2021-07-17T10:39:30Z</time><extensions><speed>0.013841</speed><course>266.285736</course><hAcc>0.910075</hAcc><vAcc>0.742426</vAcc></extensions></trkpt>
      <trkpt lon="-4.135739" lat="53.002817"><ele>652.783386</ele><time>2021-07-17T10:39:31Z</time><extensions><speed>0.024750</speed><course>280.416809</course><hAcc>0.909777</hAcc><vAcc>0.742124</vAcc></extensions></trkpt>
      <trkpt lon="-4.135738" lat="53.002817"><ele>652.800110</ele><time>2021-07-17T10:39:32Z</time><extensions><speed>0.038532</speed><course>289.633057</course><hAcc>0.910775</hAcc><vAcc>0.743343</vAcc></extensions></trkpt>
      <trkpt lon="-4.135738" lat="53.002818"><ele>652.820557</ele><time>2021-07-17T10:39:33Z</time><extensions><speed>0.055336</speed><course>274.042023</course><hAcc>0.914274</hAcc><vAcc>0.747299</vAcc></extensions></trkpt>
      <trkpt lon="-4.135737" lat="53.002818"><ele>652.844910</ele><time>2021-07-17T10:39:34Z</time><extensions><speed>0.075259</speed><course>259.398621</course><hAcc>0.922219</hAcc><vAcc>0.755737</vAcc></extensions></trkpt>
      <trkpt lon="-4.135736" lat="53.002818"><ele>652.873474</ele><time>2021-07-17T10:39:35Z</time><extensions><speed>0.098269</speed><course>235.228027</course><hAcc>0.937505</hAcc><vAcc>0.771003</vAcc></extensions></trkpt>
      <trkpt lon="-4.135734" lat="53.002818"><ele>652.906433</ele><time>2021-07-17T10:39:36Z</time><extensions><speed>0.124146</speed><course>233.943741</course><hAcc>0.964054</hAcc><vAcc>0.795991</vAcc></extensions></trkpt>
      <trkpt lon="-4.135732" lat="53.002819"><ele>652.943665</ele><time>2021-07-17T10:39:37Z</time><extensions><speed>0.152415</speed><course>251.986771</course><hAcc>1.006639</hAcc><vAcc>0.833921</vAcc></extensions></trkpt>
      <trkpt lon="-4.135730" lat="53.002819"><ele>652.985229</ele><time>2021-07-17T10:39:38Z</time><extensions><speed>0.182283</speed><course>230.632401</course><hAcc>1.070339</hAcc><vAcc>0.887930</vAcc></extensions></trkpt>
      <trkpt lon="-4.135727" lat="53.002820"><ele>653.030701</ele><time>2021-07-17T10:39:39Z</time><extensions><speed>0.212564</speed><course>208.539734</course><hAcc>1.159686</hAcc><vAcc>0.960568</vAcc></extensions></trkpt>
      <trkpt lon="-4.135724" lat="53.002820"><ele>653.079651</ele><time>2021-07-17T10:39:40Z</time><extensions><speed>0.241599</speed><course>217.062653</course><hAcc>1.277778</hAcc><vAcc>1.053369</vAcc></extensions></trkpt>
      <trkpt lon="-4.135720" lat="53.002821"><ele>653.131287</ele><time>2021-07-17T10:39:41Z</time><extensions><speed>0.267183</speed><course>216.480164</course><hAcc>1.425665</hAcc><vAcc>1.166610</vAcc></extensions></trkpt>
      <trkpt lon="-4.135704" lat="53.002828"><ele>653.010498</ele><time>2021-07-17T10:39:47Z</time><extensions><speed>0.163938</speed><course>215.204285</course><hAcc>1.834288</hAcc><vAcc>1.473100</vAcc></extensions></trkpt>
      <trkpt lon="-4.135703" lat="53.002829"><ele>652.920715</ele><time>2021-07-17T10:39:48Z</time><extensions><speed>0.153029</speed><course>192.608246</course><hAcc>1.808425</hAcc><vAcc>1.451086</vAcc></extensions></trkpt>
      <trkpt lon="-4.135703" lat="53.002831"><ele>652.818237</ele><time>2021-07-17T10:39:49Z</time><extensions><speed>0.147254</speed><course>196.818375</course><hAcc>1.789265</hAcc><vAcc>1.433634</vAcc></extensions></trkpt>
      <trkpt lon="-4.135704" lat="53.002832"><ele>652.710388</ele><time>2021-07-17T10:39:50Z</time><extensions><speed>0.148098</speed><course>200.564194</course><hAcc>1.773498</hAcc><vAcc>1.419007</vAcc></extensions></trkpt>
      <trkpt lon="-4.135705" lat="53.002833"><ele>652.595825</ele><time>2021-07-17T10:39:51Z</time><extensions><speed>0.152771</speed><course>224.718231</course><hAcc>1.757775</hAcc><vAcc>1.404997</vAcc></extensions></trkpt>
      <trkpt lon="-4.135706" lat="53.002834"><ele>652.457764</ele><time>2021-07-17T10:39:53Z</time><extensions><speed>0.160957</speed><course>228.969803</course><hAcc>1.734406</hAcc><vAcc>1.386146</vAcc></extensions></trkpt>
      <trkpt lon="-4.135708" lat="53.002836"><ele>652.332397</ele><time>2021-07-17T10:39:54Z</time><extensions><speed>0.166501</speed><course>250.366501</course><hAcc>1.708149</hAcc><vAcc>1.366426</vAcc></extensions></trkpt>
      <trkpt lon="-4.135710" lat="53.002837"><ele>652.204956</ele><time>2021-07-17T10:39:55Z</time><extensions><speed>0.169883</speed><course>-1.000000</course><hAcc>1.679031</hAcc><vAcc>1.345359</vAcc></extensions></trkpt>
      <trkpt lon="-4.135712" lat="53.002837"><ele>652.077454</ele><time>2021-07-17T10:39:56Z</time><extensions><speed>0.170454</speed><course>232.063629</course><hAcc>1.647615</hAcc><vAcc>1.323188</vAcc></extensions></trkpt>
      <trkpt lon="-4.135714" lat="53.002838"><ele>651.951660</ele><time>2021-07-17T10:39:57Z</time><extensions><speed>0.167917</speed><course>232.063614</course><hAcc>1.614809</hAcc><vAcc>1.300329</vAcc></extensions></trkpt>
      <trkpt lon="-4.135716" lat="53.002839"><ele>651.829407</ele><time>2021-07-17T10:39:58Z</time><extensions><speed>0.162216</speed><course>232.063614</course><hAcc>1.581787</hAcc><vAcc>1.277307</vAcc></extensions></trkpt>
      <trkpt lon="-4.135718" lat="53.002840"><ele>651.712524</ele><time>2021-07-17T10:39:59Z</time><extensions><speed>0.153567</speed><course>232.063599</course><hAcc>1.549801</hAcc><vAcc>1.254686</vAcc></extensions></trkpt>
      <trkpt lon="-4.135720" lat="53.002840"><ele>651.602478</ele><time>2021-07-17T10:40:00Z</time><extensions><speed>0.142414</speed><course>232.063599</course><hAcc>1.519906</hAcc><vAcc>1.232983</vAcc></extensions></trkpt>
      <trkpt lon="-4.135722" lat="53.002841"><ele>651.500732</ele><time>2021-07-17T10:40:01Z</time><extensions><speed>0.129246</speed><course>232.063583</course><hAcc>1.492817</hAcc><vAcc>1.212610</vAcc></extensions></trkpt>
      <trkpt lon="-4.135724" lat="53.002841"><ele>651.408386</ele><time>2021-07-17T10:40:02Z</time><extensions><speed>0.114709</speed><course>232.063583</course><hAcc>1.468906</hAcc><vAcc>1.193861</vAcc></extensions></trkpt>
      <trkpt lon="-4.135725" lat="53.002841"><ele>651.326233</ele><time>2021-07-17T10:40:03Z</time><extensions><speed>0.099607</speed><course>248.555511</course><hAcc>1.448244</hAcc><vAcc>1.176905</vAcc></extensions></trkpt>
      <trkpt lon="-4.135727" lat="53.002841"><ele>651.254639</ele><time>2021-07-17T10:40:04Z</time><extensions><speed>0.084474</speed><course>214.727661</course><hAcc>1.430809</hAcc><vAcc>1.161845</vAcc></extensions></trkpt>
      <trkpt lon="-4.135728" lat="53.002841"><ele>651.193848</ele><time>2021-07-17T10:40:05Z</time><extensions><speed>0.069825</speed><course>215.656113</course><hAcc>1.416685</hAcc><vAcc>1.148784</vAcc></extensions></trkpt>
      <trkpt lon="-4.135729" lat="53.002841"><ele>651.143494</ele><time>2021-07-17T10:40:06Z</time><extensions><speed>0.056325</speed><course>205.637772</course><hAcc>1.405943</hAcc><vAcc>1.137777</vAcc></extensions></trkpt>
      <trkpt lon="-4.135730" lat="53.002841"><ele>651.103149</ele><time>2021-07-17T10:40:07Z</time><extensions><speed>0.044531</speed><course>201.575424</course><hAcc>1.398476</hAcc><vAcc>1.128786</vAcc></extensions></trkpt>
      <trkpt lon="-4.135730" lat="53.002841"><ele>651.071960</ele><time>2021-07-17T10:40:08Z</time><extensions><speed>0.034903</speed><course>196.854248</course><hAcc>1.393999</hAcc><vAcc>1.121680</vAcc></extensions></trkpt>
      <trkpt lon="-4.135731" lat="53.002841"><ele>651.049011</ele><time>2021-07-17T10:40:09Z</time><extensions><speed>0.027861</speed><course>198.264053</course><hAcc>1.392041</hAcc><vAcc>1.116239</vAcc></extensions></trkpt>
      <trkpt lon="-4.135731" lat="53.002841"><ele>651.033264</ele><time>2021-07-17T10:40:10Z</time><extensions><speed>0.023629</speed><course>198.636932</course><hAcc>1.391950</hAcc><vAcc>1.112162</vAcc></extensions></trkpt>
      <trkpt lon="-4.135731" lat="53.002841"><ele>651.023682</ele><time>2021-07-17T10:40:11Z</time><extensions><speed>0.021883</speed><course>192.727798</course><hAcc>1.392897</hAcc><vAcc>1.109072</vAcc></extensions></trkpt>
      <trkpt lon="-4.135731" lat="53.002841"><ele>651.019348</ele><time>2021-07-17T10:40:12Z</time><extensions><speed>0.021834</speed><course>184.691818</course><hAcc>1.393904</hAcc><vAcc>1.106535</vAcc></extensions></trkpt>
      <trkpt lon="-4.135731" lat="53.002840"><ele>651.019348</ele><time>2021-07-17T10:40:13Z</time><extensions><speed>0.022603</speed><course>177.917740</course><hAcc>1.393990</hAcc><vAcc>1.104104</vAcc></extensions></trkpt>
      <trkpt lon="-4.135731" lat="53.002840"><ele>651.022949</ele><time>2021-07-17T10:40:14Z</time><extensions><speed>0.023520</speed><course>169.935883</course><hAcc>1.392428</hAcc><vAcc>1.101405</vAcc></extensions></trkpt>
      <trkpt lon="-4.135731" lat="53.002840"><ele>651.029419</ele><time>2021-07-17T10:40:15Z</time><extensions><speed>0.024201</speed><course>168.290512</course><hAcc>1.388881</hAcc><vAcc>1.098174</vAcc></extensions></trkpt>
      <trkpt lon="-4.135731" lat="53.002840"><ele>651.038086</ele><time>2021-07-17T10:40:16Z</time><extensions><speed>0.024457</speed><course>175.847488</course><hAcc>1.383393</hAcc><vAcc>1.094272</vAcc></extensions></trkpt>
      <trkpt lon="-4.135730" lat="53.002840"><ele>651.048401</ele><time>2021-07-17T10:40:17Z</time><extensions><speed>0.024244</speed><course>182.489380</course><hAcc>1.376251</hAcc><vAcc>1.089645</vAcc></extensions></trkpt>
      <trkpt lon="-4.135730" lat="53.002840"><ele>651.059875</ele><time>2021-07-17T10:40:18Z</time><extensions><speed>0.023613</speed><course>193.224472</course><hAcc>1.367730</hAcc><vAcc>1.084269</vAcc></extensions></trkpt>
      <trkpt lon="-4.135730" lat="53.002839"><ele>651.072083</ele><time>2021-07-17T10:40:19Z</time><extensions><speed>0.022643</speed><course>210.457108</course><hAcc>1.357967</hAcc><vAcc>1.078137</vAcc></extensions></trkpt>
      <trkpt lon="-4.135730" lat="53.002839"><ele>651.084656</ele><time>2021-07-17T10:40:20Z</time><extensions><speed>0.021420</speed><course>227.054108</course><hAcc>1.346995</hAcc><vAcc>1.071296</vAcc></extensions></trkpt>
      <trkpt lon="-4.135730" lat="53.002839"><ele>651.097412</ele><time>2021-07-17T10:40:21Z</time><extensions><speed>0.020029</speed><course>247.666534</course><hAcc>1.334821</hAcc><vAcc>1.063914</vAcc></extensions></trkpt>
      <trkpt lon="-4.135729" lat="53.002839"><ele>651.110046</ele><time>2021-07-17T10:40:22Z</time><extensions><speed>0.018547</speed><course>261.197876</course><hAcc>1.321551</hAcc><vAcc>1.056371</vAcc></extensions></trkpt>
      <trkpt lon="-4.135729" lat="53.002839"><ele>651.122498</ele><time>2021-07-17T10:40:23Z</time><extensions><speed>0.017043</speed><course>263.217255</course><hAcc>1.307573</hAcc><vAcc>1.049383</vAcc></extensions></trkpt>
      <trkpt lon="-4.135729" lat="53.002839"><ele>651.134583</ele><time>2021-07-17T10:40:24Z</time><extensions><speed>0.015575</speed><course>271.463165</course><hAcc>1.293807</hAcc><vAcc>1.044142</vAcc></extensions></trkpt>
      <trkpt lon="-4.135729" lat="53.002839"><ele>651.146301</ele><time>2021-07-17T10:40:25Z</time><extensions><speed>0.014191</speed><course>281.991608</course><hAcc>1.282006</hAcc><vAcc>1.042484</vAcc></extensions></trkpt>
      <trkpt lon="-4.135729" lat="53.002839"><ele>651.157593</ele><time>2021-07-17T10:40:26Z</time><extensions><speed>0.012928</speed><course>285.895782</course><hAcc>1.275120</hAcc><vAcc>1.047026</vAcc></extensions></trkpt>
      <trkpt lon="-4.135729" lat="53.002838"><ele>651.168518</ele><time>2021-07-17T10:40:27Z</time><extensions><speed>0.011813</speed><course>287.327179</course><hAcc>1.277618</hAcc><vAcc>1.061230</vAcc></extensions></trkpt>
      <trkpt lon="-4.135728" lat="53.002838"><ele>651.179016</ele><time>2021-07-17T10:40:28Z</time><extensions><speed>0.010865</speed><course>297.396240</course><hAcc>1.295637</hAcc><vAcc>1.089289</vAcc></extensions></trkpt>
      <trkpt lon="-4.135728" lat="53.002838"><ele>651.189209</ele><time>2021-07-17T10:40:29Z</time><extensions><speed>0.010097</speed><course>299.473175</course><hAcc>1.336602</hAcc><vAcc>1.135765</vAcc></extensions></trkpt>
      <trkpt lon="-4.135728" lat="53.002839"><ele>651.203613</ele><time>2021-07-17T10:40:30Z</time><extensions><speed>0.000000</speed><course>207.637573</course><hAcc>1.292265</hAcc><vAcc>1.091730</vAcc></extensions></trkpt>
      <trkpt lon="-4.135728" lat="53.002839"><ele>651.203613</ele><time>2021-07-17T10:40:31Z</time><extensions><speed>0.000000</speed><course>199.781464</course><hAcc>1.226209</hAcc><vAcc>1.033899</vAcc></extensions></trkpt>
      <trkpt lon="-4.135728" lat="53.002839"><ele>651.203613</ele><time>2021-07-17T10:40:32Z</time><extensions><speed>0.000000</speed><course>204.898392</course><hAcc>1.182327</hAcc><vAcc>0.992923</vAcc></extensions></trkpt>
      <trkpt lon="-4.135728" lat="53.002839"><ele>651.203613</ele><time>2021-07-17T10:40:33Z</time><extensions><speed>0.000000</speed><course>218.988647</course><hAcc>1.154696</hAcc><vAcc>0.965008</vAcc></extensions></trkpt>
      <trkpt lon="-4.135728" lat="53.002839"><ele>651.203613</ele><time>2021-07-17T10:40:34Z</time><extensions><speed>0.000000</speed><course>240.875916</course><hAcc>1.138123</hAcc><vAcc>0.946581</vAcc></extensions></trkpt>
      <trkpt lon="-4.135728" lat="53.002839"><ele>651.203613</ele><time>2021-07-17T10:40:35Z</time><extensions><speed>0.000000</speed><course>240.875916</course><hAcc>1.128504</hAcc><vAcc>0.934575</vAcc></extensions></trkpt>
      <trkpt lon="-4.135728" lat="53.002839"><ele>651.203613</ele><time>2021-07-17T10:40:36Z</time><extensions><speed>0.000000</speed><course>240.875916</course><hAcc>1.122859</hAcc><vAcc>0.926556</vAcc></extensions></trkpt>
      <trkpt lon="-4.135728" lat="53.002839"><ele>651.203613</ele><time>2021-07-17T10:40:37Z</time><extensions><speed>0.000000</speed><course>240.875916</course><hAcc>1.119172</hAcc><vAcc>0.920712</vAcc></extensions></trkpt>
      <trkpt lon="-4.135728" lat="53.002839"><ele>651.203613</ele><time>2021-07-17T10:40:38Z</time><extensions><speed>0.000000</speed><course>240.875916</course><hAcc>1.116161</hAcc><vAcc>0.915774</vAcc></extensions></trkpt>
      <trkpt lon="-4.135728" lat="53.002839"><ele>651.203613</ele><time>2021-07-17T10:40:39Z</time><extensions><speed>0.000000</speed><course>240.875916</course><hAcc>1.113060</hAcc><vAcc>0.910898</vAcc></extensions></trkpt>
      <trkpt lon="-4.135728" lat="53.002839"><ele>651.203613</ele><time>2021-07-17T10:40:40Z</time><extensions><speed>0.000000</speed><course>269.430084</course><hAcc>1.109430</hAcc><vAcc>0.905568</vAcc></extensions></trkpt>
      <trkpt lon="-4.135728" lat="53.002839"><ele>651.203613</ele><time>2021-07-17T10:40:41Z</time><extensions><speed>0.000000</speed><course>274.056000</course><hAcc>1.105048</hAcc><vAcc>0.899520</vAcc></extensions></trkpt>
      <trkpt lon="-4.135728" lat="53.002839"><ele>651.203613</ele><time>2021-07-17T10:40:42Z</time><extensions><speed>0.000000</speed><course>273.580658</course><hAcc>1.099855</hAcc><vAcc>0.892716</vAcc></extensions></trkpt>
      <trkpt lon="-4.135728" lat="53.002839"><ele>651.203613</ele><time>2021-07-17T10:40:43Z</time><extensions><speed>0.000000</speed><course>266.285736</course><hAcc>1.093978</hAcc><vAcc>0.885364</vAcc></extensions></trkpt>
      <trkpt lon="-4.135728" lat="53.002839"><ele>651.203613</ele><time>2021-07-17T10:40:44Z</time><extensions><speed>0.000000</speed><course>280.416809</course><hAcc>1.087825</hAcc><vAcc>0.877987</vAcc></extensions></trkpt>
      <trkpt lon="-4.135728" lat="53.002839"><ele>651.203613</ele><time>2021-07-17T10:40:45Z</time><extensions><speed>0.000000</speed><course>289.633057</course><hAcc>1.082262</hAcc><vAcc>0.871542</vAcc></extensions></trkpt>
      <trkpt lon="-4.135728" lat="53.002839"><ele>651.203613</ele><time>2021-07-17T10:40:46Z</time><extensions><speed>0.000000</speed><course>274.042023</course><hAcc>1.078874</hAcc><vAcc>0.867589</vAcc></extensions></trkpt>
      <trkpt lon="-4.135728" lat="53.002839"><ele>651.203613</ele><time>2021-07-17T10:40:47Z</time><extensions><speed>0.000000</speed><course>259.398621</course><hAcc>1.080285</hAcc><vAcc>0.868474</vAcc></extensions></trkpt>
      <trkpt lon="-4.135728" lat="53.002839"><ele>651.203613</ele><time>2021-07-17T10:40:48Z</time><extensions><speed>0.000000</speed><course>235.228027</course><hAcc>1.090487</hAcc><vAcc>0.877471</vAcc></extensions></trkpt>
      <trkpt lon="-4.135728" lat="53.002839"><ele>651.203613</ele><time>2021-07-17T10:40:49Z</time><extensions><speed>0.000000</speed><course>233.943741</course><hAcc>1.115010</hAcc><vAcc>0.898774</vAcc></extensions></trkpt>
      <trkpt lon="-4.135728" lat="53.002839"><ele>651.203613</ele><time>2021-07-17T10:40:50Z</time><extensions><speed>0.000000</speed><course>251.986771</course><hAcc>1.160724</hAcc><vAcc>0.937206</vAcc></extensions></trkpt>
      <trkpt lon="-4.135728" lat="53.002839"><ele>651.203613</ele><time>2021-07-17T10:40:51Z</time><extensions><speed>0.000000</speed><course>207.637573</course><hAcc>1.107050</hAcc><vAcc>0.889605</vAcc></extensions></trkpt>
      <trkpt lon="-4.135728" lat="53.002839"><ele>651.203613</ele><time>2021-07-17T10:40:52Z</time><extensions><speed>0.000000</speed><course>199.781464</course><hAcc>1.073222</hAcc><vAcc>0.855976</vAcc></extensions></trkpt>
      <trkpt lon="-4.135728" lat="53.002839"><ele>651.203613</ele><time>2021-07-17T10:40:53Z</time><extensions><speed>0.000000</speed><course>204.898392</course><hAcc>1.055183</hAcc><vAcc>0.835757</vAcc></extensions></trkpt>
      <trkpt lon="-4.135728" lat="53.002839"><ele>651.203613</ele><time>2021-07-17T10:40:54Z</time><extensions><speed>0.000000</speed><course>218.988647</course><hAcc>1.046915</hAcc><vAcc>0.824603</vAcc></extensions></trkpt>
      <trkpt lon="-4.135728" lat="53.002839"><ele>651.203613</ele><time>2021-07-17T10:40:55Z</time><extensions><speed>0.000000</speed><course>240.875916</course><hAcc>1.044015</hAcc><vAcc>0.819025</vAcc></extensions></trkpt>
      <trkpt lon="-4.135728" lat="53.002839"><ele>651.203613</ele><time>2021-07-17T10:40:56Z</time><extensions><speed>0.000000</speed><course>240.875916</course><hAcc>1.043585</hAcc><vAcc>0.816477</vAcc></extensions></trkpt>
      <trkpt lon="-4.135728" lat="53.002839"><ele>651.203613</ele><time>2021-07-17T10:40:57Z</time><extensions><speed>0.000000</speed><course>240.875916</course><hAcc>1.043905</hAcc><vAcc>0.815261</vAcc></extensions></trkpt>
      <trkpt lon="-4.135728" lat="53.002839"><ele>651.203613</ele><time>2021-07-17T10:40:58Z</time><extensions><speed>0.000000</speed><course>240.875916</course><hAcc>1.044067</hAcc><vAcc>0.814328</vAcc></extensions></trkpt>
      <trkpt lon="-4.135728" lat="53.002839"><ele>651.203613</ele><time>2021-07-17T10:40:59Z</time><extensions><speed>0.000000</speed><course>240.875916</course><hAcc>1.043672</hAcc><vAcc>0.813087</vAcc></extensions></trkpt>
      <trkpt lon="-4.135728" lat="53.002839"><ele>651.203613</ele><time>2021-07-17T10:41:00Z</time><extensions><speed>0.000000</speed><course>240.875916</course><hAcc>1.042588</hAcc><vAcc>0.811239</vAcc></extensions></trkpt>
      <trkpt lon="-4.135728" lat="53.002839"><ele>651.203613</ele><time>2021-07-17T10:41:01Z</time><extensions><speed>0.000000</speed><course>269.430084</course><hAcc>1.040797</hAcc><vAcc>0.808656</vAcc></extensions></trkpt>
      <trkpt lon="-4.135728" lat="53.002839"><ele>651.203613</ele><time>2021-07-17T10:41:02Z</time><extensions><speed>0.000000</speed><course>274.056000</course><hAcc>1.038312</hAcc><vAcc>0.805307</vAcc></extensions></trkpt>
      <trkpt lon="-4.135728" lat="53.002839"><ele>651.203613</ele><time>2021-07-17T10:41:03Z</time><extensions><speed>0.000000</speed><course>273.580658</course><hAcc>1.035153</hAcc><vAcc>0.801242</vAcc></extensions></trkpt>
      <trkpt lon="-4.135728" lat="53.002839"><ele>651.203613</ele><time>2021-07-17T10:41:04Z</time><extensions><speed>0.000000</speed><course>266.285736</course><hAcc>1.031400</hAcc><vAcc>0.796613</vAcc></extensions></trkpt>
      <trkpt lon="-4.135728" lat="53.002839"><ele>651.203613</ele><time>2021-07-17T10:41:05Z</time><extensions><speed>0.000000</speed><course>280.416809</course><hAcc>1.027308</hAcc><vAcc>0.791763</vAcc></extensions></trkpt>
      <trkpt lon="-4.135728" lat="53.002839"><ele>651.203613</ele><time>2021-07-17T10:41:06Z</time><extensions><speed>0.000000</speed><course>289.633057</course><hAcc>1.023507</hAcc><vAcc>0.787353</vAcc></extensions></trkpt>
      <trkpt lon="-4.135728" lat="53.002839"><ele>651.203613</ele><time>2021-07-17T10:41:07Z</time><extensions><speed>0.000000</speed><course>274.042023</course><hAcc>1.021286</hAcc><vAcc>0.784568</vAcc></extensions></trkpt>
      <trkpt lon="-4.135728" lat="53.002839"><ele>651.203613</ele><time>2021-07-17T10:41:08Z</time><extensions><speed>0.000000</speed><course>259.398621</course><hAcc>1.022952</hAcc><vAcc>0.785343</vAcc></extensions></trkpt>
      <trkpt lon="-4.135728" lat="53.002839"><ele>651.203613</ele><time>2021-07-17T10:41:09Z</time><extensions><speed>0.000000</speed><course>235.228027</course><hAcc>1.032217</hAcc><vAcc>0.792589</vAcc></extensions></trkpt>
      <trkpt lon="-4.135728" lat="53.002839"><ele>651.203613</ele><time>2021-07-17T10:41:10Z</time><extensions><speed>0.000000</speed><course>233.943741</course><hAcc>1.054458</hAcc><vAcc>0.810306</vAcc></extensions></trkpt>
      <trkpt lon="-4.135728" lat="53.002839"><ele>651.203613</ele><time>2021-07-17T10:41:11Z</time><extensions><speed>0.000000</speed><course>251.986771</course><hAcc>1.096605</hAcc><vAcc>0.843401</vAcc></extensions></trkpt>
      <trkpt lon="-4.135728" lat="53.002839"><ele>651.203613</ele><time>2021-07-17T10:41:12Z</time><extensions><speed>0.000000</speed><course>207.637573</course><hAcc>1.049355</hAcc><vAcc>0.804731</vAcc></extensions></trkpt>
      <trkpt lon="-4.135728" lat="53.002839"><ele>651.203613</ele><time>2021-07-17T10:41:13Z</time><extensions><speed>0.000000</speed><course>199.781464</course><hAcc>1.020474</hAcc><vAcc>0.777879</vAcc></extensions></trkpt>
      <trkpt lon="-4.135728" lat="53.002839"><ele>651.203613</ele><time>2021-07-17T10:41:14Z</time><extensions><speed>0.000000</speed><course>204.898392</course><hAcc>1.006182</hAcc><vAcc>0.762854</vAcc></extensions></trkpt>
      <trkpt lon="-4.135728" lat="53.002839"><ele>651.203613</ele><time>2021-07-17T10:41:15Z</time><extensions><speed>0.000000</speed><course>218.988647</course><hAcc>1.000497</hAcc><vAcc>0.755338</vAcc></extensions></trkpt>
      <trkpt lon="-4.135728" lat="53.002839"><ele>651.203613</ele><time>2021-07-17T10:41:16Z</time><extensions><speed>0.000000</speed><course>240.875916</course><hAcc>0.999232</hAcc><vAcc>0.752099</vAcc></extensions></trkpt>
      <trkpt lon="-4.135728" lat="53.002839"><ele>651.203613</ele><time>2021-07-17T10:41:17Z</time><extensions><speed>0.000000</speed><course>240.875916</course><hAcc>0.999774</hAcc><vAcc>0.750964</vAcc></extensions></trkpt>
      <trkpt lon="-4.135728" lat="53.002839"><ele>651.203613</ele><time>2021-07-17T10:41:18Z</time><extensions><speed>0.000000</speed><course>240.875916</course><hAcc>1.000684</hAcc><vAcc>0.750614</vAcc></extensions></trkpt>
      <trkpt lon="-4.135728" lat="53.002839"><ele>651.203613</ele><time>2021-07-17T10:41:19Z</time><extensions><speed>0.000000</speed><course>240.875916</course><hAcc>1.001300</hAcc><vAcc>0.750337</vAcc></extensions></trkpt>
      <trkpt lon="-4.135728" lat="53.002839"><ele>651.203613</ele><time>2021-07-17T10:41:20Z</time><extensions><speed>0.000000</speed><course>240.875916</course><hAcc>1.001403</hAcc><vAcc>0.749805</vAcc></extensions></trkpt>
      <trkpt lon="-4.135728" lat="53.002839"><ele>651.203613</ele><time>2021-07-17T10:41:21Z</time><extensions><speed>0.000000</speed><course>240.875916</course><hAcc>1.000988</hAcc><vAcc>0.748896</vAcc></extensions></trkpt>
      <trkpt lon="-4.135728" lat="53.002839"><ele>651.203613</ele><time>2021-07-17T10:41:22Z</time><extensions><speed>0.000000</speed><course>269.430084</course><hAcc>1.000102</hAcc><vAcc>0.747584</vAcc></extensions></trkpt>
      <trkpt lon="-4.135728" lat="53.002839"><ele>651.203613</ele><time>2021-07-17T10:41:23Z</time><extensions><speed>0.000000</speed><course>274.056000</course><hAcc>0.998777</hAcc><vAcc>0.745872</vAcc></extensions></trkpt>
      <trkpt lon="-4.135728" lat="53.002839"><ele>651.203613</ele><time>2021-07-17T10:41:24Z</time><extensions><speed>0.000000</speed><course>273.580658</course><hAcc>0.997013</hAcc><vAcc>0.743785</vAcc></extensions></trkpt>
      <trkpt lon="-4.135728" lat="53.002839"><ele>651.203613</ele><time>2021-07-17T10:41:25Z</time><extensions><speed>0.000000</speed><course>266.285736</course><hAcc>0.994837</hAcc><vAcc>0.741408</vAcc></extensions></trkpt>
      <trkpt lon="-4.135728" lat="53.002839"><ele>651.203613</ele><time>2021-07-17T10:41:26Z</time><extensions><speed>0.000000</speed><course>280.416809</course><hAcc>0.992427</hAcc><vAcc>0.738973</vAcc></extensions></trkpt>
      <trkpt lon="-4.135728" lat="53.002839"><ele>651.203613</ele><time>2021-07-17T10:41:27Z</time><extensions><speed>0.000000</speed><course>289.633057</course><hAcc>0.990314</hAcc><vAcc>0.737006</vAcc></extensions></trkpt>
      <trkpt lon="-4.135728" lat="53.002839"><ele>651.203613</ele><time>2021-07-17T10:41:28Z</time><extensions><speed>0.000000</speed><course>274.042023</course><hAcc>0.989674</hAcc><vAcc>0.736524</vAcc></extensions></trkpt>
      <trkpt lon="-4.135728" lat="53.002839"><ele>651.203613</ele><time>2021-07-17T10:41:29Z</time><extensions><speed>0.000000</speed><course>259.398621</course><hAcc>0.992696</hAcc><vAcc>0.739292</vAcc></extensions></trkpt>
      <trkpt lon="-4.135728" lat="53.002839"><ele>651.203613</ele><time>2021-07-17T10:41:30Z</time><extensions><speed>0.000000</speed><course>235.228027</course><hAcc>1.002984</hAcc><vAcc>0.748060</vAcc></extensions></trkpt>
      <trkpt lon="-4.135728" lat="53.002839"><ele>651.203613</ele><time>2021-07-17T10:41:31Z</time><extensions><speed>0.000000</speed><course>233.943741</course><hAcc>1.025840</hAcc><vAcc>0.766713</vAcc></extensions></trkpt>
      <trkpt lon="-4.135728" lat="53.002839"><ele>651.203613</ele><time>2021-07-17T10:41:32Z</time><extensions><speed>0.000000</speed><course>251.986771</course><hAcc>1.068179</hAcc><vAcc>0.800117</vAcc></extensions></trkpt>
      <trkpt lon="-4.135728" lat="53.002839"><ele>651.203613</ele><time>2021-07-17T10:41:33Z</time><extensions><speed>0.000000</speed><course>207.637573</course><hAcc>1.023314</hAcc><vAcc>0.764967</vAcc></extensions></trkpt>
      <trkpt lon="-4.135728" lat="53.002839"><ele>651.203613</ele><time>2021-07-17T10:41:34Z</time><extensions><speed>0.000000</speed><course>199.781464</course><hAcc>0.998956</hAcc><vAcc>0.744872</vAcc></extensions></trkpt>
      <trkpt lon="-4.135728" lat="53.002839"><ele>651.203613</ele><time>2021-07-17T10:41:35Z</time><extensions><speed>0.000000</speed><course>204.898392</course><hAcc>0.988441</hAcc><vAcc>0.735552</vAcc></extensions></trkpt>
      <trkpt lon="-4.135728" lat="53.002839"><ele>651.203613</ele><time>2021-07-17T10:41:36Z</time><extensions><speed>0.000000</speed><course>218.988647</course><hAcc>0.985789</hAcc><vAcc>0.732666</vAcc></extensions></trkpt>
      <trkpt lon="-4.135728" lat="53.002839"><ele>651.203613</ele><time>2021-07-17T10:41:37Z</time><extensions><speed>0.000000</speed><course>240.875916</course><hAcc>0.986924</hAcc><vAcc>0.733120</vAcc></extensions></trkpt>
      <trkpt lon="-4.135728" lat="53.002839"><ele>651.203613</ele><time>2021-07-17T10:41:38Z</time><extensions><speed>0.000000</speed><course>240.875916</course><hAcc>0.989377</hAcc><vAcc>0.734939</vAcc></extensions></trkpt>
      <trkpt lon="-4.135728" lat="53.002839"><ele>651.203613</ele><time>2021-07-17T10:41:39Z</time><extensions><speed>0.000000</speed><course>240.875916</course><hAcc>0.991841</hAcc><vAcc>0.736995</vAcc></extensions></trkpt>
      <trkpt lon="-4.135728" lat="53.002839"><ele>651.203613</ele><time>2021-07-17T10:41:40Z</time><extensions><speed>0.000000</speed><course>240.875916</course><hAcc>0.993757</hAcc><vAcc>0.738728</vAcc></extensions></trkpt>
      <trkpt lon="-4.135728" lat="53.002839"><ele>651.203613</ele><time>2021-07-17T10:41:41Z</time><extensions><speed>0.000000</speed><course>240.875916</course><hAcc>0.994980</hAcc><vAcc>0.739921</vAcc></extensions></trkpt>
      <trkpt lon="-4.135728" lat="53.002839"><ele>651.203613</ele><time>2021-07-17T10:41:42Z</time><extensions><speed>0.000000</speed><course>240.875916</course><hAcc>0.995550</hAcc><vAcc>0.740525</vAcc></extensions></trkpt>
      <trkpt lon="-4.135728" lat="53.002839"><ele>651.203613</ele><time>2021-07-17T10:41:43Z</time><extensions><speed>0.000000</speed><course>269.430084</course><hAcc>0.995544</hAcc><vAcc>0.740561</vAcc></extensions></trkpt>
      <trkpt lon="-4.135728" lat="53.002839"><ele>651.203613</ele><time>2021-07-17T10:41:44Z</time><extensions><speed>0.000000</speed><course>274.056000</course><hAcc>0.995010</hAcc><vAcc>0.740057</vAcc></extensions></trkpt>
      <trkpt lon="-4.135728" lat="53.002839"><ele>651.203613</ele><time>2021-07-17T10:41:45Z</time><extensions><speed>0.000000</speed><course>273.580658</course><hAcc>0.993954</hAcc><vAcc>0.739052</vAcc></extensions></trkpt>
      <trkpt lon="-4.135728" lat="53.002839"><ele>651.203613</ele><time>2021-07-17T10:41:46Z</time><extensions><speed>0.000000</speed><course>266.285736</course><hAcc>0.992403</hAcc><vAcc>0.737632</vAcc></extensions></trkpt>
      <trkpt lon="-4.135728" lat="53.002839"><ele>651.203613</ele><time>2021-07-17T10:41:47Z</time><extensions><speed>0.000000</speed><course>280.416809</course><hAcc>0.990536</hAcc><vAcc>0.736032</vAcc></extensions></trkpt>
      <trkpt lon="-4.135728" lat="53.002839"><ele>651.203613</ele><time>2021-07-17T10:41:48Z</time><extensions><speed>0.000000</speed><course>289.633057</course><hAcc>0.988885</hAcc><vAcc>0.734775</vAcc></extensions></trkpt>
      <trkpt lon="-4.135728" lat="53.002839"><ele>651.203613</ele><time>2021-07-17T10:41:49Z</time><extensions><speed>0.000000</speed><course>274.042023</course><hAcc>0.988627</hAcc><vAcc>0.734886</vAcc></extensions></trkpt>
      <trkpt lon="-4.135728" lat="53.002839"><ele>651.203613</ele><time>2021-07-17T10:41:50Z</time><extensions><speed>0.000000</speed><course>259.398621</course><hAcc>0.991958</hAcc><vAcc>0.738133</vAcc></extensions></trkpt>
      <trkpt lon="-4.135728" lat="53.002839"><ele>651.203613</ele><time>2021-07-17T10:41:51Z</time><extensions><speed>0.000000</speed><course>235.228027</course><hAcc>1.002487</hAcc><vAcc>0.747277</vAcc></extensions></trkpt>
      <trkpt lon="-4.135728" lat="53.002839"><ele>651.203613</ele><time>2021-07-17T10:41:52Z</time><extensions><speed>0.000000</speed><course>233.943741</course><hAcc>1.025521</hAcc><vAcc>0.766208</vAcc></extensions></trkpt>
      <trkpt lon="-4.135728" lat="53.002839"><ele>651.203613</ele><time>2021-07-17T10:41:53Z</time><extensions><speed>0.000000</speed><course>251.986771</course><hAcc>1.067980</hAcc><vAcc>0.799800</vAcc></extensions></trkpt>
      <trkpt lon="-4.135728" lat="53.002839"><ele>651.203613</ele><time>2021-07-17T10:41:54Z</time><extensions><speed>0.000000</speed><course>207.637573</course><hAcc>1.023314</hAcc><vAcc>0.764967</vAcc></extensions></trkpt>
      <trkpt lon="-4.135728" lat="53.002839"><ele>651.203613</ele><time>2021-07-17T10:41:55Z</time><extensions><speed>0.000000</speed><course>199.781464</course><hAcc>0.998956</hAcc><vAcc>0.744872</vAcc></extensions></trkpt>
      <trkpt lon="-4.135728" lat="53.002839"><ele>651.203613</ele><time>2021-07-17T10:41:56Z</time><extensions><speed>0.000000</speed><course>204.898392</course><hAcc>0.988441</hAcc><vAcc>0.735552</vAcc></extensions></trkpt>
      <trkpt lon="-4.135728" lat="53.002839"><ele>651.203613</ele><time>2021-07-17T10:41:57Z</time><extensions><speed>0.000000</speed><course>218.988647</course><hAcc>0.985789</hAcc><vAcc>0.732666</vAcc></extensions></trkpt>
      <trkpt lon="-4.135728" lat="53.002839"><ele>651.203613</ele><time>2021-07-17T10:41:58Z</time><extensions><speed>0.000000</speed><course>240.875916</course><hAcc>0.986924</hAcc><vAcc>0.733120</vAcc></extensions></trkpt>
      <trkpt lon="-4.135728" lat="53.002839"><ele>651.203613</ele><time>2021-07-17T10:41:59Z</time><extensions><speed>0.000000</speed><course>240.875916</course><hAcc>0.989377</hAcc><vAcc>0.734939</vAcc></extensions></trkpt>
      <trkpt lon="-4.135728" lat="53.002839"><ele>651.203613</ele><time>2021-07-17T10:42:00Z</time><extensions><speed>0.000000</speed><course>240.875916</course><hAcc>0.991841</hAcc><vAcc>0.736995</vAcc></extensions></trkpt>
      <trkpt lon="-4.135728" lat="53.002839"><ele>651.203613</ele><time>2021-07-17T10:42:01Z</time><extensions><speed>0.000000</speed><course>240.875916</course><hAcc>0.993757</hAcc><vAcc>0.738728</vAcc></extensions></trkpt>
      <trkpt lon="-4.135728" lat="53.002839"><ele>651.203613</ele><time>2021-07-17T10:42:02Z</time><extensions><speed>0.000000</speed><course>240.875916</course><hAcc>0.994980</hAcc><vAcc>0.739921</vAcc></extensions></trkpt>
      <trkpt lon="-4.135728" lat="53.002839"><ele>651.203613</ele><time>2021-07-17T10:42:03Z</time><extensions><speed>0.000000</speed><course>240.875916</course><hAcc>0.995550</hAcc><vAcc>0.740525</vAcc></extensions></trkpt>
      <trkpt lon="-4.135728" lat="53.002839"><ele>651.203613</ele><time>2021-07-17T10:42:04Z</time><extensions><speed>0.000000</speed><course>269.430084</course><hAcc>0.995544</hAcc><vAcc>0.740561</vAcc></extensions></trkpt>
      <trkpt lon="-4.135728" lat="53.002839"><ele>651.203613</ele><time>2021-07-17T10:42:05Z</time><extensions><speed>0.000000</speed><course>274.056000</course><hAcc>0.995010</hAcc><vAcc>0.740057</vAcc></extensions></trkpt>
      <trkpt lon="-4.135728" lat="53.002839"><ele>651.203613</ele><time>2021-07-17T10:42:06Z</time><extensions><speed>0.000000</speed><course>273.580658</course><hAcc>0.993954</hAcc><vAcc>0.739052</vAcc></extensions></trkpt>
      <trkpt lon="-4.135728" lat="53.002839"><ele>651.203613</ele><time>2021-07-17T10:42:07Z</time><extensions><speed>0.000000</speed><course>266.285736</course><hAcc>0.992403</hAcc><vAcc>0.737632</vAcc></extensions></trkpt>
      <trkpt lon="-4.135728" lat="53.002839"><ele>651.203613</ele><time>2021-07-17T10:42:08Z</time><extensions><speed>0.000000</speed><course>280.416809</course><hAcc>0.990536</hAcc><vAcc>0.736032</vAcc></extensions></trkpt>
      <trkpt lon="-4.135728" lat="53.002839"><ele>651.203613</ele><time>2021-07-17T10:42:09Z</time><extensions><speed>0.000000</speed><course>289.633057</course><hAcc>0.988885</hAcc><vAcc>0.734775</vAcc></extensions></trkpt>
      <trkpt lon="-4.135728" lat="53.002839"><ele>651.203613</ele><time>2021-07-17T10:42:10Z</time><extensions><speed>0.000000</speed><course>274.042023</course><hAcc>0.988627</hAcc><vAcc>0.734886</vAcc></extensions></trkpt>
      <trkpt lon="-4.135728" lat="53.002839"><ele>651.203613</ele><time>2021-07-17T10:42:11Z</time><extensions><speed>0.000000</speed><course>259.398621</course><hAcc>0.991958</hAcc><vAcc>0.738133</vAcc></extensions></trkpt>
      <trkpt lon="-4.135728" lat="53.002839"><ele>651.203613</ele><time>2021-07-17T10:42:12Z</time><extensions><speed>0.000000</speed><course>235.228027</course><hAcc>1.002487</hAcc><vAcc>0.747277</vAcc></extensions></trkpt>
      <trkpt lon="-4.135728" lat="53.002839"><ele>651.203613</ele><time>2021-07-17T10:42:13Z</time><extensions><speed>0.000000</speed><course>233.943741</course><hAcc>1.025521</hAcc><vAcc>0.766208</vAcc></extensions></trkpt>
      <trkpt lon="-4.135728" lat="53.002839"><ele>651.203613</ele><time>2021-07-17T10:42:14Z</time><extensions><speed>0.000000</speed><course>251.986771</course><hAcc>1.067980</hAcc><vAcc>0.799800</vAcc></extensions></trkpt>
      <trkpt lon="-4.135728" lat="53.002839"><ele>651.203613</ele><time>2021-07-17T10:42:15Z</time><extensions><speed>0.000000</speed><course>207.637573</course><hAcc>1.023314</hAcc><vAcc>0.764967</vAcc></extensions></trkpt>
      <trkpt lon="-4.135728" lat="53.002839"><ele>651.203613</ele><time>2021-07-17T10:42:16Z</time><extensions><speed>0.000000</speed><course>199.781464</course><hAcc>0.998956</hAcc><vAcc>0.744872</vAcc></extensions></trkpt>
      <trkpt lon="-4.135728" lat="53.002839"><ele>651.203613</ele><time>2021-07-17T10:42:17Z</time><extensions><speed>0.000000</speed><course>204.898392</course><hAcc>0.988441</hAcc><vAcc>0.735552</vAcc></extensions></trkpt>
      <trkpt lon="-4.135728" lat="53.002839"><ele>651.203613</ele><time>2021-07-17T10:42:18Z</time><extensions><speed>0.000000</speed><course>218.988647</course><hAcc>0.985789</hAcc><vAcc>0.732666</vAcc></extensions></trkpt>
      <trkpt lon="-4.135728" lat="53.002839"><ele>651.203613</ele><time>2021-07-17T10:42:19Z</time><extensions><speed>0.000000</speed><course>240.875916</course><hAcc>0.986924</hAcc><vAcc>0.733120</vAcc></extensions></trkpt>
      <trkpt lon="-4.135728" lat="53.002839"><ele>651.203613</ele><time>2021-07-17T10:42:20Z</time><extensions><speed>0.000000</speed><course>240.875916</course><hAcc>0.989377</hAcc><vAcc>0.734939</vAcc></extensions></trkpt>
      <trkpt lon="-4.135728" lat="53.002839"><ele>651.203613</ele><time>2021-07-17T10:42:21Z</time><extensions><speed>0.000000</speed><course>240.875916</course><hAcc>0.991841</hAcc><vAcc>0.736995</vAcc></extensions></trkpt>
      <trkpt lon="-4.135728" lat="53.002839"><ele>651.203613</ele><time>2021-07-17T10:42:22Z</time><extensions><speed>0.000000</speed><course>240.875916</course><hAcc>0.993757</hAcc><vAcc>0.738728</vAcc></extensions></trkpt>
      <trkpt lon="-4.135728" lat="53.002839"><ele>651.203613</ele><time>2021-07-17T10:42:23Z</time><extensions><speed>0.000000</speed><course>240.875916</course><hAcc>0.994980</hAcc><vAcc>0.739921</vAcc></extensions></trkpt>
      <trkpt lon="-4.135728" lat="53.002839"><ele>651.203613</ele><time>2021-07-17T10:42:24Z</time><extensions><speed>0.000000</speed><course>240.875916</course><hAcc>0.995550</hAcc><vAcc>0.740525</vAcc></extensions></trkpt>
      <trkpt lon="-4.135728" lat="53.002839"><ele>651.203613</ele><time>2021-07-17T10:42:25Z</time><extensions><speed>0.000000</speed><course>269.430084</course><hAcc>0.995544</hAcc><vAcc>0.740561</vAcc></extensions></trkpt>
      <trkpt lon="-4.135728" lat="53.002839"><ele>651.203613</ele><time>2021-07-17T10:42:26Z</time><extensions><speed>0.000000</speed><course>274.056000</course><hAcc>0.995010</hAcc><vAcc>0.740057</vAcc></extensions></trkpt>
      <trkpt lon="-4.135728" lat="53.002839"><ele>651.203613</ele><time>2021-07-17T10:42:27Z</time><extensions><speed>0.000000</speed><course>273.580658</course><hAcc>0.993954</hAcc><vAcc>0.739052</vAcc></extensions></trkpt>
      <trkpt lon="-4.135728" lat="53.002839"><ele>651.203613</ele><time>2021-07-17T10:42:28Z</time><extensions><speed>0.000000</speed><course>266.285736</course><hAcc>0.992403</hAcc><vAcc>0.737632</vAcc></extensions></trkpt>
      <trkpt lon="-4.135728" lat="53.002839"><ele>651.203613</ele><time>2021-07-17T10:42:29Z</time><extensions><speed>0.000000</speed><course>280.416809</course><hAcc>0.990536</hAcc><vAcc>0.736032</vAcc></extensions></trkpt>
      <trkpt lon="-4.135728" lat="53.002839"><ele>651.203613</ele><time>2021-07-17T10:42:30Z</time><extensions><speed>0.000000</speed><course>289.633057</course><hAcc>0.988885</hAcc><vAcc>0.734775</vAcc></extensions></trkpt>
      <trkpt lon="-4.135728" lat="53.002839"><ele>651.203613</ele><time>2021-07-17T10:42:31Z</time><extensions><speed>0.000000</speed><course>274.042023</course><hAcc>0.988627</hAcc><vAcc>0.734886</vAcc></extensions></trkpt>
      <trkpt lon="-4.135728" lat="53.002839"><ele>651.203613</ele><time>2021-07-17T10:42:32Z</time><extensions><speed>0.000000</speed><course>259.398621</course><hAcc>0.991958</hAcc><vAcc>0.738133</vAcc></extensions></trkpt>
      <trkpt lon="-4.135728" lat="53.002839"><ele>651.203613</ele><time>2021-07-17T10:42:33Z</time><extensions><speed>0.000000</speed><course>235.228027</course><hAcc>1.002487</hAcc><vAcc>0.747277</vAcc></extensions></trkpt>
      <trkpt lon="-4.135728" lat="53.002839"><ele>651.203613</ele><time>2021-07-17T10:42:34Z</time><extensions><speed>0.000000</speed><course>233.943741</course><hAcc>1.025521</hAcc><vAcc>0.766208</vAcc></extensions></trkpt>
      <trkpt lon="-4.135728" lat="53.002839"><ele>651.203613</ele><time>2021-07-17T10:42:35Z</time><extensions><speed>0.000000</speed><course>251.986771</course><hAcc>1.067980</hAcc><vAcc>0.799800</vAcc></extensions></trkpt>
      <trkpt lon="-4.135728" lat="53.002839"><ele>651.203613</ele><time>2021-07-17T10:42:36Z</time><extensions><speed>0.000000</speed><course>207.637573</course><hAcc>1.023314</hAcc><vAcc>0.764967</vAcc></extensions></trkpt>
      <trkpt lon="-4.135728" lat="53.002839"><ele>651.203613</ele><time>2021-07-17T10:42:37Z</time><extensions><speed>0.000000</speed><course>199.781464</course><hAcc>0.998956</hAcc><vAcc>0.744872</vAcc></extensions></trkpt>
      <trkpt lon="-4.135728" lat="53.002839"><ele>651.203613</ele><time>2021-07-17T10:42:38Z</time><extensions><speed>0.000000</speed><course>204.898392</course><hAcc>0.988441</hAcc><vAcc>0.735552</vAcc></extensions></trkpt>
      <trkpt lon="-4.135728" lat="53.002839"><ele>651.203613</ele><time>2021-07-17T10:42:39Z</time><extensions><speed>0.000000</speed><course>218.988647</course><hAcc>0.985789</hAcc><vAcc>0.732666</vAcc></extensions></trkpt>
      <trkpt lon="-4.135728" lat="53.002839"><ele>651.203613</ele><time>2021-07-17T10:42:40Z</time><extensions><speed>0.000000</speed><course>240.875916</course><hAcc>0.986924</hAcc><vAcc>0.733120</vAcc></extensions></trkpt>
      <trkpt lon="-4.135728" lat="53.002839"><ele>651.203613</ele><time>2021-07-17T10:42:41Z</time><extensions><speed>0.000000</speed><course>240.875916</course><hAcc>0.989377</hAcc><vAcc>0.734939</vAcc></extensions></trkpt>
      <trkpt lon="-4.135728" lat="53.002839"><ele>651.203613</ele><time>2021-07-17T10:42:42Z</time><extensions><speed>0.000000</speed><course>240.875916</course><hAcc>0.991841</hAcc><vAcc>0.736995</vAcc></extensions></trkpt>
      <trkpt lon="-4.135728" lat="53.002839"><ele>651.203613</ele><time>2021-07-17T10:42:43Z</time><extensions><speed>0.000000</speed><course>240.875916</course><hAcc>0.993757</hAcc><vAcc>0.738728</vAcc></extensions></trkpt>
      <trkpt lon="-4.135728" lat="53.002839"><ele>651.203613</ele><time>2021-07-17T10:42:44Z</time><extensions><speed>0.000000</speed><course>240.875916</course><hAcc>0.994980</hAcc><vAcc>0.739921</vAcc></extensions></trkpt>
      <trkpt lon="-4.135728" lat="53.002839"><ele>651.203613</ele><time>2021-07-17T10:42:45Z</time><extensions><speed>0.000000</speed><course>240.875916</course><hAcc>0.995550</hAcc><vAcc>0.740525</vAcc></extensions></trkpt>
      <trkpt lon="-4.135728" lat="53.002839"><ele>651.203613</ele><time>2021-07-17T10:42:46Z</time><extensions><speed>0.000000</speed><course>269.430084</course><hAcc>0.995544</hAcc><vAcc>0.740561</vAcc></extensions></trkpt>
      <trkpt lon="-4.135728" lat="53.002839"><ele>651.203613</ele><time>2021-07-17T10:42:47Z</time><extensions><speed>0.000000</speed><course>274.056000</course><hAcc>0.995010</hAcc><vAcc>0.740057</vAcc></extensions></trkpt>
      <trkpt lon="-4.135728" lat="53.002839"><ele>651.203613</ele><time>2021-07-17T10:42:48Z</time><extensions><speed>0.000000</speed><course>273.580658</course><hAcc>0.993954</hAcc><vAcc>0.739052</vAcc></extensions></trkpt>
      <trkpt lon="-4.135728" lat="53.002839"><ele>651.203613</ele><time>2021-07-17T10:42:49Z</time><extensions><speed>0.000000</speed><course>266.285736</course><hAcc>0.992403</hAcc><vAcc>0.737632</vAcc></extensions></trkpt>
      <trkpt lon="-4.135728" lat="53.002839"><ele>651.203613</ele><time>2021-07-17T10:42:50Z</time><extensions><speed>0.000000</speed><course>280.416809</course><hAcc>0.990536</hAcc><vAcc>0.736032</vAcc></extensions></trkpt>
      <trkpt lon="-4.135728" lat="53.002839"><ele>651.203613</ele><time>2021-07-17T10:42:51Z</time><extensions><speed>0.000000</speed><course>289.633057</course><hAcc>0.988885</hAcc><vAcc>0.734775</vAcc></extensions></trkpt>
      <trkpt lon="-4.135728" lat="53.002839"><ele>651.203613</ele><time>2021-07-17T10:42:52Z</time><extensions><speed>0.000000</speed><course>274.042023</course><hAcc>0.988627</hAcc><vAcc>0.734886</vAcc></extensions></trkpt>
      <trkpt lon="-4.135728" lat="53.002839"><ele>651.203613</ele><time>2021-07-17T10:42:53Z</time><extensions><speed>0.000000</speed><course>259.398621</course><hAcc>0.991958</hAcc><vAcc>0.738133</vAcc></extensions></trkpt>
      <trkpt lon="-4.135728" lat="53.002839"><ele>651.203613</ele><time>2021-07-17T10:42:54Z</time><extensions><speed>0.000000</speed><course>235.228027</course><hAcc>1.002487</hAcc><vAcc>0.747277</vAcc></extensions></trkpt>
      <trkpt lon="-4.135728" lat="53.002839"><ele>651.203613</ele><time>2021-07-17T10:42:55Z</time><extensions><speed>0.000000</speed><course>233.943741</course><hAcc>1.025521</hAcc><vAcc>0.766208</vAcc></extensions></trkpt>
      <trkpt lon="-4.135728" lat="53.002839"><ele>651.203613</ele><time>2021-07-17T10:42:56Z</time><extensions><speed>0.000000</speed><course>251.986771</course><hAcc>1.067980</hAcc><vAcc>0.799800</vAcc></extensions></trkpt>
      <trkpt lon="-4.135728" lat="53.002839"><ele>651.203613</ele><time>2021-07-17T10:42:57Z</time><extensions><speed>0.000000</speed><course>207.637573</course><hAcc>1.023345</hAcc><vAcc>0.764982</vAcc></extensions></trkpt>
      <trkpt lon="-4.135728" lat="53.002839"><ele>651.203613</ele><time>2021-07-17T10:42:58Z</time><extensions><speed>0.000000</speed><course>199.781464</course><hAcc>0.999030</hAcc><vAcc>0.744923</vAcc></extensions></trkpt>
      <trkpt lon="-4.135728" lat="53.002839"><ele>651.203613</ele><time>2021-07-17T10:42:59Z</time><extensions><speed>0.000000</speed><course>204.898392</course><hAcc>0.988703</hAcc><vAcc>0.735719</vAcc></extensions></trkpt>
      <trkpt lon="-4.135728" lat="53.002839"><ele>651.203613</ele><time>2021-07-17T10:43:00Z</time><extensions><speed>0.000000</speed><course>218.988647</course><hAcc>0.986446</hAcc><vAcc>0.733055</vAcc></extensions></trkpt>
      <trkpt lon="-4.135728" lat="53.002839"><ele>651.203613</ele><time>2021-07-17T10:43:01Z</time><extensions><speed>0.000000</speed><course>240.875916</course><hAcc>0.988261</hAcc><vAcc>0.733873</vAcc></extensions></trkpt>
      <trkpt lon="-4.135728" lat="53.002839"><ele>651.203613</ele><time>2021-07-17T10:43:02Z</time><extensions><speed>0.000000</speed><course>240.875916</course><hAcc>0.991780</hAcc><vAcc>0.736238</vAcc></extensions></trkpt>
      <trkpt lon="-4.135728" lat="53.002839"><ele>651.203613</ele><time>2021-07-17T10:43:03Z</time><extensions><speed>0.000000</speed><course>240.875916</course><hAcc>0.995818</hAcc><vAcc>0.739072</vAcc></extensions></trkpt>
      <trkpt lon="-4.135728" lat="53.002839"><ele>651.203613</ele><time>2021-07-17T10:43:04Z</time><extensions><speed>0.000000</speed><course>240.875916</course><hAcc>0.999946</hAcc><vAcc>0.741869</vAcc></extensions></trkpt>
      <trkpt lon="-4.135728" lat="53.002839"><ele>651.203613</ele><time>2021-07-17T10:43:05Z</time><extensions><speed>0.000000</speed><course>240.875916</course><hAcc>1.004151</hAcc><vAcc>0.744460</vAcc></extensions></trkpt>
      <trkpt lon="-4.135728" lat="53.002839"><ele>651.203613</ele><time>2021-07-17T10:43:06Z</time><extensions><speed>0.000000</speed><course>240.875916</course><hAcc>1.008577</hAcc><vAcc>0.746835</vAcc></extensions></trkpt>
      <trkpt lon="-4.135728" lat="53.002839"><ele>651.203613</ele><time>2021-07-17T10:43:07Z</time><extensions><speed>0.000000</speed><course>269.430084</course><hAcc>1.013349</hAcc><vAcc>0.749027</vAcc></extensions></trkpt>
      <trkpt lon="-4.135728" lat="53.002839"><ele>651.203613</ele><time>2021-07-17T10:43:08Z</time><extensions><speed>0.000000</speed><course>274.056000</course><hAcc>1.018463</hAcc><vAcc>0.751038</vAcc></extensions></trkpt>
      <trkpt lon="-4.135728" lat="53.002839"><ele>651.203613</ele><time>2021-07-17T10:43:09Z</time><extensions><speed>0.000000</speed><course>273.580658</course><hAcc>1.023729</hAcc><vAcc>0.752817</vAcc></extensions></trkpt>
      <trkpt lon="-4.135728" lat="53.002839"><ele>651.203613</ele><time>2021-07-17T10:43:10Z</time><extensions><speed>0.000000</speed><course>266.285736</course><hAcc>1.028794</hAcc><vAcc>0.754289</vAcc></extensions></trkpt>
      <trkpt lon="-4.135728" lat="53.002839"><ele>651.203613</ele><time>2021-07-17T10:43:11Z</time><extensions><speed>0.000000</speed><course>280.416809</course><hAcc>1.033223</hAcc><vAcc>0.755428</vAcc></extensions></trkpt>
      <trkpt lon="-4.135728" lat="53.002839"><ele>651.203613</ele><time>2021-07-17T10:43:12Z</time><extensions><speed>0.000000</speed><course>289.633057</course><hAcc>1.036694</hAcc><vAcc>0.756403</vAcc></extensions></trkpt>
      <trkpt lon="-4.135728" lat="53.002839"><ele>651.203613</ele><time>2021-07-17T10:43:13Z</time><extensions><speed>0.000000</speed><course>274.042023</course><hAcc>1.039447</hAcc><vAcc>0.757843</vAcc></extensions></trkpt>
      <trkpt lon="-4.135728" lat="53.002839"><ele>651.203613</ele><time>2021-07-17T10:43:14Z</time><extensions><speed>0.000000</speed><course>259.398621</course><hAcc>1.043005</hAcc><vAcc>0.761229</vAcc></extensions></trkpt>
      <trkpt lon="-4.135728" lat="53.002839"><ele>651.203613</ele><time>2021-07-17T10:43:15Z</time><extensions><speed>0.000000</speed><course>235.228027</course><hAcc>1.050790</hAcc><vAcc>0.769235</vAcc></extensions></trkpt>
      <trkpt lon="-4.135728" lat="53.002839"><ele>651.203613</ele><time>2021-07-17T10:43:16Z</time><extensions><speed>0.000000</speed><course>233.943741</course><hAcc>1.068486</hAcc><vAcc>0.785903</vAcc></extensions></trkpt>
      <trkpt lon="-4.135728" lat="53.002839"><ele>651.203613</ele><time>2021-07-17T10:43:17Z</time><extensions><speed>0.000000</speed><course>251.986771</course><hAcc>1.103880</hAcc><vAcc>0.816469</vAcc></extensions></trkpt>
      <trkpt lon="-4.135728" lat="53.002839"><ele>651.203613</ele><time>2021-07-17T10:43:18Z</time><extensions><speed>0.000000</speed><course>207.637573</course><hAcc>1.087982</hAcc><vAcc>0.794564</vAcc></extensions></trkpt>
      <trkpt lon="-4.135728" lat="53.002839"><ele>651.203613</ele><time>2021-07-17T10:43:19Z</time><extensions><speed>0.000000</speed><course>199.781464</course><hAcc>1.040650</hAcc><vAcc>0.764405</vAcc></extensions></trkpt>
      <trkpt lon="-4.135728" lat="53.002839"><ele>651.203613</ele><time>2021-07-17T10:43:20Z</time><extensions><speed>0.000000</speed><course>204.898392</course><hAcc>1.013329</hAcc><vAcc>0.747567</vAcc></extensions></trkpt>
      <trkpt lon="-4.135728" lat="53.002839"><ele>651.203613</ele><time>2021-07-17T10:43:21Z</time><extensions><speed>0.000000</speed><course>218.988647</course><hAcc>0.999407</hAcc><vAcc>0.739501</vAcc></extensions></trkpt>
      <trkpt lon="-4.135728" lat="53.002839"><ele>651.203613</ele><time>2021-07-17T10:43:22Z</time><extensions><speed>0.000000</speed><course>240.875916</course><hAcc>0.993622</hAcc><vAcc>0.736662</vAcc></extensions></trkpt>
      <trkpt lon="-4.135728" lat="53.002839"><ele>651.203613</ele><time>2021-07-17T10:43:23Z</time><extensions><speed>0.000000</speed><course>240.875916</course><hAcc>0.992246</hAcc><vAcc>0.736568</vAcc></extensions></trkpt>
      <trkpt lon="-4.135728" lat="53.002839"><ele>651.203613</ele><time>2021-07-17T10:43:24Z</time><extensions><speed>0.000000</speed><course>240.875916</course><hAcc>0.992897</hAcc><vAcc>0.737641</vAcc></extensions></trkpt>
      <trkpt lon="-4.135728" lat="53.002839"><ele>651.203613</ele><time>2021-07-17T10:43:25Z</time><extensions><speed>0.000000</speed><course>240.875916</course><hAcc>0.994196</hAcc><vAcc>0.738972</vAcc></extensions></trkpt>
      <trkpt lon="-4.135728" lat="53.002839"><ele>651.203613</ele><time>2021-07-17T10:43:26Z</time><extensions><speed>0.000000</speed><course>240.875916</course><hAcc>0.995427</hAcc><vAcc>0.740088</vAcc></extensions></trkpt>
      <trkpt lon="-4.135728" lat="53.002839"><ele>651.203613</ele><time>2021-07-17T10:43:27Z</time><extensions><speed>0.000000</speed><course>240.875916</course><hAcc>0.996265</hAcc><vAcc>0.740773</vAcc></extensions></trkpt>
      <trkpt lon="-4.135728" lat="53.002839"><ele>651.203613</ele><time>2021-07-17T10:43:28Z</time><extensions><speed>0.000000</speed><course>269.430084</course><hAcc>0.996570</hAcc><vAcc>0.740938</vAcc></extensions></trkpt>
      <trkpt lon="-4.135728" lat="53.002839"><ele>651.203613</ele><time>2021-07-17T10:43:29Z</time><extensions><speed>0.000000</speed><course>274.056000</course><hAcc>0.996278</hAcc><vAcc>0.740554</vAcc></extensions></trkpt>
      <trkpt lon="-4.135728" lat="53.002839"><ele>651.203613</ele><time>2021-07-17T10:43:30Z</time><extensions><speed>0.000000</speed><course>273.580658</course><hAcc>0.995353</hAcc><vAcc>0.739630</vAcc></extensions></trkpt>
      <trkpt lon="-4.135728" lat="53.002839"><ele>651.203613</ele><time>2021-07-17T10:43:31Z</time><extensions><speed>0.000000</speed><course>266.285736</course><hAcc>0.993822</hAcc><vAcc>0.738245</vAcc></extensions></trkpt>
      <trkpt lon="-4.135728" lat="53.002839"><ele>651.203613</ele><time>2021-07-17T10:43:32Z</time><extensions><speed>0.000000</speed><course>280.416809</course><hAcc>0.991880</hAcc><vAcc>0.736636</vAcc></extensions></trkpt>
      <trkpt lon="-4.135728" lat="53.002839"><ele>651.203613</ele><time>2021-07-17T10:43:33Z</time><extensions><speed>0.000000</speed><course>289.633057</course><hAcc>0.990087</hAcc><vAcc>0.735337</vAcc></extensions></trkpt>
      <trkpt lon="-4.135728" lat="53.002839"><ele>651.203613</ele><time>2021-07-17T10:43:34Z</time><extensions><speed>0.000000</speed><course>274.042023</course><hAcc>0.989648</hAcc><vAcc>0.735380</vAcc></extensions></trkpt>
      <trkpt lon="-4.135728" lat="53.002839"><ele>651.203613</ele><time>2021-07-17T10:43:35Z</time><extensions><speed>0.000000</speed><course>259.398621</course><hAcc>0.992779</hAcc><vAcc>0.738546</vAcc></extensions></trkpt>
      <trkpt lon="-4.135728" lat="53.002839"><ele>651.203613</ele><time>2021-07-17T10:43:36Z</time><extensions><speed>0.000000</speed><course>235.228027</course><hAcc>1.003109</hAcc><vAcc>0.747604</vAcc></extensions></trkpt>
      <trkpt lon="-4.135728" lat="53.002839"><ele>651.203613</ele><time>2021-07-17T10:43:37Z</time><extensions><speed>0.000000</speed><course>233.943741</course><hAcc>1.025960</hAcc><vAcc>0.766450</vAcc></extensions></trkpt>
      <trkpt lon="-4.135728" lat="53.002839"><ele>651.203613</ele><time>2021-07-17T10:43:38Z</time><extensions><speed>0.000000</speed><course>251.986771</course><hAcc>1.068262</hAcc><vAcc>0.799966</vAcc></extensions></trkpt>
      <trkpt lon="-4.135728" lat="53.002839"><ele>651.203613</ele><time>2021-07-17T10:43:39Z</time><extensions><speed>0.000000</speed><course>207.637573</course><hAcc>1.023314</hAcc><vAcc>0.764967</vAcc></extensions></trkpt>
      <trkpt lon="-4.135728" lat="53.002839"><ele>651.203613</ele><time>2021-07-17T10:43:40Z</time><extensions><speed>0.000000</speed><course>199.781464</course><hAcc>0.998956</hAcc><vAcc>0.744872</vAcc></extensions></trkpt>
      <trkpt lon="-4.135728" lat="53.002839"><ele>651.203613</ele><time>2021-07-17T10:43:41Z</time><extensions><speed>0.000000</speed><course>204.898392</course><hAcc>0.988441</hAcc><vAcc>0.735552</vAcc></extensions></trkpt>
      <trkpt lon="-4.135728" lat="53.002839"><ele>651.203613</ele><time>2021-07-17T10:43:42Z</time><extensions><speed>0.000000</speed><course>218.988647</course><hAcc>0.985789</hAcc><vAcc>0.732666</vAcc></extensions></trkpt>
      <trkpt lon="-4.135728" lat="53.002839"><ele>651.203613</ele><time>2021-07-17T10:43:43Z</time><extensions><speed>0.000000</speed><course>240.875916</course><hAcc>0.986924</hAcc><vAcc>0.733120</vAcc></extensions></trkpt>
      <trkpt lon="-4.135728" lat="53.002839"><ele>651.203613</ele><time>2021-07-17T10:43:44Z</time><extensions><speed>0.000000</speed><course>240.875916</course><hAcc>0.989377</hAcc><vAcc>0.734939</vAcc></extensions></trkpt>
      <trkpt lon="-4.135728" lat="53.002839"><ele>651.203613</ele><time>2021-07-17T10:43:45Z</time><extensions><speed>0.000000</speed><course>240.875916</course><hAcc>0.991841</hAcc><vAcc>0.736995</vAcc></extensions></trkpt>
      <trkpt lon="-4.135728" lat="53.002839"><ele>651.203613</ele><time>2021-07-17T10:43:46Z</time><extensions><speed>0.000000</speed><course>240.875916</course><hAcc>0.993757</hAcc><vAcc>0.738728</vAcc></extensions></trkpt>
      <trkpt lon="-4.135728" lat="53.002839"><ele>651.203613</ele><time>2021-07-17T10:43:47Z</time><extensions><speed>0.000000</speed><course>240.875916</course><hAcc>0.994980</hAcc><vAcc>0.739921</vAcc></extensions></trkpt>
      <trkpt lon="-4.135728" lat="53.002839"><ele>651.203613</ele><time>2021-07-17T10:43:48Z</time><extensions><speed>0.000000</speed><course>240.875916</course><hAcc>0.995550</hAcc><vAcc>0.740525</vAcc></extensions></trkpt>
      <trkpt lon="-4.135728" lat="53.002839"><ele>651.203613</ele><time>2021-07-17T10:43:49Z</time><extensions><speed>0.000000</speed><course>269.430084</course><hAcc>0.995544</hAcc><vAcc>0.740561</vAcc></extensions></trkpt>
      <trkpt lon="-4.135728" lat="53.002839"><ele>651.203613</ele><time>2021-07-17T10:43:50Z</time><extensions><speed>0.000000</speed><course>274.056000</course><hAcc>0.995010</hAcc><vAcc>0.740057</vAcc></extensions></trkpt>
      <trkpt lon="-4.135728" lat="53.002839"><ele>651.203613</ele><time>2021-07-17T10:43:51Z</time><extensions><speed>0.000000</speed><course>273.580658</course><hAcc>0.993954</hAcc><vAcc>0.739052</vAcc></extensions></trkpt>
      <trkpt lon="-4.135728" lat="53.002839"><ele>651.203613</ele><time>2021-07-17T10:43:52Z</time><extensions><speed>0.000000</speed><course>266.285736</course><hAcc>0.992403</hAcc><vAcc>0.737632</vAcc></extensions></trkpt>
      <trkpt lon="-4.135728" lat="53.002839"><ele>651.203613</ele><time>2021-07-17T10:43:53Z</time><extensions><speed>0.000000</speed><course>280.416809</course><hAcc>0.990536</hAcc><vAcc>0.736032</vAcc></extensions></trkpt>
      <trkpt lon="-4.135728" lat="53.002839"><ele>651.203613</ele><time>2021-07-17T10:43:54Z</time><extensions><speed>0.000000</speed><course>289.633057</course><hAcc>0.988885</hAcc><vAcc>0.734775</vAcc></extensions></trkpt>
      <trkpt lon="-4.135728" lat="53.002839"><ele>651.203613</ele><time>2021-07-17T10:43:55Z</time><extensions><speed>0.000000</speed><course>274.042023</course><hAcc>0.988627</hAcc><vAcc>0.734886</vAcc></extensions></trkpt>
      <trkpt lon="-4.135728" lat="53.002839"><ele>651.203613</ele><time>2021-07-17T10:43:56Z</time><extensions><speed>0.000000</speed><course>259.398621</course><hAcc>0.991958</hAcc><vAcc>0.738133</vAcc></extensions></trkpt>
      <trkpt lon="-4.135728" lat="53.002839"><ele>651.203613</ele><time>2021-07-17T10:43:57Z</time><extensions><speed>0.000000</speed><course>235.228027</course><hAcc>1.002487</hAcc><vAcc>0.747277</vAcc></extensions></trkpt>
      <trkpt lon="-4.135728" lat="53.002839"><ele>651.203613</ele><time>2021-07-17T10:43:58Z</time><extensions><speed>0.000000</speed><course>233.943741</course><hAcc>1.025521</hAcc><vAcc>0.766208</vAcc></extensions></trkpt>
      <trkpt lon="-4.135728" lat="53.002839"><ele>651.203613</ele><time>2021-07-17T10:43:59Z</time><extensions><speed>0.000000</speed><course>251.986771</course><hAcc>1.067980</hAcc><vAcc>0.799800</vAcc></extensions></trkpt>
      <trkpt lon="-4.135728" lat="53.002839"><ele>651.203613</ele><time>2021-07-17T10:44:00Z</time><extensions><speed>0.000000</speed><course>207.637573</course><hAcc>1.023314</hAcc><vAcc>0.764967</vAcc></extensions></trkpt>
      <trkpt lon="-4.135728" lat="53.002839"><ele>651.203613</ele><time>2021-07-17T10:44:01Z</time><extensions><speed>0.000000</speed><course>199.781464</course><hAcc>0.998956</hAcc><vAcc>0.744872</vAcc></extensions></trkpt>
      <trkpt lon="-4.135728" lat="53.002839"><ele>651.203613</ele><time>2021-07-17T10:44:02Z</time><extensions><speed>0.000000</speed><course>204.898392</course><hAcc>0.988441</hAcc><vAcc>0.735552</vAcc></extensions></trkpt>
      <trkpt lon="-4.135728" lat="53.002839"><ele>651.203613</ele><time>2021-07-17T10:44:03Z</time><extensions><speed>0.000000</speed><course>218.988647</course><hAcc>0.985789</hAcc><vAcc>0.732666</vAcc></extensions></trkpt>
      <trkpt lon="-4.135728" lat="53.002839"><ele>651.203613</ele><time>2021-07-17T10:44:04Z</time><extensions><speed>0.000000</speed><course>240.875916</course><hAcc>0.986924</hAcc><vAcc>0.733120</vAcc></extensions></trkpt>
      <trkpt lon="-4.135728" lat="53.002839"><ele>651.203613</ele><time>2021-07-17T10:44:05Z</time><extensions><speed>0.000000</speed><course>240.875916</course><hAcc>0.989377</hAcc><vAcc>0.734939</vAcc></extensions></trkpt>
      <trkpt lon="-4.135728" lat="53.002839"><ele>651.203613</ele><time>2021-07-17T10:44:06Z</time><extensions><speed>0.000000</speed><course>240.875916</course><hAcc>0.991841</hAcc><vAcc>0.736995</vAcc></extensions></trkpt>
      <trkpt lon="-4.135728" lat="53.002839"><ele>651.203613</ele><time>2021-07-17T10:44:07Z</time><extensions><speed>0.000000</speed><course>240.875916</course><hAcc>0.993757</hAcc><vAcc>0.738728</vAcc></extensions></trkpt>
      <trkpt lon="-4.135728" lat="53.002839"><ele>651.203613</ele><time>2021-07-17T10:44:08Z</time><extensions><speed>0.000000</speed><course>240.875916</course><hAcc>0.994980</hAcc><vAcc>0.739921</vAcc></extensions></trkpt>
      <trkpt lon="-4.135728" lat="53.002839"><ele>651.203613</ele><time>2021-07-17T10:44:09Z</time><extensions><speed>0.000000</speed><course>240.875916</course><hAcc>0.995550</hAcc><vAcc>0.740525</vAcc></extensions></trkpt>
      <trkpt lon="-4.135728" lat="53.002839"><ele>651.203613</ele><time>2021-07-17T10:44:10Z</time><extensions><speed>0.000000</speed><course>269.430084</course><hAcc>0.995544</hAcc><vAcc>0.740561</vAcc></extensions></trkpt>
      <trkpt lon="-4.135728" lat="53.002839"><ele>651.203613</ele><time>2021-07-17T10:44:11Z</time><extensions><speed>0.000000</speed><course>274.056000</course><hAcc>0.995010</hAcc><vAcc>0.740057</vAcc></extensions></trkpt>
      <trkpt lon="-4.135728" lat="53.002839"><ele>651.203613</ele><time>2021-07-17T10:44:12Z</time><extensions><speed>0.000000</speed><course>273.580658</course><hAcc>0.993954</hAcc><vAcc>0.739052</vAcc></extensions></trkpt>
      <trkpt lon="-4.135728" lat="53.002839"><ele>651.203613</ele><time>2021-07-17T10:44:13Z</time><extensions><speed>0.000000</speed><course>266.285736</course><hAcc>0.992403</hAcc><vAcc>0.737632</vAcc></extensions></trkpt>
      <trkpt lon="-4.135728" lat="53.002839"><ele>651.203613</ele><time>2021-07-17T10:44:14Z</time><extensions><speed>0.000000</speed><course>280.416809</course><hAcc>0.990536</hAcc><vAcc>0.736032</vAcc></extensions></trkpt>
      <trkpt lon="-4.135728" lat="53.002839"><ele>651.203613</ele><time>2021-07-17T10:44:15Z</time><extensions><speed>0.000000</speed><course>289.633057</course><hAcc>0.988885</hAcc><vAcc>0.734775</vAcc></extensions></trkpt>
      <trkpt lon="-4.135728" lat="53.002839"><ele>651.203613</ele><time>2021-07-17T10:44:16Z</time><extensions><speed>0.000000</speed><course>274.042023</course><hAcc>0.988627</hAcc><vAcc>0.734886</vAcc></extensions></trkpt>
      <trkpt lon="-4.135728" lat="53.002839"><ele>651.203613</ele><time>2021-07-17T10:44:17Z</time><extensions><speed>0.000000</speed><course>259.398621</course><hAcc>0.991958</hAcc><vAcc>0.738133</vAcc></extensions></trkpt>
      <trkpt lon="-4.135728" lat="53.002839"><ele>651.203613</ele><time>2021-07-17T10:44:18Z</time><extensions><speed>0.000000</speed><course>235.228027</course><hAcc>1.002487</hAcc><vAcc>0.747277</vAcc></extensions></trkpt>
      <trkpt lon="-4.135728" lat="53.002839"><ele>651.203613</ele><time>2021-07-17T10:44:19Z</time><extensions><speed>0.000000</speed><course>233.943741</course><hAcc>1.025521</hAcc><vAcc>0.766208</vAcc></extensions></trkpt>
      <trkpt lon="-4.135728" lat="53.002839"><ele>651.203613</ele><time>2021-07-17T10:44:20Z</time><extensions><speed>0.000000</speed><course>251.986771</course><hAcc>1.067980</hAcc><vAcc>0.799800</vAcc></extensions></trkpt>
      <trkpt lon="-4.135728" lat="53.002838"><ele>651.209900</ele><time>2021-07-17T10:44:21Z</time><extensions><speed>0.000085</speed><course>207.637573</course><hAcc>1.022989</hAcc><vAcc>0.764450</vAcc></extensions></trkpt>
      <trkpt lon="-4.135728" lat="53.002838"><ele>651.209595</ele><time>2021-07-17T10:44:22Z</time><extensions><speed>0.000266</speed><course>199.781464</course><hAcc>0.998054</hAcc><vAcc>0.743823</vAcc></extensions></trkpt>
      <trkpt lon="-4.135728" lat="53.002838"><ele>651.209045</ele><time>2021-07-17T10:44:23Z</time><extensions><speed>0.000510</speed><course>204.898392</course><hAcc>0.986753</hAcc><vAcc>0.733798</vAcc></extensions></trkpt>
      <trkpt lon="-4.135728" lat="53.002838"><ele>651.208252</ele><time>2021-07-17T10:44:24Z</time><extensions><speed>0.000824</speed><course>218.988647</course><hAcc>0.983119</hAcc><vAcc>0.730042</vAcc></extensions></trkpt>
      <trkpt lon="-4.135728" lat="53.002838"><ele>651.207031</ele><time>2021-07-17T10:44:25Z</time><extensions><speed>0.001213</speed><course>240.875916</course><hAcc>0.983099</hAcc><vAcc>0.729479</vAcc></extensions></trkpt>
      <trkpt lon="-4.135728" lat="53.002838"><ele>651.205383</ele><time>2021-07-17T10:44:26Z</time><extensions><speed>0.001683</speed><course>240.875916</course><hAcc>0.984285</hAcc><vAcc>0.730172</vAcc></extensions></trkpt>
      <trkpt lon="-4.135728" lat="53.002839"><ele>651.203186</ele><time>2021-07-17T10:44:27Z</time><extensions><speed>0.002240</speed><course>240.875916</course><hAcc>0.985481</hAcc><vAcc>0.731058</vAcc></extensions></trkpt>
      <trkpt lon="-4.135728" lat="53.002839"><ele>651.200317</ele><time>2021-07-17T10:44:28Z</time><extensions><speed>0.002884</speed><course>240.875916</course><hAcc>0.986309</hAcc><vAcc>0.731684</vAcc></extensions></trkpt>
      <trkpt lon="-4.135728" lat="53.002839"><ele>651.196777</ele><time>2021-07-17T10:44:29Z</time><extensions><speed>0.003614</speed><course>240.875916</course><hAcc>0.986893</hAcc><vAcc>0.731985</vAcc></extensions></trkpt>
      <trkpt lon="-4.135728" lat="53.002839"><ele>651.192383</ele><time>2021-07-17T10:44:30Z</time><extensions><speed>0.004424</speed><course>240.875916</course><hAcc>0.987641</hAcc><vAcc>0.732119</vAcc></extensions></trkpt>
      <trkpt lon="-4.135728" lat="53.002839"><ele>651.187195</ele><time>2021-07-17T10:44:31Z</time><extensions><speed>0.005304</speed><course>269.430084</course><hAcc>0.989088</hAcc><vAcc>0.732351</vAcc></extensions></trkpt>
      <trkpt lon="-4.135728" lat="53.002839"><ele>651.180969</ele><time>2021-07-17T10:44:32Z</time><extensions><speed>0.006236</speed><course>274.056000</course><hAcc>0.991792</hAcc><vAcc>0.732976</vAcc></extensions></trkpt>
      <trkpt lon="-4.135728" lat="53.002839"><ele>651.173828</ele><time>2021-07-17T10:44:33Z</time><extensions><speed>0.007195</speed><course>273.580658</course><hAcc>0.996248</hAcc><vAcc>0.734263</vAcc></extensions></trkpt>
      <trkpt lon="-4.135728" lat="53.002839"><ele>651.165710</ele><time>2021-07-17T10:44:34Z</time><extensions><speed>0.008146</speed><course>266.285736</course><hAcc>1.002826</hAcc><vAcc>0.736415</vAcc></extensions></trkpt>
      <trkpt lon="-4.135728" lat="53.002839"><ele>651.156677</ele><time>2021-07-17T10:44:35Z</time><extensions><speed>0.009046</speed><course>280.416809</course><hAcc>1.011698</hAcc><vAcc>0.739543</vAcc></extensions></trkpt>
      <trkpt lon="-4.135728" lat="53.002839"><ele>651.146790</ele><time>2021-07-17T10:44:36Z</time><extensions><speed>0.009839</speed><course>289.633057</course><hAcc>1.022776</hAcc><vAcc>0.743637</vAcc></extensions></trkpt>
      <trkpt lon="-4.135728" lat="53.002839"><ele>651.136169</ele><time>2021-07-17T10:44:37Z</time><extensions><speed>0.010455</speed><course>274.042023</course><hAcc>1.035660</hAcc><vAcc>0.748549</vAcc></extensions></trkpt>
      <trkpt lon="-4.135729" lat="53.002839"><ele>651.125122</ele><time>2021-07-17T10:44:38Z</time><extensions><speed>0.010812</speed><course>259.398621</course><hAcc>1.049600</hAcc><vAcc>0.753985</vAcc></extensions></trkpt>
      <trkpt lon="-4.135729" lat="53.002839"><ele>651.113953</ele><time>2021-07-17T10:44:39Z</time><extensions><speed>0.010827</speed><course>235.228027</course><hAcc>1.063646</hAcc><vAcc>0.759570</vAcc></extensions></trkpt>
      <trkpt lon="-4.135729" lat="53.002839"><ele>651.103027</ele><time>2021-07-17T10:44:40Z</time><extensions><speed>0.010424</speed><course>233.943741</course><hAcc>1.076965</hAcc><vAcc>0.764971</vAcc></extensions></trkpt>
      <trkpt lon="-4.135729" lat="53.002839"><ele>651.092896</ele><time>2021-07-17T10:44:41Z</time><extensions><speed>0.009514</speed><course>251.986771</course><hAcc>1.088977</hAcc><vAcc>0.769959</vAcc></extensions></trkpt>
      <trkpt lon="-4.135729" lat="53.002839"><ele>651.084106</ele><time>2021-07-17T10:44:42Z</time><extensions><speed>0.007999</speed><course>230.632401</course><hAcc>1.099326</hAcc><vAcc>0.774394</vAcc></extensions></trkpt>
      <trkpt lon="-4.135729" lat="53.002840"><ele>651.077393</ele><time>2021-07-17T10:44:43Z</time><extensions><speed>0.005772</speed><course>208.539734</course><hAcc>1.107811</hAcc><vAcc>0.778197</vAcc></extensions></trkpt>
      <trkpt lon="-4.135729" lat="53.002840"><ele>651.073547</ele><time>2021-07-17T10:44:44Z</time><extensions><speed>0.002720</speed><course>217.062653</course><hAcc>1.114333</hAcc><vAcc>0.781326</vAcc></extensions></trkpt>
      <trkpt lon="-4.135729" lat="53.002840"><ele>651.073547</ele><time>2021-07-17T10:44:45Z</time><extensions><speed>0.001302</speed><course>216.480164</course><hAcc>1.118837</hAcc><vAcc>0.783752</vAcc></extensions></trkpt>
      <trkpt lon="-4.135729" lat="53.002840"><ele>651.078491</ele><time>2021-07-17T10:44:46Z</time><extensions><speed>0.006367</speed><course>215.204285</course><hAcc>1.121269</hAcc><vAcc>0.785432</vAcc></extensions></trkpt>
      <trkpt lon="-4.135729" lat="53.002839"><ele>651.089600</ele><time>2021-07-17T10:44:47Z</time><extensions><speed>0.012633</speed><course>192.608246</course><hAcc>1.121551</hAcc><vAcc>0.786301</vAcc></extensions></trkpt>
      <trkpt lon="-4.135729" lat="53.002839"><ele>651.108154</ele><time>2021-07-17T10:44:48Z</time><extensions><speed>0.020209</speed><course>196.818375</course><hAcc>1.119568</hAcc><vAcc>0.786263</vAcc></extensions></trkpt>
      <trkpt lon="-4.135729" lat="53.002839"><ele>651.135559</ele><time>2021-07-17T10:44:49Z</time><extensions><speed>0.029195</speed><course>200.564194</course><hAcc>1.115183</hAcc><vAcc>0.785198</vAcc></extensions></trkpt>
      <trkpt lon="-4.135728" lat="53.002839"><ele>651.173523</ele><time>2021-07-17T10:44:50Z</time><extensions><speed>0.039673</speed><course>224.718231</course><hAcc>1.108268</hAcc><vAcc>0.782980</vAcc></extensions></trkpt>
      <trkpt lon="-4.135728" lat="53.002838"><ele>651.223450</ele><time>2021-07-17T10:44:51Z</time><extensions><speed>0.051697</speed><course>228.969803</course><hAcc>1.098768</hAcc><vAcc>0.779515</vAcc></extensions></trkpt>
      <trkpt lon="-4.135728" lat="53.002838"><ele>651.287109</ele><time>2021-07-17T10:44:52Z</time><extensions><speed>0.065281</speed><course>250.366501</course><hAcc>1.086795</hAcc><vAcc>0.774798</vAcc></extensions></trkpt>
      <trkpt lon="-4.135728" lat="53.002837"><ele>651.366089</ele><time>2021-07-17T10:44:53Z</time><extensions><speed>0.080386</speed><course>-1.000000</course><hAcc>1.072759</hAcc><vAcc>0.769000</vAcc></extensions></trkpt>
      <trkpt lon="-4.135728" lat="53.002836"><ele>651.461853</ele><time>2021-07-17T10:44:54Z</time><extensions><speed>0.096911</speed><course>232.063629</course><hAcc>1.057544</hAcc><vAcc>0.762583</vAcc></extensions></trkpt>
      <trkpt lon="-4.135727" lat="53.002836"><ele>651.575745</ele><time>2021-07-17T10:44:55Z</time><extensions><speed>0.114621</speed><course>232.063614</course><hAcc>1.042573</hAcc><vAcc>0.756400</vAcc></extensions></trkpt>
      <trkpt lon="-4.135727" lat="53.002834"><ele>651.708801</ele><time>2021-07-17T10:44:56Z</time><extensions><speed>0.133109</speed><course>232.063614</course><hAcc>1.029799</hAcc><vAcc>0.751773</vAcc></extensions></trkpt>
      <trkpt lon="-4.135726" lat="53.002833"><ele>651.861450</ele><time>2021-07-17T10:44:57Z</time><extensions><speed>0.151803</speed><course>232.063599</course><hAcc>1.021945</hAcc><vAcc>0.750691</vAcc></extensions></trkpt>
      <trkpt lon="-4.135726" lat="53.002832"><ele>652.033386</ele><time>2021-07-17T10:44:58Z</time><extensions><speed>0.169940</speed><course>232.063599</course><hAcc>1.022955</hAcc><vAcc>0.756065</vAcc></extensions></trkpt>
      <trkpt lon="-4.135725" lat="53.002830"><ele>652.223572</ele><time>2021-07-17T10:44:59Z</time><extensions><speed>0.186536</speed><course>232.063583</course><hAcc>1.038344</hAcc><vAcc>0.771894</vAcc></extensions></trkpt>
      <trkpt lon="-4.135724" lat="53.002829"><ele>652.429688</ele><time>2021-07-17T10:45:00Z</time><extensions><speed>0.200365</speed><course>232.063583</course><hAcc>1.075142</hAcc><vAcc>0.803123</vAcc></extensions></trkpt>
      <trkpt lon="-4.135723" lat="53.002827"><ele>652.658691</ele><time>2021-07-17T10:45:01Z</time><extensions><speed>0.210053</speed><course>207.637573</course><hAcc>1.022721</hAcc><vAcc>0.764335</vAcc></extensions></trkpt>
      <trkpt lon="-4.135723" lat="53.002825"><ele>652.878601</ele><time>2021-07-17T10:45:02Z</time><extensions><speed>0.196059</speed><course>199.781464</course><hAcc>0.997970</hAcc><vAcc>0.743808</vAcc></extensions></trkpt>
      <trkpt lon="-4.135722" lat="53.002824"><ele>653.081909</ele><time>2021-07-17T10:45:03Z</time><extensions><speed>0.179400</speed><course>204.898392</course><hAcc>0.986939</hAcc><vAcc>0.733916</vAcc></extensions></trkpt>
      <trkpt lon="-4.135721" lat="53.002822"><ele>653.266235</ele><time>2021-07-17T10:45:04Z</time><extensions><speed>0.161309</speed><course>218.988647</course><hAcc>0.983651</hAcc><vAcc>0.730322</vAcc></extensions></trkpt>
      <trkpt lon="-4.135721" lat="53.002821"><ele>653.430481</ele><time>2021-07-17T10:45:05Z</time><extensions><speed>0.142755</speed><course>240.875916</course><hAcc>0.984035</hAcc><vAcc>0.729937</vAcc></extensions></trkpt>
      <trkpt lon="-4.135720" lat="53.002820"><ele>653.574219</ele><time>2021-07-17T10:45:06Z</time><extensions><speed>0.124474</speed><course>240.875916</course><hAcc>0.985634</hAcc><vAcc>0.730796</vAcc></extensions></trkpt>
      <trkpt lon="-4.135720" lat="53.002819"><ele>653.697632</ele><time>2021-07-17T10:45:07Z</time><extensions><speed>0.107000</speed><course>240.875916</course><hAcc>0.987166</hAcc><vAcc>0.731797</vAcc></extensions></trkpt>
      <trkpt lon="-4.135719" lat="53.002818"><ele>653.801392</ele><time>2021-07-17T10:45:08Z</time><extensions><speed>0.090689</speed><course>240.875916</course><hAcc>0.988111</hAcc><vAcc>0.732421</vAcc></extensions></trkpt>
      <trkpt lon="-4.135719" lat="53.002817"><ele>653.886353</ele><time>2021-07-17T10:45:09Z</time><extensions><speed>0.075766</speed><course>240.875916</course><hAcc>0.988380</hAcc><vAcc>0.732510</vAcc></extensions></trkpt>
      <trkpt lon="-4.135719" lat="53.002816"><ele>653.953552</ele><time>2021-07-17T10:45:10Z</time><extensions><speed>0.062368</speed><course>240.875916</course><hAcc>0.988079</hAcc><vAcc>0.732093</vAcc></extensions></trkpt>
      <trkpt lon="-4.135719" lat="53.002816"><ele>654.003784</ele><time>2021-07-17T10:45:11Z</time><extensions><speed>0.050626</speed><course>269.430084</course><hAcc>0.987351</hAcc><vAcc>0.731273</vAcc></extensions></trkpt>
      <trkpt lon="-4.135719" lat="53.002816"><ele>654.037903</ele><time>2021-07-17T10:45:12Z</time><extensions><speed>0.040807</speed><course>274.056000</course><hAcc>0.986279</hAcc><vAcc>0.730149</vAcc></extensions></trkpt>
      <trkpt lon="-4.135719" lat="53.002815"><ele>654.056580</ele><time>2021-07-17T10:45:13Z</time><extensions><speed>0.033551</speed><course>273.580658</course><hAcc>0.984836</hAcc><vAcc>0.728778</vAcc></extensions></trkpt>
      <trkpt lon="-4.135719" lat="53.002815"><ele>654.060120</ele><time>2021-07-17T10:45:14Z</time><extensions><speed>0.030037</speed><course>266.285736</course><hAcc>0.982881</hAcc><vAcc>0.727157</vAcc></extensions></trkpt>
      <trkpt lon="-4.135719" lat="53.002815"><ele>654.048706</ele><time>2021-07-17T10:45:15Z</time><extensions><speed>0.031364</speed><course>280.416809</course><hAcc>0.980323</hAcc><vAcc>0.725285</vAcc></extensions></trkpt>
      <trkpt lon="-4.135720" lat="53.002815"><ele>654.022156</ele><time>2021-07-17T10:45:16Z</time><extensions><speed>0.037197</speed><course>289.633057</course><hAcc>0.977276</hAcc><vAcc>0.723230</vAcc></extensions></trkpt>
      <trkpt lon="-4.135720" lat="53.002815"><ele>653.980164</ele><time>2021-07-17T10:45:17Z</time><extensions><speed>0.046239</speed><course>274.042023</course><hAcc>0.973914</hAcc><vAcc>0.721067</vAcc></extensions></trkpt>
      <trkpt lon="-4.135721" lat="53.002814"><ele>653.922119</ele><time>2021-07-17T10:45:18Z</time><extensions><speed>0.057470</speed><course>259.398621</course><hAcc>0.970306</hAcc><vAcc>0.718817</vAcc></extensions></trkpt>
      <trkpt lon="-4.135722" lat="53.002815"><ele>653.847351</ele><time>2021-07-17T10:45:19Z</time><extensions><speed>0.070319</speed><course>235.228027</course><hAcc>0.966409</hAcc><vAcc>0.716452</vAcc></extensions></trkpt>
      <trkpt lon="-4.135723" lat="53.002815"><ele>653.754883</ele><time>2021-07-17T10:45:20Z</time><extensions><speed>0.084447</speed><course>233.943741</course><hAcc>0.962079</hAcc><vAcc>0.713903</vAcc></extensions></trkpt>
      <trkpt lon="-4.135725" lat="53.002815"><ele>653.643921</ele><time>2021-07-17T10:45:21Z</time><extensions><speed>0.099580</speed><course>251.986771</course><hAcc>0.957086</hAcc><vAcc>0.711074</vAcc></extensions></trkpt>
      <trkpt lon="-4.135726" lat="53.002815"><ele>653.513794</ele><time>2021-07-17T10:45:22Z</time><extensions><speed>0.115417</speed><course>230.632401</course><hAcc>0.951150</hAcc><vAcc>0.707863</vAcc></extensions></trkpt>
      <trkpt lon="-4.135728" lat="53.002815"><ele>653.363892</ele><time>2021-07-17T10:45:23Z</time><extensions><speed>0.131841</speed><course>208.539734</course><hAcc>0.943980</hAcc><vAcc>0.704186</vAcc></extensions></trkpt>
      <trkpt lon="-4.135730" lat="53.002816"><ele>653.193909</ele><time>2021-07-17T10:45:24Z</time><extensions><speed>0.148792</speed><course>217.062653</course><hAcc>0.935325</hAcc><vAcc>0.700004</vAcc></extensions></trkpt>
      <trkpt lon="-4.135732" lat="53.002816"><ele>653.003845</ele><time>2021-07-17T10:45:25Z</time><extensions><speed>0.165881</speed><course>216.480164</course><hAcc>0.925039</hAcc><vAcc>0.695355</vAcc></extensions></trkpt>
      <trkpt lon="-4.135734" lat="53.002817"><ele>652.794189</ele><time>2021-07-17T10:45:26Z</time><extensions><speed>0.182482</speed><course>215.204285</course><hAcc>0.913155</hAcc><vAcc>0.690385</vAcc></extensions></trkpt>
      <trkpt lon="-4.135737" lat="53.002818"><ele>652.566040</ele><time>2021-07-17T10:45:27Z</time><extensions><speed>0.197806</speed><course>192.608246</course><hAcc>0.899970</hAcc><vAcc>0.685374</vAcc></extensions></trkpt>
      <trkpt lon="-4.135739" lat="53.002819"><ele>652.321533</ele><time>2021-07-17T10:45:28Z</time><extensions><speed>0.210856</speed><course>196.818375</course><hAcc>0.886113</hAcc><vAcc>0.680748</vAcc></extensions></trkpt>
      <trkpt lon="-4.135742" lat="53.002820"><ele>652.063599</ele><time>2021-07-17T10:45:29Z</time><extensions><speed>0.220390</speed><course>200.564194</course><hAcc>0.872582</hAcc><vAcc>0.677059</vAcc></extensions></trkpt>
      <trkpt lon="-4.135744" lat="53.002821"><ele>651.813599</ele><time>2021-07-17T10:45:29Z</time><extensions><speed>0.224454</speed><course>224.718231</course><hAcc>0.862334</hAcc><vAcc>0.675672</vAcc></extensions></trkpt>
      <trkpt lon="-4.135745" lat="53.002821"><ele>651.797180</ele><time>2021-07-17T10:45:29Z</time><extensions><speed>0.224460</speed><course>228.969803</course><hAcc>0.861867</hAcc><vAcc>0.675726</vAcc></extensions></trkpt>
      <trkpt lon="-4.135745" lat="53.002821"><ele>651.781006</ele><time>2021-07-17T10:45:30Z</time><extensions><speed>0.224463</speed><course>250.366501</course><hAcc>0.861542</hAcc><vAcc>0.675870</vAcc></extensions></trkpt>
      <trkpt lon="-4.135747" lat="53.002822"><ele>651.527954</ele><time>2021-07-17T10:45:31Z</time><extensions><speed>0.222223</speed><course>-1.000000</course><hAcc>0.859738</hAcc><vAcc>0.680266</vAcc></extensions></trkpt>
      <trkpt lon="-4.135750" lat="53.002824"><ele>651.263306</ele><time>2021-07-17T10:45:32Z</time><extensions><speed>0.214143</speed><course>232.063629</course><hAcc>0.861339</hAcc><vAcc>0.686921</vAcc></extensions></trkpt>
      <trkpt lon="-4.135752" lat="53.002825"><ele>651.008606</ele><time>2021-07-17T10:45:33Z</time><extensions><speed>0.202089</speed><course>232.063614</course><hAcc>0.864760</hAcc><vAcc>0.694193</vAcc></extensions></trkpt>
      <trkpt lon="-4.135754" lat="53.002826"><ele>650.767944</ele><time>2021-07-17T10:45:34Z</time><extensions><speed>0.187424</speed><course>232.063614</course><hAcc>0.869186</hAcc><vAcc>0.701456</vAcc></extensions></trkpt>
      <trkpt lon="-4.135756" lat="53.002828"><ele>650.543945</ele><time>2021-07-17T10:45:35Z</time><extensions><speed>0.171516</speed><course>232.063599</course><hAcc>0.873931</hAcc><vAcc>0.708254</vAcc></extensions></trkpt>
      <trkpt lon="-4.135757" lat="53.002829"><ele>650.338074</ele><time>2021-07-17T10:45:36Z</time><extensions><speed>0.155620</speed><course>232.063599</course><hAcc>0.878495</hAcc><vAcc>0.714298</vAcc></extensions></trkpt>
      <trkpt lon="-4.135758" lat="53.002830"><ele>650.151123</ele><time>2021-07-17T10:45:37Z</time><extensions><speed>0.140470</speed><course>232.063583</course><hAcc>0.882566</hAcc><vAcc>0.719450</vAcc></extensions></trkpt>
      <trkpt lon="-4.135759" lat="53.002831"><ele>649.983154</ele><time>2021-07-17T10:45:38Z</time><extensions><speed>0.126346</speed><course>232.063583</course><hAcc>0.885992</hAcc><vAcc>0.723684</vAcc></extensions></trkpt>
      <trkpt lon="-4.135760" lat="53.002832"><ele>649.833679</ele><time>2021-07-17T10:45:39Z</time><extensions><speed>0.113382</speed><course>248.555511</course><hAcc>0.888735</hAcc><vAcc>0.727052</vAcc></extensions></trkpt>
      <trkpt lon="-4.135761" lat="53.002833"><ele>649.702271</ele><time>2021-07-17T10:45:40Z</time><extensions><speed>0.101655</speed><course>214.727661</course><hAcc>0.890836</hAcc><vAcc>0.729657</vAcc></extensions></trkpt>
      <trkpt lon="-4.135761" lat="53.002834"><ele>649.588196</ele><time>2021-07-17T10:45:41Z</time><extensions><speed>0.091168</speed><course>215.656113</course><hAcc>0.892379</hAcc><vAcc>0.731621</vAcc></extensions></trkpt>
      <trkpt lon="-4.135762" lat="53.002834"><ele>649.490662</ele><time>2021-07-17T10:45:42Z</time><extensions><speed>0.081844</speed><course>205.637772</course><hAcc>0.893468</hAcc><vAcc>0.733072</vAcc></extensions></trkpt>
      <trkpt lon="-4.135762" lat="53.002835"><ele>649.408691</ele><time>2021-07-17T10:45:43Z</time><extensions><speed>0.073625</speed><course>201.575424</course><hAcc>0.894206</hAcc><vAcc>0.734129</vAcc></extensions></trkpt>
      <trkpt lon="-4.135762" lat="53.002836"><ele>649.341187</ele><time>2021-07-17T10:45:44Z</time><extensions><speed>0.066523</speed><course>196.854248</course><hAcc>0.894686</hAcc><vAcc>0.734894</vAcc></extensions></trkpt>
      <trkpt lon="-4.135762" lat="53.002836"><ele>649.286987</ele><time>2021-07-17T10:45:45Z</time><extensions><speed>0.060549</speed><course>198.264053</course><hAcc>0.894988</hAcc><vAcc>0.735452</vAcc></extensions></trkpt>
      <trkpt lon="-4.135763" lat="53.002837"><ele>649.244873</ele><time>2021-07-17T10:45:46Z</time><extensions><speed>0.055690</speed><course>198.636932</course><hAcc>0.895174</hAcc><vAcc>0.735866</vAcc></extensions></trkpt>
      <trkpt lon="-4.135763" lat="53.002837"><ele>649.213623</ele><time>2021-07-17T10:45:47Z</time><extensions><speed>0.051858</speed><course>192.727798</course><hAcc>0.895290</hAcc><vAcc>0.736185</vAcc></extensions></trkpt>
      <trkpt lon="-4.135763" lat="53.002838"><ele>649.191528</ele><time>2021-07-17T10:45:48Z</time><extensions><speed>0.049004</speed><course>184.691818</course><hAcc>0.895368</hAcc><vAcc>0.736442</vAcc></extensions></trkpt>
      <trkpt lon="-4.135763" lat="53.002838"><ele>649.176819</ele><time>2021-07-17T10:45:49Z</time><extensions><speed>0.047157</speed><course>177.917740</course><hAcc>0.895429</hAcc><vAcc>0.736662</vAcc></extensions></trkpt>
      <trkpt lon="-4.135764" lat="53.002838"><ele>649.167603</ele><time>2021-07-17T10:45:50Z</time><extensions><speed>0.046319</speed><course>169.935883</course><hAcc>0.895483</hAcc><vAcc>0.736865</vAcc></extensions></trkpt>
      <trkpt lon="-4.135764" lat="53.002839"><ele>649.161926</ele><time>2021-07-17T10:45:51Z</time><extensions><speed>0.046331</speed><course>168.290512</course><hAcc>0.895536</hAcc><vAcc>0.737063</vAcc></extensions></trkpt>
      <trkpt lon="-4.135764" lat="53.002839"><ele>649.157776</ele><time>2021-07-17T10:45:52Z</time><extensions><speed>0.046796</speed><course>175.847488</course><hAcc>0.895589</hAcc><vAcc>0.737259</vAcc></extensions></trkpt>
      <trkpt lon="-4.135764" lat="53.002839"><ele>649.152893</ele><time>2021-07-17T10:45:53Z</time><extensions><speed>0.047157</speed><course>182.489380</course><hAcc>0.895642</hAcc><vAcc>0.737451</vAcc></extensions></trkpt>
      <trkpt lon="-4.135765" lat="53.002840"><ele>649.145203</ele><time>2021-07-17T10:45:54Z</time><extensions><speed>0.046895</speed><course>193.224472</course><hAcc>0.895693</hAcc><vAcc>0.737633</vAcc></extensions></trkpt>
      <trkpt lon="-4.135765" lat="53.002840"><ele>649.132751</ele><time>2021-07-17T10:45:55Z</time><extensions><speed>0.045991</speed><course>210.457108</course><hAcc>0.895741</hAcc><vAcc>0.737798</vAcc></extensions></trkpt>
      <trkpt lon="-4.135765" lat="53.002841"><ele>649.113892</ele><time>2021-07-17T10:45:56Z</time><extensions><speed>0.044894</speed><course>227.054108</course><hAcc>0.895783</hAcc><vAcc>0.737941</vAcc></extensions></trkpt>
      <trkpt lon="-4.135766" lat="53.002841"><ele>649.087402</ele><time>2021-07-17T10:45:57Z</time><extensions><speed>0.044063</speed><course>247.666534</course><hAcc>0.895817</hAcc><vAcc>0.738054</vAcc></extensions></trkpt>
      <trkpt lon="-4.135766" lat="53.002841"><ele>649.052429</ele><time>2021-07-17T10:45:58Z</time><extensions><speed>0.043874</speed><course>261.197876</course><hAcc>0.895841</hAcc><vAcc>0.738133</vAcc></extensions></trkpt>
      <trkpt lon="-4.135766" lat="53.002842"><ele>649.008301</ele><time>2021-07-17T10:45:59Z</time><extensions><speed>0.044297</speed><course>263.217255</course><hAcc>0.895855</hAcc><vAcc>0.738173</vAcc></extensions></trkpt>
      <trkpt lon="-4.135766" lat="53.002842"><ele>648.954529</ele><time>2021-07-17T10:46:00Z</time><extensions><speed>0.044902</speed><course>271.463165</course><hAcc>0.895859</hAcc><vAcc>0.738170</vAcc></extensions></trkpt>
      <trkpt lon="-4.135766" lat="53.002843"><ele>648.891296</ele><time>2021-07-17T10:46:01Z</time><extensions><speed>0.045261</speed><course>281.991608</course><hAcc>0.895854</hAcc><vAcc>0.738125</vAcc></extensions></trkpt>
      <trkpt lon="-4.135766" lat="53.002843"><ele>648.819336</ele><time>2021-07-17T10:46:02Z</time><extensions><speed>0.045120</speed><course>285.895782</course><hAcc>0.895840</hAcc><vAcc>0.738042</vAcc></extensions></trkpt>
      <trkpt lon="-4.135765" lat="53.002843"><ele>648.740051</ele><time>2021-07-17T10:46:03Z</time><extensions><speed>0.044304</speed><course>287.327179</course><hAcc>0.895817</hAcc><vAcc>0.737929</vAcc></extensions></trkpt>
      <trkpt lon="-4.135765" lat="53.002844"><ele>648.655273</ele><time>2021-07-17T10:46:04Z</time><extensions><speed>0.042580</speed><course>297.396240</course><hAcc>0.895788</hAcc><vAcc>0.737795</vAcc></extensions></trkpt>
      <trkpt lon="-4.135765" lat="53.002844"><ele>648.567261</ele><time>2021-07-17T10:46:05Z</time><extensions><speed>0.040022</speed><course>299.473175</course><hAcc>0.895754</hAcc><vAcc>0.737648</vAcc></extensions></trkpt>
      <trkpt lon="-4.135765" lat="53.002844"><ele>648.478271</ele><time>2021-07-17T10:46:06Z</time><extensions><speed>0.036883</speed><course>297.683289</course><hAcc>0.895717</hAcc><vAcc>0.737497</vAcc></extensions></trkpt>
      <trkpt lon="-4.135764" lat="53.002845"><ele>648.390381</ele><time>2021-07-17T10:46:07Z</time><extensions><speed>0.033265</speed><course>292.365356</course><hAcc>0.895680</hAcc><vAcc>0.737348</vAcc></extensions></trkpt>
      <trkpt lon="-4.135764" lat="53.002845"><ele>648.305542</ele><time>2021-07-17T10:46:08Z</time><extensions><speed>0.029463</speed><course>291.092651</course><hAcc>0.895646</hAcc><vAcc>0.737208</vAcc></extensions></trkpt>
      <trkpt lon="-4.135764" lat="53.002845"><ele>648.225464</ele><time>2021-07-17T10:46:09Z</time><extensions><speed>0.025695</speed><course>297.007721</course><hAcc>0.895615</hAcc><vAcc>0.737082</vAcc></extensions></trkpt>
      <trkpt lon="-4.135763" lat="53.002845"><ele>648.151611</ele><time>2021-07-17T10:46:10Z</time><extensions><speed>0.021952</speed><course>291.539093</course><hAcc>0.895589</hAcc><vAcc>0.736976</vAcc></extensions></trkpt>
      <trkpt lon="-4.135763" lat="53.002845"><ele>648.085083</ele><time>2021-07-17T10:46:11Z</time><extensions><speed>0.018277</speed><course>293.314819</course><hAcc>0.895569</hAcc><vAcc>0.736894</vAcc></extensions></trkpt>
      <trkpt lon="-4.135763" lat="53.002845"><ele>648.026672</ele><time>2021-07-17T10:46:12Z</time><extensions><speed>0.014849</speed><course>297.043213</course><hAcc>0.895553</hAcc><vAcc>0.736839</vAcc></extensions></trkpt>
      <trkpt lon="-4.135763" lat="53.002845"><ele>647.976929</ele><time>2021-07-17T10:46:13Z</time><extensions><speed>0.011669</speed><course>301.573547</course><hAcc>0.895539</hAcc><vAcc>0.736813</vAcc></extensions></trkpt>
      <trkpt lon="-4.135762" lat="53.002845"><ele>647.936157</ele><time>2021-07-17T10:46:14Z</time><extensions><speed>0.008670</speed><course>305.542847</course><hAcc>0.895525</hAcc><vAcc>0.736816</vAcc></extensions></trkpt>
      <trkpt lon="-4.135762" lat="53.002845"><ele>647.904358</ele><time>2021-07-17T10:46:15Z</time><extensions><speed>0.006301</speed><course>304.461029</course><hAcc>0.895506</hAcc><vAcc>0.736839</vAcc></extensions></trkpt>
      <trkpt lon="-4.135762" lat="53.002845"><ele>647.881348</ele><time>2021-07-17T10:46:16Z</time><extensions><speed>0.005989</speed><course>304.519958</course><hAcc>0.895479</hAcc><vAcc>0.736869</vAcc></extensions></trkpt>
      <trkpt lon="-4.135762" lat="53.002845"><ele>647.866699</ele><time>2021-07-17T10:46:16Z</time><extensions><speed>0.008516</speed><course>306.835541</course><hAcc>0.895460</hAcc><vAcc>0.736897</vAcc></extensions></trkpt>
      <trkpt lon="-4.135762" lat="53.002845"><ele>647.859619</ele><time>2021-07-17T10:46:17Z</time><extensions><speed>0.012382</speed><course>312.924469</course><hAcc>0.895449</hAcc><vAcc>0.736899</vAcc></extensions></trkpt>
      <trkpt lon="-4.135762" lat="53.002846"><ele>647.859070</ele><time>2021-07-17T10:46:19Z</time><extensions><speed>0.016382</speed><course>313.121582</course><hAcc>0.895410</hAcc><vAcc>0.736825</vAcc></extensions></trkpt>
      <trkpt lon="-4.135762" lat="53.002846"><ele>647.863708</ele><time>2021-07-17T10:46:20Z</time><extensions><speed>0.019835</speed><course>312.363678</course><hAcc>0.895343</hAcc><vAcc>0.736659</vAcc></extensions></trkpt>
      <trkpt lon="-4.135763" lat="53.002846"><ele>647.871948</ele><time>2021-07-17T10:46:21Z</time><extensions><speed>0.022315</speed><course>309.905548</course><hAcc>0.895267</hAcc><vAcc>0.736410</vAcc></extensions></trkpt>
      <trkpt lon="-4.135763" lat="53.002846"><ele>647.882263</ele><time>2021-07-17T10:46:22Z</time><extensions><speed>0.023726</speed><course>308.597687</course><hAcc>0.895180</hAcc><vAcc>0.736079</vAcc></extensions></trkpt>
      <trkpt lon="-4.135763" lat="53.002846"><ele>647.893311</ele><time>2021-07-17T10:46:23Z</time><extensions><speed>0.024186</speed><course>307.103394</course><hAcc>0.895081</hAcc><vAcc>0.735682</vAcc></extensions></trkpt>
      <trkpt lon="-4.135763" lat="53.002847"><ele>647.903809</ele><time>2021-07-17T10:46:24Z</time><extensions><speed>0.023752</speed><course>306.897400</course><hAcc>0.894971</hAcc><vAcc>0.735239</vAcc></extensions></trkpt>
      <trkpt lon="-4.135763" lat="53.002847"><ele>647.912720</ele><time>2021-07-17T10:46:25Z</time><extensions><speed>0.022410</speed><course>302.152618</course><hAcc>0.894849</hAcc><vAcc>0.734773</vAcc></extensions></trkpt>
      <trkpt lon="-4.135763" lat="53.002847"><ele>647.918884</ele><time>2021-07-17T10:46:26Z</time><extensions><speed>0.020086</speed><course>297.726410</course><hAcc>0.894718</hAcc><vAcc>0.734303</vAcc></extensions></trkpt>
      <trkpt lon="-4.135763" lat="53.002847"><ele>647.921265</ele><time>2021-07-17T10:46:27Z</time><extensions><speed>0.016875</speed><course>300.194183</course><hAcc>0.894578</hAcc><vAcc>0.733843</vAcc></extensions></trkpt>
      <trkpt lon="-4.135763" lat="53.002847"><ele>647.918701</ele><time>2021-07-17T10:46:28Z</time><extensions><speed>0.013056</speed><course>297.151825</course><hAcc>0.894433</hAcc><vAcc>0.733401</vAcc></extensions></trkpt>
      <trkpt lon="-4.135763" lat="53.002847"><ele>647.910095</ele><time>2021-07-17T10:46:28Z</time><extensions><speed>0.008810</speed><course>298.399384</course><hAcc>0.894304</hAcc><vAcc>0.732992</vAcc></extensions></trkpt>
      <trkpt lon="-4.135763" lat="53.002847"><ele>647.894714</ele><time>2021-07-17T10:46:29Z</time><extensions><speed>0.004203</speed><course>300.837921</course><hAcc>0.894195</hAcc><vAcc>0.732615</vAcc></extensions></trkpt>
      <trkpt lon="-4.135763" lat="53.002847"><ele>647.872192</ele><time>2021-07-17T10:46:30Z</time><extensions><speed>0.001465</speed><course>299.844330</course><hAcc>0.894092</hAcc><vAcc>0.732256</vAcc></extensions></trkpt>
      <trkpt lon="-4.135763" lat="53.002847"><ele>647.842712</ele><time>2021-07-17T10:46:31Z</time><extensions><speed>0.006559</speed><course>300.001373</course><hAcc>0.894000</hAcc><vAcc>0.731915</vAcc></extensions></trkpt>
      <trkpt lon="-4.135763" lat="53.002847"><ele>647.806824</ele><time>2021-07-17T10:46:32Z</time><extensions><speed>0.012385</speed><course>294.568817</course><hAcc>0.893922</hAcc><vAcc>0.731598</vAcc></extensions></trkpt>
      <trkpt lon="-4.135763" lat="53.002847"><ele>647.765564</ele><time>2021-07-17T10:46:33Z</time><extensions><speed>0.018647</speed><course>300.687103</course><hAcc>0.893860</hAcc><vAcc>0.731314</vAcc></extensions></trkpt>
      <trkpt lon="-4.135763" lat="53.002847"><ele>647.720520</ele><time>2021-07-17T10:46:35Z</time><extensions><speed>0.025340</speed><course>297.691925</course><hAcc>0.893800</hAcc><vAcc>0.731063</vAcc></extensions></trkpt>
      <trkpt lon="-4.135763" lat="53.002847"><ele>647.673950</ele><time>2021-07-17T10:46:36Z</time><extensions><speed>0.032417</speed><course>293.928223</course><hAcc>0.893742</hAcc><vAcc>0.730856</vAcc></extensions></trkpt>
      <trkpt lon="-4.135763" lat="53.002846"><ele>647.628235</ele><time>2021-07-17T10:46:37Z</time><extensions><speed>0.039674</speed><course>297.041656</course><hAcc>0.893705</hAcc><vAcc>0.730716</vAcc></extensions></trkpt>
      <trkpt lon="-4.135762" lat="53.002846"><ele>647.585693</ele><time>2021-07-17T10:46:38Z</time><extensions><speed>0.046666</speed><course>298.722290</course><hAcc>0.893687</hAcc><vAcc>0.730649</vAcc></extensions></trkpt>
      <trkpt lon="-4.135762" lat="53.002846"><ele>647.548035</ele><time>2021-07-17T10:46:39Z</time><extensions><speed>0.052848</speed><course>296.674316</course><hAcc>0.893687</hAcc><vAcc>0.730661</vAcc></extensions></trkpt>
      <trkpt lon="-4.135762" lat="53.002845"><ele>647.516357</ele><time>2021-07-17T10:46:40Z</time><extensions><speed>0.057597</speed><course>301.147156</course><hAcc>0.893702</hAcc><vAcc>0.730750</vAcc></extensions></trkpt>
      <trkpt lon="-4.135762" lat="53.002845"><ele>647.491455</ele><time>2021-07-17T10:46:41Z</time><extensions><speed>0.060539</speed><course>301.618805</course><hAcc>0.893728</hAcc><vAcc>0.730907</vAcc></extensions></trkpt>
      <trkpt lon="-4.135761" lat="53.002844"><ele>647.473572</ele><time>2021-07-17T10:46:42Z</time><extensions><speed>0.061571</speed><course>300.678009</course><hAcc>0.893764</hAcc><vAcc>0.731116</vAcc></extensions></trkpt>
      <trkpt lon="-4.135761" lat="53.002844"><ele>647.462646</ele><time>2021-07-17T10:46:43Z</time><extensions><speed>0.060686</speed><course>306.078644</course><hAcc>0.893803</hAcc><vAcc>0.731354</vAcc></extensions></trkpt>
      <trkpt lon="-4.135761" lat="53.002843"><ele>647.458069</ele><time>2021-07-17T10:46:44Z</time><extensions><speed>0.058153</speed><course>302.099213</course><hAcc>0.893842</hAcc><vAcc>0.731596</vAcc></extensions></trkpt>
      <trkpt lon="-4.135761" lat="53.002843"><ele>647.458923</ele><time>2021-07-17T10:46:45Z</time><extensions><speed>0.054441</speed><course>298.253754</course><hAcc>0.893877</hAcc><vAcc>0.731814</vAcc></extensions></trkpt>
      <trkpt lon="-4.135760" lat="53.002842"><ele>647.464111</ele><time>2021-07-17T10:46:46Z</time><extensions><speed>0.049926</speed><course>299.772583</course><hAcc>0.893904</hAcc><vAcc>0.731983</vAcc></extensions></trkpt>
      <trkpt lon="-4.135760" lat="53.002842"><ele>647.472595</ele><time>2021-07-17T10:46:47Z</time><extensions><speed>0.044935</speed><course>299.946075</course><hAcc>0.893919</hAcc><vAcc>0.732084</vAcc></extensions></trkpt>
      <trkpt lon="-4.135760" lat="53.002841"><ele>647.483398</ele><time>2021-07-17T10:46:48Z</time><extensions><speed>0.039828</speed><course>303.968170</course><hAcc>0.893920</hAcc><vAcc>0.732105</vAcc></extensions></trkpt>
      <trkpt lon="-4.135760" lat="53.002841"><ele>647.495850</ele><time>2021-07-17T10:46:49Z</time><extensions><speed>0.034897</speed><course>302.223755</course><hAcc>0.893905</hAcc><vAcc>0.732042</vAcc></extensions></trkpt>
      <trkpt lon="-4.135760" lat="53.002841"><ele>647.509338</ele><time>2021-07-17T10:46:50Z</time><extensions><speed>0.030374</speed><course>303.590851</course><hAcc>0.893873</hAcc><vAcc>0.731897</vAcc></extensions></trkpt>
      <trkpt lon="-4.135760" lat="53.002840"><ele>647.523682</ele><time>2021-07-17T10:46:51Z</time><extensions><speed>0.026441</speed><course>302.656281</course><hAcc>0.893826</hAcc><vAcc>0.731679</vAcc></extensions></trkpt>
      <trkpt lon="-4.135760" lat="53.002840"><ele>647.538696</ele><time>2021-07-17T10:46:52Z</time><extensions><speed>0.023240</speed><course>307.857574</course><hAcc>0.893765</hAcc><vAcc>0.731402</vAcc></extensions></trkpt>
      <trkpt lon="-4.135760" lat="53.002840"><ele>647.554321</ele><time>2021-07-17T10:46:53Z</time><extensions><speed>0.020894</speed><course>306.241272</course><hAcc>0.893691</hAcc><vAcc>0.731083</vAcc></extensions></trkpt>
      <trkpt lon="-4.135760" lat="53.002840"><ele>647.570679</ele><time>2021-07-17T10:46:54Z</time><extensions><speed>0.019528</speed><course>302.560516</course><hAcc>0.893607</hAcc><vAcc>0.730744</vAcc></extensions></trkpt>
      <trkpt lon="-4.135760" lat="53.002840"><ele>647.587952</ele><time>2021-07-17T10:46:55Z</time><extensions><speed>0.019269</speed><course>304.207947</course><hAcc>0.893516</hAcc><vAcc>0.730402</vAcc></extensions></trkpt>
      <trkpt lon="-4.135759" lat="53.002840"><ele>647.606384</ele><time>2021-07-17T10:46:56Z</time><extensions><speed>0.020219</speed><course>304.678192</course><hAcc>0.893420</hAcc><vAcc>0.730069</vAcc></extensions></trkpt>
      <trkpt lon="-4.135759" lat="53.002839"><ele>647.626343</ele><time>2021-07-17T10:46:57Z</time><extensions><speed>0.022407</speed><course>300.816559</course><hAcc>0.893324</hAcc><vAcc>0.729752</vAcc></extensions></trkpt>
      <trkpt lon="-4.135759" lat="53.002839"><ele>647.648071</ele><time>2021-07-17T10:46:58Z</time><extensions><speed>0.025772</speed><course>302.457642</course><hAcc>0.893230</hAcc><vAcc>0.729454</vAcc></extensions></trkpt>
      <trkpt lon="-4.135759" lat="53.002839"><ele>647.671936</ele><time>2021-07-17T10:46:59Z</time><extensions><speed>0.030177</speed><course>303.405792</course><hAcc>0.893140</hAcc><vAcc>0.729177</vAcc></extensions></trkpt>
      <trkpt lon="-4.135758" lat="53.002839"><ele>647.698181</ele><time>2021-07-17T10:47:00Z</time><extensions><speed>0.035438</speed><course>305.179382</course><hAcc>0.893058</hAcc><vAcc>0.728920</vAcc></extensions></trkpt>
      <trkpt lon="-4.135758" lat="53.002839"><ele>647.727051</ele><time>2021-07-17T10:47:01Z</time><extensions><speed>0.041317</speed><course>301.811188</course><hAcc>0.892984</hAcc><vAcc>0.728685</vAcc></extensions></trkpt>
      <trkpt lon="-4.135758" lat="53.002838"><ele>647.758484</ele><time>2021-07-17T10:47:02Z</time><extensions><speed>0.047517</speed><course>294.111877</course><hAcc>0.892921</hAcc><vAcc>0.728473</vAcc></extensions></trkpt>
      <trkpt lon="-4.135757" lat="53.002838"><ele>647.792603</ele><time>2021-07-17T10:47:03Z</time><extensions><speed>0.053665</speed><course>291.186249</course><hAcc>0.892870</hAcc><vAcc>0.728288</vAcc></extensions></trkpt>
      <trkpt lon="-4.135756" lat="53.002838"><ele>647.828979</ele><time>2021-07-17T10:47:04Z</time><extensions><speed>0.059295</speed><course>291.833313</course><hAcc>0.892832</hAcc><vAcc>0.728136</vAcc></extensions></trkpt>
      <trkpt lon="-4.135756" lat="53.002837"><ele>647.867126</ele><time>2021-07-17T10:47:05Z</time><extensions><speed>0.063834</speed><course>293.198639</course><hAcc>0.892807</hAcc><vAcc>0.728025</vAcc></extensions></trkpt>
      <trkpt lon="-4.135755" lat="53.002837"><ele>647.906250</ele><time>2021-07-17T10:47:06Z</time><extensions><speed>0.066593</speed><course>297.953094</course><hAcc>0.892797</hAcc><vAcc>0.727962</vAcc></extensions></trkpt>
      <trkpt lon="-4.135754" lat="53.002836"><ele>647.945312</ele><time>2021-07-17T10:47:07Z</time><extensions><speed>0.067365</speed><course>294.998413</course><hAcc>0.892800</hAcc><vAcc>0.727955</vAcc></extensions></trkpt>
      <trkpt lon="-4.135754" lat="53.002836"><ele>647.983215</ele><time>2021-07-17T10:47:08Z</time><extensions><speed>0.066429</speed><course>290.333923</course><hAcc>0.892817</hAcc><vAcc>0.728006</vAcc></extensions></trkpt>
      <trkpt lon="-4.135753" lat="53.002836"><ele>648.019104</ele><time>2021-07-17T10:47:09Z</time><extensions><speed>0.063863</speed><course>297.336884</course><hAcc>0.892847</hAcc><vAcc>0.728117</vAcc></extensions></trkpt>
      <trkpt lon="-4.135752" lat="53.002835"><ele>648.052368</ele><time>2021-07-17T10:47:10Z</time><extensions><speed>0.059661</speed><course>291.763641</course><hAcc>0.892888</hAcc><vAcc>0.728283</vAcc></extensions></trkpt>
      <trkpt lon="-4.135752" lat="53.002835"><ele>648.082825</ele><time>2021-07-17T10:47:11Z</time><extensions><speed>0.053826</speed><course>293.588959</course><hAcc>0.892941</hAcc><vAcc>0.728493</vAcc></extensions></trkpt>
      <trkpt lon="-4.135751" lat="53.002834"><ele>648.110229</ele><time>2021-07-17T10:47:12Z</time><extensions><speed>0.046693</speed><course>298.534668</course><hAcc>0.893002</hAcc><vAcc>0.728737</vAcc></extensions></trkpt>
      <trkpt lon="-4.135751" lat="53.002834"><ele>648.134521</ele><time>2021-07-17T10:47:13Z</time><extensions><speed>0.039047</speed><course>294.834351</course><hAcc>0.893070</hAcc><vAcc>0.729002</vAcc></extensions></trkpt>
      <trkpt lon="-4.135751" lat="53.002834"><ele>648.155579</ele><time>2021-07-17T10:47:14Z</time><extensions><speed>0.031876</speed><course>297.698059</course><hAcc>0.893142</hAcc><vAcc>0.729275</vAcc></extensions></trkpt>
      <trkpt lon="-4.135751" lat="53.002834"><ele>648.173401</ele><time>2021-07-17T10:47:15Z</time><extensions><speed>0.026330</speed><course>298.511444</course><hAcc>0.893216</hAcc><vAcc>0.729546</vAcc></extensions></trkpt>
      <trkpt lon="-4.135751" lat="53.002833"><ele>648.187927</ele><time>2021-07-17T10:47:16Z</time><extensions><speed>0.023177</speed><course>303.054443</course><hAcc>0.893289</hAcc><vAcc>0.729804</vAcc></extensions></trkpt>
      <trkpt lon="-4.135751" lat="53.002833"><ele>648.198975</ele><time>2021-07-17T10:47:17Z</time><extensions><speed>0.022460</speed><course>300.594757</course><hAcc>0.893359</hAcc><vAcc>0.730043</vAcc></extensions></trkpt>
      <trkpt lon="-4.135751" lat="53.002833"><ele>648.206482</ele><time>2021-07-17T10:47:18Z</time><extensions><speed>0.023549</speed><course>303.489990</course><hAcc>0.893423</hAcc><vAcc>0.730258</vAcc></extensions></trkpt>
      <trkpt lon="-4.135751" lat="53.002833"><ele>648.210693</ele><time>2021-07-17T10:47:19Z</time><extensions><speed>0.025410</speed><course>307.296783</course><hAcc>0.893480</hAcc><vAcc>0.730445</vAcc></extensions></trkpt>
      <trkpt lon="-4.135751" lat="53.002833"><ele>648.211731</ele><time>2021-07-17T10:47:20Z</time><extensions><speed>0.027073</speed><course>306.846466</course><hAcc>0.893527</hAcc><vAcc>0.730604</vAcc></extensions></trkpt>
      <trkpt lon="-4.135752" lat="53.002833"><ele>648.210022</ele><time>2021-07-17T10:47:21Z</time><extensions><speed>0.028061</speed><course>314.303711</course><hAcc>0.893565</hAcc><vAcc>0.730732</vAcc></extensions></trkpt>
      <trkpt lon="-4.135752" lat="53.002832"><ele>648.206177</ele><time>2021-07-17T10:47:22Z</time><extensions><speed>0.028251</speed><course>316.753265</course><hAcc>0.893593</hAcc><vAcc>0.730830</vAcc></extensions></trkpt>
      <trkpt lon="-4.135753" lat="53.002832"><ele>648.200928</ele><time>2021-07-17T10:47:23Z</time><extensions><speed>0.027552</speed><course>312.101562</course><hAcc>0.893613</hAcc><vAcc>0.730894</vAcc></extensions></trkpt>
      <trkpt lon="-4.135753" lat="53.002832"><ele>648.195068</ele><time>2021-07-17T10:47:24Z</time><extensions><speed>0.025989</speed><course>310.983948</course><hAcc>0.893625</hAcc><vAcc>0.730926</vAcc></extensions></trkpt>
      <trkpt lon="-4.135753" lat="53.002832"><ele>648.189392</ele><time>2021-07-17T10:47:25Z</time><extensions><speed>0.023712</speed><course>316.824890</course><hAcc>0.893632</hAcc><vAcc>0.730926</vAcc></extensions></trkpt>
      <trkpt lon="-4.135754" lat="53.002832"><ele>648.184692</ele><time>2021-07-17T10:47:26Z</time><extensions><speed>0.020715</speed><course>324.005005</course><hAcc>0.893637</hAcc><vAcc>0.730901</vAcc></extensions></trkpt>
      <trkpt lon="-4.135754" lat="53.002832"><ele>648.181946</ele><time>2021-07-17T10:47:27Z</time><extensions><speed>0.017256</speed><course>322.091736</course><hAcc>0.893641</hAcc><vAcc>0.730861</vAcc></extensions></trkpt>
      <trkpt lon="-4.135754" lat="53.002832"><ele>648.182068</ele><time>2021-07-17T10:47:28Z</time><extensions><speed>0.013919</speed><course>322.830170</course><hAcc>0.893648</hAcc><vAcc>0.730823</vAcc></extensions></trkpt>
      <trkpt lon="-4.135754" lat="53.002832"><ele>648.186218</ele><time>2021-07-17T10:47:29Z</time><extensions><speed>0.011308</speed><course>325.823517</course><hAcc>0.893658</hAcc><vAcc>0.730799</vAcc></extensions></trkpt>
      <trkpt lon="-4.135754" lat="53.002832"><ele>648.195312</ele><time>2021-07-17T10:47:30Z</time><extensions><speed>0.009979</speed><course>331.853210</course><hAcc>0.893676</hAcc><vAcc>0.730803</vAcc></extensions></trkpt>
      <trkpt lon="-4.135754" lat="53.002832"><ele>648.210144</ele><time>2021-07-17T10:47:31Z</time><extensions><speed>0.010380</speed><course>331.260956</course><hAcc>0.893702</hAcc><vAcc>0.730847</vAcc></extensions></trkpt>
      <trkpt lon="-4.135755" lat="53.002832"><ele>648.231506</ele><time>2021-07-17T10:47:32Z</time><extensions><speed>0.012574</speed><course>329.072571</course><hAcc>0.893738</hAcc><vAcc>0.730940</vAcc></extensions></trkpt>
      <trkpt lon="-4.135755" lat="53.002832"><ele>648.259888</ele><time>2021-07-17T10:47:33Z</time><extensions><speed>0.016018</speed><course>325.473938</course><hAcc>0.893785</hAcc><vAcc>0.731087</vAcc></extensions></trkpt>
      <trkpt lon="-4.135754" lat="53.002833"><ele>648.295410</ele><time>2021-07-17T10:47:34Z</time><extensions><speed>0.020085</speed><course>325.383026</course><hAcc>0.893842</hAcc><vAcc>0.731292</vAcc></extensions></trkpt>
      <trkpt lon="-4.135754" lat="53.002833"><ele>648.337830</ele><time>2021-07-17T10:47:35Z</time><extensions><speed>0.024453</speed><course>325.061401</course><hAcc>0.893908</hAcc><vAcc>0.731549</vAcc></extensions></trkpt>
      <trkpt lon="-4.135754" lat="53.002833"><ele>648.386230</ele><time>2021-07-17T10:47:36Z</time><extensions><speed>0.029136</speed><course>325.207275</course><hAcc>0.893981</hAcc><vAcc>0.731846</vAcc></extensions></trkpt>
      <trkpt lon="-4.135754" lat="53.002833"><ele>648.439331</ele><time>2021-07-17T10:47:37Z</time><extensions><speed>0.034287</speed><course>322.410889</course><hAcc>0.894060</hAcc><vAcc>0.732168</vAcc></extensions></trkpt>
      <trkpt lon="-4.135754" lat="53.002834"><ele>648.495544</ele><time>2021-07-17T10:47:38Z</time><extensions><speed>0.040111</speed><course>319.218658</course><hAcc>0.894142</hAcc><vAcc>0.732498</vAcc></extensions></trkpt>
      <trkpt lon="-4.135754" lat="53.002834"><ele>648.553223</ele><time>2021-07-17T10:47:39Z</time><extensions><speed>0.046702</speed><course>319.790588</course><hAcc>0.894224</hAcc><vAcc>0.732821</vAcc></extensions></trkpt>
      <trkpt lon="-4.135754" lat="53.002835"><ele>648.610840</ele><time>2021-07-17T10:47:40Z</time><extensions><speed>0.053908</speed><course>318.972229</course><hAcc>0.894304</hAcc><vAcc>0.733122</vAcc></extensions></trkpt>
      <trkpt lon="-4.135755" lat="53.002835"><ele>648.666992</ele><time>2021-07-17T10:47:41Z</time><extensions><speed>0.061367</speed><course>320.354065</course><hAcc>0.894380</hAcc><vAcc>0.733391</vAcc></extensions></trkpt>
      <trkpt lon="-4.135755" lat="53.002836"><ele>648.720764</ele><time>2021-07-17T10:47:42Z</time><extensions><speed>0.068645</speed><course>320.541016</course><hAcc>0.894448</hAcc><vAcc>0.733621</vAcc></extensions></trkpt>
      <trkpt lon="-4.135755" lat="53.002836"><ele>648.771179</ele><time>2021-07-17T10:47:43Z</time><extensions><speed>0.075301</speed><course>317.906189</course><hAcc>0.894508</hAcc><vAcc>0.733808</vAcc></extensions></trkpt>
      <trkpt lon="-4.135756" lat="53.002837"><ele>648.817627</ele><time>2021-07-17T10:47:44Z</time><extensions><speed>0.080949</speed><course>316.077393</course><hAcc>0.894559</hAcc><vAcc>0.733951</vAcc></extensions></trkpt>
      <trkpt lon="-4.135756" lat="53.002838"><ele>648.859680</ele><time>2021-07-17T10:47:45Z</time><extensions><speed>0.085442</speed><course>307.356537</course><hAcc>0.894600</hAcc><vAcc>0.734054</vAcc></extensions></trkpt>
      <trkpt lon="-4.135757" lat="53.002838"><ele>648.896973</ele><time>2021-07-17T10:47:46Z</time><extensions><speed>0.088831</speed><course>302.004150</course><hAcc>0.894632</hAcc><vAcc>0.734124</vAcc></extensions></trkpt>
      <trkpt lon="-4.135757" lat="53.002839"><ele>648.929199</ele><time>2021-07-17T10:47:47Z</time><extensions><speed>0.091195</speed><course>310.520874</course><hAcc>0.894654</hAcc><vAcc>0.734166</vAcc></extensions></trkpt>
      <trkpt lon="-4.135758" lat="53.002840"><ele>648.956421</ele><time>2021-07-17T10:47:48Z</time><extensions><speed>0.092579</speed><course>307.778412</course><hAcc>0.894670</hAcc><vAcc>0.734188</vAcc></extensions></trkpt>
      <trkpt lon="-4.135758" lat="53.002841"><ele>648.978699</ele><time>2021-07-17T10:47:49Z</time><extensions><speed>0.093060</speed><course>310.132080</course><hAcc>0.894680</hAcc><vAcc>0.734192</vAcc></extensions></trkpt>
      <trkpt lon="-4.135759" lat="53.002841"><ele>648.996277</ele><time>2021-07-17T10:47:50Z</time><extensions><speed>0.092784</speed><course>310.327301</course><hAcc>0.894687</hAcc><vAcc>0.734183</vAcc></extensions></trkpt>
      <trkpt lon="-4.135759" lat="53.002842"><ele>649.009705</ele><time>2021-07-17T10:47:51Z</time><extensions><speed>0.091733</speed><course>308.925873</course><hAcc>0.894693</hAcc><vAcc>0.734165</vAcc></extensions></trkpt>
      <trkpt lon="-4.135760" lat="53.002843"><ele>649.019714</ele><time>2021-07-17T10:47:52Z</time><extensions><speed>0.089722</speed><course>308.955322</course><hAcc>0.894700</hAcc><vAcc>0.734144</vAcc></extensions></trkpt>
      <trkpt lon="-4.135760" lat="53.002844"><ele>649.027161</ele><time>2021-07-17T10:47:53Z</time><extensions><speed>0.086460</speed><course>303.152588</course><hAcc>0.894708</hAcc><vAcc>0.734129</vAcc></extensions></trkpt>
      <trkpt lon="-4.135761" lat="53.002844"><ele>649.032898</ele><time>2021-07-17T10:47:54Z</time><extensions><speed>0.081698</speed><course>313.156525</course><hAcc>0.894716</hAcc><vAcc>0.734128</vAcc></extensions></trkpt>
      <trkpt lon="-4.135761" lat="53.002845"><ele>649.037781</ele><time>2021-07-17T10:47:55Z</time><extensions><speed>0.075420</speed><course>307.864197</course><hAcc>0.894724</hAcc><vAcc>0.734149</vAcc></extensions></trkpt>
      <trkpt lon="-4.135762" lat="53.002846"><ele>649.042542</ele><time>2021-07-17T10:47:56Z</time><extensions><speed>0.067854</speed><course>309.541687</course><hAcc>0.894731</hAcc><vAcc>0.734192</vAcc></extensions></trkpt>
      <trkpt lon="-4.135762" lat="53.002846"><ele>649.047852</ele><time>2021-07-17T10:47:57Z</time><extensions><speed>0.059463</speed><course>312.130341</course><hAcc>0.894737</hAcc><vAcc>0.734253</vAcc></extensions></trkpt>
      <trkpt lon="-4.135762" lat="53.002847"><ele>649.054138</ele><time>2021-07-17T10:47:58Z</time><extensions><speed>0.050898</speed><course>310.268982</course><hAcc>0.894743</hAcc><vAcc>0.734325</vAcc></extensions></trkpt>
      <trkpt lon="-4.135762" lat="53.002847"><ele>649.061646</ele><time>2021-07-17T10:47:59Z</time><extensions><speed>0.042826</speed><course>308.247070</course><hAcc>0.894752</hAcc><vAcc>0.734402</vAcc></extensions></trkpt>
      <trkpt lon="-4.135762" lat="53.002847"><ele>649.070679</ele><time>2021-07-17T10:48:00Z</time><extensions><speed>0.035972</speed><course>304.229858</course><hAcc>0.894768</hAcc><vAcc>0.734477</vAcc></extensions></trkpt>
      <trkpt lon="-4.135762" lat="53.002848"><ele>649.080933</ele><time>2021-07-17T10:48:01Z</time><extensions><speed>0.031026</speed><course>308.310059</course><hAcc>0.894801</hAcc><vAcc>0.734547</vAcc></extensions></trkpt>
      <trkpt lon="-4.135762" lat="53.002848"><ele>649.092163</ele><time>2021-07-17T10:48:02Z</time><extensions><speed>0.028143</speed><course>311.142822</course><hAcc>0.894864</hAcc><vAcc>0.734613</vAcc></extensions></trkpt>
      <trkpt lon="-4.135761" lat="53.002848"><ele>649.103821</ele><time>2021-07-17T10:48:03Z</time><extensions><speed>0.026631</speed><course>305.518036</course><hAcc>0.894976</hAcc><vAcc>0.734689</vAcc></extensions></trkpt>
      <trkpt lon="-4.135761" lat="53.002848"><ele>649.115356</ele><time>2021-07-17T10:48:04Z</time><extensions><speed>0.025474</speed><course>303.061462</course><hAcc>0.895161</hAcc><vAcc>0.734801</vAcc></extensions></trkpt>
      <trkpt lon="-4.135761" lat="53.002848"><ele>649.126526</ele><time>2021-07-17T10:48:05Z</time><extensions><speed>0.024150</speed><course>298.232086</course><hAcc>0.895447</hAcc><vAcc>0.734984</vAcc></extensions></trkpt>
      <trkpt lon="-4.135760" lat="53.002848"><ele>649.136963</ele><time>2021-07-17T10:48:06Z</time><extensions><speed>0.022538</speed><course>289.358276</course><hAcc>0.895871</hAcc><vAcc>0.735283</vAcc></extensions></trkpt>
      <trkpt lon="-4.135760" lat="53.002848"><ele>649.146484</ele><time>2021-07-17T10:48:07Z</time><extensions><speed>0.020661</speed><course>285.924469</course><hAcc>0.896469</hAcc><vAcc>0.735741</vAcc></extensions></trkpt>
      <trkpt lon="-4.135760" lat="53.002848"><ele>649.155090</ele><time>2021-07-17T10:48:08Z</time><extensions><speed>0.018609</speed><course>280.520447</course><hAcc>0.897281</hAcc><vAcc>0.736392</vAcc></extensions></trkpt>
      <trkpt lon="-4.135759" lat="53.002848"><ele>649.162659</ele><time>2021-07-17T10:48:09Z</time><extensions><speed>0.016486</speed><course>286.862061</course><hAcc>0.898340</hAcc><vAcc>0.737251</vAcc></extensions></trkpt>
      <trkpt lon="-4.135759" lat="53.002848"><ele>649.169189</ele><time>2021-07-17T10:48:10Z</time><extensions><speed>0.014389</speed><course>295.700317</course><hAcc>0.899667</hAcc><vAcc>0.738314</vAcc></extensions></trkpt>
      <trkpt lon="-4.135759" lat="53.002848"><ele>649.174744</ele><time>2021-07-17T10:48:11Z</time><extensions><speed>0.012396</speed><course>296.161560</course><hAcc>0.901261</hAcc><vAcc>0.739544</vAcc></extensions></trkpt>
      <trkpt lon="-4.135759" lat="53.002848"><ele>649.179260</ele><time>2021-07-17T10:48:12Z</time><extensions><speed>0.010566</speed><course>298.229218</course><hAcc>0.903085</hAcc><vAcc>0.740872</vAcc></extensions></trkpt>
      <trkpt lon="-4.135759" lat="53.002848"><ele>649.182983</ele><time>2021-07-17T10:48:13Z</time><extensions><speed>0.008935</speed><course>297.545471</course><hAcc>0.905062</hAcc><vAcc>0.742190</vAcc></extensions></trkpt>
      <trkpt lon="-4.135759" lat="53.002848"><ele>649.185852</ele><time>2021-07-17T10:48:14Z</time><extensions><speed>0.007524</speed><course>292.454163</course><hAcc>0.907064</hAcc><vAcc>0.743366</vAcc></extensions></trkpt>
      <trkpt lon="-4.135759" lat="53.002848"><ele>649.187988</ele><time>2021-07-17T10:48:15Z</time><extensions><speed>0.006336</speed><course>287.195465</course><hAcc>0.908922</hAcc><vAcc>0.744255</vAcc></extensions></trkpt>
      <trkpt lon="-4.135758" lat="53.002848"><ele>649.189514</ele><time>2021-07-17T10:48:16Z</time><extensions><speed>0.005364</speed><course>283.339600</course><hAcc>0.910449</hAcc><vAcc>0.744747</vAcc></extensions></trkpt>
      <trkpt lon="-4.135758" lat="53.002848"><ele>649.190491</ele><time>2021-07-17T10:48:17Z</time><extensions><speed>0.004589</speed><course>283.687531</course><hAcc>0.911493</hAcc><vAcc>0.744826</vAcc></extensions></trkpt>
      <trkpt lon="-4.135758" lat="53.002848"><ele>649.190979</ele><time>2021-07-17T10:48:18Z</time><extensions><speed>0.003984</speed><course>284.089417</course><hAcc>0.912037</hAcc><vAcc>0.744676</vAcc></extensions></trkpt>
      <trkpt lon="-4.135758" lat="53.002848"><ele>649.191162</ele><time>2021-07-17T10:48:19Z</time><extensions><speed>0.003520</speed><course>286.432800</course><hAcc>0.912372</hAcc><vAcc>0.744827</vAcc></extensions></trkpt>
      <trkpt lon="-4.135758" lat="53.002848"><ele>649.190979</ele><time>2021-07-17T10:48:20Z</time><extensions><speed>0.003165</speed><course>288.844025</course><hAcc>0.913343</hAcc><vAcc>0.746343</vAcc></extensions></trkpt>
      <trkpt lon="-4.135758" lat="53.002848"><ele>649.190552</ele><time>2021-07-17T10:48:21Z</time><extensions><speed>0.002893</speed><course>294.600861</course><hAcc>0.916708</hAcc><vAcc>0.751061</vAcc></extensions></trkpt>
      <trkpt lon="-4.135758" lat="53.002848"><ele>649.189941</ele><time>2021-07-17T10:48:22Z</time><extensions><speed>0.002681</speed><course>289.399475</course><hAcc>0.925561</hAcc><vAcc>0.761805</vAcc></extensions></trkpt>
      <trkpt lon="-4.135758" lat="53.002848"><ele>649.189209</ele><time>2021-07-17T10:48:23Z</time><extensions><speed>0.002515</speed><course>292.462738</course><hAcc>0.944725</hAcc><vAcc>0.782495</vAcc></extensions></trkpt>
      <trkpt lon="-4.135758" lat="53.002848"><ele>649.188416</ele><time>2021-07-17T10:48:24Z</time><extensions><speed>0.002386</speed><course>292.044128</course><hAcc>0.980865</hAcc><vAcc>0.817973</vAcc></extensions></trkpt>
      <trkpt lon="-4.135759" lat="53.002848"><ele>649.182617</ele><time>2021-07-17T10:48:24Z</time><extensions><speed>0.000000</speed><course>207.637573</course><hAcc>0.942646</hAcc><vAcc>0.782151</vAcc></extensions></trkpt>
      <trkpt lon="-4.135759" lat="53.002848"><ele>649.182617</ele><time>2021-07-17T10:48:25Z</time><extensions><speed>0.000000</speed><course>199.781464</course><hAcc>0.923079</hAcc><vAcc>0.760744</vAcc></extensions></trkpt>
      <trkpt lon="-4.135759" lat="53.002848"><ele>649.182617</ele><time>2021-07-17T10:48:26Z</time><extensions><speed>0.000000</speed><course>204.898392</course><hAcc>0.915174</hAcc><vAcc>0.750468</vAcc></extensions></trkpt>
      <trkpt lon="-4.135759" lat="53.002848"><ele>649.182617</ele><time>2021-07-17T10:48:27Z</time><extensions><speed>0.000000</speed><course>218.988647</course><hAcc>0.913458</hAcc><vAcc>0.746970</vAcc></extensions></trkpt>
      <trkpt lon="-4.135759" lat="53.002848"><ele>649.182617</ele><time>2021-07-17T10:48:29Z</time><extensions><speed>0.000000</speed><course>240.875916</course><hAcc>0.914419</hAcc><vAcc>0.747080</vAcc></extensions></trkpt>
      <trkpt lon="-4.135759" lat="53.002848"><ele>649.182617</ele><time>2021-07-17T10:48:30Z</time><extensions><speed>0.000000</speed><course>240.875916</course><hAcc>0.916096</hAcc><vAcc>0.748739</vAcc></extensions></trkpt>
      <trkpt lon="-4.135759" lat="53.002848"><ele>649.182617</ele><time>2021-07-17T10:48:31Z</time><extensions><speed>0.000000</speed><course>240.875916</course><hAcc>0.917584</hAcc><vAcc>0.750749</vAcc></extensions></trkpt>
      <trkpt lon="-4.135759" lat="53.002848"><ele>649.182617</ele><time>2021-07-17T10:48:32Z</time><extensions><speed>0.000000</speed><course>240.875916</course><hAcc>0.918580</hAcc><vAcc>0.752483</vAcc></extensions></trkpt>
      <trkpt lon="-4.135759" lat="53.002848"><ele>649.182617</ele><time>2021-07-17T10:48:32Z</time><extensions><speed>0.000000</speed><course>240.875916</course><hAcc>0.919109</hAcc><vAcc>0.753684</vAcc></extensions></trkpt>
      <trkpt lon="-4.135759" lat="53.002848"><ele>649.182617</ele><time>2021-07-17T10:48:33Z</time><extensions><speed>0.000000</speed><course>240.875916</course><hAcc>0.919292</hAcc><vAcc>0.754272</vAcc></extensions></trkpt>
      <trkpt lon="-4.135759" lat="53.002848"><ele>649.182617</ele><time>2021-07-17T10:48:34Z</time><extensions><speed>0.000000</speed><course>269.430084</course><hAcc>0.919220</hAcc><vAcc>0.754236</vAcc></extensions></trkpt>
      <trkpt lon="-4.135759" lat="53.002848"><ele>649.182617</ele><time>2021-07-17T10:48:35Z</time><extensions><speed>0.000000</speed><course>274.056000</course><hAcc>0.918938</hAcc><vAcc>0.753604</vAcc></extensions></trkpt>
      <trkpt lon="-4.135759" lat="53.002848"><ele>649.182617</ele><time>2021-07-17T10:48:37Z</time><extensions><speed>0.000000</speed><course>273.580658</course><hAcc>0.918398</hAcc><vAcc>0.752418</vAcc></extensions></trkpt>
      <trkpt lon="-4.135759" lat="53.002848"><ele>649.182617</ele><time>2021-07-17T10:48:38Z</time><extensions><speed>0.000000</speed><course>266.285736</course><hAcc>0.917552</hAcc><vAcc>0.750799</vAcc></extensions></trkpt>
      <trkpt lon="-4.135759" lat="53.002848"><ele>649.182617</ele><time>2021-07-17T10:48:38Z</time><extensions><speed>0.000000</speed><course>280.416809</course><hAcc>0.916473</hAcc><vAcc>0.749053</vAcc></extensions></trkpt>
      <trkpt lon="-4.135759" lat="53.002848"><ele>649.182617</ele><time>2021-07-17T10:48:39Z</time><extensions><speed>0.000000</speed><course>289.633057</course><hAcc>0.915459</hAcc><vAcc>0.747760</vAcc></extensions></trkpt>
      <trkpt lon="-4.135759" lat="53.002848"><ele>649.182617</ele><time>2021-07-17T10:48:40Z</time><extensions><speed>0.000000</speed><course>274.042023</course><hAcc>0.915327</hAcc><vAcc>0.748005</vAcc></extensions></trkpt>
      <trkpt lon="-4.135759" lat="53.002848"><ele>649.182617</ele><time>2021-07-17T10:48:41Z</time><extensions><speed>0.000000</speed><course>259.398621</course><hAcc>0.917810</hAcc><vAcc>0.751629</vAcc></extensions></trkpt>
      <trkpt lon="-4.135759" lat="53.002848"><ele>649.182617</ele><time>2021-07-17T10:48:42Z</time><extensions><speed>0.000000</speed><course>235.228027</course><hAcc>0.925972</hAcc><vAcc>0.761452</vAcc></extensions></trkpt>
      <trkpt lon="-4.135759" lat="53.002848"><ele>649.182617</ele><time>2021-07-17T10:48:43Z</time><extensions><speed>0.000000</speed><course>233.943741</course><hAcc>0.944612</hAcc><vAcc>0.781383</vAcc></extensions></trkpt>
      <trkpt lon="-4.135759" lat="53.002848"><ele>649.182617</ele><time>2021-07-17T10:48:44Z</time><extensions><speed>0.000000</speed><course>251.986771</course><hAcc>0.980376</hAcc><vAcc>0.816258</vAcc></extensions></trkpt>
      <trkpt lon="-4.135759" lat="53.002848"><ele>649.182556</ele><time>2021-07-17T10:48:45Z</time><extensions><speed>0.001439</speed><course>207.637573</course><hAcc>0.941460</hAcc><vAcc>0.779500</vAcc></extensions></trkpt>
      <trkpt lon="-4.135759" lat="53.002848"><ele>649.184082</ele><time>2021-07-17T10:48:46Z</time><extensions><speed>0.001542</speed><course>199.781464</course><hAcc>0.921589</hAcc><vAcc>0.757788</vAcc></extensions></trkpt>
      <trkpt lon="-4.135759" lat="53.002848"><ele>649.185730</ele><time>2021-07-17T10:48:47Z</time><extensions><speed>0.001664</speed><course>204.898392</course><hAcc>0.913183</hAcc><vAcc>0.746973</vAcc></extensions></trkpt>
      <trkpt lon="-4.135759" lat="53.002848"><ele>649.187561</ele><time>2021-07-17T10:48:48Z</time><extensions><speed>0.001801</speed><course>218.988647</course><hAcc>0.910745</hAcc><vAcc>0.742701</vAcc></extensions></trkpt>
      <trkpt lon="-4.135759" lat="53.002848"><ele>649.189636</ele><time>2021-07-17T10:48:49Z</time><extensions><speed>0.001948</speed><course>240.875916</course><hAcc>0.910759</hAcc><vAcc>0.741820</vAcc></extensions></trkpt>
      <trkpt lon="-4.135759" lat="53.002848"><ele>649.191833</ele><time>2021-07-17T10:48:50Z</time><extensions><speed>0.002097</speed><course>240.875916</course><hAcc>0.911248</hAcc><vAcc>0.742288</vAcc></extensions></trkpt>
      <trkpt lon="-4.135759" lat="53.002848"><ele>649.194336</ele><time>2021-07-17T10:48:51Z</time><extensions><speed>0.002239</speed><course>240.875916</course><hAcc>0.911282</hAcc><vAcc>0.742922</vAcc></extensions></trkpt>
      <trkpt lon="-4.135759" lat="53.002848"><ele>649.197083</ele><time>2021-07-17T10:48:52Z</time><extensions><speed>0.002361</speed><course>240.875916</course><hAcc>0.910567</hAcc><vAcc>0.743138</vAcc></extensions></trkpt>
      <trkpt lon="-4.135759" lat="53.002848"><ele>649.200012</ele><time>2021-07-17T10:48:53Z</time><extensions><speed>0.002450</speed><course>240.875916</course><hAcc>0.909154</hAcc><vAcc>0.742742</vAcc></extensions></trkpt>
      <trkpt lon="-4.135759" lat="53.002848"><ele>649.203186</ele><time>2021-07-17T10:48:54Z</time><extensions><speed>0.002490</speed><course>240.875916</course><hAcc>0.907247</hAcc><vAcc>0.741758</vAcc></extensions></trkpt>
      <trkpt lon="-4.135759" lat="53.002848"><ele>649.206482</ele><time>2021-07-17T10:48:55Z</time><extensions><speed>0.002464</speed><course>269.430084</course><hAcc>0.905084</hAcc><vAcc>0.740321</vAcc></extensions></trkpt>
      <trkpt lon="-4.135759" lat="53.002848"><ele>649.209839</ele><time>2021-07-17T10:48:56Z</time><extensions><speed>0.002355</speed><course>274.056000</course><hAcc>0.902879</hAcc><vAcc>0.738608</vAcc></extensions></trkpt>
      <trkpt lon="-4.135759" lat="53.002848"><ele>649.213196</ele><time>2021-07-17T10:48:57Z</time><extensions><speed>0.002150</speed><course>273.580658</course><hAcc>0.900794</hAcc><vAcc>0.736788</vAcc></extensions></trkpt>
      <trkpt lon="-4.135758" lat="53.002848"><ele>649.216431</ele><time>2021-07-17T10:48:58Z</time><extensions><speed>0.001855</speed><course>266.285736</course><hAcc>0.898934</hAcc><vAcc>0.735003</vAcc></extensions></trkpt>
      <trkpt lon="-4.135758" lat="53.002848"><ele>649.219360</ele><time>2021-07-17T10:48:59Z</time><extensions><speed>0.001535</speed><course>280.416809</course><hAcc>0.897352</hAcc><vAcc>0.733358</vAcc></extensions></trkpt>
      <trkpt lon="-4.135758" lat="53.002848"><ele>649.221802</ele><time>2021-07-17T10:49:00Z</time><extensions><speed>0.001437</speed><course>289.633057</course><hAcc>0.896061</hAcc><vAcc>0.731920</vAcc></extensions></trkpt>
      <trkpt lon="-4.135758" lat="53.002848"><ele>649.223511</ele><time>2021-07-17T10:49:01Z</time><extensions><speed>0.001939</speed><course>274.042023</course><hAcc>0.895047</hAcc><vAcc>0.730722</vAcc></extensions></trkpt>
      <trkpt lon="-4.135758" lat="53.002848"><ele>649.224243</ele><time>2021-07-17T10:49:02Z</time><extensions><speed>0.003048</speed><course>259.398621</course><hAcc>0.894279</hAcc><vAcc>0.729770</vAcc></extensions></trkpt>
      <trkpt lon="-4.135758" lat="53.002848"><ele>649.223633</ele><time>2021-07-17T10:49:03Z</time><extensions><speed>0.004621</speed><course>235.228027</course><hAcc>0.893719</hAcc><vAcc>0.729048</vAcc></extensions></trkpt>
      <trkpt lon="-4.135758" lat="53.002848"><ele>649.221313</ele><time>2021-07-17T10:49:04Z</time><extensions><speed>0.006609</speed><course>233.943741</course><hAcc>0.893326</hAcc><vAcc>0.728529</vAcc></extensions></trkpt>
      <trkpt lon="-4.135758" lat="53.002848"><ele>649.216797</ele><time>2021-07-17T10:49:05Z</time><extensions><speed>0.009011</speed><course>251.986771</course><hAcc>0.893062</hAcc><vAcc>0.728179</vAcc></extensions></trkpt>
      <trkpt lon="-4.135758" lat="53.002848"><ele>649.209717</ele><time>2021-07-17T10:49:06Z</time><extensions><speed>0.011835</speed><course>230.632401</course><hAcc>0.892893</hAcc><vAcc>0.727964</vAcc></extensions></trkpt>
      <trkpt lon="-4.135758" lat="53.002848"><ele>649.199585</ele><time>2021-07-17T10:49:07Z</time><extensions><speed>0.015089</speed><course>208.539734</course><hAcc>0.892794</hAcc><vAcc>0.727848</vAcc></extensions></trkpt>
      <trkpt lon="-4.135758" lat="53.002847"><ele>649.185730</ele><time>2021-07-17T10:49:08Z</time><extensions><speed>0.018769</speed><course>217.062653</course><hAcc>0.892740</hAcc><vAcc>0.727801</vAcc></extensions></trkpt>
      <trkpt lon="-4.135758" lat="53.002847"><ele>649.167664</ele><time>2021-07-17T10:49:09Z</time><extensions><speed>0.022856</speed><course>216.480164</course><hAcc>0.892717</hAcc><vAcc>0.727797</vAcc></extensions></trkpt>
      <trkpt lon="-4.135759" lat="53.002847"><ele>649.144836</ele><time>2021-07-17T10:49:10Z</time><extensions><speed>0.027310</speed><course>215.204285</course><hAcc>0.892710</hAcc><vAcc>0.727815</vAcc></extensions></trkpt>
      <trkpt lon="-4.135759" lat="53.002847"><ele>649.116638</ele><time>2021-07-17T10:49:11Z</time><extensions><speed>0.032063</speed><course>192.608246</course><hAcc>0.892712</hAcc><vAcc>0.727841</vAcc></extensions></trkpt>
      <trkpt lon="-4.135759" lat="53.002846"><ele>649.082520</ele><time>2021-07-17T10:49:12Z</time><extensions><speed>0.037015</speed><course>196.818375</course><hAcc>0.892717</hAcc><vAcc>0.727864</vAcc></extensions></trkpt>
      <trkpt lon="-4.135759" lat="53.002846"><ele>649.042114</ele><time>2021-07-17T10:49:13Z</time><extensions><speed>0.042025</speed><course>200.564194</course><hAcc>0.892720</hAcc><vAcc>0.727875</vAcc></extensions></trkpt>
      <trkpt lon="-4.135759" lat="53.002846"><ele>648.994995</ele><time>2021-07-17T10:49:14Z</time><extensions><speed>0.046903</speed><course>224.718231</course><hAcc>0.892721</hAcc><vAcc>0.727870</vAcc></extensions></trkpt>
      <trkpt lon="-4.135759" lat="53.002845"><ele>648.940918</ele><time>2021-07-17T10:49:15Z</time><extensions><speed>0.051406</speed><course>228.969803</course><hAcc>0.892719</hAcc><vAcc>0.727848</vAcc></extensions></trkpt>
      <trkpt lon="-4.135760" lat="53.002845"><ele>648.880005</ele><time>2021-07-17T10:49:16Z</time><extensions><speed>0.055225</speed><course>250.366501</course><hAcc>0.892715</hAcc><vAcc>0.727809</vAcc></extensions></trkpt>
      <trkpt lon="-4.135760" lat="53.002844"><ele>648.812378</ele><time>2021-07-17T10:49:17Z</time><extensions><speed>0.057982</speed><course>-1.000000</course><hAcc>0.892710</hAcc><vAcc>0.727755</vAcc></extensions></trkpt>
      <trkpt lon="-4.135761" lat="53.002844"><ele>648.738525</ele><time>2021-07-17T10:49:19Z</time><extensions><speed>0.059225</speed><course>232.063629</course><hAcc>0.892689</hAcc><vAcc>0.727675</vAcc></extensions></trkpt>
      <trkpt lon="-4.135761" lat="53.002844"><ele>648.659607</ele><time>2021-07-17T10:49:20Z</time><extensions><speed>0.058417</speed><course>232.063614</course><hAcc>0.892651</hAcc><vAcc>0.727574</vAcc></extensions></trkpt>
      <trkpt lon="-4.135761" lat="53.002843"><ele>648.577026</ele><time>2021-07-17T10:49:21Z</time><extensions><speed>0.054963</speed><course>232.063614</course><hAcc>0.892618</hAcc><vAcc>0.727471</vAcc></extensions></trkpt>
      <trkpt lon="-4.135762" lat="53.002843"><ele>648.492493</ele><time>2021-07-17T10:49:22Z</time><extensions><speed>0.048961</speed><course>232.063599</course><hAcc>0.892589</hAcc><vAcc>0.727373</vAcc></extensions></trkpt>
      <trkpt lon="-4.135762" lat="53.002842"><ele>648.407471</ele><time>2021-07-17T10:49:23Z</time><extensions><speed>0.041248</speed><course>232.063599</course><hAcc>0.892563</hAcc><vAcc>0.727288</vAcc></extensions></trkpt>
      <trkpt lon="-4.135763" lat="53.002842"><ele>648.322998</ele><time>2021-07-17T10:49:24Z</time><extensions><speed>0.032718</speed><course>232.063583</course><hAcc>0.892543</hAcc><vAcc>0.727226</vAcc></extensions></trkpt>
      <trkpt lon="-4.135763" lat="53.002842"><ele>648.240051</ele><time>2021-07-17T10:49:25Z</time><extensions><speed>0.024451</speed><course>232.063583</course><hAcc>0.892529</hAcc><vAcc>0.727189</vAcc></extensions></trkpt>
      <trkpt lon="-4.135763" lat="53.002842"><ele>648.159546</ele><time>2021-07-17T10:49:26Z</time><extensions><speed>0.017918</speed><course>248.555511</course><hAcc>0.892522</hAcc><vAcc>0.727176</vAcc></extensions></trkpt>
      <trkpt lon="-4.135764" lat="53.002842"><ele>648.082520</ele><time>2021-07-17T10:49:27Z</time><extensions><speed>0.015160</speed><course>214.727661</course><hAcc>0.892522</hAcc><vAcc>0.727187</vAcc></extensions></trkpt>
      <trkpt lon="-4.135764" lat="53.002842"><ele>648.009705</ele><time>2021-07-17T10:49:28Z</time><extensions><speed>0.017275</speed><course>215.656113</course><hAcc>0.892532</hAcc><vAcc>0.727221</vAcc></extensions></trkpt>
      <trkpt lon="-4.135764" lat="53.002842"><ele>647.942017</ele><time>2021-07-17T10:49:29Z</time><extensions><speed>0.022308</speed><course>205.637772</course><hAcc>0.892552</hAcc><vAcc>0.727281</vAcc></extensions></trkpt>
      <trkpt lon="-4.135764" lat="53.002843"><ele>647.880127</ele><time>2021-07-17T10:49:30Z</time><extensions><speed>0.028232</speed><course>201.575424</course><hAcc>0.892581</hAcc><vAcc>0.727370</vAcc></extensions></trkpt>
      <trkpt lon="-4.135764" lat="53.002843"><ele>647.824768</ele><time>2021-07-17T10:49:31Z</time><extensions><speed>0.034020</speed><course>196.854248</course><hAcc>0.892620</hAcc><vAcc>0.727491</vAcc></extensions></trkpt>
      <trkpt lon="-4.135764" lat="53.002843"><ele>647.776489</ele><time>2021-07-17T10:49:32Z</time><extensions><speed>0.039147</speed><course>198.264053</course><hAcc>0.892669</hAcc><vAcc>0.727645</vAcc></extensions></trkpt>
      <trkpt lon="-4.135763" lat="53.002844"><ele>647.735962</ele><time>2021-07-17T10:49:33Z</time><extensions><speed>0.043332</speed><course>198.636932</course><hAcc>0.892729</hAcc><vAcc>0.727833</vAcc></extensions></trkpt>
      <trkpt lon="-4.135763" lat="53.002844"><ele>647.704041</ele><time>2021-07-17T10:49:34Z</time><extensions><speed>0.046305</speed><course>192.727798</course><hAcc>0.892800</hAcc><vAcc>0.728058</vAcc></extensions></trkpt>
      <trkpt lon="-4.135763" lat="53.002844"><ele>647.681396</ele><time>2021-07-17T10:49:35Z</time><extensions><speed>0.047832</speed><course>184.691818</course><hAcc>0.892881</hAcc><vAcc>0.728320</vAcc></extensions></trkpt>
      <trkpt lon="-4.135762" lat="53.002845"><ele>647.669006</ele><time>2021-07-17T10:49:36Z</time><extensions><speed>0.047638</speed><course>177.917740</course><hAcc>0.892973</hAcc><vAcc>0.728618</vAcc></extensions></trkpt>
      <trkpt lon="-4.135762" lat="53.002845"><ele>647.667725</ele><time>2021-07-17T10:49:37Z</time><extensions><speed>0.045265</speed><course>169.935883</course><hAcc>0.893074</hAcc><vAcc>0.728948</vAcc></extensions></trkpt>
      <trkpt lon="-4.135761" lat="53.002845"><ele>647.678711</ele><time>2021-07-17T10:49:38Z</time><extensions><speed>0.040213</speed><course>168.290512</course><hAcc>0.893185</hAcc><vAcc>0.729306</vAcc></extensions></trkpt>
      <trkpt lon="-4.135761" lat="53.002845"><ele>647.702881</ele><time>2021-07-17T10:49:39Z</time><extensions><speed>0.032142</speed><course>175.847488</course><hAcc>0.893303</hAcc><vAcc>0.729685</vAcc></extensions></trkpt>
      <trkpt lon="-4.135761" lat="53.002845"><ele>647.741516</ele><time>2021-07-17T10:49:40Z</time><extensions><speed>0.021708</speed><course>182.489380</course><hAcc>0.893424</hAcc><vAcc>0.730082</vAcc></extensions></trkpt>
      <trkpt lon="-4.135760" lat="53.002845"><ele>647.795837</ele><time>2021-07-17T10:49:41Z</time><extensions><speed>0.015046</speed><course>193.224472</course><hAcc>0.893543</hAcc><vAcc>0.730490</vAcc></extensions></trkpt>
      <trkpt lon="-4.135760" lat="53.002845"><ele>647.867310</ele><time>2021-07-17T10:49:42Z</time><extensions><speed>0.026067</speed><course>210.457108</course><hAcc>0.893655</hAcc><vAcc>0.730902</vAcc></extensions></trkpt>
      <trkpt lon="-4.135760" lat="53.002845"><ele>647.957825</ele><time>2021-07-17T10:49:43Z</time><extensions><speed>0.047187</speed><course>227.054108</course><hAcc>0.893752</hAcc><vAcc>0.731302</vAcc></extensions></trkpt>
      <trkpt lon="-4.135761" lat="53.002844"><ele>648.069336</ele><time>2021-07-17T10:49:44Z</time><extensions><speed>0.071902</speed><course>247.666534</course><hAcc>0.893825</hAcc><vAcc>0.731669</vAcc></extensions></trkpt>
      <trkpt lon="-4.135762" lat="53.002844"><ele>648.204041</ele><time>2021-07-17T10:49:45Z</time><extensions><speed>0.098140</speed><course>261.197876</course><hAcc>0.893868</hAcc><vAcc>0.731970</vAcc></extensions></trkpt>
      <trkpt lon="-4.135763" lat="53.002843"><ele>648.364197</ele><time>2021-07-17T10:49:46Z</time><extensions><speed>0.124330</speed><course>263.217255</course><hAcc>0.893872</hAcc><vAcc>0.732168</vAcc></extensions></trkpt>
      <trkpt lon="-4.135764" lat="53.002842"><ele>648.552063</ele><time>2021-07-17T10:49:47Z</time><extensions><speed>0.148846</speed><course>271.463165</course><hAcc>0.893831</hAcc><vAcc>0.732222</vAcc></extensions></trkpt>
      <trkpt lon="-4.135765" lat="53.002841"><ele>648.769409</ele><time>2021-07-17T10:49:48Z</time><extensions><speed>0.170156</speed><course>281.991608</course><hAcc>0.893740</hAcc><vAcc>0.732094</vAcc></extensions></trkpt>
      <trkpt lon="-4.135767" lat="53.002840"><ele>649.017334</ele><time>2021-07-17T10:49:49Z</time><extensions><speed>0.186833</speed><course>285.895782</course><hAcc>0.893595</hAcc><vAcc>0.731753</vAcc></extensions></trkpt>
      <trkpt lon="-4.135769" lat="53.002838"><ele>649.295898</ele><time>2021-07-17T10:49:50Z</time><extensions><speed>0.197835</speed><course>287.327179</course><hAcc>0.893396</hAcc><vAcc>0.731177</vAcc></extensions></trkpt>
      <trkpt lon="-4.135771" lat="53.002837"><ele>649.603943</ele><time>2021-07-17T10:49:51Z</time><extensions><speed>0.202782</speed><course>297.396240</course><hAcc>0.893145</hAcc><vAcc>0.730358</vAcc></extensions></trkpt>
      <trkpt lon="-4.135773" lat="53.002836"><ele>649.938660</ele><time>2021-07-17T10:49:52Z</time><extensions><speed>0.201952</speed><course>299.473175</course><hAcc>0.892847</hAcc><vAcc>0.729306</vAcc></extensions></trkpt>
      <trkpt lon="-4.135775" lat="53.002834"><ele>650.295471</ele><time>2021-07-17T10:49:53Z</time><extensions><speed>0.195955</speed><course>297.683289</course><hAcc>0.892509</hAcc><vAcc>0.728047</vAcc></extensions></trkpt>
      <trkpt lon="-4.135776" lat="53.002833"><ele>650.667664</ele><time>2021-07-17T10:49:54Z</time><extensions><speed>0.185691</speed><course>292.365356</course><hAcc>0.892141</hAcc><vAcc>0.726630</vAcc></extensions></trkpt>
      <trkpt lon="-4.135778" lat="53.002831"><ele>651.047058</ele><time>2021-07-17T10:49:55Z</time><extensions><speed>0.172487</speed><course>291.092651</course><hAcc>0.891750</hAcc><vAcc>0.725125</vAcc></extensions></trkpt>
      <trkpt lon="-4.135779" lat="53.002830"><ele>651.425598</ele><time>2021-07-17T10:49:56Z</time><extensions><speed>0.157853</speed><course>297.007721</course><hAcc>0.891348</hAcc><vAcc>0.723600</vAcc></extensions></trkpt>
      <trkpt lon="-4.135780" lat="53.002829"><ele>651.796265</ele><time>2021-07-17T10:49:57Z</time><extensions><speed>0.143668</speed><course>291.539093</course><hAcc>0.890945</hAcc><vAcc>0.722116</vAcc></extensions></trkpt>
      <trkpt lon="-4.135781" lat="53.002828"><ele>652.153442</ele><time>2021-07-17T10:49:58Z</time><extensions><speed>0.131695</speed><course>293.314819</course><hAcc>0.890555</hAcc><vAcc>0.720721</vAcc></extensions></trkpt>
      <trkpt lon="-4.135782" lat="53.002827"><ele>652.493103</ele><time>2021-07-17T10:49:59Z</time><extensions><speed>0.123152</speed><course>297.043213</course><hAcc>0.890188</hAcc><vAcc>0.719452</vAcc></extensions></trkpt>
      <trkpt lon="-4.135783" lat="53.002826"><ele>652.812439</ele><time>2021-07-17T10:50:00Z</time><extensions><speed>0.118881</speed><course>301.573547</course><hAcc>0.889854</hAcc><vAcc>0.718333</vAcc></extensions></trkpt>
      <trkpt lon="-4.135784" lat="53.002825"><ele>653.110291</ele><time>2021-07-17T10:50:01Z</time><extensions><speed>0.119465</speed><course>305.542847</course><hAcc>0.889560</hAcc><vAcc>0.717381</vAcc></extensions></trkpt>
      <trkpt lon="-4.135785" lat="53.002824"><ele>653.386414</ele><time>2021-07-17T10:50:02Z</time><extensions><speed>0.125358</speed><course>304.461029</course><hAcc>0.889313</hAcc><vAcc>0.716599</vAcc></extensions></trkpt>
      <trkpt lon="-4.135786" lat="53.002823"><ele>653.641602</ele><time>2021-07-17T10:50:03Z</time><extensions><speed>0.136944</speed><course>304.519958</course><hAcc>0.889114</hAcc><vAcc>0.715985</vAcc></extensions></trkpt>
      <trkpt lon="-4.135787" lat="53.002822"><ele>653.877319</ele><time>2021-07-17T10:50:04Z</time><extensions><speed>0.154405</speed><course>306.835541</course><hAcc>0.888963</hAcc><vAcc>0.715535</vAcc></extensions></trkpt>
      <trkpt lon="-4.135789" lat="53.002821"><ele>654.095581</ele><time>2021-07-17T10:50:05Z</time><extensions><speed>0.177519</speed><course>312.924469</course><hAcc>0.888860</hAcc><vAcc>0.715240</vAcc></extensions></trkpt>
      <trkpt lon="-4.135790" lat="53.002819"><ele>654.298950</ele><time>2021-07-17T10:50:06Z</time><extensions><speed>0.205728</speed><course>313.121582</course><hAcc>0.888801</hAcc><vAcc>0.715090</vAcc></extensions></trkpt>
      <trkpt lon="-4.135791" lat="53.002818"><ele>654.489929</ele><time>2021-07-17T10:50:07Z</time><extensions><speed>0.238177</speed><course>312.363678</course><hAcc>0.888781</hAcc><vAcc>0.715075</vAcc></extensions></trkpt>
      <trkpt lon="-4.135793" lat="53.002815"><ele>654.670898</ele><time>2021-07-17T10:50:08Z</time><extensions><speed>0.273483</speed><course>309.905548</course><hAcc>0.888794</hAcc><vAcc>0.715183</vAcc></extensions></trkpt>
      <trkpt lon="-4.135795" lat="53.002813"><ele>654.843933</ele><time>2021-07-17T10:50:09Z</time><extensions><speed>0.309752</speed><course>308.597687</course><hAcc>0.888834</hAcc><vAcc>0.715392</vAcc></extensions></trkpt>
      <trkpt lon="-4.135797" lat="53.002810"><ele>655.010559</ele><time>2021-07-17T10:50:10Z</time><extensions><speed>0.345007</speed><course>307.103394</course><hAcc>0.888894</hAcc><vAcc>0.715674</vAcc></extensions></trkpt>
      <trkpt lon="-4.135799" lat="53.002807"><ele>655.171570</ele><time>2021-07-17T10:50:11Z</time><extensions><speed>0.377783</speed><course>306.897400</course><hAcc>0.888967</hAcc><vAcc>0.715999</vAcc></extensions></trkpt>
      <trkpt lon="-4.135801" lat="53.002804"><ele>655.327637</ele><time>2021-07-17T10:50:12Z</time><extensions><speed>0.407000</speed><course>302.152618</course><hAcc>0.889049</hAcc><vAcc>0.716336</vAcc></extensions></trkpt>
      <trkpt lon="-4.135804" lat="53.002801"><ele>655.478943</ele><time>2021-07-17T10:50:13Z</time><extensions><speed>0.432083</speed><course>297.726410</course><hAcc>0.889132</hAcc><vAcc>0.716657</vAcc></extensions></trkpt>
      <trkpt lon="-4.135807" lat="53.002797"><ele>655.625549</ele><time>2021-07-17T10:50:14Z</time><extensions><speed>0.453100</speed><course>300.194183</course><hAcc>0.889214</hAcc><vAcc>0.716944</vAcc></extensions></trkpt>
      <trkpt lon="-4.135810" lat="53.002793"><ele>655.767578</ele><time>2021-07-17T10:50:15Z</time><extensions><speed>0.470496</speed><course>297.151825</course><hAcc>0.889292</hAcc><vAcc>0.717187</vAcc></extensions></trkpt>
      <trkpt lon="-4.135813" lat="53.002790"><ele>655.905518</ele><time>2021-07-17T10:50:16Z</time><extensions><speed>0.485004</speed><course>298.399384</course><hAcc>0.889363</hAcc><vAcc>0.717385</vAcc></extensions></trkpt>
      <trkpt lon="-4.135816" lat="53.002786"><ele>656.040039</ele><time>2021-07-17T10:50:17Z</time><extensions><speed>0.497130</speed><course>300.837921</course><hAcc>0.889426</hAcc><vAcc>0.717543</vAcc></extensions></trkpt>
      <trkpt lon="-4.135820" lat="53.002782"><ele>656.172180</ele><time>2021-07-17T10:50:18Z</time><extensions><speed>0.506817</speed><course>299.844330</course><hAcc>0.889483</hAcc><vAcc>0.717673</vAcc></extensions></trkpt>
      <trkpt lon="-4.135823" lat="53.002778"><ele>656.302795</ele><time>2021-07-17T10:50:19Z</time><extensions><speed>0.513766</speed><course>300.001373</course><hAcc>0.889533</hAcc><vAcc>0.717788</vAcc></extensions></trkpt>
      <trkpt lon="-4.135827" lat="53.002774"><ele>656.432800</ele><time>2021-07-17T10:50:20Z</time><extensions><speed>0.517614</speed><course>294.568817</course><hAcc>0.889579</hAcc><vAcc>0.717897</vAcc></extensions></trkpt>
      <trkpt lon="-4.135832" lat="53.002770"><ele>656.562744</ele><time>2021-07-17T10:50:21Z</time><extensions><speed>0.517928</speed><course>300.687103</course><hAcc>0.889621</hAcc><vAcc>0.718012</vAcc></extensions></trkpt>
      <trkpt lon="-4.135836" lat="53.002766"><ele>656.693115</ele><time>2021-07-17T10:50:22Z</time><extensions><speed>0.514296</speed><course>297.691925</course><hAcc>0.889661</hAcc><vAcc>0.718138</vAcc></extensions></trkpt>
      <trkpt lon="-4.135841" lat="53.002763"><ele>656.824158</ele><time>2021-07-17T10:50:23Z</time><extensions><speed>0.506171</speed><course>293.928223</course><hAcc>0.889700</hAcc><vAcc>0.718276</vAcc></extensions></trkpt>
      <trkpt lon="-4.135846" lat="53.002759"><ele>656.956055</ele><time>2021-07-17T10:50:24Z</time><extensions><speed>0.493418</speed><course>297.041656</course><hAcc>0.889737</hAcc><vAcc>0.718422</vAcc></extensions></trkpt>
      <trkpt lon="-4.135851" lat="53.002756"><ele>657.089050</ele><time>2021-07-17T10:50:25Z</time><extensions><speed>0.476284</speed><course>298.722290</course><hAcc>0.889774</hAcc><vAcc>0.718571</vAcc></extensions></trkpt>
      <trkpt lon="-4.135856" lat="53.002753"><ele>657.223450</ele><time>2021-07-17T10:50:26Z</time><extensions><speed>0.455080</speed><course>296.674316</course><hAcc>0.889809</hAcc><vAcc>0.718715</vAcc></extensions></trkpt>
      <trkpt lon="-4.135861" lat="53.002751"><ele>657.359497</ele><time>2021-07-17T10:50:27Z</time><extensions><speed>0.430067</speed><course>301.147156</course><hAcc>0.889843</hAcc><vAcc>0.718847</vAcc></extensions></trkpt>
      <trkpt lon="-4.135866" lat="53.002748"><ele>657.497681</ele><time>2021-07-17T10:50:28Z</time><extensions><speed>0.401565</speed><course>301.618805</course><hAcc>0.889874</hAcc><vAcc>0.718960</vAcc></extensions></trkpt>
      <trkpt lon="-4.135871" lat="53.002746"><ele>657.638123</ele><time>2021-07-17T10:50:29Z</time><extensions><speed>0.370558</speed><course>300.678009</course><hAcc>0.889902</hAcc><vAcc>0.719052</vAcc></extensions></trkpt>
      <trkpt lon="-4.135875" lat="53.002745"><ele>657.781189</ele><time>2021-07-17T10:50:30Z</time><extensions><speed>0.338678</speed><course>306.078644</course><hAcc>0.889927</hAcc><vAcc>0.719126</vAcc></extensions></trkpt>
      <trkpt lon="-4.135880" lat="53.002744"><ele>657.926941</ele><time>2021-07-17T10:50:31Z</time><extensions><speed>0.308182</speed><course>302.099213</course><hAcc>0.889946</hAcc><vAcc>0.719185</vAcc></extensions></trkpt>
      <trkpt lon="-4.135884" lat="53.002743"><ele>658.075317</ele><time>2021-07-17T10:50:32Z</time><extensions><speed>0.281924</speed><course>298.253754</course><hAcc>0.889960</hAcc><vAcc>0.719233</vAcc></extensions></trkpt>
      <trkpt lon="-4.135888" lat="53.002743"><ele>658.226257</ele><time>2021-07-17T10:50:33Z</time><extensions><speed>0.262907</speed><course>299.772583</course><hAcc>0.889968</hAcc><vAcc>0.719273</vAcc></extensions></trkpt>
      <trkpt lon="-4.135892" lat="53.002743"><ele>658.379456</ele><time>2021-07-17T10:50:34Z</time><extensions><speed>0.253200</speed><course>299.946075</course><hAcc>0.889968</hAcc><vAcc>0.719307</vAcc></extensions></trkpt>
      <trkpt lon="-4.135896" lat="53.002744"><ele>658.534607</ele><time>2021-07-17T10:50:34Z</time><extensions><speed>0.253047</speed><course>303.968170</course><hAcc>0.889978</hAcc><vAcc>0.719348</vAcc></extensions></trkpt>
      <trkpt lon="-4.135899" lat="53.002745"><ele>658.692200</ele><time>2021-07-17T10:50:35Z</time><extensions><speed>0.260951</speed><course>302.223755</course><hAcc>0.889998</hAcc><vAcc>0.719391</vAcc></extensions></trkpt>
      <trkpt lon="-4.135902" lat="53.002747"><ele>658.852295</ele><time>2021-07-17T10:50:36Z</time><extensions><speed>0.273997</speed><course>303.590851</course><hAcc>0.890010</hAcc><vAcc>0.719420</vAcc></extensions></trkpt>
      <trkpt lon="-4.135905" lat="53.002748"><ele>659.015381</ele><time>2021-07-17T10:50:37Z</time><extensions><speed>0.289233</speed><course>302.656281</course><hAcc>0.890015</hAcc><vAcc>0.719429</vAcc></extensions></trkpt>
      <trkpt lon="-4.135908" lat="53.002750"><ele>659.181641</ele><time>2021-07-17T10:50:38Z</time><extensions><speed>0.304446</speed><course>307.857574</course><hAcc>0.890013</hAcc><vAcc>0.719418</vAcc></extensions></trkpt>
      <trkpt lon="-4.135911" lat="53.002752"><ele>659.351318</ele><time>2021-07-17T10:50:39Z</time><extensions><speed>0.318024</speed><course>306.241272</course><hAcc>0.890005</hAcc><vAcc>0.719386</vAcc></extensions></trkpt>
      <trkpt lon="-4.135914" lat="53.002755"><ele>659.524414</ele><time>2021-07-17T10:50:40Z</time><extensions><speed>0.329253</speed><course>302.560516</course><hAcc>0.889990</hAcc><vAcc>0.719331</vAcc></extensions></trkpt>
      <trkpt lon="-4.135917" lat="53.002757"><ele>659.700500</ele><time>2021-07-17T10:50:41Z</time><extensions><speed>0.338246</speed><course>304.207947</course><hAcc>0.889971</hAcc><vAcc>0.719254</vAcc></extensions></trkpt>
      <trkpt lon="-4.135920" lat="53.002760"><ele>659.879089</ele><time>2021-07-17T10:50:42Z</time><extensions><speed>0.345358</speed><course>304.678192</course><hAcc>0.889948</hAcc><vAcc>0.719159</vAcc></extensions></trkpt>
      <trkpt lon="-4.135923" lat="53.002762"><ele>660.059265</ele><time>2021-07-17T10:50:43Z</time><extensions><speed>0.351016</speed><course>300.816559</course><hAcc>0.889922</hAcc><vAcc>0.719051</vAcc></extensions></trkpt>
      <trkpt lon="-4.135925" lat="53.002765"><ele>660.240234</ele><time>2021-07-17T10:50:44Z</time><extensions><speed>0.355853</speed><course>302.457642</course><hAcc>0.889894</hAcc><vAcc>0.718939</vAcc></extensions></trkpt>
      <trkpt lon="-4.135928" lat="53.002768"><ele>660.421387</ele><time>2021-07-17T10:50:45Z</time><extensions><speed>0.360312</speed><course>303.405792</course><hAcc>0.889867</hAcc><vAcc>0.718831</vAcc></extensions></trkpt>
      <trkpt lon="-4.135931" lat="53.002770"><ele>660.602539</ele><time>2021-07-17T10:50:46Z</time><extensions><speed>0.364538</speed><course>305.179382</course><hAcc>0.889843</hAcc><vAcc>0.718733</vAcc></extensions></trkpt>
      <trkpt lon="-4.135935" lat="53.002773"><ele>660.783569</ele><time>2021-07-17T10:50:47Z</time><extensions><speed>0.368710</speed><course>301.811188</course><hAcc>0.889823</hAcc><vAcc>0.718652</vAcc></extensions></trkpt>
      <trkpt lon="-4.135938" lat="53.002776"><ele>660.964600</ele><time>2021-07-17T10:50:48Z</time><extensions><speed>0.372938</speed><course>294.111877</course><hAcc>0.889811</hAcc><vAcc>0.718591</vAcc></extensions></trkpt>
      <trkpt lon="-4.135942" lat="53.002778"><ele>661.145630</ele><time>2021-07-17T10:50:49Z</time><extensions><speed>0.377018</speed><course>291.186249</course><hAcc>0.889808</hAcc><vAcc>0.718553</vAcc></extensions></trkpt>
      <trkpt lon="-4.135946" lat="53.002781"><ele>661.326782</ele><time>2021-07-17T10:50:50Z</time><extensions><speed>0.380478</speed><course>291.833313</course><hAcc>0.889816</hAcc><vAcc>0.718547</vAcc></extensions></trkpt>
      <trkpt lon="-4.135950" lat="53.002783"><ele>661.508301</ele><time>2021-07-17T10:50:51Z</time><extensions><speed>0.382773</speed><course>293.198639</course><hAcc>0.889836</hAcc><vAcc>0.718580</vAcc></extensions></trkpt>
      <trkpt lon="-4.135955" lat="53.002785"><ele>661.690247</ele><time>2021-07-17T10:50:52Z</time><extensions><speed>0.383327</speed><course>297.953094</course><hAcc>0.889867</hAcc><vAcc>0.718662</vAcc></extensions></trkpt>
      <trkpt lon="-4.135959" lat="53.002787"><ele>661.872620</ele><time>2021-07-17T10:50:53Z</time><extensions><speed>0.381478</speed><course>294.998413</course><hAcc>0.889910</hAcc><vAcc>0.718796</vAcc></extensions></trkpt>
      <trkpt lon="-4.135964" lat="53.002789"><ele>662.055176</ele><time>2021-07-17T10:50:54Z</time><extensions><speed>0.376993</speed><course>290.333923</course><hAcc>0.889962</hAcc><vAcc>0.718982</vAcc></extensions></trkpt>
      <trkpt lon="-4.135968" lat="53.002791"><ele>662.237183</ele><time>2021-07-17T10:50:55Z</time><extensions><speed>0.369975</speed><course>297.336884</course><hAcc>0.890020</hAcc><vAcc>0.719215</vAcc></extensions></trkpt>
      <trkpt lon="-4.135973" lat="53.002793"><ele>662.417725</ele><time>2021-07-17T10:50:56Z</time><extensions><speed>0.360749</speed><course>291.763641</course><hAcc>0.890080</hAcc><vAcc>0.719482</vAcc></extensions></trkpt>
      <trkpt lon="-4.135977" lat="53.002795"><ele>662.596130</ele><time>2021-07-17T10:50:57Z</time><extensions><speed>0.349928</speed><course>293.588959</course><hAcc>0.890140</hAcc><vAcc>0.719766</vAcc></extensions></trkpt>
      <trkpt lon="-4.135981" lat="53.002797"><ele>662.771912</ele><time>2021-07-17T10:50:58Z</time><extensions><speed>0.338427</speed><course>298.534668</course><hAcc>0.890196</hAcc><vAcc>0.720043</vAcc></extensions></trkpt>
      <trkpt lon="-4.135985" lat="53.002798"><ele>662.945068</ele><time>2021-07-17T10:50:59Z</time><extensions><speed>0.327375</speed><course>294.834351</course><hAcc>0.890244</hAcc><vAcc>0.720284</vAcc></extensions></trkpt>
      <trkpt lon="-4.135988" lat="53.002800"><ele>663.115540</ele><time>2021-07-17T10:51:00Z</time><extensions><speed>0.317469</speed><course>297.698059</course><hAcc>0.890283</hAcc><vAcc>0.720462</vAcc></extensions></trkpt>
      <trkpt lon="-4.135992" lat="53.002803"><ele>663.283142</ele><time>2021-07-17T10:51:01Z</time><extensions><speed>0.309245</speed><course>298.511444</course><hAcc>0.890313</hAcc><vAcc>0.720561</vAcc></extensions></trkpt>
      <trkpt lon="-4.135995" lat="53.002805"><ele>663.447510</ele><time>2021-07-17T10:51:02Z</time><extensions><speed>0.303572</speed><course>303.054443</course><hAcc>0.890331</hAcc><vAcc>0.720580</vAcc></extensions></trkpt>
      <trkpt lon="-4.135997" lat="53.002807"><ele>663.607666</ele><time>2021-07-17T10:51:03Z</time><extensions><speed>0.301332</speed><course>300.594757</course><hAcc>0.890340</hAcc><vAcc>0.720532</vAcc></extensions></trkpt>
      <trkpt lon="-4.136000" lat="53.002809"><ele>663.762817</ele><time>2021-07-17T10:51:04Z</time><extensions><speed>0.302166</speed><course>303.489990</course><hAcc>0.890341</hAcc><vAcc>0.720441</vAcc></extensions></trkpt>
      <trkpt lon="-4.136002" lat="53.002811"><ele>663.912598</ele><time>2021-07-17T10:51:05Z</time><extensions><speed>0.304933</speed><course>307.296783</course><hAcc>0.890338</hAcc><vAcc>0.720334</vAcc></extensions></trkpt>
      <trkpt lon="-4.136005" lat="53.002814"><ele>664.056946</ele><time>2021-07-17T10:51:06Z</time><extensions><speed>0.308909</speed><course>306.846466</course><hAcc>0.890333</hAcc><vAcc>0.720237</vAcc></extensions></trkpt>
      <trkpt lon="-4.136008" lat="53.002816"><ele>664.195679</ele><time>2021-07-17T10:51:07Z</time><extensions><speed>0.313699</speed><course>314.303711</course><hAcc>0.890334</hAcc><vAcc>0.720170</vAcc></extensions></trkpt>
      <trkpt lon="-4.136010" lat="53.002818"><ele>664.328491</ele><time>2021-07-17T10:51:08Z</time><extensions><speed>0.319007</speed><course>316.753265</course><hAcc>0.890345</hAcc><vAcc>0.720152</vAcc></extensions></trkpt>
      <trkpt lon="-4.136014" lat="53.002820"><ele>664.455078</ele><time>2021-07-17T10:51:09Z</time><extensions><speed>0.324766</speed><course>312.101562</course><hAcc>0.890372</hAcc><vAcc>0.720193</vAcc></extensions></trkpt>
      <trkpt lon="-4.136017" lat="53.002822"><ele>664.574524</ele><time>2021-07-17T10:51:10Z</time><extensions><speed>0.331429</speed><course>310.983948</course><hAcc>0.890420</hAcc><vAcc>0.720307</vAcc></extensions></trkpt>
      <trkpt lon="-4.136021" lat="53.002824"><ele>664.686218</ele><time>2021-07-17T10:51:11Z</time><extensions><speed>0.339384</speed><course>316.824890</course><hAcc>0.890492</hAcc><vAcc>0.720505</vAcc></extensions></trkpt>
      <trkpt lon="-4.136025" lat="53.002826"><ele>664.789429</ele><time>2021-07-17T10:51:12Z</time><extensions><speed>0.348460</speed><course>324.005005</course><hAcc>0.890589</hAcc><vAcc>0.720797</vAcc></extensions></trkpt>
      <trkpt lon="-4.136029" lat="53.002828"><ele>664.883911</ele><time>2021-07-17T10:51:13Z</time><extensions><speed>0.357894</speed><course>322.091736</course><hAcc>0.890713</hAcc><vAcc>0.721191</vAcc></extensions></trkpt>
      <trkpt lon="-4.136034" lat="53.002829"><ele>664.969299</ele><time>2021-07-17T10:51:14Z</time><extensions><speed>0.366417</speed><course>322.830170</course><hAcc>0.890862</hAcc><vAcc>0.721690</vAcc></extensions></trkpt>
      <trkpt lon="-4.136039" lat="53.002831"><ele>665.045715</ele><time>2021-07-17T10:51:15Z</time><extensions><speed>0.372794</speed><course>325.823517</course><hAcc>0.891036</hAcc><vAcc>0.722290</vAcc></extensions></trkpt>
      <trkpt lon="-4.136044" lat="53.002832"><ele>665.113464</ele><time>2021-07-17T10:51:16Z</time><extensions><speed>0.376398</speed><course>331.853210</course><hAcc>0.891232</hAcc><vAcc>0.722974</vAcc></extensions></trkpt>
      <trkpt lon="-4.136050" lat="53.002833"><ele>665.173279</ele><time>2021-07-17T10:51:17Z</time><extensions><speed>0.377390</speed><course>331.260956</course><hAcc>0.891447</hAcc><vAcc>0.723722</vAcc></extensions></trkpt>
      <trkpt lon="-4.136055" lat="53.002834"><ele>665.226135</ele><time>2021-07-17T10:51:18Z</time><extensions><speed>0.376580</speed><course>329.072571</course><hAcc>0.891678</hAcc><vAcc>0.724512</vAcc></extensions></trkpt>
      <trkpt lon="-4.136060" lat="53.002835"><ele>665.273193</ele><time>2021-07-17T10:51:19Z</time><extensions><speed>0.374891</speed><course>325.473938</course><hAcc>0.891921</hAcc><vAcc>0.725324</vAcc></extensions></trkpt>
      <trkpt lon="-4.136066" lat="53.002836"><ele>665.315674</ele><time>2021-07-17T10:51:20Z</time><extensions><speed>0.372486</speed><course>325.383026</course><hAcc>0.892173</hAcc><vAcc>0.726143</vAcc></extensions></trkpt>
      <trkpt lon="-4.136071" lat="53.002837"><ele>665.354736</ele><time>2021-07-17T10:51:21Z</time><extensions><speed>0.368703</speed><course>325.061401</course><hAcc>0.892429</hAcc><vAcc>0.726959</vAcc></extensions></trkpt>
      <trkpt lon="-4.136076" lat="53.002839"><ele>665.391785</ele><time>2021-07-17T10:51:23Z</time><extensions><speed>0.363081</speed><course>325.207275</course><hAcc>0.892666</hAcc><vAcc>0.727752</vAcc></extensions></trkpt>
      <trkpt lon="-4.136081" lat="53.002840"><ele>665.427856</ele><time>2021-07-17T10:51:24Z</time><extensions><speed>0.355785</speed><course>322.410889</course><hAcc>0.892882</hAcc><vAcc>0.728509</vAcc></extensions></trkpt>
      <trkpt lon="-4.136085" lat="53.002841"><ele>665.464233</ele><time>2021-07-17T10:51:25Z</time><extensions><speed>0.347337</speed><course>319.218658</course><hAcc>0.893091</hAcc><vAcc>0.729232</vAcc></extensions></trkpt>
      <trkpt lon="-4.136090" lat="53.002843"><ele>665.502136</ele><time>2021-07-17T10:51:26Z</time><extensions><speed>0.338691</speed><course>319.790588</course><hAcc>0.893291</hAcc><vAcc>0.729910</vAcc></extensions></trkpt>
      <trkpt lon="-4.136094" lat="53.002844"><ele>665.542603</ele><time>2021-07-17T10:51:27Z</time><extensions><speed>0.330953</speed><course>318.972229</course><hAcc>0.893480</hAcc><vAcc>0.730533</vAcc></extensions></trkpt>
      <trkpt lon="-4.136098" lat="53.002846"><ele>665.586670</ele><time>2021-07-17T10:51:28Z</time><extensions><speed>0.325206</speed><course>320.354065</course><hAcc>0.893656</hAcc><vAcc>0.731100</vAcc></extensions></trkpt>
      <trkpt lon="-4.136101" lat="53.002848"><ele>665.634766</ele><time>2021-07-17T10:51:29Z</time><extensions><speed>0.321977</speed><course>320.541016</course><hAcc>0.893819</hAcc><vAcc>0.731612</vAcc></extensions></trkpt>
      <trkpt lon="-4.136104" lat="53.002851"><ele>665.687073</ele><time>2021-07-17T10:51:30Z</time><extensions><speed>0.321216</speed><course>317.906189</course><hAcc>0.893967</hAcc><vAcc>0.732072</vAcc></extensions></trkpt>
      <trkpt lon="-4.136107" lat="53.002853"><ele>665.743530</ele><time>2021-07-17T10:51:31Z</time><extensions><speed>0.322284</speed><course>316.077393</course><hAcc>0.894102</hAcc><vAcc>0.732484</vAcc></extensions></trkpt>
      <trkpt lon="-4.136109" lat="53.002855"><ele>665.804077</ele><time>2021-07-17T10:51:32Z</time><extensions><speed>0.324068</speed><course>307.356537</course><hAcc>0.894222</hAcc><vAcc>0.732853</vAcc></extensions></trkpt>
      <trkpt lon="-4.136112" lat="53.002858"><ele>665.868774</ele><time>2021-07-17T10:51:33Z</time><extensions><speed>0.325654</speed><course>302.004150</course><hAcc>0.894329</hAcc><vAcc>0.733184</vAcc></extensions></trkpt>
      <trkpt lon="-4.136114" lat="53.002861"><ele>665.937561</ele><time>2021-07-17T10:51:34Z</time><extensions><speed>0.326253</speed><course>310.520874</course><hAcc>0.894424</hAcc><vAcc>0.733479</vAcc></extensions></trkpt>
      <trkpt lon="-4.136117" lat="53.002863"><ele>666.010864</ele><time>2021-07-17T10:51:35Z</time><extensions><speed>0.325374</speed><course>307.778412</course><hAcc>0.894507</hAcc><vAcc>0.733740</vAcc></extensions></trkpt>
      <trkpt lon="-4.136120" lat="53.002865"><ele>666.089050</ele><time>2021-07-17T10:51:36Z</time><extensions><speed>0.322995</speed><course>310.132080</course><hAcc>0.894580</hAcc><vAcc>0.733968</vAcc></extensions></trkpt>
      <trkpt lon="-4.136123" lat="53.002868"><ele>666.172729</ele><time>2021-07-17T10:51:37Z</time><extensions><speed>0.319260</speed><course>310.327301</course><hAcc>0.894641</hAcc><vAcc>0.734163</vAcc></extensions></trkpt>
      <trkpt lon="-4.136126" lat="53.002870"><ele>666.263000</ele><time>2021-07-17T10:51:38Z</time><extensions><speed>0.314664</speed><course>308.925873</course><hAcc>0.894692</hAcc><vAcc>0.734326</vAcc></extensions></trkpt>
      <trkpt lon="-4.136129" lat="53.002872"><ele>666.361389</ele><time>2021-07-17T10:51:39Z</time><extensions><speed>0.310115</speed><course>308.955322</course><hAcc>0.894731</hAcc><vAcc>0.734454</vAcc></extensions></trkpt>
      <trkpt lon="-4.136133" lat="53.002873"><ele>666.469971</ele><time>2021-07-17T10:51:40Z</time><extensions><speed>0.306731</speed><course>303.152588</course><hAcc>0.894755</hAcc><vAcc>0.734546</vAcc></extensions></trkpt>
      <trkpt lon="-4.136137" lat="53.002875"><ele>666.591370</ele><time>2021-07-17T10:51:41Z</time><extensions><speed>0.305578</speed><course>313.156525</course><hAcc>0.894763</hAcc><vAcc>0.734598</vAcc></extensions></trkpt>
      <trkpt lon="-4.136141" lat="53.002876"><ele>666.728821</ele><time>2021-07-17T10:51:42Z</time><extensions><speed>0.307356</speed><course>307.864197</course><hAcc>0.894752</hAcc><vAcc>0.734600</vAcc></extensions></trkpt>
      <trkpt lon="-4.136145" lat="53.002877"><ele>666.885437</ele><time>2021-07-17T10:51:43Z</time><extensions><speed>0.311864</speed><course>309.541687</course><hAcc>0.894719</hAcc><vAcc>0.734543</vAcc></extensions></trkpt>
      <trkpt lon="-4.136150" lat="53.002877"><ele>667.064392</ele><time>2021-07-17T10:51:44Z</time><extensions><speed>0.318057</speed><course>312.130341</course><hAcc>0.894660</hAcc><vAcc>0.734414</vAcc></extensions></trkpt>
      <trkpt lon="-4.136155" lat="53.002877"><ele>667.268555</ele><time>2021-07-17T10:51:45Z</time><extensions><speed>0.325560</speed><course>310.268982</course><hAcc>0.894571</hAcc><vAcc>0.734202</vAcc></extensions></trkpt>
      <trkpt lon="-4.136159" lat="53.002877"><ele>667.500549</ele><time>2021-07-17T10:51:46Z</time><extensions><speed>0.333633</speed><course>308.247070</course><hAcc>0.894450</hAcc><vAcc>0.733894</vAcc></extensions></trkpt>
      <trkpt lon="-4.136164" lat="53.002876"><ele>667.762024</ele><time>2021-07-17T10:51:47Z</time><extensions><speed>0.340558</speed><course>304.229858</course><hAcc>0.894292</hAcc><vAcc>0.733478</vAcc></extensions></trkpt>
      <trkpt lon="-4.136169" lat="53.002875"><ele>668.053833</ele><time>2021-07-17T10:51:48Z</time><extensions><speed>0.345357</speed><course>308.310059</course><hAcc>0.894098</hAcc><vAcc>0.732940</vAcc></extensions></trkpt>
      <trkpt lon="-4.136174" lat="53.002874"><ele>668.376038</ele><time>2021-07-17T10:51:49Z</time><extensions><speed>0.347649</speed><course>311.142822</course><hAcc>0.893869</hAcc><vAcc>0.732268</vAcc></extensions></trkpt>
      <trkpt lon="-4.136179" lat="53.002873"><ele>668.727295</ele><time>2021-07-17T10:51:50Z</time><extensions><speed>0.346871</speed><course>305.518036</course><hAcc>0.893609</hAcc><vAcc>0.731452</vAcc></extensions></trkpt>
      <trkpt lon="-4.136183" lat="53.002871"><ele>669.105042</ele><time>2021-07-17T10:51:51Z</time><extensions><speed>0.342882</speed><course>303.061462</course><hAcc>0.893325</hAcc><vAcc>0.730494</vAcc></extensions></trkpt>
      <trkpt lon="-4.136187" lat="53.002869"><ele>669.504639</ele><time>2021-07-17T10:51:52Z</time><extensions><speed>0.336283</speed><course>298.232086</course><hAcc>0.893024</hAcc><vAcc>0.729408</vAcc></extensions></trkpt>
      <trkpt lon="-4.136191" lat="53.002868"><ele>669.920105</ele><time>2021-07-17T10:51:53Z</time><extensions><speed>0.327878</speed><course>289.358276</course><hAcc>0.892716</hAcc><vAcc>0.728228</vAcc></extensions></trkpt>
      <trkpt lon="-4.136195" lat="53.002866"><ele>670.343872</ele><time>2021-07-17T10:51:54Z</time><extensions><speed>0.318256</speed><course>285.924469</course><hAcc>0.892406</hAcc><vAcc>0.727007</vAcc></extensions></trkpt>
      <trkpt lon="-4.136198" lat="53.002864"><ele>670.768066</ele><time>2021-07-17T10:51:55Z</time><extensions><speed>0.307877</speed><course>280.520447</course><hAcc>0.892101</hAcc><vAcc>0.725810</vAcc></extensions></trkpt>
      <trkpt lon="-4.136202" lat="53.002862"><ele>671.185791</ele><time>2021-07-17T10:51:56Z</time><extensions><speed>0.297260</speed><course>286.862061</course><hAcc>0.891807</hAcc><vAcc>0.724692</vAcc></extensions></trkpt>
      <trkpt lon="-4.136205" lat="53.002860"><ele>671.591492</ele><time>2021-07-17T10:51:57Z</time><extensions><speed>0.287174</speed><course>295.700317</course><hAcc>0.891530</hAcc><vAcc>0.723693</vAcc></extensions></trkpt>
      <trkpt lon="-4.136208" lat="53.002859"><ele>671.981079</ele><time>2021-07-17T10:51:58Z</time><extensions><speed>0.278348</speed><course>296.161560</course><hAcc>0.891277</hAcc><vAcc>0.722838</vAcc></extensions></trkpt>
      <trkpt lon="-4.136211" lat="53.002857"><ele>672.351807</ele><time>2021-07-17T10:51:59Z</time><extensions><speed>0.271062</speed><course>298.229218</course><hAcc>0.891050</hAcc><vAcc>0.722135</vAcc></extensions></trkpt>
      <trkpt lon="-4.136214" lat="53.002855"><ele>672.702148</ele><time>2021-07-17T10:52:00Z</time><extensions><speed>0.265233</speed><course>297.545471</course><hAcc>0.890852</hAcc><vAcc>0.721575</vAcc></extensions></trkpt>
      <trkpt lon="-4.136217" lat="53.002854"><ele>673.031067</ele><time>2021-07-17T10:52:01Z</time><extensions><speed>0.260985</speed><course>292.454163</course><hAcc>0.890682</hAcc><vAcc>0.721138</vAcc></extensions></trkpt>
      <trkpt lon="-4.136219" lat="53.002852"><ele>673.338562</ele><time>2021-07-17T10:52:02Z</time><extensions><speed>0.258550</speed><course>287.195465</course><hAcc>0.890537</hAcc><vAcc>0.720795</vAcc></extensions></trkpt>
      <trkpt lon="-4.136222" lat="53.002850"><ele>673.625305</ele><time>2021-07-17T10:52:03Z</time><extensions><speed>0.258193</speed><course>283.339600</course><hAcc>0.890416</hAcc><vAcc>0.720513</vAcc></extensions></trkpt>
      <trkpt lon="-4.136225" lat="53.002849"><ele>673.892456</ele><time>2021-07-17T10:52:04Z</time><extensions><speed>0.260322</speed><course>283.687531</course><hAcc>0.890315</hAcc><vAcc>0.720262</vAcc></extensions></trkpt>
      <trkpt lon="-4.136227" lat="53.002847"><ele>674.141418</ele><time>2021-07-17T10:52:05Z</time><extensions><speed>0.265061</speed><course>284.089417</course><hAcc>0.890229</hAcc><vAcc>0.720023</vAcc></extensions></trkpt>
      <trkpt lon="-4.136230" lat="53.002845"><ele>674.373535</ele><time>2021-07-17T10:52:06Z</time><extensions><speed>0.272099</speed><course>286.432800</course><hAcc>0.890153</hAcc><vAcc>0.719789</vAcc></extensions></trkpt>
      <trkpt lon="-4.136233" lat="53.002843"><ele>674.590515</ele><time>2021-07-17T10:52:07Z</time><extensions><speed>0.281027</speed><course>288.844025</course><hAcc>0.890085</hAcc><vAcc>0.719562</vAcc></extensions></trkpt>
      <trkpt lon="-4.136236" lat="53.002841"><ele>674.794617</ele><time>2021-07-17T10:52:08Z</time><extensions><speed>0.291679</speed><course>294.600861</course><hAcc>0.890022</hAcc><vAcc>0.719344</vAcc></extensions></trkpt>
      <trkpt lon="-4.136239" lat="53.002839"><ele>674.987976</ele><time>2021-07-17T10:52:09Z</time><extensions><speed>0.303911</speed><course>289.399475</course><hAcc>0.889964</hAcc><vAcc>0.719138</vAcc></extensions></trkpt>
      <trkpt lon="-4.136242" lat="53.002837"><ele>675.172852</ele><time>2021-07-17T10:52:10Z</time><extensions><speed>0.317445</speed><course>292.462738</course><hAcc>0.889911</hAcc><vAcc>0.718946</vAcc></extensions></trkpt>
      <trkpt lon="-4.136245" lat="53.002835"><ele>675.351379</ele><time>2021-07-17T10:52:11Z</time><extensions><speed>0.331837</speed><course>292.044128</course><hAcc>0.889864</hAcc><vAcc>0.718770</vAcc></extensions></trkpt>
      <trkpt lon="-4.136249" lat="53.002833"><ele>675.525208</ele><time>2021-07-17T10:52:12Z</time><extensions><speed>0.346641</speed><course>289.426849</course><hAcc>0.889827</hAcc><vAcc>0.718616</vAcc></extensions></trkpt>
      <trkpt lon="-4.136253" lat="53.002831"><ele>675.695435</ele><time>2021-07-17T10:52:13Z</time><extensions><speed>0.361621</speed><course>292.821838</course><hAcc>0.889802</hAcc><vAcc>0.718493</vAcc></extensions></trkpt>
      <trkpt lon="-4.136257" lat="53.002829"><ele>675.862549</ele><time>2021-07-17T10:52:14Z</time><extensions><speed>0.376936</speed><course>287.405121</course><hAcc>0.889791</hAcc><vAcc>0.718414</vAcc></extensions></trkpt>
      <trkpt lon="-4.136261" lat="53.002826"><ele>676.026611</ele><time>2021-07-17T10:52:15Z</time><extensions><speed>0.392902</speed><course>289.328461</course><hAcc>0.889797</hAcc><vAcc>0.718393</vAcc></extensions></trkpt>
      <trkpt lon="-4.136265" lat="53.002824"><ele>676.187195</ele><time>2021-07-17T10:52:16Z</time><extensions><speed>0.410016</speed><course>290.686554</course><hAcc>0.889822</hAcc><vAcc>0.718443</vAcc></extensions></trkpt>
      <trkpt lon="-4.136270" lat="53.002821"><ele>676.343933</ele><time>2021-07-17T10:52:17Z</time><extensions><speed>0.428311</speed><course>291.519623</course><hAcc>0.889865</hAcc><vAcc>0.718572</vAcc></extensions></trkpt>
      <trkpt lon="-4.136275" lat="53.002819"><ele>676.496277</ele><time>2021-07-17T10:52:18Z</time><extensions><speed>0.446831</speed><course>289.260345</course><hAcc>0.889928</hAcc><vAcc>0.718785</vAcc></extensions></trkpt>
      <trkpt lon="-4.136280" lat="53.002816"><ele>676.643799</ele><time>2021-07-17T10:52:19Z</time><extensions><speed>0.464214</speed><course>291.671295</course><hAcc>0.890011</hAcc><vAcc>0.719082</vAcc></extensions></trkpt>
      <trkpt lon="-4.136286" lat="53.002814"><ele>676.786011</ele><time>2021-07-17T10:52:20Z</time><extensions><speed>0.478992</speed><course>285.797272</course><hAcc>0.890113</hAcc><vAcc>0.719453</vAcc></extensions></trkpt>
      <trkpt lon="-4.136292" lat="53.002811"><ele>676.922058</ele><time>2021-07-17T10:52:21Z</time><extensions><speed>0.490163</speed><course>284.045776</course><hAcc>0.890232</hAcc><vAcc>0.719885</vAcc></extensions></trkpt>
      <trkpt lon="-4.136298" lat="53.002809"><ele>677.050720</ele><time>2021-07-17T10:52:22Z</time><extensions><speed>0.497247</speed><course>290.744446</course><hAcc>0.890366</hAcc><vAcc>0.720362</vAcc></extensions></trkpt>
      <trkpt lon="-4.136304" lat="53.002806"><ele>677.171387</ele><time>2021-07-17T10:52:23Z</time><extensions><speed>0.500182</speed><course>286.155334</course><hAcc>0.890514</hAcc><vAcc>0.720870</vAcc></extensions></trkpt>
      <trkpt lon="-4.136311" lat="53.002804"><ele>677.283691</ele><time>2021-07-17T10:52:24Z</time><extensions><speed>0.499050</speed><course>292.078705</course><hAcc>0.890672</hAcc><vAcc>0.721399</vAcc></extensions></trkpt>
      <trkpt lon="-4.136317" lat="53.002802"><ele>677.387695</ele><time>2021-07-17T10:52:25Z</time><extensions><speed>0.494000</speed><course>292.906311</course><hAcc>0.890838</hAcc><vAcc>0.721941</vAcc></extensions></trkpt>
      <trkpt lon="-4.136323" lat="53.002799"><ele>677.484253</ele><time>2021-07-17T10:52:26Z</time><extensions><speed>0.485459</speed><course>291.462067</course><hAcc>0.891010</hAcc><vAcc>0.722492</vAcc></extensions></trkpt>
      <trkpt lon="-4.136329" lat="53.002797"><ele>677.575317</ele><time>2021-07-17T10:52:27Z</time><extensions><speed>0.473765</speed><course>290.448425</course><hAcc>0.891185</hAcc><vAcc>0.723045</vAcc></extensions></trkpt>
      <trkpt lon="-4.136335" lat="53.002795"><ele>677.663879</ele><time>2021-07-17T10:52:28Z</time><extensions><speed>0.458856</speed><course>295.857269</course><hAcc>0.891360</hAcc><vAcc>0.723598</vAcc></extensions></trkpt>
      <trkpt lon="-4.136341" lat="53.002793"><ele>677.752869</ele><time>2021-07-17T10:52:29Z</time><extensions><speed>0.440532</speed><course>298.185364</course><hAcc>0.891531</hAcc><vAcc>0.724148</vAcc></extensions></trkpt>
      <trkpt lon="-4.136346" lat="53.002791"><ele>677.844788</ele><time>2021-07-17T10:52:30Z</time><extensions><speed>0.418900</speed><course>294.469940</course><hAcc>0.891694</hAcc><vAcc>0.724690</vAcc></extensions></trkpt>
      <trkpt lon="-4.136352" lat="53.002789"><ele>677.941956</ele><time>2021-07-17T10:52:31Z</time><extensions><speed>0.394164</speed><course>292.898438</course><hAcc>0.891845</hAcc><vAcc>0.725215</vAcc></extensions></trkpt>
      <trkpt lon="-4.136357" lat="53.002788"><ele>678.046387</ele><time>2021-07-17T10:52:32Z</time><extensions><speed>0.366570</speed><course>292.422791</course><hAcc>0.891977</hAcc><vAcc>0.725708</vAcc></extensions></trkpt>
      <trkpt lon="-4.136362" lat="53.002787"><ele>678.159851</ele><time>2021-07-17T10:52:33Z</time><extensions><speed>0.337031</speed><course>292.622986</course><hAcc>0.892085</hAcc><vAcc>0.726152</vAcc></extensions></trkpt>
      <trkpt lon="-4.136367" lat="53.002787"><ele>678.283997</ele><time>2021-07-17T10:52:34Z</time><extensions><speed>0.307629</speed><course>292.749084</course><hAcc>0.892160</hAcc><vAcc>0.726521</vAcc></extensions></trkpt>
      <trkpt lon="-4.136371" lat="53.002787"><ele>678.420044</ele><time>2021-07-17T10:52:35Z</time><extensions><speed>0.282105</speed><course>294.832458</course><hAcc>0.892196</hAcc><vAcc>0.726789</vAcc></extensions></trkpt>
      <trkpt lon="-4.136375" lat="53.002787"><ele>678.569153</ele><time>2021-07-17T10:52:36Z</time><extensions><speed>0.266059</speed><course>290.563019</course><hAcc>0.892186</hAcc><vAcc>0.726924</vAcc></extensions></trkpt>
      <trkpt lon="-4.136379" lat="53.002788"><ele>678.732056</ele><time>2021-07-17T10:52:37Z</time><extensions><speed>0.266242</speed><course>288.082062</course><hAcc>0.892124</hAcc><vAcc>0.726891</vAcc></extensions></trkpt>
      <trkpt lon="-4.136381" lat="53.002790"><ele>678.908936</ele><time>2021-07-17T10:52:38Z</time><extensions><speed>0.286125</speed><course>289.238037</course><hAcc>0.892007</hAcc><vAcc>0.726659</vAcc></extensions></trkpt>
      <trkpt lon="-4.136384" lat="53.002792"><ele>679.099365</ele><time>2021-07-17T10:52:38Z</time><extensions><speed>0.322268</speed><course>289.037109</course><hAcc>0.891852</hAcc><vAcc>0.726219</vAcc></extensions></trkpt>
      <trkpt lon="-4.136385" lat="53.002795"><ele>679.302612</ele><time>2021-07-17T10:52:39Z</time><extensions><speed>0.368159</speed><course>291.884949</course><hAcc>0.891660</hAcc><vAcc>0.725563</vAcc></extensions></trkpt>
      <trkpt lon="-4.136386" lat="53.002799"><ele>679.516602</ele><time>2021-07-17T10:52:40Z</time><extensions><speed>0.417871</speed><course>287.567657</course><hAcc>0.891418</hAcc><vAcc>0.724683</vAcc></extensions></trkpt>
      <trkpt lon="-4.136386" lat="53.002803"><ele>679.738220</ele><time>2021-07-17T10:52:41Z</time><extensions><speed>0.467375</speed><course>291.768890</course><hAcc>0.891133</hAcc><vAcc>0.723609</vAcc></extensions></trkpt>
      <trkpt lon="-4.136386" lat="53.002807"><ele>679.963440</ele><time>2021-07-17T10:52:42Z</time><extensions><speed>0.514128</speed><course>296.126740</course><hAcc>0.890813</hAcc><vAcc>0.722386</vAcc></extensions></trkpt>
      <trkpt lon="-4.136385" lat="53.002812"><ele>680.187744</ele><time>2021-07-17T10:52:43Z</time><extensions><speed>0.556434</speed><course>297.059143</course><hAcc>0.890468</hAcc><vAcc>0.721072</vAcc></extensions></trkpt>
      <trkpt lon="-4.136384" lat="53.002817"><ele>680.406860</ele><time>2021-07-17T10:52:44Z</time><extensions><speed>0.592825</speed><course>303.696320</course><hAcc>0.890108</hAcc><vAcc>0.719724</vAcc></extensions></trkpt>
      <trkpt lon="-4.136382" lat="53.002822"><ele>680.617310</ele><time>2021-07-17T10:52:45Z</time><extensions><speed>0.621959</speed><course>307.460022</course><hAcc>0.889748</hAcc><vAcc>0.718393</vAcc></extensions></trkpt>
      <trkpt lon="-4.136379" lat="53.002828"><ele>680.816040</ele><time>2021-07-17T10:52:46Z</time><extensions><speed>0.642710</speed><course>302.094666</course><hAcc>0.889399</hAcc><vAcc>0.717130</vAcc></extensions></trkpt>
      <trkpt lon="-4.136376" lat="53.002833"><ele>681.001221</ele><time>2021-07-17T10:52:47Z</time><extensions><speed>0.653928</speed><course>294.763123</course><hAcc>0.889075</hAcc><vAcc>0.715976</vAcc></extensions></trkpt>
      <trkpt lon="-4.136374" lat="53.002839"><ele>681.171997</ele><time>2021-07-17T10:52:48Z</time><extensions><speed>0.654694</speed><course>292.310913</course><hAcc>0.888786</hAcc><vAcc>0.714966</vAcc></extensions></trkpt>
      <trkpt lon="-4.136371" lat="53.002845"><ele>681.329041</ele><time>2021-07-17T10:52:49Z</time><extensions><speed>0.644561</speed><course>286.252472</course><hAcc>0.888543</hAcc><vAcc>0.714127</vAcc></extensions></trkpt>
      <trkpt lon="-4.136368" lat="53.002850"><ele>681.473694</ele><time>2021-07-17T10:52:50Z</time><extensions><speed>0.623684</speed><course>277.085999</course><hAcc>0.888350</hAcc><vAcc>0.713479</vAcc></extensions></trkpt>
      <trkpt lon="-4.136366" lat="53.002855"><ele>681.608093</ele><time>2021-07-17T10:52:51Z</time><extensions><speed>0.593225</speed><course>269.880463</course><hAcc>0.888212</hAcc><vAcc>0.713034</vAcc></extensions></trkpt>
      <trkpt lon="-4.136364" lat="53.002860"><ele>681.734680</ele><time>2021-07-17T10:52:52Z</time><extensions><speed>0.555130</speed><course>256.014618</course><hAcc>0.888130</hAcc><vAcc>0.712796</vAcc></extensions></trkpt>
      <trkpt lon="-4.136363" lat="53.002865"><ele>681.856140</ele><time>2021-07-17T10:52:53Z</time><extensions><speed>0.512083</speed><course>250.524368</course><hAcc>0.888101</hAcc><vAcc>0.712758</vAcc></extensions></trkpt>
      <trkpt lon="-4.136363" lat="53.002869"><ele>681.975220</ele><time>2021-07-17T10:52:54Z</time><extensions><speed>0.467577</speed><course>237.491638</course><hAcc>0.888123</hAcc><vAcc>0.712900</vAcc></extensions></trkpt>
      <trkpt lon="-4.136363" lat="53.002873"><ele>682.094177</ele><time>2021-07-17T10:52:55Z</time><extensions><speed>0.425278</speed><course>231.976761</course><hAcc>0.888189</hAcc><vAcc>0.713196</vAcc></extensions></trkpt>
      <trkpt lon="-4.136364" lat="53.002877"><ele>682.214722</ele><time>2021-07-17T10:52:56Z</time><extensions><speed>0.388172</speed><course>228.504318</course><hAcc>0.888291</hAcc><vAcc>0.713616</vAcc></extensions></trkpt>
      <trkpt lon="-4.136367" lat="53.002880"><ele>682.338501</ele><time>2021-07-17T10:52:57Z</time><extensions><speed>0.358184</speed><course>227.577087</course><hAcc>0.888419</hAcc><vAcc>0.714132</vAcc></extensions></trkpt>
      <trkpt lon="-4.136369" lat="53.002883"><ele>682.467041</ele><time>2021-07-17T10:52:58Z</time><extensions><speed>0.336386</speed><course>219.513672</course><hAcc>0.888566</hAcc><vAcc>0.714711</vAcc></extensions></trkpt>
      <trkpt lon="-4.136373" lat="53.002885"><ele>682.601379</ele><time>2021-07-17T10:52:59Z</time><extensions><speed>0.322705</speed><course>224.903015</course><hAcc>0.888720</hAcc><vAcc>0.715320</vAcc></extensions></trkpt>
      <trkpt lon="-4.136377" lat="53.002886"><ele>682.742188</ele><time>2021-07-17T10:53:00Z</time><extensions><speed>0.315727</speed><course>222.390198</course><hAcc>0.888874</hAcc><vAcc>0.715918</vAcc></extensions></trkpt>
      <trkpt lon="-4.136381" lat="53.002888"><ele>682.889771</ele><time>2021-07-17T10:53:01Z</time><extensions><speed>0.314137</speed><course>223.313202</course><hAcc>0.889020</hAcc><vAcc>0.716468</vAcc></extensions></trkpt>
      <trkpt lon="-4.136385" lat="53.002888"><ele>683.043701</ele><time>2021-07-17T10:53:02Z</time><extensions><speed>0.317461</speed><course>224.045700</course><hAcc>0.889154</hAcc><vAcc>0.716937</vAcc></extensions></trkpt>
      <trkpt lon="-4.136390" lat="53.002889"><ele>683.203369</ele><time>2021-07-17T10:53:03Z</time><extensions><speed>0.324818</speed><course>224.975723</course><hAcc>0.889271</hAcc><vAcc>0.717309</vAcc></extensions></trkpt>
      <trkpt lon="-4.136395" lat="53.002888"><ele>683.367493</ele><time>2021-07-17T10:53:04Z</time><extensions><speed>0.335148</speed><course>226.513992</course><hAcc>0.889369</hAcc><vAcc>0.717583</vAcc></extensions></trkpt>
      <trkpt lon="-4.136400" lat="53.002888"><ele>683.534607</ele><time>2021-07-17T10:53:05Z</time><extensions><speed>0.347279</speed><course>227.291473</course><hAcc>0.889446</hAcc><vAcc>0.717769</vAcc></extensions></trkpt>
      <trkpt lon="-4.136405" lat="53.002887"><ele>683.703186</ele><time>2021-07-17T10:53:06Z</time><extensions><speed>0.359962</speed><course>231.833313</course><hAcc>0.889504</hAcc><vAcc>0.717880</vAcc></extensions></trkpt>
      <trkpt lon="-4.136410" lat="53.002886"><ele>683.872131</ele><time>2021-07-17T10:53:07Z</time><extensions><speed>0.372641</speed><course>230.421005</course><hAcc>0.889545</hAcc><vAcc>0.717931</vAcc></extensions></trkpt>
      <trkpt lon="-4.136416" lat="53.002885"><ele>684.040222</ele><time>2021-07-17T10:53:08Z</time><extensions><speed>0.385435</speed><course>235.980087</course><hAcc>0.889574</hAcc><vAcc>0.717940</vAcc></extensions></trkpt>
      <trkpt lon="-4.136421" lat="53.002883"><ele>684.206421</ele><time>2021-07-17T10:53:09Z</time><extensions><speed>0.398681</speed><course>243.213364</course><hAcc>0.889593</hAcc><vAcc>0.717926</vAcc></extensions></trkpt>
      <trkpt lon="-4.136426" lat="53.002882"><ele>684.370300</ele><time>2021-07-17T10:53:10Z</time><extensions><speed>0.412100</speed><course>253.165268</course><hAcc>0.889608</hAcc><vAcc>0.717909</vAcc></extensions></trkpt>
      <trkpt lon="-4.136432" lat="53.002880"><ele>684.531738</ele><time>2021-07-17T10:53:11Z</time><extensions><speed>0.424886</speed><course>266.505096</course><hAcc>0.889622</hAcc><vAcc>0.717905</vAcc></extensions></trkpt>
      <trkpt lon="-4.136437" lat="53.002878"><ele>684.690979</ele><time>2021-07-17T10:53:12Z</time><extensions><speed>0.436219</speed><course>267.255646</course><hAcc>0.889638</hAcc><vAcc>0.717926</vAcc></extensions></trkpt>
      <trkpt lon="-4.136443" lat="53.002876"><ele>684.848877</ele><time>2021-07-17T10:53:13Z</time><extensions><speed>0.445211</speed><course>271.176971</course><hAcc>0.889659</hAcc><vAcc>0.717979</vAcc></extensions></trkpt>
      <trkpt lon="-4.136449" lat="53.002874"><ele>685.006592</ele><time>2021-07-17T10:53:14Z</time><extensions><speed>0.451092</speed><course>283.145996</course><hAcc>0.889685</hAcc><vAcc>0.718067</vAcc></extensions></trkpt>
      <trkpt lon="-4.136454" lat="53.002872"><ele>685.165527</ele><time>2021-07-17T10:53:15Z</time><extensions><speed>0.453703</speed><course>291.499756</course><hAcc>0.889718</hAcc><vAcc>0.718191</vAcc></extensions></trkpt>
      <trkpt lon="-4.136460" lat="53.002869"><ele>685.326965</ele><time>2021-07-17T10:53:16Z</time><extensions><speed>0.453719</speed><course>295.960785</course><hAcc>0.889759</hAcc><vAcc>0.718352</vAcc></extensions></trkpt>
      <trkpt lon="-4.136466" lat="53.002867"><ele>685.492065</ele><time>2021-07-17T10:53:17Z</time><extensions><speed>0.452325</speed><course>298.309418</course><hAcc>0.889810</hAcc><vAcc>0.718547</vAcc></extensions></trkpt>
      <trkpt lon="-4.136471" lat="53.002865"><ele>685.662048</ele><time>2021-07-17T10:53:18Z</time><extensions><speed>0.450919</speed><course>301.442566</course><hAcc>0.889876</hAcc><vAcc>0.718770</vAcc></extensions></trkpt>
      <trkpt lon="-4.136477" lat="53.002863"><ele>685.838318</ele><time>2021-07-17T10:53:19Z</time><extensions><speed>0.450457</speed><course>301.820831</course><hAcc>0.889964</hAcc><vAcc>0.719017</vAcc></extensions></trkpt>
      <trkpt lon="-4.136483" lat="53.002861"><ele>686.021851</ele><time>2021-07-17T10:53:20Z</time><extensions><speed>0.450824</speed><course>306.533081</course><hAcc>0.890086</hAcc><vAcc>0.719289</vAcc></extensions></trkpt>
      <trkpt lon="-4.136488" lat="53.002858"><ele>686.213257</ele><time>2021-07-17T10:53:21Z</time><extensions><speed>0.451280</speed><course>310.759277</course><hAcc>0.890260</hAcc><vAcc>0.719596</vAcc></extensions></trkpt>
      <trkpt lon="-4.136494" lat="53.002856"><ele>686.412292</ele><time>2021-07-17T10:53:22Z</time><extensions><speed>0.451141</speed><course>315.721252</course><hAcc>0.890508</hAcc><vAcc>0.719961</vAcc></extensions></trkpt>
      <trkpt lon="-4.136499" lat="53.002854"><ele>686.618286</ele><time>2021-07-17T10:53:23Z</time><extensions><speed>0.449932</speed><course>321.376434</course><hAcc>0.890860</hAcc><vAcc>0.720420</vAcc></extensions></trkpt>
      <trkpt lon="-4.136505" lat="53.002852"><ele>686.830444</ele><time>2021-07-17T10:53:24Z</time><extensions><speed>0.446976</speed><course>321.893402</course><hAcc>0.891351</hAcc><vAcc>0.721014</vAcc></extensions></trkpt>
      <trkpt lon="-4.136511" lat="53.002850"><ele>687.047424</ele><time>2021-07-17T10:53:25Z</time><extensions><speed>0.442592</speed><course>325.867676</course><hAcc>0.892023</hAcc><vAcc>0.721780</vAcc></extensions></trkpt>
      <trkpt lon="-4.136516" lat="53.002848"><ele>687.266968</ele><time>2021-07-17T10:53:26Z</time><extensions><speed>0.437824</speed><course>319.975250</course><hAcc>0.892917</hAcc><vAcc>0.722746</vAcc></extensions></trkpt>
      <trkpt lon="-4.136522" lat="53.002845"><ele>687.487122</ele><time>2021-07-17T10:53:27Z</time><extensions><speed>0.433025</speed><course>320.826599</course><hAcc>0.894070</hAcc><vAcc>0.723927</vAcc></extensions></trkpt>
      <trkpt lon="-4.136527" lat="53.002843"><ele>687.706543</ele><time>2021-07-17T10:53:28Z</time><extensions><speed>0.428519</speed><course>320.826599</course><hAcc>0.895505</hAcc><vAcc>0.725326</vAcc></extensions></trkpt>
      <trkpt lon="-4.136533" lat="53.002841"><ele>687.924744</ele><time>2021-07-17T10:53:29Z</time><extensions><speed>0.424849</speed><course>320.826599</course><hAcc>0.897224</hAcc><vAcc>0.726916</vAcc></extensions></trkpt>
      <trkpt lon="-4.136538" lat="53.002840"><ele>688.141174</ele><time>2021-07-17T10:53:30Z</time><extensions><speed>0.422670</speed><course>320.826599</course><hAcc>0.899194</hAcc><vAcc>0.728641</vAcc></extensions></trkpt>
      <trkpt lon="-4.136544" lat="53.002838"><ele>688.355469</ele><time>2021-07-17T10:53:31Z</time><extensions><speed>0.422382</speed><course>320.826599</course><hAcc>0.901337</hAcc><vAcc>0.730401</vAcc></extensions></trkpt>
      <trkpt lon="-4.136549" lat="53.002836"><ele>688.567627</ele><time>2021-07-17T10:53:33Z</time><extensions><speed>0.423920</speed><course>320.826599</course><hAcc>0.903509</hAcc><vAcc>0.732056</vAcc></extensions></trkpt>
      <trkpt lon="-4.136555" lat="53.002834"><ele>688.777283</ele><time>2021-07-17T10:53:34Z</time><extensions><speed>0.426718</speed><course>320.826599</course><hAcc>0.905532</hAcc><vAcc>0.733457</vAcc></extensions></trkpt>
      <trkpt lon="-4.136561" lat="53.002833"><ele>688.984619</ele><time>2021-07-17T10:53:35Z</time><extensions><speed>0.429871</speed><course>320.826599</course><hAcc>0.907229</hAcc><vAcc>0.734493</vAcc></extensions></trkpt>
      <trkpt lon="-4.136567" lat="53.002831"><ele>689.189514</ele><time>2021-07-17T10:53:36Z</time><extensions><speed>0.432054</speed><course>320.826599</course><hAcc>0.908438</hAcc><vAcc>0.735125</vAcc></extensions></trkpt>
      <trkpt lon="-4.136573" lat="53.002830"><ele>689.391968</ele><time>2021-07-17T10:53:37Z</time><extensions><speed>0.432505</speed><course>320.826599</course><hAcc>0.909128</hAcc><vAcc>0.735497</vAcc></extensions></trkpt>
      <trkpt lon="-4.136579" lat="53.002829"><ele>689.592041</ele><time>2021-07-17T10:53:38Z</time><extensions><speed>0.431227</speed><course>320.826599</course><hAcc>0.909572</hAcc><vAcc>0.736093</vAcc></extensions></trkpt>
      <trkpt lon="-4.136585" lat="53.002828"><ele>689.789673</ele><time>2021-07-17T10:53:39Z</time><extensions><speed>0.428311</speed><course>320.826599</course><hAcc>0.910599</hAcc><vAcc>0.737931</vAcc></extensions></trkpt>
      <trkpt lon="-4.136591" lat="53.002827"><ele>689.984802</ele><time>2021-07-17T10:53:40Z</time><extensions><speed>0.424287</speed><course>320.826599</course><hAcc>0.913953</hAcc><vAcc>0.742806</vAcc></extensions></trkpt>
      <trkpt lon="-4.136597" lat="53.002826"><ele>690.176941</ele><time>2021-07-17T10:53:41Z</time><extensions><speed>0.419960</speed><course>320.826599</course><hAcc>0.922716</hAcc><vAcc>0.753515</vAcc></extensions></trkpt>
      <trkpt lon="-4.136603" lat="53.002825"><ele>690.365967</ele><time>2021-07-17T10:53:42Z</time><extensions><speed>0.415703</speed><course>320.826599</course><hAcc>0.941715</hAcc><vAcc>0.773971</vAcc></extensions></trkpt>
      <trkpt lon="-4.136609" lat="53.002825"><ele>690.551819</ele><time>2021-07-17T10:53:43Z</time><extensions><speed>0.411025</speed><course>320.826599</course><hAcc>0.977632</hAcc><vAcc>0.809041</vAcc></extensions></trkpt>
      <trkpt lon="-4.136612" lat="53.002826"><ele>690.849670</ele><time>2021-07-17T10:53:44Z</time><extensions><speed>0.351090</speed><course>207.637573</course><hAcc>0.939014</hAcc><vAcc>0.772729</vAcc></extensions></trkpt>
      <trkpt lon="-4.136615" lat="53.002829"><ele>691.071594</ele><time>2021-07-17T10:53:45Z</time><extensions><speed>0.350828</speed><course>199.781464</course><hAcc>0.919206</hAcc><vAcc>0.751047</vAcc></extensions></trkpt>
      <trkpt lon="-4.136617" lat="53.002832"><ele>691.289917</ele><time>2021-07-17T10:53:46Z</time><extensions><speed>0.352980</speed><course>204.898392</course><hAcc>0.910803</hAcc><vAcc>0.740058</vAcc></extensions></trkpt>
      <trkpt lon="-4.136619" lat="53.002835"><ele>691.504089</ele><time>2021-07-17T10:53:47Z</time><extensions><speed>0.358315</speed><course>218.988647</course><hAcc>0.908307</hAcc><vAcc>0.735410</vAcc></extensions></trkpt>
      <trkpt lon="-4.136620" lat="53.002838"><ele>691.713013</ele><time>2021-07-17T10:53:48Z</time><extensions><speed>0.366711</speed><course>240.875916</course><hAcc>0.908207</hAcc><vAcc>0.733985</vAcc></extensions></trkpt>
      <trkpt lon="-4.136621" lat="53.002842"><ele>691.915466</ele><time>2021-07-17T10:53:49Z</time><extensions><speed>0.377660</speed><course>240.875916</course><hAcc>0.908541</hAcc><vAcc>0.733796</vAcc></extensions></trkpt>
      <trkpt lon="-4.136622" lat="53.002845"><ele>692.110107</ele><time>2021-07-17T10:53:50Z</time><extensions><speed>0.390196</speed><course>240.875916</course><hAcc>0.908395</hAcc><vAcc>0.733723</vAcc></extensions></trkpt>
      <trkpt lon="-4.136622" lat="53.002849"><ele>692.296204</ele><time>2021-07-17T10:53:51Z</time><extensions><speed>0.402898</speed><course>240.875916</course><hAcc>0.907490</hAcc><vAcc>0.733246</vAcc></extensions></trkpt>
      <trkpt lon="-4.136622" lat="53.002852"><ele>692.473694</ele><time>2021-07-17T10:53:52Z</time><extensions><speed>0.414724</speed><course>240.875916</course><hAcc>0.905894</hAcc><vAcc>0.732219</vAcc></extensions></trkpt>
      <trkpt lon="-4.136622" lat="53.002856"><ele>692.642883</ele><time>2021-07-17T10:53:53Z</time><extensions><speed>0.425249</speed><course>240.875916</course><hAcc>0.903820</hAcc><vAcc>0.730706</vAcc></extensions></trkpt>
      <trkpt lon="-4.136622" lat="53.002860"><ele>692.804077</ele><time>2021-07-17T10:53:54Z</time><extensions><speed>0.434153</speed><course>269.430084</course><hAcc>0.901519</hAcc><vAcc>0.728866</vAcc></extensions></trkpt>
      <trkpt lon="-4.136622" lat="53.002864"><ele>692.958069</ele><time>2021-07-17T10:53:55Z</time><extensions><speed>0.441650</speed><course>274.056000</course><hAcc>0.899208</hAcc><vAcc>0.726881</vAcc></extensions></trkpt>
      <trkpt lon="-4.136623" lat="53.002868"><ele>693.105713</ele><time>2021-07-17T10:53:56Z</time><extensions><speed>0.448292</speed><course>273.580658</course><hAcc>0.897051</hAcc><vAcc>0.724915</vAcc></extensions></trkpt>
      <trkpt lon="-4.136623" lat="53.002872"><ele>693.248169</ele><time>2021-07-17T10:53:57Z</time><extensions><speed>0.454342</speed><course>266.285736</course><hAcc>0.895151</hAcc><vAcc>0.723090</vAcc></extensions></trkpt>
      <trkpt lon="-4.136624" lat="53.002876"><ele>693.386536</ele><time>2021-07-17T10:53:58Z</time><extensions><speed>0.460087</speed><course>280.416809</course><hAcc>0.893555</hAcc><vAcc>0.721484</vAcc></extensions></trkpt>
      <trkpt lon="-4.136624" lat="53.002880"><ele>693.522278</ele><time>2021-07-17T10:53:59Z</time><extensions><speed>0.466025</speed><course>289.633057</course><hAcc>0.892270</hAcc><vAcc>0.720131</vAcc></extensions></trkpt>
      <trkpt lon="-4.136625" lat="53.002884"><ele>693.656494</ele><time>2021-07-17T10:54:00Z</time><extensions><speed>0.472617</speed><course>274.042023</course><hAcc>0.891275</hAcc><vAcc>0.719034</vAcc></extensions></trkpt>
      <trkpt lon="-4.136626" lat="53.002888"><ele>693.790161</ele><time>2021-07-17T10:54:01Z</time><extensions><speed>0.480245</speed><course>259.398621</course><hAcc>0.890532</hAcc><vAcc>0.718173</vAcc></extensions></trkpt>
      <trkpt lon="-4.136628" lat="53.002893"><ele>693.924011</ele><time>2021-07-17T10:54:02Z</time><extensions><speed>0.489098</speed><course>235.228027</course><hAcc>0.889997</hAcc><vAcc>0.717515</vAcc></extensions></trkpt>
      <trkpt lon="-4.136629" lat="53.002897"><ele>694.058838</ele><time>2021-07-17T10:54:03Z</time><extensions><speed>0.498880</speed><course>233.943741</course><hAcc>0.889625</hAcc><vAcc>0.717026</vAcc></extensions></trkpt>
      <trkpt lon="-4.136631" lat="53.002901"><ele>694.194946</ele><time>2021-07-17T10:54:04Z</time><extensions><speed>0.509052</speed><course>251.986771</course><hAcc>0.889375</hAcc><vAcc>0.716670</vAcc></extensions></trkpt>
      <trkpt lon="-4.136633" lat="53.002906"><ele>694.332520</ele><time>2021-07-17T10:54:05Z</time><extensions><speed>0.519002</speed><course>230.632401</course><hAcc>0.889213</hAcc><vAcc>0.716415</vAcc></extensions></trkpt>
      <trkpt lon="-4.136635" lat="53.002910"><ele>694.472168</ele><time>2021-07-17T10:54:06Z</time><extensions><speed>0.528060</speed><course>208.539734</course><hAcc>0.889112</hAcc><vAcc>0.716235</vAcc></extensions></trkpt>
      <trkpt lon="-4.136637" lat="53.002915"><ele>694.614624</ele><time>2021-07-17T10:54:07Z</time><extensions><speed>0.535919</speed><course>217.062653</course><hAcc>0.889052</hAcc><vAcc>0.716108</vAcc></extensions></trkpt>
      <trkpt lon="-4.136639" lat="53.002920"><ele>694.760620</ele><time>2021-07-17T10:54:08Z</time><extensions><speed>0.542364</speed><course>216.480164</course><hAcc>0.889016</hAcc><vAcc>0.716021</vAcc></extensions></trkpt>
      <trkpt lon="-4.136642" lat="53.002924"><ele>694.910461</ele><time>2021-07-17T10:54:09Z</time><extensions><speed>0.547047</speed><course>215.204285</course><hAcc>0.888997</hAcc><vAcc>0.715965</vAcc></extensions></trkpt>
      <trkpt lon="-4.136644" lat="53.002929"><ele>695.064392</ele><time>2021-07-17T10:54:10Z</time><extensions><speed>0.549668</speed><course>192.608246</course><hAcc>0.888986</hAcc><vAcc>0.715934</vAcc></extensions></trkpt>
      <trkpt lon="-4.136647" lat="53.002934"><ele>695.221985</ele><time>2021-07-17T10:54:11Z</time><extensions><speed>0.549852</speed><course>196.818375</course><hAcc>0.888981</hAcc><vAcc>0.715923</vAcc></extensions></trkpt>
      <trkpt lon="-4.136650" lat="53.002938"><ele>695.383057</ele><time>2021-07-17T10:54:12Z</time><extensions><speed>0.547448</speed><course>200.564194</course><hAcc>0.888980</hAcc><vAcc>0.715929</vAcc></extensions></trkpt>
      <trkpt lon="-4.136652" lat="53.002943"><ele>695.547302</ele><time>2021-07-17T10:54:13Z</time><extensions><speed>0.542673</speed><course>224.718231</course><hAcc>0.888982</hAcc><vAcc>0.715946</vAcc></extensions></trkpt>
      <trkpt lon="-4.136655" lat="53.002948"><ele>695.714294</ele><time>2021-07-17T10:54:14Z</time><extensions><speed>0.535863</speed><course>228.969803</course><hAcc>0.888988</hAcc><vAcc>0.715972</vAcc></extensions></trkpt>
      <trkpt lon="-4.136658" lat="53.002952"><ele>695.883606</ele><time>2021-07-17T10:54:15Z</time><extensions><speed>0.527316</speed><course>250.366501</course><hAcc>0.888997</hAcc><vAcc>0.716007</vAcc></extensions></trkpt>
      <trkpt lon="-4.136660" lat="53.002956"><ele>696.054749</ele><time>2021-07-17T10:54:16Z</time><extensions><speed>0.517398</speed><course>-1.000000</course><hAcc>0.889012</hAcc><vAcc>0.716053</vAcc></extensions></trkpt>
      <trkpt lon="-4.136663" lat="53.002961"><ele>696.227356</ele><time>2021-07-17T10:54:17Z</time><extensions><speed>0.506800</speed><course>232.063629</course><hAcc>0.889032</hAcc><vAcc>0.716111</vAcc></extensions></trkpt>
      <trkpt lon="-4.136666" lat="53.002965"><ele>696.400879</ele><time>2021-07-17T10:54:18Z</time><extensions><speed>0.496231</speed><course>232.063614</course><hAcc>0.889058</hAcc><vAcc>0.716187</vAcc></extensions></trkpt>
      <trkpt lon="-4.136669" lat="53.002969"><ele>696.575195</ele><time>2021-07-17T10:54:19Z</time><extensions><speed>0.486130</speed><course>232.063614</course><hAcc>0.889090</hAcc><vAcc>0.716284</vAcc></extensions></trkpt>
      <trkpt lon="-4.136671" lat="53.002973"><ele>696.750000</ele><time>2021-07-17T10:54:20Z</time><extensions><speed>0.476595</speed><course>232.063599</course><hAcc>0.889129</hAcc><vAcc>0.716407</vAcc></extensions></trkpt>
      <trkpt lon="-4.136674" lat="53.002977"><ele>696.925293</ele><time>2021-07-17T10:54:21Z</time><extensions><speed>0.467780</speed><course>232.063599</course><hAcc>0.889173</hAcc><vAcc>0.716558</vAcc></extensions></trkpt>
      <trkpt lon="-4.136677" lat="53.002981"><ele>697.101013</ele><time>2021-07-17T10:54:22Z</time><extensions><speed>0.460239</speed><course>232.063583</course><hAcc>0.889223</hAcc><vAcc>0.716735</vAcc></extensions></trkpt>
      <trkpt lon="-4.136681" lat="53.002984"><ele>697.277527</ele><time>2021-07-17T10:54:23Z</time><extensions><speed>0.454277</speed><course>232.063583</course><hAcc>0.889277</hAcc><vAcc>0.716934</vAcc></extensions></trkpt>
      <trkpt lon="-4.136684" lat="53.002988"><ele>697.455261</ele><time>2021-07-17T10:54:24Z</time><extensions><speed>0.450071</speed><course>248.555511</course><hAcc>0.889333</hAcc><vAcc>0.717147</vAcc></extensions></trkpt>
      <trkpt lon="-4.136688" lat="53.002991"><ele>697.635010</ele><time>2021-07-17T10:54:25Z</time><extensions><speed>0.447868</speed><course>214.727661</course><hAcc>0.889391</hAcc><vAcc>0.717362</vAcc></extensions></trkpt>
      <trkpt lon="-4.136692" lat="53.002994"><ele>697.817444</ele><time>2021-07-17T10:54:26Z</time><extensions><speed>0.447511</speed><course>215.656113</course><hAcc>0.889448</hAcc><vAcc>0.717569</vAcc></extensions></trkpt>
      <trkpt lon="-4.136697" lat="53.002997"><ele>698.003235</ele><time>2021-07-17T10:54:27Z</time><extensions><speed>0.448412</speed><course>205.637772</course><hAcc>0.889503</hAcc><vAcc>0.717761</vAcc></extensions></trkpt>
      <trkpt lon="-4.136702" lat="53.003000"><ele>698.193115</ele><time>2021-07-17T10:54:28Z</time><extensions><speed>0.449709</speed><course>201.575424</course><hAcc>0.889553</hAcc><vAcc>0.717931</vAcc></extensions></trkpt>
      <trkpt lon="-4.136707" lat="53.003003"><ele>698.387451</ele><time>2021-07-17T10:54:29Z</time><extensions><speed>0.450238</speed><course>196.854248</course><hAcc>0.889597</hAcc><vAcc>0.718077</vAcc></extensions></trkpt>
      <trkpt lon="-4.136712" lat="53.003005"><ele>698.586365</ele><time>2021-07-17T10:54:30Z</time><extensions><speed>0.448746</speed><course>198.264053</course><hAcc>0.889634</hAcc><vAcc>0.718197</vAcc></extensions></trkpt>
      <trkpt lon="-4.136717" lat="53.003008"><ele>698.789307</ele><time>2021-07-17T10:54:31Z</time><extensions><speed>0.444408</speed><course>198.636932</course><hAcc>0.889660</hAcc><vAcc>0.718290</vAcc></extensions></trkpt>
      <trkpt lon="-4.136722" lat="53.003010"><ele>698.995605</ele><time>2021-07-17T10:54:32Z</time><extensions><speed>0.437108</speed><course>192.727798</course><hAcc>0.889676</hAcc><vAcc>0.718352</vAcc></extensions></trkpt>
      <trkpt lon="-4.136727" lat="53.003013"><ele>699.204346</ele><time>2021-07-17T10:54:33Z</time><extensions><speed>0.427193</speed><course>184.691818</course><hAcc>0.889679</hAcc><vAcc>0.718381</vAcc></extensions></trkpt>
      <trkpt lon="-4.136731" lat="53.003016"><ele>699.414307</ele><time>2021-07-17T10:54:34Z</time><extensions><speed>0.416097</speed><course>177.917740</course><hAcc>0.889669</hAcc><vAcc>0.718373</vAcc></extensions></trkpt>
      <trkpt lon="-4.136735" lat="53.003018"><ele>699.624207</ele><time>2021-07-17T10:54:35Z</time><extensions><speed>0.406728</speed><course>169.935883</course><hAcc>0.889645</hAcc><vAcc>0.718324</vAcc></extensions></trkpt>
      <trkpt lon="-4.136739" lat="53.003021"><ele>699.832825</ele><time>2021-07-17T10:54:36Z</time><extensions><speed>0.402316</speed><course>168.290512</course><hAcc>0.889608</hAcc><vAcc>0.718229</vAcc></extensions></trkpt>
      <trkpt lon="-4.136742" lat="53.003024"><ele>700.038940</ele><time>2021-07-17T10:54:37Z</time><extensions><speed>0.405829</speed><course>175.847488</course><hAcc>0.889559</hAcc><vAcc>0.718084</vAcc></extensions></trkpt>
      <trkpt lon="-4.136744" lat="53.003028"><ele>700.241333</ele><time>2021-07-17T10:54:38Z</time><extensions><speed>0.419395</speed><course>182.489380</course><hAcc>0.889497</hAcc><vAcc>0.717892</vAcc></extensions></trkpt>
      <trkpt lon="-4.136746" lat="53.003032"><ele>700.438477</ele><time>2021-07-17T10:54:39Z</time><extensions><speed>0.443279</speed><course>193.224472</course><hAcc>0.889424</hAcc><vAcc>0.717657</vAcc></extensions></trkpt>
      <trkpt lon="-4.136747" lat="53.003036"><ele>700.628784</ele><time>2021-07-17T10:54:40Z</time><extensions><speed>0.475702</speed><course>210.457108</course><hAcc>0.889342</hAcc><vAcc>0.717390</vAcc></extensions></trkpt>
      <trkpt lon="-4.136747" lat="53.003040"><ele>700.810669</ele><time>2021-07-17T10:54:40Z</time><extensions><speed>0.514111</speed><course>227.054108</course><hAcc>0.889273</hAcc><vAcc>0.717115</vAcc></extensions></trkpt>
      <trkpt lon="-4.136747" lat="53.003045"><ele>700.982605</ele><time>2021-07-17T10:54:41Z</time><extensions><speed>0.556238</speed><course>247.666534</course><hAcc>0.889218</hAcc><vAcc>0.716849</vAcc></extensions></trkpt>
      <trkpt lon="-4.136747" lat="53.003050"><ele>701.142273</ele><time>2021-07-17T10:54:42Z</time><extensions><speed>0.599476</speed><course>261.197876</course><hAcc>0.889164</hAcc><vAcc>0.716593</vAcc></extensions></trkpt>
      <trkpt lon="-4.136746" lat="53.003056"><ele>701.288086</ele><time>2021-07-17T10:54:43Z</time><extensions><speed>0.641540</speed><course>263.217255</course><hAcc>0.889114</hAcc><vAcc>0.716366</vAcc></extensions></trkpt>
      <trkpt lon="-4.136746" lat="53.003062"><ele>701.418884</ele><time>2021-07-17T10:54:44Z</time><extensions><speed>0.680954</speed><course>271.463165</course><hAcc>0.889072</hAcc><vAcc>0.716184</vAcc></extensions></trkpt>
      <trkpt lon="-4.136745" lat="53.003068"><ele>701.533386</ele><time>2021-07-17T10:54:45Z</time><extensions><speed>0.716897</speed><course>281.991608</course><hAcc>0.889040</hAcc><vAcc>0.716057</vAcc></extensions></trkpt>
      <trkpt lon="-4.136744" lat="53.003074"><ele>701.630737</ele><time>2021-07-17T10:54:46Z</time><extensions><speed>0.748837</speed><course>285.895782</course><hAcc>0.889017</hAcc><vAcc>0.715992</vAcc></extensions></trkpt>
      <trkpt lon="-4.136744" lat="53.003081"><ele>701.710449</ele><time>2021-07-17T10:54:47Z</time><extensions><speed>0.776578</speed><course>287.327179</course><hAcc>0.889005</hAcc><vAcc>0.715986</vAcc></extensions></trkpt>
      <trkpt lon="-4.136743" lat="53.003088"><ele>701.772644</ele><time>2021-07-17T10:54:48Z</time><extensions><speed>0.799942</speed><course>297.396240</course><hAcc>0.889003</hAcc><vAcc>0.716026</vAcc></extensions></trkpt>
      <trkpt lon="-4.136743" lat="53.003096"><ele>701.817810</ele><time>2021-07-17T10:54:49Z</time><extensions><speed>0.818612</speed><course>299.473175</course><hAcc>0.889008</hAcc><vAcc>0.716099</vAcc></extensions></trkpt>
      <trkpt lon="-4.136743" lat="53.003103"><ele>701.847412</ele><time>2021-07-17T10:54:50Z</time><extensions><speed>0.832231</speed><course>297.683289</course><hAcc>0.889018</hAcc><vAcc>0.716184</vAcc></extensions></trkpt>
      <trkpt lon="-4.136743" lat="53.003110"><ele>701.863342</ele><time>2021-07-17T10:54:51Z</time><extensions><speed>0.840491</speed><course>292.365356</course><hAcc>0.889033</hAcc><vAcc>0.716266</vAcc></extensions></trkpt>
      <trkpt lon="-4.136743" lat="53.003118"><ele>701.867798</ele><time>2021-07-17T10:54:52Z</time><extensions><speed>0.843023</speed><course>291.092651</course><hAcc>0.889049</hAcc><vAcc>0.716336</vAcc></extensions></trkpt>
      <trkpt lon="-4.136743" lat="53.003126"><ele>701.863037</ele><time>2021-07-17T10:54:53Z</time><extensions><speed>0.839727</speed><course>297.007721</course><hAcc>0.889066</hAcc><vAcc>0.716387</vAcc></extensions></trkpt>
      <trkpt lon="-4.136744" lat="53.003133"><ele>701.851685</ele><time>2021-07-17T10:54:54Z</time><extensions><speed>0.830748</speed><course>291.539093</course><hAcc>0.889082</hAcc><vAcc>0.716420</vAcc></extensions></trkpt>
      <trkpt lon="-4.136745" lat="53.003140"><ele>701.836548</ele><time>2021-07-17T10:54:55Z</time><extensions><speed>0.816193</speed><course>293.314819</course><hAcc>0.889096</hAcc><vAcc>0.716439</vAcc></extensions></trkpt>
      <trkpt lon="-4.136746" lat="53.003148"><ele>701.820862</ele><time>2021-07-17T10:54:56Z</time><extensions><speed>0.796560</speed><course>297.043213</course><hAcc>0.889111</hAcc><vAcc>0.716453</vAcc></extensions></trkpt>
      <trkpt lon="-4.136747" lat="53.003155"><ele>701.807373</ele><time>2021-07-17T10:54:57Z</time><extensions><speed>0.772674</speed><course>301.573547</course><hAcc>0.889125</hAcc><vAcc>0.716469</vAcc></extensions></trkpt>
      <trkpt lon="-4.136749" lat="53.003161"><ele>701.798767</ele><time>2021-07-17T10:54:58Z</time><extensions><speed>0.745590</speed><course>305.542847</course><hAcc>0.889142</hAcc><vAcc>0.716495</vAcc></extensions></trkpt>
      <trkpt lon="-4.136751" lat="53.003168"><ele>701.797424</ele><time>2021-07-17T10:54:59Z</time><extensions><speed>0.716638</speed><course>304.461029</course><hAcc>0.889162</hAcc><vAcc>0.716538</vAcc></extensions></trkpt>
      <trkpt lon="-4.136753" lat="53.003174"><ele>701.805359</ele><time>2021-07-17T10:55:00Z</time><extensions><speed>0.687031</speed><course>304.519958</course><hAcc>0.889188</hAcc><vAcc>0.716605</vAcc></extensions></trkpt>
      <trkpt lon="-4.136757" lat="53.003180"><ele>701.824524</ele><time>2021-07-17T10:55:01Z</time><extensions><speed>0.657942</speed><course>306.835541</course><hAcc>0.889221</hAcc><vAcc>0.716699</vAcc></extensions></trkpt>
      <trkpt lon="-4.136760" lat="53.003185"><ele>701.856506</ele><time>2021-07-17T10:55:02Z</time><extensions><speed>0.630805</speed><course>312.924469</course><hAcc>0.889263</hAcc><vAcc>0.716824</vAcc></extensions></trkpt>
      <trkpt lon="-4.136765" lat="53.003190"><ele>701.902527</ele><time>2021-07-17T10:55:03Z</time><extensions><speed>0.606923</speed><course>313.121582</course><hAcc>0.889314</hAcc><vAcc>0.716983</vAcc></extensions></trkpt>
      <trkpt lon="-4.136769" lat="53.003194"><ele>701.963196</ele><time>2021-07-17T10:55:04Z</time><extensions><speed>0.586967</speed><course>312.363678</course><hAcc>0.889376</hAcc><vAcc>0.717180</vAcc></extensions></trkpt>
      <trkpt lon="-4.136775" lat="53.003199"><ele>702.038696</ele><time>2021-07-17T10:55:05Z</time><extensions><speed>0.570886</speed><course>309.905548</course><hAcc>0.889447</hAcc><vAcc>0.717415</vAcc></extensions></trkpt>
      <trkpt lon="-4.136781" lat="53.003202"><ele>702.128784</ele><time>2021-07-17T10:55:06Z</time><extensions><speed>0.558066</speed><course>308.597687</course><hAcc>0.889530</hAcc><vAcc>0.717687</vAcc></extensions></trkpt>
      <trkpt lon="-4.136787" lat="53.003206"><ele>702.232971</ele><time>2021-07-17T10:55:07Z</time><extensions><speed>0.547573</speed><course>307.103394</course><hAcc>0.889623</hAcc><vAcc>0.717993</vAcc></extensions></trkpt>
      <trkpt lon="-4.136793" lat="53.003208"><ele>702.350891</ele><time>2021-07-17T10:55:08Z</time><extensions><speed>0.538345</speed><course>306.897400</course><hAcc>0.889726</hAcc><vAcc>0.718329</vAcc></extensions></trkpt>
      <trkpt lon="-4.136800" lat="53.003211"><ele>702.481812</ele><time>2021-07-17T10:55:09Z</time><extensions><speed>0.529537</speed><course>302.152618</course><hAcc>0.889839</hAcc><vAcc>0.718690</vAcc></extensions></trkpt>
      <trkpt lon="-4.136807" lat="53.003213"><ele>702.625122</ele><time>2021-07-17T10:55:10Z</time><extensions><speed>0.520677</speed><course>297.726410</course><hAcc>0.889960</hAcc><vAcc>0.719072</vAcc></extensions></trkpt>
      <trkpt lon="-4.136814" lat="53.003215"><ele>702.780151</ele><time>2021-07-17T10:55:11Z</time><extensions><speed>0.511631</speed><course>300.194183</course><hAcc>0.890088</hAcc><vAcc>0.719476</vAcc></extensions></trkpt>
      <trkpt lon="-4.136821" lat="53.003217"><ele>702.946228</ele><time>2021-07-17T10:55:12Z</time><extensions><speed>0.502525</speed><course>297.151825</course><hAcc>0.890220</hAcc><vAcc>0.719902</vAcc></extensions></trkpt>
      <trkpt lon="-4.136828" lat="53.003218"><ele>703.122498</ele><time>2021-07-17T10:55:13Z</time><extensions><speed>0.493298</speed><course>298.399384</course><hAcc>0.890353</hAcc><vAcc>0.720351</vAcc></extensions></trkpt>
      <trkpt lon="-4.136835" lat="53.003219"><ele>703.307861</ele><time>2021-07-17T10:55:14Z</time><extensions><speed>0.483544</speed><course>300.837921</course><hAcc>0.890484</hAcc><vAcc>0.720817</vAcc></extensions></trkpt>
      <trkpt lon="-4.136842" lat="53.003219"><ele>703.501404</ele><time>2021-07-17T10:55:15Z</time><extensions><speed>0.473136</speed><course>299.844330</course><hAcc>0.890609</hAcc><vAcc>0.721287</vAcc></extensions></trkpt>
      <trkpt lon="-4.136849" lat="53.003219"><ele>703.702332</ele><time>2021-07-17T10:55:16Z</time><extensions><speed>0.462336</speed><course>300.001373</course><hAcc>0.890725</hAcc><vAcc>0.721740</vAcc></extensions></trkpt>
      <trkpt lon="-4.136856" lat="53.003219"><ele>703.909729</ele><time>2021-07-17T10:55:17Z</time><extensions><speed>0.451681</speed><course>294.568817</course><hAcc>0.890830</hAcc><vAcc>0.722152</vAcc></extensions></trkpt>
      <trkpt lon="-4.136863" lat="53.003218"><ele>704.122559</ele><time>2021-07-17T10:55:18Z</time><extensions><speed>0.441828</speed><course>300.687103</course><hAcc>0.890922</hAcc><vAcc>0.722500</vAcc></extensions></trkpt>
      <trkpt lon="-4.136869" lat="53.003217"><ele>704.339722</ele><time>2021-07-17T10:55:19Z</time><extensions><speed>0.433137</speed><course>297.691925</course><hAcc>0.890998</hAcc><vAcc>0.722768</vAcc></extensions></trkpt>
      <trkpt lon="-4.136875" lat="53.003216"><ele>704.559998</ele><time>2021-07-17T10:55:20Z</time><extensions><speed>0.426110</speed><course>293.928223</course><hAcc>0.891057</hAcc><vAcc>0.722945</vAcc></extensions></trkpt>
      <trkpt lon="-4.136881" lat="53.003215"><ele>704.781799</ele><time>2021-07-17T10:55:21Z</time><extensions><speed>0.421485</speed><course>297.041656</course><hAcc>0.891098</hAcc><vAcc>0.723033</vAcc></extensions></trkpt>
      <trkpt lon="-4.136886" lat="53.003213"><ele>705.003601</ele><time>2021-07-17T10:55:22Z</time><extensions><speed>0.419846</speed><course>298.722290</course><hAcc>0.891121</hAcc><vAcc>0.723043</vAcc></extensions></trkpt>
      <trkpt lon="-4.136892" lat="53.003211"><ele>705.223816</ele><time>2021-07-17T10:55:23Z</time><extensions><speed>0.421342</speed><course>296.674316</course><hAcc>0.891123</hAcc><vAcc>0.722993</vAcc></extensions></trkpt>
      <trkpt lon="-4.136897" lat="53.003209"><ele>705.441162</ele><time>2021-07-17T10:55:24Z</time><extensions><speed>0.425992</speed><course>301.147156</course><hAcc>0.891107</hAcc><vAcc>0.722901</vAcc></extensions></trkpt>
      <trkpt lon="-4.136902" lat="53.003206"><ele>705.654602</ele><time>2021-07-17T10:55:25Z</time><extensions><speed>0.433937</speed><course>301.618805</course><hAcc>0.891071</hAcc><vAcc>0.722779</vAcc></extensions></trkpt>
      <trkpt lon="-4.136907" lat="53.003204"><ele>705.863525</ele><time>2021-07-17T10:55:26Z</time><extensions><speed>0.444903</speed><course>300.678009</course><hAcc>0.891019</hAcc><vAcc>0.722626</vAcc></extensions></trkpt>
      <trkpt lon="-4.136912" lat="53.003201"><ele>706.067749</ele><time>2021-07-17T10:55:27Z</time><extensions><speed>0.457994</speed><course>306.078644</course><hAcc>0.890953</hAcc><vAcc>0.722439</vAcc></extensions></trkpt>
      <trkpt lon="-4.136916" lat="53.003198"><ele>706.267334</ele><time>2021-07-17T10:55:28Z</time><extensions><speed>0.472029</speed><course>302.099213</course><hAcc>0.890875</hAcc><vAcc>0.722210</vAcc></extensions></trkpt>
      <trkpt lon="-4.136921" lat="53.003194"><ele>706.462769</ele><time>2021-07-17T10:55:29Z</time><extensions><speed>0.486034</speed><course>298.253754</course><hAcc>0.890790</hAcc><vAcc>0.721935</vAcc></extensions></trkpt>
      <trkpt lon="-4.136925" lat="53.003191"><ele>706.654968</ele><time>2021-07-17T10:55:30Z</time><extensions><speed>0.499299</speed><course>299.772583</course><hAcc>0.890699</hAcc><vAcc>0.721616</vAcc></extensions></trkpt>
      <trkpt lon="-4.136930" lat="53.003187"><ele>706.845093</ele><time>2021-07-17T10:55:31Z</time><extensions><speed>0.511405</speed><course>299.946075</course><hAcc>0.890606</hAcc><vAcc>0.721265</vAcc></extensions></trkpt>
      <trkpt lon="-4.136934" lat="53.003184"><ele>707.034302</ele><time>2021-07-17T10:55:32Z</time><extensions><speed>0.521922</speed><course>303.968170</course><hAcc>0.890513</hAcc><vAcc>0.720899</vAcc></extensions></trkpt>
      <trkpt lon="-4.136939" lat="53.003180"><ele>707.223267</ele><time>2021-07-17T10:55:33Z</time><extensions><speed>0.530260</speed><course>302.223755</course><hAcc>0.890422</hAcc><vAcc>0.720539</vAcc></extensions></trkpt>
      <trkpt lon="-4.136944" lat="53.003176"><ele>707.412292</ele><time>2021-07-17T10:55:34Z</time><extensions><speed>0.536024</speed><course>303.590851</course><hAcc>0.890336</hAcc><vAcc>0.720205</vAcc></extensions></trkpt>
      <trkpt lon="-4.136948" lat="53.003172"><ele>707.601196</ele><time>2021-07-17T10:55:35Z</time><extensions><speed>0.538791</speed><course>302.656281</course><hAcc>0.890256</hAcc><vAcc>0.719913</vAcc></extensions></trkpt>
      <trkpt lon="-4.136953" lat="53.003168"><ele>707.789917</ele><time>2021-07-17T10:55:36Z</time><extensions><speed>0.538166</speed><course>307.857574</course><hAcc>0.890185</hAcc><vAcc>0.719672</vAcc></extensions></trkpt>
      <trkpt lon="-4.136958" lat="53.003164"><ele>707.978210</ele><time>2021-07-17T10:55:37Z</time><extensions><speed>0.534024</speed><course>306.241272</course><hAcc>0.890123</hAcc><vAcc>0.719484</vAcc></extensions></trkpt>
      <trkpt lon="-4.136963" lat="53.003161"><ele>708.166138</ele><time>2021-07-17T10:55:38Z</time><extensions><speed>0.526290</speed><course>302.560516</course><hAcc>0.890070</hAcc><vAcc>0.719347</vAcc></extensions></trkpt>
      <trkpt lon="-4.136968" lat="53.003157"><ele>708.353638</ele><time>2021-07-17T10:55:39Z</time><extensions><speed>0.514781</speed><course>304.207947</course><hAcc>0.890026</hAcc><vAcc>0.719251</vAcc></extensions></trkpt>
      <trkpt lon="-4.136973" lat="53.003154"><ele>708.540527</ele><time>2021-07-17T10:55:40Z</time><extensions><speed>0.499500</speed><course>304.678192</course><hAcc>0.889989</hAcc><vAcc>0.719183</vAcc></extensions></trkpt>
      <trkpt lon="-4.136979" lat="53.003151"><ele>708.726562</ele><time>2021-07-17T10:55:41Z</time><extensions><speed>0.480592</speed><course>300.816559</course><hAcc>0.889959</hAcc><vAcc>0.719128</vAcc></extensions></trkpt>
      <trkpt lon="-4.136984" lat="53.003148"><ele>708.911255</ele><time>2021-07-17T10:55:42Z</time><extensions><speed>0.458460</speed><course>302.457642</course><hAcc>0.889934</hAcc><vAcc>0.719074</vAcc></extensions></trkpt>
      <trkpt lon="-4.136989" lat="53.003145"><ele>709.093872</ele><time>2021-07-17T10:55:43Z</time><extensions><speed>0.433970</speed><course>303.405792</course><hAcc>0.889913</hAcc><vAcc>0.719014</vAcc></extensions></trkpt>
      <trkpt lon="-4.136993" lat="53.003143"><ele>709.273682</ele><time>2021-07-17T10:55:44Z</time><extensions><speed>0.407996</speed><course>305.179382</course><hAcc>0.889893</hAcc><vAcc>0.718944</vAcc></extensions></trkpt>
      <trkpt lon="-4.136998" lat="53.003141"><ele>709.450073</ele><time>2021-07-17T10:55:45Z</time><extensions><speed>0.381382</speed><course>301.811188</course><hAcc>0.889874</hAcc><vAcc>0.718865</vAcc></extensions></trkpt>
      <trkpt lon="-4.137003" lat="53.003139"><ele>709.622986</ele><time>2021-07-17T10:55:46Z</time><extensions><speed>0.355380</speed><course>294.111877</course><hAcc>0.889857</hAcc><vAcc>0.718778</vAcc></extensions></trkpt>
      <trkpt lon="-4.137008" lat="53.003138"><ele>709.792480</ele><time>2021-07-17T10:55:47Z</time><extensions><speed>0.332031</speed><course>291.186249</course><hAcc>0.889842</hAcc><vAcc>0.718686</vAcc></extensions></trkpt>
      <trkpt lon="-4.137012" lat="53.003137"><ele>709.958984</ele><time>2021-07-17T10:55:48Z</time><extensions><speed>0.313875</speed><course>291.833313</course><hAcc>0.889831</hAcc><vAcc>0.718592</vAcc></extensions></trkpt>
      <trkpt lon="-4.137017" lat="53.003136"><ele>710.123169</ele><time>2021-07-17T10:55:50Z</time><extensions><speed>0.303083</speed><course>293.198639</course><hAcc>0.889807</hAcc><vAcc>0.718489</vAcc></extensions></trkpt>
      <trkpt lon="-4.137021" lat="53.003136"><ele>710.285522</ele><time>2021-07-17T10:55:51Z</time><extensions><speed>0.300632</speed><course>297.953094</course><hAcc>0.889771</hAcc><vAcc>0.718383</vAcc></extensions></trkpt>
      <trkpt lon="-4.137026" lat="53.003136"><ele>710.447327</ele><time>2021-07-17T10:55:52Z</time><extensions><speed>0.305413</speed><course>294.998413</course><hAcc>0.889742</hAcc><vAcc>0.718296</vAcc></extensions></trkpt>
      <trkpt lon="-4.137030" lat="53.003137"><ele>710.609192</ele><time>2021-07-17T10:55:53Z</time><extensions><speed>0.315658</speed><course>290.333923</course><hAcc>0.889720</hAcc><vAcc>0.718235</vAcc></extensions></trkpt>
      <trkpt lon="-4.137035" lat="53.003137"><ele>710.771484</ele><time>2021-07-17T10:55:54Z</time><extensions><speed>0.329324</speed><course>297.336884</course><hAcc>0.889703</hAcc><vAcc>0.718201</vAcc></extensions></trkpt>
      <trkpt lon="-4.137040" lat="53.003138"><ele>710.934448</ele><time>2021-07-17T10:55:55Z</time><extensions><speed>0.343791</speed><course>291.763641</course><hAcc>0.889692</hAcc><vAcc>0.718194</vAcc></extensions></trkpt>
      <trkpt lon="-4.137045" lat="53.003139"><ele>711.098267</ele><time>2021-07-17T10:55:56Z</time><extensions><speed>0.356770</speed><course>293.588959</course><hAcc>0.889686</hAcc><vAcc>0.718208</vAcc></extensions></trkpt>
      <trkpt lon="-4.137050" lat="53.003141"><ele>711.263062</ele><time>2021-07-17T10:55:57Z</time><extensions><speed>0.366952</speed><course>298.534668</course><hAcc>0.889685</hAcc><vAcc>0.718238</vAcc></extensions></trkpt>
      <trkpt lon="-4.137055" lat="53.003142"><ele>711.428833</ele><time>2021-07-17T10:55:58Z</time><extensions><speed>0.373958</speed><course>294.834351</course><hAcc>0.889688</hAcc><vAcc>0.718274</vAcc></extensions></trkpt>
      <trkpt lon="-4.137060" lat="53.003143"><ele>711.595581</ele><time>2021-07-17T10:55:59Z</time><extensions><speed>0.377903</speed><course>297.698059</course><hAcc>0.889695</hAcc><vAcc>0.718309</vAcc></extensions></trkpt>
      <trkpt lon="-4.137065" lat="53.003144"><ele>711.762756</ele><time>2021-07-17T10:56:00Z</time><extensions><speed>0.379142</speed><course>298.511444</course><hAcc>0.889706</hAcc><vAcc>0.718343</vAcc></extensions></trkpt>
      <trkpt lon="-4.137070" lat="53.003146"><ele>711.929504</ele><time>2021-07-17T10:56:01Z</time><extensions><speed>0.377486</speed><course>303.054443</course><hAcc>0.889720</hAcc><vAcc>0.718375</vAcc></extensions></trkpt>
      <trkpt lon="-4.137075" lat="53.003147"><ele>712.095154</ele><time>2021-07-17T10:56:02Z</time><extensions><speed>0.372696</speed><course>300.594757</course><hAcc>0.889738</hAcc><vAcc>0.718411</vAcc></extensions></trkpt>
      <trkpt lon="-4.137080" lat="53.003148"><ele>712.258545</ele><time>2021-07-17T10:56:03Z</time><extensions><speed>0.364694</speed><course>303.489990</course><hAcc>0.889759</hAcc><vAcc>0.718454</vAcc></extensions></trkpt>
      <trkpt lon="-4.137085" lat="53.003150"><ele>712.418518</ele><time>2021-07-17T10:56:04Z</time><extensions><speed>0.353850</speed><course>307.296783</course><hAcc>0.889783</hAcc><vAcc>0.718512</vAcc></extensions></trkpt>
      <trkpt lon="-4.137090" lat="53.003151"><ele>712.573608</ele><time>2021-07-17T10:56:05Z</time><extensions><speed>0.341494</speed><course>306.846466</course><hAcc>0.889809</hAcc><vAcc>0.718590</vAcc></extensions></trkpt>
      <trkpt lon="-4.137094" lat="53.003153"><ele>712.722534</ele><time>2021-07-17T10:56:06Z</time><extensions><speed>0.328845</speed><course>314.303711</course><hAcc>0.889839</hAcc><vAcc>0.718692</vAcc></extensions></trkpt>
      <trkpt lon="-4.137099" lat="53.003154"><ele>712.864319</ele><time>2021-07-17T10:56:07Z</time><extensions><speed>0.316442</speed><course>316.753265</course><hAcc>0.889870</hAcc><vAcc>0.718815</vAcc></extensions></trkpt>
      <trkpt lon="-4.137103" lat="53.003155"><ele>712.998474</ele><time>2021-07-17T10:56:08Z</time><extensions><speed>0.304384</speed><course>312.101562</course><hAcc>0.889902</hAcc><vAcc>0.718951</vAcc></extensions></trkpt>
      <trkpt lon="-4.137107" lat="53.003156"><ele>713.125488</ele><time>2021-07-17T10:56:09Z</time><extensions><speed>0.292728</speed><course>310.983948</course><hAcc>0.889936</hAcc><vAcc>0.719090</vAcc></extensions></trkpt>
      <trkpt lon="-4.137110" lat="53.003158"><ele>713.246643</ele><time>2021-07-17T10:56:10Z</time><extensions><speed>0.281845</speed><course>316.824890</course><hAcc>0.889970</hAcc><vAcc>0.719221</vAcc></extensions></trkpt>
      <trkpt lon="-4.137114" lat="53.003159"><ele>713.363708</ele><time>2021-07-17T10:56:11Z</time><extensions><speed>0.273128</speed><course>324.005005</course><hAcc>0.890003</hAcc><vAcc>0.719338</vAcc></extensions></trkpt>
      <trkpt lon="-4.137118" lat="53.003160"><ele>713.478271</ele><time>2021-07-17T10:56:12Z</time><extensions><speed>0.267805</speed><course>322.091736</course><hAcc>0.890034</hAcc><vAcc>0.719437</vAcc></extensions></trkpt>
      <trkpt lon="-4.137121" lat="53.003161"><ele>713.591736</ele><time>2021-07-17T10:56:13Z</time><extensions><speed>0.265965</speed><course>322.830170</course><hAcc>0.890062</hAcc><vAcc>0.719518</vAcc></extensions></trkpt>
      <trkpt lon="-4.137125" lat="53.003162"><ele>713.705261</ele><time>2021-07-17T10:56:14Z</time><extensions><speed>0.267414</speed><course>325.823517</course><hAcc>0.890087</hAcc><vAcc>0.719585</vAcc></extensions></trkpt>
      <trkpt lon="-4.137128" lat="53.003163"><ele>713.819458</ele><time>2021-07-17T10:56:15Z</time><extensions><speed>0.271689</speed><course>331.853210</course><hAcc>0.890107</hAcc><vAcc>0.719637</vAcc></extensions></trkpt>
      <trkpt lon="-4.137132" lat="53.003165"><ele>713.934753</ele><time>2021-07-17T10:56:16Z</time><extensions><speed>0.277877</speed><course>331.260956</course><hAcc>0.890123</hAcc><vAcc>0.719679</vAcc></extensions></trkpt>
      <trkpt lon="-4.137135" lat="53.003166"><ele>714.051514</ele><time>2021-07-17T10:56:17Z</time><extensions><speed>0.285083</speed><course>329.072571</course><hAcc>0.890133</hAcc><vAcc>0.719713</vAcc></extensions></trkpt>
      <trkpt lon="-4.137139" lat="53.003168"><ele>714.169922</ele><time>2021-07-17T10:56:18Z</time><extensions><speed>0.293196</speed><course>325.473938</course><hAcc>0.890137</hAcc><vAcc>0.719738</vAcc></extensions></trkpt>
      <trkpt lon="-4.137142" lat="53.003169"><ele>714.289978</ele><time>2021-07-17T10:56:19Z</time><extensions><speed>0.302514</speed><course>325.383026</course><hAcc>0.890135</hAcc><vAcc>0.719751</vAcc></extensions></trkpt>
      <trkpt lon="-4.137145" lat="53.003171"><ele>714.411560</ele><time>2021-07-17T10:56:20Z</time><extensions><speed>0.312977</speed><course>325.061401</course><hAcc>0.890125</hAcc><vAcc>0.719745</vAcc></extensions></trkpt>
      <trkpt lon="-4.137149" lat="53.003173"><ele>714.534729</ele><time>2021-07-17T10:56:21Z</time><extensions><speed>0.324679</speed><course>325.207275</course><hAcc>0.890109</hAcc><vAcc>0.719716</vAcc></extensions></trkpt>
      <trkpt lon="-4.137152" lat="53.003176"><ele>714.659424</ele><time>2021-07-17T10:56:22Z</time><extensions><speed>0.337775</speed><course>322.410889</course><hAcc>0.890086</hAcc><vAcc>0.719657</vAcc></extensions></trkpt>
      <trkpt lon="-4.137155" lat="53.003178"><ele>714.785400</ele><time>2021-07-17T10:56:23Z</time><extensions><speed>0.351933</speed><course>319.218658</course><hAcc>0.890056</hAcc><vAcc>0.719565</vAcc></extensions></trkpt>
      <trkpt lon="-4.137158" lat="53.003181"><ele>714.912170</ele><time>2021-07-17T10:56:24Z</time><extensions><speed>0.366374</speed><course>319.790588</course><hAcc>0.890022</hAcc><vAcc>0.719440</vAcc></extensions></trkpt>
      <trkpt lon="-4.137161" lat="53.003184"><ele>715.039368</ele><time>2021-07-17T10:56:25Z</time><extensions><speed>0.380071</speed><course>318.972229</course><hAcc>0.889983</hAcc><vAcc>0.719289</vAcc></extensions></trkpt>
      <trkpt lon="-4.137164" lat="53.003187"><ele>715.166809</ele><time>2021-07-17T10:56:26Z</time><extensions><speed>0.392211</speed><course>320.354065</course><hAcc>0.889942</hAcc><vAcc>0.719119</vAcc></extensions></trkpt>
      <trkpt lon="-4.137167" lat="53.003190"><ele>715.294373</ele><time>2021-07-17T10:56:27Z</time><extensions><speed>0.402241</speed><course>320.541016</course><hAcc>0.889901</hAcc><vAcc>0.718942</vAcc></extensions></trkpt>
      <trkpt lon="-4.137170" lat="53.003193"><ele>715.422363</ele><time>2021-07-17T10:56:28Z</time><extensions><speed>0.409706</speed><course>317.906189</course><hAcc>0.889862</hAcc><vAcc>0.718770</vAcc></extensions></trkpt>
      <trkpt lon="-4.137173" lat="53.003196"><ele>715.551575</ele><time>2021-07-17T10:56:29Z</time><extensions><speed>0.414551</speed><course>316.077393</course><hAcc>0.889827</hAcc><vAcc>0.718618</vAcc></extensions></trkpt>
      <trkpt lon="-4.137177" lat="53.003199"><ele>715.682922</ele><time>2021-07-17T10:56:30Z</time><extensions><speed>0.417499</speed><course>307.356537</course><hAcc>0.889798</hAcc><vAcc>0.718496</vAcc></extensions></trkpt>
      <trkpt lon="-4.137181" lat="53.003202"><ele>715.817810</ele><time>2021-07-17T10:56:31Z</time><extensions><speed>0.419740</speed><course>302.004150</course><hAcc>0.889777</hAcc><vAcc>0.718417</vAcc></extensions></trkpt>
      <trkpt lon="-4.137185" lat="53.003204"><ele>715.957642</ele><time>2021-07-17T10:56:32Z</time><extensions><speed>0.422255</speed><course>310.520874</course><hAcc>0.889764</hAcc><vAcc>0.718383</vAcc></extensions></trkpt>
      <trkpt lon="-4.137190" lat="53.003207"><ele>716.103760</ele><time>2021-07-17T10:56:33Z</time><extensions><speed>0.425598</speed><course>307.778412</course><hAcc>0.889759</hAcc><vAcc>0.718394</vAcc></extensions></trkpt>
      <trkpt lon="-4.137196" lat="53.003209"><ele>716.256714</ele><time>2021-07-17T10:56:34Z</time><extensions><speed>0.429796</speed><course>310.132080</course><hAcc>0.889763</hAcc><vAcc>0.718441</vAcc></extensions></trkpt>
      <trkpt lon="-4.137201" lat="53.003211"><ele>716.416321</ele><time>2021-07-17T10:56:35Z</time><extensions><speed>0.434439</speed><course>310.327301</course><hAcc>0.889775</hAcc><vAcc>0.718513</vAcc></extensions></trkpt>
      <trkpt lon="-4.137207" lat="53.003212"><ele>716.581787</ele><time>2021-07-17T10:56:36Z</time><extensions><speed>0.439101</speed><course>308.925873</course><hAcc>0.889793</hAcc><vAcc>0.718600</vAcc></extensions></trkpt>
      <trkpt lon="-4.137213" lat="53.003213"><ele>716.752075</ele><time>2021-07-17T10:56:37Z</time><extensions><speed>0.443565</speed><course>308.955322</course><hAcc>0.889818</hAcc><vAcc>0.718693</vAcc></extensions></trkpt>
      <trkpt lon="-4.137220" lat="53.003214"><ele>716.925842</ele><time>2021-07-17T10:56:38Z</time><extensions><speed>0.447861</speed><course>303.152588</course><hAcc>0.889846</hAcc><vAcc>0.718788</vAcc></extensions></trkpt>
      <trkpt lon="-4.137227" lat="53.003215"><ele>717.101990</ele><time>2021-07-17T10:56:39Z</time><extensions><speed>0.451406</speed><course>313.156525</course><hAcc>0.889875</hAcc><vAcc>0.718887</vAcc></extensions></trkpt>
      <trkpt lon="-4.137233" lat="53.003216"><ele>717.279419</ele><time>2021-07-17T10:56:40Z</time><extensions><speed>0.452555</speed><course>307.864197</course><hAcc>0.889904</hAcc><vAcc>0.718989</vAcc></extensions></trkpt>
      <trkpt lon="-4.137240" lat="53.003216"><ele>717.456848</ele><time>2021-07-17T10:56:41Z</time><extensions><speed>0.449899</speed><course>309.541687</course><hAcc>0.889930</hAcc><vAcc>0.719092</vAcc></extensions></trkpt>
      <trkpt lon="-4.137246" lat="53.003217"><ele>717.633057</ele><time>2021-07-17T10:56:42Z</time><extensions><speed>0.442805</speed><course>312.130341</course><hAcc>0.889952</hAcc><vAcc>0.719191</vAcc></extensions></trkpt>
      <trkpt lon="-4.137253" lat="53.003217"><ele>717.806641</ele><time>2021-07-17T10:56:43Z</time><extensions><speed>0.431252</speed><course>310.268982</course><hAcc>0.889968</hAcc><vAcc>0.719277</vAcc></extensions></trkpt>
      <trkpt lon="-4.137259" lat="53.003217"><ele>717.976501</ele><time>2021-07-17T10:56:44Z</time><extensions><speed>0.415741</speed><course>308.247070</course><hAcc>0.889976</hAcc><vAcc>0.719343</vAcc></extensions></trkpt>
      <trkpt lon="-4.137265" lat="53.003218"><ele>718.141052</ele><time>2021-07-17T10:56:45Z</time><extensions><speed>0.397227</speed><course>304.229858</course><hAcc>0.889976</hAcc><vAcc>0.719383</vAcc></extensions></trkpt>
      <trkpt lon="-4.137271" lat="53.003219"><ele>718.298889</ele><time>2021-07-17T10:56:46Z</time><extensions><speed>0.377213</speed><course>308.310059</course><hAcc>0.889966</hAcc><vAcc>0.719394</vAcc></extensions></trkpt>
      <trkpt lon="-4.137276" lat="53.003220"><ele>718.447998</ele><time>2021-07-17T10:56:46Z</time><extensions><speed>0.357729</speed><course>311.142822</course><hAcc>0.889962</hAcc><vAcc>0.719388</vAcc></extensions></trkpt>
      <trkpt lon="-4.137281" lat="53.003221"><ele>718.586975</ele><time>2021-07-17T10:56:47Z</time><extensions><speed>0.341302</speed><course>305.518036</course><hAcc>0.889966</hAcc><vAcc>0.719363</vAcc></extensions></trkpt>
      <trkpt lon="-4.137285" lat="53.003222"><ele>718.714355</ele><time>2021-07-17T10:56:48Z</time><extensions><speed>0.330742</speed><course>303.061462</course><hAcc>0.889960</hAcc><vAcc>0.719309</vAcc></extensions></trkpt>
      <trkpt lon="-4.137289" lat="53.003224"><ele>718.829285</ele><time>2021-07-17T10:56:49Z</time><extensions><speed>0.328025</speed><course>298.232086</course><hAcc>0.889947</hAcc><vAcc>0.719227</vAcc></extensions></trkpt>
      <trkpt lon="-4.137293" lat="53.003226"><ele>718.931396</ele><time>2021-07-17T10:56:50Z</time><extensions><speed>0.333362</speed><course>289.358276</course><hAcc>0.889929</hAcc><vAcc>0.719125</vAcc></extensions></trkpt>
      <trkpt lon="-4.137296" lat="53.003229"><ele>719.020935</ele><time>2021-07-17T10:56:51Z</time><extensions><speed>0.344705</speed><course>285.924469</course><hAcc>0.889909</hAcc><vAcc>0.719012</vAcc></extensions></trkpt>
      <trkpt lon="-4.137299" lat="53.003231"><ele>719.098328</ele><time>2021-07-17T10:56:52Z</time><extensions><speed>0.359095</speed><course>280.520447</course><hAcc>0.889889</hAcc><vAcc>0.718902</vAcc></extensions></trkpt>
      <trkpt lon="-4.137302" lat="53.003234"><ele>719.164429</ele><time>2021-07-17T10:56:53Z</time><extensions><speed>0.374028</speed><course>286.862061</course><hAcc>0.889872</hAcc><vAcc>0.718804</vAcc></extensions></trkpt>
      <trkpt lon="-4.137305" lat="53.003237"><ele>719.220215</ele><time>2021-07-17T10:56:54Z</time><extensions><speed>0.387889</speed><course>295.700317</course><hAcc>0.889859</hAcc><vAcc>0.718730</vAcc></extensions></trkpt>
      <trkpt lon="-4.137308" lat="53.003240"><ele>719.267090</ele><time>2021-07-17T10:56:55Z</time><extensions><speed>0.399945</speed><course>296.161560</course><hAcc>0.889852</hAcc><vAcc>0.718685</vAcc></extensions></trkpt>
      <trkpt lon="-4.137311" lat="53.003243"><ele>719.306213</ele><time>2021-07-17T10:56:56Z</time><extensions><speed>0.409845</speed><course>298.229218</course><hAcc>0.889853</hAcc><vAcc>0.718675</vAcc></extensions></trkpt>
      <trkpt lon="-4.137315" lat="53.003246"><ele>719.338684</ele><time>2021-07-17T10:56:57Z</time><extensions><speed>0.417570</speed><course>297.545471</course><hAcc>0.889861</hAcc><vAcc>0.718701</vAcc></extensions></trkpt>
      <trkpt lon="-4.137319" lat="53.003249"><ele>719.365540</ele><time>2021-07-17T10:56:58Z</time><extensions><speed>0.423143</speed><course>292.454163</course><hAcc>0.889876</hAcc><vAcc>0.718763</vAcc></extensions></trkpt>
      <trkpt lon="-4.137323" lat="53.003252"><ele>719.388000</ele><time>2021-07-17T10:56:59Z</time><extensions><speed>0.426479</speed><course>287.195465</course><hAcc>0.889895</hAcc><vAcc>0.718853</vAcc></extensions></trkpt>
      <trkpt lon="-4.137328" lat="53.003254"><ele>719.407166</ele><time>2021-07-17T10:57:00Z</time><extensions><speed>0.427237</speed><course>283.339600</course><hAcc>0.889918</hAcc><vAcc>0.718965</vAcc></extensions></trkpt>
      <trkpt lon="-4.137333" lat="53.003256"><ele>719.424072</ele><time>2021-07-17T10:57:01Z</time><extensions><speed>0.424498</speed><course>283.687531</course><hAcc>0.889939</hAcc><vAcc>0.719087</vAcc></extensions></trkpt>
      <trkpt lon="-4.137338" lat="53.003259"><ele>719.439514</ele><time>2021-07-17T10:57:02Z</time><extensions><speed>0.416842</speed><course>284.089417</course><hAcc>0.889957</hAcc><vAcc>0.719205</vAcc></extensions></trkpt>
      <trkpt lon="-4.137344" lat="53.003260"><ele>719.453491</ele><time>2021-07-17T10:57:03Z</time><extensions><speed>0.403063</speed><course>286.432800</course><hAcc>0.889967</hAcc><vAcc>0.719301</vAcc></extensions></trkpt>
      <trkpt lon="-4.137349" lat="53.003262"><ele>719.465820</ele><time>2021-07-17T10:57:04Z</time><extensions><speed>0.382290</speed><course>288.844025</course><hAcc>0.889967</hAcc><vAcc>0.719359</vAcc></extensions></trkpt>
      <trkpt lon="-4.137354" lat="53.003263"><ele>719.476013</ele><time>2021-07-17T10:57:05Z</time><extensions><speed>0.354030</speed><course>294.600861</course><hAcc>0.889954</hAcc><vAcc>0.719359</vAcc></extensions></trkpt>
      <trkpt lon="-4.137358" lat="53.003264"><ele>719.483948</ele><time>2021-07-17T10:57:06Z</time><extensions><speed>0.318833</speed><course>289.399475</course><hAcc>0.889927</hAcc><vAcc>0.719290</vAcc></extensions></trkpt>
      <trkpt lon="-4.137363" lat="53.003265"><ele>719.489380</ele><time>2021-07-17T10:57:07Z</time><extensions><speed>0.278531</speed><course>292.462738</course><hAcc>0.889887</hAcc><vAcc>0.719145</vAcc></extensions></trkpt>
      <trkpt lon="-4.137366" lat="53.003266"><ele>719.491943</ele><time>2021-07-17T10:57:08Z</time><extensions><speed>0.235829</speed><course>292.044128</course><hAcc>0.889835</hAcc><vAcc>0.718930</vAcc></extensions></trkpt>
      <trkpt lon="-4.137369" lat="53.003267"><ele>719.491333</ele><time>2021-07-17T10:57:09Z</time><extensions><speed>0.193696</speed><course>289.426849</course><hAcc>0.889771</hAcc><vAcc>0.718656</vAcc></extensions></trkpt>
      <trkpt lon="-4.137371" lat="53.003268"><ele>719.487549</ele><time>2021-07-17T10:57:10Z</time><extensions><speed>0.154505</speed><course>292.821838</course><hAcc>0.889700</hAcc><vAcc>0.718345</vAcc></extensions></trkpt>
      <trkpt lon="-4.137373" lat="53.003268"><ele>719.480530</ele><time>2021-07-17T10:57:11Z</time><extensions><speed>0.119525</speed><course>287.405121</course><hAcc>0.889626</hAcc><vAcc>0.718020</vAcc></extensions></trkpt>
      <trkpt lon="-4.137375" lat="53.003268"><ele>719.470276</ele><time>2021-07-17T10:57:12Z</time><extensions><speed>0.089347</speed><course>289.328461</course><hAcc>0.889553</hAcc><vAcc>0.717705</vAcc></extensions></trkpt>
      <trkpt lon="-4.137376" lat="53.003269"><ele>719.456848</ele><time>2021-07-17T10:57:13Z</time><extensions><speed>0.064158</speed><course>290.686554</course><hAcc>0.889487</hAcc><vAcc>0.717421</vAcc></extensions></trkpt>
      <trkpt lon="-4.137376" lat="53.003269"><ele>719.440125</ele><time>2021-07-17T10:57:14Z</time><extensions><speed>0.044050</speed><course>291.519623</course><hAcc>0.889434</hAcc><vAcc>0.717189</vAcc></extensions></trkpt>
      <trkpt lon="-4.137377" lat="53.003269"><ele>719.420166</ele><time>2021-07-17T10:57:15Z</time><extensions><speed>0.029062</speed><course>289.260345</course><hAcc>0.889401</hAcc><vAcc>0.717029</vAcc></extensions></trkpt>
      <trkpt lon="-4.137377" lat="53.003269"><ele>719.397339</ele><time>2021-07-17T10:57:16Z</time><extensions><speed>0.019123</speed><course>291.671295</course><hAcc>0.889393</hAcc><vAcc>0.716959</vAcc></extensions></trkpt>
      <trkpt lon="-4.137377" lat="53.003270"><ele>719.372131</ele><time>2021-07-17T10:57:17Z</time><extensions><speed>0.013702</speed><course>285.797272</course><hAcc>0.889417</hAcc><vAcc>0.716995</vAcc></extensions></trkpt>
      <trkpt lon="-4.137377" lat="53.003270"><ele>719.345398</ele><time>2021-07-17T10:57:18Z</time><extensions><speed>0.011330</speed><course>284.045776</course><hAcc>0.889483</hAcc><vAcc>0.717153</vAcc></extensions></trkpt>
      <trkpt lon="-4.137377" lat="53.003270"><ele>719.318115</ele><time>2021-07-17T10:57:19Z</time><extensions><speed>0.010262</speed><course>290.744446</course><hAcc>0.889598</hAcc><vAcc>0.717447</vAcc></extensions></trkpt>
      <trkpt lon="-4.137377" lat="53.003270"><ele>719.291260</ele><time>2021-07-17T10:57:20Z</time><extensions><speed>0.009592</speed><course>286.155334</course><hAcc>0.889776</hAcc><vAcc>0.717889</vAcc></extensions></trkpt>
      <trkpt lon="-4.137377" lat="53.003270"><ele>719.265686</ele><time>2021-07-17T10:57:21Z</time><extensions><speed>0.009103</speed><course>292.078705</course><hAcc>0.890032</hAcc><vAcc>0.718495</vAcc></extensions></trkpt>
      <trkpt lon="-4.137377" lat="53.003270"><ele>719.241760</ele><time>2021-07-17T10:57:22Z</time><extensions><speed>0.008831</speed><course>292.906311</course><hAcc>0.890385</hAcc><vAcc>0.719278</vAcc></extensions></trkpt>
      <trkpt lon="-4.137376" lat="53.003270"><ele>719.219971</ele><time>2021-07-17T10:57:23Z</time><extensions><speed>0.008771</speed><course>291.462067</course><hAcc>0.890862</hAcc><vAcc>0.720248</vAcc></extensions></trkpt>
      <trkpt lon="-4.137376" lat="53.003270"><ele>719.200378</ele><time>2021-07-17T10:57:24Z</time><extensions><speed>0.008756</speed><course>290.448425</course><hAcc>0.891490</hAcc><vAcc>0.721410</vAcc></extensions></trkpt>
      <trkpt lon="-4.137376" lat="53.003270"><ele>719.183105</ele><time>2021-07-17T10:57:25Z</time><extensions><speed>0.008661</speed><course>295.857269</course><hAcc>0.892304</hAcc><vAcc>0.722758</vAcc></extensions></trkpt>
      <trkpt lon="-4.137376" lat="53.003270"><ele>719.168091</ele><time>2021-07-17T10:57:26Z</time><extensions><speed>0.008441</speed><course>298.185364</course><hAcc>0.893337</hAcc><vAcc>0.724282</vAcc></extensions></trkpt>
      <trkpt lon="-4.137376" lat="53.003270"><ele>719.155334</ele><time>2021-07-17T10:57:27Z</time><extensions><speed>0.008092</speed><course>294.469940</course><hAcc>0.894616</hAcc><vAcc>0.725966</vAcc></extensions></trkpt>
      <trkpt lon="-4.137376" lat="53.003270"><ele>719.144653</ele><time>2021-07-17T10:57:28Z</time><extensions><speed>0.007631</speed><course>292.898438</course><hAcc>0.896159</hAcc><vAcc>0.727781</vAcc></extensions></trkpt>
      <trkpt lon="-4.137376" lat="53.003269"><ele>719.135803</ele><time>2021-07-17T10:57:29Z</time><extensions><speed>0.007084</speed><course>292.422791</course><hAcc>0.897960</hAcc><vAcc>0.729679</vAcc></extensions></trkpt>
      <trkpt lon="-4.137376" lat="53.003269"><ele>719.128723</ele><time>2021-07-17T10:57:30Z</time><extensions><speed>0.006477</speed><course>292.622986</course><hAcc>0.899980</hAcc><vAcc>0.731586</vAcc></extensions></trkpt>
      <trkpt lon="-4.137376" lat="53.003269"><ele>719.123169</ele><time>2021-07-17T10:57:31Z</time><extensions><speed>0.005836</speed><course>292.749084</course><hAcc>0.902139</hAcc><vAcc>0.733400</vAcc></extensions></trkpt>
      <trkpt lon="-4.137376" lat="53.003269"><ele>719.118958</ele><time>2021-07-17T10:57:32Z</time><extensions><speed>0.005185</speed><course>294.832458</course><hAcc>0.904309</hAcc><vAcc>0.734996</vAcc></extensions></trkpt>
      <trkpt lon="-4.137376" lat="53.003269"><ele>719.115845</ele><time>2021-07-17T10:57:33Z</time><extensions><speed>0.004544</speed><course>290.563019</course><hAcc>0.906318</hAcc><vAcc>0.736239</vAcc></extensions></trkpt>
      <trkpt lon="-4.137376" lat="53.003269"><ele>719.113770</ele><time>2021-07-17T10:57:34Z</time><extensions><speed>0.003929</speed><course>288.082062</course><hAcc>0.907974</hAcc><vAcc>0.737024</vAcc></extensions></trkpt>
      <trkpt lon="-4.137376" lat="53.003269"><ele>719.112427</ele><time>2021-07-17T10:57:35Z</time><extensions><speed>0.003354</speed><course>289.238037</course><hAcc>0.909117</hAcc><vAcc>0.737334</vAcc></extensions></trkpt>
      <trkpt lon="-4.137376" lat="53.003269"><ele>719.111755</ele><time>2021-07-17T10:57:36Z</time><extensions><speed>0.002829</speed><course>289.037109</course><hAcc>0.909722</hAcc><vAcc>0.737345</vAcc></extensions></trkpt>
      <trkpt lon="-4.137376" lat="53.003269"><ele>719.111633</ele><time>2021-07-17T10:57:37Z</time><extensions><speed>0.002361</speed><course>291.884949</course><hAcc>0.910065</hAcc><vAcc>0.737563</vAcc></extensions></trkpt>
      <trkpt lon="-4.137376" lat="53.003269"><ele>719.111877</ele><time>2021-07-17T10:57:38Z</time><extensions><speed>0.001953</speed><course>287.567657</course><hAcc>0.910978</hAcc><vAcc>0.739027</vAcc></extensions></trkpt>
      <trkpt lon="-4.137376" lat="53.003269"><ele>719.112488</ele><time>2021-07-17T10:57:39Z</time><extensions><speed>0.001609</speed><course>291.768890</course><hAcc>0.914206</hAcc><vAcc>0.743537</vAcc></extensions></trkpt>
      <trkpt lon="-4.137376" lat="53.003269"><ele>719.113281</ele><time>2021-07-17T10:57:40Z</time><extensions><speed>0.001326</speed><course>296.126740</course><hAcc>0.922834</hAcc><vAcc>0.753884</vAcc></extensions></trkpt>
      <trkpt lon="-4.137376" lat="53.003269"><ele>719.114258</ele><time>2021-07-17T10:57:41Z</time><extensions><speed>0.001103</speed><course>297.059143</course><hAcc>0.941693</hAcc><vAcc>0.773969</vAcc></extensions></trkpt>
      <trkpt lon="-4.137376" lat="53.003269"><ele>719.115295</ele><time>2021-07-17T10:57:42Z</time><extensions><speed>0.000935</speed><course>303.696320</course><hAcc>0.977473</hAcc><vAcc>0.808649</vAcc></extensions></trkpt>
      <trkpt lon="-4.137376" lat="53.003269"><ele>719.124329</ele><time>2021-07-17T10:57:43Z</time><extensions><speed>0.000000</speed><course>207.637573</course><hAcc>0.939611</hAcc><vAcc>0.773660</vAcc></extensions></trkpt>
      <trkpt lon="-4.137376" lat="53.003269"><ele>719.124329</ele><time>2021-07-17T10:57:44Z</time><extensions><speed>0.000000</speed><course>199.781464</course><hAcc>0.920360</hAcc><vAcc>0.752902</vAcc></extensions></trkpt>
      <trkpt lon="-4.137376" lat="53.003269"><ele>719.124329</ele><time>2021-07-17T10:57:45Z</time><extensions><speed>0.000000</speed><course>204.898392</course><hAcc>0.912698</hAcc><vAcc>0.743094</vAcc></extensions></trkpt>
      <trkpt lon="-4.137376" lat="53.003269"><ele>719.124329</ele><time>2021-07-17T10:57:46Z</time><extensions><speed>0.000000</speed><course>218.988647</course><hAcc>0.911146</hAcc><vAcc>0.739898</vAcc></extensions></trkpt>
      <trkpt lon="-4.137376" lat="53.003269"><ele>719.124329</ele><time>2021-07-17T10:57:47Z</time><extensions><speed>0.000000</speed><course>240.875916</course><hAcc>0.912217</hAcc><vAcc>0.740195</vAcc></extensions></trkpt>
      <trkpt lon="-4.137376" lat="53.003269"><ele>719.124329</ele><time>2021-07-17T10:57:48Z</time><extensions><speed>0.000000</speed><course>240.875916</course><hAcc>0.913970</hAcc><vAcc>0.741967</vAcc></extensions></trkpt>
      <trkpt lon="-4.137376" lat="53.003269"><ele>719.124329</ele><time>2021-07-17T10:57:49Z</time><extensions><speed>0.000000</speed><course>240.875916</course><hAcc>0.915505</hAcc><vAcc>0.744042</vAcc></extensions></trkpt>
      <trkpt lon="-4.137376" lat="53.003269"><ele>719.124329</ele><time>2021-07-17T10:57:51Z</time><extensions><speed>0.000000</speed><course>240.875916</course><hAcc>0.916516</hAcc><vAcc>0.745812</vAcc></extensions></trkpt>
      <trkpt lon="-4.137376" lat="53.003269"><ele>719.124329</ele><time>2021-07-17T10:57:52Z</time><extensions><speed>0.000000</speed><course>240.875916</course><hAcc>0.917027</hAcc><vAcc>0.747024</vAcc></extensions></trkpt>
      <trkpt lon="-4.137376" lat="53.003269"><ele>719.124329</ele><time>2021-07-17T10:57:53Z</time><extensions><speed>0.000000</speed><course>240.875916</course><hAcc>0.917188</hAcc><vAcc>0.747627</vAcc></extensions></trkpt>
      <trkpt lon="-4.137376" lat="53.003269"><ele>719.124329</ele><time>2021-07-17T10:57:54Z</time><extensions><speed>0.000000</speed><course>269.430084</course><hAcc>0.917113</hAcc><vAcc>0.747636</vAcc></extensions></trkpt>
      <trkpt lon="-4.137376" lat="53.003269"><ele>719.124329</ele><time>2021-07-17T10:57:55Z</time><extensions><speed>0.000000</speed><course>274.056000</course><hAcc>0.916846</hAcc><vAcc>0.747084</vAcc></extensions></trkpt>
      <trkpt lon="-4.137376" lat="53.003269"><ele>719.124329</ele><time>2021-07-17T10:57:56Z</time><extensions><speed>0.000000</speed><course>273.580658</course><hAcc>0.916355</hAcc><vAcc>0.746024</vAcc></extensions></trkpt>
      <trkpt lon="-4.137376" lat="53.003269"><ele>719.124329</ele><time>2021-07-17T10:57:57Z</time><extensions><speed>0.000000</speed><course>266.285736</course><hAcc>0.915581</hAcc><vAcc>0.744564</vAcc></extensions></trkpt>
      <trkpt lon="-4.137376" lat="53.003269"><ele>719.124329</ele><time>2021-07-17T10:57:58Z</time><extensions><speed>0.000000</speed><course>280.416809</course><hAcc>0.914550</hAcc><vAcc>0.742968</vAcc></extensions></trkpt>
      <trkpt lon="-4.137376" lat="53.003269"><ele>719.124329</ele><time>2021-07-17T10:57:59Z</time><extensions><speed>0.000000</speed><course>289.633057</course><hAcc>0.913550</hAcc><vAcc>0.741796</vAcc></extensions></trkpt>
      <trkpt lon="-4.137376" lat="53.003269"><ele>719.124329</ele><time>2021-07-17T10:58:00Z</time><extensions><speed>0.000000</speed><course>274.042023</course><hAcc>0.913400</hAcc><vAcc>0.742107</vAcc></extensions></trkpt>
      <trkpt lon="-4.137376" lat="53.003269"><ele>719.124329</ele><time>2021-07-17T10:58:01Z</time><extensions><speed>0.000000</speed><course>259.398621</course><hAcc>0.915819</hAcc><vAcc>0.745707</vAcc></extensions></trkpt>
      <trkpt lon="-4.137376" lat="53.003269"><ele>719.124329</ele><time>2021-07-17T10:58:02Z</time><extensions><speed>0.000000</speed><course>235.228027</course><hAcc>0.923863</hAcc><vAcc>0.755381</vAcc></extensions></trkpt>
      <trkpt lon="-4.137376" lat="53.003269"><ele>719.124329</ele><time>2021-07-17T10:58:03Z</time><extensions><speed>0.000000</speed><course>233.943741</course><hAcc>0.942333</hAcc><vAcc>0.775017</vAcc></extensions></trkpt>
      <trkpt lon="-4.137376" lat="53.003269"><ele>719.124329</ele><time>2021-07-17T10:58:04Z</time><extensions><speed>0.000000</speed><course>251.986771</course><hAcc>0.977891</hAcc><vAcc>0.809454</vAcc></extensions></trkpt>
      <trkpt lon="-4.137376" lat="53.003269"><ele>719.128906</ele><time>2021-07-17T10:58:05Z</time><extensions><speed>0.004727</speed><course>207.637573</course><hAcc>0.939196</hAcc><vAcc>0.773207</vAcc></extensions></trkpt>
      <trkpt lon="-4.137376" lat="53.003269"><ele>719.132019</ele><time>2021-07-17T10:58:06Z</time><extensions><speed>0.005762</speed><course>199.781464</course><hAcc>0.919537</hAcc><vAcc>0.751895</vAcc></extensions></trkpt>
      <trkpt lon="-4.137376" lat="53.003269"><ele>719.135132</ele><time>2021-07-17T10:58:07Z</time><extensions><speed>0.007312</speed><course>204.898392</course><hAcc>0.911291</hAcc><vAcc>0.741327</vAcc></extensions></trkpt>
      <trkpt lon="-4.137376" lat="53.003269"><ele>719.138245</ele><time>2021-07-17T10:58:08Z</time><extensions><speed>0.009442</speed><course>218.988647</course><hAcc>0.908958</hAcc><vAcc>0.737161</vAcc></extensions></trkpt>
      <trkpt lon="-4.137376" lat="53.003269"><ele>719.141235</ele><time>2021-07-17T10:58:09Z</time><extensions><speed>0.012198</speed><course>240.875916</course><hAcc>0.909025</hAcc><vAcc>0.736280</vAcc></extensions></trkpt>
      <trkpt lon="-4.137376" lat="53.003269"><ele>719.144043</ele><time>2021-07-17T10:58:10Z</time><extensions><speed>0.015613</speed><course>240.875916</course><hAcc>0.909527</hAcc><vAcc>0.736676</vAcc></extensions></trkpt>
      <trkpt lon="-4.137376" lat="53.003269"><ele>719.146606</ele><time>2021-07-17T10:58:11Z</time><extensions><speed>0.019709</speed><course>240.875916</course><hAcc>0.909549</hAcc><vAcc>0.737204</vAcc></extensions></trkpt>
      <trkpt lon="-4.137376" lat="53.003270"><ele>719.148743</ele><time>2021-07-17T10:58:12Z</time><extensions><speed>0.024495</speed><course>240.875916</course><hAcc>0.908809</hAcc><vAcc>0.737317</vAcc></extensions></trkpt>
      <trkpt lon="-4.137376" lat="53.003270"><ele>719.150330</ele><time>2021-07-17T10:58:13Z</time><extensions><speed>0.029961</speed><course>240.875916</course><hAcc>0.907371</hAcc><vAcc>0.736843</vAcc></extensions></trkpt>
      <trkpt lon="-4.137376" lat="53.003270"><ele>719.151184</ele><time>2021-07-17T10:58:14Z</time><extensions><speed>0.036067</speed><course>240.875916</course><hAcc>0.905444</hAcc><vAcc>0.735829</vAcc></extensions></trkpt>
      <trkpt lon="-4.137376" lat="53.003270"><ele>719.151001</ele><time>2021-07-17T10:58:15Z</time><extensions><speed>0.042736</speed><course>269.430084</course><hAcc>0.903275</hAcc><vAcc>0.734421</vAcc></extensions></trkpt>
      <trkpt lon="-4.137376" lat="53.003271"><ele>719.149719</ele><time>2021-07-17T10:58:16Z</time><extensions><speed>0.049840</speed><course>274.056000</course><hAcc>0.901082</hAcc><vAcc>0.732797</vAcc></extensions></trkpt>
      <trkpt lon="-4.137375" lat="53.003271"><ele>719.147034</ele><time>2021-07-17T10:58:17Z</time><extensions><speed>0.057191</speed><course>273.580658</course><hAcc>0.899032</hAcc><vAcc>0.731127</vAcc></extensions></trkpt>
      <trkpt lon="-4.137375" lat="53.003272"><ele>719.142700</ele><time>2021-07-17T10:58:18Z</time><extensions><speed>0.064529</speed><course>266.285736</course><hAcc>0.897234</hAcc><vAcc>0.729548</vAcc></extensions></trkpt>
      <trkpt lon="-4.137375" lat="53.003272"><ele>719.136597</ele><time>2021-07-17T10:58:19Z</time><extensions><speed>0.071503</speed><course>280.416809</course><hAcc>0.895746</hAcc><vAcc>0.728164</vAcc></extensions></trkpt>
      <trkpt lon="-4.137374" lat="53.003273"><ele>719.128418</ele><time>2021-07-17T10:58:20Z</time><extensions><speed>0.077667</speed><course>289.633057</course><hAcc>0.894594</hAcc><vAcc>0.727043</vAcc></extensions></trkpt>
      <trkpt lon="-4.137373" lat="53.003273"><ele>719.118164</ele><time>2021-07-17T10:58:21Z</time><extensions><speed>0.082458</speed><course>274.042023</course><hAcc>0.893776</hAcc><vAcc>0.726224</vAcc></extensions></trkpt>
      <trkpt lon="-4.137373" lat="53.003274"><ele>719.105713</ele><time>2021-07-17T10:58:22Z</time><extensions><speed>0.085202</speed><course>259.398621</course><hAcc>0.893281</hAcc><vAcc>0.725729</vAcc></extensions></trkpt>
      <trkpt lon="-4.137372" lat="53.003275"><ele>719.091187</ele><time>2021-07-17T10:58:23Z</time><extensions><speed>0.085112</speed><course>235.228027</course><hAcc>0.893099</hAcc><vAcc>0.725564</vAcc></extensions></trkpt>
      <trkpt lon="-4.137371" lat="53.003275"><ele>719.074768</ele><time>2021-07-17T10:58:24Z</time><extensions><speed>0.081336</speed><course>233.943741</course><hAcc>0.893222</hAcc><vAcc>0.725728</vAcc></extensions></trkpt>
      <trkpt lon="-4.137370" lat="53.003276"><ele>719.056763</ele><time>2021-07-17T10:58:25Z</time><extensions><speed>0.073102</speed><course>251.986771</course><hAcc>0.893647</hAcc><vAcc>0.726213</vAcc></extensions></trkpt>
      <trkpt lon="-4.137369" lat="53.003276"><ele>719.037842</ele><time>2021-07-17T10:58:26Z</time><extensions><speed>0.060262</speed><course>230.632401</course><hAcc>0.894381</hAcc><vAcc>0.727003</vAcc></extensions></trkpt>
      <trkpt lon="-4.137369" lat="53.003276"><ele>719.018799</ele><time>2021-07-17T10:58:27Z</time><extensions><speed>0.045797</speed><course>208.539734</course><hAcc>0.895429</hAcc><vAcc>0.728074</vAcc></extensions></trkpt>
      <trkpt lon="-4.137368" lat="53.003276"><ele>719.000732</ele><time>2021-07-17T10:58:28Z</time><extensions><speed>0.045093</speed><course>217.062653</course><hAcc>0.896790</hAcc><vAcc>0.729385</vAcc></extensions></trkpt>
      <trkpt lon="-4.137368" lat="53.003276"><ele>718.984985</ele><time>2021-07-17T10:58:29Z</time><extensions><speed>0.075715</speed><course>216.480164</course><hAcc>0.898448</hAcc><vAcc>0.730878</vAcc></extensions></trkpt>
      <trkpt lon="-4.137368" lat="53.003275"><ele>718.973328</ele><time>2021-07-17T10:58:30Z</time><extensions><speed>0.129935</speed><course>215.204285</course><hAcc>0.900356</hAcc><vAcc>0.732464</vAcc></extensions></trkpt>
      <trkpt lon="-4.137368" lat="53.003273"><ele>718.967834</ele><time>2021-07-17T10:58:31Z</time><extensions><speed>0.202457</speed><course>192.608246</course><hAcc>0.902427</hAcc><vAcc>0.734030</vAcc></extensions></trkpt>
      <trkpt lon="-4.137370" lat="53.003271"><ele>718.970886</ele><time>2021-07-17T10:58:32Z</time><extensions><speed>0.292850</speed><course>196.818375</course><hAcc>0.904529</hAcc><vAcc>0.735438</vAcc></extensions></trkpt>
      <trkpt lon="-4.137372" lat="53.003268"><ele>718.985168</ele><time>2021-07-17T10:58:33Z</time><extensions><speed>0.401701</speed><course>200.564194</course><hAcc>0.906488</hAcc><vAcc>0.736548</vAcc></extensions></trkpt>
      <trkpt lon="-4.137375" lat="53.003265"><ele>719.013672</ele><time>2021-07-17T10:58:34Z</time><extensions><speed>0.529487</speed><course>224.718231</course><hAcc>0.908108</hAcc><vAcc>0.737247</vAcc></extensions></trkpt>
      <trkpt lon="-4.137380" lat="53.003260"><ele>719.059387</ele><time>2021-07-17T10:58:35Z</time><extensions><speed>0.676108</speed><course>228.969803</course><hAcc>0.909227</hAcc><vAcc>0.737515</vAcc></extensions></trkpt>
      <trkpt lon="-4.137386" lat="53.003254"><ele>719.125610</ele><time>2021-07-17T10:58:36Z</time><extensions><speed>0.840546</speed><course>250.366501</course><hAcc>0.909818</hAcc><vAcc>0.737518</vAcc></extensions></trkpt>
      <trkpt lon="-4.137394" lat="53.003247"><ele>719.215271</ele><time>2021-07-17T10:58:37Z</time><extensions><speed>1.020537</speed><course>-1.000000</course><hAcc>0.910155</hAcc><vAcc>0.737757</vAcc></extensions></trkpt>
      <trkpt lon="-4.137403" lat="53.003239"><ele>719.331055</ele><time>2021-07-17T10:58:38Z</time><extensions><speed>1.212211</speed><course>232.063629</course><hAcc>0.911068</hAcc><vAcc>0.739260</vAcc></extensions></trkpt>
      <trkpt lon="-4.137415" lat="53.003230"><ele>719.475037</ele><time>2021-07-17T10:58:39Z</time><extensions><speed>1.409713</speed><course>232.063614</course><hAcc>0.914300</hAcc><vAcc>0.743816</vAcc></extensions></trkpt>
      <trkpt lon="-4.137429" lat="53.003219"><ele>719.648254</ele><time>2021-07-17T10:58:40Z</time><extensions><speed>1.604794</speed><course>232.063614</course><hAcc>0.922934</hAcc><vAcc>0.754205</vAcc></extensions></trkpt>
      <trkpt lon="-4.137444" lat="53.003207"><ele>719.850220</ele><time>2021-07-17T10:58:41Z</time><extensions><speed>1.786397</speed><course>232.063599</course><hAcc>0.941799</hAcc><vAcc>0.774316</vAcc></extensions></trkpt>
      <trkpt lon="-4.137461" lat="53.003194"><ele>720.078796</ele><time>2021-07-17T10:58:42Z</time><extensions><speed>1.940261</speed><course>232.063599</course><hAcc>0.977581</hAcc><vAcc>0.808997</vAcc></extensions></trkpt>
      <trkpt lon="-4.137480" lat="53.003178"><ele>720.523987</ele><time>2021-07-17T10:58:43Z</time><extensions><speed>2.317619</speed><course>207.637573</course><hAcc>0.939112</hAcc><vAcc>0.773018</vAcc></extensions></trkpt>
      <trkpt lon="-4.137499" lat="53.003161"><ele>720.919495</ele><time>2021-07-17T10:58:44Z</time><extensions><speed>2.205665</speed><course>199.781464</course><hAcc>0.919365</hAcc><vAcc>0.751444</vAcc></extensions></trkpt>
      <trkpt lon="-4.137516" lat="53.003145"><ele>721.306824</ele><time>2021-07-17T10:58:45Z</time><extensions><speed>2.069821</speed><course>204.898392</course><hAcc>0.911023</hAcc><vAcc>0.740583</vAcc></extensions></trkpt>
      <trkpt lon="-4.137532" lat="53.003130"><ele>721.683105</ele><time>2021-07-17T10:58:46Z</time><extensions><speed>1.922212</speed><course>218.988647</course><hAcc>0.908586</hAcc><vAcc>0.736104</vAcc></extensions></trkpt>
      <trkpt lon="-4.137547" lat="53.003116"><ele>722.046448</ele><time>2021-07-17T10:58:47Z</time><extensions><speed>1.772224</speed><course>240.875916</course><hAcc>0.908545</hAcc><vAcc>0.734896</vAcc></extensions></trkpt>
      <trkpt lon="-4.137559" lat="53.003103"><ele>722.395508</ele><time>2021-07-17T10:58:48Z</time><extensions><speed>1.626644</speed><course>240.875916</course><hAcc>0.908936</hAcc><vAcc>0.734955</vAcc></extensions></trkpt>
      <trkpt lon="-4.137570" lat="53.003091"><ele>722.729553</ele><time>2021-07-17T10:58:49Z</time><extensions><speed>1.490006</speed><course>240.875916</course><hAcc>0.908842</hAcc><vAcc>0.735141</vAcc></extensions></trkpt>
      <trkpt lon="-4.137580" lat="53.003079"><ele>723.048340</ele><time>2021-07-17T10:58:50Z</time><extensions><speed>1.365285</speed><course>240.875916</course><hAcc>0.907987</hAcc><vAcc>0.734910</vAcc></extensions></trkpt>
      <trkpt lon="-4.137589" lat="53.003069"><ele>723.351990</ele><time>2021-07-17T10:58:51Z</time><extensions><speed>1.254250</speed><course>240.875916</course><hAcc>0.906432</hAcc><vAcc>0.734096</vAcc></extensions></trkpt>
      <trkpt lon="-4.137596" lat="53.003059"><ele>723.640930</ele><time>2021-07-17T10:58:52Z</time><extensions><speed>1.157720</speed><course>240.875916</course><hAcc>0.904390</hAcc><vAcc>0.732747</vAcc></extensions></trkpt>
      <trkpt lon="-4.137603" lat="53.003050"><ele>723.915710</ele><time>2021-07-17T10:58:52Z</time><extensions><speed>1.076192</speed><course>269.430084</course><hAcc>0.902126</hAcc><vAcc>0.731029</vAcc></extensions></trkpt>
      <trkpt lon="-4.137610" lat="53.003041"><ele>724.177429</ele><time>2021-07-17T10:58:53Z</time><extensions><speed>1.008867</speed><course>274.056000</course><hAcc>0.899855</hAcc><vAcc>0.729119</vAcc></extensions></trkpt>
      <trkpt lon="-4.137616" lat="53.003033"><ele>724.426819</ele><time>2021-07-17T10:58:54Z</time><extensions><speed>0.954501</speed><course>273.580658</course><hAcc>0.897723</hAcc><vAcc>0.727176</vAcc></extensions></trkpt>
      <trkpt lon="-4.137622" lat="53.003026"><ele>724.664856</ele><time>2021-07-17T10:58:55Z</time><extensions><speed>0.911670</speed><course>266.285736</course><hAcc>0.895835</hAcc><vAcc>0.725333</vAcc></extensions></trkpt>
      <trkpt lon="-4.137627" lat="53.003018"><ele>724.892395</ele><time>2021-07-17T10:58:56Z</time><extensions><speed>0.879150</speed><course>280.416809</course><hAcc>0.894242</hAcc><vAcc>0.723679</vAcc></extensions></trkpt>
      <trkpt lon="-4.137633" lat="53.003011"><ele>725.110474</ele><time>2021-07-17T10:58:57Z</time><extensions><speed>0.855737</speed><course>289.633057</course><hAcc>0.892953</hAcc><vAcc>0.722265</vAcc></extensions></trkpt>
      <trkpt lon="-4.137639" lat="53.003005"><ele>725.320068</ele><time>2021-07-17T10:58:58Z</time><extensions><speed>0.840336</speed><course>274.042023</course><hAcc>0.891950</hAcc><vAcc>0.721108</vAcc></extensions></trkpt>
      <trkpt lon="-4.137645" lat="53.002998"><ele>725.522156</ele><time>2021-07-17T10:58:59Z</time><extensions><speed>0.831705</speed><course>259.398621</course><hAcc>0.891198</hAcc><vAcc>0.720197</vAcc></extensions></trkpt>
      <trkpt lon="-4.137651" lat="53.002992"><ele>725.717651</ele><time>2021-07-17T10:59:00Z</time><extensions><speed>0.828202</speed><course>235.228027</course><hAcc>0.890655</hAcc><vAcc>0.719509</vAcc></extensions></trkpt>
      <trkpt lon="-4.137657" lat="53.002985"><ele>725.907593</ele><time>2021-07-17T10:59:01Z</time><extensions><speed>0.828004</speed><course>233.943741</course><hAcc>0.890278</hAcc><vAcc>0.719010</vAcc></extensions></trkpt>
      <trkpt lon="-4.137664" lat="53.002979"><ele>726.093079</ele><time>2021-07-17T10:59:02Z</time><extensions><speed>0.829498</speed><course>251.986771</course><hAcc>0.890027</hAcc><vAcc>0.718663</vAcc></extensions></trkpt>
      <trkpt lon="-4.137670" lat="53.002973"><ele>726.275024</ele><time>2021-07-17T10:59:03Z</time><extensions><speed>0.831445</speed><course>230.632401</course><hAcc>0.889868</hAcc><vAcc>0.718435</vAcc></extensions></trkpt>
      <trkpt lon="-4.137677" lat="53.002966"><ele>726.454163</ele><time>2021-07-17T10:59:04Z</time><extensions><speed>0.832905</speed><course>208.539734</course><hAcc>0.889773</hAcc><vAcc>0.718297</vAcc></extensions></trkpt>
      <trkpt lon="-4.137684" lat="53.002960"><ele>726.630920</ele><time>2021-07-17T10:59:05Z</time><extensions><speed>0.833202</speed><course>217.062653</course><hAcc>0.889720</hAcc><vAcc>0.718222</vAcc></extensions></trkpt>
      <trkpt lon="-4.137691" lat="53.002954"><ele>726.805542</ele><time>2021-07-17T10:59:06Z</time><extensions><speed>0.831961</speed><course>216.480164</course><hAcc>0.889693</hAcc><vAcc>0.718190</vAcc></extensions></trkpt>
      <trkpt lon="-4.137698" lat="53.002948"><ele>726.978027</ele><time>2021-07-17T10:59:07Z</time><extensions><speed>0.829125</speed><course>215.204285</course><hAcc>0.889681</hAcc><vAcc>0.718184</vAcc></extensions></trkpt>
      <trkpt lon="-4.137705" lat="53.002942"><ele>727.148499</ele><time>2021-07-17T10:59:08Z</time><extensions><speed>0.824925</speed><course>192.608246</course><hAcc>0.889676</hAcc><vAcc>0.718189</vAcc></extensions></trkpt>
      <trkpt lon="-4.137712" lat="53.002935"><ele>727.317261</ele><time>2021-07-17T10:59:09Z</time><extensions><speed>0.819637</speed><course>196.818375</course><hAcc>0.889673</hAcc><vAcc>0.718192</vAcc></extensions></trkpt>
      <trkpt lon="-4.137718" lat="53.002929"><ele>727.484558</ele><time>2021-07-17T10:59:10Z</time><extensions><speed>0.813489</speed><course>200.564194</course><hAcc>0.889670</hAcc><vAcc>0.718188</vAcc></extensions></trkpt>
      <trkpt lon="-4.137725" lat="53.002923"><ele>727.650879</ele><time>2021-07-17T10:59:11Z</time><extensions><speed>0.806745</speed><course>224.718231</course><hAcc>0.889664</hAcc><vAcc>0.718173</vAcc></extensions></trkpt>
      <trkpt lon="-4.137731" lat="53.002917"><ele>727.816528</ele><time>2021-07-17T10:59:12Z</time><extensions><speed>0.799593</speed><course>228.969803</course><hAcc>0.889656</hAcc><vAcc>0.718146</vAcc></extensions></trkpt>
      <trkpt lon="-4.137737" lat="53.002911"><ele>727.982300</ele><time>2021-07-17T10:59:13Z</time><extensions><speed>0.792284</speed><course>250.366501</course><hAcc>0.889645</hAcc><vAcc>0.718110</vAcc></extensions></trkpt>
      <trkpt lon="-4.137743" lat="53.002904"><ele>728.148865</ele><time>2021-07-17T10:59:14Z</time><extensions><speed>0.785112</speed><course>-1.000000</course><hAcc>0.889631</hAcc><vAcc>0.718065</vAcc></extensions></trkpt>
      <trkpt lon="-4.137748" lat="53.002898"><ele>728.316528</ele><time>2021-07-17T10:59:15Z</time><extensions><speed>0.778366</speed><course>232.063629</course><hAcc>0.889615</hAcc><vAcc>0.718014</vAcc></extensions></trkpt>
      <trkpt lon="-4.137753" lat="53.002892"><ele>728.485107</ele><time>2021-07-17T10:59:16Z</time><extensions><speed>0.772342</speed><course>232.063614</course><hAcc>0.889597</hAcc><vAcc>0.717959</vAcc></extensions></trkpt>
      <trkpt lon="-4.137758" lat="53.002886"><ele>728.654053</ele><time>2021-07-17T10:59:17Z</time><extensions><speed>0.767415</speed><course>232.063614</course><hAcc>0.889578</hAcc><vAcc>0.717902</vAcc></extensions></trkpt>
      <trkpt lon="-4.137763" lat="53.002880"><ele>728.822693</ele><time>2021-07-17T10:59:18Z</time><extensions><speed>0.763750</speed><course>232.063599</course><hAcc>0.889558</hAcc><vAcc>0.717847</vAcc></extensions></trkpt>
      <trkpt lon="-4.137769" lat="53.002874"><ele>728.990601</ele><time>2021-07-17T10:59:19Z</time><extensions><speed>0.761136</speed><course>232.063599</course><hAcc>0.889536</hAcc><vAcc>0.717791</vAcc></extensions></trkpt>
      <trkpt lon="-4.137774" lat="53.002868"><ele>729.157837</ele><time>2021-07-17T10:59:20Z</time><extensions><speed>0.759198</speed><course>232.063583</course><hAcc>0.889514</hAcc><vAcc>0.717734</vAcc></extensions></trkpt>
      <trkpt lon="-4.137779" lat="53.002862"><ele>729.324707</ele><time>2021-07-17T10:59:21Z</time><extensions><speed>0.756954</speed><course>232.063583</course><hAcc>0.889492</hAcc><vAcc>0.717673</vAcc></extensions></trkpt>
      <trkpt lon="-4.137785" lat="53.002856"><ele>729.491699</ele><time>2021-07-17T10:59:22Z</time><extensions><speed>0.753076</speed><course>248.555511</course><hAcc>0.889469</hAcc><vAcc>0.717604</vAcc></extensions></trkpt>
      <trkpt lon="-4.137791" lat="53.002850"><ele>729.658508</ele><time>2021-07-17T10:59:23Z</time><extensions><speed>0.746916</speed><course>214.727661</course><hAcc>0.889447</hAcc><vAcc>0.717529</vAcc></extensions></trkpt>
      <trkpt lon="-4.137797" lat="53.002845"><ele>729.824524</ele><time>2021-07-17T10:59:24Z</time><extensions><speed>0.738405</speed><course>215.656113</course><hAcc>0.889425</hAcc><vAcc>0.717449</vAcc></extensions></trkpt>
      <trkpt lon="-4.137803" lat="53.002839"><ele>729.988586</ele><time>2021-07-17T10:59:25Z</time><extensions><speed>0.727551</speed><course>205.637772</course><hAcc>0.889405</hAcc><vAcc>0.717368</vAcc></extensions></trkpt>
      <trkpt lon="-4.137810" lat="53.002834"><ele>730.150024</ele><time>2021-07-17T10:59:26Z</time><extensions><speed>0.714305</speed><course>201.575424</course><hAcc>0.889386</hAcc><vAcc>0.717291</vAcc></extensions></trkpt>
      <trkpt lon="-4.137816" lat="53.002829"><ele>730.308716</ele><time>2021-07-17T10:59:27Z</time><extensions><speed>0.698710</speed><course>196.854248</course><hAcc>0.889369</hAcc><vAcc>0.717225</vAcc></extensions></trkpt>
      <trkpt lon="-4.137822" lat="53.002824"><ele>730.465271</ele><time>2021-07-17T10:59:28Z</time><extensions><speed>0.681013</speed><course>198.264053</course><hAcc>0.889354</hAcc><vAcc>0.717172</vAcc></extensions></trkpt>
      <trkpt lon="-4.137828" lat="53.002819"><ele>730.620605</ele><time>2021-07-17T10:59:29Z</time><extensions><speed>0.661650</speed><course>198.636932</course><hAcc>0.889342</hAcc><vAcc>0.717134</vAcc></extensions></trkpt>
      <trkpt lon="-4.137834" lat="53.002814"><ele>730.775696</ele><time>2021-07-17T10:59:30Z</time><extensions><speed>0.641470</speed><course>192.727798</course><hAcc>0.889333</hAcc><vAcc>0.717110</vAcc></extensions></trkpt>
      <trkpt lon="-4.137840" lat="53.002810"><ele>730.931091</ele><time>2021-07-17T10:59:31Z</time><extensions><speed>0.621747</speed><course>184.691818</course><hAcc>0.889327</hAcc><vAcc>0.717097</vAcc></extensions></trkpt>
      <trkpt lon="-4.137846" lat="53.002806"><ele>731.087463</ele><time>2021-07-17T10:59:32Z</time><extensions><speed>0.604034</speed><course>177.917740</course><hAcc>0.889325</hAcc><vAcc>0.717096</vAcc></extensions></trkpt>
      <trkpt lon="-4.137851" lat="53.002801"><ele>731.245300</ele><time>2021-07-17T10:59:33Z</time><extensions><speed>0.590082</speed><course>169.935883</course><hAcc>0.889325</hAcc><vAcc>0.717103</vAcc></extensions></trkpt>
      <trkpt lon="-4.137856" lat="53.002797"><ele>731.405579</ele><time>2021-07-17T10:59:34Z</time><extensions><speed>0.581507</speed><course>168.290512</course><hAcc>0.889328</hAcc><vAcc>0.717116</vAcc></extensions></trkpt>
      <trkpt lon="-4.137862" lat="53.002793"><ele>731.569641</ele><time>2021-07-17T10:59:35Z</time><extensions><speed>0.578917</speed><course>175.847488</course><hAcc>0.889332</hAcc><vAcc>0.717132</vAcc></extensions></trkpt>
      <trkpt lon="-4.137867" lat="53.002789"><ele>731.738525</ele><time>2021-07-17T10:59:36Z</time><extensions><speed>0.581424</speed><course>182.489380</course><hAcc>0.889336</hAcc><vAcc>0.717151</vAcc></extensions></trkpt>
      <trkpt lon="-4.137872" lat="53.002785"><ele>731.913025</ele><time>2021-07-17T10:59:37Z</time><extensions><speed>0.586814</speed><course>193.224472</course><hAcc>0.889341</hAcc><vAcc>0.717172</vAcc></extensions></trkpt>
      <trkpt lon="-4.137877" lat="53.002780"><ele>732.093018</ele><time>2021-07-17T10:59:38Z</time><extensions><speed>0.592578</speed><course>210.457108</course><hAcc>0.889343</hAcc><vAcc>0.717194</vAcc></extensions></trkpt>
      <trkpt lon="-4.137882" lat="53.002776"><ele>732.278137</ele><time>2021-07-17T10:59:39Z</time><extensions><speed>0.596931</speed><course>227.054108</course><hAcc>0.889343</hAcc><vAcc>0.717212</vAcc></extensions></trkpt>
      <trkpt lon="-4.137887" lat="53.002771"><ele>732.467651</ele><time>2021-07-17T10:59:40Z</time><extensions><speed>0.598857</speed><course>247.666534</course><hAcc>0.889339</hAcc><vAcc>0.717222</vAcc></extensions></trkpt>
      <trkpt lon="-4.137892" lat="53.002767"><ele>732.660828</ele><time>2021-07-17T10:59:41Z</time><extensions><speed>0.597915</speed><course>261.197876</course><hAcc>0.889332</hAcc><vAcc>0.717217</vAcc></extensions></trkpt>
      <trkpt lon="-4.137896" lat="53.002762"><ele>732.856628</ele><time>2021-07-17T10:59:42Z</time><extensions><speed>0.594279</speed><course>263.217255</course><hAcc>0.889320</hAcc><vAcc>0.717192</vAcc></extensions></trkpt>
      <trkpt lon="-4.137900" lat="53.002758"><ele>733.053955</ele><time>2021-07-17T10:59:43Z</time><extensions><speed>0.588584</speed><course>271.463165</course><hAcc>0.889304</hAcc><vAcc>0.717143</vAcc></extensions></trkpt>
      <trkpt lon="-4.137904" lat="53.002753"><ele>733.251648</ele><time>2021-07-17T10:59:44Z</time><extensions><speed>0.581483</speed><course>281.991608</course><hAcc>0.889285</hAcc><vAcc>0.717070</vAcc></extensions></trkpt>
      <trkpt lon="-4.137908" lat="53.002748"><ele>733.448425</ele><time>2021-07-17T10:59:45Z</time><extensions><speed>0.573804</speed><course>285.895782</course><hAcc>0.889263</hAcc><vAcc>0.716978</vAcc></extensions></trkpt>
      <trkpt lon="-4.137912" lat="53.002744"><ele>733.643188</ele><time>2021-07-17T10:59:46Z</time><extensions><speed>0.566006</speed><course>287.327179</course><hAcc>0.889241</hAcc><vAcc>0.716873</vAcc></extensions></trkpt>
      <trkpt lon="-4.137915" lat="53.002739"><ele>733.835327</ele><time>2021-07-17T10:59:47Z</time><extensions><speed>0.557800</speed><course>297.396240</course><hAcc>0.889221</hAcc><vAcc>0.716765</vAcc></extensions></trkpt>
      <trkpt lon="-4.137918" lat="53.002734"><ele>734.024658</ele><time>2021-07-17T10:59:48Z</time><extensions><speed>0.548886</speed><course>299.473175</course><hAcc>0.889203</hAcc><vAcc>0.716666</vAcc></extensions></trkpt>
      <trkpt lon="-4.137922" lat="53.002730"><ele>734.211487</ele><time>2021-07-17T10:59:49Z</time><extensions><speed>0.539212</speed><course>297.683289</course><hAcc>0.889191</hAcc><vAcc>0.716590</vAcc></extensions></trkpt>
      <trkpt lon="-4.137925" lat="53.002726"><ele>734.396423</ele><time>2021-07-17T10:59:50Z</time><extensions><speed>0.528930</speed><course>292.365356</course><hAcc>0.889185</hAcc><vAcc>0.716547</vAcc></extensions></trkpt>
      <trkpt lon="-4.137929" lat="53.002721"><ele>734.580322</ele><time>2021-07-17T10:59:51Z</time><extensions><speed>0.518408</speed><course>291.092651</course><hAcc>0.889187</hAcc><vAcc>0.716547</vAcc></extensions></trkpt>
      <trkpt lon="-4.137933" lat="53.002718"><ele>734.764099</ele><time>2021-07-17T10:59:52Z</time><extensions><speed>0.508182</speed><course>297.007721</course><hAcc>0.889197</hAcc><vAcc>0.716592</vAcc></extensions></trkpt>
      <trkpt lon="-4.137937" lat="53.002714"><ele>734.948059</ele><time>2021-07-17T10:59:53Z</time><extensions><speed>0.498971</speed><course>291.539093</course><hAcc>0.889216</hAcc><vAcc>0.716679</vAcc></extensions></trkpt>
      <trkpt lon="-4.137942" lat="53.002710"><ele>735.132263</ele><time>2021-07-17T10:59:54Z</time><extensions><speed>0.491580</speed><course>293.314819</course><hAcc>0.889243</hAcc><vAcc>0.716800</vAcc></extensions></trkpt>
      <trkpt lon="-4.137946" lat="53.002707"><ele>735.316528</ele><time>2021-07-17T10:59:55Z</time><extensions><speed>0.486322</speed><course>297.043213</course><hAcc>0.889278</hAcc><vAcc>0.716943</vAcc></extensions></trkpt>
      <trkpt lon="-4.137952" lat="53.002704"><ele>735.501099</ele><time>2021-07-17T10:59:56Z</time><extensions><speed>0.482748</speed><course>301.573547</course><hAcc>0.889320</hAcc><vAcc>0.717098</vAcc></extensions></trkpt>
      <trkpt lon="-4.137957" lat="53.002701"><ele>735.686462</ele><time>2021-07-17T10:59:57Z</time><extensions><speed>0.480407</speed><course>305.542847</course><hAcc>0.889368</hAcc><vAcc>0.717258</vAcc></extensions></trkpt>
      <trkpt lon="-4.137963" lat="53.002699"><ele>735.873108</ele><time>2021-07-17T10:59:58Z</time><extensions><speed>0.479345</speed><course>304.461029</course><hAcc>0.889422</hAcc><vAcc>0.717420</vAcc></extensions></trkpt>
      <trkpt lon="-4.137968" lat="53.002696"><ele>736.061340</ele><time>2021-07-17T10:59:59Z</time><extensions><speed>0.480155</speed><course>304.519958</course><hAcc>0.889479</hAcc><vAcc>0.717585</vAcc></extensions></trkpt>
      <trkpt lon="-4.137975" lat="53.002694"><ele>736.251221</ele><time>2021-07-17T11:00:00Z</time><extensions><speed>0.483295</speed><course>306.835541</course><hAcc>0.889539</hAcc><vAcc>0.717757</vAcc></extensions></trkpt>
      <trkpt lon="-4.137981" lat="53.002692"><ele>736.442932</ele><time>2021-07-17T11:00:01Z</time><extensions><speed>0.488545</speed><course>312.924469</course><hAcc>0.889601</hAcc><vAcc>0.717939</vAcc></extensions></trkpt>
      <trkpt lon="-4.137987" lat="53.002690"><ele>736.637146</ele><time>2021-07-17T11:00:02Z</time><extensions><speed>0.496271</speed><course>313.121582</course><hAcc>0.889662</hAcc><vAcc>0.718133</vAcc></extensions></trkpt>
      <trkpt lon="-4.137994" lat="53.002688"><ele>736.834656</ele><time>2021-07-17T11:00:03Z</time><extensions><speed>0.506737</speed><course>312.363678</course><hAcc>0.889722</hAcc><vAcc>0.718335</vAcc></extensions></trkpt>
      <trkpt lon="-4.138001" lat="53.002686"><ele>737.035950</ele><time>2021-07-17T11:00:04Z</time><extensions><speed>0.518835</speed><course>309.905548</course><hAcc>0.889780</hAcc><vAcc>0.718539</vAcc></extensions></trkpt>
      <trkpt lon="-4.138008" lat="53.002684"><ele>737.241333</ele><time>2021-07-17T11:00:05Z</time><extensions><speed>0.530631</speed><course>308.597687</course><hAcc>0.889832</hAcc><vAcc>0.718737</vAcc></extensions></trkpt>
      <trkpt lon="-4.138016" lat="53.002683"><ele>737.450623</ele><time>2021-07-17T11:00:06Z</time><extensions><speed>0.540414</speed><course>307.103394</course><hAcc>0.889880</hAcc><vAcc>0.718914</vAcc></extensions></trkpt>
      <trkpt lon="-4.138024" lat="53.002681"><ele>737.663574</ele><time>2021-07-17T11:00:07Z</time><extensions><speed>0.547788</speed><course>306.897400</course><hAcc>0.889922</hAcc><vAcc>0.719056</vAcc></extensions></trkpt>
      <trkpt lon="-4.138032" lat="53.002680"><ele>737.879700</ele><time>2021-07-17T11:00:09Z</time><extensions><speed>0.552951</speed><course>302.152618</course><hAcc>0.889939</hAcc><vAcc>0.719140</vAcc></extensions></trkpt>
      <trkpt lon="-4.138039" lat="53.002678"><ele>738.097839</ele><time>2021-07-17T11:00:10Z</time><extensions><speed>0.556241</speed><course>297.726410</course><hAcc>0.889931</hAcc><vAcc>0.719156</vAcc></extensions></trkpt>
      <trkpt lon="-4.138047" lat="53.002677"><ele>738.316956</ele><time>2021-07-17T11:00:11Z</time><extensions><speed>0.558420</speed><course>300.194183</course><hAcc>0.889915</hAcc><vAcc>0.719117</vAcc></extensions></trkpt>
      <trkpt lon="-4.138055" lat="53.002675"><ele>738.535889</ele><time>2021-07-17T11:00:12Z</time><extensions><speed>0.560425</speed><course>297.151825</course><hAcc>0.889892</hAcc><vAcc>0.719025</vAcc></extensions></trkpt>
      <trkpt lon="-4.138063" lat="53.002674"><ele>738.753357</ele><time>2021-07-17T11:00:13Z</time><extensions><speed>0.562793</speed><course>298.399384</course><hAcc>0.889862</hAcc><vAcc>0.718892</vAcc></extensions></trkpt>
      <trkpt lon="-4.138071" lat="53.002672"><ele>738.968323</ele><time>2021-07-17T11:00:14Z</time><extensions><speed>0.565525</speed><course>300.837921</course><hAcc>0.889826</hAcc><vAcc>0.718729</vAcc></extensions></trkpt>
      <trkpt lon="-4.138079" lat="53.002671"><ele>739.180237</ele><time>2021-07-17T11:00:15Z</time><extensions><speed>0.568704</speed><course>299.844330</course><hAcc>0.889786</hAcc><vAcc>0.718552</vAcc></extensions></trkpt>
      <trkpt lon="-4.138088" lat="53.002669"><ele>739.388489</ele><time>2021-07-17T11:00:16Z</time><extensions><speed>0.572682</speed><course>300.001373</course><hAcc>0.889743</hAcc><vAcc>0.718376</vAcc></extensions></trkpt>
      <trkpt lon="-4.138096" lat="53.002668"><ele>739.592468</ele><time>2021-07-17T11:00:17Z</time><extensions><speed>0.578344</speed><course>294.568817</course><hAcc>0.889699</hAcc><vAcc>0.718211</vAcc></extensions></trkpt>
      <trkpt lon="-4.138104" lat="53.002667"><ele>739.791626</ele><time>2021-07-17T11:00:18Z</time><extensions><speed>0.586705</speed><course>300.687103</course><hAcc>0.889652</hAcc><vAcc>0.718063</vAcc></extensions></trkpt>
      <trkpt lon="-4.138113" lat="53.002666"><ele>739.985657</ele><time>2021-07-17T11:00:19Z</time><extensions><speed>0.598501</speed><course>297.691925</course><hAcc>0.889602</hAcc><vAcc>0.717934</vAcc></extensions></trkpt>
      <trkpt lon="-4.138122" lat="53.002665"><ele>740.174255</ele><time>2021-07-17T11:00:20Z</time><extensions><speed>0.614022</speed><course>293.928223</course><hAcc>0.889549</hAcc><vAcc>0.717817</vAcc></extensions></trkpt>
      <trkpt lon="-4.138131" lat="53.002664"><ele>740.357544</ele><time>2021-07-17T11:00:21Z</time><extensions><speed>0.632936</speed><course>297.041656</course><hAcc>0.889490</hAcc><vAcc>0.717699</vAcc></extensions></trkpt>
      <trkpt lon="-4.138141" lat="53.002664"><ele>740.535339</ele><time>2021-07-17T11:00:22Z</time><extensions><speed>0.654462</speed><course>298.722290</course><hAcc>0.889421</hAcc><vAcc>0.717560</vAcc></extensions></trkpt>
      <trkpt lon="-4.138150" lat="53.002664"><ele>740.707520</ele><time>2021-07-17T11:00:23Z</time><extensions><speed>0.677454</speed><course>296.674316</course><hAcc>0.889342</hAcc><vAcc>0.717382</vAcc></extensions></trkpt>
      <trkpt lon="-4.138161" lat="53.002664"><ele>740.873535</ele><time>2021-07-17T11:00:24Z</time><extensions><speed>0.700702</speed><course>301.147156</course><hAcc>0.889250</hAcc><vAcc>0.717144</vAcc></extensions></trkpt>
      <trkpt lon="-4.138171" lat="53.002664"><ele>741.033203</ele><time>2021-07-17T11:00:25Z</time><extensions><speed>0.723240</speed><course>301.618805</course><hAcc>0.889144</hAcc><vAcc>0.716833</vAcc></extensions></trkpt>
      <trkpt lon="-4.138182" lat="53.002665"><ele>741.186646</ele><time>2021-07-17T11:00:26Z</time><extensions><speed>0.744141</speed><course>300.678009</course><hAcc>0.889025</hAcc><vAcc>0.716445</vAcc></extensions></trkpt>
      <trkpt lon="-4.138193" lat="53.002666"><ele>741.334656</ele><time>2021-07-17T11:00:27Z</time><extensions><speed>0.762252</speed><course>306.078644</course><hAcc>0.888893</hAcc><vAcc>0.715985</vAcc></extensions></trkpt>
      <trkpt lon="-4.138204" lat="53.002668"><ele>741.478821</ele><time>2021-07-17T11:00:28Z</time><extensions><speed>0.776573</speed><course>302.099213</course><hAcc>0.888752</hAcc><vAcc>0.715468</vAcc></extensions></trkpt>
      <trkpt lon="-4.138216" lat="53.002669"><ele>741.620789</ele><time>2021-07-17T11:00:29Z</time><extensions><speed>0.786074</speed><course>298.253754</course><hAcc>0.888605</hAcc><vAcc>0.714914</vAcc></extensions></trkpt>
      <trkpt lon="-4.138227" lat="53.002671"><ele>741.762512</ele><time>2021-07-17T11:00:30Z</time><extensions><speed>0.789710</speed><course>299.772583</course><hAcc>0.888458</hAcc><vAcc>0.714353</vAcc></extensions></trkpt>
      <trkpt lon="-4.138239" lat="53.002672"><ele>741.906067</ele><time>2021-07-17T11:00:31Z</time><extensions><speed>0.786383</speed><course>299.946075</course><hAcc>0.888318</hAcc><vAcc>0.713815</vAcc></extensions></trkpt>
      <trkpt lon="-4.138250" lat="53.002674"><ele>742.053101</ele><time>2021-07-17T11:00:32Z</time><extensions><speed>0.774352</speed><course>303.968170</course><hAcc>0.888189</hAcc><vAcc>0.713328</vAcc></extensions></trkpt>
      <trkpt lon="-4.138261" lat="53.002675"><ele>742.204956</ele><time>2021-07-17T11:00:33Z</time><extensions><speed>0.752439</speed><course>302.223755</course><hAcc>0.888080</hAcc><vAcc>0.712916</vAcc></extensions></trkpt>
      <trkpt lon="-4.138272" lat="53.002677"><ele>742.362061</ele><time>2021-07-17T11:00:34Z</time><extensions><speed>0.721342</speed><course>303.590851</course><hAcc>0.887994</hAcc><vAcc>0.712599</vAcc></extensions></trkpt>
      <trkpt lon="-4.138282" lat="53.002678"><ele>742.523438</ele><time>2021-07-17T11:00:35Z</time><extensions><speed>0.682619</speed><course>302.656281</course><hAcc>0.887937</hAcc><vAcc>0.712390</vAcc></extensions></trkpt>
      <trkpt lon="-4.138292" lat="53.002678"><ele>742.687561</ele><time>2021-07-17T11:00:36Z</time><extensions><speed>0.637493</speed><course>307.857574</course><hAcc>0.887913</hAcc><vAcc>0.712303</vAcc></extensions></trkpt>
      <trkpt lon="-4.138301" lat="53.002679"><ele>742.853149</ele><time>2021-07-17T11:00:37Z</time><extensions><speed>0.586842</speed><course>306.241272</course><hAcc>0.887922</hAcc><vAcc>0.712342</vAcc></extensions></trkpt>
      <trkpt lon="-4.138309" lat="53.002679"><ele>743.019226</ele><time>2021-07-17T11:00:38Z</time><extensions><speed>0.531730</speed><course>302.560516</course><hAcc>0.887967</hAcc><vAcc>0.712505</vAcc></extensions></trkpt>
      <trkpt lon="-4.138317" lat="53.002678"><ele>743.185303</ele><time>2021-07-17T11:00:39Z</time><extensions><speed>0.473760</speed><course>304.207947</course><hAcc>0.888045</hAcc><vAcc>0.712786</vAcc></extensions></trkpt>
      <trkpt lon="-4.138323" lat="53.002678"><ele>743.350830</ele><time>2021-07-17T11:00:40Z</time><extensions><speed>0.415170</speed><course>304.678192</course><hAcc>0.888157</hAcc><vAcc>0.713172</vAcc></extensions></trkpt>
      <trkpt lon="-4.138329" lat="53.002677"><ele>743.515137</ele><time>2021-07-17T11:00:41Z</time><extensions><speed>0.358771</speed><course>300.816559</course><hAcc>0.888297</hAcc><vAcc>0.713651</vAcc></extensions></trkpt>
      <trkpt lon="-4.138333" lat="53.002675"><ele>743.677429</ele><time>2021-07-17T11:00:42Z</time><extensions><speed>0.308725</speed><course>302.457642</course><hAcc>0.888464</hAcc><vAcc>0.714209</vAcc></extensions></trkpt>
      <trkpt lon="-4.138337" lat="53.002674"><ele>743.837341</ele><time>2021-07-17T11:00:43Z</time><extensions><speed>0.270816</speed><course>303.405792</course><hAcc>0.888651</hAcc><vAcc>0.714836</vAcc></extensions></trkpt>
      <trkpt lon="-4.138339" lat="53.002672"><ele>743.995056</ele><time>2021-07-17T11:00:44Z</time><extensions><speed>0.251477</speed><course>305.179382</course><hAcc>0.888853</hAcc><vAcc>0.715521</vAcc></extensions></trkpt>
      <trkpt lon="-4.138340" lat="53.002669"><ele>744.150757</ele><time>2021-07-17T11:00:45Z</time><extensions><speed>0.254714</speed><course>301.811188</course><hAcc>0.889063</hAcc><vAcc>0.716252</vAcc></extensions></trkpt>
      <trkpt lon="-4.138340" lat="53.002667"><ele>744.304810</ele><time>2021-07-17T11:00:46Z</time><extensions><speed>0.278551</speed><course>294.111877</course><hAcc>0.889275</hAcc><vAcc>0.717009</vAcc></extensions></trkpt>
      <trkpt lon="-4.138338" lat="53.002665"><ele>744.457764</ele><time>2021-07-17T11:00:47Z</time><extensions><speed>0.315942</speed><course>291.186249</course><hAcc>0.889482</hAcc><vAcc>0.717767</vAcc></extensions></trkpt>
      <trkpt lon="-4.138336" lat="53.002662"><ele>744.610229</ele><time>2021-07-17T11:00:48Z</time><extensions><speed>0.359552</speed><course>291.833313</course><hAcc>0.889677</hAcc><vAcc>0.718497</vAcc></extensions></trkpt>
      <trkpt lon="-4.138333" lat="53.002659"><ele>744.762939</ele><time>2021-07-17T11:00:49Z</time><extensions><speed>0.404684</speed><course>293.198639</course><hAcc>0.889854</hAcc><vAcc>0.719167</vAcc></extensions></trkpt>
      <trkpt lon="-4.138329" lat="53.002656"><ele>744.916260</ele><time>2021-07-17T11:00:50Z</time><extensions><speed>0.448739</speed><course>297.953094</course><hAcc>0.890009</hAcc><vAcc>0.719744</vAcc></extensions></trkpt>
      <trkpt lon="-4.138324" lat="53.002653"><ele>745.069702</ele><time>2021-07-17T11:00:51Z</time><extensions><speed>0.489668</speed><course>294.998413</course><hAcc>0.890139</hAcc><vAcc>0.720205</vAcc></extensions></trkpt>
      <trkpt lon="-4.138318" lat="53.002650"><ele>745.221863</ele><time>2021-07-17T11:00:52Z</time><extensions><speed>0.524949</speed><course>290.333923</course><hAcc>0.890242</hAcc><vAcc>0.720533</vAcc></extensions></trkpt>
      <trkpt lon="-4.138311" lat="53.002647"><ele>745.370911</ele><time>2021-07-17T11:00:53Z</time><extensions><speed>0.552148</speed><course>297.336884</course><hAcc>0.890316</hAcc><vAcc>0.720730</vAcc></extensions></trkpt>
      <trkpt lon="-4.138305" lat="53.002644"><ele>745.515015</ele><time>2021-07-17T11:00:54Z</time><extensions><speed>0.569960</speed><course>291.763641</course><hAcc>0.890363</hAcc><vAcc>0.720809</vAcc></extensions></trkpt>
      <trkpt lon="-4.138298" lat="53.002641"><ele>745.652588</ele><time>2021-07-17T11:00:55Z</time><extensions><speed>0.577905</speed><course>293.588959</course><hAcc>0.890384</hAcc><vAcc>0.720790</vAcc></extensions></trkpt>
      <trkpt lon="-4.138291" lat="53.002638"><ele>745.782715</ele><time>2021-07-17T11:00:56Z</time><extensions><speed>0.576005</speed><course>298.534668</course><hAcc>0.890382</hAcc><vAcc>0.720701</vAcc></extensions></trkpt>
      <trkpt lon="-4.138284" lat="53.002635"><ele>745.905701</ele><time>2021-07-17T11:00:57Z</time><extensions><speed>0.564359</speed><course>294.834351</course><hAcc>0.890362</hAcc><vAcc>0.720567</vAcc></extensions></trkpt>
      <trkpt lon="-4.138277" lat="53.002632"><ele>746.022766</ele><time>2021-07-17T11:00:58Z</time><extensions><speed>0.542710</speed><course>297.698059</course><hAcc>0.890327</hAcc><vAcc>0.720414</vAcc></extensions></trkpt>
      <trkpt lon="-4.138271" lat="53.002629"><ele>746.135681</ele><time>2021-07-17T11:00:58Z</time><extensions><speed>0.511557</speed><course>298.511444</course><hAcc>0.890300</hAcc><vAcc>0.720274</vAcc></extensions></trkpt>
      <trkpt lon="-4.138266" lat="53.002626"><ele>746.246704</ele><time>2021-07-17T11:00:59Z</time><extensions><speed>0.472828</speed><course>303.054443</course><hAcc>0.890287</hAcc><vAcc>0.720163</vAcc></extensions></trkpt>
      <trkpt lon="-4.138262" lat="53.002623"><ele>746.358032</ele><time>2021-07-17T11:01:00Z</time><extensions><speed>0.431044</speed><course>300.594757</course><hAcc>0.890272</hAcc><vAcc>0.720074</vAcc></extensions></trkpt>
      <trkpt lon="-4.138259" lat="53.002620"><ele>746.471985</ele><time>2021-07-17T11:01:01Z</time><extensions><speed>0.393730</speed><course>303.489990</course><hAcc>0.890260</hAcc><vAcc>0.720013</vAcc></extensions></trkpt>
      <trkpt lon="-4.138258" lat="53.002616"><ele>746.590942</ele><time>2021-07-17T11:01:02Z</time><extensions><speed>0.370571</speed><course>307.296783</course><hAcc>0.890252</hAcc><vAcc>0.719982</vAcc></extensions></trkpt>
      <trkpt lon="-4.138258" lat="53.002613"><ele>746.716675</ele><time>2021-07-17T11:01:03Z</time><extensions><speed>0.369856</speed><course>306.846466</course><hAcc>0.890250</hAcc><vAcc>0.719981</vAcc></extensions></trkpt>
      <trkpt lon="-4.138260" lat="53.002610"><ele>746.850586</ele><time>2021-07-17T11:01:04Z</time><extensions><speed>0.392635</speed><course>314.303711</course><hAcc>0.890252</hAcc><vAcc>0.720008</vAcc></extensions></trkpt>
      <trkpt lon="-4.138263" lat="53.002607"><ele>746.993652</ele><time>2021-07-17T11:01:05Z</time><extensions><speed>0.433203</speed><course>316.753265</course><hAcc>0.890256</hAcc><vAcc>0.720059</vAcc></extensions></trkpt>
      <trkpt lon="-4.138267" lat="53.002603"><ele>747.146301</ele><time>2021-07-17T11:01:06Z</time><extensions><speed>0.484203</speed><course>312.101562</course><hAcc>0.890260</hAcc><vAcc>0.720123</vAcc></extensions></trkpt>
      <trkpt lon="-4.138273" lat="53.002600"><ele>747.308228</ele><time>2021-07-17T11:01:07Z</time><extensions><speed>0.538957</speed><course>310.983948</course><hAcc>0.890261</hAcc><vAcc>0.720183</vAcc></extensions></trkpt>
      <trkpt lon="-4.138280" lat="53.002598"><ele>747.478943</ele><time>2021-07-17T11:01:08Z</time><extensions><speed>0.591865</speed><course>316.824890</course><hAcc>0.890256</hAcc><vAcc>0.720225</vAcc></extensions></trkpt>
      <trkpt lon="-4.138288" lat="53.002595"><ele>747.657532</ele><time>2021-07-17T11:01:09Z</time><extensions><speed>0.638159</speed><course>324.005005</course><hAcc>0.890245</hAcc><vAcc>0.720230</vAcc></extensions></trkpt>
      <trkpt lon="-4.138297" lat="53.002592"><ele>747.843262</ele><time>2021-07-17T11:01:10Z</time><extensions><speed>0.674216</speed><course>322.091736</course><hAcc>0.890225</hAcc><vAcc>0.720185</vAcc></extensions></trkpt>
      <trkpt lon="-4.138306" lat="53.002590"><ele>748.035339</ele><time>2021-07-17T11:01:11Z</time><extensions><speed>0.698071</speed><course>322.830170</course><hAcc>0.890194</hAcc><vAcc>0.720082</vAcc></extensions></trkpt>
      <trkpt lon="-4.138316" lat="53.002588"><ele>748.232727</ele><time>2021-07-17T11:01:12Z</time><extensions><speed>0.709355</speed><course>325.823517</course><hAcc>0.890153</hAcc><vAcc>0.719925</vAcc></extensions></trkpt>
      <trkpt lon="-4.138326" lat="53.002586"><ele>748.434143</ele><time>2021-07-17T11:01:13Z</time><extensions><speed>0.708690</speed><course>331.853210</course><hAcc>0.890101</hAcc><vAcc>0.719722</vAcc></extensions></trkpt>
      <trkpt lon="-4.138336" lat="53.002583"><ele>748.638184</ele><time>2021-07-17T11:01:14Z</time><extensions><speed>0.697408</speed><course>331.260956</course><hAcc>0.890039</hAcc><vAcc>0.719484</vAcc></extensions></trkpt>
      <trkpt lon="-4.138345" lat="53.002581"><ele>748.843628</ele><time>2021-07-17T11:01:15Z</time><extensions><speed>0.677173</speed><course>329.072571</course><hAcc>0.889967</hAcc><vAcc>0.719219</vAcc></extensions></trkpt>
      <trkpt lon="-4.138354" lat="53.002579"><ele>749.049561</ele><time>2021-07-17T11:01:16Z</time><extensions><speed>0.649656</speed><course>325.473938</course><hAcc>0.889889</hAcc><vAcc>0.718938</vAcc></extensions></trkpt>
      <trkpt lon="-4.138363" lat="53.002577"><ele>749.255493</ele><time>2021-07-17T11:01:17Z</time><extensions><speed>0.616926</speed><course>325.383026</course><hAcc>0.889807</hAcc><vAcc>0.718648</vAcc></extensions></trkpt>
      <trkpt lon="-4.138371" lat="53.002575"><ele>749.461060</ele><time>2021-07-17T11:01:18Z</time><extensions><speed>0.581682</speed><course>325.061401</course><hAcc>0.889722</hAcc><vAcc>0.718358</vAcc></extensions></trkpt>
      <trkpt lon="-4.138379" lat="53.002572"><ele>749.665955</ele><time>2021-07-17T11:01:19Z</time><extensions><speed>0.546907</speed><course>325.207275</course><hAcc>0.889637</hAcc><vAcc>0.718073</vAcc></extensions></trkpt>
      <trkpt lon="-4.138385" lat="53.002570"><ele>749.870117</ele><time>2021-07-17T11:01:20Z</time><extensions><speed>0.515602</speed><course>322.410889</course><hAcc>0.889555</hAcc><vAcc>0.717799</vAcc></extensions></trkpt>
      <trkpt lon="-4.138392" lat="53.002567"><ele>750.073486</ele><time>2021-07-17T11:01:21Z</time><extensions><speed>0.490683</speed><course>319.218658</course><hAcc>0.889476</hAcc><vAcc>0.717541</vAcc></extensions></trkpt>
      <trkpt lon="-4.138397" lat="53.002565"><ele>750.275940</ele><time>2021-07-17T11:01:22Z</time><extensions><speed>0.474101</speed><course>319.790588</course><hAcc>0.889403</hAcc><vAcc>0.717300</vAcc></extensions></trkpt>
      <trkpt lon="-4.138403" lat="53.002562"><ele>750.477173</ele><time>2021-07-17T11:01:23Z</time><extensions><speed>0.465946</speed><course>318.972229</course><hAcc>0.889336</hAcc><vAcc>0.717081</vAcc></extensions></trkpt>
      <trkpt lon="-4.138408" lat="53.002559"><ele>750.676392</ele><time>2021-07-17T11:01:24Z</time><extensions><speed>0.464467</speed><course>320.354065</course><hAcc>0.889276</hAcc><vAcc>0.716886</vAcc></extensions></trkpt>
      <trkpt lon="-4.138413" lat="53.002556"><ele>750.872681</ele><time>2021-07-17T11:01:25Z</time><extensions><speed>0.467142</speed><course>320.541016</course><hAcc>0.889223</hAcc><vAcc>0.716717</vAcc></extensions></trkpt>
      <trkpt lon="-4.138418" lat="53.002553"><ele>751.065125</ele><time>2021-07-17T11:01:26Z</time><extensions><speed>0.471920</speed><course>317.906189</course><hAcc>0.889176</hAcc><vAcc>0.716576</vAcc></extensions></trkpt>
      <trkpt lon="-4.138422" lat="53.002550"><ele>751.253174</ele><time>2021-07-17T11:01:27Z</time><extensions><speed>0.477533</speed><course>316.077393</course><hAcc>0.889136</hAcc><vAcc>0.716459</vAcc></extensions></trkpt>
      <trkpt lon="-4.138427" lat="53.002547"><ele>751.437195</ele><time>2021-07-17T11:01:28Z</time><extensions><speed>0.483123</speed><course>307.356537</course><hAcc>0.889102</hAcc><vAcc>0.716364</vAcc></extensions></trkpt>
      <trkpt lon="-4.138432" lat="53.002544"><ele>751.617493</ele><time>2021-07-17T11:01:29Z</time><extensions><speed>0.488573</speed><course>302.004150</course><hAcc>0.889074</hAcc><vAcc>0.716287</vAcc></extensions></trkpt>
      <trkpt lon="-4.138437" lat="53.002540"><ele>751.794434</ele><time>2021-07-17T11:01:30Z</time><extensions><speed>0.494394</speed><course>310.520874</course><hAcc>0.889051</hAcc><vAcc>0.716226</vAcc></extensions></trkpt>
      <trkpt lon="-4.138442" lat="53.002537"><ele>751.968201</ele><time>2021-07-17T11:01:31Z</time><extensions><speed>0.500929</speed><course>307.778412</course><hAcc>0.889033</hAcc><vAcc>0.716180</vAcc></extensions></trkpt>
      <trkpt lon="-4.138447" lat="53.002534"><ele>752.139038</ele><time>2021-07-17T11:01:32Z</time><extensions><speed>0.508548</speed><course>310.132080</course><hAcc>0.889019</hAcc><vAcc>0.716143</vAcc></extensions></trkpt>
      <trkpt lon="-4.138452" lat="53.002530"><ele>752.306885</ele><time>2021-07-17T11:01:33Z</time><extensions><speed>0.517250</speed><course>310.327301</course><hAcc>0.889010</hAcc><vAcc>0.716115</vAcc></extensions></trkpt>
      <trkpt lon="-4.138458" lat="53.002527"><ele>752.471619</ele><time>2021-07-17T11:01:34Z</time><extensions><speed>0.526238</speed><course>308.925873</course><hAcc>0.889007</hAcc><vAcc>0.716092</vAcc></extensions></trkpt>
      <trkpt lon="-4.138464" lat="53.002524"><ele>752.633057</ele><time>2021-07-17T11:01:35Z</time><extensions><speed>0.534378</speed><course>308.955322</course><hAcc>0.889010</hAcc><vAcc>0.716078</vAcc></extensions></trkpt>
      <trkpt lon="-4.138469" lat="53.002521"><ele>752.791077</ele><time>2021-07-17T11:01:36Z</time><extensions><speed>0.540360</speed><course>303.152588</course><hAcc>0.889020</hAcc><vAcc>0.716082</vAcc></extensions></trkpt>
      <trkpt lon="-4.138475" lat="53.002517"><ele>752.945862</ele><time>2021-07-17T11:01:37Z</time><extensions><speed>0.542629</speed><course>313.156525</course><hAcc>0.889037</hAcc><vAcc>0.716111</vAcc></extensions></trkpt>
      <trkpt lon="-4.138482" lat="53.002514"><ele>753.097900</ele><time>2021-07-17T11:01:38Z</time><extensions><speed>0.539364</speed><course>307.864197</course><hAcc>0.889061</hAcc><vAcc>0.716174</vAcc></extensions></trkpt>
      <trkpt lon="-4.138487" lat="53.002511"><ele>753.247375</ele><time>2021-07-17T11:01:39Z</time><extensions><speed>0.529010</speed><course>309.541687</course><hAcc>0.889093</hAcc><vAcc>0.716276</vAcc></extensions></trkpt>
      <trkpt lon="-4.138493" lat="53.002508"><ele>753.394836</ele><time>2021-07-17T11:01:40Z</time><extensions><speed>0.510707</speed><course>312.130341</course><hAcc>0.889133</hAcc><vAcc>0.716416</vAcc></extensions></trkpt>
      <trkpt lon="-4.138498" lat="53.002504"><ele>753.540588</ele><time>2021-07-17T11:01:41Z</time><extensions><speed>0.484751</speed><course>310.268982</course><hAcc>0.889180</hAcc><vAcc>0.716588</vAcc></extensions></trkpt>
      <trkpt lon="-4.138503" lat="53.002501"><ele>753.685303</ele><time>2021-07-17T11:01:42Z</time><extensions><speed>0.452654</speed><course>308.247070</course><hAcc>0.889235</hAcc><vAcc>0.716785</vAcc></extensions></trkpt>
      <trkpt lon="-4.138506" lat="53.002498"><ele>753.829590</ele><time>2021-07-17T11:01:43Z</time><extensions><speed>0.417416</speed><course>304.229858</course><hAcc>0.889295</hAcc><vAcc>0.716998</vAcc></extensions></trkpt>
      <trkpt lon="-4.138509" lat="53.002495"><ele>753.973755</ele><time>2021-07-17T11:01:44Z</time><extensions><speed>0.384330</speed><course>308.310059</course><hAcc>0.889360</hAcc><vAcc>0.717220</vAcc></extensions></trkpt>
      <trkpt lon="-4.138511" lat="53.002492"><ele>754.117676</ele><time>2021-07-17T11:01:45Z</time><extensions><speed>0.360122</speed><course>311.142822</course><hAcc>0.889427</hAcc><vAcc>0.717446</vAcc></extensions></trkpt>
      <trkpt lon="-4.138511" lat="53.002488"><ele>754.260864</ele><time>2021-07-17T11:01:46Z</time><extensions><speed>0.350272</speed><course>305.518036</course><hAcc>0.889494</hAcc><vAcc>0.717670</vAcc></extensions></trkpt>
      <trkpt lon="-4.138510" lat="53.002485"><ele>754.402588</ele><time>2021-07-17T11:01:47Z</time><extensions><speed>0.355899</speed><course>303.061462</course><hAcc>0.889560</hAcc><vAcc>0.717890</vAcc></extensions></trkpt>
      <trkpt lon="-4.138508" lat="53.002482"><ele>754.542114</ele><time>2021-07-17T11:01:48Z</time><extensions><speed>0.373255</speed><course>298.232086</course><hAcc>0.889621</hAcc><vAcc>0.718101</vAcc></extensions></trkpt>
      <trkpt lon="-4.138505" lat="53.002479"><ele>754.678589</ele><time>2021-07-17T11:01:49Z</time><extensions><speed>0.396209</speed><course>289.358276</course><hAcc>0.889675</hAcc><vAcc>0.718299</vAcc></extensions></trkpt>
      <trkpt lon="-4.138502" lat="53.002477"><ele>754.811218</ele><time>2021-07-17T11:01:50Z</time><extensions><speed>0.418796</speed><course>285.924469</course><hAcc>0.889719</hAcc><vAcc>0.718476</vAcc></extensions></trkpt>
      <trkpt lon="-4.138497" lat="53.002474"><ele>754.938965</ele><time>2021-07-17T11:01:51Z</time><extensions><speed>0.436966</speed><course>280.520447</course><hAcc>0.889752</hAcc><vAcc>0.718620</vAcc></extensions></trkpt>
      <trkpt lon="-4.138492" lat="53.002471"><ele>755.060913</ele><time>2021-07-17T11:01:52Z</time><extensions><speed>0.448806</speed><course>286.862061</course><hAcc>0.889771</hAcc><vAcc>0.718719</vAcc></extensions></trkpt>
      <trkpt lon="-4.138487" lat="53.002469"><ele>755.175781</ele><time>2021-07-17T11:01:53Z</time><extensions><speed>0.453455</speed><course>295.700317</course><hAcc>0.889774</hAcc><vAcc>0.718760</vAcc></extensions></trkpt>
      <trkpt lon="-4.138482" lat="53.002466"><ele>755.282532</ele><time>2021-07-17T11:01:54Z</time><extensions><speed>0.450215</speed><course>296.161560</course><hAcc>0.889762</hAcc><vAcc>0.718737</vAcc></extensions></trkpt>
      <trkpt lon="-4.138477" lat="53.002464"><ele>755.380737</ele><time>2021-07-17T11:01:55Z</time><extensions><speed>0.438569</speed><course>298.229218</course><hAcc>0.889732</hAcc><vAcc>0.718648</vAcc></extensions></trkpt>
      <trkpt lon="-4.138471" lat="53.002461"><ele>755.470337</ele><time>2021-07-17T11:01:56Z</time><extensions><speed>0.419004</speed><course>297.545471</course><hAcc>0.889687</hAcc><vAcc>0.718492</vAcc></extensions></trkpt>
      <trkpt lon="-4.138467" lat="53.002459"><ele>755.551941</ele><time>2021-07-17T11:01:57Z</time><extensions><speed>0.392991</speed><course>292.454163</course><hAcc>0.889627</hAcc><vAcc>0.718274</vAcc></extensions></trkpt>
      <trkpt lon="-4.138463" lat="53.002457"><ele>755.626587</ele><time>2021-07-17T11:01:58Z</time><extensions><speed>0.362940</speed><course>287.195465</course><hAcc>0.889554</hAcc><vAcc>0.718002</vAcc></extensions></trkpt>
      <trkpt lon="-4.138459" lat="53.002455"><ele>755.695618</ele><time>2021-07-17T11:01:59Z</time><extensions><speed>0.332319</speed><course>283.339600</course><hAcc>0.889472</hAcc><vAcc>0.717686</vAcc></extensions></trkpt>
      <trkpt lon="-4.138456" lat="53.002452"><ele>755.760986</ele><time>2021-07-17T11:02:00Z</time><extensions><speed>0.305081</speed><course>283.687531</course><hAcc>0.889385</hAcc><vAcc>0.717344</vAcc></extensions></trkpt>
      <trkpt lon="-4.138454" lat="53.002450"><ele>755.824402</ele><time>2021-07-17T11:02:01Z</time><extensions><speed>0.285343</speed><course>284.089417</course><hAcc>0.889297</hAcc><vAcc>0.716993</vAcc></extensions></trkpt>
      <trkpt lon="-4.138453" lat="53.002447"><ele>755.887390</ele><time>2021-07-17T11:02:02Z</time><extensions><speed>0.275717</speed><course>286.432800</course><hAcc>0.889210</hAcc><vAcc>0.716655</vAcc></extensions></trkpt>
      <trkpt lon="-4.138452" lat="53.002445"><ele>755.951050</ele><time>2021-07-17T11:02:03Z</time><extensions><speed>0.275736</speed><course>288.844025</course><hAcc>0.889128</hAcc><vAcc>0.716351</vAcc></extensions></trkpt>
      <trkpt lon="-4.138452" lat="53.002443"><ele>756.016235</ele><time>2021-07-17T11:02:04Z</time><extensions><speed>0.282634</speed><course>294.600861</course><hAcc>0.889054</hAcc><vAcc>0.716097</vAcc></extensions></trkpt>
      <trkpt lon="-4.138453" lat="53.002440"><ele>756.083923</ele><time>2021-07-17T11:02:05Z</time><extensions><speed>0.293393</speed><course>289.399475</course><hAcc>0.888989</hAcc><vAcc>0.715899</vAcc></extensions></trkpt>
      <trkpt lon="-4.138454" lat="53.002437"><ele>756.154602</ele><time>2021-07-17T11:02:06Z</time><extensions><speed>0.305886</speed><course>292.462738</course><hAcc>0.888934</hAcc><vAcc>0.715753</vAcc></extensions></trkpt>
      <trkpt lon="-4.138455" lat="53.002435"><ele>756.228088</ele><time>2021-07-17T11:02:07Z</time><extensions><speed>0.319132</speed><course>292.044128</course><hAcc>0.888891</hAcc><vAcc>0.715650</vAcc></extensions></trkpt>
      <trkpt lon="-4.138457" lat="53.002432"><ele>756.303772</ele><time>2021-07-17T11:02:08Z</time><extensions><speed>0.332692</speed><course>289.426849</course><hAcc>0.888857</hAcc><vAcc>0.715578</vAcc></extensions></trkpt>
      <trkpt lon="-4.138458" lat="53.002429"><ele>756.381042</ele><time>2021-07-17T11:02:09Z</time><extensions><speed>0.345731</speed><course>292.821838</course><hAcc>0.888835</hAcc><vAcc>0.715527</vAcc></extensions></trkpt>
      <trkpt lon="-4.138461" lat="53.002426"><ele>756.459167</ele><time>2021-07-17T11:02:10Z</time><extensions><speed>0.357316</speed><course>287.405121</course><hAcc>0.888821</hAcc><vAcc>0.715494</vAcc></extensions></trkpt>
      <trkpt lon="-4.138463" lat="53.002423"><ele>756.536743</ele><time>2021-07-17T11:02:11Z</time><extensions><speed>0.366744</speed><course>289.328461</course><hAcc>0.888815</hAcc><vAcc>0.715476</vAcc></extensions></trkpt>
      <trkpt lon="-4.138465" lat="53.002420"><ele>756.612244</ele><time>2021-07-17T11:02:12Z</time><extensions><speed>0.373919</speed><course>290.686554</course><hAcc>0.888817</hAcc><vAcc>0.715473</vAcc></extensions></trkpt>
      <trkpt lon="-4.138467" lat="53.002417"><ele>756.685120</ele><time>2021-07-17T11:02:13Z</time><extensions><speed>0.379179</speed><course>291.519623</course><hAcc>0.888825</hAcc><vAcc>0.715487</vAcc></extensions></trkpt>
      <trkpt lon="-4.138469" lat="53.002414"><ele>756.755737</ele><time>2021-07-17T11:02:14Z</time><extensions><speed>0.383129</speed><course>289.260345</course><hAcc>0.888839</hAcc><vAcc>0.715520</vAcc></extensions></trkpt>
      <trkpt lon="-4.138471" lat="53.002411"><ele>756.824707</ele><time>2021-07-17T11:02:15Z</time><extensions><speed>0.386605</speed><course>291.671295</course><hAcc>0.888859</hAcc><vAcc>0.715573</vAcc></extensions></trkpt>
      <trkpt lon="-4.138473" lat="53.002407"><ele>756.892517</ele><time>2021-07-17T11:02:16Z</time><extensions><speed>0.390337</speed><course>285.797272</course><hAcc>0.888884</hAcc><vAcc>0.715648</vAcc></extensions></trkpt>
      <trkpt lon="-4.138474" lat="53.002404"><ele>756.959778</ele><time>2021-07-17T11:02:17Z</time><extensions><speed>0.395024</speed><course>284.045776</course><hAcc>0.888914</hAcc><vAcc>0.715746</vAcc></extensions></trkpt>
      <trkpt lon="-4.138475" lat="53.002400"><ele>757.027100</ele><time>2021-07-17T11:02:18Z</time><extensions><speed>0.401106</speed><course>290.744446</course><hAcc>0.888949</hAcc><vAcc>0.715863</vAcc></extensions></trkpt>
      <trkpt lon="-4.138476" lat="53.002397"><ele>757.095337</ele><time>2021-07-17T11:02:19Z</time><extensions><speed>0.408665</speed><course>286.155334</course><hAcc>0.888988</hAcc><vAcc>0.715995</vAcc></extensions></trkpt>
      <trkpt lon="-4.138477" lat="53.002393"><ele>757.165710</ele><time>2021-07-17T11:02:20Z</time><extensions><speed>0.417757</speed><course>292.078705</course><hAcc>0.889032</hAcc><vAcc>0.716139</vAcc></extensions></trkpt>
      <trkpt lon="-4.138477" lat="53.002389"><ele>757.239624</ele><time>2021-07-17T11:02:21Z</time><extensions><speed>0.428595</speed><course>292.906311</course><hAcc>0.889078</hAcc><vAcc>0.716288</vAcc></extensions></trkpt>
      <trkpt lon="-4.138478" lat="53.002385"><ele>757.318481</ele><time>2021-07-17T11:02:22Z</time><extensions><speed>0.442061</speed><course>291.462067</course><hAcc>0.889128</hAcc><vAcc>0.716438</vAcc></extensions></trkpt>
      <trkpt lon="-4.138480" lat="53.002381"><ele>757.403687</ele><time>2021-07-17T11:02:23Z</time><extensions><speed>0.459171</speed><course>290.448425</course><hAcc>0.889181</hAcc><vAcc>0.716584</vAcc></extensions></trkpt>
      <trkpt lon="-4.138482" lat="53.002377"><ele>757.496948</ele><time>2021-07-17T11:02:24Z</time><extensions><speed>0.480299</speed><course>295.857269</course><hAcc>0.889237</hAcc><vAcc>0.716724</vAcc></extensions></trkpt>
      <trkpt lon="-4.138484" lat="53.002373"><ele>757.599609</ele><time>2021-07-17T11:02:26Z</time><extensions><speed>0.505198</speed><course>298.185364</course><hAcc>0.889278</hAcc><vAcc>0.716848</vAcc></extensions></trkpt>
      <trkpt lon="-4.138488" lat="53.002369"><ele>757.712280</ele><time>2021-07-17T11:02:27Z</time><extensions><speed>0.533013</speed><course>294.469940</course><hAcc>0.889301</hAcc><vAcc>0.716958</vAcc></extensions></trkpt>
      <trkpt lon="-4.138492" lat="53.002365"><ele>757.834961</ele><time>2021-07-17T11:02:28Z</time><extensions><speed>0.562556</speed><course>292.898438</course><hAcc>0.889325</hAcc><vAcc>0.717068</vAcc></extensions></trkpt>
      <trkpt lon="-4.138496" lat="53.002360"><ele>757.967407</ele><time>2021-07-17T11:02:29Z</time><extensions><speed>0.592121</speed><course>292.422791</course><hAcc>0.889347</hAcc><vAcc>0.717176</vAcc></extensions></trkpt>
      <trkpt lon="-4.138502" lat="53.002356"><ele>758.109436</ele><time>2021-07-17T11:02:30Z</time><extensions><speed>0.619946</speed><course>292.622986</course><hAcc>0.889366</hAcc><vAcc>0.717274</vAcc></extensions></trkpt>
      <trkpt lon="-4.138508" lat="53.002352"><ele>758.260864</ele><time>2021-07-17T11:02:31Z</time><extensions><speed>0.644368</speed><course>292.749084</course><hAcc>0.889382</hAcc><vAcc>0.717356</vAcc></extensions></trkpt>
      <trkpt lon="-4.138514" lat="53.002347"><ele>758.421448</ele><time>2021-07-17T11:02:32Z</time><extensions><speed>0.663937</speed><course>294.832458</course><hAcc>0.889394</hAcc><vAcc>0.717415</vAcc></extensions></trkpt>
      <trkpt lon="-4.138520" lat="53.002343"><ele>758.590576</ele><time>2021-07-17T11:02:33Z</time><extensions><speed>0.677841</speed><course>290.563019</course><hAcc>0.889402</hAcc><vAcc>0.717447</vAcc></extensions></trkpt>
      <trkpt lon="-4.138527" lat="53.002338"><ele>758.767761</ele><time>2021-07-17T11:02:34Z</time><extensions><speed>0.686444</speed><course>288.082062</course><hAcc>0.889407</hAcc><vAcc>0.717450</vAcc></extensions></trkpt>
      <trkpt lon="-4.138534" lat="53.002333"><ele>758.952209</ele><time>2021-07-17T11:02:35Z</time><extensions><speed>0.690776</speed><course>289.238037</course><hAcc>0.889411</hAcc><vAcc>0.717430</vAcc></extensions></trkpt>
      <trkpt lon="-4.138541" lat="53.002329"><ele>759.143433</ele><time>2021-07-17T11:02:36Z</time><extensions><speed>0.691950</speed><course>289.037109</course><hAcc>0.889413</hAcc><vAcc>0.717397</vAcc></extensions></trkpt>
      <trkpt lon="-4.138548" lat="53.002324"><ele>759.341125</ele><time>2021-07-17T11:02:37Z</time><extensions><speed>0.690839</speed><course>291.884949</course><hAcc>0.889415</hAcc><vAcc>0.717363</vAcc></extensions></trkpt>
      <trkpt lon="-4.138554" lat="53.002319"><ele>759.544983</ele><time>2021-07-17T11:02:38Z</time><extensions><speed>0.688090</speed><course>287.567657</course><hAcc>0.889418</hAcc><vAcc>0.717341</vAcc></extensions></trkpt>
      <trkpt lon="-4.138561" lat="53.002315"><ele>759.754517</ele><time>2021-07-17T11:02:39Z</time><extensions><speed>0.684539</speed><course>291.768890</course><hAcc>0.889422</hAcc><vAcc>0.717338</vAcc></extensions></trkpt>
      <trkpt lon="-4.138567" lat="53.002310"><ele>759.969055</ele><time>2021-07-17T11:02:40Z</time><extensions><speed>0.681100</speed><course>296.126740</course><hAcc>0.889429</hAcc><vAcc>0.717360</vAcc></extensions></trkpt>
      <trkpt lon="-4.138573" lat="53.002305"><ele>760.187622</ele><time>2021-07-17T11:02:41Z</time><extensions><speed>0.678630</speed><course>297.059143</course><hAcc>0.889437</hAcc><vAcc>0.717406</vAcc></extensions></trkpt>
      <trkpt lon="-4.138579" lat="53.002300"><ele>760.409180</ele><time>2021-07-17T11:02:42Z</time><extensions><speed>0.678269</speed><course>303.696320</course><hAcc>0.889446</hAcc><vAcc>0.717470</vAcc></extensions></trkpt>
      <trkpt lon="-4.138584" lat="53.002295"><ele>760.632446</ele><time>2021-07-17T11:02:43Z</time><extensions><speed>0.681180</speed><course>307.460022</course><hAcc>0.889455</hAcc><vAcc>0.717544</vAcc></extensions></trkpt>
      <trkpt lon="-4.138589" lat="53.002289"><ele>760.856201</ele><time>2021-07-17T11:02:44Z</time><extensions><speed>0.688066</speed><course>302.094666</course><hAcc>0.889463</hAcc><vAcc>0.717615</vAcc></extensions></trkpt>
      <trkpt lon="-4.138594" lat="53.002284"><ele>761.079407</ele><time>2021-07-17T11:02:45Z</time><extensions><speed>0.699313</speed><course>294.763123</course><hAcc>0.889470</hAcc><vAcc>0.717672</vAcc></extensions></trkpt>
      <trkpt lon="-4.138599" lat="53.002278"><ele>761.301025</ele><time>2021-07-17T11:02:46Z</time><extensions><speed>0.715234</speed><course>292.310913</course><hAcc>0.889473</hAcc><vAcc>0.717704</vAcc></extensions></trkpt>
      <trkpt lon="-4.138603" lat="53.002272"><ele>761.519714</ele><time>2021-07-17T11:02:47Z</time><extensions><speed>0.735990</speed><course>286.252472</course><hAcc>0.889473</hAcc><vAcc>0.717704</vAcc></extensions></trkpt>
      <trkpt lon="-4.138607" lat="53.002266"><ele>761.734070</ele><time>2021-07-17T11:02:48Z</time><extensions><speed>0.761232</speed><course>277.085999</course><hAcc>0.889470</hAcc><vAcc>0.717675</vAcc></extensions></trkpt>
      <trkpt lon="-4.138611" lat="53.002259"><ele>761.942993</ele><time>2021-07-17T11:02:49Z</time><extensions><speed>0.790078</speed><course>269.880463</course><hAcc>0.889463</hAcc><vAcc>0.717620</vAcc></extensions></trkpt>
      <trkpt lon="-4.138615" lat="53.002253"><ele>762.145447</ele><time>2021-07-17T11:02:50Z</time><extensions><speed>0.821266</speed><course>256.014618</course><hAcc>0.889454</hAcc><vAcc>0.717550</vAcc></extensions></trkpt>
      <trkpt lon="-4.138619" lat="53.002245"><ele>762.340576</ele><time>2021-07-17T11:02:51Z</time><extensions><speed>0.853355</speed><course>250.524368</course><hAcc>0.889444</hAcc><vAcc>0.717476</vAcc></extensions></trkpt>
      <trkpt lon="-4.138622" lat="53.002238"><ele>762.527710</ele><time>2021-07-17T11:02:52Z</time><extensions><speed>0.885084</speed><course>237.491638</course><hAcc>0.889434</hAcc><vAcc>0.717409</vAcc></extensions></trkpt>
      <trkpt lon="-4.138626" lat="53.002230"><ele>762.705933</ele><time>2021-07-17T11:02:53Z</time><extensions><speed>0.915445</speed><course>231.976761</course><hAcc>0.889425</hAcc><vAcc>0.717359</vAcc></extensions></trkpt>
      <trkpt lon="-4.138629" lat="53.002222"><ele>762.874146</ele><time>2021-07-17T11:02:54Z</time><extensions><speed>0.943799</speed><course>228.504318</course><hAcc>0.889418</hAcc><vAcc>0.717331</vAcc></extensions></trkpt>
      <trkpt lon="-4.138632" lat="53.002214"><ele>763.031006</ele><time>2021-07-17T11:02:55Z</time><extensions><speed>0.969938</speed><course>227.577087</course><hAcc>0.889413</hAcc><vAcc>0.717328</vAcc></extensions></trkpt>
      <trkpt lon="-4.138635" lat="53.002205"><ele>763.175781</ele><time>2021-07-17T11:02:56Z</time><extensions><speed>0.993575</speed><course>219.513672</course><hAcc>0.889411</hAcc><vAcc>0.717347</vAcc></extensions></trkpt>
      <trkpt lon="-4.138637" lat="53.002196"><ele>763.308411</ele><time>2021-07-17T11:02:57Z</time><extensions><speed>1.014325</speed><course>224.903015</course><hAcc>0.889411</hAcc><vAcc>0.717381</vAcc></extensions></trkpt>
      <trkpt lon="-4.138639" lat="53.002187"><ele>763.429565</ele><time>2021-07-17T11:02:58Z</time><extensions><speed>1.031925</speed><course>222.390198</course><hAcc>0.889413</hAcc><vAcc>0.717423</vAcc></extensions></trkpt>
      <trkpt lon="-4.138641" lat="53.002178"><ele>763.540344</ele><time>2021-07-17T11:02:59Z</time><extensions><speed>1.046350</speed><course>223.313202</course><hAcc>0.889414</hAcc><vAcc>0.717464</vAcc></extensions></trkpt>
      <trkpt lon="-4.138642" lat="53.002168"><ele>763.641663</ele><time>2021-07-17T11:03:00Z</time><extensions><speed>1.058024</speed><course>224.045700</course><hAcc>0.889415</hAcc><vAcc>0.717494</vAcc></extensions></trkpt>
      <trkpt lon="-4.138643" lat="53.002159"><ele>763.734375</ele><time>2021-07-17T11:03:01Z</time><extensions><speed>1.067328</speed><course>224.975723</course><hAcc>0.889413</hAcc><vAcc>0.717511</vAcc></extensions></trkpt>
      <trkpt lon="-4.138644" lat="53.002149"><ele>763.819153</ele><time>2021-07-17T11:03:02Z</time><extensions><speed>1.074422</speed><course>226.513992</course><hAcc>0.889408</hAcc><vAcc>0.717511</vAcc></extensions></trkpt>
      <trkpt lon="-4.138644" lat="53.002139"><ele>763.896790</ele><time>2021-07-17T11:03:03Z</time><extensions><speed>1.079604</speed><course>227.291473</course><hAcc>0.889398</hAcc><vAcc>0.717495</vAcc></extensions></trkpt>
      <trkpt lon="-4.138645" lat="53.002130"><ele>763.968445</ele><time>2021-07-17T11:03:04Z</time><extensions><speed>1.083345</speed><course>231.833313</course><hAcc>0.889382</hAcc><vAcc>0.717465</vAcc></extensions></trkpt>
      <trkpt lon="-4.138645" lat="53.002120"><ele>764.035828</ele><time>2021-07-17T11:03:04Z</time><extensions><speed>1.086414</speed><course>230.421005</course><hAcc>0.889379</hAcc><vAcc>0.717437</vAcc></extensions></trkpt>
      <trkpt lon="-4.138646" lat="53.002110"><ele>764.100464</ele><time>2021-07-17T11:03:05Z</time><extensions><speed>1.089758</speed><course>235.980087</course><hAcc>0.889388</hAcc><vAcc>0.717416</vAcc></extensions></trkpt>
      <trkpt lon="-4.138647" lat="53.002100"><ele>764.163574</ele><time>2021-07-17T11:03:06Z</time><extensions><speed>1.094167</speed><course>243.213364</course><hAcc>0.889393</hAcc><vAcc>0.717393</vAcc></extensions></trkpt>
      <trkpt lon="-4.138649" lat="53.002091"><ele>764.226501</ele><time>2021-07-17T11:03:07Z</time><extensions><speed>1.100294</speed><course>253.165268</course><hAcc>0.889396</hAcc><vAcc>0.717373</vAcc></extensions></trkpt>
      <trkpt lon="-4.138651" lat="53.002081"><ele>764.290649</ele><time>2021-07-17T11:03:08Z</time><extensions><speed>1.108373</speed><course>266.505096</course><hAcc>0.889397</hAcc><vAcc>0.717359</vAcc></extensions></trkpt>
      <trkpt lon="-4.138653" lat="53.002071"><ele>764.357117</ele><time>2021-07-17T11:03:09Z</time><extensions><speed>1.118046</speed><course>267.255646</course><hAcc>0.889399</hAcc><vAcc>0.717351</vAcc></extensions></trkpt>
      <trkpt lon="-4.138656" lat="53.002061"><ele>764.427124</ele><time>2021-07-17T11:03:10Z</time><extensions><speed>1.128675</speed><course>271.176971</course><hAcc>0.889402</hAcc><vAcc>0.717353</vAcc></extensions></trkpt>
      <trkpt lon="-4.138659" lat="53.002051"><ele>764.501526</ele><time>2021-07-17T11:03:11Z</time><extensions><speed>1.139491</speed><course>283.145996</course><hAcc>0.889408</hAcc><vAcc>0.717364</vAcc></extensions></trkpt>
      <trkpt lon="-4.138662" lat="53.002041"><ele>764.581116</ele><time>2021-07-17T11:03:12Z</time><extensions><speed>1.149624</speed><course>291.499756</course><hAcc>0.889416</hAcc><vAcc>0.717384</vAcc></extensions></trkpt>
      <trkpt lon="-4.138666" lat="53.002031"><ele>764.666443</ele><time>2021-07-17T11:03:13Z</time><extensions><speed>1.158333</speed><course>295.960785</course><hAcc>0.889428</hAcc><vAcc>0.717415</vAcc></extensions></trkpt>
      <trkpt lon="-4.138670" lat="53.002020"><ele>764.757996</ele><time>2021-07-17T11:03:14Z</time><extensions><speed>1.164989</speed><course>298.309418</course><hAcc>0.889443</hAcc><vAcc>0.717458</vAcc></extensions></trkpt>
      <trkpt lon="-4.138675" lat="53.002010"><ele>764.856018</ele><time>2021-07-17T11:03:15Z</time><extensions><speed>1.168857</speed><course>301.442566</course><hAcc>0.889463</hAcc><vAcc>0.717515</vAcc></extensions></trkpt>
      <trkpt lon="-4.138680" lat="53.002000"><ele>764.960815</ele><time>2021-07-17T11:03:16Z</time><extensions><speed>1.169480</speed><course>301.820831</course><hAcc>0.889486</hAcc><vAcc>0.717586</vAcc></extensions></trkpt>
      <trkpt lon="-4.138685" lat="53.001990"><ele>765.072632</ele><time>2021-07-17T11:03:17Z</time><extensions><speed>1.166841</speed><course>306.533081</course><hAcc>0.889512</hAcc><vAcc>0.717672</vAcc></extensions></trkpt>
      <trkpt lon="-4.138690" lat="53.001980"><ele>765.191406</ele><time>2021-07-17T11:03:18Z</time><extensions><speed>1.161220</speed><course>310.759277</course><hAcc>0.889542</hAcc><vAcc>0.717771</vAcc></extensions></trkpt>
      <trkpt lon="-4.138695" lat="53.001970"><ele>765.317017</ele><time>2021-07-17T11:03:19Z</time><extensions><speed>1.153133</speed><course>315.721252</course><hAcc>0.889574</hAcc><vAcc>0.717883</vAcc></extensions></trkpt>
      <trkpt lon="-4.138700" lat="53.001961"><ele>765.448975</ele><time>2021-07-17T11:03:20Z</time><extensions><speed>1.143312</speed><course>321.376434</course><hAcc>0.889609</hAcc><vAcc>0.718002</vAcc></extensions></trkpt>
      <trkpt lon="-4.138706" lat="53.001951"><ele>765.586975</ele><time>2021-07-17T11:03:21Z</time><extensions><speed>1.132537</speed><course>321.893402</course><hAcc>0.889644</hAcc><vAcc>0.718126</vAcc></extensions></trkpt>
      <trkpt lon="-4.138711" lat="53.001941"><ele>765.731018</ele><time>2021-07-17T11:03:22Z</time><extensions><speed>1.121601</speed><course>325.867676</course><hAcc>0.889680</hAcc><vAcc>0.718250</vAcc></extensions></trkpt>
      <trkpt lon="-4.138717" lat="53.001932"><ele>765.881470</ele><time>2021-07-17T11:03:23Z</time><extensions><speed>1.111239</speed><course>319.975250</course><hAcc>0.889715</hAcc><vAcc>0.718371</vAcc></extensions></trkpt>
      <trkpt lon="-4.138723" lat="53.001922"><ele>766.039307</ele><time>2021-07-17T11:03:24Z</time><extensions><speed>1.102071</speed><course>320.826599</course><hAcc>0.889748</hAcc><vAcc>0.718488</vAcc></extensions></trkpt>
      <trkpt lon="-4.138728" lat="53.001913"><ele>766.205017</ele><time>2021-07-17T11:03:25Z</time><extensions><speed>1.094753</speed><course>320.826599</course><hAcc>0.889777</hAcc><vAcc>0.718596</vAcc></extensions></trkpt>
      <trkpt lon="-4.138734" lat="53.001904"><ele>766.378540</ele><time>2021-07-17T11:03:26Z</time><extensions><speed>1.089502</speed><course>320.826599</course><hAcc>0.889803</hAcc><vAcc>0.718690</vAcc></extensions></trkpt>
      <trkpt lon="-4.138740" lat="53.001895"><ele>766.559204</ele><time>2021-07-17T11:03:27Z</time><extensions><speed>1.086372</speed><course>320.826599</course><hAcc>0.889823</hAcc><vAcc>0.718766</vAcc></extensions></trkpt>
      <trkpt lon="-4.138746" lat="53.001886"><ele>766.746277</ele><time>2021-07-17T11:03:28Z</time><extensions><speed>1.085417</speed><course>320.826599</course><hAcc>0.889838</hAcc><vAcc>0.718820</vAcc></extensions></trkpt>
      <trkpt lon="-4.138752" lat="53.001877"><ele>766.939392</ele><time>2021-07-17T11:03:29Z</time><extensions><speed>1.086470</speed><course>320.826599</course><hAcc>0.889848</hAcc><vAcc>0.718851</vAcc></extensions></trkpt>
      <trkpt lon="-4.138758" lat="53.001868"><ele>767.138367</ele><time>2021-07-17T11:03:30Z</time><extensions><speed>1.089260</speed><course>320.826599</course><hAcc>0.889851</hAcc><vAcc>0.718857</vAcc></extensions></trkpt>
      <trkpt lon="-4.138764" lat="53.001859"><ele>767.342712</ele><time>2021-07-17T11:03:31Z</time><extensions><speed>1.093311</speed><course>320.826599</course><hAcc>0.889848</hAcc><vAcc>0.718840</vAcc></extensions></trkpt>
      <trkpt lon="-4.138770" lat="53.001850"><ele>767.551636</ele><time>2021-07-17T11:03:32Z</time><extensions><speed>1.098168</speed><course>320.826599</course><hAcc>0.889838</hAcc><vAcc>0.718801</vAcc></extensions></trkpt>
      <trkpt lon="-4.138776" lat="53.001840"><ele>767.764221</ele><time>2021-07-17T11:03:33Z</time><extensions><speed>1.103334</speed><course>320.826599</course><hAcc>0.889824</hAcc><vAcc>0.718745</vAcc></extensions></trkpt>
      <trkpt lon="-4.138782" lat="53.001831"><ele>767.979614</ele><time>2021-07-17T11:03:34Z</time><extensions><speed>1.108235</speed><course>320.826599</course><hAcc>0.889804</hAcc><vAcc>0.718674</vAcc></extensions></trkpt>
      <trkpt lon="-4.138787" lat="53.001822"><ele>768.197266</ele><time>2021-07-17T11:03:35Z</time><extensions><speed>1.112540</speed><course>320.826599</course><hAcc>0.889780</hAcc><vAcc>0.718591</vAcc></extensions></trkpt>
      <trkpt lon="-4.138793" lat="53.001812"><ele>768.416748</ele><time>2021-07-17T11:03:36Z</time><extensions><speed>1.115902</speed><course>320.826599</course><hAcc>0.889754</hAcc><vAcc>0.718498</vAcc></extensions></trkpt>
      <trkpt lon="-4.138798" lat="53.001803"><ele>768.637634</ele><time>2021-07-17T11:03:37Z</time><extensions><speed>1.118252</speed><course>320.826599</course><hAcc>0.889724</hAcc><vAcc>0.718397</vAcc></extensions></trkpt>
      <trkpt lon="-4.138803" lat="53.001793"><ele>768.858948</ele><time>2021-07-17T11:03:38Z</time><extensions><speed>1.119837</speed><course>320.826599</course><hAcc>0.889694</hAcc><vAcc>0.718290</vAcc></extensions></trkpt>
      <trkpt lon="-4.138807" lat="53.001783"><ele>769.079712</ele><time>2021-07-17T11:03:39Z</time><extensions><speed>1.120883</speed><course>320.826599</course><hAcc>0.889664</hAcc><vAcc>0.718181</vAcc></extensions></trkpt>
      <trkpt lon="-4.138812" lat="53.001774"><ele>769.298950</ele><time>2021-07-17T11:03:40Z</time><extensions><speed>1.121733</speed><course>320.826599</course><hAcc>0.889634</hAcc><vAcc>0.718074</vAcc></extensions></trkpt>
      <trkpt lon="-4.138816" lat="53.001764"><ele>769.515991</ele><time>2021-07-17T11:03:41Z</time><extensions><speed>1.122680</speed><course>320.826599</course><hAcc>0.889606</hAcc><vAcc>0.717973</vAcc></extensions></trkpt>
      <trkpt lon="-4.138819" lat="53.001754"><ele>769.730469</ele><time>2021-07-17T11:03:42Z</time><extensions><speed>1.124013</speed><course>320.826599</course><hAcc>0.889580</hAcc><vAcc>0.717883</vAcc></extensions></trkpt>
      <trkpt lon="-4.138822" lat="53.001744"><ele>769.941772</ele><time>2021-07-17T11:03:43Z</time><extensions><speed>1.125927</speed><course>320.826599</course><hAcc>0.889555</hAcc><vAcc>0.717805</vAcc></extensions></trkpt>
      <trkpt lon="-4.138825" lat="53.001734"><ele>770.148926</ele><time>2021-07-17T11:03:44Z</time><extensions><speed>1.128474</speed><course>320.826599</course><hAcc>0.889534</hAcc><vAcc>0.717740</vAcc></extensions></trkpt>
      <trkpt lon="-4.138827" lat="53.001724"><ele>770.350830</ele><time>2021-07-17T11:03:45Z</time><extensions><speed>1.131652</speed><course>320.826569</course><hAcc>0.889515</hAcc><vAcc>0.717686</vAcc></extensions></trkpt>
      <trkpt lon="-4.138829" lat="53.001714"><ele>770.546143</ele><time>2021-07-17T11:03:46Z</time><extensions><speed>1.135276</speed><course>320.826569</course><hAcc>0.889499</hAcc><vAcc>0.717643</vAcc></extensions></trkpt>
      <trkpt lon="-4.138831" lat="53.001704"><ele>770.733887</ele><time>2021-07-17T11:03:47Z</time><extensions><speed>1.139119</speed><course>320.826569</course><hAcc>0.889485</hAcc><vAcc>0.717607</vAcc></extensions></trkpt>
      <trkpt lon="-4.138833" lat="53.001693"><ele>770.913513</ele><time>2021-07-17T11:03:48Z</time><extensions><speed>1.142976</speed><course>320.826569</course><hAcc>0.889474</hAcc><vAcc>0.717577</vAcc></extensions></trkpt>
      <trkpt lon="-4.138835" lat="53.001683"><ele>771.084656</ele><time>2021-07-17T11:03:49Z</time><extensions><speed>1.146528</speed><course>306.179871</course><hAcc>0.889464</hAcc><vAcc>0.717551</vAcc></extensions></trkpt>
      <trkpt lon="-4.138836" lat="53.001673"><ele>771.247925</ele><time>2021-07-17T11:03:50Z</time><extensions><speed>1.149590</speed><course>252.340622</course><hAcc>0.889457</hAcc><vAcc>0.717527</vAcc></extensions></trkpt>
      <trkpt lon="-4.138838" lat="53.001663"><ele>771.404541</ele><time>2021-07-17T11:03:51Z</time><extensions><speed>1.151976</speed><course>240.417450</course><hAcc>0.889450</hAcc><vAcc>0.717505</vAcc></extensions></trkpt>
      <trkpt lon="-4.138839" lat="53.001652"><ele>771.556702</ele><time>2021-07-17T11:03:52Z</time><extensions><speed>1.153595</speed><course>226.735764</course><hAcc>0.889445</hAcc><vAcc>0.717484</vAcc></extensions></trkpt>
      <trkpt lon="-4.138841" lat="53.001642"><ele>771.706543</ele><time>2021-07-17T11:03:53Z</time><extensions><speed>1.154536</speed><course>213.254318</course><hAcc>0.889441</hAcc><vAcc>0.717467</vAcc></extensions></trkpt>
      <trkpt lon="-4.138844" lat="53.001632"><ele>771.855774</ele><time>2021-07-17T11:03:54Z</time><extensions><speed>1.154668</speed><course>209.983795</course><hAcc>0.889437</hAcc><vAcc>0.717455</vAcc></extensions></trkpt>
      <trkpt lon="-4.138846" lat="53.001621"><ele>772.005798</ele><time>2021-07-17T11:03:55Z</time><extensions><speed>1.154024</speed><course>212.464371</course><hAcc>0.889433</hAcc><vAcc>0.717448</vAcc></extensions></trkpt>
      <trkpt lon="-4.138849" lat="53.001611"><ele>772.157104</ele><time>2021-07-17T11:03:56Z</time><extensions><speed>1.152927</speed><course>212.464355</course><hAcc>0.889429</hAcc><vAcc>0.717444</vAcc></extensions></trkpt>
      <trkpt lon="-4.138852" lat="53.001601"><ele>772.309814</ele><time>2021-07-17T11:03:57Z</time><extensions><speed>1.151510</speed><course>212.464355</course><hAcc>0.889424</hAcc><vAcc>0.717439</vAcc></extensions></trkpt>
      <trkpt lon="-4.138855" lat="53.001591"><ele>772.463806</ele><time>2021-07-17T11:03:58Z</time><extensions><speed>1.149813</speed><course>212.464340</course><hAcc>0.889419</hAcc><vAcc>0.717431</vAcc></extensions></trkpt>
      <trkpt lon="-4.138858" lat="53.001581"><ele>772.618652</ele><time>2021-07-17T11:03:59Z</time><extensions><speed>1.147856</speed><course>212.464325</course><hAcc>0.889413</hAcc><vAcc>0.717416</vAcc></extensions></trkpt>
      <trkpt lon="-4.138861" lat="53.001571"><ele>772.773987</ele><time>2021-07-17T11:04:00Z</time><extensions><speed>1.145532</speed><course>212.464325</course><hAcc>0.889406</hAcc><vAcc>0.717392</vAcc></extensions></trkpt>
      <trkpt lon="-4.138865" lat="53.001561"><ele>772.929565</ele><time>2021-07-17T11:04:01Z</time><extensions><speed>1.142591</speed><course>212.464325</course><hAcc>0.889398</hAcc><vAcc>0.717361</vAcc></extensions></trkpt>
      <trkpt lon="-4.138869" lat="53.001551"><ele>773.085083</ele><time>2021-07-17T11:04:02Z</time><extensions><speed>1.138692</speed><course>212.464310</course><hAcc>0.889390</hAcc><vAcc>0.717327</vAcc></extensions></trkpt>
      <trkpt lon="-4.138873" lat="53.001541"><ele>773.240234</ele><time>2021-07-17T11:04:03Z</time><extensions><speed>1.133425</speed><course>305.064514</course><hAcc>0.889381</hAcc><vAcc>0.717291</vAcc></extensions></trkpt>
      <trkpt lon="-4.138877" lat="53.001531"><ele>773.394958</ele><time>2021-07-17T11:04:04Z</time><extensions><speed>1.126640</speed><course>295.507660</course><hAcc>0.889372</hAcc><vAcc>0.717256</vAcc></extensions></trkpt>
      <trkpt lon="-4.138880" lat="53.001521"><ele>773.549194</ele><time>2021-07-17T11:04:05Z</time><extensions><speed>1.118556</speed><course>292.618195</course><hAcc>0.889363</hAcc><vAcc>0.717224</vAcc></extensions></trkpt>
      <trkpt lon="-4.138884" lat="53.001511"><ele>773.702881</ele><time>2021-07-17T11:04:06Z</time><extensions><speed>1.109356</speed><course>285.374146</course><hAcc>0.889355</hAcc><vAcc>0.717195</vAcc></extensions></trkpt>
      <trkpt lon="-4.138888" lat="53.001502"><ele>773.855835</ele><time>2021-07-17T11:04:07Z</time><extensions><speed>1.099313</speed><course>282.990997</course><hAcc>0.889349</hAcc><vAcc>0.717169</vAcc></extensions></trkpt>
      <trkpt lon="-4.138892" lat="53.001492"><ele>774.007507</ele><time>2021-07-17T11:04:08Z</time><extensions><speed>1.088887</speed><course>269.408752</course><hAcc>0.889345</hAcc><vAcc>0.717147</vAcc></extensions></trkpt>
      <trkpt lon="-4.138896" lat="53.001483"><ele>774.157410</ele><time>2021-07-17T11:04:09Z</time><extensions><speed>1.078672</speed><course>268.581787</course><hAcc>0.889343</hAcc><vAcc>0.717133</vAcc></extensions></trkpt>
      <trkpt lon="-4.138901" lat="53.001473"><ele>774.305054</ele><time>2021-07-17T11:04:10Z</time><extensions><speed>1.069354</speed><course>262.171875</course><hAcc>0.889344</hAcc><vAcc>0.717131</vAcc></extensions></trkpt>
      <trkpt lon="-4.138906" lat="53.001464"><ele>774.450073</ele><time>2021-07-17T11:04:11Z</time><extensions><speed>1.061660</speed><course>261.539520</course><hAcc>0.889347</hAcc><vAcc>0.717142</vAcc></extensions></trkpt>
      <trkpt lon="-4.138911" lat="53.001455"><ele>774.592285</ele><time>2021-07-17T11:04:12Z</time><extensions><speed>1.056164</speed><course>255.803879</course><hAcc>0.889353</hAcc><vAcc>0.717165</vAcc></extensions></trkpt>
      <trkpt lon="-4.138917" lat="53.001447"><ele>774.731934</ele><time>2021-07-17T11:04:13Z</time><extensions><speed>1.053370</speed><course>247.733398</course><hAcc>0.889360</hAcc><vAcc>0.717198</vAcc></extensions></trkpt>
      <trkpt lon="-4.138924" lat="53.001438"><ele>774.869202</ele><time>2021-07-17T11:04:14Z</time><extensions><speed>1.053920</speed><course>231.932861</course><hAcc>0.889370</hAcc><vAcc>0.717235</vAcc></extensions></trkpt>
      <trkpt lon="-4.138932" lat="53.001430"><ele>775.004272</ele><time>2021-07-17T11:04:15Z</time><extensions><speed>1.058040</speed><course>232.043365</course><hAcc>0.889381</hAcc><vAcc>0.717271</vAcc></extensions></trkpt>
      <trkpt lon="-4.138940" lat="53.001422"><ele>775.137756</ele><time>2021-07-17T11:04:16Z</time><extensions><speed>1.065349</speed><course>225.182800</course><hAcc>0.889393</hAcc><vAcc>0.717307</vAcc></extensions></trkpt>
      <trkpt lon="-4.138949" lat="53.001414"><ele>775.270447</ele><time>2021-07-17T11:04:17Z</time><extensions><speed>1.074929</speed><course>222.937302</course><hAcc>0.889404</hAcc><vAcc>0.717342</vAcc></extensions></trkpt>
      <trkpt lon="-4.138959" lat="53.001406"><ele>775.403137</ele><time>2021-07-17T11:04:18Z</time><extensions><speed>1.085222</speed><course>226.615036</course><hAcc>0.889415</hAcc><vAcc>0.717376</vAcc></extensions></trkpt>
      <trkpt lon="-4.138970" lat="53.001399"><ele>775.536743</ele><time>2021-07-17T11:04:19Z</time><extensions><speed>1.094429</speed><course>227.377960</course><hAcc>0.889425</hAcc><vAcc>0.717408</vAcc></extensions></trkpt>
      <trkpt lon="-4.138980" lat="53.001391"><ele>775.672180</ele><time>2021-07-17T11:04:20Z</time><extensions><speed>1.100594</speed><course>225.027542</course><hAcc>0.889434</hAcc><vAcc>0.717433</vAcc></extensions></trkpt>
      <trkpt lon="-4.138991" lat="53.001384"><ele>775.810486</ele><time>2021-07-17T11:04:21Z</time><extensions><speed>1.101961</speed><course>217.523773</course><hAcc>0.889442</hAcc><vAcc>0.717446</vAcc></extensions></trkpt>
      <trkpt lon="-4.139002" lat="53.001377"><ele>775.952698</ele><time>2021-07-17T11:04:22Z</time><extensions><speed>1.097304</speed><course>217.503448</course><hAcc>0.889450</hAcc><vAcc>0.717442</vAcc></extensions></trkpt>
      <trkpt lon="-4.139013" lat="53.001369"><ele>776.100159</ele><time>2021-07-17T11:04:24Z</time><extensions><speed>1.085524</speed><course>222.947372</course><hAcc>0.889441</hAcc><vAcc>0.717408</vAcc></extensions></trkpt>
      <trkpt lon="-4.139023" lat="53.001362"><ele>776.253296</ele><time>2021-07-17T11:04:25Z</time><extensions><speed>1.066041</speed><course>228.737518</course><hAcc>0.889416</hAcc><vAcc>0.717345</vAcc></extensions></trkpt>
      <trkpt lon="-4.139033" lat="53.001354"><ele>776.412842</ele><time>2021-07-17T11:04:26Z</time><extensions><speed>1.039338</speed><course>234.887939</course><hAcc>0.889393</hAcc><vAcc>0.717273</vAcc></extensions></trkpt>
      <trkpt lon="-4.139042" lat="53.001347"><ele>776.578918</ele><time>2021-07-17T11:04:27Z</time><extensions><speed>1.006980</speed><course>232.671463</course><hAcc>0.889373</hAcc><vAcc>0.717198</vAcc></extensions></trkpt>
      <trkpt lon="-4.139050" lat="53.001339"><ele>776.751343</ele><time>2021-07-17T11:04:28Z</time><extensions><speed>0.971211</speed><course>228.680756</course><hAcc>0.889355</hAcc><vAcc>0.717130</vAcc></extensions></trkpt>
      <trkpt lon="-4.139057" lat="53.001332"><ele>776.929138</ele><time>2021-07-17T11:04:29Z</time><extensions><speed>0.934291</speed><course>228.367065</course><hAcc>0.889341</hAcc><vAcc>0.717076</vAcc></extensions></trkpt>
      <trkpt lon="-4.139063" lat="53.001325"><ele>777.110840</ele><time>2021-07-17T11:04:30Z</time><extensions><speed>0.898148</speed><course>227.760208</course><hAcc>0.889332</hAcc><vAcc>0.717042</vAcc></extensions></trkpt>
      <trkpt lon="-4.139068" lat="53.001317"><ele>777.294617</ele><time>2021-07-17T11:04:31Z</time><extensions><speed>0.864615</speed><course>230.377014</course><hAcc>0.889329</hAcc><vAcc>0.717030</vAcc></extensions></trkpt>
      <trkpt lon="-4.139073" lat="53.001310"><ele>777.478271</ele><time>2021-07-17T11:04:32Z</time><extensions><speed>0.835305</speed><course>236.559235</course><hAcc>0.889332</hAcc><vAcc>0.717042</vAcc></extensions></trkpt>
      <trkpt lon="-4.139076" lat="53.001303"><ele>777.660095</ele><time>2021-07-17T11:04:33Z</time><extensions><speed>0.811450</speed><course>232.877869</course><hAcc>0.889342</hAcc><vAcc>0.717076</vAcc></extensions></trkpt>
      <trkpt lon="-4.139079" lat="53.001296"><ele>777.838867</ele><time>2021-07-17T11:04:34Z</time><extensions><speed>0.793583</speed><course>233.901962</course><hAcc>0.889359</hAcc><vAcc>0.717134</vAcc></extensions></trkpt>
      <trkpt lon="-4.139080" lat="53.001289"><ele>778.013855</ele><time>2021-07-17T11:04:35Z</time><extensions><speed>0.781517</speed><course>234.840546</course><hAcc>0.889381</hAcc><vAcc>0.717215</vAcc></extensions></trkpt>
      <trkpt lon="-4.139081" lat="53.001282"><ele>778.184753</ele><time>2021-07-17T11:04:36Z</time><extensions><speed>0.774505</speed><course>231.563858</course><hAcc>0.889409</hAcc><vAcc>0.717317</vAcc></extensions></trkpt>
      <trkpt lon="-4.139082" lat="53.001275"><ele>778.351562</ele><time>2021-07-17T11:04:37Z</time><extensions><speed>0.771382</speed><course>226.163422</course><hAcc>0.889441</hAcc><vAcc>0.717438</vAcc></extensions></trkpt>
      <trkpt lon="-4.139082" lat="53.001268"><ele>778.514404</ele><time>2021-07-17T11:04:38Z</time><extensions><speed>0.771037</speed><course>224.694687</course><hAcc>0.889475</hAcc><vAcc>0.717572</vAcc></extensions></trkpt>
      <trkpt lon="-4.139082" lat="53.001261"><ele>778.673828</ele><time>2021-07-17T11:04:39Z</time><extensions><speed>0.772775</speed><course>227.400024</course><hAcc>0.889510</hAcc><vAcc>0.717714</vAcc></extensions></trkpt>
      <trkpt lon="-4.139082" lat="53.001254"><ele>778.830078</ele><time>2021-07-17T11:04:40Z</time><extensions><speed>0.776458</speed><course>225.215622</course><hAcc>0.889544</hAcc><vAcc>0.717852</vAcc></extensions></trkpt>
      <trkpt lon="-4.139083" lat="53.001247"><ele>778.983521</ele><time>2021-07-17T11:04:41Z</time><extensions><speed>0.782554</speed><course>227.979385</course><hAcc>0.889575</hAcc><vAcc>0.717977</vAcc></extensions></trkpt>
      <trkpt lon="-4.139084" lat="53.001240"><ele>779.134521</ele><time>2021-07-17T11:04:42Z</time><extensions><speed>0.791835</speed><course>238.133682</course><hAcc>0.889603</hAcc><vAcc>0.718080</vAcc></extensions></trkpt>
      <trkpt lon="-4.139085" lat="53.001233"><ele>779.283020</ele><time>2021-07-17T11:04:43Z</time><extensions><speed>0.804569</speed><course>235.678314</course><hAcc>0.889626</hAcc><vAcc>0.718155</vAcc></extensions></trkpt>
      <trkpt lon="-4.139087" lat="53.001226"><ele>779.429016</ele><time>2021-07-17T11:04:44Z</time><extensions><speed>0.820392</speed><course>238.960709</course><hAcc>0.889644</hAcc><vAcc>0.718204</vAcc></extensions></trkpt>
      <trkpt lon="-4.139089" lat="53.001219"><ele>779.572571</ele><time>2021-07-17T11:04:45Z</time><extensions><speed>0.838845</speed><course>237.793289</course><hAcc>0.889656</hAcc><vAcc>0.718229</vAcc></extensions></trkpt>
      <trkpt lon="-4.139093" lat="53.001211"><ele>779.713501</ele><time>2021-07-17T11:04:46Z</time><extensions><speed>0.859878</speed><course>238.209671</course><hAcc>0.889660</hAcc><vAcc>0.718234</vAcc></extensions></trkpt>
      <trkpt lon="-4.139097" lat="53.001204"><ele>779.851501</ele><time>2021-07-17T11:04:47Z</time><extensions><speed>0.883666</speed><course>239.435074</course><hAcc>0.889657</hAcc><vAcc>0.718221</vAcc></extensions></trkpt>
      <trkpt lon="-4.139101" lat="53.001196"><ele>779.986389</ele><time>2021-07-17T11:04:48Z</time><extensions><speed>0.910204</speed><course>238.666733</course><hAcc>0.889648</hAcc><vAcc>0.718189</vAcc></extensions></trkpt>
      <trkpt lon="-4.139107" lat="53.001189"><ele>780.118591</ele><time>2021-07-17T11:04:49Z</time><extensions><speed>0.939270</speed><course>234.077820</course><hAcc>0.889633</hAcc><vAcc>0.718139</vAcc></extensions></trkpt>
      <trkpt lon="-4.139113" lat="53.001181"><ele>780.248352</ele><time>2021-07-17T11:04:50Z</time><extensions><speed>0.970564</speed><course>227.293335</course><hAcc>0.889612</hAcc><vAcc>0.718071</vAcc></extensions></trkpt>
      <trkpt lon="-4.139120" lat="53.001173"><ele>780.375549</ele><time>2021-07-17T11:04:51Z</time><extensions><speed>1.003505</speed><course>230.072769</course><hAcc>0.889586</hAcc><vAcc>0.717986</vAcc></extensions></trkpt>
      <trkpt lon="-4.139129" lat="53.001166"><ele>780.499634</ele><time>2021-07-17T11:04:52Z</time><extensions><speed>1.036911</speed><course>228.397232</course><hAcc>0.889555</hAcc><vAcc>0.717884</vAcc></extensions></trkpt>
      <trkpt lon="-4.139137" lat="53.001158"><ele>780.620300</ele><time>2021-07-17T11:04:53Z</time><extensions><speed>1.069261</speed><course>230.234772</course><hAcc>0.889520</hAcc><vAcc>0.717769</vAcc></extensions></trkpt>
      <trkpt lon="-4.139147" lat="53.001150"><ele>780.737183</ele><time>2021-07-17T11:04:54Z</time><extensions><speed>1.099106</speed><course>226.599274</course><hAcc>0.889482</hAcc><vAcc>0.717643</vAcc></extensions></trkpt>
      <trkpt lon="-4.139157" lat="53.001142"><ele>780.850098</ele><time>2021-07-17T11:04:55Z</time><extensions><speed>1.125801</speed><course>226.515137</course><hAcc>0.889442</hAcc><vAcc>0.717508</vAcc></extensions></trkpt>
      <trkpt lon="-4.139168" lat="53.001134"><ele>780.958374</ele><time>2021-07-17T11:04:56Z</time><extensions><speed>1.149555</speed><course>226.136917</course><hAcc>0.889400</hAcc><vAcc>0.717364</vAcc></extensions></trkpt>
      <trkpt lon="-4.139179" lat="53.001126"><ele>781.061218</ele><time>2021-07-17T11:04:57Z</time><extensions><speed>1.170498</speed><course>230.381958</course><hAcc>0.889357</hAcc><vAcc>0.717215</vAcc></extensions></trkpt>
      <trkpt lon="-4.139191" lat="53.001118"><ele>781.158081</ele><time>2021-07-17T11:04:58Z</time><extensions><speed>1.188229</speed><course>226.727509</course><hAcc>0.889314</hAcc><vAcc>0.717064</vAcc></extensions></trkpt>
      <trkpt lon="-4.139202" lat="53.001110"><ele>781.249146</ele><time>2021-07-17T11:04:59Z</time><extensions><speed>1.202165</speed><course>230.180862</course><hAcc>0.889270</hAcc><vAcc>0.716915</vAcc></extensions></trkpt>
      <trkpt lon="-4.139215" lat="53.001102"><ele>781.334595</ele><time>2021-07-17T11:05:00Z</time><extensions><speed>1.211892</speed><course>225.214905</course><hAcc>0.889226</hAcc><vAcc>0.716773</vAcc></extensions></trkpt>
      <trkpt lon="-4.139227" lat="53.001094"><ele>781.414551</ele><time>2021-07-17T11:05:01Z</time><extensions><speed>1.217412</speed><course>228.288971</course><hAcc>0.889180</hAcc><vAcc>0.716638</vAcc></extensions></trkpt>
      <trkpt lon="-4.139239" lat="53.001086"><ele>781.489258</ele><time>2021-07-17T11:05:02Z</time><extensions><speed>1.219108</speed><course>234.392639</course><hAcc>0.889133</hAcc><vAcc>0.716508</vAcc></extensions></trkpt>
      <trkpt lon="-4.139251" lat="53.001078"><ele>781.558777</ele><time>2021-07-17T11:05:03Z</time><extensions><speed>1.217697</speed><course>233.208801</course><hAcc>0.889084</hAcc><vAcc>0.716378</vAcc></extensions></trkpt>
      <trkpt lon="-4.139263" lat="53.001069"><ele>781.623413</ele><time>2021-07-17T11:05:04Z</time><extensions><speed>1.214054</speed><course>238.158752</course><hAcc>0.889032</hAcc><vAcc>0.716243</vAcc></extensions></trkpt>
      <trkpt lon="-4.139274" lat="53.001061"><ele>781.683838</ele><time>2021-07-17T11:05:05Z</time><extensions><speed>1.209046</speed><course>239.142517</course><hAcc>0.888975</hAcc><vAcc>0.716096</vAcc></extensions></trkpt>
      <trkpt lon="-4.139286" lat="53.001053"><ele>781.740723</ele><time>2021-07-17T11:05:06Z</time><extensions><speed>1.203204</speed><course>241.003922</course><hAcc>0.888913</hAcc><vAcc>0.715931</vAcc></extensions></trkpt>
      <trkpt lon="-4.139297" lat="53.001044"><ele>781.795349</ele><time>2021-07-17T11:05:07Z</time><extensions><speed>1.196679</speed><course>244.474228</course><hAcc>0.888846</hAcc><vAcc>0.715741</vAcc></extensions></trkpt>
      <trkpt lon="-4.139308" lat="53.001036"><ele>781.849121</ele><time>2021-07-17T11:05:08Z</time><extensions><speed>1.189596</speed><course>238.879150</course><hAcc>0.888774</hAcc><vAcc>0.715524</vAcc></extensions></trkpt>
      <trkpt lon="-4.139318" lat="53.001027"><ele>781.903259</ele><time>2021-07-17T11:05:09Z</time><extensions><speed>1.182162</speed><course>237.538528</course><hAcc>0.888696</hAcc><vAcc>0.715281</vAcc></extensions></trkpt>
      <trkpt lon="-4.139328" lat="53.001019"><ele>781.958923</ele><time>2021-07-17T11:05:10Z</time><extensions><speed>1.174654</speed><course>249.037552</course><hAcc>0.888614</hAcc><vAcc>0.715021</vAcc></extensions></trkpt>
      <trkpt lon="-4.139338" lat="53.001010"><ele>782.016663</ele><time>2021-07-17T11:05:10Z</time><extensions><speed>1.167431</speed><course>259.361603</course><hAcc>0.888547</hAcc><vAcc>0.714767</vAcc></extensions></trkpt>
      <trkpt lon="-4.139348" lat="53.001001"><ele>782.077026</ele><time>2021-07-17T11:05:11Z</time><extensions><speed>1.160568</speed><course>261.193176</course><hAcc>0.888497</hAcc><vAcc>0.714531</vAcc></extensions></trkpt>
      <trkpt lon="-4.139357" lat="53.000993"><ele>782.140137</ele><time>2021-07-17T11:05:12Z</time><extensions><speed>1.154080</speed><course>261.193146</course><hAcc>0.888449</hAcc><vAcc>0.714314</vAcc></extensions></trkpt>
      <trkpt lon="-4.139366" lat="53.000984"><ele>782.206238</ele><time>2021-07-17T11:05:13Z</time><extensions><speed>1.147925</speed><course>261.193146</course><hAcc>0.888407</hAcc><vAcc>0.714128</vAcc></extensions></trkpt>
      <trkpt lon="-4.139375" lat="53.000975"><ele>782.275818</ele><time>2021-07-17T11:05:14Z</time><extensions><speed>1.141955</speed><course>261.193146</course><hAcc>0.888372</hAcc><vAcc>0.713984</vAcc></extensions></trkpt>
      <trkpt lon="-4.139383" lat="53.000966"><ele>782.349304</ele><time>2021-07-17T11:05:15Z</time><extensions><speed>1.136277</speed><course>261.193146</course><hAcc>0.888348</hAcc><vAcc>0.713888</vAcc></extensions></trkpt>
      <trkpt lon="-4.139392" lat="53.000957"><ele>782.426880</ele><time>2021-07-17T11:05:16Z</time><extensions><speed>1.131018</speed><course>261.193146</course><hAcc>0.888335</hAcc><vAcc>0.713843</vAcc></extensions></trkpt>
      <trkpt lon="-4.139400" lat="53.000948"><ele>782.508301</ele><time>2021-07-17T11:05:17Z</time><extensions><speed>1.126382</speed><course>261.193146</course><hAcc>0.888335</hAcc><vAcc>0.713848</vAcc></extensions></trkpt>
      <trkpt lon="-4.139408" lat="53.000940"><ele>782.593018</ele><time>2021-07-17T11:05:18Z</time><extensions><speed>1.122532</speed><course>261.193146</course><hAcc>0.888347</hAcc><vAcc>0.713899</vAcc></extensions></trkpt>
      <trkpt lon="-4.139417" lat="53.000931"><ele>782.680420</ele><time>2021-07-17T11:05:19Z</time><extensions><speed>1.119406</speed><course>261.193146</course><hAcc>0.888370</hAcc><vAcc>0.713991</vAcc></extensions></trkpt>
      <trkpt lon="-4.139425" lat="53.000922"><ele>782.769653</ele><time>2021-07-17T11:05:20Z</time><extensions><speed>1.116824</speed><course>234.852402</course><hAcc>0.888404</hAcc><vAcc>0.714118</vAcc></extensions></trkpt>
      <trkpt lon="-4.139434" lat="53.000914"><ele>782.859802</ele><time>2021-07-17T11:05:21Z</time><extensions><speed>1.114487</speed><course>215.025620</course><hAcc>0.888445</hAcc><vAcc>0.714273</vAcc></extensions></trkpt>
      <trkpt lon="-4.139443" lat="53.000905"><ele>782.949768</ele><time>2021-07-17T11:05:22Z</time><extensions><speed>1.112296</speed><course>206.872131</course><hAcc>0.888494</hAcc><vAcc>0.714449</vAcc></extensions></trkpt>
      <trkpt lon="-4.139452" lat="53.000897"><ele>783.038513</ele><time>2021-07-17T11:05:23Z</time><extensions><speed>1.110357</speed><course>205.862991</course><hAcc>0.888547</hAcc><vAcc>0.714638</vAcc></extensions></trkpt>
      <trkpt lon="-4.139461" lat="53.000888"><ele>783.125000</ele><time>2021-07-17T11:05:24Z</time><extensions><speed>1.108884</speed><course>205.862976</course><hAcc>0.888603</hAcc><vAcc>0.714832</vAcc></extensions></trkpt>
      <trkpt lon="-4.139470" lat="53.000880"><ele>783.208496</ele><time>2021-07-17T11:05:25Z</time><extensions><speed>1.108229</speed><course>234.677673</course><hAcc>0.888660</hAcc><vAcc>0.715023</vAcc></extensions></trkpt>
      <trkpt lon="-4.139479" lat="53.000872"><ele>783.288147</ele><time>2021-07-17T11:05:26Z</time><extensions><speed>1.108794</speed><course>246.321655</course><hAcc>0.888716</hAcc><vAcc>0.715206</vAcc></extensions></trkpt>
      <trkpt lon="-4.139488" lat="53.000864"><ele>783.363220</ele><time>2021-07-17T11:05:27Z</time><extensions><speed>1.110662</speed><course>256.732239</course><hAcc>0.888771</hAcc><vAcc>0.715379</vAcc></extensions></trkpt>
      <trkpt lon="-4.139498" lat="53.000856"><ele>783.432922</ele><time>2021-07-17T11:05:28Z</time><extensions><speed>1.113345</speed><course>257.461731</course><hAcc>0.888823</hAcc><vAcc>0.715540</vAcc></extensions></trkpt>
      <trkpt lon="-4.139508" lat="53.000847"><ele>783.496521</ele><time>2021-07-17T11:05:29Z</time><extensions><speed>1.115901</speed><course>256.219269</course><hAcc>0.888871</hAcc><vAcc>0.715686</vAcc></extensions></trkpt>
      <trkpt lon="-4.139517" lat="53.000839"><ele>783.553284</ele><time>2021-07-17T11:05:30Z</time><extensions><speed>1.117620</speed><course>253.669510</course><hAcc>0.888915</hAcc><vAcc>0.715815</vAcc></extensions></trkpt>
      <trkpt lon="-4.139527" lat="53.000831"><ele>783.602722</ele><time>2021-07-17T11:05:31Z</time><extensions><speed>1.118647</speed><course>253.907227</course><hAcc>0.888954</hAcc><vAcc>0.715929</vAcc></extensions></trkpt>
      <trkpt lon="-4.139537" lat="53.000823"><ele>783.644348</ele><time>2021-07-17T11:05:32Z</time><extensions><speed>1.119324</speed><course>260.189209</course><hAcc>0.888989</hAcc><vAcc>0.716029</vAcc></extensions></trkpt>
      <trkpt lon="-4.139546" lat="53.000815"><ele>783.678467</ele><time>2021-07-17T11:05:33Z</time><extensions><speed>1.119811</speed><course>263.253174</course><hAcc>0.889019</hAcc><vAcc>0.716115</vAcc></extensions></trkpt>
      <trkpt lon="-4.139556" lat="53.000806"><ele>783.705750</ele><time>2021-07-17T11:05:34Z</time><extensions><speed>1.120471</speed><course>264.349060</course><hAcc>0.889045</hAcc><vAcc>0.716188</vAcc></extensions></trkpt>
      <trkpt lon="-4.139565" lat="53.000798"><ele>783.727234</ele><time>2021-07-17T11:05:35Z</time><extensions><speed>1.121766</speed><course>258.002991</course><hAcc>0.889068</hAcc><vAcc>0.716250</vAcc></extensions></trkpt>
      <trkpt lon="-4.139574" lat="53.000790"><ele>783.743713</ele><time>2021-07-17T11:05:36Z</time><extensions><speed>1.124041</speed><course>264.832825</course><hAcc>0.889091</hAcc><vAcc>0.716306</vAcc></extensions></trkpt>
      <trkpt lon="-4.139583" lat="53.000781"><ele>783.755798</ele><time>2021-07-17T11:05:37Z</time><extensions><speed>1.127640</speed><course>262.654938</course><hAcc>0.889115</hAcc><vAcc>0.716359</vAcc></extensions></trkpt>
      <trkpt lon="-4.139592" lat="53.000773"><ele>783.763977</ele><time>2021-07-17T11:05:38Z</time><extensions><speed>1.132497</speed><course>262.654938</course><hAcc>0.889146</hAcc><vAcc>0.716422</vAcc></extensions></trkpt>
      <trkpt lon="-4.139602" lat="53.000764"><ele>783.768616</ele><time>2021-07-17T11:05:39Z</time><extensions><speed>1.137995</speed><course>262.654938</course><hAcc>0.889192</hAcc><vAcc>0.716507</vAcc></extensions></trkpt>
      <trkpt lon="-4.139611" lat="53.000755"><ele>783.770142</ele><time>2021-07-17T11:05:40Z</time><extensions><speed>1.143033</speed><course>262.654938</course><hAcc>0.889261</hAcc><vAcc>0.716631</vAcc></extensions></trkpt>
      <trkpt lon="-4.139620" lat="53.000747"><ele>783.769104</ele><time>2021-07-17T11:05:41Z</time><extensions><speed>1.146632</speed><course>262.654938</course><hAcc>0.889368</hAcc><vAcc>0.716817</vAcc></extensions></trkpt>
      <trkpt lon="-4.139630" lat="53.000738"><ele>783.765869</ele><time>2021-07-17T11:05:42Z</time><extensions><speed>1.148517</speed><course>262.654938</course><hAcc>0.889532</hAcc><vAcc>0.717089</vAcc></extensions></trkpt>
      <trkpt lon="-4.139640" lat="53.000730"><ele>783.760864</ele><time>2021-07-17T11:05:43Z</time><extensions><speed>1.148390</speed><course>262.654938</course><hAcc>0.889778</hAcc><vAcc>0.717473</vAcc></extensions></trkpt>
      <trkpt lon="-4.139650" lat="53.000722"><ele>783.754395</ele><time>2021-07-17T11:05:44Z</time><extensions><speed>1.145589</speed><course>262.654938</course><hAcc>0.890136</hAcc><vAcc>0.717998</vAcc></extensions></trkpt>
      <trkpt lon="-4.139660" lat="53.000713"><ele>783.746887</ele><time>2021-07-17T11:05:45Z</time><extensions><speed>1.139477</speed><course>262.654938</course><hAcc>0.890641</hAcc><vAcc>0.718691</vAcc></extensions></trkpt>
      <trkpt lon="-4.139670" lat="53.000705"><ele>783.738770</ele><time>2021-07-17T11:05:46Z</time><extensions><speed>1.129389</speed><course>262.654938</course><hAcc>0.891334</hAcc><vAcc>0.719578</vAcc></extensions></trkpt>
      <trkpt lon="-4.139681" lat="53.000697"><ele>783.730591</ele><time>2021-07-17T11:05:47Z</time><extensions><speed>1.114757</speed><course>262.654938</course><hAcc>0.892254</hAcc><vAcc>0.720678</vAcc></extensions></trkpt>
      <trkpt lon="-4.139691" lat="53.000690"><ele>783.722412</ele><time>2021-07-17T11:05:48Z</time><extensions><speed>1.095149</speed><course>262.654938</course><hAcc>0.893436</hAcc><vAcc>0.721999</vAcc></extensions></trkpt>
      <trkpt lon="-4.139702" lat="53.000682"><ele>783.714111</ele><time>2021-07-17T11:05:49Z</time><extensions><speed>1.070278</speed><course>262.654938</course><hAcc>0.894902</hAcc><vAcc>0.723533</vAcc></extensions></trkpt>
      <trkpt lon="-4.139712" lat="53.000675"><ele>783.705322</ele><time>2021-07-17T11:05:50Z</time><extensions><speed>1.040180</speed><course>262.654938</course><hAcc>0.896652</hAcc><vAcc>0.725251</vAcc></extensions></trkpt>
      <trkpt lon="-4.139722" lat="53.000668"><ele>783.695251</ele><time>2021-07-17T11:05:51Z</time><extensions><speed>1.004905</speed><course>262.654938</course><hAcc>0.898652</hAcc><vAcc>0.727090</vAcc></extensions></trkpt>
      <trkpt lon="-4.139732" lat="53.000662"><ele>783.683350</ele><time>2021-07-17T11:05:52Z</time><extensions><speed>0.964556</speed><course>262.654938</course><hAcc>0.900823</hAcc><vAcc>0.728954</vAcc></extensions></trkpt>
      <trkpt lon="-4.139742" lat="53.000656"><ele>783.669617</ele><time>2021-07-17T11:05:53Z</time><extensions><speed>0.919640</speed><course>262.654938</course><hAcc>0.903037</hAcc><vAcc>0.730717</vAcc></extensions></trkpt>
      <trkpt lon="-4.139751" lat="53.000650"><ele>783.654236</ele><time>2021-07-17T11:05:54Z</time><extensions><speed>0.871159</speed><course>262.654938</course><hAcc>0.905119</hAcc><vAcc>0.732237</vAcc></extensions></trkpt>
      <trkpt lon="-4.139760" lat="53.000645"><ele>783.637451</ele><time>2021-07-17T11:05:55Z</time><extensions><speed>0.820394</speed><course>262.654938</course><hAcc>0.906874</hAcc><vAcc>0.733393</vAcc></extensions></trkpt>
      <trkpt lon="-4.139768" lat="53.000639"><ele>783.619324</ele><time>2021-07-17T11:05:56Z</time><extensions><speed>0.768662</speed><course>262.654938</course><hAcc>0.908137</hAcc><vAcc>0.734151</vAcc></extensions></trkpt>
      <trkpt lon="-4.139776" lat="53.000635"><ele>783.599792</ele><time>2021-07-17T11:05:57Z</time><extensions><speed>0.717175</speed><course>262.654938</course><hAcc>0.908879</hAcc><vAcc>0.734662</vAcc></extensions></trkpt>
      <trkpt lon="-4.139783" lat="53.000630"><ele>783.578857</ele><time>2021-07-17T11:05:58Z</time><extensions><speed>0.667116</speed><course>262.654938</course><hAcc>0.909368</hAcc><vAcc>0.735411</vAcc></extensions></trkpt>
      <trkpt lon="-4.139789" lat="53.000626"><ele>783.556335</ele><time>2021-07-17T11:05:59Z</time><extensions><speed>0.619674</speed><course>262.654938</course><hAcc>0.910433</hAcc><vAcc>0.737407</vAcc></extensions></trkpt>
      <trkpt lon="-4.139795" lat="53.000622"><ele>783.532227</ele><time>2021-07-17T11:06:00Z</time><extensions><speed>0.575950</speed><course>262.654938</course><hAcc>0.913813</hAcc><vAcc>0.742428</vAcc></extensions></trkpt>
      <trkpt lon="-4.139801" lat="53.000618"><ele>783.506531</ele><time>2021-07-17T11:06:01Z</time><extensions><speed>0.536994</speed><course>262.654938</course><hAcc>0.922590</hAcc><vAcc>0.753243</vAcc></extensions></trkpt>
      <trkpt lon="-4.139806" lat="53.000615"><ele>783.479187</ele><time>2021-07-17T11:06:02Z</time><extensions><speed>0.503737</speed><course>262.654938</course><hAcc>0.941587</hAcc><vAcc>0.773735</vAcc></extensions></trkpt>
      <trkpt lon="-4.139811" lat="53.000611"><ele>783.450317</ele><time>2021-07-17T11:06:03Z</time><extensions><speed>0.476664</speed><course>262.654938</course><hAcc>0.977487</hAcc><vAcc>0.808747</vAcc></extensions></trkpt>
      <trkpt lon="-4.139811" lat="53.000612"><ele>783.456665</ele><time>2021-07-17T11:06:04Z</time><extensions><speed>0.143525</speed><course>207.637573</course><hAcc>0.939056</hAcc><vAcc>0.772846</vAcc></extensions></trkpt>
      <trkpt lon="-4.139813" lat="53.000612"><ele>783.455200</ele><time>2021-07-17T11:06:05Z</time><extensions><speed>0.125548</speed><course>199.781464</course><hAcc>0.919300</hAcc><vAcc>0.751245</vAcc></extensions></trkpt>
      <trkpt lon="-4.139814" lat="53.000611"><ele>783.453186</ele><time>2021-07-17T11:06:06Z</time><extensions><speed>0.105498</speed><course>204.898392</course><hAcc>0.910946</hAcc><vAcc>0.740336</vAcc></extensions></trkpt>
      <trkpt lon="-4.139816" lat="53.000611"><ele>783.450989</ele><time>2021-07-17T11:06:07Z</time><extensions><speed>0.084065</speed><course>218.988647</course><hAcc>0.908496</hAcc><vAcc>0.735787</vAcc></extensions></trkpt>
      <trkpt lon="-4.139817" lat="53.000610"><ele>783.448669</ele><time>2021-07-17T11:06:08Z</time><extensions><speed>0.062180</speed><course>240.875916</course><hAcc>0.908439</hAcc><vAcc>0.734494</vAcc></extensions></trkpt>
      <trkpt lon="-4.139817" lat="53.000610"><ele>783.446533</ele><time>2021-07-17T11:06:09Z</time><extensions><speed>0.041154</speed><course>240.875916</course><hAcc>0.908813</hAcc><vAcc>0.734464</vAcc></extensions></trkpt>
      <trkpt lon="-4.139818" lat="53.000610"><ele>783.444641</ele><time>2021-07-17T11:06:10Z</time><extensions><speed>0.022307</speed><course>240.875916</course><hAcc>0.908703</hAcc><vAcc>0.734564</vAcc></extensions></trkpt>
      <trkpt lon="-4.139818" lat="53.000610"><ele>783.442932</ele><time>2021-07-17T11:06:11Z</time><extensions><speed>0.007454</speed><course>240.875916</course><hAcc>0.907831</hAcc><vAcc>0.734259</vAcc></extensions></trkpt>
      <trkpt lon="-4.139818" lat="53.000610"><ele>783.441223</ele><time>2021-07-17T11:06:12Z</time><extensions><speed>0.009389</speed><course>240.875916</course><hAcc>0.906262</hAcc><vAcc>0.733383</vAcc></extensions></trkpt>
      <trkpt lon="-4.139818" lat="53.000610"><ele>783.438843</ele><time>2021-07-17T11:06:13Z</time><extensions><speed>0.017900</speed><course>240.875916</course><hAcc>0.904208</hAcc><vAcc>0.731978</vAcc></extensions></trkpt>
      <trkpt lon="-4.139817" lat="53.000610"><ele>783.435425</ele><time>2021-07-17T11:06:14Z</time><extensions><speed>0.023081</speed><course>269.430084</course><hAcc>0.901920</hAcc><vAcc>0.730187</vAcc></extensions></trkpt>
      <trkpt lon="-4.139817" lat="53.000610"><ele>783.430603</ele><time>2021-07-17T11:06:16Z</time><extensions><speed>0.024299</speed><course>274.056000</course><hAcc>0.899595</hAcc><vAcc>0.728165</vAcc></extensions></trkpt>
      <trkpt lon="-4.139817" lat="53.000610"><ele>783.424622</ele><time>2021-07-17T11:06:17Z</time><extensions><speed>0.021517</speed><course>273.580658</course><hAcc>0.897404</hAcc><vAcc>0.726080</vAcc></extensions></trkpt>
      <trkpt lon="-4.139817" lat="53.000610"><ele>783.417542</ele><time>2021-07-17T11:06:18Z</time><extensions><speed>0.015559</speed><course>266.285736</course><hAcc>0.895466</hAcc><vAcc>0.724081</vAcc></extensions></trkpt>
      <trkpt lon="-4.139816" lat="53.000610"><ele>783.409546</ele><time>2021-07-17T11:06:19Z</time><extensions><speed>0.012499</speed><course>280.416809</course><hAcc>0.893832</hAcc><vAcc>0.722272</vAcc></extensions></trkpt>
      <trkpt lon="-4.139816" lat="53.000610"><ele>783.400574</ele><time>2021-07-17T11:06:20Z</time><extensions><speed>0.023382</speed><course>289.633057</course><hAcc>0.892514</hAcc><vAcc>0.720720</vAcc></extensions></trkpt>
      <trkpt lon="-4.139817" lat="53.000610"><ele>783.390564</ele><time>2021-07-17T11:06:21Z</time><extensions><speed>0.042691</speed><course>274.042023</course><hAcc>0.891493</hAcc><vAcc>0.719458</vAcc></extensions></trkpt>
      <trkpt lon="-4.139817" lat="53.000609"><ele>783.379272</ele><time>2021-07-17T11:06:22Z</time><extensions><speed>0.066660</speed><course>259.398621</course><hAcc>0.890736</hAcc><vAcc>0.718496</vAcc></extensions></trkpt>
      <trkpt lon="-4.139818" lat="53.000609"><ele>783.366516</ele><time>2021-07-17T11:06:23Z</time><extensions><speed>0.094318</speed><course>235.228027</course><hAcc>0.890200</hAcc><vAcc>0.717819</vAcc></extensions></trkpt>
      <trkpt lon="-4.139819" lat="53.000608"><ele>783.352295</ele><time>2021-07-17T11:06:24Z</time><extensions><speed>0.124942</speed><course>233.943741</course><hAcc>0.889841</hAcc><vAcc>0.717400</vAcc></extensions></trkpt>
      <trkpt lon="-4.139821" lat="53.000607"><ele>783.336792</ele><time>2021-07-17T11:06:25Z</time><extensions><speed>0.157525</speed><course>251.986771</course><hAcc>0.889618</hAcc><vAcc>0.717195</vAcc></extensions></trkpt>
      <trkpt lon="-4.139822" lat="53.000606"><ele>783.320496</ele><time>2021-07-17T11:06:26Z</time><extensions><speed>0.190629</speed><course>230.632401</course><hAcc>0.889494</hAcc><vAcc>0.717156</vAcc></extensions></trkpt>
      <trkpt lon="-4.139825" lat="53.000605"><ele>783.303955</ele><time>2021-07-17T11:06:27Z</time><extensions><speed>0.222710</speed><course>208.539734</course><hAcc>0.889439</hAcc><vAcc>0.717230</vAcc></extensions></trkpt>
      <trkpt lon="-4.139828" lat="53.000604"><ele>783.287476</ele><time>2021-07-17T11:06:28Z</time><extensions><speed>0.252532</speed><course>217.062653</course><hAcc>0.889428</hAcc><vAcc>0.717366</vAcc></extensions></trkpt>
      <trkpt lon="-4.139831" lat="53.000602"><ele>783.271301</ele><time>2021-07-17T11:06:29Z</time><extensions><speed>0.279586</speed><course>216.480164</course><hAcc>0.889442</hAcc><vAcc>0.717518</vAcc></extensions></trkpt>
      <trkpt lon="-4.139834" lat="53.000601"><ele>783.255432</ele><time>2021-07-17T11:06:30Z</time><extensions><speed>0.304201</speed><course>215.204285</course><hAcc>0.889466</hAcc><vAcc>0.717654</vAcc></extensions></trkpt>
      <trkpt lon="-4.139838" lat="53.000599"><ele>783.239746</ele><time>2021-07-17T11:06:31Z</time><extensions><speed>0.327030</speed><course>192.608246</course><hAcc>0.889490</hAcc><vAcc>0.717751</vAcc></extensions></trkpt>
      <trkpt lon="-4.139842" lat="53.000597"><ele>783.223938</ele><time>2021-07-17T11:06:32Z</time><extensions><speed>0.348493</speed><course>196.818375</course><hAcc>0.889506</hAcc><vAcc>0.717803</vAcc></extensions></trkpt>
      <trkpt lon="-4.139846" lat="53.000595"><ele>783.207520</ele><time>2021-07-17T11:06:33Z</time><extensions><speed>0.368481</speed><course>200.564194</course><hAcc>0.889511</hAcc><vAcc>0.717806</vAcc></extensions></trkpt>
      <trkpt lon="-4.139851" lat="53.000593"><ele>783.189880</ele><time>2021-07-17T11:06:34Z</time><extensions><speed>0.386271</speed><course>224.718231</course><hAcc>0.889503</hAcc><vAcc>0.717762</vAcc></extensions></trkpt>
      <trkpt lon="-4.139856" lat="53.000591"><ele>783.170471</ele><time>2021-07-17T11:06:35Z</time><extensions><speed>0.400758</speed><course>228.969803</course><hAcc>0.889482</hAcc><vAcc>0.717671</vAcc></extensions></trkpt>
      <trkpt lon="-4.139861" lat="53.000589"><ele>783.148499</ele><time>2021-07-17T11:06:36Z</time><extensions><speed>0.411545</speed><course>250.366501</course><hAcc>0.889452</hAcc><vAcc>0.717540</vAcc></extensions></trkpt>
      <trkpt lon="-4.139866" lat="53.000587"><ele>783.123108</ele><time>2021-07-17T11:06:37Z</time><extensions><speed>0.419058</speed><course>-1.000000</course><hAcc>0.889414</hAcc><vAcc>0.717381</vAcc></extensions></trkpt>
      <trkpt lon="-4.139871" lat="53.000585"><ele>783.093628</ele><time>2021-07-17T11:06:38Z</time><extensions><speed>0.423777</speed><course>232.063629</course><hAcc>0.889372</hAcc><vAcc>0.717207</vAcc></extensions></trkpt>
      <trkpt lon="-4.139877" lat="53.000584"><ele>783.059509</ele><time>2021-07-17T11:06:39Z</time><extensions><speed>0.426369</speed><course>232.063614</course><hAcc>0.889328</hAcc><vAcc>0.717033</vAcc></extensions></trkpt>
      <trkpt lon="-4.139882" lat="53.000582"><ele>783.020630</ele><time>2021-07-17T11:06:40Z</time><extensions><speed>0.427248</speed><course>232.063614</course><hAcc>0.889287</hAcc><vAcc>0.716875</vAcc></extensions></trkpt>
      <trkpt lon="-4.139888" lat="53.000580"><ele>782.977173</ele><time>2021-07-17T11:06:41Z</time><extensions><speed>0.426229</speed><course>232.063599</course><hAcc>0.889250</hAcc><vAcc>0.716743</vAcc></extensions></trkpt>
      <trkpt lon="-4.139893" lat="53.000578"><ele>782.929260</ele><time>2021-07-17T11:06:42Z</time><extensions><speed>0.422948</speed><course>232.063599</course><hAcc>0.889220</hAcc><vAcc>0.716645</vAcc></extensions></trkpt>
      <trkpt lon="-4.139899" lat="53.000576"><ele>782.877502</ele><time>2021-07-17T11:06:43Z</time><extensions><speed>0.416767</speed><course>232.063583</course><hAcc>0.889198</hAcc><vAcc>0.716582</vAcc></extensions></trkpt>
      <trkpt lon="-4.139904" lat="53.000574"><ele>782.822754</ele><time>2021-07-17T11:06:44Z</time><extensions><speed>0.406558</speed><course>232.063583</course><hAcc>0.889187</hAcc><vAcc>0.716553</vAcc></extensions></trkpt>
      <trkpt lon="-4.139909" lat="53.000572"><ele>782.765442</ele><time>2021-07-17T11:06:45Z</time><extensions><speed>0.391487</speed><course>248.555511</course><hAcc>0.889186</hAcc><vAcc>0.716560</vAcc></extensions></trkpt>
      <trkpt lon="-4.139914" lat="53.000571"><ele>782.706238</ele><time>2021-07-17T11:06:46Z</time><extensions><speed>0.371742</speed><course>214.727661</course><hAcc>0.889197</hAcc><vAcc>0.716601</vAcc></extensions></trkpt>
      <trkpt lon="-4.139919" lat="53.000569"><ele>782.645752</ele><time>2021-07-17T11:06:47Z</time><extensions><speed>0.348271</speed><course>215.656113</course><hAcc>0.889218</hAcc><vAcc>0.716677</vAcc></extensions></trkpt>
      <trkpt lon="-4.139923" lat="53.000567"><ele>782.584717</ele><time>2021-07-17T11:06:48Z</time><extensions><speed>0.322515</speed><course>205.637772</course><hAcc>0.889251</hAcc><vAcc>0.716785</vAcc></extensions></trkpt>
      <trkpt lon="-4.139927" lat="53.000566"><ele>782.523438</ele><time>2021-07-17T11:06:49Z</time><extensions><speed>0.295395</speed><course>201.575424</course><hAcc>0.889293</hAcc><vAcc>0.716921</vAcc></extensions></trkpt>
      <trkpt lon="-4.139930" lat="53.000564"><ele>782.462585</ele><time>2021-07-17T11:06:50Z</time><extensions><speed>0.267563</speed><course>196.854248</course><hAcc>0.889345</hAcc><vAcc>0.717087</vAcc></extensions></trkpt>
      <trkpt lon="-4.139933" lat="53.000563"><ele>782.402832</ele><time>2021-07-17T11:06:51Z</time><extensions><speed>0.239948</speed><course>198.264053</course><hAcc>0.889406</hAcc><vAcc>0.717283</vAcc></extensions></trkpt>
      <trkpt lon="-4.139935" lat="53.000561"><ele>782.344727</ele><time>2021-07-17T11:06:52Z</time><extensions><speed>0.213782</speed><course>198.636932</course><hAcc>0.889474</hAcc><vAcc>0.717509</vAcc></extensions></trkpt>
      <trkpt lon="-4.139938" lat="53.000560"><ele>782.288391</ele><time>2021-07-17T11:06:53Z</time><extensions><speed>0.190444</speed><course>192.727798</course><hAcc>0.889548</hAcc><vAcc>0.717764</vAcc></extensions></trkpt>
      <trkpt lon="-4.139940" lat="53.000559"><ele>782.234436</ele><time>2021-07-17T11:06:54Z</time><extensions><speed>0.170750</speed><course>184.691818</course><hAcc>0.889629</hAcc><vAcc>0.718041</vAcc></extensions></trkpt>
      <trkpt lon="-4.139941" lat="53.000558"><ele>782.183411</ele><time>2021-07-17T11:06:55Z</time><extensions><speed>0.155226</speed><course>177.917740</course><hAcc>0.889714</hAcc><vAcc>0.718331</vAcc></extensions></trkpt>
      <trkpt lon="-4.139943" lat="53.000557"><ele>782.136108</ele><time>2021-07-17T11:06:56Z</time><extensions><speed>0.144255</speed><course>169.935883</course><hAcc>0.889805</hAcc><vAcc>0.718623</vAcc></extensions></trkpt>
      <trkpt lon="-4.139945" lat="53.000556"><ele>782.092834</ele><time>2021-07-17T11:06:57Z</time><extensions><speed>0.138237</speed><course>168.290512</course><hAcc>0.889899</hAcc><vAcc>0.718915</vAcc></extensions></trkpt>
      <trkpt lon="-4.139946" lat="53.000556"><ele>782.053833</ele><time>2021-07-17T11:06:58Z</time><extensions><speed>0.137677</speed><course>175.847488</course><hAcc>0.889995</hAcc><vAcc>0.719209</vAcc></extensions></trkpt>
      <trkpt lon="-4.139948" lat="53.000555"><ele>782.019104</ele><time>2021-07-17T11:06:59Z</time><extensions><speed>0.142770</speed><course>182.489380</course><hAcc>0.890091</hAcc><vAcc>0.719510</vAcc></extensions></trkpt>
      <trkpt lon="-4.139950" lat="53.000555"><ele>781.988953</ele><time>2021-07-17T11:07:00Z</time><extensions><speed>0.153368</speed><course>193.224472</course><hAcc>0.890185</hAcc><vAcc>0.719820</vAcc></extensions></trkpt>
      <trkpt lon="-4.139953" lat="53.000554"><ele>781.963562</ele><time>2021-07-17T11:07:01Z</time><extensions><speed>0.169890</speed><course>210.457108</course><hAcc>0.890275</hAcc><vAcc>0.720136</vAcc></extensions></trkpt>
      <trkpt lon="-4.139955" lat="53.000554"><ele>781.943237</ele><time>2021-07-17T11:07:02Z</time><extensions><speed>0.193427</speed><course>227.054108</course><hAcc>0.890360</hAcc><vAcc>0.720449</vAcc></extensions></trkpt>
      <trkpt lon="-4.139958" lat="53.000553"><ele>781.928040</ele><time>2021-07-17T11:07:03Z</time><extensions><speed>0.224795</speed><course>247.666534</course><hAcc>0.890438</hAcc><vAcc>0.720746</vAcc></extensions></trkpt>
      <trkpt lon="-4.139962" lat="53.000553"><ele>781.917664</ele><time>2021-07-17T11:07:04Z</time><extensions><speed>0.264256</speed><course>261.197876</course><hAcc>0.890507</hAcc><vAcc>0.721011</vAcc></extensions></trkpt>
      <trkpt lon="-4.139966" lat="53.000552"><ele>781.911682</ele><time>2021-07-17T11:07:05Z</time><extensions><speed>0.311199</speed><course>263.217255</course><hAcc>0.890567</hAcc><vAcc>0.721230</vAcc></extensions></trkpt>
      <trkpt lon="-4.139971" lat="53.000551"><ele>781.909302</ele><time>2021-07-17T11:07:06Z</time><extensions><speed>0.364018</speed><course>271.463165</course><hAcc>0.890617</hAcc><vAcc>0.721396</vAcc></extensions></trkpt>
      <trkpt lon="-4.139977" lat="53.000551"><ele>781.909546</ele><time>2021-07-17T11:07:07Z</time><extensions><speed>0.420301</speed><course>281.991608</course><hAcc>0.890655</hAcc><vAcc>0.721506</vAcc></extensions></trkpt>
      <trkpt lon="-4.139983" lat="53.000550"><ele>781.911255</ele><time>2021-07-17T11:07:08Z</time><extensions><speed>0.476820</speed><course>285.895782</course><hAcc>0.890681</hAcc><vAcc>0.721563</vAcc></extensions></trkpt>
      <trkpt lon="-4.139990" lat="53.000549"><ele>781.913208</ele><time>2021-07-17T11:07:09Z</time><extensions><speed>0.529879</speed><course>287.327179</course><hAcc>0.890695</hAcc><vAcc>0.721574</vAcc></extensions></trkpt>
      <trkpt lon="-4.139999" lat="53.000548"><ele>781.914307</ele><time>2021-07-17T11:07:10Z</time><extensions><speed>0.575685</speed><course>297.396240</course><hAcc>0.890696</hAcc><vAcc>0.721548</vAcc></extensions></trkpt>
      <trkpt lon="-4.140007" lat="53.000547"><ele>781.913818</ele><time>2021-07-17T11:07:11Z</time><extensions><speed>0.610641</speed><course>299.473175</course><hAcc>0.890685</hAcc><vAcc>0.721492</vAcc></extensions></trkpt>
      <trkpt lon="-4.140016" lat="53.000546"><ele>781.911194</ele><time>2021-07-17T11:07:12Z</time><extensions><speed>0.631734</speed><course>297.683289</course><hAcc>0.890662</hAcc><vAcc>0.721410</vAcc></extensions></trkpt>
      <trkpt lon="-4.140026" lat="53.000546"><ele>781.906128</ele><time>2021-07-17T11:07:13Z</time><extensions><speed>0.636862</speed><course>292.365356</course><hAcc>0.890629</hAcc><vAcc>0.721307</vAcc></extensions></trkpt>
      <trkpt lon="-4.140035" lat="53.000545"><ele>781.898621</ele><time>2021-07-17T11:07:14Z</time><extensions><speed>0.625517</speed><course>291.092651</course><hAcc>0.890585</hAcc><vAcc>0.721182</vAcc></extensions></trkpt>
      <trkpt lon="-4.140044" lat="53.000544"><ele>781.888733</ele><time>2021-07-17T11:07:15Z</time><extensions><speed>0.598980</speed><course>297.007721</course><hAcc>0.890532</hAcc><vAcc>0.721033</vAcc></extensions></trkpt>
      <trkpt lon="-4.140053" lat="53.000544"><ele>781.876831</ele><time>2021-07-17T11:07:16Z</time><extensions><speed>0.559646</speed><course>291.539093</course><hAcc>0.890470</hAcc><vAcc>0.720856</vAcc></extensions></trkpt>
      <trkpt lon="-4.140061" lat="53.000543"><ele>781.863037</ele><time>2021-07-17T11:07:17Z</time><extensions><speed>0.509704</speed><course>293.314819</course><hAcc>0.890401</hAcc><vAcc>0.720648</vAcc></extensions></trkpt>
      <trkpt lon="-4.140068" lat="53.000543"><ele>781.847412</ele><time>2021-07-17T11:07:18Z</time><extensions><speed>0.451056</speed><course>297.043213</course><hAcc>0.890326</hAcc><vAcc>0.720407</vAcc></extensions></trkpt>
      <trkpt lon="-4.140074" lat="53.000543"><ele>781.829895</ele><time>2021-07-17T11:07:19Z</time><extensions><speed>0.386255</speed><course>301.573547</course><hAcc>0.890246</hAcc><vAcc>0.720138</vAcc></extensions></trkpt>
      <trkpt lon="-4.140079" lat="53.000543"><ele>781.810486</ele><time>2021-07-17T11:07:20Z</time><extensions><speed>0.318746</speed><course>305.542847</course><hAcc>0.890163</hAcc><vAcc>0.719848</vAcc></extensions></trkpt>
      <trkpt lon="-4.140084" lat="53.000543"><ele>781.789673</ele><time>2021-07-17T11:07:21Z</time><extensions><speed>0.252546</speed><course>304.461029</course><hAcc>0.890078</hAcc><vAcc>0.719549</vAcc></extensions></trkpt>
      <trkpt lon="-4.140087" lat="53.000542"><ele>781.767578</ele><time>2021-07-17T11:07:22Z</time><extensions><speed>0.190732</speed><course>304.519958</course><hAcc>0.889993</hAcc><vAcc>0.719256</vAcc></extensions></trkpt>
      <trkpt lon="-4.140089" lat="53.000542"><ele>781.744385</ele><time>2021-07-17T11:07:22Z</time><extensions><speed>0.135360</speed><course>306.835541</course><hAcc>0.889928</hAcc><vAcc>0.718997</vAcc></extensions></trkpt>
      <trkpt lon="-4.140091" lat="53.000542"><ele>781.720154</ele><time>2021-07-17T11:07:24Z</time><extensions><speed>0.087388</speed><course>312.924469</course><hAcc>0.889866</hAcc><vAcc>0.718767</vAcc></extensions></trkpt>
      <trkpt lon="-4.140092" lat="53.000542"><ele>781.695190</ele><time>2021-07-17T11:07:24Z</time><extensions><speed>0.047437</speed><course>313.121582</course><hAcc>0.889811</hAcc><vAcc>0.718576</vAcc></extensions></trkpt>
      <trkpt lon="-4.140092" lat="53.000542"><ele>781.669373</ele><time>2021-07-17T11:07:25Z</time><extensions><speed>0.015212</speed><course>312.363678</course><hAcc>0.889782</hAcc><vAcc>0.718441</vAcc></extensions></trkpt>
      <trkpt lon="-4.140092" lat="53.000542"><ele>781.642090</ele><time>2021-07-17T11:07:26Z</time><extensions><speed>0.012847</speed><course>309.905548</course><hAcc>0.889762</hAcc><vAcc>0.718355</vAcc></extensions></trkpt>
      <trkpt lon="-4.140092" lat="53.000542"><ele>781.612793</ele><time>2021-07-17T11:07:27Z</time><extensions><speed>0.032947</speed><course>308.597687</course><hAcc>0.889755</hAcc><vAcc>0.718317</vAcc></extensions></trkpt>
      <trkpt lon="-4.140092" lat="53.000542"><ele>781.581055</ele><time>2021-07-17T11:07:28Z</time><extensions><speed>0.048170</speed><course>307.103394</course><hAcc>0.889761</hAcc><vAcc>0.718327</vAcc></extensions></trkpt>
      <trkpt lon="-4.140091" lat="53.000542"><ele>781.547058</ele><time>2021-07-17T11:07:29Z</time><extensions><speed>0.058393</speed><course>306.897400</course><hAcc>0.889782</hAcc><vAcc>0.718381</vAcc></extensions></trkpt>
      <trkpt lon="-4.140090" lat="53.000542"><ele>781.511353</ele><time>2021-07-17T11:07:30Z</time><extensions><speed>0.064059</speed><course>302.152618</course><hAcc>0.889821</hAcc><vAcc>0.718480</vAcc></extensions></trkpt>
      <trkpt lon="-4.140089" lat="53.000542"><ele>781.474670</ele><time>2021-07-17T11:07:31Z</time><extensions><speed>0.066001</speed><course>297.726410</course><hAcc>0.889878</hAcc><vAcc>0.718627</vAcc></extensions></trkpt>
      <trkpt lon="-4.140088" lat="53.000542"><ele>781.437622</ele><time>2021-07-17T11:07:32Z</time><extensions><speed>0.065015</speed><course>300.194183</course><hAcc>0.889955</hAcc><vAcc>0.718835</vAcc></extensions></trkpt>
      <trkpt lon="-4.140087" lat="53.000542"><ele>781.401184</ele><time>2021-07-17T11:07:33Z</time><extensions><speed>0.061724</speed><course>297.151825</course><hAcc>0.890056</hAcc><vAcc>0.719118</vAcc></extensions></trkpt>
      <trkpt lon="-4.140086" lat="53.000542"><ele>781.366211</ele><time>2021-07-17T11:07:34Z</time><extensions><speed>0.056436</speed><course>298.399384</course><hAcc>0.890186</hAcc><vAcc>0.719490</vAcc></extensions></trkpt>
      <trkpt lon="-4.140085" lat="53.000542"><ele>781.333679</ele><time>2021-07-17T11:07:35Z</time><extensions><speed>0.049467</speed><course>300.837921</course><hAcc>0.890352</hAcc><vAcc>0.719961</vAcc></extensions></trkpt>
      <trkpt lon="-4.140085" lat="53.000542"><ele>781.304077</ele><time>2021-07-17T11:07:36Z</time><extensions><speed>0.041390</speed><course>299.844330</course><hAcc>0.890566</hAcc><vAcc>0.720537</vAcc></extensions></trkpt>
      <trkpt lon="-4.140084" lat="53.000542"><ele>781.277710</ele><time>2021-07-17T11:07:37Z</time><extensions><speed>0.032841</speed><course>300.001373</course><hAcc>0.890844</hAcc><vAcc>0.721224</vAcc></extensions></trkpt>
      <trkpt lon="-4.140084" lat="53.000542"><ele>781.254761</ele><time>2021-07-17T11:07:38Z</time><extensions><speed>0.024401</speed><course>294.568817</course><hAcc>0.891207</hAcc><vAcc>0.722026</vAcc></extensions></trkpt>
      <trkpt lon="-4.140083" lat="53.000542"><ele>781.235168</ele><time>2021-07-17T11:07:39Z</time><extensions><speed>0.016582</speed><course>300.687103</course><hAcc>0.891681</hAcc><vAcc>0.722951</vAcc></extensions></trkpt>
      <trkpt lon="-4.140083" lat="53.000542"><ele>781.218750</ele><time>2021-07-17T11:07:40Z</time><extensions><speed>0.009874</speed><course>297.691925</course><hAcc>0.892299</hAcc><vAcc>0.724013</vAcc></extensions></trkpt>
      <trkpt lon="-4.140083" lat="53.000542"><ele>781.205261</ele><time>2021-07-17T11:07:41Z</time><extensions><speed>0.004908</speed><course>293.928223</course><hAcc>0.893093</hAcc><vAcc>0.725226</vAcc></extensions></trkpt>
      <trkpt lon="-4.140083" lat="53.000542"><ele>781.194458</ele><time>2021-07-17T11:07:42Z</time><extensions><speed>0.002940</speed><course>297.041656</course><hAcc>0.894100</hAcc><vAcc>0.726603</vAcc></extensions></trkpt>
      <trkpt lon="-4.140083" lat="53.000542"><ele>781.185913</ele><time>2021-07-17T11:07:43Z</time><extensions><speed>0.003184</speed><course>298.722290</course><hAcc>0.895350</hAcc><vAcc>0.728146</vAcc></extensions></trkpt>
      <trkpt lon="-4.140083" lat="53.000542"><ele>781.179382</ele><time>2021-07-17T11:07:44Z</time><extensions><speed>0.002480</speed><course>296.674316</course><hAcc>0.896861</hAcc><vAcc>0.729836</vAcc></extensions></trkpt>
      <trkpt lon="-4.140083" lat="53.000542"><ele>781.174377</ele><time>2021-07-17T11:07:45Z</time><extensions><speed>0.002877</speed><course>301.147156</course><hAcc>0.898628</hAcc><vAcc>0.731630</vAcc></extensions></trkpt>
      <trkpt lon="-4.140083" lat="53.000542"><ele>781.170471</ele><time>2021-07-17T11:07:46Z</time><extensions><speed>0.008949</speed><course>301.618805</course><hAcc>0.900615</hAcc><vAcc>0.733456</vAcc></extensions></trkpt>
      <trkpt lon="-4.140083" lat="53.000542"><ele>781.167358</ele><time>2021-07-17T11:07:47Z</time><extensions><speed>0.018899</speed><course>300.678009</course><hAcc>0.902743</hAcc><vAcc>0.735206</vAcc></extensions></trkpt>
      <trkpt lon="-4.140082" lat="53.000542"><ele>781.164551</ele><time>2021-07-17T11:07:48Z</time><extensions><speed>0.032676</speed><course>306.078644</course><hAcc>0.904884</hAcc><vAcc>0.736747</vAcc></extensions></trkpt>
      <trkpt lon="-4.140082" lat="53.000542"><ele>781.161682</ele><time>2021-07-17T11:07:49Z</time><extensions><speed>0.050493</speed><course>302.099213</course><hAcc>0.906867</hAcc><vAcc>0.737939</vAcc></extensions></trkpt>
      <trkpt lon="-4.140081" lat="53.000542"><ele>781.158386</ele><time>2021-07-17T11:07:50Z</time><extensions><speed>0.072510</speed><course>298.253754</course><hAcc>0.908500</hAcc><vAcc>0.738672</vAcc></extensions></trkpt>
      <trkpt lon="-4.140080" lat="53.000542"><ele>781.154297</ele><time>2021-07-17T11:07:51Z</time><extensions><speed>0.098754</speed><course>299.772583</course><hAcc>0.909625</hAcc><vAcc>0.738933</vAcc></extensions></trkpt>
      <trkpt lon="-4.140078" lat="53.000542"><ele>781.148987</ele><time>2021-07-17T11:07:52Z</time><extensions><speed>0.129061</speed><course>299.946075</course><hAcc>0.910215</hAcc><vAcc>0.738898</vAcc></extensions></trkpt>
      <trkpt lon="-4.140076" lat="53.000542"><ele>781.142151</ele><time>2021-07-17T11:07:53Z</time><extensions><speed>0.162999</speed><course>303.968170</course><hAcc>0.910550</hAcc><vAcc>0.739078</vAcc></extensions></trkpt>
      <trkpt lon="-4.140073" lat="53.000542"><ele>781.133606</ele><time>2021-07-17T11:07:54Z</time><extensions><speed>0.199792</speed><course>302.223755</course><hAcc>0.911463</hAcc><vAcc>0.740515</vAcc></extensions></trkpt>
      <trkpt lon="-4.140070" lat="53.000542"><ele>781.123108</ele><time>2021-07-17T11:07:55Z</time><extensions><speed>0.238227</speed><course>303.590851</course><hAcc>0.914698</hAcc><vAcc>0.745011</vAcc></extensions></trkpt>
      <trkpt lon="-4.140066" lat="53.000542"><ele>781.110596</ele><time>2021-07-17T11:07:56Z</time><extensions><speed>0.276559</speed><course>302.656281</course><hAcc>0.923342</hAcc><vAcc>0.755361</vAcc></extensions></trkpt>
      <trkpt lon="-4.140062" lat="53.000543"><ele>781.096008</ele><time>2021-07-17T11:07:57Z</time><extensions><speed>0.312413</speed><course>307.857574</course><hAcc>0.942222</hAcc><vAcc>0.775464</vAcc></extensions></trkpt>
      <trkpt lon="-4.140057" lat="53.000543"><ele>781.079529</ele><time>2021-07-17T11:07:58Z</time><extensions><speed>0.342677</speed><course>306.241272</course><hAcc>0.978024</hAcc><vAcc>0.810172</vAcc></extensions></trkpt>
      <trkpt lon="-4.140052" lat="53.000544"><ele>781.178894</ele><time>2021-07-17T11:07:59Z</time><extensions><speed>0.360562</speed><course>207.637573</course><hAcc>0.939318</hAcc><vAcc>0.773557</vAcc></extensions></trkpt>
      <trkpt lon="-4.140047" lat="53.000544"><ele>781.210205</ele><time>2021-07-17T11:08:00Z</time><extensions><speed>0.333450</speed><course>199.781464</course><hAcc>0.919445</hAcc><vAcc>0.751632</vAcc></extensions></trkpt>
      <trkpt lon="-4.140042" lat="53.000545"><ele>781.244812</ele><time>2021-07-17T11:08:01Z</time><extensions><speed>0.300921</speed><course>204.898392</course><hAcc>0.910977</hAcc><vAcc>0.740394</vAcc></extensions></trkpt>
      <trkpt lon="-4.140038" lat="53.000545"><ele>781.283142</ele><time>2021-07-17T11:08:02Z</time><extensions><speed>0.266073</speed><course>218.988647</course><hAcc>0.908417</hAcc><vAcc>0.735513</vAcc></extensions></trkpt>
      <trkpt lon="-4.140034" lat="53.000546"><ele>781.325134</ele><time>2021-07-17T11:08:04Z</time><extensions><speed>0.231228</speed><course>240.875916</course><hAcc>0.908240</hAcc><vAcc>0.733868</vAcc></extensions></trkpt>
      <trkpt lon="-4.140031" lat="53.000547"><ele>781.370056</ele><time>2021-07-17T11:08:05Z</time><extensions><speed>0.198277</speed><course>240.875916</course><hAcc>0.908478</hAcc><vAcc>0.733465</vAcc></extensions></trkpt>
      <trkpt lon="-4.140029" lat="53.000547"><ele>781.416992</ele><time>2021-07-17T11:08:06Z</time><extensions><speed>0.168147</speed><course>240.875916</course><hAcc>0.908234</hAcc><vAcc>0.733181</vAcc></extensions></trkpt>
      <trkpt lon="-4.140027" lat="53.000548"><ele>781.464844</ele><time>2021-07-17T11:08:07Z</time><extensions><speed>0.141253</speed><course>240.875916</course><hAcc>0.907231</hAcc><vAcc>0.732479</vAcc></extensions></trkpt>
      <trkpt lon="-4.140025" lat="53.000548"><ele>781.512634</ele><time>2021-07-17T11:08:08Z</time><extensions><speed>0.117990</speed><course>240.875916</course><hAcc>0.905530</hAcc><vAcc>0.731199</vAcc></extensions></trkpt>
      <trkpt lon="-4.140024" lat="53.000549"><ele>781.559509</ele><time>2021-07-17T11:08:09Z</time><extensions><speed>0.098567</speed><course>240.875916</course><hAcc>0.903347</hAcc><vAcc>0.729390</vAcc></extensions></trkpt>
      <trkpt lon="-4.140023" lat="53.000549"><ele>781.604736</ele><time>2021-07-17T11:08:10Z</time><extensions><speed>0.082883</speed><course>269.430084</course><hAcc>0.900926</hAcc><vAcc>0.727204</vAcc></extensions></trkpt>
      <trkpt lon="-4.140022" lat="53.000550"><ele>781.647644</ele><time>2021-07-17T11:08:11Z</time><extensions><speed>0.070735</speed><course>274.056000</course><hAcc>0.898488</hAcc><vAcc>0.724819</vAcc></extensions></trkpt>
      <trkpt lon="-4.140021" lat="53.000550"><ele>781.687805</ele><time>2021-07-17T11:08:12Z</time><extensions><speed>0.061862</speed><course>273.580658</course><hAcc>0.896194</hAcc><vAcc>0.722401</vAcc></extensions></trkpt>
      <trkpt lon="-4.140021" lat="53.000551"><ele>781.724731</ele><time>2021-07-17T11:08:13Z</time><extensions><speed>0.055845</speed><course>266.285736</course><hAcc>0.894149</hAcc><vAcc>0.720080</vAcc></extensions></trkpt>
      <trkpt lon="-4.140020" lat="53.000551"><ele>781.758362</ele><time>2021-07-17T11:08:14Z</time><extensions><speed>0.052095</speed><course>280.416809</course><hAcc>0.892402</hAcc><vAcc>0.717945</vAcc></extensions></trkpt>
      <trkpt lon="-4.140020" lat="53.000552"><ele>781.788513</ele><time>2021-07-17T11:08:15Z</time><extensions><speed>0.049867</speed><course>289.633057</course><hAcc>0.890961</hAcc><vAcc>0.716045</vAcc></extensions></trkpt>
      <trkpt lon="-4.140020" lat="53.000552"><ele>781.815125</ele><time>2021-07-17T11:08:16Z</time><extensions><speed>0.048543</speed><course>274.042023</course><hAcc>0.889808</hAcc><vAcc>0.714397</vAcc></extensions></trkpt>
      <trkpt lon="-4.140020" lat="53.000552"><ele>781.838379</ele><time>2021-07-17T11:08:17Z</time><extensions><speed>0.047765</speed><course>259.398621</course><hAcc>0.888907</hAcc><vAcc>0.712996</vAcc></extensions></trkpt>
      <trkpt lon="-4.140020" lat="53.000553"><ele>781.858582</ele><time>2021-07-17T11:08:18Z</time><extensions><speed>0.047353</speed><course>235.228027</course><hAcc>0.888216</hAcc><vAcc>0.711819</vAcc></extensions></trkpt>
      <trkpt lon="-4.140019" lat="53.000553"><ele>781.875916</ele><time>2021-07-17T11:08:19Z</time><extensions><speed>0.047246</speed><course>233.943741</course><hAcc>0.887693</hAcc><vAcc>0.710837</vAcc></extensions></trkpt>
      <trkpt lon="-4.140019" lat="53.000554"><ele>781.890747</ele><time>2021-07-17T11:08:20Z</time><extensions><speed>0.047413</speed><course>251.986771</course><hAcc>0.887298</hAcc><vAcc>0.710019</vAcc></extensions></trkpt>
      <trkpt lon="-4.140019" lat="53.000554"><ele>781.903503</ele><time>2021-07-17T11:08:21Z</time><extensions><speed>0.047765</speed><course>230.632401</course><hAcc>0.886999</hAcc><vAcc>0.709334</vAcc></extensions></trkpt>
      <trkpt lon="-4.140019" lat="53.000554"><ele>781.914795</ele><time>2021-07-17T11:08:22Z</time><extensions><speed>0.048140</speed><course>208.539734</course><hAcc>0.886770</hAcc><vAcc>0.708753</vAcc></extensions></trkpt>
      <trkpt lon="-4.140018" lat="53.000555"><ele>781.925171</ele><time>2021-07-17T11:08:23Z</time><extensions><speed>0.048499</speed><course>217.062653</course><hAcc>0.886593</hAcc><vAcc>0.708259</vAcc></extensions></trkpt>
      <trkpt lon="-4.140018" lat="53.000555"><ele>781.935181</ele><time>2021-07-17T11:08:24Z</time><extensions><speed>0.049026</speed><course>216.480164</course><hAcc>0.886455</hAcc><vAcc>0.707837</vAcc></extensions></trkpt>
      <trkpt lon="-4.140017" lat="53.000555"><ele>781.945435</ele><time>2021-07-17T11:08:25Z</time><extensions><speed>0.049861</speed><course>215.204285</course><hAcc>0.886348</hAcc><vAcc>0.707483</vAcc></extensions></trkpt>
      <trkpt lon="-4.140017" lat="53.000556"><ele>781.956421</ele><time>2021-07-17T11:08:26Z</time><extensions><speed>0.050984</speed><course>192.608246</course><hAcc>0.886268</hAcc><vAcc>0.707198</vAcc></extensions></trkpt>
      <trkpt lon="-4.140016" lat="53.000556"><ele>781.968628</ele><time>2021-07-17T11:08:27Z</time><extensions><speed>0.052297</speed><course>196.818375</course><hAcc>0.886213</hAcc><vAcc>0.706990</vAcc></extensions></trkpt>
      <trkpt lon="-4.140015" lat="53.000556"><ele>781.982361</ele><time>2021-07-17T11:08:28Z</time><extensions><speed>0.053564</speed><course>200.564194</course><hAcc>0.886185</hAcc><vAcc>0.706867</vAcc></extensions></trkpt>
      <trkpt lon="-4.140015" lat="53.000556"><ele>781.997925</ele><time>2021-07-17T11:08:29Z</time><extensions><speed>0.054447</speed><course>224.718231</course><hAcc>0.886184</hAcc><vAcc>0.706840</vAcc></extensions></trkpt>
      <trkpt lon="-4.140014" lat="53.000556"><ele>782.015625</ele><time>2021-07-17T11:08:30Z</time><extensions><speed>0.054492</speed><course>228.969803</course><hAcc>0.886210</hAcc><vAcc>0.706918</vAcc></extensions></trkpt>
      <trkpt lon="-4.140013" lat="53.000557"><ele>782.035828</ele><time>2021-07-17T11:08:31Z</time><extensions><speed>0.053413</speed><course>250.366501</course><hAcc>0.886264</hAcc><vAcc>0.707109</vAcc></extensions></trkpt>
      <trkpt lon="-4.140012" lat="53.000557"><ele>782.058655</ele><time>2021-07-17T11:08:32Z</time><extensions><speed>0.051251</speed><course>-1.000000</course><hAcc>0.886345</hAcc><vAcc>0.707409</vAcc></extensions></trkpt>
      <trkpt lon="-4.140012" lat="53.000556"><ele>782.083984</ele><time>2021-07-17T11:08:33Z</time><extensions><speed>0.048375</speed><course>232.063629</course><hAcc>0.886449</hAcc><vAcc>0.707804</vAcc></extensions></trkpt>
      <trkpt lon="-4.140011" lat="53.000556"><ele>782.111206</ele><time>2021-07-17T11:08:34Z</time><extensions><speed>0.045262</speed><course>232.063614</course><hAcc>0.886574</hAcc><vAcc>0.708270</vAcc></extensions></trkpt>
      <trkpt lon="-4.140010" lat="53.000556"><ele>782.139771</ele><time>2021-07-17T11:08:35Z</time><extensions><speed>0.042224</speed><course>232.063614</course><hAcc>0.886715</hAcc><vAcc>0.708784</vAcc></extensions></trkpt>
      <trkpt lon="-4.140010" lat="53.000556"><ele>782.169373</ele><time>2021-07-17T11:08:36Z</time><extensions><speed>0.039595</speed><course>232.063599</course><hAcc>0.886866</hAcc><vAcc>0.709324</vAcc></extensions></trkpt>
      <trkpt lon="-4.140009" lat="53.000556"><ele>782.199341</ele><time>2021-07-17T11:08:37Z</time><extensions><speed>0.037659</speed><course>232.063599</course><hAcc>0.887023</hAcc><vAcc>0.709873</vAcc></extensions></trkpt>
      <trkpt lon="-4.140009" lat="53.000556"><ele>782.229004</ele><time>2021-07-17T11:08:38Z</time><extensions><speed>0.036710</speed><course>232.063583</course><hAcc>0.887179</hAcc><vAcc>0.710420</vAcc></extensions></trkpt>
      <trkpt lon="-4.140008" lat="53.000556"><ele>782.257629</ele><time>2021-07-17T11:08:39Z</time><extensions><speed>0.036980</speed><course>232.063583</course><hAcc>0.887332</hAcc><vAcc>0.710950</vAcc></extensions></trkpt>
      <trkpt lon="-4.140008" lat="53.000555"><ele>782.284363</ele><time>2021-07-17T11:08:40Z</time><extensions><speed>0.038481</speed><course>248.555511</course><hAcc>0.887477</hAcc><vAcc>0.711444</vAcc></extensions></trkpt>
      <trkpt lon="-4.140008" lat="53.000555"><ele>782.308472</ele><time>2021-07-17T11:08:41Z</time><extensions><speed>0.041109</speed><course>214.727661</course><hAcc>0.887612</hAcc><vAcc>0.711887</vAcc></extensions></trkpt>
      <trkpt lon="-4.140007" lat="53.000555"><ele>782.329407</ele><time>2021-07-17T11:08:42Z</time><extensions><speed>0.044708</speed><course>215.656113</course><hAcc>0.887736</hAcc><vAcc>0.712268</vAcc></extensions></trkpt>
      <trkpt lon="-4.140007" lat="53.000554"><ele>782.346863</ele><time>2021-07-17T11:08:43Z</time><extensions><speed>0.049112</speed><course>205.637772</course><hAcc>0.887848</hAcc><vAcc>0.712592</vAcc></extensions></trkpt>
      <trkpt lon="-4.140007" lat="53.000554"><ele>782.360596</ele><time>2021-07-17T11:08:44Z</time><extensions><speed>0.054160</speed><course>201.575424</course><hAcc>0.887948</hAcc><vAcc>0.712867</vAcc></extensions></trkpt>
      <trkpt lon="-4.140007" lat="53.000553"><ele>782.370667</ele><time>2021-07-17T11:08:45Z</time><extensions><speed>0.059619</speed><course>196.854248</course><hAcc>0.888038</hAcc><vAcc>0.713106</vAcc></extensions></trkpt>
      <trkpt lon="-4.140006" lat="53.000553"><ele>782.377136</ele><time>2021-07-17T11:08:46Z</time><extensions><speed>0.065137</speed><course>198.264053</course><hAcc>0.888119</hAcc><vAcc>0.713322</vAcc></extensions></trkpt>
      <trkpt lon="-4.140006" lat="53.000552"><ele>782.380249</ele><time>2021-07-17T11:08:47Z</time><extensions><speed>0.070166</speed><course>198.636932</course><hAcc>0.888193</hAcc><vAcc>0.713526</vAcc></extensions></trkpt>
      <trkpt lon="-4.140006" lat="53.000552"><ele>782.380310</ele><time>2021-07-17T11:08:48Z</time><extensions><speed>0.074004</speed><course>192.727798</course><hAcc>0.888263</hAcc><vAcc>0.713727</vAcc></extensions></trkpt>
      <trkpt lon="-4.140006" lat="53.000551"><ele>782.377930</ele><time>2021-07-17T11:08:49Z</time><extensions><speed>0.076219</speed><course>184.691818</course><hAcc>0.888330</hAcc><vAcc>0.713928</vAcc></extensions></trkpt>
      <trkpt lon="-4.140006" lat="53.000550"><ele>782.373962</ele><time>2021-07-17T11:08:50Z</time><extensions><speed>0.076744</speed><course>177.917740</course><hAcc>0.888397</hAcc><vAcc>0.714134</vAcc></extensions></trkpt>
      <trkpt lon="-4.140005" lat="53.000550"><ele>782.369263</ele><time>2021-07-17T11:08:51Z</time><extensions><speed>0.075507</speed><course>169.935883</course><hAcc>0.888463</hAcc><vAcc>0.714346</vAcc></extensions></trkpt>
      <trkpt lon="-4.140005" lat="53.000549"><ele>782.364563</ele><time>2021-07-17T11:08:52Z</time><extensions><speed>0.072463</speed><course>168.290512</course><hAcc>0.888530</hAcc><vAcc>0.714566</vAcc></extensions></trkpt>
      <trkpt lon="-4.140005" lat="53.000548"><ele>782.360718</ele><time>2021-07-17T11:08:53Z</time><extensions><speed>0.067588</speed><course>175.847488</course><hAcc>0.888597</hAcc><vAcc>0.714793</vAcc></extensions></trkpt>
      <trkpt lon="-4.140005" lat="53.000548"><ele>782.358093</ele><time>2021-07-17T11:08:54Z</time><extensions><speed>0.060911</speed><course>182.489380</course><hAcc>0.888666</hAcc><vAcc>0.715026</vAcc></extensions></trkpt>
      <trkpt lon="-4.140005" lat="53.000547"><ele>782.357056</ele><time>2021-07-17T11:08:55Z</time><extensions><speed>0.052598</speed><course>193.224472</course><hAcc>0.888735</hAcc><vAcc>0.715262</vAcc></extensions></trkpt>
      <trkpt lon="-4.140006" lat="53.000547"><ele>782.357666</ele><time>2021-07-17T11:08:56Z</time><extensions><speed>0.043073</speed><course>210.457108</course><hAcc>0.888805</hAcc><vAcc>0.715497</vAcc></extensions></trkpt>
      <trkpt lon="-4.140006" lat="53.000546"><ele>782.360046</ele><time>2021-07-17T11:08:57Z</time><extensions><speed>0.033456</speed><course>227.054108</course><hAcc>0.888876</hAcc><vAcc>0.715729</vAcc></extensions></trkpt>
      <trkpt lon="-4.140006" lat="53.000546"><ele>782.364319</ele><time>2021-07-17T11:08:58Z</time><extensions><speed>0.027129</speed><course>247.666534</course><hAcc>0.888949</hAcc><vAcc>0.715954</vAcc></extensions></trkpt>
      <trkpt lon="-4.140006" lat="53.000546"><ele>782.370361</ele><time>2021-07-17T11:08:59Z</time><extensions><speed>0.030370</speed><course>261.197876</course><hAcc>0.889025</hAcc><vAcc>0.716174</vAcc></extensions></trkpt>
      <trkpt lon="-4.140007" lat="53.000546"><ele>782.377808</ele><time>2021-07-17T11:09:00Z</time><extensions><speed>0.043816</speed><course>263.217255</course><hAcc>0.889105</hAcc><vAcc>0.716392</vAcc></extensions></trkpt>
      <trkpt lon="-4.140008" lat="53.000547"><ele>782.386536</ele><time>2021-07-17T11:09:01Z</time><extensions><speed>0.063117</speed><course>271.463165</course><hAcc>0.889189</hAcc><vAcc>0.716616</vAcc></extensions></trkpt>
      <trkpt lon="-4.140008" lat="53.000547"><ele>782.396179</ele><time>2021-07-17T11:09:02Z</time><extensions><speed>0.085872</speed><course>281.991608</course><hAcc>0.889279</hAcc><vAcc>0.716858</vAcc></extensions></trkpt>
      <trkpt lon="-4.140009" lat="53.000548"><ele>782.406372</ele><time>2021-07-17T11:09:03Z</time><extensions><speed>0.111141</speed><course>285.895782</course><hAcc>0.889373</hAcc><vAcc>0.717131</vAcc></extensions></trkpt>
      <trkpt lon="-4.140010" lat="53.000549"><ele>782.416565</ele><time>2021-07-17T11:09:04Z</time><extensions><speed>0.138405</speed><course>287.327179</course><hAcc>0.889471</hAcc><vAcc>0.717443</vAcc></extensions></trkpt>
      <trkpt lon="-4.140011" lat="53.000550"><ele>782.426331</ele><time>2021-07-17T11:09:05Z</time><extensions><speed>0.167181</speed><course>297.396240</course><hAcc>0.889570</hAcc><vAcc>0.717796</vAcc></extensions></trkpt>
      <trkpt lon="-4.140012" lat="53.000551"><ele>782.435120</ele><time>2021-07-17T11:09:06Z</time><extensions><speed>0.196902</speed><course>299.473175</course><hAcc>0.889668</hAcc><vAcc>0.718179</vAcc></extensions></trkpt>
      <trkpt lon="-4.140014" lat="53.000553"><ele>782.442505</ele><time>2021-07-17T11:09:07Z</time><extensions><speed>0.226652</speed><course>297.683289</course><hAcc>0.889762</hAcc><vAcc>0.718571</vAcc></extensions></trkpt>
      <trkpt lon="-4.140016" lat="53.000555"><ele>782.447815</ele><time>2021-07-17T11:09:08Z</time><extensions><speed>0.255076</speed><course>292.365356</course><hAcc>0.889848</hAcc><vAcc>0.718942</vAcc></extensions></trkpt>
      <trkpt lon="-4.140017" lat="53.000557"><ele>782.449951</ele><time>2021-07-17T11:09:09Z</time><extensions><speed>0.280471</speed><course>291.092651</course><hAcc>0.889923</hAcc><vAcc>0.719262</vAcc></extensions></trkpt>
      <trkpt lon="-4.140019" lat="53.000560"><ele>782.447754</ele><time>2021-07-17T11:09:10Z</time><extensions><speed>0.300929</speed><course>297.007721</course><hAcc>0.889982</hAcc><vAcc>0.719506</vAcc></extensions></trkpt>
      <trkpt lon="-4.140021" lat="53.000562"><ele>782.439880</ele><time>2021-07-17T11:09:11Z</time><extensions><speed>0.314679</speed><course>291.539093</course><hAcc>0.890022</hAcc><vAcc>0.719661</vAcc></extensions></trkpt>
      <trkpt lon="-4.140023" lat="53.000565"><ele>782.425354</ele><time>2021-07-17T11:09:12Z</time><extensions><speed>0.320139</speed><course>293.314819</course><hAcc>0.890041</hAcc><vAcc>0.719718</vAcc></extensions></trkpt>
      <trkpt lon="-4.140025" lat="53.000567"><ele>782.403687</ele><time>2021-07-17T11:09:13Z</time><extensions><speed>0.315950</speed><course>297.043213</course><hAcc>0.890036</hAcc><vAcc>0.719680</vAcc></extensions></trkpt>
      <trkpt lon="-4.140027" lat="53.000570"><ele>782.374817</ele><time>2021-07-17T11:09:14Z</time><extensions><speed>0.301395</speed><course>301.573547</course><hAcc>0.890007</hAcc><vAcc>0.719552</vAcc></extensions></trkpt>
      <trkpt lon="-4.140029" lat="53.000572"><ele>782.339111</ele><time>2021-07-17T11:09:15Z</time><extensions><speed>0.276644</speed><course>305.542847</course><hAcc>0.889956</hAcc><vAcc>0.719344</vAcc></extensions></trkpt>
      <trkpt lon="-4.140030" lat="53.000574"><ele>782.297058</ele><time>2021-07-17T11:09:16Z</time><extensions><speed>0.242753</speed><course>304.461029</course><hAcc>0.889885</hAcc><vAcc>0.719069</vAcc></extensions></trkpt>
      <trkpt lon="-4.140031" lat="53.000576"><ele>782.249512</ele><time>2021-07-17T11:09:17Z</time><extensions><speed>0.201714</speed><course>304.519958</course><hAcc>0.889796</hAcc><vAcc>0.718742</vAcc></extensions></trkpt>
      <trkpt lon="-4.140032" lat="53.000578"><ele>782.197693</ele><time>2021-07-17T11:09:18Z</time><extensions><speed>0.156830</speed><course>306.835541</course><hAcc>0.889695</hAcc><vAcc>0.718375</vAcc></extensions></trkpt>
      <trkpt lon="-4.140032" lat="53.000579"><ele>782.143188</ele><time>2021-07-17T11:09:19Z</time><extensions><speed>0.113560</speed><course>312.924469</course><hAcc>0.889585</hAcc><vAcc>0.717979</vAcc></extensions></trkpt>
      <trkpt lon="-4.140031" lat="53.000580"><ele>782.087830</ele><time>2021-07-17T11:09:20Z</time><extensions><speed>0.081678</speed><course>313.121582</course><hAcc>0.889472</hAcc><vAcc>0.717570</vAcc></extensions></trkpt>
      <trkpt lon="-4.140030" lat="53.000580"><ele>782.033386</ele><time>2021-07-17T11:09:21Z</time><extensions><speed>0.074626</speed><course>312.363678</course><hAcc>0.889362</hAcc><vAcc>0.717164</vAcc></extensions></trkpt>
      <trkpt lon="-4.140029" lat="53.000580"><ele>781.981201</ele><time>2021-07-17T11:09:22Z</time><extensions><speed>0.090131</speed><course>309.905548</course><hAcc>0.889257</hAcc><vAcc>0.716777</vAcc></extensions></trkpt>
      <trkpt lon="-4.140028" lat="53.000580"><ele>781.932312</ele><time>2021-07-17T11:09:23Z</time><extensions><speed>0.111851</speed><course>308.597687</course><hAcc>0.889163</hAcc><vAcc>0.716429</vAcc></extensions></trkpt>
      <trkpt lon="-4.140026" lat="53.000580"><ele>781.887573</ele><time>2021-07-17T11:09:24Z</time><extensions><speed>0.130910</speed><course>307.103394</course><hAcc>0.889082</hAcc><vAcc>0.716136</vAcc></extensions></trkpt>
      <trkpt lon="-4.140024" lat="53.000579"><ele>781.847595</ele><time>2021-07-17T11:09:25Z</time><extensions><speed>0.144664</speed><course>306.897400</course><hAcc>0.889016</hAcc><vAcc>0.715907</vAcc></extensions></trkpt>
      <trkpt lon="-4.140022" lat="53.000578"><ele>781.812988</ele><time>2021-07-17T11:09:26Z</time><extensions><speed>0.153046</speed><course>302.152618</course><hAcc>0.888967</hAcc><vAcc>0.715750</vAcc></extensions></trkpt>
      <trkpt lon="-4.140021" lat="53.000578"><ele>781.784546</ele><time>2021-07-17T11:09:27Z</time><extensions><speed>0.157232</speed><course>297.726410</course><hAcc>0.888933</hAcc><vAcc>0.715665</vAcc></extensions></trkpt>
      <trkpt lon="-4.140019" lat="53.000577"><ele>781.762634</ele><time>2021-07-17T11:09:28Z</time><extensions><speed>0.158885</speed><course>300.194183</course><hAcc>0.888913</hAcc><vAcc>0.715651</vAcc></extensions></trkpt>
      <trkpt lon="-4.140017" lat="53.000576"><ele>781.747314</ele><time>2021-07-17T11:09:29Z</time><extensions><speed>0.159507</speed><course>297.151825</course><hAcc>0.888906</hAcc><vAcc>0.715695</vAcc></extensions></trkpt>
      <trkpt lon="-4.140016" lat="53.000575"><ele>781.738464</ele><time>2021-07-17T11:09:30Z</time><extensions><speed>0.160375</speed><course>298.399384</course><hAcc>0.888907</hAcc><vAcc>0.715782</vAcc></extensions></trkpt>
      <trkpt lon="-4.140014" lat="53.000573"><ele>781.735840</ele><time>2021-07-17T11:09:31Z</time><extensions><speed>0.162521</speed><course>300.837921</course><hAcc>0.888915</hAcc><vAcc>0.715889</vAcc></extensions></trkpt>
      <trkpt lon="-4.140013" lat="53.000572"><ele>781.739258</ele><time>2021-07-17T11:09:32Z</time><extensions><speed>0.166708</speed><course>299.844330</course><hAcc>0.888925</hAcc><vAcc>0.715991</vAcc></extensions></trkpt>
      <trkpt lon="-4.140012" lat="53.000571"><ele>781.748474</ele><time>2021-07-17T11:09:32Z</time><extensions><speed>0.173243</speed><course>300.001373</course><hAcc>0.888954</hAcc><vAcc>0.716085</vAcc></extensions></trkpt>
      <trkpt lon="-4.140011" lat="53.000569"><ele>781.763000</ele><time>2021-07-17T11:09:33Z</time><extensions><speed>0.181863</speed><course>294.568817</course><hAcc>0.889000</hAcc><vAcc>0.716166</vAcc></extensions></trkpt>
      <trkpt lon="-4.140011" lat="53.000568"><ele>781.782166</ele><time>2021-07-17T11:09:35Z</time><extensions><speed>0.191621</speed><course>300.687103</course><hAcc>0.889027</hAcc><vAcc>0.716211</vAcc></extensions></trkpt>
      <trkpt lon="-4.140010" lat="53.000566"><ele>781.805298</ele><time>2021-07-17T11:09:36Z</time><extensions><speed>0.201203</speed><course>297.691925</course><hAcc>0.889035</hAcc><vAcc>0.716230</vAcc></extensions></trkpt>
      <trkpt lon="-4.140010" lat="53.000564"><ele>781.831726</ele><time>2021-07-17T11:09:37Z</time><extensions><speed>0.209431</speed><course>293.928223</course><hAcc>0.889042</hAcc><vAcc>0.716244</vAcc></extensions></trkpt>
      <trkpt lon="-4.140010" lat="53.000562"><ele>781.860535</ele><time>2021-07-17T11:09:38Z</time><extensions><speed>0.215206</speed><course>297.041656</course><hAcc>0.889050</hAcc><vAcc>0.716261</vAcc></extensions></trkpt>
      <trkpt lon="-4.140010" lat="53.000560"><ele>781.890686</ele><time>2021-07-17T11:09:39Z</time><extensions><speed>0.217759</speed><course>298.722290</course><hAcc>0.889060</hAcc><vAcc>0.716288</vAcc></extensions></trkpt>
      <trkpt lon="-4.140010" lat="53.000558"><ele>781.921082</ele><time>2021-07-17T11:09:40Z</time><extensions><speed>0.216885</speed><course>296.674316</course><hAcc>0.889074</hAcc><vAcc>0.716333</vAcc></extensions></trkpt>
      <trkpt lon="-4.140011" lat="53.000556"><ele>781.950378</ele><time>2021-07-17T11:09:40Z</time><extensions><speed>0.212751</speed><course>301.147156</course><hAcc>0.889110</hAcc><vAcc>0.716416</vAcc></extensions></trkpt>
      <trkpt lon="-4.140011" lat="53.000554"><ele>781.977905</ele><time>2021-07-17T11:09:41Z</time><extensions><speed>0.205457</speed><course>301.618805</course><hAcc>0.889172</hAcc><vAcc>0.716548</vAcc></extensions></trkpt>
      <trkpt lon="-4.140012" lat="53.000553"><ele>782.003174</ele><time>2021-07-17T11:09:42Z</time><extensions><speed>0.195138</speed><course>300.678009</course><hAcc>0.889242</hAcc><vAcc>0.716724</vAcc></extensions></trkpt>
      <trkpt lon="-4.140013" lat="53.000551"><ele>782.026001</ele><time>2021-07-17T11:09:43Z</time><extensions><speed>0.182008</speed><course>306.078644</course><hAcc>0.889321</hAcc><vAcc>0.716953</vAcc></extensions></trkpt>
      <trkpt lon="-4.140014" lat="53.000550"><ele>782.046509</ele><time>2021-07-17T11:09:44Z</time><extensions><speed>0.166405</speed><course>302.099213</course><hAcc>0.889408</hAcc><vAcc>0.717239</vAcc></extensions></trkpt>
      <trkpt lon="-4.140015" lat="53.000548"><ele>782.064941</ele><time>2021-07-17T11:09:45Z</time><extensions><speed>0.148652</speed><course>298.253754</course><hAcc>0.889502</hAcc><vAcc>0.717579</vAcc></extensions></trkpt>
      <trkpt lon="-4.140016" lat="53.000547"><ele>782.081543</ele><time>2021-07-17T11:09:46Z</time><extensions><speed>0.128930</speed><course>299.772583</course><hAcc>0.889599</hAcc><vAcc>0.717957</vAcc></extensions></trkpt>
      <trkpt lon="-4.140017" lat="53.000546"><ele>782.096375</ele><time>2021-07-17T11:09:47Z</time><extensions><speed>0.107497</speed><course>299.946075</course><hAcc>0.889697</hAcc><vAcc>0.718351</vAcc></extensions></trkpt>
      <trkpt lon="-4.140017" lat="53.000546"><ele>782.109314</ele><time>2021-07-17T11:09:48Z</time><extensions><speed>0.084874</speed><course>303.968170</course><hAcc>0.889792</hAcc><vAcc>0.718734</vAcc></extensions></trkpt>
      <trkpt lon="-4.140018" lat="53.000545"><ele>782.120178</ele><time>2021-07-17T11:09:49Z</time><extensions><speed>0.062207</speed><course>302.223755</course><hAcc>0.889880</hAcc><vAcc>0.719080</vAcc></extensions></trkpt>
      <trkpt lon="-4.140019" lat="53.000545"><ele>782.128723</ele><time>2021-07-17T11:09:50Z</time><extensions><speed>0.043328</speed><course>303.590851</course><hAcc>0.889957</hAcc><vAcc>0.719371</vAcc></extensions></trkpt>
      <trkpt lon="-4.140019" lat="53.000545"><ele>782.134766</ele><time>2021-07-17T11:09:51Z</time><extensions><speed>0.039003</speed><course>302.656281</course><hAcc>0.890020</hAcc><vAcc>0.719591</vAcc></extensions></trkpt>
      <trkpt lon="-4.140020" lat="53.000545"><ele>782.138489</ele><time>2021-07-17T11:09:52Z</time><extensions><speed>0.054825</speed><course>307.857574</course><hAcc>0.890066</hAcc><vAcc>0.719735</vAcc></extensions></trkpt>
      <trkpt lon="-4.140020" lat="53.000546"><ele>782.139954</ele><time>2021-07-17T11:09:53Z</time><extensions><speed>0.080413</speed><course>306.241272</course><hAcc>0.890096</hAcc><vAcc>0.719802</vAcc></extensions></trkpt>
      <trkpt lon="-4.140021" lat="53.000547"><ele>782.139343</ele><time>2021-07-17T11:09:54Z</time><extensions><speed>0.109784</speed><course>302.560516</course><hAcc>0.890108</hAcc><vAcc>0.719798</vAcc></extensions></trkpt>
      <trkpt lon="-4.140021" lat="53.000548"><ele>782.136719</ele><time>2021-07-17T11:09:55Z</time><extensions><speed>0.141414</speed><course>304.207947</course><hAcc>0.890103</hAcc><vAcc>0.719732</vAcc></extensions></trkpt>
      <trkpt lon="-4.140021" lat="53.000549"><ele>782.132263</ele><time>2021-07-17T11:09:56Z</time><extensions><speed>0.174870</speed><course>304.678192</course><hAcc>0.890083</hAcc><vAcc>0.719617</vAcc></extensions></trkpt>
      <trkpt lon="-4.140021" lat="53.000551"><ele>782.126038</ele><time>2021-07-17T11:09:57Z</time><extensions><speed>0.209720</speed><course>300.816559</course><hAcc>0.890050</hAcc><vAcc>0.719467</vAcc></extensions></trkpt>
      <trkpt lon="-4.140021" lat="53.000553"><ele>782.117981</ele><time>2021-07-17T11:09:58Z</time><extensions><speed>0.245350</speed><course>302.457642</course><hAcc>0.890007</hAcc><vAcc>0.719293</vAcc></extensions></trkpt>
      <trkpt lon="-4.140021" lat="53.000555"><ele>782.108276</ele><time>2021-07-17T11:09:59Z</time><extensions><speed>0.280918</speed><course>303.405792</course><hAcc>0.889957</hAcc><vAcc>0.719104</vAcc></extensions></trkpt>
      <trkpt lon="-4.140021" lat="53.000558"><ele>782.096619</ele><time>2021-07-17T11:10:00Z</time><extensions><speed>0.315279</speed><course>305.179382</course><hAcc>0.889901</hAcc><vAcc>0.718907</vAcc></extensions></trkpt>
      <trkpt lon="-4.140022" lat="53.000561"><ele>782.082825</ele><time>2021-07-17T11:10:01Z</time><extensions><speed>0.346896</speed><course>301.811188</course><hAcc>0.889843</hAcc><vAcc>0.718707</vAcc></extensions></trkpt>
      <trkpt lon="-4.140022" lat="53.000564"><ele>782.066467</ele><time>2021-07-17T11:10:02Z</time><extensions><speed>0.373788</speed><course>294.111877</course><hAcc>0.889784</hAcc><vAcc>0.718508</vAcc></extensions></trkpt>
      <trkpt lon="-4.140022" lat="53.000568"><ele>782.047485</ele><time>2021-07-17T11:10:03Z</time><extensions><speed>0.393839</speed><course>291.186249</course><hAcc>0.889726</hAcc><vAcc>0.718314</vAcc></extensions></trkpt>
      <trkpt lon="-4.140022" lat="53.000571"><ele>782.025879</ele><time>2021-07-17T11:10:04Z</time><extensions><speed>0.405419</speed><course>291.833313</course><hAcc>0.889669</hAcc><vAcc>0.718126</vAcc></extensions></trkpt>
      <trkpt lon="-4.140023" lat="53.000575"><ele>782.001953</ele><time>2021-07-17T11:10:05Z</time><extensions><speed>0.407656</speed><course>293.198639</course><hAcc>0.889616</hAcc><vAcc>0.717945</vAcc></extensions></trkpt>
      <trkpt lon="-4.140023" lat="53.000578"><ele>781.976196</ele><time>2021-07-17T11:10:06Z</time><extensions><speed>0.400274</speed><course>297.953094</course><hAcc>0.889567</hAcc><vAcc>0.717773</vAcc></extensions></trkpt>
      <trkpt lon="-4.140023" lat="53.000582"><ele>781.949341</ele><time>2021-07-17T11:10:07Z</time><extensions><speed>0.383520</speed><course>294.998413</course><hAcc>0.889522</hAcc><vAcc>0.717609</vAcc></extensions></trkpt>
      <trkpt lon="-4.140023" lat="53.000585"><ele>781.921875</ele><time>2021-07-17T11:10:08Z</time><extensions><speed>0.358230</speed><course>290.333923</course><hAcc>0.889485</hAcc><vAcc>0.717458</vAcc></extensions></trkpt>
      <trkpt lon="-4.140023" lat="53.000588"><ele>781.894531</ele><time>2021-07-17T11:10:09Z</time><extensions><speed>0.326027</speed><course>297.336884</course><hAcc>0.889454</hAcc><vAcc>0.717322</vAcc></extensions></trkpt>
      <trkpt lon="-4.140023" lat="53.000591"><ele>781.868042</ele><time>2021-07-17T11:10:10Z</time><extensions><speed>0.288860</speed><course>291.763641</course><hAcc>0.889435</hAcc><vAcc>0.717211</vAcc></extensions></trkpt>
      <trkpt lon="-4.140023" lat="53.000594"><ele>781.843079</ele><time>2021-07-17T11:10:11Z</time><extensions><speed>0.248547</speed><course>293.588959</course><hAcc>0.889428</hAcc><vAcc>0.717134</vAcc></extensions></trkpt>
      <trkpt lon="-4.140023" lat="53.000596"><ele>781.820129</ele><time>2021-07-17T11:10:13Z</time><extensions><speed>0.206986</speed><course>298.534668</course><hAcc>0.889421</hAcc><vAcc>0.717089</vAcc></extensions></trkpt>
      <trkpt lon="-4.140023" lat="53.000597"><ele>781.799561</ele><time>2021-07-17T11:10:14Z</time><extensions><speed>0.166137</speed><course>294.834351</course><hAcc>0.889419</hAcc><vAcc>0.717085</vAcc></extensions></trkpt>
      <trkpt lon="-4.140023" lat="53.000599"><ele>781.781433</ele><time>2021-07-17T11:10:15Z</time><extensions><speed>0.127185</speed><course>297.698059</course><hAcc>0.889448</hAcc><vAcc>0.717143</vAcc></extensions></trkpt>
      <trkpt lon="-4.140023" lat="53.000600"><ele>781.765747</ele><time>2021-07-17T11:10:16Z</time><extensions><speed>0.091187</speed><course>298.511444</course><hAcc>0.889516</hAcc><vAcc>0.717276</vAcc></extensions></trkpt>
      <trkpt lon="-4.140023" lat="53.000600"><ele>781.752319</ele><time>2021-07-17T11:10:17Z</time><extensions><speed>0.059349</speed><course>303.054443</course><hAcc>0.889639</hAcc><vAcc>0.717506</vAcc></extensions></trkpt>
      <trkpt lon="-4.140023" lat="53.000601"><ele>781.740967</ele><time>2021-07-17T11:10:18Z</time><extensions><speed>0.033245</speed><course>300.594757</course><hAcc>0.889834</hAcc><vAcc>0.717861</vAcc></extensions></trkpt>
      <trkpt lon="-4.140023" lat="53.000601"><ele>781.731384</ele><time>2021-07-17T11:10:19Z</time><extensions><speed>0.016913</speed><course>303.489990</course><hAcc>0.890123</hAcc><vAcc>0.718375</vAcc></extensions></trkpt>
      <trkpt lon="-4.140023" lat="53.000601"><ele>781.723511</ele><time>2021-07-17T11:10:20Z</time><extensions><speed>0.018824</speed><course>307.296783</course><hAcc>0.890534</hAcc><vAcc>0.719083</vAcc></extensions></trkpt>
      <trkpt lon="-4.140023" lat="53.000601"><ele>781.716980</ele><time>2021-07-17T11:10:21Z</time><extensions><speed>0.027971</speed><course>306.846466</course><hAcc>0.891099</hAcc><vAcc>0.720006</vAcc></extensions></trkpt>
      <trkpt lon="-4.140024" lat="53.000600"><ele>781.711609</ele><time>2021-07-17T11:10:22Z</time><extensions><speed>0.035520</speed><course>314.303711</course><hAcc>0.891855</hAcc><vAcc>0.721156</vAcc></extensions></trkpt>
      <trkpt lon="-4.140024" lat="53.000600"><ele>781.707092</ele><time>2021-07-17T11:10:23Z</time><extensions><speed>0.040450</speed><course>316.753265</course><hAcc>0.892837</hAcc><vAcc>0.722528</vAcc></extensions></trkpt>
      <trkpt lon="-4.140024" lat="53.000600"><ele>781.703247</ele><time>2021-07-17T11:10:24Z</time><extensions><speed>0.042995</speed><course>312.101562</course><hAcc>0.894075</hAcc><vAcc>0.724105</vAcc></extensions></trkpt>
      <trkpt lon="-4.140024" lat="53.000599"><ele>781.699951</ele><time>2021-07-17T11:10:25Z</time><extensions><speed>0.043582</speed><course>310.983948</course><hAcc>0.895586</hAcc><vAcc>0.725855</vAcc></extensions></trkpt>
      <trkpt lon="-4.140025" lat="53.000599"><ele>781.697021</ele><time>2021-07-17T11:10:26Z</time><extensions><speed>0.042647</speed><course>316.824890</course><hAcc>0.897365</hAcc><vAcc>0.727721</vAcc></extensions></trkpt>
      <trkpt lon="-4.140025" lat="53.000599"><ele>781.694397</ele><time>2021-07-17T11:10:27Z</time><extensions><speed>0.040587</speed><course>324.005005</course><hAcc>0.899373</hAcc><vAcc>0.729624</vAcc></extensions></trkpt>
      <trkpt lon="-4.140025" lat="53.000598"><ele>781.692017</ele><time>2021-07-17T11:10:28Z</time><extensions><speed>0.037747</speed><course>322.091736</course><hAcc>0.901530</hAcc><vAcc>0.731453</vAcc></extensions></trkpt>
      <trkpt lon="-4.140025" lat="53.000598"><ele>781.689819</ele><time>2021-07-17T11:10:29Z</time><extensions><speed>0.034421</speed><course>322.830170</course><hAcc>0.903705</hAcc><vAcc>0.733077</vAcc></extensions></trkpt>
      <trkpt lon="-4.140025" lat="53.000598"><ele>781.687744</ele><time>2021-07-17T11:10:30Z</time><extensions><speed>0.030848</speed><course>325.823517</course><hAcc>0.905726</hAcc><vAcc>0.734355</vAcc></extensions></trkpt>
      <trkpt lon="-4.140025" lat="53.000598"><ele>781.685791</ele><time>2021-07-17T11:10:31Z</time><extensions><speed>0.027224</speed><course>331.853210</course><hAcc>0.907398</hAcc><vAcc>0.735179</vAcc></extensions></trkpt>
      <trkpt lon="-4.140025" lat="53.000597"><ele>781.683899</ele><time>2021-07-17T11:10:32Z</time><extensions><speed>0.023698</speed><course>331.260956</course><hAcc>0.908560</hAcc><vAcc>0.735533</vAcc></extensions></trkpt>
      <trkpt lon="-4.140025" lat="53.000597"><ele>781.682068</ele><time>2021-07-17T11:10:33Z</time><extensions><speed>0.020386</speed><course>329.072571</course><hAcc>0.909184</hAcc><vAcc>0.735590</vAcc></extensions></trkpt>
      <trkpt lon="-4.140025" lat="53.000597"><ele>781.680359</ele><time>2021-07-17T11:10:34Z</time><extensions><speed>0.017368</speed><course>325.473938</course><hAcc>0.909545</hAcc><vAcc>0.735860</vAcc></extensions></trkpt>
      <trkpt lon="-4.140025" lat="53.000597"><ele>781.678711</ele><time>2021-07-17T11:10:35Z</time><extensions><speed>0.014699</speed><course>325.383026</course><hAcc>0.910472</hAcc><vAcc>0.737378</vAcc></extensions></trkpt>
      <trkpt lon="-4.140025" lat="53.000597"><ele>781.677124</ele><time>2021-07-17T11:10:36Z</time><extensions><speed>0.012407</speed><course>325.061401</course><hAcc>0.913709</hAcc><vAcc>0.741944</vAcc></extensions></trkpt>
      <trkpt lon="-4.140025" lat="53.000597"><ele>781.675598</ele><time>2021-07-17T11:10:37Z</time><extensions><speed>0.010504</speed><course>325.207275</course><hAcc>0.922342</hAcc><vAcc>0.752348</vAcc></extensions></trkpt>
      <trkpt lon="-4.140025" lat="53.000596"><ele>781.674072</ele><time>2021-07-17T11:10:38Z</time><extensions><speed>0.008981</speed><course>322.410889</course><hAcc>0.941201</hAcc><vAcc>0.772486</vAcc></extensions></trkpt>
      <trkpt lon="-4.140025" lat="53.000596"><ele>781.672607</ele><time>2021-07-17T11:10:39Z</time><extensions><speed>0.007818</speed><course>319.218658</course><hAcc>0.976979</hAcc><vAcc>0.807214</vAcc></extensions></trkpt>
      <trkpt lon="-4.140025" lat="53.000597"><ele>781.676147</ele><time>2021-07-17T11:10:40Z</time><extensions><speed>0.000000</speed><course>207.637573</course><hAcc>0.939082</hAcc><vAcc>0.772223</vAcc></extensions></trkpt>
      <trkpt lon="-4.140025" lat="53.000597"><ele>781.676147</ele><time>2021-07-17T11:10:41Z</time><extensions><speed>0.000000</speed><course>199.781464</course><hAcc>0.919942</hAcc><vAcc>0.751767</vAcc></extensions></trkpt>
      <trkpt lon="-4.140025" lat="53.000597"><ele>781.676147</ele><time>2021-07-17T11:10:42Z</time><extensions><speed>0.000000</speed><course>204.898392</course><hAcc>0.912372</hAcc><vAcc>0.742209</vAcc></extensions></trkpt>
      <trkpt lon="-4.140025" lat="53.000597"><ele>781.676147</ele><time>2021-07-17T11:10:43Z</time><extensions><speed>0.000000</speed><course>218.988647</course><hAcc>0.910892</hAcc><vAcc>0.739209</vAcc></extensions></trkpt>
      <trkpt lon="-4.140025" lat="53.000597"><ele>781.676147</ele><time>2021-07-17T11:10:44Z</time><extensions><speed>0.000000</speed><course>240.875916</course><hAcc>0.912015</hAcc><vAcc>0.739656</vAcc></extensions></trkpt>
      <trkpt lon="-4.140025" lat="53.000597"><ele>781.676147</ele><time>2021-07-17T11:10:45Z</time><extensions><speed>0.000000</speed><course>240.875916</course><hAcc>0.913804</hAcc><vAcc>0.741539</vAcc></extensions></trkpt>
      <trkpt lon="-4.140025" lat="53.000597"><ele>781.676147</ele><time>2021-07-17T11:10:46Z</time><extensions><speed>0.000000</speed><course>240.875916</course><hAcc>0.915358</hAcc><vAcc>0.743696</vAcc></extensions></trkpt>
      <trkpt lon="-4.140025" lat="53.000597"><ele>781.676147</ele><time>2021-07-17T11:10:47Z</time><extensions><speed>0.000000</speed><course>240.875916</course><hAcc>0.916397</hAcc><vAcc>0.745538</vAcc></extensions></trkpt>
      <trkpt lon="-4.140025" lat="53.000597"><ele>781.676147</ele><time>2021-07-17T11:10:48Z</time><extensions><speed>0.000000</speed><course>240.875916</course><hAcc>0.916945</hAcc><vAcc>0.746826</vAcc></extensions></trkpt>
      <trkpt lon="-4.140025" lat="53.000597"><ele>781.676147</ele><time>2021-07-17T11:10:49Z</time><extensions><speed>0.000000</speed><course>240.875916</course><hAcc>0.917134</hAcc><vAcc>0.747498</vAcc></extensions></trkpt>
      <trkpt lon="-4.140025" lat="53.000597"><ele>781.676147</ele><time>2021-07-17T11:10:50Z</time><extensions><speed>0.000000</speed><course>269.430084</course><hAcc>0.917083</hAcc><vAcc>0.747571</vAcc></extensions></trkpt>
      <trkpt lon="-4.140025" lat="53.000597"><ele>781.676147</ele><time>2021-07-17T11:10:51Z</time><extensions><speed>0.000000</speed><course>274.056000</course><hAcc>0.916834</hAcc><vAcc>0.747077</vAcc></extensions></trkpt>
      <trkpt lon="-4.140025" lat="53.000597"><ele>781.676147</ele><time>2021-07-17T11:10:52Z</time><extensions><speed>0.000000</speed><course>273.580658</course><hAcc>0.916355</hAcc><vAcc>0.746064</vAcc></extensions></trkpt>
      <trkpt lon="-4.140025" lat="53.000597"><ele>781.676147</ele><time>2021-07-17T11:10:53Z</time><extensions><speed>0.000000</speed><course>266.285736</course><hAcc>0.915588</hAcc><vAcc>0.744636</vAcc></extensions></trkpt>
      <trkpt lon="-4.140025" lat="53.000597"><ele>781.676147</ele><time>2021-07-17T11:10:54Z</time><extensions><speed>0.000000</speed><course>280.416809</course><hAcc>0.914558</hAcc><vAcc>0.743050</vAcc></extensions></trkpt>
      <trkpt lon="-4.140025" lat="53.000597"><ele>781.676147</ele><time>2021-07-17T11:10:55Z</time><extensions><speed>0.000000</speed><course>289.633057</course><hAcc>0.913551</hAcc><vAcc>0.741860</vAcc></extensions></trkpt>
      <trkpt lon="-4.140025" lat="53.000597"><ele>781.676147</ele><time>2021-07-17T11:10:56Z</time><extensions><speed>0.000000</speed><course>274.042023</course><hAcc>0.913386</hAcc><vAcc>0.742123</vAcc></extensions></trkpt>
      <trkpt lon="-4.140025" lat="53.000597"><ele>781.676147</ele><time>2021-07-17T11:10:57Z</time><extensions><speed>0.000000</speed><course>259.398621</course><hAcc>0.915780</hAcc><vAcc>0.745643</vAcc></extensions></trkpt>
      <trkpt lon="-4.140025" lat="53.000597"><ele>781.676147</ele><time>2021-07-17T11:10:58Z</time><extensions><speed>0.000000</speed><course>235.228027</course><hAcc>0.923788</hAcc><vAcc>0.755204</vAcc></extensions></trkpt>
      <trkpt lon="-4.140025" lat="53.000597"><ele>781.676147</ele><time>2021-07-17T11:10:59Z</time><extensions><speed>0.000000</speed><course>233.943741</course><hAcc>0.942213</hAcc><vAcc>0.774698</vAcc></extensions></trkpt>
      <trkpt lon="-4.140025" lat="53.000597"><ele>781.676147</ele><time>2021-07-17T11:11:00Z</time><extensions><speed>0.000000</speed><course>251.986771</course><hAcc>0.977719</hAcc><vAcc>0.808970</vAcc></extensions></trkpt>
      <trkpt lon="-4.140025" lat="53.000597"><ele>781.676147</ele><time>2021-07-17T11:11:01Z</time><extensions><speed>0.000000</speed><course>207.637573</course><hAcc>0.939609</hAcc><vAcc>0.773627</vAcc></extensions></trkpt>
      <trkpt lon="-4.140025" lat="53.000597"><ele>781.676147</ele><time>2021-07-17T11:11:02Z</time><extensions><speed>0.000000</speed><course>199.781464</course><hAcc>0.920339</hAcc><vAcc>0.752817</vAcc></extensions></trkpt>
      <trkpt lon="-4.140025" lat="53.000597"><ele>781.676147</ele><time>2021-07-17T11:11:03Z</time><extensions><speed>0.000000</speed><course>204.898392</course><hAcc>0.912661</hAcc><vAcc>0.742966</vAcc></extensions></trkpt>
      <trkpt lon="-4.140025" lat="53.000597"><ele>781.676147</ele><time>2021-07-17T11:11:04Z</time><extensions><speed>0.000000</speed><course>218.988647</course><hAcc>0.911096</hAcc><vAcc>0.739739</vAcc></extensions></trkpt>
      <trkpt lon="-4.140025" lat="53.000597"><ele>781.676147</ele><time>2021-07-17T11:11:05Z</time><extensions><speed>0.000000</speed><course>240.875916</course><hAcc>0.912158</hAcc><vAcc>0.740016</vAcc></extensions></trkpt>
      <trkpt lon="-4.140025" lat="53.000597"><ele>781.676147</ele><time>2021-07-17T11:11:06Z</time><extensions><speed>0.000000</speed><course>240.875916</course><hAcc>0.913903</hAcc><vAcc>0.741781</vAcc></extensions></trkpt>
      <trkpt lon="-4.140025" lat="53.000597"><ele>781.676147</ele><time>2021-07-17T11:11:07Z</time><extensions><speed>0.000000</speed><course>240.875916</course><hAcc>0.915430</hAcc><vAcc>0.743862</vAcc></extensions></trkpt>
      <trkpt lon="-4.140025" lat="53.000597"><ele>781.676147</ele><time>2021-07-17T11:11:08Z</time><extensions><speed>0.000000</speed><course>240.875916</course><hAcc>0.916452</hAcc><vAcc>0.745663</vAcc></extensions></trkpt>
      <trkpt lon="-4.140025" lat="53.000597"><ele>781.676147</ele><time>2021-07-17T11:11:09Z</time><extensions><speed>0.000000</speed><course>240.875916</course><hAcc>0.916991</hAcc><vAcc>0.746934</vAcc></extensions></trkpt>
      <trkpt lon="-4.140025" lat="53.000597"><ele>781.676147</ele><time>2021-07-17T11:11:10Z</time><extensions><speed>0.000000</speed><course>240.875916</course><hAcc>0.917177</hAcc><vAcc>0.747610</vAcc></extensions></trkpt>
      <trkpt lon="-4.140025" lat="53.000597"><ele>781.676147</ele><time>2021-07-17T11:11:11Z</time><extensions><speed>0.000000</speed><course>269.430084</course><hAcc>0.917126</hAcc><vAcc>0.747697</vAcc></extensions></trkpt>
      <trkpt lon="-4.140025" lat="53.000597"><ele>781.676147</ele><time>2021-07-17T11:11:12Z</time><extensions><speed>0.000000</speed><course>274.056000</course><hAcc>0.916878</hAcc><vAcc>0.747222</vAcc></extensions></trkpt>
      <trkpt lon="-4.140025" lat="53.000597"><ele>781.676147</ele><time>2021-07-17T11:11:13Z</time><extensions><speed>0.000000</speed><course>273.580658</course><hAcc>0.916401</hAcc><vAcc>0.746226</vAcc></extensions></trkpt>
      <trkpt lon="-4.140025" lat="53.000597"><ele>781.676147</ele><time>2021-07-17T11:11:14Z</time><extensions><speed>0.000000</speed><course>266.285736</course><hAcc>0.915637</hAcc><vAcc>0.744811</vAcc></extensions></trkpt>
      <trkpt lon="-4.140025" lat="53.000597"><ele>781.676147</ele><time>2021-07-17T11:11:15Z</time><extensions><speed>0.000000</speed><course>280.416809</course><hAcc>0.914608</hAcc><vAcc>0.743230</vAcc></extensions></trkpt>
      <trkpt lon="-4.140025" lat="53.000597"><ele>781.676147</ele><time>2021-07-17T11:11:16Z</time><extensions><speed>0.000000</speed><course>289.633057</course><hAcc>0.913604</hAcc><vAcc>0.742040</vAcc></extensions></trkpt>
      <trkpt lon="-4.140025" lat="53.000597"><ele>781.676147</ele><time>2021-07-17T11:11:17Z</time><extensions><speed>0.000000</speed><course>274.042023</course><hAcc>0.913442</hAcc><vAcc>0.742299</vAcc></extensions></trkpt>
      <trkpt lon="-4.140025" lat="53.000597"><ele>781.676147</ele><time>2021-07-17T11:11:18Z</time><extensions><speed>0.000000</speed><course>259.398621</course><hAcc>0.915840</hAcc><vAcc>0.745817</vAcc></extensions></trkpt>
      <trkpt lon="-4.140025" lat="53.000597"><ele>781.676147</ele><time>2021-07-17T11:11:19Z</time><extensions><speed>0.000000</speed><course>235.228027</course><hAcc>0.923856</hAcc><vAcc>0.755382</vAcc></extensions></trkpt>
      <trkpt lon="-4.140025" lat="53.000597"><ele>781.676147</ele><time>2021-07-17T11:11:20Z</time><extensions><speed>0.000000</speed><course>233.943741</course><hAcc>0.942291</hAcc><vAcc>0.774892</vAcc></extensions></trkpt>
      <trkpt lon="-4.140025" lat="53.000597"><ele>781.676147</ele><time>2021-07-17T11:11:21Z</time><extensions><speed>0.000000</speed><course>251.986771</course><hAcc>0.977809</hAcc><vAcc>0.809194</vAcc></extensions></trkpt>
      <trkpt lon="-4.140025" lat="53.000597"><ele>781.676147</ele><time>2021-07-17T11:11:22Z</time><extensions><speed>0.000000</speed><course>207.637573</course><hAcc>0.939701</hAcc><vAcc>0.773862</vAcc></extensions></trkpt>
      <trkpt lon="-4.140025" lat="53.000597"><ele>781.676147</ele><time>2021-07-17T11:11:23Z</time><extensions><speed>0.000000</speed><course>199.781464</course><hAcc>0.920456</hAcc><vAcc>0.753125</vAcc></extensions></trkpt>
      <trkpt lon="-4.140025" lat="53.000597"><ele>781.676147</ele><time>2021-07-17T11:11:24Z</time><extensions><speed>0.000000</speed><course>204.898392</course><hAcc>0.912807</hAcc><vAcc>0.743369</vAcc></extensions></trkpt>
      <trkpt lon="-4.140025" lat="53.000597"><ele>781.676147</ele><time>2021-07-17T11:11:25Z</time><extensions><speed>0.000000</speed><course>218.988647</course><hAcc>0.911276</hAcc><vAcc>0.740254</vAcc></extensions></trkpt>
      <trkpt lon="-4.140025" lat="53.000597"><ele>781.676147</ele><time>2021-07-17T11:11:26Z</time><extensions><speed>0.000000</speed><course>240.875916</course><hAcc>0.912374</hAcc><vAcc>0.740656</vAcc></extensions></trkpt>
      <trkpt lon="-4.140025" lat="53.000597"><ele>781.676147</ele><time>2021-07-17T11:11:27Z</time><extensions><speed>0.000000</speed><course>240.875916</course><hAcc>0.914158</hAcc><vAcc>0.742553</vAcc></extensions></trkpt>
      <trkpt lon="-4.140025" lat="53.000597"><ele>781.676147</ele><time>2021-07-17T11:11:28Z</time><extensions><speed>0.000000</speed><course>240.875916</course><hAcc>0.915722</hAcc><vAcc>0.744771</vAcc></extensions></trkpt>
      <trkpt lon="-4.140025" lat="53.000597"><ele>781.676147</ele><time>2021-07-17T11:11:29Z</time><extensions><speed>0.000000</speed><course>240.875916</course><hAcc>0.916779</hAcc><vAcc>0.746705</vAcc></extensions></trkpt>
      <trkpt lon="-4.140025" lat="53.000597"><ele>781.676147</ele><time>2021-07-17T11:11:30Z</time><extensions><speed>0.000000</speed><course>240.875916</course><hAcc>0.917349</hAcc><vAcc>0.748100</vAcc></extensions></trkpt>
      <trkpt lon="-4.140025" lat="53.000597"><ele>781.676147</ele><time>2021-07-17T11:11:31Z</time><extensions><speed>0.000000</speed><course>240.875916</course><hAcc>0.917561</hAcc><vAcc>0.748883</vAcc></extensions></trkpt>
      <trkpt lon="-4.140025" lat="53.000597"><ele>781.676147</ele><time>2021-07-17T11:11:32Z</time><extensions><speed>0.000000</speed><course>269.430084</course><hAcc>0.917528</hAcc><vAcc>0.749056</vAcc></extensions></trkpt>
      <trkpt lon="-4.140025" lat="53.000597"><ele>781.676147</ele><time>2021-07-17T11:11:33Z</time><extensions><speed>0.000000</speed><course>274.056000</course><hAcc>0.917291</hAcc><vAcc>0.748648</vAcc></extensions></trkpt>
      <trkpt lon="-4.140025" lat="53.000597"><ele>781.676147</ele><time>2021-07-17T11:11:34Z</time><extensions><speed>0.000000</speed><course>273.580658</course><hAcc>0.916818</hAcc><vAcc>0.747703</vAcc></extensions></trkpt>
      <trkpt lon="-4.140025" lat="53.000597"><ele>781.676147</ele><time>2021-07-17T11:11:34Z</time><extensions><speed>0.000000</speed><course>266.285736</course><hAcc>0.916072</hAcc><vAcc>0.746341</vAcc></extensions></trkpt>
      <trkpt lon="-4.140025" lat="53.000597"><ele>781.676147</ele><time>2021-07-17T11:11:35Z</time><extensions><speed>0.000000</speed><course>280.416809</course><hAcc>0.915077</hAcc><vAcc>0.744820</vAcc></extensions></trkpt>
      <trkpt lon="-4.140025" lat="53.000597"><ele>781.676147</ele><time>2021-07-17T11:11:36Z</time><extensions><speed>0.000000</speed><course>289.633057</course><hAcc>0.914108</hAcc><vAcc>0.743695</vAcc></extensions></trkpt>
      <trkpt lon="-4.140025" lat="53.000597"><ele>781.676147</ele><time>2021-07-17T11:11:37Z</time><extensions><speed>0.000000</speed><course>274.042023</course><hAcc>0.913989</hAcc><vAcc>0.744036</vAcc></extensions></trkpt>
      <trkpt lon="-4.140025" lat="53.000597"><ele>781.676147</ele><time>2021-07-17T11:11:38Z</time><extensions><speed>0.000000</speed><course>259.398621</course><hAcc>0.916443</hAcc><vAcc>0.747659</vAcc></extensions></trkpt>
      <trkpt lon="-4.140025" lat="53.000597"><ele>781.676147</ele><time>2021-07-17T11:11:39Z</time><extensions><speed>0.000000</speed><course>235.228027</course><hAcc>0.924528</hAcc><vAcc>0.757362</vAcc></extensions></trkpt>
      <trkpt lon="-4.140025" lat="53.000597"><ele>781.676147</ele><time>2021-07-17T11:11:40Z</time><extensions><speed>0.000000</speed><course>233.943741</course><hAcc>0.943045</hAcc><vAcc>0.777044</vAcc></extensions></trkpt>
      <trkpt lon="-4.140025" lat="53.000597"><ele>781.676147</ele><time>2021-07-17T11:11:41Z</time><extensions><speed>0.000000</speed><course>251.986771</course><hAcc>0.978652</hAcc><vAcc>0.811547</vAcc></extensions></trkpt>
      <trkpt lon="-4.140025" lat="53.000597"><ele>781.676147</ele><time>2021-07-17T11:11:42Z</time><extensions><speed>0.000000</speed><course>207.637573</course><hAcc>0.940428</hAcc><vAcc>0.775918</vAcc></extensions></trkpt>
      <trkpt lon="-4.140025" lat="53.000597"><ele>781.676147</ele><time>2021-07-17T11:11:43Z</time><extensions><speed>0.000000</speed><course>199.781464</course><hAcc>0.921062</hAcc><vAcc>0.754896</vAcc></extensions></trkpt>
      <trkpt lon="-4.140025" lat="53.000597"><ele>781.676147</ele><time>2021-07-17T11:11:44Z</time><extensions><speed>0.000000</speed><course>204.898392</course><hAcc>0.913304</hAcc><vAcc>0.744877</vAcc></extensions></trkpt>
      <trkpt lon="-4.140025" lat="53.000597"><ele>781.676147</ele><time>2021-07-17T11:11:45Z</time><extensions><speed>0.000000</speed><course>218.988647</course><hAcc>0.911680</hAcc><vAcc>0.741522</vAcc></extensions></trkpt>
      <trkpt lon="-4.140025" lat="53.000597"><ele>781.676147</ele><time>2021-07-17T11:11:46Z</time><extensions><speed>0.000000</speed><course>240.875916</course><hAcc>0.912701</hAcc><vAcc>0.741705</vAcc></extensions></trkpt>
      <trkpt lon="-4.140025" lat="53.000597"><ele>781.676147</ele><time>2021-07-17T11:11:47Z</time><extensions><speed>0.000000</speed><course>240.875916</course><hAcc>0.914422</hAcc><vAcc>0.743402</vAcc></extensions></trkpt>
      <trkpt lon="-4.140025" lat="53.000597"><ele>781.676147</ele><time>2021-07-17T11:11:48Z</time><extensions><speed>0.000000</speed><course>240.875916</course><hAcc>0.915936</hAcc><vAcc>0.745436</vAcc></extensions></trkpt>
      <trkpt lon="-4.140025" lat="53.000597"><ele>781.676147</ele><time>2021-07-17T11:11:49Z</time><extensions><speed>0.000000</speed><course>240.875916</course><hAcc>0.916950</hAcc><vAcc>0.747204</vAcc></extensions></trkpt>
      <trkpt lon="-4.140025" lat="53.000597"><ele>781.676147</ele><time>2021-07-17T11:11:50Z</time><extensions><speed>0.000000</speed><course>240.875916</course><hAcc>0.917485</hAcc><vAcc>0.748452</vAcc></extensions></trkpt>
      <trkpt lon="-4.140025" lat="53.000597"><ele>781.676147</ele><time>2021-07-17T11:11:51Z</time><extensions><speed>0.000000</speed><course>240.875916</course><hAcc>0.917669</hAcc><vAcc>0.749110</vAcc></extensions></trkpt>
      <trkpt lon="-4.140025" lat="53.000597"><ele>781.676147</ele><time>2021-07-17T11:11:52Z</time><extensions><speed>0.000000</speed><course>269.430084</course><hAcc>0.917614</hAcc><vAcc>0.749184</vAcc></extensions></trkpt>
      <trkpt lon="-4.140025" lat="53.000597"><ele>781.676147</ele><time>2021-07-17T11:11:53Z</time><extensions><speed>0.000000</speed><course>274.056000</course><hAcc>0.917364</hAcc><vAcc>0.748700</vAcc></extensions></trkpt>
      <trkpt lon="-4.140025" lat="53.000597"><ele>781.676147</ele><time>2021-07-17T11:11:54Z</time><extensions><speed>0.000000</speed><course>273.580658</course><hAcc>0.916886</hAcc><vAcc>0.747704</vAcc></extensions></trkpt>
      <trkpt lon="-4.140025" lat="53.000597"><ele>781.676147</ele><time>2021-07-17T11:11:55Z</time><extensions><speed>0.000000</speed><course>266.285736</course><hAcc>0.916123</hAcc><vAcc>0.746300</vAcc></extensions></trkpt>
      <trkpt lon="-4.140025" lat="53.000597"><ele>781.676147</ele><time>2021-07-17T11:11:56Z</time><extensions><speed>0.000000</speed><course>280.416809</course><hAcc>0.915103</hAcc><vAcc>0.744748</vAcc></extensions></trkpt>
      <trkpt lon="-4.140025" lat="53.000597"><ele>781.676147</ele><time>2021-07-17T11:11:57Z</time><extensions><speed>0.000000</speed><course>289.633057</course><hAcc>0.914116</hAcc><vAcc>0.743607</vAcc></extensions></trkpt>
      <trkpt lon="-4.140025" lat="53.000597"><ele>781.676147</ele><time>2021-07-17T11:11:58Z</time><extensions><speed>0.000000</speed><course>274.042023</course><hAcc>0.913986</hAcc><vAcc>0.743945</vAcc></extensions></trkpt>
      <trkpt lon="-4.140025" lat="53.000597"><ele>781.676147</ele><time>2021-07-17T11:11:59Z</time><extensions><speed>0.000000</speed><course>259.398621</course><hAcc>0.916434</hAcc><vAcc>0.747573</vAcc></extensions></trkpt>
      <trkpt lon="-4.140025" lat="53.000597"><ele>781.676147</ele><time>2021-07-17T11:12:00Z</time><extensions><speed>0.000000</speed><course>235.228027</course><hAcc>0.924517</hAcc><vAcc>0.757288</vAcc></extensions></trkpt>
      <trkpt lon="-4.140025" lat="53.000597"><ele>781.676147</ele><time>2021-07-17T11:12:01Z</time><extensions><speed>0.000000</speed><course>233.943741</course><hAcc>0.943035</hAcc><vAcc>0.776984</vAcc></extensions></trkpt>
      <trkpt lon="-4.140025" lat="53.000597"><ele>781.676147</ele><time>2021-07-17T11:12:02Z</time><extensions><speed>0.000000</speed><course>251.986771</course><hAcc>0.978645</hAcc><vAcc>0.811505</vAcc></extensions></trkpt>
      <trkpt lon="-4.140025" lat="53.000597"><ele>781.676147</ele><time>2021-07-17T11:12:03Z</time><extensions><speed>0.000000</speed><course>207.637573</course><hAcc>0.940475</hAcc><vAcc>0.775994</vAcc></extensions></trkpt>
      <trkpt lon="-4.140025" lat="53.000597"><ele>781.676147</ele><time>2021-07-17T11:12:04Z</time><extensions><speed>0.000000</speed><course>199.781464</course><hAcc>0.921131</hAcc><vAcc>0.755026</vAcc></extensions></trkpt>
      <trkpt lon="-4.140025" lat="53.000597"><ele>781.676147</ele><time>2021-07-17T11:12:05Z</time><extensions><speed>0.000000</speed><course>204.898392</course><hAcc>0.913399</hAcc><vAcc>0.745068</vAcc></extensions></trkpt>
      <trkpt lon="-4.140025" lat="53.000597"><ele>781.676147</ele><time>2021-07-17T11:12:06Z</time><extensions><speed>0.000000</speed><course>218.988647</course><hAcc>0.911802</hAcc><vAcc>0.741777</vAcc></extensions></trkpt>
      <trkpt lon="-4.140025" lat="53.000597"><ele>781.676147</ele><time>2021-07-17T11:12:08Z</time><extensions><speed>0.000000</speed><course>240.875916</course><hAcc>0.912835</hAcc><vAcc>0.742010</vAcc></extensions></trkpt>
      <trkpt lon="-4.140025" lat="53.000597"><ele>781.676147</ele><time>2021-07-17T11:12:09Z</time><extensions><speed>0.000000</speed><course>240.875916</course><hAcc>0.914547</hAcc><vAcc>0.743735</vAcc></extensions></trkpt>
      <trkpt lon="-4.140025" lat="53.000597"><ele>781.676147</ele><time>2021-07-17T11:12:10Z</time><extensions><speed>0.000000</speed><course>240.875916</course><hAcc>0.916050</hAcc><vAcc>0.745780</vAcc></extensions></trkpt>
      <trkpt lon="-4.140025" lat="53.000597"><ele>781.676147</ele><time>2021-07-17T11:12:11Z</time><extensions><speed>0.000000</speed><course>240.875916</course><hAcc>0.917051</hAcc><vAcc>0.747538</vAcc></extensions></trkpt>
      <trkpt lon="-4.140025" lat="53.000597"><ele>781.676147</ele><time>2021-07-17T11:12:12Z</time><extensions><speed>0.000000</speed><course>240.875916</course><hAcc>0.917570</hAcc><vAcc>0.748754</vAcc></extensions></trkpt>
      <trkpt lon="-4.140025" lat="53.000597"><ele>781.676147</ele><time>2021-07-17T11:12:13Z</time><extensions><speed>0.000000</speed><course>240.875916</course><hAcc>0.917734</hAcc><vAcc>0.749356</vAcc></extensions></trkpt>
      <trkpt lon="-4.140025" lat="53.000597"><ele>781.676147</ele><time>2021-07-17T11:12:14Z</time><extensions><speed>0.000000</speed><course>269.430084</course><hAcc>0.917656</hAcc><vAcc>0.749349</vAcc></extensions></trkpt>
      <trkpt lon="-4.140025" lat="53.000597"><ele>781.676147</ele><time>2021-07-17T11:12:15Z</time><extensions><speed>0.000000</speed><course>274.056000</course><hAcc>0.917378</hAcc><vAcc>0.748762</vAcc></extensions></trkpt>
      <trkpt lon="-4.140025" lat="53.000597"><ele>781.676147</ele><time>2021-07-17T11:12:16Z</time><extensions><speed>0.000000</speed><course>273.580658</course><hAcc>0.916868</hAcc><vAcc>0.747645</vAcc></extensions></trkpt>
      <trkpt lon="-4.140025" lat="53.000597"><ele>781.676147</ele><time>2021-07-17T11:12:17Z</time><extensions><speed>0.000000</speed><course>266.285736</course><hAcc>0.916069</hAcc><vAcc>0.746107</vAcc></extensions></trkpt>
      <trkpt lon="-4.140025" lat="53.000597"><ele>781.676147</ele><time>2021-07-17T11:12:18Z</time><extensions><speed>0.000000</speed><course>280.416809</course><hAcc>0.915009</hAcc><vAcc>0.744412</vAcc></extensions></trkpt>
      <trkpt lon="-4.140025" lat="53.000597"><ele>781.676147</ele><time>2021-07-17T11:12:19Z</time><extensions><speed>0.000000</speed><course>289.633057</course><hAcc>0.913978</hAcc><vAcc>0.743126</vAcc></extensions></trkpt>
      <trkpt lon="-4.140025" lat="53.000597"><ele>781.676147</ele><time>2021-07-17T11:12:20Z</time><extensions><speed>0.000000</speed><course>274.042023</course><hAcc>0.913797</hAcc><vAcc>0.743316</vAcc></extensions></trkpt>
      <trkpt lon="-4.140025" lat="53.000597"><ele>781.676147</ele><time>2021-07-17T11:12:21Z</time><extensions><speed>0.000000</speed><course>259.398621</course><hAcc>0.916187</hAcc><vAcc>0.746795</vAcc></extensions></trkpt>
      <trkpt lon="-4.140025" lat="53.000597"><ele>781.676147</ele><time>2021-07-17T11:12:22Z</time><extensions><speed>0.000000</speed><course>235.228027</course><hAcc>0.924208</hAcc><vAcc>0.756358</vAcc></extensions></trkpt>
      <trkpt lon="-4.140025" lat="53.000597"><ele>781.676147</ele><time>2021-07-17T11:12:23Z</time><extensions><speed>0.000000</speed><course>233.943741</course><hAcc>0.942662</hAcc><vAcc>0.775903</vAcc></extensions></trkpt>
      <trkpt lon="-4.140025" lat="53.000597"><ele>781.676147</ele><time>2021-07-17T11:12:24Z</time><extensions><speed>0.000000</speed><course>251.986771</course><hAcc>0.978209</hAcc><vAcc>0.810277</vAcc></extensions></trkpt>
      <trkpt lon="-4.140025" lat="53.000597"><ele>781.678223</ele><time>2021-07-17T11:12:25Z</time><extensions><speed>0.002541</speed><course>207.637573</course><hAcc>0.939465</hAcc><vAcc>0.773902</vAcc></extensions></trkpt>
      <trkpt lon="-4.140025" lat="53.000597"><ele>781.679077</ele><time>2021-07-17T11:12:26Z</time><extensions><speed>0.002698</speed><course>199.781464</course><hAcc>0.919748</hAcc><vAcc>0.752456</vAcc></extensions></trkpt>
      <trkpt lon="-4.140025" lat="53.000597"><ele>781.679871</ele><time>2021-07-17T11:12:27Z</time><extensions><speed>0.002878</speed><course>204.898392</course><hAcc>0.911452</hAcc><vAcc>0.741781</vAcc></extensions></trkpt>
      <trkpt lon="-4.140025" lat="53.000597"><ele>781.680725</ele><time>2021-07-17T11:12:28Z</time><extensions><speed>0.003070</speed><course>218.988647</course><hAcc>0.909076</hAcc><vAcc>0.737532</vAcc></extensions></trkpt>
      <trkpt lon="-4.140025" lat="53.000597"><ele>781.681580</ele><time>2021-07-17T11:12:29Z</time><extensions><speed>0.003263</speed><course>240.875916</course><hAcc>0.909107</hAcc><vAcc>0.736580</vAcc></extensions></trkpt>
      <trkpt lon="-4.140025" lat="53.000597"><ele>781.682373</ele><time>2021-07-17T11:12:30Z</time><extensions><speed>0.003437</speed><course>240.875916</course><hAcc>0.909578</hAcc><vAcc>0.736911</vAcc></extensions></trkpt>
      <trkpt lon="-4.140025" lat="53.000597"><ele>781.683167</ele><time>2021-07-17T11:12:31Z</time><extensions><speed>0.003570</speed><course>240.875916</course><hAcc>0.909569</hAcc><vAcc>0.737372</vAcc></extensions></trkpt>
      <trkpt lon="-4.140025" lat="53.000597"><ele>781.683899</ele><time>2021-07-17T11:12:32Z</time><extensions><speed>0.003637</speed><course>240.875916</course><hAcc>0.908799</hAcc><vAcc>0.737407</vAcc></extensions></trkpt>
      <trkpt lon="-4.140025" lat="53.000597"><ele>781.684570</ele><time>2021-07-17T11:12:33Z</time><extensions><speed>0.003606</speed><course>240.875916</course><hAcc>0.907327</hAcc><vAcc>0.736840</vAcc></extensions></trkpt>
      <trkpt lon="-4.140025" lat="53.000597"><ele>781.685120</ele><time>2021-07-17T11:12:34Z</time><extensions><speed>0.003443</speed><course>240.875916</course><hAcc>0.905364</hAcc><vAcc>0.735712</vAcc></extensions></trkpt>
      <trkpt lon="-4.140025" lat="53.000597"><ele>781.685547</ele><time>2021-07-17T11:12:35Z</time><extensions><speed>0.003116</speed><course>269.430084</course><hAcc>0.903153</hAcc><vAcc>0.734167</vAcc></extensions></trkpt>
      <trkpt lon="-4.140025" lat="53.000597"><ele>781.685791</ele><time>2021-07-17T11:12:36Z</time><extensions><speed>0.002603</speed><course>274.056000</course><hAcc>0.900911</hAcc><vAcc>0.732382</vAcc></extensions></trkpt>
      <trkpt lon="-4.140025" lat="53.000597"><ele>781.685852</ele><time>2021-07-17T11:12:37Z</time><extensions><speed>0.001951</speed><course>273.580658</course><hAcc>0.898801</hAcc><vAcc>0.730525</vAcc></extensions></trkpt>
      <trkpt lon="-4.140025" lat="53.000597"><ele>781.685608</ele><time>2021-07-17T11:12:38Z</time><extensions><speed>0.001552</speed><course>266.285736</course><hAcc>0.896926</hAcc><vAcc>0.728730</vAcc></extensions></trkpt>
      <trkpt lon="-4.140025" lat="53.000597"><ele>781.684998</ele><time>2021-07-17T11:12:39Z</time><extensions><speed>0.002340</speed><course>280.416809</course><hAcc>0.895337</hAcc><vAcc>0.727093</vAcc></extensions></trkpt>
      <trkpt lon="-4.140025" lat="53.000597"><ele>781.684082</ele><time>2021-07-17T11:12:40Z</time><extensions><speed>0.004206</speed><course>289.633057</course><hAcc>0.894045</hAcc><vAcc>0.725667</vAcc></extensions></trkpt>
      <trkpt lon="-4.140025" lat="53.000597"><ele>781.682678</ele><time>2021-07-17T11:12:41Z</time><extensions><speed>0.006788</speed><course>274.042023</course><hAcc>0.893034</hAcc><vAcc>0.724477</vAcc></extensions></trkpt>
      <trkpt lon="-4.140025" lat="53.000597"><ele>781.680725</ele><time>2021-07-17T11:12:42Z</time><extensions><speed>0.010029</speed><course>259.398621</course><hAcc>0.892270</hAcc><vAcc>0.723521</vAcc></extensions></trkpt>
      <trkpt lon="-4.140025" lat="53.000597"><ele>781.678223</ele><time>2021-07-17T11:12:43Z</time><extensions><speed>0.013947</speed><course>235.228027</course><hAcc>0.891711</hAcc><vAcc>0.722781</vAcc></extensions></trkpt>
      <trkpt lon="-4.140025" lat="53.000597"><ele>781.675049</ele><time>2021-07-17T11:12:44Z</time><extensions><speed>0.018566</speed><course>233.943741</course><hAcc>0.891316</hAcc><vAcc>0.722227</vAcc></extensions></trkpt>
      <trkpt lon="-4.140025" lat="53.000596"><ele>781.671204</ele><time>2021-07-17T11:12:45Z</time><extensions><speed>0.023898</speed><course>251.986771</course><hAcc>0.891045</hAcc><vAcc>0.721828</vAcc></extensions></trkpt>
      <trkpt lon="-4.140025" lat="53.000596"><ele>781.666504</ele><time>2021-07-17T11:12:46Z</time><extensions><speed>0.029932</speed><course>230.632401</course><hAcc>0.890864</hAcc><vAcc>0.721549</vAcc></extensions></trkpt>
      <trkpt lon="-4.140025" lat="53.000596"><ele>781.660950</ele><time>2021-07-17T11:12:47Z</time><extensions><speed>0.036620</speed><course>208.539734</course><hAcc>0.890743</hAcc><vAcc>0.721358</vAcc></extensions></trkpt>
      <trkpt lon="-4.140025" lat="53.000596"><ele>781.654480</ele><time>2021-07-17T11:12:48Z</time><extensions><speed>0.043868</speed><course>217.062653</course><hAcc>0.890661</hAcc><vAcc>0.721221</vAcc></extensions></trkpt>
      <trkpt lon="-4.140026" lat="53.000595"><ele>781.647034</ele><time>2021-07-17T11:12:49Z</time><extensions><speed>0.051528</speed><course>216.480164</course><hAcc>0.890600</hAcc><vAcc>0.721111</vAcc></extensions></trkpt>
      <trkpt lon="-4.140026" lat="53.000595"><ele>781.638550</ele><time>2021-07-17T11:12:50Z</time><extensions><speed>0.059380</speed><course>215.204285</course><hAcc>0.890546</hAcc><vAcc>0.721003</vAcc></extensions></trkpt>
      <trkpt lon="-4.140026" lat="53.000594"><ele>781.628967</ele><time>2021-07-17T11:12:51Z</time><extensions><speed>0.067118</speed><course>192.608246</course><hAcc>0.890490</hAcc><vAcc>0.720875</vAcc></extensions></trkpt>
      <trkpt lon="-4.140027" lat="53.000594"><ele>781.618225</ele><time>2021-07-17T11:12:52Z</time><extensions><speed>0.074343</speed><course>196.818375</course><hAcc>0.890425</hAcc><vAcc>0.720711</vAcc></extensions></trkpt>
      <trkpt lon="-4.140027" lat="53.000593"><ele>781.606323</ele><time>2021-07-17T11:12:53Z</time><extensions><speed>0.080542</speed><course>200.564194</course><hAcc>0.890347</hAcc><vAcc>0.720497</vAcc></extensions></trkpt>
      <trkpt lon="-4.140028" lat="53.000592"><ele>781.593201</ele><time>2021-07-17T11:12:54Z</time><extensions><speed>0.085078</speed><course>224.718231</course><hAcc>0.890255</hAcc><vAcc>0.720222</vAcc></extensions></trkpt>
      <trkpt lon="-4.140028" lat="53.000592"><ele>781.578796</ele><time>2021-07-17T11:12:55Z</time><extensions><speed>0.087178</speed><course>228.969803</course><hAcc>0.890148</hAcc><vAcc>0.719881</vAcc></extensions></trkpt>
      <trkpt lon="-4.140029" lat="53.000591"><ele>781.563293</ele><time>2021-07-17T11:12:56Z</time><extensions><speed>0.086909</speed><course>250.366501</course><hAcc>0.890026</hAcc><vAcc>0.719476</vAcc></extensions></trkpt>
      <trkpt lon="-4.140030" lat="53.000590"><ele>781.546997</ele><time>2021-07-17T11:12:57Z</time><extensions><speed>0.085038</speed><course>-1.000000</course><hAcc>0.889893</hAcc><vAcc>0.719016</vAcc></extensions></trkpt>
      <trkpt lon="-4.140030" lat="53.000589"><ele>781.530457</ele><time>2021-07-17T11:12:58Z</time><extensions><speed>0.082009</speed><course>232.063629</course><hAcc>0.889750</hAcc><vAcc>0.718513</vAcc></extensions></trkpt>
      <trkpt lon="-4.140031" lat="53.000589"><ele>781.514221</ele><time>2021-07-17T11:12:59Z</time><extensions><speed>0.077974</speed><course>232.063614</course><hAcc>0.889601</hAcc><vAcc>0.717986</vAcc></extensions></trkpt>
      <trkpt lon="-4.140031" lat="53.000588"><ele>781.498962</ele><time>2021-07-17T11:13:00Z</time><extensions><speed>0.072955</speed><course>232.063614</course><hAcc>0.889447</hAcc><vAcc>0.717453</vAcc></extensions></trkpt>
      <trkpt lon="-4.140032" lat="53.000588"><ele>781.485046</ele><time>2021-07-17T11:13:01Z</time><extensions><speed>0.067031</speed><course>232.063599</course><hAcc>0.889294</hAcc><vAcc>0.716930</vAcc></extensions></trkpt>
      <trkpt lon="-4.140032" lat="53.000587"><ele>781.472900</ele><time>2021-07-17T11:13:02Z</time><extensions><speed>0.060348</speed><course>232.063599</course><hAcc>0.889144</hAcc><vAcc>0.716431</vAcc></extensions></trkpt>
      <trkpt lon="-4.140033" lat="53.000587"><ele>781.462830</ele><time>2021-07-17T11:13:03Z</time><extensions><speed>0.053172</speed><course>232.063583</course><hAcc>0.889000</hAcc><vAcc>0.715962</vAcc></extensions></trkpt>
      <trkpt lon="-4.140033" lat="53.000586"><ele>781.455017</ele><time>2021-07-17T11:13:04Z</time><extensions><speed>0.045785</speed><course>232.063583</course><hAcc>0.888864</hAcc><vAcc>0.715529</vAcc></extensions></trkpt>
      <trkpt lon="-4.140033" lat="53.000586"><ele>781.449463</ele><time>2021-07-17T11:13:05Z</time><extensions><speed>0.038369</speed><course>248.555511</course><hAcc>0.888739</hAcc><vAcc>0.715134</vAcc></extensions></trkpt>
      <trkpt lon="-4.140034" lat="53.000586"><ele>781.446350</ele><time>2021-07-17T11:13:06Z</time><extensions><speed>0.030927</speed><course>214.727661</course><hAcc>0.888625</hAcc><vAcc>0.714778</vAcc></extensions></trkpt>
      <trkpt lon="-4.140034" lat="53.000586"><ele>781.445679</ele><time>2021-07-17T11:13:07Z</time><extensions><speed>0.023509</speed><course>215.656113</course><hAcc>0.888524</hAcc><vAcc>0.714460</vAcc></extensions></trkpt>
      <trkpt lon="-4.140034" lat="53.000585"><ele>781.447510</ele><time>2021-07-17T11:13:08Z</time><extensions><speed>0.016308</speed><course>205.637772</course><hAcc>0.888436</hAcc><vAcc>0.714179</vAcc></extensions></trkpt>
      <trkpt lon="-4.140034" lat="53.000585"><ele>781.451843</ele><time>2021-07-17T11:13:09Z</time><extensions><speed>0.009559</speed><course>201.575424</course><hAcc>0.888361</hAcc><vAcc>0.713936</vAcc></extensions></trkpt>
      <trkpt lon="-4.140034" lat="53.000585"><ele>781.458618</ele><time>2021-07-17T11:13:10Z</time><extensions><speed>0.003911</speed><course>196.854248</course><hAcc>0.888298</hAcc><vAcc>0.713734</vAcc></extensions></trkpt>
      <trkpt lon="-4.140034" lat="53.000585"><ele>781.467896</ele><time>2021-07-17T11:13:11Z</time><extensions><speed>0.003661</speed><course>198.264053</course><hAcc>0.888246</hAcc><vAcc>0.713575</vAcc></extensions></trkpt>
      <trkpt lon="-4.140034" lat="53.000585"><ele>781.479431</ele><time>2021-07-17T11:13:12Z</time><extensions><speed>0.007723</speed><course>198.636932</course><hAcc>0.888204</hAcc><vAcc>0.713458</vAcc></extensions></trkpt>
      <trkpt lon="-4.140034" lat="53.000585"><ele>781.493164</ele><time>2021-07-17T11:13:13Z</time><extensions><speed>0.011552</speed><course>192.727798</course><hAcc>0.888171</hAcc><vAcc>0.713379</vAcc></extensions></trkpt>
      <trkpt lon="-4.140034" lat="53.000585"><ele>781.508667</ele><time>2021-07-17T11:13:14Z</time><extensions><speed>0.014662</speed><course>184.691818</course><hAcc>0.888145</hAcc><vAcc>0.713328</vAcc></extensions></trkpt>
      <trkpt lon="-4.140034" lat="53.000586"><ele>781.525574</ele><time>2021-07-17T11:13:15Z</time><extensions><speed>0.016993</speed><course>177.917740</course><hAcc>0.888124</hAcc><vAcc>0.713293</vAcc></extensions></trkpt>
      <trkpt lon="-4.140033" lat="53.000586"><ele>781.543396</ele><time>2021-07-17T11:13:16Z</time><extensions><speed>0.018712</speed><course>169.935883</course><hAcc>0.888106</hAcc><vAcc>0.713263</vAcc></extensions></trkpt>
      <trkpt lon="-4.140033" lat="53.000586"><ele>781.561523</ele><time>2021-07-17T11:13:17Z</time><extensions><speed>0.019856</speed><course>168.290512</course><hAcc>0.888090</hAcc><vAcc>0.713229</vAcc></extensions></trkpt>
      <trkpt lon="-4.140033" lat="53.000586"><ele>781.579468</ele><time>2021-07-17T11:13:18Z</time><extensions><speed>0.020485</speed><course>175.847488</course><hAcc>0.888074</hAcc><vAcc>0.713186</vAcc></extensions></trkpt>
      <trkpt lon="-4.140033" lat="53.000586"><ele>781.596680</ele><time>2021-07-17T11:13:19Z</time><extensions><speed>0.020613</speed><course>182.489380</course><hAcc>0.888058</hAcc><vAcc>0.713133</vAcc></extensions></trkpt>
      <trkpt lon="-4.140032" lat="53.000586"><ele>781.612610</ele><time>2021-07-17T11:13:20Z</time><extensions><speed>0.020303</speed><course>193.224472</course><hAcc>0.888042</hAcc><vAcc>0.713071</vAcc></extensions></trkpt>
      <trkpt lon="-4.140032" lat="53.000586"><ele>781.626709</ele><time>2021-07-17T11:13:21Z</time><extensions><speed>0.019706</speed><course>210.457108</course><hAcc>0.888024</hAcc><vAcc>0.713002</vAcc></extensions></trkpt>
      <trkpt lon="-4.140032" lat="53.000586"><ele>781.638611</ele><time>2021-07-17T11:13:22Z</time><extensions><speed>0.018959</speed><course>227.054108</course><hAcc>0.888005</hAcc><vAcc>0.712928</vAcc></extensions></trkpt>
      <trkpt lon="-4.140032" lat="53.000586"><ele>781.648071</ele><time>2021-07-17T11:13:23Z</time><extensions><speed>0.018272</speed><course>247.666534</course><hAcc>0.887987</hAcc><vAcc>0.712855</vAcc></extensions></trkpt>
      <trkpt lon="-4.140031" lat="53.000586"><ele>781.654663</ele><time>2021-07-17T11:13:24Z</time><extensions><speed>0.018002</speed><course>261.197876</course><hAcc>0.887968</hAcc><vAcc>0.712787</vAcc></extensions></trkpt>
      <trkpt lon="-4.140031" lat="53.000586"><ele>781.658508</ele><time>2021-07-17T11:13:25Z</time><extensions><speed>0.018341</speed><course>263.217255</course><hAcc>0.887952</hAcc><vAcc>0.712726</vAcc></extensions></trkpt>
      <trkpt lon="-4.140031" lat="53.000586"><ele>781.659729</ele><time>2021-07-17T11:13:26Z</time><extensions><speed>0.019344</speed><course>271.463165</course><hAcc>0.887937</hAcc><vAcc>0.712677</vAcc></extensions></trkpt>
      <trkpt lon="-4.140031" lat="53.000586"><ele>781.658813</ele><time>2021-07-17T11:13:27Z</time><extensions><speed>0.021022</speed><course>281.991608</course><hAcc>0.887926</hAcc><vAcc>0.712640</vAcc></extensions></trkpt>
      <trkpt lon="-4.140030" lat="53.000586"><ele>781.656189</ele><time>2021-07-17T11:13:28Z</time><extensions><speed>0.023060</speed><course>285.895782</course><hAcc>0.887918</hAcc><vAcc>0.712615</vAcc></extensions></trkpt>
      <trkpt lon="-4.140030" lat="53.000586"><ele>781.652222</ele><time>2021-07-17T11:13:29Z</time><extensions><speed>0.025229</speed><course>287.327179</course><hAcc>0.887914</hAcc><vAcc>0.712603</vAcc></extensions></trkpt>
      <trkpt lon="-4.140030" lat="53.000586"><ele>781.647156</ele><time>2021-07-17T11:13:30Z</time><extensions><speed>0.027523</speed><course>297.396240</course><hAcc>0.887915</hAcc><vAcc>0.712604</vAcc></extensions></trkpt>
      <trkpt lon="-4.140029" lat="53.000586"><ele>781.641052</ele><time>2021-07-17T11:13:31Z</time><extensions><speed>0.030055</speed><course>299.473175</course><hAcc>0.887923</hAcc><vAcc>0.712619</vAcc></extensions></trkpt>
      <trkpt lon="-4.140029" lat="53.000586"><ele>781.634094</ele><time>2021-07-17T11:13:32Z</time><extensions><speed>0.032907</speed><course>297.683289</course><hAcc>0.887936</hAcc><vAcc>0.712650</vAcc></extensions></trkpt>
      <trkpt lon="-4.140028" lat="53.000586"><ele>781.626709</ele><time>2021-07-17T11:13:33Z</time><extensions><speed>0.035884</speed><course>292.365356</course><hAcc>0.887955</hAcc><vAcc>0.712701</vAcc></extensions></trkpt>
      <trkpt lon="-4.140028" lat="53.000586"><ele>781.619324</ele><time>2021-07-17T11:13:34Z</time><extensions><speed>0.038706</speed><course>291.092651</course><hAcc>0.887980</hAcc><vAcc>0.712773</vAcc></extensions></trkpt>
      <trkpt lon="-4.140027" lat="53.000586"><ele>781.612549</ele><time>2021-07-17T11:13:35Z</time><extensions><speed>0.041221</speed><course>297.007721</course><hAcc>0.888012</hAcc><vAcc>0.712870</vAcc></extensions></trkpt>
      <trkpt lon="-4.140027" lat="53.000586"><ele>781.606873</ele><time>2021-07-17T11:13:36Z</time><extensions><speed>0.043280</speed><course>291.539093</course><hAcc>0.888049</hAcc><vAcc>0.712992</vAcc></extensions></trkpt>
      <trkpt lon="-4.140026" lat="53.000585"><ele>781.602661</ele><time>2021-07-17T11:13:37Z</time><extensions><speed>0.044609</speed><course>293.314819</course><hAcc>0.888092</hAcc><vAcc>0.713139</vAcc></extensions></trkpt>
      <trkpt lon="-4.140025" lat="53.000585"><ele>781.599670</ele><time>2021-07-17T11:13:38Z</time><extensions><speed>0.044751</speed><course>297.043213</course><hAcc>0.888138</hAcc><vAcc>0.713310</vAcc></extensions></trkpt>
      <trkpt lon="-4.140025" lat="53.000585"><ele>781.597717</ele><time>2021-07-17T11:13:39Z</time><extensions><speed>0.043283</speed><course>301.573547</course><hAcc>0.888188</hAcc><vAcc>0.713494</vAcc></extensions></trkpt>
      <trkpt lon="-4.140024" lat="53.000585"><ele>781.596252</ele><time>2021-07-17T11:13:40Z</time><extensions><speed>0.039984</speed><course>305.542847</course><hAcc>0.888240</hAcc><vAcc>0.713682</vAcc></extensions></trkpt>
      <trkpt lon="-4.140024" lat="53.000585"><ele>781.595093</ele><time>2021-07-17T11:13:41Z</time><extensions><speed>0.034808</speed><course>304.461029</course><hAcc>0.888295</hAcc><vAcc>0.713862</vAcc></extensions></trkpt>
      <trkpt lon="-4.140023" lat="53.000585"><ele>781.594055</ele><time>2021-07-17T11:13:42Z</time><extensions><speed>0.027846</speed><course>304.519958</course><hAcc>0.888350</hAcc><vAcc>0.714034</vAcc></extensions></trkpt>
      <trkpt lon="-4.140023" lat="53.000585"><ele>781.593201</ele><time>2021-07-17T11:13:43Z</time><extensions><speed>0.019595</speed><course>306.835541</course><hAcc>0.888407</hAcc><vAcc>0.714197</vAcc></extensions></trkpt>
      <trkpt lon="-4.140023" lat="53.000585"><ele>781.592773</ele><time>2021-07-17T11:13:44Z</time><extensions><speed>0.011580</speed><course>312.924469</course><hAcc>0.888466</hAcc><vAcc>0.714357</vAcc></extensions></trkpt>
      <trkpt lon="-4.140022" lat="53.000585"><ele>781.592896</ele><time>2021-07-17T11:13:45Z</time><extensions><speed>0.010104</speed><course>313.121582</course><hAcc>0.888529</hAcc><vAcc>0.714517</vAcc></extensions></trkpt>
      <trkpt lon="-4.140023" lat="53.000585"><ele>781.593933</ele><time>2021-07-17T11:13:46Z</time><extensions><speed>0.018286</speed><course>312.363678</course><hAcc>0.888596</hAcc><vAcc>0.714685</vAcc></extensions></trkpt>
      <trkpt lon="-4.140023" lat="53.000585"><ele>781.596252</ele><time>2021-07-17T11:13:47Z</time><extensions><speed>0.028680</speed><course>309.905548</course><hAcc>0.888671</hAcc><vAcc>0.714874</vAcc></extensions></trkpt>
      <trkpt lon="-4.140023" lat="53.000586"><ele>781.600159</ele><time>2021-07-17T11:13:48Z</time><extensions><speed>0.038580</speed><course>308.597687</course><hAcc>0.888756</hAcc><vAcc>0.715096</vAcc></extensions></trkpt>
      <trkpt lon="-4.140024" lat="53.000586"><ele>781.605835</ele><time>2021-07-17T11:13:49Z</time><extensions><speed>0.046639</speed><course>307.103394</course><hAcc>0.888854</hAcc><vAcc>0.715366</vAcc></extensions></trkpt>
      <trkpt lon="-4.140024" lat="53.000586"><ele>781.613586</ele><time>2021-07-17T11:13:50Z</time><extensions><speed>0.051978</speed><course>306.897400</course><hAcc>0.888969</hAcc><vAcc>0.715699</vAcc></extensions></trkpt>
      <trkpt lon="-4.140025" lat="53.000586"><ele>781.623291</ele><time>2021-07-17T11:13:51Z</time><extensions><speed>0.054524</speed><course>302.152618</course><hAcc>0.889106</hAcc><vAcc>0.716107</vAcc></extensions></trkpt>
      <trkpt lon="-4.140026" lat="53.000586"><ele>781.634949</ele><time>2021-07-17T11:13:52Z</time><extensions><speed>0.054646</speed><course>297.726410</course><hAcc>0.889271</hAcc><vAcc>0.716598</vAcc></extensions></trkpt>
      <trkpt lon="-4.140027" lat="53.000587"><ele>781.648438</ele><time>2021-07-17T11:13:53Z</time><extensions><speed>0.052928</speed><course>300.194183</course><hAcc>0.889472</hAcc><vAcc>0.717181</vAcc></extensions></trkpt>
      <trkpt lon="-4.140027" lat="53.000587"><ele>781.663513</ele><time>2021-07-17T11:13:54Z</time><extensions><speed>0.049868</speed><course>297.151825</course><hAcc>0.889721</hAcc><vAcc>0.717865</vAcc></extensions></trkpt>
      <trkpt lon="-4.140028" lat="53.000587"><ele>781.679749</ele><time>2021-07-17T11:13:55Z</time><extensions><speed>0.045801</speed><course>298.399384</course><hAcc>0.890033</hAcc><vAcc>0.718659</vAcc></extensions></trkpt>
      <trkpt lon="-4.140029" lat="53.000587"><ele>781.696655</ele><time>2021-07-17T11:13:56Z</time><extensions><speed>0.041036</speed><course>300.837921</course><hAcc>0.890429</hAcc><vAcc>0.719572</vAcc></extensions></trkpt>
      <trkpt lon="-4.140029" lat="53.000587"><ele>781.713562</ele><time>2021-07-17T11:13:57Z</time><extensions><speed>0.035840</speed><course>299.844330</course><hAcc>0.890935</hAcc><vAcc>0.720612</vAcc></extensions></trkpt>
      <trkpt lon="-4.140030" lat="53.000587"><ele>781.729980</ele><time>2021-07-17T11:13:58Z</time><extensions><speed>0.030540</speed><course>300.001373</course><hAcc>0.891581</hAcc><vAcc>0.721789</vAcc></extensions></trkpt>
      <trkpt lon="-4.140030" lat="53.000587"><ele>781.745483</ele><time>2021-07-17T11:13:59Z</time><extensions><speed>0.025388</speed><course>294.568817</course><hAcc>0.892403</hAcc><vAcc>0.723110</vAcc></extensions></trkpt>
      <trkpt lon="-4.140030" lat="53.000587"><ele>781.759827</ele><time>2021-07-17T11:14:00Z</time><extensions><speed>0.020562</speed><course>300.687103</course><hAcc>0.893436</hAcc><vAcc>0.724581</vAcc></extensions></trkpt>
      <trkpt lon="-4.140031" lat="53.000587"><ele>781.772827</ele><time>2021-07-17T11:14:01Z</time><extensions><speed>0.016180</speed><course>297.691925</course><hAcc>0.894710</hAcc><vAcc>0.726203</vAcc></extensions></trkpt>
      <trkpt lon="-4.140031" lat="53.000588"><ele>781.784424</ele><time>2021-07-17T11:14:02Z</time><extensions><speed>0.012307</speed><course>293.928223</course><hAcc>0.896242</hAcc><vAcc>0.727960</vAcc></extensions></trkpt>
      <trkpt lon="-4.140031" lat="53.000588"><ele>781.794495</ele><time>2021-07-17T11:14:03Z</time><extensions><speed>0.008971</speed><course>297.041656</course><hAcc>0.898030</hAcc><vAcc>0.729814</vAcc></extensions></trkpt>
      <trkpt lon="-4.140031" lat="53.000588"><ele>781.803162</ele><time>2021-07-17T11:14:04Z</time><extensions><speed>0.006169</speed><course>298.722290</course><hAcc>0.900037</hAcc><vAcc>0.731691</vAcc></extensions></trkpt>
      <trkpt lon="-4.140031" lat="53.000588"><ele>781.810486</ele><time>2021-07-17T11:14:05Z</time><extensions><speed>0.003877</speed><course>296.674316</course><hAcc>0.902185</hAcc><vAcc>0.733487</vAcc></extensions></trkpt>
      <trkpt lon="-4.140031" lat="53.000588"><ele>781.816528</ele><time>2021-07-17T11:14:06Z</time><extensions><speed>0.002067</speed><course>301.147156</course><hAcc>0.904347</hAcc><vAcc>0.735073</vAcc></extensions></trkpt>
      <trkpt lon="-4.140031" lat="53.000588"><ele>781.821472</ele><time>2021-07-17T11:14:07Z</time><extensions><speed>0.000773</speed><course>301.618805</course><hAcc>0.906352</hAcc><vAcc>0.736312</vAcc></extensions></trkpt>
      <trkpt lon="-4.140031" lat="53.000588"><ele>781.825317</ele><time>2021-07-17T11:14:08Z</time><extensions><speed>0.000719</speed><course>300.678009</course><hAcc>0.908009</hAcc><vAcc>0.737098</vAcc></extensions></trkpt>
      <trkpt lon="-4.140031" lat="53.000588"><ele>781.828247</ele><time>2021-07-17T11:14:09Z</time><extensions><speed>0.001371</speed><course>306.078644</course><hAcc>0.909159</hAcc><vAcc>0.737419</vAcc></extensions></trkpt>
      <trkpt lon="-4.140031" lat="53.000588"><ele>781.830383</ele><time>2021-07-17T11:14:10Z</time><extensions><speed>0.001866</speed><course>302.099213</course><hAcc>0.909777</hAcc><vAcc>0.737454</vAcc></extensions></trkpt>
      <trkpt lon="-4.140031" lat="53.000588"><ele>781.831909</ele><time>2021-07-17T11:14:11Z</time><extensions><speed>0.002184</speed><course>298.253754</course><hAcc>0.910141</hAcc><vAcc>0.737721</vAcc></extensions></trkpt>
      <trkpt lon="-4.140031" lat="53.000588"><ele>781.832825</ele><time>2021-07-17T11:14:12Z</time><extensions><speed>0.002361</speed><course>299.772583</course><hAcc>0.911082</hAcc><vAcc>0.739263</vAcc></extensions></trkpt>
      <trkpt lon="-4.140031" lat="53.000588"><ele>781.833374</ele><time>2021-07-17T11:14:13Z</time><extensions><speed>0.002433</speed><course>299.946075</course><hAcc>0.914346</hAcc><vAcc>0.743883</vAcc></extensions></trkpt>
      <trkpt lon="-4.140031" lat="53.000588"><ele>781.833496</ele><time>2021-07-17T11:14:14Z</time><extensions><speed>0.002435</speed><course>303.968170</course><hAcc>0.923020</hAcc><vAcc>0.754369</vAcc></extensions></trkpt>
      <trkpt lon="-4.140031" lat="53.000588"><ele>781.833374</ele><time>2021-07-17T11:14:15Z</time><extensions><speed>0.002395</speed><course>302.223755</course><hAcc>0.941932</hAcc><vAcc>0.774612</vAcc></extensions></trkpt>
      <trkpt lon="-4.140031" lat="53.000588"><ele>781.833069</ele><time>2021-07-17T11:14:16Z</time><extensions><speed>0.002335</speed><course>303.590851</course><hAcc>0.977768</hAcc><vAcc>0.809455</vAcc></extensions></trkpt>
      <trkpt lon="-4.140031" lat="53.000588"><ele>781.823792</ele><time>2021-07-17T11:14:17Z</time><extensions><speed>0.000000</speed><course>207.637573</course><hAcc>0.939673</hAcc><vAcc>0.773956</vAcc></extensions></trkpt>
      <trkpt lon="-4.140031" lat="53.000588"><ele>781.823792</ele><time>2021-07-17T11:14:18Z</time><extensions><speed>0.000000</speed><course>199.781464</course><hAcc>0.920385</hAcc><vAcc>0.753111</vAcc></extensions></trkpt>
      <trkpt lon="-4.140031" lat="53.000588"><ele>781.823792</ele><time>2021-07-17T11:14:19Z</time><extensions><speed>0.000000</speed><course>204.898392</course><hAcc>0.912671</hAcc><vAcc>0.743153</vAcc></extensions></trkpt>
      <trkpt lon="-4.140031" lat="53.000588"><ele>781.823792</ele><time>2021-07-17T11:14:20Z</time><extensions><speed>0.000000</speed><course>218.988647</course><hAcc>0.911056</hAcc><vAcc>0.739758</vAcc></extensions></trkpt>
      <trkpt lon="-4.140031" lat="53.000588"><ele>781.823792</ele><time>2021-07-17T11:14:21Z</time><extensions><speed>0.000000</speed><course>240.875916</course><hAcc>0.912055</hAcc><vAcc>0.739821</vAcc></extensions></trkpt>
      <trkpt lon="-4.140031" lat="53.000588"><ele>781.823792</ele><time>2021-07-17T11:14:22Z</time><extensions><speed>0.000000</speed><course>240.875916</course><hAcc>0.913732</hAcc><vAcc>0.741343</vAcc></extensions></trkpt>
      <trkpt lon="-4.140031" lat="53.000588"><ele>781.823792</ele><time>2021-07-17T11:14:23Z</time><extensions><speed>0.000000</speed><course>240.875916</course><hAcc>0.915185</hAcc><vAcc>0.743164</vAcc></extensions></trkpt>
      <trkpt lon="-4.140031" lat="53.000588"><ele>781.823792</ele><time>2021-07-17T11:14:24Z</time><extensions><speed>0.000000</speed><course>240.875916</course><hAcc>0.916131</hAcc><vAcc>0.744702</vAcc></extensions></trkpt>
      <trkpt lon="-4.140031" lat="53.000588"><ele>781.823792</ele><time>2021-07-17T11:14:25Z</time><extensions><speed>0.000000</speed><course>240.875916</course><hAcc>0.916598</hAcc><vAcc>0.745718</vAcc></extensions></trkpt>
      <trkpt lon="-4.140031" lat="53.000588"><ele>781.823792</ele><time>2021-07-17T11:14:26Z</time><extensions><speed>0.000000</speed><course>240.875916</course><hAcc>0.916718</hAcc><vAcc>0.746155</vAcc></extensions></trkpt>
      <trkpt lon="-4.140031" lat="53.000588"><ele>781.823792</ele><time>2021-07-17T11:14:27Z</time><extensions><speed>0.000000</speed><course>269.430084</course><hAcc>0.916608</hAcc><vAcc>0.746027</vAcc></extensions></trkpt>
      <trkpt lon="-4.140031" lat="53.000588"><ele>781.823792</ele><time>2021-07-17T11:14:28Z</time><extensions><speed>0.000000</speed><course>274.056000</course><hAcc>0.916313</hAcc><vAcc>0.745370</vAcc></extensions></trkpt>
      <trkpt lon="-4.140031" lat="53.000588"><ele>781.823792</ele><time>2021-07-17T11:14:29Z</time><extensions><speed>0.000000</speed><course>273.580658</course><hAcc>0.915801</hAcc><vAcc>0.744232</vAcc></extensions></trkpt>
      <trkpt lon="-4.140031" lat="53.000588"><ele>781.823792</ele><time>2021-07-17T11:14:30Z</time><extensions><speed>0.000000</speed><course>266.285736</course><hAcc>0.915011</hAcc><vAcc>0.742718</vAcc></extensions></trkpt>
      <trkpt lon="-4.140031" lat="53.000588"><ele>781.823792</ele><time>2021-07-17T11:14:31Z</time><extensions><speed>0.000000</speed><course>280.416809</course><hAcc>0.913967</hAcc><vAcc>0.741083</vAcc></extensions></trkpt>
      <trkpt lon="-4.140031" lat="53.000588"><ele>781.823792</ele><time>2021-07-17T11:14:32Z</time><extensions><speed>0.000000</speed><course>289.633057</course><hAcc>0.912951</hAcc><vAcc>0.739878</vAcc></extensions></trkpt>
      <trkpt lon="-4.140031" lat="53.000588"><ele>781.823792</ele><time>2021-07-17T11:14:33Z</time><extensions><speed>0.000000</speed><course>274.042023</course><hAcc>0.912780</hAcc><vAcc>0.740155</vAcc></extensions></trkpt>
      <trkpt lon="-4.140031" lat="53.000588"><ele>781.823792</ele><time>2021-07-17T11:14:34Z</time><extensions><speed>0.000000</speed><course>259.398621</course><hAcc>0.915168</hAcc><vAcc>0.743709</vAcc></extensions></trkpt>
      <trkpt lon="-4.140031" lat="53.000588"><ele>781.823792</ele><time>2021-07-17T11:14:35Z</time><extensions><speed>0.000000</speed><course>235.228027</course><hAcc>0.923171</hAcc><vAcc>0.753317</vAcc></extensions></trkpt>
      <trkpt lon="-4.140031" lat="53.000588"><ele>781.823792</ele><time>2021-07-17T11:14:36Z</time><extensions><speed>0.000000</speed><course>233.943741</course><hAcc>0.941589</hAcc><vAcc>0.772863</vAcc></extensions></trkpt>
      <trkpt lon="-4.140031" lat="53.000588"><ele>781.823792</ele><time>2021-07-17T11:14:37Z</time><extensions><speed>0.000000</speed><course>251.986771</course><hAcc>0.977089</hAcc><vAcc>0.807188</vAcc></extensions></trkpt>
      <trkpt lon="-4.140031" lat="53.000588"><ele>781.823792</ele><time>2021-07-17T11:14:38Z</time><extensions><speed>0.000000</speed><course>207.637573</course><hAcc>0.938909</hAcc><vAcc>0.771732</vAcc></extensions></trkpt>
      <trkpt lon="-4.140031" lat="53.000588"><ele>781.823792</ele><time>2021-07-17T11:14:39Z</time><extensions><speed>0.000000</speed><course>199.781464</course><hAcc>0.919767</hAcc><vAcc>0.751245</vAcc></extensions></trkpt>
      <trkpt lon="-4.140031" lat="53.000588"><ele>781.823792</ele><time>2021-07-17T11:14:40Z</time><extensions><speed>0.000000</speed><course>204.898392</course><hAcc>0.912193</hAcc><vAcc>0.741646</vAcc></extensions></trkpt>
      <trkpt lon="-4.140031" lat="53.000588"><ele>781.823792</ele><time>2021-07-17T11:14:41Z</time><extensions><speed>0.000000</speed><course>218.988647</course><hAcc>0.910707</hAcc><vAcc>0.738602</vAcc></extensions></trkpt>
      <trkpt lon="-4.140031" lat="53.000588"><ele>781.823792</ele><time>2021-07-17T11:14:42Z</time><extensions><speed>0.000000</speed><course>240.875916</course><hAcc>0.911825</hAcc><vAcc>0.739006</vAcc></extensions></trkpt>
      <trkpt lon="-4.140031" lat="53.000588"><ele>781.823792</ele><time>2021-07-17T11:14:43Z</time><extensions><speed>0.000000</speed><course>240.875916</course><hAcc>0.913608</hAcc><vAcc>0.740857</vAcc></extensions></trkpt>
      <trkpt lon="-4.140031" lat="53.000588"><ele>781.823792</ele><time>2021-07-17T11:14:44Z</time><extensions><speed>0.000000</speed><course>240.875916</course><hAcc>0.915158</hAcc><vAcc>0.743000</vAcc></extensions></trkpt>
      <trkpt lon="-4.140031" lat="53.000588"><ele>781.823792</ele><time>2021-07-17T11:14:45Z</time><extensions><speed>0.000000</speed><course>240.875916</course><hAcc>0.916193</hAcc><vAcc>0.744850</vAcc></extensions></trkpt>
      <trkpt lon="-4.140031" lat="53.000588"><ele>781.823792</ele><time>2021-07-17T11:14:46Z</time><extensions><speed>0.000000</speed><course>240.875916</course><hAcc>0.916742</hAcc><vAcc>0.746163</vAcc></extensions></trkpt>
      <trkpt lon="-4.140031" lat="53.000588"><ele>781.823792</ele><time>2021-07-17T11:14:47Z</time><extensions><speed>0.000000</speed><course>240.875916</course><hAcc>0.916937</hAcc><vAcc>0.746875</vAcc></extensions></trkpt>
      <trkpt lon="-4.140031" lat="53.000588"><ele>781.823792</ele><time>2021-07-17T11:14:48Z</time><extensions><speed>0.000000</speed><course>269.430084</course><hAcc>0.916896</hAcc><vAcc>0.746997</vAcc></extensions></trkpt>
      <trkpt lon="-4.140031" lat="53.000588"><ele>781.823792</ele><time>2021-07-17T11:14:49Z</time><extensions><speed>0.000000</speed><course>274.056000</course><hAcc>0.916665</hAcc><vAcc>0.746562</vAcc></extensions></trkpt>
      <trkpt lon="-4.140031" lat="53.000588"><ele>781.823792</ele><time>2021-07-17T11:14:50Z</time><extensions><speed>0.000000</speed><course>273.580658</course><hAcc>0.916213</hAcc><vAcc>0.745620</vAcc></extensions></trkpt>
      <trkpt lon="-4.140031" lat="53.000588"><ele>781.823792</ele><time>2021-07-17T11:14:51Z</time><extensions><speed>0.000000</speed><course>266.285736</course><hAcc>0.915483</hAcc><vAcc>0.744285</vAcc></extensions></trkpt>
      <trkpt lon="-4.140031" lat="53.000588"><ele>781.823792</ele><time>2021-07-17T11:14:52Z</time><extensions><speed>0.000000</speed><course>280.416809</course><hAcc>0.914504</hAcc><vAcc>0.742825</vAcc></extensions></trkpt>
      <trkpt lon="-4.140031" lat="53.000588"><ele>781.823792</ele><time>2021-07-17T11:14:53Z</time><extensions><speed>0.000000</speed><course>289.633057</course><hAcc>0.913563</hAcc><vAcc>0.741809</vAcc></extensions></trkpt>
      <trkpt lon="-4.140031" lat="53.000588"><ele>781.823792</ele><time>2021-07-17T11:14:54Z</time><extensions><speed>0.000000</speed><course>274.042023</course><hAcc>0.913485</hAcc><vAcc>0.742308</vAcc></extensions></trkpt>
      <trkpt lon="-4.140031" lat="53.000588"><ele>781.823792</ele><time>2021-07-17T11:14:55Z</time><extensions><speed>0.000000</speed><course>259.398621</course><hAcc>0.915989</hAcc><vAcc>0.746136</vAcc></extensions></trkpt>
      <trkpt lon="-4.140031" lat="53.000588"><ele>781.823792</ele><time>2021-07-17T11:14:56Z</time><extensions><speed>0.000000</speed><course>235.228027</course><hAcc>0.924135</hAcc><vAcc>0.756083</vAcc></extensions></trkpt>
      <trkpt lon="-4.140031" lat="53.000588"><ele>781.823792</ele><time>2021-07-17T11:14:57Z</time><extensions><speed>0.000000</speed><course>233.943741</course><hAcc>0.942721</hAcc><vAcc>0.776035</vAcc></extensions></trkpt>
      <trkpt lon="-4.140031" lat="53.000588"><ele>781.823792</ele><time>2021-07-17T11:14:58Z</time><extensions><speed>0.000000</speed><course>251.986771</course><hAcc>0.978403</hAcc><vAcc>0.810820</vAcc></extensions></trkpt>
      <trkpt lon="-4.140031" lat="53.000588"><ele>781.823792</ele><time>2021-07-17T11:14:59Z</time><extensions><speed>0.000000</speed><course>207.637573</course><hAcc>0.940051</hAcc><vAcc>0.775005</vAcc></extensions></trkpt>
      <trkpt lon="-4.140031" lat="53.000588"><ele>781.823792</ele><time>2021-07-17T11:15:00Z</time><extensions><speed>0.000000</speed><course>199.781464</course><hAcc>0.920833</hAcc><vAcc>0.754399</vAcc></extensions></trkpt>
      <trkpt lon="-4.140031" lat="53.000588"><ele>781.823792</ele><time>2021-07-17T11:15:01Z</time><extensions><speed>0.000000</speed><course>204.898392</course><hAcc>0.913199</hAcc><vAcc>0.744714</vAcc></extensions></trkpt>
      <trkpt lon="-4.140031" lat="53.000588"><ele>781.823792</ele><time>2021-07-17T11:15:02Z</time><extensions><speed>0.000000</speed><course>218.988647</course><hAcc>0.911671</hAcc><vAcc>0.741615</vAcc></extensions></trkpt>
      <trkpt lon="-4.140031" lat="53.000588"><ele>781.823792</ele><time>2021-07-17T11:15:03Z</time><extensions><speed>0.000000</speed><course>240.875916</course><hAcc>0.912765</hAcc><vAcc>0.741986</vAcc></extensions></trkpt>
      <trkpt lon="-4.140031" lat="53.000588"><ele>781.823792</ele><time>2021-07-17T11:15:04Z</time><extensions><speed>0.000000</speed><course>240.875916</course><hAcc>0.914536</hAcc><vAcc>0.743818</vAcc></extensions></trkpt>
      <trkpt lon="-4.140031" lat="53.000588"><ele>781.823792</ele><time>2021-07-17T11:15:05Z</time><extensions><speed>0.000000</speed><course>240.875916</course><hAcc>0.916083</hAcc><vAcc>0.745941</vAcc></extensions></trkpt>
      <trkpt lon="-4.140031" lat="53.000588"><ele>781.823792</ele><time>2021-07-17T11:15:06Z</time><extensions><speed>0.000000</speed><course>240.875916</course><hAcc>0.917115</hAcc><vAcc>0.747763</vAcc></extensions></trkpt>
      <trkpt lon="-4.140031" lat="53.000588"><ele>781.823792</ele><time>2021-07-17T11:15:07Z</time><extensions><speed>0.000000</speed><course>240.875916</course><hAcc>0.917657</hAcc><vAcc>0.749033</vAcc></extensions></trkpt>
      <trkpt lon="-4.140031" lat="53.000588"><ele>781.823792</ele><time>2021-07-17T11:15:08Z</time><extensions><speed>0.000000</speed><course>240.875916</course><hAcc>0.917835</hAcc><vAcc>0.749683</vAcc></extensions></trkpt>
      <trkpt lon="-4.140031" lat="53.000588"><ele>781.823792</ele><time>2021-07-17T11:15:09Z</time><extensions><speed>0.000000</speed><course>269.430084</course><hAcc>0.917766</hAcc><vAcc>0.749718</vAcc></extensions></trkpt>
      <trkpt lon="-4.140031" lat="53.000588"><ele>781.823792</ele><time>2021-07-17T11:15:10Z</time><extensions><speed>0.000000</speed><course>274.056000</course><hAcc>0.917493</hAcc><vAcc>0.749165</vAcc></extensions></trkpt>
      <trkpt lon="-4.140031" lat="53.000588"><ele>781.823792</ele><time>2021-07-17T11:15:11Z</time><extensions><speed>0.000000</speed><course>273.580658</course><hAcc>0.916983</hAcc><vAcc>0.748068</vAcc></extensions></trkpt>
      <trkpt lon="-4.140031" lat="53.000588"><ele>781.823792</ele><time>2021-07-17T11:15:12Z</time><extensions><speed>0.000000</speed><course>266.285736</course><hAcc>0.916181</hAcc><vAcc>0.746531</vAcc></extensions></trkpt>
      <trkpt lon="-4.140031" lat="53.000588"><ele>781.823792</ele><time>2021-07-17T11:15:13Z</time><extensions><speed>0.000000</speed><course>280.416809</course><hAcc>0.915113</hAcc><vAcc>0.744818</vAcc></extensions></trkpt>
      <trkpt lon="-4.140031" lat="53.000588"><ele>781.823792</ele><time>2021-07-17T11:15:14Z</time><extensions><speed>0.000000</speed><course>289.633057</course><hAcc>0.914071</hAcc><vAcc>0.743492</vAcc></extensions></trkpt>
      <trkpt lon="-4.140031" lat="53.000588"><ele>781.823792</ele><time>2021-07-17T11:15:15Z</time><extensions><speed>0.000000</speed><course>274.042023</course><hAcc>0.913877</hAcc><vAcc>0.743622</vAcc></extensions></trkpt>
      <trkpt lon="-4.140031" lat="53.000588"><ele>781.823792</ele><time>2021-07-17T11:15:16Z</time><extensions><speed>0.000000</speed><course>259.398621</course><hAcc>0.916253</hAcc><vAcc>0.747028</vAcc></extensions></trkpt>
      <trkpt lon="-4.140031" lat="53.000588"><ele>781.823792</ele><time>2021-07-17T11:15:17Z</time><extensions><speed>0.000000</speed><course>235.228027</course><hAcc>0.924258</hAcc><vAcc>0.756512</vAcc></extensions></trkpt>
      <trkpt lon="-4.140031" lat="53.000588"><ele>781.823792</ele><time>2021-07-17T11:15:18Z</time><extensions><speed>0.000000</speed><course>233.943741</course><hAcc>0.942695</hAcc><vAcc>0.775984</vAcc></extensions></trkpt>
      <trkpt lon="-4.140031" lat="53.000588"><ele>781.823792</ele><time>2021-07-17T11:15:19Z</time><extensions><speed>0.000000</speed><course>251.986771</course><hAcc>0.978227</hAcc><vAcc>0.810300</vAcc></extensions></trkpt>
      <trkpt lon="-4.140031" lat="53.000588"><ele>781.823792</ele><time>2021-07-17T11:15:20Z</time><extensions><speed>0.000000</speed><course>207.637573</course><hAcc>0.940040</hAcc><vAcc>0.774772</vAcc></extensions></trkpt>
      <trkpt lon="-4.140031" lat="53.000588"><ele>781.823792</ele><time>2021-07-17T11:15:21Z</time><extensions><speed>0.000000</speed><course>199.781464</course><hAcc>0.920716</hAcc><vAcc>0.753855</vAcc></extensions></trkpt>
      <trkpt lon="-4.140031" lat="53.000588"><ele>781.823792</ele><time>2021-07-17T11:15:22Z</time><extensions><speed>0.000000</speed><course>204.898392</course><hAcc>0.912998</hAcc><vAcc>0.743945</vAcc></extensions></trkpt>
      <trkpt lon="-4.140031" lat="53.000588"><ele>781.823792</ele><time>2021-07-17T11:15:23Z</time><extensions><speed>0.000000</speed><course>218.988647</course><hAcc>0.911408</hAcc><vAcc>0.740692</vAcc></extensions></trkpt>
      <trkpt lon="-4.140031" lat="53.000588"><ele>781.823792</ele><time>2021-07-17T11:15:24Z</time><extensions><speed>0.000000</speed><course>240.875916</course><hAcc>0.912455</hAcc><vAcc>0.740964</vAcc></extensions></trkpt>
      <trkpt lon="-4.140031" lat="53.000588"><ele>781.823792</ele><time>2021-07-17T11:15:25Z</time><extensions><speed>0.000000</speed><course>240.875916</course><hAcc>0.914196</hAcc><vAcc>0.742732</vAcc></extensions></trkpt>
      <trkpt lon="-4.140031" lat="53.000588"><ele>781.823792</ele><time>2021-07-17T11:15:26Z</time><extensions><speed>0.000000</speed><course>240.875916</course><hAcc>0.915723</hAcc><vAcc>0.744818</vAcc></extensions></trkpt>
      <trkpt lon="-4.140031" lat="53.000588"><ele>781.823792</ele><time>2021-07-17T11:15:27Z</time><extensions><speed>0.000000</speed><course>240.875916</course><hAcc>0.916746</hAcc><vAcc>0.746620</vAcc></extensions></trkpt>
      <trkpt lon="-4.140031" lat="53.000588"><ele>781.823792</ele><time>2021-07-17T11:15:28Z</time><extensions><speed>0.000000</speed><course>240.875916</course><hAcc>0.917286</hAcc><vAcc>0.747885</vAcc></extensions></trkpt>
      <trkpt lon="-4.140031" lat="53.000588"><ele>781.823792</ele><time>2021-07-17T11:15:29Z</time><extensions><speed>0.000000</speed><course>240.875916</course><hAcc>0.917472</hAcc><vAcc>0.748544</vAcc></extensions></trkpt>
      <trkpt lon="-4.140031" lat="53.000588"><ele>781.823792</ele><time>2021-07-17T11:15:30Z</time><extensions><speed>0.000000</speed><course>269.430084</course><hAcc>0.917417</hAcc><vAcc>0.748604</vAcc></extensions></trkpt>
      <trkpt lon="-4.140031" lat="53.000588"><ele>781.823792</ele><time>2021-07-17T11:15:31Z</time><extensions><speed>0.000000</speed><course>274.056000</course><hAcc>0.917164</hAcc><vAcc>0.748095</vAcc></extensions></trkpt>
      <trkpt lon="-4.140031" lat="53.000588"><ele>781.823792</ele><time>2021-07-17T11:15:32Z</time><extensions><speed>0.000000</speed><course>273.580658</course><hAcc>0.916682</hAcc><vAcc>0.747067</vAcc></extensions></trkpt>
      <trkpt lon="-4.140031" lat="53.000588"><ele>781.823792</ele><time>2021-07-17T11:15:33Z</time><extensions><speed>0.000000</speed><course>266.285736</course><hAcc>0.915915</hAcc><vAcc>0.745628</vAcc></extensions></trkpt>
      <trkpt lon="-4.140031" lat="53.000588"><ele>781.823792</ele><time>2021-07-17T11:15:34Z</time><extensions><speed>0.000000</speed><course>280.416809</course><hAcc>0.914888</hAcc><vAcc>0.744042</vAcc></extensions></trkpt>
      <trkpt lon="-4.140031" lat="53.000588"><ele>781.823792</ele><time>2021-07-17T11:15:35Z</time><extensions><speed>0.000000</speed><course>289.633057</course><hAcc>0.913892</hAcc><vAcc>0.742871</vAcc></extensions></trkpt>
      <trkpt lon="-4.140031" lat="53.000588"><ele>781.823792</ele><time>2021-07-17T11:15:36Z</time><extensions><speed>0.000000</speed><course>274.042023</course><hAcc>0.913749</hAcc><vAcc>0.743181</vAcc></extensions></trkpt>
      <trkpt lon="-4.140031" lat="53.000588"><ele>781.823792</ele><time>2021-07-17T11:15:37Z</time><extensions><speed>0.000000</speed><course>259.398621</course><hAcc>0.916178</hAcc><vAcc>0.746782</vAcc></extensions></trkpt>
      <trkpt lon="-4.140031" lat="53.000588"><ele>781.823792</ele><time>2021-07-17T11:15:38Z</time><extensions><speed>0.000000</speed><course>235.228027</course><hAcc>0.924238</hAcc><vAcc>0.756465</vAcc></extensions></trkpt>
      <trkpt lon="-4.140031" lat="53.000588"><ele>781.823792</ele><time>2021-07-17T11:15:39Z</time><extensions><speed>0.000000</speed><course>233.943741</course><hAcc>0.942730</hAcc><vAcc>0.776122</vAcc></extensions></trkpt>
      <trkpt lon="-4.140031" lat="53.000588"><ele>781.823792</ele><time>2021-07-17T11:15:40Z</time><extensions><speed>0.000000</speed><course>251.986771</course><hAcc>0.978313</hAcc><vAcc>0.810594</vAcc></extensions></trkpt>
      <trkpt lon="-4.140031" lat="53.000588"><ele>781.823792</ele><time>2021-07-17T11:15:41Z</time><extensions><speed>0.000000</speed><course>207.637573</course><hAcc>0.940104</hAcc><vAcc>0.775036</vAcc></extensions></trkpt>
      <trkpt lon="-4.140031" lat="53.000588"><ele>781.823792</ele><time>2021-07-17T11:15:42Z</time><extensions><speed>0.000000</speed><course>199.781464</course><hAcc>0.920809</hAcc><vAcc>0.754194</vAcc></extensions></trkpt>
      <trkpt lon="-4.140031" lat="53.000588"><ele>781.823792</ele><time>2021-07-17T11:15:43Z</time><extensions><speed>0.000000</speed><course>204.898392</course><hAcc>0.913115</hAcc><vAcc>0.744335</vAcc></extensions></trkpt>
      <trkpt lon="-4.140031" lat="53.000588"><ele>781.823792</ele><time>2021-07-17T11:15:44Z</time><extensions><speed>0.000000</speed><course>218.988647</course><hAcc>0.911544</hAcc><vAcc>0.741121</vAcc></extensions></trkpt>
      <trkpt lon="-4.140031" lat="53.000588"><ele>781.823792</ele><time>2021-07-17T11:15:45Z</time><extensions><speed>0.000000</speed><course>240.875916</course><hAcc>0.912607</hAcc><vAcc>0.741432</vAcc></extensions></trkpt>
      <trkpt lon="-4.140031" lat="53.000588"><ele>781.823792</ele><time>2021-07-17T11:15:46Z</time><extensions><speed>0.000000</speed><course>240.875916</course><hAcc>0.914360</hAcc><vAcc>0.743245</vAcc></extensions></trkpt>
      <trkpt lon="-4.140031" lat="53.000588"><ele>781.823792</ele><time>2021-07-17T11:15:47Z</time><extensions><speed>0.000000</speed><course>240.875916</course><hAcc>0.915895</hAcc><vAcc>0.745385</vAcc></extensions></trkpt>
      <trkpt lon="-4.140031" lat="53.000588"><ele>781.823792</ele><time>2021-07-17T11:15:48Z</time><extensions><speed>0.000000</speed><course>240.875916</course><hAcc>0.916924</hAcc><vAcc>0.747248</vAcc></extensions></trkpt>
      <trkpt lon="-4.140031" lat="53.000588"><ele>781.823792</ele><time>2021-07-17T11:15:48Z</time><extensions><speed>0.000000</speed><course>240.875916</course><hAcc>0.917483</hAcc><vAcc>0.748587</vAcc></extensions></trkpt>
      <trkpt lon="-4.140031" lat="53.000588"><ele>781.823792</ele><time>2021-07-17T11:15:49Z</time><extensions><speed>0.000000</speed><course>240.875916</course><hAcc>0.917703</hAcc><vAcc>0.749329</vAcc></extensions></trkpt>
      <trkpt lon="-4.140031" lat="53.000588"><ele>781.823792</ele><time>2021-07-17T11:15:50Z</time><extensions><speed>0.000000</speed><course>269.430084</course><hAcc>0.917680</hAcc><vAcc>0.749464</vAcc></extensions></trkpt>
      <trkpt lon="-4.140031" lat="53.000588"><ele>781.823792</ele><time>2021-07-17T11:15:51Z</time><extensions><speed>0.000000</speed><course>274.056000</course><hAcc>0.917456</hAcc><vAcc>0.749020</vAcc></extensions></trkpt>
      <trkpt lon="-4.140031" lat="53.000588"><ele>781.823792</ele><time>2021-07-17T11:15:52Z</time><extensions><speed>0.000000</speed><course>273.580658</course><hAcc>0.917002</hAcc><vAcc>0.748046</vAcc></extensions></trkpt>
      <trkpt lon="-4.140031" lat="53.000588"><ele>781.823792</ele><time>2021-07-17T11:15:53Z</time><extensions><speed>0.000000</speed><course>266.285736</course><hAcc>0.916263</hAcc><vAcc>0.746652</vAcc></extensions></trkpt>
      <trkpt lon="-4.140031" lat="53.000588"><ele>781.823792</ele><time>2021-07-17T11:15:55Z</time><extensions><speed>0.000000</speed><course>280.416809</course><hAcc>0.915249</hAcc><vAcc>0.745090</vAcc></extensions></trkpt>
      <trkpt lon="-4.140031" lat="53.000588"><ele>781.823792</ele><time>2021-07-17T11:15:56Z</time><extensions><speed>0.000000</speed><course>289.633057</course><hAcc>0.914254</hAcc><vAcc>0.743935</vAcc></extensions></trkpt>
      <trkpt lon="-4.140031" lat="53.000588"><ele>781.823792</ele><time>2021-07-17T11:15:57Z</time><extensions><speed>0.000000</speed><course>274.042023</course><hAcc>0.914120</hAcc><vAcc>0.744267</vAcc></extensions></trkpt>
      <trkpt lon="-4.140031" lat="53.000588"><ele>781.823792</ele><time>2021-07-17T11:15:58Z</time><extensions><speed>0.000000</speed><course>259.398621</course><hAcc>0.916569</hAcc><vAcc>0.747907</vAcc></extensions></trkpt>
      <trkpt lon="-4.140031" lat="53.000588"><ele>781.823792</ele><time>2021-07-17T11:15:59Z</time><extensions><speed>0.000000</speed><course>235.228027</course><hAcc>0.924660</hAcc><vAcc>0.757651</vAcc></extensions></trkpt>
      <trkpt lon="-4.140031" lat="53.000588"><ele>781.823792</ele><time>2021-07-17T11:16:00Z</time><extensions><speed>0.000000</speed><course>233.943741</course><hAcc>0.943193</hAcc><vAcc>0.777395</vAcc></extensions></trkpt>
      <trkpt lon="-4.140031" lat="53.000588"><ele>781.823792</ele><time>2021-07-17T11:16:01Z</time><extensions><speed>0.000000</speed><course>251.986771</course><hAcc>0.978824</hAcc><vAcc>0.811980</vAcc></extensions></trkpt>
      <trkpt lon="-4.140031" lat="53.000588"><ele>781.823792</ele><time>2021-07-17T11:16:02Z</time><extensions><speed>0.000000</speed><course>207.637573</course><hAcc>0.940535</hAcc><vAcc>0.776240</vAcc></extensions></trkpt>
      <trkpt lon="-4.140031" lat="53.000588"><ele>781.823792</ele><time>2021-07-17T11:16:03Z</time><extensions><speed>0.000000</speed><course>199.781464</course><hAcc>0.921173</hAcc><vAcc>0.755243</vAcc></extensions></trkpt>
      <trkpt lon="-4.140031" lat="53.000588"><ele>781.823792</ele><time>2021-07-17T11:16:04Z</time><extensions><speed>0.000000</speed><course>204.898392</course><hAcc>0.913420</hAcc><vAcc>0.745245</vAcc></extensions></trkpt>
      <trkpt lon="-4.140031" lat="53.000588"><ele>781.823792</ele><time>2021-07-17T11:16:05Z</time><extensions><speed>0.000000</speed><course>218.988647</course><hAcc>0.911800</hAcc><vAcc>0.741905</vAcc></extensions></trkpt>
      <trkpt lon="-4.140031" lat="53.000588"><ele>781.823792</ele><time>2021-07-17T11:16:06Z</time><extensions><speed>0.000000</speed><course>240.875916</course><hAcc>0.912824</hAcc><vAcc>0.742100</vAcc></extensions></trkpt>
      <trkpt lon="-4.140031" lat="53.000588"><ele>781.823792</ele><time>2021-07-17T11:16:07Z</time><extensions><speed>0.000000</speed><course>240.875916</course><hAcc>0.914549</hAcc><vAcc>0.743804</vAcc></extensions></trkpt>
      <trkpt lon="-4.140031" lat="53.000588"><ele>781.823792</ele><time>2021-07-17T11:16:08Z</time><extensions><speed>0.000000</speed><course>240.875916</course><hAcc>0.916064</hAcc><vAcc>0.745842</vAcc></extensions></trkpt>
      <trkpt lon="-4.140031" lat="53.000588"><ele>781.823792</ele><time>2021-07-17T11:16:09Z</time><extensions><speed>0.000000</speed><course>240.875916</course><hAcc>0.917078</hAcc><vAcc>0.747610</vAcc></extensions></trkpt>
      <trkpt lon="-4.140031" lat="53.000588"><ele>781.823792</ele><time>2021-07-17T11:16:10Z</time><extensions><speed>0.000000</speed><course>240.875916</course><hAcc>0.917611</hAcc><vAcc>0.748854</vAcc></extensions></trkpt>
      <trkpt lon="-4.140031" lat="53.000588"><ele>781.823792</ele><time>2021-07-17T11:16:11Z</time><extensions><speed>0.000000</speed><course>240.875916</course><hAcc>0.917789</hAcc><vAcc>0.749502</vAcc></extensions></trkpt>
      <trkpt lon="-4.140031" lat="53.000588"><ele>781.823792</ele><time>2021-07-17T11:16:12Z</time><extensions><speed>0.000000</speed><course>269.430084</course><hAcc>0.917726</hAcc><vAcc>0.749557</vAcc></extensions></trkpt>
      <trkpt lon="-4.140031" lat="53.000588"><ele>781.823792</ele><time>2021-07-17T11:16:13Z</time><extensions><speed>0.000000</speed><course>274.056000</course><hAcc>0.917464</hAcc><vAcc>0.749041</vAcc></extensions></trkpt>
      <trkpt lon="-4.140031" lat="53.000588"><ele>781.823792</ele><time>2021-07-17T11:16:14Z</time><extensions><speed>0.000000</speed><course>273.580658</course><hAcc>0.916973</hAcc><vAcc>0.747999</vAcc></extensions></trkpt>
      <trkpt lon="-4.140031" lat="53.000588"><ele>781.823792</ele><time>2021-07-17T11:16:15Z</time><extensions><speed>0.000000</speed><course>266.285736</course><hAcc>0.916195</hAcc><vAcc>0.746536</vAcc></extensions></trkpt>
      <trkpt lon="-4.140031" lat="53.000588"><ele>781.823792</ele><time>2021-07-17T11:16:16Z</time><extensions><speed>0.000000</speed><course>280.416809</course><hAcc>0.915158</hAcc><vAcc>0.744916</vAcc></extensions></trkpt>
      <trkpt lon="-4.140031" lat="53.000588"><ele>781.823792</ele><time>2021-07-17T11:16:17Z</time><extensions><speed>0.000000</speed><course>289.633057</course><hAcc>0.914154</hAcc><vAcc>0.743705</vAcc></extensions></trkpt>
      <trkpt lon="-4.140031" lat="53.000588"><ele>781.823792</ele><time>2021-07-17T11:16:18Z</time><extensions><speed>0.000000</speed><course>274.042023</course><hAcc>0.914006</hAcc><vAcc>0.743976</vAcc></extensions></trkpt>
      <trkpt lon="-4.140031" lat="53.000588"><ele>781.823792</ele><time>2021-07-17T11:16:19Z</time><extensions><speed>0.000000</speed><course>259.398621</course><hAcc>0.916437</hAcc><vAcc>0.747548</vAcc></extensions></trkpt>
      <trkpt lon="-4.140031" lat="53.000588"><ele>781.823792</ele><time>2021-07-17T11:16:20Z</time><extensions><speed>0.000000</speed><course>235.228027</course><hAcc>0.924506</hAcc><vAcc>0.757220</vAcc></extensions></trkpt>
      <trkpt lon="-4.140031" lat="53.000588"><ele>781.823792</ele><time>2021-07-17T11:16:21Z</time><extensions><speed>0.000000</speed><course>233.943741</course><hAcc>0.943014</hAcc><vAcc>0.776892</vAcc></extensions></trkpt>
      <trkpt lon="-4.140031" lat="53.000588"><ele>781.823792</ele><time>2021-07-17T11:16:22Z</time><extensions><speed>0.000000</speed><course>251.986771</course><hAcc>0.978619</hAcc><vAcc>0.811408</vAcc></extensions></trkpt>
      <trkpt lon="-4.140031" lat="53.000588"><ele>781.823792</ele><time>2021-07-17T11:16:23Z</time><extensions><speed>0.000000</speed><course>207.637573</course><hAcc>0.940354</hAcc><vAcc>0.775720</vAcc></extensions></trkpt>
      <trkpt lon="-4.140031" lat="53.000588"><ele>781.823792</ele><time>2021-07-17T11:16:24Z</time><extensions><speed>0.000000</speed><course>199.781464</course><hAcc>0.921028</hAcc><vAcc>0.754816</vAcc></extensions></trkpt>
      <trkpt lon="-4.140031" lat="53.000588"><ele>781.823792</ele><time>2021-07-17T11:16:25Z</time><extensions><speed>0.000000</speed><course>204.898392</course><hAcc>0.913306</hAcc><vAcc>0.744905</vAcc></extensions></trkpt>
      <trkpt lon="-4.140031" lat="53.000588"><ele>781.823792</ele><time>2021-07-17T11:16:26Z</time><extensions><speed>0.000000</speed><course>218.988647</course><hAcc>0.911713</hAcc><vAcc>0.741647</vAcc></extensions></trkpt>
      <trkpt lon="-4.140031" lat="53.000588"><ele>781.823792</ele><time>2021-07-17T11:16:27Z</time><extensions><speed>0.000000</speed><course>240.875916</course><hAcc>0.912760</hAcc><vAcc>0.741913</vAcc></extensions></trkpt>
      <trkpt lon="-4.140031" lat="53.000588"><ele>781.823792</ele><time>2021-07-17T11:16:28Z</time><extensions><speed>0.000000</speed><course>240.875916</course><hAcc>0.914502</hAcc><vAcc>0.743678</vAcc></extensions></trkpt>
      <trkpt lon="-4.140031" lat="53.000588"><ele>781.823792</ele><time>2021-07-17T11:16:29Z</time><extensions><speed>0.000000</speed><course>240.875916</course><hAcc>0.916031</hAcc><vAcc>0.745764</vAcc></extensions></trkpt>
      <trkpt lon="-4.140031" lat="53.000588"><ele>781.823792</ele><time>2021-07-17T11:16:30Z</time><extensions><speed>0.000000</speed><course>240.875916</course><hAcc>0.917056</hAcc><vAcc>0.747567</vAcc></extensions></trkpt>
      <trkpt lon="-4.140031" lat="53.000588"><ele>781.823792</ele><time>2021-07-17T11:16:31Z</time><extensions><speed>0.000000</speed><course>240.875916</course><hAcc>0.917598</hAcc><vAcc>0.748835</vAcc></extensions></trkpt>
      <trkpt lon="-4.140031" lat="53.000588"><ele>781.823792</ele><time>2021-07-17T11:16:32Z</time><extensions><speed>0.000000</speed><course>240.875916</course><hAcc>0.917784</hAcc><vAcc>0.749498</vAcc></extensions></trkpt>
      <trkpt lon="-4.140031" lat="53.000588"><ele>781.823792</ele><time>2021-07-17T11:16:33Z</time><extensions><speed>0.000000</speed><course>269.430084</course><hAcc>0.917729</hAcc><vAcc>0.749562</vAcc></extensions></trkpt>
      <trkpt lon="-4.140031" lat="53.000588"><ele>781.823792</ele><time>2021-07-17T11:16:34Z</time><extensions><speed>0.000000</speed><course>274.056000</course><hAcc>0.917475</hAcc><vAcc>0.749057</vAcc></extensions></trkpt>
      <trkpt lon="-4.140031" lat="53.000588"><ele>781.823792</ele><time>2021-07-17T11:16:35Z</time><extensions><speed>0.000000</speed><course>273.580658</course><hAcc>0.916991</hAcc><vAcc>0.748032</vAcc></extensions></trkpt>
      <trkpt lon="-4.140031" lat="53.000588"><ele>781.823792</ele><time>2021-07-17T11:16:36Z</time><extensions><speed>0.000000</speed><course>266.285736</course><hAcc>0.916222</hAcc><vAcc>0.746596</vAcc></extensions></trkpt>
      <trkpt lon="-4.140031" lat="53.000588"><ele>781.823792</ele><time>2021-07-17T11:16:37Z</time><extensions><speed>0.000000</speed><course>280.416809</course><hAcc>0.915196</hAcc><vAcc>0.745014</vAcc></extensions></trkpt>
      <trkpt lon="-4.140031" lat="53.000588"><ele>781.823792</ele><time>2021-07-17T11:16:38Z</time><extensions><speed>0.000000</speed><course>289.633057</course><hAcc>0.914206</hAcc><vAcc>0.743851</vAcc></extensions></trkpt>
      <trkpt lon="-4.140031" lat="53.000588"><ele>781.823792</ele><time>2021-07-17T11:16:39Z</time><extensions><speed>0.000000</speed><course>274.042023</course><hAcc>0.914075</hAcc><vAcc>0.744180</vAcc></extensions></trkpt>
      <trkpt lon="-4.140031" lat="53.000588"><ele>781.823792</ele><time>2021-07-17T11:16:40Z</time><extensions><speed>0.000000</speed><course>259.398621</course><hAcc>0.916525</hAcc><vAcc>0.747816</vAcc></extensions></trkpt>
      <trkpt lon="-4.140031" lat="53.000588"><ele>781.823792</ele><time>2021-07-17T11:16:41Z</time><extensions><speed>0.000000</speed><course>235.228027</course><hAcc>0.924617</hAcc><vAcc>0.757555</vAcc></extensions></trkpt>
      <trkpt lon="-4.140031" lat="53.000588"><ele>781.823792</ele><time>2021-07-17T11:16:42Z</time><extensions><speed>0.000000</speed><course>233.943741</course><hAcc>0.943149</hAcc><vAcc>0.777294</vAcc></extensions></trkpt>
      <trkpt lon="-4.140031" lat="53.000588"><ele>781.823792</ele><time>2021-07-17T11:16:43Z</time><extensions><speed>0.000000</speed><course>251.986771</course><hAcc>0.978778</hAcc><vAcc>0.811871</vAcc></extensions></trkpt>
      <trkpt lon="-4.140031" lat="53.000588"><ele>781.823792</ele><time>2021-07-17T11:16:44Z</time><extensions><speed>0.000000</speed><course>207.637573</course><hAcc>0.940533</hAcc><vAcc>0.776227</vAcc></extensions></trkpt>
      <trkpt lon="-4.140031" lat="53.000588"><ele>781.823792</ele><time>2021-07-17T11:16:45Z</time><extensions><speed>0.000000</speed><course>199.781464</course><hAcc>0.921171</hAcc><vAcc>0.755233</vAcc></extensions></trkpt>
      <trkpt lon="-4.140031" lat="53.000588"><ele>781.823792</ele><time>2021-07-17T11:16:46Z</time><extensions><speed>0.000000</speed><course>204.898392</course><hAcc>0.913415</hAcc><vAcc>0.745237</vAcc></extensions></trkpt>
      <trkpt lon="-4.140031" lat="53.000588"><ele>781.823792</ele><time>2021-07-17T11:16:47Z</time><extensions><speed>0.000000</speed><course>218.988647</course><hAcc>0.911792</hAcc><vAcc>0.741899</vAcc></extensions></trkpt>
      <trkpt lon="-4.140031" lat="53.000588"><ele>781.823792</ele><time>2021-07-17T11:16:48Z</time><extensions><speed>0.000000</speed><course>240.875916</course><hAcc>0.912812</hAcc><vAcc>0.742090</vAcc></extensions></trkpt>
      <trkpt lon="-4.140031" lat="53.000588"><ele>781.823792</ele><time>2021-07-17T11:16:49Z</time><extensions><speed>0.000000</speed><course>240.875916</course><hAcc>0.914531</hAcc><vAcc>0.743786</vAcc></extensions></trkpt>
      <trkpt lon="-4.140031" lat="53.000588"><ele>781.823792</ele><time>2021-07-17T11:16:50Z</time><extensions><speed>0.000000</speed><course>240.875916</course><hAcc>0.916039</hAcc><vAcc>0.745805</vAcc></extensions></trkpt>
      <trkpt lon="-4.140031" lat="53.000588"><ele>781.823792</ele><time>2021-07-17T11:16:51Z</time><extensions><speed>0.000000</speed><course>240.875916</course><hAcc>0.917046</hAcc><vAcc>0.747546</vAcc></extensions></trkpt>
      <trkpt lon="-4.140031" lat="53.000588"><ele>781.823792</ele><time>2021-07-17T11:16:52Z</time><extensions><speed>0.000000</speed><course>240.875916</course><hAcc>0.917572</hAcc><vAcc>0.748755</vAcc></extensions></trkpt>
      <trkpt lon="-4.140031" lat="53.000588"><ele>781.823792</ele><time>2021-07-17T11:16:53Z</time><extensions><speed>0.000000</speed><course>240.875916</course><hAcc>0.917744</hAcc><vAcc>0.749365</vAcc></extensions></trkpt>
      <trkpt lon="-4.140031" lat="53.000588"><ele>781.823792</ele><time>2021-07-17T11:16:54Z</time><extensions><speed>0.000000</speed><course>269.430084</course><hAcc>0.917678</hAcc><vAcc>0.749383</vAcc></extensions></trkpt>
      <trkpt lon="-4.140031" lat="53.000588"><ele>781.823792</ele><time>2021-07-17T11:16:55Z</time><extensions><speed>0.000000</speed><course>274.056000</course><hAcc>0.917415</hAcc><vAcc>0.748843</vAcc></extensions></trkpt>
      <trkpt lon="-4.140031" lat="53.000588"><ele>781.823792</ele><time>2021-07-17T11:16:56Z</time><extensions><speed>0.000000</speed><course>273.580658</course><hAcc>0.916927</hAcc><vAcc>0.747793</vAcc></extensions></trkpt>
      <trkpt lon="-4.140031" lat="53.000588"><ele>781.823792</ele><time>2021-07-17T11:16:57Z</time><extensions><speed>0.000000</speed><course>266.285736</course><hAcc>0.916157</hAcc><vAcc>0.746347</vAcc></extensions></trkpt>
      <trkpt lon="-4.140031" lat="53.000588"><ele>781.823792</ele><time>2021-07-17T11:16:58Z</time><extensions><speed>0.000000</speed><course>280.416809</course><hAcc>0.915134</hAcc><vAcc>0.744769</vAcc></extensions></trkpt>
      <trkpt lon="-4.140031" lat="53.000588"><ele>781.823792</ele><time>2021-07-17T11:16:59Z</time><extensions><speed>0.000000</speed><course>289.633057</course><hAcc>0.914150</hAcc><vAcc>0.743627</vAcc></extensions></trkpt>
      <trkpt lon="-4.140031" lat="53.000588"><ele>781.823792</ele><time>2021-07-17T11:17:00Z</time><extensions><speed>0.000000</speed><course>274.042023</course><hAcc>0.914029</hAcc><vAcc>0.743992</vAcc></extensions></trkpt>
      <trkpt lon="-4.140031" lat="53.000588"><ele>781.823792</ele><time>2021-07-17T11:17:01Z</time><extensions><speed>0.000000</speed><course>259.398621</course><hAcc>0.916492</hAcc><vAcc>0.747679</vAcc></extensions></trkpt>
      <trkpt lon="-4.140031" lat="53.000588"><ele>781.823792</ele><time>2021-07-17T11:17:02Z</time><extensions><speed>0.000000</speed><course>235.228027</course><hAcc>0.924599</hAcc><vAcc>0.757482</vAcc></extensions></trkpt>
      <trkpt lon="-4.140031" lat="53.000588"><ele>781.823792</ele><time>2021-07-17T11:17:03Z</time><extensions><speed>0.000000</speed><course>233.943741</course><hAcc>0.943147</hAcc><vAcc>0.777289</vAcc></extensions></trkpt>
      <trkpt lon="-4.140031" lat="53.000588"><ele>781.823792</ele><time>2021-07-17T11:17:04Z</time><extensions><speed>0.000000</speed><course>251.986771</course><hAcc>0.978792</hAcc><vAcc>0.811929</vAcc></extensions></trkpt>
      <trkpt lon="-4.140031" lat="53.000588"><ele>781.823792</ele><time>2021-07-17T11:17:05Z</time><extensions><speed>0.000000</speed><course>207.637573</course><hAcc>0.940489</hAcc><vAcc>0.776157</vAcc></extensions></trkpt>
      <trkpt lon="-4.140031" lat="53.000588"><ele>781.823792</ele><time>2021-07-17T11:17:06Z</time><extensions><speed>0.000000</speed><course>199.781464</course><hAcc>0.921141</hAcc><vAcc>0.755201</vAcc></extensions></trkpt>
      <trkpt lon="-4.140031" lat="53.000588"><ele>781.823792</ele><time>2021-07-17T11:17:07Z</time><extensions><speed>0.000000</speed><course>204.898392</course><hAcc>0.913397</hAcc><vAcc>0.745218</vAcc></extensions></trkpt>
      <trkpt lon="-4.140031" lat="53.000588"><ele>781.823792</ele><time>2021-07-17T11:17:08Z</time><extensions><speed>0.000000</speed><course>218.988647</course><hAcc>0.911780</hAcc><vAcc>0.741876</vAcc></extensions></trkpt>
      <trkpt lon="-4.140031" lat="53.000588"><ele>781.823792</ele><time>2021-07-17T11:17:09Z</time><extensions><speed>0.000000</speed><course>240.875916</course><hAcc>0.912802</hAcc><vAcc>0.742054</vAcc></extensions></trkpt>
      <trkpt lon="-4.140031" lat="53.000588"><ele>781.823792</ele><time>2021-07-17T11:17:10Z</time><extensions><speed>0.000000</speed><course>240.875916</course><hAcc>0.914520</hAcc><vAcc>0.743734</vAcc></extensions></trkpt>
      <trkpt lon="-4.140031" lat="53.000588"><ele>781.823792</ele><time>2021-07-17T11:17:11Z</time><extensions><speed>0.000000</speed><course>240.875916</course><hAcc>0.916025</hAcc><vAcc>0.745742</vAcc></extensions></trkpt>
      <trkpt lon="-4.140031" lat="53.000588"><ele>781.823792</ele><time>2021-07-17T11:17:12Z</time><extensions><speed>0.000000</speed><course>240.875916</course><hAcc>0.917027</hAcc><vAcc>0.747474</vAcc></extensions></trkpt>
      <trkpt lon="-4.140031" lat="53.000588"><ele>781.823792</ele><time>2021-07-17T11:17:13Z</time><extensions><speed>0.000000</speed><course>240.875916</course><hAcc>0.917546</hAcc><vAcc>0.748676</vAcc></extensions></trkpt>
      <trkpt lon="-4.140031" lat="53.000588"><ele>781.823792</ele><time>2021-07-17T11:17:14Z</time><extensions><speed>0.000000</speed><course>240.875916</course><hAcc>0.917711</hAcc><vAcc>0.749276</vAcc></extensions></trkpt>
      <trkpt lon="-4.140031" lat="53.000588"><ele>781.823792</ele><time>2021-07-17T11:17:15Z</time><extensions><speed>0.000000</speed><course>269.430084</course><hAcc>0.917634</hAcc><vAcc>0.749276</vAcc></extensions></trkpt>
      <trkpt lon="-4.140031" lat="53.000588"><ele>781.823792</ele><time>2021-07-17T11:17:16Z</time><extensions><speed>0.000000</speed><course>274.056000</course><hAcc>0.917359</hAcc><vAcc>0.748706</vAcc></extensions></trkpt>
      <trkpt lon="-4.140031" lat="53.000588"><ele>781.823792</ele><time>2021-07-17T11:17:17Z</time><extensions><speed>0.000000</speed><course>273.580658</course><hAcc>0.916854</hAcc><vAcc>0.747611</vAcc></extensions></trkpt>
      <trkpt lon="-4.140031" lat="53.000588"><ele>781.823792</ele><time>2021-07-17T11:17:18Z</time><extensions><speed>0.000000</speed><course>266.285736</course><hAcc>0.916062</hAcc><vAcc>0.746100</vAcc></extensions></trkpt>
      <trkpt lon="-4.140031" lat="53.000588"><ele>781.823792</ele><time>2021-07-17T11:17:19Z</time><extensions><speed>0.000000</speed><course>280.416809</course><hAcc>0.915011</hAcc><vAcc>0.744435</vAcc></extensions></trkpt>
      <trkpt lon="-4.140031" lat="53.000588"><ele>781.823792</ele><time>2021-07-17T11:17:20Z</time><extensions><speed>0.000000</speed><course>289.633057</course><hAcc>0.913991</hAcc><vAcc>0.743181</vAcc></extensions></trkpt>
      <trkpt lon="-4.140031" lat="53.000588"><ele>781.823792</ele><time>2021-07-17T11:17:21Z</time><extensions><speed>0.000000</speed><course>274.042023</course><hAcc>0.913826</hAcc><vAcc>0.743407</vAcc></extensions></trkpt>
      <trkpt lon="-4.140031" lat="53.000588"><ele>781.823792</ele><time>2021-07-17T11:17:22Z</time><extensions><speed>0.000000</speed><course>259.398621</course><hAcc>0.916235</hAcc><vAcc>0.746928</vAcc></extensions></trkpt>
      <trkpt lon="-4.140031" lat="53.000588"><ele>781.823792</ele><time>2021-07-17T11:17:23Z</time><extensions><speed>0.000000</speed><course>235.228027</course><hAcc>0.924280</hAcc><vAcc>0.756546</vAcc></extensions></trkpt>
      <trkpt lon="-4.140031" lat="53.000588"><ele>781.823792</ele><time>2021-07-17T11:17:24Z</time><extensions><speed>0.000000</speed><course>233.943741</course><hAcc>0.942761</hAcc><vAcc>0.776160</vAcc></extensions></trkpt>
      <trkpt lon="-4.140031" lat="53.000588"><ele>781.823792</ele><time>2021-07-17T11:17:25Z</time><extensions><speed>0.000000</speed><course>251.986771</course><hAcc>0.978339</hAcc><vAcc>0.810618</vAcc></extensions></trkpt>
      <trkpt lon="-4.140031" lat="53.000588"><ele>781.823792</ele><time>2021-07-17T11:17:26Z</time><extensions><speed>0.000000</speed><course>207.637573</course><hAcc>0.940088</hAcc><vAcc>0.774966</vAcc></extensions></trkpt>
      <trkpt lon="-4.140031" lat="53.000588"><ele>781.823792</ele><time>2021-07-17T11:17:27Z</time><extensions><speed>0.000000</speed><course>199.781464</course><hAcc>0.920779</hAcc><vAcc>0.754097</vAcc></extensions></trkpt>
      <trkpt lon="-4.140031" lat="53.000588"><ele>781.823792</ele><time>2021-07-17T11:17:28Z</time><extensions><speed>0.000000</speed><course>204.898392</course><hAcc>0.913069</hAcc><vAcc>0.744208</vAcc></extensions></trkpt>
      <trkpt lon="-4.140031" lat="53.000588"><ele>781.823792</ele><time>2021-07-17T11:17:29Z</time><extensions><speed>0.000000</speed><course>218.988647</course><hAcc>0.911482</hAcc><vAcc>0.740956</vAcc></extensions></trkpt>
      <trkpt lon="-4.140031" lat="53.000588"><ele>781.823792</ele><time>2021-07-17T11:17:30Z</time><extensions><speed>0.000000</speed><course>240.875916</course><hAcc>0.912527</hAcc><vAcc>0.741212</vAcc></extensions></trkpt>
      <trkpt lon="-4.140031" lat="53.000588"><ele>781.823792</ele><time>2021-07-17T11:17:31Z</time><extensions><speed>0.000000</speed><course>240.875916</course><hAcc>0.914262</hAcc><vAcc>0.742955</vAcc></extensions></trkpt>
      <trkpt lon="-4.140031" lat="53.000588"><ele>781.823792</ele><time>2021-07-17T11:17:32Z</time><extensions><speed>0.000000</speed><course>240.875916</course><hAcc>0.915780</hAcc><vAcc>0.745007</vAcc></extensions></trkpt>
      <trkpt lon="-4.140031" lat="53.000588"><ele>781.823792</ele><time>2021-07-17T11:17:33Z</time><extensions><speed>0.000000</speed><course>240.875916</course><hAcc>0.916791</hAcc><vAcc>0.746770</vAcc></extensions></trkpt>
      <trkpt lon="-4.140031" lat="53.000588"><ele>781.823792</ele><time>2021-07-17T11:17:34Z</time><extensions><speed>0.000000</speed><course>240.875916</course><hAcc>0.917318</hAcc><vAcc>0.747993</vAcc></extensions></trkpt>
      <trkpt lon="-4.140031" lat="53.000588"><ele>781.823792</ele><time>2021-07-17T11:17:35Z</time><extensions><speed>0.000000</speed><course>240.875916</course><hAcc>0.917488</hAcc><vAcc>0.748606</vAcc></extensions></trkpt>
      <trkpt lon="-4.140031" lat="53.000588"><ele>781.823792</ele><time>2021-07-17T11:17:36Z</time><extensions><speed>0.000000</speed><course>269.430084</course><hAcc>0.917417</hAcc><vAcc>0.748616</vAcc></extensions></trkpt>
      <trkpt lon="-4.140031" lat="53.000588"><ele>781.823792</ele><time>2021-07-17T11:17:37Z</time><extensions><speed>0.000000</speed><course>274.056000</course><hAcc>0.917148</hAcc><vAcc>0.748056</vAcc></extensions></trkpt>
      <trkpt lon="-4.140031" lat="53.000588"><ele>781.823792</ele><time>2021-07-17T11:17:38Z</time><extensions><speed>0.000000</speed><course>273.580658</course><hAcc>0.916652</hAcc><vAcc>0.746974</vAcc></extensions></trkpt>
      <trkpt lon="-4.140031" lat="53.000588"><ele>781.823792</ele><time>2021-07-17T11:17:39Z</time><extensions><speed>0.000000</speed><course>266.285736</course><hAcc>0.915872</hAcc><vAcc>0.745482</vAcc></extensions></trkpt>
      <trkpt lon="-4.140031" lat="53.000588"><ele>781.823792</ele><time>2021-07-17T11:17:40Z</time><extensions><speed>0.000000</speed><course>280.416809</course><hAcc>0.914837</hAcc><vAcc>0.743849</vAcc></extensions></trkpt>
      <trkpt lon="-4.140031" lat="53.000588"><ele>781.823792</ele><time>2021-07-17T11:17:41Z</time><extensions><speed>0.000000</speed><course>289.633057</course><hAcc>0.913836</hAcc><vAcc>0.742645</vAcc></extensions></trkpt>
      <trkpt lon="-4.140031" lat="53.000588"><ele>781.823792</ele><time>2021-07-17T11:17:42Z</time><extensions><speed>0.000000</speed><course>274.042023</course><hAcc>0.913695</hAcc><vAcc>0.742943</vAcc></extensions></trkpt>
      <trkpt lon="-4.140031" lat="53.000588"><ele>781.823792</ele><time>2021-07-17T11:17:43Z</time><extensions><speed>0.000000</speed><course>259.398621</course><hAcc>0.916133</hAcc><vAcc>0.746561</vAcc></extensions></trkpt>
      <trkpt lon="-4.140031" lat="53.000588"><ele>781.823792</ele><time>2021-07-17T11:17:44Z</time><extensions><speed>0.000000</speed><course>235.228027</course><hAcc>0.924211</hAcc><vAcc>0.756297</vAcc></extensions></trkpt>
      <trkpt lon="-4.140031" lat="53.000588"><ele>781.823792</ele><time>2021-07-17T11:17:45Z</time><extensions><speed>0.000000</speed><course>233.943741</course><hAcc>0.942731</hAcc><vAcc>0.776045</vAcc></extensions></trkpt>
      <trkpt lon="-4.140031" lat="53.000588"><ele>781.823792</ele><time>2021-07-17T11:17:46Z</time><extensions><speed>0.000000</speed><course>251.986771</course><hAcc>0.978350</hAcc><vAcc>0.810644</vAcc></extensions></trkpt>
      <trkpt lon="-4.140031" lat="53.000588"><ele>781.823792</ele><time>2021-07-17T11:17:47Z</time><extensions><speed>0.000000</speed><course>207.637573</course><hAcc>0.940028</hAcc><vAcc>0.774871</vAcc></extensions></trkpt>
      <trkpt lon="-4.140031" lat="53.000588"><ele>781.823792</ele><time>2021-07-17T11:17:48Z</time><extensions><speed>0.000000</speed><course>199.781464</course><hAcc>0.920805</hAcc><vAcc>0.754241</vAcc></extensions></trkpt>
      <trkpt lon="-4.140031" lat="53.000588"><ele>781.823792</ele><time>2021-07-17T11:17:49Z</time><extensions><speed>0.000000</speed><course>204.898392</course><hAcc>0.913173</hAcc><vAcc>0.744563</vAcc></extensions></trkpt>
      <trkpt lon="-4.140031" lat="53.000588"><ele>781.823792</ele><time>2021-07-17T11:17:50Z</time><extensions><speed>0.000000</speed><course>218.988647</course><hAcc>0.911654</hAcc><vAcc>0.741497</vAcc></extensions></trkpt>
      <trkpt lon="-4.140031" lat="53.000588"><ele>781.823792</ele><time>2021-07-17T11:17:51Z</time><extensions><speed>0.000000</speed><course>240.875916</course><hAcc>0.912761</hAcc><vAcc>0.741923</vAcc></extensions></trkpt>
      <trkpt lon="-4.140031" lat="53.000588"><ele>781.823792</ele><time>2021-07-17T11:17:52Z</time><extensions><speed>0.000000</speed><course>240.875916</course><hAcc>0.914551</hAcc><vAcc>0.743823</vAcc></extensions></trkpt>
      <trkpt lon="-4.140031" lat="53.000588"><ele>781.823792</ele><time>2021-07-17T11:17:53Z</time><extensions><speed>0.000000</speed><course>240.875916</course><hAcc>0.916119</hAcc><vAcc>0.746026</vAcc></extensions></trkpt>
      <trkpt lon="-4.140031" lat="53.000588"><ele>781.823792</ele><time>2021-07-17T11:17:54Z</time><extensions><speed>0.000000</speed><course>240.875916</course><hAcc>0.917175</hAcc><vAcc>0.747932</vAcc></extensions></trkpt>
      <trkpt lon="-4.140031" lat="53.000588"><ele>781.823792</ele><time>2021-07-17T11:17:55Z</time><extensions><speed>0.000000</speed><course>240.875916</course><hAcc>0.917741</hAcc><vAcc>0.749289</vAcc></extensions></trkpt>
      <trkpt lon="-4.140031" lat="53.000588"><ele>781.823792</ele><time>2021-07-17T11:17:56Z</time><extensions><speed>0.000000</speed><course>240.875916</course><hAcc>0.917947</hAcc><vAcc>0.750027</vAcc></extensions></trkpt>
      <trkpt lon="-4.140031" lat="53.000588"><ele>781.823792</ele><time>2021-07-17T11:17:57Z</time><extensions><speed>0.000000</speed><course>269.430084</course><hAcc>0.917906</hAcc><vAcc>0.750150</vAcc></extensions></trkpt>
      <trkpt lon="-4.140031" lat="53.000588"><ele>781.823792</ele><time>2021-07-17T11:17:58Z</time><extensions><speed>0.000000</speed><course>274.056000</course><hAcc>0.917662</hAcc><vAcc>0.749688</vAcc></extensions></trkpt>
      <trkpt lon="-4.140031" lat="53.000588"><ele>781.823792</ele><time>2021-07-17T11:17:59Z</time><extensions><speed>0.000000</speed><course>273.580658</course><hAcc>0.917185</hAcc><vAcc>0.748688</vAcc></extensions></trkpt>
      <trkpt lon="-4.140031" lat="53.000588"><ele>781.823792</ele><time>2021-07-17T11:18:00Z</time><extensions><speed>0.000000</speed><course>266.285736</course><hAcc>0.916419</hAcc><vAcc>0.747262</vAcc></extensions></trkpt>
      <trkpt lon="-4.140031" lat="53.000588"><ele>781.823792</ele><time>2021-07-17T11:18:01Z</time><extensions><speed>0.000000</speed><course>280.416809</course><hAcc>0.915395</hAcc><vAcc>0.745677</vAcc></extensions></trkpt>
      <trkpt lon="-4.140031" lat="53.000588"><ele>781.823792</ele><time>2021-07-17T11:18:02Z</time><extensions><speed>0.000000</speed><course>289.633057</course><hAcc>0.914406</hAcc><vAcc>0.744504</vAcc></extensions></trkpt>
      <trkpt lon="-4.140031" lat="53.000588"><ele>781.823792</ele><time>2021-07-17T11:18:03Z</time><extensions><speed>0.000000</speed><course>274.042023</course><hAcc>0.914276</hAcc><vAcc>0.744819</vAcc></extensions></trkpt>
      <trkpt lon="-4.140031" lat="53.000588"><ele>781.823792</ele><time>2021-07-17T11:18:04Z</time><extensions><speed>0.000000</speed><course>259.398621</course><hAcc>0.916731</hAcc><vAcc>0.748444</vAcc></extensions></trkpt>
      <trkpt lon="-4.140031" lat="53.000588"><ele>781.823792</ele><time>2021-07-17T11:18:05Z</time><extensions><speed>0.000000</speed><course>235.228027</course><hAcc>0.924830</hAcc><vAcc>0.758181</vAcc></extensions></trkpt>
      <trkpt lon="-4.140031" lat="53.000588"><ele>781.823792</ele><time>2021-07-17T11:18:06Z</time><extensions><speed>0.000000</speed><course>233.943741</course><hAcc>0.943373</hAcc><vAcc>0.777927</vAcc></extensions></trkpt>
      <trkpt lon="-4.140031" lat="53.000588"><ele>781.823792</ele><time>2021-07-17T11:18:07Z</time><extensions><speed>0.000000</speed><course>251.986771</course><hAcc>0.979015</hAcc><vAcc>0.812523</vAcc></extensions></trkpt>
      <trkpt lon="-4.140031" lat="53.000588"><ele>781.823486</ele><time>2021-07-17T11:18:08Z</time><extensions><speed>0.000751</speed><course>207.637573</course><hAcc>0.940197</hAcc><vAcc>0.775975</vAcc></extensions></trkpt>
      <trkpt lon="-4.140031" lat="53.000588"><ele>781.824097</ele><time>2021-07-17T11:18:09Z</time><extensions><speed>0.000908</speed><course>199.781464</course><hAcc>0.920412</hAcc><vAcc>0.754387</vAcc></extensions></trkpt>
      <trkpt lon="-4.140031" lat="53.000588"><ele>781.824829</ele><time>2021-07-17T11:18:10Z</time><extensions><speed>0.001108</speed><course>204.898392</course><hAcc>0.912064</hAcc><vAcc>0.743611</vAcc></extensions></trkpt>
      <trkpt lon="-4.140031" lat="53.000588"><ele>781.825623</ele><time>2021-07-17T11:18:11Z</time><extensions><speed>0.001355</speed><course>218.988647</course><hAcc>0.909657</hAcc><vAcc>0.739302</vAcc></extensions></trkpt>
      <trkpt lon="-4.140031" lat="53.000588"><ele>781.826538</ele><time>2021-07-17T11:18:12Z</time><extensions><speed>0.001649</speed><course>240.875916</course><hAcc>0.909676</hAcc><vAcc>0.738332</vAcc></extensions></trkpt>
      <trkpt lon="-4.140031" lat="53.000588"><ele>781.827515</ele><time>2021-07-17T11:18:13Z</time><extensions><speed>0.001990</speed><course>240.875916</course><hAcc>0.910153</hAcc><vAcc>0.738682</vAcc></extensions></trkpt>
      <trkpt lon="-4.140031" lat="53.000588"><ele>781.828552</ele><time>2021-07-17T11:18:14Z</time><extensions><speed>0.002374</speed><course>240.875916</course><hAcc>0.910165</hAcc><vAcc>0.739195</vAcc></extensions></trkpt>
      <trkpt lon="-4.140031" lat="53.000588"><ele>781.829712</ele><time>2021-07-17T11:18:15Z</time><extensions><speed>0.002795</speed><course>240.875916</course><hAcc>0.909426</hAcc><vAcc>0.739311</vAcc></extensions></trkpt>
      <trkpt lon="-4.140031" lat="53.000588"><ele>781.830994</ele><time>2021-07-17T11:18:16Z</time><extensions><speed>0.003245</speed><course>240.875916</course><hAcc>0.907993</hAcc><vAcc>0.738852</vAcc></extensions></trkpt>
      <trkpt lon="-4.140031" lat="53.000588"><ele>781.832275</ele><time>2021-07-17T11:18:17Z</time><extensions><speed>0.003712</speed><course>240.875916</course><hAcc>0.906073</hAcc><vAcc>0.737854</vAcc></extensions></trkpt>
      <trkpt lon="-4.140031" lat="53.000588"><ele>781.833679</ele><time>2021-07-17T11:18:18Z</time><extensions><speed>0.004178</speed><course>269.430084</course><hAcc>0.903907</hAcc><vAcc>0.736455</vAcc></extensions></trkpt>
      <trkpt lon="-4.140031" lat="53.000588"><ele>781.835083</ele><time>2021-07-17T11:18:19Z</time><extensions><speed>0.004622</speed><course>274.056000</course><hAcc>0.901709</hAcc><vAcc>0.734827</vAcc></extensions></trkpt>
      <trkpt lon="-4.140031" lat="53.000588"><ele>781.836487</ele><time>2021-07-17T11:18:20Z</time><extensions><speed>0.005015</speed><course>273.580658</course><hAcc>0.899640</hAcc><vAcc>0.733128</vAcc></extensions></trkpt>
      <trkpt lon="-4.140031" lat="53.000588"><ele>781.837830</ele><time>2021-07-17T11:18:21Z</time><extensions><speed>0.005325</speed><course>266.285736</course><hAcc>0.897800</hAcc><vAcc>0.731484</vAcc></extensions></trkpt>
      <trkpt lon="-4.140031" lat="53.000588"><ele>781.839050</ele><time>2021-07-17T11:18:22Z</time><extensions><speed>0.005511</speed><course>280.416809</course><hAcc>0.896239</hAcc><vAcc>0.729979</vAcc></extensions></trkpt>
      <trkpt lon="-4.140031" lat="53.000588"><ele>781.840088</ele><time>2021-07-17T11:18:23Z</time><extensions><speed>0.005526</speed><course>289.633057</course><hAcc>0.894968</hAcc><vAcc>0.728658</vAcc></extensions></trkpt>
      <trkpt lon="-4.140031" lat="53.000588"><ele>781.840881</ele><time>2021-07-17T11:18:24Z</time><extensions><speed>0.005314</speed><course>274.042023</course><hAcc>0.893967</hAcc><vAcc>0.727538</vAcc></extensions></trkpt>
      <trkpt lon="-4.140031" lat="53.000588"><ele>781.841309</ele><time>2021-07-17T11:18:25Z</time><extensions><speed>0.004816</speed><course>259.398621</course><hAcc>0.893204</hAcc><vAcc>0.726611</vAcc></extensions></trkpt>
      <trkpt lon="-4.140031" lat="53.000588"><ele>781.841248</ele><time>2021-07-17T11:18:26Z</time><extensions><speed>0.003965</speed><course>235.228027</course><hAcc>0.892637</hAcc><vAcc>0.725856</vAcc></extensions></trkpt>
      <trkpt lon="-4.140031" lat="53.000588"><ele>781.840576</ele><time>2021-07-17T11:18:27Z</time><extensions><speed>0.002703</speed><course>233.943741</course><hAcc>0.892226</hAcc><vAcc>0.725245</vAcc></extensions></trkpt>
      <trkpt lon="-4.140031" lat="53.000588"><ele>781.839172</ele><time>2021-07-17T11:18:28Z</time><extensions><speed>0.001113</speed><course>251.986771</course><hAcc>0.891932</hAcc><vAcc>0.724749</vAcc></extensions></trkpt>
      <trkpt lon="-4.140031" lat="53.000588"><ele>781.836914</ele><time>2021-07-17T11:18:29Z</time><extensions><speed>0.001862</speed><course>230.632401</course><hAcc>0.891725</hAcc><vAcc>0.724344</vAcc></extensions></trkpt>
      <trkpt lon="-4.140031" lat="53.000588"><ele>781.833618</ele><time>2021-07-17T11:18:30Z</time><extensions><speed>0.004859</speed><course>208.539734</course><hAcc>0.891578</hAcc><vAcc>0.724010</vAcc></extensions></trkpt>
      <trkpt lon="-4.140031" lat="53.000588"><ele>781.829163</ele><time>2021-07-17T11:18:31Z</time><extensions><speed>0.008720</speed><course>217.062653</course><hAcc>0.891472</hAcc><vAcc>0.723733</vAcc></extensions></trkpt>
      <trkpt lon="-4.140031" lat="53.000588"><ele>781.823303</ele><time>2021-07-17T11:18:32Z</time><extensions><speed>0.013451</speed><course>216.480164</course><hAcc>0.891393</hAcc><vAcc>0.723505</vAcc></extensions></trkpt>
      <trkpt lon="-4.140031" lat="53.000588"><ele>781.815979</ele><time>2021-07-17T11:18:33Z</time><extensions><speed>0.019107</speed><course>215.204285</course><hAcc>0.891332</hAcc><vAcc>0.723316</vAcc></extensions></trkpt>
      <trkpt lon="-4.140031" lat="53.000588"><ele>781.807007</ele><time>2021-07-17T11:18:34Z</time><extensions><speed>0.025731</speed><course>192.608246</course><hAcc>0.891283</hAcc><vAcc>0.723162</vAcc></extensions></trkpt>
      <trkpt lon="-4.140031" lat="53.000587"><ele>781.796265</ele><time>2021-07-17T11:18:35Z</time><extensions><speed>0.033344</speed><course>196.818375</course><hAcc>0.891241</hAcc><vAcc>0.723035</vAcc></extensions></trkpt>
      <trkpt lon="-4.140030" lat="53.000587"><ele>781.783630</ele><time>2021-07-17T11:18:36Z</time><extensions><speed>0.041931</speed><course>200.564194</course><hAcc>0.891205</hAcc><vAcc>0.722933</vAcc></extensions></trkpt>
      <trkpt lon="-4.140030" lat="53.000587"><ele>781.768982</ele><time>2021-07-17T11:18:37Z</time><extensions><speed>0.051433</speed><course>224.718231</course><hAcc>0.891174</hAcc><vAcc>0.722849</vAcc></extensions></trkpt>
      <trkpt lon="-4.140030" lat="53.000586"><ele>781.752380</ele><time>2021-07-17T11:18:38Z</time><extensions><speed>0.061731</speed><course>228.969803</course><hAcc>0.891146</hAcc><vAcc>0.722780</vAcc></extensions></trkpt>
      <trkpt lon="-4.140030" lat="53.000586"><ele>781.733765</ele><time>2021-07-17T11:18:39Z</time><extensions><speed>0.072642</speed><course>250.366501</course><hAcc>0.891121</hAcc><vAcc>0.722721</vAcc></extensions></trkpt>
      <trkpt lon="-4.140030" lat="53.000585"><ele>781.713318</ele><time>2021-07-17T11:18:40Z</time><extensions><speed>0.083898</speed><course>-1.000000</course><hAcc>0.891098</hAcc><vAcc>0.722669</vAcc></extensions></trkpt>
      <trkpt lon="-4.140029" lat="53.000584"><ele>781.691101</ele><time>2021-07-17T11:18:41Z</time><extensions><speed>0.095135</speed><course>232.063629</course><hAcc>0.891075</hAcc><vAcc>0.722620</vAcc></extensions></trkpt>
      <trkpt lon="-4.140029" lat="53.000583"><ele>781.667419</ele><time>2021-07-17T11:18:42Z</time><extensions><speed>0.105883</speed><course>232.063614</course><hAcc>0.891052</hAcc><vAcc>0.722570</vAcc></extensions></trkpt>
      <trkpt lon="-4.140029" lat="53.000582"><ele>781.642700</ele><time>2021-07-17T11:18:43Z</time><extensions><speed>0.115554</speed><course>232.063614</course><hAcc>0.891028</hAcc><vAcc>0.722516</vAcc></extensions></trkpt>
      <trkpt lon="-4.140029" lat="53.000581"><ele>781.617310</ele><time>2021-07-17T11:18:44Z</time><extensions><speed>0.123434</speed><course>232.063599</course><hAcc>0.891001</hAcc><vAcc>0.722453</vAcc></extensions></trkpt>
      <trkpt lon="-4.140029" lat="53.000580"><ele>781.591858</ele><time>2021-07-17T11:18:45Z</time><extensions><speed>0.128688</speed><course>232.063599</course><hAcc>0.890971</hAcc><vAcc>0.722376</vAcc></extensions></trkpt>
      <trkpt lon="-4.140029" lat="53.000579"><ele>781.567200</ele><time>2021-07-17T11:18:46Z</time><extensions><speed>0.130380</speed><course>232.063583</course><hAcc>0.890936</hAcc><vAcc>0.722280</vAcc></extensions></trkpt>
      <trkpt lon="-4.140029" lat="53.000578"><ele>781.544189</ele><time>2021-07-17T11:18:47Z</time><extensions><speed>0.127528</speed><course>232.063583</course><hAcc>0.890898</hAcc><vAcc>0.722164</vAcc></extensions></trkpt>
      <trkpt lon="-4.140029" lat="53.000577"><ele>781.523743</ele><time>2021-07-17T11:18:48Z</time><extensions><speed>0.120397</speed><course>248.555511</course><hAcc>0.890854</hAcc><vAcc>0.722025</vAcc></extensions></trkpt>
      <trkpt lon="-4.140029" lat="53.000576"><ele>781.506592</ele><time>2021-07-17T11:18:49Z</time><extensions><speed>0.110730</speed><course>214.727661</course><hAcc>0.890806</hAcc><vAcc>0.721866</vAcc></extensions></trkpt>
      <trkpt lon="-4.140030" lat="53.000575"><ele>781.493042</ele><time>2021-07-17T11:18:50Z</time><extensions><speed>0.100657</speed><course>215.656113</course><hAcc>0.890754</hAcc><vAcc>0.721687</vAcc></extensions></trkpt>
      <trkpt lon="-4.140030" lat="53.000574"><ele>781.483215</ele><time>2021-07-17T11:18:51Z</time><extensions><speed>0.092712</speed><course>205.637772</course><hAcc>0.890697</hAcc><vAcc>0.721492</vAcc></extensions></trkpt>
      <trkpt lon="-4.140031" lat="53.000573"><ele>781.476807</ele><time>2021-07-17T11:18:52Z</time><extensions><speed>0.089561</speed><course>201.575424</course><hAcc>0.890638</hAcc><vAcc>0.721286</vAcc></extensions></trkpt>
      <trkpt lon="-4.140032" lat="53.000573"><ele>781.473328</ele><time>2021-07-17T11:18:53Z</time><extensions><speed>0.092890</speed><course>196.854248</course><hAcc>0.890576</hAcc><vAcc>0.721072</vAcc></extensions></trkpt>
      <trkpt lon="-4.140034" lat="53.000573"><ele>781.472351</ele><time>2021-07-17T11:18:54Z</time><extensions><speed>0.102314</speed><course>198.264053</course><hAcc>0.890513</hAcc><vAcc>0.720857</vAcc></extensions></trkpt>
      <trkpt lon="-4.140035" lat="53.000573"><ele>781.473022</ele><time>2021-07-17T11:18:55Z</time><extensions><speed>0.115717</speed><course>198.636932</course><hAcc>0.890449</hAcc><vAcc>0.720645</vAcc></extensions></trkpt>
      <trkpt lon="-4.140037" lat="53.000573"><ele>781.474609</ele><time>2021-07-17T11:18:56Z</time><extensions><speed>0.130510</speed><course>192.727798</course><hAcc>0.890384</hAcc><vAcc>0.720439</vAcc></extensions></trkpt>
      <trkpt lon="-4.140039" lat="53.000573"><ele>781.476440</ele><time>2021-07-17T11:18:57Z</time><extensions><speed>0.144712</speed><course>184.691818</course><hAcc>0.890321</hAcc><vAcc>0.720241</vAcc></extensions></trkpt>
      <trkpt lon="-4.140041" lat="53.000573"><ele>781.477661</ele><time>2021-07-17T11:18:58Z</time><extensions><speed>0.157466</speed><course>177.917740</course><hAcc>0.890260</hAcc><vAcc>0.720049</vAcc></extensions></trkpt>
      <trkpt lon="-4.140044" lat="53.000574"><ele>781.477234</ele><time>2021-07-17T11:18:59Z</time><extensions><speed>0.168308</speed><course>169.935883</course><hAcc>0.890200</hAcc><vAcc>0.719862</vAcc></extensions></trkpt>
      <trkpt lon="-4.140046" lat="53.000574"><ele>781.473999</ele><time>2021-07-17T11:19:00Z</time><extensions><speed>0.177011</speed><course>168.290512</course><hAcc>0.890144</hAcc><vAcc>0.719681</vAcc></extensions></trkpt>
      <trkpt lon="-4.140049" lat="53.000575"><ele>781.466736</ele><time>2021-07-17T11:19:01Z</time><extensions><speed>0.183858</speed><course>175.847488</course><hAcc>0.890092</hAcc><vAcc>0.719507</vAcc></extensions></trkpt>
      <trkpt lon="-4.140051" lat="53.000575"><ele>781.454346</ele><time>2021-07-17T11:19:02Z</time><extensions><speed>0.189530</speed><course>182.489380</course><hAcc>0.890043</hAcc><vAcc>0.719343</vAcc></extensions></trkpt>
      <trkpt lon="-4.140054" lat="53.000576"><ele>781.436279</ele><time>2021-07-17T11:19:03Z</time><extensions><speed>0.195021</speed><course>193.224472</course><hAcc>0.889999</hAcc><vAcc>0.719193</vAcc></extensions></trkpt>
      <trkpt lon="-4.140057" lat="53.000576"><ele>781.412048</ele><time>2021-07-17T11:19:04Z</time><extensions><speed>0.201222</speed><course>210.457108</course><hAcc>0.889960</hAcc><vAcc>0.719059</vAcc></extensions></trkpt>
      <trkpt lon="-4.140060" lat="53.000577"><ele>781.381592</ele><time>2021-07-17T11:19:05Z</time><extensions><speed>0.208618</speed><course>227.054108</course><hAcc>0.889925</hAcc><vAcc>0.718943</vAcc></extensions></trkpt>
      <trkpt lon="-4.140062" lat="53.000578"><ele>781.345154</ele><time>2021-07-17T11:19:06Z</time><extensions><speed>0.217236</speed><course>247.666534</course><hAcc>0.889896</hAcc><vAcc>0.718847</vAcc></extensions></trkpt>
      <trkpt lon="-4.140065" lat="53.000579"><ele>781.302979</ele><time>2021-07-17T11:19:07Z</time><extensions><speed>0.226855</speed><course>261.197876</course><hAcc>0.889873</hAcc><vAcc>0.718771</vAcc></extensions></trkpt>
      <trkpt lon="-4.140069" lat="53.000579"><ele>781.255615</ele><time>2021-07-17T11:19:08Z</time><extensions><speed>0.237364</speed><course>263.217255</course><hAcc>0.889854</hAcc><vAcc>0.718715</vAcc></extensions></trkpt>
      <trkpt lon="-4.140072" lat="53.000580"><ele>781.203308</ele><time>2021-07-17T11:19:09Z</time><extensions><speed>0.249022</speed><course>271.463165</course><hAcc>0.889839</hAcc><vAcc>0.718680</vAcc></extensions></trkpt>
      <trkpt lon="-4.140076" lat="53.000581"><ele>781.146179</ele><time>2021-07-17T11:19:10Z</time><extensions><speed>0.262035</speed><course>281.991608</course><hAcc>0.889829</hAcc><vAcc>0.718660</vAcc></extensions></trkpt>
      <trkpt lon="-4.140079" lat="53.000582"><ele>781.084229</ele><time>2021-07-17T11:19:11Z</time><extensions><speed>0.276076</speed><course>285.895782</course><hAcc>0.889821</hAcc><vAcc>0.718652</vAcc></extensions></trkpt>
      <trkpt lon="-4.140083" lat="53.000583"><ele>781.017639</ele><time>2021-07-17T11:19:12Z</time><extensions><speed>0.290308</speed><course>287.327179</course><hAcc>0.889814</hAcc><vAcc>0.718650</vAcc></extensions></trkpt>
      <trkpt lon="-4.140087" lat="53.000584"><ele>780.946594</ele><time>2021-07-17T11:19:13Z</time><extensions><speed>0.303598</speed><course>297.396240</course><hAcc>0.889809</hAcc><vAcc>0.718651</vAcc></extensions></trkpt>
      <trkpt lon="-4.140091" lat="53.000586"><ele>780.871582</ele><time>2021-07-17T11:19:14Z</time><extensions><speed>0.314725</speed><course>299.473175</course><hAcc>0.889803</hAcc><vAcc>0.718649</vAcc></extensions></trkpt>
      <trkpt lon="-4.140095" lat="53.000587"><ele>780.792908</ele><time>2021-07-17T11:19:15Z</time><extensions><speed>0.322712</speed><course>297.683289</course><hAcc>0.889796</hAcc><vAcc>0.718639</vAcc></extensions></trkpt>
      <trkpt lon="-4.140099" lat="53.000588"><ele>780.711182</ele><time>2021-07-17T11:19:16Z</time><extensions><speed>0.327493</speed><course>292.365356</course><hAcc>0.889787</hAcc><vAcc>0.718617</vAcc></extensions></trkpt>
      <trkpt lon="-4.140104" lat="53.000590"><ele>780.626953</ele><time>2021-07-17T11:19:17Z</time><extensions><speed>0.329891</speed><course>291.092651</course><hAcc>0.889777</hAcc><vAcc>0.718580</vAcc></extensions></trkpt>
      <trkpt lon="-4.140108" lat="53.000592"><ele>780.540710</ele><time>2021-07-17T11:19:18Z</time><extensions><speed>0.331318</speed><course>297.007721</course><hAcc>0.889764</hAcc><vAcc>0.718530</vAcc></extensions></trkpt>
      <trkpt lon="-4.140112" lat="53.000594"><ele>780.452393</ele><time>2021-07-17T11:19:19Z</time><extensions><speed>0.333712</speed><course>291.539093</course><hAcc>0.889748</hAcc><vAcc>0.718470</vAcc></extensions></trkpt>
      <trkpt lon="-4.140116" lat="53.000595"><ele>780.361816</ele><time>2021-07-17T11:19:20Z</time><extensions><speed>0.339309</speed><course>293.314819</course><hAcc>0.889731</hAcc><vAcc>0.718402</vAcc></extensions></trkpt>
      <trkpt lon="-4.140119" lat="53.000597"><ele>780.268799</ele><time>2021-07-17T11:19:21Z</time><extensions><speed>0.349946</speed><course>297.043213</course><hAcc>0.889711</hAcc><vAcc>0.718331</vAcc></extensions></trkpt>
      <trkpt lon="-4.140123" lat="53.000600"><ele>780.173157</ele><time>2021-07-17T11:19:22Z</time><extensions><speed>0.366303</speed><course>301.573547</course><hAcc>0.889691</hAcc><vAcc>0.718261</vAcc></extensions></trkpt>
      <trkpt lon="-4.140127" lat="53.000602"><ele>780.074890</ele><time>2021-07-17T11:19:23Z</time><extensions><speed>0.388123</speed><course>305.542847</course><hAcc>0.889669</hAcc><vAcc>0.718192</vAcc></extensions></trkpt>
      <trkpt lon="-4.140131" lat="53.000605"><ele>779.973938</ele><time>2021-07-17T11:19:24Z</time><extensions><speed>0.414978</speed><course>304.461029</course><hAcc>0.889648</hAcc><vAcc>0.718124</vAcc></extensions></trkpt>
      <trkpt lon="-4.140136" lat="53.000607"><ele>779.870117</ele><time>2021-07-17T11:19:25Z</time><extensions><speed>0.446016</speed><course>304.519958</course><hAcc>0.889627</hAcc><vAcc>0.718057</vAcc></extensions></trkpt>
      <trkpt lon="-4.140141" lat="53.000610"><ele>779.763489</ele><time>2021-07-17T11:19:26Z</time><extensions><speed>0.479283</speed><course>306.835541</course><hAcc>0.889608</hAcc><vAcc>0.717990</vAcc></extensions></trkpt>
      <trkpt lon="-4.140146" lat="53.000614"><ele>779.653931</ele><time>2021-07-17T11:19:27Z</time><extensions><speed>0.512200</speed><course>312.924469</course><hAcc>0.889591</hAcc><vAcc>0.717926</vAcc></extensions></trkpt>
      <trkpt lon="-4.140151" lat="53.000617"><ele>779.541565</ele><time>2021-07-17T11:19:28Z</time><extensions><speed>0.542074</speed><course>313.121582</course><hAcc>0.889575</hAcc><vAcc>0.717867</vAcc></extensions></trkpt>
      <trkpt lon="-4.140157" lat="53.000621"><ele>779.426941</ele><time>2021-07-17T11:19:29Z</time><extensions><speed>0.566611</speed><course>312.363678</course><hAcc>0.889562</hAcc><vAcc>0.717815</vAcc></extensions></trkpt>
      <trkpt lon="-4.140163" lat="53.000624"><ele>779.310913</ele><time>2021-07-17T11:19:30Z</time><extensions><speed>0.584289</speed><course>309.905548</course><hAcc>0.889550</hAcc><vAcc>0.717773</vAcc></extensions></trkpt>
      <trkpt lon="-4.140169" lat="53.000628"><ele>779.194519</ele><time>2021-07-17T11:19:31Z</time><extensions><speed>0.594045</speed><course>308.597687</course><hAcc>0.889538</hAcc><vAcc>0.717742</vAcc></extensions></trkpt>
      <trkpt lon="-4.140175" lat="53.000632"><ele>779.079407</ele><time>2021-07-17T11:19:32Z</time><extensions><speed>0.595084</speed><course>307.103394</course><hAcc>0.889526</hAcc><vAcc>0.717719</vAcc></extensions></trkpt>
      <trkpt lon="-4.140182" lat="53.000636"><ele>778.967407</ele><time>2021-07-17T11:19:33Z</time><extensions><speed>0.587290</speed><course>306.897400</course><hAcc>0.889512</hAcc><vAcc>0.717701</vAcc></extensions></trkpt>
      <trkpt lon="-4.140187" lat="53.000639"><ele>778.859985</ele><time>2021-07-17T11:19:34Z</time><extensions><speed>0.570821</speed><course>302.152618</course><hAcc>0.889495</hAcc><vAcc>0.717682</vAcc></extensions></trkpt>
      <trkpt lon="-4.140193" lat="53.000643"><ele>778.758484</ele><time>2021-07-17T11:19:35Z</time><extensions><speed>0.546060</speed><course>297.726410</course><hAcc>0.889473</hAcc><vAcc>0.717652</vAcc></extensions></trkpt>
      <trkpt lon="-4.140198" lat="53.000647"><ele>778.664185</ele><time>2021-07-17T11:19:36Z</time><extensions><speed>0.513970</speed><course>300.194183</course><hAcc>0.889444</hAcc><vAcc>0.717600</vAcc></extensions></trkpt>
      <trkpt lon="-4.140203" lat="53.000650"><ele>778.578491</ele><time>2021-07-17T11:19:37Z</time><extensions><speed>0.475726</speed><course>297.151825</course><hAcc>0.889408</hAcc><vAcc>0.717513</vAcc></extensions></trkpt>
      <trkpt lon="-4.140207" lat="53.000653"><ele>778.502869</ele><time>2021-07-17T11:19:38Z</time><extensions><speed>0.433188</speed><course>298.399384</course><hAcc>0.889365</hAcc><vAcc>0.717383</vAcc></extensions></trkpt>
      <trkpt lon="-4.140211" lat="53.000656"><ele>778.438843</ele><time>2021-07-17T11:19:39Z</time><extensions><speed>0.388762</speed><course>300.837921</course><hAcc>0.889314</hAcc><vAcc>0.717208</vAcc></extensions></trkpt>
      <trkpt lon="-4.140214" lat="53.000659"><ele>778.387146</ele><time>2021-07-17T11:19:40Z</time><extensions><speed>0.344835</speed><course>299.844330</course><hAcc>0.889256</hAcc><vAcc>0.716993</vAcc></extensions></trkpt>
      <trkpt lon="-4.140216" lat="53.000662"><ele>778.347412</ele><time>2021-07-17T11:19:41Z</time><extensions><speed>0.303162</speed><course>300.001373</course><hAcc>0.889192</hAcc><vAcc>0.716750</vAcc></extensions></trkpt>
      <trkpt lon="-4.140218" lat="53.000664"><ele>778.318481</ele><time>2021-07-17T11:19:42Z</time><extensions><speed>0.264566</speed><course>294.568817</course><hAcc>0.889124</hAcc><vAcc>0.716491</vAcc></extensions></trkpt>
      <trkpt lon="-4.140220" lat="53.000666"><ele>778.298523</ele><time>2021-07-17T11:19:43Z</time><extensions><speed>0.229399</speed><course>300.687103</course><hAcc>0.889053</hAcc><vAcc>0.716229</vAcc></extensions></trkpt>
      <trkpt lon="-4.140221" lat="53.000668"><ele>778.285522</ele><time>2021-07-17T11:19:44Z</time><extensions><speed>0.197851</speed><course>297.691925</course><hAcc>0.888983</hAcc><vAcc>0.715976</vAcc></extensions></trkpt>
      <trkpt lon="-4.140222" lat="53.000669"><ele>778.277466</ele><time>2021-07-17T11:19:45Z</time><extensions><speed>0.170073</speed><course>293.928223</course><hAcc>0.888916</hAcc><vAcc>0.715740</vAcc></extensions></trkpt>
      <trkpt lon="-4.140223" lat="53.000670"><ele>778.272217</ele><time>2021-07-17T11:19:46Z</time><extensions><speed>0.146260</speed><course>297.041656</course><hAcc>0.888855</hAcc><vAcc>0.715528</vAcc></extensions></trkpt>
      <trkpt lon="-4.140224" lat="53.000672"><ele>778.267944</ele><time>2021-07-17T11:19:47Z</time><extensions><speed>0.126779</speed><course>298.722290</course><hAcc>0.888802</hAcc><vAcc>0.715346</vAcc></extensions></trkpt>
      <trkpt lon="-4.140224" lat="53.000673"><ele>778.263062</ele><time>2021-07-17T11:19:48Z</time><extensions><speed>0.112235</speed><course>296.674316</course><hAcc>0.888759</hAcc><vAcc>0.715198</vAcc></extensions></trkpt>
      <trkpt lon="-4.140225" lat="53.000674"><ele>778.256287</ele><time>2021-07-17T11:19:49Z</time><extensions><speed>0.103704</speed><course>301.147156</course><hAcc>0.888729</hAcc><vAcc>0.715088</vAcc></extensions></trkpt>
      <trkpt lon="-4.140226" lat="53.000674"><ele>778.246216</ele><time>2021-07-17T11:19:50Z</time><extensions><speed>0.102833</speed><course>301.618805</course><hAcc>0.888713</hAcc><vAcc>0.715023</vAcc></extensions></trkpt>
      <trkpt lon="-4.140227" lat="53.000675"><ele>778.231201</ele><time>2021-07-17T11:19:51Z</time><extensions><speed>0.111254</speed><course>300.678009</course><hAcc>0.888710</hAcc><vAcc>0.715005</vAcc></extensions></trkpt>
      <trkpt lon="-4.140228" lat="53.000676"><ele>778.209412</ele><time>2021-07-17T11:19:52Z</time><extensions><speed>0.129610</speed><course>306.078644</course><hAcc>0.888723</hAcc><vAcc>0.715038</vAcc></extensions></trkpt>
      <trkpt lon="-4.140230" lat="53.000677"><ele>778.179077</ele><time>2021-07-17T11:19:53Z</time><extensions><speed>0.157256</speed><course>302.099213</course><hAcc>0.888749</hAcc><vAcc>0.715124</vAcc></extensions></trkpt>
      <trkpt lon="-4.140232" lat="53.000677"><ele>778.138489</ele><time>2021-07-17T11:19:54Z</time><extensions><speed>0.192993</speed><course>298.253754</course><hAcc>0.888787</hAcc><vAcc>0.715261</vAcc></extensions></trkpt>
      <trkpt lon="-4.140235" lat="53.000678"><ele>778.085938</ele><time>2021-07-17T11:19:55Z</time><extensions><speed>0.235445</speed><course>299.772583</course><hAcc>0.888835</hAcc><vAcc>0.715444</vAcc></extensions></trkpt>
      <trkpt lon="-4.140238" lat="53.000679"><ele>778.019897</ele><time>2021-07-17T11:19:56Z</time><extensions><speed>0.282800</speed><course>299.946075</course><hAcc>0.888890</hAcc><vAcc>0.715662</vAcc></extensions></trkpt>
      <trkpt lon="-4.140242" lat="53.000681"><ele>777.939087</ele><time>2021-07-17T11:19:57Z</time><extensions><speed>0.333261</speed><course>303.968170</course><hAcc>0.888949</hAcc><vAcc>0.715901</vAcc></extensions></trkpt>
      <trkpt lon="-4.140247" lat="53.000682"><ele>777.842529</ele><time>2021-07-17T11:19:58Z</time><extensions><speed>0.385073</speed><course>302.223755</course><hAcc>0.889008</hAcc><vAcc>0.716144</vAcc></extensions></trkpt>
      <trkpt lon="-4.140252" lat="53.000684"><ele>777.729736</ele><time>2021-07-17T11:19:59Z</time><extensions><speed>0.436041</speed><course>303.590851</course><hAcc>0.889062</hAcc><vAcc>0.716376</vAcc></extensions></trkpt>
      <trkpt lon="-4.140258" lat="53.000686"><ele>777.600708</ele><time>2021-07-17T11:20:00Z</time><extensions><speed>0.483771</speed><course>302.656281</course><hAcc>0.889108</hAcc><vAcc>0.716580</vAcc></extensions></trkpt>
      <trkpt lon="-4.140265" lat="53.000688"><ele>777.456543</ele><time>2021-07-17T11:20:01Z</time><extensions><speed>0.526567</speed><course>307.857574</course><hAcc>0.889142</hAcc><vAcc>0.716739</vAcc></extensions></trkpt>
      <trkpt lon="-4.140272" lat="53.000690"><ele>777.298340</ele><time>2021-07-17T11:20:02Z</time><extensions><speed>0.563478</speed><course>306.241272</course><hAcc>0.889162</hAcc><vAcc>0.716838</vAcc></extensions></trkpt>
      <trkpt lon="-4.140280" lat="53.000692"><ele>777.127197</ele><time>2021-07-17T11:20:03Z</time><extensions><speed>0.594297</speed><course>302.560516</course><hAcc>0.889165</hAcc><vAcc>0.716867</vAcc></extensions></trkpt>
      <trkpt lon="-4.140288" lat="53.000695"><ele>776.944031</ele><time>2021-07-17T11:20:04Z</time><extensions><speed>0.619893</speed><course>304.207947</course><hAcc>0.889150</hAcc><vAcc>0.716820</vAcc></extensions></trkpt>
      <trkpt lon="-4.140296" lat="53.000698"><ele>776.750000</ele><time>2021-07-17T11:20:05Z</time><extensions><speed>0.640843</speed><course>304.678192</course><hAcc>0.889117</hAcc><vAcc>0.716700</vAcc></extensions></trkpt>
      <trkpt lon="-4.140304" lat="53.000701"><ele>776.546448</ele><time>2021-07-17T11:20:06Z</time><extensions><speed>0.657332</speed><course>300.816559</course><hAcc>0.889068</hAcc><vAcc>0.716512</vAcc></extensions></trkpt>
      <trkpt lon="-4.140313" lat="53.000704"><ele>776.335144</ele><time>2021-07-17T11:20:07Z</time><extensions><speed>0.670202</speed><course>302.457642</course><hAcc>0.889004</hAcc><vAcc>0.716269</vAcc></extensions></trkpt>
      <trkpt lon="-4.140322" lat="53.000707"><ele>776.117981</ele><time>2021-07-17T11:20:08Z</time><extensions><speed>0.680295</speed><course>303.405792</course><hAcc>0.888928</hAcc><vAcc>0.715986</vAcc></extensions></trkpt>
      <trkpt lon="-4.140330" lat="53.000710"><ele>775.896667</ele><time>2021-07-17T11:20:09Z</time><extensions><speed>0.687933</speed><course>305.179382</course><hAcc>0.888843</hAcc><vAcc>0.715678</vAcc></extensions></trkpt>
      <trkpt lon="-4.140339" lat="53.000714"><ele>775.672363</ele><time>2021-07-17T11:20:10Z</time><extensions><speed>0.693664</speed><course>301.811188</course><hAcc>0.888753</hAcc><vAcc>0.715364</vAcc></extensions></trkpt>
      <trkpt lon="-4.140347" lat="53.000717"><ele>775.445435</ele><time>2021-07-17T11:20:10Z</time><extensions><speed>0.698226</speed><course>294.111877</course><hAcc>0.888679</hAcc><vAcc>0.715074</vAcc></extensions></trkpt>
      <trkpt lon="-4.140356" lat="53.000721"><ele>775.215698</ele><time>2021-07-17T11:20:11Z</time><extensions><speed>0.702042</speed><course>291.186249</course><hAcc>0.888626</hAcc><vAcc>0.714820</vAcc></extensions></trkpt>
      <trkpt lon="-4.140365" lat="53.000724"><ele>774.984009</ele><time>2021-07-17T11:20:12Z</time><extensions><speed>0.704899</speed><course>291.833313</course><hAcc>0.888579</hAcc><vAcc>0.714604</vAcc></extensions></trkpt>
      <trkpt lon="-4.140373" lat="53.000728"><ele>774.751892</ele><time>2021-07-17T11:20:13Z</time><extensions><speed>0.706449</speed><course>293.198639</course><hAcc>0.888543</hAcc><vAcc>0.714432</vAcc></extensions></trkpt>
      <trkpt lon="-4.140382" lat="53.000732"><ele>774.521301</ele><time>2021-07-17T11:20:14Z</time><extensions><speed>0.706394</speed><course>297.953094</course><hAcc>0.888522</hAcc><vAcc>0.714311</vAcc></extensions></trkpt>
      <trkpt lon="-4.140390" lat="53.000735"><ele>774.293945</ele><time>2021-07-17T11:20:16Z</time><extensions><speed>0.704467</speed><course>294.998413</course><hAcc>0.888498</hAcc><vAcc>0.714229</vAcc></extensions></trkpt>
      <trkpt lon="-4.140399" lat="53.000739"><ele>774.072205</ele><time>2021-07-17T11:20:17Z</time><extensions><speed>0.700721</speed><course>290.333923</course><hAcc>0.888473</hAcc><vAcc>0.714189</vAcc></extensions></trkpt>
      <trkpt lon="-4.140407" lat="53.000742"><ele>773.856812</ele><time>2021-07-17T11:20:18Z</time><extensions><speed>0.695178</speed><course>297.336884</course><hAcc>0.888464</hAcc><vAcc>0.714199</vAcc></extensions></trkpt>
      <trkpt lon="-4.140416" lat="53.000746"><ele>773.648132</ele><time>2021-07-17T11:20:19Z</time><extensions><speed>0.688132</speed><course>291.763641</course><hAcc>0.888468</hAcc><vAcc>0.714253</vAcc></extensions></trkpt>
      <trkpt lon="-4.140424" lat="53.000750"><ele>773.446045</ele><time>2021-07-17T11:20:20Z</time><extensions><speed>0.680089</speed><course>293.588959</course><hAcc>0.888482</hAcc><vAcc>0.714342</vAcc></extensions></trkpt>
      <trkpt lon="-4.140432" lat="53.000753"><ele>773.250061</ele><time>2021-07-17T11:20:21Z</time><extensions><speed>0.671578</speed><course>298.534668</course><hAcc>0.888505</hAcc><vAcc>0.714456</vAcc></extensions></trkpt>
      <trkpt lon="-4.140440" lat="53.000757"><ele>773.059509</ele><time>2021-07-17T11:20:22Z</time><extensions><speed>0.662943</speed><course>294.834351</course><hAcc>0.888533</hAcc><vAcc>0.714582</vAcc></extensions></trkpt>
      <trkpt lon="-4.140448" lat="53.000760"><ele>772.873474</ele><time>2021-07-17T11:20:23Z</time><extensions><speed>0.654448</speed><course>297.698059</course><hAcc>0.888562</hAcc><vAcc>0.714712</vAcc></extensions></trkpt>
      <trkpt lon="-4.140456" lat="53.000764"><ele>772.690552</ele><time>2021-07-17T11:20:24Z</time><extensions><speed>0.646762</speed><course>298.511444</course><hAcc>0.888591</hAcc><vAcc>0.714836</vAcc></extensions></trkpt>
      <trkpt lon="-4.140463" lat="53.000768"><ele>772.508667</ele><time>2021-07-17T11:20:25Z</time><extensions><speed>0.640661</speed><course>303.054443</course><hAcc>0.888615</hAcc><vAcc>0.714943</vAcc></extensions></trkpt>
      <trkpt lon="-4.140470" lat="53.000772"><ele>772.326233</ele><time>2021-07-17T11:20:26Z</time><extensions><speed>0.636808</speed><course>300.594757</course><hAcc>0.888634</hAcc><vAcc>0.715027</vAcc></extensions></trkpt>
      <trkpt lon="-4.140477" lat="53.000775"><ele>772.141785</ele><time>2021-07-17T11:20:27Z</time><extensions><speed>0.635466</speed><course>303.489990</course><hAcc>0.888645</hAcc><vAcc>0.715079</vAcc></extensions></trkpt>
      <trkpt lon="-4.140484" lat="53.000779"><ele>771.954346</ele><time>2021-07-17T11:20:28Z</time><extensions><speed>0.636328</speed><course>307.296783</course><hAcc>0.888647</hAcc><vAcc>0.715092</vAcc></extensions></trkpt>
      <trkpt lon="-4.140490" lat="53.000784"><ele>771.763245</ele><time>2021-07-17T11:20:29Z</time><extensions><speed>0.638787</speed><course>306.846466</course><hAcc>0.888640</hAcc><vAcc>0.715066</vAcc></extensions></trkpt>
      <trkpt lon="-4.140497" lat="53.000788"><ele>771.568115</ele><time>2021-07-17T11:20:30Z</time><extensions><speed>0.642302</speed><course>314.303711</course><hAcc>0.888623</hAcc><vAcc>0.715000</vAcc></extensions></trkpt>
      <trkpt lon="-4.140503" lat="53.000792"><ele>771.368591</ele><time>2021-07-17T11:20:31Z</time><extensions><speed>0.646476</speed><course>316.753265</course><hAcc>0.888597</hAcc><vAcc>0.714897</vAcc></extensions></trkpt>
      <trkpt lon="-4.140510" lat="53.000796"><ele>771.164551</ele><time>2021-07-17T11:20:32Z</time><extensions><speed>0.651084</speed><course>312.101562</course><hAcc>0.888562</hAcc><vAcc>0.714762</vAcc></extensions></trkpt>
      <trkpt lon="-4.140517" lat="53.000801"><ele>770.956360</ele><time>2021-07-17T11:20:33Z</time><extensions><speed>0.655997</speed><course>310.983948</course><hAcc>0.888519</hAcc><vAcc>0.714604</vAcc></extensions></trkpt>
      <trkpt lon="-4.140523" lat="53.000805"><ele>770.744690</ele><time>2021-07-17T11:20:34Z</time><extensions><speed>0.661079</speed><course>316.824890</course><hAcc>0.888469</hAcc><vAcc>0.714427</vAcc></extensions></trkpt>
      <trkpt lon="-4.140530" lat="53.000809"><ele>770.530396</ele><time>2021-07-17T11:20:35Z</time><extensions><speed>0.666449</speed><course>324.005005</course><hAcc>0.888412</hAcc><vAcc>0.714235</vAcc></extensions></trkpt>
      <trkpt lon="-4.140537" lat="53.000814"><ele>770.314331</ele><time>2021-07-17T11:20:36Z</time><extensions><speed>0.672487</speed><course>322.091736</course><hAcc>0.888348</hAcc><vAcc>0.714032</vAcc></extensions></trkpt>
      <trkpt lon="-4.140544" lat="53.000818"><ele>770.096558</ele><time>2021-07-17T11:20:37Z</time><extensions><speed>0.679433</speed><course>322.830170</course><hAcc>0.888276</hAcc><vAcc>0.713816</vAcc></extensions></trkpt>
      <trkpt lon="-4.140552" lat="53.000822"><ele>769.876709</ele><time>2021-07-17T11:20:38Z</time><extensions><speed>0.687249</speed><course>325.823517</course><hAcc>0.888196</hAcc><vAcc>0.713584</vAcc></extensions></trkpt>
      <trkpt lon="-4.140559" lat="53.000826"><ele>769.654236</ele><time>2021-07-17T11:20:39Z</time><extensions><speed>0.695636</speed><course>331.853210</course><hAcc>0.888107</hAcc><vAcc>0.713333</vAcc></extensions></trkpt>
      <trkpt lon="-4.140567" lat="53.000830"><ele>769.428589</ele><time>2021-07-17T11:20:40Z</time><extensions><speed>0.704055</speed><course>331.260956</course><hAcc>0.888008</hAcc><vAcc>0.713053</vAcc></extensions></trkpt>
      <trkpt lon="-4.140575" lat="53.000835"><ele>769.199097</ele><time>2021-07-17T11:20:41Z</time><extensions><speed>0.712215</speed><course>329.072571</course><hAcc>0.887896</hAcc><vAcc>0.712738</vAcc></extensions></trkpt>
      <trkpt lon="-4.140583" lat="53.000839"><ele>768.965027</ele><time>2021-07-17T11:20:42Z</time><extensions><speed>0.720164</speed><course>325.473938</course><hAcc>0.887770</hAcc><vAcc>0.712376</vAcc></extensions></trkpt>
      <trkpt lon="-4.140591" lat="53.000843"><ele>768.725708</ele><time>2021-07-17T11:20:43Z</time><extensions><speed>0.728017</speed><course>325.383026</course><hAcc>0.887632</hAcc><vAcc>0.711961</vAcc></extensions></trkpt>
      <trkpt lon="-4.140599" lat="53.000847"><ele>768.480347</ele><time>2021-07-17T11:20:44Z</time><extensions><speed>0.735859</speed><course>325.061401</course><hAcc>0.887481</hAcc><vAcc>0.711488</vAcc></extensions></trkpt>
      <trkpt lon="-4.140608" lat="53.000852"><ele>768.228516</ele><time>2021-07-17T11:20:45Z</time><extensions><speed>0.743757</speed><course>325.207275</course><hAcc>0.887320</hAcc><vAcc>0.710957</vAcc></extensions></trkpt>
      <trkpt lon="-4.140616" lat="53.000856"><ele>767.969910</ele><time>2021-07-17T11:20:46Z</time><extensions><speed>0.752065</speed><course>322.410889</course><hAcc>0.887152</hAcc><vAcc>0.710375</vAcc></extensions></trkpt>
      <trkpt lon="-4.140625" lat="53.000861"><ele>767.704712</ele><time>2021-07-17T11:20:47Z</time><extensions><speed>0.760930</speed><course>319.218658</course><hAcc>0.886980</hAcc><vAcc>0.709759</vAcc></extensions></trkpt>
      <trkpt lon="-4.140633" lat="53.000865"><ele>767.433533</ele><time>2021-07-17T11:20:48Z</time><extensions><speed>0.769813</speed><course>319.790588</course><hAcc>0.886809</hAcc><vAcc>0.709133</vAcc></extensions></trkpt>
      <trkpt lon="-4.140642" lat="53.000870"><ele>767.157166</ele><time>2021-07-17T11:20:49Z</time><extensions><speed>0.777814</speed><course>318.972229</course><hAcc>0.886645</hAcc><vAcc>0.708530</vAcc></extensions></trkpt>
      <trkpt lon="-4.140650" lat="53.000875"><ele>766.876465</ele><time>2021-07-17T11:20:50Z</time><extensions><speed>0.784240</speed><course>320.354065</course><hAcc>0.886493</hAcc><vAcc>0.707977</vAcc></extensions></trkpt>
      <trkpt lon="-4.140659" lat="53.000879"><ele>766.592407</ele><time>2021-07-17T11:20:51Z</time><extensions><speed>0.788639</speed><course>320.541016</course><hAcc>0.886356</hAcc><vAcc>0.707500</vAcc></extensions></trkpt>
      <trkpt lon="-4.140668" lat="53.000884"><ele>766.306458</ele><time>2021-07-17T11:20:52Z</time><extensions><speed>0.790641</speed><course>317.906189</course><hAcc>0.886237</hAcc><vAcc>0.707116</vAcc></extensions></trkpt>
      <trkpt lon="-4.140676" lat="53.000889"><ele>766.020386</ele><time>2021-07-17T11:20:53Z</time><extensions><speed>0.790081</speed><course>316.077393</course><hAcc>0.886139</hAcc><vAcc>0.706827</vAcc></extensions></trkpt>
      <trkpt lon="-4.140685" lat="53.000894"><ele>765.735962</ele><time>2021-07-17T11:20:54Z</time><extensions><speed>0.786639</speed><course>307.356537</course><hAcc>0.886062</hAcc><vAcc>0.706624</vAcc></extensions></trkpt>
      <trkpt lon="-4.140693" lat="53.000899"><ele>765.453979</ele><time>2021-07-17T11:20:55Z</time><extensions><speed>0.779976</speed><course>302.004150</course><hAcc>0.886006</hAcc><vAcc>0.706489</vAcc></extensions></trkpt>
      <trkpt lon="-4.140702" lat="53.000903"><ele>765.174377</ele><time>2021-07-17T11:20:56Z</time><extensions><speed>0.770299</speed><course>310.520874</course><hAcc>0.885968</hAcc><vAcc>0.706405</vAcc></extensions></trkpt>
      <trkpt lon="-4.140710" lat="53.000908"><ele>764.896179</ele><time>2021-07-17T11:20:57Z</time><extensions><speed>0.758168</speed><course>307.778412</course><hAcc>0.885947</hAcc><vAcc>0.706361</vAcc></extensions></trkpt>
      <trkpt lon="-4.140718" lat="53.000913"><ele>764.618713</ele><time>2021-07-17T11:20:58Z</time><extensions><speed>0.744277</speed><course>310.132080</course><hAcc>0.885941</hAcc><vAcc>0.706350</vAcc></extensions></trkpt>
      <trkpt lon="-4.140726" lat="53.000917"><ele>764.341614</ele><time>2021-07-17T11:20:59Z</time><extensions><speed>0.729069</speed><course>310.327301</course><hAcc>0.885949</hAcc><vAcc>0.706371</vAcc></extensions></trkpt>
      <trkpt lon="-4.140734" lat="53.000922"><ele>764.065857</ele><time>2021-07-17T11:21:00Z</time><extensions><speed>0.712741</speed><course>308.925873</course><hAcc>0.885968</hAcc><vAcc>0.706427</vAcc></extensions></trkpt>
      <trkpt lon="-4.140742" lat="53.000926"><ele>763.793213</ele><time>2021-07-17T11:21:01Z</time><extensions><speed>0.695284</speed><course>308.955322</course><hAcc>0.885999</hAcc><vAcc>0.706521</vAcc></extensions></trkpt>
      <trkpt lon="-4.140749" lat="53.000930"><ele>763.526123</ele><time>2021-07-17T11:21:02Z</time><extensions><speed>0.676159</speed><course>303.152588</course><hAcc>0.886039</hAcc><vAcc>0.706651</vAcc></extensions></trkpt>
      <trkpt lon="-4.140756" lat="53.000934"><ele>763.266968</ele><time>2021-07-17T11:21:03Z</time><extensions><speed>0.654669</speed><course>313.156525</course><hAcc>0.886088</hAcc><vAcc>0.706813</vAcc></extensions></trkpt>
      <trkpt lon="-4.140763" lat="53.000938"><ele>763.018066</ele><time>2021-07-17T11:21:04Z</time><extensions><speed>0.630255</speed><course>307.864197</course><hAcc>0.886144</hAcc><vAcc>0.707002</vAcc></extensions></trkpt>
      <trkpt lon="-4.140770" lat="53.000942"><ele>762.781250</ele><time>2021-07-17T11:21:05Z</time><extensions><speed>0.602417</speed><course>309.541687</course><hAcc>0.886208</hAcc><vAcc>0.707214</vAcc></extensions></trkpt>
      <trkpt lon="-4.140776" lat="53.000946"><ele>762.558105</ele><time>2021-07-17T11:21:06Z</time><extensions><speed>0.570912</speed><course>312.130341</course><hAcc>0.886279</hAcc><vAcc>0.707444</vAcc></extensions></trkpt>
      <trkpt lon="-4.140782" lat="53.000949"><ele>762.350098</ele><time>2021-07-17T11:21:07Z</time><extensions><speed>0.536302</speed><course>310.268982</course><hAcc>0.886355</hAcc><vAcc>0.707691</vAcc></extensions></trkpt>
      <trkpt lon="-4.140787" lat="53.000953"><ele>762.158264</ele><time>2021-07-17T11:21:08Z</time><extensions><speed>0.499487</speed><course>308.247070</course><hAcc>0.886437</hAcc><vAcc>0.707956</vAcc></extensions></trkpt>
      <trkpt lon="-4.140792" lat="53.000956"><ele>761.983459</ele><time>2021-07-17T11:21:09Z</time><extensions><speed>0.461312</speed><course>304.229858</course><hAcc>0.886525</hAcc><vAcc>0.708239</vAcc></extensions></trkpt>
      <trkpt lon="-4.140797" lat="53.000959"><ele>761.825928</ele><time>2021-07-17T11:21:10Z</time><extensions><speed>0.422602</speed><course>308.310059</course><hAcc>0.886619</hAcc><vAcc>0.708538</vAcc></extensions></trkpt>
      <trkpt lon="-4.140801" lat="53.000961"><ele>761.685425</ele><time>2021-07-17T11:21:11Z</time><extensions><speed>0.384129</speed><course>311.142822</course><hAcc>0.886720</hAcc><vAcc>0.708851</vAcc></extensions></trkpt>
      <trkpt lon="-4.140805" lat="53.000964"><ele>761.561279</ele><time>2021-07-17T11:21:12Z</time><extensions><speed>0.347184</speed><course>305.518036</course><hAcc>0.886829</hAcc><vAcc>0.709178</vAcc></extensions></trkpt>
      <trkpt lon="-4.140808" lat="53.000966"><ele>761.451843</ele><time>2021-07-17T11:21:13Z</time><extensions><speed>0.313757</speed><course>303.061462</course><hAcc>0.886947</hAcc><vAcc>0.709524</vAcc></extensions></trkpt>
      <trkpt lon="-4.140811" lat="53.000968"><ele>761.354675</ele><time>2021-07-17T11:21:14Z</time><extensions><speed>0.285924</speed><course>298.232086</course><hAcc>0.887075</hAcc><vAcc>0.709895</vAcc></extensions></trkpt>
      <trkpt lon="-4.140813" lat="53.000970"><ele>761.267090</ele><time>2021-07-17T11:21:15Z</time><extensions><speed>0.265310</speed><course>289.358276</course><hAcc>0.887213</hAcc><vAcc>0.710301</vAcc></extensions></trkpt>
      <trkpt lon="-4.140816" lat="53.000972"><ele>761.185852</ele><time>2021-07-17T11:21:16Z</time><extensions><speed>0.253098</speed><course>285.924469</course><hAcc>0.887360</hAcc><vAcc>0.710752</vAcc></extensions></trkpt>
      <trkpt lon="-4.140818" lat="53.000974"><ele>761.107666</ele><time>2021-07-17T11:21:17Z</time><extensions><speed>0.249999</speed><course>280.520447</course><hAcc>0.887517</hAcc><vAcc>0.711253</vAcc></extensions></trkpt>
      <trkpt lon="-4.140820" lat="53.000975"><ele>761.029053</ele><time>2021-07-17T11:21:18Z</time><extensions><speed>0.256220</speed><course>286.862061</course><hAcc>0.887679</hAcc><vAcc>0.711802</vAcc></extensions></trkpt>
      <trkpt lon="-4.140822" lat="53.000977"><ele>760.946594</ele><time>2021-07-17T11:21:19Z</time><extensions><speed>0.271596</speed><course>295.700317</course><hAcc>0.887844</hAcc><vAcc>0.712393</vAcc></extensions></trkpt>
      <trkpt lon="-4.140825" lat="53.000979"><ele>760.857117</ele><time>2021-07-17T11:21:20Z</time><extensions><speed>0.295521</speed><course>296.161560</course><hAcc>0.888008</hAcc><vAcc>0.713007</vAcc></extensions></trkpt>
      <trkpt lon="-4.140828" lat="53.000982"><ele>760.757812</ele><time>2021-07-17T11:21:21Z</time><extensions><speed>0.326882</speed><course>298.229218</course><hAcc>0.888164</hAcc><vAcc>0.713614</vAcc></extensions></trkpt>
      <trkpt lon="-4.140831" lat="53.000984"><ele>760.646545</ele><time>2021-07-17T11:21:22Z</time><extensions><speed>0.364028</speed><course>297.545471</course><hAcc>0.888309</hAcc><vAcc>0.714178</vAcc></extensions></trkpt>
      <trkpt lon="-4.140835" lat="53.000987"><ele>760.521973</ele><time>2021-07-17T11:21:23Z</time><extensions><speed>0.404664</speed><course>292.454163</course><hAcc>0.888436</hAcc><vAcc>0.714662</vAcc></extensions></trkpt>
      <trkpt lon="-4.140839" lat="53.000990"><ele>760.383545</ele><time>2021-07-17T11:21:24Z</time><extensions><speed>0.446524</speed><course>287.195465</course><hAcc>0.888542</hAcc><vAcc>0.715042</vAcc></extensions></trkpt>
      <trkpt lon="-4.140843" lat="53.000993"><ele>760.231201</ele><time>2021-07-17T11:21:25Z</time><extensions><speed>0.488048</speed><course>283.339600</course><hAcc>0.888623</hAcc><vAcc>0.715305</vAcc></extensions></trkpt>
      <trkpt lon="-4.140848" lat="53.000996"><ele>760.064819</ele><time>2021-07-17T11:21:26Z</time><extensions><speed>0.528139</speed><course>283.687531</course><hAcc>0.888678</hAcc><vAcc>0.715448</vAcc></extensions></trkpt>
      <trkpt lon="-4.140853" lat="53.001000"><ele>759.883789</ele><time>2021-07-17T11:21:27Z</time><extensions><speed>0.566117</speed><course>284.089417</course><hAcc>0.888705</hAcc><vAcc>0.715477</vAcc></extensions></trkpt>
      <trkpt lon="-4.140859" lat="53.001004"><ele>759.686951</ele><time>2021-07-17T11:21:28Z</time><extensions><speed>0.601334</speed><course>286.432800</course><hAcc>0.888707</hAcc><vAcc>0.715408</vAcc></extensions></trkpt>
      <trkpt lon="-4.140865" lat="53.001008"><ele>759.473267</ele><time>2021-07-17T11:21:29Z</time><extensions><speed>0.633053</speed><course>288.844025</course><hAcc>0.888685</hAcc><vAcc>0.715262</vAcc></extensions></trkpt>
      <trkpt lon="-4.140871" lat="53.001013"><ele>759.242432</ele><time>2021-07-17T11:21:30Z</time><extensions><speed>0.660992</speed><course>294.600861</course><hAcc>0.888643</hAcc><vAcc>0.715061</vAcc></extensions></trkpt>
      <trkpt lon="-4.140877" lat="53.001018"><ele>758.995056</ele><time>2021-07-17T11:21:31Z</time><extensions><speed>0.685109</speed><course>289.399475</course><hAcc>0.888583</hAcc><vAcc>0.714824</vAcc></extensions></trkpt>
      <trkpt lon="-4.140883" lat="53.001023"><ele>758.732239</ele><time>2021-07-17T11:21:32Z</time><extensions><speed>0.705491</speed><course>292.462738</course><hAcc>0.888512</hAcc><vAcc>0.714565</vAcc></extensions></trkpt>
      <trkpt lon="-4.140889" lat="53.001028"><ele>758.455566</ele><time>2021-07-17T11:21:33Z</time><extensions><speed>0.722330</speed><course>292.044128</course><hAcc>0.888431</hAcc><vAcc>0.714292</vAcc></extensions></trkpt>
      <trkpt lon="-4.140895" lat="53.001033"><ele>758.166992</ele><time>2021-07-17T11:21:34Z</time><extensions><speed>0.735657</speed><course>289.426849</course><hAcc>0.888345</hAcc><vAcc>0.714013</vAcc></extensions></trkpt>
      <trkpt lon="-4.140902" lat="53.001039"><ele>757.868774</ele><time>2021-07-17T11:21:35Z</time><extensions><speed>0.745565</speed><course>292.821838</course><hAcc>0.888258</hAcc><vAcc>0.713732</vAcc></extensions></trkpt>
      <trkpt lon="-4.140908" lat="53.001044"><ele>757.562744</ele><time>2021-07-17T11:21:36Z</time><extensions><speed>0.752236</speed><course>287.405121</course><hAcc>0.888172</hAcc><vAcc>0.713452</vAcc></extensions></trkpt>
      <trkpt lon="-4.140914" lat="53.001050"><ele>757.250366</ele><time>2021-07-17T11:21:37Z</time><extensions><speed>0.756022</speed><course>289.328461</course><hAcc>0.888089</hAcc><vAcc>0.713178</vAcc></extensions></trkpt>
      <trkpt lon="-4.140921" lat="53.001056"><ele>756.932617</ele><time>2021-07-17T11:21:38Z</time><extensions><speed>0.757460</speed><course>290.686554</course><hAcc>0.888013</hAcc><vAcc>0.712914</vAcc></extensions></trkpt>
      <trkpt lon="-4.140927" lat="53.001061"><ele>756.610352</ele><time>2021-07-17T11:21:39Z</time><extensions><speed>0.757221</speed><course>291.519623</course><hAcc>0.887944</hAcc><vAcc>0.712668</vAcc></extensions></trkpt>
      <trkpt lon="-4.140934" lat="53.001067"><ele>756.283997</ele><time>2021-07-17T11:21:40Z</time><extensions><speed>0.755961</speed><course>289.260345</course><hAcc>0.887885</hAcc><vAcc>0.712450</vAcc></extensions></trkpt>
      <trkpt lon="-4.140941" lat="53.001072"><ele>755.954163</ele><time>2021-07-17T11:21:41Z</time><extensions><speed>0.753945</speed><course>291.671295</course><hAcc>0.887836</hAcc><vAcc>0.712270</vAcc></extensions></trkpt>
      <trkpt lon="-4.140947" lat="53.001077"><ele>755.621216</ele><time>2021-07-17T11:21:42Z</time><extensions><speed>0.751336</speed><course>285.797272</course><hAcc>0.887798</hAcc><vAcc>0.712136</vAcc></extensions></trkpt>
      <trkpt lon="-4.140954" lat="53.001083"><ele>755.285767</ele><time>2021-07-17T11:21:43Z</time><extensions><speed>0.748159</speed><course>284.045776</course><hAcc>0.887769</hAcc><vAcc>0.712054</vAcc></extensions></trkpt>
      <trkpt lon="-4.140961" lat="53.001088"><ele>754.948364</ele><time>2021-07-17T11:21:44Z</time><extensions><speed>0.744375</speed><course>290.744446</course><hAcc>0.887748</hAcc><vAcc>0.712020</vAcc></extensions></trkpt>
      <trkpt lon="-4.140969" lat="53.001093"><ele>754.609924</ele><time>2021-07-17T11:21:45Z</time><extensions><speed>0.739905</speed><course>286.155334</course><hAcc>0.887734</hAcc><vAcc>0.712025</vAcc></extensions></trkpt>
      <trkpt lon="-4.140976" lat="53.001098"><ele>754.271301</ele><time>2021-07-17T11:21:46Z</time><extensions><speed>0.734653</speed><course>292.078705</course><hAcc>0.887723</hAcc><vAcc>0.712051</vAcc></extensions></trkpt>
      <trkpt lon="-4.140983" lat="53.001103"><ele>753.933533</ele><time>2021-07-17T11:21:47Z</time><extensions><speed>0.728792</speed><course>292.906311</course><hAcc>0.887712</hAcc><vAcc>0.712075</vAcc></extensions></trkpt>
      <trkpt lon="-4.140991" lat="53.001107"><ele>753.597412</ele><time>2021-07-17T11:21:48Z</time><extensions><speed>0.722278</speed><course>291.462067</course><hAcc>0.887699</hAcc><vAcc>0.712079</vAcc></extensions></trkpt>
      <trkpt lon="-4.140998" lat="53.001112"><ele>753.263489</ele><time>2021-07-17T11:21:49Z</time><extensions><speed>0.714933</speed><course>290.448425</course><hAcc>0.887679</hAcc><vAcc>0.712047</vAcc></extensions></trkpt>
      <trkpt lon="-4.141005" lat="53.001117"><ele>752.932129</ele><time>2021-07-17T11:21:50Z</time><extensions><speed>0.707035</speed><course>295.857269</course><hAcc>0.887651</hAcc><vAcc>0.711973</vAcc></extensions></trkpt>
      <trkpt lon="-4.141013" lat="53.001121"><ele>752.603638</ele><time>2021-07-17T11:21:51Z</time><extensions><speed>0.699235</speed><course>298.185364</course><hAcc>0.887611</hAcc><vAcc>0.711853</vAcc></extensions></trkpt>
      <trkpt lon="-4.141020" lat="53.001126"><ele>752.277893</ele><time>2021-07-17T11:21:52Z</time><extensions><speed>0.692331</speed><course>294.469940</course><hAcc>0.887558</hAcc><vAcc>0.711690</vAcc></extensions></trkpt>
      <trkpt lon="-4.141027" lat="53.001130"><ele>751.954163</ele><time>2021-07-17T11:21:53Z</time><extensions><speed>0.687138</speed><course>292.898438</course><hAcc>0.887492</hAcc><vAcc>0.711483</vAcc></extensions></trkpt>
      <trkpt lon="-4.141035" lat="53.001134"><ele>751.631165</ele><time>2021-07-17T11:21:54Z</time><extensions><speed>0.684082</speed><course>292.422791</course><hAcc>0.887413</hAcc><vAcc>0.711233</vAcc></extensions></trkpt>
      <trkpt lon="-4.141042" lat="53.001139"><ele>751.307434</ele><time>2021-07-17T11:21:55Z</time><extensions><speed>0.683004</speed><course>292.622986</course><hAcc>0.887321</hAcc><vAcc>0.710941</vAcc></extensions></trkpt>
      <trkpt lon="-4.141049" lat="53.001143"><ele>750.981995</ele><time>2021-07-17T11:21:56Z</time><extensions><speed>0.683515</speed><course>292.749084</course><hAcc>0.887218</hAcc><vAcc>0.710610</vAcc></extensions></trkpt>
      <trkpt lon="-4.141056" lat="53.001147"><ele>750.654480</ele><time>2021-07-17T11:21:57Z</time><extensions><speed>0.685162</speed><course>294.832458</course><hAcc>0.887107</hAcc><vAcc>0.710248</vAcc></extensions></trkpt>
      <trkpt lon="-4.141063" lat="53.001152"><ele>750.325012</ele><time>2021-07-17T11:21:58Z</time><extensions><speed>0.687385</speed><course>290.563019</course><hAcc>0.886989</hAcc><vAcc>0.709867</vAcc></extensions></trkpt>
      <trkpt lon="-4.141070" lat="53.001156"><ele>749.994690</ele><time>2021-07-17T11:21:58Z</time><extensions><speed>0.689848</speed><course>288.082062</course><hAcc>0.886885</hAcc><vAcc>0.709495</vAcc></extensions></trkpt>
      <trkpt lon="-4.141078" lat="53.001161"><ele>749.664185</ele><time>2021-07-17T11:21:59Z</time><extensions><speed>0.692663</speed><course>289.238037</course><hAcc>0.886798</hAcc><vAcc>0.709149</vAcc></extensions></trkpt>
      <trkpt lon="-4.141085" lat="53.001165"><ele>749.335266</ele><time>2021-07-17T11:22:00Z</time><extensions><speed>0.695930</speed><course>289.037109</course><hAcc>0.886714</hAcc><vAcc>0.708831</vAcc></extensions></trkpt>
      <trkpt lon="-4.141092" lat="53.001170"><ele>749.009460</ele><time>2021-07-17T11:22:01Z</time><extensions><speed>0.699729</speed><course>291.884949</course><hAcc>0.886635</hAcc><vAcc>0.708552</vAcc></extensions></trkpt>
      <trkpt lon="-4.141100" lat="53.001174"><ele>748.687500</ele><time>2021-07-17T11:22:02Z</time><extensions><speed>0.704136</speed><course>287.567657</course><hAcc>0.886567</hAcc><vAcc>0.708317</vAcc></extensions></trkpt>
      <trkpt lon="-4.141107" lat="53.001178"><ele>748.369507</ele><time>2021-07-17T11:22:03Z</time><extensions><speed>0.708944</speed><course>291.768890</course><hAcc>0.886510</hAcc><vAcc>0.708126</vAcc></extensions></trkpt>
      <trkpt lon="-4.141115" lat="53.001183"><ele>748.054749</ele><time>2021-07-17T11:22:04Z</time><extensions><speed>0.713655</speed><course>296.126740</course><hAcc>0.886466</hAcc><vAcc>0.707979</vAcc></extensions></trkpt>
      <trkpt lon="-4.141122" lat="53.001187"><ele>747.742493</ele><time>2021-07-17T11:22:05Z</time><extensions><speed>0.717525</speed><course>297.059143</course><hAcc>0.886439</hAcc><vAcc>0.707878</vAcc></extensions></trkpt>
      <trkpt lon="-4.141130" lat="53.001192"><ele>747.432800</ele><time>2021-07-17T11:22:06Z</time><extensions><speed>0.719925</speed><course>303.696320</course><hAcc>0.886427</hAcc><vAcc>0.707827</vAcc></extensions></trkpt>
      <trkpt lon="-4.141138" lat="53.001197"><ele>747.125977</ele><time>2021-07-17T11:22:07Z</time><extensions><speed>0.720545</speed><course>307.460022</course><hAcc>0.886433</hAcc><vAcc>0.707829</vAcc></extensions></trkpt>
      <trkpt lon="-4.141145" lat="53.001201"><ele>746.822571</ele><time>2021-07-17T11:22:08Z</time><extensions><speed>0.719233</speed><course>302.094666</course><hAcc>0.886455</hAcc><vAcc>0.707889</vAcc></extensions></trkpt>
      <trkpt lon="-4.141153" lat="53.001206"><ele>746.523254</ele><time>2021-07-17T11:22:09Z</time><extensions><speed>0.715721</speed><course>294.763123</course><hAcc>0.886495</hAcc><vAcc>0.708009</vAcc></extensions></trkpt>
      <trkpt lon="-4.141161" lat="53.001210"><ele>746.228699</ele><time>2021-07-17T11:22:10Z</time><extensions><speed>0.709836</speed><course>292.310913</course><hAcc>0.886549</hAcc><vAcc>0.708190</vAcc></extensions></trkpt>
      <trkpt lon="-4.141168" lat="53.001214"><ele>745.939819</ele><time>2021-07-17T11:22:11Z</time><extensions><speed>0.701648</speed><course>286.252472</course><hAcc>0.886617</hAcc><vAcc>0.708428</vAcc></extensions></trkpt>
      <trkpt lon="-4.141176" lat="53.001219"><ele>745.657715</ele><time>2021-07-17T11:22:12Z</time><extensions><speed>0.691591</speed><course>277.085999</course><hAcc>0.886696</hAcc><vAcc>0.708712</vAcc></extensions></trkpt>
      <trkpt lon="-4.141183" lat="53.001223"><ele>745.382996</ele><time>2021-07-17T11:22:13Z</time><extensions><speed>0.680449</speed><course>269.880463</course><hAcc>0.886781</hAcc><vAcc>0.709032</vAcc></extensions></trkpt>
      <trkpt lon="-4.141190" lat="53.001227"><ele>745.116089</ele><time>2021-07-17T11:22:14Z</time><extensions><speed>0.669065</speed><course>256.014618</course><hAcc>0.886869</hAcc><vAcc>0.709371</vAcc></extensions></trkpt>
      <trkpt lon="-4.141198" lat="53.001231"><ele>744.857056</ele><time>2021-07-17T11:22:15Z</time><extensions><speed>0.657914</speed><course>250.524368</course><hAcc>0.886955</hAcc><vAcc>0.709707</vAcc></extensions></trkpt>
      <trkpt lon="-4.141205" lat="53.001235"><ele>744.605835</ele><time>2021-07-17T11:22:16Z</time><extensions><speed>0.647094</speed><course>237.491638</course><hAcc>0.887036</hAcc><vAcc>0.710018</vAcc></extensions></trkpt>
      <trkpt lon="-4.141212" lat="53.001239"><ele>744.362183</ele><time>2021-07-17T11:22:17Z</time><extensions><speed>0.636953</speed><course>231.976761</course><hAcc>0.887107</hAcc><vAcc>0.710285</vAcc></extensions></trkpt>
      <trkpt lon="-4.141219" lat="53.001242"><ele>744.125610</ele><time>2021-07-17T11:22:18Z</time><extensions><speed>0.627841</speed><course>228.504318</course><hAcc>0.887166</hAcc><vAcc>0.710492</vAcc></extensions></trkpt>
      <trkpt lon="-4.141227" lat="53.001246"><ele>743.895325</ele><time>2021-07-17T11:22:19Z</time><extensions><speed>0.619946</speed><course>227.577087</course><hAcc>0.887209</hAcc><vAcc>0.710633</vAcc></extensions></trkpt>
      <trkpt lon="-4.141234" lat="53.001249"><ele>743.670288</ele><time>2021-07-17T11:22:20Z</time><extensions><speed>0.613493</speed><course>219.513672</course><hAcc>0.887236</hAcc><vAcc>0.710705</vAcc></extensions></trkpt>
      <trkpt lon="-4.141241" lat="53.001252"><ele>743.449036</ele><time>2021-07-17T11:22:21Z</time><extensions><speed>0.608162</speed><course>224.903015</course><hAcc>0.887247</hAcc><vAcc>0.710714</vAcc></extensions></trkpt>
      <trkpt lon="-4.141249" lat="53.001256"><ele>743.229736</ele><time>2021-07-17T11:22:22Z</time><extensions><speed>0.603301</speed><course>222.390198</course><hAcc>0.887243</hAcc><vAcc>0.710667</vAcc></extensions></trkpt>
      <trkpt lon="-4.141256" lat="53.001259"><ele>743.010986</ele><time>2021-07-17T11:22:23Z</time><extensions><speed>0.598959</speed><course>223.313202</course><hAcc>0.887224</hAcc><vAcc>0.710573</vAcc></extensions></trkpt>
      <trkpt lon="-4.141264" lat="53.001262"><ele>742.791565</ele><time>2021-07-17T11:22:24Z</time><extensions><speed>0.595529</speed><course>224.045700</course><hAcc>0.887193</hAcc><vAcc>0.710441</vAcc></extensions></trkpt>
      <trkpt lon="-4.141271" lat="53.001265"><ele>742.570679</ele><time>2021-07-17T11:22:25Z</time><extensions><speed>0.593436</speed><course>224.975723</course><hAcc>0.887153</hAcc><vAcc>0.710282</vAcc></extensions></trkpt>
      <trkpt lon="-4.141278" lat="53.001267"><ele>742.347778</ele><time>2021-07-17T11:22:26Z</time><extensions><speed>0.593287</speed><course>226.513992</course><hAcc>0.887106</hAcc><vAcc>0.710107</vAcc></extensions></trkpt>
      <trkpt lon="-4.141286" lat="53.001270"><ele>742.122559</ele><time>2021-07-17T11:22:27Z</time><extensions><speed>0.595535</speed><course>227.291473</course><hAcc>0.887054</hAcc><vAcc>0.709924</vAcc></extensions></trkpt>
      <trkpt lon="-4.141293" lat="53.001273"><ele>741.894836</ele><time>2021-07-17T11:22:28Z</time><extensions><speed>0.600124</speed><course>231.833313</course><hAcc>0.887000</hAcc><vAcc>0.709741</vAcc></extensions></trkpt>
      <trkpt lon="-4.141301" lat="53.001277"><ele>741.664673</ele><time>2021-07-17T11:22:29Z</time><extensions><speed>0.606798</speed><course>230.421005</course><hAcc>0.886945</hAcc><vAcc>0.709564</vAcc></extensions></trkpt>
      <trkpt lon="-4.141308" lat="53.001280"><ele>741.431763</ele><time>2021-07-17T11:22:30Z</time><extensions><speed>0.615416</speed><course>235.980087</course><hAcc>0.886891</hAcc><vAcc>0.709397</vAcc></extensions></trkpt>
      <trkpt lon="-4.141315" lat="53.001283"><ele>741.194946</ele><time>2021-07-17T11:22:31Z</time><extensions><speed>0.625726</speed><course>243.213364</course><hAcc>0.886841</hAcc><vAcc>0.709242</vAcc></extensions></trkpt>
      <trkpt lon="-4.141323" lat="53.001286"><ele>740.952515</ele><time>2021-07-17T11:22:32Z</time><extensions><speed>0.637277</speed><course>253.165268</course><hAcc>0.886794</hAcc><vAcc>0.709100</vAcc></extensions></trkpt>
      <trkpt lon="-4.141330" lat="53.001290"><ele>740.703186</ele><time>2021-07-17T11:22:33Z</time><extensions><speed>0.649609</speed><course>266.505096</course><hAcc>0.886753</hAcc><vAcc>0.708970</vAcc></extensions></trkpt>
      <trkpt lon="-4.141338" lat="53.001294"><ele>740.446228</ele><time>2021-07-17T11:22:34Z</time><extensions><speed>0.662094</speed><course>267.255646</course><hAcc>0.886720</hAcc><vAcc>0.708850</vAcc></extensions></trkpt>
      <trkpt lon="-4.141346" lat="53.001297"><ele>740.181335</ele><time>2021-07-17T11:22:35Z</time><extensions><speed>0.673904</speed><course>271.176971</course><hAcc>0.886696</hAcc><vAcc>0.708742</vAcc></extensions></trkpt>
      <trkpt lon="-4.141354" lat="53.001301"><ele>739.908264</ele><time>2021-07-17T11:22:36Z</time><extensions><speed>0.684565</speed><course>283.145996</course><hAcc>0.886682</hAcc><vAcc>0.708656</vAcc></extensions></trkpt>
      <trkpt lon="-4.141362" lat="53.001305"><ele>739.626892</ele><time>2021-07-17T11:22:37Z</time><extensions><speed>0.693893</speed><course>291.499756</course><hAcc>0.886681</hAcc><vAcc>0.708606</vAcc></extensions></trkpt>
      <trkpt lon="-4.141370" lat="53.001309"><ele>739.337158</ele><time>2021-07-17T11:22:38Z</time><extensions><speed>0.701854</speed><course>295.960785</course><hAcc>0.886692</hAcc><vAcc>0.708605</vAcc></extensions></trkpt>
      <trkpt lon="-4.141378" lat="53.001313"><ele>739.039429</ele><time>2021-07-17T11:22:39Z</time><extensions><speed>0.708404</speed><course>298.309418</course><hAcc>0.886716</hAcc><vAcc>0.708664</vAcc></extensions></trkpt>
      <trkpt lon="-4.141386" lat="53.001317"><ele>738.734192</ele><time>2021-07-17T11:22:40Z</time><extensions><speed>0.713449</speed><course>301.442566</course><hAcc>0.886752</hAcc><vAcc>0.708788</vAcc></extensions></trkpt>
      <trkpt lon="-4.141394" lat="53.001322"><ele>738.422180</ele><time>2021-07-17T11:22:41Z</time><extensions><speed>0.716875</speed><course>301.820831</course><hAcc>0.886796</hAcc><vAcc>0.708977</vAcc></extensions></trkpt>
      <trkpt lon="-4.141402" lat="53.001326"><ele>738.104431</ele><time>2021-07-17T11:22:42Z</time><extensions><speed>0.718806</speed><course>306.533081</course><hAcc>0.886846</hAcc><vAcc>0.709216</vAcc></extensions></trkpt>
      <trkpt lon="-4.141410" lat="53.001330"><ele>737.782288</ele><time>2021-07-17T11:22:43Z</time><extensions><speed>0.719574</speed><course>310.759277</course><hAcc>0.886898</hAcc><vAcc>0.709479</vAcc></extensions></trkpt>
      <trkpt lon="-4.141418" lat="53.001334"><ele>737.456726</ele><time>2021-07-17T11:22:44Z</time><extensions><speed>0.719627</speed><course>315.721252</course><hAcc>0.886950</hAcc><vAcc>0.709725</vAcc></extensions></trkpt>
      <trkpt lon="-4.141426" lat="53.001339"><ele>737.128357</ele><time>2021-07-17T11:22:45Z</time><extensions><speed>0.720148</speed><course>321.376434</course><hAcc>0.886997</hAcc><vAcc>0.709917</vAcc></extensions></trkpt>
      <trkpt lon="-4.141434" lat="53.001343"><ele>736.796875</ele><time>2021-07-17T11:22:47Z</time><extensions><speed>0.722268</speed><course>321.893402</course><hAcc>0.887021</hAcc><vAcc>0.710016</vAcc></extensions></trkpt>
      <trkpt lon="-4.141442" lat="53.001347"><ele>736.462708</ele><time>2021-07-17T11:22:48Z</time><extensions><speed>0.726346</speed><course>325.867676</course><hAcc>0.887021</hAcc><vAcc>0.710012</vAcc></extensions></trkpt>
      <trkpt lon="-4.141450" lat="53.001352"><ele>736.125427</ele><time>2021-07-17T11:22:49Z</time><extensions><speed>0.732120</speed><course>319.975250</course><hAcc>0.887016</hAcc><vAcc>0.709934</vAcc></extensions></trkpt>
      <trkpt lon="-4.141458" lat="53.001356"><ele>735.785339</ele><time>2021-07-17T11:22:50Z</time><extensions><speed>0.738762</speed><course>320.826599</course><hAcc>0.887006</hAcc><vAcc>0.709810</vAcc></extensions></trkpt>
      <trkpt lon="-4.141466" lat="53.001361"><ele>735.442688</ele><time>2021-07-17T11:22:51Z</time><extensions><speed>0.745245</speed><course>320.826599</course><hAcc>0.886996</hAcc><vAcc>0.709678</vAcc></extensions></trkpt>
      <trkpt lon="-4.141474" lat="53.001365"><ele>735.097290</ele><time>2021-07-17T11:22:52Z</time><extensions><speed>0.750643</speed><course>320.826599</course><hAcc>0.886988</hAcc><vAcc>0.709571</vAcc></extensions></trkpt>
      <trkpt lon="-4.141482" lat="53.001370"><ele>734.748474</ele><time>2021-07-17T11:22:53Z</time><extensions><speed>0.754536</speed><course>320.826599</course><hAcc>0.886988</hAcc><vAcc>0.709516</vAcc></extensions></trkpt>
      <trkpt lon="-4.141491" lat="53.001375"><ele>734.395935</ele><time>2021-07-17T11:22:54Z</time><extensions><speed>0.756903</speed><course>320.826599</course><hAcc>0.886998</hAcc><vAcc>0.709526</vAcc></extensions></trkpt>
      <trkpt lon="-4.141499" lat="53.001379"><ele>734.040100</ele><time>2021-07-17T11:22:55Z</time><extensions><speed>0.757933</speed><course>320.826599</course><hAcc>0.887021</hAcc><vAcc>0.709608</vAcc></extensions></trkpt>
      <trkpt lon="-4.141507" lat="53.001384"><ele>733.681702</ele><time>2021-07-17T11:22:56Z</time><extensions><speed>0.758053</speed><course>320.826599</course><hAcc>0.887057</hAcc><vAcc>0.709756</vAcc></extensions></trkpt>
      <trkpt lon="-4.141516" lat="53.001389"><ele>733.321838</ele><time>2021-07-17T11:22:57Z</time><extensions><speed>0.757430</speed><course>320.826599</course><hAcc>0.887106</hAcc><vAcc>0.709961</vAcc></extensions></trkpt>
      <trkpt lon="-4.141524" lat="53.001393"><ele>732.961487</ele><time>2021-07-17T11:22:58Z</time><extensions><speed>0.756037</speed><course>320.826599</course><hAcc>0.887166</hAcc><vAcc>0.710210</vAcc></extensions></trkpt>
      <trkpt lon="-4.141532" lat="53.001398"><ele>732.601562</ele><time>2021-07-17T11:22:59Z</time><extensions><speed>0.753891</speed><course>320.826599</course><hAcc>0.887233</hAcc><vAcc>0.710486</vAcc></extensions></trkpt>
      <trkpt lon="-4.141540" lat="53.001402"><ele>732.242798</ele><time>2021-07-17T11:23:00Z</time><extensions><speed>0.751188</speed><course>320.826599</course><hAcc>0.887305</hAcc><vAcc>0.710769</vAcc></extensions></trkpt>
      <trkpt lon="-4.141549" lat="53.001407"><ele>731.886047</ele><time>2021-07-17T11:23:01Z</time><extensions><speed>0.748276</speed><course>320.826599</course><hAcc>0.887379</hAcc><vAcc>0.711045</vAcc></extensions></trkpt>
      <trkpt lon="-4.141557" lat="53.001411"><ele>731.531921</ele><time>2021-07-17T11:23:02Z</time><extensions><speed>0.745314</speed><course>320.826599</course><hAcc>0.887450</hAcc><vAcc>0.711299</vAcc></extensions></trkpt>
      <trkpt lon="-4.141565" lat="53.001416"><ele>731.180908</ele><time>2021-07-17T11:23:03Z</time><extensions><speed>0.742354</speed><course>320.826599</course><hAcc>0.887517</hAcc><vAcc>0.711523</vAcc></extensions></trkpt>
      <trkpt lon="-4.141573" lat="53.001420"><ele>730.833313</ele><time>2021-07-17T11:23:04Z</time><extensions><speed>0.739242</speed><course>320.826599</course><hAcc>0.887577</hAcc><vAcc>0.711712</vAcc></extensions></trkpt>
      <trkpt lon="-4.141582" lat="53.001425"><ele>730.489441</ele><time>2021-07-17T11:23:05Z</time><extensions><speed>0.735791</speed><course>320.826599</course><hAcc>0.887632</hAcc><vAcc>0.711865</vAcc></extensions></trkpt>
      <trkpt lon="-4.141590" lat="53.001429"><ele>730.149719</ele><time>2021-07-17T11:23:06Z</time><extensions><speed>0.732011</speed><course>320.826599</course><hAcc>0.887679</hAcc><vAcc>0.711989</vAcc></extensions></trkpt>
      <trkpt lon="-4.141598" lat="53.001433"><ele>729.814392</ele><time>2021-07-17T11:23:07Z</time><extensions><speed>0.728002</speed><course>320.826599</course><hAcc>0.887721</hAcc><vAcc>0.712089</vAcc></extensions></trkpt>
      <trkpt lon="-4.141606" lat="53.001438"><ele>729.483826</ele><time>2021-07-17T11:23:08Z</time><extensions><speed>0.723900</speed><course>320.826599</course><hAcc>0.887759</hAcc><vAcc>0.712173</vAcc></extensions></trkpt>
      <trkpt lon="-4.141614" lat="53.001442"><ele>729.158264</ele><time>2021-07-17T11:23:09Z</time><extensions><speed>0.719825</speed><course>320.826599</course><hAcc>0.887794</hAcc><vAcc>0.712249</vAcc></extensions></trkpt>
      <trkpt lon="-4.141622" lat="53.001446"><ele>728.837891</ele><time>2021-07-17T11:23:10Z</time><extensions><speed>0.715811</speed><course>320.826599</course><hAcc>0.887827</hAcc><vAcc>0.712328</vAcc></extensions></trkpt>
      <trkpt lon="-4.141630" lat="53.001451"><ele>728.522583</ele><time>2021-07-17T11:23:11Z</time><extensions><speed>0.711415</speed><course>320.826569</course><hAcc>0.887860</hAcc><vAcc>0.712419</vAcc></extensions></trkpt>
      <trkpt lon="-4.141637" lat="53.001455"><ele>728.212158</ele><time>2021-07-17T11:23:12Z</time><extensions><speed>0.705966</speed><course>320.826569</course><hAcc>0.887894</hAcc><vAcc>0.712527</vAcc></extensions></trkpt>
      <trkpt lon="-4.141645" lat="53.001459"><ele>727.906250</ele><time>2021-07-17T11:23:13Z</time><extensions><speed>0.699351</speed><course>320.826569</course><hAcc>0.887927</hAcc><vAcc>0.712653</vAcc></extensions></trkpt>
      <trkpt lon="-4.141653" lat="53.001464"><ele>727.604126</ele><time>2021-07-17T11:23:14Z</time><extensions><speed>0.692070</speed><course>320.826569</course><hAcc>0.887960</hAcc><vAcc>0.712793</vAcc></extensions></trkpt>
      <trkpt lon="-4.141660" lat="53.001468"><ele>727.305176</ele><time>2021-07-17T11:23:15Z</time><extensions><speed>0.684962</speed><course>306.179871</course><hAcc>0.887992</hAcc><vAcc>0.712935</vAcc></extensions></trkpt>
      <trkpt lon="-4.141667" lat="53.001472"><ele>727.009399</ele><time>2021-07-17T11:23:16Z</time><extensions><speed>0.678885</speed><course>252.340622</course><hAcc>0.888022</hAcc><vAcc>0.713064</vAcc></extensions></trkpt>
      <trkpt lon="-4.141674" lat="53.001476"><ele>726.716980</ele><time>2021-07-17T11:23:17Z</time><extensions><speed>0.674242</speed><course>240.417450</course><hAcc>0.888048</hAcc><vAcc>0.713169</vAcc></extensions></trkpt>
      <trkpt lon="-4.141681" lat="53.001481"><ele>726.428345</ele><time>2021-07-17T11:23:18Z</time><extensions><speed>0.670856</speed><course>226.735764</course><hAcc>0.888069</hAcc><vAcc>0.713243</vAcc></extensions></trkpt>
      <trkpt lon="-4.141688" lat="53.001485"><ele>726.144104</ele><time>2021-07-17T11:23:19Z</time><extensions><speed>0.668103</speed><course>213.254318</course><hAcc>0.888084</hAcc><vAcc>0.713284</vAcc></extensions></trkpt>
      <trkpt lon="-4.141695" lat="53.001489"><ele>725.865479</ele><time>2021-07-17T11:23:20Z</time><extensions><speed>0.665230</speed><course>209.983795</course><hAcc>0.888093</hAcc><vAcc>0.713296</vAcc></extensions></trkpt>
      <trkpt lon="-4.141702" lat="53.001494"><ele>725.593445</ele><time>2021-07-17T11:23:21Z</time><extensions><speed>0.661916</speed><course>212.464371</course><hAcc>0.888094</hAcc><vAcc>0.713284</vAcc></extensions></trkpt>
      <trkpt lon="-4.141709" lat="53.001498"><ele>725.328552</ele><time>2021-07-17T11:23:22Z</time><extensions><speed>0.658198</speed><course>212.464355</course><hAcc>0.888089</hAcc><vAcc>0.713253</vAcc></extensions></trkpt>
      <trkpt lon="-4.141715" lat="53.001502"><ele>725.070679</ele><time>2021-07-17T11:23:23Z</time><extensions><speed>0.653706</speed><course>212.464355</course><hAcc>0.888077</hAcc><vAcc>0.713205</vAcc></extensions></trkpt>
      <trkpt lon="-4.141722" lat="53.001507"><ele>724.820190</ele><time>2021-07-17T11:23:24Z</time><extensions><speed>0.647995</speed><course>212.464340</course><hAcc>0.888058</hAcc><vAcc>0.713143</vAcc></extensions></trkpt>
      <trkpt lon="-4.141729" lat="53.001511"><ele>724.577087</ele><time>2021-07-17T11:23:25Z</time><extensions><speed>0.641147</speed><course>212.464325</course><hAcc>0.888034</hAcc><vAcc>0.713068</vAcc></extensions></trkpt>
      <trkpt lon="-4.141735" lat="53.001515"><ele>724.341431</ele><time>2021-07-17T11:23:26Z</time><extensions><speed>0.633636</speed><course>212.464325</course><hAcc>0.888005</hAcc><vAcc>0.712980</vAcc></extensions></trkpt>
      <trkpt lon="-4.141742" lat="53.001519"><ele>724.112793</ele><time>2021-07-17T11:23:27Z</time><extensions><speed>0.626081</speed><course>212.464325</course><hAcc>0.887972</hAcc><vAcc>0.712878</vAcc></extensions></trkpt>
      <trkpt lon="-4.141748" lat="53.001523"><ele>723.890503</ele><time>2021-07-17T11:23:28Z</time><extensions><speed>0.618981</speed><course>212.464310</course><hAcc>0.887935</hAcc><vAcc>0.712759</vAcc></extensions></trkpt>
      <trkpt lon="-4.141754" lat="53.001527"><ele>723.674194</ele><time>2021-07-17T11:23:29Z</time><extensions><speed>0.612635</speed><course>305.064514</course><hAcc>0.887896</hAcc><vAcc>0.712626</vAcc></extensions></trkpt>
      <trkpt lon="-4.141760" lat="53.001531"><ele>723.463257</ele><time>2021-07-17T11:23:30Z</time><extensions><speed>0.607164</speed><course>295.507660</course><hAcc>0.887856</hAcc><vAcc>0.712482</vAcc></extensions></trkpt>
      <trkpt lon="-4.141766" lat="53.001536"><ele>723.256714</ele><time>2021-07-17T11:23:31Z</time><extensions><speed>0.602844</speed><course>292.618195</course><hAcc>0.887815</hAcc><vAcc>0.712334</vAcc></extensions></trkpt>
      <trkpt lon="-4.141772" lat="53.001540"><ele>723.053284</ele><time>2021-07-17T11:23:32Z</time><extensions><speed>0.599770</speed><course>285.374146</course><hAcc>0.887776</hAcc><vAcc>0.712189</vAcc></extensions></trkpt>
      <trkpt lon="-4.141777" lat="53.001544"><ele>722.851624</ele><time>2021-07-17T11:23:33Z</time><extensions><speed>0.597165</speed><course>282.990997</course><hAcc>0.887740</hAcc><vAcc>0.712053</vAcc></extensions></trkpt>
      <trkpt lon="-4.141783" lat="53.001548"><ele>722.650879</ele><time>2021-07-17T11:23:34Z</time><extensions><speed>0.594292</speed><course>269.408752</course><hAcc>0.887707</hAcc><vAcc>0.711935</vAcc></extensions></trkpt>
      <trkpt lon="-4.141788" lat="53.001552"><ele>722.450256</ele><time>2021-07-17T11:23:35Z</time><extensions><speed>0.591401</speed><course>268.581787</course><hAcc>0.887679</hAcc><vAcc>0.711839</vAcc></extensions></trkpt>
      <trkpt lon="-4.141793" lat="53.001557"><ele>722.249207</ele><time>2021-07-17T11:23:36Z</time><extensions><speed>0.588873</speed><course>262.171875</course><hAcc>0.887657</hAcc><vAcc>0.711767</vAcc></extensions></trkpt>
      <trkpt lon="-4.141798" lat="53.001561"><ele>722.047302</ele><time>2021-07-17T11:23:37Z</time><extensions><speed>0.586303</speed><course>261.539520</course><hAcc>0.887642</hAcc><vAcc>0.711722</vAcc></extensions></trkpt>
      <trkpt lon="-4.141803" lat="53.001565"><ele>721.844543</ele><time>2021-07-17T11:23:38Z</time><extensions><speed>0.583085</speed><course>255.803879</course><hAcc>0.887634</hAcc><vAcc>0.711701</vAcc></extensions></trkpt>
      <trkpt lon="-4.141808" lat="53.001570"><ele>721.641418</ele><time>2021-07-17T11:23:39Z</time><extensions><speed>0.579079</speed><course>247.733398</course><hAcc>0.887634</hAcc><vAcc>0.711703</vAcc></extensions></trkpt>
      <trkpt lon="-4.141812" lat="53.001574"><ele>721.438171</ele><time>2021-07-17T11:23:40Z</time><extensions><speed>0.574531</speed><course>231.932861</course><hAcc>0.887641</hAcc><vAcc>0.711726</vAcc></extensions></trkpt>
      <trkpt lon="-4.141816" lat="53.001579"><ele>721.234802</ele><time>2021-07-17T11:23:41Z</time><extensions><speed>0.570010</speed><course>232.043365</course><hAcc>0.887657</hAcc><vAcc>0.711770</vAcc></extensions></trkpt>
      <trkpt lon="-4.141820" lat="53.001583"><ele>721.031189</ele><time>2021-07-17T11:23:42Z</time><extensions><speed>0.565943</speed><course>225.182800</course><hAcc>0.887680</hAcc><vAcc>0.711838</vAcc></extensions></trkpt>
      <trkpt lon="-4.141824" lat="53.001588"><ele>720.826904</ele><time>2021-07-17T11:23:43Z</time><extensions><speed>0.562646</speed><course>222.937302</course><hAcc>0.887711</hAcc><vAcc>0.711932</vAcc></extensions></trkpt>
      <trkpt lon="-4.141828" lat="53.001592"><ele>720.621033</ele><time>2021-07-17T11:23:44Z</time><extensions><speed>0.560416</speed><course>226.615036</course><hAcc>0.887748</hAcc><vAcc>0.712054</vAcc></extensions></trkpt>
      <trkpt lon="-4.141831" lat="53.001597"><ele>720.412292</ele><time>2021-07-17T11:23:45Z</time><extensions><speed>0.559368</speed><course>227.377960</course><hAcc>0.887791</hAcc><vAcc>0.712202</vAcc></extensions></trkpt>
      <trkpt lon="-4.141835" lat="53.001601"><ele>720.199524</ele><time>2021-07-17T11:23:46Z</time><extensions><speed>0.559597</speed><course>225.027542</course><hAcc>0.887838</hAcc><vAcc>0.712370</vAcc></extensions></trkpt>
      <trkpt lon="-4.141838" lat="53.001606"><ele>719.981506</ele><time>2021-07-17T11:23:47Z</time><extensions><speed>0.561164</speed><course>217.523773</course><hAcc>0.887888</hAcc><vAcc>0.712553</vAcc></extensions></trkpt>
      <trkpt lon="-4.141842" lat="53.001611"><ele>719.756836</ele><time>2021-07-17T11:23:48Z</time><extensions><speed>0.564336</speed><course>217.503448</course><hAcc>0.887941</hAcc><vAcc>0.712744</vAcc></extensions></trkpt>
      <trkpt lon="-4.141845" lat="53.001615"><ele>719.524170</ele><time>2021-07-17T11:23:49Z</time><extensions><speed>0.569463</speed><course>222.947372</course><hAcc>0.887993</hAcc><vAcc>0.712934</vAcc></extensions></trkpt>
      <trkpt lon="-4.141849" lat="53.001620"><ele>719.282776</ele><time>2021-07-17T11:23:50Z</time><extensions><speed>0.577073</speed><course>228.737518</course><hAcc>0.888045</hAcc><vAcc>0.713117</vAcc></extensions></trkpt>
      <trkpt lon="-4.141853" lat="53.001624"><ele>719.031921</ele><time>2021-07-17T11:23:51Z</time><extensions><speed>0.587583</speed><course>234.887939</course><hAcc>0.888094</hAcc><vAcc>0.713286</vAcc></extensions></trkpt>
      <trkpt lon="-4.141857" lat="53.001629"><ele>718.771362</ele><time>2021-07-17T11:23:52Z</time><extensions><speed>0.600747</speed><course>232.671463</course><hAcc>0.888140</hAcc><vAcc>0.713436</vAcc></extensions></trkpt>
      <trkpt lon="-4.141862" lat="53.001634"><ele>718.501160</ele><time>2021-07-17T11:23:53Z</time><extensions><speed>0.615909</speed><course>228.680756</course><hAcc>0.888183</hAcc><vAcc>0.713566</vAcc></extensions></trkpt>
      <trkpt lon="-4.141866" lat="53.001639"><ele>718.221924</ele><time>2021-07-17T11:23:54Z</time><extensions><speed>0.632339</speed><course>228.367065</course><hAcc>0.888222</hAcc><vAcc>0.713679</vAcc></extensions></trkpt>
      <trkpt lon="-4.141871" lat="53.001644"><ele>717.934875</ele><time>2021-07-17T11:23:55Z</time><extensions><speed>0.649593</speed><course>227.760208</course><hAcc>0.888257</hAcc><vAcc>0.713776</vAcc></extensions></trkpt>
      <trkpt lon="-4.141876" lat="53.001649"><ele>717.642029</ele><time>2021-07-17T11:23:56Z</time><extensions><speed>0.667118</speed><course>230.377014</course><hAcc>0.888287</hAcc><vAcc>0.713862</vAcc></extensions></trkpt>
      <trkpt lon="-4.141881" lat="53.001654"><ele>717.346436</ele><time>2021-07-17T11:23:57Z</time><extensions><speed>0.684074</speed><course>236.559235</course><hAcc>0.888312</hAcc><vAcc>0.713941</vAcc></extensions></trkpt>
      <trkpt lon="-4.141886" lat="53.001660"><ele>717.051941</ele><time>2021-07-17T11:23:58Z</time><extensions><speed>0.699423</speed><course>232.877869</course><hAcc>0.888332</hAcc><vAcc>0.714014</vAcc></extensions></trkpt>
      <trkpt lon="-4.141891" lat="53.001665"><ele>716.762817</ele><time>2021-07-17T11:23:59Z</time><extensions><speed>0.712137</speed><course>233.901962</course><hAcc>0.888346</hAcc><vAcc>0.714078</vAcc></extensions></trkpt>
      <trkpt lon="-4.141896" lat="53.001671"><ele>716.482056</ele><time>2021-07-17T11:24:00Z</time><extensions><speed>0.721739</speed><course>234.840546</course><hAcc>0.888353</hAcc><vAcc>0.714126</vAcc></extensions></trkpt>
      <trkpt lon="-4.141901" lat="53.001677"><ele>716.210571</ele><time>2021-07-17T11:24:01Z</time><extensions><speed>0.728239</speed><course>231.563858</course><hAcc>0.888352</hAcc><vAcc>0.714151</vAcc></extensions></trkpt>
      <trkpt lon="-4.141905" lat="53.001683"><ele>715.948547</ele><time>2021-07-17T11:24:02Z</time><extensions><speed>0.732281</speed><course>226.163422</course><hAcc>0.888342</hAcc><vAcc>0.714152</vAcc></extensions></trkpt>
      <trkpt lon="-4.141910" lat="53.001689"><ele>715.695435</ele><time>2021-07-17T11:24:03Z</time><extensions><speed>0.734855</speed><course>224.694687</course><hAcc>0.888319</hAcc><vAcc>0.714123</vAcc></extensions></trkpt>
      <trkpt lon="-4.141914" lat="53.001695"><ele>715.450500</ele><time>2021-07-17T11:24:04Z</time><extensions><speed>0.736844</speed><course>227.400024</course><hAcc>0.888284</hAcc><vAcc>0.714061</vAcc></extensions></trkpt>
      <trkpt lon="-4.141918" lat="53.001701"><ele>715.212402</ele><time>2021-07-17T11:24:04Z</time><extensions><speed>0.738483</speed><course>225.215622</course><hAcc>0.888251</hAcc><vAcc>0.713975</vAcc></extensions></trkpt>
      <trkpt lon="-4.141922" lat="53.001707"><ele>714.979492</ele><time>2021-07-17T11:24:05Z</time><extensions><speed>0.739601</speed><course>227.979385</course><hAcc>0.888221</hAcc><vAcc>0.713863</vAcc></extensions></trkpt>
      <trkpt lon="-4.141925" lat="53.001714"><ele>714.751038</ele><time>2021-07-17T11:24:06Z</time><extensions><speed>0.740355</speed><course>238.133682</course><hAcc>0.888177</hAcc><vAcc>0.713709</vAcc></extensions></trkpt>
      <trkpt lon="-4.141929" lat="53.001720"><ele>714.526184</ele><time>2021-07-17T11:24:07Z</time><extensions><speed>0.740838</speed><course>235.678314</course><hAcc>0.888120</hAcc><vAcc>0.713511</vAcc></extensions></trkpt>
      <trkpt lon="-4.141932" lat="53.001726"><ele>714.304077</ele><time>2021-07-17T11:24:08Z</time><extensions><speed>0.741163</speed><course>238.960709</course><hAcc>0.888054</hAcc><vAcc>0.713269</vAcc></extensions></trkpt>
      <trkpt lon="-4.141936" lat="53.001732"><ele>714.083496</ele><time>2021-07-17T11:24:09Z</time><extensions><speed>0.741491</speed><course>237.793289</course><hAcc>0.887982</hAcc><vAcc>0.712990</vAcc></extensions></trkpt>
      <trkpt lon="-4.141940" lat="53.001739"><ele>713.863159</ele><time>2021-07-17T11:24:10Z</time><extensions><speed>0.741727</speed><course>238.209671</course><hAcc>0.887909</hAcc><vAcc>0.712689</vAcc></extensions></trkpt>
      <trkpt lon="-4.141944" lat="53.001745"><ele>713.641968</ele><time>2021-07-17T11:24:11Z</time><extensions><speed>0.741604</speed><course>239.435074</course><hAcc>0.887839</hAcc><vAcc>0.712385</vAcc></extensions></trkpt>
      <trkpt lon="-4.141948" lat="53.001751"><ele>713.418945</ele><time>2021-07-17T11:24:12Z</time><extensions><speed>0.740916</speed><course>238.666733</course><hAcc>0.887777</hAcc><vAcc>0.712103</vAcc></extensions></trkpt>
      <trkpt lon="-4.141952" lat="53.001757"><ele>713.193115</ele><time>2021-07-17T11:24:13Z</time><extensions><speed>0.739728</speed><course>234.077820</course><hAcc>0.887727</hAcc><vAcc>0.711867</vAcc></extensions></trkpt>
      <trkpt lon="-4.141957" lat="53.001763"><ele>712.963623</ele><time>2021-07-17T11:24:14Z</time><extensions><speed>0.738196</speed><course>227.293335</course><hAcc>0.887693</hAcc><vAcc>0.711703</vAcc></extensions></trkpt>
      <trkpt lon="-4.141962" lat="53.001769"><ele>712.729309</ele><time>2021-07-17T11:24:15Z</time><extensions><speed>0.736162</speed><course>230.072769</course><hAcc>0.887676</hAcc><vAcc>0.711628</vAcc></extensions></trkpt>
      <trkpt lon="-4.141967" lat="53.001775"><ele>712.489197</ele><time>2021-07-17T11:24:16Z</time><extensions><speed>0.733202</speed><course>228.397232</course><hAcc>0.887677</hAcc><vAcc>0.711654</vAcc></extensions></trkpt>
      <trkpt lon="-4.141972" lat="53.001781"><ele>712.242798</ele><time>2021-07-17T11:24:17Z</time><extensions><speed>0.729223</speed><course>230.234772</course><hAcc>0.887694</hAcc><vAcc>0.711777</vAcc></extensions></trkpt>
      <trkpt lon="-4.141977" lat="53.001786"><ele>711.989929</ele><time>2021-07-17T11:24:18Z</time><extensions><speed>0.724521</speed><course>226.599274</course><hAcc>0.887726</hAcc><vAcc>0.711978</vAcc></extensions></trkpt>
      <trkpt lon="-4.141982" lat="53.001792"><ele>711.730957</ele><time>2021-07-17T11:24:19Z</time><extensions><speed>0.719049</speed><course>226.515137</course><hAcc>0.887768</hAcc><vAcc>0.712223</vAcc></extensions></trkpt>
      <trkpt lon="-4.141987" lat="53.001798"><ele>711.466370</ele><time>2021-07-17T11:24:20Z</time><extensions><speed>0.712579</speed><course>226.136917</course><hAcc>0.887817</hAcc><vAcc>0.712472</vAcc></extensions></trkpt>
      <trkpt lon="-4.141992" lat="53.001803"><ele>711.197449</ele><time>2021-07-17T11:24:21Z</time><extensions><speed>0.704938</speed><course>230.381958</course><hAcc>0.887867</hAcc><vAcc>0.712689</vAcc></extensions></trkpt>
      <trkpt lon="-4.141997" lat="53.001809"><ele>710.925720</ele><time>2021-07-17T11:24:22Z</time><extensions><speed>0.696219</speed><course>226.727509</course><hAcc>0.887916</hAcc><vAcc>0.712855</vAcc></extensions></trkpt>
      <trkpt lon="-4.142002" lat="53.001815"><ele>710.652161</ele><time>2021-07-17T11:24:23Z</time><extensions><speed>0.687352</speed><course>230.180862</course><hAcc>0.887957</hAcc><vAcc>0.712970</vAcc></extensions></trkpt>
      <trkpt lon="-4.142006" lat="53.001820"><ele>710.377014</ele><time>2021-07-17T11:24:24Z</time><extensions><speed>0.678821</speed><course>225.214905</course><hAcc>0.887988</hAcc><vAcc>0.713044</vAcc></extensions></trkpt>
      <trkpt lon="-4.142010" lat="53.001826"><ele>710.100342</ele><time>2021-07-17T11:24:25Z</time><extensions><speed>0.670345</speed><course>228.288971</course><hAcc>0.888005</hAcc><vAcc>0.713086</vAcc></extensions></trkpt>
      <trkpt lon="-4.142014" lat="53.001831"><ele>709.822388</ele><time>2021-07-17T11:24:26Z</time><extensions><speed>0.661930</speed><course>234.392639</course><hAcc>0.888007</hAcc><vAcc>0.713099</vAcc></extensions></trkpt>
      <trkpt lon="-4.142018" lat="53.001837"><ele>709.542908</ele><time>2021-07-17T11:24:27Z</time><extensions><speed>0.653681</speed><course>233.208801</course><hAcc>0.887994</hAcc><vAcc>0.713077</vAcc></extensions></trkpt>
      <trkpt lon="-4.142021" lat="53.001842"><ele>709.262146</ele><time>2021-07-17T11:24:28Z</time><extensions><speed>0.645650</speed><course>238.158752</course><hAcc>0.887968</hAcc><vAcc>0.713006</vAcc></extensions></trkpt>
      <trkpt lon="-4.142024" lat="53.001848"><ele>708.980957</ele><time>2021-07-17T11:24:29Z</time><extensions><speed>0.637869</speed><course>239.142517</course><hAcc>0.887930</hAcc><vAcc>0.712876</vAcc></extensions></trkpt>
      <trkpt lon="-4.142027" lat="53.001853"><ele>708.700256</ele><time>2021-07-17T11:24:30Z</time><extensions><speed>0.630705</speed><course>241.003922</course><hAcc>0.887882</hAcc><vAcc>0.712689</vAcc></extensions></trkpt>
      <trkpt lon="-4.142030" lat="53.001858"><ele>708.420654</ele><time>2021-07-17T11:24:31Z</time><extensions><speed>0.624899</speed><course>244.474228</course><hAcc>0.887826</hAcc><vAcc>0.712456</vAcc></extensions></trkpt>
      <trkpt lon="-4.142033" lat="53.001864"><ele>708.141724</ele><time>2021-07-17T11:24:32Z</time><extensions><speed>0.621336</speed><course>238.879150</course><hAcc>0.887765</hAcc><vAcc>0.712196</vAcc></extensions></trkpt>
      <trkpt lon="-4.142035" lat="53.001869"><ele>707.862366</ele><time>2021-07-17T11:24:33Z</time><extensions><speed>0.620510</speed><course>237.538528</course><hAcc>0.887701</hAcc><vAcc>0.711934</vAcc></extensions></trkpt>
      <trkpt lon="-4.142038" lat="53.001874"><ele>707.581543</ele><time>2021-07-17T11:24:34Z</time><extensions><speed>0.622073</speed><course>249.037552</course><hAcc>0.887636</hAcc><vAcc>0.711690</vAcc></extensions></trkpt>
      <trkpt lon="-4.142040" lat="53.001880"><ele>707.298340</ele><time>2021-07-17T11:24:35Z</time><extensions><speed>0.625299</speed><course>259.361603</course><hAcc>0.887572</hAcc><vAcc>0.711478</vAcc></extensions></trkpt>
      <trkpt lon="-4.142043" lat="53.001885"><ele>707.011963</ele><time>2021-07-17T11:24:36Z</time><extensions><speed>0.629330</speed><course>261.193176</course><hAcc>0.887511</hAcc><vAcc>0.711300</vAcc></extensions></trkpt>
      <trkpt lon="-4.142046" lat="53.001891"><ele>706.721497</ele><time>2021-07-17T11:24:37Z</time><extensions><speed>0.633489</speed><course>261.193146</course><hAcc>0.887453</hAcc><vAcc>0.711149</vAcc></extensions></trkpt>
      <trkpt lon="-4.142049" lat="53.001896"><ele>706.426025</ele><time>2021-07-17T11:24:38Z</time><extensions><speed>0.637418</speed><course>261.193146</course><hAcc>0.887398</hAcc><vAcc>0.711016</vAcc></extensions></trkpt>
      <trkpt lon="-4.142052" lat="53.001901"><ele>706.124146</ele><time>2021-07-17T11:24:39Z</time><extensions><speed>0.640989</speed><course>261.193146</course><hAcc>0.887348</hAcc><vAcc>0.710888</vAcc></extensions></trkpt>
      <trkpt lon="-4.142056" lat="53.001907"><ele>705.814941</ele><time>2021-07-17T11:24:40Z</time><extensions><speed>0.644476</speed><course>261.193146</course><hAcc>0.887303</hAcc><vAcc>0.710759</vAcc></extensions></trkpt>
      <trkpt lon="-4.142059" lat="53.001912"><ele>705.497864</ele><time>2021-07-17T11:24:41Z</time><extensions><speed>0.648542</speed><course>261.193146</course><hAcc>0.887264</hAcc><vAcc>0.710625</vAcc></extensions></trkpt>
      <trkpt lon="-4.142063" lat="53.001918"><ele>705.173279</ele><time>2021-07-17T11:24:42Z</time><extensions><speed>0.653538</speed><course>261.193146</course><hAcc>0.887232</hAcc><vAcc>0.710491</vAcc></extensions></trkpt>
      <trkpt lon="-4.142067" lat="53.001923"><ele>704.841858</ele><time>2021-07-17T11:24:43Z</time><extensions><speed>0.659105</speed><course>261.193146</course><hAcc>0.887211</hAcc><vAcc>0.710372</vAcc></extensions></trkpt>
      <trkpt lon="-4.142072" lat="53.001928"><ele>704.504761</ele><time>2021-07-17T11:24:44Z</time><extensions><speed>0.664675</speed><course>261.193146</course><hAcc>0.887202</hAcc><vAcc>0.710286</vAcc></extensions></trkpt>
      <trkpt lon="-4.142077" lat="53.001933"><ele>704.163208</ele><time>2021-07-17T11:24:45Z</time><extensions><speed>0.669796</speed><course>234.852402</course><hAcc>0.887209</hAcc><vAcc>0.710256</vAcc></extensions></trkpt>
      <trkpt lon="-4.142082" lat="53.001939"><ele>703.818237</ele><time>2021-07-17T11:24:46Z</time><extensions><speed>0.674180</speed><course>215.025620</course><hAcc>0.887236</hAcc><vAcc>0.710299</vAcc></extensions></trkpt>
      <trkpt lon="-4.142087" lat="53.001944"><ele>703.470886</ele><time>2021-07-17T11:24:47Z</time><extensions><speed>0.677450</speed><course>206.872131</course><hAcc>0.887284</hAcc><vAcc>0.710424</vAcc></extensions></trkpt>
      <trkpt lon="-4.142092" lat="53.001949"><ele>703.122009</ele><time>2021-07-17T11:24:48Z</time><extensions><speed>0.678984</speed><course>205.862991</course><hAcc>0.887355</hAcc><vAcc>0.710637</vAcc></extensions></trkpt>
      <trkpt lon="-4.142098" lat="53.001954"><ele>702.773254</ele><time>2021-07-17T11:24:49Z</time><extensions><speed>0.678366</speed><course>205.862976</course><hAcc>0.887452</hAcc><vAcc>0.710939</vAcc></extensions></trkpt>
      <trkpt lon="-4.142104" lat="53.001959"><ele>702.426758</ele><time>2021-07-17T11:24:50Z</time><extensions><speed>0.675807</speed><course>234.677673</course><hAcc>0.887573</hAcc><vAcc>0.711328</vAcc></extensions></trkpt>
      <trkpt lon="-4.142109" lat="53.001964"><ele>702.084595</ele><time>2021-07-17T11:24:51Z</time><extensions><speed>0.671402</speed><course>246.321655</course><hAcc>0.887716</hAcc><vAcc>0.711802</vAcc></extensions></trkpt>
      <trkpt lon="-4.142115" lat="53.001969"><ele>701.748962</ele><time>2021-07-17T11:24:52Z</time><extensions><speed>0.665295</speed><course>256.732239</course><hAcc>0.887878</hAcc><vAcc>0.712354</vAcc></extensions></trkpt>
      <trkpt lon="-4.142121" lat="53.001974"><ele>701.421143</ele><time>2021-07-17T11:24:53Z</time><extensions><speed>0.658100</speed><course>257.461731</course><hAcc>0.888053</hAcc><vAcc>0.712969</vAcc></extensions></trkpt>
      <trkpt lon="-4.142126" lat="53.001979"><ele>701.101501</ele><time>2021-07-17T11:24:54Z</time><extensions><speed>0.650451</speed><course>256.219269</course><hAcc>0.888236</hAcc><vAcc>0.713623</vAcc></extensions></trkpt>
      <trkpt lon="-4.142132" lat="53.001983"><ele>700.789551</ele><time>2021-07-17T11:24:55Z</time><extensions><speed>0.642765</speed><course>253.669510</course><hAcc>0.888418</hAcc><vAcc>0.714290</vAcc></extensions></trkpt>
      <trkpt lon="-4.142137" lat="53.001988"><ele>700.483948</ele><time>2021-07-17T11:24:56Z</time><extensions><speed>0.635468</speed><course>253.907227</course><hAcc>0.888591</hAcc><vAcc>0.714946</vAcc></extensions></trkpt>
      <trkpt lon="-4.142142" lat="53.001993"><ele>700.182861</ele><time>2021-07-17T11:24:57Z</time><extensions><speed>0.629268</speed><course>260.189209</course><hAcc>0.888746</hAcc><vAcc>0.715557</vAcc></extensions></trkpt>
      <trkpt lon="-4.142147" lat="53.001998"><ele>699.884644</ele><time>2021-07-17T11:24:58Z</time><extensions><speed>0.625123</speed><course>263.253174</course><hAcc>0.888876</hAcc><vAcc>0.716085</vAcc></extensions></trkpt>
      <trkpt lon="-4.142152" lat="53.002003"><ele>699.587341</ele><time>2021-07-17T11:24:59Z</time><extensions><speed>0.623830</speed><course>264.349060</course><hAcc>0.888975</hAcc><vAcc>0.716488</vAcc></extensions></trkpt>
      <trkpt lon="-4.142156" lat="53.002008"><ele>699.289001</ele><time>2021-07-17T11:25:01Z</time><extensions><speed>0.624909</speed><course>258.002991</course><hAcc>0.889021</hAcc><vAcc>0.716718</vAcc></extensions></trkpt>
      <trkpt lon="-4.142161" lat="53.002012"><ele>698.989075</ele><time>2021-07-17T11:25:02Z</time><extensions><speed>0.626805</speed><course>264.832825</course><hAcc>0.889013</hAcc><vAcc>0.716749</vAcc></extensions></trkpt>
      <trkpt lon="-4.142165" lat="53.002017"><ele>698.686768</ele><time>2021-07-17T11:25:03Z</time><extensions><speed>0.627672</speed><course>262.654938</course><hAcc>0.888967</hAcc><vAcc>0.716583</vAcc></extensions></trkpt>
      <trkpt lon="-4.142169" lat="53.002022"><ele>698.382385</ele><time>2021-07-17T11:25:04Z</time><extensions><speed>0.626508</speed><course>262.654938</course><hAcc>0.888887</hAcc><vAcc>0.716233</vAcc></extensions></trkpt>
      <trkpt lon="-4.142174" lat="53.002027"><ele>698.076599</ele><time>2021-07-17T11:25:05Z</time><extensions><speed>0.623380</speed><course>262.654938</course><hAcc>0.888774</hAcc><vAcc>0.715734</vAcc></extensions></trkpt>
      <trkpt lon="-4.142178" lat="53.002032"><ele>697.770386</ele><time>2021-07-17T11:25:06Z</time><extensions><speed>0.618716</speed><course>262.654938</course><hAcc>0.888632</hAcc><vAcc>0.715133</vAcc></extensions></trkpt>
      <trkpt lon="-4.142182" lat="53.002037"><ele>697.464417</ele><time>2021-07-17T11:25:07Z</time><extensions><speed>0.612654</speed><course>262.654938</course><hAcc>0.888469</hAcc><vAcc>0.714477</vAcc></extensions></trkpt>
      <trkpt lon="-4.142186" lat="53.002042"><ele>697.159241</ele><time>2021-07-17T11:25:08Z</time><extensions><speed>0.604988</speed><course>262.654938</course><hAcc>0.888290</hAcc><vAcc>0.713807</vAcc></extensions></trkpt>
      <trkpt lon="-4.142190" lat="53.002047"><ele>696.855103</ele><time>2021-07-17T11:25:09Z</time><extensions><speed>0.595538</speed><course>262.654938</course><hAcc>0.888102</hAcc><vAcc>0.713150</vAcc></extensions></trkpt>
      <trkpt lon="-4.142194" lat="53.002052"><ele>696.552246</ele><time>2021-07-17T11:25:10Z</time><extensions><speed>0.584456</speed><course>262.654938</course><hAcc>0.887911</hAcc><vAcc>0.712523</vAcc></extensions></trkpt>
      <trkpt lon="-4.142198" lat="53.002056"><ele>696.250488</ele><time>2021-07-17T11:25:11Z</time><extensions><speed>0.572357</speed><course>262.654938</course><hAcc>0.887723</hAcc><vAcc>0.711932</vAcc></extensions></trkpt>
      <trkpt lon="-4.142202" lat="53.002061"><ele>695.949829</ele><time>2021-07-17T11:25:12Z</time><extensions><speed>0.559943</speed><course>262.654938</course><hAcc>0.887541</hAcc><vAcc>0.711378</vAcc></extensions></trkpt>
      <trkpt lon="-4.142206" lat="53.002065"><ele>695.650696</ele><time>2021-07-17T11:25:13Z</time><extensions><speed>0.548208</speed><course>262.654938</course><hAcc>0.887368</hAcc><vAcc>0.710857</vAcc></extensions></trkpt>
      <trkpt lon="-4.142211" lat="53.002069"><ele>695.353882</ele><time>2021-07-17T11:25:14Z</time><extensions><speed>0.538128</speed><course>262.654938</course><hAcc>0.887205</hAcc><vAcc>0.710362</vAcc></extensions></trkpt>
      <trkpt lon="-4.142215" lat="53.002073"><ele>695.060059</ele><time>2021-07-17T11:25:15Z</time><extensions><speed>0.530123</speed><course>262.654938</course><hAcc>0.887053</hAcc><vAcc>0.709888</vAcc></extensions></trkpt>
      <trkpt lon="-4.142219" lat="53.002077"><ele>694.770386</ele><time>2021-07-17T11:25:16Z</time><extensions><speed>0.523963</speed><course>262.654938</course><hAcc>0.886914</hAcc><vAcc>0.709437</vAcc></extensions></trkpt>
      <trkpt lon="-4.142224" lat="53.002081"><ele>694.486450</ele><time>2021-07-17T11:25:17Z</time><extensions><speed>0.518962</speed><course>262.654938</course><hAcc>0.886787</hAcc><vAcc>0.709018</vAcc></extensions></trkpt>
      <trkpt lon="-4.142228" lat="53.002085"><ele>694.209412</ele><time>2021-07-17T11:25:18Z</time><extensions><speed>0.514671</speed><course>262.654938</course><hAcc>0.886673</hAcc><vAcc>0.708642</vAcc></extensions></trkpt>
      <trkpt lon="-4.142233" lat="53.002089"><ele>693.940369</ele><time>2021-07-17T11:25:19Z</time><extensions><speed>0.511621</speed><course>262.654938</course><hAcc>0.886574</hAcc><vAcc>0.708316</vAcc></extensions></trkpt>
      <trkpt lon="-4.142237" lat="53.002092"><ele>693.679504</ele><time>2021-07-17T11:25:20Z</time><extensions><speed>0.510540</speed><course>262.654938</course><hAcc>0.886489</hAcc><vAcc>0.708045</vAcc></extensions></trkpt>
      <trkpt lon="-4.142242" lat="53.002096"><ele>693.427002</ele><time>2021-07-17T11:25:21Z</time><extensions><speed>0.511516</speed><course>262.654938</course><hAcc>0.886421</hAcc><vAcc>0.707827</vAcc></extensions></trkpt>
      <trkpt lon="-4.142247" lat="53.002099"><ele>693.182678</ele><time>2021-07-17T11:25:22Z</time><extensions><speed>0.514124</speed><course>262.654938</course><hAcc>0.886371</hAcc><vAcc>0.707661</vAcc></extensions></trkpt>
      <trkpt lon="-4.142253" lat="53.002103"><ele>692.946167</ele><time>2021-07-17T11:25:23Z</time><extensions><speed>0.517690</speed><course>262.654938</course><hAcc>0.886340</hAcc><vAcc>0.707547</vAcc></extensions></trkpt>
      <trkpt lon="-4.142258" lat="53.002106"><ele>692.717163</ele><time>2021-07-17T11:25:24Z</time><extensions><speed>0.521699</speed><course>262.654938</course><hAcc>0.886332</hAcc><vAcc>0.707488</vAcc></extensions></trkpt>
      <trkpt lon="-4.142263" lat="53.002109"><ele>692.495056</ele><time>2021-07-17T11:25:25Z</time><extensions><speed>0.525645</speed><course>262.654938</course><hAcc>0.886347</hAcc><vAcc>0.707496</vAcc></extensions></trkpt>
      <trkpt lon="-4.142269" lat="53.002113"><ele>692.279175</ele><time>2021-07-17T11:25:26Z</time><extensions><speed>0.529053</speed><course>262.654938</course><hAcc>0.886388</hAcc><vAcc>0.707587</vAcc></extensions></trkpt>
      <trkpt lon="-4.142274" lat="53.002116"><ele>692.068848</ele><time>2021-07-17T11:25:27Z</time><extensions><speed>0.531339</speed><course>262.654938</course><hAcc>0.886455</hAcc><vAcc>0.707773</vAcc></extensions></trkpt>
      <trkpt lon="-4.142280" lat="53.002120"><ele>691.863037</ele><time>2021-07-17T11:25:28Z</time><extensions><speed>0.531806</speed><course>262.654938</course><hAcc>0.886548</hAcc><vAcc>0.708064</vAcc></extensions></trkpt>
      <trkpt lon="-4.142285" lat="53.002123"><ele>691.660278</ele><time>2021-07-17T11:25:29Z</time><extensions><speed>0.530451</speed><course>262.654938</course><hAcc>0.886666</hAcc><vAcc>0.708459</vAcc></extensions></trkpt>
      <trkpt lon="-4.142290" lat="53.002127"><ele>691.459167</ele><time>2021-07-17T11:25:30Z</time><extensions><speed>0.528052</speed><course>262.654938</course><hAcc>0.886806</hAcc><vAcc>0.708952</vAcc></extensions></trkpt>
      <trkpt lon="-4.142295" lat="53.002130"><ele>691.258118</ele><time>2021-07-17T11:25:31Z</time><extensions><speed>0.525395</speed><course>262.654938</course><hAcc>0.886964</hAcc><vAcc>0.709523</vAcc></extensions></trkpt>
      <trkpt lon="-4.142300" lat="53.002134"><ele>691.055725</ele><time>2021-07-17T11:25:32Z</time><extensions><speed>0.522738</speed><course>262.654938</course><hAcc>0.887135</hAcc><vAcc>0.710148</vAcc></extensions></trkpt>
      <trkpt lon="-4.142305" lat="53.002138"><ele>690.850830</ele><time>2021-07-17T11:25:33Z</time><extensions><speed>0.520212</speed><course>262.654938</course><hAcc>0.887314</hAcc><vAcc>0.710800</vAcc></extensions></trkpt>
      <trkpt lon="-4.142310" lat="53.002141"><ele>690.642822</ele><time>2021-07-17T11:25:34Z</time><extensions><speed>0.517912</speed><course>262.654938</course><hAcc>0.887493</hAcc><vAcc>0.711449</vAcc></extensions></trkpt>
      <trkpt lon="-4.142315" lat="53.002145"><ele>690.431091</ele><time>2021-07-17T11:25:35Z</time><extensions><speed>0.515941</speed><course>262.654938</course><hAcc>0.887668</hAcc><vAcc>0.712066</vAcc></extensions></trkpt>
      <trkpt lon="-4.142319" lat="53.002149"><ele>690.214966</ele><time>2021-07-17T11:25:36Z</time><extensions><speed>0.514364</speed><course>262.654938</course><hAcc>0.887832</hAcc><vAcc>0.712632</vAcc></extensions></trkpt>
      <trkpt lon="-4.142323" lat="53.002153"><ele>689.994202</ele><time>2021-07-17T11:25:37Z</time><extensions><speed>0.513126</speed><course>262.654938</course><hAcc>0.887981</hAcc><vAcc>0.713135</vAcc></extensions></trkpt>
      <trkpt lon="-4.142328" lat="53.002156"><ele>689.769287</ele><time>2021-07-17T11:25:38Z</time><extensions><speed>0.512687</speed><course>262.654938</course><hAcc>0.888111</hAcc><vAcc>0.713564</vAcc></extensions></trkpt>
      <trkpt lon="-4.142332" lat="53.002160"><ele>689.540955</ele><time>2021-07-17T11:25:39Z</time><extensions><speed>0.513388</speed><course>262.654938</course><hAcc>0.888222</hAcc><vAcc>0.713913</vAcc></extensions></trkpt>
      <trkpt lon="-4.142336" lat="53.002164"><ele>689.310120</ele><time>2021-07-17T11:25:40Z</time><extensions><speed>0.515225</speed><course>262.654938</course><hAcc>0.888313</hAcc><vAcc>0.714179</vAcc></extensions></trkpt>
      <trkpt lon="-4.142341" lat="53.002168"><ele>689.077148</ele><time>2021-07-17T11:25:41Z</time><extensions><speed>0.518283</speed><course>262.654938</course><hAcc>0.888386</hAcc><vAcc>0.714364</vAcc></extensions></trkpt>
      <trkpt lon="-4.142345" lat="53.002172"><ele>688.842224</ele><time>2021-07-17T11:25:42Z</time><extensions><speed>0.522466</speed><course>262.654938</course><hAcc>0.888442</hAcc><vAcc>0.714480</vAcc></extensions></trkpt>
      <trkpt lon="-4.142349" lat="53.002176"><ele>688.605530</ele><time>2021-07-17T11:25:43Z</time><extensions><speed>0.527125</speed><course>262.654938</course><hAcc>0.888486</hAcc><vAcc>0.714545</vAcc></extensions></trkpt>
      <trkpt lon="-4.142354" lat="53.002179"><ele>688.367615</ele><time>2021-07-17T11:25:44Z</time><extensions><speed>0.531788</speed><course>262.654938</course><hAcc>0.888520</hAcc><vAcc>0.714579</vAcc></extensions></trkpt>
      <trkpt lon="-4.142359" lat="53.002183"><ele>688.129028</ele><time>2021-07-17T11:25:45Z</time><extensions><speed>0.536577</speed><course>262.654938</course><hAcc>0.888547</hAcc><vAcc>0.714605</vAcc></extensions></trkpt>
      <trkpt lon="-4.142364" lat="53.002187"><ele>687.890320</ele><time>2021-07-17T11:25:46Z</time><extensions><speed>0.541502</speed><course>262.654938</course><hAcc>0.888571</hAcc><vAcc>0.714642</vAcc></extensions></trkpt>
      <trkpt lon="-4.142369" lat="53.002191"><ele>687.652039</ele><time>2021-07-17T11:25:47Z</time><extensions><speed>0.546581</speed><course>262.654938</course><hAcc>0.888593</hAcc><vAcc>0.714701</vAcc></extensions></trkpt>
      <trkpt lon="-4.142374" lat="53.002194"><ele>687.415039</ele><time>2021-07-17T11:25:48Z</time><extensions><speed>0.551743</speed><course>262.654938</course><hAcc>0.888614</hAcc><vAcc>0.714787</vAcc></extensions></trkpt>
      <trkpt lon="-4.142380" lat="53.002198"><ele>687.180664</ele><time>2021-07-17T11:25:49Z</time><extensions><speed>0.556666</speed><course>262.654938</course><hAcc>0.888635</hAcc><vAcc>0.714897</vAcc></extensions></trkpt>
      <trkpt lon="-4.142386" lat="53.002202"><ele>686.949951</ele><time>2021-07-17T11:25:50Z</time><extensions><speed>0.560712</speed><course>262.654938</course><hAcc>0.888655</hAcc><vAcc>0.715017</vAcc></extensions></trkpt>
      <trkpt lon="-4.142392" lat="53.002205"><ele>686.722778</ele><time>2021-07-17T11:25:51Z</time><extensions><speed>0.563265</speed><course>262.654938</course><hAcc>0.888672</hAcc><vAcc>0.715129</vAcc></extensions></trkpt>
      <trkpt lon="-4.142399" lat="53.002208"><ele>686.498413</ele><time>2021-07-17T11:25:52Z</time><extensions><speed>0.564137</speed><course>262.654938</course><hAcc>0.888686</hAcc><vAcc>0.715218</vAcc></extensions></trkpt>
      <trkpt lon="-4.142405" lat="53.002212"><ele>686.275879</ele><time>2021-07-17T11:25:53Z</time><extensions><speed>0.563261</speed><course>262.654938</course><hAcc>0.888694</hAcc><vAcc>0.715270</vAcc></extensions></trkpt>
      <trkpt lon="-4.142411" lat="53.002215"><ele>686.054138</ele><time>2021-07-17T11:25:54Z</time><extensions><speed>0.560943</speed><course>262.654938</course><hAcc>0.888696</hAcc><vAcc>0.715279</vAcc></extensions></trkpt>
      <trkpt lon="-4.142417" lat="53.002218"><ele>685.832825</ele><time>2021-07-17T11:25:55Z</time><extensions><speed>0.557813</speed><course>262.654938</course><hAcc>0.888690</hAcc><vAcc>0.715246</vAcc></extensions></trkpt>
      <trkpt lon="-4.142424" lat="53.002222"><ele>685.611755</ele><time>2021-07-17T11:25:56Z</time><extensions><speed>0.554492</speed><course>262.654938</course><hAcc>0.888676</hAcc><vAcc>0.715175</vAcc></extensions></trkpt>
      <trkpt lon="-4.142430" lat="53.002225"><ele>685.390930</ele><time>2021-07-17T11:25:57Z</time><extensions><speed>0.551248</speed><course>262.654938</course><hAcc>0.888657</hAcc><vAcc>0.715076</vAcc></extensions></trkpt>
      <trkpt lon="-4.142436" lat="53.002228"><ele>685.170288</ele><time>2021-07-17T11:25:58Z</time><extensions><speed>0.547908</speed><course>262.654938</course><hAcc>0.888632</hAcc><vAcc>0.714963</vAcc></extensions></trkpt>
      <trkpt lon="-4.142441" lat="53.002232"><ele>684.949829</ele><time>2021-07-17T11:25:59Z</time><extensions><speed>0.544024</speed><course>262.654938</course><hAcc>0.888604</hAcc><vAcc>0.714845</vAcc></extensions></trkpt>
      <trkpt lon="-4.142447" lat="53.002235"><ele>684.729675</ele><time>2021-07-17T11:26:00Z</time><extensions><speed>0.539244</speed><course>209.646423</course><hAcc>0.888576</hAcc><vAcc>0.714732</vAcc></extensions></trkpt>
      <trkpt lon="-4.142453" lat="53.002239"><ele>684.509827</ele><time>2021-07-17T11:26:01Z</time><extensions><speed>0.533791</speed><course>207.502853</course><hAcc>0.888552</hAcc><vAcc>0.714634</vAcc></extensions></trkpt>
      <trkpt lon="-4.142458" lat="53.002242"><ele>684.290161</ele><time>2021-07-17T11:26:02Z</time><extensions><speed>0.527949</speed><course>210.649872</course><hAcc>0.888534</hAcc><vAcc>0.714555</vAcc></extensions></trkpt>
      <trkpt lon="-4.142463" lat="53.002246"><ele>684.070679</ele><time>2021-07-17T11:26:03Z</time><extensions><speed>0.521699</speed><course>218.307190</course><hAcc>0.888527</hAcc><vAcc>0.714504</vAcc></extensions></trkpt>
      <trkpt lon="-4.142469" lat="53.002249"><ele>683.851074</ele><time>2021-07-17T11:26:04Z</time><extensions><speed>0.515079</speed><course>221.774033</course><hAcc>0.888533</hAcc><vAcc>0.714491</vAcc></extensions></trkpt>
      <trkpt lon="-4.142474" lat="53.002253"><ele>683.631104</ele><time>2021-07-17T11:26:05Z</time><extensions><speed>0.508490</speed><course>225.071381</course><hAcc>0.888555</hAcc><vAcc>0.714527</vAcc></extensions></trkpt>
      <trkpt lon="-4.142479" lat="53.002256"><ele>683.410034</ele><time>2021-07-17T11:26:06Z</time><extensions><speed>0.502385</speed><course>229.682953</course><hAcc>0.888593</hAcc><vAcc>0.714622</vAcc></extensions></trkpt>
      <trkpt lon="-4.142484" lat="53.002259"><ele>683.187134</ele><time>2021-07-17T11:26:07Z</time><extensions><speed>0.497153</speed><course>228.187271</course><hAcc>0.888650</hAcc><vAcc>0.714785</vAcc></extensions></trkpt>
      <trkpt lon="-4.142489" lat="53.002263"><ele>682.961853</ele><time>2021-07-17T11:26:08Z</time><extensions><speed>0.492990</speed><course>224.821243</course><hAcc>0.888723</hAcc><vAcc>0.715023</vAcc></extensions></trkpt>
      <trkpt lon="-4.142494" lat="53.002266"><ele>682.733582</ele><time>2021-07-17T11:26:09Z</time><extensions><speed>0.490175</speed><course>222.757462</course><hAcc>0.888808</hAcc><vAcc>0.715337</vAcc></extensions></trkpt>
      <trkpt lon="-4.142498" lat="53.002269"><ele>682.501953</ele><time>2021-07-17T11:26:10Z</time><extensions><speed>0.488874</speed><course>223.047150</course><hAcc>0.888902</hAcc><vAcc>0.715722</vAcc></extensions></trkpt>
      <trkpt lon="-4.142503" lat="53.002272"><ele>682.267151</ele><time>2021-07-17T11:26:10Z</time><extensions><speed>0.489226</speed><course>218.695862</course><hAcc>0.889014</hAcc><vAcc>0.716174</vAcc></extensions></trkpt>
      <trkpt lon="-4.142509" lat="53.002276"><ele>682.028381</ele><time>2021-07-17T11:26:11Z</time><extensions><speed>0.491885</speed><course>216.351273</course><hAcc>0.889138</hAcc><vAcc>0.716666</vAcc></extensions></trkpt>
      <trkpt lon="-4.142514" lat="53.002279"><ele>681.785095</ele><time>2021-07-17T11:26:12Z</time><extensions><speed>0.497353</speed><course>219.658188</course><hAcc>0.889247</hAcc><vAcc>0.717147</vAcc></extensions></trkpt>
      <trkpt lon="-4.142519" lat="53.002282"><ele>681.536072</ele><time>2021-07-17T11:26:13Z</time><extensions><speed>0.505611</speed><course>221.748871</course><hAcc>0.889333</hAcc><vAcc>0.717575</vAcc></extensions></trkpt>
      <trkpt lon="-4.142524" lat="53.002285"><ele>681.280334</ele><time>2021-07-17T11:26:14Z</time><extensions><speed>0.516377</speed><course>225.723022</course><hAcc>0.889388</hAcc><vAcc>0.717906</vAcc></extensions></trkpt>
      <trkpt lon="-4.142530" lat="53.002288"><ele>681.017517</ele><time>2021-07-17T11:26:15Z</time><extensions><speed>0.529257</speed><course>227.303833</course><hAcc>0.889408</hAcc><vAcc>0.718101</vAcc></extensions></trkpt>
      <trkpt lon="-4.142536" lat="53.002291"><ele>680.747314</ele><time>2021-07-17T11:26:16Z</time><extensions><speed>0.543622</speed><course>225.742310</course><hAcc>0.889388</hAcc><vAcc>0.718123</vAcc></extensions></trkpt>
      <trkpt lon="-4.142543" lat="53.002295"><ele>680.469971</ele><time>2021-07-17T11:26:17Z</time><extensions><speed>0.558708</speed><course>225.742310</course><hAcc>0.889330</hAcc><vAcc>0.717948</vAcc></extensions></trkpt>
      <trkpt lon="-4.142549" lat="53.002298"><ele>680.185852</ele><time>2021-07-17T11:26:18Z</time><extensions><speed>0.573759</speed><course>225.742325</course><hAcc>0.889236</hAcc><vAcc>0.717571</vAcc></extensions></trkpt>
      <trkpt lon="-4.142556" lat="53.002301"><ele>679.895386</ele><time>2021-07-17T11:26:19Z</time><extensions><speed>0.588263</speed><course>225.742325</course><hAcc>0.889114</hAcc><vAcc>0.717015</vAcc></extensions></trkpt>
      <trkpt lon="-4.142563" lat="53.002304"><ele>679.599243</ele><time>2021-07-17T11:26:20Z</time><extensions><speed>0.602875</speed><course>225.742325</course><hAcc>0.888971</hAcc><vAcc>0.716331</vAcc></extensions></trkpt>
      <trkpt lon="-4.142571" lat="53.002307"><ele>679.298706</ele><time>2021-07-17T11:26:21Z</time><extensions><speed>0.618893</speed><course>224.360504</course><hAcc>0.888816</hAcc><vAcc>0.715587</vAcc></extensions></trkpt>
      <trkpt lon="-4.142579" lat="53.002310"><ele>678.995056</ele><time>2021-07-17T11:26:22Z</time><extensions><speed>0.636396</speed><course>231.374908</course><hAcc>0.888659</hAcc><vAcc>0.714856</vAcc></extensions></trkpt>
      <trkpt lon="-4.142587" lat="53.002313"><ele>678.689514</ele><time>2021-07-17T11:26:23Z</time><extensions><speed>0.654826</speed><course>226.234039</course><hAcc>0.888511</hAcc><vAcc>0.714206</vAcc></extensions></trkpt>
      <trkpt lon="-4.142596" lat="53.002316"><ele>678.383118</ele><time>2021-07-17T11:26:24Z</time><extensions><speed>0.673755</speed><course>228.443588</course><hAcc>0.888380</hAcc><vAcc>0.713687</vAcc></extensions></trkpt>
      <trkpt lon="-4.142605" lat="53.002318"><ele>678.076904</ele><time>2021-07-17T11:26:25Z</time><extensions><speed>0.692447</speed><course>217.150848</course><hAcc>0.888274</hAcc><vAcc>0.713326</vAcc></extensions></trkpt>
      <trkpt lon="-4.142615" lat="53.002321"><ele>677.771301</ele><time>2021-07-17T11:26:26Z</time><extensions><speed>0.710068</speed><course>214.670395</course><hAcc>0.888197</hAcc><vAcc>0.713129</vAcc></extensions></trkpt>
      <trkpt lon="-4.142624" lat="53.002323"><ele>677.466064</ele><time>2021-07-17T11:26:27Z</time><extensions><speed>0.725956</speed><course>219.066208</course><hAcc>0.888148</hAcc><vAcc>0.713077</vAcc></extensions></trkpt>
      <trkpt lon="-4.142635" lat="53.002326"><ele>677.160461</ele><time>2021-07-17T11:26:28Z</time><extensions><speed>0.739355</speed><course>218.042282</course><hAcc>0.888126</hAcc><vAcc>0.713137</vAcc></extensions></trkpt>
      <trkpt lon="-4.142645" lat="53.002328"><ele>676.853271</ele><time>2021-07-17T11:26:29Z</time><extensions><speed>0.749472</speed><course>220.994385</course><hAcc>0.888128</hAcc><vAcc>0.713270</vAcc></extensions></trkpt>
      <trkpt lon="-4.142656" lat="53.002330"><ele>676.542725</ele><time>2021-07-17T11:26:30Z</time><extensions><speed>0.756143</speed><course>227.746307</course><hAcc>0.888148</hAcc><vAcc>0.713437</vAcc></extensions></trkpt>
      <trkpt lon="-4.142666" lat="53.002332"><ele>676.227051</ele><time>2021-07-17T11:26:31Z</time><extensions><speed>0.759418</speed><course>224.855316</course><hAcc>0.888181</hAcc><vAcc>0.713606</vAcc></extensions></trkpt>
      <trkpt lon="-4.142677" lat="53.002335"><ele>675.905151</ele><time>2021-07-17T11:26:32Z</time><extensions><speed>0.759451</speed><course>223.584900</course><hAcc>0.888222</hAcc><vAcc>0.713757</vAcc></extensions></trkpt>
      <trkpt lon="-4.142688" lat="53.002337"><ele>675.576355</ele><time>2021-07-17T11:26:33Z</time><extensions><speed>0.756845</speed><course>224.383530</course><hAcc>0.888266</hAcc><vAcc>0.713881</vAcc></extensions></trkpt>
      <trkpt lon="-4.142698" lat="53.002339"><ele>675.240723</ele><time>2021-07-17T11:26:34Z</time><extensions><speed>0.752159</speed><course>225.716217</course><hAcc>0.888309</hAcc><vAcc>0.713983</vAcc></extensions></trkpt>
      <trkpt lon="-4.142709" lat="53.002342"><ele>674.898987</ele><time>2021-07-17T11:26:35Z</time><extensions><speed>0.745480</speed><course>229.189102</course><hAcc>0.888351</hAcc><vAcc>0.714072</vAcc></extensions></trkpt>
      <trkpt lon="-4.142719" lat="53.002344"><ele>674.552368</ele><time>2021-07-17T11:26:36Z</time><extensions><speed>0.736346</speed><course>224.817474</course><hAcc>0.888389</hAcc><vAcc>0.714161</vAcc></extensions></trkpt>
      <trkpt lon="-4.142729" lat="53.002347"><ele>674.202576</ele><time>2021-07-17T11:26:37Z</time><extensions><speed>0.724331</speed><course>225.227936</course><hAcc>0.888423</hAcc><vAcc>0.714256</vAcc></extensions></trkpt>
      <trkpt lon="-4.142739" lat="53.002349"><ele>673.851257</ele><time>2021-07-17T11:26:38Z</time><extensions><speed>0.710003</speed><course>228.251373</course><hAcc>0.888454</hAcc><vAcc>0.714356</vAcc></extensions></trkpt>
      <trkpt lon="-4.142748" lat="53.002352"><ele>673.499634</ele><time>2021-07-17T11:26:39Z</time><extensions><speed>0.694565</speed><course>230.721024</course><hAcc>0.888483</hAcc><vAcc>0.714459</vAcc></extensions></trkpt>
      <trkpt lon="-4.142757" lat="53.002354"><ele>673.148560</ele><time>2021-07-17T11:26:40Z</time><extensions><speed>0.678783</speed><course>234.697540</course><hAcc>0.888510</hAcc><vAcc>0.714557</vAcc></extensions></trkpt>
      <trkpt lon="-4.142766" lat="53.002357"><ele>672.798828</ele><time>2021-07-17T11:26:41Z</time><extensions><speed>0.663140</speed><course>236.619934</course><hAcc>0.888536</hAcc><vAcc>0.714648</vAcc></extensions></trkpt>
      <trkpt lon="-4.142775" lat="53.002360"><ele>672.451477</ele><time>2021-07-17T11:26:42Z</time><extensions><speed>0.648461</speed><course>247.542679</course><hAcc>0.888563</hAcc><vAcc>0.714731</vAcc></extensions></trkpt>
      <trkpt lon="-4.142784" lat="53.002362"><ele>672.107971</ele><time>2021-07-17T11:26:43Z</time><extensions><speed>0.635808</speed><course>242.855072</course><hAcc>0.888592</hAcc><vAcc>0.714808</vAcc></extensions></trkpt>
      <trkpt lon="-4.142792" lat="53.002365"><ele>671.769836</ele><time>2021-07-17T11:26:44Z</time><extensions><speed>0.626049</speed><course>241.397278</course><hAcc>0.888622</hAcc><vAcc>0.714883</vAcc></extensions></trkpt>
      <trkpt lon="-4.142800" lat="53.002368"><ele>671.438965</ele><time>2021-07-17T11:26:45Z</time><extensions><speed>0.619799</speed><course>241.667068</course><hAcc>0.888656</hAcc><vAcc>0.714963</vAcc></extensions></trkpt>
      <trkpt lon="-4.142808" lat="53.002370"><ele>671.117004</ele><time>2021-07-17T11:26:46Z</time><extensions><speed>0.617546</speed><course>241.132874</course><hAcc>0.888693</hAcc><vAcc>0.715055</vAcc></extensions></trkpt>
      <trkpt lon="-4.142817" lat="53.002373"><ele>670.805908</ele><time>2021-07-17T11:26:47Z</time><extensions><speed>0.619552</speed><course>242.509506</course><hAcc>0.888735</hAcc><vAcc>0.715165</vAcc></extensions></trkpt>
      <trkpt lon="-4.142825" lat="53.002375"><ele>670.507324</ele><time>2021-07-17T11:26:48Z</time><extensions><speed>0.625397</speed><course>242.195404</course><hAcc>0.888779</hAcc><vAcc>0.715301</vAcc></extensions></trkpt>
      <trkpt lon="-4.142833" lat="53.002378"><ele>670.222534</ele><time>2021-07-17T11:26:49Z</time><extensions><speed>0.633809</speed><course>244.443573</course><hAcc>0.888825</hAcc><vAcc>0.715464</vAcc></extensions></trkpt>
      <trkpt lon="-4.142842" lat="53.002380"><ele>669.952576</ele><time>2021-07-17T11:26:50Z</time><extensions><speed>0.643093</speed><course>246.780472</course><hAcc>0.888871</hAcc><vAcc>0.715651</vAcc></extensions></trkpt>
      <trkpt lon="-4.142851" lat="53.002382"><ele>669.697876</ele><time>2021-07-17T11:26:51Z</time><extensions><speed>0.651637</speed><course>247.423477</course><hAcc>0.888914</hAcc><vAcc>0.715849</vAcc></extensions></trkpt>
      <trkpt lon="-4.142860" lat="53.002385"><ele>669.457764</ele><time>2021-07-17T11:26:52Z</time><extensions><speed>0.658072</speed><course>252.345490</course><hAcc>0.888950</hAcc><vAcc>0.716036</vAcc></extensions></trkpt>
      <trkpt lon="-4.142869" lat="53.002387"><ele>669.231262</ele><time>2021-07-17T11:26:53Z</time><extensions><speed>0.661403</speed><course>252.366760</course><hAcc>0.888977</hAcc><vAcc>0.716190</vAcc></extensions></trkpt>
      <trkpt lon="-4.142878" lat="53.002389"><ele>669.016602</ele><time>2021-07-17T11:26:54Z</time><extensions><speed>0.661228</speed><course>254.889893</course><hAcc>0.888991</hAcc><vAcc>0.716288</vAcc></extensions></trkpt>
      <trkpt lon="-4.142887" lat="53.002391"><ele>668.811584</ele><time>2021-07-17T11:26:55Z</time><extensions><speed>0.657410</speed><course>257.492432</course><hAcc>0.888989</hAcc><vAcc>0.716317</vAcc></extensions></trkpt>
      <trkpt lon="-4.142896" lat="53.002393"><ele>668.614075</ele><time>2021-07-17T11:26:56Z</time><extensions><speed>0.650333</speed><course>255.728439</course><hAcc>0.888966</hAcc><vAcc>0.716268</vAcc></extensions></trkpt>
      <trkpt lon="-4.142905" lat="53.002396"><ele>668.422119</ele><time>2021-07-17T11:26:57Z</time><extensions><speed>0.641096</speed><course>258.375061</course><hAcc>0.888921</hAcc><vAcc>0.716135</vAcc></extensions></trkpt>
      <trkpt lon="-4.142914" lat="53.002398"><ele>668.234192</ele><time>2021-07-17T11:26:58Z</time><extensions><speed>0.630480</speed><course>260.722260</course><hAcc>0.888853</hAcc><vAcc>0.715917</vAcc></extensions></trkpt>
      <trkpt lon="-4.142922" lat="53.002400"><ele>668.048706</ele><time>2021-07-17T11:26:59Z</time><extensions><speed>0.618782</speed><course>260.722260</course><hAcc>0.888761</hAcc><vAcc>0.715611</vAcc></extensions></trkpt>
      <trkpt lon="-4.142930" lat="53.002403"><ele>667.864136</ele><time>2021-07-17T11:27:00Z</time><extensions><speed>0.606590</speed><course>260.722260</course><hAcc>0.888648</hAcc><vAcc>0.715221</vAcc></extensions></trkpt>
      <trkpt lon="-4.142938" lat="53.002405"><ele>667.679565</ele><time>2021-07-17T11:27:01Z</time><extensions><speed>0.594646</speed><course>260.722260</course><hAcc>0.888515</hAcc><vAcc>0.714756</vAcc></extensions></trkpt>
      <trkpt lon="-4.142946" lat="53.002408"><ele>667.494141</ele><time>2021-07-17T11:27:02Z</time><extensions><speed>0.583601</speed><course>260.722260</course><hAcc>0.888366</hAcc><vAcc>0.714227</vAcc></extensions></trkpt>
      <trkpt lon="-4.142953" lat="53.002411"><ele>667.307312</ele><time>2021-07-17T11:27:03Z</time><extensions><speed>0.574228</speed><course>260.722260</course><hAcc>0.888204</hAcc><vAcc>0.713654</vAcc></extensions></trkpt>
      <trkpt lon="-4.142960" lat="53.002414"><ele>667.118774</ele><time>2021-07-17T11:27:04Z</time><extensions><speed>0.566817</speed><course>260.722260</course><hAcc>0.888033</hAcc><vAcc>0.713056</vAcc></extensions></trkpt>
      <trkpt lon="-4.142966" lat="53.002417"><ele>666.928284</ele><time>2021-07-17T11:27:05Z</time><extensions><speed>0.561013</speed><course>260.722229</course><hAcc>0.887858</hAcc><vAcc>0.712454</vAcc></extensions></trkpt>
      <trkpt lon="-4.142973" lat="53.002421"><ele>666.735657</ele><time>2021-07-17T11:27:06Z</time><extensions><speed>0.556845</speed><course>268.575928</course><hAcc>0.887683</hAcc><vAcc>0.711863</vAcc></extensions></trkpt>
      <trkpt lon="-4.142979" lat="53.002424"><ele>666.540466</ele><time>2021-07-17T11:27:07Z</time><extensions><speed>0.554534</speed><course>268.685822</course><hAcc>0.887511</hAcc><vAcc>0.711297</vAcc></extensions></trkpt>
      <trkpt lon="-4.142985" lat="53.002427"><ele>666.342468</ele><time>2021-07-17T11:27:08Z</time><extensions><speed>0.553975</speed><course>264.169769</course><hAcc>0.887348</hAcc><vAcc>0.710766</vAcc></extensions></trkpt>
      <trkpt lon="-4.142991" lat="53.002431"><ele>666.141541</ele><time>2021-07-17T11:27:09Z</time><extensions><speed>0.554591</speed><course>272.216278</course><hAcc>0.887197</hAcc><vAcc>0.710273</vAcc></extensions></trkpt>
      <trkpt lon="-4.142997" lat="53.002434"><ele>665.937500</ele><time>2021-07-17T11:27:10Z</time><extensions><speed>0.555458</speed><course>279.707916</course><hAcc>0.887061</hAcc><vAcc>0.709822</vAcc></extensions></trkpt>
      <trkpt lon="-4.143003" lat="53.002437"><ele>665.730469</ele><time>2021-07-17T11:27:11Z</time><extensions><speed>0.555781</speed><course>277.974487</course><hAcc>0.886947</hAcc><vAcc>0.709418</vAcc></extensions></trkpt>
      <trkpt lon="-4.143009" lat="53.002441"><ele>665.520935</ele><time>2021-07-17T11:27:12Z</time><extensions><speed>0.555181</speed><course>285.359497</course><hAcc>0.886856</hAcc><vAcc>0.709069</vAcc></extensions></trkpt>
      <trkpt lon="-4.143015" lat="53.002444"><ele>665.309570</ele><time>2021-07-17T11:27:13Z</time><extensions><speed>0.553512</speed><course>288.896698</course><hAcc>0.886795</hAcc><vAcc>0.708792</vAcc></extensions></trkpt>
      <trkpt lon="-4.143021" lat="53.002448"><ele>665.097168</ele><time>2021-07-17T11:27:14Z</time><extensions><speed>0.551163</speed><course>285.949463</course><hAcc>0.886766</hAcc><vAcc>0.708610</vAcc></extensions></trkpt>
      <trkpt lon="-4.143027" lat="53.002451"><ele>664.884460</ele><time>2021-07-17T11:27:16Z</time><extensions><speed>0.549315</speed><course>279.328217</course><hAcc>0.886753</hAcc><vAcc>0.708531</vAcc></extensions></trkpt>
      <trkpt lon="-4.143033" lat="53.002454"><ele>664.672607</ele><time>2021-07-17T11:27:17Z</time><extensions><speed>0.549294</speed><course>280.252258</course><hAcc>0.886758</hAcc><vAcc>0.708568</vAcc></extensions></trkpt>
      <trkpt lon="-4.143040" lat="53.002457"><ele>664.461792</ele><time>2021-07-17T11:27:18Z</time><extensions><speed>0.552040</speed><course>280.968384</course><hAcc>0.886797</hAcc><vAcc>0.708736</vAcc></extensions></trkpt>
      <trkpt lon="-4.143046" lat="53.002461"><ele>664.252441</ele><time>2021-07-17T11:27:19Z</time><extensions><speed>0.557253</speed><course>279.577759</course><hAcc>0.886868</hAcc><vAcc>0.709026</vAcc></extensions></trkpt>
      <trkpt lon="-4.143052" lat="53.002464"><ele>664.044434</ele><time>2021-07-17T11:27:20Z</time><extensions><speed>0.563488</speed><course>280.039124</course><hAcc>0.886965</hAcc><vAcc>0.709418</vAcc></extensions></trkpt>
      <trkpt lon="-4.143059" lat="53.002467"><ele>663.837708</ele><time>2021-07-17T11:27:21Z</time><extensions><speed>0.569047</speed><course>285.588440</course><hAcc>0.887083</hAcc><vAcc>0.709888</vAcc></extensions></trkpt>
      <trkpt lon="-4.143065" lat="53.002471"><ele>663.631226</ele><time>2021-07-17T11:27:22Z</time><extensions><speed>0.572607</speed><course>287.653503</course><hAcc>0.887216</hAcc><vAcc>0.710407</vAcc></extensions></trkpt>
      <trkpt lon="-4.143071" lat="53.002474"><ele>663.423462</ele><time>2021-07-17T11:27:23Z</time><extensions><speed>0.573648</speed><course>285.239563</course><hAcc>0.887355</hAcc><vAcc>0.710945</vAcc></extensions></trkpt>
      <trkpt lon="-4.143077" lat="53.002478"><ele>663.212708</ele><time>2021-07-17T11:27:24Z</time><extensions><speed>0.572452</speed><course>283.468018</course><hAcc>0.887494</hAcc><vAcc>0.711473</vAcc></extensions></trkpt>
      <trkpt lon="-4.143083" lat="53.002481"><ele>662.997986</ele><time>2021-07-17T11:27:25Z</time><extensions><speed>0.569786</speed><course>279.656525</course><hAcc>0.887627</hAcc><vAcc>0.711963</vAcc></extensions></trkpt>
      <trkpt lon="-4.143088" lat="53.002485"><ele>662.778381</ele><time>2021-07-17T11:27:26Z</time><extensions><speed>0.567286</speed><course>278.539093</course><hAcc>0.887748</hAcc><vAcc>0.712391</vAcc></extensions></trkpt>
      <trkpt lon="-4.143093" lat="53.002490"><ele>662.552734</ele><time>2021-07-17T11:27:27Z</time><extensions><speed>0.566757</speed><course>281.435120</course><hAcc>0.887854</hAcc><vAcc>0.712741</vAcc></extensions></trkpt>
      <trkpt lon="-4.143098" lat="53.002494"><ele>662.320007</ele><time>2021-07-17T11:27:28Z</time><extensions><speed>0.569159</speed><course>285.299316</course><hAcc>0.887940</hAcc><vAcc>0.713005</vAcc></extensions></trkpt>
      <trkpt lon="-4.143102" lat="53.002498"><ele>662.079773</ele><time>2021-07-17T11:27:29Z</time><extensions><speed>0.574425</speed><course>278.729095</course><hAcc>0.888007</hAcc><vAcc>0.713187</vAcc></extensions></trkpt>
      <trkpt lon="-4.143106" lat="53.002503"><ele>661.832092</ele><time>2021-07-17T11:27:30Z</time><extensions><speed>0.581719</speed><course>281.499542</course><hAcc>0.888054</hAcc><vAcc>0.713294</vAcc></extensions></trkpt>
      <trkpt lon="-4.143110" lat="53.002508"><ele>661.577271</ele><time>2021-07-17T11:27:31Z</time><extensions><speed>0.590500</speed><course>280.886475</course><hAcc>0.888081</hAcc><vAcc>0.713338</vAcc></extensions></trkpt>
      <trkpt lon="-4.143114" lat="53.002512"><ele>661.315674</ele><time>2021-07-17T11:27:32Z</time><extensions><speed>0.600557</speed><course>287.541565</course><hAcc>0.888092</hAcc><vAcc>0.713332</vAcc></extensions></trkpt>
      <trkpt lon="-4.143117" lat="53.002517"><ele>661.047791</ele><time>2021-07-17T11:27:33Z</time><extensions><speed>0.611747</speed><course>288.221985</course><hAcc>0.888088</hAcc><vAcc>0.713287</vAcc></extensions></trkpt>
      <trkpt lon="-4.143121" lat="53.002523"><ele>660.774170</ele><time>2021-07-17T11:27:34Z</time><extensions><speed>0.623720</speed><course>291.891876</course><hAcc>0.888073</hAcc><vAcc>0.713211</vAcc></extensions></trkpt>
      <trkpt lon="-4.143125" lat="53.002528"><ele>660.495483</ele><time>2021-07-17T11:27:35Z</time><extensions><speed>0.635997</speed><course>289.035248</course><hAcc>0.888049</hAcc><vAcc>0.713111</vAcc></extensions></trkpt>
      <trkpt lon="-4.143129" lat="53.002533"><ele>660.212952</ele><time>2021-07-17T11:27:36Z</time><extensions><speed>0.648277</speed><course>286.354584</course><hAcc>0.888020</hAcc><vAcc>0.712994</vAcc></extensions></trkpt>
      <trkpt lon="-4.143133" lat="53.002538"><ele>659.927795</ele><time>2021-07-17T11:27:37Z</time><extensions><speed>0.660469</speed><course>285.070648</course><hAcc>0.887987</hAcc><vAcc>0.712871</vAcc></extensions></trkpt>
      <trkpt lon="-4.143137" lat="53.002544"><ele>659.640808</ele><time>2021-07-17T11:27:38Z</time><extensions><speed>0.672560</speed><course>282.456329</course><hAcc>0.887954</hAcc><vAcc>0.712750</vAcc></extensions></trkpt>
      <trkpt lon="-4.143142" lat="53.002549"><ele>659.352905</ele><time>2021-07-17T11:27:39Z</time><extensions><speed>0.684292</speed><course>277.579590</course><hAcc>0.887919</hAcc><vAcc>0.712640</vAcc></extensions></trkpt>
      <trkpt lon="-4.143146" lat="53.002555"><ele>659.065002</ele><time>2021-07-17T11:27:40Z</time><extensions><speed>0.695067</speed><course>280.944580</course><hAcc>0.887886</hAcc><vAcc>0.712542</vAcc></extensions></trkpt>
      <trkpt lon="-4.143151" lat="53.002560"><ele>658.778076</ele><time>2021-07-17T11:27:41Z</time><extensions><speed>0.704458</speed><course>286.555664</course><hAcc>0.887854</hAcc><vAcc>0.712454</vAcc></extensions></trkpt>
      <trkpt lon="-4.143156" lat="53.002566"><ele>658.493103</ele><time>2021-07-17T11:27:42Z</time><extensions><speed>0.712529</speed><course>286.867188</course><hAcc>0.887824</hAcc><vAcc>0.712374</vAcc></extensions></trkpt>
      <trkpt lon="-4.143161" lat="53.002572"><ele>658.210693</ele><time>2021-07-17T11:27:43Z</time><extensions><speed>0.719712</speed><course>285.747314</course><hAcc>0.887797</hAcc><vAcc>0.712295</vAcc></extensions></trkpt>
      <trkpt lon="-4.143166" lat="53.002577"><ele>657.931030</ele><time>2021-07-17T11:27:44Z</time><extensions><speed>0.726297</speed><course>288.748718</course><hAcc>0.887771</hAcc><vAcc>0.712216</vAcc></extensions></trkpt>
      <trkpt lon="-4.143171" lat="53.002583"><ele>657.653870</ele><time>2021-07-17T11:27:45Z</time><extensions><speed>0.732148</speed><course>282.056335</course><hAcc>0.887748</hAcc><vAcc>0.712137</vAcc></extensions></trkpt>
      <trkpt lon="-4.143176" lat="53.002589"><ele>657.378662</ele><time>2021-07-17T11:27:46Z</time><extensions><speed>0.736969</speed><course>284.841522</course><hAcc>0.887728</hAcc><vAcc>0.712062</vAcc></extensions></trkpt>
      <trkpt lon="-4.143181" lat="53.002595"><ele>657.104797</ele><time>2021-07-17T11:27:47Z</time><extensions><speed>0.740406</speed><course>283.873260</course><hAcc>0.887711</hAcc><vAcc>0.711995</vAcc></extensions></trkpt>
      <trkpt lon="-4.143186" lat="53.002601"><ele>656.831604</ele><time>2021-07-17T11:27:48Z</time><extensions><speed>0.742140</speed><course>280.645142</course><hAcc>0.887698</hAcc><vAcc>0.711942</vAcc></extensions></trkpt>
      <trkpt lon="-4.143191" lat="53.002607"><ele>656.558716</ele><time>2021-07-17T11:27:49Z</time><extensions><speed>0.741999</speed><course>278.726105</course><hAcc>0.887689</hAcc><vAcc>0.711903</vAcc></extensions></trkpt>
      <trkpt lon="-4.143196" lat="53.002613"><ele>656.286133</ele><time>2021-07-17T11:27:50Z</time><extensions><speed>0.740025</speed><course>276.107971</course><hAcc>0.887684</hAcc><vAcc>0.711879</vAcc></extensions></trkpt>
      <trkpt lon="-4.143200" lat="53.002619"><ele>656.014282</ele><time>2021-07-17T11:27:51Z</time><extensions><speed>0.736538</speed><course>275.135803</course><hAcc>0.887685</hAcc><vAcc>0.711872</vAcc></extensions></trkpt>
      <trkpt lon="-4.143205" lat="53.002625"><ele>655.743286</ele><time>2021-07-17T11:27:52Z</time><extensions><speed>0.732010</speed><course>273.705627</course><hAcc>0.887691</hAcc><vAcc>0.711885</vAcc></extensions></trkpt>
      <trkpt lon="-4.143209" lat="53.002631"><ele>655.473877</ele><time>2021-07-17T11:27:53Z</time><extensions><speed>0.726482</speed><course>279.700806</course><hAcc>0.887703</hAcc><vAcc>0.711922</vAcc></extensions></trkpt>
      <trkpt lon="-4.143213" lat="53.002637"><ele>655.206970</ele><time>2021-07-17T11:27:54Z</time><extensions><speed>0.719670</speed><course>279.102997</course><hAcc>0.887718</hAcc><vAcc>0.711983</vAcc></extensions></trkpt>
      <trkpt lon="-4.143217" lat="53.002643"><ele>654.943604</ele><time>2021-07-17T11:27:55Z</time><extensions><speed>0.711674</speed><course>281.416626</course><hAcc>0.887738</hAcc><vAcc>0.712063</vAcc></extensions></trkpt>
      <trkpt lon="-4.143221" lat="53.002649"><ele>654.684326</ele><time>2021-07-17T11:27:56Z</time><extensions><speed>0.702723</speed><course>274.399658</course><hAcc>0.887760</hAcc><vAcc>0.712157</vAcc></extensions></trkpt>
      <trkpt lon="-4.143224" lat="53.002655"><ele>654.429321</ele><time>2021-07-17T11:27:57Z</time><extensions><speed>0.693439</speed><course>277.055237</course><hAcc>0.887784</hAcc><vAcc>0.712256</vAcc></extensions></trkpt>
      <trkpt lon="-4.143228" lat="53.002661"><ele>654.178589</ele><time>2021-07-17T11:27:58Z</time><extensions><speed>0.684885</speed><course>271.055908</course><hAcc>0.887808</hAcc><vAcc>0.712355</vAcc></extensions></trkpt>
      <trkpt lon="-4.143231" lat="53.002666"><ele>653.931946</ele><time>2021-07-17T11:27:59Z</time><extensions><speed>0.677776</speed><course>270.959534</course><hAcc>0.887831</hAcc><vAcc>0.712445</vAcc></extensions></trkpt>
      <trkpt lon="-4.143234" lat="53.002672"><ele>653.689270</ele><time>2021-07-17T11:28:00Z</time><extensions><speed>0.672505</speed><course>273.311462</course><hAcc>0.887853</hAcc><vAcc>0.712523</vAcc></extensions></trkpt>
      <trkpt lon="-4.143236" lat="53.002678"><ele>653.450134</ele><time>2021-07-17T11:28:01Z</time><extensions><speed>0.669338</speed><course>270.079376</course><hAcc>0.887873</hAcc><vAcc>0.712585</vAcc></extensions></trkpt>
      <trkpt lon="-4.143239" lat="53.002684"><ele>653.213196</ele><time>2021-07-17T11:28:02Z</time><extensions><speed>0.668269</speed><course>269.858612</course><hAcc>0.887890</hAcc><vAcc>0.712633</vAcc></extensions></trkpt>
      <trkpt lon="-4.143242" lat="53.002690"><ele>652.976379</ele><time>2021-07-17T11:28:03Z</time><extensions><speed>0.669119</speed><course>271.614288</course><hAcc>0.887906</hAcc><vAcc>0.712667</vAcc></extensions></trkpt>
      <trkpt lon="-4.143244" lat="53.002695"><ele>652.737061</ele><time>2021-07-17T11:28:04Z</time><extensions><speed>0.671519</speed><course>269.703888</course><hAcc>0.887920</hAcc><vAcc>0.712691</vAcc></extensions></trkpt>
      <trkpt lon="-4.143247" lat="53.002701"><ele>652.492126</ele><time>2021-07-17T11:28:05Z</time><extensions><speed>0.674795</speed><course>271.185974</course><hAcc>0.887933</hAcc><vAcc>0.712711</vAcc></extensions></trkpt>
      <trkpt lon="-4.143250" lat="53.002707"><ele>652.239258</ele><time>2021-07-17T11:28:06Z</time><extensions><speed>0.678237</speed><course>276.545776</course><hAcc>0.887945</hAcc><vAcc>0.712734</vAcc></extensions></trkpt>
      <trkpt lon="-4.143252" lat="53.002713"><ele>651.977478</ele><time>2021-07-17T11:28:07Z</time><extensions><speed>0.681076</speed><course>274.150604</course><hAcc>0.887957</hAcc><vAcc>0.712766</vAcc></extensions></trkpt>
      <trkpt lon="-4.143255" lat="53.002719"><ele>651.706909</ele><time>2021-07-17T11:28:08Z</time><extensions><speed>0.682572</speed><course>269.686920</course><hAcc>0.887968</hAcc><vAcc>0.712809</vAcc></extensions></trkpt>
      <trkpt lon="-4.143257" lat="53.002725"><ele>651.428589</ele><time>2021-07-17T11:28:09Z</time><extensions><speed>0.682489</speed><course>266.852386</course><hAcc>0.887978</hAcc><vAcc>0.712861</vAcc></extensions></trkpt>
      <trkpt lon="-4.143260" lat="53.002731"><ele>651.143982</ele><time>2021-07-17T11:28:10Z</time><extensions><speed>0.680755</speed><course>267.243347</course><hAcc>0.887985</hAcc><vAcc>0.712917</vAcc></extensions></trkpt>
      <trkpt lon="-4.143261" lat="53.002737"><ele>650.854919</ele><time>2021-07-17T11:28:11Z</time><extensions><speed>0.677412</speed><course>260.829193</course><hAcc>0.887990</hAcc><vAcc>0.712970</vAcc></extensions></trkpt>
      <trkpt lon="-4.143263" lat="53.002743"><ele>650.563110</ele><time>2021-07-17T11:28:12Z</time><extensions><speed>0.672822</speed><course>268.227509</course><hAcc>0.887989</hAcc><vAcc>0.713007</vAcc></extensions></trkpt>
      <trkpt lon="-4.143264" lat="53.002749"><ele>650.270386</ele><time>2021-07-17T11:28:13Z</time><extensions><speed>0.667494</speed><course>261.241119</course><hAcc>0.887982</hAcc><vAcc>0.713020</vAcc></extensions></trkpt>
      <trkpt lon="-4.143265" lat="53.002755"><ele>649.978210</ele><time>2021-07-17T11:28:14Z</time><extensions><speed>0.661971</speed><course>259.199677</course><hAcc>0.887967</hAcc><vAcc>0.712999</vAcc></extensions></trkpt>
      <trkpt lon="-4.143265" lat="53.002761"><ele>649.687439</ele><time>2021-07-17T11:28:15Z</time><extensions><speed>0.656926</speed><course>258.372070</course><hAcc>0.887942</hAcc><vAcc>0.712941</vAcc></extensions></trkpt>
      <trkpt lon="-4.143265" lat="53.002767"><ele>649.398315</ele><time>2021-07-17T11:28:16Z</time><extensions><speed>0.652850</speed><course>251.644882</course><hAcc>0.887904</hAcc><vAcc>0.712846</vAcc></extensions></trkpt>
      <trkpt lon="-4.143265" lat="53.002772"><ele>649.110779</ele><time>2021-07-17T11:28:16Z</time><extensions><speed>0.649518</speed><course>250.726257</course><hAcc>0.887872</hAcc><vAcc>0.712729</vAcc></extensions></trkpt>
      <trkpt lon="-4.143265" lat="53.002778"><ele>648.824219</ele><time>2021-07-17T11:28:17Z</time><extensions><speed>0.646328</speed><course>245.632431</course><hAcc>0.887845</hAcc><vAcc>0.712593</vAcc></extensions></trkpt>
      <trkpt lon="-4.143264" lat="53.002784"><ele>648.539307</ele><time>2021-07-17T11:28:18Z</time><extensions><speed>0.642764</speed><course>245.967255</course><hAcc>0.887806</hAcc><vAcc>0.712426</vAcc></extensions></trkpt>
      <trkpt lon="-4.143264" lat="53.002790"><ele>648.256592</ele><time>2021-07-17T11:28:19Z</time><extensions><speed>0.638625</speed><course>241.448837</course><hAcc>0.887755</hAcc><vAcc>0.712232</vAcc></extensions></trkpt>
      <trkpt lon="-4.143263" lat="53.002795"><ele>647.976624</ele><time>2021-07-17T11:28:20Z</time><extensions><speed>0.633902</speed><course>246.306168</course><hAcc>0.887694</hAcc><vAcc>0.712010</vAcc></extensions></trkpt>
      <trkpt lon="-4.143262" lat="53.002801"><ele>647.700073</ele><time>2021-07-17T11:28:21Z</time><extensions><speed>0.628453</speed><course>241.853012</course><hAcc>0.887625</hAcc><vAcc>0.711765</vAcc></extensions></trkpt>
      <trkpt lon="-4.143262" lat="53.002807"><ele>647.427856</ele><time>2021-07-17T11:28:22Z</time><extensions><speed>0.621805</speed><course>247.017685</course><hAcc>0.887548</hAcc><vAcc>0.711502</vAcc></extensions></trkpt>
      <trkpt lon="-4.143261" lat="53.002812"><ele>647.161011</ele><time>2021-07-17T11:28:23Z</time><extensions><speed>0.613522</speed><course>242.793106</course><hAcc>0.887466</hAcc><vAcc>0.711226</vAcc></extensions></trkpt>
      <trkpt lon="-4.143261" lat="53.002818"><ele>646.900757</ele><time>2021-07-17T11:28:24Z</time><extensions><speed>0.603753</speed><course>241.528748</course><hAcc>0.887382</hAcc><vAcc>0.710943</vAcc></extensions></trkpt>
      <trkpt lon="-4.143260" lat="53.002823"><ele>646.647827</ele><time>2021-07-17T11:28:25Z</time><extensions><speed>0.592967</speed><course>239.773132</course><hAcc>0.887300</hAcc><vAcc>0.710657</vAcc></extensions></trkpt>
      <trkpt lon="-4.143259" lat="53.002828"><ele>646.404114</ele><time>2021-07-17T11:28:26Z</time><extensions><speed>0.579421</speed><course>215.204285</course><hAcc>0.887188</hAcc><vAcc>0.710313</vAcc></extensions></trkpt>
      <trkpt lon="-4.143259" lat="53.002833"><ele>646.168091</ele><time>2021-07-17T11:28:27Z</time><extensions><speed>0.566942</speed><course>192.608246</course><hAcc>0.887079</hAcc><vAcc>0.709967</vAcc></extensions></trkpt>
      <trkpt lon="-4.143259" lat="53.002839"><ele>645.939758</ele><time>2021-07-17T11:28:28Z</time><extensions><speed>0.554536</speed><course>196.818375</course><hAcc>0.886970</hAcc><vAcc>0.709622</vAcc></extensions></trkpt>
      <trkpt lon="-4.143259" lat="53.002843"><ele>645.718689</ele><time>2021-07-17T11:28:29Z</time><extensions><speed>0.542878</speed><course>200.564194</course><hAcc>0.886858</hAcc><vAcc>0.709278</vAcc></extensions></trkpt>
      <trkpt lon="-4.143259" lat="53.002848"><ele>645.504395</ele><time>2021-07-17T11:28:30Z</time><extensions><speed>0.532522</speed><course>224.718231</course><hAcc>0.886742</hAcc><vAcc>0.708930</vAcc></extensions></trkpt>
      <trkpt lon="-4.143259" lat="53.002853"><ele>645.296692</ele><time>2021-07-17T11:28:31Z</time><extensions><speed>0.523961</speed><course>228.969803</course><hAcc>0.886619</hAcc><vAcc>0.708571</vAcc></extensions></trkpt>
      <trkpt lon="-4.143260" lat="53.002858"><ele>645.095276</ele><time>2021-07-17T11:28:32Z</time><extensions><speed>0.517869</speed><course>250.366501</course><hAcc>0.886488</hAcc><vAcc>0.708195</vAcc></extensions></trkpt>
      <trkpt lon="-4.143262" lat="53.002862"><ele>644.899841</ele><time>2021-07-17T11:28:33Z</time><extensions><speed>0.514781</speed><course>-1.000000</course><hAcc>0.886348</hAcc><vAcc>0.707795</vAcc></extensions></trkpt>
      <trkpt lon="-4.143264" lat="53.002867"><ele>644.710083</ele><time>2021-07-17T11:28:34Z</time><extensions><speed>0.514691</speed><course>232.063629</course><hAcc>0.886200</hAcc><vAcc>0.707362</vAcc></extensions></trkpt>
      <trkpt lon="-4.143266" lat="53.002871"><ele>644.525818</ele><time>2021-07-17T11:28:35Z</time><extensions><speed>0.517019</speed><course>232.063614</course><hAcc>0.886041</hAcc><vAcc>0.706888</vAcc></extensions></trkpt>
      <trkpt lon="-4.143268" lat="53.002876"><ele>644.346680</ele><time>2021-07-17T11:28:36Z</time><extensions><speed>0.520683</speed><course>232.063614</course><hAcc>0.885874</hAcc><vAcc>0.706369</vAcc></extensions></trkpt>
      <trkpt lon="-4.143271" lat="53.002880"><ele>644.171692</ele><time>2021-07-17T11:28:37Z</time><extensions><speed>0.524471</speed><course>232.063599</course><hAcc>0.885699</hAcc><vAcc>0.705800</vAcc></extensions></trkpt>
      <trkpt lon="-4.143274" lat="53.002884"><ele>643.999451</ele><time>2021-07-17T11:28:38Z</time><extensions><speed>0.527104</speed><course>232.063599</course><hAcc>0.885517</hAcc><vAcc>0.705187</vAcc></extensions></trkpt>
      <trkpt lon="-4.143277" lat="53.002889"><ele>643.828186</ele><time>2021-07-17T11:28:39Z</time><extensions><speed>0.527811</speed><course>232.063583</course><hAcc>0.885332</hAcc><vAcc>0.704548</vAcc></extensions></trkpt>
      <trkpt lon="-4.143280" lat="53.002893"><ele>643.656250</ele><time>2021-07-17T11:28:40Z</time><extensions><speed>0.526733</speed><course>232.063583</course><hAcc>0.885146</hAcc><vAcc>0.703906</vAcc></extensions></trkpt>
      <trkpt lon="-4.143283" lat="53.002898"><ele>643.482117</ele><time>2021-07-17T11:28:41Z</time><extensions><speed>0.524518</speed><course>248.555511</course><hAcc>0.884960</hAcc><vAcc>0.703284</vAcc></extensions></trkpt>
      <trkpt lon="-4.143285" lat="53.002902"><ele>643.304626</ele><time>2021-07-17T11:28:42Z</time><extensions><speed>0.522020</speed><course>214.727661</course><hAcc>0.884776</hAcc><vAcc>0.702699</vAcc></extensions></trkpt>
      <trkpt lon="-4.143288" lat="53.002906"><ele>643.122864</ele><time>2021-07-17T11:28:43Z</time><extensions><speed>0.519615</speed><course>215.656113</course><hAcc>0.884595</hAcc><vAcc>0.702152</vAcc></extensions></trkpt>
      <trkpt lon="-4.143290" lat="53.002911"><ele>642.936218</ele><time>2021-07-17T11:28:44Z</time><extensions><speed>0.517851</speed><course>205.637772</course><hAcc>0.884415</hAcc><vAcc>0.701630</vAcc></extensions></trkpt>
      <trkpt lon="-4.143291" lat="53.002915"><ele>642.744385</ele><time>2021-07-17T11:28:45Z</time><extensions><speed>0.517588</speed><course>201.575424</course><hAcc>0.884236</hAcc><vAcc>0.701117</vAcc></extensions></trkpt>
      <trkpt lon="-4.143293" lat="53.002920"><ele>642.547363</ele><time>2021-07-17T11:28:46Z</time><extensions><speed>0.519077</speed><course>196.854248</course><hAcc>0.884057</hAcc><vAcc>0.700595</vAcc></extensions></trkpt>
      <trkpt lon="-4.143294" lat="53.002925"><ele>642.345398</ele><time>2021-07-17T11:28:47Z</time><extensions><speed>0.522297</speed><course>198.264053</course><hAcc>0.883877</hAcc><vAcc>0.700051</vAcc></extensions></trkpt>
      <trkpt lon="-4.143294" lat="53.002929"><ele>642.138489</ele><time>2021-07-17T11:28:48Z</time><extensions><speed>0.527235</speed><course>198.636932</course><hAcc>0.883697</hAcc><vAcc>0.699479</vAcc></extensions></trkpt>
      <trkpt lon="-4.143295" lat="53.002934"><ele>641.926392</ele><time>2021-07-17T11:28:49Z</time><extensions><speed>0.533756</speed><course>192.727798</course><hAcc>0.883519</hAcc><vAcc>0.698883</vAcc></extensions></trkpt>
      <trkpt lon="-4.143295" lat="53.002939"><ele>641.708618</ele><time>2021-07-17T11:28:50Z</time><extensions><speed>0.541700</speed><course>184.691818</course><hAcc>0.883347</hAcc><vAcc>0.698281</vAcc></extensions></trkpt>
      <trkpt lon="-4.143295" lat="53.002944"><ele>641.484741</ele><time>2021-07-17T11:28:51Z</time><extensions><speed>0.550935</speed><course>177.917740</course><hAcc>0.883186</hAcc><vAcc>0.697697</vAcc></extensions></trkpt>
      <trkpt lon="-4.143295" lat="53.002949"><ele>641.254761</ele><time>2021-07-17T11:28:52Z</time><extensions><speed>0.561280</speed><course>169.935883</course><hAcc>0.883041</hAcc><vAcc>0.697165</vAcc></extensions></trkpt>
      <trkpt lon="-4.143294" lat="53.002954"><ele>641.018738</ele><time>2021-07-17T11:28:53Z</time><extensions><speed>0.572432</speed><course>168.290512</course><hAcc>0.882919</hAcc><vAcc>0.696719</vAcc></extensions></trkpt>
      <trkpt lon="-4.143294" lat="53.002959"><ele>640.777222</ele><time>2021-07-17T11:28:54Z</time><extensions><speed>0.583587</speed><course>175.847488</course><hAcc>0.882824</hAcc><vAcc>0.696385</vAcc></extensions></trkpt>
      <trkpt lon="-4.143294" lat="53.002964"><ele>640.531250</ele><time>2021-07-17T11:28:55Z</time><extensions><speed>0.593427</speed><course>182.489380</course><hAcc>0.882759</hAcc><vAcc>0.696177</vAcc></extensions></trkpt>
      <trkpt lon="-4.143293" lat="53.002970"><ele>640.282593</ele><time>2021-07-17T11:28:56Z</time><extensions><speed>0.600498</speed><course>193.224472</course><hAcc>0.882726</hAcc><vAcc>0.696091</vAcc></extensions></trkpt>
      <trkpt lon="-4.143292" lat="53.002975"><ele>640.033630</ele><time>2021-07-17T11:28:57Z</time><extensions><speed>0.603830</speed><course>210.457108</course><hAcc>0.882723</hAcc><vAcc>0.696113</vAcc></extensions></trkpt>
      <trkpt lon="-4.143291" lat="53.002981"><ele>639.786865</ele><time>2021-07-17T11:28:58Z</time><extensions><speed>0.603371</speed><course>227.054108</course><hAcc>0.882749</hAcc><vAcc>0.696230</vAcc></extensions></trkpt>
      <trkpt lon="-4.143290" lat="53.002986"><ele>639.543701</ele><time>2021-07-17T11:28:59Z</time><extensions><speed>0.599150</speed><course>247.666534</course><hAcc>0.882800</hAcc><vAcc>0.696424</vAcc></extensions></trkpt>
      <trkpt lon="-4.143289" lat="53.002991"><ele>639.305420</ele><time>2021-07-17T11:29:00Z</time><extensions><speed>0.591506</speed><course>261.197876</course><hAcc>0.882873</hAcc><vAcc>0.696682</vAcc></extensions></trkpt>
      <trkpt lon="-4.143288" lat="53.002996"><ele>639.073364</ele><time>2021-07-17T11:29:01Z</time><extensions><speed>0.581075</speed><course>263.217255</course><hAcc>0.882964</hAcc><vAcc>0.696989</vAcc></extensions></trkpt>
      <trkpt lon="-4.143287" lat="53.003002"><ele>638.848694</ele><time>2021-07-17T11:29:02Z</time><extensions><speed>0.568537</speed><course>271.463165</course><hAcc>0.883069</hAcc><vAcc>0.697336</vAcc></extensions></trkpt>
      <trkpt lon="-4.143286" lat="53.003007"><ele>638.631836</ele><time>2021-07-17T11:29:03Z</time><extensions><speed>0.554866</speed><course>281.991608</course><hAcc>0.883183</hAcc><vAcc>0.697715</vAcc></extensions></trkpt>
      <trkpt lon="-4.143285" lat="53.003011"><ele>638.422119</ele><time>2021-07-17T11:29:04Z</time><extensions><speed>0.540865</speed><course>285.895782</course><hAcc>0.883301</hAcc><vAcc>0.698123</vAcc></extensions></trkpt>
      <trkpt lon="-4.143284" lat="53.003016"><ele>638.218506</ele><time>2021-07-17T11:29:05Z</time><extensions><speed>0.526931</speed><course>287.327179</course><hAcc>0.883418</hAcc><vAcc>0.698548</vAcc></extensions></trkpt>
      <trkpt lon="-4.143283" lat="53.003021"><ele>638.019775</ele><time>2021-07-17T11:29:06Z</time><extensions><speed>0.513544</speed><course>297.396240</course><hAcc>0.883528</hAcc><vAcc>0.698971</vAcc></extensions></trkpt>
      <trkpt lon="-4.143282" lat="53.003025"><ele>637.825134</ele><time>2021-07-17T11:29:07Z</time><extensions><speed>0.501199</speed><course>299.473175</course><hAcc>0.883625</hAcc><vAcc>0.699360</vAcc></extensions></trkpt>
      <trkpt lon="-4.143282" lat="53.003030"><ele>637.633728</ele><time>2021-07-17T11:29:08Z</time><extensions><speed>0.490129</speed><course>297.683289</course><hAcc>0.883702</hAcc><vAcc>0.699680</vAcc></extensions></trkpt>
      <trkpt lon="-4.143281" lat="53.003034"><ele>637.444519</ele><time>2021-07-17T11:29:09Z</time><extensions><speed>0.480693</speed><course>292.365356</course><hAcc>0.883755</hAcc><vAcc>0.699897</vAcc></extensions></trkpt>
      <trkpt lon="-4.143281" lat="53.003038"><ele>637.256409</ele><time>2021-07-17T11:29:10Z</time><extensions><speed>0.472991</speed><course>291.092651</course><hAcc>0.883781</hAcc><vAcc>0.699991</vAcc></extensions></trkpt>
      <trkpt lon="-4.143282" lat="53.003043"><ele>637.068420</ele><time>2021-07-17T11:29:11Z</time><extensions><speed>0.467334</speed><course>297.007721</course><hAcc>0.883779</hAcc><vAcc>0.699960</vAcc></extensions></trkpt>
      <trkpt lon="-4.143282" lat="53.003047"><ele>636.879700</ele><time>2021-07-17T11:29:12Z</time><extensions><speed>0.464590</speed><course>291.539093</course><hAcc>0.883749</hAcc><vAcc>0.699811</vAcc></extensions></trkpt>
      <trkpt lon="-4.143284" lat="53.003051"><ele>636.689331</ele><time>2021-07-17T11:29:13Z</time><extensions><speed>0.465265</speed><course>293.314819</course><hAcc>0.883696</hAcc><vAcc>0.699566</vAcc></extensions></trkpt>
      <trkpt lon="-4.143285" lat="53.003055"><ele>636.496582</ele><time>2021-07-17T11:29:14Z</time><extensions><speed>0.469240</speed><course>297.043213</course><hAcc>0.883623</hAcc><vAcc>0.699257</vAcc></extensions></trkpt>
      <trkpt lon="-4.143288" lat="53.003059"><ele>636.301025</ele><time>2021-07-17T11:29:15Z</time><extensions><speed>0.476024</speed><course>301.573547</course><hAcc>0.883538</hAcc><vAcc>0.698920</vAcc></extensions></trkpt>
      <trkpt lon="-4.143290" lat="53.003063"><ele>636.102478</ele><time>2021-07-17T11:29:16Z</time><extensions><speed>0.484470</speed><course>305.542847</course><hAcc>0.883447</hAcc><vAcc>0.698585</vAcc></extensions></trkpt>
      <trkpt lon="-4.143294" lat="53.003067"><ele>635.901001</ele><time>2021-07-17T11:29:17Z</time><extensions><speed>0.493142</speed><course>304.461029</course><hAcc>0.883354</hAcc><vAcc>0.698273</vAcc></extensions></trkpt>
      <trkpt lon="-4.143297" lat="53.003071"><ele>635.697144</ele><time>2021-07-17T11:29:18Z</time><extensions><speed>0.500938</speed><course>304.519958</course><hAcc>0.883264</hAcc><vAcc>0.697988</vAcc></extensions></trkpt>
      <trkpt lon="-4.143301" lat="53.003075"><ele>635.491089</ele><time>2021-07-17T11:29:19Z</time><extensions><speed>0.507040</speed><course>306.835541</course><hAcc>0.883181</hAcc><vAcc>0.697720</vAcc></extensions></trkpt>
      <trkpt lon="-4.143305" lat="53.003079"><ele>635.283142</ele><time>2021-07-17T11:29:20Z</time><extensions><speed>0.511153</speed><course>312.924469</course><hAcc>0.883107</hAcc><vAcc>0.697469</vAcc></extensions></trkpt>
      <trkpt lon="-4.143310" lat="53.003082"><ele>635.073547</ele><time>2021-07-17T11:29:21Z</time><extensions><speed>0.513604</speed><course>313.121582</course><hAcc>0.883046</hAcc><vAcc>0.697242</vAcc></extensions></trkpt>
      <trkpt lon="-4.143314" lat="53.003086"><ele>634.862488</ele><time>2021-07-17T11:29:22Z</time><extensions><speed>0.515193</speed><course>312.363678</course><hAcc>0.883001</hAcc><vAcc>0.697058</vAcc></extensions></trkpt>
      <trkpt lon="-4.143318" lat="53.003090"><ele>634.650330</ele><time>2021-07-17T11:29:23Z</time><extensions><speed>0.516592</speed><course>309.905548</course><hAcc>0.882975</hAcc><vAcc>0.696937</vAcc></extensions></trkpt>
      <trkpt lon="-4.143323" lat="53.003094"><ele>634.436829</ele><time>2021-07-17T11:29:24Z</time><extensions><speed>0.517950</speed><course>308.597687</course><hAcc>0.882968</hAcc><vAcc>0.696893</vAcc></extensions></trkpt>
      <trkpt lon="-4.143327" lat="53.003098"><ele>634.221375</ele><time>2021-07-17T11:29:25Z</time><extensions><speed>0.518851</speed><course>307.103394</course><hAcc>0.882980</hAcc><vAcc>0.696935</vAcc></extensions></trkpt>
      <trkpt lon="-4.143331" lat="53.003102"><ele>634.003601</ele><time>2021-07-17T11:29:26Z</time><extensions><speed>0.518584</speed><course>306.897400</course><hAcc>0.883012</hAcc><vAcc>0.697062</vAcc></extensions></trkpt>
      <trkpt lon="-4.143335" lat="53.003106"><ele>633.783447</ele><time>2021-07-17T11:29:27Z</time><extensions><speed>0.516089</speed><course>302.152618</course><hAcc>0.883059</hAcc><vAcc>0.697263</vAcc></extensions></trkpt>
      <trkpt lon="-4.143339" lat="53.003110"><ele>633.561707</ele><time>2021-07-17T11:29:28Z</time><extensions><speed>0.510341</speed><course>297.726410</course><hAcc>0.883117</hAcc><vAcc>0.697509</vAcc></extensions></trkpt>
      <trkpt lon="-4.143343" lat="53.003114"><ele>633.339722</ele><time>2021-07-17T11:29:29Z</time><extensions><speed>0.500962</speed><course>300.194183</course><hAcc>0.883183</hAcc><vAcc>0.697763</vAcc></extensions></trkpt>
      <trkpt lon="-4.143346" lat="53.003117"><ele>633.119019</ele><time>2021-07-17T11:29:31Z</time><extensions><speed>0.488338</speed><course>297.151825</course><hAcc>0.883232</hAcc><vAcc>0.697973</vAcc></extensions></trkpt>
      <trkpt lon="-4.143349" lat="53.003121"><ele>632.901611</ele><time>2021-07-17T11:29:32Z</time><extensions><speed>0.473431</speed><course>298.399384</course><hAcc>0.883260</hAcc><vAcc>0.698111</vAcc></extensions></trkpt>
      <trkpt lon="-4.143351" lat="53.003125"><ele>632.688049</ele><time>2021-07-17T11:29:33Z</time><extensions><speed>0.457161</speed><course>300.837921</course><hAcc>0.883282</hAcc><vAcc>0.698182</vAcc></extensions></trkpt>
      <trkpt lon="-4.143354" lat="53.003129"><ele>632.478333</ele><time>2021-07-17T11:29:34Z</time><extensions><speed>0.440569</speed><course>299.844330</course><hAcc>0.883296</hAcc><vAcc>0.698198</vAcc></extensions></trkpt>
      <trkpt lon="-4.143355" lat="53.003133"><ele>632.272522</ele><time>2021-07-17T11:29:35Z</time><extensions><speed>0.424337</speed><course>300.001373</course><hAcc>0.883302</hAcc><vAcc>0.698181</vAcc></extensions></trkpt>
      <trkpt lon="-4.143357" lat="53.003137"><ele>632.070801</ele><time>2021-07-17T11:29:36Z</time><extensions><speed>0.409224</speed><course>294.568817</course><hAcc>0.883301</hAcc><vAcc>0.698150</vAcc></extensions></trkpt>
      <trkpt lon="-4.143358" lat="53.003140"><ele>631.873718</ele><time>2021-07-17T11:29:37Z</time><extensions><speed>0.395867</speed><course>300.687103</course><hAcc>0.883292</hAcc><vAcc>0.698112</vAcc></extensions></trkpt>
      <trkpt lon="-4.143358" lat="53.003144"><ele>631.681396</ele><time>2021-07-17T11:29:38Z</time><extensions><speed>0.384226</speed><course>297.691925</course><hAcc>0.883275</hAcc><vAcc>0.698068</vAcc></extensions></trkpt>
      <trkpt lon="-4.143358" lat="53.003147"><ele>631.493347</ele><time>2021-07-17T11:29:39Z</time><extensions><speed>0.374063</speed><course>293.928223</course><hAcc>0.883248</hAcc><vAcc>0.698009</vAcc></extensions></trkpt>
      <trkpt lon="-4.143358" lat="53.003150"><ele>631.309143</ele><time>2021-07-17T11:29:40Z</time><extensions><speed>0.365058</speed><course>297.041656</course><hAcc>0.883209</hAcc><vAcc>0.697922</vAcc></extensions></trkpt>
      <trkpt lon="-4.143358" lat="53.003154"><ele>631.128479</ele><time>2021-07-17T11:29:41Z</time><extensions><speed>0.356891</speed><course>298.722290</course><hAcc>0.883155</hAcc><vAcc>0.697794</vAcc></extensions></trkpt>
      <trkpt lon="-4.143358" lat="53.003157"><ele>630.951111</ele><time>2021-07-17T11:29:42Z</time><extensions><speed>0.349257</speed><course>296.674316</course><hAcc>0.883083</hAcc><vAcc>0.697614</vAcc></extensions></trkpt>
      <trkpt lon="-4.143358" lat="53.003160"><ele>630.776917</ele><time>2021-07-17T11:29:43Z</time><extensions><speed>0.341974</speed><course>301.147156</course><hAcc>0.882989</hAcc><vAcc>0.697372</vAcc></extensions></trkpt>
      <trkpt lon="-4.143359" lat="53.003163"><ele>630.605774</ele><time>2021-07-17T11:29:44Z</time><extensions><speed>0.335392</speed><course>301.618805</course><hAcc>0.882871</hAcc><vAcc>0.697052</vAcc></extensions></trkpt>
      <trkpt lon="-4.143359" lat="53.003166"><ele>630.437439</ele><time>2021-07-17T11:29:45Z</time><extensions><speed>0.330485</speed><course>300.678009</course><hAcc>0.882725</hAcc><vAcc>0.696637</vAcc></extensions></trkpt>
      <trkpt lon="-4.143360" lat="53.003169"><ele>630.271729</ele><time>2021-07-17T11:29:46Z</time><extensions><speed>0.328720</speed><course>306.078644</course><hAcc>0.882548</hAcc><vAcc>0.696108</vAcc></extensions></trkpt>
      <trkpt lon="-4.143361" lat="53.003172"><ele>630.107483</ele><time>2021-07-17T11:29:47Z</time><extensions><speed>0.331421</speed><course>302.099213</course><hAcc>0.882340</hAcc><vAcc>0.695456</vAcc></extensions></trkpt>
      <trkpt lon="-4.143363" lat="53.003175"><ele>629.943237</ele><time>2021-07-17T11:29:48Z</time><extensions><speed>0.339218</speed><course>298.253754</course><hAcc>0.882101</hAcc><vAcc>0.694683</vAcc></extensions></trkpt>
      <trkpt lon="-4.143365" lat="53.003177"><ele>629.777344</ele><time>2021-07-17T11:29:49Z</time><extensions><speed>0.352058</speed><course>299.772583</course><hAcc>0.881834</hAcc><vAcc>0.693804</vAcc></extensions></trkpt>
      <trkpt lon="-4.143367" lat="53.003180"><ele>629.608337</ele><time>2021-07-17T11:29:50Z</time><extensions><speed>0.369204</speed><course>299.946075</course><hAcc>0.881542</hAcc><vAcc>0.692838</vAcc></extensions></trkpt>
      <trkpt lon="-4.143369" lat="53.003183"><ele>629.434814</ele><time>2021-07-17T11:29:51Z</time><extensions><speed>0.389547</speed><course>303.968170</course><hAcc>0.881229</hAcc><vAcc>0.691807</vAcc></extensions></trkpt>
      <trkpt lon="-4.143372" lat="53.003186"><ele>629.255371</ele><time>2021-07-17T11:29:52Z</time><extensions><speed>0.411751</speed><course>302.223755</course><hAcc>0.880899</hAcc><vAcc>0.690734</vAcc></extensions></trkpt>
      <trkpt lon="-4.143376" lat="53.003190"><ele>629.069092</ele><time>2021-07-17T11:29:53Z</time><extensions><speed>0.434057</speed><course>303.590851</course><hAcc>0.880555</hAcc><vAcc>0.689643</vAcc></extensions></trkpt>
      <trkpt lon="-4.143379" lat="53.003193"><ele>628.875427</ele><time>2021-07-17T11:29:54Z</time><extensions><speed>0.455004</speed><course>302.656281</course><hAcc>0.880199</hAcc><vAcc>0.688539</vAcc></extensions></trkpt>
      <trkpt lon="-4.143382" lat="53.003197"><ele>628.674255</ele><time>2021-07-17T11:29:55Z</time><extensions><speed>0.474781</speed><course>307.857574</course><hAcc>0.879829</hAcc><vAcc>0.687407</vAcc></extensions></trkpt>
      <trkpt lon="-4.143386" lat="53.003201"><ele>628.465210</ele><time>2021-07-17T11:29:56Z</time><extensions><speed>0.493950</speed><course>306.241272</course><hAcc>0.879443</hAcc><vAcc>0.686226</vAcc></extensions></trkpt>
      <trkpt lon="-4.143390" lat="53.003204"><ele>628.247437</ele><time>2021-07-17T11:29:57Z</time><extensions><speed>0.512397</speed><course>302.560516</course><hAcc>0.879040</hAcc><vAcc>0.684983</vAcc></extensions></trkpt>
      <trkpt lon="-4.143394" lat="53.003209"><ele>628.019836</ele><time>2021-07-17T11:29:58Z</time><extensions><speed>0.529992</speed><course>304.207947</course><hAcc>0.878619</hAcc><vAcc>0.683673</vAcc></extensions></trkpt>
      <trkpt lon="-4.143397" lat="53.003213"><ele>627.782104</ele><time>2021-07-17T11:29:59Z</time><extensions><speed>0.546233</speed><course>304.678192</course><hAcc>0.878182</hAcc><vAcc>0.682304</vAcc></extensions></trkpt>
      <trkpt lon="-4.143401" lat="53.003217"><ele>627.534973</ele><time>2021-07-17T11:30:00Z</time><extensions><speed>0.560710</speed><course>300.816559</course><hAcc>0.877730</hAcc><vAcc>0.680887</vAcc></extensions></trkpt>
      <trkpt lon="-4.143405" lat="53.003222"><ele>627.279602</ele><time>2021-07-17T11:30:01Z</time><extensions><speed>0.573376</speed><course>302.457642</course><hAcc>0.877268</hAcc><vAcc>0.679430</vAcc></extensions></trkpt>
      <trkpt lon="-4.143409" lat="53.003226"><ele>627.017700</ele><time>2021-07-17T11:30:02Z</time><extensions><speed>0.584679</speed><course>303.405792</course><hAcc>0.876798</hAcc><vAcc>0.677940</vAcc></extensions></trkpt>
      <trkpt lon="-4.143414" lat="53.003231"><ele>626.751221</ele><time>2021-07-17T11:30:03Z</time><extensions><speed>0.595083</speed><course>305.179382</course><hAcc>0.876328</hAcc><vAcc>0.676435</vAcc></extensions></trkpt>
      <trkpt lon="-4.143418" lat="53.003236"><ele>626.482544</ele><time>2021-07-17T11:30:04Z</time><extensions><speed>0.604621</speed><course>301.811188</course><hAcc>0.875865</hAcc><vAcc>0.674939</vAcc></extensions></trkpt>
      <trkpt lon="-4.143423" lat="53.003240"><ele>626.213318</ele><time>2021-07-17T11:30:05Z</time><extensions><speed>0.613484</speed><course>294.111877</course><hAcc>0.875422</hAcc><vAcc>0.673489</vAcc></extensions></trkpt>
      <trkpt lon="-4.143427" lat="53.003245"><ele>625.944885</ele><time>2021-07-17T11:30:06Z</time><extensions><speed>0.621853</speed><course>291.186249</course><hAcc>0.875012</hAcc><vAcc>0.672134</vAcc></extensions></trkpt>
      <trkpt lon="-4.143432" lat="53.003250"><ele>625.679077</ele><time>2021-07-17T11:30:07Z</time><extensions><speed>0.629452</speed><course>291.833313</course><hAcc>0.874651</hAcc><vAcc>0.670929</vAcc></extensions></trkpt>
      <trkpt lon="-4.143438" lat="53.003255"><ele>625.417847</ele><time>2021-07-17T11:30:08Z</time><extensions><speed>0.635376</speed><course>293.198639</course><hAcc>0.874353</hAcc><vAcc>0.669932</vAcc></extensions></trkpt>
      <trkpt lon="-4.143443" lat="53.003259"><ele>625.161987</ele><time>2021-07-17T11:30:09Z</time><extensions><speed>0.638334</speed><course>297.953094</course><hAcc>0.874132</hAcc><vAcc>0.669198</vAcc></extensions></trkpt>
      <trkpt lon="-4.143449" lat="53.003264"><ele>624.911804</ele><time>2021-07-17T11:30:10Z</time><extensions><speed>0.637259</speed><course>294.998413</course><hAcc>0.874001</hAcc><vAcc>0.668769</vAcc></extensions></trkpt>
      <trkpt lon="-4.143454" lat="53.003269"><ele>624.667297</ele><time>2021-07-17T11:30:11Z</time><extensions><speed>0.631383</speed><course>290.333923</course><hAcc>0.873966</hAcc><vAcc>0.668683</vAcc></extensions></trkpt>
      <trkpt lon="-4.143460" lat="53.003273"><ele>624.428467</ele><time>2021-07-17T11:30:12Z</time><extensions><speed>0.620916</speed><course>297.336884</course><hAcc>0.874032</hAcc><vAcc>0.668955</vAcc></extensions></trkpt>
      <trkpt lon="-4.143465" lat="53.003278"><ele>624.194824</ele><time>2021-07-17T11:30:13Z</time><extensions><speed>0.607782</speed><course>291.763641</course><hAcc>0.874193</hAcc><vAcc>0.669555</vAcc></extensions></trkpt>
      <trkpt lon="-4.143470" lat="53.003282"><ele>623.965820</ele><time>2021-07-17T11:30:14Z</time><extensions><speed>0.594483</speed><course>293.588959</course><hAcc>0.874432</hAcc><vAcc>0.670406</vAcc></extensions></trkpt>
      <trkpt lon="-4.143475" lat="53.003286"><ele>623.741089</ele><time>2021-07-17T11:30:15Z</time><extensions><speed>0.582743</speed><course>298.534668</course><hAcc>0.874729</hAcc><vAcc>0.671417</vAcc></extensions></trkpt>
      <trkpt lon="-4.143480" lat="53.003291"><ele>623.520874</ele><time>2021-07-17T11:30:16Z</time><extensions><speed>0.573500</speed><course>294.834351</course><hAcc>0.875070</hAcc><vAcc>0.672514</vAcc></extensions></trkpt>
      <trkpt lon="-4.143485" lat="53.003295"><ele>623.305725</ele><time>2021-07-17T11:30:17Z</time><extensions><speed>0.567415</speed><course>297.698059</course><hAcc>0.875443</hAcc><vAcc>0.673664</vAcc></extensions></trkpt>
      <trkpt lon="-4.143489" lat="53.003299"><ele>623.096558</ele><time>2021-07-17T11:30:18Z</time><extensions><speed>0.564483</speed><course>298.511444</course><hAcc>0.875849</hAcc><vAcc>0.674881</vAcc></extensions></trkpt>
      <trkpt lon="-4.143494" lat="53.003303"><ele>622.894348</ele><time>2021-07-17T11:30:19Z</time><extensions><speed>0.564126</speed><course>303.054443</course><hAcc>0.876290</hAcc><vAcc>0.676215</vAcc></extensions></trkpt>
      <trkpt lon="-4.143499" lat="53.003307"><ele>622.699280</ele><time>2021-07-17T11:30:20Z</time><extensions><speed>0.565980</speed><course>300.594757</course><hAcc>0.876774</hAcc><vAcc>0.677720</vAcc></extensions></trkpt>
      <trkpt lon="-4.143504" lat="53.003312"><ele>622.510437</ele><time>2021-07-17T11:30:21Z</time><extensions><speed>0.569999</speed><course>303.489990</course><hAcc>0.877301</hAcc><vAcc>0.679422</vAcc></extensions></trkpt>
      <trkpt lon="-4.143509" lat="53.003316"><ele>622.325989</ele><time>2021-07-17T11:30:22Z</time><extensions><speed>0.576723</speed><course>307.296783</course><hAcc>0.877866</hAcc><vAcc>0.681311</vAcc></extensions></trkpt>
      <trkpt lon="-4.143514" lat="53.003320"><ele>622.144348</ele><time>2021-07-17T11:30:22Z</time><extensions><speed>0.586953</speed><course>306.846466</course><hAcc>0.878476</hAcc><vAcc>0.683355</vAcc></extensions></trkpt>
      <trkpt lon="-4.143519" lat="53.003324"><ele>621.963684</ele><time>2021-07-17T11:30:23Z</time><extensions><speed>0.601030</speed><course>314.303711</course><hAcc>0.879117</hAcc><vAcc>0.685486</vAcc></extensions></trkpt>
      <trkpt lon="-4.143525" lat="53.003329"><ele>621.782715</ele><time>2021-07-17T11:30:24Z</time><extensions><speed>0.618833</speed><course>316.753265</course><hAcc>0.879753</hAcc><vAcc>0.687600</vAcc></extensions></trkpt>
      <trkpt lon="-4.143530" lat="53.003333"><ele>621.599976</ele><time>2021-07-17T11:30:25Z</time><extensions><speed>0.640195</speed><course>312.101562</course><hAcc>0.880368</hAcc><vAcc>0.689615</vAcc></extensions></trkpt>
      <trkpt lon="-4.143536" lat="53.003338"><ele>621.413635</ele><time>2021-07-17T11:30:26Z</time><extensions><speed>0.664392</speed><course>310.983948</course><hAcc>0.880946</hAcc><vAcc>0.691467</vAcc></extensions></trkpt>
      <trkpt lon="-4.143542" lat="53.003343"><ele>621.222473</ele><time>2021-07-17T11:30:27Z</time><extensions><speed>0.689904</speed><course>316.824890</course><hAcc>0.881476</hAcc><vAcc>0.693118</vAcc></extensions></trkpt>
      <trkpt lon="-4.143548" lat="53.003348"><ele>621.025452</ele><time>2021-07-17T11:30:28Z</time><extensions><speed>0.715088</speed><course>324.005005</course><hAcc>0.881951</hAcc><vAcc>0.694560</vAcc></extensions></trkpt>
      <trkpt lon="-4.143555" lat="53.003353"><ele>620.821777</ele><time>2021-07-17T11:30:29Z</time><extensions><speed>0.739239</speed><course>322.091736</course><hAcc>0.882368</hAcc><vAcc>0.695805</vAcc></extensions></trkpt>
      <trkpt lon="-4.143561" lat="53.003359"><ele>620.610596</ele><time>2021-07-17T11:30:30Z</time><extensions><speed>0.762280</speed><course>322.830170</course><hAcc>0.882726</hAcc><vAcc>0.696881</vAcc></extensions></trkpt>
      <trkpt lon="-4.143567" lat="53.003365"><ele>620.391235</ele><time>2021-07-17T11:30:31Z</time><extensions><speed>0.783974</speed><course>325.823517</course><hAcc>0.883027</hAcc><vAcc>0.697808</vAcc></extensions></trkpt>
      <trkpt lon="-4.143573" lat="53.003371"><ele>620.163208</ele><time>2021-07-17T11:30:32Z</time><extensions><speed>0.804113</speed><course>331.853210</course><hAcc>0.883290</hAcc><vAcc>0.698606</vAcc></extensions></trkpt>
      <trkpt lon="-4.143578" lat="53.003377"><ele>619.925537</ele><time>2021-07-17T11:30:33Z</time><extensions><speed>0.823046</speed><course>331.260956</course><hAcc>0.883521</hAcc><vAcc>0.699273</vAcc></extensions></trkpt>
      <trkpt lon="-4.143584" lat="53.003384"><ele>619.678101</ele><time>2021-07-17T11:30:34Z</time><extensions><speed>0.840994</speed><course>329.072571</course><hAcc>0.883704</hAcc><vAcc>0.699789</vAcc></extensions></trkpt>
      <trkpt lon="-4.143589" lat="53.003391"><ele>619.421082</ele><time>2021-07-17T11:30:35Z</time><extensions><speed>0.857614</speed><course>325.473938</course><hAcc>0.883848</hAcc><vAcc>0.700153</vAcc></extensions></trkpt>
      <trkpt lon="-4.143593" lat="53.003398"><ele>619.154480</ele><time>2021-07-17T11:30:36Z</time><extensions><speed>0.872531</speed><course>325.383026</course><hAcc>0.883940</hAcc><vAcc>0.700362</vAcc></extensions></trkpt>
      <trkpt lon="-4.143598" lat="53.003406"><ele>618.879333</ele><time>2021-07-17T11:30:37Z</time><extensions><speed>0.885242</speed><course>325.061401</course><hAcc>0.883988</hAcc><vAcc>0.700444</vAcc></extensions></trkpt>
      <trkpt lon="-4.143601" lat="53.003413"><ele>618.595764</ele><time>2021-07-17T11:30:38Z</time><extensions><speed>0.895254</speed><course>325.207275</course><hAcc>0.884018</hAcc><vAcc>0.700452</vAcc></extensions></trkpt>
      <trkpt lon="-4.143604" lat="53.003421"><ele>618.303955</ele><time>2021-07-17T11:30:39Z</time><extensions><speed>0.902284</speed><course>322.410889</course><hAcc>0.884038</hAcc><vAcc>0.700428</vAcc></extensions></trkpt>
      <trkpt lon="-4.143607" lat="53.003429"><ele>618.003479</ele><time>2021-07-17T11:30:40Z</time><extensions><speed>0.906140</speed><course>319.218658</course><hAcc>0.884054</hAcc><vAcc>0.700414</vAcc></extensions></trkpt>
      <trkpt lon="-4.143609" lat="53.003437"><ele>617.694153</ele><time>2021-07-17T11:30:41Z</time><extensions><speed>0.906859</speed><course>319.790588</course><hAcc>0.884071</hAcc><vAcc>0.700436</vAcc></extensions></trkpt>
      <trkpt lon="-4.143610" lat="53.003445"><ele>617.376648</ele><time>2021-07-17T11:30:42Z</time><extensions><speed>0.904776</speed><course>318.972229</course><hAcc>0.884093</hAcc><vAcc>0.700507</vAcc></extensions></trkpt>
      <trkpt lon="-4.143611" lat="53.003454"><ele>617.052368</ele><time>2021-07-17T11:30:43Z</time><extensions><speed>0.900077</speed><course>320.354065</course><hAcc>0.884121</hAcc><vAcc>0.700621</vAcc></extensions></trkpt>
      <trkpt lon="-4.143611" lat="53.003462"><ele>616.723328</ele><time>2021-07-17T11:30:44Z</time><extensions><speed>0.893006</speed><course>320.541016</course><hAcc>0.884156</hAcc><vAcc>0.700768</vAcc></extensions></trkpt>
      <trkpt lon="-4.143611" lat="53.003470"><ele>616.391235</ele><time>2021-07-17T11:30:45Z</time><extensions><speed>0.884101</speed><course>317.906189</course><hAcc>0.884194</hAcc><vAcc>0.700935</vAcc></extensions></trkpt>
      <trkpt lon="-4.143610" lat="53.003477"><ele>616.057312</ele><time>2021-07-17T11:30:46Z</time><extensions><speed>0.873920</speed><course>316.077393</course><hAcc>0.884235</hAcc><vAcc>0.701109</vAcc></extensions></trkpt>
      <trkpt lon="-4.143609" lat="53.003485"><ele>615.722229</ele><time>2021-07-17T11:30:47Z</time><extensions><speed>0.862911</speed><course>307.356537</course><hAcc>0.884275</hAcc><vAcc>0.701273</vAcc></extensions></trkpt>
      <trkpt lon="-4.143607" lat="53.003493"><ele>615.386536</ele><time>2021-07-17T11:30:48Z</time><extensions><speed>0.851476</speed><course>302.004150</course><hAcc>0.884312</hAcc><vAcc>0.701415</vAcc></extensions></trkpt>
      <trkpt lon="-4.143605" lat="53.003500"><ele>615.050781</ele><time>2021-07-17T11:30:49Z</time><extensions><speed>0.839965</speed><course>310.520874</course><hAcc>0.884341</hAcc><vAcc>0.701523</vAcc></extensions></trkpt>
      <trkpt lon="-4.143603" lat="53.003508"><ele>614.715759</ele><time>2021-07-17T11:30:50Z</time><extensions><speed>0.828671</speed><course>307.778412</course><hAcc>0.884362</hAcc><vAcc>0.701591</vAcc></extensions></trkpt>
      <trkpt lon="-4.143601" lat="53.003515"><ele>614.382690</ele><time>2021-07-17T11:30:51Z</time><extensions><speed>0.817871</speed><course>310.132080</course><hAcc>0.884374</hAcc><vAcc>0.701621</vAcc></extensions></trkpt>
      <trkpt lon="-4.143599" lat="53.003522"><ele>614.052795</ele><time>2021-07-17T11:30:52Z</time><extensions><speed>0.807626</speed><course>310.327301</course><hAcc>0.884376</hAcc><vAcc>0.701619</vAcc></extensions></trkpt>
      <trkpt lon="-4.143597" lat="53.003529"><ele>613.727051</ele><time>2021-07-17T11:30:53Z</time><extensions><speed>0.797796</speed><course>308.925873</course><hAcc>0.884368</hAcc><vAcc>0.701587</vAcc></extensions></trkpt>
      <trkpt lon="-4.143594" lat="53.003536"><ele>613.405396</ele><time>2021-07-17T11:30:54Z</time><extensions><speed>0.788284</speed><course>308.955322</course><hAcc>0.884352</hAcc><vAcc>0.701525</vAcc></extensions></trkpt>
      <trkpt lon="-4.143592" lat="53.003543"><ele>613.087463</ele><time>2021-07-17T11:30:55Z</time><extensions><speed>0.779183</speed><course>303.152588</course><hAcc>0.884329</hAcc><vAcc>0.701437</vAcc></extensions></trkpt>
      <trkpt lon="-4.143591" lat="53.003550"><ele>612.772583</ele><time>2021-07-17T11:30:56Z</time><extensions><speed>0.770513</speed><course>313.156525</course><hAcc>0.884303</hAcc><vAcc>0.701329</vAcc></extensions></trkpt>
      <trkpt lon="-4.143589" lat="53.003557"><ele>612.460327</ele><time>2021-07-17T11:30:57Z</time><extensions><speed>0.762386</speed><course>307.864197</course><hAcc>0.884276</hAcc><vAcc>0.701213</vAcc></extensions></trkpt>
      <trkpt lon="-4.143588" lat="53.003564"><ele>612.150635</ele><time>2021-07-17T11:30:58Z</time><extensions><speed>0.754977</speed><course>309.541687</course><hAcc>0.884253</hAcc><vAcc>0.701102</vAcc></extensions></trkpt>
      <trkpt lon="-4.143587" lat="53.003570"><ele>611.843506</ele><time>2021-07-17T11:30:59Z</time><extensions><speed>0.748384</speed><course>312.130341</course><hAcc>0.884236</hAcc><vAcc>0.701009</vAcc></extensions></trkpt>
      <trkpt lon="-4.143587" lat="53.003577"><ele>611.539307</ele><time>2021-07-17T11:31:00Z</time><extensions><speed>0.743004</speed><course>310.268982</course><hAcc>0.884229</hAcc><vAcc>0.700945</vAcc></extensions></trkpt>
      <trkpt lon="-4.143588" lat="53.003584"><ele>611.238464</ele><time>2021-07-17T11:31:01Z</time><extensions><speed>0.739248</speed><course>308.247070</course><hAcc>0.884235</hAcc><vAcc>0.700923</vAcc></extensions></trkpt>
      <trkpt lon="-4.143589" lat="53.003590"><ele>610.941650</ele><time>2021-07-17T11:31:02Z</time><extensions><speed>0.737284</speed><course>304.229858</course><hAcc>0.884257</hAcc><vAcc>0.700960</vAcc></extensions></trkpt>
      <trkpt lon="-4.143590" lat="53.003597"><ele>610.649719</ele><time>2021-07-17T11:31:03Z</time><extensions><speed>0.737221</speed><course>308.310059</course><hAcc>0.884295</hAcc><vAcc>0.701069</vAcc></extensions></trkpt>
      <trkpt lon="-4.143592" lat="53.003603"><ele>610.363098</ele><time>2021-07-17T11:31:04Z</time><extensions><speed>0.739042</speed><course>311.142822</course><hAcc>0.884347</hAcc><vAcc>0.701255</vAcc></extensions></trkpt>
      <trkpt lon="-4.143595" lat="53.003610"><ele>610.081909</ele><time>2021-07-17T11:31:05Z</time><extensions><speed>0.742308</speed><course>305.518036</course><hAcc>0.884410</hAcc><vAcc>0.701506</vAcc></extensions></trkpt>
      <trkpt lon="-4.143599" lat="53.003616"><ele>609.806824</ele><time>2021-07-17T11:31:06Z</time><extensions><speed>0.746552</speed><course>303.061462</course><hAcc>0.884478</hAcc><vAcc>0.701802</vAcc></extensions></trkpt>
      <trkpt lon="-4.143603" lat="53.003622"><ele>609.539124</ele><time>2021-07-17T11:31:07Z</time><extensions><speed>0.751541</speed><course>298.232086</course><hAcc>0.884544</hAcc><vAcc>0.702114</vAcc></extensions></trkpt>
      <trkpt lon="-4.143608" lat="53.003629"><ele>609.280090</ele><time>2021-07-17T11:31:08Z</time><extensions><speed>0.757192</speed><course>289.358276</course><hAcc>0.884600</hAcc><vAcc>0.702408</vAcc></extensions></trkpt>
      <trkpt lon="-4.143614" lat="53.003634"><ele>609.030579</ele><time>2021-07-17T11:31:09Z</time><extensions><speed>0.762949</speed><course>285.924469</course><hAcc>0.884636</hAcc><vAcc>0.702643</vAcc></extensions></trkpt>
      <trkpt lon="-4.143620" lat="53.003640"><ele>608.790222</ele><time>2021-07-17T11:31:10Z</time><extensions><speed>0.768224</speed><course>280.520447</course><hAcc>0.884645</hAcc><vAcc>0.702776</vAcc></extensions></trkpt>
      <trkpt lon="-4.143626" lat="53.003646"><ele>608.558228</ele><time>2021-07-17T11:31:11Z</time><extensions><speed>0.773107</speed><course>286.862061</course><hAcc>0.884620</hAcc><vAcc>0.702767</vAcc></extensions></trkpt>
      <trkpt lon="-4.143633" lat="53.003652"><ele>608.333984</ele><time>2021-07-17T11:31:12Z</time><extensions><speed>0.777658</speed><course>295.700317</course><hAcc>0.884556</hAcc><vAcc>0.702594</vAcc></extensions></trkpt>
      <trkpt lon="-4.143640" lat="53.003657"><ele>608.117188</ele><time>2021-07-17T11:31:13Z</time><extensions><speed>0.782201</speed><course>296.161560</course><hAcc>0.884452</hAcc><vAcc>0.702246</vAcc></extensions></trkpt>
      <trkpt lon="-4.143647" lat="53.003663"><ele>607.907349</ele><time>2021-07-17T11:31:14Z</time><extensions><speed>0.787569</speed><course>298.229218</course><hAcc>0.884310</hAcc><vAcc>0.701735</vAcc></extensions></trkpt>
      <trkpt lon="-4.143654" lat="53.003668"><ele>607.704102</ele><time>2021-07-17T11:31:15Z</time><extensions><speed>0.794601</speed><course>297.545471</course><hAcc>0.884135</hAcc><vAcc>0.701085</vAcc></extensions></trkpt>
      <trkpt lon="-4.143662" lat="53.003674"><ele>607.506775</ele><time>2021-07-17T11:31:16Z</time><extensions><speed>0.804155</speed><course>292.454163</course><hAcc>0.883934</hAcc><vAcc>0.700337</vAcc></extensions></trkpt>
      <trkpt lon="-4.143670" lat="53.003679"><ele>607.314758</ele><time>2021-07-17T11:31:17Z</time><extensions><speed>0.816884</speed><course>287.195465</course><hAcc>0.883717</hAcc><vAcc>0.699537</vAcc></extensions></trkpt>
      <trkpt lon="-4.143679" lat="53.003685"><ele>607.127686</ele><time>2021-07-17T11:31:18Z</time><extensions><speed>0.833067</speed><course>283.339600</course><hAcc>0.883493</hAcc><vAcc>0.698729</vAcc></extensions></trkpt>
      <trkpt lon="-4.143687" lat="53.003690"><ele>606.945312</ele><time>2021-07-17T11:31:19Z</time><extensions><speed>0.852791</speed><course>283.687531</course><hAcc>0.883274</hAcc><vAcc>0.697947</vAcc></extensions></trkpt>
      <trkpt lon="-4.143696" lat="53.003696"><ele>606.767517</ele><time>2021-07-17T11:31:20Z</time><extensions><speed>0.875906</speed><course>284.089417</course><hAcc>0.883069</hAcc><vAcc>0.697224</vAcc></extensions></trkpt>
      <trkpt lon="-4.143705" lat="53.003702"><ele>606.594421</ele><time>2021-07-17T11:31:21Z</time><extensions><speed>0.901873</speed><course>286.432800</course><hAcc>0.882889</hAcc><vAcc>0.696587</vAcc></extensions></trkpt>
      <trkpt lon="-4.143715" lat="53.003707"><ele>606.425842</ele><time>2021-07-17T11:31:22Z</time><extensions><speed>0.930120</speed><course>288.844025</course><hAcc>0.882742</hAcc><vAcc>0.696065</vAcc></extensions></trkpt>
      <trkpt lon="-4.143724" lat="53.003714"><ele>606.260071</ele><time>2021-07-17T11:31:23Z</time><extensions><speed>0.960334</speed><course>294.600861</course><hAcc>0.882635</hAcc><vAcc>0.695682</vAcc></extensions></trkpt>
      <trkpt lon="-4.143734" lat="53.003720"><ele>606.094116</ele><time>2021-07-17T11:31:24Z</time><extensions><speed>0.991875</speed><course>289.399475</course><hAcc>0.882574</hAcc><vAcc>0.695456</vAcc></extensions></trkpt>
      <trkpt lon="-4.143744" lat="53.003727"><ele>605.924927</ele><time>2021-07-17T11:31:25Z</time><extensions><speed>1.023563</speed><course>292.462738</course><hAcc>0.882560</hAcc><vAcc>0.695398</vAcc></extensions></trkpt>
      <trkpt lon="-4.143754" lat="53.003734"><ele>605.750061</ele><time>2021-07-17T11:31:26Z</time><extensions><speed>1.054373</speed><course>292.044128</course><hAcc>0.882596</hAcc><vAcc>0.695508</vAcc></extensions></trkpt>
      <trkpt lon="-4.143763" lat="53.003742"><ele>605.567871</ele><time>2021-07-17T11:31:27Z</time><extensions><speed>1.083883</speed><course>289.426849</course><hAcc>0.882679</hAcc><vAcc>0.695780</vAcc></extensions></trkpt>
      <trkpt lon="-4.143773" lat="53.003750"><ele>605.376831</ele><time>2021-07-17T11:31:28Z</time><extensions><speed>1.112039</speed><course>292.821838</course><hAcc>0.882806</hAcc><vAcc>0.696201</vAcc></extensions></trkpt>
      <trkpt lon="-4.143782" lat="53.003758"><ele>605.175842</ele><time>2021-07-17T11:31:30Z</time><extensions><speed>1.138287</speed><course>287.405121</course><hAcc>0.882951</hAcc><vAcc>0.696735</vAcc></extensions></trkpt>
      <trkpt lon="-4.143791" lat="53.003767"><ele>604.965576</ele><time>2021-07-17T11:31:31Z</time><extensions><speed>1.161646</speed><course>289.328461</course><hAcc>0.883108</hAcc><vAcc>0.697352</vAcc></extensions></trkpt>
      <trkpt lon="-4.143800" lat="53.003776"><ele>604.746948</ele><time>2021-07-17T11:31:32Z</time><extensions><speed>1.181316</speed><course>290.686554</course><hAcc>0.883284</hAcc><vAcc>0.698028</vAcc></extensions></trkpt>
      <trkpt lon="-4.143809" lat="53.003785"><ele>604.521729</ele><time>2021-07-17T11:31:33Z</time><extensions><speed>1.196109</speed><course>291.519623</course><hAcc>0.883468</hAcc><vAcc>0.698726</vAcc></extensions></trkpt>
      <trkpt lon="-4.143818" lat="53.003795"><ele>604.291870</ele><time>2021-07-17T11:31:34Z</time><extensions><speed>1.204667</speed><course>289.260345</course><hAcc>0.883650</hAcc><vAcc>0.699408</vAcc></extensions></trkpt>
      <trkpt lon="-4.143826" lat="53.003804"><ele>604.058655</ele><time>2021-07-17T11:31:35Z</time><extensions><speed>1.205805</speed><course>291.671295</course><hAcc>0.883820</hAcc><vAcc>0.700035</vAcc></extensions></trkpt>
      <trkpt lon="-4.143834" lat="53.003814"><ele>603.821960</ele><time>2021-07-17T11:31:36Z</time><extensions><speed>1.199342</speed><course>285.797272</course><hAcc>0.883971</hAcc><vAcc>0.700571</vAcc></extensions></trkpt>
      <trkpt lon="-4.143843" lat="53.003823"><ele>603.581848</ele><time>2021-07-17T11:31:37Z</time><extensions><speed>1.185694</speed><course>284.045776</course><hAcc>0.884096</hAcc><vAcc>0.700988</vAcc></extensions></trkpt>
      <trkpt lon="-4.143851" lat="53.003833"><ele>603.338440</ele><time>2021-07-17T11:31:38Z</time><extensions><speed>1.165223</speed><course>290.744446</course><hAcc>0.884192</hAcc><vAcc>0.701276</vAcc></extensions></trkpt>
      <trkpt lon="-4.143859" lat="53.003842"><ele>603.092407</ele><time>2021-07-17T11:31:39Z</time><extensions><speed>1.138560</speed><course>286.155334</course><hAcc>0.884256</hAcc><vAcc>0.701441</vAcc></extensions></trkpt>
      <trkpt lon="-4.143867" lat="53.003851"><ele>602.845154</ele><time>2021-07-17T11:31:40Z</time><extensions><speed>1.106759</speed><course>292.078705</course><hAcc>0.884289</hAcc><vAcc>0.701497</vAcc></extensions></trkpt>
      <trkpt lon="-4.143874" lat="53.003860"><ele>602.598389</ele><time>2021-07-17T11:31:41Z</time><extensions><speed>1.071104</speed><course>292.906311</course><hAcc>0.884293</hAcc><vAcc>0.701459</vAcc></extensions></trkpt>
      <trkpt lon="-4.143882" lat="53.003868"><ele>602.353394</ele><time>2021-07-17T11:31:42Z</time><extensions><speed>1.032953</speed><course>291.462067</course><hAcc>0.884271</hAcc><vAcc>0.701342</vAcc></extensions></trkpt>
      <trkpt lon="-4.143889" lat="53.003876"><ele>602.111267</ele><time>2021-07-17T11:31:43Z</time><extensions><speed>0.993744</speed><course>290.448425</course><hAcc>0.884229</hAcc><vAcc>0.701162</vAcc></extensions></trkpt>
      <trkpt lon="-4.143896" lat="53.003883"><ele>601.873230</ele><time>2021-07-17T11:31:44Z</time><extensions><speed>0.955173</speed><course>295.857269</course><hAcc>0.884170</hAcc><vAcc>0.700936</vAcc></extensions></trkpt>
      <trkpt lon="-4.143903" lat="53.003891"><ele>601.640442</ele><time>2021-07-17T11:31:45Z</time><extensions><speed>0.918415</speed><course>298.185364</course><hAcc>0.884100</hAcc><vAcc>0.700682</vAcc></extensions></trkpt>
      <trkpt lon="-4.143911" lat="53.003898"><ele>601.414062</ele><time>2021-07-17T11:31:46Z</time><extensions><speed>0.883610</speed><course>294.469940</course><hAcc>0.884024</hAcc><vAcc>0.700416</vAcc></extensions></trkpt>
      <trkpt lon="-4.143918" lat="53.003904"><ele>601.195312</ele><time>2021-07-17T11:31:47Z</time><extensions><speed>0.850964</speed><course>292.898438</course><hAcc>0.883948</hAcc><vAcc>0.700151</vAcc></extensions></trkpt>
      <trkpt lon="-4.143925" lat="53.003910"><ele>600.985168</ele><time>2021-07-17T11:31:48Z</time><extensions><speed>0.821231</speed><course>292.422791</course><hAcc>0.883876</hAcc><vAcc>0.699898</vAcc></extensions></trkpt>
      <trkpt lon="-4.143932" lat="53.003916"><ele>600.784241</ele><time>2021-07-17T11:31:49Z</time><extensions><speed>0.795537</speed><course>292.622986</course><hAcc>0.883814</hAcc><vAcc>0.699671</vAcc></extensions></trkpt>
      <trkpt lon="-4.143939" lat="53.003921"><ele>600.592834</ele><time>2021-07-17T11:31:50Z</time><extensions><speed>0.774799</speed><course>292.749084</course><hAcc>0.883767</hAcc><vAcc>0.699481</vAcc></extensions></trkpt>
      <trkpt lon="-4.143947" lat="53.003927"><ele>600.410828</ele><time>2021-07-17T11:31:51Z</time><extensions><speed>0.759117</speed><course>294.832458</course><hAcc>0.883741</hAcc><vAcc>0.699348</vAcc></extensions></trkpt>
      <trkpt lon="-4.143955" lat="53.003931"><ele>600.237854</ele><time>2021-07-17T11:31:52Z</time><extensions><speed>0.747807</speed><course>290.563019</course><hAcc>0.883739</hAcc><vAcc>0.699294</vAcc></extensions></trkpt>
      <trkpt lon="-4.143963" lat="53.003936"><ele>600.073669</ele><time>2021-07-17T11:31:53Z</time><extensions><speed>0.739729</speed><course>288.082062</course><hAcc>0.883768</hAcc><vAcc>0.699340</vAcc></extensions></trkpt>
      <trkpt lon="-4.143971" lat="53.003940"><ele>599.917603</ele><time>2021-07-17T11:31:54Z</time><extensions><speed>0.733929</speed><course>289.238037</course><hAcc>0.883829</hAcc><vAcc>0.699501</vAcc></extensions></trkpt>
      <trkpt lon="-4.143980" lat="53.003944"><ele>599.768799</ele><time>2021-07-17T11:31:55Z</time><extensions><speed>0.729769</speed><course>289.037109</course><hAcc>0.883924</hAcc><vAcc>0.699789</vAcc></extensions></trkpt>
      <trkpt lon="-4.143989" lat="53.003948"><ele>599.625916</ele><time>2021-07-17T11:31:56Z</time><extensions><speed>0.727033</speed><course>291.884949</course><hAcc>0.884054</hAcc><vAcc>0.700210</vAcc></extensions></trkpt>
      <trkpt lon="-4.143998" lat="53.003951"><ele>599.487671</ele><time>2021-07-17T11:31:57Z</time><extensions><speed>0.726040</speed><course>287.567657</course><hAcc>0.884215</hAcc><vAcc>0.700760</vAcc></extensions></trkpt>
      <trkpt lon="-4.144007" lat="53.003955"><ele>599.353210</ele><time>2021-07-17T11:31:58Z</time><extensions><speed>0.726768</speed><course>291.768890</course><hAcc>0.884405</hAcc><vAcc>0.701426</vAcc></extensions></trkpt>
      <trkpt lon="-4.144017" lat="53.003958"><ele>599.222046</ele><time>2021-07-17T11:31:59Z</time><extensions><speed>0.728707</speed><course>296.126740</course><hAcc>0.884616</hAcc><vAcc>0.702184</vAcc></extensions></trkpt>
      <trkpt lon="-4.144027" lat="53.003961"><ele>599.093994</ele><time>2021-07-17T11:32:00Z</time><extensions><speed>0.731049</speed><course>297.059143</course><hAcc>0.884841</hAcc><vAcc>0.703002</vAcc></extensions></trkpt>
      <trkpt lon="-4.144036" lat="53.003964"><ele>598.968933</ele><time>2021-07-17T11:32:01Z</time><extensions><speed>0.732755</speed><course>303.696320</course><hAcc>0.885072</hAcc><vAcc>0.703841</vAcc></extensions></trkpt>
      <trkpt lon="-4.144046" lat="53.003967"><ele>598.846863</ele><time>2021-07-17T11:32:02Z</time><extensions><speed>0.733158</speed><course>307.460022</course><hAcc>0.885302</hAcc><vAcc>0.704657</vAcc></extensions></trkpt>
      <trkpt lon="-4.144055" lat="53.003970"><ele>598.727600</ele><time>2021-07-17T11:32:03Z</time><extensions><speed>0.732408</speed><course>302.094666</course><hAcc>0.885522</hAcc><vAcc>0.705414</vAcc></extensions></trkpt>
      <trkpt lon="-4.144064" lat="53.003974"><ele>598.610840</ele><time>2021-07-17T11:32:04Z</time><extensions><speed>0.731509</speed><course>294.763123</course><hAcc>0.885728</hAcc><vAcc>0.706088</vAcc></extensions></trkpt>
      <trkpt lon="-4.144073" lat="53.003978"><ele>598.495972</ele><time>2021-07-17T11:32:05Z</time><extensions><speed>0.731764</speed><course>292.310913</course><hAcc>0.885915</hAcc><vAcc>0.706666</vAcc></extensions></trkpt>
      <trkpt lon="-4.144082" lat="53.003982"><ele>598.382385</ele><time>2021-07-17T11:32:06Z</time><extensions><speed>0.734930</speed><course>286.252472</course><hAcc>0.886081</hAcc><vAcc>0.707151</vAcc></extensions></trkpt>
      <trkpt lon="-4.144090" lat="53.003986"><ele>598.269409</ele><time>2021-07-17T11:32:07Z</time><extensions><speed>0.742963</speed><course>277.085999</course><hAcc>0.886227</hAcc><vAcc>0.707552</vAcc></extensions></trkpt>
      <trkpt lon="-4.144097" lat="53.003992"><ele>598.156128</ele><time>2021-07-17T11:32:08Z</time><extensions><speed>0.757312</speed><course>269.880463</course><hAcc>0.886354</hAcc><vAcc>0.707885</vAcc></extensions></trkpt>
      <trkpt lon="-4.144104" lat="53.003997"><ele>598.040527</ele><time>2021-07-17T11:32:09Z</time><extensions><speed>0.779101</speed><course>256.014618</course><hAcc>0.886465</hAcc><vAcc>0.708171</vAcc></extensions></trkpt>
      <trkpt lon="-4.144110" lat="53.004003"><ele>597.920532</ele><time>2021-07-17T11:32:10Z</time><extensions><speed>0.808519</speed><course>250.524368</course><hAcc>0.886563</hAcc><vAcc>0.708430</vAcc></extensions></trkpt>
      <trkpt lon="-4.144115" lat="53.004010"><ele>597.794312</ele><time>2021-07-17T11:32:11Z</time><extensions><speed>0.843924</speed><course>237.491638</course><hAcc>0.886651</hAcc><vAcc>0.708680</vAcc></extensions></trkpt>
      <trkpt lon="-4.144120" lat="53.004017"><ele>597.660767</ele><time>2021-07-17T11:32:12Z</time><extensions><speed>0.882468</speed><course>231.976761</course><hAcc>0.886732</hAcc><vAcc>0.708929</vAcc></extensions></trkpt>
      <trkpt lon="-4.144124" lat="53.004025"><ele>597.519165</ele><time>2021-07-17T11:32:13Z</time><extensions><speed>0.921569</speed><course>228.504318</course><hAcc>0.886808</hAcc><vAcc>0.709178</vAcc></extensions></trkpt>
      <trkpt lon="-4.144128" lat="53.004033"><ele>597.369141</ele><time>2021-07-17T11:32:14Z</time><extensions><speed>0.959305</speed><course>227.577087</course><hAcc>0.886881</hAcc><vAcc>0.709425</vAcc></extensions></trkpt>
      <trkpt lon="-4.144131" lat="53.004041"><ele>597.211365</ele><time>2021-07-17T11:32:15Z</time><extensions><speed>0.994345</speed><course>219.513672</course><hAcc>0.886953</hAcc><vAcc>0.709666</vAcc></extensions></trkpt>
      <trkpt lon="-4.144135" lat="53.004050"><ele>597.047058</ele><time>2021-07-17T11:32:16Z</time><extensions><speed>1.026052</speed><course>224.903015</course><hAcc>0.887024</hAcc><vAcc>0.709899</vAcc></extensions></trkpt>
      <trkpt lon="-4.144138" lat="53.004059"><ele>596.877991</ele><time>2021-07-17T11:32:17Z</time><extensions><speed>1.054104</speed><course>222.390198</course><hAcc>0.887095</hAcc><vAcc>0.710121</vAcc></extensions></trkpt>
      <trkpt lon="-4.144141" lat="53.004069"><ele>596.705627</ele><time>2021-07-17T11:32:18Z</time><extensions><speed>1.078588</speed><course>223.313202</course><hAcc>0.887166</hAcc><vAcc>0.710335</vAcc></extensions></trkpt>
      <trkpt lon="-4.144145" lat="53.004078"><ele>596.531006</ele><time>2021-07-17T11:32:19Z</time><extensions><speed>1.099920</speed><course>224.045700</course><hAcc>0.887238</hAcc><vAcc>0.710546</vAcc></extensions></trkpt>
      <trkpt lon="-4.144148" lat="53.004088"><ele>596.355042</ele><time>2021-07-17T11:32:20Z</time><extensions><speed>1.118557</speed><course>224.975723</course><hAcc>0.887311</hAcc><vAcc>0.710761</vAcc></extensions></trkpt>
      <trkpt lon="-4.144152" lat="53.004098"><ele>596.178772</ele><time>2021-07-17T11:32:21Z</time><extensions><speed>1.135069</speed><course>226.513992</course><hAcc>0.887384</hAcc><vAcc>0.710983</vAcc></extensions></trkpt>
      <trkpt lon="-4.144156" lat="53.004108"><ele>596.003723</ele><time>2021-07-17T11:32:22Z</time><extensions><speed>1.150074</speed><course>227.291473</course><hAcc>0.887457</hAcc><vAcc>0.711216</vAcc></extensions></trkpt>
      <trkpt lon="-4.144160" lat="53.004118"><ele>595.831482</ele><time>2021-07-17T11:32:23Z</time><extensions><speed>1.164176</speed><course>231.833313</course><hAcc>0.887528</hAcc><vAcc>0.711458</vAcc></extensions></trkpt>
      <trkpt lon="-4.144165" lat="53.004128"><ele>595.663208</ele><time>2021-07-17T11:32:24Z</time><extensions><speed>1.177643</speed><course>230.421005</course><hAcc>0.887595</hAcc><vAcc>0.711706</vAcc></extensions></trkpt>
      <trkpt lon="-4.144170" lat="53.004138"><ele>595.499268</ele><time>2021-07-17T11:32:25Z</time><extensions><speed>1.190627</speed><course>235.980087</course><hAcc>0.887655</hAcc><vAcc>0.711951</vAcc></extensions></trkpt>
      <trkpt lon="-4.144176" lat="53.004149"><ele>595.338623</ele><time>2021-07-17T11:32:26Z</time><extensions><speed>1.203387</speed><course>243.213364</course><hAcc>0.887704</hAcc><vAcc>0.712178</vAcc></extensions></trkpt>
      <trkpt lon="-4.144182" lat="53.004159"><ele>595.179626</ele><time>2021-07-17T11:32:27Z</time><extensions><speed>1.215545</speed><course>253.165268</course><hAcc>0.887738</hAcc><vAcc>0.712368</vAcc></extensions></trkpt>
      <trkpt lon="-4.144188" lat="53.004169"><ele>595.020752</ele><time>2021-07-17T11:32:28Z</time><extensions><speed>1.226201</speed><course>266.505096</course><hAcc>0.887752</hAcc><vAcc>0.712502</vAcc></extensions></trkpt>
      <trkpt lon="-4.144195" lat="53.004179"><ele>594.861694</ele><time>2021-07-17T11:32:28Z</time><extensions><speed>1.234529</speed><course>267.255646</course><hAcc>0.887759</hAcc><vAcc>0.712575</vAcc></extensions></trkpt>
      <trkpt lon="-4.144202" lat="53.004190"><ele>594.702148</ele><time>2021-07-17T11:32:29Z</time><extensions><speed>1.239973</speed><course>271.176971</course><hAcc>0.887758</hAcc><vAcc>0.712575</vAcc></extensions></trkpt>
      <trkpt lon="-4.144210" lat="53.004200"><ele>594.542603</ele><time>2021-07-17T11:32:30Z</time><extensions><speed>1.242342</speed><course>283.145996</course><hAcc>0.887728</hAcc><vAcc>0.712479</vAcc></extensions></trkpt>
      <trkpt lon="-4.144218" lat="53.004210"><ele>594.382935</ele><time>2021-07-17T11:32:31Z</time><extensions><speed>1.241741</speed><course>291.499756</course><hAcc>0.887667</hAcc><vAcc>0.712281</vAcc></extensions></trkpt>
      <trkpt lon="-4.144226" lat="53.004220"><ele>594.222595</ele><time>2021-07-17T11:32:32Z</time><extensions><speed>1.238281</speed><course>295.960785</course><hAcc>0.887579</hAcc><vAcc>0.711978</vAcc></extensions></trkpt>
      <trkpt lon="-4.144234" lat="53.004230"><ele>594.061157</ele><time>2021-07-17T11:32:33Z</time><extensions><speed>1.231891</speed><course>298.309418</course><hAcc>0.887464</hAcc><vAcc>0.711578</vAcc></extensions></trkpt>
      <trkpt lon="-4.144243" lat="53.004239"><ele>593.898804</ele><time>2021-07-17T11:32:34Z</time><extensions><speed>1.222262</speed><course>301.442566</course><hAcc>0.887325</hAcc><vAcc>0.711089</vAcc></extensions></trkpt>
      <trkpt lon="-4.144252" lat="53.004249"><ele>593.736206</ele><time>2021-07-17T11:32:35Z</time><extensions><speed>1.209928</speed><course>301.820831</course><hAcc>0.887169</hAcc><vAcc>0.710525</vAcc></extensions></trkpt>
      <trkpt lon="-4.144261" lat="53.004258"><ele>593.573425</ele><time>2021-07-17T11:32:36Z</time><extensions><speed>1.196122</speed><course>306.533081</course><hAcc>0.887001</hAcc><vAcc>0.709907</vAcc></extensions></trkpt>
      <trkpt lon="-4.144270" lat="53.004267"><ele>593.409973</ele><time>2021-07-17T11:32:37Z</time><extensions><speed>1.182105</speed><course>310.759277</course><hAcc>0.886826</hAcc><vAcc>0.709262</vAcc></extensions></trkpt>
      <trkpt lon="-4.144279" lat="53.004277"><ele>593.245056</ele><time>2021-07-17T11:32:38Z</time><extensions><speed>1.169143</speed><course>315.721252</course><hAcc>0.886652</hAcc><vAcc>0.708628</vAcc></extensions></trkpt>
      <trkpt lon="-4.144288" lat="53.004285"><ele>593.078247</ele><time>2021-07-17T11:32:39Z</time><extensions><speed>1.157756</speed><course>321.376434</course><hAcc>0.886485</hAcc><vAcc>0.708035</vAcc></extensions></trkpt>
      <trkpt lon="-4.144297" lat="53.004294"><ele>592.909363</ele><time>2021-07-17T11:32:40Z</time><extensions><speed>1.147865</speed><course>321.893402</course><hAcc>0.886330</hAcc><vAcc>0.707504</vAcc></extensions></trkpt>
      <trkpt lon="-4.144306" lat="53.004303"><ele>592.738770</ele><time>2021-07-17T11:32:41Z</time><extensions><speed>1.139552</speed><course>325.867676</course><hAcc>0.886192</hAcc><vAcc>0.707046</vAcc></extensions></trkpt>
      <trkpt lon="-4.144315" lat="53.004312"><ele>592.566772</ele><time>2021-07-17T11:32:42Z</time><extensions><speed>1.133178</speed><course>319.975250</course><hAcc>0.886076</hAcc><vAcc>0.706663</vAcc></extensions></trkpt>
      <trkpt lon="-4.144324" lat="53.004320"><ele>592.394043</ele><time>2021-07-17T11:32:43Z</time><extensions><speed>1.129233</speed><course>320.826599</course><hAcc>0.885984</hAcc><vAcc>0.706360</vAcc></extensions></trkpt>
      <trkpt lon="-4.144333" lat="53.004329"><ele>592.221375</ele><time>2021-07-17T11:32:44Z</time><extensions><speed>1.128075</speed><course>320.826599</course><hAcc>0.885919</hAcc><vAcc>0.706140</vAcc></extensions></trkpt>
      <trkpt lon="-4.144342" lat="53.004337"><ele>592.049500</ele><time>2021-07-17T11:32:45Z</time><extensions><speed>1.129854</speed><course>320.826599</course><hAcc>0.885880</hAcc><vAcc>0.706010</vAcc></extensions></trkpt>
      <trkpt lon="-4.144352" lat="53.004346"><ele>591.878601</ele><time>2021-07-17T11:32:46Z</time><extensions><speed>1.134272</speed><course>320.826599</course><hAcc>0.885868</hAcc><vAcc>0.705974</vAcc></extensions></trkpt>
      <trkpt lon="-4.144361" lat="53.004354"><ele>591.707581</ele><time>2021-07-17T11:32:47Z</time><extensions><speed>1.140515</speed><course>320.826599</course><hAcc>0.885882</hAcc><vAcc>0.706038</vAcc></extensions></trkpt>
      <trkpt lon="-4.144371" lat="53.004363"><ele>591.534790</ele><time>2021-07-17T11:32:48Z</time><extensions><speed>1.147625</speed><course>320.826599</course><hAcc>0.885919</hAcc><vAcc>0.706199</vAcc></extensions></trkpt>
      <trkpt lon="-4.144380" lat="53.004371"><ele>591.358398</ele><time>2021-07-17T11:32:49Z</time><extensions><speed>1.154493</speed><course>320.826599</course><hAcc>0.885975</hAcc><vAcc>0.706444</vAcc></extensions></trkpt>
      <trkpt lon="-4.144390" lat="53.004380"><ele>591.176697</ele><time>2021-07-17T11:32:50Z</time><extensions><speed>1.160227</speed><course>320.826599</course><hAcc>0.886046</hAcc><vAcc>0.706747</vAcc></extensions></trkpt>
      <trkpt lon="-4.144400" lat="53.004388"><ele>590.988342</ele><time>2021-07-17T11:32:51Z</time><extensions><speed>1.164319</speed><course>320.826599</course><hAcc>0.886129</hAcc><vAcc>0.707078</vAcc></extensions></trkpt>
      <trkpt lon="-4.144411" lat="53.004397"><ele>590.792358</ele><time>2021-07-17T11:32:52Z</time><extensions><speed>1.165927</speed><course>320.826599</course><hAcc>0.886220</hAcc><vAcc>0.707407</vAcc></extensions></trkpt>
      <trkpt lon="-4.144421" lat="53.004405"><ele>590.587646</ele><time>2021-07-17T11:32:53Z</time><extensions><speed>1.164276</speed><course>320.826599</course><hAcc>0.886314</hAcc><vAcc>0.707717</vAcc></extensions></trkpt>
      <trkpt lon="-4.144432" lat="53.004413"><ele>590.373352</ele><time>2021-07-17T11:32:54Z</time><extensions><speed>1.159040</speed><course>320.826599</course><hAcc>0.886410</hAcc><vAcc>0.708005</vAcc></extensions></trkpt>
      <trkpt lon="-4.144442" lat="53.004421"><ele>590.148682</ele><time>2021-07-17T11:32:55Z</time><extensions><speed>1.149708</speed><course>320.826599</course><hAcc>0.886506</hAcc><vAcc>0.708278</vAcc></extensions></trkpt>
      <trkpt lon="-4.144453" lat="53.004429"><ele>589.913452</ele><time>2021-07-17T11:32:56Z</time><extensions><speed>1.135710</speed><course>320.826599</course><hAcc>0.886602</hAcc><vAcc>0.708543</vAcc></extensions></trkpt>
      <trkpt lon="-4.144464" lat="53.004437"><ele>589.668152</ele><time>2021-07-17T11:32:57Z</time><extensions><speed>1.116555</speed><course>320.826599</course><hAcc>0.886698</hAcc><vAcc>0.708809</vAcc></extensions></trkpt>
      <trkpt lon="-4.144475" lat="53.004445"><ele>589.413757</ele><time>2021-07-17T11:32:58Z</time><extensions><speed>1.092119</speed><course>320.826599</course><hAcc>0.886795</hAcc><vAcc>0.709086</vAcc></extensions></trkpt>
      <trkpt lon="-4.144485" lat="53.004452"><ele>589.151306</ele><time>2021-07-17T11:32:59Z</time><extensions><speed>1.062702</speed><course>320.826599</course><hAcc>0.886893</hAcc><vAcc>0.709381</vAcc></extensions></trkpt>
      <trkpt lon="-4.144495" lat="53.004459"><ele>588.882446</ele><time>2021-07-17T11:33:00Z</time><extensions><speed>1.028667</speed><course>320.826599</course><hAcc>0.886992</hAcc><vAcc>0.709700</vAcc></extensions></trkpt>
      <trkpt lon="-4.144506" lat="53.004466"><ele>588.609741</ele><time>2021-07-17T11:33:01Z</time><extensions><speed>0.990666</speed><course>320.826599</course><hAcc>0.887093</hAcc><vAcc>0.710041</vAcc></extensions></trkpt>
      <trkpt lon="-4.144515" lat="53.004472"><ele>588.335938</ele><time>2021-07-17T11:33:02Z</time><extensions><speed>0.949873</speed><course>320.826599</course><hAcc>0.887193</hAcc><vAcc>0.710398</vAcc></extensions></trkpt>
      <trkpt lon="-4.144524" lat="53.004478"><ele>588.063293</ele><time>2021-07-17T11:33:03Z</time><extensions><speed>0.907449</speed><course>320.826599</course><hAcc>0.887292</hAcc><vAcc>0.710755</vAcc></extensions></trkpt>
      <trkpt lon="-4.144533" lat="53.004485"><ele>587.793640</ele><time>2021-07-17T11:33:04Z</time><extensions><speed>0.864682</speed><course>320.826569</course><hAcc>0.887387</hAcc><vAcc>0.711097</vAcc></extensions></trkpt>
      <trkpt lon="-4.144540" lat="53.004491"><ele>587.528015</ele><time>2021-07-17T11:33:05Z</time><extensions><speed>0.822951</speed><course>320.826569</course><hAcc>0.887476</hAcc><vAcc>0.711408</vAcc></extensions></trkpt>
      <trkpt lon="-4.144548" lat="53.004496"><ele>587.267151</ele><time>2021-07-17T11:33:06Z</time><extensions><speed>0.783193</speed><course>320.826569</course><hAcc>0.887556</hAcc><vAcc>0.711678</vAcc></extensions></trkpt>
      <trkpt lon="-4.144554" lat="53.004502"><ele>587.012024</ele><time>2021-07-17T11:33:07Z</time><extensions><speed>0.745963</speed><course>320.826569</course><hAcc>0.887623</hAcc><vAcc>0.711905</vAcc></extensions></trkpt>
      <trkpt lon="-4.144560" lat="53.004508"><ele>586.763977</ele><time>2021-07-17T11:33:08Z</time><extensions><speed>0.710853</speed><course>306.179871</course><hAcc>0.887675</hAcc><vAcc>0.712088</vAcc></extensions></trkpt>
      <trkpt lon="-4.144565" lat="53.004513"><ele>586.524414</ele><time>2021-07-17T11:33:09Z</time><extensions><speed>0.676884</speed><course>252.340622</course><hAcc>0.887710</hAcc><vAcc>0.712220</vAcc></extensions></trkpt>
      <trkpt lon="-4.144569" lat="53.004518"><ele>586.294800</ele><time>2021-07-17T11:33:10Z</time><extensions><speed>0.643108</speed><course>240.417450</course><hAcc>0.887725</hAcc><vAcc>0.712293</vAcc></extensions></trkpt>
      <trkpt lon="-4.144573" lat="53.004523"><ele>586.076660</ele><time>2021-07-17T11:33:11Z</time><extensions><speed>0.608598</speed><course>226.735764</course><hAcc>0.887719</hAcc><vAcc>0.712297</vAcc></extensions></trkpt>
      <trkpt lon="-4.144577" lat="53.004528"><ele>585.871582</ele><time>2021-07-17T11:33:12Z</time><extensions><speed>0.572760</speed><course>213.254318</course><hAcc>0.887691</hAcc><vAcc>0.712223</vAcc></extensions></trkpt>
      <trkpt lon="-4.144581" lat="53.004533"><ele>585.681152</ele><time>2021-07-17T11:33:13Z</time><extensions><speed>0.535476</speed><course>209.983795</course><hAcc>0.887642</hAcc><vAcc>0.712067</vAcc></extensions></trkpt>
      <trkpt lon="-4.144585" lat="53.004537"><ele>585.506775</ele><time>2021-07-17T11:33:14Z</time><extensions><speed>0.497082</speed><course>212.464371</course><hAcc>0.887571</hAcc><vAcc>0.711831</vAcc></extensions></trkpt>
      <trkpt lon="-4.144589" lat="53.004540"><ele>585.349548</ele><time>2021-07-17T11:33:15Z</time><extensions><speed>0.458439</speed><course>212.464355</course><hAcc>0.887479</hAcc><vAcc>0.711518</vAcc></extensions></trkpt>
      <trkpt lon="-4.144592" lat="53.004543"><ele>585.210022</ele><time>2021-07-17T11:33:16Z</time><extensions><speed>0.420769</speed><course>212.464355</course><hAcc>0.887367</hAcc><vAcc>0.711137</vAcc></extensions></trkpt>
      <trkpt lon="-4.144596" lat="53.004546"><ele>585.088074</ele><time>2021-07-17T11:33:17Z</time><extensions><speed>0.385341</speed><course>212.464340</course><hAcc>0.887238</hAcc><vAcc>0.710695</vAcc></extensions></trkpt>
      <trkpt lon="-4.144600" lat="53.004548"><ele>584.982849</ele><time>2021-07-17T11:33:18Z</time><extensions><speed>0.353511</speed><course>212.464325</course><hAcc>0.887093</hAcc><vAcc>0.710202</vAcc></extensions></trkpt>
      <trkpt lon="-4.144605" lat="53.004550"><ele>584.893005</ele><time>2021-07-17T11:33:19Z</time><extensions><speed>0.325469</speed><course>212.464325</course><hAcc>0.886933</hAcc><vAcc>0.709666</vAcc></extensions></trkpt>
      <trkpt lon="-4.144609" lat="53.004552"><ele>584.817078</ele><time>2021-07-17T11:33:20Z</time><extensions><speed>0.300486</speed><course>212.464325</course><hAcc>0.886761</hAcc><vAcc>0.709097</vAcc></extensions></trkpt>
      <trkpt lon="-4.144612" lat="53.004553"><ele>584.753479</ele><time>2021-07-17T11:33:21Z</time><extensions><speed>0.277845</speed><course>212.464310</course><hAcc>0.886578</hAcc><vAcc>0.708506</vAcc></extensions></trkpt>
      <trkpt lon="-4.144616" lat="53.004553"><ele>584.700684</ele><time>2021-07-17T11:33:22Z</time><extensions><speed>0.256450</speed><course>305.064514</course><hAcc>0.886382</hAcc><vAcc>0.707900</vAcc></extensions></trkpt>
      <trkpt lon="-4.144620" lat="53.004554"><ele>584.657104</ele><time>2021-07-17T11:33:23Z</time><extensions><speed>0.235926</speed><course>295.507660</course><hAcc>0.886175</hAcc><vAcc>0.707278</vAcc></extensions></trkpt>
      <trkpt lon="-4.144623" lat="53.004554"><ele>584.621155</ele><time>2021-07-17T11:33:24Z</time><extensions><speed>0.216939</speed><course>292.618195</course><hAcc>0.885956</hAcc><vAcc>0.706629</vAcc></extensions></trkpt>
      <trkpt lon="-4.144626" lat="53.004554"><ele>584.591370</ele><time>2021-07-17T11:33:25Z</time><extensions><speed>0.200115</speed><course>285.374146</course><hAcc>0.885723</hAcc><vAcc>0.705940</vAcc></extensions></trkpt>
      <trkpt lon="-4.144629" lat="53.004555"><ele>584.566101</ele><time>2021-07-17T11:33:26Z</time><extensions><speed>0.185660</speed><course>282.990997</course><hAcc>0.885478</hAcc><vAcc>0.705198</vAcc></extensions></trkpt>
      <trkpt lon="-4.144632" lat="53.004555"><ele>584.543945</ele><time>2021-07-17T11:33:27Z</time><extensions><speed>0.173858</speed><course>269.408752</course><hAcc>0.885222</hAcc><vAcc>0.704395</vAcc></extensions></trkpt>
      <trkpt lon="-4.144634" lat="53.004555"><ele>584.523315</ele><time>2021-07-17T11:33:28Z</time><extensions><speed>0.164898</speed><course>268.581787</course><hAcc>0.884955</hAcc><vAcc>0.703534</vAcc></extensions></trkpt>
      <trkpt lon="-4.144637" lat="53.004555"><ele>584.502441</ele><time>2021-07-17T11:33:29Z</time><extensions><speed>0.159106</speed><course>262.171875</course><hAcc>0.884684</hAcc><vAcc>0.702628</vAcc></extensions></trkpt>
      <trkpt lon="-4.144639" lat="53.004555"><ele>584.479553</ele><time>2021-07-17T11:33:30Z</time><extensions><speed>0.157312</speed><course>261.539520</course><hAcc>0.884411</hAcc><vAcc>0.701703</vAcc></extensions></trkpt>
      <trkpt lon="-4.144641" lat="53.004555"><ele>584.452881</ele><time>2021-07-17T11:33:31Z</time><extensions><speed>0.160837</speed><course>255.803879</course><hAcc>0.884145</hAcc><vAcc>0.700789</vAcc></extensions></trkpt>
      <trkpt lon="-4.144644" lat="53.004556"><ele>584.421082</ele><time>2021-07-17T11:33:32Z</time><extensions><speed>0.171065</speed><course>247.733398</course><hAcc>0.883892</hAcc><vAcc>0.699918</vAcc></extensions></trkpt>
      <trkpt lon="-4.144646" lat="53.004557"><ele>584.382751</ele><time>2021-07-17T11:33:33Z</time><extensions><speed>0.188516</speed><course>231.932861</course><hAcc>0.883659</hAcc><vAcc>0.699123</vAcc></extensions></trkpt>
      <trkpt lon="-4.144648" lat="53.004558"><ele>584.336670</ele><time>2021-07-17T11:33:34Z</time><extensions><speed>0.212993</speed><course>232.043365</course><hAcc>0.883455</hAcc><vAcc>0.698429</vAcc></extensions></trkpt>
      <trkpt lon="-4.144651" lat="53.004559"><ele>584.281616</ele><time>2021-07-17T11:33:35Z</time><extensions><speed>0.244063</speed><course>225.182800</course><hAcc>0.883285</hAcc><vAcc>0.697850</vAcc></extensions></trkpt>
      <trkpt lon="-4.144654" lat="53.004561"><ele>584.216492</ele><time>2021-07-17T11:33:36Z</time><extensions><speed>0.281257</speed><course>222.937302</course><hAcc>0.883154</hAcc><vAcc>0.697395</vAcc></extensions></trkpt>
      <trkpt lon="-4.144657" lat="53.004563"><ele>584.140259</ele><time>2021-07-17T11:33:37Z</time><extensions><speed>0.324045</speed><course>226.615036</course><hAcc>0.883067</hAcc><vAcc>0.697086</vAcc></extensions></trkpt>
      <trkpt lon="-4.144661" lat="53.004565"><ele>584.052063</ele><time>2021-07-17T11:33:38Z</time><extensions><speed>0.371863</speed><course>227.377960</course><hAcc>0.883028</hAcc><vAcc>0.696953</vAcc></extensions></trkpt>
      <trkpt lon="-4.144664" lat="53.004568"><ele>583.950806</ele><time>2021-07-17T11:33:39Z</time><extensions><speed>0.424447</speed><course>225.027542</course><hAcc>0.883037</hAcc><vAcc>0.697012</vAcc></extensions></trkpt>
      <trkpt lon="-4.144669" lat="53.004571"><ele>583.835632</ele><time>2021-07-17T11:33:40Z</time><extensions><speed>0.481879</speed><course>217.523773</course><hAcc>0.883091</hAcc><vAcc>0.697247</vAcc></extensions></trkpt>
      <trkpt lon="-4.144674" lat="53.004574"><ele>583.705627</ele><time>2021-07-17T11:33:41Z</time><extensions><speed>0.544034</speed><course>217.503448</course><hAcc>0.883184</hAcc><vAcc>0.697617</vAcc></extensions></trkpt>
      <trkpt lon="-4.144679" lat="53.004578"><ele>583.560059</ele><time>2021-07-17T11:33:42Z</time><extensions><speed>0.610009</speed><course>222.947372</course><hAcc>0.883308</hAcc><vAcc>0.698074</vAcc></extensions></trkpt>
      <trkpt lon="-4.144685" lat="53.004583"><ele>583.398682</ele><time>2021-07-17T11:33:43Z</time><extensions><speed>0.679005</speed><course>228.737518</course><hAcc>0.883456</hAcc><vAcc>0.698585</vAcc></extensions></trkpt>
      <trkpt lon="-4.144692" lat="53.004588"><ele>583.221375</ele><time>2021-07-17T11:33:44Z</time><extensions><speed>0.750255</speed><course>234.887939</course><hAcc>0.883623</hAcc><vAcc>0.699128</vAcc></extensions></trkpt>
      <trkpt lon="-4.144700" lat="53.004593"><ele>583.028503</ele><time>2021-07-17T11:33:45Z</time><extensions><speed>0.822243</speed><course>232.671463</course><hAcc>0.883804</hAcc><vAcc>0.699691</vAcc></extensions></trkpt>
      <trkpt lon="-4.144708" lat="53.004599"><ele>582.820984</ele><time>2021-07-17T11:33:46Z</time><extensions><speed>0.892721</speed><course>228.680756</course><hAcc>0.883996</hAcc><vAcc>0.700262</vAcc></extensions></trkpt>
      <trkpt lon="-4.144717" lat="53.004605"><ele>582.599854</ele><time>2021-07-17T11:33:48Z</time><extensions><speed>0.959576</speed><course>228.367065</course><hAcc>0.884178</hAcc><vAcc>0.700819</vAcc></extensions></trkpt>
      <trkpt lon="-4.144727" lat="53.004612"><ele>582.367004</ele><time>2021-07-17T11:33:49Z</time><extensions><speed>1.020573</speed><course>227.760208</course><hAcc>0.884349</hAcc><vAcc>0.701361</vAcc></extensions></trkpt>
      <trkpt lon="-4.144738" lat="53.004618"><ele>582.123779</ele><time>2021-07-17T11:33:50Z</time><extensions><speed>1.074401</speed><course>230.377014</course><hAcc>0.884528</hAcc><vAcc>0.701910</vAcc></extensions></trkpt>
      <trkpt lon="-4.144749" lat="53.004625"><ele>581.871765</ele><time>2021-07-17T11:33:51Z</time><extensions><speed>1.120320</speed><course>236.559235</course><hAcc>0.884715</hAcc><vAcc>0.702481</vAcc></extensions></trkpt>
      <trkpt lon="-4.144762" lat="53.004632"><ele>581.611755</ele><time>2021-07-17T11:33:52Z</time><extensions><speed>1.157508</speed><course>232.877869</course><hAcc>0.884910</hAcc><vAcc>0.703091</vAcc></extensions></trkpt>
      <trkpt lon="-4.144775" lat="53.004640"><ele>581.343262</ele><time>2021-07-17T11:33:53Z</time><extensions><speed>1.185210</speed><course>233.901962</course><hAcc>0.885114</hAcc><vAcc>0.703746</vAcc></extensions></trkpt>
      <trkpt lon="-4.144788" lat="53.004647"><ele>581.066101</ele><time>2021-07-17T11:33:54Z</time><extensions><speed>1.203286</speed><course>234.840546</course><hAcc>0.885328</hAcc><vAcc>0.704443</vAcc></extensions></trkpt>
      <trkpt lon="-4.144802" lat="53.004653"><ele>580.780823</ele><time>2021-07-17T11:33:55Z</time><extensions><speed>1.212924</speed><course>231.563858</course><hAcc>0.885552</hAcc><vAcc>0.705169</vAcc></extensions></trkpt>
      <trkpt lon="-4.144817" lat="53.004660"><ele>580.488586</ele><time>2021-07-17T11:33:56Z</time><extensions><speed>1.215691</speed><course>226.163422</course><hAcc>0.885783</hAcc><vAcc>0.705914</vAcc></extensions></trkpt>
      <trkpt lon="-4.144831" lat="53.004666"><ele>580.191101</ele><time>2021-07-17T11:33:57Z</time><extensions><speed>1.212522</speed><course>224.694687</course><hAcc>0.886022</hAcc><vAcc>0.706671</vAcc></extensions></trkpt>
      <trkpt lon="-4.144846" lat="53.004672"><ele>579.890442</ele><time>2021-07-17T11:33:58Z</time><extensions><speed>1.204416</speed><course>227.400024</course><hAcc>0.886265</hAcc><vAcc>0.707443</vAcc></extensions></trkpt>
      <trkpt lon="-4.144862" lat="53.004678"><ele>579.589050</ele><time>2021-07-17T11:33:59Z</time><extensions><speed>1.192377</speed><course>225.215622</course><hAcc>0.886510</hAcc><vAcc>0.708237</vAcc></extensions></trkpt>
      <trkpt lon="-4.144877" lat="53.004683"><ele>579.289307</ele><time>2021-07-17T11:34:00Z</time><extensions><speed>1.177094</speed><course>227.979385</course><hAcc>0.886754</hAcc><vAcc>0.709051</vAcc></extensions></trkpt>
      <trkpt lon="-4.144892" lat="53.004688"><ele>578.993042</ele><time>2021-07-17T11:34:01Z</time><extensions><speed>1.159039</speed><course>238.133682</course><hAcc>0.886993</hAcc><vAcc>0.709874</vAcc></extensions></trkpt>
      <trkpt lon="-4.144908" lat="53.004692"><ele>578.701599</ele><time>2021-07-17T11:34:02Z</time><extensions><speed>1.138438</speed><course>235.678314</course><hAcc>0.887223</hAcc><vAcc>0.710683</vAcc></extensions></trkpt>
      <trkpt lon="-4.144923" lat="53.004696"><ele>578.415405</ele><time>2021-07-17T11:34:03Z</time><extensions><speed>1.115624</speed><course>238.960709</course><hAcc>0.887440</hAcc><vAcc>0.711448</vAcc></extensions></trkpt>
      <trkpt lon="-4.144939" lat="53.004700"><ele>578.134033</ele><time>2021-07-17T11:34:04Z</time><extensions><speed>1.091592</speed><course>237.793289</course><hAcc>0.887641</hAcc><vAcc>0.712138</vAcc></extensions></trkpt>
      <trkpt lon="-4.144954" lat="53.004703"><ele>577.856689</ele><time>2021-07-17T11:34:05Z</time><extensions><speed>1.067858</speed><course>238.209671</course><hAcc>0.887823</hAcc><vAcc>0.712732</vAcc></extensions></trkpt>
      <trkpt lon="-4.144968" lat="53.004707"><ele>577.582275</ele><time>2021-07-17T11:34:06Z</time><extensions><speed>1.045742</speed><course>239.435074</course><hAcc>0.887984</hAcc><vAcc>0.713224</vAcc></extensions></trkpt>
      <trkpt lon="-4.144983" lat="53.004709"><ele>577.309265</ele><time>2021-07-17T11:34:07Z</time><extensions><speed>1.025946</speed><course>238.666733</course><hAcc>0.888123</hAcc><vAcc>0.713618</vAcc></extensions></trkpt>
      <trkpt lon="-4.144998" lat="53.004712"><ele>577.035522</ele><time>2021-07-17T11:34:08Z</time><extensions><speed>1.008514</speed><course>234.077820</course><hAcc>0.888239</hAcc><vAcc>0.713928</vAcc></extensions></trkpt>
      <trkpt lon="-4.145012" lat="53.004715"><ele>576.758911</ele><time>2021-07-17T11:34:09Z</time><extensions><speed>0.993266</speed><course>227.293335</course><hAcc>0.888334</hAcc><vAcc>0.714173</vAcc></extensions></trkpt>
      <trkpt lon="-4.145026" lat="53.004717"><ele>576.477600</ele><time>2021-07-17T11:34:10Z</time><extensions><speed>0.980384</speed><course>230.072769</course><hAcc>0.888408</hAcc><vAcc>0.714366</vAcc></extensions></trkpt>
      <trkpt lon="-4.145040" lat="53.004720"><ele>576.190125</ele><time>2021-07-17T11:34:11Z</time><extensions><speed>0.970485</speed><course>228.397232</course><hAcc>0.888465</hAcc><vAcc>0.714519</vAcc></extensions></trkpt>
      <trkpt lon="-4.145054" lat="53.004722"><ele>575.895508</ele><time>2021-07-17T11:34:12Z</time><extensions><speed>0.964730</speed><course>230.234772</course><hAcc>0.888506</hAcc><vAcc>0.714640</vAcc></extensions></trkpt>
      <trkpt lon="-4.145067" lat="53.004725"><ele>575.592834</ele><time>2021-07-17T11:34:13Z</time><extensions><speed>0.964625</speed><course>226.599274</course><hAcc>0.888535</hAcc><vAcc>0.714730</vAcc></extensions></trkpt>
      <trkpt lon="-4.145081" lat="53.004728"><ele>575.281738</ele><time>2021-07-17T11:34:14Z</time><extensions><speed>0.971598</speed><course>226.515137</course><hAcc>0.888555</hAcc><vAcc>0.714788</vAcc></extensions></trkpt>
      <trkpt lon="-4.145095" lat="53.004731"><ele>574.962524</ele><time>2021-07-17T11:34:15Z</time><extensions><speed>0.986441</speed><course>226.136917</course><hAcc>0.888568</hAcc><vAcc>0.714814</vAcc></extensions></trkpt>
      <trkpt lon="-4.145109" lat="53.004734"><ele>574.635986</ele><time>2021-07-17T11:34:16Z</time><extensions><speed>1.008973</speed><course>230.381958</course><hAcc>0.888577</hAcc><vAcc>0.714814</vAcc></extensions></trkpt>
      <trkpt lon="-4.145123" lat="53.004737"><ele>574.303406</ele><time>2021-07-17T11:34:17Z</time><extensions><speed>1.038371</speed><course>226.727509</course><hAcc>0.888584</hAcc><vAcc>0.714799</vAcc></extensions></trkpt>
      <trkpt lon="-4.145138" lat="53.004740"><ele>573.966309</ele><time>2021-07-17T11:34:18Z</time><extensions><speed>1.073832</speed><course>230.180862</course><hAcc>0.888589</hAcc><vAcc>0.714783</vAcc></extensions></trkpt>
      <trkpt lon="-4.145153" lat="53.004743"><ele>573.626465</ele><time>2021-07-17T11:34:19Z</time><extensions><speed>1.114279</speed><course>225.214905</course><hAcc>0.888595</hAcc><vAcc>0.714780</vAcc></extensions></trkpt>
      <trkpt lon="-4.145169" lat="53.004746"><ele>573.285522</ele><time>2021-07-17T11:34:20Z</time><extensions><speed>1.157887</speed><course>228.288971</course><hAcc>0.888603</hAcc><vAcc>0.714796</vAcc></extensions></trkpt>
      <trkpt lon="-4.145186" lat="53.004749"><ele>572.945557</ele><time>2021-07-17T11:34:21Z</time><extensions><speed>1.202498</speed><course>234.392639</course><hAcc>0.888613</hAcc><vAcc>0.714836</vAcc></extensions></trkpt>
      <trkpt lon="-4.145204" lat="53.004752"><ele>572.608765</ele><time>2021-07-17T11:34:22Z</time><extensions><speed>1.245789</speed><course>233.208801</course><hAcc>0.888627</hAcc><vAcc>0.714896</vAcc></extensions></trkpt>
      <trkpt lon="-4.145222" lat="53.004755"><ele>572.277527</ele><time>2021-07-17T11:34:23Z</time><extensions><speed>1.285672</speed><course>238.158752</course><hAcc>0.888645</hAcc><vAcc>0.714972</vAcc></extensions></trkpt>
      <trkpt lon="-4.145241" lat="53.004758"><ele>571.953552</ele><time>2021-07-17T11:34:24Z</time><extensions><speed>1.319916</speed><course>239.142517</course><hAcc>0.888668</hAcc><vAcc>0.715058</vAcc></extensions></trkpt>
      <trkpt lon="-4.145260" lat="53.004761"><ele>571.637451</ele><time>2021-07-17T11:34:25Z</time><extensions><speed>1.345941</speed><course>241.003922</course><hAcc>0.888695</hAcc><vAcc>0.715152</vAcc></extensions></trkpt>
      <trkpt lon="-4.145280" lat="53.004764"><ele>571.328674</ele><time>2021-07-17T11:34:26Z</time><extensions><speed>1.362070</speed><course>244.474228</course><hAcc>0.888727</hAcc><vAcc>0.715252</vAcc></extensions></trkpt>
      <trkpt lon="-4.145300" lat="53.004766"><ele>571.026428</ele><time>2021-07-17T11:34:27Z</time><extensions><speed>1.367817</speed><course>238.879150</course><hAcc>0.888765</hAcc><vAcc>0.715359</vAcc></extensions></trkpt>
      <trkpt lon="-4.145320" lat="53.004769"><ele>570.730286</ele><time>2021-07-17T11:34:28Z</time><extensions><speed>1.363882</speed><course>237.538528</course><hAcc>0.888807</hAcc><vAcc>0.715476</vAcc></extensions></trkpt>
      <trkpt lon="-4.145339" lat="53.004772"><ele>570.440125</ele><time>2021-07-17T11:34:29Z</time><extensions><speed>1.351735</speed><course>249.037552</course><hAcc>0.888854</hAcc><vAcc>0.715610</vAcc></extensions></trkpt>
      <trkpt lon="-4.145359" lat="53.004774"><ele>570.156433</ele><time>2021-07-17T11:34:30Z</time><extensions><speed>1.332792</speed><course>259.361603</course><hAcc>0.888905</hAcc><vAcc>0.715768</vAcc></extensions></trkpt>
      <trkpt lon="-4.145378" lat="53.004777"><ele>569.880188</ele><time>2021-07-17T11:34:31Z</time><extensions><speed>1.308392</speed><course>261.193176</course><hAcc>0.888958</hAcc><vAcc>0.715953</vAcc></extensions></trkpt>
      <trkpt lon="-4.145397" lat="53.004780"><ele>569.612671</ele><time>2021-07-17T11:34:32Z</time><extensions><speed>1.279649</speed><course>261.193146</course><hAcc>0.889011</hAcc><vAcc>0.716163</vAcc></extensions></trkpt>
      <trkpt lon="-4.145415" lat="53.004783"><ele>569.354675</ele><time>2021-07-17T11:34:33Z</time><extensions><speed>1.246924</speed><course>261.193146</course><hAcc>0.889062</hAcc><vAcc>0.716388</vAcc></extensions></trkpt>
      <trkpt lon="-4.145432" lat="53.004786"><ele>569.105835</ele><time>2021-07-17T11:34:34Z</time><extensions><speed>1.210564</speed><course>261.193146</course><hAcc>0.889107</hAcc><vAcc>0.716612</vAcc></extensions></trkpt>
      <trkpt lon="-4.145449" lat="53.004789"><ele>568.864380</ele><time>2021-07-17T11:34:34Z</time><extensions><speed>1.171652</speed><course>261.193146</course><hAcc>0.889159</hAcc><vAcc>0.716830</vAcc></extensions></trkpt>
      <trkpt lon="-4.145466" lat="53.004791"><ele>568.627197</ele><time>2021-07-17T11:34:35Z</time><extensions><speed>1.131479</speed><course>261.193146</course><hAcc>0.889216</hAcc><vAcc>0.717025</vAcc></extensions></trkpt>
      <trkpt lon="-4.145482" lat="53.004794"><ele>568.392029</ele><time>2021-07-17T11:34:36Z</time><extensions><speed>1.091877</speed><course>261.193146</course><hAcc>0.889254</hAcc><vAcc>0.717170</vAcc></extensions></trkpt>
      <trkpt lon="-4.145497" lat="53.004797"><ele>568.157104</ele><time>2021-07-17T11:34:37Z</time><extensions><speed>1.054903</speed><course>261.193146</course><hAcc>0.889270</hAcc><vAcc>0.717252</vAcc></extensions></trkpt>
      <trkpt lon="-4.145512" lat="53.004800"><ele>567.921570</ele><time>2021-07-17T11:34:38Z</time><extensions><speed>1.022587</speed><course>261.193146</course><hAcc>0.889259</hAcc><vAcc>0.717257</vAcc></extensions></trkpt>
      <trkpt lon="-4.145526" lat="53.004803"><ele>567.685242</ele><time>2021-07-17T11:34:39Z</time><extensions><speed>0.996076</speed><course>234.852402</course><hAcc>0.889218</hAcc><vAcc>0.717172</vAcc></extensions></trkpt>
      <trkpt lon="-4.145540" lat="53.004806"><ele>567.448303</ele><time>2021-07-17T11:34:40Z</time><extensions><speed>0.975772</speed><course>215.025620</course><hAcc>0.889145</hAcc><vAcc>0.716985</vAcc></extensions></trkpt>
      <trkpt lon="-4.145554" lat="53.004808"><ele>567.210327</ele><time>2021-07-17T11:34:41Z</time><extensions><speed>0.961368</speed><course>206.872131</course><hAcc>0.889037</hAcc><vAcc>0.716683</vAcc></extensions></trkpt>
      <trkpt lon="-4.145567" lat="53.004811"><ele>566.971008</ele><time>2021-07-17T11:34:42Z</time><extensions><speed>0.951701</speed><course>205.862991</course><hAcc>0.888897</hAcc><vAcc>0.716255</vAcc></extensions></trkpt>
      <trkpt lon="-4.145581" lat="53.004814"><ele>566.730042</ele><time>2021-07-17T11:34:43Z</time><extensions><speed>0.945639</speed><course>205.862976</course><hAcc>0.888726</hAcc><vAcc>0.715695</vAcc></extensions></trkpt>
      <trkpt lon="-4.145594" lat="53.004817"><ele>566.487488</ele><time>2021-07-17T11:34:44Z</time><extensions><speed>0.941890</speed><course>234.677673</course><hAcc>0.888528</hAcc><vAcc>0.715010</vAcc></extensions></trkpt>
      <trkpt lon="-4.145607" lat="53.004819"><ele>566.243225</ele><time>2021-07-17T11:34:45Z</time><extensions><speed>0.938849</speed><course>246.321655</course><hAcc>0.888309</hAcc><vAcc>0.714221</vAcc></extensions></trkpt>
      <trkpt lon="-4.145620" lat="53.004822"><ele>565.997437</ele><time>2021-07-17T11:34:46Z</time><extensions><speed>0.935119</speed><course>256.732239</course><hAcc>0.888076</hAcc><vAcc>0.713363</vAcc></extensions></trkpt>
      <trkpt lon="-4.145634" lat="53.004824"><ele>565.750671</ele><time>2021-07-17T11:34:47Z</time><extensions><speed>0.929582</speed><course>257.461731</course><hAcc>0.887836</hAcc><vAcc>0.712480</vAcc></extensions></trkpt>
      <trkpt lon="-4.145647" lat="53.004827"><ele>565.503845</ele><time>2021-07-17T11:34:48Z</time><extensions><speed>0.921737</speed><course>256.219269</course><hAcc>0.887598</hAcc><vAcc>0.711611</vAcc></extensions></trkpt>
      <trkpt lon="-4.145660" lat="53.004829"><ele>565.257690</ele><time>2021-07-17T11:34:49Z</time><extensions><speed>0.911390</speed><course>253.669510</course><hAcc>0.887371</hAcc><vAcc>0.710791</vAcc></extensions></trkpt>
      <trkpt lon="-4.145673" lat="53.004831"><ele>565.013000</ele><time>2021-07-17T11:34:50Z</time><extensions><speed>0.898300</speed><course>253.907227</course><hAcc>0.887166</hAcc><vAcc>0.710051</vAcc></extensions></trkpt>
      <trkpt lon="-4.145686" lat="53.004833"><ele>564.770569</ele><time>2021-07-17T11:34:51Z</time><extensions><speed>0.882659</speed><course>260.189209</course><hAcc>0.886991</hAcc><vAcc>0.709415</vAcc></extensions></trkpt>
      <trkpt lon="-4.145699" lat="53.004835"><ele>564.530945</ele><time>2021-07-17T11:34:52Z</time><extensions><speed>0.865502</speed><course>263.253174</course><hAcc>0.886853</hAcc><vAcc>0.708911</vAcc></extensions></trkpt>
      <trkpt lon="-4.145711" lat="53.004837"><ele>564.294495</ele><time>2021-07-17T11:34:53Z</time><extensions><speed>0.848104</speed><course>264.349060</course><hAcc>0.886757</hAcc><vAcc>0.708560</vAcc></extensions></trkpt>
      <trkpt lon="-4.145723" lat="53.004838"><ele>564.061768</ele><time>2021-07-17T11:34:54Z</time><extensions><speed>0.831246</speed><course>258.002991</course><hAcc>0.886706</hAcc><vAcc>0.708381</vAcc></extensions></trkpt>
      <trkpt lon="-4.145735" lat="53.004840"><ele>563.833313</ele><time>2021-07-17T11:34:55Z</time><extensions><speed>0.815321</speed><course>264.832825</course><hAcc>0.886700</hAcc><vAcc>0.708385</vAcc></extensions></trkpt>
      <trkpt lon="-4.145747" lat="53.004841"><ele>563.609009</ele><time>2021-07-17T11:34:56Z</time><extensions><speed>0.800265</speed><course>262.654938</course><hAcc>0.886739</hAcc><vAcc>0.708569</vAcc></extensions></trkpt>
      <trkpt lon="-4.145759" lat="53.004842"><ele>563.388733</ele><time>2021-07-17T11:34:57Z</time><extensions><speed>0.785450</speed><course>262.654938</course><hAcc>0.886816</hAcc><vAcc>0.708914</vAcc></extensions></trkpt>
      <trkpt lon="-4.145770" lat="53.004843"><ele>563.172729</ele><time>2021-07-17T11:34:58Z</time><extensions><speed>0.770321</speed><course>262.654938</course><hAcc>0.886925</hAcc><vAcc>0.709383</vAcc></extensions></trkpt>
      <trkpt lon="-4.145782" lat="53.004844"><ele>562.961182</ele><time>2021-07-17T11:34:59Z</time><extensions><speed>0.754734</speed><course>262.654938</course><hAcc>0.887058</hAcc><vAcc>0.709931</vAcc></extensions></trkpt>
      <trkpt lon="-4.145793" lat="53.004845"><ele>562.753906</ele><time>2021-07-17T11:35:00Z</time><extensions><speed>0.739341</speed><course>262.654938</course><hAcc>0.887207</hAcc><vAcc>0.710513</vAcc></extensions></trkpt>
      <trkpt lon="-4.145803" lat="53.004845"><ele>562.550293</ele><time>2021-07-17T11:35:01Z</time><extensions><speed>0.725020</speed><course>262.654938</course><hAcc>0.887364</hAcc><vAcc>0.711091</vAcc></extensions></trkpt>
      <trkpt lon="-4.145814" lat="53.004846"><ele>562.349854</ele><time>2021-07-17T11:35:02Z</time><extensions><speed>0.712149</speed><course>262.654938</course><hAcc>0.887520</hAcc><vAcc>0.711635</vAcc></extensions></trkpt>
      <trkpt lon="-4.145825" lat="53.004846"><ele>562.152344</ele><time>2021-07-17T11:35:03Z</time><extensions><speed>0.700263</speed><course>262.654938</course><hAcc>0.887669</hAcc><vAcc>0.712127</vAcc></extensions></trkpt>
      <trkpt lon="-4.145835" lat="53.004846"><ele>561.957642</ele><time>2021-07-17T11:35:04Z</time><extensions><speed>0.687925</speed><course>262.654938</course><hAcc>0.887808</hAcc><vAcc>0.712558</vAcc></extensions></trkpt>
      <trkpt lon="-4.145845" lat="53.004846"><ele>561.765381</ele><time>2021-07-17T11:35:05Z</time><extensions><speed>0.674442</speed><course>262.654938</course><hAcc>0.887933</hAcc><vAcc>0.712928</vAcc></extensions></trkpt>
      <trkpt lon="-4.145855" lat="53.004845"><ele>561.575134</ele><time>2021-07-17T11:35:06Z</time><extensions><speed>0.660014</speed><course>262.654938</course><hAcc>0.888044</hAcc><vAcc>0.713240</vAcc></extensions></trkpt>
      <trkpt lon="-4.145865" lat="53.004845"><ele>561.386414</ele><time>2021-07-17T11:35:07Z</time><extensions><speed>0.644462</speed><course>262.654938</course><hAcc>0.888141</hAcc><vAcc>0.713504</vAcc></extensions></trkpt>
      <trkpt lon="-4.145874" lat="53.004844"><ele>561.198425</ele><time>2021-07-17T11:35:08Z</time><extensions><speed>0.627656</speed><course>262.654938</course><hAcc>0.888225</hAcc><vAcc>0.713732</vAcc></extensions></trkpt>
      <trkpt lon="-4.145883" lat="53.004844"><ele>561.010681</ele><time>2021-07-17T11:35:09Z</time><extensions><speed>0.608851</speed><course>262.654938</course><hAcc>0.888300</hAcc><vAcc>0.713933</vAcc></extensions></trkpt>
      <trkpt lon="-4.145892" lat="53.004843"><ele>560.823242</ele><time>2021-07-17T11:35:10Z</time><extensions><speed>0.587321</speed><course>262.654938</course><hAcc>0.888369</hAcc><vAcc>0.714118</vAcc></extensions></trkpt>
      <trkpt lon="-4.145901" lat="53.004842"><ele>560.636719</ele><time>2021-07-17T11:35:11Z</time><extensions><speed>0.563259</speed><course>262.654938</course><hAcc>0.888436</hAcc><vAcc>0.714292</vAcc></extensions></trkpt>
      <trkpt lon="-4.145909" lat="53.004841"><ele>560.452332</ele><time>2021-07-17T11:35:12Z</time><extensions><speed>0.536562</speed><course>262.654938</course><hAcc>0.888504</hAcc><vAcc>0.714465</vAcc></extensions></trkpt>
      <trkpt lon="-4.145916" lat="53.004840"><ele>560.271179</ele><time>2021-07-17T11:35:13Z</time><extensions><speed>0.507292</speed><course>262.654938</course><hAcc>0.888576</hAcc><vAcc>0.714649</vAcc></extensions></trkpt>
      <trkpt lon="-4.145923" lat="53.004840"><ele>560.094177</ele><time>2021-07-17T11:35:14Z</time><extensions><speed>0.476679</speed><course>262.654938</course><hAcc>0.888656</hAcc><vAcc>0.714856</vAcc></extensions></trkpt>
      <trkpt lon="-4.145930" lat="53.004839"><ele>559.921936</ele><time>2021-07-17T11:35:15Z</time><extensions><speed>0.446161</speed><course>262.654938</course><hAcc>0.888746</hAcc><vAcc>0.715098</vAcc></extensions></trkpt>
      <trkpt lon="-4.145937" lat="53.004838"><ele>559.754517</ele><time>2021-07-17T11:35:16Z</time><extensions><speed>0.417011</speed><course>262.654938</course><hAcc>0.888846</hAcc><vAcc>0.715386</vAcc></extensions></trkpt>
      <trkpt lon="-4.145942" lat="53.004837"><ele>559.591614</ele><time>2021-07-17T11:35:17Z</time><extensions><speed>0.390763</speed><course>262.654938</course><hAcc>0.888959</hAcc><vAcc>0.715721</vAcc></extensions></trkpt>
      <trkpt lon="-4.145948" lat="53.004837"><ele>559.432617</ele><time>2021-07-17T11:35:19Z</time><extensions><speed>0.368769</speed><course>262.654938</course><hAcc>0.889064</hAcc><vAcc>0.716086</vAcc></extensions></trkpt>
      <trkpt lon="-4.145953" lat="53.004837"><ele>559.277466</ele><time>2021-07-17T11:35:20Z</time><extensions><speed>0.351916</speed><course>262.654938</course><hAcc>0.889161</hAcc><vAcc>0.716471</vAcc></extensions></trkpt>
      <trkpt lon="-4.145959" lat="53.004836"><ele>559.125854</ele><time>2021-07-17T11:35:21Z</time><extensions><speed>0.340651</speed><course>262.654938</course><hAcc>0.889265</hAcc><vAcc>0.716875</vAcc></extensions></trkpt>
      <trkpt lon="-4.145964" lat="53.004836"><ele>558.977844</ele><time>2021-07-17T11:35:22Z</time><extensions><speed>0.335287</speed><course>262.654938</course><hAcc>0.889370</hAcc><vAcc>0.717285</vAcc></extensions></trkpt>
      <trkpt lon="-4.145969" lat="53.004837"><ele>558.833557</ele><time>2021-07-17T11:35:23Z</time><extensions><speed>0.335598</speed><course>262.654938</course><hAcc>0.889472</hAcc><vAcc>0.717683</vAcc></extensions></trkpt>
      <trkpt lon="-4.145974" lat="53.004837"><ele>558.693298</ele><time>2021-07-17T11:35:24Z</time><extensions><speed>0.341100</speed><course>262.654938</course><hAcc>0.889568</hAcc><vAcc>0.718053</vAcc></extensions></trkpt>
      <trkpt lon="-4.145979" lat="53.004838"><ele>558.557861</ele><time>2021-07-17T11:35:25Z</time><extensions><speed>0.351594</speed><course>262.654938</course><hAcc>0.889653</hAcc><vAcc>0.718381</vAcc></extensions></trkpt>
      <trkpt lon="-4.145984" lat="53.004838"><ele>558.427673</ele><time>2021-07-17T11:35:26Z</time><extensions><speed>0.367253</speed><course>262.654938</course><hAcc>0.889723</hAcc><vAcc>0.718652</vAcc></extensions></trkpt>
      <trkpt lon="-4.145989" lat="53.004839"><ele>558.302124</ele><time>2021-07-17T11:35:27Z</time><extensions><speed>0.388141</speed><course>262.654938</course><hAcc>0.889777</hAcc><vAcc>0.718852</vAcc></extensions></trkpt>
      <trkpt lon="-4.145995" lat="53.004840"><ele>558.179626</ele><time>2021-07-17T11:35:28Z</time><extensions><speed>0.413672</speed><course>262.654938</course><hAcc>0.889813</hAcc><vAcc>0.718969</vAcc></extensions></trkpt>
      <trkpt lon="-4.146001" lat="53.004842"><ele>558.058289</ele><time>2021-07-17T11:35:29Z</time><extensions><speed>0.442717</speed><course>262.654938</course><hAcc>0.889830</hAcc><vAcc>0.718999</vAcc></extensions></trkpt>
      <trkpt lon="-4.146008" lat="53.004843"><ele>557.936646</ele><time>2021-07-17T11:35:30Z</time><extensions><speed>0.474252</speed><course>262.654938</course><hAcc>0.889829</hAcc><vAcc>0.718951</vAcc></extensions></trkpt>
      <trkpt lon="-4.146015" lat="53.004844"><ele>557.813538</ele><time>2021-07-17T11:35:31Z</time><extensions><speed>0.506592</speed><course>262.654938</course><hAcc>0.889809</hAcc><vAcc>0.718837</vAcc></extensions></trkpt>
      <trkpt lon="-4.146022" lat="53.004845"><ele>557.688293</ele><time>2021-07-17T11:35:32Z</time><extensions><speed>0.536895</speed><course>262.654938</course><hAcc>0.889771</hAcc><vAcc>0.718671</vAcc></extensions></trkpt>
      <trkpt lon="-4.146030" lat="53.004846"><ele>557.560791</ele><time>2021-07-17T11:35:33Z</time><extensions><speed>0.561921</speed><course>262.654938</course><hAcc>0.889716</hAcc><vAcc>0.718466</vAcc></extensions></trkpt>
      <trkpt lon="-4.146038" lat="53.004847"><ele>557.431091</ele><time>2021-07-17T11:35:34Z</time><extensions><speed>0.579521</speed><course>262.654938</course><hAcc>0.889647</hAcc><vAcc>0.718231</vAcc></extensions></trkpt>
      <trkpt lon="-4.146047" lat="53.004848"><ele>557.299194</ele><time>2021-07-17T11:35:35Z</time><extensions><speed>0.588500</speed><course>262.654938</course><hAcc>0.889563</hAcc><vAcc>0.717970</vAcc></extensions></trkpt>
      <trkpt lon="-4.146056" lat="53.004849"><ele>557.165283</ele><time>2021-07-17T11:35:36Z</time><extensions><speed>0.587991</speed><course>262.654938</course><hAcc>0.889468</hAcc><vAcc>0.717684</vAcc></extensions></trkpt>
      <trkpt lon="-4.146064" lat="53.004850"><ele>557.029907</ele><time>2021-07-17T11:35:37Z</time><extensions><speed>0.578060</speed><course>262.654938</course><hAcc>0.889363</hAcc><vAcc>0.717372</vAcc></extensions></trkpt>
      <trkpt lon="-4.146073" lat="53.004851"><ele>556.893860</ele><time>2021-07-17T11:35:38Z</time><extensions><speed>0.559586</speed><course>262.654938</course><hAcc>0.889250</hAcc><vAcc>0.717029</vAcc></extensions></trkpt>
      <trkpt lon="-4.146081" lat="53.004851"><ele>556.758118</ele><time>2021-07-17T11:35:39Z</time><extensions><speed>0.534438</speed><course>262.654938</course><hAcc>0.889131</hAcc><vAcc>0.716654</vAcc></extensions></trkpt>
      <trkpt lon="-4.146088" lat="53.004852"><ele>556.623718</ele><time>2021-07-17T11:35:40Z</time><extensions><speed>0.504611</speed><course>262.654938</course><hAcc>0.889011</hAcc><vAcc>0.716248</vAcc></extensions></trkpt>
      <trkpt lon="-4.146096" lat="53.004852"><ele>556.492004</ele><time>2021-07-17T11:35:41Z</time><extensions><speed>0.471482</speed><course>262.654938</course><hAcc>0.888892</hAcc><vAcc>0.715822</vAcc></extensions></trkpt>
      <trkpt lon="-4.146102" lat="53.004852"><ele>556.364197</ele><time>2021-07-17T11:35:42Z</time><extensions><speed>0.436642</speed><course>262.654938</course><hAcc>0.888777</hAcc><vAcc>0.715392</vAcc></extensions></trkpt>
      <trkpt lon="-4.146109" lat="53.004852"><ele>556.241272</ele><time>2021-07-17T11:35:43Z</time><extensions><speed>0.402168</speed><course>262.654938</course><hAcc>0.888671</hAcc><vAcc>0.714976</vAcc></extensions></trkpt>
      <trkpt lon="-4.146114" lat="53.004851"><ele>556.124023</ele><time>2021-07-17T11:35:44Z</time><extensions><speed>0.370342</speed><course>262.654938</course><hAcc>0.888577</hAcc><vAcc>0.714596</vAcc></extensions></trkpt>
      <trkpt lon="-4.146120" lat="53.004851"><ele>556.012512</ele><time>2021-07-17T11:35:45Z</time><extensions><speed>0.342851</speed><course>262.654938</course><hAcc>0.888498</hAcc><vAcc>0.714276</vAcc></extensions></trkpt>
      <trkpt lon="-4.146124" lat="53.004850"><ele>555.906128</ele><time>2021-07-17T11:35:46Z</time><extensions><speed>0.320734</speed><course>262.654938</course><hAcc>0.888435</hAcc><vAcc>0.714035</vAcc></extensions></trkpt>
      <trkpt lon="-4.146129" lat="53.004850"><ele>555.803467</ele><time>2021-07-17T11:35:47Z</time><extensions><speed>0.304231</speed><course>262.654938</course><hAcc>0.888388</hAcc><vAcc>0.713886</vAcc></extensions></trkpt>
      <trkpt lon="-4.146133" lat="53.004849"><ele>555.703064</ele><time>2021-07-17T11:35:48Z</time><extensions><speed>0.292689</speed><course>262.654938</course><hAcc>0.888355</hAcc><vAcc>0.713830</vAcc></extensions></trkpt>
      <trkpt lon="-4.146137" lat="53.004848"><ele>555.603149</ele><time>2021-07-17T11:35:49Z</time><extensions><speed>0.285169</speed><course>262.654938</course><hAcc>0.888332</hAcc><vAcc>0.713853</vAcc></extensions></trkpt>
      <trkpt lon="-4.146141" lat="53.004848"><ele>555.502197</ele><time>2021-07-17T11:35:50Z</time><extensions><speed>0.280814</speed><course>262.654938</course><hAcc>0.888313</hAcc><vAcc>0.713925</vAcc></extensions></trkpt>
      <trkpt lon="-4.146145" lat="53.004847"><ele>555.398987</ele><time>2021-07-17T11:35:51Z</time><extensions><speed>0.279253</speed><course>262.654938</course><hAcc>0.888292</hAcc><vAcc>0.714012</vAcc></extensions></trkpt>
      <trkpt lon="-4.146150" lat="53.004847"><ele>555.292236</ele><time>2021-07-17T11:35:52Z</time><extensions><speed>0.280482</speed><course>262.654938</course><hAcc>0.888261</hAcc><vAcc>0.714073</vAcc></extensions></trkpt>
      <trkpt lon="-4.146154" lat="53.004846"><ele>555.181030</ele><time>2021-07-17T11:35:53Z</time><extensions><speed>0.284590</speed><course>262.654938</course><hAcc>0.888217</hAcc><vAcc>0.714066</vAcc></extensions></trkpt>
      <trkpt lon="-4.146158" lat="53.004846"><ele>555.064880</ele><time>2021-07-17T11:35:54Z</time><extensions><speed>0.291448</speed><course>209.646423</course><hAcc>0.888155</hAcc><vAcc>0.713954</vAcc></extensions></trkpt>
      <trkpt lon="-4.146162" lat="53.004846"><ele>554.943604</ele><time>2021-07-17T11:35:55Z</time><extensions><speed>0.300580</speed><course>207.502853</course><hAcc>0.888073</hAcc><vAcc>0.713714</vAcc></extensions></trkpt>
      <trkpt lon="-4.146167" lat="53.004847"><ele>554.817688</ele><time>2021-07-17T11:35:56Z</time><extensions><speed>0.311667</speed><course>210.649872</course><hAcc>0.887973</hAcc><vAcc>0.713340</vAcc></extensions></trkpt>
      <trkpt lon="-4.146172" lat="53.004847"><ele>554.687988</ele><time>2021-07-17T11:35:57Z</time><extensions><speed>0.324366</speed><course>218.307190</course><hAcc>0.887858</hAcc><vAcc>0.712848</vAcc></extensions></trkpt>
      <trkpt lon="-4.146176" lat="53.004848"><ele>554.555542</ele><time>2021-07-17T11:35:58Z</time><extensions><speed>0.337805</speed><course>221.774033</course><hAcc>0.887734</hAcc><vAcc>0.712277</vAcc></extensions></trkpt>
      <trkpt lon="-4.146181" lat="53.004849"><ele>554.421631</ele><time>2021-07-17T11:35:59Z</time><extensions><speed>0.350884</speed><course>225.071381</course><hAcc>0.887605</hAcc><vAcc>0.711684</vAcc></extensions></trkpt>
      <trkpt lon="-4.146186" lat="53.004850"><ele>554.287659</ele><time>2021-07-17T11:36:00Z</time><extensions><speed>0.362457</speed><course>229.682953</course><hAcc>0.887478</hAcc><vAcc>0.711134</vAcc></extensions></trkpt>
      <trkpt lon="-4.146191" lat="53.004852"><ele>554.155151</ele><time>2021-07-17T11:36:01Z</time><extensions><speed>0.371333</speed><course>228.187271</course><hAcc>0.887356</hAcc><vAcc>0.710674</vAcc></extensions></trkpt>
      <trkpt lon="-4.146196" lat="53.004853"><ele>554.025757</ele><time>2021-07-17T11:36:02Z</time><extensions><speed>0.376105</speed><course>224.821243</course><hAcc>0.887240</hAcc><vAcc>0.710318</vAcc></extensions></trkpt>
      <trkpt lon="-4.146201" lat="53.004855"><ele>553.900696</ele><time>2021-07-17T11:36:03Z</time><extensions><speed>0.375722</speed><course>222.757462</course><hAcc>0.887131</hAcc><vAcc>0.710049</vAcc></extensions></trkpt>
      <trkpt lon="-4.146206" lat="53.004856"><ele>553.780334</ele><time>2021-07-17T11:36:04Z</time><extensions><speed>0.370474</speed><course>223.047150</course><hAcc>0.887025</hAcc><vAcc>0.709833</vAcc></extensions></trkpt>
      <trkpt lon="-4.146211" lat="53.004858"><ele>553.664917</ele><time>2021-07-17T11:36:05Z</time><extensions><speed>0.361797</speed><course>218.695862</course><hAcc>0.886917</hAcc><vAcc>0.709627</vAcc></extensions></trkpt>
      <trkpt lon="-4.146216" lat="53.004859"><ele>553.554443</ele><time>2021-07-17T11:36:06Z</time><extensions><speed>0.351661</speed><course>216.351273</course><hAcc>0.886801</hAcc><vAcc>0.709389</vAcc></extensions></trkpt>
      <trkpt lon="-4.146221" lat="53.004860"><ele>553.449158</ele><time>2021-07-17T11:36:07Z</time><extensions><speed>0.342687</speed><course>219.658188</course><hAcc>0.886672</hAcc><vAcc>0.709082</vAcc></extensions></trkpt>
      <trkpt lon="-4.146226" lat="53.004861"><ele>553.348999</ele><time>2021-07-17T11:36:08Z</time><extensions><speed>0.337917</speed><course>221.748871</course><hAcc>0.886523</hAcc><vAcc>0.708681</vAcc></extensions></trkpt>
      <trkpt lon="-4.146231" lat="53.004861"><ele>553.252930</ele><time>2021-07-17T11:36:09Z</time><extensions><speed>0.339660</speed><course>225.723022</course><hAcc>0.886351</hAcc><vAcc>0.708171</vAcc></extensions></trkpt>
      <trkpt lon="-4.146236" lat="53.004861"><ele>553.159485</ele><time>2021-07-17T11:36:10Z</time><extensions><speed>0.349333</speed><course>227.303833</course><hAcc>0.886155</hAcc><vAcc>0.707544</vAcc></extensions></trkpt>
      <trkpt lon="-4.146241" lat="53.004861"><ele>553.067444</ele><time>2021-07-17T11:36:11Z</time><extensions><speed>0.366805</speed><course>225.742310</course><hAcc>0.885938</hAcc><vAcc>0.706804</vAcc></extensions></trkpt>
      <trkpt lon="-4.146247" lat="53.004860"><ele>552.975464</ele><time>2021-07-17T11:36:12Z</time><extensions><speed>0.389869</speed><course>225.742310</course><hAcc>0.885705</hAcc><vAcc>0.705968</vAcc></extensions></trkpt>
      <trkpt lon="-4.146253" lat="53.004860"><ele>552.881775</ele><time>2021-07-17T11:36:13Z</time><extensions><speed>0.416268</speed><course>225.742325</course><hAcc>0.885463</hAcc><vAcc>0.705075</vAcc></extensions></trkpt>
      <trkpt lon="-4.146259" lat="53.004859"><ele>552.784058</ele><time>2021-07-17T11:36:14Z</time><extensions><speed>0.444727</speed><course>225.742325</course><hAcc>0.885221</hAcc><vAcc>0.704176</vAcc></extensions></trkpt>
      <trkpt lon="-4.146265" lat="53.004857"><ele>552.680237</ele><time>2021-07-17T11:36:15Z</time><extensions><speed>0.474314</speed><course>225.742325</course><hAcc>0.884991</hAcc><vAcc>0.703321</vAcc></extensions></trkpt>
      <trkpt lon="-4.146272" lat="53.004856"><ele>552.568848</ele><time>2021-07-17T11:36:16Z</time><extensions><speed>0.504669</speed><course>224.360504</course><hAcc>0.884781</hAcc><vAcc>0.702550</vAcc></extensions></trkpt>
      <trkpt lon="-4.146279" lat="53.004854"><ele>552.449463</ele><time>2021-07-17T11:36:17Z</time><extensions><speed>0.535232</speed><course>231.374908</course><hAcc>0.884602</hAcc><vAcc>0.701894</vAcc></extensions></trkpt>
      <trkpt lon="-4.146287" lat="53.004853"><ele>552.322205</ele><time>2021-07-17T11:36:18Z</time><extensions><speed>0.564894</speed><course>226.234039</course><hAcc>0.884461</hAcc><vAcc>0.701380</vAcc></extensions></trkpt>
      <trkpt lon="-4.146296" lat="53.004852"><ele>552.187439</ele><time>2021-07-17T11:36:19Z</time><extensions><speed>0.593046</speed><course>228.443588</course><hAcc>0.884365</hAcc><vAcc>0.701036</vAcc></extensions></trkpt>
      <trkpt lon="-4.146304" lat="53.004850"><ele>552.046143</ele><time>2021-07-17T11:36:20Z</time><extensions><speed>0.619266</speed><course>217.150848</course><hAcc>0.884318</hAcc><vAcc>0.700881</vAcc></extensions></trkpt>
      <trkpt lon="-4.146314" lat="53.004849"><ele>551.898865</ele><time>2021-07-17T11:36:21Z</time><extensions><speed>0.643093</speed><course>214.670395</course><hAcc>0.884321</hAcc><vAcc>0.700919</vAcc></extensions></trkpt>
      <trkpt lon="-4.146323" lat="53.004849"><ele>551.745911</ele><time>2021-07-17T11:36:22Z</time><extensions><speed>0.664455</speed><course>219.066208</course><hAcc>0.884371</hAcc><vAcc>0.701134</vAcc></extensions></trkpt>
      <trkpt lon="-4.146333" lat="53.004848"><ele>551.587524</ele><time>2021-07-17T11:36:23Z</time><extensions><speed>0.683395</speed><course>218.042282</course><hAcc>0.884466</hAcc><vAcc>0.701497</vAcc></extensions></trkpt>
      <trkpt lon="-4.146344" lat="53.004849"><ele>551.424255</ele><time>2021-07-17T11:36:24Z</time><extensions><speed>0.700324</speed><course>220.994385</course><hAcc>0.884600</hAcc><vAcc>0.701977</vAcc></extensions></trkpt>
      <trkpt lon="-4.146354" lat="53.004849"><ele>551.256531</ele><time>2021-07-17T11:36:25Z</time><extensions><speed>0.715598</speed><course>227.746307</course><hAcc>0.884767</hAcc><vAcc>0.702542</vAcc></extensions></trkpt>
      <trkpt lon="-4.146365" lat="53.004851"><ele>551.084290</ele><time>2021-07-17T11:36:26Z</time><extensions><speed>0.729376</speed><course>224.855316</course><hAcc>0.884943</hAcc><vAcc>0.703153</vAcc></extensions></trkpt>
      <trkpt lon="-4.146375" lat="53.004852"><ele>550.908508</ele><time>2021-07-17T11:36:27Z</time><extensions><speed>0.742866</speed><course>223.584900</course><hAcc>0.885123</hAcc><vAcc>0.703785</vAcc></extensions></trkpt>
      <trkpt lon="-4.146385" lat="53.004855"><ele>550.730164</ele><time>2021-07-17T11:36:28Z</time><extensions><speed>0.757974</speed><course>224.383530</course><hAcc>0.885320</hAcc><vAcc>0.704438</vAcc></extensions></trkpt>
      <trkpt lon="-4.146395" lat="53.004858"><ele>550.551086</ele><time>2021-07-17T11:36:29Z</time><extensions><speed>0.776842</speed><course>225.716217</course><hAcc>0.885529</hAcc><vAcc>0.705107</vAcc></extensions></trkpt>
      <trkpt lon="-4.146405" lat="53.004863"><ele>550.372742</ele><time>2021-07-17T11:36:30Z</time><extensions><speed>0.801472</speed><course>229.189102</course><hAcc>0.885747</hAcc><vAcc>0.705792</vAcc></extensions></trkpt>
      <trkpt lon="-4.146414" lat="53.004867"><ele>550.196167</ele><time>2021-07-17T11:36:31Z</time><extensions><speed>0.832766</speed><course>224.817474</course><hAcc>0.885971</hAcc><vAcc>0.706493</vAcc></extensions></trkpt>
      <trkpt lon="-4.146422" lat="53.004873"><ele>550.022400</ele><time>2021-07-17T11:36:32Z</time><extensions><speed>0.870534</speed><course>225.227936</course><hAcc>0.886200</hAcc><vAcc>0.707217</vAcc></extensions></trkpt>
      <trkpt lon="-4.146430" lat="53.004880"><ele>549.852600</ele><time>2021-07-17T11:36:33Z</time><extensions><speed>0.913269</speed><course>228.251373</course><hAcc>0.886429</hAcc><vAcc>0.707966</vAcc></extensions></trkpt>
      <trkpt lon="-4.146438" lat="53.004887"><ele>549.687378</ele><time>2021-07-17T11:36:34Z</time><extensions><speed>0.958876</speed><course>230.721024</course><hAcc>0.886658</hAcc><vAcc>0.708739</vAcc></extensions></trkpt>
      <trkpt lon="-4.146444" lat="53.004895"><ele>549.526489</ele><time>2021-07-17T11:36:35Z</time><extensions><speed>1.005128</speed><course>234.697540</course><hAcc>0.886882</hAcc><vAcc>0.709524</vAcc></extensions></trkpt>
      <trkpt lon="-4.146451" lat="53.004903"><ele>549.369141</ele><time>2021-07-17T11:36:36Z</time><extensions><speed>1.049739</speed><course>236.619934</course><hAcc>0.887099</hAcc><vAcc>0.710302</vAcc></extensions></trkpt>
      <trkpt lon="-4.146457" lat="53.004912"><ele>549.214600</ele><time>2021-07-17T11:36:37Z</time><extensions><speed>1.090927</speed><course>247.542679</course><hAcc>0.887303</hAcc><vAcc>0.711046</vAcc></extensions></trkpt>
      <trkpt lon="-4.146463" lat="53.004921"><ele>549.062683</ele><time>2021-07-17T11:36:38Z</time><extensions><speed>1.127914</speed><course>242.855072</course><hAcc>0.887490</hAcc><vAcc>0.711732</vAcc></extensions></trkpt>
      <trkpt lon="-4.146469" lat="53.004931"><ele>548.913208</ele><time>2021-07-17T11:36:39Z</time><extensions><speed>1.161167</speed><course>241.397278</course><hAcc>0.887657</hAcc><vAcc>0.712340</vAcc></extensions></trkpt>
      <trkpt lon="-4.146476" lat="53.004940"><ele>548.765808</ele><time>2021-07-17T11:36:40Z</time><extensions><speed>1.191675</speed><course>241.667068</course><hAcc>0.887798</hAcc><vAcc>0.712857</vAcc></extensions></trkpt>
      <trkpt lon="-4.146482" lat="53.004951"><ele>548.619507</ele><time>2021-07-17T11:36:40Z</time><extensions><speed>1.220327</speed><course>241.132874</course><hAcc>0.887948</hAcc><vAcc>0.713307</vAcc></extensions></trkpt>
      <trkpt lon="-4.146490" lat="53.004961"><ele>548.472351</ele><time>2021-07-17T11:36:41Z</time><extensions><speed>1.247864</speed><course>242.509506</course><hAcc>0.888104</hAcc><vAcc>0.713702</vAcc></extensions></trkpt>
      <trkpt lon="-4.146497" lat="53.004971"><ele>548.323242</ele><time>2021-07-17T11:36:42Z</time><extensions><speed>1.274021</speed><course>242.195404</course><hAcc>0.888231</hAcc><vAcc>0.714026</vAcc></extensions></trkpt>
      <trkpt lon="-4.146506" lat="53.004981"><ele>548.170959</ele><time>2021-07-17T11:36:43Z</time><extensions><speed>1.298562</speed><course>244.443573</course><hAcc>0.888331</hAcc><vAcc>0.714286</vAcc></extensions></trkpt>
      <trkpt lon="-4.146514" lat="53.004992"><ele>548.014465</ele><time>2021-07-17T11:36:44Z</time><extensions><speed>1.321382</speed><course>246.780472</course><hAcc>0.888405</hAcc><vAcc>0.714486</vAcc></extensions></trkpt>
      <trkpt lon="-4.146524" lat="53.005003"><ele>547.852295</ele><time>2021-07-17T11:36:45Z</time><extensions><speed>1.342609</speed><course>247.423477</course><hAcc>0.888456</hAcc><vAcc>0.714626</vAcc></extensions></trkpt>
      <trkpt lon="-4.146533" lat="53.005013"><ele>547.683716</ele><time>2021-07-17T11:36:46Z</time><extensions><speed>1.362362</speed><course>252.345490</course><hAcc>0.888487</hAcc><vAcc>0.714708</vAcc></extensions></trkpt>
      <trkpt lon="-4.146544" lat="53.005024"><ele>547.508789</ele><time>2021-07-17T11:36:47Z</time><extensions><speed>1.380064</speed><course>252.366760</course><hAcc>0.888499</hAcc><vAcc>0.714731</vAcc></extensions></trkpt>
      <trkpt lon="-4.146555" lat="53.005034"><ele>547.327942</ele><time>2021-07-17T11:36:48Z</time><extensions><speed>1.394897</speed><course>254.889893</course><hAcc>0.888495</hAcc><vAcc>0.714697</vAcc></extensions></trkpt>
      <trkpt lon="-4.146566" lat="53.005045"><ele>547.142029</ele><time>2021-07-17T11:36:49Z</time><extensions><speed>1.406274</speed><course>257.492432</course><hAcc>0.888479</hAcc><vAcc>0.714613</vAcc></extensions></trkpt>
      <trkpt lon="-4.146578" lat="53.005055"><ele>546.952454</ele><time>2021-07-17T11:36:50Z</time><extensions><speed>1.413278</speed><course>255.728439</course><hAcc>0.888451</hAcc><vAcc>0.714485</vAcc></extensions></trkpt>
      <trkpt lon="-4.146591" lat="53.005065"><ele>546.761047</ele><time>2021-07-17T11:36:51Z</time><extensions><speed>1.415047</speed><course>258.375061</course><hAcc>0.888417</hAcc><vAcc>0.714327</vAcc></extensions></trkpt>
      <trkpt lon="-4.146604" lat="53.005075"><ele>546.569214</ele><time>2021-07-17T11:36:52Z</time><extensions><speed>1.410816</speed><course>260.722260</course><hAcc>0.888377</hAcc><vAcc>0.714152</vAcc></extensions></trkpt>
      <trkpt lon="-4.146617" lat="53.005085"><ele>546.378174</ele><time>2021-07-17T11:36:53Z</time><extensions><speed>1.399626</speed><course>260.722260</course><hAcc>0.888335</hAcc><vAcc>0.713975</vAcc></extensions></trkpt>
      <trkpt lon="-4.146630" lat="53.005095"><ele>546.189392</ele><time>2021-07-17T11:36:54Z</time><extensions><speed>1.380393</speed><course>260.722260</course><hAcc>0.888292</hAcc><vAcc>0.713809</vAcc></extensions></trkpt>
      <trkpt lon="-4.146642" lat="53.005105"><ele>546.004639</ele><time>2021-07-17T11:36:55Z</time><extensions><speed>1.352296</speed><course>260.722260</course><hAcc>0.888250</hAcc><vAcc>0.713665</vAcc></extensions></trkpt>
      <trkpt lon="-4.146655" lat="53.005114"><ele>545.825806</ele><time>2021-07-17T11:36:56Z</time><extensions><speed>1.315202</speed><course>260.722260</course><hAcc>0.888210</hAcc><vAcc>0.713546</vAcc></extensions></trkpt>
      <trkpt lon="-4.146667" lat="53.005123"><ele>545.654541</ele><time>2021-07-17T11:36:57Z</time><extensions><speed>1.269688</speed><course>260.722260</course><hAcc>0.888173</hAcc><vAcc>0.713450</vAcc></extensions></trkpt>
      <trkpt lon="-4.146678" lat="53.005132"><ele>545.492493</ele><time>2021-07-17T11:36:58Z</time><extensions><speed>1.216704</speed><course>260.722260</course><hAcc>0.888139</hAcc><vAcc>0.713371</vAcc></extensions></trkpt>
      <trkpt lon="-4.146689" lat="53.005141"><ele>545.341003</ele><time>2021-07-17T11:36:59Z</time><extensions><speed>1.156840</speed><course>260.722229</course><hAcc>0.888106</hAcc><vAcc>0.713302</vAcc></extensions></trkpt>
      <trkpt lon="-4.146698" lat="53.005149"><ele>545.200928</ele><time>2021-07-17T11:37:00Z</time><extensions><speed>1.090575</speed><course>268.575928</course><hAcc>0.888076</hAcc><vAcc>0.713232</vAcc></extensions></trkpt>
      <trkpt lon="-4.146708" lat="53.005156"><ele>545.072754</ele><time>2021-07-17T11:37:01Z</time><extensions><speed>1.019242</speed><course>268.685822</course><hAcc>0.888046</hAcc><vAcc>0.713153</vAcc></extensions></trkpt>
      <trkpt lon="-4.146716" lat="53.005164"><ele>544.956482</ele><time>2021-07-17T11:37:02Z</time><extensions><speed>0.944714</speed><course>264.169769</course><hAcc>0.888018</hAcc><vAcc>0.713059</vAcc></extensions></trkpt>
      <trkpt lon="-4.146723" lat="53.005171"><ele>544.852234</ele><time>2021-07-17T11:37:03Z</time><extensions><speed>0.869326</speed><course>272.216278</course><hAcc>0.887992</hAcc><vAcc>0.712951</vAcc></extensions></trkpt>
      <trkpt lon="-4.146730" lat="53.005177"><ele>544.759705</ele><time>2021-07-17T11:37:04Z</time><extensions><speed>0.795789</speed><course>279.707916</course><hAcc>0.887967</hAcc><vAcc>0.712839</vAcc></extensions></trkpt>
      <trkpt lon="-4.146736" lat="53.005183"><ele>544.678589</ele><time>2021-07-17T11:37:05Z</time><extensions><speed>0.726717</speed><course>277.974487</course><hAcc>0.887943</hAcc><vAcc>0.712736</vAcc></extensions></trkpt>
      <trkpt lon="-4.146741" lat="53.005188"><ele>544.608337</ele><time>2021-07-17T11:37:06Z</time><extensions><speed>0.664830</speed><course>285.359497</course><hAcc>0.887922</hAcc><vAcc>0.712652</vAcc></extensions></trkpt>
      <trkpt lon="-4.146746" lat="53.005193"><ele>544.548401</ele><time>2021-07-17T11:37:07Z</time><extensions><speed>0.612166</speed><course>288.896698</course><hAcc>0.887904</hAcc><vAcc>0.712596</vAcc></extensions></trkpt>
      <trkpt lon="-4.146751" lat="53.005197"><ele>544.497925</ele><time>2021-07-17T11:37:08Z</time><extensions><speed>0.569588</speed><course>285.949463</course><hAcc>0.887890</hAcc><vAcc>0.712566</vAcc></extensions></trkpt>
      <trkpt lon="-4.146755" lat="53.005202"><ele>544.455811</ele><time>2021-07-17T11:37:09Z</time><extensions><speed>0.537168</speed><course>279.328217</course><hAcc>0.887881</hAcc><vAcc>0.712551</vAcc></extensions></trkpt>
      <trkpt lon="-4.146759" lat="53.005206"><ele>544.421143</ele><time>2021-07-17T11:37:10Z</time><extensions><speed>0.514923</speed><course>280.252258</course><hAcc>0.887878</hAcc><vAcc>0.712540</vAcc></extensions></trkpt>
      <trkpt lon="-4.146764" lat="53.005209"><ele>544.392456</ele><time>2021-07-17T11:37:11Z</time><extensions><speed>0.503279</speed><course>280.968384</course><hAcc>0.887880</hAcc><vAcc>0.712531</vAcc></extensions></trkpt>
      <trkpt lon="-4.146768" lat="53.005213"><ele>544.368164</ele><time>2021-07-17T11:37:12Z</time><extensions><speed>0.503375</speed><course>279.577759</course><hAcc>0.887888</hAcc><vAcc>0.712531</vAcc></extensions></trkpt>
      <trkpt lon="-4.146773" lat="53.005217"><ele>544.346619</ele><time>2021-07-17T11:37:13Z</time><extensions><speed>0.516675</speed><course>280.039124</course><hAcc>0.887901</hAcc><vAcc>0.712554</vAcc></extensions></trkpt>
      <trkpt lon="-4.146778" lat="53.005220"><ele>544.326416</ele><time>2021-07-17T11:37:14Z</time><extensions><speed>0.543677</speed><course>285.588440</course><hAcc>0.887918</hAcc><vAcc>0.712606</vAcc></extensions></trkpt>
      <trkpt lon="-4.146784" lat="53.005224"><ele>544.305847</ele><time>2021-07-17T11:37:15Z</time><extensions><speed>0.583737</speed><course>287.653503</course><hAcc>0.887938</hAcc><vAcc>0.712683</vAcc></extensions></trkpt>
      <trkpt lon="-4.146791" lat="53.005228"><ele>544.283325</ele><time>2021-07-17T11:37:16Z</time><extensions><speed>0.635067</speed><course>285.239563</course><hAcc>0.887963</hAcc><vAcc>0.712770</vAcc></extensions></trkpt>
      <trkpt lon="-4.146798" lat="53.005231"><ele>544.257202</ele><time>2021-07-17T11:37:17Z</time><extensions><speed>0.694215</speed><course>283.468018</course><hAcc>0.887991</hAcc><vAcc>0.712853</vAcc></extensions></trkpt>
      <trkpt lon="-4.146806" lat="53.005236"><ele>544.225952</ele><time>2021-07-17T11:37:19Z</time><extensions><speed>0.756267</speed><course>279.656525</course><hAcc>0.888006</hAcc><vAcc>0.712907</vAcc></extensions></trkpt>
      <trkpt lon="-4.146816" lat="53.005240"><ele>544.188293</ele><time>2021-07-17T11:37:20Z</time><extensions><speed>0.816176</speed><course>278.539093</course><hAcc>0.888006</hAcc><vAcc>0.712931</vAcc></extensions></trkpt>
      <trkpt lon="-4.146825" lat="53.005245"><ele>544.142456</ele><time>2021-07-17T11:37:21Z</time><extensions><speed>0.870940</speed><course>281.435120</course><hAcc>0.888010</hAcc><vAcc>0.712942</vAcc></extensions></trkpt>
      <trkpt lon="-4.146836" lat="53.005250"><ele>544.086853</ele><time>2021-07-17T11:37:22Z</time><extensions><speed>0.919189</speed><course>285.299316</course><hAcc>0.888017</hAcc><vAcc>0.712952</vAcc></extensions></trkpt>
      <trkpt lon="-4.146847" lat="53.005255"><ele>544.020264</ele><time>2021-07-17T11:37:23Z</time><extensions><speed>0.961088</speed><course>278.729095</course><hAcc>0.888027</hAcc><vAcc>0.712970</vAcc></extensions></trkpt>
      <trkpt lon="-4.146858" lat="53.005261"><ele>543.942200</ele><time>2021-07-17T11:37:24Z</time><extensions><speed>0.997698</speed><course>281.499542</course><hAcc>0.888040</hAcc><vAcc>0.713003</vAcc></extensions></trkpt>
      <trkpt lon="-4.146869" lat="53.005267"><ele>543.853027</ele><time>2021-07-17T11:37:25Z</time><extensions><speed>1.030569</speed><course>280.886475</course><hAcc>0.888058</hAcc><vAcc>0.713052</vAcc></extensions></trkpt>
      <trkpt lon="-4.146881" lat="53.005273"><ele>543.754089</ele><time>2021-07-17T11:37:26Z</time><extensions><speed>1.061502</speed><course>287.541565</course><hAcc>0.888081</hAcc><vAcc>0.713121</vAcc></extensions></trkpt>
      <trkpt lon="-4.146893" lat="53.005280"><ele>543.647888</ele><time>2021-07-17T11:37:27Z</time><extensions><speed>1.092064</speed><course>288.221985</course><hAcc>0.888110</hAcc><vAcc>0.713210</vAcc></extensions></trkpt>
      <trkpt lon="-4.146904" lat="53.005287"><ele>543.538086</ele><time>2021-07-17T11:37:28Z</time><extensions><speed>1.123127</speed><course>291.891876</course><hAcc>0.888146</hAcc><vAcc>0.713323</vAcc></extensions></trkpt>
      <trkpt lon="-4.146916" lat="53.005294"><ele>543.428467</ele><time>2021-07-17T11:37:29Z</time><extensions><speed>1.154554</speed><course>289.035248</course><hAcc>0.888189</hAcc><vAcc>0.713461</vAcc></extensions></trkpt>
      <trkpt lon="-4.146928" lat="53.005301"><ele>543.322327</ele><time>2021-07-17T11:37:30Z</time><extensions><speed>1.185649</speed><course>286.354584</course><hAcc>0.888237</hAcc><vAcc>0.713626</vAcc></extensions></trkpt>
      <trkpt lon="-4.146941" lat="53.005309"><ele>543.221558</ele><time>2021-07-17T11:37:31Z</time><extensions><speed>1.215477</speed><course>285.070648</course><hAcc>0.888290</hAcc><vAcc>0.713813</vAcc></extensions></trkpt>
      <trkpt lon="-4.146954" lat="53.005317"><ele>543.126038</ele><time>2021-07-17T11:37:32Z</time><extensions><speed>1.243378</speed><course>282.456329</course><hAcc>0.888346</hAcc><vAcc>0.714017</vAcc></extensions></trkpt>
      <trkpt lon="-4.146967" lat="53.005325"><ele>543.033691</ele><time>2021-07-17T11:37:33Z</time><extensions><speed>1.269243</speed><course>277.579590</course><hAcc>0.888403</hAcc><vAcc>0.714228</vAcc></extensions></trkpt>
      <trkpt lon="-4.146981" lat="53.005333"><ele>542.941528</ele><time>2021-07-17T11:37:34Z</time><extensions><speed>1.292835</speed><course>280.944580</course><hAcc>0.888459</hAcc><vAcc>0.714438</vAcc></extensions></trkpt>
      <trkpt lon="-4.146995" lat="53.005341"><ele>542.847168</ele><time>2021-07-17T11:37:35Z</time><extensions><speed>1.313713</speed><course>286.555664</course><hAcc>0.888513</hAcc><vAcc>0.714638</vAcc></extensions></trkpt>
      <trkpt lon="-4.147010" lat="53.005349"><ele>542.749756</ele><time>2021-07-17T11:37:36Z</time><extensions><speed>1.331586</speed><course>286.867188</course><hAcc>0.888561</hAcc><vAcc>0.714819</vAcc></extensions></trkpt>
      <trkpt lon="-4.147025" lat="53.005356"><ele>542.649475</ele><time>2021-07-17T11:37:37Z</time><extensions><speed>1.346039</speed><course>285.747314</course><hAcc>0.888603</hAcc><vAcc>0.714973</vAcc></extensions></trkpt>
      <trkpt lon="-4.147041" lat="53.005364"><ele>542.547363</ele><time>2021-07-17T11:37:38Z</time><extensions><speed>1.356445</speed><course>288.748718</course><hAcc>0.888636</hAcc><vAcc>0.715095</vAcc></extensions></trkpt>
      <trkpt lon="-4.147058" lat="53.005371"><ele>542.445435</ele><time>2021-07-17T11:37:39Z</time><extensions><speed>1.362789</speed><course>282.056335</course><hAcc>0.888659</hAcc><vAcc>0.715176</vAcc></extensions></trkpt>
      <trkpt lon="-4.147075" lat="53.005377"><ele>542.345764</ele><time>2021-07-17T11:37:40Z</time><extensions><speed>1.365727</speed><course>284.841522</course><hAcc>0.888673</hAcc><vAcc>0.715212</vAcc></extensions></trkpt>
      <trkpt lon="-4.147093" lat="53.005383"><ele>542.250671</ele><time>2021-07-17T11:37:41Z</time><extensions><speed>1.365778</speed><course>283.873260</course><hAcc>0.888677</hAcc><vAcc>0.715204</vAcc></extensions></trkpt>
      <trkpt lon="-4.147111" lat="53.005389"><ele>542.162415</ele><time>2021-07-17T11:37:42Z</time><extensions><speed>1.363185</speed><course>280.645142</course><hAcc>0.888672</hAcc><vAcc>0.715158</vAcc></extensions></trkpt>
      <trkpt lon="-4.147130" lat="53.005394"><ele>542.083008</ele><time>2021-07-17T11:37:43Z</time><extensions><speed>1.358376</speed><course>278.726105</course><hAcc>0.888657</hAcc><vAcc>0.715084</vAcc></extensions></trkpt>
      <trkpt lon="-4.147148" lat="53.005398"><ele>542.014038</ele><time>2021-07-17T11:37:44Z</time><extensions><speed>1.352317</speed><course>276.107971</course><hAcc>0.888634</hAcc><vAcc>0.714991</vAcc></extensions></trkpt>
      <trkpt lon="-4.147168" lat="53.005402"><ele>541.956299</ele><time>2021-07-17T11:37:45Z</time><extensions><speed>1.346310</speed><course>275.135803</course><hAcc>0.888603</hAcc><vAcc>0.714885</vAcc></extensions></trkpt>
      <trkpt lon="-4.147187" lat="53.005405"><ele>541.909912</ele><time>2021-07-17T11:37:46Z</time><extensions><speed>1.341747</speed><course>273.705627</course><hAcc>0.888566</hAcc><vAcc>0.714770</vAcc></extensions></trkpt>
      <trkpt lon="-4.147207" lat="53.005407"><ele>541.875061</ele><time>2021-07-17T11:37:47Z</time><extensions><speed>1.339700</speed><course>279.700806</course><hAcc>0.888523</hAcc><vAcc>0.714647</vAcc></extensions></trkpt>
      <trkpt lon="-4.147226" lat="53.005409"><ele>541.851501</ele><time>2021-07-17T11:37:48Z</time><extensions><speed>1.340626</speed><course>279.102997</course><hAcc>0.888475</hAcc><vAcc>0.714514</vAcc></extensions></trkpt>
      <trkpt lon="-4.147246" lat="53.005410"><ele>541.839417</ele><time>2021-07-17T11:37:49Z</time><extensions><speed>1.344042</speed><course>281.416626</course><hAcc>0.888424</hAcc><vAcc>0.714366</vAcc></extensions></trkpt>
      <trkpt lon="-4.147266" lat="53.005410"><ele>541.838440</ele><time>2021-07-17T11:37:50Z</time><extensions><speed>1.348212</speed><course>274.399658</course><hAcc>0.888373</hAcc><vAcc>0.714201</vAcc></extensions></trkpt>
      <trkpt lon="-4.147286" lat="53.005410"><ele>541.847595</ele><time>2021-07-17T11:37:51Z</time><extensions><speed>1.351043</speed><course>277.055237</course><hAcc>0.888322</hAcc><vAcc>0.714018</vAcc></extensions></trkpt>
      <trkpt lon="-4.147306" lat="53.005410"><ele>541.865234</ele><time>2021-07-17T11:37:52Z</time><extensions><speed>1.350725</speed><course>271.055908</course><hAcc>0.888275</hAcc><vAcc>0.713824</vAcc></extensions></trkpt>
      <trkpt lon="-4.147327" lat="53.005409"><ele>541.889343</ele><time>2021-07-17T11:37:53Z</time><extensions><speed>1.345446</speed><course>270.959534</course><hAcc>0.888234</hAcc><vAcc>0.713633</vAcc></extensions></trkpt>
      <trkpt lon="-4.147346" lat="53.005408"><ele>541.918274</ele><time>2021-07-17T11:37:54Z</time><extensions><speed>1.333328</speed><course>273.311462</course><hAcc>0.888202</hAcc><vAcc>0.713463</vAcc></extensions></trkpt>
      <trkpt lon="-4.147366" lat="53.005407"><ele>541.950256</ele><time>2021-07-17T11:37:55Z</time><extensions><speed>1.313077</speed><course>270.079376</course><hAcc>0.888178</hAcc><vAcc>0.713337</vAcc></extensions></trkpt>
      <trkpt lon="-4.147385" lat="53.005406"><ele>541.983398</ele><time>2021-07-17T11:37:56Z</time><extensions><speed>1.283972</speed><course>269.858612</course><hAcc>0.888164</hAcc><vAcc>0.713269</vAcc></extensions></trkpt>
      <trkpt lon="-4.147404" lat="53.005405"><ele>542.016357</ele><time>2021-07-17T11:37:57Z</time><extensions><speed>1.245679</speed><course>271.614288</course><hAcc>0.888159</hAcc><vAcc>0.713269</vAcc></extensions></trkpt>
      <trkpt lon="-4.147422" lat="53.005404"><ele>542.048401</ele><time>2021-07-17T11:37:58Z</time><extensions><speed>1.198000</speed><course>269.703888</course><hAcc>0.888161</hAcc><vAcc>0.713330</vAcc></extensions></trkpt>
      <trkpt lon="-4.147440" lat="53.005404"><ele>542.080261</ele><time>2021-07-17T11:37:59Z</time><extensions><speed>1.140621</speed><course>271.185974</course><hAcc>0.888167</hAcc><vAcc>0.713432</vAcc></extensions></trkpt>
      <trkpt lon="-4.147456" lat="53.005403"><ele>542.113525</ele><time>2021-07-17T11:38:00Z</time><extensions><speed>1.073452</speed><course>276.545776</course><hAcc>0.888172</hAcc><vAcc>0.713548</vAcc></extensions></trkpt>
      <trkpt lon="-4.147472" lat="53.005403"><ele>542.149658</ele><time>2021-07-17T11:38:01Z</time><extensions><speed>0.997073</speed><course>274.150604</course><hAcc>0.888172</hAcc><vAcc>0.713648</vAcc></extensions></trkpt>
      <trkpt lon="-4.147486" lat="53.005403"><ele>542.189392</ele><time>2021-07-17T11:38:02Z</time><extensions><speed>0.912407</speed><course>269.686920</course><hAcc>0.888163</hAcc><vAcc>0.713702</vAcc></extensions></trkpt>
      <trkpt lon="-4.147499" lat="53.005404"><ele>542.233032</ele><time>2021-07-17T11:38:03Z</time><extensions><speed>0.820906</speed><course>266.852386</course><hAcc>0.888139</hAcc><vAcc>0.713687</vAcc></extensions></trkpt>
      <trkpt lon="-4.147510" lat="53.005405"><ele>542.280273</ele><time>2021-07-17T11:38:04Z</time><extensions><speed>0.725275</speed><course>267.243347</course><hAcc>0.888098</hAcc><vAcc>0.713583</vAcc></extensions></trkpt>
      <trkpt lon="-4.147520" lat="53.005405"><ele>542.330566</ele><time>2021-07-17T11:38:05Z</time><extensions><speed>0.629100</speed><course>260.829193</course><hAcc>0.888038</hAcc><vAcc>0.713384</vAcc></extensions></trkpt>
      <trkpt lon="-4.147529" lat="53.005406"><ele>542.383362</ele><time>2021-07-17T11:38:06Z</time><extensions><speed>0.535966</speed><course>268.227509</course><hAcc>0.887959</hAcc><vAcc>0.713093</vAcc></extensions></trkpt>
      <trkpt lon="-4.147536" lat="53.005407"><ele>542.438232</ele><time>2021-07-17T11:38:07Z</time><extensions><speed>0.449171</speed><course>261.241119</course><hAcc>0.887862</hAcc><vAcc>0.712720</vAcc></extensions></trkpt>
      <trkpt lon="-4.147542" lat="53.005408"><ele>542.494934</ele><time>2021-07-17T11:38:08Z</time><extensions><speed>0.371763</speed><course>259.199677</course><hAcc>0.887750</hAcc><vAcc>0.712284</vAcc></extensions></trkpt>
      <trkpt lon="-4.147546" lat="53.005409"><ele>542.553162</ele><time>2021-07-17T11:38:09Z</time><extensions><speed>0.305653</speed><course>258.372070</course><hAcc>0.887627</hAcc><vAcc>0.711809</vAcc></extensions></trkpt>
      <trkpt lon="-4.147550" lat="53.005410"><ele>542.612366</ele><time>2021-07-17T11:38:10Z</time><extensions><speed>0.251234</speed><course>251.644882</course><hAcc>0.887497</hAcc><vAcc>0.711322</vAcc></extensions></trkpt>
      <trkpt lon="-4.147553" lat="53.005411"><ele>542.671814</ele><time>2021-07-17T11:38:11Z</time><extensions><speed>0.207975</speed><course>250.726257</course><hAcc>0.887366</hAcc><vAcc>0.710851</vAcc></extensions></trkpt>
      <trkpt lon="-4.147555" lat="53.005412"><ele>542.730591</ele><time>2021-07-17T11:38:12Z</time><extensions><speed>0.174508</speed><course>245.632431</course><hAcc>0.887237</hAcc><vAcc>0.710412</vAcc></extensions></trkpt>
      <trkpt lon="-4.147557" lat="53.005413"><ele>542.787781</ele><time>2021-07-17T11:38:13Z</time><extensions><speed>0.148819</speed><course>245.967255</course><hAcc>0.887117</hAcc><vAcc>0.710013</vAcc></extensions></trkpt>
      <trkpt lon="-4.147559" lat="53.005414"><ele>542.842407</ele><time>2021-07-17T11:38:14Z</time><extensions><speed>0.128832</speed><course>241.448837</course><hAcc>0.887010</hAcc><vAcc>0.709655</vAcc></extensions></trkpt>
      <trkpt lon="-4.147560" lat="53.005415"><ele>542.893555</ele><time>2021-07-17T11:38:15Z</time><extensions><speed>0.112957</speed><course>246.306168</course><hAcc>0.886919</hAcc><vAcc>0.709342</vAcc></extensions></trkpt>
      <trkpt lon="-4.147560" lat="53.005416"><ele>542.940674</ele><time>2021-07-17T11:38:16Z</time><extensions><speed>0.100328</speed><course>241.853012</course><hAcc>0.886850</hAcc><vAcc>0.709086</vAcc></extensions></trkpt>
      <trkpt lon="-4.147561" lat="53.005417"><ele>542.983093</ele><time>2021-07-17T11:38:17Z</time><extensions><speed>0.090389</speed><course>247.017685</course><hAcc>0.886808</hAcc><vAcc>0.708901</vAcc></extensions></trkpt>
      <trkpt lon="-4.147562" lat="53.005417"><ele>543.020386</ele><time>2021-07-17T11:38:18Z</time><extensions><speed>0.082571</speed><course>242.793106</course><hAcc>0.886796</hAcc><vAcc>0.708806</vAcc></extensions></trkpt>
      <trkpt lon="-4.147562" lat="53.005418"><ele>543.052002</ele><time>2021-07-17T11:38:19Z</time><extensions><speed>0.076439</speed><course>241.528748</course><hAcc>0.886820</hAcc><vAcc>0.708820</vAcc></extensions></trkpt>
      <trkpt lon="-4.147563" lat="53.005419"><ele>543.077576</ele><time>2021-07-17T11:38:20Z</time><extensions><speed>0.071664</speed><course>239.773132</course><hAcc>0.886886</hAcc><vAcc>0.708967</vAcc></extensions></trkpt>
      <trkpt lon="-4.147563" lat="53.005419"><ele>543.096985</ele><time>2021-07-17T11:38:21Z</time><extensions><speed>0.067776</speed><course>228.079361</course><hAcc>0.887001</hAcc><vAcc>0.709265</vAcc></extensions></trkpt>
      <trkpt lon="-4.147563" lat="53.005420"><ele>543.110229</ele><time>2021-07-17T11:38:22Z</time><extensions><speed>0.064326</speed><course>235.745880</course><hAcc>0.887173</hAcc><vAcc>0.709731</vAcc></extensions></trkpt>
      <trkpt lon="-4.147564" lat="53.005420"><ele>543.117310</ele><time>2021-07-17T11:38:23Z</time><extensions><speed>0.061020</speed><course>241.026978</course><hAcc>0.887412</hAcc><vAcc>0.710386</vAcc></extensions></trkpt>
      <trkpt lon="-4.147564" lat="53.005421"><ele>543.118408</ele><time>2021-07-17T11:38:24Z</time><extensions><speed>0.057766</speed><course>241.201813</course><hAcc>0.887729</hAcc><vAcc>0.711252</vAcc></extensions></trkpt>
      <trkpt lon="-4.147564" lat="53.005421"><ele>543.113831</ele><time>2021-07-17T11:38:25Z</time><extensions><speed>0.054493</speed><course>237.798721</course><hAcc>0.888138</hAcc><vAcc>0.712346</vAcc></extensions></trkpt>
      <trkpt lon="-4.147565" lat="53.005422"><ele>543.104370</ele><time>2021-07-17T11:38:26Z</time><extensions><speed>0.050925</speed><course>239.932953</course><hAcc>0.888659</hAcc><vAcc>0.713675</vAcc></extensions></trkpt>
      <trkpt lon="-4.147565" lat="53.005422"><ele>543.091187</ele><time>2021-07-17T11:38:27Z</time><extensions><speed>0.046715</speed><course>236.617691</course><hAcc>0.889296</hAcc><vAcc>0.715221</vAcc></extensions></trkpt>
      <trkpt lon="-4.147565" lat="53.005423"><ele>543.075500</ele><time>2021-07-17T11:38:28Z</time><extensions><speed>0.041891</speed><course>241.818802</course><hAcc>0.890073</hAcc><vAcc>0.716960</vAcc></extensions></trkpt>
      <trkpt lon="-4.147566" lat="53.005423"><ele>543.058472</ele><time>2021-07-17T11:38:29Z</time><extensions><speed>0.036759</speed><course>239.437317</course><hAcc>0.891038</hAcc><vAcc>0.718879</vAcc></extensions></trkpt>
      <trkpt lon="-4.147566" lat="53.005423"><ele>543.040955</ele><time>2021-07-17T11:38:30Z</time><extensions><speed>0.031573</speed><course>246.363113</course><hAcc>0.892218</hAcc><vAcc>0.720948</vAcc></extensions></trkpt>
      <trkpt lon="-4.147566" lat="53.005423"><ele>543.023621</ele><time>2021-07-17T11:38:31Z</time><extensions><speed>0.026529</speed><course>246.700150</course><hAcc>0.893636</hAcc><vAcc>0.723129</vAcc></extensions></trkpt>
      <trkpt lon="-4.147566" lat="53.005423"><ele>543.007019</ele><time>2021-07-17T11:38:32Z</time><extensions><speed>0.021773</speed><course>246.096832</course><hAcc>0.895307</hAcc><vAcc>0.725380</vAcc></extensions></trkpt>
      <trkpt lon="-4.147566" lat="53.005424"><ele>542.991455</ele><time>2021-07-17T11:38:33Z</time><extensions><speed>0.017404</speed><course>243.815796</course><hAcc>0.897220</hAcc><vAcc>0.727644</vAcc></extensions></trkpt>
      <trkpt lon="-4.147567" lat="53.005424"><ele>542.977234</ele><time>2021-07-17T11:38:34Z</time><extensions><speed>0.013485</speed><course>246.512634</course><hAcc>0.899337</hAcc><vAcc>0.729843</vAcc></extensions></trkpt>
      <trkpt lon="-4.147567" lat="53.005424"><ele>542.964478</ele><time>2021-07-17T11:38:35Z</time><extensions><speed>0.010045</speed><course>244.050751</course><hAcc>0.901578</hAcc><vAcc>0.731879</vAcc></extensions></trkpt>
      <trkpt lon="-4.147567" lat="53.005424"><ele>542.953125</ele><time>2021-07-17T11:38:36Z</time><extensions><speed>0.007093</speed><course>244.230560</course><hAcc>0.903815</hAcc><vAcc>0.733633</vAcc></extensions></trkpt>
      <trkpt lon="-4.147567" lat="53.005424"><ele>542.943298</ele><time>2021-07-17T11:38:37Z</time><extensions><speed>0.004622</speed><course>245.032242</course><hAcc>0.905878</hAcc><vAcc>0.734986</vAcc></extensions></trkpt>
      <trkpt lon="-4.147567" lat="53.005424"><ele>542.934875</ele><time>2021-07-17T11:38:38Z</time><extensions><speed>0.002627</speed><course>246.179367</course><hAcc>0.907576</hAcc><vAcc>0.735851</vAcc></extensions></trkpt>
      <trkpt lon="-4.147567" lat="53.005424"><ele>542.927795</ele><time>2021-07-17T11:38:39Z</time><extensions><speed>0.001205</speed><course>241.821411</course><hAcc>0.908754</hAcc><vAcc>0.736227</vAcc></extensions></trkpt>
      <trkpt lon="-4.147567" lat="53.005424"><ele>542.921875</ele><time>2021-07-17T11:38:40Z</time><extensions><speed>0.001034</speed><course>243.788040</course><hAcc>0.909390</hAcc><vAcc>0.736307</vAcc></extensions></trkpt>
      <trkpt lon="-4.147567" lat="53.005424"><ele>542.916992</ele><time>2021-07-17T11:38:41Z</time><extensions><speed>0.001762</speed><course>243.693268</course><hAcc>0.909765</hAcc><vAcc>0.736613</vAcc></extensions></trkpt>
      <trkpt lon="-4.147567" lat="53.005424"><ele>542.913086</ele><time>2021-07-17T11:38:42Z</time><extensions><speed>0.002433</speed><course>242.775101</course><hAcc>0.910715</hAcc><vAcc>0.738196</vAcc></extensions></trkpt>
      <trkpt lon="-4.147567" lat="53.005424"><ele>542.909851</ele><time>2021-07-17T11:38:43Z</time><extensions><speed>0.002935</speed><course>245.970306</course><hAcc>0.913992</hAcc><vAcc>0.742868</vAcc></extensions></trkpt>
      <trkpt lon="-4.147567" lat="53.005424"><ele>542.907349</ele><time>2021-07-17T11:38:44Z</time><extensions><speed>0.003283</speed><course>242.405746</course><hAcc>0.922688</hAcc><vAcc>0.753432</vAcc></extensions></trkpt>
      <trkpt lon="-4.147567" lat="53.005424"><ele>542.905273</ele><time>2021-07-17T11:38:45Z</time><extensions><speed>0.003508</speed><course>242.953247</course><hAcc>0.941640</hAcc><vAcc>0.773798</vAcc></extensions></trkpt>
      <trkpt lon="-4.147567" lat="53.005424"><ele>542.903625</ele><time>2021-07-17T11:38:46Z</time><extensions><speed>0.003642</speed><course>243.898651</course><hAcc>0.977540</hAcc><vAcc>0.808823</vAcc></extensions></trkpt>
      <trkpt lon="-4.147566" lat="53.005425"><ele>542.949097</ele><time>2021-07-17T11:38:46Z</time><extensions><speed>0.033836</speed><course>207.637573</course><hAcc>0.939169</hAcc><vAcc>0.773089</vAcc></extensions></trkpt>
      <trkpt lon="-4.147566" lat="53.005425"><ele>542.950623</ele><time>2021-07-17T11:38:47Z</time><extensions><speed>0.033988</speed><course>199.781464</course><hAcc>0.919758</hAcc><vAcc>0.752306</vAcc></extensions></trkpt>
      <trkpt lon="-4.147565" lat="53.005425"><ele>542.951355</ele><time>2021-07-17T11:38:48Z</time><extensions><speed>0.033707</speed><course>204.898392</course><hAcc>0.911862</hAcc><vAcc>0.742378</vAcc></extensions></trkpt>
      <trkpt lon="-4.147565" lat="53.005426"><ele>542.951172</ele><time>2021-07-17T11:38:49Z</time><extensions><speed>0.032724</speed><course>218.988647</course><hAcc>0.909993</hAcc><vAcc>0.738967</vAcc></extensions></trkpt>
      <trkpt lon="-4.147565" lat="53.005426"><ele>542.949768</ele><time>2021-07-17T11:38:50Z</time><extensions><speed>0.030745</speed><course>240.875916</course><hAcc>0.910663</hAcc><vAcc>0.738963</vAcc></extensions></trkpt>
      <trkpt lon="-4.147564" lat="53.005426"><ele>542.946899</ele><time>2021-07-17T11:38:51Z</time><extensions><speed>0.027505</speed><course>240.875916</course><hAcc>0.911937</hAcc><vAcc>0.740373</vAcc></extensions></trkpt>
      <trkpt lon="-4.147564" lat="53.005426"><ele>542.942505</ele><time>2021-07-17T11:38:52Z</time><extensions><speed>0.022989</speed><course>240.875916</course><hAcc>0.912934</hAcc><vAcc>0.742063</vAcc></extensions></trkpt>
      <trkpt lon="-4.147564" lat="53.005426"><ele>542.936218</ele><time>2021-07-17T11:38:53Z</time><extensions><speed>0.018290</speed><course>240.875916</course><hAcc>0.913404</hAcc><vAcc>0.743491</vAcc></extensions></trkpt>
      <trkpt lon="-4.147563" lat="53.005426"><ele>542.927979</ele><time>2021-07-17T11:38:54Z</time><extensions><speed>0.018189</speed><course>240.875916</course><hAcc>0.913428</hAcc><vAcc>0.744472</vAcc></extensions></trkpt>
      <trkpt lon="-4.147563" lat="53.005426"><ele>542.917542</ele><time>2021-07-17T11:38:55Z</time><extensions><speed>0.028293</speed><course>240.875916</course><hAcc>0.913216</hAcc><vAcc>0.745014</vAcc></extensions></trkpt>
      <trkpt lon="-4.147563" lat="53.005425"><ele>542.904785</ele><time>2021-07-17T11:38:56Z</time><extensions><speed>0.046979</speed><course>269.430084</course><hAcc>0.912977</hAcc><vAcc>0.745198</vAcc></extensions></trkpt>
      <trkpt lon="-4.147564" lat="53.005425"><ele>542.889709</ele><time>2021-07-17T11:38:57Z</time><extensions><speed>0.072483</speed><course>274.056000</course><hAcc>0.912848</hAcc><vAcc>0.745095</vAcc></extensions></trkpt>
      <trkpt lon="-4.147564" lat="53.005424"><ele>542.872314</ele><time>2021-07-17T11:38:58Z</time><extensions><speed>0.104594</speed><course>273.580658</course><hAcc>0.912861</hAcc><vAcc>0.744738</vAcc></extensions></trkpt>
      <trkpt lon="-4.147565" lat="53.005423"><ele>542.852539</ele><time>2021-07-17T11:38:59Z</time><extensions><speed>0.143523</speed><course>266.285736</course><hAcc>0.912944</hAcc><vAcc>0.744110</vAcc></extensions></trkpt>
      <trkpt lon="-4.147567" lat="53.005422"><ele>542.830566</ele><time>2021-07-17T11:39:00Z</time><extensions><speed>0.189461</speed><course>280.416809</course><hAcc>0.912947</hAcc><vAcc>0.743173</vAcc></extensions></trkpt>
      <trkpt lon="-4.147569" lat="53.005420"><ele>542.806580</ele><time>2021-07-17T11:39:01Z</time><extensions><speed>0.242394</speed><course>289.633057</course><hAcc>0.912708</hAcc><vAcc>0.741938</vAcc></extensions></trkpt>
      <trkpt lon="-4.147571" lat="53.005419"><ele>542.780884</ele><time>2021-07-17T11:39:02Z</time><extensions><speed>0.301960</speed><course>274.042023</course><hAcc>0.912172</hAcc><vAcc>0.740558</vAcc></extensions></trkpt>
      <trkpt lon="-4.147574" lat="53.005416"><ele>542.753845</ele><time>2021-07-17T11:39:03Z</time><extensions><speed>0.367321</speed><course>259.398621</course><hAcc>0.911561</hAcc><vAcc>0.739491</vAcc></extensions></trkpt>
      <trkpt lon="-4.147578" lat="53.005414"><ele>542.725708</ele><time>2021-07-17T11:39:04Z</time><extensions><speed>0.437027</speed><course>235.228027</course><hAcc>0.911648</hAcc><vAcc>0.739690</vAcc></extensions></trkpt>
      <trkpt lon="-4.147583" lat="53.005411"><ele>542.697021</ele><time>2021-07-17T11:39:05Z</time><extensions><speed>0.508860</speed><course>233.943741</course><hAcc>0.914116</hAcc><vAcc>0.742856</vAcc></extensions></trkpt>
      <trkpt lon="-4.147589" lat="53.005407"><ele>542.668091</ele><time>2021-07-17T11:39:06Z</time><extensions><speed>0.579680</speed><course>251.986771</course><hAcc>0.922003</hAcc><vAcc>0.751679</vAcc></extensions></trkpt>
      <trkpt lon="-4.147596" lat="53.005403"><ele>542.639343</ele><time>2021-07-17T11:39:07Z</time><extensions><speed>0.645261</speed><course>230.632401</course><hAcc>0.940107</hAcc><vAcc>0.769982</vAcc></extensions></trkpt>
      <trkpt lon="-4.147603" lat="53.005399"><ele>542.611084</ele><time>2021-07-17T11:39:08Z</time><extensions><speed>0.700139</speed><course>208.539734</course><hAcc>0.975121</hAcc><vAcc>0.802605</vAcc></extensions></trkpt>
      <trkpt lon="-4.147611" lat="53.005396"><ele>542.630554</ele><time>2021-07-17T11:39:09Z</time><extensions><speed>0.570944</speed><course>207.637573</course><hAcc>0.937416</hAcc><vAcc>0.768058</vAcc></extensions></trkpt>
      <trkpt lon="-4.147617" lat="53.005393"><ele>542.640747</ele><time>2021-07-17T11:39:10Z</time><extensions><speed>0.495387</speed><course>199.781464</course><hAcc>0.917464</hAcc><vAcc>0.745550</vAcc></extensions></trkpt>
      <trkpt lon="-4.147622" lat="53.005390"><ele>542.652588</ele><time>2021-07-17T11:39:11Z</time><extensions><speed>0.404841</speed><course>204.898392</course><hAcc>0.908933</hAcc><vAcc>0.733810</vAcc></extensions></trkpt>
      <trkpt lon="-4.147626" lat="53.005388"><ele>542.666077</ele><time>2021-07-17T11:39:12Z</time><extensions><speed>0.305346</speed><course>218.988647</course><hAcc>0.906328</hAcc><vAcc>0.728571</vAcc></extensions></trkpt>
      <trkpt lon="-4.147629" lat="53.005387"><ele>542.680969</ele><time>2021-07-17T11:39:13Z</time><extensions><speed>0.202011</speed><course>240.875916</course><hAcc>0.906139</hAcc><vAcc>0.726765</vAcc></extensions></trkpt>
      <trkpt lon="-4.147631" lat="53.005386"><ele>542.696960</ele><time>2021-07-17T11:39:14Z</time><extensions><speed>0.099296</speed><course>240.875916</course><hAcc>0.906406</hAcc><vAcc>0.726411</vAcc></extensions></trkpt>
      <trkpt lon="-4.147632" lat="53.005386"><ele>542.714172</ele><time>2021-07-17T11:39:15Z</time><extensions><speed>0.006195</speed><course>240.875916</course><hAcc>0.906214</hAcc><vAcc>0.726363</vAcc></extensions></trkpt>
      <trkpt lon="-4.147631" lat="53.005386"><ele>542.732971</ele><time>2021-07-17T11:39:16Z</time><extensions><speed>0.089507</speed><course>240.875916</course><hAcc>0.905288</hAcc><vAcc>0.726046</vAcc></extensions></trkpt>
      <trkpt lon="-4.147630" lat="53.005387"><ele>542.753906</ele><time>2021-07-17T11:39:17Z</time><extensions><speed>0.168594</speed><course>240.875916</course><hAcc>0.903690</hAcc><vAcc>0.725252</vAcc></extensions></trkpt>
      <trkpt lon="-4.147628" lat="53.005388"><ele>542.777588</ele><time>2021-07-17T11:39:18Z</time><extensions><speed>0.234443</speed><course>240.875916</course><hAcc>0.901630</hAcc><vAcc>0.723986</vAcc></extensions></trkpt>
      <trkpt lon="-4.147625" lat="53.005389"><ele>542.804260</ele><time>2021-07-17T11:39:19Z</time><extensions><speed>0.285785</speed><course>269.430084</course><hAcc>0.899351</hAcc><vAcc>0.722360</vAcc></extensions></trkpt>
      <trkpt lon="-4.147621" lat="53.005391"><ele>542.833923</ele><time>2021-07-17T11:39:20Z</time><extensions><speed>0.322839</speed><course>274.056000</course><hAcc>0.897063</hAcc><vAcc>0.720525</vAcc></extensions></trkpt>
      <trkpt lon="-4.147618" lat="53.005393"><ele>542.866394</ele><time>2021-07-17T11:39:21Z</time><extensions><speed>0.346850</speed><course>273.580658</course><hAcc>0.894923</hAcc><vAcc>0.718627</vAcc></extensions></trkpt>
      <trkpt lon="-4.147614" lat="53.005395"><ele>542.901489</ele><time>2021-07-17T11:39:22Z</time><extensions><speed>0.359158</speed><course>266.285736</course><hAcc>0.893028</hAcc><vAcc>0.716783</vAcc></extensions></trkpt>
      <trkpt lon="-4.147610" lat="53.005398"><ele>542.938843</ele><time>2021-07-17T11:39:23Z</time><extensions><speed>0.360487</speed><course>280.416809</course><hAcc>0.891425</hAcc><vAcc>0.715077</vAcc></extensions></trkpt>
      <trkpt lon="-4.147606" lat="53.005400"><ele>542.978088</ele><time>2021-07-17T11:39:24Z</time><extensions><speed>0.350972</speed><course>289.633057</course><hAcc>0.890120</hAcc><vAcc>0.713558</vAcc></extensions></trkpt>
      <trkpt lon="-4.147602" lat="53.005402"><ele>543.018860</ele><time>2021-07-17T11:39:25Z</time><extensions><speed>0.331453</speed><course>274.042023</course><hAcc>0.889092</hAcc><vAcc>0.712243</vAcc></extensions></trkpt>
      <trkpt lon="-4.147599" lat="53.005404"><ele>543.060486</ele><time>2021-07-17T11:39:27Z</time><extensions><speed>0.303794</speed><course>259.398621</course><hAcc>0.888290</hAcc><vAcc>0.711116</vAcc></extensions></trkpt>
      <trkpt lon="-4.147596" lat="53.005406"><ele>543.102234</ele><time>2021-07-17T11:39:28Z</time><extensions><speed>0.270340</speed><course>235.228027</course><hAcc>0.887675</hAcc><vAcc>0.710162</vAcc></extensions></trkpt>
      <trkpt lon="-4.147593" lat="53.005408"><ele>543.143616</ele><time>2021-07-17T11:39:29Z</time><extensions><speed>0.233368</speed><course>233.943741</course><hAcc>0.887225</hAcc><vAcc>0.709372</vAcc></extensions></trkpt>
      <trkpt lon="-4.147591" lat="53.005409"><ele>543.184143</ele><time>2021-07-17T11:39:30Z</time><extensions><speed>0.195280</speed><course>251.986771</course><hAcc>0.886903</hAcc><vAcc>0.708730</vAcc></extensions></trkpt>
      <trkpt lon="-4.147589" lat="53.005410"><ele>543.223206</ele><time>2021-07-17T11:39:31Z</time><extensions><speed>0.158167</speed><course>230.632401</course><hAcc>0.886680</hAcc><vAcc>0.708230</vAcc></extensions></trkpt>
      <trkpt lon="-4.147588" lat="53.005411"><ele>543.260498</ele><time>2021-07-17T11:39:32Z</time><extensions><speed>0.123723</speed><course>208.539734</course><hAcc>0.886534</hAcc><vAcc>0.707868</vAcc></extensions></trkpt>
      <trkpt lon="-4.147587" lat="53.005412"><ele>543.295532</ele><time>2021-07-17T11:39:33Z</time><extensions><speed>0.093312</speed><course>217.062653</course><hAcc>0.886448</hAcc><vAcc>0.707644</vAcc></extensions></trkpt>
      <trkpt lon="-4.147586" lat="53.005412"><ele>543.328064</ele><time>2021-07-17T11:39:34Z</time><extensions><speed>0.067934</speed><course>216.480164</course><hAcc>0.886410</hAcc><vAcc>0.707552</vAcc></extensions></trkpt>
      <trkpt lon="-4.147585" lat="53.005413"><ele>543.358154</ele><time>2021-07-17T11:39:35Z</time><extensions><speed>0.048286</speed><course>215.204285</course><hAcc>0.886410</hAcc><vAcc>0.707583</vAcc></extensions></trkpt>
      <trkpt lon="-4.147585" lat="53.005413"><ele>543.385742</ele><time>2021-07-17T11:39:36Z</time><extensions><speed>0.034837</speed><course>192.608246</course><hAcc>0.886442</hAcc><vAcc>0.707720</vAcc></extensions></trkpt>
      <trkpt lon="-4.147584" lat="53.005413"><ele>543.410889</ele><time>2021-07-17T11:39:37Z</time><extensions><speed>0.027434</speed><course>196.818375</course><hAcc>0.886500</hAcc><vAcc>0.707946</vAcc></extensions></trkpt>
      <trkpt lon="-4.147584" lat="53.005413"><ele>543.433472</ele><time>2021-07-17T11:39:38Z</time><extensions><speed>0.025054</speed><course>200.564194</course><hAcc>0.886579</hAcc><vAcc>0.708241</vAcc></extensions></trkpt>
      <trkpt lon="-4.147584" lat="53.005413"><ele>543.453430</ele><time>2021-07-17T11:39:39Z</time><extensions><speed>0.026982</speed><course>224.718231</course><hAcc>0.886673</hAcc><vAcc>0.708592</vAcc></extensions></trkpt>
      <trkpt lon="-4.147583" lat="53.005413"><ele>543.470764</ele><time>2021-07-17T11:39:40Z</time><extensions><speed>0.033369</speed><course>228.969803</course><hAcc>0.886777</hAcc><vAcc>0.708983</vAcc></extensions></trkpt>
      <trkpt lon="-4.147583" lat="53.005414"><ele>543.485535</ele><time>2021-07-17T11:39:41Z</time><extensions><speed>0.044080</speed><course>250.366501</course><hAcc>0.886885</hAcc><vAcc>0.709398</vAcc></extensions></trkpt>
      <trkpt lon="-4.147583" lat="53.005414"><ele>543.497742</ele><time>2021-07-17T11:39:42Z</time><extensions><speed>0.058175</speed><course>-1.000000</course><hAcc>0.886990</hAcc><vAcc>0.709816</vAcc></extensions></trkpt>
      <trkpt lon="-4.147582" lat="53.005414"><ele>543.507507</ele><time>2021-07-17T11:39:43Z</time><extensions><speed>0.074468</speed><course>232.063629</course><hAcc>0.887085</hAcc><vAcc>0.710208</vAcc></extensions></trkpt>
      <trkpt lon="-4.147582" lat="53.005415"><ele>543.515137</ele><time>2021-07-17T11:39:44Z</time><extensions><speed>0.091712</speed><course>232.063614</course><hAcc>0.887165</hAcc><vAcc>0.710543</vAcc></extensions></trkpt>
      <trkpt lon="-4.147582" lat="53.005416"><ele>543.520813</ele><time>2021-07-17T11:39:45Z</time><extensions><speed>0.108681</speed><course>232.063614</course><hAcc>0.887221</hAcc><vAcc>0.710792</vAcc></extensions></trkpt>
      <trkpt lon="-4.147581" lat="53.005417"><ele>543.525024</ele><time>2021-07-17T11:39:46Z</time><extensions><speed>0.124675</speed><course>232.063599</course><hAcc>0.887248</hAcc><vAcc>0.710933</vAcc></extensions></trkpt>
      <trkpt lon="-4.147581" lat="53.005418"><ele>543.528259</ele><time>2021-07-17T11:39:47Z</time><extensions><speed>0.139262</speed><course>232.063599</course><hAcc>0.887241</hAcc><vAcc>0.710947</vAcc></extensions></trkpt>
      <trkpt lon="-4.147581" lat="53.005420"><ele>543.531067</ele><time>2021-07-17T11:39:48Z</time><extensions><speed>0.152148</speed><course>232.063583</course><hAcc>0.887195</hAcc><vAcc>0.710824</vAcc></extensions></trkpt>
      <trkpt lon="-4.147581" lat="53.005421"><ele>543.534058</ele><time>2021-07-17T11:39:49Z</time><extensions><speed>0.163167</speed><course>232.063583</course><hAcc>0.887107</hAcc><vAcc>0.710559</vAcc></extensions></trkpt>
      <trkpt lon="-4.147582" lat="53.005423"><ele>543.537476</ele><time>2021-07-17T11:39:50Z</time><extensions><speed>0.172184</speed><course>248.555511</course><hAcc>0.886975</hAcc><vAcc>0.710152</vAcc></extensions></trkpt>
      <trkpt lon="-4.147582" lat="53.005424"><ele>543.541748</ele><time>2021-07-17T11:39:51Z</time><extensions><speed>0.179007</speed><course>214.727661</course><hAcc>0.886799</hAcc><vAcc>0.709599</vAcc></extensions></trkpt>
      <trkpt lon="-4.147582" lat="53.005426"><ele>543.547058</ele><time>2021-07-17T11:39:52Z</time><extensions><speed>0.183598</speed><course>215.656113</course><hAcc>0.886581</hAcc><vAcc>0.708900</vAcc></extensions></trkpt>
      <trkpt lon="-4.147583" lat="53.005427"><ele>543.553711</ele><time>2021-07-17T11:39:53Z</time><extensions><speed>0.186107</speed><course>205.637772</course><hAcc>0.886324</hAcc><vAcc>0.708061</vAcc></extensions></trkpt>
      <trkpt lon="-4.147583" lat="53.005429"><ele>543.561829</ele><time>2021-07-17T11:39:54Z</time><extensions><speed>0.186634</speed><course>201.575424</course><hAcc>0.886032</hAcc><vAcc>0.707096</vAcc></extensions></trkpt>
      <trkpt lon="-4.147584" lat="53.005431"><ele>543.571594</ele><time>2021-07-17T11:39:55Z</time><extensions><speed>0.185428</speed><course>196.854248</course><hAcc>0.885713</hAcc><vAcc>0.706028</vAcc></extensions></trkpt>
      <trkpt lon="-4.147584" lat="53.005432"><ele>543.583191</ele><time>2021-07-17T11:39:56Z</time><extensions><speed>0.182920</speed><course>198.264053</course><hAcc>0.885373</hAcc><vAcc>0.704888</vAcc></extensions></trkpt>
      <trkpt lon="-4.147585" lat="53.005434"><ele>543.596680</ele><time>2021-07-17T11:39:57Z</time><extensions><speed>0.179609</speed><course>198.636932</course><hAcc>0.885022</hAcc><vAcc>0.703706</vAcc></extensions></trkpt>
      <trkpt lon="-4.147586" lat="53.005435"><ele>543.611938</ele><time>2021-07-17T11:39:58Z</time><extensions><speed>0.176080</speed><course>192.727798</course><hAcc>0.884672</hAcc><vAcc>0.702510</vAcc></extensions></trkpt>
      <trkpt lon="-4.147586" lat="53.005437"><ele>543.628662</ele><time>2021-07-17T11:39:59Z</time><extensions><speed>0.172839</speed><course>184.691818</course><hAcc>0.884333</hAcc><vAcc>0.701332</vAcc></extensions></trkpt>
      <trkpt lon="-4.147587" lat="53.005438"><ele>543.646362</ele><time>2021-07-17T11:40:00Z</time><extensions><speed>0.170167</speed><course>177.917740</course><hAcc>0.884020</hAcc><vAcc>0.700215</vAcc></extensions></trkpt>
      <trkpt lon="-4.147588" lat="53.005440"><ele>543.664673</ele><time>2021-07-17T11:40:01Z</time><extensions><speed>0.168121</speed><course>169.935883</course><hAcc>0.883745</hAcc><vAcc>0.699211</vAcc></extensions></trkpt>
      <trkpt lon="-4.147589" lat="53.005441"><ele>543.682983</ele><time>2021-07-17T11:40:02Z</time><extensions><speed>0.166665</speed><course>168.290512</course><hAcc>0.883520</hAcc><vAcc>0.698377</vAcc></extensions></trkpt>
      <trkpt lon="-4.147589" lat="53.005443"><ele>543.700806</ele><time>2021-07-17T11:40:03Z</time><extensions><speed>0.165662</speed><course>175.847488</course><hAcc>0.883357</hAcc><vAcc>0.697768</vAcc></extensions></trkpt>
      <trkpt lon="-4.147590" lat="53.005444"><ele>543.718018</ele><time>2021-07-17T11:40:04Z</time><extensions><speed>0.164685</speed><course>182.489380</course><hAcc>0.883262</hAcc><vAcc>0.697427</vAcc></extensions></trkpt>
      <trkpt lon="-4.147591" lat="53.005445"><ele>543.734375</ele><time>2021-07-17T11:40:05Z</time><extensions><speed>0.163053</speed><course>193.224472</course><hAcc>0.883240</hAcc><vAcc>0.697376</vAcc></extensions></trkpt>
      <trkpt lon="-4.147592" lat="53.005447"><ele>543.750061</ele><time>2021-07-17T11:40:06Z</time><extensions><speed>0.159971</speed><course>210.457108</course><hAcc>0.883291</hAcc><vAcc>0.697616</vAcc></extensions></trkpt>
      <trkpt lon="-4.147593" lat="53.005448"><ele>543.765198</ele><time>2021-07-17T11:40:07Z</time><extensions><speed>0.154634</speed><course>227.054108</course><hAcc>0.883412</hAcc><vAcc>0.698119</vAcc></extensions></trkpt>
      <trkpt lon="-4.147594" lat="53.005449"><ele>543.780151</ele><time>2021-07-17T11:40:08Z</time><extensions><speed>0.146331</speed><course>247.666534</course><hAcc>0.883596</hAcc><vAcc>0.698830</vAcc></extensions></trkpt>
      <trkpt lon="-4.147594" lat="53.005451"><ele>543.795471</ele><time>2021-07-17T11:40:09Z</time><extensions><speed>0.134359</speed><course>261.197876</course><hAcc>0.883834</hAcc><vAcc>0.699681</vAcc></extensions></trkpt>
      <trkpt lon="-4.147595" lat="53.005452"><ele>543.811523</ele><time>2021-07-17T11:40:10Z</time><extensions><speed>0.119410</speed><course>263.217255</course><hAcc>0.884122</hAcc><vAcc>0.700623</vAcc></extensions></trkpt>
      <trkpt lon="-4.147595" lat="53.005453"><ele>543.828491</ele><time>2021-07-17T11:40:11Z</time><extensions><speed>0.103481</speed><course>271.463165</course><hAcc>0.884455</hAcc><vAcc>0.701635</vAcc></extensions></trkpt>
      <trkpt lon="-4.147595" lat="53.005454"><ele>543.846069</ele><time>2021-07-17T11:40:12Z</time><extensions><speed>0.088166</speed><course>281.991608</course><hAcc>0.884837</hAcc><vAcc>0.702727</vAcc></extensions></trkpt>
      <trkpt lon="-4.147595" lat="53.005454"><ele>543.863586</ele><time>2021-07-17T11:40:13Z</time><extensions><speed>0.074517</speed><course>285.895782</course><hAcc>0.885277</hAcc><vAcc>0.703925</vAcc></extensions></trkpt>
      <trkpt lon="-4.147595" lat="53.005455"><ele>543.880310</ele><time>2021-07-17T11:40:14Z</time><extensions><speed>0.062901</speed><course>287.327179</course><hAcc>0.885788</hAcc><vAcc>0.705267</vAcc></extensions></trkpt>
      <trkpt lon="-4.147595" lat="53.005455"><ele>543.895813</ele><time>2021-07-17T11:40:15Z</time><extensions><speed>0.053058</speed><course>297.396240</course><hAcc>0.886391</hAcc><vAcc>0.706789</vAcc></extensions></trkpt>
      <trkpt lon="-4.147594" lat="53.005456"><ele>543.909729</ele><time>2021-07-17T11:40:16Z</time><extensions><speed>0.044582</speed><course>299.473175</course><hAcc>0.887111</hAcc><vAcc>0.708513</vAcc></extensions></trkpt>
      <trkpt lon="-4.147594" lat="53.005456"><ele>543.921997</ele><time>2021-07-17T11:40:17Z</time><extensions><speed>0.037256</speed><course>297.683289</course><hAcc>0.887979</hAcc><vAcc>0.710448</vAcc></extensions></trkpt>
      <trkpt lon="-4.147594" lat="53.005456"><ele>543.932617</ele><time>2021-07-17T11:40:18Z</time><extensions><speed>0.030961</speed><course>292.365356</course><hAcc>0.889027</hAcc><vAcc>0.712584</vAcc></extensions></trkpt>
      <trkpt lon="-4.147593" lat="53.005456"><ele>543.941711</ele><time>2021-07-17T11:40:19Z</time><extensions><speed>0.025607</speed><course>291.092651</course><hAcc>0.890289</hAcc><vAcc>0.714899</vAcc></extensions></trkpt>
      <trkpt lon="-4.147593" lat="53.005457"><ele>543.949280</ele><time>2021-07-17T11:40:20Z</time><extensions><speed>0.021125</speed><course>297.007721</course><hAcc>0.891791</hAcc><vAcc>0.717355</vAcc></extensions></trkpt>
      <trkpt lon="-4.147593" lat="53.005457"><ele>543.955505</ele><time>2021-07-17T11:40:21Z</time><extensions><speed>0.017459</speed><course>291.539093</course><hAcc>0.893548</hAcc><vAcc>0.719905</vAcc></extensions></trkpt>
      <trkpt lon="-4.147593" lat="53.005457"><ele>543.960388</ele><time>2021-07-17T11:40:22Z</time><extensions><speed>0.014552</speed><course>293.314819</course><hAcc>0.895554</hAcc><vAcc>0.722486</vAcc></extensions></trkpt>
      <trkpt lon="-4.147592" lat="53.005457"><ele>543.964111</ele><time>2021-07-17T11:40:23Z</time><extensions><speed>0.012338</speed><course>297.043213</course><hAcc>0.897771</hAcc><vAcc>0.725013</vAcc></extensions></trkpt>
      <trkpt lon="-4.147592" lat="53.005457"><ele>543.966858</ele><time>2021-07-17T11:40:24Z</time><extensions><speed>0.010725</speed><course>301.573547</course><hAcc>0.900117</hAcc><vAcc>0.727382</vAcc></extensions></trkpt>
      <trkpt lon="-4.147592" lat="53.005457"><ele>543.968689</ele><time>2021-07-17T11:40:25Z</time><extensions><speed>0.009597</speed><course>305.542847</course><hAcc>0.902463</hAcc><vAcc>0.729470</vAcc></extensions></trkpt>
      <trkpt lon="-4.147592" lat="53.005457"><ele>543.969727</ele><time>2021-07-17T11:40:26Z</time><extensions><speed>0.008821</speed><course>304.461029</course><hAcc>0.904637</hAcc><vAcc>0.731151</vAcc></extensions></trkpt>
      <trkpt lon="-4.147592" lat="53.005456"><ele>543.970154</ele><time>2021-07-17T11:40:27Z</time><extensions><speed>0.008271</speed><course>304.519958</course><hAcc>0.906446</hAcc><vAcc>0.732330</vAcc></extensions></trkpt>
      <trkpt lon="-4.147592" lat="53.005456"><ele>543.970032</ele><time>2021-07-17T11:40:28Z</time><extensions><speed>0.007848</speed><course>306.835541</course><hAcc>0.907728</hAcc><vAcc>0.733000</vAcc></extensions></trkpt>
      <trkpt lon="-4.147592" lat="53.005456"><ele>543.969482</ele><time>2021-07-17T11:40:29Z</time><extensions><speed>0.007486</speed><course>312.924469</course><hAcc>0.908458</hAcc><vAcc>0.733341</vAcc></extensions></trkpt>
      <trkpt lon="-4.147592" lat="53.005456"><ele>543.968567</ele><time>2021-07-17T11:40:30Z</time><extensions><speed>0.007149</speed><course>313.121582</course><hAcc>0.908907</hAcc><vAcc>0.733859</vAcc></extensions></trkpt>
      <trkpt lon="-4.147592" lat="53.005456"><ele>543.967346</ele><time>2021-07-17T11:40:31Z</time><extensions><speed>0.006822</speed><course>312.363678</course><hAcc>0.909906</hAcc><vAcc>0.735587</vAcc></extensions></trkpt>
      <trkpt lon="-4.147592" lat="53.005456"><ele>543.966003</ele><time>2021-07-17T11:40:32Z</time><extensions><speed>0.006505</speed><course>309.905548</course><hAcc>0.913181</hAcc><vAcc>0.740311</vAcc></extensions></trkpt>
      <trkpt lon="-4.147592" lat="53.005456"><ele>543.964478</ele><time>2021-07-17T11:40:33Z</time><extensions><speed>0.006206</speed><course>308.597687</course><hAcc>0.921815</hAcc><vAcc>0.750805</vAcc></extensions></trkpt>
      <trkpt lon="-4.147592" lat="53.005456"><ele>543.962830</ele><time>2021-07-17T11:40:34Z</time><extensions><speed>0.005935</speed><course>307.103394</course><hAcc>0.940660</hAcc><vAcc>0.770977</vAcc></extensions></trkpt>
      <trkpt lon="-4.147592" lat="53.005456"><ele>543.961121</ele><time>2021-07-17T11:40:35Z</time><extensions><speed>0.005701</speed><course>306.897400</course><hAcc>0.976411</hAcc><vAcc>0.805683</vAcc></extensions></trkpt>
      <trkpt lon="-4.147592" lat="53.005456"><ele>543.953918</ele><time>2021-07-17T11:40:36Z</time><extensions><speed>0.000000</speed><course>207.637573</course><hAcc>0.938565</hAcc><vAcc>0.770822</vAcc></extensions></trkpt>
      <trkpt lon="-4.147592" lat="53.005456"><ele>543.953918</ele><time>2021-07-17T11:40:37Z</time><extensions><speed>0.000000</speed><course>199.781464</course><hAcc>0.919439</hAcc><vAcc>0.750356</vAcc></extensions></trkpt>
      <trkpt lon="-4.147592" lat="53.005456"><ele>543.953918</ele><time>2021-07-17T11:40:38Z</time><extensions><speed>0.000000</speed><course>204.898392</course><hAcc>0.911869</hAcc><vAcc>0.740747</vAcc></extensions></trkpt>
      <trkpt lon="-4.147592" lat="53.005456"><ele>543.953918</ele><time>2021-07-17T11:40:39Z</time><extensions><speed>0.000000</speed><course>218.988647</course><hAcc>0.910375</hAcc><vAcc>0.737664</vAcc></extensions></trkpt>
      <trkpt lon="-4.147592" lat="53.005456"><ele>543.953918</ele><time>2021-07-17T11:40:40Z</time><extensions><speed>0.000000</speed><course>240.875916</course><hAcc>0.911474</hAcc><vAcc>0.738003</vAcc></extensions></trkpt>
      <trkpt lon="-4.147592" lat="53.005456"><ele>543.953918</ele><time>2021-07-17T11:40:41Z</time><extensions><speed>0.000000</speed><course>240.875916</course><hAcc>0.913231</hAcc><vAcc>0.739770</vAcc></extensions></trkpt>
      <trkpt lon="-4.147592" lat="53.005456"><ele>543.953918</ele><time>2021-07-17T11:40:42Z</time><extensions><speed>0.000000</speed><course>240.875916</course><hAcc>0.914752</hAcc><vAcc>0.741815</vAcc></extensions></trkpt>
      <trkpt lon="-4.147592" lat="53.005456"><ele>543.953918</ele><time>2021-07-17T11:40:43Z</time><extensions><speed>0.000000</speed><course>240.875916</course><hAcc>0.915758</hAcc><vAcc>0.743559</vAcc></extensions></trkpt>
      <trkpt lon="-4.147592" lat="53.005456"><ele>543.953918</ele><time>2021-07-17T11:40:44Z</time><extensions><speed>0.000000</speed><course>240.875916</course><hAcc>0.916276</hAcc><vAcc>0.744766</vAcc></extensions></trkpt>
      <trkpt lon="-4.147592" lat="53.005456"><ele>543.953918</ele><time>2021-07-17T11:40:45Z</time><extensions><speed>0.000000</speed><course>240.875916</course><hAcc>0.916443</hAcc><vAcc>0.745381</vAcc></extensions></trkpt>
      <trkpt lon="-4.147592" lat="53.005456"><ele>543.953918</ele><time>2021-07-17T11:40:46Z</time><extensions><speed>0.000000</speed><course>269.430084</course><hAcc>0.916376</hAcc><vAcc>0.745416</vAcc></extensions></trkpt>
      <trkpt lon="-4.147592" lat="53.005456"><ele>543.953918</ele><time>2021-07-17T11:40:47Z</time><extensions><speed>0.000000</speed><course>274.056000</course><hAcc>0.916118</hAcc><vAcc>0.744902</vAcc></extensions></trkpt>
      <trkpt lon="-4.147592" lat="53.005456"><ele>543.953918</ele><time>2021-07-17T11:40:48Z</time><extensions><speed>0.000000</speed><course>273.580658</course><hAcc>0.915636</hAcc><vAcc>0.743885</vAcc></extensions></trkpt>
      <trkpt lon="-4.147592" lat="53.005456"><ele>543.953918</ele><time>2021-07-17T11:40:49Z</time><extensions><speed>0.000000</speed><course>266.285736</course><hAcc>0.914870</hAcc><vAcc>0.742467</vAcc></extensions></trkpt>
      <trkpt lon="-4.147592" lat="53.005456"><ele>543.953918</ele><time>2021-07-17T11:40:50Z</time><extensions><speed>0.000000</speed><course>280.416809</course><hAcc>0.913840</hAcc><vAcc>0.740902</vAcc></extensions></trkpt>
      <trkpt lon="-4.147592" lat="53.005456"><ele>543.953918</ele><time>2021-07-17T11:40:51Z</time><extensions><speed>0.000000</speed><course>289.633057</course><hAcc>0.912830</hAcc><vAcc>0.739741</vAcc></extensions></trkpt>
      <trkpt lon="-4.147592" lat="53.005456"><ele>543.953918</ele><time>2021-07-17T11:40:52Z</time><extensions><speed>0.000000</speed><course>274.042023</course><hAcc>0.912654</hAcc><vAcc>0.740036</vAcc></extensions></trkpt>
      <trkpt lon="-4.147592" lat="53.005456"><ele>543.953918</ele><time>2021-07-17T11:40:53Z</time><extensions><speed>0.000000</speed><course>259.398621</course><hAcc>0.915042</hAcc><vAcc>0.743589</vAcc></extensions></trkpt>
      <trkpt lon="-4.147592" lat="53.005456"><ele>543.953918</ele><time>2021-07-17T11:40:54Z</time><extensions><speed>0.000000</speed><course>235.228027</course><hAcc>0.923051</hAcc><vAcc>0.753183</vAcc></extensions></trkpt>
      <trkpt lon="-4.147592" lat="53.005456"><ele>543.953918</ele><time>2021-07-17T11:40:55Z</time><extensions><speed>0.000000</speed><course>233.943741</course><hAcc>0.941466</hAcc><vAcc>0.772688</vAcc></extensions></trkpt>
      <trkpt lon="-4.147592" lat="53.005456"><ele>543.953918</ele><time>2021-07-17T11:40:56Z</time><extensions><speed>0.000000</speed><course>251.986771</course><hAcc>0.976958</hAcc><vAcc>0.806950</vAcc></extensions></trkpt>
      <trkpt lon="-4.147592" lat="53.005456"><ele>543.953918</ele><time>2021-07-17T11:40:57Z</time><extensions><speed>0.000000</speed><course>207.637573</course><hAcc>0.938794</hAcc><vAcc>0.771544</vAcc></extensions></trkpt>
      <trkpt lon="-4.147592" lat="53.005456"><ele>543.953918</ele><time>2021-07-17T11:40:58Z</time><extensions><speed>0.000000</speed><course>199.781464</course><hAcc>0.919595</hAcc><vAcc>0.750926</vAcc></extensions></trkpt>
      <trkpt lon="-4.147592" lat="53.005456"><ele>543.953918</ele><time>2021-07-17T11:40:58Z</time><extensions><speed>0.000000</speed><course>204.898392</course><hAcc>0.911981</hAcc><vAcc>0.741207</vAcc></extensions></trkpt>
      <trkpt lon="-4.147592" lat="53.005456"><ele>543.953918</ele><time>2021-07-17T11:40:59Z</time><extensions><speed>0.000000</speed><course>218.988647</course><hAcc>0.910461</hAcc><vAcc>0.738040</vAcc></extensions></trkpt>
      <trkpt lon="-4.147592" lat="53.005456"><ele>543.953918</ele><time>2021-07-17T11:41:00Z</time><extensions><speed>0.000000</speed><course>240.875916</course><hAcc>0.911543</hAcc><vAcc>0.738315</vAcc></extensions></trkpt>
      <trkpt lon="-4.147592" lat="53.005456"><ele>543.953918</ele><time>2021-07-17T11:41:01Z</time><extensions><speed>0.000000</speed><course>240.875916</course><hAcc>0.913289</hAcc><vAcc>0.740029</vAcc></extensions></trkpt>
      <trkpt lon="-4.147592" lat="53.005456"><ele>543.953918</ele><time>2021-07-17T11:41:02Z</time><extensions><speed>0.000000</speed><course>240.875916</course><hAcc>0.914800</hAcc><vAcc>0.742023</vAcc></extensions></trkpt>
      <trkpt lon="-4.147592" lat="53.005456"><ele>543.953918</ele><time>2021-07-17T11:41:03Z</time><extensions><speed>0.000000</speed><course>240.875916</course><hAcc>0.915796</hAcc><vAcc>0.743715</vAcc></extensions></trkpt>
      <trkpt lon="-4.147592" lat="53.005456"><ele>543.953918</ele><time>2021-07-17T11:41:04Z</time><extensions><speed>0.000000</speed><course>240.875916</course><hAcc>0.916306</hAcc><vAcc>0.744867</vAcc></extensions></trkpt>
      <trkpt lon="-4.147592" lat="53.005456"><ele>543.953918</ele><time>2021-07-17T11:41:05Z</time><extensions><speed>0.000000</speed><course>240.875916</course><hAcc>0.916464</hAcc><vAcc>0.745425</vAcc></extensions></trkpt>
      <trkpt lon="-4.147592" lat="53.005456"><ele>543.953918</ele><time>2021-07-17T11:41:06Z</time><extensions><speed>0.000000</speed><course>269.430084</course><hAcc>0.916390</hAcc><vAcc>0.745403</vAcc></extensions></trkpt>
      <trkpt lon="-4.147592" lat="53.005456"><ele>543.953918</ele><time>2021-07-17T11:41:07Z</time><extensions><speed>0.000000</speed><course>274.056000</course><hAcc>0.916128</hAcc><vAcc>0.744837</vAcc></extensions></trkpt>
      <trkpt lon="-4.147592" lat="53.005456"><ele>543.953918</ele><time>2021-07-17T11:41:09Z</time><extensions><speed>0.000000</speed><course>273.580658</course><hAcc>0.915628</hAcc><vAcc>0.743762</vAcc></extensions></trkpt>
      <trkpt lon="-4.147592" lat="53.005456"><ele>543.953918</ele><time>2021-07-17T11:41:10Z</time><extensions><speed>0.000000</speed><course>266.285736</course><hAcc>0.914831</hAcc><vAcc>0.742284</vAcc></extensions></trkpt>
      <trkpt lon="-4.147592" lat="53.005456"><ele>543.953918</ele><time>2021-07-17T11:41:10Z</time><extensions><speed>0.000000</speed><course>280.416809</course><hAcc>0.913797</hAcc><vAcc>0.740688</vAcc></extensions></trkpt>
      <trkpt lon="-4.147592" lat="53.005456"><ele>543.953918</ele><time>2021-07-17T11:41:11Z</time><extensions><speed>0.000000</speed><course>289.633057</course><hAcc>0.912807</hAcc><vAcc>0.739524</vAcc></extensions></trkpt>
      <trkpt lon="-4.147592" lat="53.005456"><ele>543.953918</ele><time>2021-07-17T11:41:12Z</time><extensions><speed>0.000000</speed><course>274.042023</course><hAcc>0.912657</hAcc><vAcc>0.739836</vAcc></extensions></trkpt>
      <trkpt lon="-4.147592" lat="53.005456"><ele>543.953918</ele><time>2021-07-17T11:41:13Z</time><extensions><speed>0.000000</speed><course>259.398621</course><hAcc>0.915064</hAcc><vAcc>0.743424</vAcc></extensions></trkpt>
      <trkpt lon="-4.147592" lat="53.005456"><ele>543.953918</ele><time>2021-07-17T11:41:14Z</time><extensions><speed>0.000000</speed><course>235.228027</course><hAcc>0.923082</hAcc><vAcc>0.753068</vAcc></extensions></trkpt>
      <trkpt lon="-4.147592" lat="53.005456"><ele>543.953918</ele><time>2021-07-17T11:41:15Z</time><extensions><speed>0.000000</speed><course>233.943741</course><hAcc>0.941510</hAcc><vAcc>0.772652</vAcc></extensions></trkpt>
      <trkpt lon="-4.147592" lat="53.005456"><ele>543.953918</ele><time>2021-07-17T11:41:16Z</time><extensions><speed>0.000000</speed><course>251.986771</course><hAcc>0.977014</hAcc><vAcc>0.807014</vAcc></extensions></trkpt>
      <trkpt lon="-4.147592" lat="53.005456"><ele>543.954651</ele><time>2021-07-17T11:41:17Z</time><extensions><speed>0.013565</speed><course>207.637573</course><hAcc>0.938427</hAcc><vAcc>0.770955</vAcc></extensions></trkpt>
      <trkpt lon="-4.147592" lat="53.005456"><ele>543.952515</ele><time>2021-07-17T11:41:18Z</time><extensions><speed>0.015918</speed><course>199.781464</course><hAcc>0.918944</hAcc><vAcc>0.750062</vAcc></extensions></trkpt>
      <trkpt lon="-4.147592" lat="53.005456"><ele>543.950073</ele><time>2021-07-17T11:41:20Z</time><extensions><speed>0.018813</speed><course>204.898392</course><hAcc>0.910848</hAcc><vAcc>0.739859</vAcc></extensions></trkpt>
      <trkpt lon="-4.147591" lat="53.005456"><ele>543.947205</ele><time>2021-07-17T11:41:21Z</time><extensions><speed>0.022182</speed><course>218.988647</course><hAcc>0.908649</hAcc><vAcc>0.736027</vAcc></extensions></trkpt>
      <trkpt lon="-4.147591" lat="53.005456"><ele>543.943909</ele><time>2021-07-17T11:41:22Z</time><extensions><speed>0.025927</speed><course>240.875916</course><hAcc>0.908852</hAcc><vAcc>0.735466</vAcc></extensions></trkpt>
      <trkpt lon="-4.147590" lat="53.005456"><ele>543.940125</ele><time>2021-07-17T11:41:23Z</time><extensions><speed>0.029883</speed><course>240.875916</course><hAcc>0.909511</hAcc><vAcc>0.736196</vAcc></extensions></trkpt>
      <trkpt lon="-4.147590" lat="53.005456"><ele>543.935852</ele><time>2021-07-17T11:41:24Z</time><extensions><speed>0.033820</speed><course>240.875916</course><hAcc>0.909732</hAcc><vAcc>0.737102</vAcc></extensions></trkpt>
      <trkpt lon="-4.147590" lat="53.005456"><ele>543.931152</ele><time>2021-07-17T11:41:25Z</time><extensions><speed>0.037430</speed><course>240.875916</course><hAcc>0.909263</hAcc><vAcc>0.737670</vAcc></extensions></trkpt>
      <trkpt lon="-4.147589" lat="53.005457"><ele>543.926086</ele><time>2021-07-17T11:41:26Z</time><extensions><speed>0.040316</speed><course>240.875916</course><hAcc>0.908199</hAcc><vAcc>0.737761</vAcc></extensions></trkpt>
      <trkpt lon="-4.147588" lat="53.005457"><ele>543.920715</ele><time>2021-07-17T11:41:27Z</time><extensions><speed>0.041988</speed><course>240.875916</course><hAcc>0.906787</hAcc><vAcc>0.737454</vAcc></extensions></trkpt>
      <trkpt lon="-4.147588" lat="53.005457"><ele>543.915222</ele><time>2021-07-17T11:41:28Z</time><extensions><speed>0.041855</speed><course>269.430084</course><hAcc>0.905311</hAcc><vAcc>0.736922</vAcc></extensions></trkpt>
      <trkpt lon="-4.147587" lat="53.005457"><ele>543.909851</ele><time>2021-07-17T11:41:29Z</time><extensions><speed>0.039227</speed><course>274.056000</course><hAcc>0.904027</hAcc><vAcc>0.736364</vAcc></extensions></trkpt>
      <trkpt lon="-4.147587" lat="53.005457"><ele>543.904907</ele><time>2021-07-17T11:41:30Z</time><extensions><speed>0.033345</speed><course>273.580658</course><hAcc>0.903129</hAcc><vAcc>0.735951</vAcc></extensions></trkpt>
      <trkpt lon="-4.147586" lat="53.005457"><ele>543.900818</ele><time>2021-07-17T11:41:31Z</time><extensions><speed>0.023516</speed><course>266.285736</course><hAcc>0.902741</hAcc><vAcc>0.735801</vAcc></extensions></trkpt>
      <trkpt lon="-4.147586" lat="53.005457"><ele>543.898071</ele><time>2021-07-17T11:41:32Z</time><extensions><speed>0.010735</speed><course>280.416809</course><hAcc>0.902911</hAcc><vAcc>0.735961</vAcc></extensions></trkpt>
      <trkpt lon="-4.147586" lat="53.005457"><ele>543.897278</ele><time>2021-07-17T11:41:33Z</time><extensions><speed>0.018121</speed><course>289.633057</course><hAcc>0.903611</hAcc><vAcc>0.736409</vAcc></extensions></trkpt>
      <trkpt lon="-4.147586" lat="53.005456"><ele>543.899170</ele><time>2021-07-17T11:41:34Z</time><extensions><speed>0.046138</speed><course>274.042023</course><hAcc>0.904745</hAcc><vAcc>0.737053</vAcc></extensions></trkpt>
      <trkpt lon="-4.147587" lat="53.005456"><ele>543.904541</ele><time>2021-07-17T11:41:35Z</time><extensions><speed>0.083681</speed><course>259.398621</course><hAcc>0.906149</hAcc><vAcc>0.737754</vAcc></extensions></trkpt>
      <trkpt lon="-4.147589" lat="53.005456"><ele>543.914246</ele><time>2021-07-17T11:41:36Z</time><extensions><speed>0.130836</speed><course>235.228027</course><hAcc>0.907610</hAcc><vAcc>0.738350</vAcc></extensions></trkpt>
      <trkpt lon="-4.147591" lat="53.005456"><ele>543.929443</ele><time>2021-07-17T11:41:37Z</time><extensions><speed>0.188162</speed><course>233.943741</course><hAcc>0.908893</hAcc><vAcc>0.738698</vAcc></extensions></trkpt>
      <trkpt lon="-4.147594" lat="53.005455"><ele>543.951050</ele><time>2021-07-17T11:41:38Z</time><extensions><speed>0.255972</speed><course>251.986771</course><hAcc>0.909798</hAcc><vAcc>0.738746</vAcc></extensions></trkpt>
      <trkpt lon="-4.147598" lat="53.005454"><ele>543.980225</ele><time>2021-07-17T11:41:39Z</time><extensions><speed>0.334100</speed><course>230.632401</course><hAcc>0.910267</hAcc><vAcc>0.738637</vAcc></extensions></trkpt>
      <trkpt lon="-4.147604" lat="53.005454"><ele>544.017944</ele><time>2021-07-17T11:41:40Z</time><extensions><speed>0.421716</speed><course>208.539734</course><hAcc>0.910551</hAcc><vAcc>0.738851</vAcc></extensions></trkpt>
      <trkpt lon="-4.147611" lat="53.005453"><ele>544.065247</ele><time>2021-07-17T11:41:41Z</time><extensions><speed>0.517106</speed><course>217.062653</course><hAcc>0.911461</hAcc><vAcc>0.740398</vAcc></extensions></trkpt>
      <trkpt lon="-4.147619" lat="53.005451"><ele>544.122925</ele><time>2021-07-17T11:41:42Z</time><extensions><speed>0.617445</speed><course>216.480164</course><hAcc>0.914726</hAcc><vAcc>0.745058</vAcc></extensions></trkpt>
      <trkpt lon="-4.147629" lat="53.005450"><ele>544.191406</ele><time>2021-07-17T11:41:43Z</time><extensions><speed>0.718538</speed><course>215.204285</course><hAcc>0.923422</hAcc><vAcc>0.755599</vAcc></extensions></trkpt>
      <trkpt lon="-4.147640" lat="53.005449"><ele>544.270874</ele><time>2021-07-17T11:41:44Z</time><extensions><speed>0.814557</speed><course>192.608246</course><hAcc>0.942367</hAcc><vAcc>0.775898</vAcc></extensions></trkpt>
      <trkpt lon="-4.147652" lat="53.005447"><ele>544.360779</ele><time>2021-07-17T11:41:45Z</time><extensions><speed>0.897770</speed><course>196.818375</course><hAcc>0.978236</hAcc><vAcc>0.810787</vAcc></extensions></trkpt>
      <trkpt lon="-4.147669" lat="53.005445"><ele>544.553223</ele><time>2021-07-17T11:41:46Z</time><extensions><speed>1.127695</speed><course>207.637573</course><hAcc>0.939651</hAcc><vAcc>0.774587</vAcc></extensions></trkpt>
      <trkpt lon="-4.147685" lat="53.005443"><ele>544.749023</ele><time>2021-07-17T11:41:47Z</time><extensions><speed>1.082928</speed><course>199.781464</course><hAcc>0.919820</hAcc><vAcc>0.752823</vAcc></extensions></trkpt>
      <trkpt lon="-4.147701" lat="53.005441"><ele>544.946228</ele><time>2021-07-17T11:41:48Z</time><extensions><speed>1.024789</speed><course>204.898392</course><hAcc>0.911398</hAcc><vAcc>0.741772</vAcc></extensions></trkpt>
      <trkpt lon="-4.147715" lat="53.005439"><ele>545.143433</ele><time>2021-07-17T11:41:49Z</time><extensions><speed>0.958471</speed><course>218.988647</course><hAcc>0.908888</hAcc><vAcc>0.737106</vAcc></extensions></trkpt>
      <trkpt lon="-4.147728" lat="53.005437"><ele>545.339539</ele><time>2021-07-17T11:41:50Z</time><extensions><speed>0.888119</speed><course>240.875916</course><hAcc>0.908781</hAcc><vAcc>0.735711</vAcc></extensions></trkpt>
      <trkpt lon="-4.147741" lat="53.005436"><ele>545.533997</ele><time>2021-07-17T11:41:51Z</time><extensions><speed>0.817023</speed><course>240.875916</course><hAcc>0.909111</hAcc><vAcc>0.735584</vAcc></extensions></trkpt>
      <trkpt lon="-4.147752" lat="53.005434"><ele>545.726379</ele><time>2021-07-17T11:41:52Z</time><extensions><speed>0.747581</speed><course>240.875916</course><hAcc>0.908961</hAcc><vAcc>0.735579</vAcc></extensions></trkpt>
      <trkpt lon="-4.147762" lat="53.005433"><ele>545.916260</ele><time>2021-07-17T11:41:53Z</time><extensions><speed>0.681387</speed><course>240.875916</course><hAcc>0.908049</hAcc><vAcc>0.735150</vAcc></extensions></trkpt>
      <trkpt lon="-4.147772" lat="53.005431"><ele>546.102966</ele><time>2021-07-17T11:41:54Z</time><extensions><speed>0.619131</speed><course>240.875916</course><hAcc>0.906438</hAcc><vAcc>0.734128</vAcc></extensions></trkpt>
      <trkpt lon="-4.147780" lat="53.005430"><ele>546.286133</ele><time>2021-07-17T11:41:55Z</time><extensions><speed>0.561086</speed><course>240.875916</course><hAcc>0.904339</hAcc><vAcc>0.732560</vAcc></extensions></trkpt>
      <trkpt lon="-4.147788" lat="53.005429"><ele>546.465332</ele><time>2021-07-17T11:41:56Z</time><extensions><speed>0.507547</speed><course>269.430084</course><hAcc>0.902000</hAcc><vAcc>0.730594</vAcc></extensions></trkpt>
      <trkpt lon="-4.147795" lat="53.005427"><ele>546.640015</ele><time>2021-07-17T11:41:57Z</time><extensions><speed>0.459378</speed><course>274.056000</course><hAcc>0.899637</hAcc><vAcc>0.728413</vAcc></extensions></trkpt>
      <trkpt lon="-4.147801" lat="53.005426"><ele>546.809265</ele><time>2021-07-17T11:41:58Z</time><extensions><speed>0.417533</speed><course>273.580658</course><hAcc>0.897412</hAcc><vAcc>0.726187</vAcc></extensions></trkpt>
      <trkpt lon="-4.147807" lat="53.005426"><ele>546.972351</ele><time>2021-07-17T11:41:59Z</time><extensions><speed>0.382101</speed><course>266.285736</course><hAcc>0.895430</hAcc><vAcc>0.724055</vAcc></extensions></trkpt>
      <trkpt lon="-4.147813" lat="53.005425"><ele>547.128662</ele><time>2021-07-17T11:42:00Z</time><extensions><speed>0.352831</speed><course>280.416809</course><hAcc>0.893739</hAcc><vAcc>0.722113</vAcc></extensions></trkpt>
      <trkpt lon="-4.147818" lat="53.005425"><ele>547.277893</ele><time>2021-07-17T11:42:01Z</time><extensions><speed>0.329608</speed><course>289.633057</course><hAcc>0.892349</hAcc><vAcc>0.720408</vAcc></extensions></trkpt>
      <trkpt lon="-4.147822" lat="53.005425"><ele>547.419922</ele><time>2021-07-17T11:42:02Z</time><extensions><speed>0.312350</speed><course>274.042023</course><hAcc>0.891238</hAcc><vAcc>0.718948</vAcc></extensions></trkpt>
      <trkpt lon="-4.147827" lat="53.005425"><ele>547.554810</ele><time>2021-07-17T11:42:03Z</time><extensions><speed>0.301051</speed><course>259.398621</course><hAcc>0.890374</hAcc><vAcc>0.717714</vAcc></extensions></trkpt>
      <trkpt lon="-4.147831" lat="53.005425"><ele>547.683350</ele><time>2021-07-17T11:42:04Z</time><extensions><speed>0.295797</speed><course>235.228027</course><hAcc>0.889712</hAcc><vAcc>0.716673</vAcc></extensions></trkpt>
      <trkpt lon="-4.147836" lat="53.005426"><ele>547.806519</ele><time>2021-07-17T11:42:05Z</time><extensions><speed>0.296495</speed><course>233.943741</course><hAcc>0.889210</hAcc><vAcc>0.715785</vAcc></extensions></trkpt>
      <trkpt lon="-4.147840" lat="53.005427"><ele>547.925659</ele><time>2021-07-17T11:42:06Z</time><extensions><speed>0.302863</speed><course>251.986771</course><hAcc>0.888831</hAcc><vAcc>0.715016</vAcc></extensions></trkpt>
      <trkpt lon="-4.147844" lat="53.005428"><ele>548.042358</ele><time>2021-07-17T11:42:07Z</time><extensions><speed>0.314275</speed><course>230.632401</course><hAcc>0.888542</hAcc><vAcc>0.714337</vAcc></extensions></trkpt>
      <trkpt lon="-4.147848" lat="53.005429"><ele>548.158203</ele><time>2021-07-17T11:42:08Z</time><extensions><speed>0.329884</speed><course>208.539734</course><hAcc>0.888319</hAcc><vAcc>0.713731</vAcc></extensions></trkpt>
      <trkpt lon="-4.147852" lat="53.005431"><ele>548.274414</ele><time>2021-07-17T11:42:09Z</time><extensions><speed>0.348637</speed><course>217.062653</course><hAcc>0.888143</hAcc><vAcc>0.713194</vAcc></extensions></trkpt>
      <trkpt lon="-4.147857" lat="53.005433"><ele>548.392273</ele><time>2021-07-17T11:42:10Z</time><extensions><speed>0.369144</speed><course>216.480164</course><hAcc>0.888002</hAcc><vAcc>0.712727</vAcc></extensions></trkpt>
      <trkpt lon="-4.147862" lat="53.005435"><ele>548.513000</ele><time>2021-07-17T11:42:11Z</time><extensions><speed>0.390015</speed><course>215.204285</course><hAcc>0.887890</hAcc><vAcc>0.712335</vAcc></extensions></trkpt>
      <trkpt lon="-4.147866" lat="53.005437"><ele>548.638062</ele><time>2021-07-17T11:42:12Z</time><extensions><speed>0.410214</speed><course>192.608246</course><hAcc>0.887802</hAcc><vAcc>0.712021</vAcc></extensions></trkpt>
      <trkpt lon="-4.147872" lat="53.005439"><ele>548.768921</ele><time>2021-07-17T11:42:13Z</time><extensions><speed>0.429141</speed><course>196.818375</course><hAcc>0.887736</hAcc><vAcc>0.711792</vAcc></extensions></trkpt>
      <trkpt lon="-4.147877" lat="53.005441"><ele>548.907043</ele><time>2021-07-17T11:42:14Z</time><extensions><speed>0.446564</speed><course>200.564194</course><hAcc>0.887689</hAcc><vAcc>0.711649</vAcc></extensions></trkpt>
      <trkpt lon="-4.147883" lat="53.005443"><ele>549.053833</ele><time>2021-07-17T11:42:15Z</time><extensions><speed>0.462519</speed><course>224.718231</course><hAcc>0.887661</hAcc><vAcc>0.711588</vAcc></extensions></trkpt>
      <trkpt lon="-4.147889" lat="53.005445"><ele>549.210510</ele><time>2021-07-17T11:42:16Z</time><extensions><speed>0.476873</speed><course>228.969803</course><hAcc>0.887650</hAcc><vAcc>0.711599</vAcc></extensions></trkpt>
      <trkpt lon="-4.147895" lat="53.005447"><ele>549.377808</ele><time>2021-07-17T11:42:17Z</time><extensions><speed>0.488982</speed><course>250.366501</course><hAcc>0.887653</hAcc><vAcc>0.711666</vAcc></extensions></trkpt>
      <trkpt lon="-4.147902" lat="53.005449"><ele>549.555725</ele><time>2021-07-17T11:42:18Z</time><extensions><speed>0.498201</speed><course>-1.000000</course><hAcc>0.887667</hAcc><vAcc>0.711774</vAcc></extensions></trkpt>
      <trkpt lon="-4.147909" lat="53.005450"><ele>549.744019</ele><time>2021-07-17T11:42:19Z</time><extensions><speed>0.503883</speed><course>232.063629</course><hAcc>0.887687</hAcc><vAcc>0.711905</vAcc></extensions></trkpt>
      <trkpt lon="-4.147916" lat="53.005452"><ele>549.942078</ele><time>2021-07-17T11:42:20Z</time><extensions><speed>0.505356</speed><course>232.063614</course><hAcc>0.887710</hAcc><vAcc>0.712042</vAcc></extensions></trkpt>
      <trkpt lon="-4.147923" lat="53.005453"><ele>550.148743</ele><time>2021-07-17T11:42:21Z</time><extensions><speed>0.502636</speed><course>232.063614</course><hAcc>0.887731</hAcc><vAcc>0.712165</vAcc></extensions></trkpt>
      <trkpt lon="-4.147931" lat="53.005454"><ele>550.362366</ele><time>2021-07-17T11:42:22Z</time><extensions><speed>0.496553</speed><course>232.063599</course><hAcc>0.887747</hAcc><vAcc>0.712257</vAcc></extensions></trkpt>
      <trkpt lon="-4.147938" lat="53.005456"><ele>550.580688</ele><time>2021-07-17T11:42:23Z</time><extensions><speed>0.488261</speed><course>232.063599</course><hAcc>0.887757</hAcc><vAcc>0.712306</vAcc></extensions></trkpt>
      <trkpt lon="-4.147945" lat="53.005457"><ele>550.801208</ele><time>2021-07-17T11:42:24Z</time><extensions><speed>0.478919</speed><course>232.063583</course><hAcc>0.887760</hAcc><vAcc>0.712304</vAcc></extensions></trkpt>
      <trkpt lon="-4.147952" lat="53.005458"><ele>551.021362</ele><time>2021-07-17T11:42:25Z</time><extensions><speed>0.469550</speed><course>232.063583</course><hAcc>0.887756</hAcc><vAcc>0.712252</vAcc></extensions></trkpt>
      <trkpt lon="-4.147958" lat="53.005458"><ele>551.239075</ele><time>2021-07-17T11:42:26Z</time><extensions><speed>0.460883</speed><course>248.555511</course><hAcc>0.887748</hAcc><vAcc>0.712158</vAcc></extensions></trkpt>
      <trkpt lon="-4.147965" lat="53.005459"><ele>551.452515</ele><time>2021-07-17T11:42:27Z</time><extensions><speed>0.453074</speed><course>214.727661</course><hAcc>0.887741</hAcc><vAcc>0.712037</vAcc></extensions></trkpt>
      <trkpt lon="-4.147971" lat="53.005460"><ele>551.660522</ele><time>2021-07-17T11:42:28Z</time><extensions><speed>0.445701</speed><course>215.656113</course><hAcc>0.887720</hAcc><vAcc>0.711900</vAcc></extensions></trkpt>
      <trkpt lon="-4.147978" lat="53.005461"><ele>551.861450</ele><time>2021-07-17T11:42:29Z</time><extensions><speed>0.438438</speed><course>205.637772</course><hAcc>0.887691</hAcc><vAcc>0.711770</vAcc></extensions></trkpt>
      <trkpt lon="-4.147984" lat="53.005462"><ele>552.054749</ele><time>2021-07-17T11:42:30Z</time><extensions><speed>0.431109</speed><course>201.575424</course><hAcc>0.887679</hAcc><vAcc>0.711685</vAcc></extensions></trkpt>
      <trkpt lon="-4.147990" lat="53.005463"><ele>552.239807</ele><time>2021-07-17T11:42:31Z</time><extensions><speed>0.423146</speed><course>196.854248</course><hAcc>0.887687</hAcc><vAcc>0.711668</vAcc></extensions></trkpt>
      <trkpt lon="-4.147996" lat="53.005465"><ele>552.416382</ele><time>2021-07-17T11:42:32Z</time><extensions><speed>0.414378</speed><course>198.264053</course><hAcc>0.887720</hAcc><vAcc>0.711740</vAcc></extensions></trkpt>
      <trkpt lon="-4.148002" lat="53.005466"><ele>552.584106</ele><time>2021-07-17T11:42:33Z</time><extensions><speed>0.405514</speed><course>198.636932</course><hAcc>0.887784</hAcc><vAcc>0.711916</vAcc></extensions></trkpt>
      <trkpt lon="-4.148007" lat="53.005467"><ele>552.742981</ele><time>2021-07-17T11:42:34Z</time><extensions><speed>0.397560</speed><course>192.727798</course><hAcc>0.887882</hAcc><vAcc>0.712205</vAcc></extensions></trkpt>
      <trkpt lon="-4.148013" lat="53.005469"><ele>552.893188</ele><time>2021-07-17T11:42:35Z</time><extensions><speed>0.391490</speed><course>184.691818</course><hAcc>0.888015</hAcc><vAcc>0.712615</vAcc></extensions></trkpt>
      <trkpt lon="-4.148018" lat="53.005470"><ele>553.034973</ele><time>2021-07-17T11:42:36Z</time><extensions><speed>0.387413</speed><course>177.917740</course><hAcc>0.888184</hAcc><vAcc>0.713154</vAcc></extensions></trkpt>
      <trkpt lon="-4.148023" lat="53.005472"><ele>553.168701</ele><time>2021-07-17T11:42:37Z</time><extensions><speed>0.384901</speed><course>169.935883</course><hAcc>0.888389</hAcc><vAcc>0.713828</vAcc></extensions></trkpt>
      <trkpt lon="-4.148028" lat="53.005473"><ele>553.294922</ele><time>2021-07-17T11:42:38Z</time><extensions><speed>0.383541</speed><course>168.290512</course><hAcc>0.888626</hAcc><vAcc>0.714634</vAcc></extensions></trkpt>
      <trkpt lon="-4.148033" lat="53.005475"><ele>553.414612</ele><time>2021-07-17T11:42:39Z</time><extensions><speed>0.382356</speed><course>175.847488</course><hAcc>0.888891</hAcc><vAcc>0.715559</vAcc></extensions></trkpt>
      <trkpt lon="-4.148038" lat="53.005477"><ele>553.529114</ele><time>2021-07-17T11:42:40Z</time><extensions><speed>0.380144</speed><course>182.489380</course><hAcc>0.889180</hAcc><vAcc>0.716578</vAcc></extensions></trkpt>
      <trkpt lon="-4.148042" lat="53.005479"><ele>553.639709</ele><time>2021-07-17T11:42:41Z</time><extensions><speed>0.376182</speed><course>193.224472</course><hAcc>0.889487</hAcc><vAcc>0.717662</vAcc></extensions></trkpt>
      <trkpt lon="-4.148047" lat="53.005481"><ele>553.747437</ele><time>2021-07-17T11:42:42Z</time><extensions><speed>0.370445</speed><course>210.457108</course><hAcc>0.889804</hAcc><vAcc>0.718776</vAcc></extensions></trkpt>
      <trkpt lon="-4.148052" lat="53.005482"><ele>553.852905</ele><time>2021-07-17T11:42:43Z</time><extensions><speed>0.363547</speed><course>227.054108</course><hAcc>0.890125</hAcc><vAcc>0.719887</vAcc></extensions></trkpt>
      <trkpt lon="-4.148056" lat="53.005484"><ele>553.956543</ele><time>2021-07-17T11:42:44Z</time><extensions><speed>0.356329</speed><course>247.666534</course><hAcc>0.890443</hAcc><vAcc>0.720968</vAcc></extensions></trkpt>
      <trkpt lon="-4.148061" lat="53.005486"><ele>554.059082</ele><time>2021-07-17T11:42:45Z</time><extensions><speed>0.349399</speed><course>261.197876</course><hAcc>0.890754</hAcc><vAcc>0.721994</vAcc></extensions></trkpt>
      <trkpt lon="-4.148065" lat="53.005488"><ele>554.161255</ele><time>2021-07-17T11:42:46Z</time><extensions><speed>0.342933</speed><course>263.217255</course><hAcc>0.891050</hAcc><vAcc>0.722949</vAcc></extensions></trkpt>
      <trkpt lon="-4.148069" lat="53.005489"><ele>554.263733</ele><time>2021-07-17T11:42:47Z</time><extensions><speed>0.337509</speed><course>271.463165</course><hAcc>0.891328</hAcc><vAcc>0.723825</vAcc></extensions></trkpt>
      <trkpt lon="-4.148073" lat="53.005491"><ele>554.366699</ele><time>2021-07-17T11:42:48Z</time><extensions><speed>0.333873</speed><course>281.991608</course><hAcc>0.891583</hAcc><vAcc>0.724617</vAcc></extensions></trkpt>
      <trkpt lon="-4.148077" lat="53.005493"><ele>554.470642</ele><time>2021-07-17T11:42:49Z</time><extensions><speed>0.332210</speed><course>285.895782</course><hAcc>0.891810</hAcc><vAcc>0.725325</vAcc></extensions></trkpt>
      <trkpt lon="-4.148081" lat="53.005494"><ele>554.576294</ele><time>2021-07-17T11:42:50Z</time><extensions><speed>0.332225</speed><course>287.327179</course><hAcc>0.892006</hAcc><vAcc>0.725950</vAcc></extensions></trkpt>
      <trkpt lon="-4.148085" lat="53.005496"><ele>554.685242</ele><time>2021-07-17T11:42:51Z</time><extensions><speed>0.333619</speed><course>297.396240</course><hAcc>0.892165</hAcc><vAcc>0.726489</vAcc></extensions></trkpt>
      <trkpt lon="-4.148089" lat="53.005498"><ele>554.799805</ele><time>2021-07-17T11:42:52Z</time><extensions><speed>0.336227</speed><course>299.473175</course><hAcc>0.892285</hAcc><vAcc>0.726929</vAcc></extensions></trkpt>
      <trkpt lon="-4.148093" lat="53.005500"><ele>554.922913</ele><time>2021-07-17T11:42:53Z</time><extensions><speed>0.339831</speed><course>297.683289</course><hAcc>0.892361</hAcc><vAcc>0.727256</vAcc></extensions></trkpt>
      <trkpt lon="-4.148098" lat="53.005502"><ele>555.057983</ele><time>2021-07-17T11:42:54Z</time><extensions><speed>0.344408</speed><course>292.365356</course><hAcc>0.892389</hAcc><vAcc>0.727453</vAcc></extensions></trkpt>
      <trkpt lon="-4.148102" lat="53.005503"><ele>555.208435</ele><time>2021-07-17T11:42:55Z</time><extensions><speed>0.349734</speed><course>291.092651</course><hAcc>0.892364</hAcc><vAcc>0.727500</vAcc></extensions></trkpt>
      <trkpt lon="-4.148107" lat="53.005505"><ele>555.377197</ele><time>2021-07-17T11:42:56Z</time><extensions><speed>0.355098</speed><course>297.007721</course><hAcc>0.892285</hAcc><vAcc>0.727377</vAcc></extensions></trkpt>
      <trkpt lon="-4.148112" lat="53.005506"><ele>555.566650</ele><time>2021-07-17T11:42:57Z</time><extensions><speed>0.359405</speed><course>291.539093</course><hAcc>0.892150</hAcc><vAcc>0.727064</vAcc></extensions></trkpt>
      <trkpt lon="-4.148117" lat="53.005507"><ele>555.778564</ele><time>2021-07-17T11:42:58Z</time><extensions><speed>0.361448</speed><course>293.314819</course><hAcc>0.891959</hAcc><vAcc>0.726546</vAcc></extensions></trkpt>
      <trkpt lon="-4.148122" lat="53.005508"><ele>556.013367</ele><time>2021-07-17T11:42:59Z</time><extensions><speed>0.360818</speed><course>297.043213</course><hAcc>0.891737</hAcc><vAcc>0.725828</vAcc></extensions></trkpt>
      <trkpt lon="-4.148127" lat="53.005509"><ele>556.270508</ele><time>2021-07-17T11:43:00Z</time><extensions><speed>0.358037</speed><course>301.573547</course><hAcc>0.891488</hAcc><vAcc>0.724913</vAcc></extensions></trkpt>
      <trkpt lon="-4.148132" lat="53.005509"><ele>556.546448</ele><time>2021-07-17T11:43:01Z</time><extensions><speed>0.353556</speed><course>305.542847</course><hAcc>0.891205</hAcc><vAcc>0.723821</vAcc></extensions></trkpt>
      <trkpt lon="-4.148138" lat="53.005509"><ele>556.836304</ele><time>2021-07-17T11:43:02Z</time><extensions><speed>0.347799</speed><course>304.461029</course><hAcc>0.890897</hAcc><vAcc>0.722603</vAcc></extensions></trkpt>
      <trkpt lon="-4.148143" lat="53.005510"><ele>557.133789</ele><time>2021-07-17T11:43:03Z</time><extensions><speed>0.341362</speed><course>304.519958</course><hAcc>0.890572</hAcc><vAcc>0.721324</vAcc></extensions></trkpt>
      <trkpt lon="-4.148148" lat="53.005510"><ele>557.432007</ele><time>2021-07-17T11:43:04Z</time><extensions><speed>0.334665</speed><course>306.835541</course><hAcc>0.890243</hAcc><vAcc>0.720048</vAcc></extensions></trkpt>
      <trkpt lon="-4.148153" lat="53.005510"><ele>557.724304</ele><time>2021-07-17T11:43:05Z</time><extensions><speed>0.328173</speed><course>312.924469</course><hAcc>0.889920</hAcc><vAcc>0.718832</vAcc></extensions></trkpt>
      <trkpt lon="-4.148157" lat="53.005510"><ele>558.005066</ele><time>2021-07-17T11:43:06Z</time><extensions><speed>0.322479</speed><course>313.121582</course><hAcc>0.889614</hAcc><vAcc>0.717719</vAcc></extensions></trkpt>
      <trkpt lon="-4.148162" lat="53.005511"><ele>558.269836</ele><time>2021-07-17T11:43:07Z</time><extensions><speed>0.318285</speed><course>312.363678</course><hAcc>0.889334</hAcc><vAcc>0.716740</vAcc></extensions></trkpt>
      <trkpt lon="-4.148167" lat="53.005511"><ele>558.515503</ele><time>2021-07-17T11:43:08Z</time><extensions><speed>0.315568</speed><course>309.905548</course><hAcc>0.889086</hAcc><vAcc>0.715918</vAcc></extensions></trkpt>
      <trkpt lon="-4.148171" lat="53.005512"><ele>558.739441</ele><time>2021-07-17T11:43:09Z</time><extensions><speed>0.313521</speed><course>308.597687</course><hAcc>0.888873</hAcc><vAcc>0.715261</vAcc></extensions></trkpt>
      <trkpt lon="-4.148176" lat="53.005513"><ele>558.939819</ele><time>2021-07-17T11:43:10Z</time><extensions><speed>0.311336</speed><course>307.103394</course><hAcc>0.888693</hAcc><vAcc>0.714767</vAcc></extensions></trkpt>
      <trkpt lon="-4.148180" lat="53.005514"><ele>559.115784</ele><time>2021-07-17T11:43:11Z</time><extensions><speed>0.308752</speed><course>306.897400</course><hAcc>0.888544</hAcc><vAcc>0.714417</vAcc></extensions></trkpt>
      <trkpt lon="-4.148184" lat="53.005515"><ele>559.267578</ele><time>2021-07-17T11:43:12Z</time><extensions><speed>0.305922</speed><course>302.152618</course><hAcc>0.888419</hAcc><vAcc>0.714177</vAcc></extensions></trkpt>
      <trkpt lon="-4.148189" lat="53.005516"><ele>559.396423</ele><time>2021-07-17T11:43:13Z</time><extensions><speed>0.303352</speed><course>297.726410</course><hAcc>0.888310</hAcc><vAcc>0.714000</vAcc></extensions></trkpt>
      <trkpt lon="-4.148193" lat="53.005517"><ele>559.504578</ele><time>2021-07-17T11:43:14Z</time><extensions><speed>0.302017</speed><course>300.194183</course><hAcc>0.888208</hAcc><vAcc>0.713833</vAcc></extensions></trkpt>
      <trkpt lon="-4.148197" lat="53.005518"><ele>559.594971</ele><time>2021-07-17T11:43:15Z</time><extensions><speed>0.302387</speed><course>297.151825</course><hAcc>0.888105</hAcc><vAcc>0.713623</vAcc></extensions></trkpt>
      <trkpt lon="-4.148201" lat="53.005519"><ele>559.671204</ele><time>2021-07-17T11:43:16Z</time><extensions><speed>0.304268</speed><course>298.399384</course><hAcc>0.887993</hAcc><vAcc>0.713332</vAcc></extensions></trkpt>
      <trkpt lon="-4.148205" lat="53.005521"><ele>559.737061</ele><time>2021-07-17T11:43:17Z</time><extensions><speed>0.306788</speed><course>300.837921</course><hAcc>0.887863</hAcc><vAcc>0.712929</vAcc></extensions></trkpt>
      <trkpt lon="-4.148209" lat="53.005522"><ele>559.796082</ele><time>2021-07-17T11:43:18Z</time><extensions><speed>0.309028</speed><course>299.844330</course><hAcc>0.887707</hAcc><vAcc>0.712403</vAcc></extensions></trkpt>
      <trkpt lon="-4.148213" lat="53.005523"><ele>559.851746</ele><time>2021-07-17T11:43:19Z</time><extensions><speed>0.310902</speed><course>300.001373</course><hAcc>0.887517</hAcc><vAcc>0.711754</vAcc></extensions></trkpt>
      <trkpt lon="-4.148217" lat="53.005525"><ele>559.907349</ele><time>2021-07-17T11:43:20Z</time><extensions><speed>0.312596</speed><course>294.568817</course><hAcc>0.887282</hAcc><vAcc>0.710990</vAcc></extensions></trkpt>
      <trkpt lon="-4.148221" lat="53.005526"><ele>559.966553</ele><time>2021-07-17T11:43:21Z</time><extensions><speed>0.313909</speed><course>300.687103</course><hAcc>0.886993</hAcc><vAcc>0.710108</vAcc></extensions></trkpt>
      <trkpt lon="-4.148225" lat="53.005527"><ele>560.033508</ele><time>2021-07-17T11:43:22Z</time><extensions><speed>0.315145</speed><course>297.691925</course><hAcc>0.886637</hAcc><vAcc>0.709080</vAcc></extensions></trkpt>
      <trkpt lon="-4.148229" lat="53.005529"><ele>560.112671</ele><time>2021-07-17T11:43:23Z</time><extensions><speed>0.317598</speed><course>293.928223</course><hAcc>0.886201</hAcc><vAcc>0.707850</vAcc></extensions></trkpt>
      <trkpt lon="-4.148233" lat="53.005531"><ele>560.208679</ele><time>2021-07-17T11:43:24Z</time><extensions><speed>0.322232</speed><course>297.041656</course><hAcc>0.885672</hAcc><vAcc>0.706344</vAcc></extensions></trkpt>
      <trkpt lon="-4.148237" lat="53.005532"><ele>560.326172</ele><time>2021-07-17T11:43:25Z</time><extensions><speed>0.329305</speed><course>298.722290</course><hAcc>0.885038</hAcc><vAcc>0.704477</vAcc></extensions></trkpt>
      <trkpt lon="-4.148241" lat="53.005534"><ele>560.469666</ele><time>2021-07-17T11:43:26Z</time><extensions><speed>0.338020</speed><course>296.674316</course><hAcc>0.884290</hAcc><vAcc>0.702155</vAcc></extensions></trkpt>
      <trkpt lon="-4.148245" lat="53.005536"><ele>560.643677</ele><time>2021-07-17T11:43:27Z</time><extensions><speed>0.347398</speed><course>301.147156</course><hAcc>0.883424</hAcc><vAcc>0.699282</vAcc></extensions></trkpt>
      <trkpt lon="-4.148248" lat="53.005538"><ele>560.853149</ele><time>2021-07-17T11:43:28Z</time><extensions><speed>0.356803</speed><course>301.618805</course><hAcc>0.882443</hAcc><vAcc>0.695769</vAcc></extensions></trkpt>
      <trkpt lon="-4.148252" lat="53.005541"><ele>561.102600</ele><time>2021-07-17T11:43:29Z</time><extensions><speed>0.365191</speed><course>300.678009</course><hAcc>0.881356</hAcc><vAcc>0.691557</vAcc></extensions></trkpt>
      <trkpt lon="-4.148256" lat="53.005543"><ele>561.396729</ele><time>2021-07-17T11:43:30Z</time><extensions><speed>0.371486</speed><course>306.078644</course><hAcc>0.880181</hAcc><vAcc>0.686627</vAcc></extensions></trkpt>
      <trkpt lon="-4.148260" lat="53.005546"><ele>561.739380</ele><time>2021-07-17T11:43:31Z</time><extensions><speed>0.375548</speed><course>302.099213</course><hAcc>0.878940</hAcc><vAcc>0.680996</vAcc></extensions></trkpt>
      <trkpt lon="-4.148263" lat="53.005548"><ele>562.133057</ele><time>2021-07-17T11:43:32Z</time><extensions><speed>0.378473</speed><course>298.253754</course><hAcc>0.877661</hAcc><vAcc>0.674714</vAcc></extensions></trkpt>
      <trkpt lon="-4.148267" lat="53.005551"><ele>562.577820</ele><time>2021-07-17T11:43:33Z</time><extensions><speed>0.381795</speed><course>299.772583</course><hAcc>0.876373</hAcc><vAcc>0.667856</vAcc></extensions></trkpt>
      <trkpt lon="-4.148271" lat="53.005553"><ele>563.071350</ele><time>2021-07-17T11:43:34Z</time><extensions><speed>0.386123</speed><course>299.946075</course><hAcc>0.875110</hAcc><vAcc>0.660512</vAcc></extensions></trkpt>
      <trkpt lon="-4.148275" lat="53.005556"><ele>563.609131</ele><time>2021-07-17T11:43:35Z</time><extensions><speed>0.390745</speed><course>303.968170</course><hAcc>0.873919</hAcc><vAcc>0.652784</vAcc></extensions></trkpt>
      <trkpt lon="-4.148279" lat="53.005558"><ele>564.184692</ele><time>2021-07-17T11:43:36Z</time><extensions><speed>0.395089</speed><course>302.223755</course><hAcc>0.872864</hAcc><vAcc>0.644799</vAcc></extensions></trkpt>
      <trkpt lon="-4.148284" lat="53.005561"><ele>564.788635</ele><time>2021-07-17T11:43:37Z</time><extensions><speed>0.399930</speed><course>303.590851</course><hAcc>0.872046</hAcc><vAcc>0.636750</vAcc></extensions></trkpt>
      <trkpt lon="-4.148288" lat="53.005563"><ele>565.409058</ele><time>2021-07-17T11:43:38Z</time><extensions><speed>0.406556</speed><course>302.656281</course><hAcc>0.871621</hAcc><vAcc>0.628917</vAcc></extensions></trkpt>
      <trkpt lon="-4.148293" lat="53.005565"><ele>566.033569</ele><time>2021-07-17T11:43:39Z</time><extensions><speed>0.415235</speed><course>307.857574</course><hAcc>0.871834</hAcc><vAcc>0.621619</vAcc></extensions></trkpt>
      <trkpt lon="-4.148299" lat="53.005567"><ele>566.650818</ele><time>2021-07-17T11:43:40Z</time><extensions><speed>0.424967</speed><course>306.241272</course><hAcc>0.873031</hAcc><vAcc>0.615170</vAcc></extensions></trkpt>
      <trkpt lon="-4.148305" lat="53.005568"><ele>567.251404</ele><time>2021-07-17T11:43:41Z</time><extensions><speed>0.434388</speed><course>302.560516</course><hAcc>0.875628</hAcc><vAcc>0.609856</vAcc></extensions></trkpt>
      <trkpt lon="-4.148311" lat="53.005570"><ele>567.828247</ele><time>2021-07-17T11:43:42Z</time><extensions><speed>0.442653</speed><course>304.207947</course><hAcc>0.880053</hAcc><vAcc>0.605912</vAcc></extensions></trkpt>
      <trkpt lon="-4.148317" lat="53.005571"><ele>568.375793</ele><time>2021-07-17T11:43:43Z</time><extensions><speed>0.449617</speed><course>304.678192</course><hAcc>0.886686</hAcc><vAcc>0.603515</vAcc></extensions></trkpt>
      <trkpt lon="-4.148323" lat="53.005572"><ele>568.889648</ele><time>2021-07-17T11:43:44Z</time><extensions><speed>0.455697</speed><course>300.816559</course><hAcc>0.895777</hAcc><vAcc>0.602775</vAcc></extensions></trkpt>
      <trkpt lon="-4.148330" lat="53.005573"><ele>569.366577</ele><time>2021-07-17T11:43:45Z</time><extensions><speed>0.461329</speed><course>302.457642</course><hAcc>0.907407</hAcc><vAcc>0.603737</vAcc></extensions></trkpt>
      <trkpt lon="-4.148337" lat="53.005574"><ele>569.804565</ele><time>2021-07-17T11:43:46Z</time><extensions><speed>0.466697</speed><course>303.405792</course><hAcc>0.921429</hAcc><vAcc>0.606375</vAcc></extensions></trkpt>
      <trkpt lon="-4.148344" lat="53.005575"><ele>570.203003</ele><time>2021-07-17T11:43:47Z</time><extensions><speed>0.472032</speed><course>305.179382</course><hAcc>0.937432</hAcc><vAcc>0.610556</vAcc></extensions></trkpt>
      <trkpt lon="-4.148351" lat="53.005575"><ele>570.562988</ele><time>2021-07-17T11:43:48Z</time><extensions><speed>0.477763</speed><course>301.811188</course><hAcc>0.954749</hAcc><vAcc>0.616012</vAcc></extensions></trkpt>
      <trkpt lon="-4.148358" lat="53.005576"><ele>570.886292</ele><time>2021-07-17T11:43:49Z</time><extensions><speed>0.484175</speed><course>294.111877</course><hAcc>0.972517</hAcc><vAcc>0.622343</vAcc></extensions></trkpt>
      <trkpt lon="-4.148365" lat="53.005577"><ele>571.175232</ele><time>2021-07-17T11:43:50Z</time><extensions><speed>0.491586</speed><course>291.186249</course><hAcc>0.989771</hAcc><vAcc>0.629036</vAcc></extensions></trkpt>
      <trkpt lon="-4.148372" lat="53.005578"><ele>571.432312</ele><time>2021-07-17T11:43:51Z</time><extensions><speed>0.500461</speed><course>291.833313</course><hAcc>1.005571</hAcc><vAcc>0.635531</vAcc></extensions></trkpt>
      <trkpt lon="-4.148379" lat="53.005579"><ele>571.660400</ele><time>2021-07-17T11:43:52Z</time><extensions><speed>0.511032</speed><course>293.198639</course><hAcc>1.019120</hAcc><vAcc>0.641306</vAcc></extensions></trkpt>
      <trkpt lon="-4.148387" lat="53.005580"><ele>571.861938</ele><time>2021-07-17T11:43:53Z</time><extensions><speed>0.523020</speed><course>297.953094</course><hAcc>1.029803</hAcc><vAcc>0.645924</vAcc></extensions></trkpt>
      <trkpt lon="-4.148394" lat="53.005582"><ele>572.039307</ele><time>2021-07-17T11:43:54Z</time><extensions><speed>0.535750</speed><course>294.998413</course><hAcc>1.037165</hAcc><vAcc>0.649038</vAcc></extensions></trkpt>
      <trkpt lon="-4.148402" lat="53.005583"><ele>572.194458</ele><time>2021-07-17T11:43:55Z</time><extensions><speed>0.548711</speed><course>290.333923</course><hAcc>1.040924</hAcc><vAcc>0.650403</vAcc></extensions></trkpt>
      <trkpt lon="-4.148409" lat="53.005585"><ele>572.328674</ele><time>2021-07-17T11:43:56Z</time><extensions><speed>0.561805</speed><course>297.336884</course><hAcc>1.041000</hAcc><vAcc>0.649918</vAcc></extensions></trkpt>
      <trkpt lon="-4.148417" lat="53.005588"><ele>572.442993</ele><time>2021-07-17T11:43:57Z</time><extensions><speed>0.575203</speed><course>291.763641</course><hAcc>1.037548</hAcc><vAcc>0.647657</vAcc></extensions></trkpt>
      <trkpt lon="-4.148424" lat="53.005590"><ele>572.537903</ele><time>2021-07-17T11:43:58Z</time><extensions><speed>0.589416</speed><course>293.588959</course><hAcc>1.030920</hAcc><vAcc>0.643845</vAcc></extensions></trkpt>
      <trkpt lon="-4.148432" lat="53.005593"><ele>572.613525</ele><time>2021-07-17T11:43:59Z</time><extensions><speed>0.605545</speed><course>298.534668</course><hAcc>1.021592</hAcc><vAcc>0.638805</vAcc></extensions></trkpt>
      <trkpt lon="-4.148440" lat="53.005596"><ele>572.669983</ele><time>2021-07-17T11:44:00Z</time><extensions><speed>0.624814</speed><course>294.834351</course><hAcc>1.010070</hAcc><vAcc>0.632892</vAcc></extensions></trkpt>
      <trkpt lon="-4.148447" lat="53.005600"><ele>572.707703</ele><time>2021-07-17T11:44:01Z</time><extensions><speed>0.647781</speed><course>297.698059</course><hAcc>0.996810</hAcc><vAcc>0.626431</vAcc></extensions></trkpt>
      <trkpt lon="-4.148455" lat="53.005603"><ele>572.726868</ele><time>2021-07-17T11:44:02Z</time><extensions><speed>0.674478</speed><course>298.511444</course><hAcc>0.982191</hAcc><vAcc>0.619702</vAcc></extensions></trkpt>
      <trkpt lon="-4.148463" lat="53.005607"><ele>572.727844</ele><time>2021-07-17T11:44:03Z</time><extensions><speed>0.704903</speed><course>303.054443</course><hAcc>0.966549</hAcc><vAcc>0.612960</vAcc></extensions></trkpt>
      <trkpt lon="-4.148471" lat="53.005612"><ele>572.710999</ele><time>2021-07-17T11:44:04Z</time><extensions><speed>0.739094</speed><course>300.594757</course><hAcc>0.950272</hAcc><vAcc>0.606508</vAcc></extensions></trkpt>
      <trkpt lon="-4.148479" lat="53.005616"><ele>572.676819</ele><time>2021-07-17T11:44:05Z</time><extensions><speed>0.776348</speed><course>303.489990</course><hAcc>0.933897</hAcc><vAcc>0.600751</vAcc></extensions></trkpt>
      <trkpt lon="-4.148487" lat="53.005621"><ele>572.625488</ele><time>2021-07-17T11:44:06Z</time><extensions><speed>0.815176</speed><course>307.296783</course><hAcc>0.918119</hAcc><vAcc>0.596171</vAcc></extensions></trkpt>
      <trkpt lon="-4.148496" lat="53.005627"><ele>572.557373</ele><time>2021-07-17T11:44:07Z</time><extensions><speed>0.853562</speed><course>306.846466</course><hAcc>0.903655</hAcc><vAcc>0.593185</vAcc></extensions></trkpt>
      <trkpt lon="-4.148505" lat="53.005632"><ele>572.472839</ele><time>2021-07-17T11:44:08Z</time><extensions><speed>0.889341</speed><course>314.303711</course><hAcc>0.891069</hAcc><vAcc>0.591984</vAcc></extensions></trkpt>
      <trkpt lon="-4.148515" lat="53.005638"><ele>572.372986</ele><time>2021-07-17T11:44:09Z</time><extensions><speed>0.921003</speed><course>316.753265</course><hAcc>0.880693</hAcc><vAcc>0.592499</vAcc></extensions></trkpt>
      <trkpt lon="-4.148525" lat="53.005644"><ele>572.259583</ele><time>2021-07-17T11:44:10Z</time><extensions><speed>0.947982</speed><course>312.101562</course><hAcc>0.872624</hAcc><vAcc>0.594476</vAcc></extensions></trkpt>
      <trkpt lon="-4.148536" lat="53.005650"><ele>572.134705</ele><time>2021-07-17T11:44:11Z</time><extensions><speed>0.970570</speed><course>310.983948</course><hAcc>0.866746</hAcc><vAcc>0.597560</vAcc></extensions></trkpt>
      <trkpt lon="-4.148546" lat="53.005655"><ele>572.001160</ele><time>2021-07-17T11:44:12Z</time><extensions><speed>0.990003</speed><course>316.824890</course><hAcc>0.862786</hAcc><vAcc>0.601366</vAcc></extensions></trkpt>
      <trkpt lon="-4.148558" lat="53.005661"><ele>571.861633</ele><time>2021-07-17T11:44:13Z</time><extensions><speed>1.008013</speed><course>324.005005</course><hAcc>0.860389</hAcc><vAcc>0.605553</vAcc></extensions></trkpt>
      <trkpt lon="-4.148569" lat="53.005667"><ele>571.718323</ele><time>2021-07-17T11:44:14Z</time><extensions><speed>1.025868</speed><course>322.091736</course><hAcc>0.859192</hAcc><vAcc>0.609870</vAcc></extensions></trkpt>
      <trkpt lon="-4.148581" lat="53.005673"><ele>571.571899</ele><time>2021-07-17T11:44:15Z</time><extensions><speed>1.044011</speed><course>322.830170</course><hAcc>0.858869</hAcc><vAcc>0.614165</vAcc></extensions></trkpt>
      <trkpt lon="-4.148593" lat="53.005679"><ele>571.422363</ele><time>2021-07-17T11:44:16Z</time><extensions><speed>1.062880</speed><course>325.823517</course><hAcc>0.859153</hAcc><vAcc>0.618378</vAcc></extensions></trkpt>
      <trkpt lon="-4.148605" lat="53.005686"><ele>571.269348</ele><time>2021-07-17T11:44:17Z</time><extensions><speed>1.082926</speed><course>331.853210</course><hAcc>0.859846</hAcc><vAcc>0.622525</vAcc></extensions></trkpt>
      <trkpt lon="-4.148617" lat="53.005692"><ele>571.111694</ele><time>2021-07-17T11:44:18Z</time><extensions><speed>1.103767</speed><course>331.260956</course><hAcc>0.860811</hAcc><vAcc>0.626667</vAcc></extensions></trkpt>
      <trkpt lon="-4.148629" lat="53.005699"><ele>570.947205</ele><time>2021-07-17T11:44:19Z</time><extensions><speed>1.125045</speed><course>329.072571</course><hAcc>0.861961</hAcc><vAcc>0.630882</vAcc></extensions></trkpt>
      <trkpt lon="-4.148641" lat="53.005707"><ele>570.772461</ele><time>2021-07-17T11:44:20Z</time><extensions><speed>1.146671</speed><course>325.473938</course><hAcc>0.863241</hAcc><vAcc>0.635243</vAcc></extensions></trkpt>
      <trkpt lon="-4.148653" lat="53.005714"><ele>570.583984</ele><time>2021-07-17T11:44:21Z</time><extensions><speed>1.167966</speed><course>325.383026</course><hAcc>0.864620</hAcc><vAcc>0.639791</vAcc></extensions></trkpt>
      <trkpt lon="-4.148664" lat="53.005722"><ele>570.379333</ele><time>2021-07-17T11:44:22Z</time><extensions><speed>1.188084</speed><course>325.061401</course><hAcc>0.866065</hAcc><vAcc>0.644503</vAcc></extensions></trkpt>
      <trkpt lon="-4.148676" lat="53.005730"><ele>570.157104</ele><time>2021-07-17T11:44:23Z</time><extensions><speed>1.206358</speed><course>325.207275</course><hAcc>0.867539</hAcc><vAcc>0.649290</vAcc></extensions></trkpt>
      <trkpt lon="-4.148687" lat="53.005739"><ele>569.917236</ele><time>2021-07-17T11:44:24Z</time><extensions><speed>1.221858</speed><course>322.410889</course><hAcc>0.869006</hAcc><vAcc>0.654039</vAcc></extensions></trkpt>
      <trkpt lon="-4.148698" lat="53.005748"><ele>569.660400</ele><time>2021-07-17T11:44:25Z</time><extensions><speed>1.233981</speed><course>319.218658</course><hAcc>0.870433</hAcc><vAcc>0.658635</vAcc></extensions></trkpt>
      <trkpt lon="-4.148709" lat="53.005756"><ele>569.387817</ele><time>2021-07-17T11:44:26Z</time><extensions><speed>1.243098</speed><course>319.790588</course><hAcc>0.871792</hAcc><vAcc>0.662988</vAcc></extensions></trkpt>
      <trkpt lon="-4.148720" lat="53.005765"><ele>569.102112</ele><time>2021-07-17T11:44:27Z</time><extensions><speed>1.250043</speed><course>318.972229</course><hAcc>0.873063</hAcc><vAcc>0.667035</vAcc></extensions></trkpt>
      <trkpt lon="-4.148731" lat="53.005775"><ele>568.807068</ele><time>2021-07-17T11:44:28Z</time><extensions><speed>1.255240</speed><course>320.354065</course><hAcc>0.874234</hAcc><vAcc>0.670737</vAcc></extensions></trkpt>
      <trkpt lon="-4.148743" lat="53.005784"><ele>568.507141</ele><time>2021-07-17T11:44:29Z</time><extensions><speed>1.258698</speed><course>320.541016</course><hAcc>0.875296</hAcc><vAcc>0.674065</vAcc></extensions></trkpt>
      <trkpt lon="-4.148754" lat="53.005793"><ele>568.206238</ele><time>2021-07-17T11:44:30Z</time><extensions><speed>1.260591</speed><course>317.906189</course><hAcc>0.876242</hAcc><vAcc>0.676995</vAcc></extensions></trkpt>
      <trkpt lon="-4.148766" lat="53.005802"><ele>567.907471</ele><time>2021-07-17T11:44:31Z</time><extensions><speed>1.260947</speed><course>316.077393</course><hAcc>0.877072</hAcc><vAcc>0.679516</vAcc></extensions></trkpt>
      <trkpt lon="-4.148777" lat="53.005810"><ele>567.612854</ele><time>2021-07-17T11:44:32Z</time><extensions><speed>1.259621</speed><course>307.356537</course><hAcc>0.877788</hAcc><vAcc>0.681642</vAcc></extensions></trkpt>
      <trkpt lon="-4.148789" lat="53.005819"><ele>567.323975</ele><time>2021-07-17T11:44:33Z</time><extensions><speed>1.256960</speed><course>302.004150</course><hAcc>0.878402</hAcc><vAcc>0.683410</vAcc></extensions></trkpt>
      <trkpt lon="-4.148802" lat="53.005827"><ele>567.042419</ele><time>2021-07-17T11:44:34Z</time><extensions><speed>1.253450</speed><course>310.520874</course><hAcc>0.878925</hAcc><vAcc>0.684877</vAcc></extensions></trkpt>
      <trkpt lon="-4.148814" lat="53.005836"><ele>566.770142</ele><time>2021-07-17T11:44:35Z</time><extensions><speed>1.249183</speed><course>307.778412</course><hAcc>0.879357</hAcc><vAcc>0.686093</vAcc></extensions></trkpt>
      <trkpt lon="-4.148827" lat="53.005844"><ele>566.509705</ele><time>2021-07-17T11:44:36Z</time><extensions><speed>1.244080</speed><course>310.132080</course><hAcc>0.879712</hAcc><vAcc>0.687118</vAcc></extensions></trkpt>
      <trkpt lon="-4.148840" lat="53.005852"><ele>566.262634</ele><time>2021-07-17T11:44:37Z</time><extensions><speed>1.238026</speed><course>310.327301</course><hAcc>0.880025</hAcc><vAcc>0.688018</vAcc></extensions></trkpt>
      <trkpt lon="-4.148853" lat="53.005860"><ele>566.029968</ele><time>2021-07-17T11:44:38Z</time><extensions><speed>1.230521</speed><course>308.925873</course><hAcc>0.880311</hAcc><vAcc>0.688837</vAcc></extensions></trkpt>
      <trkpt lon="-4.148867" lat="53.005867"><ele>565.812500</ele><time>2021-07-17T11:44:39Z</time><extensions><speed>1.220586</speed><course>308.955322</course><hAcc>0.880582</hAcc><vAcc>0.689613</vAcc></extensions></trkpt>
      <trkpt lon="-4.148880" lat="53.005874"><ele>565.611206</ele><time>2021-07-17T11:44:40Z</time><extensions><speed>1.206547</speed><course>303.152588</course><hAcc>0.880851</hAcc><vAcc>0.690387</vAcc></extensions></trkpt>
      <trkpt lon="-4.148894" lat="53.005881"><ele>565.427246</ele><time>2021-07-17T11:44:41Z</time><extensions><speed>1.185958</speed><course>313.156525</course><hAcc>0.881131</hAcc><vAcc>0.691198</vAcc></extensions></trkpt>
      <trkpt lon="-4.148907" lat="53.005888"><ele>565.261597</ele><time>2021-07-17T11:44:42Z</time><extensions><speed>1.156207</speed><course>307.864197</course><hAcc>0.881430</hAcc><vAcc>0.692086</vAcc></extensions></trkpt>
      <trkpt lon="-4.148920" lat="53.005894"><ele>565.114990</ele><time>2021-07-17T11:44:43Z</time><extensions><speed>1.115106</speed><course>309.541687</course><hAcc>0.881757</hAcc><vAcc>0.693084</vAcc></extensions></trkpt>
      <trkpt lon="-4.148933" lat="53.005900"><ele>564.987549</ele><time>2021-07-17T11:44:44Z</time><extensions><speed>1.061685</speed><course>312.130341</course><hAcc>0.882115</hAcc><vAcc>0.694209</vAcc></extensions></trkpt>
      <trkpt lon="-4.148945" lat="53.005906"><ele>564.878845</ele><time>2021-07-17T11:44:45Z</time><extensions><speed>0.996366</speed><course>310.268982</course><hAcc>0.882507</hAcc><vAcc>0.695469</vAcc></extensions></trkpt>
      <trkpt lon="-4.148957" lat="53.005911"><ele>564.787598</ele><time>2021-07-17T11:44:46Z</time><extensions><speed>0.920684</speed><course>308.247070</course><hAcc>0.882928</hAcc><vAcc>0.696861</vAcc></extensions></trkpt>
      <trkpt lon="-4.148967" lat="53.005916"><ele>564.712280</ele><time>2021-07-17T11:44:47Z</time><extensions><speed>0.837087</speed><course>304.229858</course><hAcc>0.883376</hAcc><vAcc>0.698365</vAcc></extensions></trkpt>
      <trkpt lon="-4.148977" lat="53.005920"><ele>564.651489</ele><time>2021-07-17T11:44:48Z</time><extensions><speed>0.748631</speed><course>308.310059</course><hAcc>0.883841</hAcc><vAcc>0.699947</vAcc></extensions></trkpt>
      <trkpt lon="-4.148985" lat="53.005924"><ele>564.603760</ele><time>2021-07-17T11:44:49Z</time><extensions><speed>0.658974</speed><course>311.142822</course><hAcc>0.884315</hAcc><vAcc>0.701563</vAcc></extensions></trkpt>
      <trkpt lon="-4.148993" lat="53.005927"><ele>564.567627</ele><time>2021-07-17T11:44:50Z</time><extensions><speed>0.571781</speed><course>305.518036</course><hAcc>0.884787</hAcc><vAcc>0.703164</vAcc></extensions></trkpt>
      <trkpt lon="-4.148999" lat="53.005930"><ele>564.541443</ele><time>2021-07-17T11:44:51Z</time><extensions><speed>0.490276</speed><course>303.061462</course><hAcc>0.885248</hAcc><vAcc>0.704702</vAcc></extensions></trkpt>
      <trkpt lon="-4.149005" lat="53.005932"><ele>564.523560</ele><time>2021-07-17T11:44:52Z</time><extensions><speed>0.416806</speed><course>298.232086</course><hAcc>0.885687</hAcc><vAcc>0.706138</vAcc></extensions></trkpt>
      <trkpt lon="-4.149009" lat="53.005934"><ele>564.512329</ele><time>2021-07-17T11:44:53Z</time><extensions><speed>0.352564</speed><course>289.358276</course><hAcc>0.886097</hAcc><vAcc>0.707451</vAcc></extensions></trkpt>
      <trkpt lon="-4.149013" lat="53.005936"><ele>564.505981</ele><time>2021-07-17T11:44:54Z</time><extensions><speed>0.298036</speed><course>285.924469</course><hAcc>0.886473</hAcc><vAcc>0.708627</vAcc></extensions></trkpt>
      <trkpt lon="-4.149016" lat="53.005937"><ele>564.502747</ele><time>2021-07-17T11:44:55Z</time><extensions><speed>0.253037</speed><course>280.520447</course><hAcc>0.886811</hAcc><vAcc>0.709666</vAcc></extensions></trkpt>
      <trkpt lon="-4.149019" lat="53.005939"><ele>564.501038</ele><time>2021-07-17T11:44:56Z</time><extensions><speed>0.216776</speed><course>286.862061</course><hAcc>0.887111</hAcc><vAcc>0.710570</vAcc></extensions></trkpt>
      <trkpt lon="-4.149022" lat="53.005940"><ele>564.499756</ele><time>2021-07-17T11:44:57Z</time><extensions><speed>0.188243</speed><course>295.700317</course><hAcc>0.887371</hAcc><vAcc>0.711350</vAcc></extensions></trkpt>
      <trkpt lon="-4.149024" lat="53.005941"><ele>564.497742</ele><time>2021-07-17T11:44:58Z</time><extensions><speed>0.166619</speed><course>296.161560</course><hAcc>0.887595</hAcc><vAcc>0.712015</vAcc></extensions></trkpt>
      <trkpt lon="-4.149025" lat="53.005942"><ele>564.494263</ele><time>2021-07-17T11:44:59Z</time><extensions><speed>0.151046</speed><course>298.229218</course><hAcc>0.887784</hAcc><vAcc>0.712578</vAcc></extensions></trkpt>
      <trkpt lon="-4.149027" lat="53.005943"><ele>564.488647</ele><time>2021-07-17T11:45:00Z</time><extensions><speed>0.140343</speed><course>297.545471</course><hAcc>0.887942</hAcc><vAcc>0.713048</vAcc></extensions></trkpt>
      <trkpt lon="-4.149029" lat="53.005943"><ele>564.480408</ele><time>2021-07-17T11:45:01Z</time><extensions><speed>0.133184</speed><course>292.454163</course><hAcc>0.888073</hAcc><vAcc>0.713437</vAcc></extensions></trkpt>
      <trkpt lon="-4.149030" lat="53.005944"><ele>564.469116</ele><time>2021-07-17T11:45:02Z</time><extensions><speed>0.128795</speed><course>287.195465</course><hAcc>0.888180</hAcc><vAcc>0.713756</vAcc></extensions></trkpt>
      <trkpt lon="-4.149031" lat="53.005945"><ele>564.454651</ele><time>2021-07-17T11:45:03Z</time><extensions><speed>0.127168</speed><course>283.339600</course><hAcc>0.888267</hAcc><vAcc>0.714017</vAcc></extensions></trkpt>
      <trkpt lon="-4.149032" lat="53.005946"><ele>564.436951</ele><time>2021-07-17T11:45:04Z</time><extensions><speed>0.128495</speed><course>283.687531</course><hAcc>0.888336</hAcc><vAcc>0.714231</vAcc></extensions></trkpt>
      <trkpt lon="-4.149033" lat="53.005947"><ele>564.416504</ele><time>2021-07-17T11:45:05Z</time><extensions><speed>0.132611</speed><course>284.089417</course><hAcc>0.888409</hAcc><vAcc>0.714424</vAcc></extensions></trkpt>
      <trkpt lon="-4.149035" lat="53.005948"><ele>564.393738</ele><time>2021-07-17T11:45:06Z</time><extensions><speed>0.139016</speed><course>286.432800</course><hAcc>0.888487</hAcc><vAcc>0.714610</vAcc></extensions></trkpt>
      <trkpt lon="-4.149036" lat="53.005949"><ele>564.369324</ele><time>2021-07-17T11:45:07Z</time><extensions><speed>0.147391</speed><course>288.844025</course><hAcc>0.888554</hAcc><vAcc>0.714783</vAcc></extensions></trkpt>
      <trkpt lon="-4.149037" lat="53.005950"><ele>564.343872</ele><time>2021-07-17T11:45:08Z</time><extensions><speed>0.158005</speed><course>294.600861</course><hAcc>0.888612</hAcc><vAcc>0.714951</vAcc></extensions></trkpt>
      <trkpt lon="-4.149039" lat="53.005951"><ele>564.318176</ele><time>2021-07-17T11:45:09Z</time><extensions><speed>0.171489</speed><course>289.399475</course><hAcc>0.888662</hAcc><vAcc>0.715115</vAcc></extensions></trkpt>
      <trkpt lon="-4.149041" lat="53.005953"><ele>564.292480</ele><time>2021-07-17T11:45:10Z</time><extensions><speed>0.188309</speed><course>292.462738</course><hAcc>0.888704</hAcc><vAcc>0.715271</vAcc></extensions></trkpt>
      <trkpt lon="-4.149043" lat="53.005954"><ele>564.266907</ele><time>2021-07-17T11:45:11Z</time><extensions><speed>0.208443</speed><course>292.044128</course><hAcc>0.888736</hAcc><vAcc>0.715411</vAcc></extensions></trkpt>
      <trkpt lon="-4.149045" lat="53.005955"><ele>564.241150</ele><time>2021-07-17T11:45:12Z</time><extensions><speed>0.231517</speed><course>289.426849</course><hAcc>0.888758</hAcc><vAcc>0.715520</vAcc></extensions></trkpt>
      <trkpt lon="-4.149048" lat="53.005957"><ele>564.214905</ele><time>2021-07-17T11:45:13Z</time><extensions><speed>0.256906</speed><course>292.821838</course><hAcc>0.888768</hAcc><vAcc>0.715587</vAcc></extensions></trkpt>
      <trkpt lon="-4.149051" lat="53.005958"><ele>564.187683</ele><time>2021-07-17T11:45:14Z</time><extensions><speed>0.283770</speed><course>287.405121</course><hAcc>0.888766</hAcc><vAcc>0.715606</vAcc></extensions></trkpt>
      <trkpt lon="-4.149054" lat="53.005960"><ele>564.159119</ele><time>2021-07-17T11:45:15Z</time><extensions><speed>0.310883</speed><course>289.328461</course><hAcc>0.888752</hAcc><vAcc>0.715572</vAcc></extensions></trkpt>
      <trkpt lon="-4.149058" lat="53.005962"><ele>564.129150</ele><time>2021-07-17T11:45:16Z</time><extensions><speed>0.336521</speed><course>290.686554</course><hAcc>0.888726</hAcc><vAcc>0.715485</vAcc></extensions></trkpt>
      <trkpt lon="-4.149062" lat="53.005963"><ele>564.098022</ele><time>2021-07-17T11:45:17Z</time><extensions><speed>0.358777</speed><course>291.519623</course><hAcc>0.888689</hAcc><vAcc>0.715349</vAcc></extensions></trkpt>
      <trkpt lon="-4.149067" lat="53.005965"><ele>564.065979</ele><time>2021-07-17T11:45:18Z</time><extensions><speed>0.376555</speed><course>289.260345</course><hAcc>0.888646</hAcc><vAcc>0.715172</vAcc></extensions></trkpt>
      <trkpt lon="-4.149071" lat="53.005967"><ele>564.033569</ele><time>2021-07-17T11:45:19Z</time><extensions><speed>0.389450</speed><course>291.671295</course><hAcc>0.888598</hAcc><vAcc>0.714970</vAcc></extensions></trkpt>
      <trkpt lon="-4.149076" lat="53.005969"><ele>564.001221</ele><time>2021-07-17T11:45:20Z</time><extensions><speed>0.396794</speed><course>285.797272</course><hAcc>0.888549</hAcc><vAcc>0.714764</vAcc></extensions></trkpt>
      <trkpt lon="-4.149081" lat="53.005971"><ele>563.969360</ele><time>2021-07-17T11:45:20Z</time><extensions><speed>0.398103</speed><course>284.045776</course><hAcc>0.888523</hAcc><vAcc>0.714590</vAcc></extensions></trkpt>
      <trkpt lon="-4.149086" lat="53.005973"><ele>563.938171</ele><time>2021-07-17T11:45:21Z</time><extensions><speed>0.393181</speed><course>290.744446</course><hAcc>0.888523</hAcc><vAcc>0.714475</vAcc></extensions></trkpt>
      <trkpt lon="-4.149091" lat="53.005975"><ele>563.907959</ele><time>2021-07-17T11:45:22Z</time><extensions><speed>0.381248</speed><course>286.155334</course><hAcc>0.888534</hAcc><vAcc>0.714428</vAcc></extensions></trkpt>
      <trkpt lon="-4.149096" lat="53.005976"><ele>563.879333</ele><time>2021-07-17T11:45:23Z</time><extensions><speed>0.361920</speed><course>292.078705</course><hAcc>0.888559</hAcc><vAcc>0.714466</vAcc></extensions></trkpt>
      <trkpt lon="-4.149101" lat="53.005978"><ele>563.852722</ele><time>2021-07-17T11:45:24Z</time><extensions><speed>0.336018</speed><course>292.906311</course><hAcc>0.888600</hAcc><vAcc>0.714597</vAcc></extensions></trkpt>
      <trkpt lon="-4.149105" lat="53.005979"><ele>563.828491</ele><time>2021-07-17T11:45:25Z</time><extensions><speed>0.304522</speed><course>291.462067</course><hAcc>0.888656</hAcc><vAcc>0.714816</vAcc></extensions></trkpt>
      <trkpt lon="-4.149109" lat="53.005981"><ele>563.806580</ele><time>2021-07-17T11:45:26Z</time><extensions><speed>0.268493</speed><course>290.448425</course><hAcc>0.888725</hAcc><vAcc>0.715109</vAcc></extensions></trkpt>
      <trkpt lon="-4.149112" lat="53.005982"><ele>563.787048</ele><time>2021-07-17T11:45:27Z</time><extensions><speed>0.229467</speed><course>295.857269</course><hAcc>0.888803</hAcc><vAcc>0.715453</vAcc></extensions></trkpt>
      <trkpt lon="-4.149115" lat="53.005982"><ele>563.769897</ele><time>2021-07-17T11:45:28Z</time><extensions><speed>0.189157</speed><course>298.185364</course><hAcc>0.888887</hAcc><vAcc>0.715815</vAcc></extensions></trkpt>
      <trkpt lon="-4.149117" lat="53.005983"><ele>563.755493</ele><time>2021-07-17T11:45:29Z</time><extensions><speed>0.149080</speed><course>294.469940</course><hAcc>0.888974</hAcc><vAcc>0.716158</vAcc></extensions></trkpt>
      <trkpt lon="-4.149119" lat="53.005984"><ele>563.743958</ele><time>2021-07-17T11:45:30Z</time><extensions><speed>0.110787</speed><course>292.898438</course><hAcc>0.889061</hAcc><vAcc>0.716452</vAcc></extensions></trkpt>
      <trkpt lon="-4.149120" lat="53.005984"><ele>563.735718</ele><time>2021-07-17T11:45:32Z</time><extensions><speed>0.075561</speed><course>292.422791</course><hAcc>0.889128</hAcc><vAcc>0.716665</vAcc></extensions></trkpt>
      <trkpt lon="-4.149121" lat="53.005984"><ele>563.730957</ele><time>2021-07-17T11:45:33Z</time><extensions><speed>0.044656</speed><course>292.622986</course><hAcc>0.889172</hAcc><vAcc>0.716798</vAcc></extensions></trkpt>
      <trkpt lon="-4.149121" lat="53.005984"><ele>563.729492</ele><time>2021-07-17T11:45:34Z</time><extensions><speed>0.020134</speed><course>292.749084</course><hAcc>0.889211</hAcc><vAcc>0.716874</vAcc></extensions></trkpt>
      <trkpt lon="-4.149121" lat="53.005984"><ele>563.730957</ele><time>2021-07-17T11:45:35Z</time><extensions><speed>0.015713</speed><course>294.832458</course><hAcc>0.889242</hAcc><vAcc>0.716913</vAcc></extensions></trkpt>
      <trkpt lon="-4.149121" lat="53.005984"><ele>563.734802</ele><time>2021-07-17T11:45:36Z</time><extensions><speed>0.029367</speed><course>290.563019</course><hAcc>0.889268</hAcc><vAcc>0.716938</vAcc></extensions></trkpt>
      <trkpt lon="-4.149121" lat="53.005984"><ele>563.740540</ele><time>2021-07-17T11:45:37Z</time><extensions><speed>0.041894</speed><course>288.082062</course><hAcc>0.889289</hAcc><vAcc>0.716967</vAcc></extensions></trkpt>
      <trkpt lon="-4.149121" lat="53.005983"><ele>563.747681</ele><time>2021-07-17T11:45:38Z</time><extensions><speed>0.051372</speed><course>289.238037</course><hAcc>0.889308</hAcc><vAcc>0.717013</vAcc></extensions></trkpt>
      <trkpt lon="-4.149120" lat="53.005983"><ele>563.755981</ele><time>2021-07-17T11:45:39Z</time><extensions><speed>0.058369</speed><course>289.037109</course><hAcc>0.889327</hAcc><vAcc>0.717083</vAcc></extensions></trkpt>
      <trkpt lon="-4.149119" lat="53.005983"><ele>563.765259</ele><time>2021-07-17T11:45:40Z</time><extensions><speed>0.063801</speed><course>291.884949</course><hAcc>0.889348</hAcc><vAcc>0.717172</vAcc></extensions></trkpt>
      <trkpt lon="-4.149119" lat="53.005982"><ele>563.775391</ele><time>2021-07-17T11:45:41Z</time><extensions><speed>0.068249</speed><course>287.567657</course><hAcc>0.889375</hAcc><vAcc>0.717270</vAcc></extensions></trkpt>
      <trkpt lon="-4.149118" lat="53.005982"><ele>563.786194</ele><time>2021-07-17T11:45:42Z</time><extensions><speed>0.071799</speed><course>291.768890</course><hAcc>0.889408</hAcc><vAcc>0.717373</vAcc></extensions></trkpt>
      <trkpt lon="-4.149117" lat="53.005981"><ele>563.797058</ele><time>2021-07-17T11:45:43Z</time><extensions><speed>0.074237</speed><course>296.126740</course><hAcc>0.889449</hAcc><vAcc>0.717483</vAcc></extensions></trkpt>
      <trkpt lon="-4.149116" lat="53.005981"><ele>563.807556</ele><time>2021-07-17T11:45:44Z</time><extensions><speed>0.075055</speed><course>297.059143</course><hAcc>0.889497</hAcc><vAcc>0.717608</vAcc></extensions></trkpt>
      <trkpt lon="-4.149115" lat="53.005981"><ele>563.817078</ele><time>2021-07-17T11:45:45Z</time><extensions><speed>0.074041</speed><course>303.696320</course><hAcc>0.889552</hAcc><vAcc>0.717760</vAcc></extensions></trkpt>
      <trkpt lon="-4.149114" lat="53.005980"><ele>563.825012</ele><time>2021-07-17T11:45:46Z</time><extensions><speed>0.071578</speed><course>307.460022</course><hAcc>0.889611</hAcc><vAcc>0.717944</vAcc></extensions></trkpt>
      <trkpt lon="-4.149113" lat="53.005980"><ele>563.831055</ele><time>2021-07-17T11:45:47Z</time><extensions><speed>0.067988</speed><course>302.094666</course><hAcc>0.889673</hAcc><vAcc>0.718161</vAcc></extensions></trkpt>
      <trkpt lon="-4.149112" lat="53.005980"><ele>563.835022</ele><time>2021-07-17T11:45:48Z</time><extensions><speed>0.063282</speed><course>294.763123</course><hAcc>0.889735</hAcc><vAcc>0.718406</vAcc></extensions></trkpt>
      <trkpt lon="-4.149112" lat="53.005979"><ele>563.837097</ele><time>2021-07-17T11:45:49Z</time><extensions><speed>0.057392</speed><course>292.310913</course><hAcc>0.889796</hAcc><vAcc>0.718664</vAcc></extensions></trkpt>
      <trkpt lon="-4.149111" lat="53.005979"><ele>563.837585</ele><time>2021-07-17T11:45:50Z</time><extensions><speed>0.050140</speed><course>286.252472</course><hAcc>0.889852</hAcc><vAcc>0.718919</vAcc></extensions></trkpt>
      <trkpt lon="-4.149110" lat="53.005979"><ele>563.837158</ele><time>2021-07-17T11:45:51Z</time><extensions><speed>0.041182</speed><course>277.085999</course><hAcc>0.889902</hAcc><vAcc>0.719147</vAcc></extensions></trkpt>
      <trkpt lon="-4.149110" lat="53.005979"><ele>563.836609</ele><time>2021-07-17T11:45:52Z</time><extensions><speed>0.030717</speed><course>269.880463</course><hAcc>0.889944</hAcc><vAcc>0.719326</vAcc></extensions></trkpt>
      <trkpt lon="-4.149110" lat="53.005979"><ele>563.836670</ele><time>2021-07-17T11:45:53Z</time><extensions><speed>0.020147</speed><course>256.014618</course><hAcc>0.889976</hAcc><vAcc>0.719440</vAcc></extensions></trkpt>
      <trkpt lon="-4.149109" lat="53.005979"><ele>563.837891</ele><time>2021-07-17T11:45:54Z</time><extensions><speed>0.013575</speed><course>250.524368</course><hAcc>0.889997</hAcc><vAcc>0.719486</vAcc></extensions></trkpt>
      <trkpt lon="-4.149110" lat="53.005978"><ele>563.840881</ele><time>2021-07-17T11:45:55Z</time><extensions><speed>0.017112</speed><course>237.491638</course><hAcc>0.890009</hAcc><vAcc>0.719468</vAcc></extensions></trkpt>
      <trkpt lon="-4.149110" lat="53.005978"><ele>563.845703</ele><time>2021-07-17T11:45:56Z</time><extensions><speed>0.025263</speed><course>231.976761</course><hAcc>0.890012</hAcc><vAcc>0.719403</vAcc></extensions></trkpt>
      <trkpt lon="-4.149110" lat="53.005978"><ele>563.852417</ele><time>2021-07-17T11:45:57Z</time><extensions><speed>0.032718</speed><course>228.504318</course><hAcc>0.890008</hAcc><vAcc>0.719307</vAcc></extensions></trkpt>
      <trkpt lon="-4.149111" lat="53.005978"><ele>563.860718</ele><time>2021-07-17T11:45:58Z</time><extensions><speed>0.038107</speed><course>227.577087</course><hAcc>0.889999</hAcc><vAcc>0.719202</vAcc></extensions></trkpt>
      <trkpt lon="-4.149111" lat="53.005978"><ele>563.870239</ele><time>2021-07-17T11:45:59Z</time><extensions><speed>0.040958</speed><course>219.513672</course><hAcc>0.889990</hAcc><vAcc>0.719107</vAcc></extensions></trkpt>
      <trkpt lon="-4.149112" lat="53.005978"><ele>563.880432</ele><time>2021-07-17T11:46:00Z</time><extensions><speed>0.041086</speed><course>224.903015</course><hAcc>0.889984</hAcc><vAcc>0.719039</vAcc></extensions></trkpt>
      <trkpt lon="-4.149112" lat="53.005978"><ele>563.890930</ele><time>2021-07-17T11:46:01Z</time><extensions><speed>0.038688</speed><course>222.390198</course><hAcc>0.889985</hAcc><vAcc>0.719012</vAcc></extensions></trkpt>
      <trkpt lon="-4.149113" lat="53.005978"><ele>563.901428</ele><time>2021-07-17T11:46:02Z</time><extensions><speed>0.034022</speed><course>223.313202</course><hAcc>0.889998</hAcc><vAcc>0.719034</vAcc></extensions></trkpt>
      <trkpt lon="-4.149113" lat="53.005978"><ele>563.911560</ele><time>2021-07-17T11:46:03Z</time><extensions><speed>0.027486</speed><course>224.045700</course><hAcc>0.890029</hAcc><vAcc>0.719114</vAcc></extensions></trkpt>
      <trkpt lon="-4.149114" lat="53.005977"><ele>563.921082</ele><time>2021-07-17T11:46:04Z</time><extensions><speed>0.020043</speed><course>224.975723</course><hAcc>0.890082</hAcc><vAcc>0.719259</vAcc></extensions></trkpt>
      <trkpt lon="-4.149114" lat="53.005977"><ele>563.929749</ele><time>2021-07-17T11:46:05Z</time><extensions><speed>0.013249</speed><course>226.513992</course><hAcc>0.890167</hAcc><vAcc>0.719478</vAcc></extensions></trkpt>
      <trkpt lon="-4.149114" lat="53.005977"><ele>563.937500</ele><time>2021-07-17T11:46:06Z</time><extensions><speed>0.009545</speed><course>227.291473</course><hAcc>0.890292</hAcc><vAcc>0.719786</vAcc></extensions></trkpt>
      <trkpt lon="-4.149114" lat="53.005977"><ele>563.944275</ele><time>2021-07-17T11:46:07Z</time><extensions><speed>0.010702</speed><course>231.833313</course><hAcc>0.890471</hAcc><vAcc>0.720204</vAcc></extensions></trkpt>
      <trkpt lon="-4.149114" lat="53.005977"><ele>563.949890</ele><time>2021-07-17T11:46:08Z</time><extensions><speed>0.013876</speed><course>230.421005</course><hAcc>0.890720</hAcc><vAcc>0.720754</vAcc></extensions></trkpt>
      <trkpt lon="-4.149114" lat="53.005977"><ele>563.954346</ele><time>2021-07-17T11:46:09Z</time><extensions><speed>0.016420</speed><course>235.980087</course><hAcc>0.891061</hAcc><vAcc>0.721457</vAcc></extensions></trkpt>
      <trkpt lon="-4.149113" lat="53.005977"><ele>563.957886</ele><time>2021-07-17T11:46:10Z</time><extensions><speed>0.017721</speed><course>243.213364</course><hAcc>0.891521</hAcc><vAcc>0.722328</vAcc></extensions></trkpt>
      <trkpt lon="-4.149113" lat="53.005977"><ele>563.960571</ele><time>2021-07-17T11:46:11Z</time><extensions><speed>0.017977</speed><course>253.165268</course><hAcc>0.892132</hAcc><vAcc>0.723383</vAcc></extensions></trkpt>
      <trkpt lon="-4.149113" lat="53.005977"><ele>563.962585</ele><time>2021-07-17T11:46:12Z</time><extensions><speed>0.017427</speed><course>266.505096</course><hAcc>0.892928</hAcc><vAcc>0.724631</vAcc></extensions></trkpt>
      <trkpt lon="-4.149113" lat="53.005977"><ele>563.963989</ele><time>2021-07-17T11:46:13Z</time><extensions><speed>0.016297</speed><course>267.255646</course><hAcc>0.893946</hAcc><vAcc>0.726075</vAcc></extensions></trkpt>
      <trkpt lon="-4.149112" lat="53.005977"><ele>563.964905</ele><time>2021-07-17T11:46:14Z</time><extensions><speed>0.014787</speed><course>271.176971</course><hAcc>0.895214</hAcc><vAcc>0.727706</vAcc></extensions></trkpt>
      <trkpt lon="-4.149112" lat="53.005977"><ele>563.965332</ele><time>2021-07-17T11:46:15Z</time><extensions><speed>0.013061</speed><course>283.145996</course><hAcc>0.896749</hAcc><vAcc>0.729499</vAcc></extensions></trkpt>
      <trkpt lon="-4.149112" lat="53.005977"><ele>563.965454</ele><time>2021-07-17T11:46:16Z</time><extensions><speed>0.011250</speed><course>291.499756</course><hAcc>0.898546</hAcc><vAcc>0.731405</vAcc></extensions></trkpt>
      <trkpt lon="-4.149112" lat="53.005977"><ele>563.965332</ele><time>2021-07-17T11:46:17Z</time><extensions><speed>0.009452</speed><course>295.960785</course><hAcc>0.900566</hAcc><vAcc>0.733347</vAcc></extensions></trkpt>
      <trkpt lon="-4.149112" lat="53.005977"><ele>563.965027</ele><time>2021-07-17T11:46:18Z</time><extensions><speed>0.007741</speed><course>298.309418</course><hAcc>0.902729</hAcc><vAcc>0.735216</vAcc></extensions></trkpt>
      <trkpt lon="-4.149112" lat="53.005977"><ele>563.964539</ele><time>2021-07-17T11:46:19Z</time><extensions><speed>0.006166</speed><course>301.442566</course><hAcc>0.904906</hAcc><vAcc>0.736880</vAcc></extensions></trkpt>
      <trkpt lon="-4.149112" lat="53.005977"><ele>563.963989</ele><time>2021-07-17T11:46:20Z</time><extensions><speed>0.004756</speed><course>301.820831</course><hAcc>0.906927</hAcc><vAcc>0.738201</vAcc></extensions></trkpt>
      <trkpt lon="-4.149111" lat="53.005977"><ele>563.963379</ele><time>2021-07-17T11:46:21Z</time><extensions><speed>0.003527</speed><course>306.533081</course><hAcc>0.908598</hAcc><vAcc>0.739068</vAcc></extensions></trkpt>
      <trkpt lon="-4.149111" lat="53.005977"><ele>563.962708</ele><time>2021-07-17T11:46:22Z</time><extensions><speed>0.002481</speed><course>310.759277</course><hAcc>0.909766</hAcc><vAcc>0.739470</vAcc></extensions></trkpt>
      <trkpt lon="-4.149111" lat="53.005977"><ele>563.962036</ele><time>2021-07-17T11:46:23Z</time><extensions><speed>0.001613</speed><course>315.721252</course><hAcc>0.910408</hAcc><vAcc>0.739588</vAcc></extensions></trkpt>
      <trkpt lon="-4.149111" lat="53.005977"><ele>563.961365</ele><time>2021-07-17T11:46:24Z</time><extensions><speed>0.000909</speed><course>321.376434</course><hAcc>0.910807</hAcc><vAcc>0.739941</vAcc></extensions></trkpt>
      <trkpt lon="-4.149111" lat="53.005977"><ele>563.960754</ele><time>2021-07-17T11:46:25Z</time><extensions><speed>0.000356</speed><course>321.893402</course><hAcc>0.911802</hAcc><vAcc>0.741585</vAcc></extensions></trkpt>
      <trkpt lon="-4.149111" lat="53.005977"><ele>563.960144</ele><time>2021-07-17T11:46:26Z</time><extensions><speed>0.000087</speed><course>325.867676</course><hAcc>0.915142</hAcc><vAcc>0.746338</vAcc></extensions></trkpt>
      <trkpt lon="-4.149111" lat="53.005977"><ele>563.959534</ele><time>2021-07-17T11:46:27Z</time><extensions><speed>0.000390</speed><course>319.975250</course><hAcc>0.923919</hAcc><vAcc>0.757009</vAcc></extensions></trkpt>
      <trkpt lon="-4.149111" lat="53.005977"><ele>563.958984</ele><time>2021-07-17T11:46:28Z</time><extensions><speed>0.000613</speed><course>320.826599</course><hAcc>0.942958</hAcc><vAcc>0.777506</vAcc></extensions></trkpt>
      <trkpt lon="-4.149111" lat="53.005977"><ele>563.958435</ele><time>2021-07-17T11:46:29Z</time><extensions><speed>0.000764</speed><course>320.826599</course><hAcc>0.978938</hAcc><vAcc>0.812679</vAcc></extensions></trkpt>
      <trkpt lon="-4.149112" lat="53.005977"><ele>563.958069</ele><time>2021-07-17T11:46:30Z</time><extensions><speed>0.000000</speed><course>207.637573</course><hAcc>0.940889</hAcc><vAcc>0.777286</vAcc></extensions></trkpt>
      <trkpt lon="-4.149112" lat="53.005977"><ele>563.958069</ele><time>2021-07-17T11:46:31Z</time><extensions><speed>0.000000</speed><course>199.781464</course><hAcc>0.921546</hAcc><vAcc>0.756382</vAcc></extensions></trkpt>
      <trkpt lon="-4.149112" lat="53.005977"><ele>563.958069</ele><time>2021-07-17T11:46:32Z</time><extensions><speed>0.000000</speed><course>204.898392</course><hAcc>0.913817</hAcc><vAcc>0.746493</vAcc></extensions></trkpt>
      <trkpt lon="-4.149112" lat="53.005977"><ele>563.958069</ele><time>2021-07-17T11:46:33Z</time><extensions><speed>0.000000</speed><course>218.988647</course><hAcc>0.912226</hAcc><vAcc>0.743275</vAcc></extensions></trkpt>
      <trkpt lon="-4.149112" lat="53.005977"><ele>563.958069</ele><time>2021-07-17T11:46:34Z</time><extensions><speed>0.000000</speed><course>240.875916</course><hAcc>0.913284</hAcc><vAcc>0.743593</vAcc></extensions></trkpt>
      <trkpt lon="-4.149112" lat="53.005977"><ele>563.958069</ele><time>2021-07-17T11:46:35Z</time><extensions><speed>0.000000</speed><course>240.875916</course><hAcc>0.915042</hAcc><vAcc>0.745418</vAcc></extensions></trkpt>
      <trkpt lon="-4.149112" lat="53.005977"><ele>563.958069</ele><time>2021-07-17T11:46:36Z</time><extensions><speed>0.000000</speed><course>240.875916</course><hAcc>0.916591</hAcc><vAcc>0.747565</vAcc></extensions></trkpt>
      <trkpt lon="-4.149112" lat="53.005977"><ele>563.958069</ele><time>2021-07-17T11:46:37Z</time><extensions><speed>0.000000</speed><course>240.875916</course><hAcc>0.917636</hAcc><vAcc>0.749426</vAcc></extensions></trkpt>
      <trkpt lon="-4.149112" lat="53.005977"><ele>563.958069</ele><time>2021-07-17T11:46:38Z</time><extensions><speed>0.000000</speed><course>240.875916</course><hAcc>0.918196</hAcc><vAcc>0.750743</vAcc></extensions></trkpt>
      <trkpt lon="-4.149112" lat="53.005977"><ele>563.958069</ele><time>2021-07-17T11:46:39Z</time><extensions><speed>0.000000</speed><course>240.875916</course><hAcc>0.918396</hAcc><vAcc>0.751444</vAcc></extensions></trkpt>
      <trkpt lon="-4.149112" lat="53.005977"><ele>563.958069</ele><time>2021-07-17T11:46:40Z</time><extensions><speed>0.000000</speed><course>269.430084</course><hAcc>0.918348</hAcc><vAcc>0.751534</vAcc></extensions></trkpt>
      <trkpt lon="-4.149112" lat="53.005977"><ele>563.958069</ele><time>2021-07-17T11:46:41Z</time><extensions><speed>0.000000</speed><course>274.056000</course><hAcc>0.918096</hAcc><vAcc>0.751041</vAcc></extensions></trkpt>
      <trkpt lon="-4.149112" lat="53.005977"><ele>563.958069</ele><time>2021-07-17T11:46:42Z</time><extensions><speed>0.000000</speed><course>273.580658</course><hAcc>0.917611</hAcc><vAcc>0.750014</vAcc></extensions></trkpt>
      <trkpt lon="-4.149112" lat="53.005977"><ele>563.958069</ele><time>2021-07-17T11:46:43Z</time><extensions><speed>0.000000</speed><course>266.285736</course><hAcc>0.916839</hAcc><vAcc>0.748564</vAcc></extensions></trkpt>
      <trkpt lon="-4.149112" lat="53.005977"><ele>563.958069</ele><time>2021-07-17T11:46:44Z</time><extensions><speed>0.000000</speed><course>280.416809</course><hAcc>0.915813</hAcc><vAcc>0.746959</vAcc></extensions></trkpt>
      <trkpt lon="-4.149112" lat="53.005977"><ele>563.958069</ele><time>2021-07-17T11:46:45Z</time><extensions><speed>0.000000</speed><course>289.633057</course><hAcc>0.914828</hAcc><vAcc>0.745773</vAcc></extensions></trkpt>
      <trkpt lon="-4.149112" lat="53.005977"><ele>563.958069</ele><time>2021-07-17T11:46:46Z</time><extensions><speed>0.000000</speed><course>274.042023</course><hAcc>0.914712</hAcc><vAcc>0.746088</vAcc></extensions></trkpt>
      <trkpt lon="-4.149112" lat="53.005977"><ele>563.958069</ele><time>2021-07-17T11:46:47Z</time><extensions><speed>0.000000</speed><course>259.398621</course><hAcc>0.917191</hAcc><vAcc>0.749731</vAcc></extensions></trkpt>
      <trkpt lon="-4.149112" lat="53.005977"><ele>563.958069</ele><time>2021-07-17T11:46:48Z</time><extensions><speed>0.000000</speed><course>235.228027</course><hAcc>0.925319</hAcc><vAcc>0.759511</vAcc></extensions></trkpt>
      <trkpt lon="-4.149112" lat="53.005977"><ele>563.958069</ele><time>2021-07-17T11:46:49Z</time><extensions><speed>0.000000</speed><course>233.943741</course><hAcc>0.943884</hAcc><vAcc>0.779319</vAcc></extensions></trkpt>
      <trkpt lon="-4.149112" lat="53.005977"><ele>563.958069</ele><time>2021-07-17T11:46:50Z</time><extensions><speed>0.000000</speed><course>251.986771</course><hAcc>0.979561</hAcc><vAcc>0.814010</vAcc></extensions></trkpt>
      <trkpt lon="-4.149112" lat="53.005977"><ele>563.958069</ele><time>2021-07-17T11:46:51Z</time><extensions><speed>0.000000</speed><course>207.637573</course><hAcc>0.941237</hAcc><vAcc>0.778196</vAcc></extensions></trkpt>
      <trkpt lon="-4.149112" lat="53.005977"><ele>563.958069</ele><time>2021-07-17T11:46:52Z</time><extensions><speed>0.000000</speed><course>199.781464</course><hAcc>0.921835</hAcc><vAcc>0.757128</vAcc></extensions></trkpt>
      <trkpt lon="-4.149112" lat="53.005977"><ele>563.958069</ele><time>2021-07-17T11:46:53Z</time><extensions><speed>0.000000</speed><course>204.898392</course><hAcc>0.914053</hAcc><vAcc>0.747110</vAcc></extensions></trkpt>
      <trkpt lon="-4.149112" lat="53.005977"><ele>563.958069</ele><time>2021-07-17T11:46:54Z</time><extensions><speed>0.000000</speed><course>218.988647</course><hAcc>0.912419</hAcc><vAcc>0.743798</vAcc></extensions></trkpt>
      <trkpt lon="-4.149112" lat="53.005977"><ele>563.958069</ele><time>2021-07-17T11:46:55Z</time><extensions><speed>0.000000</speed><course>240.875916</course><hAcc>0.913445</hAcc><vAcc>0.744054</vAcc></extensions></trkpt>
      <trkpt lon="-4.149112" lat="53.005977"><ele>563.958069</ele><time>2021-07-17T11:46:56Z</time><extensions><speed>0.000000</speed><course>240.875916</course><hAcc>0.915179</hAcc><vAcc>0.745839</vAcc></extensions></trkpt>
      <trkpt lon="-4.149112" lat="53.005977"><ele>563.958069</ele><time>2021-07-17T11:46:57Z</time><extensions><speed>0.000000</speed><course>240.875916</course><hAcc>0.916710</hAcc><vAcc>0.747958</vAcc></extensions></trkpt>
      <trkpt lon="-4.149112" lat="53.005977"><ele>563.958069</ele><time>2021-07-17T11:46:58Z</time><extensions><speed>0.000000</speed><course>240.875916</course><hAcc>0.917742</hAcc><vAcc>0.749794</vAcc></extensions></trkpt>
      <trkpt lon="-4.149112" lat="53.005977"><ele>563.958069</ele><time>2021-07-17T11:46:59Z</time><extensions><speed>0.000000</speed><course>240.875916</course><hAcc>0.918289</hAcc><vAcc>0.751081</vAcc></extensions></trkpt>
      <trkpt lon="-4.149112" lat="53.005977"><ele>563.958069</ele><time>2021-07-17T11:47:00Z</time><extensions><speed>0.000000</speed><course>240.875916</course><hAcc>0.918476</hAcc><vAcc>0.751741</vAcc></extensions></trkpt>
      <trkpt lon="-4.149112" lat="53.005977"><ele>563.958069</ele><time>2021-07-17T11:47:01Z</time><extensions><speed>0.000000</speed><course>269.430084</course><hAcc>0.918414</hAcc><vAcc>0.751778</vAcc></extensions></trkpt>
      <trkpt lon="-4.149112" lat="53.005977"><ele>563.958069</ele><time>2021-07-17T11:47:02Z</time><extensions><speed>0.000000</speed><course>274.056000</course><hAcc>0.918146</hAcc><vAcc>0.751223</vAcc></extensions></trkpt>
      <trkpt lon="-4.149112" lat="53.005977"><ele>563.958069</ele><time>2021-07-17T11:47:03Z</time><extensions><speed>0.000000</speed><course>273.580658</course><hAcc>0.917641</hAcc><vAcc>0.750131</vAcc></extensions></trkpt>
      <trkpt lon="-4.149112" lat="53.005977"><ele>563.958069</ele><time>2021-07-17T11:47:04Z</time><extensions><speed>0.000000</speed><course>266.285736</course><hAcc>0.916847</hAcc><vAcc>0.748618</vAcc></extensions></trkpt>
      <trkpt lon="-4.149112" lat="53.005977"><ele>563.958069</ele><time>2021-07-17T11:47:05Z</time><extensions><speed>0.000000</speed><course>280.416809</course><hAcc>0.915797</hAcc><vAcc>0.746958</vAcc></extensions></trkpt>
      <trkpt lon="-4.149112" lat="53.005977"><ele>563.958069</ele><time>2021-07-17T11:47:06Z</time><extensions><speed>0.000000</speed><course>289.633057</course><hAcc>0.914787</hAcc><vAcc>0.745730</vAcc></extensions></trkpt>
      <trkpt lon="-4.149112" lat="53.005977"><ele>563.958069</ele><time>2021-07-17T11:47:07Z</time><extensions><speed>0.000000</speed><course>274.042023</course><hAcc>0.914647</hAcc><vAcc>0.746017</vAcc></extensions></trkpt>
      <trkpt lon="-4.149112" lat="53.005977"><ele>563.958069</ele><time>2021-07-17T11:47:08Z</time><extensions><speed>0.000000</speed><course>259.398621</course><hAcc>0.917107</hAcc><vAcc>0.749649</vAcc></extensions></trkpt>
      <trkpt lon="-4.149112" lat="53.005977"><ele>563.958069</ele><time>2021-07-17T11:47:09Z</time><extensions><speed>0.000000</speed><course>235.228027</course><hAcc>0.925232</hAcc><vAcc>0.759438</vAcc></extensions></trkpt>
      <trkpt lon="-4.149112" lat="53.005977"><ele>563.958069</ele><time>2021-07-17T11:47:10Z</time><extensions><speed>0.000000</speed><course>233.943741</course><hAcc>0.943825</hAcc><vAcc>0.779290</vAcc></extensions></trkpt>
      <trkpt lon="-4.149112" lat="53.005977"><ele>563.958069</ele><time>2021-07-17T11:47:11Z</time><extensions><speed>0.000000</speed><course>251.986771</course><hAcc>0.979507</hAcc><vAcc>0.814011</vAcc></extensions></trkpt>
      <trkpt lon="-4.149111" lat="53.005975"><ele>563.941589</ele><time>2021-07-17T11:47:12Z</time><extensions><speed>0.053354</speed><course>207.637573</course><hAcc>0.940629</hAcc><vAcc>0.777354</vAcc></extensions></trkpt>
      <trkpt lon="-4.149111" lat="53.005975"><ele>563.940796</ele><time>2021-07-17T11:47:12Z</time><extensions><speed>0.055835</speed><course>199.781464</course><hAcc>0.920812</hAcc><vAcc>0.755714</vAcc></extensions></trkpt>
      <trkpt lon="-4.149110" lat="53.005974"><ele>563.940552</ele><time>2021-07-17T11:47:13Z</time><extensions><speed>0.058495</speed><course>204.898392</course><hAcc>0.912440</hAcc><vAcc>0.744902</vAcc></extensions></trkpt>
      <trkpt lon="-4.149110" lat="53.005974"><ele>563.940735</ele><time>2021-07-17T11:47:15Z</time><extensions><speed>0.061053</speed><course>218.988647</course><hAcc>0.910007</hAcc><vAcc>0.740566</vAcc></extensions></trkpt>
      <trkpt lon="-4.149109" lat="53.005974"><ele>563.941528</ele><time>2021-07-17T11:47:16Z</time><extensions><speed>0.063119</speed><course>240.875916</course><hAcc>0.909992</hAcc><vAcc>0.739570</vAcc></extensions></trkpt>
      <trkpt lon="-4.149108" lat="53.005973"><ele>563.942993</ele><time>2021-07-17T11:47:16Z</time><extensions><speed>0.064221</speed><course>240.875916</course><hAcc>0.910456</hAcc><vAcc>0.739900</vAcc></extensions></trkpt>
      <trkpt lon="-4.149108" lat="53.005973"><ele>563.945007</ele><time>2021-07-17T11:47:17Z</time><extensions><speed>0.063797</speed><course>240.875916</course><hAcc>0.910476</hAcc><vAcc>0.740393</vAcc></extensions></trkpt>
      <trkpt lon="-4.149107" lat="53.005972"><ele>563.947571</ele><time>2021-07-17T11:47:18Z</time><extensions><speed>0.061217</speed><course>240.875916</course><hAcc>0.909743</hAcc><vAcc>0.740473</vAcc></extensions></trkpt>
      <trkpt lon="-4.149106" lat="53.005972"><ele>563.950684</ele><time>2021-07-17T11:47:19Z</time><extensions><speed>0.055892</speed><course>240.875916</course><hAcc>0.908314</hAcc><vAcc>0.739965</vAcc></extensions></trkpt>
      <trkpt lon="-4.149106" lat="53.005972"><ele>563.954102</ele><time>2021-07-17T11:47:20Z</time><extensions><speed>0.047606</speed><course>240.875916</course><hAcc>0.906396</hAcc><vAcc>0.738909</vAcc></extensions></trkpt>
      <trkpt lon="-4.149105" lat="53.005972"><ele>563.957642</ele><time>2021-07-17T11:47:21Z</time><extensions><speed>0.037857</speed><course>269.430084</course><hAcc>0.904229</hAcc><vAcc>0.737453</vAcc></extensions></trkpt>
      <trkpt lon="-4.149104" lat="53.005972"><ele>563.961060</ele><time>2021-07-17T11:47:23Z</time><extensions><speed>0.034709</speed><course>274.056000</course><hAcc>0.902010</hAcc><vAcc>0.735756</vAcc></extensions></trkpt>
      <trkpt lon="-4.149104" lat="53.005972"><ele>563.963989</ele><time>2021-07-17T11:47:24Z</time><extensions><speed>0.051551</speed><course>273.580658</course><hAcc>0.899904</hAcc><vAcc>0.733984</vAcc></extensions></trkpt>
      <trkpt lon="-4.149104" lat="53.005973"><ele>563.966003</ele><time>2021-07-17T11:47:24Z</time><extensions><speed>0.086930</speed><course>266.285736</course><hAcc>0.898049</hAcc><vAcc>0.732290</vAcc></extensions></trkpt>
      <trkpt lon="-4.149105" lat="53.005974"><ele>563.966553</ele><time>2021-07-17T11:47:25Z</time><extensions><speed>0.136544</speed><course>280.416809</course><hAcc>0.896490</hAcc><vAcc>0.730760</vAcc></extensions></trkpt>
      <trkpt lon="-4.149106" lat="53.005975"><ele>563.965149</ele><time>2021-07-17T11:47:26Z</time><extensions><speed>0.199537</speed><course>289.633057</course><hAcc>0.895223</hAcc><vAcc>0.729434</vAcc></extensions></trkpt>
      <trkpt lon="-4.149108" lat="53.005977"><ele>563.961182</ele><time>2021-07-17T11:47:27Z</time><extensions><speed>0.276257</speed><course>274.042023</course><hAcc>0.894229</hAcc><vAcc>0.728329</vAcc></extensions></trkpt>
      <trkpt lon="-4.149111" lat="53.005979"><ele>563.954041</ele><time>2021-07-17T11:47:28Z</time><extensions><speed>0.367121</speed><course>259.398621</course><hAcc>0.893474</hAcc><vAcc>0.727438</vAcc></extensions></trkpt>
      <trkpt lon="-4.149115" lat="53.005982"><ele>563.943115</ele><time>2021-07-17T11:47:29Z</time><extensions><speed>0.472190</speed><course>235.228027</course><hAcc>0.892917</hAcc><vAcc>0.726736</vAcc></extensions></trkpt>
      <trkpt lon="-4.149120" lat="53.005986"><ele>563.927917</ele><time>2021-07-17T11:47:30Z</time><extensions><speed>0.590893</speed><course>233.943741</course><hAcc>0.892516</hAcc><vAcc>0.726188</vAcc></extensions></trkpt>
      <trkpt lon="-4.149127" lat="53.005990"><ele>563.908081</ele><time>2021-07-17T11:47:31Z</time><extensions><speed>0.721771</speed><course>251.986771</course><hAcc>0.892231</hAcc><vAcc>0.725759</vAcc></extensions></trkpt>
      <trkpt lon="-4.149135" lat="53.005995"><ele>563.883362</ele><time>2021-07-17T11:47:32Z</time><extensions><speed>0.862202</speed><course>230.632401</course><hAcc>0.892028</hAcc><vAcc>0.725411</vAcc></extensions></trkpt>
      <trkpt lon="-4.149145" lat="53.006001"><ele>563.853882</ele><time>2021-07-17T11:47:33Z</time><extensions><speed>1.008111</speed><course>208.539734</course><hAcc>0.891880</hAcc><vAcc>0.725113</vAcc></extensions></trkpt>
      <trkpt lon="-4.149157" lat="53.006008"><ele>563.820251</ele><time>2021-07-17T11:47:34Z</time><extensions><speed>1.153663</speed><course>217.062653</course><hAcc>0.891767</hAcc><vAcc>0.724839</vAcc></extensions></trkpt>
      <trkpt lon="-4.149170" lat="53.006015"><ele>563.783447</ele><time>2021-07-17T11:47:35Z</time><extensions><speed>1.290937</speed><course>216.480164</course><hAcc>0.891673</hAcc><vAcc>0.724569</vAcc></extensions></trkpt>
      <trkpt lon="-4.149185" lat="53.006023"><ele>563.745178</ele><time>2021-07-17T11:47:36Z</time><extensions><speed>1.409619</speed><course>215.204285</course><hAcc>0.891588</hAcc><vAcc>0.724292</vAcc></extensions></trkpt>
      <trkpt lon="-4.149202" lat="53.006032"><ele>563.708130</ele><time>2021-07-17T11:47:37Z</time><extensions><speed>1.496721</speed><course>192.608246</course><hAcc>0.891508</hAcc><vAcc>0.724001</vAcc></extensions></trkpt>
      <trkpt lon="-4.149219" lat="53.006041"><ele>563.675781</ele><time>2021-07-17T11:47:38Z</time><extensions><speed>1.536371</speed><course>196.818375</course><hAcc>0.891430</hAcc><vAcc>0.723695</vAcc></extensions></trkpt>
      <trkpt lon="-4.149236" lat="53.006050"><ele>563.652161</ele><time>2021-07-17T11:47:40Z</time><extensions><speed>1.527339</speed><course>200.564194</course><hAcc>0.891334</hAcc><vAcc>0.723362</vAcc></extensions></trkpt>
      <trkpt lon="-4.149253" lat="53.006058"><ele>563.640747</ele><time>2021-07-17T11:47:41Z</time><extensions><speed>1.483174</speed><course>224.718231</course><hAcc>0.891223</hAcc><vAcc>0.723011</vAcc></extensions></trkpt>
      <trkpt lon="-4.149269" lat="53.006067"><ele>563.644043</ele><time>2021-07-17T11:47:42Z</time><extensions><speed>1.414777</speed><course>228.969803</course><hAcc>0.891114</hAcc><vAcc>0.722661</vAcc></extensions></trkpt>
      <trkpt lon="-4.149285" lat="53.006075"><ele>563.664368</ele><time>2021-07-17T11:47:43Z</time><extensions><speed>1.330804</speed><course>250.366501</course><hAcc>0.891009</hAcc><vAcc>0.722320</vAcc></extensions></trkpt>
      <trkpt lon="-4.149299" lat="53.006083"><ele>563.703308</ele><time>2021-07-17T11:47:44Z</time><extensions><speed>1.238060</speed><course>-1.000000</course><hAcc>0.890909</hAcc><vAcc>0.721996</vAcc></extensions></trkpt>
      <trkpt lon="-4.149313" lat="53.006089"><ele>563.762085</ele><time>2021-07-17T11:47:45Z</time><extensions><speed>1.141937</speed><course>232.063629</course><hAcc>0.890813</hAcc><vAcc>0.721696</vAcc></extensions></trkpt>
      <trkpt lon="-4.149326" lat="53.006095"><ele>563.840942</ele><time>2021-07-17T11:47:46Z</time><extensions><speed>1.046706</speed><course>232.063614</course><hAcc>0.890722</hAcc><vAcc>0.721426</vAcc></extensions></trkpt>
      <trkpt lon="-4.149338" lat="53.006101"><ele>563.939087</ele><time>2021-07-17T11:47:47Z</time><extensions><speed>0.955506</speed><course>232.063614</course><hAcc>0.890636</hAcc><vAcc>0.721186</vAcc></extensions></trkpt>
      <trkpt lon="-4.149349" lat="53.006106"><ele>564.054871</ele><time>2021-07-17T11:47:48Z</time><extensions><speed>0.870491</speed><course>232.063599</course><hAcc>0.890555</hAcc><vAcc>0.720971</vAcc></extensions></trkpt>
      <trkpt lon="-4.149359" lat="53.006110"><ele>564.186035</ele><time>2021-07-17T11:47:49Z</time><extensions><speed>0.792946</speed><course>232.063599</course><hAcc>0.890478</hAcc><vAcc>0.720770</vAcc></extensions></trkpt>
      <trkpt lon="-4.149369" lat="53.006113"><ele>564.329773</ele><time>2021-07-17T11:47:50Z</time><extensions><speed>0.723356</speed><course>232.063583</course><hAcc>0.890404</hAcc><vAcc>0.720573</vAcc></extensions></trkpt>
      <trkpt lon="-4.149378" lat="53.006116"><ele>564.483398</ele><time>2021-07-17T11:47:51Z</time><extensions><speed>0.661601</speed><course>232.063583</course><hAcc>0.890331</hAcc><vAcc>0.720371</vAcc></extensions></trkpt>
      <trkpt lon="-4.149386" lat="53.006119"><ele>564.644165</ele><time>2021-07-17T11:47:52Z</time><extensions><speed>0.607094</speed><course>248.555511</course><hAcc>0.890260</hAcc><vAcc>0.720159</vAcc></extensions></trkpt>
      <trkpt lon="-4.149393" lat="53.006122"><ele>564.809387</ele><time>2021-07-17T11:47:53Z</time><extensions><speed>0.559201</speed><course>214.727661</course><hAcc>0.890189</hAcc><vAcc>0.719936</vAcc></extensions></trkpt>
      <trkpt lon="-4.149400" lat="53.006125"><ele>564.976379</ele><time>2021-07-17T11:47:54Z</time><extensions><speed>0.517565</speed><course>215.656113</course><hAcc>0.890118</hAcc><vAcc>0.719703</vAcc></extensions></trkpt>
      <trkpt lon="-4.149405" lat="53.006128"><ele>565.142273</ele><time>2021-07-17T11:47:55Z</time><extensions><speed>0.482697</speed><course>205.637772</course><hAcc>0.890048</hAcc><vAcc>0.719462</vAcc></extensions></trkpt>
      <trkpt lon="-4.149410" lat="53.006131"><ele>565.304443</ele><time>2021-07-17T11:47:56Z</time><extensions><speed>0.456467</speed><course>201.575424</course><hAcc>0.889977</hAcc><vAcc>0.719218</vAcc></extensions></trkpt>
      <trkpt lon="-4.149415" lat="53.006134"><ele>565.460083</ele><time>2021-07-17T11:47:57Z</time><extensions><speed>0.441558</speed><course>196.854248</course><hAcc>0.889909</hAcc><vAcc>0.718975</vAcc></extensions></trkpt>
      <trkpt lon="-4.149418" lat="53.006137"><ele>565.606750</ele><time>2021-07-17T11:47:58Z</time><extensions><speed>0.440353</speed><course>198.264053</course><hAcc>0.889844</hAcc><vAcc>0.718742</vAcc></extensions></trkpt>
      <trkpt lon="-4.149420" lat="53.006141"><ele>565.742310</ele><time>2021-07-17T11:47:59Z</time><extensions><speed>0.453210</speed><course>198.636932</course><hAcc>0.889783</hAcc><vAcc>0.718524</vAcc></extensions></trkpt>
      <trkpt lon="-4.149422" lat="53.006145"><ele>565.865051</ele><time>2021-07-17T11:48:00Z</time><extensions><speed>0.477170</speed><course>192.727798</course><hAcc>0.889728</hAcc><vAcc>0.718329</vAcc></extensions></trkpt>
      <trkpt lon="-4.149423" lat="53.006149"><ele>565.973755</ele><time>2021-07-17T11:48:01Z</time><extensions><speed>0.506990</speed><course>184.691818</course><hAcc>0.889679</hAcc><vAcc>0.718163</vAcc></extensions></trkpt>
      <trkpt lon="-4.149424" lat="53.006154"><ele>566.067688</ele><time>2021-07-17T11:48:02Z</time><extensions><speed>0.537591</speed><course>177.917740</course><hAcc>0.889639</hAcc><vAcc>0.718031</vAcc></extensions></trkpt>
      <trkpt lon="-4.149424" lat="53.006159"><ele>566.146973</ele><time>2021-07-17T11:48:03Z</time><extensions><speed>0.565619</speed><course>169.935883</course><hAcc>0.889606</hAcc><vAcc>0.717934</vAcc></extensions></trkpt>
      <trkpt lon="-4.149423" lat="53.006164"><ele>566.212036</ele><time>2021-07-17T11:48:04Z</time><extensions><speed>0.589239</speed><course>168.290512</course><hAcc>0.889581</hAcc><vAcc>0.717870</vAcc></extensions></trkpt>
      <trkpt lon="-4.149423" lat="53.006169"><ele>566.264221</ele><time>2021-07-17T11:48:05Z</time><extensions><speed>0.607674</speed><course>175.847488</course><hAcc>0.889564</hAcc><vAcc>0.717833</vAcc></extensions></trkpt>
      <trkpt lon="-4.149423" lat="53.006175"><ele>566.305115</ele><time>2021-07-17T11:48:06Z</time><extensions><speed>0.620852</speed><course>182.489380</course><hAcc>0.889554</hAcc><vAcc>0.717818</vAcc></extensions></trkpt>
      <trkpt lon="-4.149422" lat="53.006181"><ele>566.336853</ele><time>2021-07-17T11:48:07Z</time><extensions><speed>0.629305</speed><course>193.224472</course><hAcc>0.889549</hAcc><vAcc>0.717818</vAcc></extensions></trkpt>
      <trkpt lon="-4.149422" lat="53.006186"><ele>566.361389</ele><time>2021-07-17T11:48:08Z</time><extensions><speed>0.634182</speed><course>210.457108</course><hAcc>0.889549</hAcc><vAcc>0.717828</vAcc></extensions></trkpt>
      <trkpt lon="-4.149422" lat="53.006192"><ele>566.380615</ele><time>2021-07-17T11:48:09Z</time><extensions><speed>0.637099</speed><course>227.054108</course><hAcc>0.889550</hAcc><vAcc>0.717844</vAcc></extensions></trkpt>
      <trkpt lon="-4.149422" lat="53.006198"><ele>566.396362</ele><time>2021-07-17T11:48:10Z</time><extensions><speed>0.640070</speed><course>247.666534</course><hAcc>0.889551</hAcc><vAcc>0.717863</vAcc></extensions></trkpt>
      <trkpt lon="-4.149423" lat="53.006203"><ele>566.410522</ele><time>2021-07-17T11:48:11Z</time><extensions><speed>0.645233</speed><course>261.197876</course><hAcc>0.889549</hAcc><vAcc>0.717880</vAcc></extensions></trkpt>
      <trkpt lon="-4.149425" lat="53.006209"><ele>566.425293</ele><time>2021-07-17T11:48:12Z</time><extensions><speed>0.654831</speed><course>263.217255</course><hAcc>0.889540</hAcc><vAcc>0.717890</vAcc></extensions></trkpt>
      <trkpt lon="-4.149427" lat="53.006215"><ele>566.442566</ele><time>2021-07-17T11:48:13Z</time><extensions><speed>0.671032</speed><course>271.463165</course><hAcc>0.889523</hAcc><vAcc>0.717882</vAcc></extensions></trkpt>
      <trkpt lon="-4.149430" lat="53.006221"><ele>566.464539</ele><time>2021-07-17T11:48:14Z</time><extensions><speed>0.695168</speed><course>281.991608</course><hAcc>0.889495</hAcc><vAcc>0.717840</vAcc></extensions></trkpt>
      <trkpt lon="-4.149434" lat="53.006227"><ele>566.493164</ele><time>2021-07-17T11:48:15Z</time><extensions><speed>0.727180</speed><course>285.895782</course><hAcc>0.889454</hAcc><vAcc>0.717750</vAcc></extensions></trkpt>
      <trkpt lon="-4.149439" lat="53.006233"><ele>566.530457</ele><time>2021-07-17T11:48:16Z</time><extensions><speed>0.765857</speed><course>287.327179</course><hAcc>0.889399</hAcc><vAcc>0.717602</vAcc></extensions></trkpt>
      <trkpt lon="-4.149445" lat="53.006239"><ele>566.577332</ele><time>2021-07-17T11:48:17Z</time><extensions><speed>0.809267</speed><course>297.396240</course><hAcc>0.889330</hAcc><vAcc>0.717389</vAcc></extensions></trkpt>
      <trkpt lon="-4.149452" lat="53.006245"><ele>566.634155</ele><time>2021-07-17T11:48:18Z</time><extensions><speed>0.854708</speed><course>299.473175</course><hAcc>0.889247</hAcc><vAcc>0.717111</vAcc></extensions></trkpt>
      <trkpt lon="-4.149459" lat="53.006252"><ele>566.700378</ele><time>2021-07-17T11:48:19Z</time><extensions><speed>0.899751</speed><course>297.683289</course><hAcc>0.889151</hAcc><vAcc>0.716774</vAcc></extensions></trkpt>
      <trkpt lon="-4.149467" lat="53.006258"><ele>566.775452</ele><time>2021-07-17T11:48:20Z</time><extensions><speed>0.942681</speed><course>292.365356</course><hAcc>0.889045</hAcc><vAcc>0.716389</vAcc></extensions></trkpt>
      <trkpt lon="-4.149475" lat="53.006265"><ele>566.858826</ele><time>2021-07-17T11:48:21Z</time><extensions><speed>0.982231</speed><course>291.092651</course><hAcc>0.888930</hAcc><vAcc>0.715971</vAcc></extensions></trkpt>
      <trkpt lon="-4.149484" lat="53.006273"><ele>566.949890</ele><time>2021-07-17T11:48:22Z</time><extensions><speed>1.017039</speed><course>297.007721</course><hAcc>0.888812</hAcc><vAcc>0.715535</vAcc></extensions></trkpt>
      <trkpt lon="-4.149493" lat="53.006280"><ele>567.048035</ele><time>2021-07-17T11:48:23Z</time><extensions><speed>1.045461</speed><course>291.539093</course><hAcc>0.888695</hAcc><vAcc>0.715100</vAcc></extensions></trkpt>
      <trkpt lon="-4.149502" lat="53.006288"><ele>567.152710</ele><time>2021-07-17T11:48:24Z</time><extensions><speed>1.066502</speed><course>293.314819</course><hAcc>0.888582</hAcc><vAcc>0.714684</vAcc></extensions></trkpt>
      <trkpt lon="-4.149511" lat="53.006296"><ele>567.263367</ele><time>2021-07-17T11:48:25Z</time><extensions><speed>1.080367</speed><course>297.043213</course><hAcc>0.888478</hAcc><vAcc>0.714307</vAcc></extensions></trkpt>
      <trkpt lon="-4.149519" lat="53.006305"><ele>567.379089</ele><time>2021-07-17T11:48:26Z</time><extensions><speed>1.088189</speed><course>301.573547</course><hAcc>0.888387</hAcc><vAcc>0.713984</vAcc></extensions></trkpt>
      <trkpt lon="-4.149527" lat="53.006313"><ele>567.498962</ele><time>2021-07-17T11:48:27Z</time><extensions><speed>1.090891</speed><course>305.542847</course><hAcc>0.888310</hAcc><vAcc>0.713728</vAcc></extensions></trkpt>
      <trkpt lon="-4.149534" lat="53.006322"><ele>567.622253</ele><time>2021-07-17T11:48:28Z</time><extensions><speed>1.089211</speed><course>304.461029</course><hAcc>0.888250</hAcc><vAcc>0.713544</vAcc></extensions></trkpt>
      <trkpt lon="-4.149541" lat="53.006331"><ele>567.748352</ele><time>2021-07-17T11:48:29Z</time><extensions><speed>1.083997</speed><course>304.519958</course><hAcc>0.888209</hAcc><vAcc>0.713432</vAcc></extensions></trkpt>
      <trkpt lon="-4.149547" lat="53.006340"><ele>567.876648</ele><time>2021-07-17T11:48:30Z</time><extensions><speed>1.076101</speed><course>306.835541</course><hAcc>0.888186</hAcc><vAcc>0.713384</vAcc></extensions></trkpt>
      <trkpt lon="-4.149552" lat="53.006349"><ele>568.007080</ele><time>2021-07-17T11:48:31Z</time><extensions><speed>1.066716</speed><course>312.924469</course><hAcc>0.888182</hAcc><vAcc>0.713392</vAcc></extensions></trkpt>
      <trkpt lon="-4.149557" lat="53.006358"><ele>568.139648</ele><time>2021-07-17T11:48:32Z</time><extensions><speed>1.057014</speed><course>313.121582</course><hAcc>0.888196</hAcc><vAcc>0.713449</vAcc></extensions></trkpt>
      <trkpt lon="-4.149561" lat="53.006367"><ele>568.274658</ele><time>2021-07-17T11:48:33Z</time><extensions><speed>1.047978</speed><course>312.363678</course><hAcc>0.888225</hAcc><vAcc>0.713552</vAcc></extensions></trkpt>
      <trkpt lon="-4.149565" lat="53.006376"><ele>568.412415</ele><time>2021-07-17T11:48:34Z</time><extensions><speed>1.040497</speed><course>309.905548</course><hAcc>0.888270</hAcc><vAcc>0.713697</vAcc></extensions></trkpt>
      <trkpt lon="-4.149568" lat="53.006385"><ele>568.552856</ele><time>2021-07-17T11:48:35Z</time><extensions><speed>1.034989</speed><course>308.597687</course><hAcc>0.888327</hAcc><vAcc>0.713885</vAcc></extensions></trkpt>
      <trkpt lon="-4.149571" lat="53.006394"><ele>568.695923</ele><time>2021-07-17T11:48:36Z</time><extensions><speed>1.031056</speed><course>307.103394</course><hAcc>0.888393</hAcc><vAcc>0.714112</vAcc></extensions></trkpt>
      <trkpt lon="-4.149573" lat="53.006403"><ele>568.841675</ele><time>2021-07-17T11:48:37Z</time><extensions><speed>1.027644</speed><course>306.897400</course><hAcc>0.888468</hAcc><vAcc>0.714374</vAcc></extensions></trkpt>
      <trkpt lon="-4.149575" lat="53.006413"><ele>568.990356</ele><time>2021-07-17T11:48:38Z</time><extensions><speed>1.023758</speed><course>302.152618</course><hAcc>0.888547</hAcc><vAcc>0.714657</vAcc></extensions></trkpt>
      <trkpt lon="-4.149577" lat="53.006422"><ele>569.142090</ele><time>2021-07-17T11:48:39Z</time><extensions><speed>1.018955</speed><course>297.726410</course><hAcc>0.888628</hAcc><vAcc>0.714950</vAcc></extensions></trkpt>
      <trkpt lon="-4.149580" lat="53.006431"><ele>569.296875</ele><time>2021-07-17T11:48:40Z</time><extensions><speed>1.013383</speed><course>300.194183</course><hAcc>0.888709</hAcc><vAcc>0.715238</vAcc></extensions></trkpt>
      <trkpt lon="-4.149582" lat="53.006440"><ele>569.454407</ele><time>2021-07-17T11:48:41Z</time><extensions><speed>1.007488</speed><course>297.151825</course><hAcc>0.888785</hAcc><vAcc>0.715510</vAcc></extensions></trkpt>
      <trkpt lon="-4.149584" lat="53.006449"><ele>569.614624</ele><time>2021-07-17T11:48:42Z</time><extensions><speed>1.001671</speed><course>298.399384</course><hAcc>0.888854</hAcc><vAcc>0.715758</vAcc></extensions></trkpt>
      <trkpt lon="-4.149587" lat="53.006457"><ele>569.777405</ele><time>2021-07-17T11:48:43Z</time><extensions><speed>0.996296</speed><course>300.837921</course><hAcc>0.888912</hAcc><vAcc>0.715973</vAcc></extensions></trkpt>
      <trkpt lon="-4.149590" lat="53.006466"><ele>569.942566</ele><time>2021-07-17T11:48:44Z</time><extensions><speed>0.991802</speed><course>299.844330</course><hAcc>0.888957</hAcc><vAcc>0.716147</vAcc></extensions></trkpt>
      <trkpt lon="-4.149593" lat="53.006475"><ele>570.109436</ele><time>2021-07-17T11:48:45Z</time><extensions><speed>0.988920</speed><course>300.001373</course><hAcc>0.888986</hAcc><vAcc>0.716268</vAcc></extensions></trkpt>
      <trkpt lon="-4.149596" lat="53.006484"><ele>570.276917</ele><time>2021-07-17T11:48:46Z</time><extensions><speed>0.988466</speed><course>294.568817</course><hAcc>0.888999</hAcc><vAcc>0.716328</vAcc></extensions></trkpt>
      <trkpt lon="-4.149600" lat="53.006492"><ele>570.443665</ele><time>2021-07-17T11:48:47Z</time><extensions><speed>0.991116</speed><course>300.687103</course><hAcc>0.888995</hAcc><vAcc>0.716322</vAcc></extensions></trkpt>
      <trkpt lon="-4.149604" lat="53.006501"><ele>570.608276</ele><time>2021-07-17T11:48:48Z</time><extensions><speed>0.997199</speed><course>297.691925</course><hAcc>0.888974</hAcc><vAcc>0.716247</vAcc></extensions></trkpt>
      <trkpt lon="-4.149608" lat="53.006509"><ele>570.769714</ele><time>2021-07-17T11:48:49Z</time><extensions><speed>1.006640</speed><course>293.928223</course><hAcc>0.888939</hAcc><vAcc>0.716106</vAcc></extensions></trkpt>
      <trkpt lon="-4.149613" lat="53.006518"><ele>570.927185</ele><time>2021-07-17T11:48:50Z</time><extensions><speed>1.018970</speed><course>297.041656</course><hAcc>0.888893</hAcc><vAcc>0.715907</vAcc></extensions></trkpt>
      <trkpt lon="-4.149617" lat="53.006527"><ele>571.080444</ele><time>2021-07-17T11:48:51Z</time><extensions><speed>1.033494</speed><course>298.722290</course><hAcc>0.888839</hAcc><vAcc>0.715662</vAcc></extensions></trkpt>
      <trkpt lon="-4.149622" lat="53.006536"><ele>571.229431</ele><time>2021-07-17T11:48:52Z</time><extensions><speed>1.049650</speed><course>296.674316</course><hAcc>0.888783</hAcc><vAcc>0.715391</vAcc></extensions></trkpt>
      <trkpt lon="-4.149626" lat="53.006545"><ele>571.374390</ele><time>2021-07-17T11:48:53Z</time><extensions><speed>1.067046</speed><course>301.147156</course><hAcc>0.888729</hAcc><vAcc>0.715117</vAcc></extensions></trkpt>
      <trkpt lon="-4.149630" lat="53.006554"><ele>571.515747</ele><time>2021-07-17T11:48:54Z</time><extensions><speed>1.085337</speed><course>301.618805</course><hAcc>0.888683</hAcc><vAcc>0.714864</vAcc></extensions></trkpt>
      <trkpt lon="-4.149634" lat="53.006564"><ele>571.654114</ele><time>2021-07-17T11:48:55Z</time><extensions><speed>1.103827</speed><course>300.678009</course><hAcc>0.888631</hAcc><vAcc>0.714643</vAcc></extensions></trkpt>
      <trkpt lon="-4.149637" lat="53.006574"><ele>571.789856</ele><time>2021-07-17T11:48:56Z</time><extensions><speed>1.121525</speed><course>306.078644</course><hAcc>0.888577</hAcc><vAcc>0.714470</vAcc></extensions></trkpt>
      <trkpt lon="-4.149639" lat="53.006584"><ele>571.923950</ele><time>2021-07-17T11:48:57Z</time><extensions><speed>1.137611</speed><course>302.099213</course><hAcc>0.888540</hAcc><vAcc>0.714367</vAcc></extensions></trkpt>
      <trkpt lon="-4.149641" lat="53.006594"><ele>572.057190</ele><time>2021-07-17T11:48:58Z</time><extensions><speed>1.151165</speed><course>298.253754</course><hAcc>0.888521</hAcc><vAcc>0.714335</vAcc></extensions></trkpt>
      <trkpt lon="-4.149643" lat="53.006604"><ele>572.190491</ele><time>2021-07-17T11:48:59Z</time><extensions><speed>1.161110</speed><course>299.772583</course><hAcc>0.888519</hAcc><vAcc>0.714370</vAcc></extensions></trkpt>
      <trkpt lon="-4.149644" lat="53.006615"><ele>572.325317</ele><time>2021-07-17T11:49:00Z</time><extensions><speed>1.166523</speed><course>299.946075</course><hAcc>0.888531</hAcc><vAcc>0.714462</vAcc></extensions></trkpt>
      <trkpt lon="-4.149646" lat="53.006625"><ele>572.463074</ele><time>2021-07-17T11:49:01Z</time><extensions><speed>1.166906</speed><course>303.968170</course><hAcc>0.888553</hAcc><vAcc>0.714599</vAcc></extensions></trkpt>
      <trkpt lon="-4.149647" lat="53.006636"><ele>572.604797</ele><time>2021-07-17T11:49:02Z</time><extensions><speed>1.162327</speed><course>302.223755</course><hAcc>0.888581</hAcc><vAcc>0.714763</vAcc></extensions></trkpt>
      <trkpt lon="-4.149649" lat="53.006646"><ele>572.751465</ele><time>2021-07-17T11:49:03Z</time><extensions><speed>1.153632</speed><course>303.590851</course><hAcc>0.888608</hAcc><vAcc>0.714935</vAcc></extensions></trkpt>
      <trkpt lon="-4.149652" lat="53.006656"><ele>572.904236</ele><time>2021-07-17T11:49:04Z</time><extensions><speed>1.142182</speed><course>302.656281</course><hAcc>0.888629</hAcc><vAcc>0.715092</vAcc></extensions></trkpt>
      <trkpt lon="-4.149655" lat="53.006666"><ele>573.064270</ele><time>2021-07-17T11:49:05Z</time><extensions><speed>1.129455</speed><course>307.857574</course><hAcc>0.888640</hAcc><vAcc>0.715209</vAcc></extensions></trkpt>
      <trkpt lon="-4.149659" lat="53.006676"><ele>573.232971</ele><time>2021-07-17T11:49:06Z</time><extensions><speed>1.116831</speed><course>306.241272</course><hAcc>0.888635</hAcc><vAcc>0.715260</vAcc></extensions></trkpt>
      <trkpt lon="-4.149664" lat="53.006686"><ele>573.412109</ele><time>2021-07-17T11:49:07Z</time><extensions><speed>1.105374</speed><course>302.560516</course><hAcc>0.888611</hAcc><vAcc>0.715226</vAcc></extensions></trkpt>
      <trkpt lon="-4.149670" lat="53.006695"><ele>573.603516</ele><time>2021-07-17T11:49:08Z</time><extensions><speed>1.095988</speed><course>304.207947</course><hAcc>0.888567</hAcc><vAcc>0.715094</vAcc></extensions></trkpt>
      <trkpt lon="-4.149677" lat="53.006704"><ele>573.808167</ele><time>2021-07-17T11:49:09Z</time><extensions><speed>1.088882</speed><course>304.678192</course><hAcc>0.888503</hAcc><vAcc>0.714865</vAcc></extensions></trkpt>
      <trkpt lon="-4.149685" lat="53.006712"><ele>574.026611</ele><time>2021-07-17T11:49:10Z</time><extensions><speed>1.082966</speed><course>300.816559</course><hAcc>0.888418</hAcc><vAcc>0.714550</vAcc></extensions></trkpt>
      <trkpt lon="-4.149693" lat="53.006720"><ele>574.258972</ele><time>2021-07-17T11:49:11Z</time><extensions><speed>1.076356</speed><course>302.457642</course><hAcc>0.888317</hAcc><vAcc>0.714168</vAcc></extensions></trkpt>
      <trkpt lon="-4.149703" lat="53.006728"><ele>574.504822</ele><time>2021-07-17T11:49:12Z</time><extensions><speed>1.066889</speed><course>303.405792</course><hAcc>0.888204</hAcc><vAcc>0.713740</vAcc></extensions></trkpt>
      <trkpt lon="-4.149713" lat="53.006735"><ele>574.763245</ele><time>2021-07-17T11:49:13Z</time><extensions><speed>1.052600</speed><course>305.179382</course><hAcc>0.888082</hAcc><vAcc>0.713291</vAcc></extensions></trkpt>
      <trkpt lon="-4.149723" lat="53.006742"><ele>575.032654</ele><time>2021-07-17T11:49:14Z</time><extensions><speed>1.032235</speed><course>301.811188</course><hAcc>0.887960</hAcc><vAcc>0.712845</vAcc></extensions></trkpt>
      <trkpt lon="-4.149733" lat="53.006749"><ele>575.310974</ele><time>2021-07-17T11:49:15Z</time><extensions><speed>1.005178</speed><course>294.111877</course><hAcc>0.887842</hAcc><vAcc>0.712424</vAcc></extensions></trkpt>
      <trkpt lon="-4.149743" lat="53.006756"><ele>575.595703</ele><time>2021-07-17T11:49:16Z</time><extensions><speed>0.971026</speed><course>291.186249</course><hAcc>0.887734</hAcc><vAcc>0.712049</vAcc></extensions></trkpt>
      <trkpt lon="-4.149753" lat="53.006762"><ele>575.883789</ele><time>2021-07-17T11:49:17Z</time><extensions><speed>0.930073</speed><course>291.833313</course><hAcc>0.887661</hAcc><vAcc>0.711756</vAcc></extensions></trkpt>
      <trkpt lon="-4.149762" lat="53.006768"><ele>576.173157</ele><time>2021-07-17T11:49:18Z</time><extensions><speed>0.883612</speed><course>293.198639</course><hAcc>0.887625</hAcc><vAcc>0.711563</vAcc></extensions></trkpt>
      <trkpt lon="-4.149770" lat="53.006774"><ele>576.461121</ele><time>2021-07-17T11:49:19Z</time><extensions><speed>0.834195</speed><course>297.953094</course><hAcc>0.887613</hAcc><vAcc>0.711478</vAcc></extensions></trkpt>
      <trkpt lon="-4.149777" lat="53.006780"><ele>576.745239</ele><time>2021-07-17T11:49:20Z</time><extensions><speed>0.785163</speed><course>294.998413</course><hAcc>0.887627</hAcc><vAcc>0.711511</vAcc></extensions></trkpt>
      <trkpt lon="-4.149783" lat="53.006786"><ele>577.023132</ele><time>2021-07-17T11:49:21Z</time><extensions><speed>0.740300</speed><course>290.333923</course><hAcc>0.887666</hAcc><vAcc>0.711662</vAcc></extensions></trkpt>
      <trkpt lon="-4.149788" lat="53.006791"><ele>577.293030</ele><time>2021-07-17T11:49:22Z</time><extensions><speed>0.702286</speed><course>297.336884</course><hAcc>0.887729</hAcc><vAcc>0.711915</vAcc></extensions></trkpt>
      <trkpt lon="-4.149791" lat="53.006797"><ele>577.554749</ele><time>2021-07-17T11:49:23Z</time><extensions><speed>0.671936</speed><course>291.763641</course><hAcc>0.887811</hAcc><vAcc>0.712250</vAcc></extensions></trkpt>
      <trkpt lon="-4.149793" lat="53.006803"><ele>577.808960</ele><time>2021-07-17T11:49:24Z</time><extensions><speed>0.648932</speed><course>293.588959</course><hAcc>0.887907</hAcc><vAcc>0.712639</vAcc></extensions></trkpt>
      <trkpt lon="-4.149795" lat="53.006809"><ele>578.056824</ele><time>2021-07-17T11:49:25Z</time><extensions><speed>0.632633</speed><course>298.534668</course><hAcc>0.888012</hAcc><vAcc>0.713054</vAcc></extensions></trkpt>
      <trkpt lon="-4.149795" lat="53.006814"><ele>578.299438</ele><time>2021-07-17T11:49:26Z</time><extensions><speed>0.622348</speed><course>294.834351</course><hAcc>0.888117</hAcc><vAcc>0.713473</vAcc></extensions></trkpt>
      <trkpt lon="-4.149794" lat="53.006820"><ele>578.537354</ele><time>2021-07-17T11:49:27Z</time><extensions><speed>0.617473</speed><course>297.698059</course><hAcc>0.888217</hAcc><vAcc>0.713871</vAcc></extensions></trkpt>
      <trkpt lon="-4.149792" lat="53.006825"><ele>578.770935</ele><time>2021-07-17T11:49:28Z</time><extensions><speed>0.617821</speed><course>298.511444</course><hAcc>0.888303</hAcc><vAcc>0.714227</vAcc></extensions></trkpt>
      <trkpt lon="-4.149790" lat="53.006831"><ele>578.999878</ele><time>2021-07-17T11:49:28Z</time><extensions><speed>0.623573</speed><course>303.054443</course><hAcc>0.888390</hAcc><vAcc>0.714531</vAcc></extensions></trkpt>
      <trkpt lon="-4.149786" lat="53.006836"><ele>579.224121</ele><time>2021-07-17T11:49:29Z</time><extensions><speed>0.635042</speed><course>300.594757</course><hAcc>0.888473</hAcc><vAcc>0.714770</vAcc></extensions></trkpt>
      <trkpt lon="-4.149782" lat="53.006841"><ele>579.442688</ele><time>2021-07-17T11:49:31Z</time><extensions><speed>0.652016</speed><course>303.489990</course><hAcc>0.888515</hAcc><vAcc>0.714906</vAcc></extensions></trkpt>
      <trkpt lon="-4.149776" lat="53.006846"><ele>579.654358</ele><time>2021-07-17T11:49:32Z</time><extensions><speed>0.673132</speed><course>307.296783</course><hAcc>0.888514</hAcc><vAcc>0.714934</vAcc></extensions></trkpt>
      <trkpt lon="-4.149770" lat="53.006851"><ele>579.858948</ele><time>2021-07-17T11:49:33Z</time><extensions><speed>0.696249</speed><course>306.846466</course><hAcc>0.888490</hAcc><vAcc>0.714866</vAcc></extensions></trkpt>
      <trkpt lon="-4.149763" lat="53.006856"><ele>580.056091</ele><time>2021-07-17T11:49:34Z</time><extensions><speed>0.718962</speed><course>314.303711</course><hAcc>0.888442</hAcc><vAcc>0.714708</vAcc></extensions></trkpt>
      <trkpt lon="-4.149755" lat="53.006860"><ele>580.245239</ele><time>2021-07-17T11:49:34Z</time><extensions><speed>0.739042</speed><course>316.753265</course><hAcc>0.888391</hAcc><vAcc>0.714488</vAcc></extensions></trkpt>
      <trkpt lon="-4.149747" lat="53.006865"><ele>580.426453</ele><time>2021-07-17T11:49:35Z</time><extensions><speed>0.754803</speed><course>312.101562</course><hAcc>0.888341</hAcc><vAcc>0.714222</vAcc></extensions></trkpt>
      <trkpt lon="-4.149738" lat="53.006869"><ele>580.599243</ele><time>2021-07-17T11:49:36Z</time><extensions><speed>0.764860</speed><course>310.983948</course><hAcc>0.888278</hAcc><vAcc>0.713921</vAcc></extensions></trkpt>
      <trkpt lon="-4.149729" lat="53.006873"><ele>580.763733</ele><time>2021-07-17T11:49:37Z</time><extensions><speed>0.768644</speed><course>316.824890</course><hAcc>0.888206</hAcc><vAcc>0.713608</vAcc></extensions></trkpt>
      <trkpt lon="-4.149720" lat="53.006877"><ele>580.919678</ele><time>2021-07-17T11:49:38Z</time><extensions><speed>0.766429</speed><course>324.005005</course><hAcc>0.888131</hAcc><vAcc>0.713307</vAcc></extensions></trkpt>
      <trkpt lon="-4.149711" lat="53.006882"><ele>581.067017</ele><time>2021-07-17T11:49:39Z</time><extensions><speed>0.759115</speed><course>322.091736</course><hAcc>0.888054</hAcc><vAcc>0.713033</vAcc></extensions></trkpt>
      <trkpt lon="-4.149702" lat="53.006886"><ele>581.205627</ele><time>2021-07-17T11:49:40Z</time><extensions><speed>0.748151</speed><course>322.830170</course><hAcc>0.887979</hAcc><vAcc>0.712795</vAcc></extensions></trkpt>
      <trkpt lon="-4.149694" lat="53.006890"><ele>581.335815</ele><time>2021-07-17T11:49:41Z</time><extensions><speed>0.734813</speed><course>325.823517</course><hAcc>0.887907</hAcc><vAcc>0.712593</vAcc></extensions></trkpt>
      <trkpt lon="-4.149685" lat="53.006894"><ele>581.458130</ele><time>2021-07-17T11:49:42Z</time><extensions><speed>0.720174</speed><course>331.853210</course><hAcc>0.887837</hAcc><vAcc>0.712419</vAcc></extensions></trkpt>
      <trkpt lon="-4.149677" lat="53.006898"><ele>581.573730</ele><time>2021-07-17T11:49:43Z</time><extensions><speed>0.705358</speed><course>331.260956</course><hAcc>0.887768</hAcc><vAcc>0.712255</vAcc></extensions></trkpt>
      <trkpt lon="-4.149669" lat="53.006902"><ele>581.683533</ele><time>2021-07-17T11:49:44Z</time><extensions><speed>0.691271</speed><course>329.072571</course><hAcc>0.887701</hAcc><vAcc>0.712087</vAcc></extensions></trkpt>
      <trkpt lon="-4.149661" lat="53.006906"><ele>581.788635</ele><time>2021-07-17T11:49:45Z</time><extensions><speed>0.678659</speed><course>325.473938</course><hAcc>0.887634</hAcc><vAcc>0.711900</vAcc></extensions></trkpt>
      <trkpt lon="-4.149654" lat="53.006910"><ele>581.889954</ele><time>2021-07-17T11:49:46Z</time><extensions><speed>0.668147</speed><course>325.383026</course><hAcc>0.887568</hAcc><vAcc>0.711688</vAcc></extensions></trkpt>
      <trkpt lon="-4.149647" lat="53.006914"><ele>581.988220</ele><time>2021-07-17T11:49:47Z</time><extensions><speed>0.660444</speed><course>325.061401</course><hAcc>0.887501</hAcc><vAcc>0.711451</vAcc></extensions></trkpt>
      <trkpt lon="-4.149639" lat="53.006918"><ele>582.083923</ele><time>2021-07-17T11:49:48Z</time><extensions><speed>0.656306</speed><course>325.207275</course><hAcc>0.887436</hAcc><vAcc>0.711197</vAcc></extensions></trkpt>
      <trkpt lon="-4.149632" lat="53.006922"><ele>582.177368</ele><time>2021-07-17T11:49:49Z</time><extensions><speed>0.656263</speed><course>322.410889</course><hAcc>0.887375</hAcc><vAcc>0.710941</vAcc></extensions></trkpt>
      <trkpt lon="-4.149624" lat="53.006926"><ele>582.268738</ele><time>2021-07-17T11:49:50Z</time><extensions><speed>0.660679</speed><course>319.218658</course><hAcc>0.887319</hAcc><vAcc>0.710702</vAcc></extensions></trkpt>
      <trkpt lon="-4.149616" lat="53.006929"><ele>582.357727</ele><time>2021-07-17T11:49:51Z</time><extensions><speed>0.669882</speed><course>319.790588</course><hAcc>0.887273</hAcc><vAcc>0.710498</vAcc></extensions></trkpt>
      <trkpt lon="-4.149608" lat="53.006933"><ele>582.443970</ele><time>2021-07-17T11:49:52Z</time><extensions><speed>0.683784</speed><course>318.972229</course><hAcc>0.887239</hAcc><vAcc>0.710344</vAcc></extensions></trkpt>
      <trkpt lon="-4.149600" lat="53.006937"><ele>582.527039</ele><time>2021-07-17T11:49:53Z</time><extensions><speed>0.702046</speed><course>320.354065</course><hAcc>0.887220</hAcc><vAcc>0.710252</vAcc></extensions></trkpt>
      <trkpt lon="-4.149591" lat="53.006940"><ele>582.606201</ele><time>2021-07-17T11:49:54Z</time><extensions><speed>0.724106</speed><course>320.541016</course><hAcc>0.887219</hAcc><vAcc>0.710223</vAcc></extensions></trkpt>
      <trkpt lon="-4.149582" lat="53.006944"><ele>582.680908</ele><time>2021-07-17T11:49:55Z</time><extensions><speed>0.748991</speed><course>317.906189</course><hAcc>0.887240</hAcc><vAcc>0.710258</vAcc></extensions></trkpt>
      <trkpt lon="-4.149572" lat="53.006948"><ele>582.750671</ele><time>2021-07-17T11:49:57Z</time><extensions><speed>0.775585</speed><course>316.077393</course><hAcc>0.887264</hAcc><vAcc>0.710340</vAcc></extensions></trkpt>
      <trkpt lon="-4.149563" lat="53.006951"><ele>582.815002</ele><time>2021-07-17T11:49:58Z</time><extensions><speed>0.802213</speed><course>307.356537</course><hAcc>0.887294</hAcc><vAcc>0.710470</vAcc></extensions></trkpt>
      <trkpt lon="-4.149552" lat="53.006955"><ele>582.873657</ele><time>2021-07-17T11:49:59Z</time><extensions><speed>0.827009</speed><course>302.004150</course><hAcc>0.887347</hAcc><vAcc>0.710661</vAcc></extensions></trkpt>
      <trkpt lon="-4.149542" lat="53.006960"><ele>582.926880</ele><time>2021-07-17T11:50:00Z</time><extensions><speed>0.848367</speed><course>310.520874</course><hAcc>0.887421</hAcc><vAcc>0.710917</vAcc></extensions></trkpt>
      <trkpt lon="-4.149532" lat="53.006964"><ele>582.974915</ele><time>2021-07-17T11:50:01Z</time><extensions><speed>0.865493</speed><course>307.778412</course><hAcc>0.887515</hAcc><vAcc>0.711237</vAcc></extensions></trkpt>
      <trkpt lon="-4.149521" lat="53.006969"><ele>583.018250</ele><time>2021-07-17T11:50:02Z</time><extensions><speed>0.878234</speed><course>310.132080</course><hAcc>0.887627</hAcc><vAcc>0.711618</vAcc></extensions></trkpt>
      <trkpt lon="-4.149511" lat="53.006974"><ele>583.057312</ele><time>2021-07-17T11:50:03Z</time><extensions><speed>0.886755</speed><course>310.327301</course><hAcc>0.887756</hAcc><vAcc>0.712054</vAcc></extensions></trkpt>
      <trkpt lon="-4.149501" lat="53.006979"><ele>583.092896</ele><time>2021-07-17T11:50:04Z</time><extensions><speed>0.891390</speed><course>308.925873</course><hAcc>0.887900</hAcc><vAcc>0.712535</vAcc></extensions></trkpt>
      <trkpt lon="-4.149492" lat="53.006985"><ele>583.126221</ele><time>2021-07-17T11:50:05Z</time><extensions><speed>0.892540</speed><course>308.955322</course><hAcc>0.888055</hAcc><vAcc>0.713052</vAcc></extensions></trkpt>
      <trkpt lon="-4.149483" lat="53.006991"><ele>583.158997</ele><time>2021-07-17T11:50:06Z</time><extensions><speed>0.890884</speed><course>303.152588</course><hAcc>0.888219</hAcc><vAcc>0.713597</vAcc></extensions></trkpt>
      <trkpt lon="-4.149474" lat="53.006997"><ele>583.193298</ele><time>2021-07-17T11:50:07Z</time><extensions><speed>0.887329</speed><course>313.156525</course><hAcc>0.888390</hAcc><vAcc>0.714162</vAcc></extensions></trkpt>
      <trkpt lon="-4.149467" lat="53.007003"><ele>583.231323</ele><time>2021-07-17T11:50:08Z</time><extensions><speed>0.882788</speed><course>307.864197</course><hAcc>0.888563</hAcc><vAcc>0.714744</vAcc></extensions></trkpt>
      <trkpt lon="-4.149461" lat="53.007010"><ele>583.275391</ele><time>2021-07-17T11:50:09Z</time><extensions><speed>0.878295</speed><course>309.541687</course><hAcc>0.888736</hAcc><vAcc>0.715331</vAcc></extensions></trkpt>
      <trkpt lon="-4.149455" lat="53.007017"><ele>583.327576</ele><time>2021-07-17T11:50:10Z</time><extensions><speed>0.874408</speed><course>312.130341</course><hAcc>0.888906</hAcc><vAcc>0.715911</vAcc></extensions></trkpt>
      <trkpt lon="-4.149450" lat="53.007025"><ele>583.389221</ele><time>2021-07-17T11:50:11Z</time><extensions><speed>0.871134</speed><course>310.268982</course><hAcc>0.889069</hAcc><vAcc>0.716469</vAcc></extensions></trkpt>
      <trkpt lon="-4.149446" lat="53.007032"><ele>583.461243</ele><time>2021-07-17T11:50:12Z</time><extensions><speed>0.868250</speed><course>308.247070</course><hAcc>0.889222</hAcc><vAcc>0.716992</vAcc></extensions></trkpt>
      <trkpt lon="-4.149444" lat="53.007040"><ele>583.544312</ele><time>2021-07-17T11:50:13Z</time><extensions><speed>0.865274</speed><course>304.229858</course><hAcc>0.889364</hAcc><vAcc>0.717468</vAcc></extensions></trkpt>
      <trkpt lon="-4.149442" lat="53.007047"><ele>583.639160</ele><time>2021-07-17T11:50:14Z</time><extensions><speed>0.861741</speed><course>308.310059</course><hAcc>0.889491</hAcc><vAcc>0.717890</vAcc></extensions></trkpt>
      <trkpt lon="-4.149441" lat="53.007055"><ele>583.746277</ele><time>2021-07-17T11:50:15Z</time><extensions><speed>0.857301</speed><course>311.142822</course><hAcc>0.889602</hAcc><vAcc>0.718251</vAcc></extensions></trkpt>
      <trkpt lon="-4.149441" lat="53.007063"><ele>583.866577</ele><time>2021-07-17T11:50:16Z</time><extensions><speed>0.851782</speed><course>305.518036</course><hAcc>0.889697</hAcc><vAcc>0.718549</vAcc></extensions></trkpt>
      <trkpt lon="-4.149442" lat="53.007070"><ele>584.001038</ele><time>2021-07-17T11:50:17Z</time><extensions><speed>0.845155</speed><course>303.061462</course><hAcc>0.889775</hAcc><vAcc>0.718782</vAcc></extensions></trkpt>
      <trkpt lon="-4.149444" lat="53.007078"><ele>584.150879</ele><time>2021-07-17T11:50:18Z</time><extensions><speed>0.837234</speed><course>298.232086</course><hAcc>0.889835</hAcc><vAcc>0.718954</vAcc></extensions></trkpt>
      <trkpt lon="-4.149447" lat="53.007085"><ele>584.317139</ele><time>2021-07-17T11:50:19Z</time><extensions><speed>0.827817</speed><course>289.358276</course><hAcc>0.889880</hAcc><vAcc>0.719070</vAcc></extensions></trkpt>
      <trkpt lon="-4.149451" lat="53.007092"><ele>584.500671</ele><time>2021-07-17T11:50:20Z</time><extensions><speed>0.816852</speed><course>285.924469</course><hAcc>0.889909</hAcc><vAcc>0.719138</vAcc></extensions></trkpt>
      <trkpt lon="-4.149456" lat="53.007099"><ele>584.701660</ele><time>2021-07-17T11:50:21Z</time><extensions><speed>0.804424</speed><course>280.520447</course><hAcc>0.889924</hAcc><vAcc>0.719163</vAcc></extensions></trkpt>
      <trkpt lon="-4.149461" lat="53.007105"><ele>584.919739</ele><time>2021-07-17T11:50:22Z</time><extensions><speed>0.790605</speed><course>286.862061</course><hAcc>0.889926</hAcc><vAcc>0.719151</vAcc></extensions></trkpt>
      <trkpt lon="-4.149468" lat="53.007111"><ele>585.153625</ele><time>2021-07-17T11:50:23Z</time><extensions><speed>0.775338</speed><course>295.700317</course><hAcc>0.889915</hAcc><vAcc>0.719106</vAcc></extensions></trkpt>
      <trkpt lon="-4.149475" lat="53.007116"><ele>585.401001</ele><time>2021-07-17T11:50:24Z</time><extensions><speed>0.758660</speed><course>296.161560</course><hAcc>0.889893</hAcc><vAcc>0.719030</vAcc></extensions></trkpt>
      <trkpt lon="-4.149483" lat="53.007121"><ele>585.658875</ele><time>2021-07-17T11:50:25Z</time><extensions><speed>0.740740</speed><course>298.229218</course><hAcc>0.889860</hAcc><vAcc>0.718925</vAcc></extensions></trkpt>
      <trkpt lon="-4.149491" lat="53.007125"><ele>585.923828</ele><time>2021-07-17T11:50:26Z</time><extensions><speed>0.721526</speed><course>297.545471</course><hAcc>0.889816</hAcc><vAcc>0.718793</vAcc></extensions></trkpt>
      <trkpt lon="-4.149499" lat="53.007129"><ele>586.192749</ele><time>2021-07-17T11:50:27Z</time><extensions><speed>0.701074</speed><course>292.454163</course><hAcc>0.889761</hAcc><vAcc>0.718633</vAcc></extensions></trkpt>
      <trkpt lon="-4.149508" lat="53.007133"><ele>586.462891</ele><time>2021-07-17T11:50:28Z</time><extensions><speed>0.679735</speed><course>287.195465</course><hAcc>0.889693</hAcc><vAcc>0.718443</vAcc></extensions></trkpt>
      <trkpt lon="-4.149517" lat="53.007136"><ele>586.732117</ele><time>2021-07-17T11:50:29Z</time><extensions><speed>0.657475</speed><course>283.339600</course><hAcc>0.889615</hAcc><vAcc>0.718216</vAcc></extensions></trkpt>
      <trkpt lon="-4.149525" lat="53.007138"><ele>586.998718</ele><time>2021-07-17T11:50:30Z</time><extensions><speed>0.634035</speed><course>283.687531</course><hAcc>0.889525</hAcc><vAcc>0.717949</vAcc></extensions></trkpt>
      <trkpt lon="-4.149534" lat="53.007140"><ele>587.261475</ele><time>2021-07-17T11:50:31Z</time><extensions><speed>0.609710</speed><course>284.089417</course><hAcc>0.889426</hAcc><vAcc>0.717639</vAcc></extensions></trkpt>
      <trkpt lon="-4.149542" lat="53.007142"><ele>587.519348</ele><time>2021-07-17T11:50:32Z</time><extensions><speed>0.585622</speed><course>286.432800</course><hAcc>0.889319</hAcc><vAcc>0.717286</vAcc></extensions></trkpt>
      <trkpt lon="-4.149550" lat="53.007144"><ele>587.771851</ele><time>2021-07-17T11:50:33Z</time><extensions><speed>0.563044</speed><course>288.844025</course><hAcc>0.889205</hAcc><vAcc>0.716896</vAcc></extensions></trkpt>
      <trkpt lon="-4.149558" lat="53.007145"><ele>588.018738</ele><time>2021-07-17T11:50:34Z</time><extensions><speed>0.543018</speed><course>294.600861</course><hAcc>0.889090</hAcc><vAcc>0.716478</vAcc></extensions></trkpt>
      <trkpt lon="-4.149566" lat="53.007145"><ele>588.259949</ele><time>2021-07-17T11:50:35Z</time><extensions><speed>0.526431</speed><course>289.399475</course><hAcc>0.888976</hAcc><vAcc>0.716050</vAcc></extensions></trkpt>
      <trkpt lon="-4.149574" lat="53.007146"><ele>588.495300</ele><time>2021-07-17T11:50:36Z</time><extensions><speed>0.513451</speed><course>292.462738</course><hAcc>0.888869</hAcc><vAcc>0.715634</vAcc></extensions></trkpt>
      <trkpt lon="-4.149581" lat="53.007146"><ele>588.724243</ele><time>2021-07-17T11:50:37Z</time><extensions><speed>0.503304</speed><course>292.044128</course><hAcc>0.888771</hAcc><vAcc>0.715257</vAcc></extensions></trkpt>
      <trkpt lon="-4.149589" lat="53.007146"><ele>588.946289</ele><time>2021-07-17T11:50:38Z</time><extensions><speed>0.495977</speed><course>289.426849</course><hAcc>0.888687</hAcc><vAcc>0.714941</vAcc></extensions></trkpt>
      <trkpt lon="-4.149596" lat="53.007145"><ele>589.161072</ele><time>2021-07-17T11:50:39Z</time><extensions><speed>0.492571</speed><course>292.821838</course><hAcc>0.888622</hAcc><vAcc>0.714696</vAcc></extensions></trkpt>
      <trkpt lon="-4.149603" lat="53.007145"><ele>589.368164</ele><time>2021-07-17T11:50:40Z</time><extensions><speed>0.493938</speed><course>287.405121</course><hAcc>0.888580</hAcc><vAcc>0.714529</vAcc></extensions></trkpt>
      <trkpt lon="-4.149611" lat="53.007144"><ele>589.567261</ele><time>2021-07-17T11:50:41Z</time><extensions><speed>0.500702</speed><course>289.328461</course><hAcc>0.888562</hAcc><vAcc>0.714449</vAcc></extensions></trkpt>
      <trkpt lon="-4.149618" lat="53.007143"><ele>589.757751</ele><time>2021-07-17T11:50:42Z</time><extensions><speed>0.512654</speed><course>290.686554</course><hAcc>0.888570</hAcc><vAcc>0.714462</vAcc></extensions></trkpt>
      <trkpt lon="-4.149625" lat="53.007141"><ele>589.939270</ele><time>2021-07-17T11:50:43Z</time><extensions><speed>0.528660</speed><course>291.519623</course><hAcc>0.888604</hAcc><vAcc>0.714578</vAcc></extensions></trkpt>
      <trkpt lon="-4.149633" lat="53.007140"><ele>590.111877</ele><time>2021-07-17T11:50:44Z</time><extensions><speed>0.546963</speed><course>289.260345</course><hAcc>0.888662</hAcc><vAcc>0.714798</vAcc></extensions></trkpt>
      <trkpt lon="-4.149641" lat="53.007139"><ele>590.276001</ele><time>2021-07-17T11:50:45Z</time><extensions><speed>0.565637</speed><course>291.671295</course><hAcc>0.888740</hAcc><vAcc>0.715114</vAcc></extensions></trkpt>
      <trkpt lon="-4.149649" lat="53.007137"><ele>590.432373</ele><time>2021-07-17T11:50:46Z</time><extensions><speed>0.583208</speed><course>285.797272</course><hAcc>0.888835</hAcc><vAcc>0.715502</vAcc></extensions></trkpt>
      <trkpt lon="-4.149658" lat="53.007136"><ele>590.582092</ele><time>2021-07-17T11:50:47Z</time><extensions><speed>0.598612</speed><course>284.045776</course><hAcc>0.888943</hAcc><vAcc>0.715935</vAcc></extensions></trkpt>
      <trkpt lon="-4.149666" lat="53.007134"><ele>590.725647</ele><time>2021-07-17T11:50:48Z</time><extensions><speed>0.611125</speed><course>290.744446</course><hAcc>0.889060</hAcc><vAcc>0.716386</vAcc></extensions></trkpt>
      <trkpt lon="-4.149675" lat="53.007133"><ele>590.863525</ele><time>2021-07-17T11:50:49Z</time><extensions><speed>0.620207</speed><course>286.155334</course><hAcc>0.889182</hAcc><vAcc>0.716828</vAcc></extensions></trkpt>
      <trkpt lon="-4.149684" lat="53.007131"><ele>590.996277</ele><time>2021-07-17T11:50:50Z</time><extensions><speed>0.625371</speed><course>292.078705</course><hAcc>0.889305</hAcc><vAcc>0.717244</vAcc></extensions></trkpt>
      <trkpt lon="-4.149693" lat="53.007130"><ele>591.125488</ele><time>2021-07-17T11:50:51Z</time><extensions><speed>0.626669</speed><course>292.906311</course><hAcc>0.889426</hAcc><vAcc>0.717623</vAcc></extensions></trkpt>
      <trkpt lon="-4.149703" lat="53.007129"><ele>591.252808</ele><time>2021-07-17T11:50:52Z</time><extensions><speed>0.624860</speed><course>291.462067</course><hAcc>0.889543</hAcc><vAcc>0.717965</vAcc></extensions></trkpt>
      <trkpt lon="-4.149712" lat="53.007128"><ele>591.379944</ele><time>2021-07-17T11:50:53Z</time><extensions><speed>0.620745</speed><course>290.448425</course><hAcc>0.889655</hAcc><vAcc>0.718275</vAcc></extensions></trkpt>
      <trkpt lon="-4.149721" lat="53.007128"><ele>591.508057</ele><time>2021-07-17T11:50:54Z</time><extensions><speed>0.614970</speed><course>295.857269</course><hAcc>0.889761</hAcc><vAcc>0.718564</vAcc></extensions></trkpt>
      <trkpt lon="-4.149730" lat="53.007127"><ele>591.637939</ele><time>2021-07-17T11:50:55Z</time><extensions><speed>0.608204</speed><course>298.185364</course><hAcc>0.889860</hAcc><vAcc>0.718842</vAcc></extensions></trkpt>
      <trkpt lon="-4.149739" lat="53.007127"><ele>591.770386</ele><time>2021-07-17T11:50:56Z</time><extensions><speed>0.601603</speed><course>294.469940</course><hAcc>0.889952</hAcc><vAcc>0.719120</vAcc></extensions></trkpt>
      <trkpt lon="-4.149748" lat="53.007127"><ele>591.905762</ele><time>2021-07-17T11:50:57Z</time><extensions><speed>0.596234</speed><course>292.898438</course><hAcc>0.890038</hAcc><vAcc>0.719400</vAcc></extensions></trkpt>
      <trkpt lon="-4.149757" lat="53.007127"><ele>592.045044</ele><time>2021-07-17T11:50:58Z</time><extensions><speed>0.592402</speed><course>292.422791</course><hAcc>0.890116</hAcc><vAcc>0.719680</vAcc></extensions></trkpt>
      <trkpt lon="-4.149766" lat="53.007127"><ele>592.189453</ele><time>2021-07-17T11:50:59Z</time><extensions><speed>0.589666</speed><course>292.622986</course><hAcc>0.890185</hAcc><vAcc>0.719952</vAcc></extensions></trkpt>
      <trkpt lon="-4.149774" lat="53.007127"><ele>592.340149</ele><time>2021-07-17T11:51:00Z</time><extensions><speed>0.587283</speed><course>292.749084</course><hAcc>0.890246</hAcc><vAcc>0.720200</vAcc></extensions></trkpt>
      <trkpt lon="-4.149783" lat="53.007127"><ele>592.497803</ele><time>2021-07-17T11:51:01Z</time><extensions><speed>0.584649</speed><course>294.832458</course><hAcc>0.890297</hAcc><vAcc>0.720411</vAcc></extensions></trkpt>
      <trkpt lon="-4.149792" lat="53.007128"><ele>592.662903</ele><time>2021-07-17T11:51:02Z</time><extensions><speed>0.581114</speed><course>290.563019</course><hAcc>0.890339</hAcc><vAcc>0.720571</vAcc></extensions></trkpt>
      <trkpt lon="-4.149800" lat="53.007128"><ele>592.835205</ele><time>2021-07-17T11:51:03Z</time><extensions><speed>0.576350</speed><course>288.082062</course><hAcc>0.890370</hAcc><vAcc>0.720673</vAcc></extensions></trkpt>
      <trkpt lon="-4.149809" lat="53.007128"><ele>593.014282</ele><time>2021-07-17T11:51:04Z</time><extensions><speed>0.570052</speed><course>289.238037</course><hAcc>0.890391</hAcc><vAcc>0.720715</vAcc></extensions></trkpt>
      <trkpt lon="-4.149817" lat="53.007129"><ele>593.199097</ele><time>2021-07-17T11:51:05Z</time><extensions><speed>0.561675</speed><course>289.037109</course><hAcc>0.890403</hAcc><vAcc>0.720704</vAcc></extensions></trkpt>
      <trkpt lon="-4.149826" lat="53.007129"><ele>593.388672</ele><time>2021-07-17T11:51:06Z</time><extensions><speed>0.551109</speed><course>291.884949</course><hAcc>0.890406</hAcc><vAcc>0.720655</vAcc></extensions></trkpt>
      <trkpt lon="-4.149834" lat="53.007130"><ele>593.581848</ele><time>2021-07-17T11:51:07Z</time><extensions><speed>0.538495</speed><course>287.567657</course><hAcc>0.890402</hAcc><vAcc>0.720584</vAcc></extensions></trkpt>
      <trkpt lon="-4.149841" lat="53.007130"><ele>593.777771</ele><time>2021-07-17T11:51:08Z</time><extensions><speed>0.523875</speed><course>291.768890</course><hAcc>0.890392</hAcc><vAcc>0.720504</vAcc></extensions></trkpt>
      <trkpt lon="-4.149849" lat="53.007130"><ele>593.975464</ele><time>2021-07-17T11:51:09Z</time><extensions><speed>0.507387</speed><course>296.126740</course><hAcc>0.890379</hAcc><vAcc>0.720427</vAcc></extensions></trkpt>
      <trkpt lon="-4.149856" lat="53.007131"><ele>594.174194</ele><time>2021-07-17T11:51:10Z</time><extensions><speed>0.489657</speed><course>297.059143</course><hAcc>0.890367</hAcc><vAcc>0.720358</vAcc></extensions></trkpt>
      <trkpt lon="-4.149864" lat="53.007132"><ele>594.373291</ele><time>2021-07-17T11:51:11Z</time><extensions><speed>0.471677</speed><course>303.696320</course><hAcc>0.890358</hAcc><vAcc>0.720302</vAcc></extensions></trkpt>
      <trkpt lon="-4.149870" lat="53.007132"><ele>594.572266</ele><time>2021-07-17T11:51:12Z</time><extensions><speed>0.454632</speed><course>307.460022</course><hAcc>0.890355</hAcc><vAcc>0.720260</vAcc></extensions></trkpt>
      <trkpt lon="-4.149877" lat="53.007133"><ele>594.770935</ele><time>2021-07-17T11:51:13Z</time><extensions><speed>0.439600</speed><course>302.094666</course><hAcc>0.890344</hAcc><vAcc>0.720220</vAcc></extensions></trkpt>
      <trkpt lon="-4.149883" lat="53.007134"><ele>594.968750</ele><time>2021-07-17T11:51:14Z</time><extensions><speed>0.427123</speed><course>294.763123</course><hAcc>0.890326</hAcc><vAcc>0.720188</vAcc></extensions></trkpt>
      <trkpt lon="-4.149889" lat="53.007135"><ele>595.166199</ele><time>2021-07-17T11:51:15Z</time><extensions><speed>0.417115</speed><course>292.310913</course><hAcc>0.890320</hAcc><vAcc>0.720183</vAcc></extensions></trkpt>
      <trkpt lon="-4.149895" lat="53.007136"><ele>595.363342</ele><time>2021-07-17T11:51:16Z</time><extensions><speed>0.409262</speed><course>286.252472</course><hAcc>0.890326</hAcc><vAcc>0.720208</vAcc></extensions></trkpt>
      <trkpt lon="-4.149901" lat="53.007137"><ele>595.560242</ele><time>2021-07-17T11:51:17Z</time><extensions><speed>0.403324</speed><course>277.085999</course><hAcc>0.890343</hAcc><vAcc>0.720268</vAcc></extensions></trkpt>
      <trkpt lon="-4.149907" lat="53.007138"><ele>595.757141</ele><time>2021-07-17T11:51:18Z</time><extensions><speed>0.399239</speed><course>269.880463</course><hAcc>0.890373</hAcc><vAcc>0.720368</vAcc></extensions></trkpt>
      <trkpt lon="-4.149912" lat="53.007140"><ele>595.954163</ele><time>2021-07-17T11:51:19Z</time><extensions><speed>0.396717</speed><course>256.014618</course><hAcc>0.890412</hAcc><vAcc>0.720512</vAcc></extensions></trkpt>
      <trkpt lon="-4.149917" lat="53.007141"><ele>596.151489</ele><time>2021-07-17T11:51:20Z</time><extensions><speed>0.394893</speed><course>250.524368</course><hAcc>0.890459</hAcc><vAcc>0.720704</vAcc></extensions></trkpt>
      <trkpt lon="-4.149922" lat="53.007143"><ele>596.349487</ele><time>2021-07-17T11:51:21Z</time><extensions><speed>0.392763</speed><course>237.491638</course><hAcc>0.890509</hAcc><vAcc>0.720946</vAcc></extensions></trkpt>
      <trkpt lon="-4.149927" lat="53.007145"><ele>596.548523</ele><time>2021-07-17T11:51:22Z</time><extensions><speed>0.389564</speed><course>231.976761</course><hAcc>0.890560</hAcc><vAcc>0.721228</vAcc></extensions></trkpt>
      <trkpt lon="-4.149932" lat="53.007147"><ele>596.749084</ele><time>2021-07-17T11:51:22Z</time><extensions><speed>0.384843</speed><course>228.504318</course><hAcc>0.890643</hAcc><vAcc>0.721555</vAcc></extensions></trkpt>
      <trkpt lon="-4.149937" lat="53.007148"><ele>596.952942</ele><time>2021-07-17T11:51:23Z</time><extensions><speed>0.378612</speed><course>227.577087</course><hAcc>0.890756</hAcc><vAcc>0.721904</vAcc></extensions></trkpt>
      <trkpt lon="-4.149942" lat="53.007150"><ele>597.160583</ele><time>2021-07-17T11:51:25Z</time><extensions><speed>0.371317</speed><course>219.513672</course><hAcc>0.890843</hAcc><vAcc>0.722216</vAcc></extensions></trkpt>
      <trkpt lon="-4.149946" lat="53.007152"><ele>597.371826</ele><time>2021-07-17T11:51:26Z</time><extensions><speed>0.363807</speed><course>224.903015</course><hAcc>0.890899</hAcc><vAcc>0.722475</vAcc></extensions></trkpt>
      <trkpt lon="-4.149950" lat="53.007154"><ele>597.586670</ele><time>2021-07-17T11:51:26Z</time><extensions><speed>0.357138</speed><course>222.390198</course><hAcc>0.890959</hAcc><vAcc>0.722697</vAcc></extensions></trkpt>
      <trkpt lon="-4.149954" lat="53.007157"><ele>597.805115</ele><time>2021-07-17T11:51:27Z</time><extensions><speed>0.351824</speed><course>223.313202</course><hAcc>0.891017</hAcc><vAcc>0.722878</vAcc></extensions></trkpt>
      <trkpt lon="-4.149958" lat="53.007159"><ele>598.027100</ele><time>2021-07-17T11:51:28Z</time><extensions><speed>0.347959</speed><course>224.045700</course><hAcc>0.891057</hAcc><vAcc>0.722997</vAcc></extensions></trkpt>
      <trkpt lon="-4.149962" lat="53.007161"><ele>598.252441</ele><time>2021-07-17T11:51:29Z</time><extensions><speed>0.345434</speed><course>224.975723</course><hAcc>0.891077</hAcc><vAcc>0.723046</vAcc></extensions></trkpt>
      <trkpt lon="-4.149965" lat="53.007163"><ele>598.481201</ele><time>2021-07-17T11:51:30Z</time><extensions><speed>0.343879</speed><course>226.513992</course><hAcc>0.891081</hAcc><vAcc>0.723020</vAcc></extensions></trkpt>
      <trkpt lon="-4.149969" lat="53.007165"><ele>598.713196</ele><time>2021-07-17T11:51:31Z</time><extensions><speed>0.343060</speed><course>227.291473</course><hAcc>0.891072</hAcc><vAcc>0.722919</vAcc></extensions></trkpt>
      <trkpt lon="-4.149973" lat="53.007167"><ele>598.948120</ele><time>2021-07-17T11:51:32Z</time><extensions><speed>0.343295</speed><course>231.833313</course><hAcc>0.891053</hAcc><vAcc>0.722757</vAcc></extensions></trkpt>
      <trkpt lon="-4.149976" lat="53.007169"><ele>599.185608</ele><time>2021-07-17T11:51:33Z</time><extensions><speed>0.345080</speed><course>230.421005</course><hAcc>0.891026</hAcc><vAcc>0.722557</vAcc></extensions></trkpt>
      <trkpt lon="-4.149980" lat="53.007172"><ele>599.425110</ele><time>2021-07-17T11:51:35Z</time><extensions><speed>0.348554</speed><course>235.980087</course><hAcc>0.890974</hAcc><vAcc>0.722333</vAcc></extensions></trkpt>
      <trkpt lon="-4.149984" lat="53.007174"><ele>599.665466</ele><time>2021-07-17T11:51:36Z</time><extensions><speed>0.353194</speed><course>243.213364</course><hAcc>0.890900</hAcc><vAcc>0.722108</vAcc></extensions></trkpt>
      <trkpt lon="-4.149988" lat="53.007176"><ele>599.906006</ele><time>2021-07-17T11:51:36Z</time><extensions><speed>0.357896</speed><course>253.165268</course><hAcc>0.890840</hAcc><vAcc>0.721920</vAcc></extensions></trkpt>
      <trkpt lon="-4.149992" lat="53.007178"><ele>600.146423</ele><time>2021-07-17T11:51:37Z</time><extensions><speed>0.361930</speed><course>266.505096</course><hAcc>0.890794</hAcc><vAcc>0.721771</vAcc></extensions></trkpt>
      <trkpt lon="-4.149997" lat="53.007180"><ele>600.385742</ele><time>2021-07-17T11:51:38Z</time><extensions><speed>0.365294</speed><course>267.255646</course><hAcc>0.890747</hAcc><vAcc>0.721645</vAcc></extensions></trkpt>
      <trkpt lon="-4.150001" lat="53.007182"><ele>600.623291</ele><time>2021-07-17T11:51:39Z</time><extensions><speed>0.368362</speed><course>271.176971</course><hAcc>0.890698</hAcc><vAcc>0.721530</vAcc></extensions></trkpt>
      <trkpt lon="-4.150005" lat="53.007184"><ele>600.858643</ele><time>2021-07-17T11:51:40Z</time><extensions><speed>0.371493</speed><course>283.145996</course><hAcc>0.890647</hAcc><vAcc>0.721412</vAcc></extensions></trkpt>
      <trkpt lon="-4.150009" lat="53.007186"><ele>601.091553</ele><time>2021-07-17T11:51:41Z</time><extensions><speed>0.375122</speed><course>291.499756</course><hAcc>0.890594</hAcc><vAcc>0.721279</vAcc></extensions></trkpt>
      <trkpt lon="-4.150014" lat="53.007188"><ele>601.321838</ele><time>2021-07-17T11:51:42Z</time><extensions><speed>0.379636</speed><course>295.960785</course><hAcc>0.890539</hAcc><vAcc>0.721124</vAcc></extensions></trkpt>
      <trkpt lon="-4.150018" lat="53.007191"><ele>601.549500</ele><time>2021-07-17T11:51:43Z</time><extensions><speed>0.384800</speed><course>298.309418</course><hAcc>0.890479</hAcc><vAcc>0.720942</vAcc></extensions></trkpt>
      <trkpt lon="-4.150022" lat="53.007193"><ele>601.774963</ele><time>2021-07-17T11:51:44Z</time><extensions><speed>0.390610</speed><course>301.442566</course><hAcc>0.890415</hAcc><vAcc>0.720733</vAcc></extensions></trkpt>
      <trkpt lon="-4.150026" lat="53.007196"><ele>601.998657</ele><time>2021-07-17T11:51:45Z</time><extensions><speed>0.397773</speed><course>301.820831</course><hAcc>0.890346</hAcc><vAcc>0.720498</vAcc></extensions></trkpt>
      <trkpt lon="-4.150031" lat="53.007198"><ele>602.220825</ele><time>2021-07-17T11:51:46Z</time><extensions><speed>0.406678</speed><course>306.533081</course><hAcc>0.890274</hAcc><vAcc>0.720239</vAcc></extensions></trkpt>
      <trkpt lon="-4.150035" lat="53.007201"><ele>602.441650</ele><time>2021-07-17T11:51:47Z</time><extensions><speed>0.417014</speed><course>310.759277</course><hAcc>0.890200</hAcc><vAcc>0.719964</vAcc></extensions></trkpt>
      <trkpt lon="-4.150040" lat="53.007203"><ele>602.661377</ele><time>2021-07-17T11:51:48Z</time><extensions><speed>0.428077</speed><course>315.721252</course><hAcc>0.890126</hAcc><vAcc>0.719685</vAcc></extensions></trkpt>
      <trkpt lon="-4.150045" lat="53.007206"><ele>602.880188</ele><time>2021-07-17T11:51:49Z</time><extensions><speed>0.438985</speed><course>321.376434</course><hAcc>0.890054</hAcc><vAcc>0.719415</vAcc></extensions></trkpt>
      <trkpt lon="-4.150050" lat="53.007208"><ele>603.097595</ele><time>2021-07-17T11:51:50Z</time><extensions><speed>0.449428</speed><course>321.893402</course><hAcc>0.889988</hAcc><vAcc>0.719164</vAcc></extensions></trkpt>
      <trkpt lon="-4.150055" lat="53.007211"><ele>603.312866</ele><time>2021-07-17T11:51:51Z</time><extensions><speed>0.459574</speed><course>325.867676</course><hAcc>0.889929</hAcc><vAcc>0.718943</vAcc></extensions></trkpt>
      <trkpt lon="-4.150061" lat="53.007213"><ele>603.525085</ele><time>2021-07-17T11:51:52Z</time><extensions><speed>0.469432</speed><course>319.975250</course><hAcc>0.889880</hAcc><vAcc>0.718761</vAcc></extensions></trkpt>
      <trkpt lon="-4.150067" lat="53.007215"><ele>603.733521</ele><time>2021-07-17T11:51:53Z</time><extensions><speed>0.478959</speed><course>320.826599</course><hAcc>0.889845</hAcc><vAcc>0.718623</vAcc></extensions></trkpt>
      <trkpt lon="-4.150073" lat="53.007217"><ele>603.937744</ele><time>2021-07-17T11:51:54Z</time><extensions><speed>0.487966</speed><course>320.826599</course><hAcc>0.889825</hAcc><vAcc>0.718535</vAcc></extensions></trkpt>
      <trkpt lon="-4.150080" lat="53.007219"><ele>604.137756</ele><time>2021-07-17T11:51:55Z</time><extensions><speed>0.496492</speed><course>320.826599</course><hAcc>0.889820</hAcc><vAcc>0.718501</vAcc></extensions></trkpt>
      <trkpt lon="-4.150086" lat="53.007221"><ele>604.333069</ele><time>2021-07-17T11:51:56Z</time><extensions><speed>0.504041</speed><course>320.826599</course><hAcc>0.889830</hAcc><vAcc>0.718523</vAcc></extensions></trkpt>
      <trkpt lon="-4.150093" lat="53.007223"><ele>604.522827</ele><time>2021-07-17T11:51:57Z</time><extensions><speed>0.509267</speed><course>320.826599</course><hAcc>0.889856</hAcc><vAcc>0.718603</vAcc></extensions></trkpt>
      <trkpt lon="-4.150100" lat="53.007225"><ele>604.706360</ele><time>2021-07-17T11:51:58Z</time><extensions><speed>0.510692</speed><course>320.826599</course><hAcc>0.889893</hAcc><vAcc>0.718737</vAcc></extensions></trkpt>
      <trkpt lon="-4.150107" lat="53.007227"><ele>604.883118</ele><time>2021-07-17T11:51:59Z</time><extensions><speed>0.507445</speed><course>320.826599</course><hAcc>0.889942</hAcc><vAcc>0.718918</vAcc></extensions></trkpt>
      <trkpt lon="-4.150114" lat="53.007228"><ele>605.052612</ele><time>2021-07-17T11:52:00Z</time><extensions><speed>0.499410</speed><course>320.826599</course><hAcc>0.889997</hAcc><vAcc>0.719131</vAcc></extensions></trkpt>
      <trkpt lon="-4.150121" lat="53.007230"><ele>605.214539</ele><time>2021-07-17T11:52:02Z</time><extensions><speed>0.486867</speed><course>320.826599</course><hAcc>0.890039</hAcc><vAcc>0.719345</vAcc></extensions></trkpt>
      <trkpt lon="-4.150128" lat="53.007231"><ele>605.367981</ele><time>2021-07-17T11:52:03Z</time><extensions><speed>0.470533</speed><course>320.826599</course><hAcc>0.890062</hAcc><vAcc>0.719535</vAcc></extensions></trkpt>
      <trkpt lon="-4.150134" lat="53.007233"><ele>605.512512</ele><time>2021-07-17T11:52:04Z</time><extensions><speed>0.451280</speed><course>320.826599</course><hAcc>0.890081</hAcc><vAcc>0.719690</vAcc></extensions></trkpt>
      <trkpt lon="-4.150140" lat="53.007234"><ele>605.647888</ele><time>2021-07-17T11:52:05Z</time><extensions><speed>0.430427</speed><course>320.826599</course><hAcc>0.890092</hAcc><vAcc>0.719791</vAcc></extensions></trkpt>
      <trkpt lon="-4.150146" lat="53.007236"><ele>605.774109</ele><time>2021-07-17T11:52:06Z</time><extensions><speed>0.409542</speed><course>320.826599</course><hAcc>0.890092</hAcc><vAcc>0.719823</vAcc></extensions></trkpt>
      <trkpt lon="-4.150151" lat="53.007237"><ele>605.891479</ele><time>2021-07-17T11:52:07Z</time><extensions><speed>0.390021</speed><course>320.826599</course><hAcc>0.890080</hAcc><vAcc>0.719780</vAcc></extensions></trkpt>
      <trkpt lon="-4.150156" lat="53.007239"><ele>606.000671</ele><time>2021-07-17T11:52:08Z</time><extensions><speed>0.373112</speed><course>320.826599</course><hAcc>0.890055</hAcc><vAcc>0.719665</vAcc></extensions></trkpt>
      <trkpt lon="-4.150161" lat="53.007241"><ele>606.102905</ele><time>2021-07-17T11:52:09Z</time><extensions><speed>0.359648</speed><course>320.826599</course><hAcc>0.890016</hAcc><vAcc>0.719489</vAcc></extensions></trkpt>
      <trkpt lon="-4.150165" lat="53.007243"><ele>606.200012</ele><time>2021-07-17T11:52:10Z</time><extensions><speed>0.349817</speed><course>320.826599</course><hAcc>0.889965</hAcc><vAcc>0.719268</vAcc></extensions></trkpt>
      <trkpt lon="-4.150169" lat="53.007244"><ele>606.293823</ele><time>2021-07-17T11:52:11Z</time><extensions><speed>0.343503</speed><course>320.826599</course><hAcc>0.889904</hAcc><vAcc>0.719020</vAcc></extensions></trkpt>
      <trkpt lon="-4.150173" lat="53.007246"><ele>606.386536</ele><time>2021-07-17T11:52:12Z</time><extensions><speed>0.340451</speed><course>320.826599</course><hAcc>0.889834</hAcc><vAcc>0.718759</vAcc></extensions></trkpt>
      <trkpt lon="-4.150177" lat="53.007248"><ele>606.480164</ele><time>2021-07-17T11:52:13Z</time><extensions><speed>0.340348</speed><course>320.826599</course><hAcc>0.889758</hAcc><vAcc>0.718495</vAcc></extensions></trkpt>
      <trkpt lon="-4.150181" lat="53.007250"><ele>606.576233</ele><time>2021-07-17T11:52:14Z</time><extensions><speed>0.342583</speed><course>320.826599</course><hAcc>0.889678</hAcc><vAcc>0.718235</vAcc></extensions></trkpt>
      <trkpt lon="-4.150185" lat="53.007252"><ele>606.675781</ele><time>2021-07-17T11:52:15Z</time><extensions><speed>0.346805</speed><course>320.826569</course><hAcc>0.889596</hAcc><vAcc>0.717983</vAcc></extensions></trkpt>
      <trkpt lon="-4.150189" lat="53.007255"><ele>606.779114</ele><time>2021-07-17T11:52:16Z</time><extensions><speed>0.353004</speed><course>320.826569</course><hAcc>0.889513</hAcc><vAcc>0.717739</vAcc></extensions></trkpt>
      <trkpt lon="-4.150193" lat="53.007257"><ele>606.886353</ele><time>2021-07-17T11:52:17Z</time><extensions><speed>0.360868</speed><course>320.826569</course><hAcc>0.889431</hAcc><vAcc>0.717497</vAcc></extensions></trkpt>
      <trkpt lon="-4.150197" lat="53.007259"><ele>606.997253</ele><time>2021-07-17T11:52:18Z</time><extensions><speed>0.369690</speed><course>320.826569</course><hAcc>0.889350</hAcc><vAcc>0.717255</vAcc></extensions></trkpt>
      <trkpt lon="-4.150201" lat="53.007261"><ele>607.111816</ele><time>2021-07-17T11:52:19Z</time><extensions><speed>0.378150</speed><course>306.179871</course><hAcc>0.889273</hAcc><vAcc>0.717011</vAcc></extensions></trkpt>
      <trkpt lon="-4.150206" lat="53.007263"><ele>607.229736</ele><time>2021-07-17T11:52:20Z</time><extensions><speed>0.385322</speed><course>252.340622</course><hAcc>0.889200</hAcc><vAcc>0.716768</vAcc></extensions></trkpt>
      <trkpt lon="-4.150210" lat="53.007265"><ele>607.350769</ele><time>2021-07-17T11:52:21Z</time><extensions><speed>0.391483</speed><course>240.417450</course><hAcc>0.889132</hAcc><vAcc>0.716530</vAcc></extensions></trkpt>
      <trkpt lon="-4.150215" lat="53.007268"><ele>607.474365</ele><time>2021-07-17T11:52:22Z</time><extensions><speed>0.397119</speed><course>226.735764</course><hAcc>0.889072</hAcc><vAcc>0.716304</vAcc></extensions></trkpt>
      <trkpt lon="-4.150219" lat="53.007270"><ele>607.600403</ele><time>2021-07-17T11:52:23Z</time><extensions><speed>0.402311</speed><course>213.254318</course><hAcc>0.889021</hAcc><vAcc>0.716099</vAcc></extensions></trkpt>
      <trkpt lon="-4.150224" lat="53.007272"><ele>607.729004</ele><time>2021-07-17T11:52:24Z</time><extensions><speed>0.406917</speed><course>209.983795</course><hAcc>0.888981</hAcc><vAcc>0.715929</vAcc></extensions></trkpt>
      <trkpt lon="-4.150229" lat="53.007274"><ele>607.860229</ele><time>2021-07-17T11:52:25Z</time><extensions><speed>0.410662</speed><course>212.464371</course><hAcc>0.888953</hAcc><vAcc>0.715805</vAcc></extensions></trkpt>
      <trkpt lon="-4.150234" lat="53.007277"><ele>607.994568</ele><time>2021-07-17T11:52:26Z</time><extensions><speed>0.413142</speed><course>212.464355</course><hAcc>0.888937</hAcc><vAcc>0.715738</vAcc></extensions></trkpt>
      <trkpt lon="-4.150239" lat="53.007279"><ele>608.132446</ele><time>2021-07-17T11:52:27Z</time><extensions><speed>0.414441</speed><course>212.464355</course><hAcc>0.888934</hAcc><vAcc>0.715732</vAcc></extensions></trkpt>
      <trkpt lon="-4.150244" lat="53.007281"><ele>608.274780</ele><time>2021-07-17T11:52:28Z</time><extensions><speed>0.414596</speed><course>212.464340</course><hAcc>0.888943</hAcc><vAcc>0.715785</vAcc></extensions></trkpt>
      <trkpt lon="-4.150249" lat="53.007283"><ele>608.422485</ele><time>2021-07-17T11:52:29Z</time><extensions><speed>0.413023</speed><course>212.464325</course><hAcc>0.888960</hAcc><vAcc>0.715890</vAcc></extensions></trkpt>
      <trkpt lon="-4.150255" lat="53.007284"><ele>608.576233</ele><time>2021-07-17T11:52:30Z</time><extensions><speed>0.409804</speed><course>212.464325</course><hAcc>0.888985</hAcc><vAcc>0.716033</vAcc></extensions></trkpt>
      <trkpt lon="-4.150260" lat="53.007286"><ele>608.736328</ele><time>2021-07-17T11:52:31Z</time><extensions><speed>0.405692</speed><course>212.464325</course><hAcc>0.889014</hAcc><vAcc>0.716194</vAcc></extensions></trkpt>
      <trkpt lon="-4.150266" lat="53.007287"><ele>608.902283</ele><time>2021-07-17T11:52:32Z</time><extensions><speed>0.401305</speed><course>212.464310</course><hAcc>0.889043</hAcc><vAcc>0.716351</vAcc></extensions></trkpt>
      <trkpt lon="-4.150271" lat="53.007289"><ele>609.073303</ele><time>2021-07-17T11:52:33Z</time><extensions><speed>0.396754</speed><course>305.064514</course><hAcc>0.889069</hAcc><vAcc>0.716483</vAcc></extensions></trkpt>
      <trkpt lon="-4.150277" lat="53.007290"><ele>609.248352</ele><time>2021-07-17T11:52:34Z</time><extensions><speed>0.392528</speed><course>295.507660</course><hAcc>0.889090</hAcc><vAcc>0.716575</vAcc></extensions></trkpt>
      <trkpt lon="-4.150282" lat="53.007291"><ele>609.425964</ele><time>2021-07-17T11:52:35Z</time><extensions><speed>0.389307</speed><course>292.618195</course><hAcc>0.889103</hAcc><vAcc>0.716618</vAcc></extensions></trkpt>
      <trkpt lon="-4.150288" lat="53.007292"><ele>609.604553</ele><time>2021-07-17T11:52:36Z</time><extensions><speed>0.386460</speed><course>285.374146</course><hAcc>0.889104</hAcc><vAcc>0.716608</vAcc></extensions></trkpt>
      <trkpt lon="-4.150293" lat="53.007292"><ele>609.782532</ele><time>2021-07-17T11:52:37Z</time><extensions><speed>0.382599</speed><course>282.990997</course><hAcc>0.889093</hAcc><vAcc>0.716552</vAcc></extensions></trkpt>
      <trkpt lon="-4.150299" lat="53.007294"><ele>609.958313</ele><time>2021-07-17T11:52:38Z</time><extensions><speed>0.376523</speed><course>269.408752</course><hAcc>0.889067</hAcc><vAcc>0.716455</vAcc></extensions></trkpt>
      <trkpt lon="-4.150304" lat="53.007295"><ele>610.130676</ele><time>2021-07-17T11:52:39Z</time><extensions><speed>0.367724</speed><course>268.581787</course><hAcc>0.889027</hAcc><vAcc>0.716323</vAcc></extensions></trkpt>
      <trkpt lon="-4.150309" lat="53.007296"><ele>610.298828</ele><time>2021-07-17T11:52:40Z</time><extensions><speed>0.356353</speed><course>262.171875</course><hAcc>0.888972</hAcc><vAcc>0.716155</vAcc></extensions></trkpt>
      <trkpt lon="-4.150314" lat="53.007297"><ele>610.462341</ele><time>2021-07-17T11:52:41Z</time><extensions><speed>0.342565</speed><course>261.539520</course><hAcc>0.888903</hAcc><vAcc>0.715952</vAcc></extensions></trkpt>
      <trkpt lon="-4.150318" lat="53.007299"><ele>610.620789</ele><time>2021-07-17T11:52:42Z</time><extensions><speed>0.326376</speed><course>255.803879</course><hAcc>0.888821</hAcc><vAcc>0.715712</vAcc></extensions></trkpt>
      <trkpt lon="-4.150322" lat="53.007300"><ele>610.773682</ele><time>2021-07-17T11:52:43Z</time><extensions><speed>0.308546</speed><course>247.733398</course><hAcc>0.888728</hAcc><vAcc>0.715432</vAcc></extensions></trkpt>
      <trkpt lon="-4.150325" lat="53.007302"><ele>610.920715</ele><time>2021-07-17T11:52:44Z</time><extensions><speed>0.290775</speed><course>231.932861</course><hAcc>0.888629</hAcc><vAcc>0.715109</vAcc></extensions></trkpt>
      <trkpt lon="-4.150328" lat="53.007304"><ele>611.061584</ele><time>2021-07-17T11:52:45Z</time><extensions><speed>0.275141</speed><course>232.043365</course><hAcc>0.888527</hAcc><vAcc>0.714746</vAcc></extensions></trkpt>
      <trkpt lon="-4.150330" lat="53.007306"><ele>611.196411</ele><time>2021-07-17T11:52:46Z</time><extensions><speed>0.263805</speed><course>225.182800</course><hAcc>0.888427</hAcc><vAcc>0.714355</vAcc></extensions></trkpt>
      <trkpt lon="-4.150331" lat="53.007308"><ele>611.325134</ele><time>2021-07-17T11:52:47Z</time><extensions><speed>0.257795</speed><course>222.937302</course><hAcc>0.888335</hAcc><vAcc>0.713961</vAcc></extensions></trkpt>
      <trkpt lon="-4.150332" lat="53.007311"><ele>611.447632</ele><time>2021-07-17T11:52:48Z</time><extensions><speed>0.256199</speed><course>226.615036</course><hAcc>0.888254</hAcc><vAcc>0.713599</vAcc></extensions></trkpt>
      <trkpt lon="-4.150332" lat="53.007313"><ele>611.563904</ele><time>2021-07-17T11:52:49Z</time><extensions><speed>0.257130</speed><course>227.377960</course><hAcc>0.888190</hAcc><vAcc>0.713305</vAcc></extensions></trkpt>
      <trkpt lon="-4.150332" lat="53.007315"><ele>611.673950</ele><time>2021-07-17T11:52:50Z</time><extensions><speed>0.258983</speed><course>225.027542</course><hAcc>0.888145</hAcc><vAcc>0.713109</vAcc></extensions></trkpt>
      <trkpt lon="-4.150332" lat="53.007318"><ele>611.778015</ele><time>2021-07-17T11:52:51Z</time><extensions><speed>0.260787</speed><course>217.523773</course><hAcc>0.888123</hAcc><vAcc>0.713024</vAcc></extensions></trkpt>
      <trkpt lon="-4.150332" lat="53.007320"><ele>611.876221</ele><time>2021-07-17T11:52:52Z</time><extensions><speed>0.261978</speed><course>217.503448</course><hAcc>0.888123</hAcc><vAcc>0.713055</vAcc></extensions></trkpt>
      <trkpt lon="-4.150332" lat="53.007322"><ele>611.969299</ele><time>2021-07-17T11:52:53Z</time><extensions><speed>0.262637</speed><course>222.947372</course><hAcc>0.888145</hAcc><vAcc>0.713191</vAcc></extensions></trkpt>
      <trkpt lon="-4.150331" lat="53.007325"><ele>612.057861</ele><time>2021-07-17T11:52:54Z</time><extensions><speed>0.263321</speed><course>228.737518</course><hAcc>0.888188</hAcc><vAcc>0.713413</vAcc></extensions></trkpt>
      <trkpt lon="-4.150331" lat="53.007327"><ele>612.142700</ele><time>2021-07-17T11:52:55Z</time><extensions><speed>0.264692</speed><course>234.887939</course><hAcc>0.888247</hAcc><vAcc>0.713694</vAcc></extensions></trkpt>
      <trkpt lon="-4.150331" lat="53.007329"><ele>612.224487</ele><time>2021-07-17T11:52:56Z</time><extensions><speed>0.267728</speed><course>232.671463</course><hAcc>0.888318</hAcc><vAcc>0.714004</vAcc></extensions></trkpt>
      <trkpt lon="-4.150331" lat="53.007332"><ele>612.304382</ele><time>2021-07-17T11:52:57Z</time><extensions><speed>0.273234</speed><course>228.680756</course><hAcc>0.888399</hAcc><vAcc>0.714316</vAcc></extensions></trkpt>
      <trkpt lon="-4.150332" lat="53.007334"><ele>612.383728</ele><time>2021-07-17T11:52:58Z</time><extensions><speed>0.281503</speed><course>228.367065</course><hAcc>0.888485</hAcc><vAcc>0.714609</vAcc></extensions></trkpt>
      <trkpt lon="-4.150333" lat="53.007337"><ele>612.464050</ele><time>2021-07-17T11:52:59Z</time><extensions><speed>0.292418</speed><course>227.760208</course><hAcc>0.888573</hAcc><vAcc>0.714876</vAcc></extensions></trkpt>
      <trkpt lon="-4.150334" lat="53.007339"><ele>612.546875</ele><time>2021-07-17T11:53:00Z</time><extensions><speed>0.305454</speed><course>230.377014</course><hAcc>0.888660</hAcc><vAcc>0.715119</vAcc></extensions></trkpt>
      <trkpt lon="-4.150336" lat="53.007342"><ele>612.633179</ele><time>2021-07-17T11:53:01Z</time><extensions><speed>0.320010</speed><course>236.559235</course><hAcc>0.888743</hAcc><vAcc>0.715345</vAcc></extensions></trkpt>
      <trkpt lon="-4.150338" lat="53.007345"><ele>612.723816</ele><time>2021-07-17T11:53:02Z</time><extensions><speed>0.335526</speed><course>232.877869</course><hAcc>0.888819</hAcc><vAcc>0.715563</vAcc></extensions></trkpt>
      <trkpt lon="-4.150340" lat="53.007348"><ele>612.819092</ele><time>2021-07-17T11:53:03Z</time><extensions><speed>0.351196</speed><course>233.901962</course><hAcc>0.888888</hAcc><vAcc>0.715775</vAcc></extensions></trkpt>
      <trkpt lon="-4.150343" lat="53.007350"><ele>612.919006</ele><time>2021-07-17T11:53:04Z</time><extensions><speed>0.365709</speed><course>234.840546</course><hAcc>0.888946</hAcc><vAcc>0.715979</vAcc></extensions></trkpt>
      <trkpt lon="-4.150346" lat="53.007353"><ele>613.023804</ele><time>2021-07-17T11:53:05Z</time><extensions><speed>0.377833</speed><course>231.563858</course><hAcc>0.888992</hAcc><vAcc>0.716168</vAcc></extensions></trkpt>
      <trkpt lon="-4.150349" lat="53.007356"><ele>613.133301</ele><time>2021-07-17T11:53:06Z</time><extensions><speed>0.387121</speed><course>226.163422</course><hAcc>0.889024</hAcc><vAcc>0.716329</vAcc></extensions></trkpt>
      <trkpt lon="-4.150352" lat="53.007359"><ele>613.247070</ele><time>2021-07-17T11:53:07Z</time><extensions><speed>0.393334</speed><course>224.694687</course><hAcc>0.889039</hAcc><vAcc>0.716448</vAcc></extensions></trkpt>
      <trkpt lon="-4.150355" lat="53.007362"><ele>613.364258</ele><time>2021-07-17T11:53:08Z</time><extensions><speed>0.396371</speed><course>227.400024</course><hAcc>0.889035</hAcc><vAcc>0.716506</vAcc></extensions></trkpt>
      <trkpt lon="-4.150359" lat="53.007365"><ele>613.483765</ele><time>2021-07-17T11:53:09Z</time><extensions><speed>0.396325</speed><course>225.215622</course><hAcc>0.889011</hAcc><vAcc>0.716485</vAcc></extensions></trkpt>
      <trkpt lon="-4.150363" lat="53.007368"><ele>613.604370</ele><time>2021-07-17T11:53:10Z</time><extensions><speed>0.393514</speed><course>227.979385</course><hAcc>0.888969</hAcc><vAcc>0.716372</vAcc></extensions></trkpt>
      <trkpt lon="-4.150366" lat="53.007370"><ele>613.725098</ele><time>2021-07-17T11:53:11Z</time><extensions><speed>0.388058</speed><course>238.133682</course><hAcc>0.888908</hAcc><vAcc>0.716165</vAcc></extensions></trkpt>
      <trkpt lon="-4.150370" lat="53.007373"><ele>613.845642</ele><time>2021-07-17T11:53:12Z</time><extensions><speed>0.380099</speed><course>235.678314</course><hAcc>0.888834</hAcc><vAcc>0.715870</vAcc></extensions></trkpt>
      <trkpt lon="-4.150375" lat="53.007375"><ele>613.966309</ele><time>2021-07-17T11:53:13Z</time><extensions><speed>0.370151</speed><course>238.960709</course><hAcc>0.888750</hAcc><vAcc>0.715506</vAcc></extensions></trkpt>
      <trkpt lon="-4.150379" lat="53.007377"><ele>614.087708</ele><time>2021-07-17T11:53:14Z</time><extensions><speed>0.359215</speed><course>237.793289</course><hAcc>0.888664</hAcc><vAcc>0.715101</vAcc></extensions></trkpt>
      <trkpt lon="-4.150383" lat="53.007378"><ele>614.210693</ele><time>2021-07-17T11:53:15Z</time><extensions><speed>0.348896</speed><course>238.209671</course><hAcc>0.888583</hAcc><vAcc>0.714694</vAcc></extensions></trkpt>
      <trkpt lon="-4.150388" lat="53.007380"><ele>614.335876</ele><time>2021-07-17T11:53:16Z</time><extensions><speed>0.340935</speed><course>239.435074</course><hAcc>0.888513</hAcc><vAcc>0.714329</vAcc></extensions></trkpt>
      <trkpt lon="-4.150393" lat="53.007381"><ele>614.463562</ele><time>2021-07-17T11:53:17Z</time><extensions><speed>0.336900</speed><course>238.666733</course><hAcc>0.888462</hAcc><vAcc>0.714050</vAcc></extensions></trkpt>
      <trkpt lon="-4.150398" lat="53.007381"><ele>614.593811</ele><time>2021-07-17T11:53:18Z</time><extensions><speed>0.337334</speed><course>234.077820</course><hAcc>0.888434</hAcc><vAcc>0.713892</vAcc></extensions></trkpt>
      <trkpt lon="-4.150403" lat="53.007381"><ele>614.726135</ele><time>2021-07-17T11:53:19Z</time><extensions><speed>0.341186</speed><course>227.293335</course><hAcc>0.888432</hAcc><vAcc>0.713873</vAcc></extensions></trkpt>
      <trkpt lon="-4.150408" lat="53.007381"><ele>614.859741</ele><time>2021-07-17T11:53:20Z</time><extensions><speed>0.346616</speed><course>230.072769</course><hAcc>0.888460</hAcc><vAcc>0.713994</vAcc></extensions></trkpt>
      <trkpt lon="-4.150413" lat="53.007380"><ele>614.993835</ele><time>2021-07-17T11:53:21Z</time><extensions><speed>0.352793</speed><course>228.397232</course><hAcc>0.888516</hAcc><vAcc>0.714235</vAcc></extensions></trkpt>
      <trkpt lon="-4.150418" lat="53.007379"><ele>615.127747</ele><time>2021-07-17T11:53:22Z</time><extensions><speed>0.359696</speed><course>230.234772</course><hAcc>0.888580</hAcc><vAcc>0.714554</vAcc></extensions></trkpt>
      <trkpt lon="-4.150423" lat="53.007378"><ele>615.260315</ele><time>2021-07-17T11:53:23Z</time><extensions><speed>0.366945</speed><course>226.599274</course><hAcc>0.888647</hAcc><vAcc>0.714914</vAcc></extensions></trkpt>
      <trkpt lon="-4.150428" lat="53.007377"><ele>615.390930</ele><time>2021-07-17T11:53:24Z</time><extensions><speed>0.373812</speed><course>226.515137</course><hAcc>0.888730</hAcc><vAcc>0.715295</vAcc></extensions></trkpt>
      <trkpt lon="-4.150433" lat="53.007375"><ele>615.518982</ele><time>2021-07-17T11:53:25Z</time><extensions><speed>0.378917</speed><course>226.136917</course><hAcc>0.888823</hAcc><vAcc>0.715674</vAcc></extensions></trkpt>
      <trkpt lon="-4.150438" lat="53.007373"><ele>615.644165</ele><time>2021-07-17T11:53:26Z</time><extensions><speed>0.380903</speed><course>230.381958</course><hAcc>0.888919</hAcc><vAcc>0.716036</vAcc></extensions></trkpt>
      <trkpt lon="-4.150442" lat="53.007371"><ele>615.766113</ele><time>2021-07-17T11:53:27Z</time><extensions><speed>0.378730</speed><course>226.727509</course><hAcc>0.889012</hAcc><vAcc>0.716373</vAcc></extensions></trkpt>
      <trkpt lon="-4.150446" lat="53.007369"><ele>615.884338</ele><time>2021-07-17T11:53:28Z</time><extensions><speed>0.371514</speed><course>230.180862</course><hAcc>0.889099</hAcc><vAcc>0.716681</vAcc></extensions></trkpt>
      <trkpt lon="-4.150451" lat="53.007367"><ele>615.998108</ele><time>2021-07-17T11:53:29Z</time><extensions><speed>0.359261</speed><course>225.214905</course><hAcc>0.889196</hAcc><vAcc>0.716968</vAcc></extensions></trkpt>
      <trkpt lon="-4.150455" lat="53.007365"><ele>616.107178</ele><time>2021-07-17T11:53:30Z</time><extensions><speed>0.342744</speed><course>228.288971</course><hAcc>0.889301</hAcc><vAcc>0.717238</vAcc></extensions></trkpt>
      <trkpt lon="-4.150459" lat="53.007363"><ele>616.211304</ele><time>2021-07-17T11:53:31Z</time><extensions><speed>0.323255</speed><course>234.392639</course><hAcc>0.889396</hAcc><vAcc>0.717488</vAcc></extensions></trkpt>
      <trkpt lon="-4.150463" lat="53.007362"><ele>616.310486</ele><time>2021-07-17T11:53:32Z</time><extensions><speed>0.302336</speed><course>233.208801</course><hAcc>0.889483</hAcc><vAcc>0.717728</vAcc></extensions></trkpt>
      <trkpt lon="-4.150467" lat="53.007360"><ele>616.404602</ele><time>2021-07-17T11:53:33Z</time><extensions><speed>0.282445</speed><course>238.158752</course><hAcc>0.889561</hAcc><vAcc>0.717967</vAcc></extensions></trkpt>
      <trkpt lon="-4.150470" lat="53.007359"><ele>616.493896</ele><time>2021-07-17T11:53:34Z</time><extensions><speed>0.267544</speed><course>239.142517</course><hAcc>0.889632</hAcc><vAcc>0.718205</vAcc></extensions></trkpt>
      <trkpt lon="-4.150474" lat="53.007359"><ele>616.578552</ele><time>2021-07-17T11:53:35Z</time><extensions><speed>0.262612</speed><course>241.003922</course><hAcc>0.889699</hAcc><vAcc>0.718435</vAcc></extensions></trkpt>
      <trkpt lon="-4.150478" lat="53.007359"><ele>616.659546</ele><time>2021-07-17T11:53:36Z</time><extensions><speed>0.272039</speed><course>244.474228</course><hAcc>0.889761</hAcc><vAcc>0.718648</vAcc></extensions></trkpt>
      <trkpt lon="-4.150482" lat="53.007359"><ele>616.738525</ele><time>2021-07-17T11:53:37Z</time><extensions><speed>0.297082</speed><course>238.879150</course><hAcc>0.889821</hAcc><vAcc>0.718840</vAcc></extensions></trkpt>
      <trkpt lon="-4.150487" lat="53.007360"><ele>616.817688</ele><time>2021-07-17T11:53:38Z</time><extensions><speed>0.335598</speed><course>237.538528</course><hAcc>0.889878</hAcc><vAcc>0.719016</vAcc></extensions></trkpt>
      <trkpt lon="-4.150492" lat="53.007362"><ele>616.899597</ele><time>2021-07-17T11:53:39Z</time><extensions><speed>0.384185</speed><course>249.037552</course><hAcc>0.889933</hAcc><vAcc>0.719181</vAcc></extensions></trkpt>
      <trkpt lon="-4.150497" lat="53.007363"><ele>616.987183</ele><time>2021-07-17T11:53:40Z</time><extensions><speed>0.439660</speed><course>259.361603</course><hAcc>0.889985</hAcc><vAcc>0.719346</vAcc></extensions></trkpt>
      <trkpt lon="-4.150503" lat="53.007365"><ele>617.083252</ele><time>2021-07-17T11:53:40Z</time><extensions><speed>0.499209</speed><course>261.193176</course><hAcc>0.890052</hAcc><vAcc>0.719533</vAcc></extensions></trkpt>
      <trkpt lon="-4.150510" lat="53.007368"><ele>617.190674</ele><time>2021-07-17T11:53:41Z</time><extensions><speed>0.560729</speed><course>261.193146</course><hAcc>0.890135</hAcc><vAcc>0.719745</vAcc></extensions></trkpt>
      <trkpt lon="-4.150518" lat="53.007370"><ele>617.311584</ele><time>2021-07-17T11:53:42Z</time><extensions><speed>0.622077</speed><course>261.193146</course><hAcc>0.890216</hAcc><vAcc>0.719975</vAcc></extensions></trkpt>
      <trkpt lon="-4.150527" lat="53.007373"><ele>617.447815</ele><time>2021-07-17T11:53:43Z</time><extensions><speed>0.681514</speed><course>261.193146</course><hAcc>0.890294</hAcc><vAcc>0.720220</vAcc></extensions></trkpt>
      <trkpt lon="-4.150536" lat="53.007376"><ele>617.600647</ele><time>2021-07-17T11:53:44Z</time><extensions><speed>0.737703</speed><course>261.193146</course><hAcc>0.890371</hAcc><vAcc>0.720477</vAcc></extensions></trkpt>
      <trkpt lon="-4.150546" lat="53.007379"><ele>617.770630</ele><time>2021-07-17T11:53:45Z</time><extensions><speed>0.789859</speed><course>261.193146</course><hAcc>0.890446</hAcc><vAcc>0.720736</vAcc></extensions></trkpt>
      <trkpt lon="-4.150557" lat="53.007382"><ele>617.957336</ele><time>2021-07-17T11:53:46Z</time><extensions><speed>0.837400</speed><course>261.193146</course><hAcc>0.890518</hAcc><vAcc>0.720983</vAcc></extensions></trkpt>
      <trkpt lon="-4.150569" lat="53.007385"><ele>618.160034</ele><time>2021-07-17T11:53:47Z</time><extensions><speed>0.879798</speed><course>261.193146</course><hAcc>0.890588</hAcc><vAcc>0.721207</vAcc></extensions></trkpt>
      <trkpt lon="-4.150582" lat="53.007388"><ele>618.377502</ele><time>2021-07-17T11:53:48Z</time><extensions><speed>0.916663</speed><course>261.193146</course><hAcc>0.890656</hAcc><vAcc>0.721399</vAcc></extensions></trkpt>
      <trkpt lon="-4.150595" lat="53.007391"><ele>618.608948</ele><time>2021-07-17T11:53:50Z</time><extensions><speed>0.947793</speed><course>234.852402</course><hAcc>0.890702</hAcc><vAcc>0.721541</vAcc></extensions></trkpt>
      <trkpt lon="-4.150608" lat="53.007394"><ele>618.852905</ele><time>2021-07-17T11:53:51Z</time><extensions><speed>0.973048</speed><course>215.025620</course><hAcc>0.890726</hAcc><vAcc>0.721634</vAcc></extensions></trkpt>
      <trkpt lon="-4.150622" lat="53.007397"><ele>619.108398</ele><time>2021-07-17T11:53:52Z</time><extensions><speed>0.993113</speed><course>206.872131</course><hAcc>0.890746</hAcc><vAcc>0.721697</vAcc></extensions></trkpt>
      <trkpt lon="-4.150636" lat="53.007400"><ele>619.374023</ele><time>2021-07-17T11:53:53Z</time><extensions><speed>1.008727</speed><course>205.862991</course><hAcc>0.890761</hAcc><vAcc>0.721734</vAcc></extensions></trkpt>
      <trkpt lon="-4.150650" lat="53.007403"><ele>619.648560</ele><time>2021-07-17T11:53:54Z</time><extensions><speed>1.020030</speed><course>205.862976</course><hAcc>0.890772</hAcc><vAcc>0.721752</vAcc></extensions></trkpt>
      <trkpt lon="-4.150665" lat="53.007406"><ele>619.930664</ele><time>2021-07-17T11:53:55Z</time><extensions><speed>1.026976</speed><course>234.677673</course><hAcc>0.890777</hAcc><vAcc>0.721757</vAcc></extensions></trkpt>
      <trkpt lon="-4.150679" lat="53.007408"><ele>620.219604</ele><time>2021-07-17T11:53:56Z</time><extensions><speed>1.029225</speed><course>246.321655</course><hAcc>0.890779</hAcc><vAcc>0.721754</vAcc></extensions></trkpt>
      <trkpt lon="-4.150694" lat="53.007411"><ele>620.514771</ele><time>2021-07-17T11:53:57Z</time><extensions><speed>1.025871</speed><course>256.732239</course><hAcc>0.890778</hAcc><vAcc>0.721748</vAcc></extensions></trkpt>
      <trkpt lon="-4.150708" lat="53.007414"><ele>620.815613</ele><time>2021-07-17T11:53:58Z</time><extensions><speed>1.015880</speed><course>257.461731</course><hAcc>0.890775</hAcc><vAcc>0.721740</vAcc></extensions></trkpt>
      <trkpt lon="-4.150723" lat="53.007417"><ele>621.121826</ele><time>2021-07-17T11:53:59Z</time><extensions><speed>0.998264</speed><course>256.219269</course><hAcc>0.890771</hAcc><vAcc>0.721731</vAcc></extensions></trkpt>
      <trkpt lon="-4.150736" lat="53.007420"><ele>621.432739</ele><time>2021-07-17T11:54:00Z</time><extensions><speed>0.972424</speed><course>253.669510</course><hAcc>0.890765</hAcc><vAcc>0.721720</vAcc></extensions></trkpt>
      <trkpt lon="-4.150750" lat="53.007423"><ele>621.747314</ele><time>2021-07-17T11:54:01Z</time><extensions><speed>0.938419</speed><course>253.907227</course><hAcc>0.890759</hAcc><vAcc>0.721708</vAcc></extensions></trkpt>
      <trkpt lon="-4.150763" lat="53.007426"><ele>622.064392</ele><time>2021-07-17T11:54:02Z</time><extensions><speed>0.896443</speed><course>260.189209</course><hAcc>0.890752</hAcc><vAcc>0.721693</vAcc></extensions></trkpt>
      <trkpt lon="-4.150775" lat="53.007429"><ele>622.382690</ele><time>2021-07-17T11:54:03Z</time><extensions><speed>0.846978</speed><course>263.253174</course><hAcc>0.890744</hAcc><vAcc>0.721676</vAcc></extensions></trkpt>
      <trkpt lon="-4.150785" lat="53.007432"><ele>622.700867</ele><time>2021-07-17T11:54:04Z</time><extensions><speed>0.791461</speed><course>264.349060</course><hAcc>0.890736</hAcc><vAcc>0.721654</vAcc></extensions></trkpt>
      <trkpt lon="-4.150795" lat="53.007435"><ele>623.017883</ele><time>2021-07-17T11:54:05Z</time><extensions><speed>0.732625</speed><course>258.002991</course><hAcc>0.890728</hAcc><vAcc>0.721627</vAcc></extensions></trkpt>
      <trkpt lon="-4.150804" lat="53.007439"><ele>623.332397</ele><time>2021-07-17T11:54:06Z</time><extensions><speed>0.674392</speed><course>264.832825</course><hAcc>0.890721</hAcc><vAcc>0.721596</vAcc></extensions></trkpt>
      <trkpt lon="-4.150811" lat="53.007443"><ele>623.643433</ele><time>2021-07-17T11:54:07Z</time><extensions><speed>0.621116</speed><course>262.654938</course><hAcc>0.890714</hAcc><vAcc>0.721562</vAcc></extensions></trkpt>
      <trkpt lon="-4.150816" lat="53.007447"><ele>623.950256</ele><time>2021-07-17T11:54:08Z</time><extensions><speed>0.576077</speed><course>262.654938</course><hAcc>0.890709</hAcc><vAcc>0.721529</vAcc></extensions></trkpt>
      <trkpt lon="-4.150821" lat="53.007452"><ele>624.252197</ele><time>2021-07-17T11:54:09Z</time><extensions><speed>0.540358</speed><course>262.654938</course><hAcc>0.890705</hAcc><vAcc>0.721501</vAcc></extensions></trkpt>
      <trkpt lon="-4.150824" lat="53.007456"><ele>624.548340</ele><time>2021-07-17T11:54:10Z</time><extensions><speed>0.512810</speed><course>262.654938</course><hAcc>0.890702</hAcc><vAcc>0.721481</vAcc></extensions></trkpt>
      <trkpt lon="-4.150826" lat="53.007460"><ele>624.837952</ele><time>2021-07-17T11:54:11Z</time><extensions><speed>0.490842</speed><course>262.654938</course><hAcc>0.890701</hAcc><vAcc>0.721474</vAcc></extensions></trkpt>
      <trkpt lon="-4.150828" lat="53.007464"><ele>625.120056</ele><time>2021-07-17T11:54:12Z</time><extensions><speed>0.471230</speed><course>262.654938</course><hAcc>0.890701</hAcc><vAcc>0.721481</vAcc></extensions></trkpt>
      <trkpt lon="-4.150829" lat="53.007468"><ele>625.393677</ele><time>2021-07-17T11:54:13Z</time><extensions><speed>0.450977</speed><course>262.654938</course><hAcc>0.890702</hAcc><vAcc>0.721500</vAcc></extensions></trkpt>
      <trkpt lon="-4.150830" lat="53.007472"><ele>625.657959</ele><time>2021-07-17T11:54:14Z</time><extensions><speed>0.428848</speed><course>262.654938</course><hAcc>0.890703</hAcc><vAcc>0.721525</vAcc></extensions></trkpt>
      <trkpt lon="-4.150831" lat="53.007476"><ele>625.912231</ele><time>2021-07-17T11:54:15Z</time><extensions><speed>0.406733</speed><course>262.654938</course><hAcc>0.890705</hAcc><vAcc>0.721550</vAcc></extensions></trkpt>
      <trkpt lon="-4.150832" lat="53.007479"><ele>626.155640</ele><time>2021-07-17T11:54:16Z</time><extensions><speed>0.389928</speed><course>262.654938</course><hAcc>0.890707</hAcc><vAcc>0.721572</vAcc></extensions></trkpt>
      <trkpt lon="-4.150834" lat="53.007483"><ele>626.387573</ele><time>2021-07-17T11:54:17Z</time><extensions><speed>0.385945</speed><course>262.654938</course><hAcc>0.890708</hAcc><vAcc>0.721586</vAcc></extensions></trkpt>
      <trkpt lon="-4.150837" lat="53.007486"><ele>626.607605</ele><time>2021-07-17T11:54:18Z</time><extensions><speed>0.401303</speed><course>262.654938</course><hAcc>0.890708</hAcc><vAcc>0.721588</vAcc></extensions></trkpt>
      <trkpt lon="-4.150842" lat="53.007488"><ele>626.815674</ele><time>2021-07-17T11:54:19Z</time><extensions><speed>0.437352</speed><course>262.654938</course><hAcc>0.890707</hAcc><vAcc>0.721579</vAcc></extensions></trkpt>
      <trkpt lon="-4.150847" lat="53.007491"><ele>627.012268</ele><time>2021-07-17T11:54:20Z</time><extensions><speed>0.490168</speed><course>262.654938</course><hAcc>0.890703</hAcc><vAcc>0.721561</vAcc></extensions></trkpt>
      <trkpt lon="-4.150854" lat="53.007493"><ele>627.197815</ele><time>2021-07-17T11:54:21Z</time><extensions><speed>0.553903</speed><course>262.654938</course><hAcc>0.890698</hAcc><vAcc>0.721534</vAcc></extensions></trkpt>
      <trkpt lon="-4.150862" lat="53.007496"><ele>627.372681</ele><time>2021-07-17T11:54:22Z</time><extensions><speed>0.623093</speed><course>262.654938</course><hAcc>0.890690</hAcc><vAcc>0.721502</vAcc></extensions></trkpt>
      <trkpt lon="-4.150871" lat="53.007498"><ele>627.537170</ele><time>2021-07-17T11:54:23Z</time><extensions><speed>0.693518</speed><course>262.654938</course><hAcc>0.890680</hAcc><vAcc>0.721465</vAcc></extensions></trkpt>
      <trkpt lon="-4.150881" lat="53.007501"><ele>627.691650</ele><time>2021-07-17T11:54:24Z</time><extensions><speed>0.762154</speed><course>262.654938</course><hAcc>0.890668</hAcc><vAcc>0.721423</vAcc></extensions></trkpt>
      <trkpt lon="-4.150892" lat="53.007503"><ele>627.836304</ele><time>2021-07-17T11:54:25Z</time><extensions><speed>0.827009</speed><course>262.654938</course><hAcc>0.890654</hAcc><vAcc>0.721375</vAcc></extensions></trkpt>
      <trkpt lon="-4.150904" lat="53.007506"><ele>627.971497</ele><time>2021-07-17T11:54:26Z</time><extensions><speed>0.886751</speed><course>262.654938</course><hAcc>0.890637</hAcc><vAcc>0.721324</vAcc></extensions></trkpt>
      <trkpt lon="-4.150916" lat="53.007509"><ele>628.097778</ele><time>2021-07-17T11:54:27Z</time><extensions><speed>0.940441</speed><course>262.654938</course><hAcc>0.890618</hAcc><vAcc>0.721267</vAcc></extensions></trkpt>
      <trkpt lon="-4.150930" lat="53.007512"><ele>628.215637</ele><time>2021-07-17T11:54:28Z</time><extensions><speed>0.987621</speed><course>262.654938</course><hAcc>0.890594</hAcc><vAcc>0.721204</vAcc></extensions></trkpt>
      <trkpt lon="-4.150943" lat="53.007516"><ele>628.325867</ele><time>2021-07-17T11:54:29Z</time><extensions><speed>1.028352</speed><course>262.654938</course><hAcc>0.890566</hAcc><vAcc>0.721132</vAcc></extensions></trkpt>
      <trkpt lon="-4.150958" lat="53.007519"><ele>628.429016</ele><time>2021-07-17T11:54:30Z</time><extensions><speed>1.062779</speed><course>262.654938</course><hAcc>0.890531</hAcc><vAcc>0.721046</vAcc></extensions></trkpt>
      <trkpt lon="-4.150972" lat="53.007524"><ele>628.525391</ele><time>2021-07-17T11:54:31Z</time><extensions><speed>1.090957</speed><course>262.654938</course><hAcc>0.890490</hAcc><vAcc>0.720941</vAcc></extensions></trkpt>
      <trkpt lon="-4.150987" lat="53.007528"><ele>628.615417</ele><time>2021-07-17T11:54:32Z</time><extensions><speed>1.113770</speed><course>262.654938</course><hAcc>0.890442</hAcc><vAcc>0.720810</vAcc></extensions></trkpt>
      <trkpt lon="-4.151002" lat="53.007533"><ele>628.699707</ele><time>2021-07-17T11:54:33Z</time><extensions><speed>1.133020</speed><course>262.654938</course><hAcc>0.890386</hAcc><vAcc>0.720648</vAcc></extensions></trkpt>
      <trkpt lon="-4.151016" lat="53.007538"><ele>628.779175</ele><time>2021-07-17T11:54:34Z</time><extensions><speed>1.150278</speed><course>262.654938</course><hAcc>0.890322</hAcc><vAcc>0.720451</vAcc></extensions></trkpt>
      <trkpt lon="-4.151031" lat="53.007543"><ele>628.855042</ele><time>2021-07-17T11:54:35Z</time><extensions><speed>1.166497</speed><course>262.654938</course><hAcc>0.890252</hAcc><vAcc>0.720218</vAcc></extensions></trkpt>
      <trkpt lon="-4.151046" lat="53.007549"><ele>628.928711</ele><time>2021-07-17T11:54:36Z</time><extensions><speed>1.182421</speed><course>262.654938</course><hAcc>0.890175</hAcc><vAcc>0.719951</vAcc></extensions></trkpt>
      <trkpt lon="-4.151061" lat="53.007554"><ele>629.001526</ele><time>2021-07-17T11:54:37Z</time><extensions><speed>1.198385</speed><course>262.654938</course><hAcc>0.890094</hAcc><vAcc>0.719659</vAcc></extensions></trkpt>
      <trkpt lon="-4.151076" lat="53.007560"><ele>629.074585</ele><time>2021-07-17T11:54:38Z</time><extensions><speed>1.214082</speed><course>262.654938</course><hAcc>0.890010</hAcc><vAcc>0.719351</vAcc></extensions></trkpt>
      <trkpt lon="-4.151091" lat="53.007566"><ele>629.149475</ele><time>2021-07-17T11:54:39Z</time><extensions><speed>1.228802</speed><course>262.654938</course><hAcc>0.889926</hAcc><vAcc>0.719038</vAcc></extensions></trkpt>
      <trkpt lon="-4.151107" lat="53.007572"><ele>629.228027</ele><time>2021-07-17T11:54:40Z</time><extensions><speed>1.241837</speed><course>262.654938</course><hAcc>0.889843</hAcc><vAcc>0.718732</vAcc></extensions></trkpt>
      <trkpt lon="-4.151122" lat="53.007578"><ele>629.312500</ele><time>2021-07-17T11:54:41Z</time><extensions><speed>1.252867</speed><course>262.654938</course><hAcc>0.889765</hAcc><vAcc>0.718446</vAcc></extensions></trkpt>
      <trkpt lon="-4.151138" lat="53.007585"><ele>629.404968</ele><time>2021-07-17T11:54:42Z</time><extensions><speed>1.261631</speed><course>262.654938</course><hAcc>0.889691</hAcc><vAcc>0.718193</vAcc></extensions></trkpt>
      <trkpt lon="-4.151154" lat="53.007590"><ele>629.507202</ele><time>2021-07-17T11:54:43Z</time><extensions><speed>1.267785</speed><course>262.654938</course><hAcc>0.889625</hAcc><vAcc>0.717980</vAcc></extensions></trkpt>
      <trkpt lon="-4.151170" lat="53.007596"><ele>629.620422</ele><time>2021-07-17T11:54:44Z</time><extensions><speed>1.271185</speed><course>262.654938</course><hAcc>0.889567</hAcc><vAcc>0.717810</vAcc></extensions></trkpt>
      <trkpt lon="-4.151187" lat="53.007602"><ele>629.745361</ele><time>2021-07-17T11:54:45Z</time><extensions><speed>1.271653</speed><course>262.654938</course><hAcc>0.889518</hAcc><vAcc>0.717679</vAcc></extensions></trkpt>
      <trkpt lon="-4.151203" lat="53.007608"><ele>629.882812</ele><time>2021-07-17T11:54:46Z</time><extensions><speed>1.269123</speed><course>262.654938</course><hAcc>0.889478</hAcc><vAcc>0.717579</vAcc></extensions></trkpt>
      <trkpt lon="-4.151219" lat="53.007614"><ele>630.033386</ele><time>2021-07-17T11:54:47Z</time><extensions><speed>1.263964</speed><course>262.654938</course><hAcc>0.889449</hAcc><vAcc>0.717504</vAcc></extensions></trkpt>
      <trkpt lon="-4.151236" lat="53.007619"><ele>630.197632</ele><time>2021-07-17T11:54:48Z</time><extensions><speed>1.256858</speed><course>262.654938</course><hAcc>0.889431</hAcc><vAcc>0.717447</vAcc></extensions></trkpt>
      <trkpt lon="-4.151252" lat="53.007625"><ele>630.375305</ele><time>2021-07-17T11:54:49Z</time><extensions><speed>1.247993</speed><course>262.654938</course><hAcc>0.889425</hAcc><vAcc>0.717410</vAcc></extensions></trkpt>
      <trkpt lon="-4.151268" lat="53.007630"><ele>630.565979</ele><time>2021-07-17T11:54:50Z</time><extensions><speed>1.236670</speed><course>262.654938</course><hAcc>0.889431</hAcc><vAcc>0.717398</vAcc></extensions></trkpt>
      <trkpt lon="-4.151284" lat="53.007636"><ele>630.768860</ele><time>2021-07-17T11:54:51Z</time><extensions><speed>1.221979</speed><course>262.654938</course><hAcc>0.889449</hAcc><vAcc>0.717420</vAcc></extensions></trkpt>
      <trkpt lon="-4.151299" lat="53.007642"><ele>630.982910</ele><time>2021-07-17T11:54:52Z</time><extensions><speed>1.203308</speed><course>262.654938</course><hAcc>0.889480</hAcc><vAcc>0.717488</vAcc></extensions></trkpt>
      <trkpt lon="-4.151314" lat="53.007647"><ele>631.207031</ele><time>2021-07-17T11:54:53Z</time><extensions><speed>1.180410</speed><course>262.654938</course><hAcc>0.889523</hAcc><vAcc>0.717608</vAcc></extensions></trkpt>
      <trkpt lon="-4.151329" lat="53.007653"><ele>631.439880</ele><time>2021-07-17T11:54:54Z</time><extensions><speed>1.153371</speed><course>262.654938</course><hAcc>0.889578</hAcc><vAcc>0.717786</vAcc></extensions></trkpt>
      <trkpt lon="-4.151342" lat="53.007659"><ele>631.679993</ele><time>2021-07-17T11:54:55Z</time><extensions><speed>1.122638</speed><course>262.654938</course><hAcc>0.889644</hAcc><vAcc>0.718019</vAcc></extensions></trkpt>
      <trkpt lon="-4.151355" lat="53.007665"><ele>631.925903</ele><time>2021-07-17T11:54:56Z</time><extensions><speed>1.088809</speed><course>262.654938</course><hAcc>0.889720</hAcc><vAcc>0.718302</vAcc></extensions></trkpt>
      <trkpt lon="-4.151367" lat="53.007672"><ele>632.176331</ele><time>2021-07-17T11:54:57Z</time><extensions><speed>1.052825</speed><course>262.654938</course><hAcc>0.889804</hAcc><vAcc>0.718619</vAcc></extensions></trkpt>
      <trkpt lon="-4.151378" lat="53.007678"><ele>632.429932</ele><time>2021-07-17T11:54:58Z</time><extensions><speed>1.016576</speed><course>262.654938</course><hAcc>0.889893</hAcc><vAcc>0.718952</vAcc></extensions></trkpt>
      <trkpt lon="-4.151389" lat="53.007685"><ele>632.685547</ele><time>2021-07-17T11:54:59Z</time><extensions><speed>0.982635</speed><course>262.654938</course><hAcc>0.889985</hAcc><vAcc>0.719286</vAcc></extensions></trkpt>
      <trkpt lon="-4.151397" lat="53.007692"><ele>632.941772</ele><time>2021-07-17T11:55:00Z</time><extensions><speed>0.953371</speed><course>262.654938</course><hAcc>0.890077</hAcc><vAcc>0.719608</vAcc></extensions></trkpt>
      <trkpt lon="-4.151405" lat="53.007699"><ele>633.197754</ele><time>2021-07-17T11:55:01Z</time><extensions><speed>0.930292</speed><course>262.654938</course><hAcc>0.890165</hAcc><vAcc>0.719908</vAcc></extensions></trkpt>
      <trkpt lon="-4.151412" lat="53.007706"><ele>633.452942</ele><time>2021-07-17T11:55:02Z</time><extensions><speed>0.913598</speed><course>262.654938</course><hAcc>0.890246</hAcc><vAcc>0.720181</vAcc></extensions></trkpt>
      <trkpt lon="-4.151418" lat="53.007713"><ele>633.707153</ele><time>2021-07-17T11:55:03Z</time><extensions><speed>0.902653</speed><course>262.654938</course><hAcc>0.890318</hAcc><vAcc>0.720420</vAcc></extensions></trkpt>
      <trkpt lon="-4.151423" lat="53.007721"><ele>633.959900</ele><time>2021-07-17T11:55:04Z</time><extensions><speed>0.896540</speed><course>209.646423</course><hAcc>0.890380</hAcc><vAcc>0.720617</vAcc></extensions></trkpt>
      <trkpt lon="-4.151427" lat="53.007728"><ele>634.210693</ele><time>2021-07-17T11:55:05Z</time><extensions><speed>0.893683</speed><course>207.502853</course><hAcc>0.890430</hAcc><vAcc>0.720767</vAcc></extensions></trkpt>
      <trkpt lon="-4.151431" lat="53.007736"><ele>634.459106</ele><time>2021-07-17T11:55:06Z</time><extensions><speed>0.892474</speed><course>210.649872</course><hAcc>0.890468</hAcc><vAcc>0.720865</vAcc></extensions></trkpt>
      <trkpt lon="-4.151434" lat="53.007744"><ele>634.704773</ele><time>2021-07-17T11:55:07Z</time><extensions><speed>0.891939</speed><course>218.307190</course><hAcc>0.890496</hAcc><vAcc>0.720912</vAcc></extensions></trkpt>
      <trkpt lon="-4.151438" lat="53.007751"><ele>634.948181</ele><time>2021-07-17T11:55:08Z</time><extensions><speed>0.891901</speed><course>221.774033</course><hAcc>0.890494</hAcc><vAcc>0.720895</vAcc></extensions></trkpt>
      <trkpt lon="-4.151441" lat="53.007759"><ele>635.188721</ele><time>2021-07-17T11:55:09Z</time><extensions><speed>0.893117</speed><course>225.071381</course><hAcc>0.890464</hAcc><vAcc>0.720818</vAcc></extensions></trkpt>
      <trkpt lon="-4.151445" lat="53.007767"><ele>635.425903</ele><time>2021-07-17T11:55:10Z</time><extensions><speed>0.896589</speed><course>229.682953</course><hAcc>0.890425</hAcc><vAcc>0.720697</vAcc></extensions></trkpt>
      <trkpt lon="-4.151449" lat="53.007775"><ele>635.658386</ele><time>2021-07-17T11:55:11Z</time><extensions><speed>0.902942</speed><course>228.187271</course><hAcc>0.890376</hAcc><vAcc>0.720538</vAcc></extensions></trkpt>
      <trkpt lon="-4.151453" lat="53.007783"><ele>635.884033</ele><time>2021-07-17T11:55:12Z</time><extensions><speed>0.912232</speed><course>224.821243</course><hAcc>0.890318</hAcc><vAcc>0.720347</vAcc></extensions></trkpt>
      <trkpt lon="-4.151457" lat="53.007790"><ele>636.100708</ele><time>2021-07-17T11:55:13Z</time><extensions><speed>0.924203</speed><course>222.757462</course><hAcc>0.890251</hAcc><vAcc>0.720130</vAcc></extensions></trkpt>
      <trkpt lon="-4.151461" lat="53.007798"><ele>636.306519</ele><time>2021-07-17T11:55:14Z</time><extensions><speed>0.938315</speed><course>223.047150</course><hAcc>0.890178</hAcc><vAcc>0.719892</vAcc></extensions></trkpt>
      <trkpt lon="-4.151466" lat="53.007806"><ele>636.500122</ele><time>2021-07-17T11:55:15Z</time><extensions><speed>0.954090</speed><course>218.695862</course><hAcc>0.890099</hAcc><vAcc>0.719637</vAcc></extensions></trkpt>
      <trkpt lon="-4.151470" lat="53.007814"><ele>636.681091</ele><time>2021-07-17T11:55:16Z</time><extensions><speed>0.971055</speed><course>216.351273</course><hAcc>0.890015</hAcc><vAcc>0.719368</vAcc></extensions></trkpt>
      <trkpt lon="-4.151475" lat="53.007823"><ele>636.849426</ele><time>2021-07-17T11:55:17Z</time><extensions><speed>0.988654</speed><course>219.658188</course><hAcc>0.889927</hAcc><vAcc>0.719090</vAcc></extensions></trkpt>
      <trkpt lon="-4.151481" lat="53.007831"><ele>637.005859</ele><time>2021-07-17T11:55:18Z</time><extensions><speed>1.006284</speed><course>221.748871</course><hAcc>0.889838</hAcc><vAcc>0.718806</vAcc></extensions></trkpt>
      <trkpt lon="-4.151486" lat="53.007840"><ele>637.151489</ele><time>2021-07-17T11:55:19Z</time><extensions><speed>1.023468</speed><course>225.723022</course><hAcc>0.889748</hAcc><vAcc>0.718519</vAcc></extensions></trkpt>
      <trkpt lon="-4.151492" lat="53.007848"><ele>637.287903</ele><time>2021-07-17T11:55:20Z</time><extensions><speed>1.040004</speed><course>227.303833</course><hAcc>0.889659</hAcc><vAcc>0.718231</vAcc></extensions></trkpt>
      <trkpt lon="-4.151499" lat="53.007857"><ele>637.416992</ele><time>2021-07-17T11:55:21Z</time><extensions><speed>1.055738</speed><course>225.742310</course><hAcc>0.889574</hAcc><vAcc>0.717946</vAcc></extensions></trkpt>
      <trkpt lon="-4.151506" lat="53.007865"><ele>637.540833</ele><time>2021-07-17T11:55:22Z</time><extensions><speed>1.070403</speed><course>225.742310</course><hAcc>0.889495</hAcc><vAcc>0.717669</vAcc></extensions></trkpt>
      <trkpt lon="-4.151513" lat="53.007874"><ele>637.661499</ele><time>2021-07-17T11:55:23Z</time><extensions><speed>1.083546</speed><course>225.742325</course><hAcc>0.889425</hAcc><vAcc>0.717407</vAcc></extensions></trkpt>
      <trkpt lon="-4.151521" lat="53.007883"><ele>637.781189</ele><time>2021-07-17T11:55:24Z</time><extensions><speed>1.094607</speed><course>225.742325</course><hAcc>0.889367</hAcc><vAcc>0.717173</vAcc></extensions></trkpt>
      <trkpt lon="-4.151529" lat="53.007891"><ele>637.902222</ele><time>2021-07-17T11:55:25Z</time><extensions><speed>1.102803</speed><course>225.742325</course><hAcc>0.889322</hAcc><vAcc>0.716984</vAcc></extensions></trkpt>
      <trkpt lon="-4.151538" lat="53.007899"><ele>638.027222</ele><time>2021-07-17T11:55:26Z</time><extensions><speed>1.107469</speed><course>224.360504</course><hAcc>0.889292</hAcc><vAcc>0.716856</vAcc></extensions></trkpt>
      <trkpt lon="-4.151547" lat="53.007908"><ele>638.158569</ele><time>2021-07-17T11:55:27Z</time><extensions><speed>1.108027</speed><course>231.374908</course><hAcc>0.889278</hAcc><vAcc>0.716801</vAcc></extensions></trkpt>
      <trkpt lon="-4.151556" lat="53.007916"><ele>638.298096</ele><time>2021-07-17T11:55:28Z</time><extensions><speed>1.104316</speed><course>226.234039</course><hAcc>0.889280</hAcc><vAcc>0.716826</vAcc></extensions></trkpt>
      <trkpt lon="-4.151565" lat="53.007924"><ele>638.446655</ele><time>2021-07-17T11:55:29Z</time><extensions><speed>1.096763</speed><course>228.443588</course><hAcc>0.889297</hAcc><vAcc>0.716926</vAcc></extensions></trkpt>
      <trkpt lon="-4.151575" lat="53.007932"><ele>638.604370</ele><time>2021-07-17T11:55:30Z</time><extensions><speed>1.086225</speed><course>217.150848</course><hAcc>0.889327</hAcc><vAcc>0.717090</vAcc></extensions></trkpt>
      <trkpt lon="-4.151584" lat="53.007940"><ele>638.770813</ele><time>2021-07-17T11:55:31Z</time><extensions><speed>1.073939</speed><course>214.670395</course><hAcc>0.889367</hAcc><vAcc>0.717304</vAcc></extensions></trkpt>
      <trkpt lon="-4.151594" lat="53.007948"><ele>638.945312</ele><time>2021-07-17T11:55:32Z</time><extensions><speed>1.060934</speed><course>219.066208</course><hAcc>0.889414</hAcc><vAcc>0.717551</vAcc></extensions></trkpt>
      <trkpt lon="-4.151603" lat="53.007955"><ele>639.127136</ele><time>2021-07-17T11:55:33Z</time><extensions><speed>1.047804</speed><course>218.042282</course><hAcc>0.889464</hAcc><vAcc>0.717811</vAcc></extensions></trkpt>
      <trkpt lon="-4.151613" lat="53.007963"><ele>639.315369</ele><time>2021-07-17T11:55:34Z</time><extensions><speed>1.034785</speed><course>220.994385</course><hAcc>0.889511</hAcc><vAcc>0.718069</vAcc></extensions></trkpt>
      <trkpt lon="-4.151622" lat="53.007970"><ele>639.508911</ele><time>2021-07-17T11:55:34Z</time><extensions><speed>1.021838</speed><course>227.746307</course><hAcc>0.889588</hAcc><vAcc>0.718336</vAcc></extensions></trkpt>
      <trkpt lon="-4.151632" lat="53.007977"><ele>639.707642</ele><time>2021-07-17T11:55:35Z</time><extensions><speed>1.008944</speed><course>224.855316</course><hAcc>0.889692</hAcc><vAcc>0.718606</vAcc></extensions></trkpt>
      <trkpt lon="-4.151641" lat="53.007984"><ele>639.910522</ele><time>2021-07-17T11:55:36Z</time><extensions><speed>0.996508</speed><course>223.584900</course><hAcc>0.889787</hAcc><vAcc>0.718853</vAcc></extensions></trkpt>
      <trkpt lon="-4.151651" lat="53.007991"><ele>640.116516</ele><time>2021-07-17T11:55:37Z</time><extensions><speed>0.984641</speed><course>224.383530</course><hAcc>0.889873</hAcc><vAcc>0.719076</vAcc></extensions></trkpt>
      <trkpt lon="-4.151660" lat="53.007997"><ele>640.324951</ele><time>2021-07-17T11:55:38Z</time><extensions><speed>0.973318</speed><course>225.716217</course><hAcc>0.889950</hAcc><vAcc>0.719280</vAcc></extensions></trkpt>
      <trkpt lon="-4.151670" lat="53.008004"><ele>640.535034</ele><time>2021-07-17T11:55:39Z</time><extensions><speed>0.962689</speed><course>229.189102</course><hAcc>0.890020</hAcc><vAcc>0.719466</vAcc></extensions></trkpt>
      <trkpt lon="-4.151680" lat="53.008010"><ele>640.746155</ele><time>2021-07-17T11:55:40Z</time><extensions><speed>0.953030</speed><course>224.817474</course><hAcc>0.890083</hAcc><vAcc>0.719639</vAcc></extensions></trkpt>
      <trkpt lon="-4.151690" lat="53.008016"><ele>640.958130</ele><time>2021-07-17T11:55:41Z</time><extensions><speed>0.944538</speed><course>225.227936</course><hAcc>0.890142</hAcc><vAcc>0.719800</vAcc></extensions></trkpt>
      <trkpt lon="-4.151700" lat="53.008022"><ele>641.170959</ele><time>2021-07-17T11:55:42Z</time><extensions><speed>0.937480</speed><course>228.251373</course><hAcc>0.890198</hAcc><vAcc>0.719955</vAcc></extensions></trkpt>
      <trkpt lon="-4.151711" lat="53.008027"><ele>641.384460</ele><time>2021-07-17T11:55:43Z</time><extensions><speed>0.931901</speed><course>230.721024</course><hAcc>0.890251</hAcc><vAcc>0.720108</vAcc></extensions></trkpt>
      <trkpt lon="-4.151722" lat="53.008032"><ele>641.598206</ele><time>2021-07-17T11:55:44Z</time><extensions><speed>0.927678</speed><course>234.697540</course><hAcc>0.890304</hAcc><vAcc>0.720261</vAcc></extensions></trkpt>
      <trkpt lon="-4.151733" lat="53.008037"><ele>641.811157</ele><time>2021-07-17T11:55:45Z</time><extensions><speed>0.925082</speed><course>236.619934</course><hAcc>0.890357</hAcc><vAcc>0.720417</vAcc></extensions></trkpt>
      <trkpt lon="-4.151744" lat="53.008042"><ele>642.022095</ele><time>2021-07-17T11:55:46Z</time><extensions><speed>0.924531</speed><course>247.542679</course><hAcc>0.890410</hAcc><vAcc>0.720578</vAcc></extensions></trkpt>
      <trkpt lon="-4.151756" lat="53.008046"><ele>642.230225</ele><time>2021-07-17T11:55:47Z</time><extensions><speed>0.926259</speed><course>242.855072</course><hAcc>0.890465</hAcc><vAcc>0.720747</vAcc></extensions></trkpt>
      <trkpt lon="-4.151769" lat="53.008050"><ele>642.435364</ele><time>2021-07-17T11:55:48Z</time><extensions><speed>0.929891</speed><course>241.397278</course><hAcc>0.890522</hAcc><vAcc>0.720924</vAcc></extensions></trkpt>
      <trkpt lon="-4.151781" lat="53.008053"><ele>642.637939</ele><time>2021-07-17T11:55:49Z</time><extensions><speed>0.934442</speed><course>241.667068</course><hAcc>0.890579</hAcc><vAcc>0.721109</vAcc></extensions></trkpt>
      <trkpt lon="-4.151794" lat="53.008056"><ele>642.838928</ele><time>2021-07-17T11:55:50Z</time><extensions><speed>0.938673</speed><course>241.132874</course><hAcc>0.890636</hAcc><vAcc>0.721301</vAcc></extensions></trkpt>
      <trkpt lon="-4.151808" lat="53.008058"><ele>643.039368</ele><time>2021-07-17T11:55:51Z</time><extensions><speed>0.941473</speed><course>242.509506</course><hAcc>0.890692</hAcc><vAcc>0.721496</vAcc></extensions></trkpt>
      <trkpt lon="-4.151821" lat="53.008061"><ele>643.240295</ele><time>2021-07-17T11:55:52Z</time><extensions><speed>0.942127</speed><course>242.195404</course><hAcc>0.890745</hAcc><vAcc>0.721690</vAcc></extensions></trkpt>
      <trkpt lon="-4.151835" lat="53.008062"><ele>643.442200</ele><time>2021-07-17T11:55:53Z</time><extensions><speed>0.940362</speed><course>244.443573</course><hAcc>0.890795</hAcc><vAcc>0.721873</vAcc></extensions></trkpt>
      <trkpt lon="-4.151849" lat="53.008063"><ele>643.645142</ele><time>2021-07-17T11:55:54Z</time><extensions><speed>0.936207</speed><course>246.780472</course><hAcc>0.890840</hAcc><vAcc>0.722038</vAcc></extensions></trkpt>
      <trkpt lon="-4.151863" lat="53.008064"><ele>643.848755</ele><time>2021-07-17T11:55:55Z</time><extensions><speed>0.929842</speed><course>247.423477</course><hAcc>0.890878</hAcc><vAcc>0.722175</vAcc></extensions></trkpt>
      <trkpt lon="-4.151876" lat="53.008065"><ele>644.052612</ele><time>2021-07-17T11:55:56Z</time><extensions><speed>0.921661</speed><course>252.345490</course><hAcc>0.890909</hAcc><vAcc>0.722278</vAcc></extensions></trkpt>
      <trkpt lon="-4.151890" lat="53.008065"><ele>644.256042</ele><time>2021-07-17T11:55:57Z</time><extensions><speed>0.912066</speed><course>252.366760</course><hAcc>0.890931</hAcc><vAcc>0.722342</vAcc></extensions></trkpt>
      <trkpt lon="-4.151904" lat="53.008065"><ele>644.458130</ele><time>2021-07-17T11:55:58Z</time><extensions><speed>0.901227</speed><course>254.889893</course><hAcc>0.890944</hAcc><vAcc>0.722365</vAcc></extensions></trkpt>
      <trkpt lon="-4.151917" lat="53.008065"><ele>644.657654</ele><time>2021-07-17T11:55:59Z</time><extensions><speed>0.889544</speed><course>257.492432</course><hAcc>0.890947</hAcc><vAcc>0.722349</vAcc></extensions></trkpt>
      <trkpt lon="-4.151930" lat="53.008065"><ele>644.853333</ele><time>2021-07-17T11:56:00Z</time><extensions><speed>0.877595</speed><course>255.728439</course><hAcc>0.890940</hAcc><vAcc>0.722295</vAcc></extensions></trkpt>
      <trkpt lon="-4.151943" lat="53.008066"><ele>645.043457</ele><time>2021-07-17T11:56:01Z</time><extensions><speed>0.866045</speed><course>258.375061</course><hAcc>0.890924</hAcc><vAcc>0.722210</vAcc></extensions></trkpt>
      <trkpt lon="-4.151956" lat="53.008066"><ele>645.226868</ele><time>2021-07-17T11:56:02Z</time><extensions><speed>0.855470</speed><course>260.722260</course><hAcc>0.890900</hAcc><vAcc>0.722098</vAcc></extensions></trkpt>
      <trkpt lon="-4.151969" lat="53.008066"><ele>645.402710</ele><time>2021-07-17T11:56:03Z</time><extensions><speed>0.846303</speed><course>260.722260</course><hAcc>0.890872</hAcc><vAcc>0.721965</vAcc></extensions></trkpt>
      <trkpt lon="-4.151981" lat="53.008066"><ele>645.570251</ele><time>2021-07-17T11:56:04Z</time><extensions><speed>0.839006</speed><course>260.722260</course><hAcc>0.890844</hAcc><vAcc>0.721819</vAcc></extensions></trkpt>
      <trkpt lon="-4.151994" lat="53.008066"><ele>645.729187</ele><time>2021-07-17T11:56:06Z</time><extensions><speed>0.833562</speed><course>260.722260</course><hAcc>0.890804</hAcc><vAcc>0.721656</vAcc></extensions></trkpt>
      <trkpt lon="-4.152006" lat="53.008067"><ele>645.879272</ele><time>2021-07-17T11:56:07Z</time><extensions><speed>0.829673</speed><course>260.722260</course><hAcc>0.890758</hAcc><vAcc>0.721490</vAcc></extensions></trkpt>
      <trkpt lon="-4.152018" lat="53.008068"><ele>646.021057</ele><time>2021-07-17T11:56:08Z</time><extensions><speed>0.827016</speed><course>260.722260</course><hAcc>0.890737</hAcc><vAcc>0.721348</vAcc></extensions></trkpt>
      <trkpt lon="-4.152031" lat="53.008068"><ele>646.155090</ele><time>2021-07-17T11:56:09Z</time><extensions><speed>0.825411</speed><course>260.722260</course><hAcc>0.890754</hAcc><vAcc>0.721253</vAcc></extensions></trkpt>
      <trkpt lon="-4.152043" lat="53.008068"><ele>646.282471</ele><time>2021-07-17T11:56:10Z</time><extensions><speed>0.824684</speed><course>260.722229</course><hAcc>0.890828</hAcc><vAcc>0.721232</vAcc></extensions></trkpt>
      <trkpt lon="-4.152055" lat="53.008069"><ele>646.404968</ele><time>2021-07-17T11:56:11Z</time><extensions><speed>0.824133</speed><course>268.575928</course><hAcc>0.890984</hAcc><vAcc>0.721317</vAcc></extensions></trkpt>
      <trkpt lon="-4.152067" lat="53.008069"><ele>646.524597</ele><time>2021-07-17T11:56:12Z</time><extensions><speed>0.822604</speed><course>268.685822</course><hAcc>0.891253</hAcc><vAcc>0.721541</vAcc></extensions></trkpt>
      <trkpt lon="-4.152080" lat="53.008069"><ele>646.643433</ele><time>2021-07-17T11:56:13Z</time><extensions><speed>0.819178</speed><course>264.169769</course><hAcc>0.891670</hAcc><vAcc>0.721937</vAcc></extensions></trkpt>
      <trkpt lon="-4.152092" lat="53.008068"><ele>646.762817</ele><time>2021-07-17T11:56:14Z</time><extensions><speed>0.813329</speed><course>272.216278</course><hAcc>0.892276</hAcc><vAcc>0.722535</vAcc></extensions></trkpt>
      <trkpt lon="-4.152104" lat="53.008067"><ele>646.883606</ele><time>2021-07-17T11:56:15Z</time><extensions><speed>0.804997</speed><course>279.707916</course><hAcc>0.893110</hAcc><vAcc>0.723357</vAcc></extensions></trkpt>
      <trkpt lon="-4.152115" lat="53.008066"><ele>647.005737</ele><time>2021-07-17T11:56:16Z</time><extensions><speed>0.794276</speed><course>277.974487</course><hAcc>0.894207</hAcc><vAcc>0.724414</vAcc></extensions></trkpt>
      <trkpt lon="-4.152127" lat="53.008065"><ele>647.128601</ele><time>2021-07-17T11:56:17Z</time><extensions><speed>0.781047</speed><course>285.359497</course><hAcc>0.895588</hAcc><vAcc>0.725696</vAcc></extensions></trkpt>
      <trkpt lon="-4.152138" lat="53.008063"><ele>647.251465</ele><time>2021-07-17T11:56:18Z</time><extensions><speed>0.765361</speed><course>288.896698</course><hAcc>0.897251</hAcc><vAcc>0.727167</vAcc></extensions></trkpt>
      <trkpt lon="-4.152149" lat="53.008062"><ele>647.373535</ele><time>2021-07-17T11:56:19Z</time><extensions><speed>0.747412</speed><course>285.949463</course><hAcc>0.899162</hAcc><vAcc>0.728756</vAcc></extensions></trkpt>
      <trkpt lon="-4.152160" lat="53.008060"><ele>647.493774</ele><time>2021-07-17T11:56:20Z</time><extensions><speed>0.727659</speed><course>279.328217</course><hAcc>0.901240</hAcc><vAcc>0.730353</vAcc></extensions></trkpt>
      <trkpt lon="-4.152170" lat="53.008058"><ele>647.610779</ele><time>2021-07-17T11:56:21Z</time><extensions><speed>0.707006</speed><course>280.252258</course><hAcc>0.903357</hAcc><vAcc>0.731821</vAcc></extensions></trkpt>
      <trkpt lon="-4.152180" lat="53.008056"><ele>647.723145</ele><time>2021-07-17T11:56:22Z</time><extensions><speed>0.686716</speed><course>280.968384</course><hAcc>0.905338</hAcc><vAcc>0.733010</vAcc></extensions></trkpt>
      <trkpt lon="-4.152189" lat="53.008054"><ele>647.829285</ele><time>2021-07-17T11:56:23Z</time><extensions><speed>0.668165</speed><course>279.577759</course><hAcc>0.906986</hAcc><vAcc>0.733797</vAcc></extensions></trkpt>
      <trkpt lon="-4.152199" lat="53.008052"><ele>647.927856</ele><time>2021-07-17T11:56:24Z</time><extensions><speed>0.652532</speed><course>280.039124</course><hAcc>0.908134</hAcc><vAcc>0.734150</vAcc></extensions></trkpt>
      <trkpt lon="-4.152208" lat="53.008051"><ele>648.017639</ele><time>2021-07-17T11:56:25Z</time><extensions><speed>0.640734</speed><course>285.588440</course><hAcc>0.908749</hAcc><vAcc>0.734226</vAcc></extensions></trkpt>
      <trkpt lon="-4.152217" lat="53.008049"><ele>648.097839</ele><time>2021-07-17T11:56:26Z</time><extensions><speed>0.633028</speed><course>287.653503</course><hAcc>0.909100</hAcc><vAcc>0.734516</vAcc></extensions></trkpt>
      <trkpt lon="-4.152226" lat="53.008048"><ele>648.167908</ele><time>2021-07-17T11:56:27Z</time><extensions><speed>0.629200</speed><course>285.239563</course><hAcc>0.910008</hAcc><vAcc>0.736036</vAcc></extensions></trkpt>
      <trkpt lon="-4.152235" lat="53.008047"><ele>648.227417</ele><time>2021-07-17T11:56:28Z</time><extensions><speed>0.628767</speed><course>283.468018</course><hAcc>0.913210</hAcc><vAcc>0.740566</vAcc></extensions></trkpt>
      <trkpt lon="-4.152245" lat="53.008046"><ele>648.276611</ele><time>2021-07-17T11:56:29Z</time><extensions><speed>0.630783</speed><course>279.656525</course><hAcc>0.921788</hAcc><vAcc>0.750877</vAcc></extensions></trkpt>
      <trkpt lon="-4.152254" lat="53.008045"><ele>648.316162</ele><time>2021-07-17T11:56:30Z</time><extensions><speed>0.634470</speed><course>278.539093</course><hAcc>0.940570</hAcc><vAcc>0.770852</vAcc></extensions></trkpt>
      <trkpt lon="-4.152263" lat="53.008045"><ele>648.347534</ele><time>2021-07-17T11:56:31Z</time><extensions><speed>0.638912</speed><course>281.435120</course><hAcc>0.976252</hAcc><vAcc>0.805342</vAcc></extensions></trkpt>
      <trkpt lon="-4.152272" lat="53.008047"><ele>648.512634</ele><time>2021-07-17T11:56:32Z</time><extensions><speed>0.923740</speed><course>207.637573</course><hAcc>0.937888</hAcc><vAcc>0.769622</vAcc></extensions></trkpt>
      <trkpt lon="-4.152284" lat="53.008051"><ele>648.535645</ele><time>2021-07-17T11:56:33Z</time><extensions><speed>0.941872</speed><course>199.781464</course><hAcc>0.918320</hAcc><vAcc>0.748452</vAcc></extensions></trkpt>
      <trkpt lon="-4.152296" lat="53.008056"><ele>648.559753</ele><time>2021-07-17T11:56:34Z</time><extensions><speed>0.962278</speed><course>204.898392</course><hAcc>0.910135</hAcc><vAcc>0.737933</vAcc></extensions></trkpt>
      <trkpt lon="-4.152307" lat="53.008061"><ele>648.584351</ele><time>2021-07-17T11:56:35Z</time><extensions><speed>0.985069</speed><course>218.988647</course><hAcc>0.907832</hAcc><vAcc>0.733738</vAcc></extensions></trkpt>
      <trkpt lon="-4.152320" lat="53.008066"><ele>648.608704</ele><time>2021-07-17T11:56:36Z</time><extensions><speed>1.009823</speed><course>240.875916</course><hAcc>0.907901</hAcc><vAcc>0.732772</vAcc></extensions></trkpt>
      <trkpt lon="-4.152332" lat="53.008072"><ele>648.631897</ele><time>2021-07-17T11:56:37Z</time><extensions><speed>1.035165</speed><course>240.875916</course><hAcc>0.908385</hAcc><vAcc>0.733058</vAcc></extensions></trkpt>
      <trkpt lon="-4.152344" lat="53.008077"><ele>648.652588</ele><time>2021-07-17T11:56:38Z</time><extensions><speed>1.059815</speed><course>240.875916</course><hAcc>0.908376</hAcc><vAcc>0.733471</vAcc></extensions></trkpt>
      <trkpt lon="-4.152357" lat="53.008083"><ele>648.669739</ele><time>2021-07-17T11:56:39Z</time><extensions><speed>1.083119</speed><course>240.875916</course><hAcc>0.907602</hAcc><vAcc>0.733483</vAcc></extensions></trkpt>
      <trkpt lon="-4.152369" lat="53.008090"><ele>648.682556</ele><time>2021-07-17T11:56:40Z</time><extensions><speed>1.104964</speed><course>240.875916</course><hAcc>0.906129</hAcc><vAcc>0.732933</vAcc></extensions></trkpt>
      <trkpt lon="-4.152382" lat="53.008096"><ele>648.690674</ele><time>2021-07-17T11:56:41Z</time><extensions><speed>1.125221</speed><course>240.875916</course><hAcc>0.904174</hAcc><vAcc>0.731869</vAcc></extensions></trkpt>
      <trkpt lon="-4.152395" lat="53.008103"><ele>648.693848</ele><time>2021-07-17T11:56:42Z</time><extensions><speed>1.143657</speed><course>269.430084</course><hAcc>0.901984</hAcc><vAcc>0.730440</vAcc></extensions></trkpt>
      <trkpt lon="-4.152408" lat="53.008109"><ele>648.692078</ele><time>2021-07-17T11:56:43Z</time><extensions><speed>1.160214</speed><course>274.056000</course><hAcc>0.899775</hAcc><vAcc>0.728816</vAcc></extensions></trkpt>
      <trkpt lon="-4.152421" lat="53.008117"><ele>648.685547</ele><time>2021-07-17T11:56:44Z</time><extensions><speed>1.175185</speed><course>273.580658</course><hAcc>0.897710</hAcc><vAcc>0.727157</vAcc></extensions></trkpt>
      <trkpt lon="-4.152433" lat="53.008124"><ele>648.674377</ele><time>2021-07-17T11:56:45Z</time><extensions><speed>1.189387</speed><course>266.285736</course><hAcc>0.895888</hAcc><vAcc>0.725583</vAcc></extensions></trkpt>
      <trkpt lon="-4.152446" lat="53.008131"><ele>648.658569</ele><time>2021-07-17T11:56:46Z</time><extensions><speed>1.203444</speed><course>280.416809</course><hAcc>0.894359</hAcc><vAcc>0.724173</vAcc></extensions></trkpt>
      <trkpt lon="-4.152459" lat="53.008139"><ele>648.638611</ele><time>2021-07-17T11:56:47Z</time><extensions><speed>1.217375</speed><course>289.633057</course><hAcc>0.893129</hAcc><vAcc>0.722969</vAcc></extensions></trkpt>
      <trkpt lon="-4.152472" lat="53.008146"><ele>648.615173</ele><time>2021-07-17T11:56:48Z</time><extensions><speed>1.231037</speed><course>274.042023</course><hAcc>0.892178</hAcc><vAcc>0.721980</vAcc></extensions></trkpt>
      <trkpt lon="-4.152486" lat="53.008154"><ele>648.588745</ele><time>2021-07-17T11:56:49Z</time><extensions><speed>1.244577</speed><course>259.398621</course><hAcc>0.891470</hAcc><vAcc>0.721199</vAcc></extensions></trkpt>
      <trkpt lon="-4.152499" lat="53.008162"><ele>648.559814</ele><time>2021-07-17T11:56:50Z</time><extensions><speed>1.258190</speed><course>235.228027</course><hAcc>0.890962</hAcc><vAcc>0.720605</vAcc></extensions></trkpt>
      <trkpt lon="-4.152512" lat="53.008170"><ele>648.528992</ele><time>2021-07-17T11:56:51Z</time><extensions><speed>1.271960</speed><course>233.943741</course><hAcc>0.890611</hAcc><vAcc>0.720171</vAcc></extensions></trkpt>
      <trkpt lon="-4.152526" lat="53.008178"><ele>648.497131</ele><time>2021-07-17T11:56:52Z</time><extensions><speed>1.285672</speed><course>251.986771</course><hAcc>0.890377</hAcc><vAcc>0.719867</vAcc></extensions></trkpt>
      <trkpt lon="-4.152539" lat="53.008186"><ele>648.465027</ele><time>2021-07-17T11:56:53Z</time><extensions><speed>1.298637</speed><course>230.632401</course><hAcc>0.890226</hAcc><vAcc>0.719661</vAcc></extensions></trkpt>
      <trkpt lon="-4.152553" lat="53.008195"><ele>648.433350</ele><time>2021-07-17T11:56:54Z</time><extensions><speed>1.310332</speed><course>208.539734</course><hAcc>0.890134</hAcc><vAcc>0.719526</vAcc></extensions></trkpt>
      <trkpt lon="-4.152567" lat="53.008203"><ele>648.402710</ele><time>2021-07-17T11:56:55Z</time><extensions><speed>1.320433</speed><course>217.062653</course><hAcc>0.890079</hAcc><vAcc>0.719436</vAcc></extensions></trkpt>
      <trkpt lon="-4.152581" lat="53.008211"><ele>648.373779</ele><time>2021-07-17T11:56:56Z</time><extensions><speed>1.328702</speed><course>216.480164</course><hAcc>0.890047</hAcc><vAcc>0.719374</vAcc></extensions></trkpt>
      <trkpt lon="-4.152595" lat="53.008220"><ele>648.347168</ele><time>2021-07-17T11:56:57Z</time><extensions><speed>1.335334</speed><course>215.204285</course><hAcc>0.890028</hAcc><vAcc>0.719328</vAcc></extensions></trkpt>
      <trkpt lon="-4.152609" lat="53.008228"><ele>648.323669</ele><time>2021-07-17T11:56:58Z</time><extensions><speed>1.340487</speed><course>192.608246</course><hAcc>0.890017</hAcc><vAcc>0.719290</vAcc></extensions></trkpt>
      <trkpt lon="-4.152623" lat="53.008237"><ele>648.303772</ele><time>2021-07-17T11:56:59Z</time><extensions><speed>1.344461</speed><course>196.818375</course><hAcc>0.890009</hAcc><vAcc>0.719258</vAcc></extensions></trkpt>
      <trkpt lon="-4.152638" lat="53.008245"><ele>648.287354</ele><time>2021-07-17T11:57:00Z</time><extensions><speed>1.347688</speed><course>200.564194</course><hAcc>0.890004</hAcc><vAcc>0.719230</vAcc></extensions></trkpt>
      <trkpt lon="-4.152652" lat="53.008254"><ele>648.273743</ele><time>2021-07-17T11:57:01Z</time><extensions><speed>1.350283</speed><course>224.718231</course><hAcc>0.890002</hAcc><vAcc>0.719209</vAcc></extensions></trkpt>
      <trkpt lon="-4.152666" lat="53.008262"><ele>648.262695</ele><time>2021-07-17T11:57:02Z</time><extensions><speed>1.352224</speed><course>228.969803</course><hAcc>0.890003</hAcc><vAcc>0.719198</vAcc></extensions></trkpt>
      <trkpt lon="-4.152681" lat="53.008271"><ele>648.254333</ele><time>2021-07-17T11:57:03Z</time><extensions><speed>1.353691</speed><course>250.366501</course><hAcc>0.890009</hAcc><vAcc>0.719202</vAcc></extensions></trkpt>
      <trkpt lon="-4.152696" lat="53.008279"><ele>648.248779</ele><time>2021-07-17T11:57:04Z</time><extensions><speed>1.355055</speed><course>-1.000000</course><hAcc>0.890020</hAcc><vAcc>0.719228</vAcc></extensions></trkpt>
      <trkpt lon="-4.152711" lat="53.008287"><ele>648.246155</ele><time>2021-07-17T11:57:05Z</time><extensions><speed>1.356522</speed><course>232.063629</course><hAcc>0.890036</hAcc><vAcc>0.719280</vAcc></extensions></trkpt>
      <trkpt lon="-4.152727" lat="53.008295"><ele>648.246460</ele><time>2021-07-17T11:57:06Z</time><extensions><speed>1.358059</speed><course>232.063614</course><hAcc>0.890059</hAcc><vAcc>0.719360</vAcc></extensions></trkpt>
      <trkpt lon="-4.152742" lat="53.008302"><ele>648.249146</ele><time>2021-07-17T11:57:07Z</time><extensions><speed>1.359393</speed><course>232.063614</course><hAcc>0.890086</hAcc><vAcc>0.719469</vAcc></extensions></trkpt>
      <trkpt lon="-4.152758" lat="53.008310"><ele>648.253662</ele><time>2021-07-17T11:57:08Z</time><extensions><speed>1.360007</speed><course>232.063599</course><hAcc>0.890119</hAcc><vAcc>0.719603</vAcc></extensions></trkpt>
      <trkpt lon="-4.152774" lat="53.008317"><ele>648.259644</ele><time>2021-07-17T11:57:09Z</time><extensions><speed>1.359319</speed><course>232.063599</course><hAcc>0.890155</hAcc><vAcc>0.719758</vAcc></extensions></trkpt>
      <trkpt lon="-4.152791" lat="53.008325"><ele>648.267151</ele><time>2021-07-17T11:57:10Z</time><extensions><speed>1.357037</speed><course>232.063583</course><hAcc>0.890193</hAcc><vAcc>0.719923</vAcc></extensions></trkpt>
      <trkpt lon="-4.152807" lat="53.008332"><ele>648.276245</ele><time>2021-07-17T11:57:11Z</time><extensions><speed>1.352920</speed><course>232.063583</course><hAcc>0.890232</hAcc><vAcc>0.720087</vAcc></extensions></trkpt>
      <trkpt lon="-4.152823" lat="53.008339"><ele>648.287292</ele><time>2021-07-17T11:57:12Z</time><extensions><speed>1.346907</speed><course>248.555511</course><hAcc>0.890270</hAcc><vAcc>0.720237</vAcc></extensions></trkpt>
      <trkpt lon="-4.152840" lat="53.008346"><ele>648.300476</ele><time>2021-07-17T11:57:13Z</time><extensions><speed>1.339411</speed><course>214.727661</course><hAcc>0.890308</hAcc><vAcc>0.720367</vAcc></extensions></trkpt>
      <trkpt lon="-4.152856" lat="53.008353"><ele>648.315857</ele><time>2021-07-17T11:57:14Z</time><extensions><speed>1.330823</speed><course>215.656113</course><hAcc>0.890343</hAcc><vAcc>0.720472</vAcc></extensions></trkpt>
      <trkpt lon="-4.152872" lat="53.008359"><ele>648.333313</ele><time>2021-07-17T11:57:15Z</time><extensions><speed>1.321187</speed><course>205.637772</course><hAcc>0.890376</hAcc><vAcc>0.720555</vAcc></extensions></trkpt>
      <trkpt lon="-4.152889" lat="53.008366"><ele>648.353088</ele><time>2021-07-17T11:57:16Z</time><extensions><speed>1.310675</speed><course>201.575424</course><hAcc>0.890406</hAcc><vAcc>0.720622</vAcc></extensions></trkpt>
      <trkpt lon="-4.152905" lat="53.008372"><ele>648.375671</ele><time>2021-07-17T11:57:17Z</time><extensions><speed>1.299369</speed><course>196.854248</course><hAcc>0.890433</hAcc><vAcc>0.720681</vAcc></extensions></trkpt>
      <trkpt lon="-4.152921" lat="53.008379"><ele>648.402710</ele><time>2021-07-17T11:57:18Z</time><extensions><speed>1.286912</speed><course>198.264053</course><hAcc>0.890459</hAcc><vAcc>0.720737</vAcc></extensions></trkpt>
      <trkpt lon="-4.152937" lat="53.008385"><ele>648.435852</ele><time>2021-07-17T11:57:19Z</time><extensions><speed>1.272755</speed><course>198.636932</course><hAcc>0.890482</hAcc><vAcc>0.720797</vAcc></extensions></trkpt>
      <trkpt lon="-4.152953" lat="53.008391"><ele>648.476257</ele><time>2021-07-17T11:57:20Z</time><extensions><speed>1.256050</speed><course>192.727798</course><hAcc>0.890505</hAcc><vAcc>0.720863</vAcc></extensions></trkpt>
      <trkpt lon="-4.152969" lat="53.008397"><ele>648.524902</ele><time>2021-07-17T11:57:21Z</time><extensions><speed>1.236009</speed><course>184.691818</course><hAcc>0.890528</hAcc><vAcc>0.720934</vAcc></extensions></trkpt>
      <trkpt lon="-4.152984" lat="53.008403"><ele>648.582336</ele><time>2021-07-17T11:57:22Z</time><extensions><speed>1.212597</speed><course>177.917740</course><hAcc>0.890552</hAcc><vAcc>0.721009</vAcc></extensions></trkpt>
      <trkpt lon="-4.152999" lat="53.008408"><ele>648.648743</ele><time>2021-07-17T11:57:23Z</time><extensions><speed>1.186152</speed><course>169.935883</course><hAcc>0.890576</hAcc><vAcc>0.721087</vAcc></extensions></trkpt>
      <trkpt lon="-4.153014" lat="53.008414"><ele>648.724121</ele><time>2021-07-17T11:57:24Z</time><extensions><speed>1.156832</speed><course>168.290512</course><hAcc>0.890601</hAcc><vAcc>0.721165</vAcc></extensions></trkpt>
      <trkpt lon="-4.153029" lat="53.008419"><ele>648.808228</ele><time>2021-07-17T11:57:25Z</time><extensions><speed>1.124822</speed><course>175.847488</course><hAcc>0.890627</hAcc><vAcc>0.721241</vAcc></extensions></trkpt>
      <trkpt lon="-4.153043" lat="53.008424"><ele>648.900391</ele><time>2021-07-17T11:57:26Z</time><extensions><speed>1.090469</speed><course>182.489380</course><hAcc>0.890653</hAcc><vAcc>0.721313</vAcc></extensions></trkpt>
      <trkpt lon="-4.153057" lat="53.008429"><ele>648.999390</ele><time>2021-07-17T11:57:27Z</time><extensions><speed>1.054129</speed><course>193.224472</course><hAcc>0.890681</hAcc><vAcc>0.721378</vAcc></extensions></trkpt>
      <trkpt lon="-4.153070" lat="53.008434"><ele>649.103821</ele><time>2021-07-17T11:57:28Z</time><extensions><speed>1.016574</speed><course>210.457108</course><hAcc>0.890692</hAcc><vAcc>0.721422</vAcc></extensions></trkpt>
      <trkpt lon="-4.153083" lat="53.008439"><ele>649.211609</ele><time>2021-07-17T11:57:29Z</time><extensions><speed>0.978901</speed><course>227.054108</course><hAcc>0.890686</hAcc><vAcc>0.721443</vAcc></extensions></trkpt>
      <trkpt lon="-4.153094" lat="53.008443"><ele>649.320984</ele><time>2021-07-17T11:57:30Z</time><extensions><speed>0.941773</speed><course>247.666534</course><hAcc>0.890680</hAcc><vAcc>0.721453</vAcc></extensions></trkpt>
      <trkpt lon="-4.153106" lat="53.008448"><ele>649.429810</ele><time>2021-07-17T11:57:31Z</time><extensions><speed>0.906490</speed><course>261.197876</course><hAcc>0.890675</hAcc><vAcc>0.721450</vAcc></extensions></trkpt>
      <trkpt lon="-4.153116" lat="53.008453"><ele>649.535767</ele><time>2021-07-17T11:57:32Z</time><extensions><speed>0.874405</speed><course>263.217255</course><hAcc>0.890668</hAcc><vAcc>0.721437</vAcc></extensions></trkpt>
      <trkpt lon="-4.153126" lat="53.008458"><ele>649.636963</ele><time>2021-07-17T11:57:33Z</time><extensions><speed>0.846366</speed><course>271.463165</course><hAcc>0.890661</hAcc><vAcc>0.721416</vAcc></extensions></trkpt>
      <trkpt lon="-4.153136" lat="53.008463"><ele>649.732178</ele><time>2021-07-17T11:57:34Z</time><extensions><speed>0.822550</speed><course>281.991608</course><hAcc>0.890653</hAcc><vAcc>0.721392</vAcc></extensions></trkpt>
      <trkpt lon="-4.153144" lat="53.008468"><ele>649.821045</ele><time>2021-07-17T11:57:35Z</time><extensions><speed>0.802268</speed><course>285.895782</course><hAcc>0.890644</hAcc><vAcc>0.721370</vAcc></extensions></trkpt>
      <trkpt lon="-4.153153" lat="53.008473"><ele>649.903503</ele><time>2021-07-17T11:57:36Z</time><extensions><speed>0.784500</speed><course>287.327179</course><hAcc>0.890634</hAcc><vAcc>0.721354</vAcc></extensions></trkpt>
      <trkpt lon="-4.153160" lat="53.008478"><ele>649.980286</ele><time>2021-07-17T11:57:37Z</time><extensions><speed>0.768232</speed><course>297.396240</course><hAcc>0.890622</hAcc><vAcc>0.721346</vAcc></extensions></trkpt>
      <trkpt lon="-4.153168" lat="53.008483"><ele>650.052368</ele><time>2021-07-17T11:57:38Z</time><extensions><speed>0.752171</speed><course>299.473175</course><hAcc>0.890608</hAcc><vAcc>0.721343</vAcc></extensions></trkpt>
      <trkpt lon="-4.153175" lat="53.008488"><ele>650.121094</ele><time>2021-07-17T11:57:39Z</time><extensions><speed>0.734769</speed><course>297.683289</course><hAcc>0.890589</hAcc><vAcc>0.721347</vAcc></extensions></trkpt>
      <trkpt lon="-4.153182" lat="53.008493"><ele>650.187622</ele><time>2021-07-17T11:57:40Z</time><extensions><speed>0.714983</speed><course>292.365356</course><hAcc>0.890564</hAcc><vAcc>0.721355</vAcc></extensions></trkpt>
      <trkpt lon="-4.153188" lat="53.008498"><ele>650.251892</ele><time>2021-07-17T11:57:40Z</time><extensions><speed>0.692549</speed><course>291.092651</course><hAcc>0.890569</hAcc><vAcc>0.721386</vAcc></extensions></trkpt>
      <trkpt lon="-4.153195" lat="53.008503"><ele>650.313049</ele><time>2021-07-17T11:57:41Z</time><extensions><speed>0.667136</speed><course>297.007721</course><hAcc>0.890602</hAcc><vAcc>0.721436</vAcc></extensions></trkpt>
      <trkpt lon="-4.153200" lat="53.008508"><ele>650.369751</ele><time>2021-07-17T11:57:42Z</time><extensions><speed>0.639107</speed><course>291.539093</course><hAcc>0.890628</hAcc><vAcc>0.721474</vAcc></extensions></trkpt>
      <trkpt lon="-4.153205" lat="53.008513"><ele>650.421265</ele><time>2021-07-17T11:57:43Z</time><extensions><speed>0.609192</speed><course>293.314819</course><hAcc>0.890649</hAcc><vAcc>0.721499</vAcc></extensions></trkpt>
      <trkpt lon="-4.153209" lat="53.008517"><ele>650.466980</ele><time>2021-07-17T11:57:44Z</time><extensions><speed>0.578221</speed><course>297.043213</course><hAcc>0.890666</hAcc><vAcc>0.721513</vAcc></extensions></trkpt>
      <trkpt lon="-4.153213" lat="53.008522"><ele>650.506287</ele><time>2021-07-17T11:57:45Z</time><extensions><speed>0.547374</speed><course>301.573547</course><hAcc>0.890678</hAcc><vAcc>0.721521</vAcc></extensions></trkpt>
      <trkpt lon="-4.153216" lat="53.008526"><ele>650.538696</ele><time>2021-07-17T11:57:46Z</time><extensions><speed>0.517873</speed><course>305.542847</course><hAcc>0.890685</hAcc><vAcc>0.721526</vAcc></extensions></trkpt>
      <trkpt lon="-4.153218" lat="53.008531"><ele>650.563354</ele><time>2021-07-17T11:57:47Z</time><extensions><speed>0.490025</speed><course>304.461029</course><hAcc>0.890687</hAcc><vAcc>0.721529</vAcc></extensions></trkpt>
      <trkpt lon="-4.153220" lat="53.008535"><ele>650.579773</ele><time>2021-07-17T11:57:48Z</time><extensions><speed>0.463271</speed><course>304.519958</course><hAcc>0.890684</hAcc><vAcc>0.721527</vAcc></extensions></trkpt>
      <trkpt lon="-4.153221" lat="53.008539"><ele>650.587524</ele><time>2021-07-17T11:57:49Z</time><extensions><speed>0.436622</speed><course>306.835541</course><hAcc>0.890676</hAcc><vAcc>0.721516</vAcc></extensions></trkpt>
      <trkpt lon="-4.153222" lat="53.008543"><ele>650.586487</ele><time>2021-07-17T11:57:50Z</time><extensions><speed>0.409215</speed><course>312.924469</course><hAcc>0.890664</hAcc><vAcc>0.721491</vAcc></extensions></trkpt>
      <trkpt lon="-4.153223" lat="53.008546"><ele>650.576904</ele><time>2021-07-17T11:57:51Z</time><extensions><speed>0.380477</speed><course>313.121582</course><hAcc>0.890646</hAcc><vAcc>0.721447</vAcc></extensions></trkpt>
      <trkpt lon="-4.153223" lat="53.008549"><ele>650.559509</ele><time>2021-07-17T11:57:52Z</time><extensions><speed>0.350023</speed><course>312.363678</course><hAcc>0.890624</hAcc><vAcc>0.721379</vAcc></extensions></trkpt>
      <trkpt lon="-4.153222" lat="53.008552"><ele>650.535400</ele><time>2021-07-17T11:57:53Z</time><extensions><speed>0.317786</speed><course>309.905548</course><hAcc>0.890598</hAcc><vAcc>0.721287</vAcc></extensions></trkpt>
      <trkpt lon="-4.153222" lat="53.008555"><ele>650.506104</ele><time>2021-07-17T11:57:54Z</time><extensions><speed>0.283755</speed><course>308.597687</course><hAcc>0.890569</hAcc><vAcc>0.721174</vAcc></extensions></trkpt>
      <trkpt lon="-4.153222" lat="53.008558"><ele>650.473389</ele><time>2021-07-17T11:57:55Z</time><extensions><speed>0.248595</speed><course>307.103394</course><hAcc>0.890537</hAcc><vAcc>0.721045</vAcc></extensions></trkpt>
      <trkpt lon="-4.153221" lat="53.008560"><ele>650.438904</ele><time>2021-07-17T11:57:56Z</time><extensions><speed>0.213584</speed><course>306.897400</course><hAcc>0.890504</hAcc><vAcc>0.720908</vAcc></extensions></trkpt>
      <trkpt lon="-4.153221" lat="53.008561"><ele>650.403992</ele><time>2021-07-17T11:57:57Z</time><extensions><speed>0.179596</speed><course>302.152618</course><hAcc>0.890470</hAcc><vAcc>0.720771</vAcc></extensions></trkpt>
      <trkpt lon="-4.153221" lat="53.008563"><ele>650.369873</ele><time>2021-07-17T11:57:58Z</time><extensions><speed>0.147405</speed><course>297.726410</course><hAcc>0.890437</hAcc><vAcc>0.720642</vAcc></extensions></trkpt>
      <trkpt lon="-4.153220" lat="53.008564"><ele>650.337708</ele><time>2021-07-17T11:57:59Z</time><extensions><speed>0.117639</speed><course>300.194183</course><hAcc>0.890406</hAcc><vAcc>0.720527</vAcc></extensions></trkpt>
      <trkpt lon="-4.153220" lat="53.008565"><ele>650.308228</ele><time>2021-07-17T11:58:00Z</time><extensions><speed>0.090601</speed><course>297.151825</course><hAcc>0.890377</hAcc><vAcc>0.720430</vAcc></extensions></trkpt>
      <trkpt lon="-4.153220" lat="53.008566"><ele>650.282288</ele><time>2021-07-17T11:58:01Z</time><extensions><speed>0.066543</speed><course>298.399384</course><hAcc>0.890351</hAcc><vAcc>0.720351</vAcc></extensions></trkpt>
      <trkpt lon="-4.153220" lat="53.008566"><ele>650.260254</ele><time>2021-07-17T11:58:02Z</time><extensions><speed>0.046141</speed><course>300.837921</course><hAcc>0.890328</hAcc><vAcc>0.720290</vAcc></extensions></trkpt>
      <trkpt lon="-4.153220" lat="53.008566"><ele>650.242432</ele><time>2021-07-17T11:58:03Z</time><extensions><speed>0.032430</speed><course>299.844330</course><hAcc>0.890308</hAcc><vAcc>0.720240</vAcc></extensions></trkpt>
      <trkpt lon="-4.153221" lat="53.008567"><ele>650.228821</ele><time>2021-07-17T11:58:04Z</time><extensions><speed>0.031436</speed><course>300.001373</course><hAcc>0.890291</hAcc><vAcc>0.720196</vAcc></extensions></trkpt>
      <trkpt lon="-4.153221" lat="53.008567"><ele>650.219238</ele><time>2021-07-17T11:58:05Z</time><extensions><speed>0.042030</speed><course>294.568817</course><hAcc>0.890275</hAcc><vAcc>0.720155</vAcc></extensions></trkpt>
      <trkpt lon="-4.153222" lat="53.008567"><ele>650.213745</ele><time>2021-07-17T11:58:06Z</time><extensions><speed>0.057266</speed><course>300.687103</course><hAcc>0.890259</hAcc><vAcc>0.720113</vAcc></extensions></trkpt>
      <trkpt lon="-4.153223" lat="53.008566"><ele>650.212280</ele><time>2021-07-17T11:58:07Z</time><extensions><speed>0.073938</speed><course>297.691925</course><hAcc>0.890243</hAcc><vAcc>0.720063</vAcc></extensions></trkpt>
      <trkpt lon="-4.153224" lat="53.008566"><ele>650.215088</ele><time>2021-07-17T11:58:08Z</time><extensions><speed>0.091028</speed><course>293.928223</course><hAcc>0.890224</hAcc><vAcc>0.720002</vAcc></extensions></trkpt>
      <trkpt lon="-4.153226" lat="53.008566"><ele>650.222717</ele><time>2021-07-17T11:58:09Z</time><extensions><speed>0.107785</speed><course>297.041656</course><hAcc>0.890203</hAcc><vAcc>0.719922</vAcc></extensions></trkpt>
      <trkpt lon="-4.153227" lat="53.008566"><ele>650.235718</ele><time>2021-07-17T11:58:10Z</time><extensions><speed>0.123312</speed><course>298.722290</course><hAcc>0.890178</hAcc><vAcc>0.719820</vAcc></extensions></trkpt>
      <trkpt lon="-4.153229" lat="53.008565"><ele>650.254211</ele><time>2021-07-17T11:58:12Z</time><extensions><speed>0.136788</speed><course>296.674316</course><hAcc>0.890131</hAcc><vAcc>0.719682</vAcc></extensions></trkpt>
      <trkpt lon="-4.153231" lat="53.008565"><ele>650.277832</ele><time>2021-07-17T11:58:13Z</time><extensions><speed>0.147228</speed><course>301.147156</course><hAcc>0.890061</hAcc><vAcc>0.719507</vAcc></extensions></trkpt>
      <trkpt lon="-4.153233" lat="53.008564"><ele>650.305908</ele><time>2021-07-17T11:58:14Z</time><extensions><speed>0.153728</speed><course>301.618805</course><hAcc>0.889984</hAcc><vAcc>0.719303</vAcc></extensions></trkpt>
      <trkpt lon="-4.153235" lat="53.008564"><ele>650.337463</ele><time>2021-07-17T11:58:15Z</time><extensions><speed>0.156011</speed><course>300.678009</course><hAcc>0.889901</hAcc><vAcc>0.719068</vAcc></extensions></trkpt>
      <trkpt lon="-4.153238" lat="53.008564"><ele>650.371521</ele><time>2021-07-17T11:58:16Z</time><extensions><speed>0.154738</speed><course>306.078644</course><hAcc>0.889811</hAcc><vAcc>0.718797</vAcc></extensions></trkpt>
      <trkpt lon="-4.153240" lat="53.008563"><ele>650.407227</ele><time>2021-07-17T11:58:17Z</time><extensions><speed>0.151076</speed><course>302.099213</course><hAcc>0.889715</hAcc><vAcc>0.718492</vAcc></extensions></trkpt>
      <trkpt lon="-4.153242" lat="53.008563"><ele>650.444031</ele><time>2021-07-17T11:58:18Z</time><extensions><speed>0.146202</speed><course>298.253754</course><hAcc>0.889615</hAcc><vAcc>0.718157</vAcc></extensions></trkpt>
      <trkpt lon="-4.153244" lat="53.008562"><ele>650.481384</ele><time>2021-07-17T11:58:19Z</time><extensions><speed>0.141171</speed><course>299.772583</course><hAcc>0.889513</hAcc><vAcc>0.717800</vAcc></extensions></trkpt>
      <trkpt lon="-4.153246" lat="53.008562"><ele>650.518555</ele><time>2021-07-17T11:58:20Z</time><extensions><speed>0.136774</speed><course>299.946075</course><hAcc>0.889413</hAcc><vAcc>0.717430</vAcc></extensions></trkpt>
      <trkpt lon="-4.153248" lat="53.008561"><ele>650.555115</ele><time>2021-07-17T11:58:21Z</time><extensions><speed>0.133276</speed><course>303.968170</course><hAcc>0.889315</hAcc><vAcc>0.717065</vAcc></extensions></trkpt>
      <trkpt lon="-4.153249" lat="53.008561"><ele>650.590454</ele><time>2021-07-17T11:58:22Z</time><extensions><speed>0.130725</speed><course>302.223755</course><hAcc>0.889224</hAcc><vAcc>0.716721</vAcc></extensions></trkpt>
      <trkpt lon="-4.153251" lat="53.008560"><ele>650.624390</ele><time>2021-07-17T11:58:23Z</time><extensions><speed>0.129130</speed><course>303.590851</course><hAcc>0.889142</hAcc><vAcc>0.716419</vAcc></extensions></trkpt>
      <trkpt lon="-4.153253" lat="53.008560"><ele>650.656372</ele><time>2021-07-17T11:58:24Z</time><extensions><speed>0.128116</speed><course>302.656281</course><hAcc>0.889070</hAcc><vAcc>0.716172</vAcc></extensions></trkpt>
      <trkpt lon="-4.153254" lat="53.008559"><ele>650.685913</ele><time>2021-07-17T11:58:25Z</time><extensions><speed>0.126890</speed><course>307.857574</course><hAcc>0.889009</hAcc><vAcc>0.715988</vAcc></extensions></trkpt>
      <trkpt lon="-4.153256" lat="53.008559"><ele>650.712463</ele><time>2021-07-17T11:58:26Z</time><extensions><speed>0.124369</speed><course>306.241272</course><hAcc>0.888961</hAcc><vAcc>0.715860</vAcc></extensions></trkpt>
      <trkpt lon="-4.153258" lat="53.008558"><ele>650.735474</ele><time>2021-07-17T11:58:27Z</time><extensions><speed>0.119390</speed><course>302.560516</course><hAcc>0.888923</hAcc><vAcc>0.715779</vAcc></extensions></trkpt>
      <trkpt lon="-4.153259" lat="53.008558"><ele>650.754761</ele><time>2021-07-17T11:58:28Z</time><extensions><speed>0.111473</speed><course>304.207947</course><hAcc>0.888897</hAcc><vAcc>0.715732</vAcc></extensions></trkpt>
      <trkpt lon="-4.153260" lat="53.008557"><ele>650.770203</ele><time>2021-07-17T11:58:29Z</time><extensions><speed>0.101505</speed><course>304.678192</course><hAcc>0.888879</hAcc><vAcc>0.715707</vAcc></extensions></trkpt>
      <trkpt lon="-4.153262" lat="53.008556"><ele>650.781921</ele><time>2021-07-17T11:58:30Z</time><extensions><speed>0.091153</speed><course>300.816559</course><hAcc>0.888867</hAcc><vAcc>0.715695</vAcc></extensions></trkpt>
      <trkpt lon="-4.153262" lat="53.008556"><ele>650.790039</ele><time>2021-07-17T11:58:31Z</time><extensions><speed>0.082084</speed><course>302.457642</course><hAcc>0.888859</hAcc><vAcc>0.715691</vAcc></extensions></trkpt>
      <trkpt lon="-4.153263" lat="53.008555"><ele>650.794922</ele><time>2021-07-17T11:58:32Z</time><extensions><speed>0.075593</speed><course>303.405792</course><hAcc>0.888852</hAcc><vAcc>0.715691</vAcc></extensions></trkpt>
      <trkpt lon="-4.153264" lat="53.008555"><ele>650.796814</ele><time>2021-07-17T11:58:33Z</time><extensions><speed>0.072219</speed><course>305.179382</course><hAcc>0.888843</hAcc><vAcc>0.715689</vAcc></extensions></trkpt>
      <trkpt lon="-4.153264" lat="53.008554"><ele>650.795837</ele><time>2021-07-17T11:58:34Z</time><extensions><speed>0.071883</speed><course>301.811188</course><hAcc>0.888830</hAcc><vAcc>0.715675</vAcc></extensions></trkpt>
      <trkpt lon="-4.153264" lat="53.008553"><ele>650.792175</ele><time>2021-07-17T11:58:35Z</time><extensions><speed>0.073964</speed><course>294.111877</course><hAcc>0.888814</hAcc><vAcc>0.715639</vAcc></extensions></trkpt>
      <trkpt lon="-4.153264" lat="53.008553"><ele>650.785889</ele><time>2021-07-17T11:58:36Z</time><extensions><speed>0.077513</speed><course>291.186249</course><hAcc>0.888792</hAcc><vAcc>0.715576</vAcc></extensions></trkpt>
      <trkpt lon="-4.153264" lat="53.008552"><ele>650.777039</ele><time>2021-07-17T11:58:37Z</time><extensions><speed>0.081921</speed><course>291.833313</course><hAcc>0.888766</hAcc><vAcc>0.715484</vAcc></extensions></trkpt>
      <trkpt lon="-4.153263" lat="53.008551"><ele>650.765930</ele><time>2021-07-17T11:58:38Z</time><extensions><speed>0.086635</speed><course>293.198639</course><hAcc>0.888736</hAcc><vAcc>0.715365</vAcc></extensions></trkpt>
      <trkpt lon="-4.153263" lat="53.008550"><ele>650.752747</ele><time>2021-07-17T11:58:39Z</time><extensions><speed>0.090711</speed><course>297.953094</course><hAcc>0.888703</hAcc><vAcc>0.715229</vAcc></extensions></trkpt>
      <trkpt lon="-4.153263" lat="53.008550"><ele>650.737610</ele><time>2021-07-17T11:58:40Z</time><extensions><speed>0.093042</speed><course>294.998413</course><hAcc>0.888668</hAcc><vAcc>0.715088</vAcc></extensions></trkpt>
      <trkpt lon="-4.153262" lat="53.008549"><ele>650.720520</ele><time>2021-07-17T11:58:41Z</time><extensions><speed>0.092859</speed><course>290.333923</course><hAcc>0.888635</hAcc><vAcc>0.714953</vAcc></extensions></trkpt>
      <trkpt lon="-4.153262" lat="53.008548"><ele>650.701660</ele><time>2021-07-17T11:58:42Z</time><extensions><speed>0.090308</speed><course>297.336884</course><hAcc>0.888607</hAcc><vAcc>0.714833</vAcc></extensions></trkpt>
      <trkpt lon="-4.153261" lat="53.008547"><ele>650.681519</ele><time>2021-07-17T11:58:43Z</time><extensions><speed>0.085982</speed><course>291.763641</course><hAcc>0.888585</hAcc><vAcc>0.714732</vAcc></extensions></trkpt>
      <trkpt lon="-4.153260" lat="53.008547"><ele>650.661011</ele><time>2021-07-17T11:58:44Z</time><extensions><speed>0.080424</speed><course>293.588959</course><hAcc>0.888575</hAcc><vAcc>0.714662</vAcc></extensions></trkpt>
      <trkpt lon="-4.153260" lat="53.008546"><ele>650.641235</ele><time>2021-07-17T11:58:45Z</time><extensions><speed>0.074205</speed><course>298.534668</course><hAcc>0.888577</hAcc><vAcc>0.714634</vAcc></extensions></trkpt>
      <trkpt lon="-4.153259" lat="53.008546"><ele>650.623108</ele><time>2021-07-17T11:58:46Z</time><extensions><speed>0.067819</speed><course>294.834351</course><hAcc>0.888595</hAcc><vAcc>0.714661</vAcc></extensions></trkpt>
      <trkpt lon="-4.153259" lat="53.008545"><ele>650.607849</ele><time>2021-07-17T11:58:47Z</time><extensions><speed>0.061574</speed><course>297.698059</course><hAcc>0.888629</hAcc><vAcc>0.714755</vAcc></extensions></trkpt>
      <trkpt lon="-4.153259" lat="53.008545"><ele>650.596375</ele><time>2021-07-17T11:58:48Z</time><extensions><speed>0.055692</speed><course>298.511444</course><hAcc>0.888681</hAcc><vAcc>0.714924</vAcc></extensions></trkpt>
      <trkpt lon="-4.153258" lat="53.008544"><ele>650.589050</ele><time>2021-07-17T11:58:49Z</time><extensions><speed>0.050462</speed><course>303.054443</course><hAcc>0.888751</hAcc><vAcc>0.715167</vAcc></extensions></trkpt>
      <trkpt lon="-4.153258" lat="53.008544"><ele>650.585754</ele><time>2021-07-17T11:58:50Z</time><extensions><speed>0.046405</speed><course>300.594757</course><hAcc>0.888838</hAcc><vAcc>0.715475</vAcc></extensions></trkpt>
      <trkpt lon="-4.153258" lat="53.008543"><ele>650.585999</ele><time>2021-07-17T11:58:51Z</time><extensions><speed>0.044175</speed><course>303.489990</course><hAcc>0.888941</hAcc><vAcc>0.715833</vAcc></extensions></trkpt>
      <trkpt lon="-4.153258" lat="53.008543"><ele>650.589111</ele><time>2021-07-17T11:58:52Z</time><extensions><speed>0.044535</speed><course>307.296783</course><hAcc>0.889057</hAcc><vAcc>0.716228</vAcc></extensions></trkpt>
      <trkpt lon="-4.153257" lat="53.008543"><ele>650.594360</ele><time>2021-07-17T11:58:53Z</time><extensions><speed>0.048069</speed><course>306.846466</course><hAcc>0.889185</hAcc><vAcc>0.716654</vAcc></extensions></trkpt>
      <trkpt lon="-4.153257" lat="53.008542"><ele>650.600525</ele><time>2021-07-17T11:58:54Z</time><extensions><speed>0.055174</speed><course>314.303711</course><hAcc>0.889318</hAcc><vAcc>0.717107</vAcc></extensions></trkpt>
      <trkpt lon="-4.153257" lat="53.008542"><ele>650.606567</ele><time>2021-07-17T11:58:55Z</time><extensions><speed>0.066186</speed><course>316.753265</course><hAcc>0.889454</hAcc><vAcc>0.717581</vAcc></extensions></trkpt>
      <trkpt lon="-4.153258" lat="53.008541"><ele>650.611267</ele><time>2021-07-17T11:58:56Z</time><extensions><speed>0.081127</speed><course>312.101562</course><hAcc>0.889587</hAcc><vAcc>0.718064</vAcc></extensions></trkpt>
      <trkpt lon="-4.153258" lat="53.008540"><ele>650.613892</ele><time>2021-07-17T11:58:57Z</time><extensions><speed>0.099539</speed><course>310.983948</course><hAcc>0.889714</hAcc><vAcc>0.718532</vAcc></extensions></trkpt>
      <trkpt lon="-4.153258" lat="53.008539"><ele>650.613647</ele><time>2021-07-17T11:58:58Z</time><extensions><speed>0.120704</speed><course>316.824890</course><hAcc>0.889830</hAcc><vAcc>0.718966</vAcc></extensions></trkpt>
      <trkpt lon="-4.153259" lat="53.008538"><ele>650.609985</ele><time>2021-07-17T11:58:59Z</time><extensions><speed>0.143798</speed><course>324.005005</course><hAcc>0.889932</hAcc><vAcc>0.719344</vAcc></extensions></trkpt>
      <trkpt lon="-4.153259" lat="53.008537"><ele>650.602478</ele><time>2021-07-17T11:59:00Z</time><extensions><speed>0.167851</speed><course>322.091736</course><hAcc>0.890018</hAcc><vAcc>0.719651</vAcc></extensions></trkpt>
      <trkpt lon="-4.153260" lat="53.008535"><ele>650.590820</ele><time>2021-07-17T11:59:01Z</time><extensions><speed>0.191685</speed><course>322.830170</course><hAcc>0.890085</hAcc><vAcc>0.719877</vAcc></extensions></trkpt>
      <trkpt lon="-4.153261" lat="53.008533"><ele>650.574707</ele><time>2021-07-17T11:59:02Z</time><extensions><speed>0.213876</speed><course>325.823517</course><hAcc>0.890134</hAcc><vAcc>0.720017</vAcc></extensions></trkpt>
      <trkpt lon="-4.153263" lat="53.008532"><ele>650.553955</ele><time>2021-07-17T11:59:03Z</time><extensions><speed>0.232699</speed><course>331.853210</course><hAcc>0.890162</hAcc><vAcc>0.720075</vAcc></extensions></trkpt>
      <trkpt lon="-4.153264" lat="53.008530"><ele>650.528442</ele><time>2021-07-17T11:59:04Z</time><extensions><speed>0.246096</speed><course>331.260956</course><hAcc>0.890173</hAcc><vAcc>0.720060</vAcc></extensions></trkpt>
      <trkpt lon="-4.153265" lat="53.008528"><ele>650.498108</ele><time>2021-07-17T11:59:05Z</time><extensions><speed>0.253429</speed><course>329.072571</course><hAcc>0.890167</hAcc><vAcc>0.719986</vAcc></extensions></trkpt>
      <trkpt lon="-4.153267" lat="53.008525"><ele>650.463501</ele><time>2021-07-17T11:59:06Z</time><extensions><speed>0.255663</speed><course>325.473938</course><hAcc>0.890147</hAcc><vAcc>0.719870</vAcc></extensions></trkpt>
      <trkpt lon="-4.153268" lat="53.008523"><ele>650.425232</ele><time>2021-07-17T11:59:07Z</time><extensions><speed>0.253767</speed><course>325.383026</course><hAcc>0.890116</hAcc><vAcc>0.719727</vAcc></extensions></trkpt>
      <trkpt lon="-4.153270" lat="53.008521"><ele>650.384399</ele><time>2021-07-17T11:59:08Z</time><extensions><speed>0.248749</speed><course>325.061401</course><hAcc>0.890078</hAcc><vAcc>0.719568</vAcc></extensions></trkpt>
      <trkpt lon="-4.153272" lat="53.008519"><ele>650.341919</ele><time>2021-07-17T11:59:09Z</time><extensions><speed>0.241705</speed><course>325.207275</course><hAcc>0.890037</hAcc><vAcc>0.719403</vAcc></extensions></trkpt>
      <trkpt lon="-4.153274" lat="53.008518"><ele>650.298889</ele><time>2021-07-17T11:59:10Z</time><extensions><speed>0.233867</speed><course>322.410889</course><hAcc>0.889997</hAcc><vAcc>0.719240</vAcc></extensions></trkpt>
      <trkpt lon="-4.153276" lat="53.008516"><ele>650.256104</ele><time>2021-07-17T11:59:11Z</time><extensions><speed>0.226519</speed><course>319.218658</course><hAcc>0.889960</hAcc><vAcc>0.719090</vAcc></extensions></trkpt>
      <trkpt lon="-4.153278" lat="53.008514"><ele>650.214355</ele><time>2021-07-17T11:59:12Z</time><extensions><speed>0.220817</speed><course>319.790588</course><hAcc>0.889930</hAcc><vAcc>0.718967</vAcc></extensions></trkpt>
      <trkpt lon="-4.153280" lat="53.008513"><ele>650.174377</ele><time>2021-07-17T11:59:13Z</time><extensions><speed>0.217429</speed><course>318.972229</course><hAcc>0.889907</hAcc><vAcc>0.718879</vAcc></extensions></trkpt>
      <trkpt lon="-4.153283" lat="53.008512"><ele>650.136841</ele><time>2021-07-17T11:59:14Z</time><extensions><speed>0.216358</speed><course>320.354065</course><hAcc>0.889893</hAcc><vAcc>0.718831</vAcc></extensions></trkpt>
      <trkpt lon="-4.153285" lat="53.008511"><ele>650.102173</ele><time>2021-07-17T11:59:15Z</time><extensions><speed>0.216807</speed><course>320.541016</course><hAcc>0.889886</hAcc><vAcc>0.718824</vAcc></extensions></trkpt>
      <trkpt lon="-4.153288" lat="53.008510"><ele>650.070801</ele><time>2021-07-17T11:59:16Z</time><extensions><speed>0.217617</speed><course>317.906189</course><hAcc>0.889888</hAcc><vAcc>0.718852</vAcc></extensions></trkpt>
      <trkpt lon="-4.153291" lat="53.008509"><ele>650.042908</ele><time>2021-07-17T11:59:17Z</time><extensions><speed>0.218083</speed><course>316.077393</course><hAcc>0.889895</hAcc><vAcc>0.718909</vAcc></extensions></trkpt>
      <trkpt lon="-4.153294" lat="53.008509"><ele>650.018494</ele><time>2021-07-17T11:59:18Z</time><extensions><speed>0.217971</speed><course>307.356537</course><hAcc>0.889906</hAcc><vAcc>0.718986</vAcc></extensions></trkpt>
      <trkpt lon="-4.153298" lat="53.008508"><ele>649.997620</ele><time>2021-07-17T11:59:19Z</time><extensions><speed>0.217301</speed><course>302.004150</course><hAcc>0.889919</hAcc><vAcc>0.719070</vAcc></extensions></trkpt>
      <trkpt lon="-4.153301" lat="53.008508"><ele>649.980225</ele><time>2021-07-17T11:59:20Z</time><extensions><speed>0.216360</speed><course>310.520874</course><hAcc>0.889931</hAcc><vAcc>0.719149</vAcc></extensions></trkpt>
      <trkpt lon="-4.153304" lat="53.008508"><ele>649.966309</ele><time>2021-07-17T11:59:21Z</time><extensions><speed>0.215211</speed><course>307.778412</course><hAcc>0.889940</hAcc><vAcc>0.719210</vAcc></extensions></trkpt>
      <trkpt lon="-4.153307" lat="53.008509"><ele>649.955994</ele><time>2021-07-17T11:59:22Z</time><extensions><speed>0.213430</speed><course>310.132080</course><hAcc>0.889944</hAcc><vAcc>0.719242</vAcc></extensions></trkpt>
      <trkpt lon="-4.153310" lat="53.008509"><ele>649.949768</ele><time>2021-07-17T11:59:23Z</time><extensions><speed>0.210190</speed><course>310.327301</course><hAcc>0.889940</hAcc><vAcc>0.719238</vAcc></extensions></trkpt>
      <trkpt lon="-4.153313" lat="53.008509"><ele>649.948181</ele><time>2021-07-17T11:59:24Z</time><extensions><speed>0.204492</speed><course>308.925873</course><hAcc>0.889927</hAcc><vAcc>0.719193</vAcc></extensions></trkpt>
      <trkpt lon="-4.153316" lat="53.008510"><ele>649.952026</ele><time>2021-07-17T11:59:25Z</time><extensions><speed>0.195373</speed><course>308.955322</course><hAcc>0.889904</hAcc><vAcc>0.719107</vAcc></extensions></trkpt>
      <trkpt lon="-4.153319" lat="53.008511"><ele>649.961426</ele><time>2021-07-17T11:59:26Z</time><extensions><speed>0.182136</speed><course>303.152588</course><hAcc>0.889872</hAcc><vAcc>0.718979</vAcc></extensions></trkpt>
      <trkpt lon="-4.153321" lat="53.008511"><ele>649.976196</ele><time>2021-07-17T11:59:27Z</time><extensions><speed>0.164651</speed><course>313.156525</course><hAcc>0.889829</hAcc><vAcc>0.718816</vAcc></extensions></trkpt>
      <trkpt lon="-4.153323" lat="53.008512"><ele>649.996155</ele><time>2021-07-17T11:59:28Z</time><extensions><speed>0.144016</speed><course>307.864197</course><hAcc>0.889777</hAcc><vAcc>0.718619</vAcc></extensions></trkpt>
      <trkpt lon="-4.153324" lat="53.008513"><ele>650.020752</ele><time>2021-07-17T11:59:29Z</time><extensions><speed>0.122263</speed><course>309.541687</course><hAcc>0.889717</hAcc><vAcc>0.718392</vAcc></extensions></trkpt>
      <trkpt lon="-4.153326" lat="53.008514"><ele>650.049072</ele><time>2021-07-17T11:59:30Z</time><extensions><speed>0.101498</speed><course>312.130341</course><hAcc>0.889652</hAcc><vAcc>0.718140</vAcc></extensions></trkpt>
      <trkpt lon="-4.153326" lat="53.008514"><ele>650.080322</ele><time>2021-07-17T11:59:31Z</time><extensions><speed>0.083480</speed><course>310.268982</course><hAcc>0.889565</hAcc><vAcc>0.717854</vAcc></extensions></trkpt>
      <trkpt lon="-4.153327" lat="53.008515"><ele>650.113342</ele><time>2021-07-17T11:59:32Z</time><extensions><speed>0.069519</speed><course>308.247070</course><hAcc>0.889457</hAcc><vAcc>0.717541</vAcc></extensions></trkpt>
      <trkpt lon="-4.153327" lat="53.008516"><ele>650.147156</ele><time>2021-07-17T11:59:33Z</time><extensions><speed>0.060105</speed><course>304.229858</course><hAcc>0.889349</hAcc><vAcc>0.717216</vAcc></extensions></trkpt>
      <trkpt lon="-4.153327" lat="53.008516"><ele>650.180725</ele><time>2021-07-17T11:59:34Z</time><extensions><speed>0.054560</speed><course>308.310059</course><hAcc>0.889240</hAcc><vAcc>0.716883</vAcc></extensions></trkpt>
      <trkpt lon="-4.153326" lat="53.008516"><ele>650.212830</ele><time>2021-07-17T11:59:35Z</time><extensions><speed>0.051076</speed><course>311.142822</course><hAcc>0.889134</hAcc><vAcc>0.716543</vAcc></extensions></trkpt>
      <trkpt lon="-4.153326" lat="53.008517"><ele>650.242188</ele><time>2021-07-17T11:59:36Z</time><extensions><speed>0.047520</speed><course>305.518036</course><hAcc>0.889033</hAcc><vAcc>0.716206</vAcc></extensions></trkpt>
      <trkpt lon="-4.153326" lat="53.008517"><ele>650.267639</ele><time>2021-07-17T11:59:37Z</time><extensions><speed>0.041874</speed><course>303.061462</course><hAcc>0.888940</hAcc><vAcc>0.715881</vAcc></extensions></trkpt>
      <trkpt lon="-4.153325" lat="53.008517"><ele>650.287720</ele><time>2021-07-17T11:59:38Z</time><extensions><speed>0.032569</speed><course>298.232086</course><hAcc>0.888856</hAcc><vAcc>0.715583</vAcc></extensions></trkpt>
      <trkpt lon="-4.153325" lat="53.008517"><ele>650.301086</ele><time>2021-07-17T11:59:39Z</time><extensions><speed>0.018584</speed><course>289.358276</course><hAcc>0.888786</hAcc><vAcc>0.715325</vAcc></extensions></trkpt>
      <trkpt lon="-4.153325" lat="53.008517"><ele>650.306519</ele><time>2021-07-17T11:59:40Z</time><extensions><speed>0.003635</speed><course>285.924469</course><hAcc>0.888732</hAcc><vAcc>0.715121</vAcc></extensions></trkpt>
      <trkpt lon="-4.153325" lat="53.008517"><ele>650.302917</ele><time>2021-07-17T11:59:41Z</time><extensions><speed>0.025955</speed><course>280.520447</course><hAcc>0.888695</hAcc><vAcc>0.714984</vAcc></extensions></trkpt>
      <trkpt lon="-4.153325" lat="53.008517"><ele>650.289307</ele><time>2021-07-17T11:59:42Z</time><extensions><speed>0.055587</speed><course>286.862061</course><hAcc>0.888677</hAcc><vAcc>0.714925</vAcc></extensions></trkpt>
      <trkpt lon="-4.153326" lat="53.008517"><ele>650.264771</ele><time>2021-07-17T11:59:43Z</time><extensions><speed>0.090199</speed><course>295.700317</course><hAcc>0.888678</hAcc><vAcc>0.714951</vAcc></extensions></trkpt>
      <trkpt lon="-4.153328" lat="53.008516"><ele>650.228699</ele><time>2021-07-17T11:59:44Z</time><extensions><speed>0.129402</speed><course>296.161560</course><hAcc>0.888696</hAcc><vAcc>0.715068</vAcc></extensions></trkpt>
      <trkpt lon="-4.153330" lat="53.008516"><ele>650.180969</ele><time>2021-07-17T11:59:45Z</time><extensions><speed>0.172486</speed><course>298.229218</course><hAcc>0.888728</hAcc><vAcc>0.715269</vAcc></extensions></trkpt>
      <trkpt lon="-4.153333" lat="53.008515"><ele>650.122009</ele><time>2021-07-17T11:59:46Z</time><extensions><speed>0.218224</speed><course>297.545471</course><hAcc>0.888770</hAcc><vAcc>0.715538</vAcc></extensions></trkpt>
      <trkpt lon="-4.153336" lat="53.008515"><ele>650.053040</ele><time>2021-07-17T11:59:46Z</time><extensions><speed>0.264734</speed><course>292.454163</course><hAcc>0.888854</hAcc><vAcc>0.715875</vAcc></extensions></trkpt>
      <trkpt lon="-4.153340" lat="53.008514"><ele>649.974915</ele><time>2021-07-17T11:59:47Z</time><extensions><speed>0.310791</speed><course>287.195465</course><hAcc>0.888977</hAcc><vAcc>0.716256</vAcc></extensions></trkpt>
      <trkpt lon="-4.153345" lat="53.008513"><ele>649.889160</ele><time>2021-07-17T11:59:48Z</time><extensions><speed>0.355065</speed><course>283.339600</course><hAcc>0.889099</hAcc><vAcc>0.716637</vAcc></extensions></trkpt>
      <trkpt lon="-4.153350" lat="53.008512"><ele>649.796997</ele><time>2021-07-17T11:59:49Z</time><extensions><speed>0.396700</speed><course>283.687531</course><hAcc>0.889218</hAcc><vAcc>0.717007</vAcc></extensions></trkpt>
      <trkpt lon="-4.153356" lat="53.008511"><ele>649.699463</ele><time>2021-07-17T11:59:50Z</time><extensions><speed>0.435075</speed><course>284.089417</course><hAcc>0.889330</hAcc><vAcc>0.717360</vAcc></extensions></trkpt>
      <trkpt lon="-4.153363" lat="53.008510"><ele>649.597778</ele><time>2021-07-17T11:59:51Z</time><extensions><speed>0.469561</speed><course>286.432800</course><hAcc>0.889433</hAcc><vAcc>0.717687</vAcc></extensions></trkpt>
      <trkpt lon="-4.153370" lat="53.008509"><ele>649.493103</ele><time>2021-07-17T11:59:52Z</time><extensions><speed>0.499365</speed><course>288.844025</course><hAcc>0.889525</hAcc><vAcc>0.717982</vAcc></extensions></trkpt>
      <trkpt lon="-4.153377" lat="53.008509"><ele>649.386963</ele><time>2021-07-17T11:59:53Z</time><extensions><speed>0.523822</speed><course>294.600861</course><hAcc>0.889605</hAcc><vAcc>0.718238</vAcc></extensions></trkpt>
      <trkpt lon="-4.153385" lat="53.008508"><ele>649.280945</ele><time>2021-07-17T11:59:54Z</time><extensions><speed>0.542471</speed><course>289.399475</course><hAcc>0.889671</hAcc><vAcc>0.718448</vAcc></extensions></trkpt>
      <trkpt lon="-4.153394" lat="53.008508"><ele>649.176758</ele><time>2021-07-17T11:59:55Z</time><extensions><speed>0.555317</speed><course>292.462738</course><hAcc>0.889724</hAcc><vAcc>0.718612</vAcc></extensions></trkpt>
      <trkpt lon="-4.153402" lat="53.008509"><ele>649.076294</ele><time>2021-07-17T11:59:56Z</time><extensions><speed>0.562831</speed><course>292.044128</course><hAcc>0.889765</hAcc><vAcc>0.718728</vAcc></extensions></trkpt>
      <trkpt lon="-4.153410" lat="53.008509"><ele>648.981750</ele><time>2021-07-17T11:59:57Z</time><extensions><speed>0.565886</speed><course>289.426849</course><hAcc>0.889796</hAcc><vAcc>0.718799</vAcc></extensions></trkpt>
      <trkpt lon="-4.153418" lat="53.008510"><ele>648.895142</ele><time>2021-07-17T11:59:58Z</time><extensions><speed>0.565949</speed><course>292.821838</course><hAcc>0.889820</hAcc><vAcc>0.718831</vAcc></extensions></trkpt>
      <trkpt lon="-4.153426" lat="53.008512"><ele>648.818298</ele><time>2021-07-17T11:59:59Z</time><extensions><speed>0.564800</speed><course>287.405121</course><hAcc>0.889838</hAcc><vAcc>0.718836</vAcc></extensions></trkpt>
      <trkpt lon="-4.153434" lat="53.008514"><ele>648.752380</ele><time>2021-07-17T12:00:00Z</time><extensions><speed>0.564203</speed><course>289.328461</course><hAcc>0.889855</hAcc><vAcc>0.718828</vAcc></extensions></trkpt>
      <trkpt lon="-4.153442" lat="53.008516"><ele>648.698059</ele><time>2021-07-17T12:00:01Z</time><extensions><speed>0.565207</speed><course>290.686554</course><hAcc>0.889872</hAcc><vAcc>0.718825</vAcc></extensions></trkpt>
      <trkpt lon="-4.153448" lat="53.008519"><ele>648.655884</ele><time>2021-07-17T12:00:02Z</time><extensions><speed>0.567888</speed><course>291.519623</course><hAcc>0.889892</hAcc><vAcc>0.718843</vAcc></extensions></trkpt>
      <trkpt lon="-4.153455" lat="53.008523"><ele>648.626221</ele><time>2021-07-17T12:00:03Z</time><extensions><speed>0.571758</speed><course>289.260345</course><hAcc>0.889919</hAcc><vAcc>0.718896</vAcc></extensions></trkpt>
      <trkpt lon="-4.153460" lat="53.008526"><ele>648.609009</ele><time>2021-07-17T12:00:04Z</time><extensions><speed>0.575722</speed><course>291.671295</course><hAcc>0.889952</hAcc><vAcc>0.718991</vAcc></extensions></trkpt>
      <trkpt lon="-4.153465" lat="53.008531"><ele>648.603821</ele><time>2021-07-17T12:00:05Z</time><extensions><speed>0.578348</speed><course>285.797272</course><hAcc>0.889992</hAcc><vAcc>0.719130</vAcc></extensions></trkpt>
      <trkpt lon="-4.153469" lat="53.008535"><ele>648.609924</ele><time>2021-07-17T12:00:06Z</time><extensions><speed>0.578501</speed><course>284.045776</course><hAcc>0.890040</hAcc><vAcc>0.719311</vAcc></extensions></trkpt>
      <trkpt lon="-4.153473" lat="53.008540"><ele>648.625916</ele><time>2021-07-17T12:00:07Z</time><extensions><speed>0.575562</speed><course>290.744446</course><hAcc>0.890094</hAcc><vAcc>0.719526</vAcc></extensions></trkpt>
      <trkpt lon="-4.153476" lat="53.008545"><ele>648.649963</ele><time>2021-07-17T12:00:08Z</time><extensions><speed>0.569210</speed><course>286.155334</course><hAcc>0.890152</hAcc><vAcc>0.719761</vAcc></extensions></trkpt>
      <trkpt lon="-4.153478" lat="53.008550"><ele>648.680237</ele><time>2021-07-17T12:00:09Z</time><extensions><speed>0.559207</speed><course>292.078705</course><hAcc>0.890212</hAcc><vAcc>0.720005</vAcc></extensions></trkpt>
      <trkpt lon="-4.153480" lat="53.008554"><ele>648.714905</ele><time>2021-07-17T12:00:10Z</time><extensions><speed>0.545474</speed><course>292.906311</course><hAcc>0.890271</hAcc><vAcc>0.720242</vAcc></extensions></trkpt>
      <trkpt lon="-4.153482" lat="53.008559"><ele>648.752441</ele><time>2021-07-17T12:00:11Z</time><extensions><speed>0.528304</speed><course>291.462067</course><hAcc>0.890327</hAcc><vAcc>0.720458</vAcc></extensions></trkpt>
      <trkpt lon="-4.153483" lat="53.008564"><ele>648.791443</ele><time>2021-07-17T12:00:12Z</time><extensions><speed>0.508341</speed><course>290.448425</course><hAcc>0.890377</hAcc><vAcc>0.720643</vAcc></extensions></trkpt>
      <trkpt lon="-4.153483" lat="53.008568"><ele>648.830444</ele><time>2021-07-17T12:00:13Z</time><extensions><speed>0.486310</speed><course>295.857269</course><hAcc>0.890419</hAcc><vAcc>0.720793</vAcc></extensions></trkpt>
      <trkpt lon="-4.153484" lat="53.008572"><ele>648.867981</ele><time>2021-07-17T12:00:14Z</time><extensions><speed>0.462901</speed><course>298.185364</course><hAcc>0.890454</hAcc><vAcc>0.720903</vAcc></extensions></trkpt>
      <trkpt lon="-4.153484" lat="53.008576"><ele>648.902832</ele><time>2021-07-17T12:00:15Z</time><extensions><speed>0.438704</speed><course>294.469940</course><hAcc>0.890482</hAcc><vAcc>0.720973</vAcc></extensions></trkpt>
      <trkpt lon="-4.153485" lat="53.008580"><ele>648.934082</ele><time>2021-07-17T12:00:16Z</time><extensions><speed>0.414167</speed><course>292.898438</course><hAcc>0.890504</hAcc><vAcc>0.721008</vAcc></extensions></trkpt>
      <trkpt lon="-4.153485" lat="53.008584"><ele>648.961182</ele><time>2021-07-17T12:00:17Z</time><extensions><speed>0.389494</speed><course>292.422791</course><hAcc>0.890523</hAcc><vAcc>0.721019</vAcc></extensions></trkpt>
      <trkpt lon="-4.153486" lat="53.008587"><ele>648.983765</ele><time>2021-07-17T12:00:18Z</time><extensions><speed>0.364708</speed><course>292.622986</course><hAcc>0.890543</hAcc><vAcc>0.721020</vAcc></extensions></trkpt>
      <trkpt lon="-4.153486" lat="53.008590"><ele>649.001648</ele><time>2021-07-17T12:00:19Z</time><extensions><speed>0.339887</speed><course>292.749084</course><hAcc>0.890567</hAcc><vAcc>0.721027</vAcc></extensions></trkpt>
      <trkpt lon="-4.153487" lat="53.008593"><ele>649.014771</ele><time>2021-07-17T12:00:20Z</time><extensions><speed>0.315239</speed><course>294.832458</course><hAcc>0.890601</hAcc><vAcc>0.721060</vAcc></extensions></trkpt>
      <trkpt lon="-4.153487" lat="53.008596"><ele>649.022949</ele><time>2021-07-17T12:00:21Z</time><extensions><speed>0.291094</speed><course>290.563019</course><hAcc>0.890647</hAcc><vAcc>0.721139</vAcc></extensions></trkpt>
      <trkpt lon="-4.153488" lat="53.008599"><ele>649.025879</ele><time>2021-07-17T12:00:22Z</time><extensions><speed>0.267809</speed><course>288.082062</course><hAcc>0.890711</hAcc><vAcc>0.721282</vAcc></extensions></trkpt>
      <trkpt lon="-4.153489" lat="53.008601"><ele>649.022949</ele><time>2021-07-17T12:00:23Z</time><extensions><speed>0.245727</speed><course>289.238037</course><hAcc>0.890795</hAcc><vAcc>0.721509</vAcc></extensions></trkpt>
      <trkpt lon="-4.153489" lat="53.008603"><ele>649.013489</ele><time>2021-07-17T12:00:24Z</time><extensions><speed>0.225117</speed><course>289.037109</course><hAcc>0.890901</hAcc><vAcc>0.721831</vAcc></extensions></trkpt>
      <trkpt lon="-4.153490" lat="53.008605"><ele>648.996704</ele><time>2021-07-17T12:00:25Z</time><extensions><speed>0.206195</speed><course>291.884949</course><hAcc>0.891029</hAcc><vAcc>0.722257</vAcc></extensions></trkpt>
      <trkpt lon="-4.153491" lat="53.008606"><ele>648.971802</ele><time>2021-07-17T12:00:26Z</time><extensions><speed>0.189380</speed><course>287.567657</course><hAcc>0.891179</hAcc><vAcc>0.722783</vAcc></extensions></trkpt>
      <trkpt lon="-4.153492" lat="53.008608"><ele>648.937866</ele><time>2021-07-17T12:00:27Z</time><extensions><speed>0.175584</speed><course>291.768890</course><hAcc>0.891350</hAcc><vAcc>0.723396</vAcc></extensions></trkpt>
      <trkpt lon="-4.153493" lat="53.008609"><ele>648.893738</ele><time>2021-07-17T12:00:28Z</time><extensions><speed>0.165978</speed><course>296.126740</course><hAcc>0.891539</hAcc><vAcc>0.724076</vAcc></extensions></trkpt>
      <trkpt lon="-4.153495" lat="53.008611"><ele>648.838440</ele><time>2021-07-17T12:00:29Z</time><extensions><speed>0.161607</speed><course>297.059143</course><hAcc>0.891743</hAcc><vAcc>0.724800</vAcc></extensions></trkpt>
      <trkpt lon="-4.153496" lat="53.008612"><ele>648.771057</ele><time>2021-07-17T12:00:30Z</time><extensions><speed>0.163323</speed><course>303.696320</course><hAcc>0.891959</hAcc><vAcc>0.725549</vAcc></extensions></trkpt>
      <trkpt lon="-4.153498" lat="53.008613"><ele>648.690735</ele><time>2021-07-17T12:00:31Z</time><extensions><speed>0.171522</speed><course>307.460022</course><hAcc>0.892180</hAcc><vAcc>0.726303</vAcc></extensions></trkpt>
      <trkpt lon="-4.153500" lat="53.008614"><ele>648.597351</ele><time>2021-07-17T12:00:32Z</time><extensions><speed>0.185774</speed><course>302.094666</course><hAcc>0.892403</hAcc><vAcc>0.727052</vAcc></extensions></trkpt>
      <trkpt lon="-4.153502" lat="53.008615"><ele>648.490845</ele><time>2021-07-17T12:00:33Z</time><extensions><speed>0.205146</speed><course>294.763123</course><hAcc>0.892622</hAcc><vAcc>0.727783</vAcc></extensions></trkpt>
      <trkpt lon="-4.153505" lat="53.008616"><ele>648.371887</ele><time>2021-07-17T12:00:34Z</time><extensions><speed>0.228600</speed><course>292.310913</course><hAcc>0.892833</hAcc><vAcc>0.728485</vAcc></extensions></trkpt>
      <trkpt lon="-4.153509" lat="53.008616"><ele>648.241638</ele><time>2021-07-17T12:00:35Z</time><extensions><speed>0.254845</speed><course>286.252472</course><hAcc>0.893031</hAcc><vAcc>0.729145</vAcc></extensions></trkpt>
      <trkpt lon="-4.153512" lat="53.008617"><ele>648.101990</ele><time>2021-07-17T12:00:36Z</time><extensions><speed>0.282406</speed><course>277.085999</course><hAcc>0.893215</hAcc><vAcc>0.729749</vAcc></extensions></trkpt>
      <trkpt lon="-4.153517" lat="53.008618"><ele>647.955688</ele><time>2021-07-17T12:00:37Z</time><extensions><speed>0.309688</speed><course>269.880463</course><hAcc>0.893382</hAcc><vAcc>0.730284</vAcc></extensions></trkpt>
      <trkpt lon="-4.153521" lat="53.008618"><ele>647.805542</ele><time>2021-07-17T12:00:38Z</time><extensions><speed>0.335148</speed><course>256.014618</course><hAcc>0.893529</hAcc><vAcc>0.730742</vAcc></extensions></trkpt>
      <trkpt lon="-4.153527" lat="53.008619"><ele>647.654053</ele><time>2021-07-17T12:00:40Z</time><extensions><speed>0.357450</speed><course>250.524368</course><hAcc>0.893634</hAcc><vAcc>0.731105</vAcc></extensions></trkpt>
      <trkpt lon="-4.153532" lat="53.008619"><ele>647.503845</ele><time>2021-07-17T12:00:41Z</time><extensions><speed>0.375181</speed><course>237.491638</course><hAcc>0.893693</hAcc><vAcc>0.731367</vAcc></extensions></trkpt>
      <trkpt lon="-4.153538" lat="53.008619"><ele>647.356873</ele><time>2021-07-17T12:00:42Z</time><extensions><speed>0.386996</speed><course>231.976761</course><hAcc>0.893721</hAcc><vAcc>0.731532</vAcc></extensions></trkpt>
      <trkpt lon="-4.153543" lat="53.008619"><ele>647.214783</ele><time>2021-07-17T12:00:43Z</time><extensions><speed>0.391890</speed><course>228.504318</course><hAcc>0.893713</hAcc><vAcc>0.731591</vAcc></extensions></trkpt>
      <trkpt lon="-4.153549" lat="53.008619"><ele>647.078857</ele><time>2021-07-17T12:00:44Z</time><extensions><speed>0.389402</speed><course>227.577087</course><hAcc>0.893665</hAcc><vAcc>0.731530</vAcc></extensions></trkpt>
      <trkpt lon="-4.153555" lat="53.008619"><ele>646.949951</ele><time>2021-07-17T12:00:45Z</time><extensions><speed>0.379630</speed><course>219.513672</course><hAcc>0.893576</hAcc><vAcc>0.731332</vAcc></extensions></trkpt>
      <trkpt lon="-4.153561" lat="53.008619"><ele>646.828735</ele><time>2021-07-17T12:00:46Z</time><extensions><speed>0.363274</speed><course>224.903015</course><hAcc>0.893443</hAcc><vAcc>0.730980</vAcc></extensions></trkpt>
      <trkpt lon="-4.153566" lat="53.008619"><ele>646.716064</ele><time>2021-07-17T12:00:47Z</time><extensions><speed>0.341230</speed><course>222.390198</course><hAcc>0.893265</hAcc><vAcc>0.730458</vAcc></extensions></trkpt>
      <trkpt lon="-4.153571" lat="53.008618"><ele>646.612854</ele><time>2021-07-17T12:00:48Z</time><extensions><speed>0.314778</speed><course>223.313202</course><hAcc>0.893039</hAcc><vAcc>0.729752</vAcc></extensions></trkpt>
      <trkpt lon="-4.153575" lat="53.008618"><ele>646.520020</ele><time>2021-07-17T12:00:49Z</time><extensions><speed>0.285638</speed><course>224.045700</course><hAcc>0.892764</hAcc><vAcc>0.728850</vAcc></extensions></trkpt>
      <trkpt lon="-4.153579" lat="53.008617"><ele>646.438782</ele><time>2021-07-17T12:00:50Z</time><extensions><speed>0.255515</speed><course>224.975723</course><hAcc>0.892434</hAcc><vAcc>0.727748</vAcc></extensions></trkpt>
      <trkpt lon="-4.153582" lat="53.008616"><ele>646.369995</ele><time>2021-07-17T12:00:51Z</time><extensions><speed>0.226068</speed><course>226.513992</course><hAcc>0.892040</hAcc><vAcc>0.726450</vAcc></extensions></trkpt>
      <trkpt lon="-4.153585" lat="53.008616"><ele>646.314270</ele><time>2021-07-17T12:00:52Z</time><extensions><speed>0.198625</speed><course>227.291473</course><hAcc>0.891568</hAcc><vAcc>0.724961</vAcc></extensions></trkpt>
      <trkpt lon="-4.153588" lat="53.008615"><ele>646.272156</ele><time>2021-07-17T12:00:53Z</time><extensions><speed>0.174011</speed><course>231.833313</course><hAcc>0.891004</hAcc><vAcc>0.723276</vAcc></extensions></trkpt>
      <trkpt lon="-4.153590" lat="53.008614"><ele>646.243896</ele><time>2021-07-17T12:00:54Z</time><extensions><speed>0.152761</speed><course>230.421005</course><hAcc>0.890328</hAcc><vAcc>0.721362</vAcc></extensions></trkpt>
      <trkpt lon="-4.153592" lat="53.008613"><ele>646.229675</ele><time>2021-07-17T12:00:55Z</time><extensions><speed>0.134845</speed><course>235.980087</course><hAcc>0.889523</hAcc><vAcc>0.719154</vAcc></extensions></trkpt>
      <trkpt lon="-4.153593" lat="53.008613"><ele>646.229614</ele><time>2021-07-17T12:00:56Z</time><extensions><speed>0.119712</speed><course>243.213364</course><hAcc>0.888571</hAcc><vAcc>0.716569</vAcc></extensions></trkpt>
      <trkpt lon="-4.153594" lat="53.008612"><ele>646.243530</ele><time>2021-07-17T12:00:57Z</time><extensions><speed>0.106629</speed><course>253.165268</course><hAcc>0.887458</hAcc><vAcc>0.713515</vAcc></extensions></trkpt>
      <trkpt lon="-4.153595" lat="53.008611"><ele>646.271423</ele><time>2021-07-17T12:00:58Z</time><extensions><speed>0.095224</speed><course>266.505096</course><hAcc>0.886171</hAcc><vAcc>0.709908</vAcc></extensions></trkpt>
      <trkpt lon="-4.153596" lat="53.008611"><ele>646.313110</ele><time>2021-07-17T12:00:59Z</time><extensions><speed>0.085238</speed><course>267.255646</course><hAcc>0.884706</hAcc><vAcc>0.705685</vAcc></extensions></trkpt>
      <trkpt lon="-4.153597" lat="53.008610"><ele>646.368042</ele><time>2021-07-17T12:01:00Z</time><extensions><speed>0.076381</speed><course>271.176971</course><hAcc>0.883070</hAcc><vAcc>0.700822</vAcc></extensions></trkpt>
      <trkpt lon="-4.153598" lat="53.008610"><ele>646.434509</ele><time>2021-07-17T12:01:01Z</time><extensions><speed>0.068678</speed><course>283.145996</course><hAcc>0.881281</hAcc><vAcc>0.695349</vAcc></extensions></trkpt>
      <trkpt lon="-4.153598" lat="53.008609"><ele>646.510071</ele><time>2021-07-17T12:01:02Z</time><extensions><speed>0.061997</speed><course>291.499756</course><hAcc>0.879375</hAcc><vAcc>0.689360</vAcc></extensions></trkpt>
      <trkpt lon="-4.153599" lat="53.008609"><ele>646.592102</ele><time>2021-07-17T12:01:03Z</time><extensions><speed>0.055971</speed><course>295.960785</course><hAcc>0.877404</hAcc><vAcc>0.683021</vAcc></extensions></trkpt>
      <trkpt lon="-4.153599" lat="53.008608"><ele>646.678162</ele><time>2021-07-17T12:01:04Z</time><extensions><speed>0.050667</speed><course>298.309418</course><hAcc>0.875443</hAcc><vAcc>0.676575</vAcc></extensions></trkpt>
      <trkpt lon="-4.153599" lat="53.008608"><ele>646.766418</ele><time>2021-07-17T12:01:05Z</time><extensions><speed>0.046411</speed><course>301.442566</course><hAcc>0.873582</hAcc><vAcc>0.670350</vAcc></extensions></trkpt>
      <trkpt lon="-4.153600" lat="53.008608"><ele>646.856018</ele><time>2021-07-17T12:01:06Z</time><extensions><speed>0.043511</speed><course>301.820831</course><hAcc>0.871929</hAcc><vAcc>0.664742</vAcc></extensions></trkpt>
      <trkpt lon="-4.153600" lat="53.008607"><ele>646.945984</ele><time>2021-07-17T12:01:07Z</time><extensions><speed>0.042148</speed><course>306.533081</course><hAcc>0.870599</hAcc><vAcc>0.660184</vAcc></extensions></trkpt>
      <trkpt lon="-4.153600" lat="53.008607"><ele>647.034607</ele><time>2021-07-17T12:01:08Z</time><extensions><speed>0.041943</speed><course>310.759277</course><hAcc>0.869699</hAcc><vAcc>0.657079</vAcc></extensions></trkpt>
      <trkpt lon="-4.153600" lat="53.008606"><ele>647.120789</ele><time>2021-07-17T12:01:09Z</time><extensions><speed>0.042300</speed><course>315.721252</course><hAcc>0.869307</hAcc><vAcc>0.655718</vAcc></extensions></trkpt>
      <trkpt lon="-4.153600" lat="53.008606"><ele>647.204163</ele><time>2021-07-17T12:01:10Z</time><extensions><speed>0.042957</speed><course>321.376434</course><hAcc>0.869450</hAcc><vAcc>0.656191</vAcc></extensions></trkpt>
      <trkpt lon="-4.153600" lat="53.008606"><ele>647.284241</ele><time>2021-07-17T12:01:11Z</time><extensions><speed>0.043830</speed><course>321.893402</course><hAcc>0.870087</hAcc><vAcc>0.658327</vAcc></extensions></trkpt>
      <trkpt lon="-4.153600" lat="53.008605"><ele>647.360474</ele><time>2021-07-17T12:01:12Z</time><extensions><speed>0.044869</speed><course>325.867676</course><hAcc>0.871116</hAcc><vAcc>0.661739</vAcc></extensions></trkpt>
      <trkpt lon="-4.153600" lat="53.008605"><ele>647.432251</ele><time>2021-07-17T12:01:13Z</time><extensions><speed>0.045979</speed><course>319.975250</course><hAcc>0.872419</hAcc><vAcc>0.665974</vAcc></extensions></trkpt>
      <trkpt lon="-4.153601" lat="53.008604"><ele>647.499390</ele><time>2021-07-17T12:01:14Z</time><extensions><speed>0.046997</speed><course>320.826599</course><hAcc>0.873892</hAcc><vAcc>0.670626</vAcc></extensions></trkpt>
      <trkpt lon="-4.153601" lat="53.008604"><ele>647.561646</ele><time>2021-07-17T12:01:15Z</time><extensions><speed>0.047676</speed><course>320.826599</course><hAcc>0.875450</hAcc><vAcc>0.675383</vAcc></extensions></trkpt>
      <trkpt lon="-4.153601" lat="53.008604"><ele>647.618896</ele><time>2021-07-17T12:01:16Z</time><extensions><speed>0.047674</speed><course>320.826599</course><hAcc>0.877039</hAcc><vAcc>0.680036</vAcc></extensions></trkpt>
      <trkpt lon="-4.153601" lat="53.008603"><ele>647.670776</ele><time>2021-07-17T12:01:17Z</time><extensions><speed>0.046558</speed><course>320.826599</course><hAcc>0.878632</hAcc><vAcc>0.684474</vAcc></extensions></trkpt>
      <trkpt lon="-4.153601" lat="53.008603"><ele>647.717041</ele><time>2021-07-17T12:01:18Z</time><extensions><speed>0.044176</speed><course>320.826599</course><hAcc>0.880227</hAcc><vAcc>0.688658</vAcc></extensions></trkpt>
      <trkpt lon="-4.153601" lat="53.008602"><ele>647.757446</ele><time>2021-07-17T12:01:19Z</time><extensions><speed>0.040817</speed><course>320.826599</course><hAcc>0.881845</hAcc><vAcc>0.692609</vAcc></extensions></trkpt>
      <trkpt lon="-4.153601" lat="53.008602"><ele>647.791931</ele><time>2021-07-17T12:01:20Z</time><extensions><speed>0.036850</speed><course>320.826599</course><hAcc>0.883523</hAcc><vAcc>0.696381</vAcc></extensions></trkpt>
      <trkpt lon="-4.153601" lat="53.008602"><ele>647.820862</ele><time>2021-07-17T12:01:21Z</time><extensions><speed>0.032573</speed><course>320.826599</course><hAcc>0.885307</hAcc><vAcc>0.700035</vAcc></extensions></trkpt>
      <trkpt lon="-4.153601" lat="53.008602"><ele>647.844543</ele><time>2021-07-17T12:01:22Z</time><extensions><speed>0.028220</speed><course>320.826599</course><hAcc>0.887242</hAcc><vAcc>0.703618</vAcc></extensions></trkpt>
      <trkpt lon="-4.153602" lat="53.008601"><ele>647.863403</ele><time>2021-07-17T12:01:23Z</time><extensions><speed>0.023966</speed><course>320.826599</course><hAcc>0.889362</hAcc><vAcc>0.707147</vAcc></extensions></trkpt>
      <trkpt lon="-4.153602" lat="53.008601"><ele>647.877991</ele><time>2021-07-17T12:01:24Z</time><extensions><speed>0.019940</speed><course>320.826599</course><hAcc>0.891679</hAcc><vAcc>0.710608</vAcc></extensions></trkpt>
      <trkpt lon="-4.153602" lat="53.008601"><ele>647.888855</ele><time>2021-07-17T12:01:25Z</time><extensions><speed>0.016226</speed><course>320.826599</course><hAcc>0.894170</hAcc><vAcc>0.713951</vAcc></extensions></trkpt>
      <trkpt lon="-4.153602" lat="53.008601"><ele>647.896484</ele><time>2021-07-17T12:01:26Z</time><extensions><speed>0.012879</speed><course>320.826599</course><hAcc>0.896766</hAcc><vAcc>0.717092</vAcc></extensions></trkpt>
      <trkpt lon="-4.153602" lat="53.008601"><ele>647.901367</ele><time>2021-07-17T12:01:27Z</time><extensions><speed>0.009923</speed><course>320.826599</course><hAcc>0.899346</hAcc><vAcc>0.719915</vAcc></extensions></trkpt>
      <trkpt lon="-4.153602" lat="53.008601"><ele>647.904053</ele><time>2021-07-17T12:01:28Z</time><extensions><speed>0.007365</speed><course>320.826599</course><hAcc>0.901739</hAcc><vAcc>0.722292</vAcc></extensions></trkpt>
      <trkpt lon="-4.153602" lat="53.008601"><ele>647.904968</ele><time>2021-07-17T12:01:29Z</time><extensions><speed>0.005194</speed><course>320.826599</course><hAcc>0.903752</hAcc><vAcc>0.724119</vAcc></extensions></trkpt>
      <trkpt lon="-4.153602" lat="53.008601"><ele>647.904419</ele><time>2021-07-17T12:01:30Z</time><extensions><speed>0.003388</speed><course>320.826599</course><hAcc>0.905218</hAcc><vAcc>0.725375</vAcc></extensions></trkpt>
      <trkpt lon="-4.153602" lat="53.008601"><ele>647.902771</ele><time>2021-07-17T12:01:31Z</time><extensions><speed>0.001920</speed><course>320.826599</course><hAcc>0.906102</hAcc><vAcc>0.726225</vAcc></extensions></trkpt>
      <trkpt lon="-4.153602" lat="53.008600"><ele>647.900330</ele><time>2021-07-17T12:01:32Z</time><extensions><speed>0.000767</speed><course>320.826599</course><hAcc>0.906668</hAcc><vAcc>0.727160</vAcc></extensions></trkpt>
      <trkpt lon="-4.153602" lat="53.008600"><ele>647.897339</ele><time>2021-07-17T12:01:33Z</time><extensions><speed>0.000310</speed><course>320.826599</course><hAcc>0.907733</hAcc><vAcc>0.729192</vAcc></extensions></trkpt>
      <trkpt lon="-4.153602" lat="53.008600"><ele>647.893921</ele><time>2021-07-17T12:01:34Z</time><extensions><speed>0.000916</speed><course>320.826599</course><hAcc>0.911030</hAcc><vAcc>0.734093</vAcc></extensions></trkpt>
      <trkpt lon="-4.153602" lat="53.008601"><ele>647.890259</ele><time>2021-07-17T12:01:35Z</time><extensions><speed>0.001411</speed><course>320.826569</course><hAcc>0.919639</hAcc><vAcc>0.744625</vAcc></extensions></trkpt>
      <trkpt lon="-4.153602" lat="53.008601"><ele>647.886475</ele><time>2021-07-17T12:01:36Z</time><extensions><speed>0.001764</speed><course>320.826569</course><hAcc>0.938394</hAcc><vAcc>0.764674</vAcc></extensions></trkpt>
      <trkpt lon="-4.153602" lat="53.008601"><ele>647.882629</ele><time>2021-07-17T12:01:37Z</time><extensions><speed>0.002000</speed><course>320.826569</course><hAcc>0.974006</hAcc><vAcc>0.799105</vAcc></extensions></trkpt>
      <trkpt lon="-4.153602" lat="53.008601"><ele>647.868835</ele><time>2021-07-17T12:01:38Z</time><extensions><speed>0.000000</speed><course>207.637573</course><hAcc>0.936401</hAcc><vAcc>0.764832</vAcc></extensions></trkpt>
      <trkpt lon="-4.153602" lat="53.008601"><ele>647.868835</ele><time>2021-07-17T12:01:39Z</time><extensions><speed>0.000000</speed><course>199.781464</course><hAcc>0.917561</hAcc><vAcc>0.745035</vAcc></extensions></trkpt>
      <trkpt lon="-4.153602" lat="53.008601"><ele>647.868835</ele><time>2021-07-17T12:01:40Z</time><extensions><speed>0.000000</speed><course>204.898392</course><hAcc>0.910227</hAcc><vAcc>0.735954</vAcc></extensions></trkpt>
      <trkpt lon="-4.153602" lat="53.008601"><ele>647.868835</ele><time>2021-07-17T12:01:41Z</time><extensions><speed>0.000000</speed><course>218.988647</course><hAcc>0.908912</hAcc><vAcc>0.733264</vAcc></extensions></trkpt>
      <trkpt lon="-4.153602" lat="53.008601"><ele>647.868835</ele><time>2021-07-17T12:01:42Z</time><extensions><speed>0.000000</speed><course>240.875916</course><hAcc>0.910138</hAcc><vAcc>0.733891</vAcc></extensions></trkpt>
      <trkpt lon="-4.153602" lat="53.008601"><ele>647.868835</ele><time>2021-07-17T12:01:43Z</time><extensions><speed>0.000000</speed><course>240.875916</course><hAcc>0.911981</hAcc><vAcc>0.735869</vAcc></extensions></trkpt>
      <trkpt lon="-4.153602" lat="53.008601"><ele>647.868835</ele><time>2021-07-17T12:01:44Z</time><extensions><speed>0.000000</speed><course>240.875916</course><hAcc>0.913558</hAcc><vAcc>0.738077</vAcc></extensions></trkpt>
      <trkpt lon="-4.153602" lat="53.008601"><ele>647.868835</ele><time>2021-07-17T12:01:45Z</time><extensions><speed>0.000000</speed><course>240.875916</course><hAcc>0.914601</hAcc><vAcc>0.739959</vAcc></extensions></trkpt>
      <trkpt lon="-4.153602" lat="53.008601"><ele>647.868835</ele><time>2021-07-17T12:01:46Z</time><extensions><speed>0.000000</speed><course>240.875916</course><hAcc>0.915149</hAcc><vAcc>0.741294</vAcc></extensions></trkpt>
      <trkpt lon="-4.153602" lat="53.008601"><ele>647.868835</ele><time>2021-07-17T12:01:47Z</time><extensions><speed>0.000000</speed><course>240.875916</course><hAcc>0.915344</hAcc><vAcc>0.742033</vAcc></extensions></trkpt>
      <trkpt lon="-4.153602" lat="53.008601"><ele>647.868835</ele><time>2021-07-17T12:01:48Z</time><extensions><speed>0.000000</speed><course>269.430084</course><hAcc>0.915308</hAcc><vAcc>0.742195</vAcc></extensions></trkpt>
      <trkpt lon="-4.153602" lat="53.008601"><ele>647.868835</ele><time>2021-07-17T12:01:49Z</time><extensions><speed>0.000000</speed><course>274.056000</course><hAcc>0.915085</hAcc><vAcc>0.741809</vAcc></extensions></trkpt>
      <trkpt lon="-4.153602" lat="53.008601"><ele>647.868835</ele><time>2021-07-17T12:01:50Z</time><extensions><speed>0.000000</speed><course>273.580658</course><hAcc>0.914641</hAcc><vAcc>0.740919</vAcc></extensions></trkpt>
      <trkpt lon="-4.153602" lat="53.008601"><ele>647.868835</ele><time>2021-07-17T12:01:51Z</time><extensions><speed>0.000000</speed><course>266.285736</course><hAcc>0.913911</hAcc><vAcc>0.739620</vAcc></extensions></trkpt>
      <trkpt lon="-4.153602" lat="53.008601"><ele>647.868835</ele><time>2021-07-17T12:01:52Z</time><extensions><speed>0.000000</speed><course>280.416809</course><hAcc>0.912912</hAcc><vAcc>0.738158</vAcc></extensions></trkpt>
      <trkpt lon="-4.153602" lat="53.008601"><ele>647.868835</ele><time>2021-07-17T12:01:52Z</time><extensions><speed>0.000000</speed><course>289.633057</course><hAcc>0.911940</hAcc><vAcc>0.737088</vAcc></extensions></trkpt>
      <trkpt lon="-4.153602" lat="53.008601"><ele>647.868835</ele><time>2021-07-17T12:01:53Z</time><extensions><speed>0.000000</speed><course>274.042023</course><hAcc>0.911800</hAcc><vAcc>0.737446</vAcc></extensions></trkpt>
      <trkpt lon="-4.153602" lat="53.008601"><ele>647.868835</ele><time>2021-07-17T12:01:54Z</time><extensions><speed>0.000000</speed><course>259.398621</course><hAcc>0.914185</hAcc><vAcc>0.741004</vAcc></extensions></trkpt>
      <trkpt lon="-4.153602" lat="53.008601"><ele>647.868835</ele><time>2021-07-17T12:01:55Z</time><extensions><speed>0.000000</speed><course>235.228027</course><hAcc>0.922146</hAcc><vAcc>0.750531</vAcc></extensions></trkpt>
      <trkpt lon="-4.153602" lat="53.008601"><ele>647.868835</ele><time>2021-07-17T12:01:56Z</time><extensions><speed>0.000000</speed><course>233.943741</course><hAcc>0.940487</hAcc><vAcc>0.769907</vAcc></extensions></trkpt>
      <trkpt lon="-4.153602" lat="53.008601"><ele>647.868835</ele><time>2021-07-17T12:01:57Z</time><extensions><speed>0.000000</speed><course>251.986771</course><hAcc>0.975883</hAcc><vAcc>0.803979</vAcc></extensions></trkpt>
      <trkpt lon="-4.153602" lat="53.008601"><ele>647.866455</ele><time>2021-07-17T12:01:58Z</time><extensions><speed>0.002825</speed><course>207.637573</course><hAcc>0.937374</hAcc><vAcc>0.768155</vAcc></extensions></trkpt>
      <trkpt lon="-4.153602" lat="53.008601"><ele>647.865234</ele><time>2021-07-17T12:01:59Z</time><extensions><speed>0.003161</speed><course>199.781464</course><hAcc>0.917921</hAcc><vAcc>0.747290</vAcc></extensions></trkpt>
      <trkpt lon="-4.153602" lat="53.008601"><ele>647.864014</ele><time>2021-07-17T12:02:00Z</time><extensions><speed>0.003575</speed><course>204.898392</course><hAcc>0.909842</hAcc><vAcc>0.737061</vAcc></extensions></trkpt>
      <trkpt lon="-4.153602" lat="53.008601"><ele>647.862732</ele><time>2021-07-17T12:02:01Z</time><extensions><speed>0.004063</speed><course>218.988647</course><hAcc>0.907628</hAcc><vAcc>0.733130</vAcc></extensions></trkpt>
      <trkpt lon="-4.153602" lat="53.008601"><ele>647.861511</ele><time>2021-07-17T12:02:02Z</time><extensions><speed>0.004614</speed><course>240.875916</course><hAcc>0.907770</hAcc><vAcc>0.732397</vAcc></extensions></trkpt>
      <trkpt lon="-4.153602" lat="53.008601"><ele>647.860291</ele><time>2021-07-17T12:02:03Z</time><extensions><speed>0.005214</speed><course>240.875916</course><hAcc>0.908313</hAcc><vAcc>0.732878</vAcc></extensions></trkpt>
      <trkpt lon="-4.153602" lat="53.008600"><ele>647.859131</ele><time>2021-07-17T12:02:04Z</time><extensions><speed>0.005843</speed><course>240.875916</course><hAcc>0.908347</hAcc><vAcc>0.733449</vAcc></extensions></trkpt>
      <trkpt lon="-4.153602" lat="53.008600"><ele>647.857971</ele><time>2021-07-17T12:02:05Z</time><extensions><speed>0.006470</speed><course>240.875916</course><hAcc>0.907602</hAcc><vAcc>0.733576</vAcc></extensions></trkpt>
      <trkpt lon="-4.153602" lat="53.008600"><ele>647.856995</ele><time>2021-07-17T12:02:06Z</time><extensions><speed>0.007061</speed><course>240.875916</course><hAcc>0.906146</hAcc><vAcc>0.733099</vAcc></extensions></trkpt>
      <trkpt lon="-4.153602" lat="53.008600"><ele>647.856201</ele><time>2021-07-17T12:02:07Z</time><extensions><speed>0.007568</speed><course>240.875916</course><hAcc>0.904194</hAcc><vAcc>0.732062</vAcc></extensions></trkpt>
      <trkpt lon="-4.153602" lat="53.008600"><ele>647.855591</ele><time>2021-07-17T12:02:08Z</time><extensions><speed>0.007938</speed><course>269.430084</course><hAcc>0.901993</hAcc><vAcc>0.730612</vAcc></extensions></trkpt>
      <trkpt lon="-4.153602" lat="53.008600"><ele>647.855286</ele><time>2021-07-17T12:02:09Z</time><extensions><speed>0.008104</speed><course>274.056000</course><hAcc>0.899761</hAcc><vAcc>0.728920</vAcc></extensions></trkpt>
      <trkpt lon="-4.153602" lat="53.008600"><ele>647.855347</ele><time>2021-07-17T12:02:10Z</time><extensions><speed>0.007990</speed><course>273.580658</course><hAcc>0.897658</hAcc><vAcc>0.727143</vAcc></extensions></trkpt>
      <trkpt lon="-4.153602" lat="53.008600"><ele>647.855835</ele><time>2021-07-17T12:02:11Z</time><extensions><speed>0.007507</speed><course>266.285736</course><hAcc>0.895786</hAcc><vAcc>0.725405</vAcc></extensions></trkpt>
      <trkpt lon="-4.153602" lat="53.008600"><ele>647.856934</ele><time>2021-07-17T12:02:12Z</time><extensions><speed>0.006555</speed><course>280.416809</course><hAcc>0.894195</hAcc><vAcc>0.723789</vAcc></extensions></trkpt>
      <trkpt lon="-4.153602" lat="53.008600"><ele>647.858643</ele><time>2021-07-17T12:02:13Z</time><extensions><speed>0.005027</speed><course>289.633057</course><hAcc>0.892892</hAcc><vAcc>0.722341</vAcc></extensions></trkpt>
      <trkpt lon="-4.153602" lat="53.008600"><ele>647.861023</ele><time>2021-07-17T12:02:14Z</time><extensions><speed>0.002809</speed><course>274.042023</course><hAcc>0.891861</hAcc><vAcc>0.721076</vAcc></extensions></trkpt>
      <trkpt lon="-4.153602" lat="53.008600"><ele>647.864258</ele><time>2021-07-17T12:02:15Z</time><extensions><speed>0.000493</speed><course>259.398621</course><hAcc>0.891067</hAcc><vAcc>0.719989</vAcc></extensions></trkpt>
      <trkpt lon="-4.153602" lat="53.008600"><ele>647.868408</ele><time>2021-07-17T12:02:16Z</time><extensions><speed>0.004307</speed><course>235.228027</course><hAcc>0.890469</hAcc><vAcc>0.719065</vAcc></extensions></trkpt>
      <trkpt lon="-4.153602" lat="53.008600"><ele>647.873535</ele><time>2021-07-17T12:02:17Z</time><extensions><speed>0.009395</speed><course>233.943741</course><hAcc>0.890027</hAcc><vAcc>0.718284</vAcc></extensions></trkpt>
      <trkpt lon="-4.153602" lat="53.008600"><ele>647.879639</ele><time>2021-07-17T12:02:18Z</time><extensions><speed>0.015702</speed><course>251.986771</course><hAcc>0.889703</hAcc><vAcc>0.717623</vAcc></extensions></trkpt>
      <trkpt lon="-4.153602" lat="53.008600"><ele>647.886841</ele><time>2021-07-17T12:02:20Z</time><extensions><speed>0.023352</speed><course>230.632401</course><hAcc>0.889447</hAcc><vAcc>0.717046</vAcc></extensions></trkpt>
      <trkpt lon="-4.153602" lat="53.008600"><ele>647.895081</ele><time>2021-07-17T12:02:21Z</time><extensions><speed>0.032405</speed><course>208.539734</course><hAcc>0.889232</hAcc><vAcc>0.716535</vAcc></extensions></trkpt>
      <trkpt lon="-4.153602" lat="53.008601"><ele>647.904358</ele><time>2021-07-17T12:02:22Z</time><extensions><speed>0.042934</speed><course>217.062653</course><hAcc>0.889050</hAcc><vAcc>0.716080</vAcc></extensions></trkpt>
      <trkpt lon="-4.153602" lat="53.008601"><ele>647.914673</ele><time>2021-07-17T12:02:23Z</time><extensions><speed>0.054952</speed><course>216.480164</course><hAcc>0.888882</hAcc><vAcc>0.715655</vAcc></extensions></trkpt>
      <trkpt lon="-4.153602" lat="53.008602"><ele>647.925781</ele><time>2021-07-17T12:02:24Z</time><extensions><speed>0.068414</speed><course>215.204285</course><hAcc>0.888711</hAcc><vAcc>0.715225</vAcc></extensions></trkpt>
      <trkpt lon="-4.153602" lat="53.008602"><ele>647.937622</ele><time>2021-07-17T12:02:25Z</time><extensions><speed>0.083196</speed><course>192.608246</course><hAcc>0.888521</hAcc><vAcc>0.714749</vAcc></extensions></trkpt>
      <trkpt lon="-4.153602" lat="53.008603"><ele>647.949951</ele><time>2021-07-17T12:02:26Z</time><extensions><speed>0.099078</speed><course>196.818375</course><hAcc>0.888296</hAcc><vAcc>0.714186</vAcc></extensions></trkpt>
      <trkpt lon="-4.153602" lat="53.008604"><ele>647.962463</ele><time>2021-07-17T12:02:27Z</time><extensions><speed>0.115724</speed><course>200.564194</course><hAcc>0.888022</hAcc><vAcc>0.713492</vAcc></extensions></trkpt>
      <trkpt lon="-4.153602" lat="53.008605"><ele>647.974854</ele><time>2021-07-17T12:02:28Z</time><extensions><speed>0.132657</speed><course>224.718231</course><hAcc>0.887686</hAcc><vAcc>0.712623</vAcc></extensions></trkpt>
      <trkpt lon="-4.153602" lat="53.008607"><ele>647.986816</ele><time>2021-07-17T12:02:29Z</time><extensions><speed>0.149235</speed><course>228.969803</course><hAcc>0.887273</hAcc><vAcc>0.711533</vAcc></extensions></trkpt>
      <trkpt lon="-4.153602" lat="53.008608"><ele>647.997803</ele><time>2021-07-17T12:02:30Z</time><extensions><speed>0.164626</speed><course>250.366501</course><hAcc>0.886773</hAcc><vAcc>0.710176</vAcc></extensions></trkpt>
      <trkpt lon="-4.153602" lat="53.008610"><ele>648.007385</ele><time>2021-07-17T12:02:31Z</time><extensions><speed>0.177786</speed><course>-1.000000</course><hAcc>0.886179</hAcc><vAcc>0.708504</vAcc></extensions></trkpt>
      <trkpt lon="-4.153603" lat="53.008611"><ele>648.015137</ele><time>2021-07-17T12:02:32Z</time><extensions><speed>0.187435</speed><course>232.063629</course><hAcc>0.885487</hAcc><vAcc>0.706479</vAcc></extensions></trkpt>
      <trkpt lon="-4.153603" lat="53.008613"><ele>648.020447</ele><time>2021-07-17T12:02:33Z</time><extensions><speed>0.192042</speed><course>232.063614</course><hAcc>0.884701</hAcc><vAcc>0.704081</vAcc></extensions></trkpt>
      <trkpt lon="-4.153603" lat="53.008615"><ele>648.022827</ele><time>2021-07-17T12:02:34Z</time><extensions><speed>0.189804</speed><course>232.063614</course><hAcc>0.883831</hAcc><vAcc>0.701314</vAcc></extensions></trkpt>
      <trkpt lon="-4.153603" lat="53.008616"><ele>648.021912</ele><time>2021-07-17T12:02:35Z</time><extensions><speed>0.178655</speed><course>232.063599</course><hAcc>0.882891</hAcc><vAcc>0.698219</vAcc></extensions></trkpt>
      <trkpt lon="-4.153603" lat="53.008618"><ele>648.017273</ele><time>2021-07-17T12:02:36Z</time><extensions><speed>0.158845</speed><course>232.063599</course><hAcc>0.881905</hAcc><vAcc>0.694882</vAcc></extensions></trkpt>
      <trkpt lon="-4.153603" lat="53.008619"><ele>648.008667</ele><time>2021-07-17T12:02:37Z</time><extensions><speed>0.133000</speed><course>232.063583</course><hAcc>0.880897</hAcc><vAcc>0.691425</vAcc></extensions></trkpt>
      <trkpt lon="-4.153602" lat="53.008620"><ele>647.996338</ele><time>2021-07-17T12:02:38Z</time><extensions><speed>0.103662</speed><course>232.063583</course><hAcc>0.879897</hAcc><vAcc>0.687982</vAcc></extensions></trkpt>
      <trkpt lon="-4.153602" lat="53.008621"><ele>647.980347</ele><time>2021-07-17T12:02:39Z</time><extensions><speed>0.073371</speed><course>248.555511</course><hAcc>0.878934</hAcc><vAcc>0.684679</vAcc></extensions></trkpt>
      <trkpt lon="-4.153602" lat="53.008621"><ele>647.961304</ele><time>2021-07-17T12:02:40Z</time><extensions><speed>0.045646</speed><course>214.727661</course><hAcc>0.878031</hAcc><vAcc>0.681621</vAcc></extensions></trkpt>
      <trkpt lon="-4.153601" lat="53.008622"><ele>647.939575</ele><time>2021-07-17T12:02:41Z</time><extensions><speed>0.030480</speed><course>215.656113</course><hAcc>0.877211</hAcc><vAcc>0.678884</vAcc></extensions></trkpt>
      <trkpt lon="-4.153601" lat="53.008622"><ele>647.916016</ele><time>2021-07-17T12:02:42Z</time><extensions><speed>0.041428</speed><course>205.637772</course><hAcc>0.876485</hAcc><vAcc>0.676512</vAcc></extensions></trkpt>
      <trkpt lon="-4.153600" lat="53.008621"><ele>647.891235</ele><time>2021-07-17T12:02:43Z</time><extensions><speed>0.063787</speed><course>201.575424</course><hAcc>0.875859</hAcc><vAcc>0.674520</vAcc></extensions></trkpt>
      <trkpt lon="-4.153600" lat="53.008621"><ele>647.865845</ele><time>2021-07-17T12:02:44Z</time><extensions><speed>0.086612</speed><course>196.854248</course><hAcc>0.875333</hAcc><vAcc>0.672900</vAcc></extensions></trkpt>
      <trkpt lon="-4.153599" lat="53.008620"><ele>647.840454</ele><time>2021-07-17T12:02:45Z</time><extensions><speed>0.107094</speed><course>198.264053</course><hAcc>0.874899</hAcc><vAcc>0.671621</vAcc></extensions></trkpt>
      <trkpt lon="-4.153598" lat="53.008619"><ele>647.815430</ele><time>2021-07-17T12:02:46Z</time><extensions><speed>0.124214</speed><course>198.636932</course><hAcc>0.874547</hAcc><vAcc>0.670637</vAcc></extensions></trkpt>
      <trkpt lon="-4.153597" lat="53.008618"><ele>647.790833</ele><time>2021-07-17T12:02:47Z</time><extensions><speed>0.137425</speed><course>192.727798</course><hAcc>0.874259</hAcc><vAcc>0.669880</vAcc></extensions></trkpt>
      <trkpt lon="-4.153596" lat="53.008617"><ele>647.766785</ele><time>2021-07-17T12:02:48Z</time><extensions><speed>0.146375</speed><course>184.691818</course><hAcc>0.874020</hAcc><vAcc>0.669278</vAcc></extensions></trkpt>
      <trkpt lon="-4.153595" lat="53.008616"><ele>647.743164</ele><time>2021-07-17T12:02:49Z</time><extensions><speed>0.150651</speed><course>177.917740</course><hAcc>0.873813</hAcc><vAcc>0.668762</vAcc></extensions></trkpt>
      <trkpt lon="-4.153594" lat="53.008614"><ele>647.719971</ele><time>2021-07-17T12:02:50Z</time><extensions><speed>0.149593</speed><course>169.935883</course><hAcc>0.873627</hAcc><vAcc>0.668276</vAcc></extensions></trkpt>
      <trkpt lon="-4.153593" lat="53.008613"><ele>647.697021</ele><time>2021-07-17T12:02:51Z</time><extensions><speed>0.142565</speed><course>168.290512</course><hAcc>0.873458</hAcc><vAcc>0.667773</vAcc></extensions></trkpt>
      <trkpt lon="-4.153592" lat="53.008612"><ele>647.673889</ele><time>2021-07-17T12:02:52Z</time><extensions><speed>0.130058</speed><course>175.847488</course><hAcc>0.873305</hAcc><vAcc>0.667237</vAcc></extensions></trkpt>
      <trkpt lon="-4.153591" lat="53.008611"><ele>647.649597</ele><time>2021-07-17T12:02:53Z</time><extensions><speed>0.113833</speed><course>182.489380</course><hAcc>0.873183</hAcc><vAcc>0.666724</vAcc></extensions></trkpt>
      <trkpt lon="-4.153590" lat="53.008611"><ele>647.622803</ele><time>2021-07-17T12:02:54Z</time><extensions><speed>0.095735</speed><course>193.224472</course><hAcc>0.873120</hAcc><vAcc>0.666366</vAcc></extensions></trkpt>
      <trkpt lon="-4.153589" lat="53.008610"><ele>647.592407</ele><time>2021-07-17T12:02:55Z</time><extensions><speed>0.077634</speed><course>210.457108</course><hAcc>0.873148</hAcc><vAcc>0.666327</vAcc></extensions></trkpt>
      <trkpt lon="-4.153589" lat="53.008610"><ele>647.557373</ele><time>2021-07-17T12:02:56Z</time><extensions><speed>0.061267</speed><course>227.054108</course><hAcc>0.873296</hAcc><vAcc>0.666761</vAcc></extensions></trkpt>
      <trkpt lon="-4.153588" lat="53.008609"><ele>647.517090</ele><time>2021-07-17T12:02:57Z</time><extensions><speed>0.047875</speed><course>247.666534</course><hAcc>0.873578</hAcc><vAcc>0.667757</vAcc></extensions></trkpt>
      <trkpt lon="-4.153588" lat="53.008609"><ele>647.471313</ele><time>2021-07-17T12:02:58Z</time><extensions><speed>0.038180</speed><course>261.197876</course><hAcc>0.873985</hAcc><vAcc>0.669300</vAcc></extensions></trkpt>
      <trkpt lon="-4.153587" lat="53.008609"><ele>647.420166</ele><time>2021-07-17T12:02:59Z</time><extensions><speed>0.032206</speed><course>263.217255</course><hAcc>0.874475</hAcc><vAcc>0.671239</vAcc></extensions></trkpt>
      <trkpt lon="-4.153587" lat="53.008609"><ele>647.363953</ele><time>2021-07-17T12:03:00Z</time><extensions><speed>0.029134</speed><course>271.463165</course><hAcc>0.874983</hAcc><vAcc>0.673306</vAcc></extensions></trkpt>
      <trkpt lon="-4.153586" lat="53.008609"><ele>647.303345</ele><time>2021-07-17T12:03:01Z</time><extensions><speed>0.027434</speed><course>281.991608</course><hAcc>0.875435</hAcc><vAcc>0.675188</vAcc></extensions></trkpt>
      <trkpt lon="-4.153586" lat="53.008609"><ele>647.239136</ele><time>2021-07-17T12:03:02Z</time><extensions><speed>0.025512</speed><course>285.895782</course><hAcc>0.875764</hAcc><vAcc>0.676594</vAcc></extensions></trkpt>
      <trkpt lon="-4.153586" lat="53.008609"><ele>647.172607</ele><time>2021-07-17T12:03:03Z</time><extensions><speed>0.022334</speed><course>287.327179</course><hAcc>0.875926</hAcc><vAcc>0.677277</vAcc></extensions></trkpt>
      <trkpt lon="-4.153585" lat="53.008609"><ele>647.105103</ele><time>2021-07-17T12:03:04Z</time><extensions><speed>0.017686</speed><course>297.396240</course><hAcc>0.875901</hAcc><vAcc>0.677040</vAcc></extensions></trkpt>
      <trkpt lon="-4.153585" lat="53.008609"><ele>647.038391</ele><time>2021-07-17T12:03:05Z</time><extensions><speed>0.012424</speed><course>299.473175</course><hAcc>0.875702</hAcc><vAcc>0.675746</vAcc></extensions></trkpt>
      <trkpt lon="-4.153585" lat="53.008609"><ele>646.974365</ele><time>2021-07-17T12:03:06Z</time><extensions><speed>0.009851</speed><course>297.683289</course><hAcc>0.875385</hAcc><vAcc>0.673334</vAcc></extensions></trkpt>
      <trkpt lon="-4.153585" lat="53.008610"><ele>646.914551</ele><time>2021-07-17T12:03:07Z</time><extensions><speed>0.013952</speed><course>292.365356</course><hAcc>0.875047</hAcc><vAcc>0.669832</vAcc></extensions></trkpt>
      <trkpt lon="-4.153586" lat="53.008610"><ele>646.859863</ele><time>2021-07-17T12:03:08Z</time><extensions><speed>0.021811</speed><course>291.092651</course><hAcc>0.874825</hAcc><vAcc>0.665379</vAcc></extensions></trkpt>
      <trkpt lon="-4.153586" lat="53.008610"><ele>646.810669</ele><time>2021-07-17T12:03:09Z</time><extensions><speed>0.030803</speed><course>297.007721</course><hAcc>0.874885</hAcc><vAcc>0.660226</vAcc></extensions></trkpt>
      <trkpt lon="-4.153586" lat="53.008610"><ele>646.766357</ele><time>2021-07-17T12:03:10Z</time><extensions><speed>0.039978</speed><course>291.539093</course><hAcc>0.875411</hAcc><vAcc>0.654754</vAcc></extensions></trkpt>
      <trkpt lon="-4.153587" lat="53.008610"><ele>646.725830</ele><time>2021-07-17T12:03:11Z</time><extensions><speed>0.048501</speed><course>293.314819</course><hAcc>0.876566</hAcc><vAcc>0.649453</vAcc></extensions></trkpt>
      <trkpt lon="-4.153588" lat="53.008610"><ele>646.687378</ele><time>2021-07-17T12:03:12Z</time><extensions><speed>0.055516</speed><course>297.043213</course><hAcc>0.878455</hAcc><vAcc>0.644849</vAcc></extensions></trkpt>
      <trkpt lon="-4.153589" lat="53.008610"><ele>646.650146</ele><time>2021-07-17T12:03:13Z</time><extensions><speed>0.060771</speed><course>301.573547</course><hAcc>0.881064</hAcc><vAcc>0.641371</vAcc></extensions></trkpt>
      <trkpt lon="-4.153590" lat="53.008610"><ele>646.613770</ele><time>2021-07-17T12:03:14Z</time><extensions><speed>0.064523</speed><course>305.542847</course><hAcc>0.884242</hAcc><vAcc>0.639246</vAcc></extensions></trkpt>
      <trkpt lon="-4.153591" lat="53.008610"><ele>646.578552</ele><time>2021-07-17T12:03:15Z</time><extensions><speed>0.067088</speed><course>304.461029</course><hAcc>0.887749</hAcc><vAcc>0.638486</vAcc></extensions></trkpt>
      <trkpt lon="-4.153592" lat="53.008610"><ele>646.545105</ele><time>2021-07-17T12:03:16Z</time><extensions><speed>0.068729</speed><course>304.519958</course><hAcc>0.891364</hAcc><vAcc>0.638960</vAcc></extensions></trkpt>
      <trkpt lon="-4.153593" lat="53.008610"><ele>646.514526</ele><time>2021-07-17T12:03:17Z</time><extensions><speed>0.069446</speed><course>306.835541</course><hAcc>0.894970</hAcc><vAcc>0.640491</vAcc></extensions></trkpt>
      <trkpt lon="-4.153594" lat="53.008610"><ele>646.488037</ele><time>2021-07-17T12:03:18Z</time><extensions><speed>0.068959</speed><course>312.924469</course><hAcc>0.898532</hAcc><vAcc>0.642890</vAcc></extensions></trkpt>
      <trkpt lon="-4.153595" lat="53.008610"><ele>646.466553</ele><time>2021-07-17T12:03:19Z</time><extensions><speed>0.067442</speed><course>313.121582</course><hAcc>0.901959</hAcc><vAcc>0.645935</vAcc></extensions></trkpt>
      <trkpt lon="-4.153595" lat="53.008610"><ele>646.450684</ele><time>2021-07-17T12:03:20Z</time><extensions><speed>0.065547</speed><course>312.363678</course><hAcc>0.905029</hAcc><vAcc>0.649359</vAcc></extensions></trkpt>
      <trkpt lon="-4.153596" lat="53.008609"><ele>646.440918</ele><time>2021-07-17T12:03:21Z</time><extensions><speed>0.063686</speed><course>309.905548</course><hAcc>0.907420</hAcc><vAcc>0.652883</vAcc></extensions></trkpt>
      <trkpt lon="-4.153597" lat="53.008609"><ele>646.437683</ele><time>2021-07-17T12:03:22Z</time><extensions><speed>0.061985</speed><course>308.597687</course><hAcc>0.908815</hAcc><vAcc>0.656263</vAcc></extensions></trkpt>
      <trkpt lon="-4.153598" lat="53.008609"><ele>646.441284</ele><time>2021-07-17T12:03:23Z</time><extensions><speed>0.060139</speed><course>307.103394</course><hAcc>0.909080</hAcc><vAcc>0.659376</vAcc></extensions></trkpt>
      <trkpt lon="-4.153598" lat="53.008608"><ele>646.452087</ele><time>2021-07-17T12:03:24Z</time><extensions><speed>0.057527</speed><course>306.897400</course><hAcc>0.908328</hAcc><vAcc>0.662250</vAcc></extensions></trkpt>
      <trkpt lon="-4.153599" lat="53.008608"><ele>646.470459</ele><time>2021-07-17T12:03:25Z</time><extensions><speed>0.053819</speed><course>302.152618</course><hAcc>0.906772</hAcc><vAcc>0.664998</vAcc></extensions></trkpt>
      <trkpt lon="-4.153599" lat="53.008607"><ele>646.496582</ele><time>2021-07-17T12:03:26Z</time><extensions><speed>0.049332</speed><course>297.726410</course><hAcc>0.904578</hAcc><vAcc>0.667743</vAcc></extensions></trkpt>
      <trkpt lon="-4.153599" lat="53.008607"><ele>646.530518</ele><time>2021-07-17T12:03:27Z</time><extensions><speed>0.044309</speed><course>300.194183</course><hAcc>0.901866</hAcc><vAcc>0.670613</vAcc></extensions></trkpt>
      <trkpt lon="-4.153599" lat="53.008607"><ele>646.571777</ele><time>2021-07-17T12:03:28Z</time><extensions><speed>0.038566</speed><course>297.151825</course><hAcc>0.898823</hAcc><vAcc>0.673768</vAcc></extensions></trkpt>
      <trkpt lon="-4.153599" lat="53.008606"><ele>646.619385</ele><time>2021-07-17T12:03:29Z</time><extensions><speed>0.032054</speed><course>298.399384</course><hAcc>0.895746</hAcc><vAcc>0.677401</vAcc></extensions></trkpt>
      <trkpt lon="-4.153599" lat="53.008606"><ele>646.671631</ele><time>2021-07-17T12:03:30Z</time><extensions><speed>0.025654</speed><course>300.837921</course><hAcc>0.893000</hAcc><vAcc>0.681691</vAcc></extensions></trkpt>
      <trkpt lon="-4.153599" lat="53.008606"><ele>646.725952</ele><time>2021-07-17T12:03:31Z</time><extensions><speed>0.020142</speed><course>299.844330</course><hAcc>0.890911</hAcc><vAcc>0.686705</vAcc></extensions></trkpt>
      <trkpt lon="-4.153599" lat="53.008606"><ele>646.780090</ele><time>2021-07-17T12:03:32Z</time><extensions><speed>0.015556</speed><course>300.001373</course><hAcc>0.889666</hAcc><vAcc>0.692322</vAcc></extensions></trkpt>
      <trkpt lon="-4.153599" lat="53.008606"><ele>646.832275</ele><time>2021-07-17T12:03:33Z</time><extensions><speed>0.011902</speed><course>294.568817</course><hAcc>0.889313</hAcc><vAcc>0.698320</vAcc></extensions></trkpt>
      <trkpt lon="-4.153599" lat="53.008605"><ele>646.881348</ele><time>2021-07-17T12:03:34Z</time><extensions><speed>0.009196</speed><course>300.687103</course><hAcc>0.889812</hAcc><vAcc>0.704464</vAcc></extensions></trkpt>
      <trkpt lon="-4.153599" lat="53.008605"><ele>646.926453</ele><time>2021-07-17T12:03:35Z</time><extensions><speed>0.007443</speed><course>297.691925</course><hAcc>0.891068</hAcc><vAcc>0.710544</vAcc></extensions></trkpt>
      <trkpt lon="-4.153598" lat="53.008605"><ele>646.967224</ele><time>2021-07-17T12:03:36Z</time><extensions><speed>0.006557</speed><course>293.928223</course><hAcc>0.892955</hAcc><vAcc>0.716382</vAcc></extensions></trkpt>
      <trkpt lon="-4.153598" lat="53.008605"><ele>647.003296</ele><time>2021-07-17T12:03:37Z</time><extensions><speed>0.006294</speed><course>297.041656</course><hAcc>0.895328</hAcc><vAcc>0.721834</vAcc></extensions></trkpt>
      <trkpt lon="-4.153598" lat="53.008605"><ele>647.034790</ele><time>2021-07-17T12:03:38Z</time><extensions><speed>0.006341</speed><course>298.722290</course><hAcc>0.898033</hAcc><vAcc>0.726781</vAcc></extensions></trkpt>
      <trkpt lon="-4.153598" lat="53.008605"><ele>647.061829</ele><time>2021-07-17T12:03:39Z</time><extensions><speed>0.006461</speed><course>296.674316</course><hAcc>0.900898</hAcc><vAcc>0.731123</vAcc></extensions></trkpt>
      <trkpt lon="-4.153598" lat="53.008606"><ele>647.084595</ele><time>2021-07-17T12:03:40Z</time><extensions><speed>0.006529</speed><course>301.147156</course><hAcc>0.903731</hAcc><vAcc>0.734765</vAcc></extensions></trkpt>
      <trkpt lon="-4.153598" lat="53.008606"><ele>647.103394</ele><time>2021-07-17T12:03:41Z</time><extensions><speed>0.006497</speed><course>301.618805</course><hAcc>0.906324</hAcc><vAcc>0.737624</vAcc></extensions></trkpt>
      <trkpt lon="-4.153598" lat="53.008606"><ele>647.118713</ele><time>2021-07-17T12:03:42Z</time><extensions><speed>0.006361</speed><course>300.678009</course><hAcc>0.908473</hAcc><vAcc>0.739658</vAcc></extensions></trkpt>
      <trkpt lon="-4.153598" lat="53.008606"><ele>647.130859</ele><time>2021-07-17T12:03:43Z</time><extensions><speed>0.006136</speed><course>306.078644</course><hAcc>0.910022</hAcc><vAcc>0.740921</vAcc></extensions></trkpt>
      <trkpt lon="-4.153598" lat="53.008606"><ele>647.140259</ele><time>2021-07-17T12:03:44Z</time><extensions><speed>0.005845</speed><course>302.099213</course><hAcc>0.910944</hAcc><vAcc>0.741650</vAcc></extensions></trkpt>
      <trkpt lon="-4.153598" lat="53.008606"><ele>647.147278</ele><time>2021-07-17T12:03:45Z</time><extensions><speed>0.005515</speed><course>298.253754</course><hAcc>0.911536</hAcc><vAcc>0.742424</vAcc></extensions></trkpt>
      <trkpt lon="-4.153598" lat="53.008606"><ele>647.152405</ele><time>2021-07-17T12:03:46Z</time><extensions><speed>0.005169</speed><course>299.772583</course><hAcc>0.912678</hAcc><vAcc>0.744365</vAcc></extensions></trkpt>
      <trkpt lon="-4.153598" lat="53.008606"><ele>647.155884</ele><time>2021-07-17T12:03:47Z</time><extensions><speed>0.004830</speed><course>299.946075</course><hAcc>0.916135</hAcc><vAcc>0.749337</vAcc></extensions></trkpt>
      <trkpt lon="-4.153598" lat="53.008606"><ele>647.158142</ele><time>2021-07-17T12:03:48Z</time><extensions><speed>0.004514</speed><course>303.968170</course><hAcc>0.925012</hAcc><vAcc>0.760184</vAcc></extensions></trkpt>
      <trkpt lon="-4.153598" lat="53.008606"><ele>647.159363</ele><time>2021-07-17T12:03:49Z</time><extensions><speed>0.004236</speed><course>302.223755</course><hAcc>0.944141</hAcc><vAcc>0.780842</vAcc></extensions></trkpt>
      <trkpt lon="-4.153598" lat="53.008606"><ele>647.159912</ele><time>2021-07-17T12:03:50Z</time><extensions><speed>0.004005</speed><course>303.590851</course><hAcc>0.980199</hAcc><vAcc>0.816173</vAcc></extensions></trkpt>
      <trkpt lon="-4.153598" lat="53.008606"><ele>647.129700</ele><time>2021-07-17T12:03:51Z</time><extensions><speed>0.000000</speed><course>207.637573</course><hAcc>0.942182</hAcc><vAcc>0.780860</vAcc></extensions></trkpt>
      <trkpt lon="-4.153598" lat="53.008606"><ele>647.129700</ele><time>2021-07-17T12:03:52Z</time><extensions><speed>0.000000</speed><course>199.781464</course><hAcc>0.922676</hAcc><vAcc>0.759569</vAcc></extensions></trkpt>
      <trkpt lon="-4.153598" lat="53.008606"><ele>647.129700</ele><time>2021-07-17T12:03:53Z</time><extensions><speed>0.000000</speed><course>204.898392</course><hAcc>0.914824</hAcc><vAcc>0.749409</vAcc></extensions></trkpt>
      <trkpt lon="-4.153598" lat="53.008606"><ele>647.129700</ele><time>2021-07-17T12:03:54Z</time><extensions><speed>0.000000</speed><course>218.988647</course><hAcc>0.913154</hAcc><vAcc>0.746038</vAcc></extensions></trkpt>
      <trkpt lon="-4.153598" lat="53.008606"><ele>647.129700</ele><time>2021-07-17T12:03:55Z</time><extensions><speed>0.000000</speed><course>240.875916</course><hAcc>0.914173</hAcc><vAcc>0.746310</vAcc></extensions></trkpt>
      <trkpt lon="-4.153598" lat="53.008606"><ele>647.129700</ele><time>2021-07-17T12:03:56Z</time><extensions><speed>0.000000</speed><course>240.875916</course><hAcc>0.915924</hAcc><vAcc>0.748175</vAcc></extensions></trkpt>
      <trkpt lon="-4.153598" lat="53.008606"><ele>647.129700</ele><time>2021-07-17T12:03:57Z</time><extensions><speed>0.000000</speed><course>240.875916</course><hAcc>0.917488</hAcc><vAcc>0.750432</vAcc></extensions></trkpt>
      <trkpt lon="-4.153598" lat="53.008606"><ele>647.129700</ele><time>2021-07-17T12:03:58Z</time><extensions><speed>0.000000</speed><course>240.875916</course><hAcc>0.918560</hAcc><vAcc>0.752453</vAcc></extensions></trkpt>
      <trkpt lon="-4.153598" lat="53.008606"><ele>647.129700</ele><time>2021-07-17T12:03:58Z</time><extensions><speed>0.000000</speed><course>240.875916</course><hAcc>0.919182</hAcc><vAcc>0.753987</vAcc></extensions></trkpt>
      <trkpt lon="-4.153598" lat="53.008606"><ele>647.129700</ele><time>2021-07-17T12:03:59Z</time><extensions><speed>0.000000</speed><course>240.875916</course><hAcc>0.919477</hAcc><vAcc>0.754955</vAcc></extensions></trkpt>
      <trkpt lon="-4.153598" lat="53.008606"><ele>647.129700</ele><time>2021-07-17T12:04:00Z</time><extensions><speed>0.000000</speed><course>269.430084</course><hAcc>0.919517</hAcc><vAcc>0.755318</vAcc></extensions></trkpt>
      <trkpt lon="-4.153598" lat="53.008606"><ele>647.129700</ele><time>2021-07-17T12:04:01Z</time><extensions><speed>0.000000</speed><course>274.056000</course><hAcc>0.919343</hAcc><vAcc>0.755097</vAcc></extensions></trkpt>
      <trkpt lon="-4.153598" lat="53.008606"><ele>647.129700</ele><time>2021-07-17T12:04:02Z</time><extensions><speed>0.000000</speed><course>273.580658</course><hAcc>0.918929</hAcc><vAcc>0.754334</vAcc></extensions></trkpt>
      <trkpt lon="-4.153598" lat="53.008606"><ele>647.129700</ele><time>2021-07-17T12:04:03Z</time><extensions><speed>0.000000</speed><course>266.285736</course><hAcc>0.918228</hAcc><vAcc>0.753141</vAcc></extensions></trkpt>
      <trkpt lon="-4.153598" lat="53.008606"><ele>647.129700</ele><time>2021-07-17T12:04:04Z</time><extensions><speed>0.000000</speed><course>280.416809</course><hAcc>0.917279</hAcc><vAcc>0.751797</vAcc></extensions></trkpt>
      <trkpt lon="-4.153598" lat="53.008606"><ele>647.129700</ele><time>2021-07-17T12:04:05Z</time><extensions><speed>0.000000</speed><course>289.633057</course><hAcc>0.916390</hAcc><vAcc>0.750890</vAcc></extensions></trkpt>
      <trkpt lon="-4.153598" lat="53.008606"><ele>647.129700</ele><time>2021-07-17T12:04:06Z</time><extensions><speed>0.000000</speed><course>274.042023</course><hAcc>0.916400</hAcc><vAcc>0.751521</vAcc></extensions></trkpt>
      <trkpt lon="-4.153598" lat="53.008606"><ele>647.129700</ele><time>2021-07-17T12:04:07Z</time><extensions><speed>0.000000</speed><course>259.398621</course><hAcc>0.919045</hAcc><vAcc>0.755540</vAcc></extensions></trkpt>
      <trkpt lon="-4.153598" lat="53.008606"><ele>647.129700</ele><time>2021-07-17T12:04:08Z</time><extensions><speed>0.000000</speed><course>235.228027</course><hAcc>0.927391</hAcc><vAcc>0.765774</vAcc></extensions></trkpt>
      <trkpt lon="-4.153598" lat="53.008606"><ele>647.129700</ele><time>2021-07-17T12:04:09Z</time><extensions><speed>0.000000</speed><course>233.943741</course><hAcc>0.946231</hAcc><vAcc>0.786127</vAcc></extensions></trkpt>
      <trkpt lon="-4.153598" lat="53.008606"><ele>647.129700</ele><time>2021-07-17T12:04:10Z</time><extensions><speed>0.000000</speed><course>251.986771</course><hAcc>0.982195</hAcc><vAcc>0.821421</vAcc></extensions></trkpt>
      <trkpt lon="-4.153598" lat="53.008606"><ele>647.129700</ele><time>2021-07-17T12:04:11Z</time><extensions><speed>0.000000</speed><course>207.637573</course><hAcc>0.943687</hAcc><vAcc>0.785088</vAcc></extensions></trkpt>
      <trkpt lon="-4.153598" lat="53.008606"><ele>647.129700</ele><time>2021-07-17T12:04:12Z</time><extensions><speed>0.000000</speed><course>199.781464</course><hAcc>0.923972</hAcc><vAcc>0.763313</vAcc></extensions></trkpt>
      <trkpt lon="-4.153598" lat="53.008606"><ele>647.129700</ele><time>2021-07-17T12:04:13Z</time><extensions><speed>0.000000</speed><course>204.898392</course><hAcc>0.915930</hAcc><vAcc>0.752714</vAcc></extensions></trkpt>
      <trkpt lon="-4.153598" lat="53.008606"><ele>647.129700</ele><time>2021-07-17T12:04:14Z</time><extensions><speed>0.000000</speed><course>218.988647</course><hAcc>0.914098</hAcc><vAcc>0.748951</vAcc></extensions></trkpt>
      <trkpt lon="-4.153598" lat="53.008606"><ele>647.129700</ele><time>2021-07-17T12:04:15Z</time><extensions><speed>0.000000</speed><course>240.875916</course><hAcc>0.914982</hAcc><vAcc>0.748867</vAcc></extensions></trkpt>
      <trkpt lon="-4.153598" lat="53.008606"><ele>647.129700</ele><time>2021-07-17T12:04:16Z</time><extensions><speed>0.000000</speed><course>240.875916</course><hAcc>0.916622</hAcc><vAcc>0.750397</vAcc></extensions></trkpt>
      <trkpt lon="-4.153598" lat="53.008606"><ele>647.129700</ele><time>2021-07-17T12:04:17Z</time><extensions><speed>0.000000</speed><course>240.875916</course><hAcc>0.918092</hAcc><vAcc>0.752321</vAcc></extensions></trkpt>
      <trkpt lon="-4.153598" lat="53.008606"><ele>647.129700</ele><time>2021-07-17T12:04:18Z</time><extensions><speed>0.000000</speed><course>240.875916</course><hAcc>0.919083</hAcc><vAcc>0.754001</vAcc></extensions></trkpt>
      <trkpt lon="-4.153598" lat="53.008606"><ele>647.129700</ele><time>2021-07-17T12:04:19Z</time><extensions><speed>0.000000</speed><course>240.875916</course><hAcc>0.919599</hAcc><vAcc>0.755156</vAcc></extensions></trkpt>
      <trkpt lon="-4.153598" lat="53.008606"><ele>647.129700</ele><time>2021-07-17T12:04:20Z</time><extensions><speed>0.000000</speed><course>240.875916</course><hAcc>0.919758</hAcc><vAcc>0.755698</vAcc></extensions></trkpt>
      <trkpt lon="-4.153598" lat="53.008606"><ele>647.129700</ele><time>2021-07-17T12:04:21Z</time><extensions><speed>0.000000</speed><course>269.430084</course><hAcc>0.919666</hAcc><vAcc>0.755623</vAcc></extensions></trkpt>
      <trkpt lon="-4.153598" lat="53.008606"><ele>647.129700</ele><time>2021-07-17T12:04:22Z</time><extensions><speed>0.000000</speed><course>274.056000</course><hAcc>0.919365</hAcc><vAcc>0.754956</vAcc></extensions></trkpt>
      <trkpt lon="-4.153598" lat="53.008606"><ele>647.129700</ele><time>2021-07-17T12:04:23Z</time><extensions><speed>0.000000</speed><course>273.580658</course><hAcc>0.918826</hAcc><vAcc>0.753749</vAcc></extensions></trkpt>
      <trkpt lon="-4.153598" lat="53.008606"><ele>647.129700</ele><time>2021-07-17T12:04:24Z</time><extensions><speed>0.000000</speed><course>266.285736</course><hAcc>0.918000</hAcc><vAcc>0.752120</vAcc></extensions></trkpt>
      <trkpt lon="-4.153598" lat="53.008606"><ele>647.129700</ele><time>2021-07-17T12:04:25Z</time><extensions><speed>0.000000</speed><course>280.416809</course><hAcc>0.916924</hAcc><vAcc>0.750349</vAcc></extensions></trkpt>
      <trkpt lon="-4.153598" lat="53.008606"><ele>647.129700</ele><time>2021-07-17T12:04:26Z</time><extensions><speed>0.000000</speed><course>289.633057</course><hAcc>0.915901</hAcc><vAcc>0.749022</vAcc></extensions></trkpt>
      <trkpt lon="-4.153598" lat="53.008606"><ele>647.129700</ele><time>2021-07-17T12:04:27Z</time><extensions><speed>0.000000</speed><course>274.042023</course><hAcc>0.915766</hAcc><vAcc>0.749234</vAcc></extensions></trkpt>
      <trkpt lon="-4.153598" lat="53.008606"><ele>647.129700</ele><time>2021-07-17T12:04:29Z</time><extensions><speed>0.000000</speed><course>259.398621</course><hAcc>0.918236</hAcc><vAcc>0.752821</vAcc></extensions></trkpt>
      <trkpt lon="-4.153598" lat="53.008606"><ele>647.129700</ele><time>2021-07-17T12:04:30Z</time><extensions><speed>0.000000</speed><course>235.228027</course><hAcc>0.926376</hAcc><vAcc>0.762597</vAcc></extensions></trkpt>
      <trkpt lon="-4.153598" lat="53.008606"><ele>647.129700</ele><time>2021-07-17T12:04:31Z</time><extensions><speed>0.000000</speed><course>233.943741</course><hAcc>0.945002</hAcc><vAcc>0.782488</vAcc></extensions></trkpt>
      <trkpt lon="-4.153598" lat="53.008606"><ele>647.129700</ele><time>2021-07-17T12:04:32Z</time><extensions><speed>0.000000</speed><course>251.986771</course><hAcc>0.980758</hAcc><vAcc>0.817328</vAcc></extensions></trkpt>
      <trkpt lon="-4.153598" lat="53.008606"><ele>647.129700</ele><time>2021-07-17T12:04:33Z</time><extensions><speed>0.000000</speed><course>207.637573</course><hAcc>0.942292</hAcc><vAcc>0.781154</vAcc></extensions></trkpt>
      <trkpt lon="-4.153598" lat="53.008606"><ele>647.129700</ele><time>2021-07-17T12:04:34Z</time><extensions><speed>0.000000</speed><course>199.781464</course><hAcc>0.922729</hAcc><vAcc>0.759711</vAcc></extensions></trkpt>
      <trkpt lon="-4.153598" lat="53.008606"><ele>647.129700</ele><time>2021-07-17T12:04:35Z</time><extensions><speed>0.000000</speed><course>204.898392</course><hAcc>0.914811</hAcc><vAcc>0.749379</vAcc></extensions></trkpt>
      <trkpt lon="-4.153598" lat="53.008606"><ele>647.129700</ele><time>2021-07-17T12:04:36Z</time><extensions><speed>0.000000</speed><course>218.988647</course><hAcc>0.913069</hAcc><vAcc>0.745813</vAcc></extensions></trkpt>
      <trkpt lon="-4.153598" lat="53.008606"><ele>647.129700</ele><time>2021-07-17T12:04:37Z</time><extensions><speed>0.000000</speed><course>240.875916</course><hAcc>0.914014</hAcc><vAcc>0.745865</vAcc></extensions></trkpt>
      <trkpt lon="-4.153598" lat="53.008606"><ele>647.129700</ele><time>2021-07-17T12:04:38Z</time><extensions><speed>0.000000</speed><course>240.875916</course><hAcc>0.915691</hAcc><vAcc>0.747483</vAcc></extensions></trkpt>
      <trkpt lon="-4.153598" lat="53.008606"><ele>647.129700</ele><time>2021-07-17T12:04:39Z</time><extensions><speed>0.000000</speed><course>240.875916</course><hAcc>0.917180</hAcc><vAcc>0.749463</vAcc></extensions></trkpt>
      <trkpt lon="-4.153598" lat="53.008606"><ele>647.129700</ele><time>2021-07-17T12:04:40Z</time><extensions><speed>0.000000</speed><course>240.875916</course><hAcc>0.918180</hAcc><vAcc>0.751181</vAcc></extensions></trkpt>
      <trkpt lon="-4.153598" lat="53.008606"><ele>647.129700</ele><time>2021-07-17T12:04:41Z</time><extensions><speed>0.000000</speed><course>240.875916</course><hAcc>0.918702</hAcc><vAcc>0.752369</vAcc></extensions></trkpt>
      <trkpt lon="-4.153598" lat="53.008606"><ele>647.129700</ele><time>2021-07-17T12:04:42Z</time><extensions><speed>0.000000</speed><course>240.875916</course><hAcc>0.918867</hAcc><vAcc>0.752944</vAcc></extensions></trkpt>
      <trkpt lon="-4.153598" lat="53.008606"><ele>647.129700</ele><time>2021-07-17T12:04:43Z</time><extensions><speed>0.000000</speed><course>269.430084</course><hAcc>0.918784</hAcc><vAcc>0.752909</vAcc></extensions></trkpt>
      <trkpt lon="-4.153598" lat="53.008606"><ele>647.129700</ele><time>2021-07-17T12:04:44Z</time><extensions><speed>0.000000</speed><course>274.056000</course><hAcc>0.918495</hAcc><vAcc>0.752291</vAcc></extensions></trkpt>
      <trkpt lon="-4.153598" lat="53.008606"><ele>647.129700</ele><time>2021-07-17T12:04:45Z</time><extensions><speed>0.000000</speed><course>273.580658</course><hAcc>0.917972</hAcc><vAcc>0.751140</vAcc></extensions></trkpt>
      <trkpt lon="-4.153598" lat="53.008606"><ele>647.129700</ele><time>2021-07-17T12:04:46Z</time><extensions><speed>0.000000</speed><course>266.285736</course><hAcc>0.917161</hAcc><vAcc>0.749572</vAcc></extensions></trkpt>
      <trkpt lon="-4.153598" lat="53.008606"><ele>647.129700</ele><time>2021-07-17T12:04:47Z</time><extensions><speed>0.000000</speed><course>280.416809</course><hAcc>0.916098</hAcc><vAcc>0.747861</vAcc></extensions></trkpt>
      <trkpt lon="-4.153598" lat="53.008606"><ele>647.129700</ele><time>2021-07-17T12:04:48Z</time><extensions><speed>0.000000</speed><course>289.633057</course><hAcc>0.915080</hAcc><vAcc>0.746588</vAcc></extensions></trkpt>
      <trkpt lon="-4.153598" lat="53.008606"><ele>647.129700</ele><time>2021-07-17T12:04:49Z</time><extensions><speed>0.000000</speed><course>274.042023</course><hAcc>0.914939</hAcc><vAcc>0.746840</vAcc></extensions></trkpt>
      <trkpt lon="-4.153598" lat="53.008606"><ele>647.129700</ele><time>2021-07-17T12:04:50Z</time><extensions><speed>0.000000</speed><course>259.398621</course><hAcc>0.917405</hAcc><vAcc>0.750452</vAcc></extensions></trkpt>
      <trkpt lon="-4.153598" lat="53.008606"><ele>647.129700</ele><time>2021-07-17T12:04:51Z</time><extensions><speed>0.000000</speed><course>235.228027</course><hAcc>0.925541</hAcc><vAcc>0.760238</vAcc></extensions></trkpt>
      <trkpt lon="-4.153598" lat="53.008606"><ele>647.129700</ele><time>2021-07-17T12:04:52Z</time><extensions><speed>0.000000</speed><course>233.943741</course><hAcc>0.944146</hAcc><vAcc>0.780106</vAcc></extensions></trkpt>
      <trkpt lon="-4.153598" lat="53.008606"><ele>647.129700</ele><time>2021-07-17T12:04:53Z</time><extensions><speed>0.000000</speed><course>251.986771</course><hAcc>0.979870</hAcc><vAcc>0.814898</vAcc></extensions></trkpt>
      <trkpt lon="-4.153598" lat="53.008606"><ele>647.129700</ele><time>2021-07-17T12:04:54Z</time><extensions><speed>0.000000</speed><course>207.637573</course><hAcc>0.941577</hAcc><vAcc>0.779155</vAcc></extensions></trkpt>
      <trkpt lon="-4.153598" lat="53.008606"><ele>647.129700</ele><time>2021-07-17T12:04:55Z</time><extensions><speed>0.000000</speed><course>199.781464</course><hAcc>0.922183</hAcc><vAcc>0.758148</vAcc></extensions></trkpt>
      <trkpt lon="-4.153598" lat="53.008606"><ele>647.129700</ele><time>2021-07-17T12:04:56Z</time><extensions><speed>0.000000</speed><course>204.898392</course><hAcc>0.914425</hAcc><vAcc>0.748232</vAcc></extensions></trkpt>
      <trkpt lon="-4.153598" lat="53.008606"><ele>647.129700</ele><time>2021-07-17T12:04:57Z</time><extensions><speed>0.000000</speed><course>218.988647</course><hAcc>0.912826</hAcc><vAcc>0.745054</vAcc></extensions></trkpt>
      <trkpt lon="-4.153598" lat="53.008606"><ele>647.129700</ele><time>2021-07-17T12:04:58Z</time><extensions><speed>0.000000</speed><course>240.875916</course><hAcc>0.913894</hAcc><vAcc>0.745465</vAcc></extensions></trkpt>
      <trkpt lon="-4.153598" lat="53.008606"><ele>647.129700</ele><time>2021-07-17T12:04:59Z</time><extensions><speed>0.000000</speed><course>240.875916</course><hAcc>0.915677</hAcc><vAcc>0.747412</vAcc></extensions></trkpt>
      <trkpt lon="-4.153598" lat="53.008606"><ele>647.129700</ele><time>2021-07-17T12:05:00Z</time><extensions><speed>0.000000</speed><course>240.875916</course><hAcc>0.917258</hAcc><vAcc>0.749692</vAcc></extensions></trkpt>
      <trkpt lon="-4.153598" lat="53.008606"><ele>647.129700</ele><time>2021-07-17T12:05:01Z</time><extensions><speed>0.000000</speed><course>240.875916</course><hAcc>0.918338</hAcc><vAcc>0.751682</vAcc></extensions></trkpt>
      <trkpt lon="-4.153598" lat="53.008606"><ele>647.129700</ele><time>2021-07-17T12:05:02Z</time><extensions><speed>0.000000</speed><course>240.875916</course><hAcc>0.918928</hAcc><vAcc>0.753110</vAcc></extensions></trkpt>
      <trkpt lon="-4.153598" lat="53.008606"><ele>647.129700</ele><time>2021-07-17T12:05:03Z</time><extensions><speed>0.000000</speed><course>240.875916</course><hAcc>0.919151</hAcc><vAcc>0.753895</vAcc></extensions></trkpt>
      <trkpt lon="-4.153598" lat="53.008606"><ele>647.129700</ele><time>2021-07-17T12:05:04Z</time><extensions><speed>0.000000</speed><course>269.430084</course><hAcc>0.919118</hAcc><vAcc>0.754033</vAcc></extensions></trkpt>
      <trkpt lon="-4.153598" lat="53.008606"><ele>647.129700</ele><time>2021-07-17T12:05:05Z</time><extensions><speed>0.000000</speed><course>274.056000</course><hAcc>0.918872</hAcc><vAcc>0.753555</vAcc></extensions></trkpt>
      <trkpt lon="-4.153598" lat="53.008606"><ele>647.129700</ele><time>2021-07-17T12:05:06Z</time><extensions><speed>0.000000</speed><course>273.580658</course><hAcc>0.918385</hAcc><vAcc>0.752515</vAcc></extensions></trkpt>
      <trkpt lon="-4.153598" lat="53.008606"><ele>647.129700</ele><time>2021-07-17T12:05:07Z</time><extensions><speed>0.000000</speed><course>266.285736</course><hAcc>0.917607</hAcc><vAcc>0.751039</vAcc></extensions></trkpt>
      <trkpt lon="-4.153598" lat="53.008606"><ele>647.129700</ele><time>2021-07-17T12:05:08Z</time><extensions><speed>0.000000</speed><course>280.416809</course><hAcc>0.916575</hAcc><vAcc>0.749409</vAcc></extensions></trkpt>
      <trkpt lon="-4.153598" lat="53.008606"><ele>647.129700</ele><time>2021-07-17T12:05:09Z</time><extensions><speed>0.000000</speed><course>289.633057</course><hAcc>0.915591</hAcc><vAcc>0.748217</vAcc></extensions></trkpt>
      <trkpt lon="-4.153598" lat="53.008606"><ele>647.129700</ele><time>2021-07-17T12:05:10Z</time><extensions><speed>0.000000</speed><course>274.042023</course><hAcc>0.915491</hAcc><vAcc>0.748558</vAcc></extensions></trkpt>
      <trkpt lon="-4.153598" lat="53.008606"><ele>647.129700</ele><time>2021-07-17T12:05:11Z</time><extensions><speed>0.000000</speed><course>259.398621</course><hAcc>0.918007</hAcc><vAcc>0.752277</vAcc></extensions></trkpt>
      <trkpt lon="-4.153598" lat="53.008606"><ele>647.129700</ele><time>2021-07-17T12:05:12Z</time><extensions><speed>0.000000</speed><course>235.228027</course><hAcc>0.926204</hAcc><vAcc>0.762192</vAcc></extensions></trkpt>
      <trkpt lon="-4.153598" lat="53.008606"><ele>647.129700</ele><time>2021-07-17T12:05:13Z</time><extensions><speed>0.000000</speed><course>233.943741</course><hAcc>0.944881</hAcc><vAcc>0.782210</vAcc></extensions></trkpt>
      <trkpt lon="-4.153598" lat="53.008606"><ele>647.129700</ele><time>2021-07-17T12:05:14Z</time><extensions><speed>0.000000</speed><course>251.986771</course><hAcc>0.980679</hAcc><vAcc>0.817165</vAcc></extensions></trkpt>
      <trkpt lon="-4.153598" lat="53.008606"><ele>647.129700</ele><time>2021-07-17T12:05:15Z</time><extensions><speed>0.000000</speed><course>207.637573</course><hAcc>0.942200</hAcc><vAcc>0.780964</vAcc></extensions></trkpt>
      <trkpt lon="-4.153598" lat="53.008606"><ele>647.129700</ele><time>2021-07-17T12:05:16Z</time><extensions><speed>0.000000</speed><course>199.781464</course><hAcc>0.922688</hAcc><vAcc>0.759670</vAcc></extensions></trkpt>
      <trkpt lon="-4.153598" lat="53.008606"><ele>647.129700</ele><time>2021-07-17T12:05:17Z</time><extensions><speed>0.000000</speed><course>204.898392</course><hAcc>0.914817</hAcc><vAcc>0.749463</vAcc></extensions></trkpt>
      <trkpt lon="-4.153598" lat="53.008606"><ele>647.129700</ele><time>2021-07-17T12:05:18Z</time><extensions><speed>0.000000</speed><course>218.988647</course><hAcc>0.913115</hAcc><vAcc>0.745999</vAcc></extensions></trkpt>
      <trkpt lon="-4.153598" lat="53.008606"><ele>647.129700</ele><time>2021-07-17T12:05:19Z</time><extensions><speed>0.000000</speed><course>240.875916</course><hAcc>0.914092</hAcc><vAcc>0.746134</vAcc></extensions></trkpt>
      <trkpt lon="-4.153598" lat="53.008606"><ele>647.129700</ele><time>2021-07-17T12:05:20Z</time><extensions><speed>0.000000</speed><course>240.875916</course><hAcc>0.915794</hAcc><vAcc>0.747820</vAcc></extensions></trkpt>
      <trkpt lon="-4.153598" lat="53.008606"><ele>647.129700</ele><time>2021-07-17T12:05:21Z</time><extensions><speed>0.000000</speed><course>240.875916</course><hAcc>0.917304</hAcc><vAcc>0.749856</vAcc></extensions></trkpt>
      <trkpt lon="-4.153598" lat="53.008606"><ele>647.129700</ele><time>2021-07-17T12:05:22Z</time><extensions><speed>0.000000</speed><course>240.875916</course><hAcc>0.918319</hAcc><vAcc>0.751619</vAcc></extensions></trkpt>
      <trkpt lon="-4.153598" lat="53.008606"><ele>647.129700</ele><time>2021-07-17T12:05:23Z</time><extensions><speed>0.000000</speed><course>240.875916</course><hAcc>0.918853</hAcc><vAcc>0.752842</vAcc></extensions></trkpt>
      <trkpt lon="-4.153598" lat="53.008606"><ele>647.129700</ele><time>2021-07-17T12:05:24Z</time><extensions><speed>0.000000</speed><course>240.875916</course><hAcc>0.919026</hAcc><vAcc>0.753444</vAcc></extensions></trkpt>
      <trkpt lon="-4.153598" lat="53.008606"><ele>647.129700</ele><time>2021-07-17T12:05:25Z</time><extensions><speed>0.000000</speed><course>269.430084</course><hAcc>0.918949</hAcc><vAcc>0.753428</vAcc></extensions></trkpt>
      <trkpt lon="-4.153598" lat="53.008606"><ele>647.129700</ele><time>2021-07-17T12:05:26Z</time><extensions><speed>0.000000</speed><course>274.056000</course><hAcc>0.918664</hAcc><vAcc>0.752822</vAcc></extensions></trkpt>
      <trkpt lon="-4.153598" lat="53.008606"><ele>647.129700</ele><time>2021-07-17T12:05:27Z</time><extensions><speed>0.000000</speed><course>273.580658</course><hAcc>0.918142</hAcc><vAcc>0.751677</vAcc></extensions></trkpt>
      <trkpt lon="-4.153598" lat="53.008606"><ele>647.129700</ele><time>2021-07-17T12:05:28Z</time><extensions><speed>0.000000</speed><course>266.285736</course><hAcc>0.917331</hAcc><vAcc>0.750110</vAcc></extensions></trkpt>
      <trkpt lon="-4.153598" lat="53.008606"><ele>647.129700</ele><time>2021-07-17T12:05:29Z</time><extensions><speed>0.000000</speed><course>280.416809</course><hAcc>0.916265</hAcc><vAcc>0.748395</vAcc></extensions></trkpt>
      <trkpt lon="-4.153598" lat="53.008606"><ele>647.129700</ele><time>2021-07-17T12:05:30Z</time><extensions><speed>0.000000</speed><course>289.633057</course><hAcc>0.915244</hAcc><vAcc>0.747112</vAcc></extensions></trkpt>
      <trkpt lon="-4.153598" lat="53.008606"><ele>647.129700</ele><time>2021-07-17T12:05:31Z</time><extensions><speed>0.000000</speed><course>274.042023</course><hAcc>0.915098</hAcc><vAcc>0.747349</vAcc></extensions></trkpt>
      <trkpt lon="-4.153598" lat="53.008606"><ele>647.129700</ele><time>2021-07-17T12:05:32Z</time><extensions><speed>0.000000</speed><course>259.398621</course><hAcc>0.917556</hAcc><vAcc>0.750938</vAcc></extensions></trkpt>
      <trkpt lon="-4.153598" lat="53.008606"><ele>647.129700</ele><time>2021-07-17T12:05:33Z</time><extensions><speed>0.000000</speed><course>235.228027</course><hAcc>0.925681</hAcc><vAcc>0.760690</vAcc></extensions></trkpt>
      <trkpt lon="-4.153598" lat="53.008606"><ele>647.129700</ele><time>2021-07-17T12:05:34Z</time><extensions><speed>0.000000</speed><course>233.943741</course><hAcc>0.944273</hAcc><vAcc>0.780512</vAcc></extensions></trkpt>
      <trkpt lon="-4.153598" lat="53.008606"><ele>647.129700</ele><time>2021-07-17T12:05:35Z</time><extensions><speed>0.000000</speed><course>251.986771</course><hAcc>0.979980</hAcc><vAcc>0.815241</vAcc></extensions></trkpt>
      <trkpt lon="-4.153598" lat="53.008606"><ele>647.129700</ele><time>2021-07-17T12:05:36Z</time><extensions><speed>0.000000</speed><course>207.637573</course><hAcc>0.941612</hAcc><vAcc>0.779280</vAcc></extensions></trkpt>
      <trkpt lon="-4.153598" lat="53.008606"><ele>647.129700</ele><time>2021-07-17T12:05:37Z</time><extensions><speed>0.000000</speed><course>199.781464</course><hAcc>0.922128</hAcc><vAcc>0.758013</vAcc></extensions></trkpt>
      <trkpt lon="-4.153598" lat="53.008606"><ele>647.129700</ele><time>2021-07-17T12:05:38Z</time><extensions><speed>0.000000</speed><course>204.898392</course><hAcc>0.914277</hAcc><vAcc>0.747818</vAcc></extensions></trkpt>
      <trkpt lon="-4.153598" lat="53.008606"><ele>647.129700</ele><time>2021-07-17T12:05:39Z</time><extensions><speed>0.000000</speed><course>218.988647</course><hAcc>0.912587</hAcc><vAcc>0.744352</vAcc></extensions></trkpt>
      <trkpt lon="-4.153598" lat="53.008606"><ele>647.129700</ele><time>2021-07-17T12:05:40Z</time><extensions><speed>0.000000</speed><course>240.875916</course><hAcc>0.913568</hAcc><vAcc>0.744473</vAcc></extensions></trkpt>
      <trkpt lon="-4.153598" lat="53.008606"><ele>647.129700</ele><time>2021-07-17T12:05:41Z</time><extensions><speed>0.000000</speed><course>240.875916</course><hAcc>0.915268</hAcc><vAcc>0.746139</vAcc></extensions></trkpt>
      <trkpt lon="-4.153598" lat="53.008606"><ele>647.129700</ele><time>2021-07-17T12:05:42Z</time><extensions><speed>0.000000</speed><course>240.875916</course><hAcc>0.916772</hAcc><vAcc>0.748154</vAcc></extensions></trkpt>
      <trkpt lon="-4.153598" lat="53.008606"><ele>647.129700</ele><time>2021-07-17T12:05:43Z</time><extensions><speed>0.000000</speed><course>240.875916</course><hAcc>0.917784</hAcc><vAcc>0.749902</vAcc></extensions></trkpt>
      <trkpt lon="-4.153598" lat="53.008606"><ele>647.129700</ele><time>2021-07-17T12:05:44Z</time><extensions><speed>0.000000</speed><course>240.875916</course><hAcc>0.918317</hAcc><vAcc>0.751118</vAcc></extensions></trkpt>
      <trkpt lon="-4.153598" lat="53.008606"><ele>647.129700</ele><time>2021-07-17T12:05:45Z</time><extensions><speed>0.000000</speed><course>240.875916</course><hAcc>0.918495</hAcc><vAcc>0.751727</vAcc></extensions></trkpt>
      <trkpt lon="-4.153598" lat="53.008606"><ele>647.129700</ele><time>2021-07-17T12:05:46Z</time><extensions><speed>0.000000</speed><course>269.430084</course><hAcc>0.918430</hAcc><vAcc>0.751730</vAcc></extensions></trkpt>
      <trkpt lon="-4.153598" lat="53.008606"><ele>647.129700</ele><time>2021-07-17T12:05:47Z</time><extensions><speed>0.000000</speed><course>274.056000</course><hAcc>0.918165</hAcc><vAcc>0.751158</vAcc></extensions></trkpt>
      <trkpt lon="-4.153598" lat="53.008606"><ele>647.129700</ele><time>2021-07-17T12:05:48Z</time><extensions><speed>0.000000</speed><course>273.580658</course><hAcc>0.917670</hAcc><vAcc>0.750060</vAcc></extensions></trkpt>
      <trkpt lon="-4.153598" lat="53.008606"><ele>647.129700</ele><time>2021-07-17T12:05:49Z</time><extensions><speed>0.000000</speed><course>266.285736</course><hAcc>0.916873</hAcc><vAcc>0.748535</vAcc></extensions></trkpt>
      <trkpt lon="-4.153598" lat="53.008606"><ele>647.129700</ele><time>2021-07-17T12:05:50Z</time><extensions><speed>0.000000</speed><course>280.416809</course><hAcc>0.915806</hAcc><vAcc>0.746855</vAcc></extensions></trkpt>
      <trkpt lon="-4.153598" lat="53.008606"><ele>647.129700</ele><time>2021-07-17T12:05:51Z</time><extensions><speed>0.000000</speed><course>289.633057</course><hAcc>0.914783</hAcc><vAcc>0.745607</vAcc></extensions></trkpt>
      <trkpt lon="-4.153598" lat="53.008606"><ele>647.129700</ele><time>2021-07-17T12:05:52Z</time><extensions><speed>0.000000</speed><course>274.042023</course><hAcc>0.914631</hAcc><vAcc>0.745868</vAcc></extensions></trkpt>
      <trkpt lon="-4.153598" lat="53.008606"><ele>647.129700</ele><time>2021-07-17T12:05:53Z</time><extensions><speed>0.000000</speed><course>259.398621</course><hAcc>0.917074</hAcc><vAcc>0.749463</vAcc></extensions></trkpt>
      <trkpt lon="-4.153598" lat="53.008606"><ele>647.129700</ele><time>2021-07-17T12:05:54Z</time><extensions><speed>0.000000</speed><course>235.228027</course><hAcc>0.925173</hAcc><vAcc>0.759196</vAcc></extensions></trkpt>
      <trkpt lon="-4.153598" lat="53.008606"><ele>647.129700</ele><time>2021-07-17T12:05:55Z</time><extensions><speed>0.000000</speed><course>233.943741</course><hAcc>0.943728</hAcc><vAcc>0.778967</vAcc></extensions></trkpt>
      <trkpt lon="-4.153598" lat="53.008606"><ele>647.129700</ele><time>2021-07-17T12:05:56Z</time><extensions><speed>0.000000</speed><course>251.986771</course><hAcc>0.979391</hAcc><vAcc>0.813615</vAcc></extensions></trkpt>
      <trkpt lon="-4.153598" lat="53.008606"><ele>647.129700</ele><time>2021-07-17T12:05:57Z</time><extensions><speed>0.000000</speed><course>207.637573</course><hAcc>0.941053</hAcc><vAcc>0.777757</vAcc></extensions></trkpt>
      <trkpt lon="-4.153598" lat="53.008606"><ele>647.129700</ele><time>2021-07-17T12:05:58Z</time><extensions><speed>0.000000</speed><course>199.781464</course><hAcc>0.921631</hAcc><vAcc>0.756633</vAcc></extensions></trkpt>
      <trkpt lon="-4.153598" lat="53.008606"><ele>647.129700</ele><time>2021-07-17T12:05:59Z</time><extensions><speed>0.000000</speed><course>204.898392</course><hAcc>0.913829</hAcc><vAcc>0.746542</vAcc></extensions></trkpt>
      <trkpt lon="-4.153598" lat="53.008606"><ele>647.129700</ele><time>2021-07-17T12:06:00Z</time><extensions><speed>0.000000</speed><course>218.988647</course><hAcc>0.912171</hAcc><vAcc>0.743145</vAcc></extensions></trkpt>
      <trkpt lon="-4.153598" lat="53.008606"><ele>647.129700</ele><time>2021-07-17T12:06:01Z</time><extensions><speed>0.000000</speed><course>240.875916</course><hAcc>0.913168</hAcc><vAcc>0.743305</vAcc></extensions></trkpt>
      <trkpt lon="-4.153598" lat="53.008606"><ele>647.129700</ele><time>2021-07-17T12:06:02Z</time><extensions><speed>0.000000</speed><course>240.875916</course><hAcc>0.914871</hAcc><vAcc>0.744990</vAcc></extensions></trkpt>
      <trkpt lon="-4.153598" lat="53.008606"><ele>647.129700</ele><time>2021-07-17T12:06:03Z</time><extensions><speed>0.000000</speed><course>240.875916</course><hAcc>0.916367</hAcc><vAcc>0.747011</vAcc></extensions></trkpt>
      <trkpt lon="-4.153598" lat="53.008606"><ele>647.129700</ele><time>2021-07-17T12:06:04Z</time><extensions><speed>0.000000</speed><course>240.875916</course><hAcc>0.917362</hAcc><vAcc>0.748757</vAcc></extensions></trkpt>
      <trkpt lon="-4.153598" lat="53.008606"><ele>647.129700</ele><time>2021-07-17T12:06:05Z</time><extensions><speed>0.000000</speed><course>240.875916</course><hAcc>0.917888</hAcc><vAcc>0.749979</vAcc></extensions></trkpt>
      <trkpt lon="-4.153598" lat="53.008606"><ele>647.129700</ele><time>2021-07-17T12:06:06Z</time><extensions><speed>0.000000</speed><course>240.875916</course><hAcc>0.918074</hAcc><vAcc>0.750606</vAcc></extensions></trkpt>
      <trkpt lon="-4.153598" lat="53.008606"><ele>647.129700</ele><time>2021-07-17T12:06:07Z</time><extensions><speed>0.000000</speed><course>269.430084</course><hAcc>0.918011</hAcc><vAcc>0.750627</vAcc></extensions></trkpt>
      <trkpt lon="-4.153598" lat="53.008606"><ele>647.129700</ele><time>2021-07-17T12:06:08Z</time><extensions><speed>0.000000</speed><course>274.056000</course><hAcc>0.917743</hAcc><vAcc>0.750070</vAcc></extensions></trkpt>
      <trkpt lon="-4.153598" lat="53.008606"><ele>647.129700</ele><time>2021-07-17T12:06:08Z</time><extensions><speed>0.000000</speed><course>273.580658</course><hAcc>0.917258</hAcc><vAcc>0.748998</vAcc></extensions></trkpt>
      <trkpt lon="-4.153598" lat="53.008606"><ele>647.129700</ele><time>2021-07-17T12:06:09Z</time><extensions><speed>0.000000</speed><course>266.285736</course><hAcc>0.916503</hAcc><vAcc>0.747521</vAcc></extensions></trkpt>
      <trkpt lon="-4.153598" lat="53.008606"><ele>647.129700</ele><time>2021-07-17T12:06:11Z</time><extensions><speed>0.000000</speed><course>280.416809</course><hAcc>0.915470</hAcc><vAcc>0.745880</vAcc></extensions></trkpt>
      <trkpt lon="-4.153598" lat="53.008606"><ele>647.129700</ele><time>2021-07-17T12:06:12Z</time><extensions><speed>0.000000</speed><course>289.633057</course><hAcc>0.914456</hAcc><vAcc>0.744649</vAcc></extensions></trkpt>
      <trkpt lon="-4.153598" lat="53.008606"><ele>647.129700</ele><time>2021-07-17T12:06:13Z</time><extensions><speed>0.000000</speed><course>274.042023</course><hAcc>0.914305</hAcc><vAcc>0.744915</vAcc></extensions></trkpt>
      <trkpt lon="-4.153598" lat="53.008606"><ele>647.129700</ele><time>2021-07-17T12:06:14Z</time><extensions><speed>0.000000</speed><course>259.398621</course><hAcc>0.916741</hAcc><vAcc>0.748499</vAcc></extensions></trkpt>
      <trkpt lon="-4.153598" lat="53.008606"><ele>647.129700</ele><time>2021-07-17T12:06:15Z</time><extensions><speed>0.000000</speed><course>235.228027</course><hAcc>0.924823</hAcc><vAcc>0.758200</vAcc></extensions></trkpt>
      <trkpt lon="-4.153598" lat="53.008606"><ele>647.129700</ele><time>2021-07-17T12:06:16Z</time><extensions><speed>0.000000</speed><course>233.943741</course><hAcc>0.943351</hAcc><vAcc>0.777917</vAcc></extensions></trkpt>
      <trkpt lon="-4.153598" lat="53.008606"><ele>647.129700</ele><time>2021-07-17T12:06:17Z</time><extensions><speed>0.000000</speed><course>251.986771</course><hAcc>0.978980</hAcc><vAcc>0.812491</vAcc></extensions></trkpt>
      <trkpt lon="-4.153598" lat="53.008606"><ele>647.129700</ele><time>2021-07-17T12:06:18Z</time><extensions><speed>0.000000</speed><course>207.637573</course><hAcc>0.940691</hAcc><vAcc>0.776733</vAcc></extensions></trkpt>
      <trkpt lon="-4.153598" lat="53.008606"><ele>647.129700</ele><time>2021-07-17T12:06:19Z</time><extensions><speed>0.000000</speed><course>199.781464</course><hAcc>0.921315</hAcc><vAcc>0.755707</vAcc></extensions></trkpt>
      <trkpt lon="-4.153598" lat="53.008606"><ele>647.129700</ele><time>2021-07-17T12:06:20Z</time><extensions><speed>0.000000</speed><course>204.898392</course><hAcc>0.913552</hAcc><vAcc>0.745694</vAcc></extensions></trkpt>
      <trkpt lon="-4.153598" lat="53.008606"><ele>647.129700</ele><time>2021-07-17T12:06:21Z</time><extensions><speed>0.000000</speed><course>218.988647</course><hAcc>0.911925</hAcc><vAcc>0.742353</vAcc></extensions></trkpt>
      <trkpt lon="-4.153598" lat="53.008606"><ele>647.129700</ele><time>2021-07-17T12:06:22Z</time><extensions><speed>0.000000</speed><course>240.875916</course><hAcc>0.912946</hAcc><vAcc>0.742555</vAcc></extensions></trkpt>
      <trkpt lon="-4.153598" lat="53.008606"><ele>647.129700</ele><time>2021-07-17T12:06:23Z</time><extensions><speed>0.000000</speed><course>240.875916</course><hAcc>0.914669</hAcc><vAcc>0.744269</vAcc></extensions></trkpt>
      <trkpt lon="-4.153598" lat="53.008606"><ele>647.129700</ele><time>2021-07-17T12:06:24Z</time><extensions><speed>0.000000</speed><course>240.875916</course><hAcc>0.916182</hAcc><vAcc>0.746314</vAcc></extensions></trkpt>
      <trkpt lon="-4.153598" lat="53.008606"><ele>647.129700</ele><time>2021-07-17T12:06:25Z</time><extensions><speed>0.000000</speed><course>240.875916</course><hAcc>0.917195</hAcc><vAcc>0.748081</vAcc></extensions></trkpt>
      <trkpt lon="-4.153598" lat="53.008606"><ele>647.129700</ele><time>2021-07-17T12:06:26Z</time><extensions><speed>0.000000</speed><course>240.875916</course><hAcc>0.917726</hAcc><vAcc>0.749314</vAcc></extensions></trkpt>
      <trkpt lon="-4.153598" lat="53.008606"><ele>647.129700</ele><time>2021-07-17T12:06:27Z</time><extensions><speed>0.000000</speed><course>240.875916</course><hAcc>0.917901</hAcc><vAcc>0.749940</vAcc></extensions></trkpt>
      <trkpt lon="-4.153598" lat="53.008606"><ele>647.129700</ele><time>2021-07-17T12:06:28Z</time><extensions><speed>0.000000</speed><course>269.430084</course><hAcc>0.917834</hAcc><vAcc>0.749965</vAcc></extensions></trkpt>
      <trkpt lon="-4.153598" lat="53.008606"><ele>647.129700</ele><time>2021-07-17T12:06:29Z</time><extensions><speed>0.000000</speed><course>274.056000</course><hAcc>0.917568</hAcc><vAcc>0.749416</vAcc></extensions></trkpt>
      <trkpt lon="-4.153598" lat="53.008606"><ele>647.129700</ele><time>2021-07-17T12:06:30Z</time><extensions><speed>0.000000</speed><course>273.580658</course><hAcc>0.917070</hAcc><vAcc>0.748343</vAcc></extensions></trkpt>
      <trkpt lon="-4.153598" lat="53.008606"><ele>647.129700</ele><time>2021-07-17T12:06:31Z</time><extensions><speed>0.000000</speed><course>266.285736</course><hAcc>0.916286</hAcc><vAcc>0.746856</vAcc></extensions></trkpt>
      <trkpt lon="-4.153598" lat="53.008606"><ele>647.129700</ele><time>2021-07-17T12:06:32Z</time><extensions><speed>0.000000</speed><course>280.416809</course><hAcc>0.915245</hAcc><vAcc>0.745220</vAcc></extensions></trkpt>
      <trkpt lon="-4.153598" lat="53.008606"><ele>647.129700</ele><time>2021-07-17T12:06:33Z</time><extensions><speed>0.000000</speed><course>289.633057</course><hAcc>0.914239</hAcc><vAcc>0.744004</vAcc></extensions></trkpt>
      <trkpt lon="-4.153598" lat="53.008606"><ele>647.129700</ele><time>2021-07-17T12:06:34Z</time><extensions><speed>0.000000</speed><course>274.042023</course><hAcc>0.914091</hAcc><vAcc>0.744280</vAcc></extensions></trkpt>
      <trkpt lon="-4.153598" lat="53.008606"><ele>647.129700</ele><time>2021-07-17T12:06:35Z</time><extensions><speed>0.000000</speed><course>259.398621</course><hAcc>0.916525</hAcc><vAcc>0.747867</vAcc></extensions></trkpt>
      <trkpt lon="-4.153598" lat="53.008606"><ele>647.129700</ele><time>2021-07-17T12:06:36Z</time><extensions><speed>0.000000</speed><course>235.228027</course><hAcc>0.924600</hAcc><vAcc>0.757563</vAcc></extensions></trkpt>
      <trkpt lon="-4.153598" lat="53.008606"><ele>647.129700</ele><time>2021-07-17T12:06:37Z</time><extensions><speed>0.000000</speed><course>233.943741</course><hAcc>0.943117</hAcc><vAcc>0.777264</vAcc></extensions></trkpt>
      <trkpt lon="-4.153598" lat="53.008606"><ele>647.129700</ele><time>2021-07-17T12:06:38Z</time><extensions><speed>0.000000</speed><course>251.986771</course><hAcc>0.978732</hAcc><vAcc>0.811810</vAcc></extensions></trkpt>
      <trkpt lon="-4.153598" lat="53.008606"><ele>647.129700</ele><time>2021-07-17T12:06:39Z</time><extensions><speed>0.000000</speed><course>207.637573</course><hAcc>0.940461</hAcc><vAcc>0.776099</vAcc></extensions></trkpt>
      <trkpt lon="-4.153598" lat="53.008606"><ele>647.129700</ele><time>2021-07-17T12:06:40Z</time><extensions><speed>0.000000</speed><course>199.781464</course><hAcc>0.921116</hAcc><vAcc>0.755144</vAcc></extensions></trkpt>
      <trkpt lon="-4.153598" lat="53.008606"><ele>647.129700</ele><time>2021-07-17T12:06:41Z</time><extensions><speed>0.000000</speed><course>204.898392</course><hAcc>0.913377</hAcc><vAcc>0.745185</vAcc></extensions></trkpt>
      <trkpt lon="-4.153598" lat="53.008606"><ele>647.129700</ele><time>2021-07-17T12:06:42Z</time><extensions><speed>0.000000</speed><course>218.988647</course><hAcc>0.911768</hAcc><vAcc>0.741883</vAcc></extensions></trkpt>
      <trkpt lon="-4.153598" lat="53.008606"><ele>647.129700</ele><time>2021-07-17T12:06:43Z</time><extensions><speed>0.000000</speed><course>240.875916</course><hAcc>0.912801</hAcc><vAcc>0.742110</vAcc></extensions></trkpt>
      <trkpt lon="-4.153598" lat="53.008606"><ele>647.129700</ele><time>2021-07-17T12:06:44Z</time><extensions><speed>0.000000</speed><course>240.875916</course><hAcc>0.914530</hAcc><vAcc>0.743840</vAcc></extensions></trkpt>
      <trkpt lon="-4.153598" lat="53.008606"><ele>647.129700</ele><time>2021-07-17T12:06:45Z</time><extensions><speed>0.000000</speed><course>240.875916</course><hAcc>0.916048</hAcc><vAcc>0.745894</vAcc></extensions></trkpt>
      <trkpt lon="-4.153598" lat="53.008606"><ele>647.129700</ele><time>2021-07-17T12:06:46Z</time><extensions><speed>0.000000</speed><course>240.875916</course><hAcc>0.917063</hAcc><vAcc>0.747667</vAcc></extensions></trkpt>
      <trkpt lon="-4.153598" lat="53.008606"><ele>647.129700</ele><time>2021-07-17T12:06:47Z</time><extensions><speed>0.000000</speed><course>240.875916</course><hAcc>0.917594</hAcc><vAcc>0.748904</vAcc></extensions></trkpt>
      <trkpt lon="-4.153598" lat="53.008606"><ele>647.129700</ele><time>2021-07-17T12:06:48Z</time><extensions><speed>0.000000</speed><course>240.875916</course><hAcc>0.917770</hAcc><vAcc>0.749535</vAcc></extensions></trkpt>
      <trkpt lon="-4.153598" lat="53.008606"><ele>647.129700</ele><time>2021-07-17T12:06:49Z</time><extensions><speed>0.000000</speed><course>269.430084</course><hAcc>0.917704</hAcc><vAcc>0.749564</vAcc></extensions></trkpt>
      <trkpt lon="-4.153598" lat="53.008606"><ele>647.129700</ele><time>2021-07-17T12:06:50Z</time><extensions><speed>0.000000</speed><course>274.056000</course><hAcc>0.917439</hAcc><vAcc>0.749021</vAcc></extensions></trkpt>
      <trkpt lon="-4.153598" lat="53.008606"><ele>647.129700</ele><time>2021-07-17T12:06:51Z</time><extensions><speed>0.000000</speed><course>273.580658</course><hAcc>0.916943</hAcc><vAcc>0.747953</vAcc></extensions></trkpt>
      <trkpt lon="-4.153598" lat="53.008606"><ele>647.129700</ele><time>2021-07-17T12:06:52Z</time><extensions><speed>0.000000</speed><course>266.285736</course><hAcc>0.916161</hAcc><vAcc>0.746469</vAcc></extensions></trkpt>
      <trkpt lon="-4.153598" lat="53.008606"><ele>647.129700</ele><time>2021-07-17T12:06:53Z</time><extensions><speed>0.000000</speed><course>280.416809</course><hAcc>0.915119</hAcc><vAcc>0.744833</vAcc></extensions></trkpt>
      <trkpt lon="-4.153598" lat="53.008606"><ele>647.129700</ele><time>2021-07-17T12:06:54Z</time><extensions><speed>0.000000</speed><course>289.633057</course><hAcc>0.914109</hAcc><vAcc>0.743612</vAcc></extensions></trkpt>
      <trkpt lon="-4.153598" lat="53.008606"><ele>647.129700</ele><time>2021-07-17T12:06:55Z</time><extensions><speed>0.000000</speed><course>274.042023</course><hAcc>0.913955</hAcc><vAcc>0.743875</vAcc></extensions></trkpt>
      <trkpt lon="-4.153598" lat="53.008606"><ele>647.129700</ele><time>2021-07-17T12:06:56Z</time><extensions><speed>0.000000</speed><course>259.398621</course><hAcc>0.916377</hAcc><vAcc>0.747438</vAcc></extensions></trkpt>
      <trkpt lon="-4.153598" lat="53.008606"><ele>647.129700</ele><time>2021-07-17T12:06:57Z</time><extensions><speed>0.000000</speed><course>235.228027</course><hAcc>0.924435</hAcc><vAcc>0.757095</vAcc></extensions></trkpt>
      <trkpt lon="-4.153598" lat="53.008606"><ele>647.129700</ele><time>2021-07-17T12:06:58Z</time><extensions><speed>0.000000</speed><course>233.943741</course><hAcc>0.942929</hAcc><vAcc>0.776744</vAcc></extensions></trkpt>
      <trkpt lon="-4.153598" lat="53.008606"><ele>647.129700</ele><time>2021-07-17T12:06:59Z</time><extensions><speed>0.000000</speed><course>251.986771</course><hAcc>0.978518</hAcc><vAcc>0.811226</vAcc></extensions></trkpt>
      <trkpt lon="-4.153598" lat="53.008606"><ele>647.129700</ele><time>2021-07-17T12:07:00Z</time><extensions><speed>0.000000</speed><course>207.637573</course><hAcc>0.940346</hAcc><vAcc>0.775760</vAcc></extensions></trkpt>
      <trkpt lon="-4.153598" lat="53.008606"><ele>647.129700</ele><time>2021-07-17T12:07:01Z</time><extensions><speed>0.000000</speed><course>199.781464</course><hAcc>0.921043</hAcc><vAcc>0.754917</vAcc></extensions></trkpt>
      <trkpt lon="-4.153598" lat="53.008606"><ele>647.129700</ele><time>2021-07-17T12:07:02Z</time><extensions><speed>0.000000</speed><course>204.898392</course><hAcc>0.913345</hAcc><vAcc>0.745076</vAcc></extensions></trkpt>
      <trkpt lon="-4.153598" lat="53.008606"><ele>647.129700</ele><time>2021-07-17T12:07:03Z</time><extensions><speed>0.000000</speed><course>218.988647</course><hAcc>0.911773</hAcc><vAcc>0.741893</vAcc></extensions></trkpt>
      <trkpt lon="-4.153598" lat="53.008606"><ele>647.129700</ele><time>2021-07-17T12:07:04Z</time><extensions><speed>0.000000</speed><course>240.875916</course><hAcc>0.912840</hAcc><vAcc>0.742237</vAcc></extensions></trkpt>
      <trkpt lon="-4.153598" lat="53.008606"><ele>647.129700</ele><time>2021-07-17T12:07:05Z</time><extensions><speed>0.000000</speed><course>240.875916</course><hAcc>0.914600</hAcc><vAcc>0.744077</vAcc></extensions></trkpt>
      <trkpt lon="-4.153598" lat="53.008606"><ele>647.129700</ele><time>2021-07-17T12:07:06Z</time><extensions><speed>0.000000</speed><course>240.875916</course><hAcc>0.916144</hAcc><vAcc>0.746227</vAcc></extensions></trkpt>
      <trkpt lon="-4.153598" lat="53.008606"><ele>647.129700</ele><time>2021-07-17T12:07:07Z</time><extensions><speed>0.000000</speed><course>240.875916</course><hAcc>0.917182</hAcc><vAcc>0.748077</vAcc></extensions></trkpt>
      <trkpt lon="-4.153598" lat="53.008606"><ele>647.129700</ele><time>2021-07-17T12:07:08Z</time><extensions><speed>0.000000</speed><course>240.875916</course><hAcc>0.917733</hAcc><vAcc>0.749371</vAcc></extensions></trkpt>
      <trkpt lon="-4.153598" lat="53.008606"><ele>647.129700</ele><time>2021-07-17T12:07:09Z</time><extensions><speed>0.000000</speed><course>240.875916</course><hAcc>0.917924</hAcc><vAcc>0.750041</vAcc></extensions></trkpt>
      <trkpt lon="-4.153598" lat="53.008606"><ele>647.129700</ele><time>2021-07-17T12:07:10Z</time><extensions><speed>0.000000</speed><course>269.430084</course><hAcc>0.917869</hAcc><vAcc>0.750096</vAcc></extensions></trkpt>
      <trkpt lon="-4.153598" lat="53.008606"><ele>647.129700</ele><time>2021-07-17T12:07:11Z</time><extensions><speed>0.000000</speed><course>274.056000</course><hAcc>0.917610</hAcc><vAcc>0.749569</vAcc></extensions></trkpt>
      <trkpt lon="-4.153598" lat="53.008606"><ele>647.129700</ele><time>2021-07-17T12:07:12Z</time><extensions><speed>0.000000</speed><course>273.580658</course><hAcc>0.917116</hAcc><vAcc>0.748508</vAcc></extensions></trkpt>
      <trkpt lon="-4.153598" lat="53.008606"><ele>647.129700</ele><time>2021-07-17T12:07:13Z</time><extensions><speed>0.000000</speed><course>266.285736</course><hAcc>0.916332</hAcc><vAcc>0.747023</vAcc></extensions></trkpt>
      <trkpt lon="-4.153598" lat="53.008606"><ele>647.129700</ele><time>2021-07-17T12:07:14Z</time><extensions><speed>0.000000</speed><course>280.416809</course><hAcc>0.915286</hAcc><vAcc>0.745378</vAcc></extensions></trkpt>
      <trkpt lon="-4.153598" lat="53.008606"><ele>647.129700</ele><time>2021-07-17T12:07:15Z</time><extensions><speed>0.000000</speed><course>289.633057</course><hAcc>0.914271</hAcc><vAcc>0.744140</vAcc></extensions></trkpt>
      <trkpt lon="-4.153598" lat="53.008606"><ele>647.129700</ele><time>2021-07-17T12:07:16Z</time><extensions><speed>0.000000</speed><course>274.042023</course><hAcc>0.914110</hAcc><vAcc>0.744378</vAcc></extensions></trkpt>
      <trkpt lon="-4.153598" lat="53.008606"><ele>647.129700</ele><time>2021-07-17T12:07:17Z</time><extensions><speed>0.000000</speed><course>259.398621</course><hAcc>0.916525</hAcc><vAcc>0.747908</vAcc></extensions></trkpt>
      <trkpt lon="-4.153598" lat="53.008606"><ele>647.129700</ele><time>2021-07-17T12:07:18Z</time><extensions><speed>0.000000</speed><course>235.228027</course><hAcc>0.924576</hAcc><vAcc>0.757529</vAcc></extensions></trkpt>
      <trkpt lon="-4.153598" lat="53.008606"><ele>647.129700</ele><time>2021-07-17T12:07:19Z</time><extensions><speed>0.000000</speed><course>233.943741</course><hAcc>0.943063</hAcc><vAcc>0.777139</vAcc></extensions></trkpt>
      <trkpt lon="-4.153598" lat="53.008606"><ele>647.129700</ele><time>2021-07-17T12:07:20Z</time><extensions><speed>0.000000</speed><course>251.986771</course><hAcc>0.978644</hAcc><vAcc>0.811583</vAcc></extensions></trkpt>
      <trkpt lon="-4.153598" lat="53.008606"><ele>647.129700</ele><time>2021-07-17T12:07:21Z</time><extensions><speed>0.000000</speed><course>207.637573</course><hAcc>0.940550</hAcc><vAcc>0.776261</vAcc></extensions></trkpt>
      <trkpt lon="-4.153598" lat="53.008606"><ele>647.129700</ele><time>2021-07-17T12:07:22Z</time><extensions><speed>0.000000</speed><course>199.781464</course><hAcc>0.921234</hAcc><vAcc>0.755371</vAcc></extensions></trkpt>
      <trkpt lon="-4.153598" lat="53.008606"><ele>647.129700</ele><time>2021-07-17T12:07:23Z</time><extensions><speed>0.000000</speed><course>204.898392</course><hAcc>0.913537</hAcc><vAcc>0.745535</vAcc></extensions></trkpt>
      <trkpt lon="-4.153598" lat="53.008606"><ele>647.129700</ele><time>2021-07-17T12:07:24Z</time><extensions><speed>0.000000</speed><course>218.988647</course><hAcc>0.911982</hAcc><vAcc>0.742407</vAcc></extensions></trkpt>
      <trkpt lon="-4.153598" lat="53.008606"><ele>647.129700</ele><time>2021-07-17T12:07:25Z</time><extensions><speed>0.000000</speed><course>240.875916</course><hAcc>0.913078</hAcc><vAcc>0.742852</vAcc></extensions></trkpt>
      <trkpt lon="-4.153598" lat="53.008606"><ele>647.129700</ele><time>2021-07-17T12:07:26Z</time><extensions><speed>0.000000</speed><course>240.875916</course><hAcc>0.914876</hAcc><vAcc>0.744834</vAcc></extensions></trkpt>
      <trkpt lon="-4.153598" lat="53.008606"><ele>647.129700</ele><time>2021-07-17T12:07:27Z</time><extensions><speed>0.000000</speed><course>240.875916</course><hAcc>0.916464</hAcc><vAcc>0.747157</vAcc></extensions></trkpt>
      <trkpt lon="-4.153598" lat="53.008606"><ele>647.129700</ele><time>2021-07-17T12:07:28Z</time><extensions><speed>0.000000</speed><course>240.875916</course><hAcc>0.917547</hAcc><vAcc>0.749199</vAcc></extensions></trkpt>
      <trkpt lon="-4.153598" lat="53.008606"><ele>647.129700</ele><time>2021-07-17T12:07:29Z</time><extensions><speed>0.000000</speed><course>240.875916</course><hAcc>0.918144</hAcc><vAcc>0.750683</vAcc></extensions></trkpt>
      <trkpt lon="-4.153598" lat="53.008606"><ele>647.129700</ele><time>2021-07-17T12:07:30Z</time><extensions><speed>0.000000</speed><course>240.875916</course><hAcc>0.918377</hAcc><vAcc>0.751524</vAcc></extensions></trkpt>
      <trkpt lon="-4.153598" lat="53.008606"><ele>647.129700</ele><time>2021-07-17T12:07:31Z</time><extensions><speed>0.000000</speed><course>269.430084</course><hAcc>0.918360</hAcc><vAcc>0.751720</vAcc></extensions></trkpt>
      <trkpt lon="-4.153598" lat="53.008606"><ele>647.129700</ele><time>2021-07-17T12:07:32Z</time><extensions><speed>0.000000</speed><course>274.056000</course><hAcc>0.918133</hAcc><vAcc>0.751299</vAcc></extensions></trkpt>
      <trkpt lon="-4.153598" lat="53.008606"><ele>647.129700</ele><time>2021-07-17T12:07:33Z</time><extensions><speed>0.000000</speed><course>273.580658</course><hAcc>0.917666</hAcc><vAcc>0.750315</vAcc></extensions></trkpt>
      <trkpt lon="-4.153598" lat="53.008606"><ele>647.129700</ele><time>2021-07-17T12:07:34Z</time><extensions><speed>0.000000</speed><course>266.285736</course><hAcc>0.916904</hAcc><vAcc>0.748882</vAcc></extensions></trkpt>
      <trkpt lon="-4.153598" lat="53.008606"><ele>647.129700</ele><time>2021-07-17T12:07:35Z</time><extensions><speed>0.000000</speed><course>280.416809</course><hAcc>0.915879</hAcc><vAcc>0.747276</vAcc></extensions></trkpt>
      <trkpt lon="-4.153598" lat="53.008606"><ele>647.129700</ele><time>2021-07-17T12:07:36Z</time><extensions><speed>0.000000</speed><course>289.633057</course><hAcc>0.914887</hAcc><vAcc>0.746074</vAcc></extensions></trkpt>
      <trkpt lon="-4.153598" lat="53.008606"><ele>647.129700</ele><time>2021-07-17T12:07:37Z</time><extensions><speed>0.000000</speed><course>274.042023</course><hAcc>0.914755</hAcc><vAcc>0.746357</vAcc></extensions></trkpt>
      <trkpt lon="-4.153598" lat="53.008606"><ele>647.129700</ele><time>2021-07-17T12:07:38Z</time><extensions><speed>0.000000</speed><course>259.398621</course><hAcc>0.917210</hAcc><vAcc>0.749951</vAcc></extensions></trkpt>
      <trkpt lon="-4.153598" lat="53.008606"><ele>647.129700</ele><time>2021-07-17T12:07:39Z</time><extensions><speed>0.000000</speed><course>235.228027</course><hAcc>0.925311</hAcc><vAcc>0.759657</vAcc></extensions></trkpt>
      <trkpt lon="-4.153598" lat="53.008606"><ele>647.129700</ele><time>2021-07-17T12:07:40Z</time><extensions><speed>0.000000</speed><course>233.943741</course><hAcc>0.943857</hAcc><vAcc>0.779374</vAcc></extensions></trkpt>
      <trkpt lon="-4.153598" lat="53.008606"><ele>647.129700</ele><time>2021-07-17T12:07:41Z</time><extensions><speed>0.000000</speed><course>251.986771</course><hAcc>0.979498</hAcc><vAcc>0.813942</vAcc></extensions></trkpt>
      <trkpt lon="-4.153598" lat="53.008606"><ele>647.129700</ele><time>2021-07-17T12:07:42Z</time><extensions><speed>0.000000</speed><course>207.637573</course><hAcc>0.941273</hAcc><vAcc>0.778228</vAcc></extensions></trkpt>
      <trkpt lon="-4.153598" lat="53.008606"><ele>647.129700</ele><time>2021-07-17T12:07:43Z</time><extensions><speed>0.000000</speed><course>199.781464</course><hAcc>0.921807</hAcc><vAcc>0.756979</vAcc></extensions></trkpt>
      <trkpt lon="-4.153598" lat="53.008606"><ele>647.129700</ele><time>2021-07-17T12:07:44Z</time><extensions><speed>0.000000</speed><course>204.898392</course><hAcc>0.913970</hAcc><vAcc>0.746798</vAcc></extensions></trkpt>
      <trkpt lon="-4.153598" lat="53.008606"><ele>647.129700</ele><time>2021-07-17T12:07:45Z</time><extensions><speed>0.000000</speed><course>218.988647</course><hAcc>0.912282</hAcc><vAcc>0.743328</vAcc></extensions></trkpt>
      <trkpt lon="-4.153598" lat="53.008606"><ele>647.129700</ele><time>2021-07-17T12:07:46Z</time><extensions><speed>0.000000</speed><course>240.875916</course><hAcc>0.913255</hAcc><vAcc>0.743434</vAcc></extensions></trkpt>
      <trkpt lon="-4.153598" lat="53.008606"><ele>647.129700</ele><time>2021-07-17T12:07:47Z</time><extensions><speed>0.000000</speed><course>240.875916</course><hAcc>0.914941</hAcc><vAcc>0.745079</vAcc></extensions></trkpt>
      <trkpt lon="-4.153598" lat="53.008606"><ele>647.129700</ele><time>2021-07-17T12:07:48Z</time><extensions><speed>0.000000</speed><course>240.875916</course><hAcc>0.916429</hAcc><vAcc>0.747069</vAcc></extensions></trkpt>
      <trkpt lon="-4.153598" lat="53.008606"><ele>647.129700</ele><time>2021-07-17T12:07:49Z</time><extensions><speed>0.000000</speed><course>240.875916</course><hAcc>0.917424</hAcc><vAcc>0.748791</vAcc></extensions></trkpt>
      <trkpt lon="-4.153598" lat="53.008606"><ele>647.129700</ele><time>2021-07-17T12:07:50Z</time><extensions><speed>0.000000</speed><course>240.875916</course><hAcc>0.917943</hAcc><vAcc>0.749984</vAcc></extensions></trkpt>
      <trkpt lon="-4.153598" lat="53.008606"><ele>647.129700</ele><time>2021-07-17T12:07:51Z</time><extensions><speed>0.000000</speed><course>240.875916</course><hAcc>0.918109</hAcc><vAcc>0.750575</vAcc></extensions></trkpt>
      <trkpt lon="-4.153598" lat="53.008606"><ele>647.129700</ele><time>2021-07-17T12:07:52Z</time><extensions><speed>0.000000</speed><course>269.430084</course><hAcc>0.918035</hAcc><vAcc>0.750569</vAcc></extensions></trkpt>
      <trkpt lon="-4.153598" lat="53.008606"><ele>647.129700</ele><time>2021-07-17T12:07:53Z</time><extensions><speed>0.000000</speed><course>274.056000</course><hAcc>0.917764</hAcc><vAcc>0.749996</vAcc></extensions></trkpt>
      <trkpt lon="-4.153598" lat="53.008606"><ele>647.129700</ele><time>2021-07-17T12:07:54Z</time><extensions><speed>0.000000</speed><course>273.580658</course><hAcc>0.917264</hAcc><vAcc>0.748909</vAcc></extensions></trkpt>
      <trkpt lon="-4.153598" lat="53.008606"><ele>647.129700</ele><time>2021-07-17T12:07:55Z</time><extensions><speed>0.000000</speed><course>266.285736</course><hAcc>0.916481</hAcc><vAcc>0.747420</vAcc></extensions></trkpt>
      <trkpt lon="-4.153598" lat="53.008606"><ele>647.129700</ele><time>2021-07-17T12:07:56Z</time><extensions><speed>0.000000</speed><course>280.416809</course><hAcc>0.915444</hAcc><vAcc>0.745798</vAcc></extensions></trkpt>
      <trkpt lon="-4.153598" lat="53.008606"><ele>647.129700</ele><time>2021-07-17T12:07:57Z</time><extensions><speed>0.000000</speed><course>289.633057</course><hAcc>0.914446</hAcc><vAcc>0.744614</vAcc></extensions></trkpt>
      <trkpt lon="-4.153598" lat="53.008606"><ele>647.129700</ele><time>2021-07-17T12:07:58Z</time><extensions><speed>0.000000</speed><course>274.042023</course><hAcc>0.914313</hAcc><vAcc>0.744940</vAcc></extensions></trkpt>
      <trkpt lon="-4.153598" lat="53.008606"><ele>647.129700</ele><time>2021-07-17T12:07:59Z</time><extensions><speed>0.000000</speed><course>259.398621</course><hAcc>0.916768</hAcc><vAcc>0.748594</vAcc></extensions></trkpt>
      <trkpt lon="-4.153598" lat="53.008606"><ele>647.129700</ele><time>2021-07-17T12:08:00Z</time><extensions><speed>0.000000</speed><course>235.228027</course><hAcc>0.924871</hAcc><vAcc>0.758367</vAcc></extensions></trkpt>
      <trkpt lon="-4.153598" lat="53.008606"><ele>647.129700</ele><time>2021-07-17T12:08:01Z</time><extensions><speed>0.000000</speed><course>233.943741</course><hAcc>0.943422</hAcc><vAcc>0.778152</vAcc></extensions></trkpt>
      <trkpt lon="-4.153598" lat="53.008606"><ele>647.129700</ele><time>2021-07-17T12:08:02Z</time><extensions><speed>0.000000</speed><course>251.986771</course><hAcc>0.979073</hAcc><vAcc>0.812781</vAcc></extensions></trkpt>
      <trkpt lon="-4.153598" lat="53.008606"><ele>647.129700</ele><time>2021-07-17T12:08:03Z</time><extensions><speed>0.000000</speed><course>207.637573</course><hAcc>0.940743</hAcc><vAcc>0.776933</vAcc></extensions></trkpt>
      <trkpt lon="-4.153598" lat="53.008606"><ele>647.129700</ele><time>2021-07-17T12:08:04Z</time><extensions><speed>0.000000</speed><course>199.781464</course><hAcc>0.921357</hAcc><vAcc>0.755874</vAcc></extensions></trkpt>
      <trkpt lon="-4.153598" lat="53.008606"><ele>647.129700</ele><time>2021-07-17T12:08:05Z</time><extensions><speed>0.000000</speed><course>204.898392</course><hAcc>0.913579</hAcc><vAcc>0.745817</vAcc></extensions></trkpt>
      <trkpt lon="-4.153598" lat="53.008606"><ele>647.129700</ele><time>2021-07-17T12:08:06Z</time><extensions><speed>0.000000</speed><course>218.988647</course><hAcc>0.911935</hAcc><vAcc>0.742426</vAcc></extensions></trkpt>
      <trkpt lon="-4.153598" lat="53.008606"><ele>647.129700</ele><time>2021-07-17T12:08:07Z</time><extensions><speed>0.000000</speed><course>240.875916</course><hAcc>0.912937</hAcc><vAcc>0.742577</vAcc></extensions></trkpt>
      <trkpt lon="-4.153598" lat="53.008606"><ele>647.129700</ele><time>2021-07-17T12:08:08Z</time><extensions><speed>0.000000</speed><course>240.875916</course><hAcc>0.914638</hAcc><vAcc>0.744244</vAcc></extensions></trkpt>
      <trkpt lon="-4.153598" lat="53.008606"><ele>647.129700</ele><time>2021-07-17T12:08:09Z</time><extensions><speed>0.000000</speed><course>240.875916</course><hAcc>0.916129</hAcc><vAcc>0.746245</vAcc></extensions></trkpt>
      <trkpt lon="-4.153598" lat="53.008606"><ele>647.129700</ele><time>2021-07-17T12:08:10Z</time><extensions><speed>0.000000</speed><course>240.875916</course><hAcc>0.917117</hAcc><vAcc>0.747974</vAcc></extensions></trkpt>
      <trkpt lon="-4.153598" lat="53.008606"><ele>647.129700</ele><time>2021-07-17T12:08:11Z</time><extensions><speed>0.000000</speed><course>240.875916</course><hAcc>0.917638</hAcc><vAcc>0.749182</vAcc></extensions></trkpt>
      <trkpt lon="-4.153598" lat="53.008606"><ele>647.129700</ele><time>2021-07-17T12:08:12Z</time><extensions><speed>0.000000</speed><course>240.875916</course><hAcc>0.917818</hAcc><vAcc>0.749799</vAcc></extensions></trkpt>
      <trkpt lon="-4.153598" lat="53.008606"><ele>647.129700</ele><time>2021-07-17T12:08:13Z</time><extensions><speed>0.000000</speed><course>269.430084</course><hAcc>0.917754</hAcc><vAcc>0.749814</vAcc></extensions></trkpt>
      <trkpt lon="-4.153598" lat="53.008606"><ele>647.129700</ele><time>2021-07-17T12:08:14Z</time><extensions><speed>0.000000</speed><course>274.056000</course><hAcc>0.917487</hAcc><vAcc>0.749256</vAcc></extensions></trkpt>
      <trkpt lon="-4.153598" lat="53.008606"><ele>647.129700</ele><time>2021-07-17T12:08:15Z</time><extensions><speed>0.000000</speed><course>273.580658</course><hAcc>0.916987</hAcc><vAcc>0.748171</vAcc></extensions></trkpt>
      <trkpt lon="-4.153598" lat="53.008606"><ele>647.129700</ele><time>2021-07-17T12:08:16Z</time><extensions><speed>0.000000</speed><course>266.285736</course><hAcc>0.916198</hAcc><vAcc>0.746669</vAcc></extensions></trkpt>
      <trkpt lon="-4.153598" lat="53.008606"><ele>647.129700</ele><time>2021-07-17T12:08:16Z</time><extensions><speed>0.000000</speed><course>280.416809</course><hAcc>0.915167</hAcc><vAcc>0.745029</vAcc></extensions></trkpt>
      <trkpt lon="-4.153598" lat="53.008606"><ele>647.129700</ele><time>2021-07-17T12:08:17Z</time><extensions><speed>0.000000</speed><course>289.633057</course><hAcc>0.914184</hAcc><vAcc>0.743815</vAcc></extensions></trkpt>
      <trkpt lon="-4.153598" lat="53.008606"><ele>647.129700</ele><time>2021-07-17T12:08:19Z</time><extensions><speed>0.000000</speed><course>274.042023</course><hAcc>0.914037</hAcc><vAcc>0.744073</vAcc></extensions></trkpt>
      <trkpt lon="-4.153598" lat="53.008606"><ele>647.129700</ele><time>2021-07-17T12:08:20Z</time><extensions><speed>0.000000</speed><course>259.398621</course><hAcc>0.916452</hAcc><vAcc>0.747622</vAcc></extensions></trkpt>
      <trkpt lon="-4.153598" lat="53.008606"><ele>647.129700</ele><time>2021-07-17T12:08:21Z</time><extensions><speed>0.000000</speed><course>235.228027</course><hAcc>0.924505</hAcc><vAcc>0.757270</vAcc></extensions></trkpt>
      <trkpt lon="-4.153598" lat="53.008606"><ele>647.129700</ele><time>2021-07-17T12:08:22Z</time><extensions><speed>0.000000</speed><course>233.943741</course><hAcc>0.942997</hAcc><vAcc>0.776915</vAcc></extensions></trkpt>
      <trkpt lon="-4.153598" lat="53.008606"><ele>647.129700</ele><time>2021-07-17T12:08:23Z</time><extensions><speed>0.000000</speed><course>251.986771</course><hAcc>0.978585</hAcc><vAcc>0.811397</vAcc></extensions></trkpt>
      <trkpt lon="-4.153598" lat="53.008606"><ele>647.129700</ele><time>2021-07-17T12:08:24Z</time><extensions><speed>0.000000</speed><course>207.637573</course><hAcc>0.940321</hAcc><vAcc>0.775705</vAcc></extensions></trkpt>
      <trkpt lon="-4.153598" lat="53.008606"><ele>647.129700</ele><time>2021-07-17T12:08:25Z</time><extensions><speed>0.000000</speed><course>199.781464</course><hAcc>0.920980</hAcc><vAcc>0.754747</vAcc></extensions></trkpt>
      <trkpt lon="-4.153598" lat="53.008606"><ele>647.129700</ele><time>2021-07-17T12:08:26Z</time><extensions><speed>0.000000</speed><course>204.898392</course><hAcc>0.913243</hAcc><vAcc>0.744780</vAcc></extensions></trkpt>
      <trkpt lon="-4.153598" lat="53.008606"><ele>647.129700</ele><time>2021-07-17T12:08:27Z</time><extensions><speed>0.000000</speed><course>218.988647</course><hAcc>0.911633</hAcc><vAcc>0.741465</vAcc></extensions></trkpt>
      <trkpt lon="-4.153598" lat="53.008606"><ele>647.129700</ele><time>2021-07-17T12:08:28Z</time><extensions><speed>0.000000</speed><course>240.875916</course><hAcc>0.912663</hAcc><vAcc>0.741676</vAcc></extensions></trkpt>
      <trkpt lon="-4.153598" lat="53.008606"><ele>647.129700</ele><time>2021-07-17T12:08:29Z</time><extensions><speed>0.000000</speed><course>240.875916</course><hAcc>0.914389</hAcc><vAcc>0.743389</vAcc></extensions></trkpt>
      <trkpt lon="-4.153598" lat="53.008606"><ele>647.129700</ele><time>2021-07-17T12:08:30Z</time><extensions><speed>0.000000</speed><course>240.875916</course><hAcc>0.915902</hAcc><vAcc>0.745428</vAcc></extensions></trkpt>
      <trkpt lon="-4.153598" lat="53.008606"><ele>647.129700</ele><time>2021-07-17T12:08:31Z</time><extensions><speed>0.000000</speed><course>240.875916</course><hAcc>0.916912</hAcc><vAcc>0.747188</vAcc></extensions></trkpt>
      <trkpt lon="-4.153598" lat="53.008606"><ele>647.129700</ele><time>2021-07-17T12:08:32Z</time><extensions><speed>0.000000</speed><course>240.875916</course><hAcc>0.917440</hAcc><vAcc>0.748417</vAcc></extensions></trkpt>
      <trkpt lon="-4.153598" lat="53.008606"><ele>647.129700</ele><time>2021-07-17T12:08:33Z</time><extensions><speed>0.000000</speed><course>240.875916</course><hAcc>0.917615</hAcc><vAcc>0.749044</vAcc></extensions></trkpt>
      <trkpt lon="-4.153598" lat="53.008606"><ele>647.129700</ele><time>2021-07-17T12:08:34Z</time><extensions><speed>0.000000</speed><course>269.430084</course><hAcc>0.917548</hAcc><vAcc>0.749075</vAcc></extensions></trkpt>
      <trkpt lon="-4.153598" lat="53.008606"><ele>647.129700</ele><time>2021-07-17T12:08:35Z</time><extensions><speed>0.000000</speed><course>274.056000</course><hAcc>0.917285</hAcc><vAcc>0.748537</vAcc></extensions></trkpt>
      <trkpt lon="-4.153598" lat="53.008606"><ele>647.129700</ele><time>2021-07-17T12:08:36Z</time><extensions><speed>0.000000</speed><course>273.580658</course><hAcc>0.916792</hAcc><vAcc>0.747479</vAcc></extensions></trkpt>
      <trkpt lon="-4.153598" lat="53.008606"><ele>647.129700</ele><time>2021-07-17T12:08:37Z</time><extensions><speed>0.000000</speed><course>266.285736</course><hAcc>0.916013</hAcc><vAcc>0.746007</vAcc></extensions></trkpt>
      <trkpt lon="-4.153598" lat="53.008606"><ele>647.129700</ele><time>2021-07-17T12:08:38Z</time><extensions><speed>0.000000</speed><course>280.416809</course><hAcc>0.914975</hAcc><vAcc>0.744384</vAcc></extensions></trkpt>
      <trkpt lon="-4.153598" lat="53.008606"><ele>647.129700</ele><time>2021-07-17T12:08:39Z</time><extensions><speed>0.000000</speed><course>289.633057</course><hAcc>0.913969</hAcc><vAcc>0.743176</vAcc></extensions></trkpt>
      <trkpt lon="-4.153598" lat="53.008606"><ele>647.129700</ele><time>2021-07-17T12:08:40Z</time><extensions><speed>0.000000</speed><course>274.042023</course><hAcc>0.913817</hAcc><vAcc>0.743450</vAcc></extensions></trkpt>
      <trkpt lon="-4.153598" lat="53.008606"><ele>647.129700</ele><time>2021-07-17T12:08:41Z</time><extensions><speed>0.000000</speed><course>259.398621</course><hAcc>0.916238</hAcc><vAcc>0.747019</vAcc></extensions></trkpt>
      <trkpt lon="-4.153598" lat="53.008606"><ele>647.129700</ele><time>2021-07-17T12:08:42Z</time><extensions><speed>0.000000</speed><course>235.228027</course><hAcc>0.924293</hAcc><vAcc>0.756678</vAcc></extensions></trkpt>
      <trkpt lon="-4.153598" lat="53.008606"><ele>647.129700</ele><time>2021-07-17T12:08:43Z</time><extensions><speed>0.000000</speed><course>233.943741</course><hAcc>0.942781</hAcc><vAcc>0.776322</vAcc></extensions></trkpt>
      <trkpt lon="-4.153598" lat="53.008606"><ele>647.129700</ele><time>2021-07-17T12:08:44Z</time><extensions><speed>0.000000</speed><course>251.986771</course><hAcc>0.978362</hAcc><vAcc>0.810793</vAcc></extensions></trkpt>
      <trkpt lon="-4.153598" lat="53.008606"><ele>647.129700</ele><time>2021-07-17T12:08:45Z</time><extensions><speed>0.000000</speed><course>207.637573</course><hAcc>0.940124</hAcc><vAcc>0.775160</vAcc></extensions></trkpt>
      <trkpt lon="-4.153598" lat="53.008606"><ele>647.129700</ele><time>2021-07-17T12:08:46Z</time><extensions><speed>0.000000</speed><course>199.781464</course><hAcc>0.920812</hAcc><vAcc>0.754273</vAcc></extensions></trkpt>
      <trkpt lon="-4.153598" lat="53.008606"><ele>647.129700</ele><time>2021-07-17T12:08:47Z</time><extensions><speed>0.000000</speed><course>204.898392</course><hAcc>0.913100</hAcc><vAcc>0.744363</vAcc></extensions></trkpt>
      <trkpt lon="-4.153598" lat="53.008606"><ele>647.129700</ele><time>2021-07-17T12:08:48Z</time><extensions><speed>0.000000</speed><course>218.988647</course><hAcc>0.911509</hAcc><vAcc>0.741092</vAcc></extensions></trkpt>
      <trkpt lon="-4.153598" lat="53.008606"><ele>647.129700</ele><time>2021-07-17T12:08:49Z</time><extensions><speed>0.000000</speed><course>240.875916</course><hAcc>0.912553</hAcc><vAcc>0.741336</vAcc></extensions></trkpt>
      <trkpt lon="-4.153598" lat="53.008606"><ele>647.129700</ele><time>2021-07-17T12:08:50Z</time><extensions><speed>0.000000</speed><course>240.875916</course><hAcc>0.914287</hAcc><vAcc>0.743073</vAcc></extensions></trkpt>
      <trkpt lon="-4.153598" lat="53.008606"><ele>647.129700</ele><time>2021-07-17T12:08:51Z</time><extensions><speed>0.000000</speed><course>240.875916</course><hAcc>0.915806</hAcc><vAcc>0.745129</vAcc></extensions></trkpt>
      <trkpt lon="-4.153598" lat="53.008606"><ele>647.129700</ele><time>2021-07-17T12:08:52Z</time><extensions><speed>0.000000</speed><course>240.875916</course><hAcc>0.916821</hAcc><vAcc>0.746903</vAcc></extensions></trkpt>
      <trkpt lon="-4.153598" lat="53.008606"><ele>647.129700</ele><time>2021-07-17T12:08:53Z</time><extensions><speed>0.000000</speed><course>240.875916</course><hAcc>0.917351</hAcc><vAcc>0.748142</vAcc></extensions></trkpt>
      <trkpt lon="-4.153598" lat="53.008606"><ele>647.129700</ele><time>2021-07-17T12:08:54Z</time><extensions><speed>0.000000</speed><course>240.875916</course><hAcc>0.917528</hAcc><vAcc>0.748778</vAcc></extensions></trkpt>
      <trkpt lon="-4.153598" lat="53.008606"><ele>647.129700</ele><time>2021-07-17T12:08:55Z</time><extensions><speed>0.000000</speed><course>269.430084</course><hAcc>0.917464</hAcc><vAcc>0.748816</vAcc></extensions></trkpt>
      <trkpt lon="-4.153598" lat="53.008606"><ele>647.129700</ele><time>2021-07-17T12:08:56Z</time><extensions><speed>0.000000</speed><course>274.056000</course><hAcc>0.917202</hAcc><vAcc>0.748287</vAcc></extensions></trkpt>
      <trkpt lon="-4.153598" lat="53.008606"><ele>647.129700</ele><time>2021-07-17T12:08:57Z</time><extensions><speed>0.000000</speed><course>273.580658</course><hAcc>0.916712</hAcc><vAcc>0.747236</vAcc></extensions></trkpt>
      <trkpt lon="-4.153598" lat="53.008606"><ele>647.129700</ele><time>2021-07-17T12:08:58Z</time><extensions><speed>0.000000</speed><course>266.285736</course><hAcc>0.915936</hAcc><vAcc>0.745771</vAcc></extensions></trkpt>
      <trkpt lon="-4.153598" lat="53.008606"><ele>647.129700</ele><time>2021-07-17T12:08:59Z</time><extensions><speed>0.000000</speed><course>280.416809</course><hAcc>0.914901</hAcc><vAcc>0.744156</vAcc></extensions></trkpt>
      <trkpt lon="-4.153598" lat="53.008606"><ele>647.129700</ele><time>2021-07-17T12:09:00Z</time><extensions><speed>0.000000</speed><course>289.633057</course><hAcc>0.913898</hAcc><vAcc>0.742956</vAcc></extensions></trkpt>
      <trkpt lon="-4.153598" lat="53.008606"><ele>647.129700</ele><time>2021-07-17T12:09:01Z</time><extensions><speed>0.000000</speed><course>274.042023</course><hAcc>0.913749</hAcc><vAcc>0.743239</vAcc></extensions></trkpt>
      <trkpt lon="-4.153598" lat="53.008606"><ele>647.129700</ele><time>2021-07-17T12:09:02Z</time><extensions><speed>0.000000</speed><course>259.398621</course><hAcc>0.916174</hAcc><vAcc>0.746820</vAcc></extensions></trkpt>
      <trkpt lon="-4.153598" lat="53.008606"><ele>647.129700</ele><time>2021-07-17T12:09:03Z</time><extensions><speed>0.000000</speed><course>235.228027</course><hAcc>0.924234</hAcc><vAcc>0.756493</vAcc></extensions></trkpt>
      <trkpt lon="-4.153598" lat="53.008606"><ele>647.129700</ele><time>2021-07-17T12:09:04Z</time><extensions><speed>0.000000</speed><course>233.943741</course><hAcc>0.942727</hAcc><vAcc>0.776155</vAcc></extensions></trkpt>
      <trkpt lon="-4.153598" lat="53.008606"><ele>647.129700</ele><time>2021-07-17T12:09:05Z</time><extensions><speed>0.000000</speed><course>251.986771</course><hAcc>0.978315</hAcc><vAcc>0.810649</vAcc></extensions></trkpt>
      <trkpt lon="-4.153598" lat="53.008606"><ele>647.129700</ele><time>2021-07-17T12:09:06Z</time><extensions><speed>0.000000</speed><course>207.637573</course><hAcc>0.940145</hAcc><vAcc>0.775213</vAcc></extensions></trkpt>
      <trkpt lon="-4.153598" lat="53.008606"><ele>647.129700</ele><time>2021-07-17T12:09:07Z</time><extensions><speed>0.000000</speed><course>199.781464</course><hAcc>0.920876</hAcc><vAcc>0.754466</vAcc></extensions></trkpt>
      <trkpt lon="-4.153598" lat="53.008606"><ele>647.129700</ele><time>2021-07-17T12:09:08Z</time><extensions><speed>0.000000</speed><course>204.898392</course><hAcc>0.913204</hAcc><vAcc>0.744699</vAcc></extensions></trkpt>
      <trkpt lon="-4.153598" lat="53.008606"><ele>647.129700</ele><time>2021-07-17T12:09:09Z</time><extensions><speed>0.000000</speed><course>218.988647</course><hAcc>0.911648</hAcc><vAcc>0.741564</vAcc></extensions></trkpt>
      <trkpt lon="-4.153598" lat="53.008606"><ele>647.129700</ele><time>2021-07-17T12:09:10Z</time><extensions><speed>0.000000</speed><course>240.875916</course><hAcc>0.912721</hAcc><vAcc>0.741930</vAcc></extensions></trkpt>
      <trkpt lon="-4.153598" lat="53.008606"><ele>647.129700</ele><time>2021-07-17T12:09:11Z</time><extensions><speed>0.000000</speed><course>240.875916</course><hAcc>0.914477</hAcc><vAcc>0.743765</vAcc></extensions></trkpt>
      <trkpt lon="-4.153598" lat="53.008606"><ele>647.129700</ele><time>2021-07-17T12:09:12Z</time><extensions><speed>0.000000</speed><course>240.875916</course><hAcc>0.916010</hAcc><vAcc>0.745884</vAcc></extensions></trkpt>
      <trkpt lon="-4.153598" lat="53.008606"><ele>647.129700</ele><time>2021-07-17T12:09:13Z</time><extensions><speed>0.000000</speed><course>240.875916</course><hAcc>0.917031</hAcc><vAcc>0.747682</vAcc></extensions></trkpt>
      <trkpt lon="-4.153598" lat="53.008606"><ele>647.129700</ele><time>2021-07-17T12:09:14Z</time><extensions><speed>0.000000</speed><course>240.875916</course><hAcc>0.917560</hAcc><vAcc>0.748905</vAcc></extensions></trkpt>
      <trkpt lon="-4.153598" lat="53.008606"><ele>647.129700</ele><time>2021-07-17T12:09:15Z</time><extensions><speed>0.000000</speed><course>240.875916</course><hAcc>0.917726</hAcc><vAcc>0.749487</vAcc></extensions></trkpt>
      <trkpt lon="-4.153598" lat="53.008606"><ele>647.129700</ele><time>2021-07-17T12:09:16Z</time><extensions><speed>0.000000</speed><course>269.430084</course><hAcc>0.917643</hAcc><vAcc>0.749438</vAcc></extensions></trkpt>
      <trkpt lon="-4.153598" lat="53.008606"><ele>647.129700</ele><time>2021-07-17T12:09:17Z</time><extensions><speed>0.000000</speed><course>274.056000</course><hAcc>0.917356</hAcc><vAcc>0.748793</vAcc></extensions></trkpt>
      <trkpt lon="-4.153598" lat="53.008606"><ele>647.129700</ele><time>2021-07-17T12:09:18Z</time><extensions><speed>0.000000</speed><course>273.580658</course><hAcc>0.916834</hAcc><vAcc>0.747607</vAcc></extensions></trkpt>
      <trkpt lon="-4.153598" lat="53.008606"><ele>647.129700</ele><time>2021-07-17T12:09:19Z</time><extensions><speed>0.000000</speed><course>266.285736</course><hAcc>0.916020</hAcc><vAcc>0.745998</vAcc></extensions></trkpt>
      <trkpt lon="-4.153598" lat="53.008606"><ele>647.129700</ele><time>2021-07-17T12:09:20Z</time><extensions><speed>0.000000</speed><course>280.416809</course><hAcc>0.914943</hAcc><vAcc>0.744234</vAcc></extensions></trkpt>
      <trkpt lon="-4.153598" lat="53.008606"><ele>647.129700</ele><time>2021-07-17T12:09:21Z</time><extensions><speed>0.000000</speed><course>289.633057</course><hAcc>0.913893</hAcc><vAcc>0.742886</vAcc></extensions></trkpt>
      <trkpt lon="-4.153598" lat="53.008606"><ele>647.129700</ele><time>2021-07-17T12:09:22Z</time><extensions><speed>0.000000</speed><course>274.042023</course><hAcc>0.913692</hAcc><vAcc>0.743020</vAcc></extensions></trkpt>
      <trkpt lon="-4.153598" lat="53.008606"><ele>647.129700</ele><time>2021-07-17T12:09:23Z</time><extensions><speed>0.000000</speed><course>259.398621</course><hAcc>0.916061</hAcc><vAcc>0.746451</vAcc></extensions></trkpt>
      <trkpt lon="-4.153598" lat="53.008606"><ele>647.129700</ele><time>2021-07-17T12:09:24Z</time><extensions><speed>0.000000</speed><course>235.228027</course><hAcc>0.924058</hAcc><vAcc>0.755970</vAcc></extensions></trkpt>
      <trkpt lon="-4.153598" lat="53.008606"><ele>647.129700</ele><time>2021-07-17T12:09:25Z</time><extensions><speed>0.000000</speed><course>233.943741</course><hAcc>0.942486</hAcc><vAcc>0.775471</vAcc></extensions></trkpt>
      <trkpt lon="-4.153598" lat="53.008606"><ele>647.129700</ele><time>2021-07-17T12:09:26Z</time><extensions><speed>0.000000</speed><course>251.986771</course><hAcc>0.978007</hAcc><vAcc>0.809800</vAcc></extensions></trkpt>
      <trkpt lon="-4.153598" lat="53.008606"><ele>647.129700</ele><time>2021-07-17T12:09:27Z</time><extensions><speed>0.000000</speed><course>207.637573</course><hAcc>0.939786</hAcc><vAcc>0.774210</vAcc></extensions></trkpt>
      <trkpt lon="-4.153598" lat="53.008606"><ele>647.129700</ele><time>2021-07-17T12:09:28Z</time><extensions><speed>0.000000</speed><course>199.781464</course><hAcc>0.920507</hAcc><vAcc>0.753390</vAcc></extensions></trkpt>
      <trkpt lon="-4.153598" lat="53.008606"><ele>647.129700</ele><time>2021-07-17T12:09:29Z</time><extensions><speed>0.000000</speed><course>204.898392</course><hAcc>0.912821</hAcc><vAcc>0.743531</vAcc></extensions></trkpt>
      <trkpt lon="-4.153598" lat="53.008606"><ele>647.129700</ele><time>2021-07-17T12:09:30Z</time><extensions><speed>0.000000</speed><course>218.988647</course><hAcc>0.911250</hAcc><vAcc>0.740296</vAcc></extensions></trkpt>
      <trkpt lon="-4.153598" lat="53.008606"><ele>647.129700</ele><time>2021-07-17T12:09:31Z</time><extensions><speed>0.000000</speed><course>240.875916</course><hAcc>0.912306</hAcc><vAcc>0.740564</vAcc></extensions></trkpt>
      <trkpt lon="-4.153598" lat="53.008606"><ele>647.129700</ele><time>2021-07-17T12:09:32Z</time><extensions><speed>0.000000</speed><course>240.875916</course><hAcc>0.914048</hAcc><vAcc>0.742317</vAcc></extensions></trkpt>
      <trkpt lon="-4.153598" lat="53.008606"><ele>647.129700</ele><time>2021-07-17T12:09:33Z</time><extensions><speed>0.000000</speed><course>240.875916</course><hAcc>0.915571</hAcc><vAcc>0.744385</vAcc></extensions></trkpt>
      <trkpt lon="-4.153598" lat="53.008606"><ele>647.129700</ele><time>2021-07-17T12:09:34Z</time><extensions><speed>0.000000</speed><course>240.875916</course><hAcc>0.916588</hAcc><vAcc>0.746171</vAcc></extensions></trkpt>
      <trkpt lon="-4.153598" lat="53.008606"><ele>647.129700</ele><time>2021-07-17T12:09:35Z</time><extensions><speed>0.000000</speed><course>240.875916</course><hAcc>0.917122</hAcc><vAcc>0.747423</vAcc></extensions></trkpt>
      <trkpt lon="-4.153598" lat="53.008606"><ele>647.129700</ele><time>2021-07-17T12:09:36Z</time><extensions><speed>0.000000</speed><course>240.875916</course><hAcc>0.917302</hAcc><vAcc>0.748074</vAcc></extensions></trkpt>
      <trkpt lon="-4.153598" lat="53.008606"><ele>647.129700</ele><time>2021-07-17T12:09:37Z</time><extensions><speed>0.000000</speed><course>269.430084</course><hAcc>0.917243</hAcc><vAcc>0.748132</vAcc></extensions></trkpt>
      <trkpt lon="-4.153598" lat="53.008606"><ele>647.129700</ele><time>2021-07-17T12:09:38Z</time><extensions><speed>0.000000</speed><course>274.056000</course><hAcc>0.916988</hAcc><vAcc>0.747624</vAcc></extensions></trkpt>
      <trkpt lon="-4.153598" lat="53.008606"><ele>647.129700</ele><time>2021-07-17T12:09:39Z</time><extensions><speed>0.000000</speed><course>273.580658</course><hAcc>0.916505</hAcc><vAcc>0.746597</vAcc></extensions></trkpt>
      <trkpt lon="-4.153598" lat="53.008606"><ele>647.129700</ele><time>2021-07-17T12:09:40Z</time><extensions><speed>0.000000</speed><course>266.285736</course><hAcc>0.915737</hAcc><vAcc>0.745157</vAcc></extensions></trkpt>
      <trkpt lon="-4.153598" lat="53.008606"><ele>647.129700</ele><time>2021-07-17T12:09:41Z</time><extensions><speed>0.000000</speed><course>280.416809</course><hAcc>0.914708</hAcc><vAcc>0.743564</vAcc></extensions></trkpt>
      <trkpt lon="-4.153598" lat="53.008606"><ele>647.129700</ele><time>2021-07-17T12:09:42Z</time><extensions><speed>0.000000</speed><course>289.633057</course><hAcc>0.913708</hAcc><vAcc>0.742380</vAcc></extensions></trkpt>
      <trkpt lon="-4.153598" lat="53.008606"><ele>647.129700</ele><time>2021-07-17T12:09:43Z</time><extensions><speed>0.000000</speed><course>274.042023</course><hAcc>0.913557</hAcc><vAcc>0.742669</vAcc></extensions></trkpt>
      <trkpt lon="-4.153598" lat="53.008606"><ele>647.129700</ele><time>2021-07-17T12:09:44Z</time><extensions><speed>0.000000</speed><course>259.398621</course><hAcc>0.915974</hAcc><vAcc>0.746240</vAcc></extensions></trkpt>
      <trkpt lon="-4.153598" lat="53.008606"><ele>647.129700</ele><time>2021-07-17T12:09:45Z</time><extensions><speed>0.000000</speed><course>235.228027</course><hAcc>0.924017</hAcc><vAcc>0.755885</vAcc></extensions></trkpt>
      <trkpt lon="-4.153598" lat="53.008606"><ele>647.129700</ele><time>2021-07-17T12:09:46Z</time><extensions><speed>0.000000</speed><course>233.943741</course><hAcc>0.942487</hAcc><vAcc>0.775497</vAcc></extensions></trkpt>
      <trkpt lon="-4.153598" lat="53.008606"><ele>647.129700</ele><time>2021-07-17T12:09:47Z</time><extensions><speed>0.000000</speed><course>251.986771</course><hAcc>0.978045</hAcc><vAcc>0.809920</vAcc></extensions></trkpt>
      <trkpt lon="-4.153598" lat="53.008606"><ele>647.129700</ele><time>2021-07-17T12:09:48Z</time><extensions><speed>0.000000</speed><course>207.637573</course><hAcc>0.939847</hAcc><vAcc>0.774372</vAcc></extensions></trkpt>
      <trkpt lon="-4.153598" lat="53.008606"><ele>647.129700</ele><time>2021-07-17T12:09:49Z</time><extensions><speed>0.000000</speed><course>199.781464</course><hAcc>0.920574</hAcc><vAcc>0.753567</vAcc></extensions></trkpt>
      <trkpt lon="-4.153598" lat="53.008606"><ele>647.129700</ele><time>2021-07-17T12:09:50Z</time><extensions><speed>0.000000</speed><course>204.898392</course><hAcc>0.912896</hAcc><vAcc>0.743723</vAcc></extensions></trkpt>
      <trkpt lon="-4.153598" lat="53.008606"><ele>647.129700</ele><time>2021-07-17T12:09:51Z</time><extensions><speed>0.000000</speed><course>218.988647</course><hAcc>0.911333</hAcc><vAcc>0.740503</vAcc></extensions></trkpt>
      <trkpt lon="-4.153598" lat="53.008606"><ele>647.129700</ele><time>2021-07-17T12:09:52Z</time><extensions><speed>0.000000</speed><course>240.875916</course><hAcc>0.912400</hAcc><vAcc>0.740786</vAcc></extensions></trkpt>
      <trkpt lon="-4.153598" lat="53.008606"><ele>647.129700</ele><time>2021-07-17T12:09:53Z</time><extensions><speed>0.000000</speed><course>240.875916</course><hAcc>0.914155</hAcc><vAcc>0.742554</vAcc></extensions></trkpt>
      <trkpt lon="-4.153598" lat="53.008606"><ele>647.129700</ele><time>2021-07-17T12:09:54Z</time><extensions><speed>0.000000</speed><course>240.875916</course><hAcc>0.915695</hAcc><vAcc>0.744638</vAcc></extensions></trkpt>
      <trkpt lon="-4.153598" lat="53.008606"><ele>647.129700</ele><time>2021-07-17T12:09:55Z</time><extensions><speed>0.000000</speed><course>240.875916</course><hAcc>0.916714</hAcc><vAcc>0.746428</vAcc></extensions></trkpt>
      <trkpt lon="-4.153598" lat="53.008606"><ele>647.129700</ele><time>2021-07-17T12:09:56Z</time><extensions><speed>0.000000</speed><course>240.875916</course><hAcc>0.917233</hAcc><vAcc>0.747670</vAcc></extensions></trkpt>
      <trkpt lon="-4.153598" lat="53.008606"><ele>647.129700</ele><time>2021-07-17T12:09:57Z</time><extensions><speed>0.000000</speed><course>240.875916</course><hAcc>0.917401</hAcc><vAcc>0.748311</vAcc></extensions></trkpt>
      <trkpt lon="-4.153598" lat="53.008606"><ele>647.129700</ele><time>2021-07-17T12:09:58Z</time><extensions><speed>0.000000</speed><course>269.430084</course><hAcc>0.917332</hAcc><vAcc>0.748358</vAcc></extensions></trkpt>
      <trkpt lon="-4.153598" lat="53.008606"><ele>647.129700</ele><time>2021-07-17T12:09:59Z</time><extensions><speed>0.000000</speed><course>274.056000</course><hAcc>0.917069</hAcc><vAcc>0.747840</vAcc></extensions></trkpt>
      <trkpt lon="-4.153598" lat="53.008606"><ele>647.129700</ele><time>2021-07-17T12:10:00Z</time><extensions><speed>0.000000</speed><course>273.580658</course><hAcc>0.916580</hAcc><vAcc>0.746801</vAcc></extensions></trkpt>
      <trkpt lon="-4.153598" lat="53.008606"><ele>647.129700</ele><time>2021-07-17T12:10:01Z</time><extensions><speed>0.000000</speed><course>266.285736</course><hAcc>0.915806</hAcc><vAcc>0.745350</vAcc></extensions></trkpt>
      <trkpt lon="-4.153598" lat="53.008606"><ele>647.129700</ele><time>2021-07-17T12:10:02Z</time><extensions><speed>0.000000</speed><course>280.416809</course><hAcc>0.914774</hAcc><vAcc>0.743749</vAcc></extensions></trkpt>
      <trkpt lon="-4.153598" lat="53.008606"><ele>647.129700</ele><time>2021-07-17T12:10:03Z</time><extensions><speed>0.000000</speed><course>289.633057</course><hAcc>0.913771</hAcc><vAcc>0.742558</vAcc></extensions></trkpt>
      <trkpt lon="-4.153598" lat="53.008606"><ele>647.129700</ele><time>2021-07-17T12:10:04Z</time><extensions><speed>0.000000</speed><course>274.042023</course><hAcc>0.913620</hAcc><vAcc>0.742845</vAcc></extensions></trkpt>
      <trkpt lon="-4.153598" lat="53.008606"><ele>647.129700</ele><time>2021-07-17T12:10:05Z</time><extensions><speed>0.000000</speed><course>259.398621</course><hAcc>0.916039</hAcc><vAcc>0.746421</vAcc></extensions></trkpt>
      <trkpt lon="-4.153598" lat="53.008606"><ele>647.129700</ele><time>2021-07-17T12:10:06Z</time><extensions><speed>0.000000</speed><course>235.228027</course><hAcc>0.924086</hAcc><vAcc>0.756076</vAcc></extensions></trkpt>
      <trkpt lon="-4.153598" lat="53.008606"><ele>647.129700</ele><time>2021-07-17T12:10:07Z</time><extensions><speed>0.000000</speed><course>233.943741</course><hAcc>0.942563</hAcc><vAcc>0.775705</vAcc></extensions></trkpt>
      <trkpt lon="-4.153598" lat="53.008606"><ele>647.129700</ele><time>2021-07-17T12:10:08Z</time><extensions><speed>0.000000</speed><course>251.986771</course><hAcc>0.978130</hAcc><vAcc>0.810149</vAcc></extensions></trkpt>
      <trkpt lon="-4.153598" lat="53.008606"><ele>647.129700</ele><time>2021-07-17T12:10:09Z</time><extensions><speed>0.000000</speed><course>207.637573</course><hAcc>0.939889</hAcc><vAcc>0.774539</vAcc></extensions></trkpt>
      <trkpt lon="-4.153598" lat="53.008606"><ele>647.129700</ele><time>2021-07-17T12:10:10Z</time><extensions><speed>0.000000</speed><course>199.781464</course><hAcc>0.920600</hAcc><vAcc>0.753712</vAcc></extensions></trkpt>
      <trkpt lon="-4.153598" lat="53.008606"><ele>647.129700</ele><time>2021-07-17T12:10:11Z</time><extensions><speed>0.000000</speed><course>204.898392</course><hAcc>0.912902</hAcc><vAcc>0.743844</vAcc></extensions></trkpt>
      <trkpt lon="-4.153598" lat="53.008606"><ele>647.129700</ele><time>2021-07-17T12:10:12Z</time><extensions><speed>0.000000</speed><course>218.988647</course><hAcc>0.911317</hAcc><vAcc>0.740597</vAcc></extensions></trkpt>
      <trkpt lon="-4.153598" lat="53.008606"><ele>647.129700</ele><time>2021-07-17T12:10:13Z</time><extensions><speed>0.000000</speed><course>240.875916</course><hAcc>0.912358</hAcc><vAcc>0.740850</vAcc></extensions></trkpt>
      <trkpt lon="-4.153598" lat="53.008606"><ele>647.129700</ele><time>2021-07-17T12:10:14Z</time><extensions><speed>0.000000</speed><course>240.875916</course><hAcc>0.914081</hAcc><vAcc>0.742584</vAcc></extensions></trkpt>
      <trkpt lon="-4.153598" lat="53.008606"><ele>647.129700</ele><time>2021-07-17T12:10:15Z</time><extensions><speed>0.000000</speed><course>240.875916</course><hAcc>0.915581</hAcc><vAcc>0.744628</vAcc></extensions></trkpt>
      <trkpt lon="-4.153598" lat="53.008606"><ele>647.129700</ele><time>2021-07-17T12:10:16Z</time><extensions><speed>0.000000</speed><course>240.875916</course><hAcc>0.916567</hAcc><vAcc>0.746383</vAcc></extensions></trkpt>
      <trkpt lon="-4.153598" lat="53.008606"><ele>647.129700</ele><time>2021-07-17T12:10:16Z</time><extensions><speed>0.000000</speed><course>240.875916</course><hAcc>0.917098</hAcc><vAcc>0.747621</vAcc></extensions></trkpt>
      <trkpt lon="-4.153598" lat="53.008606"><ele>647.129700</ele><time>2021-07-17T12:10:17Z</time><extensions><speed>0.000000</speed><course>240.875916</course><hAcc>0.917304</hAcc><vAcc>0.748280</vAcc></extensions></trkpt>
      <trkpt lon="-4.153598" lat="53.008606"><ele>647.129700</ele><time>2021-07-17T12:10:18Z</time><extensions><speed>0.000000</speed><course>269.430084</course><hAcc>0.917263</hAcc><vAcc>0.748339</vAcc></extensions></trkpt>
      <trkpt lon="-4.153598" lat="53.008606"><ele>647.129700</ele><time>2021-07-17T12:10:19Z</time><extensions><speed>0.000000</speed><course>274.056000</course><hAcc>0.917021</hAcc><vAcc>0.747829</vAcc></extensions></trkpt>
      <trkpt lon="-4.153598" lat="53.008606"><ele>647.129700</ele><time>2021-07-17T12:10:20Z</time><extensions><speed>0.000000</speed><course>273.580658</course><hAcc>0.916545</hAcc><vAcc>0.746796</vAcc></extensions></trkpt>
      <trkpt lon="-4.153598" lat="53.008606"><ele>647.129700</ele><time>2021-07-17T12:10:21Z</time><extensions><speed>0.000000</speed><course>266.285736</course><hAcc>0.915781</hAcc><vAcc>0.745348</vAcc></extensions></trkpt>
      <trkpt lon="-4.153598" lat="53.008606"><ele>647.129700</ele><time>2021-07-17T12:10:22Z</time><extensions><speed>0.000000</speed><course>280.416809</course><hAcc>0.914755</hAcc><vAcc>0.743746</vAcc></extensions></trkpt>
      <trkpt lon="-4.153598" lat="53.008606"><ele>647.129700</ele><time>2021-07-17T12:10:23Z</time><extensions><speed>0.000000</speed><course>289.633057</course><hAcc>0.913757</hAcc><vAcc>0.742555</vAcc></extensions></trkpt>
      <trkpt lon="-4.153598" lat="53.008606"><ele>647.129700</ele><time>2021-07-17T12:10:24Z</time><extensions><speed>0.000000</speed><course>274.042023</course><hAcc>0.913607</hAcc><vAcc>0.742838</vAcc></extensions></trkpt>
      <trkpt lon="-4.153598" lat="53.008606"><ele>647.129700</ele><time>2021-07-17T12:10:25Z</time><extensions><speed>0.000000</speed><course>259.398621</course><hAcc>0.916026</hAcc><vAcc>0.746407</vAcc></extensions></trkpt>
      <trkpt lon="-4.153598" lat="53.008606"><ele>647.129700</ele><time>2021-07-17T12:10:26Z</time><extensions><speed>0.000000</speed><course>235.228027</course><hAcc>0.924072</hAcc><vAcc>0.756053</vAcc></extensions></trkpt>
      <trkpt lon="-4.153598" lat="53.008606"><ele>647.129700</ele><time>2021-07-17T12:10:27Z</time><extensions><speed>0.000000</speed><course>233.943741</course><hAcc>0.942546</hAcc><vAcc>0.775671</vAcc></extensions></trkpt>
      <trkpt lon="-4.153598" lat="53.008606"><ele>647.129700</ele><time>2021-07-17T12:10:28Z</time><extensions><speed>0.000000</speed><course>251.986771</course><hAcc>0.978109</hAcc><vAcc>0.810102</vAcc></extensions></trkpt>
      <trkpt lon="-4.153598" lat="53.008606"><ele>647.129700</ele><time>2021-07-17T12:10:29Z</time><extensions><speed>0.000000</speed><course>207.637573</course><hAcc>0.939894</hAcc><vAcc>0.774522</vAcc></extensions></trkpt>
      <trkpt lon="-4.153598" lat="53.008606"><ele>647.129700</ele><time>2021-07-17T12:10:30Z</time><extensions><speed>0.000000</speed><course>199.781464</course><hAcc>0.920610</hAcc><vAcc>0.753697</vAcc></extensions></trkpt>
      <trkpt lon="-4.153598" lat="53.008606"><ele>647.129700</ele><time>2021-07-17T12:10:31Z</time><extensions><speed>0.000000</speed><course>204.898392</course><hAcc>0.912920</hAcc><vAcc>0.743835</vAcc></extensions></trkpt>
      <trkpt lon="-4.153598" lat="53.008606"><ele>647.129700</ele><time>2021-07-17T12:10:32Z</time><extensions><speed>0.000000</speed><course>218.988647</course><hAcc>0.911346</hAcc><vAcc>0.740597</vAcc></extensions></trkpt>
      <trkpt lon="-4.153598" lat="53.008606"><ele>647.129700</ele><time>2021-07-17T12:10:33Z</time><extensions><speed>0.000000</speed><course>240.875916</course><hAcc>0.912401</hAcc><vAcc>0.740863</vAcc></extensions></trkpt>
      <trkpt lon="-4.153598" lat="53.008606"><ele>647.129700</ele><time>2021-07-17T12:10:34Z</time><extensions><speed>0.000000</speed><course>240.875916</course><hAcc>0.914143</hAcc><vAcc>0.742615</vAcc></extensions></trkpt>
      <trkpt lon="-4.153598" lat="53.008606"><ele>647.129700</ele><time>2021-07-17T12:10:35Z</time><extensions><speed>0.000000</speed><course>240.875916</course><hAcc>0.915666</hAcc><vAcc>0.744680</vAcc></extensions></trkpt>
      <trkpt lon="-4.153598" lat="53.008606"><ele>647.129700</ele><time>2021-07-17T12:10:36Z</time><extensions><speed>0.000000</speed><course>240.875916</course><hAcc>0.916684</hAcc><vAcc>0.746462</vAcc></extensions></trkpt>
      <trkpt lon="-4.153598" lat="53.008606"><ele>647.129700</ele><time>2021-07-17T12:10:37Z</time><extensions><speed>0.000000</speed><course>240.875916</course><hAcc>0.917218</hAcc><vAcc>0.747709</vAcc></extensions></trkpt>
      <trkpt lon="-4.153598" lat="53.008606"><ele>647.129700</ele><time>2021-07-17T12:10:38Z</time><extensions><speed>0.000000</speed><course>240.875916</course><hAcc>0.917399</hAcc><vAcc>0.748353</vAcc></extensions></trkpt>
      <trkpt lon="-4.153598" lat="53.008606"><ele>647.129700</ele><time>2021-07-17T12:10:39Z</time><extensions><speed>0.000000</speed><course>269.430084</course><hAcc>0.917342</hAcc><vAcc>0.748402</vAcc></extensions></trkpt>
      <trkpt lon="-4.153598" lat="53.008606"><ele>647.129700</ele><time>2021-07-17T12:10:40Z</time><extensions><speed>0.000000</speed><course>274.056000</course><hAcc>0.917090</hAcc><vAcc>0.747885</vAcc></extensions></trkpt>
      <trkpt lon="-4.153598" lat="53.008606"><ele>647.129700</ele><time>2021-07-17T12:10:41Z</time><extensions><speed>0.000000</speed><course>273.580658</course><hAcc>0.916611</hAcc><vAcc>0.746848</vAcc></extensions></trkpt>
      <trkpt lon="-4.153598" lat="53.008606"><ele>647.129700</ele><time>2021-07-17T12:10:42Z</time><extensions><speed>0.000000</speed><course>266.285736</course><hAcc>0.915849</hAcc><vAcc>0.745398</vAcc></extensions></trkpt>
      <trkpt lon="-4.153598" lat="53.008606"><ele>647.129700</ele><time>2021-07-17T12:10:43Z</time><extensions><speed>0.000000</speed><course>280.416809</course><hAcc>0.914830</hAcc><vAcc>0.743797</vAcc></extensions></trkpt>
      <trkpt lon="-4.153598" lat="53.008606"><ele>647.129700</ele><time>2021-07-17T12:10:45Z</time><extensions><speed>0.000000</speed><course>289.633057</course><hAcc>0.913823</hAcc><vAcc>0.742594</vAcc></extensions></trkpt>
      <trkpt lon="-4.153598" lat="53.008606"><ele>647.129700</ele><time>2021-07-17T12:10:46Z</time><extensions><speed>0.000000</speed><course>274.042023</course><hAcc>0.913653</hAcc><vAcc>0.742857</vAcc></extensions></trkpt>
      <trkpt lon="-4.153598" lat="53.008606"><ele>647.129700</ele><time>2021-07-17T12:10:47Z</time><extensions><speed>0.000000</speed><course>259.398621</course><hAcc>0.916056</hAcc><vAcc>0.746408</vAcc></extensions></trkpt>
      <trkpt lon="-4.153598" lat="53.008606"><ele>647.129700</ele><time>2021-07-17T12:10:48Z</time><extensions><speed>0.000000</speed><course>235.228027</course><hAcc>0.924089</hAcc><vAcc>0.756039</vAcc></extensions></trkpt>
      <trkpt lon="-4.153598" lat="53.008606"><ele>647.129700</ele><time>2021-07-17T12:10:49Z</time><extensions><speed>0.000000</speed><course>233.943741</course><hAcc>0.942552</hAcc><vAcc>0.775643</vAcc></extensions></trkpt>
      <trkpt lon="-4.153598" lat="53.008606"><ele>647.129700</ele><time>2021-07-17T12:10:50Z</time><extensions><speed>0.000000</speed><course>251.986771</course><hAcc>0.978107</hAcc><vAcc>0.810064</vAcc></extensions></trkpt>
      <trkpt lon="-4.153598" lat="53.008606"><ele>647.129700</ele><time>2021-07-17T12:10:51Z</time><extensions><speed>0.000000</speed><course>207.637573</course><hAcc>0.939877</hAcc><vAcc>0.774472</vAcc></extensions></trkpt>
      <trkpt lon="-4.153598" lat="53.008606"><ele>647.129700</ele><time>2021-07-17T12:10:52Z</time><extensions><speed>0.000000</speed><course>199.781464</course><hAcc>0.920595</hAcc><vAcc>0.753654</vAcc></extensions></trkpt>
      <trkpt lon="-4.153598" lat="53.008606"><ele>647.129700</ele><time>2021-07-17T12:10:53Z</time><extensions><speed>0.000000</speed><course>204.898392</course><hAcc>0.912907</hAcc><vAcc>0.743797</vAcc></extensions></trkpt>
      <trkpt lon="-4.153598" lat="53.008606"><ele>647.129700</ele><time>2021-07-17T12:10:54Z</time><extensions><speed>0.000000</speed><course>218.988647</course><hAcc>0.911335</hAcc><vAcc>0.740564</vAcc></extensions></trkpt>
      <trkpt lon="-4.153598" lat="53.008606"><ele>647.129700</ele><time>2021-07-17T12:10:55Z</time><extensions><speed>0.000000</speed><course>240.875916</course><hAcc>0.912390</hAcc><vAcc>0.740833</vAcc></extensions></trkpt>
      <trkpt lon="-4.153598" lat="53.008606"><ele>647.129700</ele><time>2021-07-17T12:10:56Z</time><extensions><speed>0.000000</speed><course>240.875916</course><hAcc>0.914132</hAcc><vAcc>0.742586</vAcc></extensions></trkpt>
      <trkpt lon="-4.153598" lat="53.008606"><ele>647.129700</ele><time>2021-07-17T12:10:57Z</time><extensions><speed>0.000000</speed><course>240.875916</course><hAcc>0.915654</hAcc><vAcc>0.744652</vAcc></extensions></trkpt>
      <trkpt lon="-4.153598" lat="53.008606"><ele>647.129700</ele><time>2021-07-17T12:10:58Z</time><extensions><speed>0.000000</speed><course>240.875916</course><hAcc>0.916670</hAcc><vAcc>0.746433</vAcc></extensions></trkpt>
      <trkpt lon="-4.153598" lat="53.008606"><ele>647.129700</ele><time>2021-07-17T12:10:59Z</time><extensions><speed>0.000000</speed><course>240.875916</course><hAcc>0.917202</hAcc><vAcc>0.747677</vAcc></extensions></trkpt>
      <trkpt lon="-4.153598" lat="53.008606"><ele>647.129700</ele><time>2021-07-17T12:11:00Z</time><extensions><speed>0.000000</speed><course>240.875916</course><hAcc>0.917379</hAcc><vAcc>0.748319</vAcc></extensions></trkpt>
      <trkpt lon="-4.153598" lat="53.008606"><ele>647.129700</ele><time>2021-07-17T12:11:01Z</time><extensions><speed>0.000000</speed><course>269.430084</course><hAcc>0.917316</hAcc><vAcc>0.748364</vAcc></extensions></trkpt>
      <trkpt lon="-4.153598" lat="53.008606"><ele>647.129700</ele><time>2021-07-17T12:11:02Z</time><extensions><speed>0.000000</speed><course>274.056000</course><hAcc>0.917058</hAcc><vAcc>0.747842</vAcc></extensions></trkpt>
      <trkpt lon="-4.153598" lat="53.008606"><ele>647.129700</ele><time>2021-07-17T12:11:03Z</time><extensions><speed>0.000000</speed><course>273.580658</course><hAcc>0.916572</hAcc><vAcc>0.746802</vAcc></extensions></trkpt>
      <trkpt lon="-4.153598" lat="53.008606"><ele>647.129700</ele><time>2021-07-17T12:11:04Z</time><extensions><speed>0.000000</speed><course>266.285736</course><hAcc>0.915803</hAcc><vAcc>0.745352</vAcc></extensions></trkpt>
      <trkpt lon="-4.153598" lat="53.008606"><ele>647.129700</ele><time>2021-07-17T12:11:05Z</time><extensions><speed>0.000000</speed><course>280.416809</course><hAcc>0.914775</hAcc><vAcc>0.743755</vAcc></extensions></trkpt>
      <trkpt lon="-4.153598" lat="53.008606"><ele>647.129700</ele><time>2021-07-17T12:11:06Z</time><extensions><speed>0.000000</speed><course>289.633057</course><hAcc>0.913780</hAcc><vAcc>0.742576</vAcc></extensions></trkpt>
      <trkpt lon="-4.153598" lat="53.008606"><ele>647.129700</ele><time>2021-07-17T12:11:07Z</time><extensions><speed>0.000000</speed><course>274.042023</course><hAcc>0.913639</hAcc><vAcc>0.742884</vAcc></extensions></trkpt>
      <trkpt lon="-4.153598" lat="53.008606"><ele>647.129700</ele><time>2021-07-17T12:11:08Z</time><extensions><speed>0.000000</speed><course>259.398621</course><hAcc>0.916073</hAcc><vAcc>0.746494</vAcc></extensions></trkpt>
      <trkpt lon="-4.153598" lat="53.008606"><ele>647.129700</ele><time>2021-07-17T12:11:09Z</time><extensions><speed>0.000000</speed><course>235.228027</course><hAcc>0.924140</hAcc><vAcc>0.756200</vAcc></extensions></trkpt>
      <trkpt lon="-4.153598" lat="53.008606"><ele>647.129700</ele><time>2021-07-17T12:11:10Z</time><extensions><speed>0.000000</speed><course>233.943741</course><hAcc>0.942640</hAcc><vAcc>0.775896</vAcc></extensions></trkpt>
      <trkpt lon="-4.153598" lat="53.008606"><ele>647.129700</ele><time>2021-07-17T12:11:11Z</time><extensions><speed>0.000000</speed><course>251.986771</course><hAcc>0.978233</hAcc><vAcc>0.810422</vAcc></extensions></trkpt>
      <trkpt lon="-4.153598" lat="53.008606"><ele>647.129700</ele><time>2021-07-17T12:11:12Z</time><extensions><speed>0.000000</speed><course>207.637573</course><hAcc>0.939964</hAcc><vAcc>0.774727</vAcc></extensions></trkpt>
      <trkpt lon="-4.153598" lat="53.008606"><ele>647.129700</ele><time>2021-07-17T12:11:13Z</time><extensions><speed>0.000000</speed><course>199.781464</course><hAcc>0.920701</hAcc><vAcc>0.753966</vAcc></extensions></trkpt>
      <trkpt lon="-4.153598" lat="53.008606"><ele>647.129700</ele><time>2021-07-17T12:11:14Z</time><extensions><speed>0.000000</speed><course>204.898392</course><hAcc>0.913035</hAcc><vAcc>0.744171</vAcc></extensions></trkpt>
      <trkpt lon="-4.153598" lat="53.008606"><ele>647.129700</ele><time>2021-07-17T12:11:15Z</time><extensions><speed>0.000000</speed><course>218.988647</course><hAcc>0.911488</hAcc><vAcc>0.741003</vAcc></extensions></trkpt>
      <trkpt lon="-4.153598" lat="53.008606"><ele>647.129700</ele><time>2021-07-17T12:11:16Z</time><extensions><speed>0.000000</speed><course>240.875916</course><hAcc>0.912572</hAcc><vAcc>0.741344</vAcc></extensions></trkpt>
      <trkpt lon="-4.153598" lat="53.008606"><ele>647.129700</ele><time>2021-07-17T12:11:17Z</time><extensions><speed>0.000000</speed><course>240.875916</course><hAcc>0.914344</hAcc><vAcc>0.743182</vAcc></extensions></trkpt>
      <trkpt lon="-4.153598" lat="53.008606"><ele>647.129700</ele><time>2021-07-17T12:11:18Z</time><extensions><speed>0.000000</speed><course>240.875916</course><hAcc>0.915899</hAcc><vAcc>0.745346</vAcc></extensions></trkpt>
      <trkpt lon="-4.153598" lat="53.008606"><ele>647.129700</ele><time>2021-07-17T12:11:19Z</time><extensions><speed>0.000000</speed><course>240.875916</course><hAcc>0.916947</hAcc><vAcc>0.747238</vAcc></extensions></trkpt>
      <trkpt lon="-4.153598" lat="53.008606"><ele>647.129700</ele><time>2021-07-17T12:11:20Z</time><extensions><speed>0.000000</speed><course>240.875916</course><hAcc>0.917511</hAcc><vAcc>0.748602</vAcc></extensions></trkpt>
      <trkpt lon="-4.153598" lat="53.008606"><ele>647.129700</ele><time>2021-07-17T12:11:21Z</time><extensions><speed>0.000000</speed><course>240.875916</course><hAcc>0.917719</hAcc><vAcc>0.749362</vAcc></extensions></trkpt>
      <trkpt lon="-4.153598" lat="53.008606"><ele>647.129700</ele><time>2021-07-17T12:11:22Z</time><extensions><speed>0.000000</speed><course>269.430084</course><hAcc>0.917687</hAcc><vAcc>0.749522</vAcc></extensions></trkpt>
      <trkpt lon="-4.153598" lat="53.008606"><ele>647.129700</ele><time>2021-07-17T12:11:23Z</time><extensions><speed>0.000000</speed><course>274.056000</course><hAcc>0.917456</hAcc><vAcc>0.749110</vAcc></extensions></trkpt>
      <trkpt lon="-4.153598" lat="53.008606"><ele>647.129700</ele><time>2021-07-17T12:11:24Z</time><extensions><speed>0.000000</speed><course>273.580658</course><hAcc>0.916998</hAcc><vAcc>0.748175</vAcc></extensions></trkpt>
      <trkpt lon="-4.153598" lat="53.008606"><ele>647.129700</ele><time>2021-07-17T12:11:25Z</time><extensions><speed>0.000000</speed><course>266.285736</course><hAcc>0.916258</hAcc><vAcc>0.746829</vAcc></extensions></trkpt>
      <trkpt lon="-4.153598" lat="53.008606"><ele>647.129700</ele><time>2021-07-17T12:11:26Z</time><extensions><speed>0.000000</speed><course>280.416809</course><hAcc>0.915266</hAcc><vAcc>0.745341</vAcc></extensions></trkpt>
      <trkpt lon="-4.153598" lat="53.008606"><ele>647.129700</ele><time>2021-07-17T12:11:27Z</time><extensions><speed>0.000000</speed><course>289.633057</course><hAcc>0.914317</hAcc><vAcc>0.744287</vAcc></extensions></trkpt>
      <trkpt lon="-4.153598" lat="53.008606"><ele>647.129700</ele><time>2021-07-17T12:11:28Z</time><extensions><speed>0.000000</speed><course>274.042023</course><hAcc>0.914239</hAcc><vAcc>0.744745</vAcc></extensions></trkpt>
      <trkpt lon="-4.153598" lat="53.008606"><ele>647.129700</ele><time>2021-07-17T12:11:29Z</time><extensions><speed>0.000000</speed><course>259.398621</course><hAcc>0.916759</hAcc><vAcc>0.748541</vAcc></extensions></trkpt>
      <trkpt lon="-4.153598" lat="53.008606"><ele>647.129700</ele><time>2021-07-17T12:11:30Z</time><extensions><speed>0.000000</speed><course>235.228027</course><hAcc>0.924938</hAcc><vAcc>0.758484</vAcc></extensions></trkpt>
      <trkpt lon="-4.153598" lat="53.008606"><ele>647.129700</ele><time>2021-07-17T12:11:31Z</time><extensions><speed>0.000000</speed><course>233.943741</course><hAcc>0.943575</hAcc><vAcc>0.778483</vAcc></extensions></trkpt>
      <trkpt lon="-4.153598" lat="53.008606"><ele>647.129700</ele><time>2021-07-17T12:11:32Z</time><extensions><speed>0.000000</speed><course>251.986771</course><hAcc>0.979320</hAcc><vAcc>0.813376</vAcc></extensions></trkpt>
      <trkpt lon="-4.153598" lat="53.008606"><ele>647.129700</ele><time>2021-07-17T12:11:33Z</time><extensions><speed>0.000000</speed><course>207.637573</course><hAcc>0.941004</hAcc><vAcc>0.777570</vAcc></extensions></trkpt>
      <trkpt lon="-4.153598" lat="53.008606"><ele>647.129700</ele><time>2021-07-17T12:11:34Z</time><extensions><speed>0.000000</speed><course>199.781464</course><hAcc>0.921656</hAcc><vAcc>0.756645</vAcc></extensions></trkpt>
      <trkpt lon="-4.153598" lat="53.008606"><ele>647.129700</ele><time>2021-07-17T12:11:35Z</time><extensions><speed>0.000000</speed><course>204.898392</course><hAcc>0.913938</hAcc><vAcc>0.746777</vAcc></extensions></trkpt>
      <trkpt lon="-4.153598" lat="53.008606"><ele>647.129700</ele><time>2021-07-17T12:11:36Z</time><extensions><speed>0.000000</speed><course>218.988647</course><hAcc>0.912373</hAcc><vAcc>0.743620</vAcc></extensions></trkpt>
      <trkpt lon="-4.153598" lat="53.008606"><ele>647.129700</ele><time>2021-07-17T12:11:37Z</time><extensions><speed>0.000000</speed><course>240.875916</course><hAcc>0.913473</hAcc><vAcc>0.744040</vAcc></extensions></trkpt>
      <trkpt lon="-4.153598" lat="53.008606"><ele>647.129700</ele><time>2021-07-17T12:11:38Z</time><extensions><speed>0.000000</speed><course>240.875916</course><hAcc>0.915286</hAcc><vAcc>0.746009</vAcc></extensions></trkpt>
      <trkpt lon="-4.153598" lat="53.008606"><ele>647.129700</ele><time>2021-07-17T12:11:39Z</time><extensions><speed>0.000000</speed><course>240.875916</course><hAcc>0.916899</hAcc><vAcc>0.748347</vAcc></extensions></trkpt>
      <trkpt lon="-4.153598" lat="53.008606"><ele>647.129700</ele><time>2021-07-17T12:11:40Z</time><extensions><speed>0.000000</speed><course>240.875916</course><hAcc>0.918015</hAcc><vAcc>0.750445</vAcc></extensions></trkpt>
      <trkpt lon="-4.153598" lat="53.008606"><ele>647.129700</ele><time>2021-07-17T12:11:41Z</time><extensions><speed>0.000000</speed><course>240.875916</course><hAcc>0.918649</hAcc><vAcc>0.752040</vAcc></extensions></trkpt>
      <trkpt lon="-4.153598" lat="53.008606"><ele>647.129700</ele><time>2021-07-17T12:11:42Z</time><extensions><speed>0.000000</speed><course>240.875916</course><hAcc>0.918924</hAcc><vAcc>0.753047</vAcc></extensions></trkpt>
      <trkpt lon="-4.153598" lat="53.008606"><ele>647.129700</ele><time>2021-07-17T12:11:43Z</time><extensions><speed>0.000000</speed><course>269.430084</course><hAcc>0.918950</hAcc><vAcc>0.753456</vAcc></extensions></trkpt>
      <trkpt lon="-4.153598" lat="53.008606"><ele>647.129700</ele><time>2021-07-17T12:11:44Z</time><extensions><speed>0.000000</speed><course>274.056000</course><hAcc>0.918772</hAcc><vAcc>0.753282</vAcc></extensions></trkpt>
      <trkpt lon="-4.153598" lat="53.008606"><ele>647.129700</ele><time>2021-07-17T12:11:45Z</time><extensions><speed>0.000000</speed><course>273.580658</course><hAcc>0.918360</hAcc><vAcc>0.752561</vAcc></extensions></trkpt>
      <trkpt lon="-4.153598" lat="53.008606"><ele>647.129700</ele><time>2021-07-17T12:11:46Z</time><extensions><speed>0.000000</speed><course>266.285736</course><hAcc>0.917666</hAcc><vAcc>0.751403</vAcc></extensions></trkpt>
      <trkpt lon="-4.153598" lat="53.008606"><ele>647.129700</ele><time>2021-07-17T12:11:47Z</time><extensions><speed>0.000000</speed><course>280.416809</course><hAcc>0.916729</hAcc><vAcc>0.750084</vAcc></extensions></trkpt>
      <trkpt lon="-4.153598" lat="53.008606"><ele>647.129700</ele><time>2021-07-17T12:11:48Z</time><extensions><speed>0.000000</speed><course>289.633057</course><hAcc>0.915853</hAcc><vAcc>0.749199</vAcc></extensions></trkpt>
      <trkpt lon="-4.153598" lat="53.008606"><ele>647.129700</ele><time>2021-07-17T12:11:49Z</time><extensions><speed>0.000000</speed><course>274.042023</course><hAcc>0.915877</hAcc><vAcc>0.749855</vAcc></extensions></trkpt>
      <trkpt lon="-4.153598" lat="53.008606"><ele>647.129700</ele><time>2021-07-17T12:11:50Z</time><extensions><speed>0.000000</speed><course>259.398621</course><hAcc>0.918539</hAcc><vAcc>0.753910</vAcc></extensions></trkpt>
      <trkpt lon="-4.153598" lat="53.008606"><ele>647.129700</ele><time>2021-07-17T12:11:51Z</time><extensions><speed>0.000000</speed><course>235.228027</course><hAcc>0.926904</hAcc><vAcc>0.764203</vAcc></extensions></trkpt>
      <trkpt lon="-4.153598" lat="53.008606"><ele>647.129700</ele><time>2021-07-17T12:11:52Z</time><extensions><speed>0.000000</speed><course>233.943741</course><hAcc>0.945769</hAcc><vAcc>0.784652</vAcc></extensions></trkpt>
      <trkpt lon="-4.153598" lat="53.008606"><ele>647.129700</ele><time>2021-07-17T12:11:53Z</time><extensions><speed>0.000000</speed><course>251.986771</course><hAcc>0.981764</hAcc><vAcc>0.820093</vAcc></extensions></trkpt>
      <trkpt lon="-4.153598" lat="53.008606"><ele>647.129700</ele><time>2021-07-17T12:11:54Z</time><extensions><speed>0.000000</speed><course>207.637573</course><hAcc>0.942958</hAcc><vAcc>0.783241</vAcc></extensions></trkpt>
      <trkpt lon="-4.153598" lat="53.008606"><ele>647.129700</ele><time>2021-07-17T12:11:55Z</time><extensions><speed>0.000000</speed><course>199.781464</course><hAcc>0.923229</hAcc><vAcc>0.761519</vAcc></extensions></trkpt>
      <trkpt lon="-4.153598" lat="53.008606"><ele>647.129700</ele><time>2021-07-17T12:11:56Z</time><extensions><speed>0.000000</speed><course>204.898392</course><hAcc>0.915121</hAcc><vAcc>0.750816</vAcc></extensions></trkpt>
      <trkpt lon="-4.153598" lat="53.008606"><ele>647.129700</ele><time>2021-07-17T12:11:57Z</time><extensions><speed>0.000000</speed><course>218.988647</course><hAcc>0.913175</hAcc><vAcc>0.746777</vAcc></extensions></trkpt>
      <trkpt lon="-4.153598" lat="53.008606"><ele>647.129700</ele><time>2021-07-17T12:11:58Z</time><extensions><speed>0.000000</speed><course>240.875916</course><hAcc>0.913905</hAcc><vAcc>0.746245</vAcc></extensions></trkpt>
      <trkpt lon="-4.153598" lat="53.008606"><ele>647.129700</ele><time>2021-07-17T12:11:59Z</time><extensions><speed>0.000000</speed><course>240.875916</course><hAcc>0.915364</hAcc><vAcc>0.747168</vAcc></extensions></trkpt>
      <trkpt lon="-4.153598" lat="53.008606"><ele>647.129700</ele><time>2021-07-17T12:12:00Z</time><extensions><speed>0.000000</speed><course>240.875916</course><hAcc>0.916642</hAcc><vAcc>0.748361</vAcc></extensions></trkpt>
      <trkpt lon="-4.153598" lat="53.008606"><ele>647.129700</ele><time>2021-07-17T12:12:01Z</time><extensions><speed>0.000000</speed><course>240.875916</course><hAcc>0.917443</hAcc><vAcc>0.749243</vAcc></extensions></trkpt>
      <trkpt lon="-4.153598" lat="53.008606"><ele>647.129700</ele><time>2021-07-17T12:12:02Z</time><extensions><speed>0.000000</speed><course>240.875916</course><hAcc>0.917787</hAcc><vAcc>0.749608</vAcc></extensions></trkpt>
      <trkpt lon="-4.153598" lat="53.008606"><ele>647.129700</ele><time>2021-07-17T12:12:03Z</time><extensions><speed>0.000000</speed><course>240.875916</course><hAcc>0.917805</hAcc><vAcc>0.749455</vAcc></extensions></trkpt>
      <trkpt lon="-4.153598" lat="53.008606"><ele>647.129700</ele><time>2021-07-17T12:12:04Z</time><extensions><speed>0.000000</speed><course>269.430084</course><hAcc>0.917612</hAcc><vAcc>0.748865</vAcc></extensions></trkpt>
      <trkpt lon="-4.153598" lat="53.008606"><ele>647.129700</ele><time>2021-07-17T12:12:05Z</time><extensions><speed>0.000000</speed><course>274.056000</course><hAcc>0.917257</hAcc><vAcc>0.747927</vAcc></extensions></trkpt>
      <trkpt lon="-4.153598" lat="53.008606"><ele>647.129700</ele><time>2021-07-17T12:12:06Z</time><extensions><speed>0.000000</speed><course>273.580658</course><hAcc>0.916713</hAcc><vAcc>0.746705</vAcc></extensions></trkpt>
      <trkpt lon="-4.153598" lat="53.008606"><ele>647.129700</ele><time>2021-07-17T12:12:07Z</time><extensions><speed>0.000000</speed><course>266.285736</course><hAcc>0.915925</hAcc><vAcc>0.745288</vAcc></extensions></trkpt>
      <trkpt lon="-4.153598" lat="53.008606"><ele>647.129700</ele><time>2021-07-17T12:12:08Z</time><extensions><speed>0.000000</speed><course>280.416809</course><hAcc>0.914924</hAcc><vAcc>0.743897</vAcc></extensions></trkpt>
      <trkpt lon="-4.153598" lat="53.008606"><ele>647.129700</ele><time>2021-07-17T12:12:09Z</time><extensions><speed>0.000000</speed><course>289.633057</course><hAcc>0.914000</hAcc><vAcc>0.743050</vAcc></extensions></trkpt>
      <trkpt lon="-4.153598" lat="53.008606"><ele>647.129700</ele><time>2021-07-17T12:12:10Z</time><extensions><speed>0.000000</speed><course>274.042023</course><hAcc>0.913959</hAcc><vAcc>0.743766</vAcc></extensions></trkpt>
      <trkpt lon="-4.153598" lat="53.008606"><ele>647.129700</ele><time>2021-07-17T12:12:11Z</time><extensions><speed>0.000000</speed><course>259.398621</course><hAcc>0.916520</hAcc><vAcc>0.747828</vAcc></extensions></trkpt>
      <trkpt lon="-4.153598" lat="53.008606"><ele>647.129700</ele><time>2021-07-17T12:12:12Z</time><extensions><speed>0.000000</speed><course>235.228027</course><hAcc>0.924754</hAcc><vAcc>0.758026</vAcc></extensions></trkpt>
      <trkpt lon="-4.153598" lat="53.008606"><ele>647.129700</ele><time>2021-07-17T12:12:13Z</time><extensions><speed>0.000000</speed><course>233.943741</course><hAcc>0.943451</hAcc><vAcc>0.778236</vAcc></extensions></trkpt>
      <trkpt lon="-4.153598" lat="53.008606"><ele>647.129700</ele><time>2021-07-17T12:12:14Z</time><extensions><speed>0.000000</speed><course>251.986771</course><hAcc>0.979253</hAcc><vAcc>0.813282</vAcc></extensions></trkpt>
      <trkpt lon="-4.153598" lat="53.008606"><ele>647.129333</ele><time>2021-07-17T12:12:15Z</time><extensions><speed>0.000808</speed><course>207.637573</course><hAcc>0.940603</hAcc><vAcc>0.777186</vAcc></extensions></trkpt>
      <trkpt lon="-4.153598" lat="53.008606"><ele>647.130493</ele><time>2021-07-17T12:12:16Z</time><extensions><speed>0.000890</speed><course>199.781464</course><hAcc>0.920793</hAcc><vAcc>0.755592</vAcc></extensions></trkpt>
      <trkpt lon="-4.153598" lat="53.008606"><ele>647.131775</ele><time>2021-07-17T12:12:17Z</time><extensions><speed>0.000994</speed><course>204.898392</course><hAcc>0.912425</hAcc><vAcc>0.744839</vAcc></extensions></trkpt>
      <trkpt lon="-4.153598" lat="53.008606"><ele>647.133179</ele><time>2021-07-17T12:12:18Z</time><extensions><speed>0.001118</speed><course>218.988647</course><hAcc>0.910004</hAcc><vAcc>0.740573</vAcc></extensions></trkpt>
      <trkpt lon="-4.153598" lat="53.008606"><ele>647.134827</ele><time>2021-07-17T12:12:19Z</time><extensions><speed>0.001263</speed><course>240.875916</course><hAcc>0.910012</hAcc><vAcc>0.739652</vAcc></extensions></trkpt>
      <trkpt lon="-4.153598" lat="53.008606"><ele>647.136597</ele><time>2021-07-17T12:12:20Z</time><extensions><speed>0.001427</speed><course>240.875916</course><hAcc>0.910479</hAcc><vAcc>0.740041</vAcc></extensions></trkpt>
      <trkpt lon="-4.153598" lat="53.008606"><ele>647.138550</ele><time>2021-07-17T12:12:21Z</time><extensions><speed>0.001610</speed><course>240.875916</course><hAcc>0.910478</hAcc><vAcc>0.740574</vAcc></extensions></trkpt>
      <trkpt lon="-4.153598" lat="53.008606"><ele>647.140747</ele><time>2021-07-17T12:12:22Z</time><extensions><speed>0.001807</speed><course>240.875916</course><hAcc>0.909720</hAcc><vAcc>0.740685</vAcc></extensions></trkpt>
      <trkpt lon="-4.153598" lat="53.008606"><ele>647.143066</ele><time>2021-07-17T12:12:22Z</time><extensions><speed>0.002016</speed><course>240.875916</course><hAcc>0.908300</hAcc><vAcc>0.740223</vAcc></extensions></trkpt>
      <trkpt lon="-4.153598" lat="53.008606"><ele>647.145630</ele><time>2021-07-17T12:12:23Z</time><extensions><speed>0.002232</speed><course>240.875916</course><hAcc>0.906418</hAcc><vAcc>0.739227</vAcc></extensions></trkpt>
      <trkpt lon="-4.153598" lat="53.008606"><ele>647.148315</ele><time>2021-07-17T12:12:24Z</time><extensions><speed>0.002450</speed><course>269.430084</course><hAcc>0.904283</hAcc><vAcc>0.737824</vAcc></extensions></trkpt>
      <trkpt lon="-4.153598" lat="53.008606"><ele>647.151062</ele><time>2021-07-17T12:12:25Z</time><extensions><speed>0.002662</speed><course>274.056000</course><hAcc>0.902112</hAcc><vAcc>0.736193</vAcc></extensions></trkpt>
      <trkpt lon="-4.153598" lat="53.008606"><ele>647.153809</ele><time>2021-07-17T12:12:26Z</time><extensions><speed>0.002863</speed><course>273.580658</course><hAcc>0.900068</hAcc><vAcc>0.734505</vAcc></extensions></trkpt>
      <trkpt lon="-4.153598" lat="53.008606"><ele>647.156494</ele><time>2021-07-17T12:12:27Z</time><extensions><speed>0.003043</speed><course>266.285736</course><hAcc>0.898256</hAcc><vAcc>0.732894</vAcc></extensions></trkpt>
      <trkpt lon="-4.153598" lat="53.008606"><ele>647.158875</ele><time>2021-07-17T12:12:28Z</time><extensions><speed>0.003195</speed><course>280.416809</course><hAcc>0.896729</hAcc><vAcc>0.731454</vAcc></extensions></trkpt>
      <trkpt lon="-4.153598" lat="53.008606"><ele>647.160950</ele><time>2021-07-17T12:12:29Z</time><extensions><speed>0.003316</speed><course>289.633057</course><hAcc>0.895499</hAcc><vAcc>0.730240</vAcc></extensions></trkpt>
      <trkpt lon="-4.153598" lat="53.008606"><ele>647.162476</ele><time>2021-07-17T12:12:30Z</time><extensions><speed>0.003407</speed><course>274.042023</course><hAcc>0.894550</hAcc><vAcc>0.729272</vAcc></extensions></trkpt>
      <trkpt lon="-4.153598" lat="53.008606"><ele>647.163147</ele><time>2021-07-17T12:12:31Z</time><extensions><speed>0.003488</speed><course>259.398621</course><hAcc>0.893848</hAcc><vAcc>0.728544</vAcc></extensions></trkpt>
      <trkpt lon="-4.153598" lat="53.008606"><ele>647.162781</ele><time>2021-07-17T12:12:32Z</time><extensions><speed>0.003602</speed><course>235.228027</course><hAcc>0.893352</hAcc><vAcc>0.728036</vAcc></extensions></trkpt>
      <trkpt lon="-4.153598" lat="53.008606"><ele>647.161072</ele><time>2021-07-17T12:12:33Z</time><extensions><speed>0.003842</speed><course>233.943741</course><hAcc>0.893020</hAcc><vAcc>0.727717</vAcc></extensions></trkpt>
      <trkpt lon="-4.153598" lat="53.008606"><ele>647.157654</ele><time>2021-07-17T12:12:34Z</time><extensions><speed>0.004340</speed><course>251.986771</course><hAcc>0.892813</hAcc><vAcc>0.727551</vAcc></extensions></trkpt>
      <trkpt lon="-4.153598" lat="53.008606"><ele>647.152161</ele><time>2021-07-17T12:12:35Z</time><extensions><speed>0.005246</speed><course>230.632401</course><hAcc>0.892696</hAcc><vAcc>0.727500</vAcc></extensions></trkpt>
      <trkpt lon="-4.153598" lat="53.008606"><ele>647.144287</ele><time>2021-07-17T12:12:36Z</time><extensions><speed>0.006673</speed><course>208.539734</course><hAcc>0.892642</hAcc><vAcc>0.727528</vAcc></extensions></trkpt>
      <trkpt lon="-4.153597" lat="53.008606"><ele>647.133484</ele><time>2021-07-17T12:12:37Z</time><extensions><speed>0.008699</speed><course>217.062653</course><hAcc>0.892628</hAcc><vAcc>0.727602</vAcc></extensions></trkpt>
      <trkpt lon="-4.153597" lat="53.008606"><ele>647.119385</ele><time>2021-07-17T12:12:38Z</time><extensions><speed>0.011381</speed><course>216.480164</course><hAcc>0.892640</hAcc><vAcc>0.727697</vAcc></extensions></trkpt>
      <trkpt lon="-4.153597" lat="53.008606"><ele>647.101624</ele><time>2021-07-17T12:12:39Z</time><extensions><speed>0.014774</speed><course>215.204285</course><hAcc>0.892663</hAcc><vAcc>0.727793</vAcc></extensions></trkpt>
      <trkpt lon="-4.153598" lat="53.008606"><ele>647.079651</ele><time>2021-07-17T12:12:40Z</time><extensions><speed>0.018932</speed><course>192.608246</course><hAcc>0.892690</hAcc><vAcc>0.727879</vAcc></extensions></trkpt>
      <trkpt lon="-4.153598" lat="53.008606"><ele>647.053223</ele><time>2021-07-17T12:12:41Z</time><extensions><speed>0.023905</speed><course>196.818375</course><hAcc>0.892714</hAcc><vAcc>0.727945</vAcc></extensions></trkpt>
      <trkpt lon="-4.153598" lat="53.008605"><ele>647.021912</ele><time>2021-07-17T12:12:42Z</time><extensions><speed>0.029727</speed><course>200.564194</course><hAcc>0.892729</hAcc><vAcc>0.727987</vAcc></extensions></trkpt>
      <trkpt lon="-4.153598" lat="53.008605"><ele>646.985535</ele><time>2021-07-17T12:12:43Z</time><extensions><speed>0.036405</speed><course>224.718231</course><hAcc>0.892730</hAcc><vAcc>0.728001</vAcc></extensions></trkpt>
      <trkpt lon="-4.153598" lat="53.008605"><ele>646.944031</ele><time>2021-07-17T12:12:44Z</time><extensions><speed>0.043908</speed><course>228.969803</course><hAcc>0.892713</hAcc><vAcc>0.727978</vAcc></extensions></trkpt>
      <trkpt lon="-4.153599" lat="53.008604"><ele>646.897461</ele><time>2021-07-17T12:12:45Z</time><extensions><speed>0.052148</speed><course>250.366501</course><hAcc>0.892670</hAcc><vAcc>0.727907</vAcc></extensions></trkpt>
      <trkpt lon="-4.153599" lat="53.008604"><ele>646.846069</ele><time>2021-07-17T12:12:46Z</time><extensions><speed>0.060963</speed><course>-1.000000</course><hAcc>0.892597</hAcc><vAcc>0.727771</vAcc></extensions></trkpt>
      <trkpt lon="-4.153600" lat="53.008604"><ele>646.790344</ele><time>2021-07-17T12:12:47Z</time><extensions><speed>0.070101</speed><course>232.063629</course><hAcc>0.892485</hAcc><vAcc>0.727547</vAcc></extensions></trkpt>
      <trkpt lon="-4.153601" lat="53.008603"><ele>646.731262</ele><time>2021-07-17T12:12:48Z</time><extensions><speed>0.079193</speed><course>232.063614</course><hAcc>0.892328</hAcc><vAcc>0.727207</vAcc></extensions></trkpt>
      <trkpt lon="-4.153602" lat="53.008603"><ele>646.670044</ele><time>2021-07-17T12:12:49Z</time><extensions><speed>0.087734</speed><course>232.063614</course><hAcc>0.892119</hAcc><vAcc>0.726721</vAcc></extensions></trkpt>
      <trkpt lon="-4.153603" lat="53.008602"><ele>646.608276</ele><time>2021-07-17T12:12:50Z</time><extensions><speed>0.095059</speed><course>232.063599</course><hAcc>0.891852</hAcc><vAcc>0.726053</vAcc></extensions></trkpt>
      <trkpt lon="-4.153604" lat="53.008602"><ele>646.548157</ele><time>2021-07-17T12:12:51Z</time><extensions><speed>0.100322</speed><course>232.063599</course><hAcc>0.891526</hAcc><vAcc>0.725170</vAcc></extensions></trkpt>
      <trkpt lon="-4.153605" lat="53.008601"><ele>646.492493</ele><time>2021-07-17T12:12:52Z</time><extensions><speed>0.102480</speed><course>232.063583</course><hAcc>0.891142</hAcc><vAcc>0.724046</vAcc></extensions></trkpt>
      <trkpt lon="-4.153606" lat="53.008600"><ele>646.444580</ele><time>2021-07-17T12:12:53Z</time><extensions><speed>0.100292</speed><course>232.063583</course><hAcc>0.890702</hAcc><vAcc>0.722668</vAcc></extensions></trkpt>
      <trkpt lon="-4.153608" lat="53.008600"><ele>646.408447</ele><time>2021-07-17T12:12:54Z</time><extensions><speed>0.092343</speed><course>248.555511</course><hAcc>0.890216</hAcc><vAcc>0.721044</vAcc></extensions></trkpt>
      <trkpt lon="-4.153609" lat="53.008600"><ele>646.388000</ele><time>2021-07-17T12:12:55Z</time><extensions><speed>0.079275</speed><course>214.727661</course><hAcc>0.889694</hAcc><vAcc>0.719216</vAcc></extensions></trkpt>
      <trkpt lon="-4.153610" lat="53.008600"><ele>646.385010</ele><time>2021-07-17T12:12:56Z</time><extensions><speed>0.064035</speed><course>215.656113</course><hAcc>0.889147</hAcc><vAcc>0.717250</vAcc></extensions></trkpt>
      <trkpt lon="-4.153611" lat="53.008600"><ele>646.399048</ele><time>2021-07-17T12:12:57Z</time><extensions><speed>0.049909</speed><course>205.637772</course><hAcc>0.888592</hAcc><vAcc>0.715226</vAcc></extensions></trkpt>
      <trkpt lon="-4.153611" lat="53.008600"><ele>646.428040</ele><time>2021-07-17T12:12:58Z</time><extensions><speed>0.040778</speed><course>201.575424</course><hAcc>0.888048</hAcc><vAcc>0.713221</vAcc></extensions></trkpt>
      <trkpt lon="-4.153612" lat="53.008600"><ele>646.468750</ele><time>2021-07-17T12:12:59Z</time><extensions><speed>0.039382</speed><course>196.854248</course><hAcc>0.887537</hAcc><vAcc>0.711313</vAcc></extensions></trkpt>
      <trkpt lon="-4.153612" lat="53.008600"><ele>646.517395</ele><time>2021-07-17T12:13:00Z</time><extensions><speed>0.044270</speed><course>198.264053</course><hAcc>0.887079</hAcc><vAcc>0.709590</vAcc></extensions></trkpt>
      <trkpt lon="-4.153612" lat="53.008601"><ele>646.570129</ele><time>2021-07-17T12:13:01Z</time><extensions><speed>0.051654</speed><course>198.636932</course><hAcc>0.886692</hAcc><vAcc>0.708138</vAcc></extensions></trkpt>
      <trkpt lon="-4.153612" lat="53.008601"><ele>646.623291</ele><time>2021-07-17T12:13:02Z</time><extensions><speed>0.058878</speed><course>192.727798</course><hAcc>0.886390</hAcc><vAcc>0.707035</vAcc></extensions></trkpt>
      <trkpt lon="-4.153612" lat="53.008602"><ele>646.673401</ele><time>2021-07-17T12:13:03Z</time><extensions><speed>0.064727</speed><course>184.691818</course><hAcc>0.886182</hAcc><vAcc>0.706332</vAcc></extensions></trkpt>
      <trkpt lon="-4.153612" lat="53.008602"><ele>646.717651</ele><time>2021-07-17T12:13:04Z</time><extensions><speed>0.068801</speed><course>177.917740</course><hAcc>0.886070</hAcc><vAcc>0.706040</vAcc></extensions></trkpt>
      <trkpt lon="-4.153612" lat="53.008603"><ele>646.753906</ele><time>2021-07-17T12:13:05Z</time><extensions><speed>0.071007</speed><course>169.935883</course><hAcc>0.886045</hAcc><vAcc>0.706128</vAcc></extensions></trkpt>
      <trkpt lon="-4.153611" lat="53.008603"><ele>646.780762</ele><time>2021-07-17T12:13:06Z</time><extensions><speed>0.071473</speed><course>168.290512</course><hAcc>0.886095</hAcc><vAcc>0.706534</vAcc></extensions></trkpt>
      <trkpt lon="-4.153611" lat="53.008604"><ele>646.797485</ele><time>2021-07-17T12:13:07Z</time><extensions><speed>0.070677</speed><course>175.847488</course><hAcc>0.886202</hAcc><vAcc>0.707169</vAcc></extensions></trkpt>
      <trkpt lon="-4.153611" lat="53.008605"><ele>646.804199</ele><time>2021-07-17T12:13:08Z</time><extensions><speed>0.069212</speed><course>182.489380</course><hAcc>0.886345</hAcc><vAcc>0.707928</vAcc></extensions></trkpt>
      <trkpt lon="-4.153610" lat="53.008605"><ele>646.801819</ele><time>2021-07-17T12:13:09Z</time><extensions><speed>0.067572</speed><course>193.224472</course><hAcc>0.886504</hAcc><vAcc>0.708699</vAcc></extensions></trkpt>
      <trkpt lon="-4.153610" lat="53.008606"><ele>646.792175</ele><time>2021-07-17T12:13:10Z</time><extensions><speed>0.066149</speed><course>210.457108</course><hAcc>0.886657</hAcc><vAcc>0.709388</vAcc></extensions></trkpt>
      <trkpt lon="-4.153610" lat="53.008606"><ele>646.778137</ele><time>2021-07-17T12:13:11Z</time><extensions><speed>0.065223</speed><course>227.054108</course><hAcc>0.886790</hAcc><vAcc>0.709926</vAcc></extensions></trkpt>
      <trkpt lon="-4.153609" lat="53.008607"><ele>646.762817</ele><time>2021-07-17T12:13:12Z</time><extensions><speed>0.065071</speed><course>247.666534</course><hAcc>0.886891</hAcc><vAcc>0.710270</vAcc></extensions></trkpt>
      <trkpt lon="-4.153609" lat="53.008607"><ele>646.749146</ele><time>2021-07-17T12:13:13Z</time><extensions><speed>0.065977</speed><course>261.197876</course><hAcc>0.886956</hAcc><vAcc>0.710408</vAcc></extensions></trkpt>
      <trkpt lon="-4.153608" lat="53.008608"><ele>646.739319</ele><time>2021-07-17T12:13:14Z</time><extensions><speed>0.067875</speed><course>263.217255</course><hAcc>0.886984</hAcc><vAcc>0.710357</vAcc></extensions></trkpt>
      <trkpt lon="-4.153607" lat="53.008608"><ele>646.734619</ele><time>2021-07-17T12:13:15Z</time><extensions><speed>0.070306</speed><course>271.463165</course><hAcc>0.886984</hAcc><vAcc>0.710155</vAcc></extensions></trkpt>
      <trkpt lon="-4.153607" lat="53.008609"><ele>646.735291</ele><time>2021-07-17T12:13:16Z</time><extensions><speed>0.072627</speed><course>281.991608</course><hAcc>0.886966</hAcc><vAcc>0.709856</vAcc></extensions></trkpt>
      <trkpt lon="-4.153606" lat="53.008609"><ele>646.740662</ele><time>2021-07-17T12:13:17Z</time><extensions><speed>0.074034</speed><course>285.895782</course><hAcc>0.886944</hAcc><vAcc>0.709530</vAcc></extensions></trkpt>
      <trkpt lon="-4.153605" lat="53.008610"><ele>646.748962</ele><time>2021-07-17T12:13:18Z</time><extensions><speed>0.073584</speed><course>287.327179</course><hAcc>0.886934</hAcc><vAcc>0.709256</vAcc></extensions></trkpt>
      <trkpt lon="-4.153604" lat="53.008610"><ele>646.758057</ele><time>2021-07-17T12:13:19Z</time><extensions><speed>0.071048</speed><course>297.396240</course><hAcc>0.886951</hAcc><vAcc>0.709117</vAcc></extensions></trkpt>
      <trkpt lon="-4.153604" lat="53.008611"><ele>646.765747</ele><time>2021-07-17T12:13:20Z</time><extensions><speed>0.066913</speed><course>299.473175</course><hAcc>0.887006</hAcc><vAcc>0.709187</vAcc></extensions></trkpt>
      <trkpt lon="-4.153603" lat="53.008611"><ele>646.769958</ele><time>2021-07-17T12:13:21Z</time><extensions><speed>0.061507</speed><course>297.683289</course><hAcc>0.887108</hAcc><vAcc>0.709504</vAcc></extensions></trkpt>
      <trkpt lon="-4.153603" lat="53.008611"><ele>646.769104</ele><time>2021-07-17T12:13:22Z</time><extensions><speed>0.055244</speed><course>292.365356</course><hAcc>0.887259</hAcc><vAcc>0.710065</vAcc></extensions></trkpt>
      <trkpt lon="-4.153602" lat="53.008612"><ele>646.761597</ele><time>2021-07-17T12:13:23Z</time><extensions><speed>0.048673</speed><course>291.092651</course><hAcc>0.887457</hAcc><vAcc>0.710827</vAcc></extensions></trkpt>
      <trkpt lon="-4.153602" lat="53.008612"><ele>646.746277</ele><time>2021-07-17T12:13:24Z</time><extensions><speed>0.042263</speed><course>297.007721</course><hAcc>0.887697</hAcc><vAcc>0.711731</vAcc></extensions></trkpt>
      <trkpt lon="-4.153601" lat="53.008612"><ele>646.722107</ele><time>2021-07-17T12:13:25Z</time><extensions><speed>0.036424</speed><course>291.539093</course><hAcc>0.887973</hAcc><vAcc>0.712722</vAcc></extensions></trkpt>
      <trkpt lon="-4.153601" lat="53.008613"><ele>646.688293</ele><time>2021-07-17T12:13:27Z</time><extensions><speed>0.031511</speed><course>293.314819</course><hAcc>0.888258</hAcc><vAcc>0.713739</vAcc></extensions></trkpt>
      <trkpt lon="-4.153601" lat="53.008613"><ele>646.644531</ele><time>2021-07-17T12:13:28Z</time><extensions><speed>0.027846</speed><course>297.043213</course><hAcc>0.888544</hAcc><vAcc>0.714744</vAcc></extensions></trkpt>
      <trkpt lon="-4.153601" lat="53.008613"><ele>646.590637</ele><time>2021-07-17T12:13:29Z</time><extensions><speed>0.025576</speed><course>301.573547</course><hAcc>0.888844</hAcc><vAcc>0.715731</vAcc></extensions></trkpt>
      <trkpt lon="-4.153601" lat="53.008614"><ele>646.527100</ele><time>2021-07-17T12:13:30Z</time><extensions><speed>0.024605</speed><course>305.542847</course><hAcc>0.889154</hAcc><vAcc>0.716692</vAcc></extensions></trkpt>
      <trkpt lon="-4.153601" lat="53.008614"><ele>646.454651</ele><time>2021-07-17T12:13:31Z</time><extensions><speed>0.024558</speed><course>304.461029</course><hAcc>0.889479</hAcc><vAcc>0.717632</vAcc></extensions></trkpt>
      <trkpt lon="-4.153602" lat="53.008614"><ele>646.374878</ele><time>2021-07-17T12:13:32Z</time><extensions><speed>0.024898</speed><course>304.519958</course><hAcc>0.889827</hAcc><vAcc>0.718566</vAcc></extensions></trkpt>
      <trkpt lon="-4.153602" lat="53.008614"><ele>646.289734</ele><time>2021-07-17T12:13:33Z</time><extensions><speed>0.025068</speed><course>306.835541</course><hAcc>0.890213</hAcc><vAcc>0.719516</vAcc></extensions></trkpt>
      <trkpt lon="-4.153602" lat="53.008614"><ele>646.202332</ele><time>2021-07-17T12:13:34Z</time><extensions><speed>0.024559</speed><course>312.924469</course><hAcc>0.890660</hAcc><vAcc>0.720509</vAcc></extensions></trkpt>
      <trkpt lon="-4.153602" lat="53.008614"><ele>646.115723</ele><time>2021-07-17T12:13:35Z</time><extensions><speed>0.023246</speed><course>313.121582</course><hAcc>0.891197</hAcc><vAcc>0.721574</vAcc></extensions></trkpt>
      <trkpt lon="-4.153603" lat="53.008615"><ele>646.032654</ele><time>2021-07-17T12:13:36Z</time><extensions><speed>0.021359</speed><course>312.363678</course><hAcc>0.891860</hAcc><vAcc>0.722738</vAcc></extensions></trkpt>
      <trkpt lon="-4.153603" lat="53.008615"><ele>645.954895</ele><time>2021-07-17T12:13:37Z</time><extensions><speed>0.019110</speed><course>309.905548</course><hAcc>0.892687</hAcc><vAcc>0.724027</vAcc></extensions></trkpt>
      <trkpt lon="-4.153603" lat="53.008615"><ele>645.883545</ele><time>2021-07-17T12:13:38Z</time><extensions><speed>0.016683</speed><course>308.597687</course><hAcc>0.893718</hAcc><vAcc>0.725462</vAcc></extensions></trkpt>
      <trkpt lon="-4.153603" lat="53.008615"><ele>645.819458</ele><time>2021-07-17T12:13:39Z</time><extensions><speed>0.014227</speed><course>307.103394</course><hAcc>0.894986</hAcc><vAcc>0.727051</vAcc></extensions></trkpt>
      <trkpt lon="-4.153603" lat="53.008615"><ele>645.762878</ele><time>2021-07-17T12:13:40Z</time><extensions><speed>0.011858</speed><course>306.897400</course><hAcc>0.896512</hAcc><vAcc>0.728784</vAcc></extensions></trkpt>
      <trkpt lon="-4.153604" lat="53.008615"><ele>645.713806</ele><time>2021-07-17T12:13:41Z</time><extensions><speed>0.009661</speed><course>302.152618</course><hAcc>0.898295</hAcc><vAcc>0.730623</vAcc></extensions></trkpt>
      <trkpt lon="-4.153604" lat="53.008615"><ele>645.671997</ele><time>2021-07-17T12:13:42Z</time><extensions><speed>0.007696</speed><course>297.726410</course><hAcc>0.900298</hAcc><vAcc>0.732500</vAcc></extensions></trkpt>
      <trkpt lon="-4.153604" lat="53.008615"><ele>645.637085</ele><time>2021-07-17T12:13:43Z</time><extensions><speed>0.006006</speed><course>300.194183</course><hAcc>0.902445</hAcc><vAcc>0.734311</vAcc></extensions></trkpt>
      <trkpt lon="-4.153604" lat="53.008615"><ele>645.608459</ele><time>2021-07-17T12:13:44Z</time><extensions><speed>0.004619</speed><course>297.151825</course><hAcc>0.904607</hAcc><vAcc>0.735924</vAcc></extensions></trkpt>
      <trkpt lon="-4.153604" lat="53.008615"><ele>645.585510</ele><time>2021-07-17T12:13:45Z</time><extensions><speed>0.003557</speed><course>298.399384</course><hAcc>0.906614</hAcc><vAcc>0.737203</vAcc></extensions></trkpt>
      <trkpt lon="-4.153604" lat="53.008615"><ele>645.567627</ele><time>2021-07-17T12:13:46Z</time><extensions><speed>0.002831</speed><course>300.837921</course><hAcc>0.908275</hAcc><vAcc>0.738036</vAcc></extensions></trkpt>
      <trkpt lon="-4.153604" lat="53.008615"><ele>645.554199</ele><time>2021-07-17T12:13:47Z</time><extensions><speed>0.002425</speed><course>299.844330</course><hAcc>0.909431</hAcc><vAcc>0.738409</vAcc></extensions></trkpt>
      <trkpt lon="-4.153604" lat="53.008615"><ele>645.544495</ele><time>2021-07-17T12:13:48Z</time><extensions><speed>0.002266</speed><course>300.001373</course><hAcc>0.910061</hAcc><vAcc>0.738498</vAcc></extensions></trkpt>
      <trkpt lon="-4.153604" lat="53.008615"><ele>645.537964</ele><time>2021-07-17T12:13:49Z</time><extensions><speed>0.002248</speed><course>294.568817</course><hAcc>0.910444</hAcc><vAcc>0.738818</vAcc></extensions></trkpt>
      <trkpt lon="-4.153604" lat="53.008615"><ele>645.533997</ele><time>2021-07-17T12:13:50Z</time><extensions><speed>0.002281</speed><course>300.687103</course><hAcc>0.911417</hAcc><vAcc>0.740419</vAcc></extensions></trkpt>
      <trkpt lon="-4.153604" lat="53.008615"><ele>645.532104</ele><time>2021-07-17T12:13:51Z</time><extensions><speed>0.002316</speed><course>297.691925</course><hAcc>0.914728</hAcc><vAcc>0.745113</vAcc></extensions></trkpt>
      <trkpt lon="-4.153604" lat="53.008615"><ele>645.531860</ele><time>2021-07-17T12:13:52Z</time><extensions><speed>0.002331</speed><course>293.928223</course><hAcc>0.923467</hAcc><vAcc>0.755707</vAcc></extensions></trkpt>
      <trkpt lon="-4.153604" lat="53.008615"><ele>645.532837</ele><time>2021-07-17T12:13:53Z</time><extensions><speed>0.002327</speed><course>297.041656</course><hAcc>0.942462</hAcc><vAcc>0.776111</vAcc></extensions></trkpt>
      <trkpt lon="-4.153604" lat="53.008615"><ele>645.534729</ele><time>2021-07-17T12:13:54Z</time><extensions><speed>0.002307</speed><course>298.722290</course><hAcc>0.978395</hAcc><vAcc>0.811182</vAcc></extensions></trkpt>
      <trkpt lon="-4.153604" lat="53.008615"><ele>645.578003</ele><time>2021-07-17T12:13:55Z</time><extensions><speed>0.000000</speed><course>207.637573</course><hAcc>0.940373</hAcc><vAcc>0.775873</vAcc></extensions></trkpt>
      <trkpt lon="-4.153604" lat="53.008615"><ele>645.578003</ele><time>2021-07-17T12:13:56Z</time><extensions><speed>0.000000</speed><course>199.781464</course><hAcc>0.921063</hAcc><vAcc>0.755041</vAcc></extensions></trkpt>
      <trkpt lon="-4.153604" lat="53.008615"><ele>645.578003</ele><time>2021-07-17T12:13:57Z</time><extensions><speed>0.000000</speed><course>204.898392</course><hAcc>0.913352</hAcc><vAcc>0.745188</vAcc></extensions></trkpt>
      <trkpt lon="-4.153604" lat="53.008615"><ele>645.578003</ele><time>2021-07-17T12:13:58Z</time><extensions><speed>0.000000</speed><course>218.988647</course><hAcc>0.911762</hAcc><vAcc>0.741966</vAcc></extensions></trkpt>
      <trkpt lon="-4.153604" lat="53.008615"><ele>645.578003</ele><time>2021-07-17T12:13:59Z</time><extensions><speed>0.000000</speed><course>240.875916</course><hAcc>0.912805</hAcc><vAcc>0.742240</vAcc></extensions></trkpt>
      <trkpt lon="-4.153604" lat="53.008615"><ele>645.578003</ele><time>2021-07-17T12:14:00Z</time><extensions><speed>0.000000</speed><course>240.875916</course><hAcc>0.914539</hAcc><vAcc>0.743981</vAcc></extensions></trkpt>
      <trkpt lon="-4.153604" lat="53.008615"><ele>645.578003</ele><time>2021-07-17T12:14:01Z</time><extensions><speed>0.000000</speed><course>240.875916</course><hAcc>0.916056</hAcc><vAcc>0.746011</vAcc></extensions></trkpt>
      <trkpt lon="-4.153604" lat="53.008615"><ele>645.578003</ele><time>2021-07-17T12:14:02Z</time><extensions><speed>0.000000</speed><course>240.875916</course><hAcc>0.917067</hAcc><vAcc>0.747733</vAcc></extensions></trkpt>
      <trkpt lon="-4.153604" lat="53.008615"><ele>645.578003</ele><time>2021-07-17T12:14:03Z</time><extensions><speed>0.000000</speed><course>240.875916</course><hAcc>0.917594</hAcc><vAcc>0.748908</vAcc></extensions></trkpt>
      <trkpt lon="-4.153604" lat="53.008615"><ele>645.578003</ele><time>2021-07-17T12:14:04Z</time><extensions><speed>0.000000</speed><course>240.875916</course><hAcc>0.917765</hAcc><vAcc>0.749477</vAcc></extensions></trkpt>
      <trkpt lon="-4.153604" lat="53.008615"><ele>645.578003</ele><time>2021-07-17T12:14:05Z</time><extensions><speed>0.000000</speed><course>269.430084</course><hAcc>0.917697</hAcc><vAcc>0.749460</vAcc></extensions></trkpt>
      <trkpt lon="-4.153604" lat="53.008615"><ele>645.578003</ele><time>2021-07-17T12:14:06Z</time><extensions><speed>0.000000</speed><course>274.056000</course><hAcc>0.917433</hAcc><vAcc>0.748899</vAcc></extensions></trkpt>
      <trkpt lon="-4.153604" lat="53.008615"><ele>645.578003</ele><time>2021-07-17T12:14:07Z</time><extensions><speed>0.000000</speed><course>273.580658</course><hAcc>0.916943</hAcc><vAcc>0.747848</vAcc></extensions></trkpt>
      <trkpt lon="-4.153604" lat="53.008615"><ele>645.578003</ele><time>2021-07-17T12:14:08Z</time><extensions><speed>0.000000</speed><course>266.285736</course><hAcc>0.916173</hAcc><vAcc>0.746418</vAcc></extensions></trkpt>
      <trkpt lon="-4.153604" lat="53.008615"><ele>645.578003</ele><time>2021-07-17T12:14:09Z</time><extensions><speed>0.000000</speed><course>280.416809</course><hAcc>0.915151</hAcc><vAcc>0.744871</vAcc></extensions></trkpt>
      <trkpt lon="-4.153604" lat="53.008615"><ele>645.578003</ele><time>2021-07-17T12:14:10Z</time><extensions><speed>0.000000</speed><course>289.633057</course><hAcc>0.914168</hAcc><vAcc>0.743767</vAcc></extensions></trkpt>
      <trkpt lon="-4.153604" lat="53.008615"><ele>645.578003</ele><time>2021-07-17T12:14:11Z</time><extensions><speed>0.000000</speed><course>274.042023</course><hAcc>0.914048</hAcc><vAcc>0.744169</vAcc></extensions></trkpt>
      <trkpt lon="-4.153604" lat="53.008615"><ele>645.578003</ele><time>2021-07-17T12:14:12Z</time><extensions><speed>0.000000</speed><course>259.398621</course><hAcc>0.916510</hAcc><vAcc>0.747879</vAcc></extensions></trkpt>
      <trkpt lon="-4.153604" lat="53.008615"><ele>645.578003</ele><time>2021-07-17T12:14:13Z</time><extensions><speed>0.000000</speed><course>235.228027</course><hAcc>0.924614</hAcc><vAcc>0.757680</vAcc></extensions></trkpt>
      <trkpt lon="-4.153604" lat="53.008615"><ele>645.578003</ele><time>2021-07-17T12:14:14Z</time><extensions><speed>0.000000</speed><course>233.943741</course><hAcc>0.943157</hAcc><vAcc>0.777460</vAcc></extensions></trkpt>
      <trkpt lon="-4.153604" lat="53.008615"><ele>645.578003</ele><time>2021-07-17T12:14:15Z</time><extensions><speed>0.000000</speed><course>251.986771</course><hAcc>0.978792</hAcc><vAcc>0.812049</vAcc></extensions></trkpt>
      <trkpt lon="-4.153604" lat="53.008615"><ele>645.578003</ele><time>2021-07-17T12:14:16Z</time><extensions><speed>0.000000</speed><course>207.637573</course><hAcc>0.940611</hAcc><vAcc>0.776511</vAcc></extensions></trkpt>
      <trkpt lon="-4.153604" lat="53.008615"><ele>645.578003</ele><time>2021-07-17T12:14:17Z</time><extensions><speed>0.000000</speed><course>199.781464</course><hAcc>0.921232</hAcc><vAcc>0.755439</vAcc></extensions></trkpt>
      <trkpt lon="-4.153604" lat="53.008615"><ele>645.578003</ele><time>2021-07-17T12:14:18Z</time><extensions><speed>0.000000</speed><course>204.898392</course><hAcc>0.913467</hAcc><vAcc>0.745386</vAcc></extensions></trkpt>
      <trkpt lon="-4.153604" lat="53.008615"><ele>645.578003</ele><time>2021-07-17T12:14:19Z</time><extensions><speed>0.000000</speed><course>218.988647</course><hAcc>0.911842</hAcc><vAcc>0.742021</vAcc></extensions></trkpt>
      <trkpt lon="-4.153604" lat="53.008615"><ele>645.578003</ele><time>2021-07-17T12:14:20Z</time><extensions><speed>0.000000</speed><course>240.875916</course><hAcc>0.912869</hAcc><vAcc>0.742218</vAcc></extensions></trkpt>
      <trkpt lon="-4.153604" lat="53.008615"><ele>645.578003</ele><time>2021-07-17T12:14:21Z</time><extensions><speed>0.000000</speed><course>240.875916</course><hAcc>0.914601</hAcc><vAcc>0.743955</vAcc></extensions></trkpt>
      <trkpt lon="-4.153604" lat="53.008615"><ele>645.578003</ele><time>2021-07-17T12:14:22Z</time><extensions><speed>0.000000</speed><course>240.875916</course><hAcc>0.916128</hAcc><vAcc>0.746051</vAcc></extensions></trkpt>
      <trkpt lon="-4.153604" lat="53.008615"><ele>645.578003</ele><time>2021-07-17T12:14:23Z</time><extensions><speed>0.000000</speed><course>240.875916</course><hAcc>0.917158</hAcc><vAcc>0.747899</vAcc></extensions></trkpt>
      <trkpt lon="-4.153604" lat="53.008615"><ele>645.578003</ele><time>2021-07-17T12:14:24Z</time><extensions><speed>0.000000</speed><course>240.875916</course><hAcc>0.917708</hAcc><vAcc>0.749237</vAcc></extensions></trkpt>
      <trkpt lon="-4.153604" lat="53.008615"><ele>645.578003</ele><time>2021-07-17T12:14:25Z</time><extensions><speed>0.000000</speed><course>240.875916</course><hAcc>0.917905</hAcc><vAcc>0.749984</vAcc></extensions></trkpt>
      <trkpt lon="-4.153604" lat="53.008615"><ele>645.578003</ele><time>2021-07-17T12:14:26Z</time><extensions><speed>0.000000</speed><course>269.430084</course><hAcc>0.917860</hAcc><vAcc>0.750135</vAcc></extensions></trkpt>
      <trkpt lon="-4.153604" lat="53.008615"><ele>645.578003</ele><time>2021-07-17T12:14:27Z</time><extensions><speed>0.000000</speed><course>274.056000</course><hAcc>0.917614</hAcc><vAcc>0.749709</vAcc></extensions></trkpt>
      <trkpt lon="-4.153604" lat="53.008615"><ele>645.578003</ele><time>2021-07-17T12:14:28Z</time><extensions><speed>0.000000</speed><course>273.580658</course><hAcc>0.917136</hAcc><vAcc>0.748750</vAcc></extensions></trkpt>
      <trkpt lon="-4.153604" lat="53.008615"><ele>645.578003</ele><time>2021-07-17T12:14:28Z</time><extensions><speed>0.000000</speed><course>266.285736</course><hAcc>0.916388</hAcc><vAcc>0.747381</vAcc></extensions></trkpt>
      <trkpt lon="-4.153604" lat="53.008615"><ele>645.578003</ele><time>2021-07-17T12:14:29Z</time><extensions><speed>0.000000</speed><course>280.416809</course><hAcc>0.915398</hAcc><vAcc>0.745869</vAcc></extensions></trkpt>
      <trkpt lon="-4.153604" lat="53.008615"><ele>645.578003</ele><time>2021-07-17T12:14:30Z</time><extensions><speed>0.000000</speed><course>289.633057</course><hAcc>0.914443</hAcc><vAcc>0.744775</vAcc></extensions></trkpt>
      <trkpt lon="-4.153604" lat="53.008615"><ele>645.578003</ele><time>2021-07-17T12:14:31Z</time><extensions><speed>0.000000</speed><course>274.042023</course><hAcc>0.914351</hAcc><vAcc>0.745176</vAcc></extensions></trkpt>
      <trkpt lon="-4.153604" lat="53.008615"><ele>645.578003</ele><time>2021-07-17T12:14:32Z</time><extensions><speed>0.000000</speed><course>259.398621</course><hAcc>0.916848</hAcc><vAcc>0.748896</vAcc></extensions></trkpt>
      <trkpt lon="-4.153604" lat="53.008615"><ele>645.578003</ele><time>2021-07-17T12:14:33Z</time><extensions><speed>0.000000</speed><course>235.228027</course><hAcc>0.924996</hAcc><vAcc>0.758741</vAcc></extensions></trkpt>
      <trkpt lon="-4.153604" lat="53.008615"><ele>645.578003</ele><time>2021-07-17T12:14:34Z</time><extensions><speed>0.000000</speed><course>233.943741</course><hAcc>0.943593</hAcc><vAcc>0.778613</vAcc></extensions></trkpt>
      <trkpt lon="-4.153604" lat="53.008615"><ele>645.578003</ele><time>2021-07-17T12:14:35Z</time><extensions><speed>0.000000</speed><course>251.986771</course><hAcc>0.979292</hAcc><vAcc>0.813354</vAcc></extensions></trkpt>
      <trkpt lon="-4.153604" lat="53.008615"><ele>645.578003</ele><time>2021-07-17T12:14:36Z</time><extensions><speed>0.000000</speed><course>207.637573</course><hAcc>0.941003</hAcc><vAcc>0.777602</vAcc></extensions></trkpt>
      <trkpt lon="-4.153604" lat="53.008615"><ele>645.578003</ele><time>2021-07-17T12:14:37Z</time><extensions><speed>0.000000</speed><course>199.781464</course><hAcc>0.921602</hAcc><vAcc>0.756537</vAcc></extensions></trkpt>
      <trkpt lon="-4.153604" lat="53.008615"><ele>645.578003</ele><time>2021-07-17T12:14:38Z</time><extensions><speed>0.000000</speed><course>204.898392</course><hAcc>0.913818</hAcc><vAcc>0.746504</vAcc></extensions></trkpt>
      <trkpt lon="-4.153604" lat="53.008615"><ele>645.578003</ele><time>2021-07-17T12:14:39Z</time><extensions><speed>0.000000</speed><course>218.988647</course><hAcc>0.912177</hAcc><vAcc>0.743155</vAcc></extensions></trkpt>
      <trkpt lon="-4.153604" lat="53.008615"><ele>645.578003</ele><time>2021-07-17T12:14:40Z</time><extensions><speed>0.000000</speed><course>240.875916</course><hAcc>0.913190</hAcc><vAcc>0.743352</vAcc></extensions></trkpt>
      <trkpt lon="-4.153604" lat="53.008615"><ele>645.578003</ele><time>2021-07-17T12:14:41Z</time><extensions><speed>0.000000</speed><course>240.875916</course><hAcc>0.914908</hAcc><vAcc>0.745060</vAcc></extensions></trkpt>
      <trkpt lon="-4.153604" lat="53.008615"><ele>645.578003</ele><time>2021-07-17T12:14:42Z</time><extensions><speed>0.000000</speed><course>240.875916</course><hAcc>0.916420</hAcc><vAcc>0.747092</vAcc></extensions></trkpt>
      <trkpt lon="-4.153604" lat="53.008615"><ele>645.578003</ele><time>2021-07-17T12:14:43Z</time><extensions><speed>0.000000</speed><course>240.875916</course><hAcc>0.917431</hAcc><vAcc>0.748841</vAcc></extensions></trkpt>
      <trkpt lon="-4.153604" lat="53.008615"><ele>645.578003</ele><time>2021-07-17T12:14:44Z</time><extensions><speed>0.000000</speed><course>240.875916</course><hAcc>0.917959</hAcc><vAcc>0.750052</vAcc></extensions></trkpt>
      <trkpt lon="-4.153604" lat="53.008615"><ele>645.578003</ele><time>2021-07-17T12:14:45Z</time><extensions><speed>0.000000</speed><course>240.875916</course><hAcc>0.918129</hAcc><vAcc>0.750653</vAcc></extensions></trkpt>
      <trkpt lon="-4.153604" lat="53.008615"><ele>645.578003</ele><time>2021-07-17T12:14:46Z</time><extensions><speed>0.000000</speed><course>269.430084</course><hAcc>0.918053</hAcc><vAcc>0.750648</vAcc></extensions></trkpt>
      <trkpt lon="-4.153604" lat="53.008615"><ele>645.578003</ele><time>2021-07-17T12:14:47Z</time><extensions><speed>0.000000</speed><course>274.056000</course><hAcc>0.917774</hAcc><vAcc>0.750062</vAcc></extensions></trkpt>
      <trkpt lon="-4.153604" lat="53.008615"><ele>645.578003</ele><time>2021-07-17T12:14:48Z</time><extensions><speed>0.000000</speed><course>273.580658</course><hAcc>0.917262</hAcc><vAcc>0.748943</vAcc></extensions></trkpt>
      <trkpt lon="-4.153604" lat="53.008615"><ele>645.578003</ele><time>2021-07-17T12:14:49Z</time><extensions><speed>0.000000</speed><course>266.285736</course><hAcc>0.916462</hAcc><vAcc>0.747403</vAcc></extensions></trkpt>
      <trkpt lon="-4.153604" lat="53.008615"><ele>645.578003</ele><time>2021-07-17T12:14:50Z</time><extensions><speed>0.000000</speed><course>280.416809</course><hAcc>0.915402</hAcc><vAcc>0.745708</vAcc></extensions></trkpt>
      <trkpt lon="-4.153604" lat="53.008615"><ele>645.578003</ele><time>2021-07-17T12:14:51Z</time><extensions><speed>0.000000</speed><course>289.633057</course><hAcc>0.914375</hAcc><vAcc>0.744429</vAcc></extensions></trkpt>
      <trkpt lon="-4.153604" lat="53.008615"><ele>645.578003</ele><time>2021-07-17T12:14:52Z</time><extensions><speed>0.000000</speed><course>274.042023</course><hAcc>0.914207</hAcc><vAcc>0.744638</vAcc></extensions></trkpt>
      <trkpt lon="-4.153604" lat="53.008615"><ele>645.578003</ele><time>2021-07-17T12:14:53Z</time><extensions><speed>0.000000</speed><course>259.398621</course><hAcc>0.916620</hAcc><vAcc>0.748155</vAcc></extensions></trkpt>
      <trkpt lon="-4.153604" lat="53.008615"><ele>645.578003</ele><time>2021-07-17T12:14:54Z</time><extensions><speed>0.000000</speed><course>235.228027</course><hAcc>0.924673</hAcc><vAcc>0.757781</vAcc></extensions></trkpt>
      <trkpt lon="-4.153604" lat="53.008615"><ele>645.578003</ele><time>2021-07-17T12:14:55Z</time><extensions><speed>0.000000</speed><course>233.943741</course><hAcc>0.943169</hAcc><vAcc>0.777414</vAcc></extensions></trkpt>
      <trkpt lon="-4.153604" lat="53.008615"><ele>645.578003</ele><time>2021-07-17T12:14:56Z</time><extensions><speed>0.000000</speed><course>251.986771</course><hAcc>0.978764</hAcc><vAcc>0.811897</vAcc></extensions></trkpt>
      <trkpt lon="-4.153604" lat="53.008615"><ele>645.578003</ele><time>2021-07-17T12:14:57Z</time><extensions><speed>0.000000</speed><course>207.637573</course><hAcc>0.940497</hAcc><vAcc>0.776181</vAcc></extensions></trkpt>
      <trkpt lon="-4.153604" lat="53.008615"><ele>645.578003</ele><time>2021-07-17T12:14:58Z</time><extensions><speed>0.000000</speed><course>199.781464</course><hAcc>0.921132</hAcc><vAcc>0.755165</vAcc></extensions></trkpt>
      <trkpt lon="-4.153604" lat="53.008615"><ele>645.578003</ele><time>2021-07-17T12:14:59Z</time><extensions><speed>0.000000</speed><course>204.898392</course><hAcc>0.913376</hAcc><vAcc>0.745157</vAcc></extensions></trkpt>
      <trkpt lon="-4.153604" lat="53.008615"><ele>645.578003</ele><time>2021-07-17T12:15:00Z</time><extensions><speed>0.000000</speed><course>218.988647</course><hAcc>0.911753</hAcc><vAcc>0.741815</vAcc></extensions></trkpt>
      <trkpt lon="-4.153604" lat="53.008615"><ele>645.578003</ele><time>2021-07-17T12:15:01Z</time><extensions><speed>0.000000</speed><course>240.875916</course><hAcc>0.912776</hAcc><vAcc>0.742011</vAcc></extensions></trkpt>
      <trkpt lon="-4.153604" lat="53.008615"><ele>645.578003</ele><time>2021-07-17T12:15:02Z</time><extensions><speed>0.000000</speed><course>240.875916</course><hAcc>0.914498</hAcc><vAcc>0.743718</vAcc></extensions></trkpt>
      <trkpt lon="-4.153604" lat="53.008615"><ele>645.578003</ele><time>2021-07-17T12:15:03Z</time><extensions><speed>0.000000</speed><course>240.875916</course><hAcc>0.916012</hAcc><vAcc>0.745755</vAcc></extensions></trkpt>
      <trkpt lon="-4.153604" lat="53.008615"><ele>645.578003</ele><time>2021-07-17T12:15:04Z</time><extensions><speed>0.000000</speed><course>240.875916</course><hAcc>0.917025</hAcc><vAcc>0.747517</vAcc></extensions></trkpt>
      <trkpt lon="-4.153604" lat="53.008615"><ele>645.578003</ele><time>2021-07-17T12:15:05Z</time><extensions><speed>0.000000</speed><course>240.875916</course><hAcc>0.917558</hAcc><vAcc>0.748748</vAcc></extensions></trkpt>
      <trkpt lon="-4.153604" lat="53.008615"><ele>645.578003</ele><time>2021-07-17T12:15:06Z</time><extensions><speed>0.000000</speed><course>240.875916</course><hAcc>0.917738</hAcc><vAcc>0.749377</vAcc></extensions></trkpt>
      <trkpt lon="-4.153604" lat="53.008615"><ele>645.578003</ele><time>2021-07-17T12:15:07Z</time><extensions><speed>0.000000</speed><course>269.430084</course><hAcc>0.917679</hAcc><vAcc>0.749409</vAcc></extensions></trkpt>
      <trkpt lon="-4.153604" lat="53.008615"><ele>645.578003</ele><time>2021-07-17T12:15:08Z</time><extensions><speed>0.000000</speed><course>274.056000</course><hAcc>0.917425</hAcc><vAcc>0.748873</vAcc></extensions></trkpt>
      <trkpt lon="-4.153604" lat="53.008615"><ele>645.578003</ele><time>2021-07-17T12:15:09Z</time><extensions><speed>0.000000</speed><course>273.580658</course><hAcc>0.916944</hAcc><vAcc>0.747816</vAcc></extensions></trkpt>
      <trkpt lon="-4.153604" lat="53.008615"><ele>645.578003</ele><time>2021-07-17T12:15:11Z</time><extensions><speed>0.000000</speed><course>266.285736</course><hAcc>0.916161</hAcc><vAcc>0.746331</vAcc></extensions></trkpt>
      <trkpt lon="-4.153604" lat="53.008615"><ele>645.578003</ele><time>2021-07-17T12:15:12Z</time><extensions><speed>0.000000</speed><course>280.416809</course><hAcc>0.915106</hAcc><vAcc>0.744687</vAcc></extensions></trkpt>
      <trkpt lon="-4.153604" lat="53.008615"><ele>645.578003</ele><time>2021-07-17T12:15:13Z</time><extensions><speed>0.000000</speed><course>289.633057</course><hAcc>0.914085</hAcc><vAcc>0.743459</vAcc></extensions></trkpt>
      <trkpt lon="-4.153604" lat="53.008615"><ele>645.578003</ele><time>2021-07-17T12:15:14Z</time><extensions><speed>0.000000</speed><course>274.042023</course><hAcc>0.913922</hAcc><vAcc>0.743716</vAcc></extensions></trkpt>
      <trkpt lon="-4.153604" lat="53.008615"><ele>645.578003</ele><time>2021-07-17T12:15:15Z</time><extensions><speed>0.000000</speed><course>259.398621</course><hAcc>0.916336</hAcc><vAcc>0.747273</vAcc></extensions></trkpt>
      <trkpt lon="-4.153604" lat="53.008615"><ele>645.578003</ele><time>2021-07-17T12:15:16Z</time><extensions><speed>0.000000</speed><course>235.228027</course><hAcc>0.924387</hAcc><vAcc>0.756925</vAcc></extensions></trkpt>
      <trkpt lon="-4.153604" lat="53.008615"><ele>645.578003</ele><time>2021-07-17T12:15:17Z</time><extensions><speed>0.000000</speed><course>233.943741</course><hAcc>0.942874</hAcc><vAcc>0.776566</vAcc></extensions></trkpt>
      <trkpt lon="-4.153604" lat="53.008615"><ele>645.578003</ele><time>2021-07-17T12:15:18Z</time><extensions><speed>0.000000</speed><course>251.986771</course><hAcc>0.978456</hAcc><vAcc>0.811039</vAcc></extensions></trkpt>
      <trkpt lon="-4.153604" lat="53.008615"><ele>645.578003</ele><time>2021-07-17T12:15:19Z</time><extensions><speed>0.000000</speed><course>207.637573</course><hAcc>0.940206</hAcc><vAcc>0.775387</vAcc></extensions></trkpt>
      <trkpt lon="-4.153604" lat="53.008615"><ele>645.578003</ele><time>2021-07-17T12:15:20Z</time><extensions><speed>0.000000</speed><course>199.781464</course><hAcc>0.920883</hAcc><vAcc>0.754475</vAcc></extensions></trkpt>
      <trkpt lon="-4.153604" lat="53.008615"><ele>645.578003</ele><time>2021-07-17T12:15:21Z</time><extensions><speed>0.000000</speed><course>204.898392</course><hAcc>0.913162</hAcc><vAcc>0.744548</vAcc></extensions></trkpt>
      <trkpt lon="-4.153604" lat="53.008615"><ele>645.578003</ele><time>2021-07-17T12:15:22Z</time><extensions><speed>0.000000</speed><course>218.988647</course><hAcc>0.911565</hAcc><vAcc>0.741265</vAcc></extensions></trkpt>
      <trkpt lon="-4.153604" lat="53.008615"><ele>645.578003</ele><time>2021-07-17T12:15:23Z</time><extensions><speed>0.000000</speed><course>240.875916</course><hAcc>0.912606</hAcc><vAcc>0.741504</vAcc></extensions></trkpt>
      <trkpt lon="-4.153604" lat="53.008615"><ele>645.578003</ele><time>2021-07-17T12:15:24Z</time><extensions><speed>0.000000</speed><course>240.875916</course><hAcc>0.914341</hAcc><vAcc>0.743241</vAcc></extensions></trkpt>
      <trkpt lon="-4.153604" lat="53.008615"><ele>645.578003</ele><time>2021-07-17T12:15:25Z</time><extensions><speed>0.000000</speed><course>240.875916</course><hAcc>0.915862</hAcc><vAcc>0.745301</vAcc></extensions></trkpt>
      <trkpt lon="-4.153604" lat="53.008615"><ele>645.578003</ele><time>2021-07-17T12:15:26Z</time><extensions><speed>0.000000</speed><course>240.875916</course><hAcc>0.916881</hAcc><vAcc>0.747084</vAcc></extensions></trkpt>
      <trkpt lon="-4.153604" lat="53.008615"><ele>645.578003</ele><time>2021-07-17T12:15:27Z</time><extensions><speed>0.000000</speed><course>240.875916</course><hAcc>0.917419</hAcc><vAcc>0.748337</vAcc></extensions></trkpt>
      <trkpt lon="-4.153604" lat="53.008615"><ele>645.578003</ele><time>2021-07-17T12:15:28Z</time><extensions><speed>0.000000</speed><course>240.875916</course><hAcc>0.917605</hAcc><vAcc>0.748993</vAcc></extensions></trkpt>
      <trkpt lon="-4.153604" lat="53.008615"><ele>645.578003</ele><time>2021-07-17T12:15:29Z</time><extensions><speed>0.000000</speed><course>269.430084</course><hAcc>0.917552</hAcc><vAcc>0.749059</vAcc></extensions></trkpt>
      <trkpt lon="-4.153604" lat="53.008615"><ele>645.578003</ele><time>2021-07-17T12:15:30Z</time><extensions><speed>0.000000</speed><course>274.056000</course><hAcc>0.917304</hAcc><vAcc>0.748565</vAcc></extensions></trkpt>
      <trkpt lon="-4.153604" lat="53.008615"><ele>645.578003</ele><time>2021-07-17T12:15:31Z</time><extensions><speed>0.000000</speed><course>273.580658</course><hAcc>0.916827</hAcc><vAcc>0.747560</vAcc></extensions></trkpt>
      <trkpt lon="-4.153604" lat="53.008615"><ele>645.578003</ele><time>2021-07-17T12:15:32Z</time><extensions><speed>0.000000</speed><course>266.285736</course><hAcc>0.916065</hAcc><vAcc>0.746150</vAcc></extensions></trkpt>
      <trkpt lon="-4.153604" lat="53.008615"><ele>645.578003</ele><time>2021-07-17T12:15:33Z</time><extensions><speed>0.000000</speed><course>280.416809</course><hAcc>0.915042</hAcc><vAcc>0.744595</vAcc></extensions></trkpt>
      <trkpt lon="-4.153604" lat="53.008615"><ele>645.578003</ele><time>2021-07-17T12:15:34Z</time><extensions><speed>0.000000</speed><course>289.633057</course><hAcc>0.914047</hAcc><vAcc>0.743452</vAcc></extensions></trkpt>
      <trkpt lon="-4.153604" lat="53.008615"><ele>645.578003</ele><time>2021-07-17T12:15:35Z</time><extensions><speed>0.000000</speed><course>274.042023</course><hAcc>0.913901</hAcc><vAcc>0.743781</vAcc></extensions></trkpt>
      <trkpt lon="-4.153604" lat="53.008615"><ele>645.578003</ele><time>2021-07-17T12:15:36Z</time><extensions><speed>0.000000</speed><course>259.398621</course><hAcc>0.916322</hAcc><vAcc>0.747379</vAcc></extensions></trkpt>
      <trkpt lon="-4.153604" lat="53.008615"><ele>645.578003</ele><time>2021-07-17T12:15:37Z</time><extensions><speed>0.000000</speed><course>235.228027</course><hAcc>0.924366</hAcc><vAcc>0.757025</vAcc></extensions></trkpt>
      <trkpt lon="-4.153604" lat="53.008615"><ele>645.578003</ele><time>2021-07-17T12:15:38Z</time><extensions><speed>0.000000</speed><course>233.943741</course><hAcc>0.942833</hAcc><vAcc>0.776602</vAcc></extensions></trkpt>
      <trkpt lon="-4.153604" lat="53.008615"><ele>645.578003</ele><time>2021-07-17T12:15:39Z</time><extensions><speed>0.000000</speed><course>251.986771</course><hAcc>0.978381</hAcc><vAcc>0.810948</vAcc></extensions></trkpt>
      <trkpt lon="-4.153604" lat="53.008615"><ele>645.578003</ele><time>2021-07-17T12:15:40Z</time><extensions><speed>0.000000</speed><course>207.637573</course><hAcc>0.940326</hAcc><vAcc>0.775687</vAcc></extensions></trkpt>
      <trkpt lon="-4.153604" lat="53.008615"><ele>645.578003</ele><time>2021-07-17T12:15:41Z</time><extensions><speed>0.000000</speed><course>199.781464</course><hAcc>0.920970</hAcc><vAcc>0.754647</vAcc></extensions></trkpt>
      <trkpt lon="-4.153604" lat="53.008615"><ele>645.578003</ele><time>2021-07-17T12:15:42Z</time><extensions><speed>0.000000</speed><course>204.898392</course><hAcc>0.913225</hAcc><vAcc>0.744622</vAcc></extensions></trkpt>
      <trkpt lon="-4.153604" lat="53.008615"><ele>645.578003</ele><time>2021-07-17T12:15:43Z</time><extensions><speed>0.000000</speed><course>218.988647</course><hAcc>0.911615</hAcc><vAcc>0.741284</vAcc></extensions></trkpt>
      <trkpt lon="-4.153604" lat="53.008615"><ele>645.578003</ele><time>2021-07-17T12:15:44Z</time><extensions><speed>0.000000</speed><course>240.875916</course><hAcc>0.912651</hAcc><vAcc>0.741510</vAcc></extensions></trkpt>
      <trkpt lon="-4.153604" lat="53.008615"><ele>645.578003</ele><time>2021-07-17T12:15:45Z</time><extensions><speed>0.000000</speed><course>240.875916</course><hAcc>0.914389</hAcc><vAcc>0.743274</vAcc></extensions></trkpt>
      <trkpt lon="-4.153604" lat="53.008615"><ele>645.578003</ele><time>2021-07-17T12:15:46Z</time><extensions><speed>0.000000</speed><course>240.875916</course><hAcc>0.915921</hAcc><vAcc>0.745392</vAcc></extensions></trkpt>
      <trkpt lon="-4.153604" lat="53.008615"><ele>645.578003</ele><time>2021-07-17T12:15:47Z</time><extensions><speed>0.000000</speed><course>240.875916</course><hAcc>0.916955</hAcc><vAcc>0.747255</vAcc></extensions></trkpt>
      <trkpt lon="-4.153604" lat="53.008615"><ele>645.578003</ele><time>2021-07-17T12:15:48Z</time><extensions><speed>0.000000</speed><course>240.875916</course><hAcc>0.917510</hAcc><vAcc>0.748602</vAcc></extensions></trkpt>
      <trkpt lon="-4.153604" lat="53.008615"><ele>645.578003</ele><time>2021-07-17T12:15:49Z</time><extensions><speed>0.000000</speed><course>240.875916</course><hAcc>0.917714</hAcc><vAcc>0.749353</vAcc></extensions></trkpt>
      <trkpt lon="-4.153604" lat="53.008615"><ele>645.578003</ele><time>2021-07-17T12:15:50Z</time><extensions><speed>0.000000</speed><course>269.430084</course><hAcc>0.917677</hAcc><vAcc>0.749507</vAcc></extensions></trkpt>
      <trkpt lon="-4.153604" lat="53.008615"><ele>645.578003</ele><time>2021-07-17T12:15:51Z</time><extensions><speed>0.000000</speed><course>274.056000</course><hAcc>0.917443</hAcc><vAcc>0.749086</vAcc></extensions></trkpt>
      <trkpt lon="-4.153604" lat="53.008615"><ele>645.578003</ele><time>2021-07-17T12:15:52Z</time><extensions><speed>0.000000</speed><course>273.580658</course><hAcc>0.916981</hAcc><vAcc>0.748134</vAcc></extensions></trkpt>
      <trkpt lon="-4.153604" lat="53.008615"><ele>645.578003</ele><time>2021-07-17T12:15:53Z</time><extensions><speed>0.000000</speed><course>266.285736</course><hAcc>0.916233</hAcc><vAcc>0.746762</vAcc></extensions></trkpt>
      <trkpt lon="-4.153604" lat="53.008615"><ele>645.578003</ele><time>2021-07-17T12:15:54Z</time><extensions><speed>0.000000</speed><course>280.416809</course><hAcc>0.915229</hAcc><vAcc>0.745237</vAcc></extensions></trkpt>
      <trkpt lon="-4.153604" lat="53.008615"><ele>645.578003</ele><time>2021-07-17T12:15:55Z</time><extensions><speed>0.000000</speed><course>289.633057</course><hAcc>0.914263</hAcc><vAcc>0.744133</vAcc></extensions></trkpt>
      <trkpt lon="-4.153604" lat="53.008615"><ele>645.578003</ele><time>2021-07-17T12:15:56Z</time><extensions><speed>0.000000</speed><course>274.042023</course><hAcc>0.914162</hAcc><vAcc>0.744526</vAcc></extensions></trkpt>
      <trkpt lon="-4.153604" lat="53.008615"><ele>645.578003</ele><time>2021-07-17T12:15:57Z</time><extensions><speed>0.000000</speed><course>259.398621</course><hAcc>0.916650</hAcc><vAcc>0.748239</vAcc></extensions></trkpt>
      <trkpt lon="-4.153604" lat="53.008615"><ele>645.578003</ele><time>2021-07-17T12:15:58Z</time><extensions><speed>0.000000</speed><course>235.228027</course><hAcc>0.924788</hAcc><vAcc>0.758081</vAcc></extensions></trkpt>
      <trkpt lon="-4.153604" lat="53.008615"><ele>645.578003</ele><time>2021-07-17T12:15:59Z</time><extensions><speed>0.000000</speed><course>233.943741</course><hAcc>0.943378</hAcc><vAcc>0.777954</vAcc></extensions></trkpt>
      <trkpt lon="-4.153604" lat="53.008615"><ele>645.578003</ele><time>2021-07-17T12:16:00Z</time><extensions><speed>0.000000</speed><course>251.986771</course><hAcc>0.979072</hAcc><vAcc>0.812704</vAcc></extensions></trkpt>
      <trkpt lon="-4.153604" lat="53.008615"><ele>645.578003</ele><time>2021-07-17T12:16:01Z</time><extensions><speed>0.000000</speed><course>207.637573</course><hAcc>0.940778</hAcc><vAcc>0.776970</vAcc></extensions></trkpt>
      <trkpt lon="-4.153604" lat="53.008615"><ele>645.578003</ele><time>2021-07-17T12:16:02Z</time><extensions><speed>0.000000</speed><course>199.781464</course><hAcc>0.921420</hAcc><vAcc>0.756021</vAcc></extensions></trkpt>
      <trkpt lon="-4.153604" lat="53.008615"><ele>645.578003</ele><time>2021-07-17T12:16:03Z</time><extensions><speed>0.000000</speed><course>204.898392</course><hAcc>0.913674</hAcc><vAcc>0.746091</vAcc></extensions></trkpt>
      <trkpt lon="-4.153604" lat="53.008615"><ele>645.578003</ele><time>2021-07-17T12:16:04Z</time><extensions><speed>0.000000</speed><course>218.988647</course><hAcc>0.912064</hAcc><vAcc>0.742832</vAcc></extensions></trkpt>
      <trkpt lon="-4.153604" lat="53.008615"><ele>645.578003</ele><time>2021-07-17T12:16:05Z</time><extensions><speed>0.000000</speed><course>240.875916</course><hAcc>0.913101</hAcc><vAcc>0.743103</vAcc></extensions></trkpt>
      <trkpt lon="-4.153604" lat="53.008615"><ele>645.578003</ele><time>2021-07-17T12:16:06Z</time><extensions><speed>0.000000</speed><course>240.875916</course><hAcc>0.914837</hAcc><vAcc>0.744868</vAcc></extensions></trkpt>
      <trkpt lon="-4.153604" lat="53.008615"><ele>645.578003</ele><time>2021-07-17T12:16:07Z</time><extensions><speed>0.000000</speed><course>240.875916</course><hAcc>0.916362</hAcc><vAcc>0.746940</vAcc></extensions></trkpt>
      <trkpt lon="-4.153604" lat="53.008615"><ele>645.578003</ele><time>2021-07-17T12:16:08Z</time><extensions><speed>0.000000</speed><course>240.875916</course><hAcc>0.917383</hAcc><vAcc>0.748716</vAcc></extensions></trkpt>
      <trkpt lon="-4.153604" lat="53.008615"><ele>645.578003</ele><time>2021-07-17T12:16:09Z</time><extensions><speed>0.000000</speed><course>240.875916</course><hAcc>0.917918</hAcc><vAcc>0.749941</vAcc></extensions></trkpt>
      <trkpt lon="-4.153604" lat="53.008615"><ele>645.578003</ele><time>2021-07-17T12:16:10Z</time><extensions><speed>0.000000</speed><course>240.875916</course><hAcc>0.918093</hAcc><vAcc>0.750548</vAcc></extensions></trkpt>
      <trkpt lon="-4.153604" lat="53.008615"><ele>645.578003</ele><time>2021-07-17T12:16:11Z</time><extensions><speed>0.000000</speed><course>269.430084</course><hAcc>0.918022</hAcc><vAcc>0.750546</vAcc></extensions></trkpt>
      <trkpt lon="-4.153604" lat="53.008615"><ele>645.578003</ele><time>2021-07-17T12:16:12Z</time><extensions><speed>0.000000</speed><course>274.056000</course><hAcc>0.917748</hAcc><vAcc>0.749968</vAcc></extensions></trkpt>
      <trkpt lon="-4.153604" lat="53.008615"><ele>645.578003</ele><time>2021-07-17T12:16:13Z</time><extensions><speed>0.000000</speed><course>273.580658</course><hAcc>0.917240</hAcc><vAcc>0.748864</vAcc></extensions></trkpt>
      <trkpt lon="-4.153604" lat="53.008615"><ele>645.578003</ele><time>2021-07-17T12:16:14Z</time><extensions><speed>0.000000</speed><course>266.285736</course><hAcc>0.916443</hAcc><vAcc>0.747342</vAcc></extensions></trkpt>
      <trkpt lon="-4.153604" lat="53.008615"><ele>645.578003</ele><time>2021-07-17T12:16:15Z</time><extensions><speed>0.000000</speed><course>280.416809</course><hAcc>0.915388</hAcc><vAcc>0.745666</vAcc></extensions></trkpt>
      <trkpt lon="-4.153604" lat="53.008615"><ele>645.578003</ele><time>2021-07-17T12:16:16Z</time><extensions><speed>0.000000</speed><course>289.633057</course><hAcc>0.914366</hAcc><vAcc>0.744405</vAcc></extensions></trkpt>
      <trkpt lon="-4.153604" lat="53.008615"><ele>645.578003</ele><time>2021-07-17T12:16:17Z</time><extensions><speed>0.000000</speed><course>274.042023</course><hAcc>0.914202</hAcc><vAcc>0.744631</vAcc></extensions></trkpt>
      <trkpt lon="-4.153604" lat="53.008615"><ele>645.578003</ele><time>2021-07-17T12:16:18Z</time><extensions><speed>0.000000</speed><course>259.398621</course><hAcc>0.916618</hAcc><vAcc>0.748161</vAcc></extensions></trkpt>
      <trkpt lon="-4.153604" lat="53.008615"><ele>645.578003</ele><time>2021-07-17T12:16:19Z</time><extensions><speed>0.000000</speed><course>235.228027</course><hAcc>0.924675</hAcc><vAcc>0.757794</vAcc></extensions></trkpt>
      <trkpt lon="-4.153604" lat="53.008615"><ele>645.578003</ele><time>2021-07-17T12:16:20Z</time><extensions><speed>0.000000</speed><course>233.943741</course><hAcc>0.943171</hAcc><vAcc>0.777427</vAcc></extensions></trkpt>
      <trkpt lon="-4.153604" lat="53.008615"><ele>645.578003</ele><time>2021-07-17T12:16:21Z</time><extensions><speed>0.000000</speed><course>251.986771</course><hAcc>0.978763</hAcc><vAcc>0.811902</vAcc></extensions></trkpt>
      <trkpt lon="-4.153604" lat="53.008615"><ele>645.578003</ele><time>2021-07-17T12:16:22Z</time><extensions><speed>0.000000</speed><course>207.637573</course><hAcc>0.940525</hAcc><vAcc>0.776221</vAcc></extensions></trkpt>
      <trkpt lon="-4.153604" lat="53.008615"><ele>645.578003</ele><time>2021-07-17T12:16:23Z</time><extensions><speed>0.000000</speed><course>199.781464</course><hAcc>0.921165</hAcc><vAcc>0.755201</vAcc></extensions></trkpt>
      <trkpt lon="-4.153604" lat="53.008615"><ele>645.578003</ele><time>2021-07-17T12:16:24Z</time><extensions><speed>0.000000</speed><course>204.898392</course><hAcc>0.913417</hAcc><vAcc>0.745191</vAcc></extensions></trkpt>
      <trkpt lon="-4.153604" lat="53.008615"><ele>645.578003</ele><time>2021-07-17T12:16:25Z</time><extensions><speed>0.000000</speed><course>218.988647</course><hAcc>0.911807</hAcc><vAcc>0.741854</vAcc></extensions></trkpt>
      <trkpt lon="-4.153604" lat="53.008615"><ele>645.578003</ele><time>2021-07-17T12:16:26Z</time><extensions><speed>0.000000</speed><course>240.875916</course><hAcc>0.912829</hAcc><vAcc>0.742049</vAcc></extensions></trkpt>
      <trkpt lon="-4.153604" lat="53.008615"><ele>645.578003</ele><time>2021-07-17T12:16:27Z</time><extensions><speed>0.000000</speed><course>240.875916</course><hAcc>0.914533</hAcc><vAcc>0.743747</vAcc></extensions></trkpt>
      <trkpt lon="-4.153604" lat="53.008615"><ele>645.578003</ele><time>2021-07-17T12:16:28Z</time><extensions><speed>0.000000</speed><course>240.875916</course><hAcc>0.916030</hAcc><vAcc>0.745778</vAcc></extensions></trkpt>
      <trkpt lon="-4.153604" lat="53.008615"><ele>645.578003</ele><time>2021-07-17T12:16:29Z</time><extensions><speed>0.000000</speed><course>240.875916</course><hAcc>0.917028</hAcc><vAcc>0.747537</vAcc></extensions></trkpt>
      <trkpt lon="-4.153604" lat="53.008615"><ele>645.578003</ele><time>2021-07-17T12:16:30Z</time><extensions><speed>0.000000</speed><course>240.875916</course><hAcc>0.917544</hAcc><vAcc>0.748769</vAcc></extensions></trkpt>
      <trkpt lon="-4.153604" lat="53.008615"><ele>645.578003</ele><time>2021-07-17T12:16:31Z</time><extensions><speed>0.000000</speed><course>240.875916</course><hAcc>0.917706</hAcc><vAcc>0.749399</vAcc></extensions></trkpt>
      <trkpt lon="-4.153604" lat="53.008615"><ele>645.578003</ele><time>2021-07-17T12:16:32Z</time><extensions><speed>0.000000</speed><course>269.430084</course><hAcc>0.917624</hAcc><vAcc>0.749433</vAcc></extensions></trkpt>
      <trkpt lon="-4.153604" lat="53.008615"><ele>645.578003</ele><time>2021-07-17T12:16:33Z</time><extensions><speed>0.000000</speed><course>274.056000</course><hAcc>0.917341</hAcc><vAcc>0.748899</vAcc></extensions></trkpt>
      <trkpt lon="-4.153604" lat="53.008615"><ele>645.578003</ele><time>2021-07-17T12:16:34Z</time><extensions><speed>0.000000</speed><course>273.580658</course><hAcc>0.916823</hAcc><vAcc>0.747841</vAcc></extensions></trkpt>
      <trkpt lon="-4.153604" lat="53.008615"><ele>645.578003</ele><time>2021-07-17T12:16:34Z</time><extensions><speed>0.000000</speed><course>266.285736</course><hAcc>0.916051</hAcc><vAcc>0.746397</vAcc></extensions></trkpt>
      <trkpt lon="-4.153604" lat="53.008615"><ele>645.578003</ele><time>2021-07-17T12:16:35Z</time><extensions><speed>0.000000</speed><course>280.416809</course><hAcc>0.915051</hAcc><vAcc>0.744824</vAcc></extensions></trkpt>
      <trkpt lon="-4.153604" lat="53.008615"><ele>645.578003</ele><time>2021-07-17T12:16:36Z</time><extensions><speed>0.000000</speed><course>289.633057</course><hAcc>0.914078</hAcc><vAcc>0.743667</vAcc></extensions></trkpt>
      <trkpt lon="-4.153604" lat="53.008615"><ele>645.578003</ele><time>2021-07-17T12:16:37Z</time><extensions><speed>0.000000</speed><course>274.042023</course><hAcc>0.913959</hAcc><vAcc>0.743996</vAcc></extensions></trkpt>
      <trkpt lon="-4.153604" lat="53.008615"><ele>645.578003</ele><time>2021-07-17T12:16:38Z</time><extensions><speed>0.000000</speed><course>259.398621</course><hAcc>0.916417</hAcc><vAcc>0.747630</vAcc></extensions></trkpt>
      <trkpt lon="-4.153604" lat="53.008615"><ele>645.578003</ele><time>2021-07-17T12:16:39Z</time><extensions><speed>0.000000</speed><course>235.228027</course><hAcc>0.924512</hAcc><vAcc>0.757364</vAcc></extensions></trkpt>
      <trkpt lon="-4.153604" lat="53.008615"><ele>645.578003</ele><time>2021-07-17T12:16:40Z</time><extensions><speed>0.000000</speed><course>233.943741</course><hAcc>0.943044</hAcc><vAcc>0.777097</vAcc></extensions></trkpt>
      <trkpt lon="-4.153604" lat="53.008615"><ele>645.578003</ele><time>2021-07-17T12:16:41Z</time><extensions><speed>0.000000</speed><course>251.986771</course><hAcc>0.978670</hAcc><vAcc>0.811667</vAcc></extensions></trkpt>
      <trkpt lon="-4.153604" lat="53.008615"><ele>645.578003</ele><time>2021-07-17T12:16:42Z</time><extensions><speed>0.000000</speed><course>207.637573</course><hAcc>0.940432</hAcc><vAcc>0.776013</vAcc></extensions></trkpt>
      <trkpt lon="-4.153604" lat="53.008615"><ele>645.578003</ele><time>2021-07-17T12:16:43Z</time><extensions><speed>0.000000</speed><course>199.781464</course><hAcc>0.921100</hAcc><vAcc>0.755087</vAcc></extensions></trkpt>
      <trkpt lon="-4.153604" lat="53.008615"><ele>645.578003</ele><time>2021-07-17T12:16:44Z</time><extensions><speed>0.000000</speed><course>204.898392</course><hAcc>0.913375</hAcc><vAcc>0.745159</vAcc></extensions></trkpt>
      <trkpt lon="-4.153604" lat="53.008615"><ele>645.578003</ele><time>2021-07-17T12:16:45Z</time><extensions><speed>0.000000</speed><course>218.988647</course><hAcc>0.911781</hAcc><vAcc>0.741890</vAcc></extensions></trkpt>
      <trkpt lon="-4.153604" lat="53.008615"><ele>645.578003</ele><time>2021-07-17T12:16:46Z</time><extensions><speed>0.000000</speed><course>240.875916</course><hAcc>0.912829</hAcc><vAcc>0.742154</vAcc></extensions></trkpt>
      <trkpt lon="-4.153604" lat="53.008615"><ele>645.578003</ele><time>2021-07-17T12:16:47Z</time><extensions><speed>0.000000</speed><course>240.875916</course><hAcc>0.914576</hAcc><vAcc>0.743927</vAcc></extensions></trkpt>
      <trkpt lon="-4.153604" lat="53.008615"><ele>645.578003</ele><time>2021-07-17T12:16:48Z</time><extensions><speed>0.000000</speed><course>240.875916</course><hAcc>0.916112</hAcc><vAcc>0.746032</vAcc></extensions></trkpt>
      <trkpt lon="-4.153604" lat="53.008615"><ele>645.578003</ele><time>2021-07-17T12:16:49Z</time><extensions><speed>0.000000</speed><course>240.875916</course><hAcc>0.917148</hAcc><vAcc>0.747866</vAcc></extensions></trkpt>
      <trkpt lon="-4.153604" lat="53.008615"><ele>645.578003</ele><time>2021-07-17T12:16:50Z</time><extensions><speed>0.000000</speed><course>240.875916</course><hAcc>0.917703</hAcc><vAcc>0.749178</vAcc></extensions></trkpt>
      <trkpt lon="-4.153604" lat="53.008615"><ele>645.578003</ele><time>2021-07-17T12:16:51Z</time><extensions><speed>0.000000</speed><course>240.875916</course><hAcc>0.917905</hAcc><vAcc>0.749898</vAcc></extensions></trkpt>
      <trkpt lon="-4.153604" lat="53.008615"><ele>645.578003</ele><time>2021-07-17T12:16:52Z</time><extensions><speed>0.000000</speed><course>269.430084</course><hAcc>0.917869</hAcc><vAcc>0.750035</vAcc></extensions></trkpt>
      <trkpt lon="-4.153604" lat="53.008615"><ele>645.578003</ele><time>2021-07-17T12:16:53Z</time><extensions><speed>0.000000</speed><course>274.056000</course><hAcc>0.917639</hAcc><vAcc>0.749620</vAcc></extensions></trkpt>
      <trkpt lon="-4.153604" lat="53.008615"><ele>645.578003</ele><time>2021-07-17T12:16:54Z</time><extensions><speed>0.000000</speed><course>273.580658</course><hAcc>0.917186</hAcc><vAcc>0.748704</vAcc></extensions></trkpt>
      <trkpt lon="-4.153604" lat="53.008615"><ele>645.578003</ele><time>2021-07-17T12:16:55Z</time><extensions><speed>0.000000</speed><course>266.285736</course><hAcc>0.916459</hAcc><vAcc>0.747401</vAcc></extensions></trkpt>
      <trkpt lon="-4.153604" lat="53.008615"><ele>645.578003</ele><time>2021-07-17T12:16:56Z</time><extensions><speed>0.000000</speed><course>280.416809</course><hAcc>0.915490</hAcc><vAcc>0.745984</vAcc></extensions></trkpt>
      <trkpt lon="-4.153604" lat="53.008615"><ele>645.578003</ele><time>2021-07-17T12:16:57Z</time><extensions><speed>0.000000</speed><course>289.633057</course><hAcc>0.914579</hAcc><vAcc>0.745033</vAcc></extensions></trkpt>
      <trkpt lon="-4.153604" lat="53.008615"><ele>645.578003</ele><time>2021-07-17T12:16:58Z</time><extensions><speed>0.000000</speed><course>274.042023</course><hAcc>0.914555</hAcc><vAcc>0.745635</vAcc></extensions></trkpt>
      <trkpt lon="-4.153604" lat="53.008615"><ele>645.578003</ele><time>2021-07-17T12:16:59Z</time><extensions><speed>0.000000</speed><course>259.398621</course><hAcc>0.917147</hAcc><vAcc>0.749628</vAcc></extensions></trkpt>
      <trkpt lon="-4.153604" lat="53.008615"><ele>645.578003</ele><time>2021-07-17T12:17:00Z</time><extensions><speed>0.000000</speed><course>235.228027</course><hAcc>0.925418</hAcc><vAcc>0.759822</vAcc></extensions></trkpt>
      <trkpt lon="-4.153604" lat="53.008615"><ele>645.578003</ele><time>2021-07-17T12:17:01Z</time><extensions><speed>0.000000</speed><course>233.943741</course><hAcc>0.944164</hAcc><vAcc>0.780117</vAcc></extensions></trkpt>
      <trkpt lon="-4.153604" lat="53.008615"><ele>645.578003</ele><time>2021-07-17T12:17:02Z</time><extensions><speed>0.000000</speed><course>251.986771</course><hAcc>0.980028</hAcc><vAcc>0.815336</vAcc></extensions></trkpt>
      <trkpt lon="-4.153604" lat="53.008615"><ele>645.578003</ele><time>2021-07-17T12:17:03Z</time><extensions><speed>0.000000</speed><course>207.637573</course><hAcc>0.941523</hAcc><vAcc>0.779174</vAcc></extensions></trkpt>
      <trkpt lon="-4.153604" lat="53.008615"><ele>645.578003</ele><time>2021-07-17T12:17:04Z</time><extensions><speed>0.000000</speed><course>199.781464</course><hAcc>0.922177</hAcc><vAcc>0.758335</vAcc></extensions></trkpt>
      <trkpt lon="-4.153604" lat="53.008615"><ele>645.578003</ele><time>2021-07-17T12:17:05Z</time><extensions><speed>0.000000</speed><course>204.898392</course><hAcc>0.914443</hAcc><vAcc>0.748500</vAcc></extensions></trkpt>
      <trkpt lon="-4.153604" lat="53.008615"><ele>645.578003</ele><time>2021-07-17T12:17:06Z</time><extensions><speed>0.000000</speed><course>218.988647</course><hAcc>0.912845</hAcc><vAcc>0.745318</vAcc></extensions></trkpt>
      <trkpt lon="-4.153604" lat="53.008615"><ele>645.578003</ele><time>2021-07-17T12:17:07Z</time><extensions><speed>0.000000</speed><course>240.875916</course><hAcc>0.913894</hAcc><vAcc>0.745651</vAcc></extensions></trkpt>
      <trkpt lon="-4.153604" lat="53.008615"><ele>645.578003</ele><time>2021-07-17T12:17:08Z</time><extensions><speed>0.000000</speed><course>240.875916</course><hAcc>0.915638</hAcc><vAcc>0.747459</vAcc></extensions></trkpt>
      <trkpt lon="-4.153604" lat="53.008615"><ele>645.578003</ele><time>2021-07-17T12:17:09Z</time><extensions><speed>0.000000</speed><course>240.875916</course><hAcc>0.917162</hAcc><vAcc>0.749548</vAcc></extensions></trkpt>
      <trkpt lon="-4.153604" lat="53.008615"><ele>645.578003</ele><time>2021-07-17T12:17:10Z</time><extensions><speed>0.000000</speed><course>240.875916</course><hAcc>0.918169</hAcc><vAcc>0.751303</vAcc></extensions></trkpt>
      <trkpt lon="-4.153604" lat="53.008615"><ele>645.578003</ele><time>2021-07-17T12:17:11Z</time><extensions><speed>0.000000</speed><course>240.875916</course><hAcc>0.918675</hAcc><vAcc>0.752454</vAcc></extensions></trkpt>
      <trkpt lon="-4.153604" lat="53.008615"><ele>645.578003</ele><time>2021-07-17T12:17:12Z</time><extensions><speed>0.000000</speed><course>240.875916</course><hAcc>0.918802</hAcc><vAcc>0.752921</vAcc></extensions></trkpt>
      <trkpt lon="-4.153604" lat="53.008615"><ele>645.578003</ele><time>2021-07-17T12:17:13Z</time><extensions><speed>0.000000</speed><course>269.430084</course><hAcc>0.918664</hAcc><vAcc>0.752702</vAcc></extensions></trkpt>
      <trkpt lon="-4.153604" lat="53.008615"><ele>645.578003</ele><time>2021-07-17T12:17:14Z</time><extensions><speed>0.000000</speed><course>274.056000</course><hAcc>0.918304</hAcc><vAcc>0.751822</vAcc></extensions></trkpt>
      <trkpt lon="-4.153604" lat="53.008615"><ele>645.578003</ele><time>2021-07-17T12:17:15Z</time><extensions><speed>0.000000</speed><course>273.580658</course><hAcc>0.917697</hAcc><vAcc>0.750330</vAcc></extensions></trkpt>
      <trkpt lon="-4.153604" lat="53.008615"><ele>645.578003</ele><time>2021-07-17T12:17:17Z</time><extensions><speed>0.000000</speed><course>266.285736</course><hAcc>0.916770</hAcc><vAcc>0.748331</vAcc></extensions></trkpt>
      <trkpt lon="-4.153604" lat="53.008615"><ele>645.578003</ele><time>2021-07-17T12:17:18Z</time><extensions><speed>0.000000</speed><course>280.416809</course><hAcc>0.915559</hAcc><vAcc>0.746110</vAcc></extensions></trkpt>
      <trkpt lon="-4.153604" lat="53.008615"><ele>645.578003</ele><time>2021-07-17T12:17:19Z</time><extensions><speed>0.000000</speed><course>289.633057</course><hAcc>0.914375</hAcc><vAcc>0.744274</vAcc></extensions></trkpt>
      <trkpt lon="-4.153604" lat="53.008615"><ele>645.578003</ele><time>2021-07-17T12:17:20Z</time><extensions><speed>0.000000</speed><course>274.042023</course><hAcc>0.914046</hAcc><vAcc>0.743931</vAcc></extensions></trkpt>
      <trkpt lon="-4.153604" lat="53.008615"><ele>645.578003</ele><time>2021-07-17T12:17:21Z</time><extensions><speed>0.000000</speed><course>259.398621</course><hAcc>0.916295</hAcc><vAcc>0.746933</vAcc></extensions></trkpt>
      <trkpt lon="-4.153604" lat="53.008615"><ele>645.578003</ele><time>2021-07-17T12:17:22Z</time><extensions><speed>0.000000</speed><course>235.228027</course><hAcc>0.924186</hAcc><vAcc>0.756111</vAcc></extensions></trkpt>
      <trkpt lon="-4.153604" lat="53.008615"><ele>645.578003</ele><time>2021-07-17T12:17:23Z</time><extensions><speed>0.000000</speed><course>233.943741</course><hAcc>0.942528</hAcc><vAcc>0.775382</vAcc></extensions></trkpt>
      <trkpt lon="-4.153604" lat="53.008615"><ele>645.578003</ele><time>2021-07-17T12:17:24Z</time><extensions><speed>0.000000</speed><course>251.986771</course><hAcc>0.977990</hAcc><vAcc>0.809596</vAcc></extensions></trkpt>
      <trkpt lon="-4.153604" lat="53.008615"><ele>645.578003</ele><time>2021-07-17T12:17:25Z</time><extensions><speed>0.000000</speed><course>207.637573</course><hAcc>0.939394</hAcc><vAcc>0.773208</vAcc></extensions></trkpt>
      <trkpt lon="-4.153604" lat="53.008615"><ele>645.578003</ele><time>2021-07-17T12:17:26Z</time><extensions><speed>0.000000</speed><course>199.781464</course><hAcc>0.920259</hAcc><vAcc>0.752803</vAcc></extensions></trkpt>
      <trkpt lon="-4.153604" lat="53.008615"><ele>645.578003</ele><time>2021-07-17T12:17:27Z</time><extensions><speed>0.000000</speed><course>204.898392</course><hAcc>0.912699</hAcc><vAcc>0.743299</vAcc></extensions></trkpt>
      <trkpt lon="-4.153604" lat="53.008615"><ele>645.578003</ele><time>2021-07-17T12:17:28Z</time><extensions><speed>0.000000</speed><course>218.988647</course><hAcc>0.911234</hAcc><vAcc>0.740354</vAcc></extensions></trkpt>
      <trkpt lon="-4.153604" lat="53.008615"><ele>645.578003</ele><time>2021-07-17T12:17:29Z</time><extensions><speed>0.000000</speed><course>240.875916</course><hAcc>0.912377</hAcc><vAcc>0.740854</vAcc></extensions></trkpt>
      <trkpt lon="-4.153604" lat="53.008615"><ele>645.578003</ele><time>2021-07-17T12:17:30Z</time><extensions><speed>0.000000</speed><course>240.875916</course><hAcc>0.914188</hAcc><vAcc>0.742793</vAcc></extensions></trkpt>
      <trkpt lon="-4.153604" lat="53.008615"><ele>645.578003</ele><time>2021-07-17T12:17:31Z</time><extensions><speed>0.000000</speed><course>240.875916</course><hAcc>0.915767</hAcc><vAcc>0.745009</vAcc></extensions></trkpt>
      <trkpt lon="-4.153604" lat="53.008615"><ele>645.578003</ele><time>2021-07-17T12:17:32Z</time><extensions><speed>0.000000</speed><course>240.875916</course><hAcc>0.916828</hAcc><vAcc>0.746915</vAcc></extensions></trkpt>
      <trkpt lon="-4.153604" lat="53.008615"><ele>645.578003</ele><time>2021-07-17T12:17:33Z</time><extensions><speed>0.000000</speed><course>240.875916</course><hAcc>0.917396</hAcc><vAcc>0.748268</vAcc></extensions></trkpt>
      <trkpt lon="-4.153604" lat="53.008615"><ele>645.578003</ele><time>2021-07-17T12:17:34Z</time><extensions><speed>0.000000</speed><course>240.875916</course><hAcc>0.917603</hAcc><vAcc>0.749005</vAcc></extensions></trkpt>
      <trkpt lon="-4.153604" lat="53.008615"><ele>645.578003</ele><time>2021-07-17T12:17:35Z</time><extensions><speed>0.000000</speed><course>269.430084</course><hAcc>0.917565</hAcc><vAcc>0.749136</vAcc></extensions></trkpt>
      <trkpt lon="-4.153604" lat="53.008615"><ele>645.578003</ele><time>2021-07-17T12:17:36Z</time><extensions><speed>0.000000</speed><course>274.056000</course><hAcc>0.917327</hAcc><vAcc>0.748692</vAcc></extensions></trkpt>
      <trkpt lon="-4.153604" lat="53.008615"><ele>645.578003</ele><time>2021-07-17T12:17:37Z</time><extensions><speed>0.000000</speed><course>273.580658</course><hAcc>0.916858</hAcc><vAcc>0.747722</vAcc></extensions></trkpt>
      <trkpt lon="-4.153604" lat="53.008615"><ele>645.578003</ele><time>2021-07-17T12:17:38Z</time><extensions><speed>0.000000</speed><course>266.285736</course><hAcc>0.916104</hAcc><vAcc>0.746335</vAcc></extensions></trkpt>
      <trkpt lon="-4.153604" lat="53.008615"><ele>645.578003</ele><time>2021-07-17T12:17:39Z</time><extensions><speed>0.000000</speed><course>280.416809</course><hAcc>0.915092</hAcc><vAcc>0.744795</vAcc></extensions></trkpt>
      <trkpt lon="-4.153604" lat="53.008615"><ele>645.578003</ele><time>2021-07-17T12:17:40Z</time><extensions><speed>0.000000</speed><course>289.633057</course><hAcc>0.914113</hAcc><vAcc>0.743669</vAcc></extensions></trkpt>
      <trkpt lon="-4.153604" lat="53.008615"><ele>645.578003</ele><time>2021-07-17T12:17:41Z</time><extensions><speed>0.000000</speed><course>274.042023</course><hAcc>0.913993</hAcc><vAcc>0.744028</vAcc></extensions></trkpt>
      <trkpt lon="-4.153604" lat="53.008615"><ele>645.578003</ele><time>2021-07-17T12:17:42Z</time><extensions><speed>0.000000</speed><course>259.398621</course><hAcc>0.916452</hAcc><vAcc>0.747689</vAcc></extensions></trkpt>
      <trkpt lon="-4.153604" lat="53.008615"><ele>645.578003</ele><time>2021-07-17T12:17:43Z</time><extensions><speed>0.000000</speed><course>235.228027</course><hAcc>0.924550</hAcc><vAcc>0.757447</vAcc></extensions></trkpt>
      <trkpt lon="-4.153604" lat="53.008615"><ele>645.578003</ele><time>2021-07-17T12:17:44Z</time><extensions><speed>0.000000</speed><course>233.943741</course><hAcc>0.943087</hAcc><vAcc>0.777200</vAcc></extensions></trkpt>
      <trkpt lon="-4.153604" lat="53.008615"><ele>645.578003</ele><time>2021-07-17T12:17:45Z</time><extensions><speed>0.000000</speed><course>251.986771</course><hAcc>0.978718</hAcc><vAcc>0.811787</vAcc></extensions></trkpt>
      <trkpt lon="-4.153604" lat="53.008615"><ele>645.578003</ele><time>2021-07-17T12:17:46Z</time><extensions><speed>0.000000</speed><course>207.637573</course><hAcc>0.940465</hAcc><vAcc>0.776116</vAcc></extensions></trkpt>
      <trkpt lon="-4.153604" lat="53.008615"><ele>645.578003</ele><time>2021-07-17T12:17:47Z</time><extensions><speed>0.000000</speed><course>199.781464</course><hAcc>0.921118</hAcc><vAcc>0.755154</vAcc></extensions></trkpt>
      <trkpt lon="-4.153604" lat="53.008615"><ele>645.578003</ele><time>2021-07-17T12:17:48Z</time><extensions><speed>0.000000</speed><course>204.898392</course><hAcc>0.913375</hAcc><vAcc>0.745186</vAcc></extensions></trkpt>
      <trkpt lon="-4.153604" lat="53.008615"><ele>645.578003</ele><time>2021-07-17T12:17:49Z</time><extensions><speed>0.000000</speed><course>218.988647</course><hAcc>0.911761</hAcc><vAcc>0.741871</vAcc></extensions></trkpt>
      <trkpt lon="-4.153604" lat="53.008615"><ele>645.578003</ele><time>2021-07-17T12:17:50Z</time><extensions><speed>0.000000</speed><course>240.875916</course><hAcc>0.912788</hAcc><vAcc>0.742081</vAcc></extensions></trkpt>
      <trkpt lon="-4.153604" lat="53.008615"><ele>645.578003</ele><time>2021-07-17T12:17:51Z</time><extensions><speed>0.000000</speed><course>240.875916</course><hAcc>0.914508</hAcc><vAcc>0.743789</vAcc></extensions></trkpt>
      <trkpt lon="-4.153604" lat="53.008615"><ele>645.578003</ele><time>2021-07-17T12:17:52Z</time><extensions><speed>0.000000</speed><course>240.875916</course><hAcc>0.916015</hAcc><vAcc>0.745815</vAcc></extensions></trkpt>
      <trkpt lon="-4.153604" lat="53.008615"><ele>645.578003</ele><time>2021-07-17T12:17:53Z</time><extensions><speed>0.000000</speed><course>240.875916</course><hAcc>0.917015</hAcc><vAcc>0.747553</vAcc></extensions></trkpt>
      <trkpt lon="-4.153604" lat="53.008615"><ele>645.578003</ele><time>2021-07-17T12:17:54Z</time><extensions><speed>0.000000</speed><course>240.875916</course><hAcc>0.917530</hAcc><vAcc>0.748746</vAcc></extensions></trkpt>
      <trkpt lon="-4.153604" lat="53.008615"><ele>645.578003</ele><time>2021-07-17T12:17:55Z</time><extensions><speed>0.000000</speed><course>240.875916</course><hAcc>0.917687</hAcc><vAcc>0.749322</vAcc></extensions></trkpt>
      <trkpt lon="-4.153604" lat="53.008615"><ele>645.578003</ele><time>2021-07-17T12:17:56Z</time><extensions><speed>0.000000</speed><course>269.430084</course><hAcc>0.917598</hAcc><vAcc>0.749284</vAcc></extensions></trkpt>
      <trkpt lon="-4.153604" lat="53.008615"><ele>645.578003</ele><time>2021-07-17T12:17:57Z</time><extensions><speed>0.000000</speed><course>274.056000</course><hAcc>0.917308</hAcc><vAcc>0.748660</vAcc></extensions></trkpt>
      <trkpt lon="-4.153604" lat="53.008615"><ele>645.578003</ele><time>2021-07-17T12:17:58Z</time><extensions><speed>0.000000</speed><course>273.580658</course><hAcc>0.916786</hAcc><vAcc>0.747496</vAcc></extensions></trkpt>
      <trkpt lon="-4.153604" lat="53.008615"><ele>645.578003</ele><time>2021-07-17T12:17:59Z</time><extensions><speed>0.000000</speed><course>266.285736</course><hAcc>0.915975</hAcc><vAcc>0.745904</vAcc></extensions></trkpt>
      <trkpt lon="-4.153604" lat="53.008615"><ele>645.578003</ele><time>2021-07-17T12:18:00Z</time><extensions><speed>0.000000</speed><course>280.416809</course><hAcc>0.914905</hAcc><vAcc>0.744150</vAcc></extensions></trkpt>
      <trkpt lon="-4.153604" lat="53.008615"><ele>645.578003</ele><time>2021-07-17T12:18:01Z</time><extensions><speed>0.000000</speed><course>289.633057</course><hAcc>0.913867</hAcc><vAcc>0.742807</vAcc></extensions></trkpt>
      <trkpt lon="-4.153604" lat="53.008615"><ele>645.578003</ele><time>2021-07-17T12:18:02Z</time><extensions><speed>0.000000</speed><course>274.042023</course><hAcc>0.913684</hAcc><vAcc>0.742958</vAcc></extensions></trkpt>
      <trkpt lon="-4.153604" lat="53.008615"><ele>645.578003</ele><time>2021-07-17T12:18:03Z</time><extensions><speed>0.000000</speed><course>259.398621</course><hAcc>0.916080</hAcc><vAcc>0.746429</vAcc></extensions></trkpt>
      <trkpt lon="-4.153604" lat="53.008615"><ele>645.578003</ele><time>2021-07-17T12:18:04Z</time><extensions><speed>0.000000</speed><course>235.228027</course><hAcc>0.924113</hAcc><vAcc>0.756028</vAcc></extensions></trkpt>
      <trkpt lon="-4.153604" lat="53.008615"><ele>645.578003</ele><time>2021-07-17T12:18:05Z</time><extensions><speed>0.000000</speed><course>233.943741</course><hAcc>0.942588</hAcc><vAcc>0.775659</vAcc></extensions></trkpt>
      <trkpt lon="-4.153604" lat="53.008615"><ele>645.578003</ele><time>2021-07-17T12:18:06Z</time><extensions><speed>0.000000</speed><course>251.986771</course><hAcc>0.978166</hAcc><vAcc>0.810168</vAcc></extensions></trkpt>
      <trkpt lon="-4.153604" lat="53.008615"><ele>645.578003</ele><time>2021-07-17T12:18:07Z</time><extensions><speed>0.000000</speed><course>207.637573</course><hAcc>0.939766</hAcc><vAcc>0.774217</vAcc></extensions></trkpt>
      <trkpt lon="-4.153604" lat="53.008615"><ele>645.578003</ele><time>2021-07-17T12:18:08Z</time><extensions><speed>0.000000</speed><course>199.781464</course><hAcc>0.920561</hAcc><vAcc>0.753638</vAcc></extensions></trkpt>
      <trkpt lon="-4.153604" lat="53.008615"><ele>645.578003</ele><time>2021-07-17T12:18:09Z</time><extensions><speed>0.000000</speed><course>204.898392</course><hAcc>0.912940</hAcc><vAcc>0.743988</vAcc></extensions></trkpt>
      <trkpt lon="-4.153604" lat="53.008615"><ele>645.578003</ele><time>2021-07-17T12:18:10Z</time><extensions><speed>0.000000</speed><course>218.988647</course><hAcc>0.911425</hAcc><vAcc>0.740925</vAcc></extensions></trkpt>
      <trkpt lon="-4.153604" lat="53.008615"><ele>645.578003</ele><time>2021-07-17T12:18:11Z</time><extensions><speed>0.000000</speed><course>240.875916</course><hAcc>0.912528</hAcc><vAcc>0.741329</vAcc></extensions></trkpt>
      <trkpt lon="-4.153604" lat="53.008615"><ele>645.578003</ele><time>2021-07-17T12:18:12Z</time><extensions><speed>0.000000</speed><course>240.875916</course><hAcc>0.914308</hAcc><vAcc>0.743187</vAcc></extensions></trkpt>
      <trkpt lon="-4.153604" lat="53.008615"><ele>645.578003</ele><time>2021-07-17T12:18:13Z</time><extensions><speed>0.000000</speed><course>240.875916</course><hAcc>0.915861</hAcc><vAcc>0.745332</vAcc></extensions></trkpt>
      <trkpt lon="-4.153604" lat="53.008615"><ele>645.578003</ele><time>2021-07-17T12:18:14Z</time><extensions><speed>0.000000</speed><course>240.875916</course><hAcc>0.916899</hAcc><vAcc>0.747171</vAcc></extensions></trkpt>
      <trkpt lon="-4.153604" lat="53.008615"><ele>645.578003</ele><time>2021-07-17T12:18:15Z</time><extensions><speed>0.000000</speed><course>240.875916</course><hAcc>0.917448</hAcc><vAcc>0.748457</vAcc></extensions></trkpt>
      <trkpt lon="-4.153604" lat="53.008615"><ele>645.578003</ele><time>2021-07-17T12:18:16Z</time><extensions><speed>0.000000</speed><course>240.875916</course><hAcc>0.917635</hAcc><vAcc>0.749125</vAcc></extensions></trkpt>
      <trkpt lon="-4.153604" lat="53.008615"><ele>645.578003</ele><time>2021-07-17T12:18:17Z</time><extensions><speed>0.000000</speed><course>269.430084</course><hAcc>0.917579</hAcc><vAcc>0.749183</vAcc></extensions></trkpt>
      <trkpt lon="-4.153604" lat="53.008615"><ele>645.578003</ele><time>2021-07-17T12:18:18Z</time><extensions><speed>0.000000</speed><course>274.056000</course><hAcc>0.917322</hAcc><vAcc>0.748664</vAcc></extensions></trkpt>
      <trkpt lon="-4.153604" lat="53.008615"><ele>645.578003</ele><time>2021-07-17T12:18:19Z</time><extensions><speed>0.000000</speed><course>273.580658</course><hAcc>0.916833</hAcc><vAcc>0.747614</vAcc></extensions></trkpt>
      <trkpt lon="-4.153604" lat="53.008615"><ele>645.578003</ele><time>2021-07-17T12:18:20Z</time><extensions><speed>0.000000</speed><course>266.285736</course><hAcc>0.916058</hAcc><vAcc>0.746143</vAcc></extensions></trkpt>
      <trkpt lon="-4.153604" lat="53.008615"><ele>645.578003</ele><time>2021-07-17T12:18:21Z</time><extensions><speed>0.000000</speed><course>280.416809</course><hAcc>0.915024</hAcc><vAcc>0.744515</vAcc></extensions></trkpt>
      <trkpt lon="-4.153604" lat="53.008615"><ele>645.578003</ele><time>2021-07-17T12:18:22Z</time><extensions><speed>0.000000</speed><course>289.633057</course><hAcc>0.914019</hAcc><vAcc>0.743294</vAcc></extensions></trkpt>
      <trkpt lon="-4.153604" lat="53.008615"><ele>645.578003</ele><time>2021-07-17T12:18:23Z</time><extensions><speed>0.000000</speed><course>274.042023</course><hAcc>0.913867</hAcc><vAcc>0.743549</vAcc></extensions></trkpt>
      <trkpt lon="-4.153604" lat="53.008615"><ele>645.578003</ele><time>2021-07-17T12:18:24Z</time><extensions><speed>0.000000</speed><course>259.398621</course><hAcc>0.916287</hAcc><vAcc>0.747092</vAcc></extensions></trkpt>
      <trkpt lon="-4.153604" lat="53.008615"><ele>645.578003</ele><time>2021-07-17T12:18:25Z</time><extensions><speed>0.000000</speed><course>235.228027</course><hAcc>0.924335</hAcc><vAcc>0.756716</vAcc></extensions></trkpt>
      <trkpt lon="-4.153604" lat="53.008615"><ele>645.578003</ele><time>2021-07-17T12:18:26Z</time><extensions><speed>0.000000</speed><course>233.943741</course><hAcc>0.942820</hAcc><vAcc>0.776331</vAcc></extensions></trkpt>
      <trkpt lon="-4.153604" lat="53.008615"><ele>645.578003</ele><time>2021-07-17T12:18:27Z</time><extensions><speed>0.000000</speed><course>251.986771</course><hAcc>0.978372</hAcc><vAcc>0.810749</vAcc></extensions></trkpt>
      <trkpt lon="-4.153604" lat="53.008615"><ele>645.578003</ele><time>2021-07-17T12:18:28Z</time><extensions><speed>0.000000</speed><course>207.637573</course><hAcc>0.940118</hAcc><vAcc>0.775110</vAcc></extensions></trkpt>
      <trkpt lon="-4.153604" lat="53.008615"><ele>645.578003</ele><time>2021-07-17T12:18:29Z</time><extensions><speed>0.000000</speed><course>199.781464</course><hAcc>0.920801</hAcc><vAcc>0.754200</vAcc></extensions></trkpt>
      <trkpt lon="-4.153604" lat="53.008615"><ele>645.578003</ele><time>2021-07-17T12:18:30Z</time><extensions><speed>0.000000</speed><course>204.898392</course><hAcc>0.913078</hAcc><vAcc>0.744266</vAcc></extensions></trkpt>
      <trkpt lon="-4.153604" lat="53.008615"><ele>645.578003</ele><time>2021-07-17T12:18:31Z</time><extensions><speed>0.000000</speed><course>218.988647</course><hAcc>0.911475</hAcc><vAcc>0.740971</vAcc></extensions></trkpt>
      <trkpt lon="-4.153604" lat="53.008615"><ele>645.578003</ele><time>2021-07-17T12:18:32Z</time><extensions><speed>0.000000</speed><course>240.875916</course><hAcc>0.912506</hAcc><vAcc>0.741192</vAcc></extensions></trkpt>
      <trkpt lon="-4.153604" lat="53.008615"><ele>645.578003</ele><time>2021-07-17T12:18:33Z</time><extensions><speed>0.000000</speed><course>240.875916</course><hAcc>0.914227</hAcc><vAcc>0.742907</vAcc></extensions></trkpt>
      <trkpt lon="-4.153604" lat="53.008615"><ele>645.578003</ele><time>2021-07-17T12:18:34Z</time><extensions><speed>0.000000</speed><course>240.875916</course><hAcc>0.915732</hAcc><vAcc>0.744940</vAcc></extensions></trkpt>
      <trkpt lon="-4.153604" lat="53.008615"><ele>645.578003</ele><time>2021-07-17T12:18:35Z</time><extensions><speed>0.000000</speed><course>240.875916</course><hAcc>0.916732</hAcc><vAcc>0.746692</vAcc></extensions></trkpt>
      <trkpt lon="-4.153604" lat="53.008615"><ele>645.578003</ele><time>2021-07-17T12:18:36Z</time><extensions><speed>0.000000</speed><course>240.875916</course><hAcc>0.917248</hAcc><vAcc>0.747909</vAcc></extensions></trkpt>
      <trkpt lon="-4.153604" lat="53.008615"><ele>645.578003</ele><time>2021-07-17T12:18:37Z</time><extensions><speed>0.000000</speed><course>240.875916</course><hAcc>0.917407</hAcc><vAcc>0.748520</vAcc></extensions></trkpt>
      <trkpt lon="-4.153604" lat="53.008615"><ele>645.578003</ele><time>2021-07-17T12:18:38Z</time><extensions><speed>0.000000</speed><course>269.430084</course><hAcc>0.917323</hAcc><vAcc>0.748533</vAcc></extensions></trkpt>
      <trkpt lon="-4.153604" lat="53.008615"><ele>645.578003</ele><time>2021-07-17T12:18:39Z</time><extensions><speed>0.000000</speed><course>274.056000</course><hAcc>0.917036</hAcc><vAcc>0.747974</vAcc></extensions></trkpt>
      <trkpt lon="-4.153604" lat="53.008615"><ele>645.578003</ele><time>2021-07-17T12:18:40Z</time><extensions><speed>0.000000</speed><course>273.580658</course><hAcc>0.916514</hAcc><vAcc>0.746891</vAcc></extensions></trkpt>
      <trkpt lon="-4.153604" lat="53.008615"><ele>645.578003</ele><time>2021-07-17T12:18:40Z</time><extensions><speed>0.000000</speed><course>266.285736</course><hAcc>0.915737</hAcc><vAcc>0.745419</vAcc></extensions></trkpt>
      <trkpt lon="-4.153604" lat="53.008615"><ele>645.578003</ele><time>2021-07-17T12:18:41Z</time><extensions><speed>0.000000</speed><course>280.416809</course><hAcc>0.914728</hAcc><vAcc>0.743814</vAcc></extensions></trkpt>
      <trkpt lon="-4.153604" lat="53.008615"><ele>645.578003</ele><time>2021-07-17T12:18:42Z</time><extensions><speed>0.000000</speed><course>289.633057</course><hAcc>0.913742</hAcc><vAcc>0.742617</vAcc></extensions></trkpt>
      <trkpt lon="-4.153604" lat="53.008615"><ele>645.578003</ele><time>2021-07-17T12:18:43Z</time><extensions><speed>0.000000</speed><course>274.042023</course><hAcc>0.913601</hAcc><vAcc>0.742895</vAcc></extensions></trkpt>
      <trkpt lon="-4.153604" lat="53.008615"><ele>645.578003</ele><time>2021-07-17T12:18:44Z</time><extensions><speed>0.000000</speed><course>259.398621</course><hAcc>0.916027</hAcc><vAcc>0.746461</vAcc></extensions></trkpt>
      <trkpt lon="-4.153604" lat="53.008615"><ele>645.578003</ele><time>2021-07-17T12:18:45Z</time><extensions><speed>0.000000</speed><course>235.228027</course><hAcc>0.924080</hAcc><vAcc>0.756107</vAcc></extensions></trkpt>
      <trkpt lon="-4.153604" lat="53.008615"><ele>645.578003</ele><time>2021-07-17T12:18:46Z</time><extensions><speed>0.000000</speed><course>233.943741</course><hAcc>0.942559</hAcc><vAcc>0.775728</vAcc></extensions></trkpt>
      <trkpt lon="-4.153604" lat="53.008615"><ele>645.578003</ele><time>2021-07-17T12:18:47Z</time><extensions><speed>0.000000</speed><course>251.986771</course><hAcc>0.978127</hAcc><vAcc>0.810167</vAcc></extensions></trkpt>
      <trkpt lon="-4.153604" lat="53.008615"><ele>645.578003</ele><time>2021-07-17T12:18:48Z</time><extensions><speed>0.000000</speed><course>207.637573</course><hAcc>0.939912</hAcc><vAcc>0.774573</vAcc></extensions></trkpt>
      <trkpt lon="-4.153604" lat="53.008615"><ele>645.578003</ele><time>2021-07-17T12:18:49Z</time><extensions><speed>0.000000</speed><course>199.781464</course><hAcc>0.920627</hAcc><vAcc>0.753748</vAcc></extensions></trkpt>
      <trkpt lon="-4.153604" lat="53.008615"><ele>645.578003</ele><time>2021-07-17T12:18:50Z</time><extensions><speed>0.000000</speed><course>204.898392</course><hAcc>0.912936</hAcc><vAcc>0.743885</vAcc></extensions></trkpt>
      <trkpt lon="-4.153604" lat="53.008615"><ele>645.578003</ele><time>2021-07-17T12:18:51Z</time><extensions><speed>0.000000</speed><course>218.988647</course><hAcc>0.911361</hAcc><vAcc>0.740647</vAcc></extensions></trkpt>
      <trkpt lon="-4.153604" lat="53.008615"><ele>645.578003</ele><time>2021-07-17T12:18:52Z</time><extensions><speed>0.000000</speed><course>240.875916</course><hAcc>0.912415</hAcc><vAcc>0.740913</vAcc></extensions></trkpt>
      <trkpt lon="-4.153604" lat="53.008615"><ele>645.578003</ele><time>2021-07-17T12:18:53Z</time><extensions><speed>0.000000</speed><course>240.875916</course><hAcc>0.914155</hAcc><vAcc>0.742663</vAcc></extensions></trkpt>
      <trkpt lon="-4.153604" lat="53.008615"><ele>645.578003</ele><time>2021-07-17T12:18:54Z</time><extensions><speed>0.000000</speed><course>240.875916</course><hAcc>0.915677</hAcc><vAcc>0.744726</vAcc></extensions></trkpt>
      <trkpt lon="-4.153604" lat="53.008615"><ele>645.578003</ele><time>2021-07-17T12:18:55Z</time><extensions><speed>0.000000</speed><course>240.875916</course><hAcc>0.916693</hAcc><vAcc>0.746505</vAcc></extensions></trkpt>
      <trkpt lon="-4.153604" lat="53.008615"><ele>645.578003</ele><time>2021-07-17T12:18:56Z</time><extensions><speed>0.000000</speed><course>240.875916</course><hAcc>0.917225</hAcc><vAcc>0.747748</vAcc></extensions></trkpt>
      <trkpt lon="-4.153604" lat="53.008615"><ele>645.578003</ele><time>2021-07-17T12:18:57Z</time><extensions><speed>0.000000</speed><course>240.875916</course><hAcc>0.917402</hAcc><vAcc>0.748388</vAcc></extensions></trkpt>
      <trkpt lon="-4.153604" lat="53.008615"><ele>645.578003</ele><time>2021-07-17T12:18:58Z</time><extensions><speed>0.000000</speed><course>269.430084</course><hAcc>0.917339</hAcc><vAcc>0.748432</vAcc></extensions></trkpt>
      <trkpt lon="-4.153604" lat="53.008615"><ele>645.578003</ele><time>2021-07-17T12:18:59Z</time><extensions><speed>0.000000</speed><course>274.056000</course><hAcc>0.917080</hAcc><vAcc>0.747908</vAcc></extensions></trkpt>
      <trkpt lon="-4.153604" lat="53.008615"><ele>645.578003</ele><time>2021-07-17T12:19:00Z</time><extensions><speed>0.000000</speed><course>273.580658</course><hAcc>0.916592</hAcc><vAcc>0.746863</vAcc></extensions></trkpt>
      <trkpt lon="-4.153604" lat="53.008615"><ele>645.578003</ele><time>2021-07-17T12:19:01Z</time><extensions><speed>0.000000</speed><course>266.285736</course><hAcc>0.915818</hAcc><vAcc>0.745405</vAcc></extensions></trkpt>
      <trkpt lon="-4.153604" lat="53.008615"><ele>645.578003</ele><time>2021-07-17T12:19:02Z</time><extensions><speed>0.000000</speed><course>280.416809</course><hAcc>0.914785</hAcc><vAcc>0.743795</vAcc></extensions></trkpt>
      <trkpt lon="-4.153604" lat="53.008615"><ele>645.578003</ele><time>2021-07-17T12:19:03Z</time><extensions><speed>0.000000</speed><course>289.633057</course><hAcc>0.913781</hAcc><vAcc>0.742596</vAcc></extensions></trkpt>
      <trkpt lon="-4.153604" lat="53.008615"><ele>645.578003</ele><time>2021-07-17T12:19:04Z</time><extensions><speed>0.000000</speed><course>274.042023</course><hAcc>0.913628</hAcc><vAcc>0.742875</vAcc></extensions></trkpt>
      <trkpt lon="-4.153604" lat="53.008615"><ele>645.578003</ele><time>2021-07-17T12:19:05Z</time><extensions><speed>0.000000</speed><course>259.398621</course><hAcc>0.916045</hAcc><vAcc>0.746443</vAcc></extensions></trkpt>
      <trkpt lon="-4.153604" lat="53.008615"><ele>645.578003</ele><time>2021-07-17T12:19:06Z</time><extensions><speed>0.000000</speed><course>235.228027</course><hAcc>0.924091</hAcc><vAcc>0.756091</vAcc></extensions></trkpt>
      <trkpt lon="-4.153604" lat="53.008615"><ele>645.578003</ele><time>2021-07-17T12:19:07Z</time><extensions><speed>0.000000</speed><course>233.943741</course><hAcc>0.942566</hAcc><vAcc>0.775714</vAcc></extensions></trkpt>
      <trkpt lon="-4.153604" lat="53.008615"><ele>645.578003</ele><time>2021-07-17T12:19:08Z</time><extensions><speed>0.000000</speed><course>251.986771</course><hAcc>0.978131</hAcc><vAcc>0.810154</vAcc></extensions></trkpt>
      <trkpt lon="-4.153604" lat="53.008615"><ele>645.578003</ele><time>2021-07-17T12:19:09Z</time><extensions><speed>0.000000</speed><course>207.637573</course><hAcc>0.939910</hAcc><vAcc>0.774567</vAcc></extensions></trkpt>
      <trkpt lon="-4.153604" lat="53.008615"><ele>645.578003</ele><time>2021-07-17T12:19:10Z</time><extensions><speed>0.000000</speed><course>199.781464</course><hAcc>0.920629</hAcc><vAcc>0.753752</vAcc></extensions></trkpt>
      <trkpt lon="-4.153604" lat="53.008615"><ele>645.578003</ele><time>2021-07-17T12:19:11Z</time><extensions><speed>0.000000</speed><course>204.898392</course><hAcc>0.912942</hAcc><vAcc>0.743902</vAcc></extensions></trkpt>
      <trkpt lon="-4.153604" lat="53.008615"><ele>645.578003</ele><time>2021-07-17T12:19:12Z</time><extensions><speed>0.000000</speed><course>218.988647</course><hAcc>0.911370</hAcc><vAcc>0.740676</vAcc></extensions></trkpt>
      <trkpt lon="-4.153604" lat="53.008615"><ele>645.578003</ele><time>2021-07-17T12:19:13Z</time><extensions><speed>0.000000</speed><course>240.875916</course><hAcc>0.912428</hAcc><vAcc>0.740954</vAcc></extensions></trkpt>
      <trkpt lon="-4.153604" lat="53.008615"><ele>645.578003</ele><time>2021-07-17T12:19:14Z</time><extensions><speed>0.000000</speed><course>240.875916</course><hAcc>0.914173</hAcc><vAcc>0.742717</vAcc></extensions></trkpt>
      <trkpt lon="-4.153604" lat="53.008615"><ele>645.578003</ele><time>2021-07-17T12:19:15Z</time><extensions><speed>0.000000</speed><course>240.875916</course><hAcc>0.915698</hAcc><vAcc>0.744793</vAcc></extensions></trkpt>
      <trkpt lon="-4.153604" lat="53.008615"><ele>645.578003</ele><time>2021-07-17T12:19:16Z</time><extensions><speed>0.000000</speed><course>240.875916</course><hAcc>0.916717</hAcc><vAcc>0.746583</vAcc></extensions></trkpt>
      <trkpt lon="-4.153604" lat="53.008615"><ele>645.578003</ele><time>2021-07-17T12:19:17Z</time><extensions><speed>0.000000</speed><course>240.875916</course><hAcc>0.917253</hAcc><vAcc>0.747838</vAcc></extensions></trkpt>
      <trkpt lon="-4.153604" lat="53.008615"><ele>645.578003</ele><time>2021-07-17T12:19:18Z</time><extensions><speed>0.000000</speed><course>240.875916</course><hAcc>0.917433</hAcc><vAcc>0.748489</vAcc></extensions></trkpt>
      <trkpt lon="-4.153604" lat="53.008615"><ele>645.578003</ele><time>2021-07-17T12:19:19Z</time><extensions><speed>0.000000</speed><course>269.430084</course><hAcc>0.917373</hAcc><vAcc>0.748542</vAcc></extensions></trkpt>
      <trkpt lon="-4.153604" lat="53.008615"><ele>645.578003</ele><time>2021-07-17T12:19:20Z</time><extensions><speed>0.000000</speed><course>274.056000</course><hAcc>0.917117</hAcc><vAcc>0.748028</vAcc></extensions></trkpt>
      <trkpt lon="-4.153604" lat="53.008615"><ele>645.578003</ele><time>2021-07-17T12:19:21Z</time><extensions><speed>0.000000</speed><course>273.580658</course><hAcc>0.916633</hAcc><vAcc>0.746993</vAcc></extensions></trkpt>
      <trkpt lon="-4.153604" lat="53.008615"><ele>645.578003</ele><time>2021-07-17T12:19:22Z</time><extensions><speed>0.000000</speed><course>266.285736</course><hAcc>0.915864</hAcc><vAcc>0.745544</vAcc></extensions></trkpt>
      <trkpt lon="-4.153604" lat="53.008615"><ele>645.578003</ele><time>2021-07-17T12:19:23Z</time><extensions><speed>0.000000</speed><course>280.416809</course><hAcc>0.914836</hAcc><vAcc>0.743943</vAcc></extensions></trkpt>
      <trkpt lon="-4.153604" lat="53.008615"><ele>645.578003</ele><time>2021-07-17T12:19:24Z</time><extensions><speed>0.000000</speed><course>289.633057</course><hAcc>0.913839</hAcc><vAcc>0.742754</vAcc></extensions></trkpt>
      <trkpt lon="-4.153604" lat="53.008615"><ele>645.578003</ele><time>2021-07-17T12:19:25Z</time><extensions><speed>0.000000</speed><course>274.042023</course><hAcc>0.913694</hAcc><vAcc>0.743041</vAcc></extensions></trkpt>
      <trkpt lon="-4.153604" lat="53.008615"><ele>645.578003</ele><time>2021-07-17T12:19:26Z</time><extensions><speed>0.000000</speed><course>259.398621</course><hAcc>0.916118</hAcc><vAcc>0.746617</vAcc></extensions></trkpt>
      <trkpt lon="-4.153604" lat="53.008615"><ele>645.578003</ele><time>2021-07-17T12:19:27Z</time><extensions><speed>0.000000</speed><course>235.228027</course><hAcc>0.924170</hAcc><vAcc>0.756271</vAcc></extensions></trkpt>
      <trkpt lon="-4.153604" lat="53.008615"><ele>645.578003</ele><time>2021-07-17T12:19:28Z</time><extensions><speed>0.000000</speed><course>233.943741</course><hAcc>0.942647</hAcc><vAcc>0.775898</vAcc></extensions></trkpt>
      <trkpt lon="-4.153604" lat="53.008615"><ele>645.578003</ele><time>2021-07-17T12:19:29Z</time><extensions><speed>0.000000</speed><course>251.986771</course><hAcc>0.978207</hAcc><vAcc>0.810337</vAcc></extensions></trkpt>
      <trkpt lon="-4.153604" lat="53.008615"><ele>645.578003</ele><time>2021-07-17T12:19:31Z</time><extensions><speed>0.000000</speed><course>207.637573</course><hAcc>0.939999</hAcc><vAcc>0.774752</vAcc></extensions></trkpt>
      <trkpt lon="-4.153604" lat="53.008615"><ele>645.578003</ele><time>2021-07-17T12:19:32Z</time><extensions><speed>0.000000</speed><course>199.781464</course><hAcc>0.920712</hAcc><vAcc>0.753917</vAcc></extensions></trkpt>
      <trkpt lon="-4.153604" lat="53.008615"><ele>645.578003</ele><time>2021-07-17T12:19:33Z</time><extensions><speed>0.000000</speed><course>204.898392</course><hAcc>0.913013</hAcc><vAcc>0.744043</vAcc></extensions></trkpt>
      <trkpt lon="-4.153604" lat="53.008615"><ele>645.578003</ele><time>2021-07-17T12:19:34Z</time><extensions><speed>0.000000</speed><course>218.988647</course><hAcc>0.911429</hAcc><vAcc>0.740796</vAcc></extensions></trkpt>
      <trkpt lon="-4.153604" lat="53.008615"><ele>645.578003</ele><time>2021-07-17T12:19:35Z</time><extensions><speed>0.000000</speed><course>240.875916</course><hAcc>0.912475</hAcc><vAcc>0.741054</vAcc></extensions></trkpt>
      <trkpt lon="-4.153604" lat="53.008615"><ele>645.578003</ele><time>2021-07-17T12:19:36Z</time><extensions><speed>0.000000</speed><course>240.875916</course><hAcc>0.914209</hAcc><vAcc>0.742798</vAcc></extensions></trkpt>
      <trkpt lon="-4.153604" lat="53.008615"><ele>645.578003</ele><time>2021-07-17T12:19:37Z</time><extensions><speed>0.000000</speed><course>240.875916</course><hAcc>0.915726</hAcc><vAcc>0.744858</vAcc></extensions></trkpt>
      <trkpt lon="-4.153604" lat="53.008615"><ele>645.578003</ele><time>2021-07-17T12:19:38Z</time><extensions><speed>0.000000</speed><course>240.875916</course><hAcc>0.916738</hAcc><vAcc>0.746635</vAcc></extensions></trkpt>
      <trkpt lon="-4.153604" lat="53.008615"><ele>645.578003</ele><time>2021-07-17T12:19:39Z</time><extensions><speed>0.000000</speed><course>240.875916</course><hAcc>0.917268</hAcc><vAcc>0.747878</vAcc></extensions></trkpt>
      <trkpt lon="-4.153604" lat="53.008615"><ele>645.578003</ele><time>2021-07-17T12:19:40Z</time><extensions><speed>0.000000</speed><course>240.875916</course><hAcc>0.917444</hAcc><vAcc>0.748518</vAcc></extensions></trkpt>
      <trkpt lon="-4.153604" lat="53.008615"><ele>645.578003</ele><time>2021-07-17T12:19:41Z</time><extensions><speed>0.000000</speed><course>269.430084</course><hAcc>0.917382</hAcc><vAcc>0.748563</vAcc></extensions></trkpt>
      <trkpt lon="-4.153604" lat="53.008615"><ele>645.578003</ele><time>2021-07-17T12:19:42Z</time><extensions><speed>0.000000</speed><course>274.056000</course><hAcc>0.917123</hAcc><vAcc>0.748042</vAcc></extensions></trkpt>
      <trkpt lon="-4.153604" lat="53.008615"><ele>645.578003</ele><time>2021-07-17T12:19:43Z</time><extensions><speed>0.000000</speed><course>273.580658</course><hAcc>0.916636</hAcc><vAcc>0.747001</vAcc></extensions></trkpt>
      <trkpt lon="-4.153604" lat="53.008615"><ele>645.578003</ele><time>2021-07-17T12:19:44Z</time><extensions><speed>0.000000</speed><course>266.285736</course><hAcc>0.915863</hAcc><vAcc>0.745548</vAcc></extensions></trkpt>
      <trkpt lon="-4.153604" lat="53.008615"><ele>645.578003</ele><time>2021-07-17T12:19:45Z</time><extensions><speed>0.000000</speed><course>280.416809</course><hAcc>0.914832</hAcc><vAcc>0.743945</vAcc></extensions></trkpt>
      <trkpt lon="-4.153604" lat="53.008615"><ele>645.578003</ele><time>2021-07-17T12:19:46Z</time><extensions><speed>0.000000</speed><course>289.633057</course><hAcc>0.913831</hAcc><vAcc>0.742754</vAcc></extensions></trkpt>
      <trkpt lon="-4.153604" lat="53.008615"><ele>645.578003</ele><time>2021-07-17T12:19:47Z</time><extensions><speed>0.000000</speed><course>274.042023</course><hAcc>0.913682</hAcc><vAcc>0.743042</vAcc></extensions></trkpt>
      <trkpt lon="-4.153604" lat="53.008615"><ele>645.578003</ele><time>2021-07-17T12:19:48Z</time><extensions><speed>0.000000</speed><course>259.398621</course><hAcc>0.916104</hAcc><vAcc>0.746621</vAcc></extensions></trkpt>
      <trkpt lon="-4.153604" lat="53.008615"><ele>645.578003</ele><time>2021-07-17T12:19:49Z</time><extensions><speed>0.000000</speed><course>235.228027</course><hAcc>0.924157</hAcc><vAcc>0.756284</vAcc></extensions></trkpt>
      <trkpt lon="-4.153604" lat="53.008615"><ele>645.578003</ele><time>2021-07-17T12:19:50Z</time><extensions><speed>0.000000</speed><course>233.943741</course><hAcc>0.942639</hAcc><vAcc>0.775923</vAcc></extensions></trkpt>
      <trkpt lon="-4.153604" lat="53.008615"><ele>645.578003</ele><time>2021-07-17T12:19:51Z</time><extensions><speed>0.000000</speed><course>251.986771</course><hAcc>0.978212</hAcc><vAcc>0.810381</vAcc></extensions></trkpt>
      <trkpt lon="-4.153604" lat="53.008615"><ele>645.578003</ele><time>2021-07-17T12:19:52Z</time><extensions><speed>0.000000</speed><course>207.637573</course><hAcc>0.939958</hAcc><vAcc>0.774702</vAcc></extensions></trkpt>
      <trkpt lon="-4.153604" lat="53.008615"><ele>645.578003</ele><time>2021-07-17T12:19:53Z</time><extensions><speed>0.000000</speed><course>199.781464</course><hAcc>0.920660</hAcc><vAcc>0.753837</vAcc></extensions></trkpt>
      <trkpt lon="-4.153604" lat="53.008615"><ele>645.578003</ele><time>2021-07-17T12:19:54Z</time><extensions><speed>0.000000</speed><course>204.898392</course><hAcc>0.912959</hAcc><vAcc>0.743939</vAcc></extensions></trkpt>
      <trkpt lon="-4.153604" lat="53.008615"><ele>645.578003</ele><time>2021-07-17T12:19:55Z</time><extensions><speed>0.000000</speed><course>218.988647</course><hAcc>0.911377</hAcc><vAcc>0.740673</vAcc></extensions></trkpt>
      <trkpt lon="-4.153604" lat="53.008615"><ele>645.578003</ele><time>2021-07-17T12:19:56Z</time><extensions><speed>0.000000</speed><course>240.875916</course><hAcc>0.912427</hAcc><vAcc>0.740918</vAcc></extensions></trkpt>
      <trkpt lon="-4.153604" lat="53.008615"><ele>645.578003</ele><time>2021-07-17T12:19:57Z</time><extensions><speed>0.000000</speed><course>240.875916</course><hAcc>0.914167</hAcc><vAcc>0.742661</vAcc></extensions></trkpt>
      <trkpt lon="-4.153604" lat="53.008615"><ele>645.578003</ele><time>2021-07-17T12:19:58Z</time><extensions><speed>0.000000</speed><course>240.875916</course><hAcc>0.915690</hAcc><vAcc>0.744730</vAcc></extensions></trkpt>
      <trkpt lon="-4.153604" lat="53.008615"><ele>645.578003</ele><time>2021-07-17T12:19:59Z</time><extensions><speed>0.000000</speed><course>240.875916</course><hAcc>0.916709</hAcc><vAcc>0.746526</vAcc></extensions></trkpt>
      <trkpt lon="-4.153604" lat="53.008615"><ele>645.578003</ele><time>2021-07-17T12:20:00Z</time><extensions><speed>0.000000</speed><course>240.875916</course><hAcc>0.917245</hAcc><vAcc>0.747796</vAcc></extensions></trkpt>
      <trkpt lon="-4.153604" lat="53.008615"><ele>645.578003</ele><time>2021-07-17T12:20:01Z</time><extensions><speed>0.000000</speed><course>240.875916</course><hAcc>0.917428</hAcc><vAcc>0.748466</vAcc></extensions></trkpt>
      <trkpt lon="-4.153604" lat="53.008615"><ele>645.578003</ele><time>2021-07-17T12:20:02Z</time><extensions><speed>0.000000</speed><course>269.430084</course><hAcc>0.917372</hAcc><vAcc>0.748541</vAcc></extensions></trkpt>
      <trkpt lon="-4.153604" lat="53.008615"><ele>645.578003</ele><time>2021-07-17T12:20:03Z</time><extensions><speed>0.000000</speed><course>274.056000</course><hAcc>0.917120</hAcc><vAcc>0.748047</vAcc></extensions></trkpt>
      <trkpt lon="-4.153604" lat="53.008615"><ele>645.578003</ele><time>2021-07-17T12:20:04Z</time><extensions><speed>0.000000</speed><course>273.580658</course><hAcc>0.916639</hAcc><vAcc>0.747029</vAcc></extensions></trkpt>
      <trkpt lon="-4.153604" lat="53.008615"><ele>645.578003</ele><time>2021-07-17T12:20:05Z</time><extensions><speed>0.000000</speed><course>266.285736</course><hAcc>0.915873</hAcc><vAcc>0.745595</vAcc></extensions></trkpt>
      <trkpt lon="-4.153604" lat="53.008615"><ele>645.578003</ele><time>2021-07-17T12:20:06Z</time><extensions><speed>0.000000</speed><course>280.416809</course><hAcc>0.914846</hAcc><vAcc>0.744006</vAcc></extensions></trkpt>
      <trkpt lon="-4.153604" lat="53.008615"><ele>645.578003</ele><time>2021-07-17T12:20:07Z</time><extensions><speed>0.000000</speed><course>289.633057</course><hAcc>0.913849</hAcc><vAcc>0.742825</vAcc></extensions></trkpt>
      <trkpt lon="-4.153604" lat="53.008615"><ele>645.578003</ele><time>2021-07-17T12:20:08Z</time><extensions><speed>0.000000</speed><course>274.042023</course><hAcc>0.913703</hAcc><vAcc>0.743120</vAcc></extensions></trkpt>
      <trkpt lon="-4.153604" lat="53.008615"><ele>645.578003</ele><time>2021-07-17T12:20:09Z</time><extensions><speed>0.000000</speed><course>259.398621</course><hAcc>0.916128</hAcc><vAcc>0.746703</vAcc></extensions></trkpt>
      <trkpt lon="-4.153604" lat="53.008615"><ele>645.578003</ele><time>2021-07-17T12:20:10Z</time><extensions><speed>0.000000</speed><course>235.228027</course><hAcc>0.924183</hAcc><vAcc>0.756367</vAcc></extensions></trkpt>
      <trkpt lon="-4.153604" lat="53.008615"><ele>645.578003</ele><time>2021-07-17T12:20:11Z</time><extensions><speed>0.000000</speed><course>233.943741</course><hAcc>0.942668</hAcc><vAcc>0.776006</vAcc></extensions></trkpt>
      <trkpt lon="-4.153604" lat="53.008615"><ele>645.578003</ele><time>2021-07-17T12:20:12Z</time><extensions><speed>0.000000</speed><course>251.986771</course><hAcc>0.978243</hAcc><vAcc>0.810464</vAcc></extensions></trkpt>
      <trkpt lon="-4.153604" lat="53.008615"><ele>645.578003</ele><time>2021-07-17T12:20:13Z</time><extensions><speed>0.000000</speed><course>207.637573</course><hAcc>0.940023</hAcc><vAcc>0.774877</vAcc></extensions></trkpt>
      <trkpt lon="-4.153604" lat="53.008615"><ele>645.578003</ele><time>2021-07-17T12:20:14Z</time><extensions><speed>0.000000</speed><course>199.781464</course><hAcc>0.920728</hAcc><vAcc>0.754029</vAcc></extensions></trkpt>
      <trkpt lon="-4.153604" lat="53.008615"><ele>645.578003</ele><time>2021-07-17T12:20:15Z</time><extensions><speed>0.000000</speed><course>204.898392</course><hAcc>0.913029</hAcc><vAcc>0.744153</vAcc></extensions></trkpt>
      <trkpt lon="-4.153604" lat="53.008615"><ele>645.578003</ele><time>2021-07-17T12:20:16Z</time><extensions><speed>0.000000</speed><course>218.988647</course><hAcc>0.911450</hAcc><vAcc>0.740911</vAcc></extensions></trkpt>
      <trkpt lon="-4.153604" lat="53.008615"><ele>645.578003</ele><time>2021-07-17T12:20:17Z</time><extensions><speed>0.000000</speed><course>240.875916</course><hAcc>0.912504</hAcc><vAcc>0.741180</vAcc></extensions></trkpt>
      <trkpt lon="-4.153604" lat="53.008615"><ele>645.578003</ele><time>2021-07-17T12:20:18Z</time><extensions><speed>0.000000</speed><course>240.875916</course><hAcc>0.914246</hAcc><vAcc>0.742940</vAcc></extensions></trkpt>
      <trkpt lon="-4.153604" lat="53.008615"><ele>645.578003</ele><time>2021-07-17T12:20:19Z</time><extensions><speed>0.000000</speed><course>240.875916</course><hAcc>0.915771</hAcc><vAcc>0.745017</vAcc></extensions></trkpt>
      <trkpt lon="-4.153604" lat="53.008615"><ele>645.578003</ele><time>2021-07-17T12:20:20Z</time><extensions><speed>0.000000</speed><course>240.875916</course><hAcc>0.916791</hAcc><vAcc>0.746810</vAcc></extensions></trkpt>
      <trkpt lon="-4.153604" lat="53.008615"><ele>645.578003</ele><time>2021-07-17T12:20:21Z</time><extensions><speed>0.000000</speed><course>240.875916</course><hAcc>0.917327</hAcc><vAcc>0.748068</vAcc></extensions></trkpt>
      <trkpt lon="-4.153604" lat="53.008615"><ele>645.578003</ele><time>2021-07-17T12:20:22Z</time><extensions><speed>0.000000</speed><course>240.875916</course><hAcc>0.917508</hAcc><vAcc>0.748721</vAcc></extensions></trkpt>
      <trkpt lon="-4.153604" lat="53.008615"><ele>645.578003</ele><time>2021-07-17T12:20:23Z</time><extensions><speed>0.000000</speed><course>269.430084</course><hAcc>0.917449</hAcc><vAcc>0.748777</vAcc></extensions></trkpt>
      <trkpt lon="-4.153604" lat="53.008615"><ele>645.578003</ele><time>2021-07-17T12:20:24Z</time><extensions><speed>0.000000</speed><course>274.056000</course><hAcc>0.917192</hAcc><vAcc>0.748264</vAcc></extensions></trkpt>
      <trkpt lon="-4.153604" lat="53.008615"><ele>645.578003</ele><time>2021-07-17T12:20:25Z</time><extensions><speed>0.000000</speed><course>273.580658</course><hAcc>0.916707</hAcc><vAcc>0.747228</vAcc></extensions></trkpt>
      <trkpt lon="-4.153604" lat="53.008615"><ele>645.578003</ele><time>2021-07-17T12:20:26Z</time><extensions><speed>0.000000</speed><course>266.285736</course><hAcc>0.915936</hAcc><vAcc>0.745779</vAcc></extensions></trkpt>
      <trkpt lon="-4.153604" lat="53.008615"><ele>645.578003</ele><time>2021-07-17T12:20:27Z</time><extensions><speed>0.000000</speed><course>280.416809</course><hAcc>0.914906</hAcc><vAcc>0.744178</vAcc></extensions></trkpt>
      <trkpt lon="-4.153604" lat="53.008615"><ele>645.578003</ele><time>2021-07-17T12:20:28Z</time><extensions><speed>0.000000</speed><course>289.633057</course><hAcc>0.913907</hAcc><vAcc>0.742989</vAcc></extensions></trkpt>
      <trkpt lon="-4.153604" lat="53.008615"><ele>645.578003</ele><time>2021-07-17T12:20:29Z</time><extensions><speed>0.000000</speed><course>274.042023</course><hAcc>0.913761</hAcc><vAcc>0.743282</vAcc></extensions></trkpt>
      <trkpt lon="-4.153604" lat="53.008615"><ele>645.578003</ele><time>2021-07-17T12:20:30Z</time><extensions><speed>0.000000</speed><course>259.398621</course><hAcc>0.916188</hAcc><vAcc>0.746868</vAcc></extensions></trkpt>
      <trkpt lon="-4.153604" lat="53.008615"><ele>645.578003</ele><time>2021-07-17T12:20:31Z</time><extensions><speed>0.000000</speed><course>235.228027</course><hAcc>0.924248</hAcc><vAcc>0.756541</vAcc></extensions></trkpt>
      <trkpt lon="-4.153604" lat="53.008615"><ele>645.578003</ele><time>2021-07-17T12:20:32Z</time><extensions><speed>0.000000</speed><course>233.943741</course><hAcc>0.942738</hAcc><vAcc>0.776195</vAcc></extensions></trkpt>
      <trkpt lon="-4.153604" lat="53.008615"><ele>645.578003</ele><time>2021-07-17T12:20:33Z</time><extensions><speed>0.000000</speed><course>251.986771</course><hAcc>0.978319</hAcc><vAcc>0.810672</vAcc></extensions></trkpt>
      <trkpt lon="-4.153604" lat="53.008615"><ele>645.578003</ele><time>2021-07-17T12:20:34Z</time><extensions><speed>0.000000</speed><course>207.637573</course><hAcc>0.940037</hAcc><vAcc>0.774911</vAcc></extensions></trkpt>
      <trkpt lon="-4.153604" lat="53.008615"><ele>645.578003</ele><time>2021-07-17T12:20:35Z</time><extensions><speed>0.000000</speed><course>199.781464</course><hAcc>0.920708</hAcc><vAcc>0.753963</vAcc></extensions></trkpt>
      <trkpt lon="-4.153604" lat="53.008615"><ele>645.578003</ele><time>2021-07-17T12:20:36Z</time><extensions><speed>0.000000</speed><course>204.898392</course><hAcc>0.912974</hAcc><vAcc>0.743967</vAcc></extensions></trkpt>
      <trkpt lon="-4.153604" lat="53.008615"><ele>645.578003</ele><time>2021-07-17T12:20:37Z</time><extensions><speed>0.000000</speed><course>218.988647</course><hAcc>0.911360</hAcc><vAcc>0.740588</vAcc></extensions></trkpt>
      <trkpt lon="-4.153604" lat="53.008615"><ele>645.578003</ele><time>2021-07-17T12:20:38Z</time><extensions><speed>0.000000</speed><course>240.875916</course><hAcc>0.912362</hAcc><vAcc>0.740694</vAcc></extensions></trkpt>
      <trkpt lon="-4.153604" lat="53.008615"><ele>645.578003</ele><time>2021-07-17T12:20:39Z</time><extensions><speed>0.000000</speed><course>240.875916</course><hAcc>0.914034</hAcc><vAcc>0.742269</vAcc></extensions></trkpt>
      <trkpt lon="-4.153604" lat="53.008615"><ele>645.578003</ele><time>2021-07-17T12:20:40Z</time><extensions><speed>0.000000</speed><course>240.875916</course><hAcc>0.915493</hAcc><vAcc>0.744156</vAcc></extensions></trkpt>
      <trkpt lon="-4.153604" lat="53.008615"><ele>645.578003</ele><time>2021-07-17T12:20:41Z</time><extensions><speed>0.000000</speed><course>240.875916</course><hAcc>0.916450</hAcc><vAcc>0.745765</vAcc></extensions></trkpt>
      <trkpt lon="-4.153604" lat="53.008615"><ele>645.578003</ele><time>2021-07-17T12:20:42Z</time><extensions><speed>0.000000</speed><course>240.875916</course><hAcc>0.916929</hAcc><vAcc>0.746853</vAcc></extensions></trkpt>
      <trkpt lon="-4.153604" lat="53.008615"><ele>645.578003</ele><time>2021-07-17T12:20:43Z</time><extensions><speed>0.000000</speed><course>240.875916</course><hAcc>0.917059</hAcc><vAcc>0.747357</vAcc></extensions></trkpt>
      <trkpt lon="-4.153604" lat="53.008615"><ele>645.578003</ele><time>2021-07-17T12:20:44Z</time><extensions><speed>0.000000</speed><course>269.430084</course><hAcc>0.916955</hAcc><vAcc>0.747290</vAcc></extensions></trkpt>
      <trkpt lon="-4.153604" lat="53.008615"><ele>645.578003</ele><time>2021-07-17T12:20:45Z</time><extensions><speed>0.000000</speed><course>274.056000</course><hAcc>0.916659</hAcc><vAcc>0.746686</vAcc></extensions></trkpt>
      <trkpt lon="-4.153604" lat="53.008615"><ele>645.578003</ele><time>2021-07-17T12:20:46Z</time><extensions><speed>0.000000</speed><course>273.580658</course><hAcc>0.916134</hAcc><vAcc>0.745595</vAcc></extensions></trkpt>
      <trkpt lon="-4.153604" lat="53.008615"><ele>645.578003</ele><time>2021-07-17T12:20:46Z</time><extensions><speed>0.000000</speed><course>266.285736</course><hAcc>0.915360</hAcc><vAcc>0.744149</vAcc></extensions></trkpt>
      <trkpt lon="-4.153604" lat="53.008615"><ele>645.578003</ele><time>2021-07-17T12:20:47Z</time><extensions><speed>0.000000</speed><course>280.416809</course><hAcc>0.914355</hAcc><vAcc>0.742591</vAcc></extensions></trkpt>
      <trkpt lon="-4.153604" lat="53.008615"><ele>645.578003</ele><time>2021-07-17T12:20:48Z</time><extensions><speed>0.000000</speed><course>289.633057</course><hAcc>0.913369</hAcc><vAcc>0.741446</vAcc></extensions></trkpt>
      <trkpt lon="-4.153604" lat="53.008615"><ele>645.578003</ele><time>2021-07-17T12:20:49Z</time><extensions><speed>0.000000</speed><course>274.042023</course><hAcc>0.913218</hAcc><vAcc>0.741759</vAcc></extensions></trkpt>
      <trkpt lon="-4.153604" lat="53.008615"><ele>645.578003</ele><time>2021-07-17T12:20:50Z</time><extensions><speed>0.000000</speed><course>259.398621</course><hAcc>0.915617</hAcc><vAcc>0.745319</vAcc></extensions></trkpt>
      <trkpt lon="-4.153604" lat="53.008615"><ele>645.578003</ele><time>2021-07-17T12:20:51Z</time><extensions><speed>0.000000</speed><course>235.228027</course><hAcc>0.923620</hAcc><vAcc>0.754896</vAcc></extensions></trkpt>
      <trkpt lon="-4.153604" lat="53.008615"><ele>645.578003</ele><time>2021-07-17T12:20:52Z</time><extensions><speed>0.000000</speed><course>233.943741</course><hAcc>0.942025</hAcc><vAcc>0.774363</vAcc></extensions></trkpt>
      <trkpt lon="-4.153604" lat="53.008615"><ele>645.578003</ele><time>2021-07-17T12:20:53Z</time><extensions><speed>0.000000</speed><course>251.986771</course><hAcc>0.977498</hAcc><vAcc>0.808553</vAcc></extensions></trkpt>
      <trkpt lon="-4.153604" lat="53.008615"><ele>645.578003</ele><time>2021-07-17T12:20:54Z</time><extensions><speed>0.000000</speed><course>207.637573</course><hAcc>0.939529</hAcc><vAcc>0.773463</vAcc></extensions></trkpt>
      <trkpt lon="-4.153604" lat="53.008615"><ele>645.578003</ele><time>2021-07-17T12:20:55Z</time><extensions><speed>0.000000</speed><course>199.781464</course><hAcc>0.920279</hAcc><vAcc>0.752653</vAcc></extensions></trkpt>
      <trkpt lon="-4.153604" lat="53.008615"><ele>645.578003</ele><time>2021-07-17T12:20:56Z</time><extensions><speed>0.000000</speed><course>204.898392</course><hAcc>0.912629</hAcc><vAcc>0.742819</vAcc></extensions></trkpt>
      <trkpt lon="-4.153604" lat="53.008615"><ele>645.578003</ele><time>2021-07-17T12:20:57Z</time><extensions><speed>0.000000</speed><course>218.988647</course><hAcc>0.911100</hAcc><vAcc>0.739642</vAcc></extensions></trkpt>
      <trkpt lon="-4.153604" lat="53.008615"><ele>645.578003</ele><time>2021-07-17T12:20:58Z</time><extensions><speed>0.000000</speed><course>240.875916</course><hAcc>0.912205</hAcc><vAcc>0.740016</vAcc></extensions></trkpt>
      <trkpt lon="-4.153604" lat="53.008615"><ele>645.578003</ele><time>2021-07-17T12:20:59Z</time><extensions><speed>0.000000</speed><course>240.875916</course><hAcc>0.914002</hAcc><vAcc>0.741935</vAcc></extensions></trkpt>
      <trkpt lon="-4.153604" lat="53.008615"><ele>645.578003</ele><time>2021-07-17T12:21:00Z</time><extensions><speed>0.000000</speed><course>240.875916</course><hAcc>0.915587</hAcc><vAcc>0.744227</vAcc></extensions></trkpt>
      <trkpt lon="-4.153604" lat="53.008615"><ele>645.578003</ele><time>2021-07-17T12:21:01Z</time><extensions><speed>0.000000</speed><course>240.875916</course><hAcc>0.916672</hAcc><vAcc>0.746283</vAcc></extensions></trkpt>
      <trkpt lon="-4.153604" lat="53.008615"><ele>645.578003</ele><time>2021-07-17T12:21:02Z</time><extensions><speed>0.000000</speed><course>240.875916</course><hAcc>0.917280</hAcc><vAcc>0.747835</vAcc></extensions></trkpt>
      <trkpt lon="-4.153604" lat="53.008615"><ele>645.578003</ele><time>2021-07-17T12:21:03Z</time><extensions><speed>0.000000</speed><course>240.875916</course><hAcc>0.917539</hAcc><vAcc>0.748799</vAcc></extensions></trkpt>
      <trkpt lon="-4.153604" lat="53.008615"><ele>645.578003</ele><time>2021-07-17T12:21:04Z</time><extensions><speed>0.000000</speed><course>269.430084</course><hAcc>0.917562</hAcc><vAcc>0.749172</vAcc></extensions></trkpt>
      <trkpt lon="-4.153604" lat="53.008615"><ele>645.578003</ele><time>2021-07-17T12:21:05Z</time><extensions><speed>0.000000</speed><course>274.056000</course><hAcc>0.917392</hAcc><vAcc>0.748976</vAcc></extensions></trkpt>
      <trkpt lon="-4.153604" lat="53.008615"><ele>645.578003</ele><time>2021-07-17T12:21:06Z</time><extensions><speed>0.000000</speed><course>273.580658</course><hAcc>0.916997</hAcc><vAcc>0.748257</vAcc></extensions></trkpt>
      <trkpt lon="-4.153604" lat="53.008615"><ele>645.578003</ele><time>2021-07-17T12:21:07Z</time><extensions><speed>0.000000</speed><course>266.285736</course><hAcc>0.916323</hAcc><vAcc>0.747125</vAcc></extensions></trkpt>
      <trkpt lon="-4.153604" lat="53.008615"><ele>645.578003</ele><time>2021-07-17T12:21:08Z</time><extensions><speed>0.000000</speed><course>280.416809</course><hAcc>0.915402</hAcc><vAcc>0.745853</vAcc></extensions></trkpt>
      <trkpt lon="-4.153604" lat="53.008615"><ele>645.578003</ele><time>2021-07-17T12:21:09Z</time><extensions><speed>0.000000</speed><course>289.633057</course><hAcc>0.914530</hAcc><vAcc>0.745017</vAcc></extensions></trkpt>
      <trkpt lon="-4.153604" lat="53.008615"><ele>645.578003</ele><time>2021-07-17T12:21:10Z</time><extensions><speed>0.000000</speed><course>274.042023</course><hAcc>0.914538</hAcc><vAcc>0.745704</vAcc></extensions></trkpt>
      <trkpt lon="-4.153604" lat="53.008615"><ele>645.578003</ele><time>2021-07-17T12:21:11Z</time><extensions><speed>0.000000</speed><course>259.398621</course><hAcc>0.917155</hAcc><vAcc>0.749749</vAcc></extensions></trkpt>
      <trkpt lon="-4.153604" lat="53.008615"><ele>645.578003</ele><time>2021-07-17T12:21:12Z</time><extensions><speed>0.000000</speed><course>235.228027</course><hAcc>0.925446</hAcc><vAcc>0.759967</vAcc></extensions></trkpt>
      <trkpt lon="-4.153604" lat="53.008615"><ele>645.578003</ele><time>2021-07-17T12:21:13Z</time><extensions><speed>0.000000</speed><course>233.943741</course><hAcc>0.944205</hAcc><vAcc>0.780262</vAcc></extensions></trkpt>
      <trkpt lon="-4.153604" lat="53.008615"><ele>645.578003</ele><time>2021-07-17T12:21:14Z</time><extensions><speed>0.000000</speed><course>251.986771</course><hAcc>0.980077</hAcc><vAcc>0.815469</vAcc></extensions></trkpt>
      <trkpt lon="-4.153604" lat="53.008615"><ele>645.578003</ele><time>2021-07-17T12:21:15Z</time><extensions><speed>0.000000</speed><course>207.637573</course><hAcc>0.941785</hAcc><vAcc>0.779781</vAcc></extensions></trkpt>
      <trkpt lon="-4.153604" lat="53.008615"><ele>645.578003</ele><time>2021-07-17T12:21:16Z</time><extensions><speed>0.000000</speed><course>199.781464</course><hAcc>0.922447</hAcc><vAcc>0.758964</vAcc></extensions></trkpt>
      <trkpt lon="-4.153604" lat="53.008615"><ele>645.578003</ele><time>2021-07-17T12:21:17Z</time><extensions><speed>0.000000</speed><course>204.898392</course><hAcc>0.914742</hAcc><vAcc>0.749232</vAcc></extensions></trkpt>
      <trkpt lon="-4.153604" lat="53.008615"><ele>645.578003</ele><time>2021-07-17T12:21:18Z</time><extensions><speed>0.000000</speed><course>218.988647</course><hAcc>0.913195</hAcc><vAcc>0.746225</vAcc></extensions></trkpt>
      <trkpt lon="-4.153604" lat="53.008615"><ele>645.578003</ele><time>2021-07-17T12:21:19Z</time><extensions><speed>0.000000</speed><course>240.875916</course><hAcc>0.914313</hAcc><vAcc>0.746791</vAcc></extensions></trkpt>
      <trkpt lon="-4.153604" lat="53.008615"><ele>645.578003</ele><time>2021-07-17T12:21:20Z</time><extensions><speed>0.000000</speed><course>240.875916</course><hAcc>0.916143</hAcc><vAcc>0.748880</vAcc></extensions></trkpt>
      <trkpt lon="-4.153604" lat="53.008615"><ele>645.578003</ele><time>2021-07-17T12:21:21Z</time><extensions><speed>0.000000</speed><course>240.875916</course><hAcc>0.917768</hAcc><vAcc>0.751287</vAcc></extensions></trkpt>
      <trkpt lon="-4.153604" lat="53.008615"><ele>645.578003</ele><time>2021-07-17T12:21:22Z</time><extensions><speed>0.000000</speed><course>240.875916</course><hAcc>0.918887</hAcc><vAcc>0.753389</vAcc></extensions></trkpt>
      <trkpt lon="-4.153604" lat="53.008615"><ele>645.578003</ele><time>2021-07-17T12:21:23Z</time><extensions><speed>0.000000</speed><course>240.875916</course><hAcc>0.919513</hAcc><vAcc>0.754917</vAcc></extensions></trkpt>
      <trkpt lon="-4.153604" lat="53.008615"><ele>645.578003</ele><time>2021-07-17T12:21:24Z</time><extensions><speed>0.000000</speed><course>240.875916</course><hAcc>0.919766</hAcc><vAcc>0.755791</vAcc></extensions></trkpt>
      <trkpt lon="-4.153604" lat="53.008615"><ele>645.578003</ele><time>2021-07-17T12:21:25Z</time><extensions><speed>0.000000</speed><course>269.430084</course><hAcc>0.919760</hAcc><vAcc>0.756014</vAcc></extensions></trkpt>
      <trkpt lon="-4.153604" lat="53.008615"><ele>645.578003</ele><time>2021-07-17T12:21:26Z</time><extensions><speed>0.000000</speed><course>274.056000</course><hAcc>0.919540</hAcc><vAcc>0.755622</vAcc></extensions></trkpt>
      <trkpt lon="-4.153604" lat="53.008615"><ele>645.578003</ele><time>2021-07-17T12:21:27Z</time><extensions><speed>0.000000</speed><course>273.580658</course><hAcc>0.919080</hAcc><vAcc>0.754677</vAcc></extensions></trkpt>
      <trkpt lon="-4.153604" lat="53.008615"><ele>645.578003</ele><time>2021-07-17T12:21:28Z</time><extensions><speed>0.000000</speed><course>266.285736</course><hAcc>0.918336</hAcc><vAcc>0.753312</vAcc></extensions></trkpt>
      <trkpt lon="-4.153604" lat="53.008615"><ele>645.578003</ele><time>2021-07-17T12:21:29Z</time><extensions><speed>0.000000</speed><course>280.416809</course><hAcc>0.917352</hAcc><vAcc>0.751826</vAcc></extensions></trkpt>
      <trkpt lon="-4.153604" lat="53.008615"><ele>645.578003</ele><time>2021-07-17T12:21:30Z</time><extensions><speed>0.000000</speed><course>289.633057</course><hAcc>0.916440</hAcc><vAcc>0.750825</vAcc></extensions></trkpt>
      <trkpt lon="-4.153604" lat="53.008615"><ele>645.578003</ele><time>2021-07-17T12:21:31Z</time><extensions><speed>0.000000</speed><course>274.042023</course><hAcc>0.916443</hAcc><vAcc>0.751424</vAcc></extensions></trkpt>
      <trkpt lon="-4.153604" lat="53.008615"><ele>645.578003</ele><time>2021-07-17T12:21:32Z</time><extensions><speed>0.000000</speed><course>259.398621</course><hAcc>0.919102</hAcc><vAcc>0.755485</vAcc></extensions></trkpt>
      <trkpt lon="-4.153604" lat="53.008615"><ele>645.578003</ele><time>2021-07-17T12:21:33Z</time><extensions><speed>0.000000</speed><course>235.228027</course><hAcc>0.927486</hAcc><vAcc>0.765839</vAcc></extensions></trkpt>
      <trkpt lon="-4.153604" lat="53.008615"><ele>645.578003</ele><time>2021-07-17T12:21:34Z</time><extensions><speed>0.000000</speed><course>233.943741</course><hAcc>0.946389</hAcc><vAcc>0.786396</vAcc></extensions></trkpt>
      <trkpt lon="-4.153604" lat="53.008615"><ele>645.578003</ele><time>2021-07-17T12:21:35Z</time><extensions><speed>0.000000</speed><course>251.986771</course><hAcc>0.982436</hAcc><vAcc>0.821971</vAcc></extensions></trkpt>
      <trkpt lon="-4.153604" lat="53.008615"><ele>645.578003</ele><time>2021-07-17T12:21:36Z</time><extensions><speed>0.000000</speed><course>207.637573</course><hAcc>0.943866</hAcc><vAcc>0.785598</vAcc></extensions></trkpt>
      <trkpt lon="-4.153604" lat="53.008615"><ele>645.578003</ele><time>2021-07-17T12:21:37Z</time><extensions><speed>0.000000</speed><course>199.781464</course><hAcc>0.924269</hAcc><vAcc>0.764195</vAcc></extensions></trkpt>
      <trkpt lon="-4.153604" lat="53.008615"><ele>645.578003</ele><time>2021-07-17T12:21:38Z</time><extensions><speed>0.000000</speed><course>204.898392</course><hAcc>0.916345</hAcc><vAcc>0.753969</vAcc></extensions></trkpt>
      <trkpt lon="-4.153604" lat="53.008615"><ele>645.578003</ele><time>2021-07-17T12:21:39Z</time><extensions><speed>0.000000</speed><course>218.988647</course><hAcc>0.914627</hAcc><vAcc>0.750566</vAcc></extensions></trkpt>
      <trkpt lon="-4.153604" lat="53.008615"><ele>645.578003</ele><time>2021-07-17T12:21:40Z</time><extensions><speed>0.000000</speed><course>240.875916</course><hAcc>0.915623</hAcc><vAcc>0.750823</vAcc></extensions></trkpt>
      <trkpt lon="-4.153604" lat="53.008615"><ele>645.578003</ele><time>2021-07-17T12:21:41Z</time><extensions><speed>0.000000</speed><course>240.875916</course><hAcc>0.917368</hAcc><vAcc>0.752669</vAcc></extensions></trkpt>
      <trkpt lon="-4.153604" lat="53.008615"><ele>645.578003</ele><time>2021-07-17T12:21:42Z</time><extensions><speed>0.000000</speed><course>240.875916</course><hAcc>0.918937</hAcc><vAcc>0.754882</vAcc></extensions></trkpt>
      <trkpt lon="-4.153604" lat="53.008615"><ele>645.578003</ele><time>2021-07-17T12:21:43Z</time><extensions><speed>0.000000</speed><course>240.875916</course><hAcc>0.920019</hAcc><vAcc>0.756819</vAcc></extensions></trkpt>
      <trkpt lon="-4.153604" lat="53.008615"><ele>645.578003</ele><time>2021-07-17T12:21:45Z</time><extensions><speed>0.000000</speed><course>240.875916</course><hAcc>0.920601</hAcc><vAcc>0.758185</vAcc></extensions></trkpt>
      <trkpt lon="-4.153604" lat="53.008615"><ele>645.578003</ele><time>2021-07-17T12:21:46Z</time><extensions><speed>0.000000</speed><course>240.875916</course><hAcc>0.920797</hAcc><vAcc>0.758889</vAcc></extensions></trkpt>
      <trkpt lon="-4.153604" lat="53.008615"><ele>645.578003</ele><time>2021-07-17T12:21:47Z</time><extensions><speed>0.000000</speed><course>269.430084</course><hAcc>0.920734</hAcc><vAcc>0.758944</vAcc></extensions></trkpt>
      <trkpt lon="-4.153604" lat="53.008615"><ele>645.578003</ele><time>2021-07-17T12:21:48Z</time><extensions><speed>0.000000</speed><course>274.056000</course><hAcc>0.920456</hAcc><vAcc>0.758381</vAcc></extensions></trkpt>
      <trkpt lon="-4.153604" lat="53.008615"><ele>645.578003</ele><time>2021-07-17T12:21:49Z</time><extensions><speed>0.000000</speed><course>273.580658</course><hAcc>0.919939</hAcc><vAcc>0.757267</vAcc></extensions></trkpt>
      <trkpt lon="-4.153604" lat="53.008615"><ele>645.578003</ele><time>2021-07-17T12:21:50Z</time><extensions><speed>0.000000</speed><course>266.285736</course><hAcc>0.919141</hAcc><vAcc>0.755738</vAcc></extensions></trkpt>
      <trkpt lon="-4.153604" lat="53.008615"><ele>645.578003</ele><time>2021-07-17T12:21:51Z</time><extensions><speed>0.000000</speed><course>280.416809</course><hAcc>0.918110</hAcc><vAcc>0.754100</vAcc></extensions></trkpt>
      <trkpt lon="-4.153604" lat="53.008615"><ele>645.578003</ele><time>2021-07-17T12:21:52Z</time><extensions><speed>0.000000</speed><course>289.633057</course><hAcc>0.917163</hAcc><vAcc>0.752970</vAcc></extensions></trkpt>
      <trkpt lon="-4.153604" lat="53.008615"><ele>645.578003</ele><time>2021-07-17T12:21:53Z</time><extensions><speed>0.000000</speed><course>274.042023</course><hAcc>0.917151</hAcc><vAcc>0.753478</vAcc></extensions></trkpt>
      <trkpt lon="-4.153604" lat="53.008615"><ele>645.578003</ele><time>2021-07-17T12:21:54Z</time><extensions><speed>0.000000</speed><course>259.398621</course><hAcc>0.919817</hAcc><vAcc>0.757502</vAcc></extensions></trkpt>
      <trkpt lon="-4.153604" lat="53.008615"><ele>645.578003</ele><time>2021-07-17T12:21:55Z</time><extensions><speed>0.000000</speed><course>235.228027</course><hAcc>0.928234</hAcc><vAcc>0.767890</vAcc></extensions></trkpt>
      <trkpt lon="-4.153604" lat="53.008615"><ele>645.578003</ele><time>2021-07-17T12:21:56Z</time><extensions><speed>0.000000</speed><course>233.943741</course><hAcc>0.947195</hAcc><vAcc>0.788560</vAcc></extensions></trkpt>
      <trkpt lon="-4.153604" lat="53.008615"><ele>645.578003</ele><time>2021-07-17T12:21:57Z</time><extensions><speed>0.000000</speed><course>251.986771</course><hAcc>0.983318</hAcc><vAcc>0.824327</vAcc></extensions></trkpt>
      <trkpt lon="-4.153604" lat="53.008614"><ele>645.644531</ele><time>2021-07-17T12:21:58Z</time><extensions><speed>0.011208</speed><course>207.637573</course><hAcc>0.944015</hAcc><vAcc>0.786681</vAcc></extensions></trkpt>
      <trkpt lon="-4.153604" lat="53.008614"><ele>645.662415</ele><time>2021-07-17T12:21:59Z</time><extensions><speed>0.011554</speed><course>199.781464</course><hAcc>0.923942</hAcc><vAcc>0.764568</vAcc></extensions></trkpt>
      <trkpt lon="-4.153604" lat="53.008614"><ele>645.680176</ele><time>2021-07-17T12:22:00Z</time><extensions><speed>0.011846</speed><course>204.898392</course><hAcc>0.915425</hAcc><vAcc>0.753510</vAcc></extensions></trkpt>
      <trkpt lon="-4.153604" lat="53.008614"><ele>645.697632</ele><time>2021-07-17T12:22:01Z</time><extensions><speed>0.012004</speed><course>218.988647</course><hAcc>0.912999</hAcc><vAcc>0.749165</vAcc></extensions></trkpt>
      <trkpt lon="-4.153604" lat="53.008614"><ele>645.714417</ele><time>2021-07-17T12:22:02Z</time><extensions><speed>0.011925</speed><course>240.875916</course><hAcc>0.913165</hAcc><vAcc>0.748389</vAcc></extensions></trkpt>
      <trkpt lon="-4.153604" lat="53.008614"><ele>645.729919</ele><time>2021-07-17T12:22:03Z</time><extensions><speed>0.011491</speed><course>240.875916</course><hAcc>0.913965</hAcc><vAcc>0.749142</vAcc></extensions></trkpt>
      <trkpt lon="-4.153604" lat="53.008614"><ele>645.743408</ele><time>2021-07-17T12:22:04Z</time><extensions><speed>0.010561</speed><course>240.875916</course><hAcc>0.914489</hAcc><vAcc>0.750255</vAcc></extensions></trkpt>
      <trkpt lon="-4.153604" lat="53.008614"><ele>645.753906</ele><time>2021-07-17T12:22:05Z</time><extensions><speed>0.008982</speed><course>240.875916</course><hAcc>0.914468</hAcc><vAcc>0.751164</vAcc></extensions></trkpt>
      <trkpt lon="-4.153604" lat="53.008614"><ele>645.760254</ele><time>2021-07-17T12:22:06Z</time><extensions><speed>0.006588</speed><course>240.875916</course><hAcc>0.913977</hAcc><vAcc>0.751689</vAcc></extensions></trkpt>
      <trkpt lon="-4.153604" lat="53.008614"><ele>645.760986</ele><time>2021-07-17T12:22:07Z</time><extensions><speed>0.003259</speed><course>240.875916</course><hAcc>0.913242</hAcc><vAcc>0.751862</vAcc></extensions></trkpt>
      <trkpt lon="-4.153604" lat="53.008614"><ele>645.754517</ele><time>2021-07-17T12:22:08Z</time><extensions><speed>0.001996</speed><course>269.430084</course><hAcc>0.912515</hAcc><vAcc>0.751803</vAcc></extensions></trkpt>
      <trkpt lon="-4.153604" lat="53.008614"><ele>645.738831</ele><time>2021-07-17T12:22:09Z</time><extensions><speed>0.007783</speed><course>274.056000</course><hAcc>0.912002</hAcc><vAcc>0.751639</vAcc></extensions></trkpt>
      <trkpt lon="-4.153604" lat="53.008614"><ele>645.711853</ele><time>2021-07-17T12:22:10Z</time><extensions><speed>0.015431</speed><course>273.580658</course><hAcc>0.911828</hAcc><vAcc>0.751458</vAcc></extensions></trkpt>
      <trkpt lon="-4.153604" lat="53.008614"><ele>645.671143</ele><time>2021-07-17T12:22:11Z</time><extensions><speed>0.024902</speed><course>266.285736</course><hAcc>0.912018</hAcc><vAcc>0.751288</vAcc></extensions></trkpt>
      <trkpt lon="-4.153604" lat="53.008614"><ele>645.614136</ele><time>2021-07-17T12:22:12Z</time><extensions><speed>0.036328</speed><course>280.416809</course><hAcc>0.912500</hAcc><vAcc>0.751093</vAcc></extensions></trkpt>
      <trkpt lon="-4.153604" lat="53.008615"><ele>645.538086</ele><time>2021-07-17T12:22:13Z</time><extensions><speed>0.049813</speed><course>289.633057</course><hAcc>0.913123</hAcc><vAcc>0.750797</vAcc></extensions></trkpt>
      <trkpt lon="-4.153604" lat="53.008615"><ele>645.440369</ele><time>2021-07-17T12:22:14Z</time><extensions><speed>0.065401</speed><course>274.042023</course><hAcc>0.913692</hAcc><vAcc>0.750330</vAcc></extensions></trkpt>
      <trkpt lon="-4.153604" lat="53.008616"><ele>645.318176</ele><time>2021-07-17T12:22:15Z</time><extensions><speed>0.083051</speed><course>259.398621</course><hAcc>0.914034</hAcc><vAcc>0.749702</vAcc></extensions></trkpt>
      <trkpt lon="-4.153603" lat="53.008617"><ele>645.169128</ele><time>2021-07-17T12:22:16Z</time><extensions><speed>0.102611</speed><course>235.228027</course><hAcc>0.914109</hAcc><vAcc>0.749112</vAcc></extensions></trkpt>
      <trkpt lon="-4.153603" lat="53.008618"><ele>644.990967</ele><time>2021-07-17T12:22:17Z</time><extensions><speed>0.123789</speed><course>233.943741</course><hAcc>0.914183</hAcc><vAcc>0.749101</vAcc></extensions></trkpt>
      <trkpt lon="-4.153603" lat="53.008619"><ele>644.782227</ele><time>2021-07-17T12:22:18Z</time><extensions><speed>0.146124</speed><course>251.986771</course><hAcc>0.915083</hAcc><vAcc>0.750749</vAcc></extensions></trkpt>
      <trkpt lon="-4.153603" lat="53.008620"><ele>644.542053</ele><time>2021-07-17T12:22:19Z</time><extensions><speed>0.168952</speed><course>230.632401</course><hAcc>0.918551</hAcc><vAcc>0.755908</vAcc></extensions></trkpt>
      <trkpt lon="-4.153603" lat="53.008622"><ele>644.270874</ele><time>2021-07-17T12:22:20Z</time><extensions><speed>0.191372</speed><course>208.539734</course><hAcc>0.927664</hAcc><vAcc>0.767409</vAcc></extensions></trkpt>
      <trkpt lon="-4.153603" lat="53.008624"><ele>643.970459</ele><time>2021-07-17T12:22:21Z</time><extensions><speed>0.212210</speed><course>217.062653</course><hAcc>0.947216</hAcc><vAcc>0.789154</vAcc></extensions></trkpt>
      <trkpt lon="-4.153604" lat="53.008626"><ele>643.644348</ele><time>2021-07-17T12:22:22Z</time><extensions><speed>0.229997</speed><course>216.480164</course><hAcc>0.983824</hAcc><vAcc>0.825927</vAcc></extensions></trkpt>
      <trkpt lon="-4.153605" lat="53.008628"><ele>643.290344</ele><time>2021-07-17T12:22:23Z</time><extensions><speed>0.288262</speed><course>207.637573</course><hAcc>0.944533</hAcc><vAcc>0.788410</vAcc></extensions></trkpt>
      <trkpt lon="-4.153607" lat="53.008630"><ele>642.934387</ele><time>2021-07-17T12:22:24Z</time><extensions><speed>0.283868</speed><course>199.781464</course><hAcc>0.924470</hAcc><vAcc>0.766545</vAcc></extensions></trkpt>
      <trkpt lon="-4.153609" lat="53.008632"><ele>642.603882</ele><time>2021-07-17T12:22:25Z</time><extensions><speed>0.279953</speed><course>204.898392</course><hAcc>0.915905</hAcc><vAcc>0.755635</vAcc></extensions></trkpt>
      <trkpt lon="-4.153612" lat="53.008634"><ele>642.302368</ele><time>2021-07-17T12:22:26Z</time><extensions><speed>0.277615</speed><course>218.988647</course><hAcc>0.913355</hAcc><vAcc>0.751310</vAcc></extensions></trkpt>
      <trkpt lon="-4.153615" lat="53.008636"><ele>642.031555</ele><time>2021-07-17T12:22:27Z</time><extensions><speed>0.277441</speed><course>240.875916</course><hAcc>0.913301</hAcc><vAcc>0.750395</vAcc></extensions></trkpt>
      <trkpt lon="-4.153618" lat="53.008638"><ele>641.792053</ele><time>2021-07-17T12:22:28Z</time><extensions><speed>0.279739</speed><course>240.875916</course><hAcc>0.913759</hAcc><vAcc>0.750822</vAcc></extensions></trkpt>
      <trkpt lon="-4.153622" lat="53.008639"><ele>641.583191</ele><time>2021-07-17T12:22:29Z</time><extensions><speed>0.284586</speed><course>240.875916</course><hAcc>0.913789</hAcc><vAcc>0.751388</vAcc></extensions></trkpt>
      <trkpt lon="-4.153626" lat="53.008640"><ele>641.403076</ele><time>2021-07-17T12:22:30Z</time><extensions><speed>0.291545</speed><course>240.875916</course><hAcc>0.913085</hAcc><vAcc>0.751502</vAcc></extensions></trkpt>
      <trkpt lon="-4.153630" lat="53.008641"><ele>641.249390</ele><time>2021-07-17T12:22:31Z</time><extensions><speed>0.299880</speed><course>240.875916</course><hAcc>0.911690</hAcc><vAcc>0.750973</vAcc></extensions></trkpt>
      <trkpt lon="-4.153634" lat="53.008642"><ele>641.119812</ele><time>2021-07-17T12:22:32Z</time><extensions><speed>0.308724</speed><course>240.875916</course><hAcc>0.909799</hAcc><vAcc>0.749839</vAcc></extensions></trkpt>
      <trkpt lon="-4.153639" lat="53.008642"><ele>641.011963</ele><time>2021-07-17T12:22:33Z</time><extensions><speed>0.317896</speed><course>269.430084</course><hAcc>0.907644</hAcc><vAcc>0.748255</vAcc></extensions></trkpt>
      <trkpt lon="-4.153643" lat="53.008643"><ele>640.922974</ele><time>2021-07-17T12:22:34Z</time><extensions><speed>0.327695</speed><course>274.056000</course><hAcc>0.905436</hAcc><vAcc>0.746410</vAcc></extensions></trkpt>
      <trkpt lon="-4.153648" lat="53.008643"><ele>640.849731</ele><time>2021-07-17T12:22:35Z</time><extensions><speed>0.337805</speed><course>273.580658</course><hAcc>0.903331</hAcc><vAcc>0.744486</vAcc></extensions></trkpt>
      <trkpt lon="-4.153653" lat="53.008644"><ele>640.788940</ele><time>2021-07-17T12:22:36Z</time><extensions><speed>0.347783</speed><course>266.285736</course><hAcc>0.901429</hAcc><vAcc>0.742629</vAcc></extensions></trkpt>
      <trkpt lon="-4.153658" lat="53.008644"><ele>640.736938</ele><time>2021-07-17T12:22:37Z</time><extensions><speed>0.357842</speed><course>280.416809</course><hAcc>0.899773</hAcc><vAcc>0.740935</vAcc></extensions></trkpt>
      <trkpt lon="-4.153664" lat="53.008645"><ele>640.691162</ele><time>2021-07-17T12:22:38Z</time><extensions><speed>0.368395</speed><course>289.633057</course><hAcc>0.898372</hAcc><vAcc>0.739437</vAcc></extensions></trkpt>
      <trkpt lon="-4.153669" lat="53.008645"><ele>640.650391</ele><time>2021-07-17T12:22:39Z</time><extensions><speed>0.379472</speed><course>274.042023</course><hAcc>0.897204</hAcc><vAcc>0.738109</vAcc></extensions></trkpt>
      <trkpt lon="-4.153675" lat="53.008646"><ele>640.614685</ele><time>2021-07-17T12:22:40Z</time><extensions><speed>0.390431</speed><course>259.398621</course><hAcc>0.896234</hAcc><vAcc>0.736895</vAcc></extensions></trkpt>
      <trkpt lon="-4.153681" lat="53.008646"><ele>640.584656</ele><time>2021-07-17T12:22:41Z</time><extensions><speed>0.400167</speed><course>235.228027</course><hAcc>0.895420</hAcc><vAcc>0.735718</vAcc></extensions></trkpt>
      <trkpt lon="-4.153687" lat="53.008646"><ele>640.561646</ele><time>2021-07-17T12:22:42Z</time><extensions><speed>0.407533</speed><course>233.943741</course><hAcc>0.894724</hAcc><vAcc>0.734500</vAcc></extensions></trkpt>
      <trkpt lon="-4.153693" lat="53.008647"><ele>640.548035</ele><time>2021-07-17T12:22:43Z</time><extensions><speed>0.411468</speed><course>251.986771</course><hAcc>0.894112</hAcc><vAcc>0.733172</vAcc></extensions></trkpt>
      <trkpt lon="-4.153699" lat="53.008647"><ele>640.545959</ele><time>2021-07-17T12:22:44Z</time><extensions><speed>0.411254</speed><course>230.632401</course><hAcc>0.893565</hAcc><vAcc>0.731688</vAcc></extensions></trkpt>
      <trkpt lon="-4.153705" lat="53.008647"><ele>640.555603</ele><time>2021-07-17T12:22:45Z</time><extensions><speed>0.407031</speed><course>208.539734</course><hAcc>0.893069</hAcc><vAcc>0.730039</vAcc></extensions></trkpt>
      <trkpt lon="-4.153711" lat="53.008647"><ele>640.574402</ele><time>2021-07-17T12:22:46Z</time><extensions><speed>0.399688</speed><course>217.062653</course><hAcc>0.892618</hAcc><vAcc>0.728271</vAcc></extensions></trkpt>
      <trkpt lon="-4.153717" lat="53.008647"><ele>640.597839</ele><time>2021-07-17T12:22:47Z</time><extensions><speed>0.390025</speed><course>216.480164</course><hAcc>0.892190</hAcc><vAcc>0.726465</vAcc></extensions></trkpt>
      <trkpt lon="-4.153723" lat="53.008647"><ele>640.620789</ele><time>2021-07-17T12:22:48Z</time><extensions><speed>0.379233</speed><course>215.204285</course><hAcc>0.891783</hAcc><vAcc>0.724741</vAcc></extensions></trkpt>
      <trkpt lon="-4.153728" lat="53.008647"><ele>640.638428</ele><time>2021-07-17T12:22:49Z</time><extensions><speed>0.368598</speed><course>192.608246</course><hAcc>0.891418</hAcc><vAcc>0.723220</vAcc></extensions></trkpt>
      <trkpt lon="-4.153734" lat="53.008647"><ele>640.646790</ele><time>2021-07-17T12:22:50Z</time><extensions><speed>0.358667</speed><course>196.818375</course><hAcc>0.891100</hAcc><vAcc>0.721986</vAcc></extensions></trkpt>
      <trkpt lon="-4.153739" lat="53.008647"><ele>640.643066</ele><time>2021-07-17T12:22:51Z</time><extensions><speed>0.349397</speed><course>200.564194</course><hAcc>0.890835</hAcc><vAcc>0.721087</vAcc></extensions></trkpt>
      <trkpt lon="-4.153744" lat="53.008646"><ele>640.625671</ele><time>2021-07-17T12:22:52Z</time><extensions><speed>0.340785</speed><course>224.718231</course><hAcc>0.890624</hAcc><vAcc>0.720528</vAcc></extensions></trkpt>
      <trkpt lon="-4.153749" lat="53.008646"><ele>640.594238</ele><time>2021-07-17T12:22:52Z</time><extensions><speed>0.333337</speed><course>228.969803</course><hAcc>0.890504</hAcc><vAcc>0.720304</vAcc></extensions></trkpt>
      <trkpt lon="-4.153754" lat="53.008646"><ele>640.549194</ele><time>2021-07-17T12:22:53Z</time><extensions><speed>0.327726</speed><course>250.366501</course><hAcc>0.890468</hAcc><vAcc>0.720365</vAcc></extensions></trkpt>
      <trkpt lon="-4.153759" lat="53.008646"><ele>640.492065</ele><time>2021-07-17T12:22:54Z</time><extensions><speed>0.324108</speed><course>-1.000000</course><hAcc>0.890475</hAcc><vAcc>0.720619</vAcc></extensions></trkpt>
      <trkpt lon="-4.153764" lat="53.008645"><ele>640.424622</ele><time>2021-07-17T12:22:55Z</time><extensions><speed>0.322015</speed><course>232.063629</course><hAcc>0.890516</hAcc><vAcc>0.720997</vAcc></extensions></trkpt>
      <trkpt lon="-4.153768" lat="53.008645"><ele>640.348938</ele><time>2021-07-17T12:22:56Z</time><extensions><speed>0.320827</speed><course>232.063614</course><hAcc>0.890581</hAcc><vAcc>0.721428</vAcc></extensions></trkpt>
      <trkpt lon="-4.153773" lat="53.008645"><ele>640.267212</ele><time>2021-07-17T12:22:57Z</time><extensions><speed>0.319734</speed><course>232.063614</course><hAcc>0.890661</hAcc><vAcc>0.721848</vAcc></extensions></trkpt>
      <trkpt lon="-4.153778" lat="53.008645"><ele>640.181824</ele><time>2021-07-17T12:22:58Z</time><extensions><speed>0.317812</speed><course>232.063599</course><hAcc>0.890751</hAcc><vAcc>0.722210</vAcc></extensions></trkpt>
      <trkpt lon="-4.153783" lat="53.008645"><ele>640.094971</ele><time>2021-07-17T12:22:59Z</time><extensions><speed>0.313790</speed><course>232.063599</course><hAcc>0.890846</hAcc><vAcc>0.722489</vAcc></extensions></trkpt>
      <trkpt lon="-4.153787" lat="53.008645"><ele>640.008301</ele><time>2021-07-17T12:23:00Z</time><extensions><speed>0.307539</speed><course>232.063583</course><hAcc>0.890945</hAcc><vAcc>0.722685</vAcc></extensions></trkpt>
      <trkpt lon="-4.153792" lat="53.008645"><ele>639.922119</ele><time>2021-07-17T12:23:01Z</time><extensions><speed>0.299918</speed><course>232.063583</course><hAcc>0.891050</hAcc><vAcc>0.722827</vAcc></extensions></trkpt>
      <trkpt lon="-4.153796" lat="53.008645"><ele>639.836121</ele><time>2021-07-17T12:23:02Z</time><extensions><speed>0.290489</speed><course>248.555511</course><hAcc>0.891164</hAcc><vAcc>0.722961</vAcc></extensions></trkpt>
      <trkpt lon="-4.153800" lat="53.008645"><ele>639.749329</ele><time>2021-07-17T12:23:03Z</time><extensions><speed>0.278390</speed><course>214.727661</course><hAcc>0.891292</hAcc><vAcc>0.723154</vAcc></extensions></trkpt>
      <trkpt lon="-4.153804" lat="53.008645"><ele>639.660767</ele><time>2021-07-17T12:23:04Z</time><extensions><speed>0.263644</speed><course>215.656113</course><hAcc>0.891438</hAcc><vAcc>0.723467</vAcc></extensions></trkpt>
      <trkpt lon="-4.153808" lat="53.008645"><ele>639.569458</ele><time>2021-07-17T12:23:05Z</time><extensions><speed>0.247178</speed><course>205.637772</course><hAcc>0.891609</hAcc><vAcc>0.723938</vAcc></extensions></trkpt>
      <trkpt lon="-4.153812" lat="53.008646"><ele>639.474487</ele><time>2021-07-17T12:23:06Z</time><extensions><speed>0.230494</speed><course>201.575424</course><hAcc>0.891812</hAcc><vAcc>0.724578</vAcc></extensions></trkpt>
      <trkpt lon="-4.153815" lat="53.008646"><ele>639.374939</ele><time>2021-07-17T12:23:07Z</time><extensions><speed>0.214974</speed><course>196.854248</course><hAcc>0.892049</hAcc><vAcc>0.725375</vAcc></extensions></trkpt>
      <trkpt lon="-4.153818" lat="53.008646"><ele>639.269958</ele><time>2021-07-17T12:23:08Z</time><extensions><speed>0.201329</speed><course>198.264053</course><hAcc>0.892324</hAcc><vAcc>0.726314</vAcc></extensions></trkpt>
      <trkpt lon="-4.153821" lat="53.008647"><ele>639.158813</ele><time>2021-07-17T12:23:09Z</time><extensions><speed>0.189824</speed><course>198.636932</course><hAcc>0.892631</hAcc><vAcc>0.727381</vAcc></extensions></trkpt>
      <trkpt lon="-4.153823" lat="53.008647"><ele>639.041321</ele><time>2021-07-17T12:23:10Z</time><extensions><speed>0.180556</speed><course>192.727798</course><hAcc>0.892966</hAcc><vAcc>0.728557</vAcc></extensions></trkpt>
      <trkpt lon="-4.153826" lat="53.008648"><ele>638.917542</ele><time>2021-07-17T12:23:11Z</time><extensions><speed>0.173079</speed><course>184.691818</course><hAcc>0.893322</hAcc><vAcc>0.729816</vAcc></extensions></trkpt>
      <trkpt lon="-4.153828" lat="53.008648"><ele>638.787964</ele><time>2021-07-17T12:23:12Z</time><extensions><speed>0.167328</speed><course>177.917740</course><hAcc>0.893688</hAcc><vAcc>0.731125</vAcc></extensions></trkpt>
      <trkpt lon="-4.153831" lat="53.008649"><ele>638.653442</ele><time>2021-07-17T12:23:13Z</time><extensions><speed>0.163098</speed><course>169.935883</course><hAcc>0.894055</hAcc><vAcc>0.732445</vAcc></extensions></trkpt>
      <trkpt lon="-4.153833" lat="53.008649"><ele>638.514893</ele><time>2021-07-17T12:23:14Z</time><extensions><speed>0.159576</speed><course>168.290512</course><hAcc>0.894413</hAcc><vAcc>0.733735</vAcc></extensions></trkpt>
      <trkpt lon="-4.153835" lat="53.008650"><ele>638.373474</ele><time>2021-07-17T12:23:15Z</time><extensions><speed>0.156436</speed><course>175.847488</course><hAcc>0.894748</hAcc><vAcc>0.734953</vAcc></extensions></trkpt>
      <trkpt lon="-4.153837" lat="53.008650"><ele>638.230591</ele><time>2021-07-17T12:23:16Z</time><extensions><speed>0.153627</speed><course>182.489380</course><hAcc>0.895050</hAcc><vAcc>0.736060</vAcc></extensions></trkpt>
      <trkpt lon="-4.153839" lat="53.008651"><ele>638.087708</ele><time>2021-07-17T12:23:17Z</time><extensions><speed>0.151107</speed><course>193.224472</course><hAcc>0.895307</hAcc><vAcc>0.737017</vAcc></extensions></trkpt>
      <trkpt lon="-4.153841" lat="53.008651"><ele>637.946472</ele><time>2021-07-17T12:23:18Z</time><extensions><speed>0.149117</speed><course>210.457108</course><hAcc>0.895506</hAcc><vAcc>0.737790</vAcc></extensions></trkpt>
      <trkpt lon="-4.153843" lat="53.008652"><ele>637.808411</ele><time>2021-07-17T12:23:19Z</time><extensions><speed>0.148066</speed><course>227.054108</course><hAcc>0.895639</hAcc><vAcc>0.738346</vAcc></extensions></trkpt>
      <trkpt lon="-4.153845" lat="53.008652"><ele>637.675110</ele><time>2021-07-17T12:23:20Z</time><extensions><speed>0.148001</speed><course>247.666534</course><hAcc>0.895697</hAcc><vAcc>0.738658</vAcc></extensions></trkpt>
      <trkpt lon="-4.153847" lat="53.008653"><ele>637.548096</ele><time>2021-07-17T12:23:21Z</time><extensions><speed>0.149019</speed><course>261.197876</course><hAcc>0.895674</hAcc><vAcc>0.738703</vAcc></extensions></trkpt>
      <trkpt lon="-4.153850" lat="53.008653"><ele>637.428589</ele><time>2021-07-17T12:23:22Z</time><extensions><speed>0.151050</speed><course>263.217255</course><hAcc>0.895570</hAcc><vAcc>0.738463</vAcc></extensions></trkpt>
      <trkpt lon="-4.153852" lat="53.008654"><ele>637.317688</ele><time>2021-07-17T12:23:23Z</time><extensions><speed>0.153602</speed><course>271.463165</course><hAcc>0.895388</hAcc><vAcc>0.737925</vAcc></extensions></trkpt>
      <trkpt lon="-4.153854" lat="53.008655"><ele>637.215759</ele><time>2021-07-17T12:23:25Z</time><extensions><speed>0.156060</speed><course>281.991608</course><hAcc>0.895121</hAcc><vAcc>0.737069</vAcc></extensions></trkpt>
      <trkpt lon="-4.153856" lat="53.008655"><ele>637.123108</ele><time>2021-07-17T12:23:26Z</time><extensions><speed>0.158083</speed><course>285.895782</course><hAcc>0.894781</hAcc><vAcc>0.735902</vAcc></extensions></trkpt>
      <trkpt lon="-4.153858" lat="53.008656"><ele>637.039490</ele><time>2021-07-17T12:23:27Z</time><extensions><speed>0.159806</speed><course>287.327179</course><hAcc>0.894402</hAcc><vAcc>0.734468</vAcc></extensions></trkpt>
      <trkpt lon="-4.153860" lat="53.008656"><ele>636.964478</ele><time>2021-07-17T12:23:28Z</time><extensions><speed>0.161467</speed><course>297.396240</course><hAcc>0.893994</hAcc><vAcc>0.732830</vAcc></extensions></trkpt>
      <trkpt lon="-4.153862" lat="53.008657"><ele>636.897461</ele><time>2021-07-17T12:23:29Z</time><extensions><speed>0.163600</speed><course>299.473175</course><hAcc>0.893568</hAcc><vAcc>0.731085</vAcc></extensions></trkpt>
      <trkpt lon="-4.153864" lat="53.008658"><ele>636.837830</ele><time>2021-07-17T12:23:30Z</time><extensions><speed>0.166708</speed><course>297.683289</course><hAcc>0.893131</hAcc><vAcc>0.729331</vAcc></extensions></trkpt>
      <trkpt lon="-4.153867" lat="53.008659"><ele>636.785522</ele><time>2021-07-17T12:23:31Z</time><extensions><speed>0.171845</speed><course>292.365356</course><hAcc>0.892697</hAcc><vAcc>0.727653</vAcc></extensions></trkpt>
      <trkpt lon="-4.153869" lat="53.008659"><ele>636.740234</ele><time>2021-07-17T12:23:32Z</time><extensions><speed>0.180586</speed><course>291.092651</course><hAcc>0.892279</hAcc><vAcc>0.726109</vAcc></extensions></trkpt>
      <trkpt lon="-4.153872" lat="53.008660"><ele>636.700928</ele><time>2021-07-17T12:23:33Z</time><extensions><speed>0.194110</speed><course>297.007721</course><hAcc>0.891890</hAcc><vAcc>0.724739</vAcc></extensions></trkpt>
      <trkpt lon="-4.153874" lat="53.008660"><ele>636.665955</ele><time>2021-07-17T12:23:34Z</time><extensions><speed>0.213611</speed><course>291.539093</course><hAcc>0.891541</hAcc><vAcc>0.723563</vAcc></extensions></trkpt>
      <trkpt lon="-4.153878" lat="53.008661"><ele>636.633484</ele><time>2021-07-17T12:23:35Z</time><extensions><speed>0.240022</speed><course>293.314819</course><hAcc>0.891240</hAcc><vAcc>0.722595</vAcc></extensions></trkpt>
      <trkpt lon="-4.153882" lat="53.008661"><ele>636.601746</ele><time>2021-07-17T12:23:36Z</time><extensions><speed>0.273265</speed><course>297.043213</course><hAcc>0.890992</hAcc><vAcc>0.721834</vAcc></extensions></trkpt>
      <trkpt lon="-4.153886" lat="53.008661"><ele>636.569092</ele><time>2021-07-17T12:23:37Z</time><extensions><speed>0.312411</speed><course>301.573547</course><hAcc>0.890798</hAcc><vAcc>0.721273</vAcc></extensions></trkpt>
      <trkpt lon="-4.153891" lat="53.008661"><ele>636.534363</ele><time>2021-07-17T12:23:38Z</time><extensions><speed>0.355856</speed><course>305.542847</course><hAcc>0.890656</hAcc><vAcc>0.720897</vAcc></extensions></trkpt>
      <trkpt lon="-4.153897" lat="53.008661"><ele>636.496155</ele><time>2021-07-17T12:23:39Z</time><extensions><speed>0.401698</speed><course>304.461029</course><hAcc>0.890564</hAcc><vAcc>0.720683</vAcc></extensions></trkpt>
      <trkpt lon="-4.153903" lat="53.008661"><ele>636.453369</ele><time>2021-07-17T12:23:40Z</time><extensions><speed>0.448186</speed><course>304.519958</course><hAcc>0.890516</hAcc><vAcc>0.720609</vAcc></extensions></trkpt>
      <trkpt lon="-4.153910" lat="53.008660"><ele>636.405029</ele><time>2021-07-17T12:23:41Z</time><extensions><speed>0.493624</speed><course>306.835541</course><hAcc>0.890505</hAcc><vAcc>0.720649</vAcc></extensions></trkpt>
      <trkpt lon="-4.153917" lat="53.008659"><ele>636.350159</ele><time>2021-07-17T12:23:42Z</time><extensions><speed>0.536721</speed><course>312.924469</course><hAcc>0.890523</hAcc><vAcc>0.720780</vAcc></extensions></trkpt>
      <trkpt lon="-4.153926" lat="53.008659"><ele>636.287964</ele><time>2021-07-17T12:23:43Z</time><extensions><speed>0.576103</speed><course>313.121582</course><hAcc>0.890563</hAcc><vAcc>0.720978</vAcc></extensions></trkpt>
      <trkpt lon="-4.153934" lat="53.008658"><ele>636.217712</ele><time>2021-07-17T12:23:44Z</time><extensions><speed>0.610249</speed><course>312.363678</course><hAcc>0.890618</hAcc><vAcc>0.721222</vAcc></extensions></trkpt>
      <trkpt lon="-4.153944" lat="53.008657"><ele>636.138611</ele><time>2021-07-17T12:23:45Z</time><extensions><speed>0.637896</speed><course>309.905548</course><hAcc>0.890681</hAcc><vAcc>0.721491</vAcc></extensions></trkpt>
      <trkpt lon="-4.153953" lat="53.008656"><ele>636.049988</ele><time>2021-07-17T12:23:46Z</time><extensions><speed>0.658561</speed><course>308.597687</course><hAcc>0.890744</hAcc><vAcc>0.721766</vAcc></extensions></trkpt>
      <trkpt lon="-4.153963" lat="53.008656"><ele>635.951660</ele><time>2021-07-17T12:23:47Z</time><extensions><speed>0.672486</speed><course>307.103394</course><hAcc>0.890804</hAcc><vAcc>0.722022</vAcc></extensions></trkpt>
      <trkpt lon="-4.153973" lat="53.008655"><ele>635.843811</ele><time>2021-07-17T12:23:48Z</time><extensions><speed>0.679701</speed><course>306.897400</course><hAcc>0.890856</hAcc><vAcc>0.722239</vAcc></extensions></trkpt>
      <trkpt lon="-4.153983" lat="53.008655"><ele>635.726624</ele><time>2021-07-17T12:23:49Z</time><extensions><speed>0.680349</speed><course>302.152618</course><hAcc>0.890900</hAcc><vAcc>0.722396</vAcc></extensions></trkpt>
      <trkpt lon="-4.153993" lat="53.008654"><ele>635.600159</ele><time>2021-07-17T12:23:50Z</time><extensions><speed>0.675078</speed><course>297.726410</course><hAcc>0.890933</hAcc><vAcc>0.722485</vAcc></extensions></trkpt>
      <trkpt lon="-4.154003" lat="53.008654"><ele>635.464417</ele><time>2021-07-17T12:23:51Z</time><extensions><speed>0.664698</speed><course>300.194183</course><hAcc>0.890954</hAcc><vAcc>0.722512</vAcc></extensions></trkpt>
      <trkpt lon="-4.154013" lat="53.008654"><ele>635.319580</ele><time>2021-07-17T12:23:52Z</time><extensions><speed>0.650156</speed><course>297.151825</course><hAcc>0.890963</hAcc><vAcc>0.722490</vAcc></extensions></trkpt>
      <trkpt lon="-4.154023" lat="53.008654"><ele>635.165833</ele><time>2021-07-17T12:23:53Z</time><extensions><speed>0.632674</speed><course>298.399384</course><hAcc>0.890960</hAcc><vAcc>0.722434</vAcc></extensions></trkpt>
      <trkpt lon="-4.154032" lat="53.008655"><ele>635.003723</ele><time>2021-07-17T12:23:54Z</time><extensions><speed>0.613558</speed><course>300.837921</course><hAcc>0.890946</hAcc><vAcc>0.722356</vAcc></extensions></trkpt>
      <trkpt lon="-4.154041" lat="53.008655"><ele>634.834473</ele><time>2021-07-17T12:23:55Z</time><extensions><speed>0.593967</speed><course>299.844330</course><hAcc>0.890925</hAcc><vAcc>0.722265</vAcc></extensions></trkpt>
      <trkpt lon="-4.154049" lat="53.008656"><ele>634.659607</ele><time>2021-07-17T12:23:56Z</time><extensions><speed>0.574866</speed><course>300.001373</course><hAcc>0.890898</hAcc><vAcc>0.722170</vAcc></extensions></trkpt>
      <trkpt lon="-4.154058" lat="53.008656"><ele>634.480835</ele><time>2021-07-17T12:23:57Z</time><extensions><speed>0.557297</speed><course>294.568817</course><hAcc>0.890870</hAcc><vAcc>0.722074</vAcc></extensions></trkpt>
      <trkpt lon="-4.154066" lat="53.008657"><ele>634.299988</ele><time>2021-07-17T12:23:58Z</time><extensions><speed>0.542006</speed><course>300.687103</course><hAcc>0.890843</hAcc><vAcc>0.721980</vAcc></extensions></trkpt>
      <trkpt lon="-4.154074" lat="53.008659"><ele>634.119202</ele><time>2021-07-17T12:23:59Z</time><extensions><speed>0.529143</speed><course>297.691925</course><hAcc>0.890823</hAcc><vAcc>0.721887</vAcc></extensions></trkpt>
      <trkpt lon="-4.154081" lat="53.008660"><ele>633.940613</ele><time>2021-07-17T12:24:00Z</time><extensions><speed>0.518771</speed><course>293.928223</course><hAcc>0.890811</hAcc><vAcc>0.721803</vAcc></extensions></trkpt>
      <trkpt lon="-4.154088" lat="53.008661"><ele>633.766113</ele><time>2021-07-17T12:24:01Z</time><extensions><speed>0.511364</speed><course>297.041656</course><hAcc>0.890811</hAcc><vAcc>0.721740</vAcc></extensions></trkpt>
      <trkpt lon="-4.154095" lat="53.008663"><ele>633.596863</ele><time>2021-07-17T12:24:02Z</time><extensions><speed>0.507550</speed><course>298.722290</course><hAcc>0.890823</hAcc><vAcc>0.721718</vAcc></extensions></trkpt>
      <trkpt lon="-4.154102" lat="53.008665"><ele>633.433289</ele><time>2021-07-17T12:24:03Z</time><extensions><speed>0.507200</speed><course>296.674316</course><hAcc>0.890846</hAcc><vAcc>0.721755</vAcc></extensions></trkpt>
      <trkpt lon="-4.154109" lat="53.008667"><ele>633.275085</ele><time>2021-07-17T12:24:04Z</time><extensions><speed>0.509837</speed><course>301.147156</course><hAcc>0.890878</hAcc><vAcc>0.721864</vAcc></extensions></trkpt>
      <trkpt lon="-4.154116" lat="53.008669"><ele>633.120544</ele><time>2021-07-17T12:24:05Z</time><extensions><speed>0.515510</speed><course>301.618805</course><hAcc>0.890919</hAcc><vAcc>0.722046</vAcc></extensions></trkpt>
      <trkpt lon="-4.154123" lat="53.008671"><ele>632.967712</ele><time>2021-07-17T12:24:06Z</time><extensions><speed>0.524057</speed><course>300.678009</course><hAcc>0.890964</hAcc><vAcc>0.722287</vAcc></extensions></trkpt>
      <trkpt lon="-4.154130" lat="53.008673"><ele>632.814819</ele><time>2021-07-17T12:24:07Z</time><extensions><speed>0.534364</speed><course>306.078644</course><hAcc>0.891011</hAcc><vAcc>0.722561</vAcc></extensions></trkpt>
      <trkpt lon="-4.154137" lat="53.008675"><ele>632.660278</ele><time>2021-07-17T12:24:08Z</time><extensions><speed>0.544899</speed><course>302.099213</course><hAcc>0.891056</hAcc><vAcc>0.722831</vAcc></extensions></trkpt>
      <trkpt lon="-4.154144" lat="53.008678"><ele>632.503235</ele><time>2021-07-17T12:24:09Z</time><extensions><speed>0.554556</speed><course>298.253754</course><hAcc>0.891097</hAcc><vAcc>0.723060</vAcc></extensions></trkpt>
      <trkpt lon="-4.154151" lat="53.008680"><ele>632.343079</ele><time>2021-07-17T12:24:10Z</time><extensions><speed>0.563093</speed><course>299.772583</course><hAcc>0.891131</hAcc><vAcc>0.723220</vAcc></extensions></trkpt>
      <trkpt lon="-4.154159" lat="53.008683"><ele>632.180176</ele><time>2021-07-17T12:24:11Z</time><extensions><speed>0.570792</speed><course>299.946075</course><hAcc>0.891153</hAcc><vAcc>0.723300</vAcc></extensions></trkpt>
      <trkpt lon="-4.154166" lat="53.008685"><ele>632.014771</ele><time>2021-07-17T12:24:12Z</time><extensions><speed>0.578329</speed><course>303.968170</course><hAcc>0.891161</hAcc><vAcc>0.723298</vAcc></extensions></trkpt>
      <trkpt lon="-4.154174" lat="53.008688"><ele>631.847107</ele><time>2021-07-17T12:24:13Z</time><extensions><speed>0.586430</speed><course>302.223755</course><hAcc>0.891154</hAcc><vAcc>0.723221</vAcc></extensions></trkpt>
      <trkpt lon="-4.154181" lat="53.008691"><ele>631.676636</ele><time>2021-07-17T12:24:14Z</time><extensions><speed>0.595559</speed><course>303.590851</course><hAcc>0.891131</hAcc><vAcc>0.723082</vAcc></extensions></trkpt>
      <trkpt lon="-4.154189" lat="53.008693"><ele>631.502625</ele><time>2021-07-17T12:24:15Z</time><extensions><speed>0.605906</speed><course>302.656281</course><hAcc>0.891094</hAcc><vAcc>0.722895</vAcc></extensions></trkpt>
      <trkpt lon="-4.154197" lat="53.008696"><ele>631.324646</ele><time>2021-07-17T12:24:16Z</time><extensions><speed>0.617475</speed><course>307.857574</course><hAcc>0.891045</hAcc><vAcc>0.722677</vAcc></extensions></trkpt>
      <trkpt lon="-4.154204" lat="53.008699"><ele>631.142944</ele><time>2021-07-17T12:24:17Z</time><extensions><speed>0.629599</speed><course>306.241272</course><hAcc>0.890988</hAcc><vAcc>0.722445</vAcc></extensions></trkpt>
      <trkpt lon="-4.154212" lat="53.008703"><ele>630.957397</ele><time>2021-07-17T12:24:18Z</time><extensions><speed>0.641181</speed><course>302.560516</course><hAcc>0.890927</hAcc><vAcc>0.722211</vAcc></extensions></trkpt>
      <trkpt lon="-4.154220" lat="53.008706"><ele>630.767517</ele><time>2021-07-17T12:24:19Z</time><extensions><speed>0.651751</speed><course>304.207947</course><hAcc>0.890867</hAcc><vAcc>0.721987</vAcc></extensions></trkpt>
      <trkpt lon="-4.154228" lat="53.008709"><ele>630.573181</ele><time>2021-07-17T12:24:20Z</time><extensions><speed>0.661025</speed><course>304.678192</course><hAcc>0.890810</hAcc><vAcc>0.721780</vAcc></extensions></trkpt>
      <trkpt lon="-4.154237" lat="53.008712"><ele>630.374695</ele><time>2021-07-17T12:24:21Z</time><extensions><speed>0.668762</speed><course>300.816559</course><hAcc>0.890764</hAcc><vAcc>0.721598</vAcc></extensions></trkpt>
      <trkpt lon="-4.154245" lat="53.008716"><ele>630.172607</ele><time>2021-07-17T12:24:22Z</time><extensions><speed>0.674694</speed><course>302.457642</course><hAcc>0.890730</hAcc><vAcc>0.721447</vAcc></extensions></trkpt>
      <trkpt lon="-4.154253" lat="53.008719"><ele>629.967773</ele><time>2021-07-17T12:24:23Z</time><extensions><speed>0.678786</speed><course>303.405792</course><hAcc>0.890714</hAcc><vAcc>0.721337</vAcc></extensions></trkpt>
      <trkpt lon="-4.154262" lat="53.008722"><ele>629.761658</ele><time>2021-07-17T12:24:24Z</time><extensions><speed>0.681141</speed><course>305.179382</course><hAcc>0.890716</hAcc><vAcc>0.721281</vAcc></extensions></trkpt>
      <trkpt lon="-4.154271" lat="53.008726"><ele>629.555542</ele><time>2021-07-17T12:24:25Z</time><extensions><speed>0.681760</speed><course>301.811188</course><hAcc>0.890739</hAcc><vAcc>0.721292</vAcc></extensions></trkpt>
      <trkpt lon="-4.154279" lat="53.008729"><ele>629.350647</ele><time>2021-07-17T12:24:26Z</time><extensions><speed>0.680876</speed><course>294.111877</course><hAcc>0.890783</hAcc><vAcc>0.721379</vAcc></extensions></trkpt>
      <trkpt lon="-4.154288" lat="53.008732"><ele>629.148132</ele><time>2021-07-17T12:24:27Z</time><extensions><speed>0.679040</speed><course>291.186249</course><hAcc>0.890828</hAcc><vAcc>0.721536</vAcc></extensions></trkpt>
      <trkpt lon="-4.154297" lat="53.008735"><ele>628.949707</ele><time>2021-07-17T12:24:28Z</time><extensions><speed>0.676860</speed><course>291.833313</course><hAcc>0.890872</hAcc><vAcc>0.721759</vAcc></extensions></trkpt>
      <trkpt lon="-4.154306" lat="53.008738"><ele>628.755859</ele><time>2021-07-17T12:24:29Z</time><extensions><speed>0.674358</speed><course>293.198639</course><hAcc>0.890928</hAcc><vAcc>0.722049</vAcc></extensions></trkpt>
      <trkpt lon="-4.154315" lat="53.008740"><ele>628.566833</ele><time>2021-07-17T12:24:30Z</time><extensions><speed>0.671107</speed><course>297.953094</course><hAcc>0.890989</hAcc><vAcc>0.722384</vAcc></extensions></trkpt>
      <trkpt lon="-4.154324" lat="53.008743"><ele>628.382446</ele><time>2021-07-17T12:24:31Z</time><extensions><speed>0.666714</speed><course>294.998413</course><hAcc>0.891052</hAcc><vAcc>0.722730</vAcc></extensions></trkpt>
      <trkpt lon="-4.154333" lat="53.008745"><ele>628.202332</ele><time>2021-07-17T12:24:32Z</time><extensions><speed>0.661383</speed><course>290.333923</course><hAcc>0.891110</hAcc><vAcc>0.723052</vAcc></extensions></trkpt>
      <trkpt lon="-4.154342" lat="53.008748"><ele>628.025696</ele><time>2021-07-17T12:24:33Z</time><extensions><speed>0.655993</speed><course>297.336884</course><hAcc>0.891159</hAcc><vAcc>0.723315</vAcc></extensions></trkpt>
      <trkpt lon="-4.154350" lat="53.008750"><ele>627.851562</ele><time>2021-07-17T12:24:34Z</time><extensions><speed>0.651567</speed><course>291.763641</course><hAcc>0.891196</hAcc><vAcc>0.723492</vAcc></extensions></trkpt>
      <trkpt lon="-4.154359" lat="53.008753"><ele>627.679199</ele><time>2021-07-17T12:24:35Z</time><extensions><speed>0.649123</speed><course>293.588959</course><hAcc>0.891217</hAcc><vAcc>0.723571</vAcc></extensions></trkpt>
      <trkpt lon="-4.154367" lat="53.008756"><ele>627.507874</ele><time>2021-07-17T12:24:36Z</time><extensions><speed>0.649139</speed><course>298.534668</course><hAcc>0.891223</hAcc><vAcc>0.723550</vAcc></extensions></trkpt>
      <trkpt lon="-4.154376" lat="53.008759"><ele>627.337402</ele><time>2021-07-17T12:24:37Z</time><extensions><speed>0.651751</speed><course>294.834351</course><hAcc>0.891212</hAcc><vAcc>0.723438</vAcc></extensions></trkpt>
      <trkpt lon="-4.154384" lat="53.008762"><ele>627.167908</ele><time>2021-07-17T12:24:38Z</time><extensions><speed>0.657006</speed><course>297.698059</course><hAcc>0.891188</hAcc><vAcc>0.723254</vAcc></extensions></trkpt>
      <trkpt lon="-4.154393" lat="53.008765"><ele>626.999695</ele><time>2021-07-17T12:24:39Z</time><extensions><speed>0.665057</speed><course>298.511444</course><hAcc>0.891154</hAcc><vAcc>0.723025</vAcc></extensions></trkpt>
      <trkpt lon="-4.154401" lat="53.008768"><ele>626.833618</ele><time>2021-07-17T12:24:40Z</time><extensions><speed>0.676264</speed><course>303.054443</course><hAcc>0.891113</hAcc><vAcc>0.722783</vAcc></extensions></trkpt>
      <trkpt lon="-4.154410" lat="53.008771"><ele>626.670654</ele><time>2021-07-17T12:24:41Z</time><extensions><speed>0.690714</speed><course>300.594757</course><hAcc>0.891069</hAcc><vAcc>0.722555</vAcc></extensions></trkpt>
      <trkpt lon="-4.154420" lat="53.008774"><ele>626.510864</ele><time>2021-07-17T12:24:42Z</time><extensions><speed>0.708100</speed><course>303.489990</course><hAcc>0.891026</hAcc><vAcc>0.722366</vAcc></extensions></trkpt>
      <trkpt lon="-4.154429" lat="53.008777"><ele>626.353638</ele><time>2021-07-17T12:24:43Z</time><extensions><speed>0.727245</speed><course>307.296783</course><hAcc>0.890988</hAcc><vAcc>0.722230</vAcc></extensions></trkpt>
      <trkpt lon="-4.154439" lat="53.008779"><ele>626.198914</ele><time>2021-07-17T12:24:44Z</time><extensions><speed>0.746490</speed><course>306.846466</course><hAcc>0.890958</hAcc><vAcc>0.722152</vAcc></extensions></trkpt>
      <trkpt lon="-4.154449" lat="53.008782"><ele>626.046997</ele><time>2021-07-17T12:24:45Z</time><extensions><speed>0.764699</speed><course>314.303711</course><hAcc>0.890936</hAcc><vAcc>0.722128</vAcc></extensions></trkpt>
      <trkpt lon="-4.154460" lat="53.008785"><ele>625.897949</ele><time>2021-07-17T12:24:46Z</time><extensions><speed>0.781136</speed><course>316.753265</course><hAcc>0.890925</hAcc><vAcc>0.722148</vAcc></extensions></trkpt>
      <trkpt lon="-4.154471" lat="53.008787"><ele>625.751831</ele><time>2021-07-17T12:24:47Z</time><extensions><speed>0.795146</speed><course>312.101562</course><hAcc>0.890924</hAcc><vAcc>0.722199</vAcc></extensions></trkpt>
      <trkpt lon="-4.154482" lat="53.008789"><ele>625.608704</ele><time>2021-07-17T12:24:48Z</time><extensions><speed>0.806226</speed><course>310.983948</course><hAcc>0.890932</hAcc><vAcc>0.722269</vAcc></extensions></trkpt>
      <trkpt lon="-4.154494" lat="53.008792"><ele>625.468445</ele><time>2021-07-17T12:24:49Z</time><extensions><speed>0.814633</speed><course>316.824890</course><hAcc>0.890950</hAcc><vAcc>0.722346</vAcc></extensions></trkpt>
      <trkpt lon="-4.154506" lat="53.008794"><ele>625.330505</ele><time>2021-07-17T12:24:50Z</time><extensions><speed>0.820846</speed><course>324.005005</course><hAcc>0.890976</hAcc><vAcc>0.722428</vAcc></extensions></trkpt>
      <trkpt lon="-4.154517" lat="53.008796"><ele>625.193665</ele><time>2021-07-17T12:24:51Z</time><extensions><speed>0.824748</speed><course>322.091736</course><hAcc>0.891007</hAcc><vAcc>0.722517</vAcc></extensions></trkpt>
      <trkpt lon="-4.154529" lat="53.008798"><ele>625.056274</ele><time>2021-07-17T12:24:52Z</time><extensions><speed>0.826276</speed><course>322.830170</course><hAcc>0.891043</hAcc><vAcc>0.722617</vAcc></extensions></trkpt>
      <trkpt lon="-4.154541" lat="53.008800"><ele>624.915588</ele><time>2021-07-17T12:24:53Z</time><extensions><speed>0.825871</speed><course>325.823517</course><hAcc>0.891083</hAcc><vAcc>0.722735</vAcc></extensions></trkpt>
      <trkpt lon="-4.154553" lat="53.008802"><ele>624.768311</ele><time>2021-07-17T12:24:54Z</time><extensions><speed>0.824336</speed><course>331.853210</course><hAcc>0.891124</hAcc><vAcc>0.722878</vAcc></extensions></trkpt>
      <trkpt lon="-4.154565" lat="53.008804"><ele>624.610901</ele><time>2021-07-17T12:24:55Z</time><extensions><speed>0.822340</speed><course>331.260956</course><hAcc>0.891166</hAcc><vAcc>0.723044</vAcc></extensions></trkpt>
      <trkpt lon="-4.154576" lat="53.008806"><ele>624.440247</ele><time>2021-07-17T12:24:56Z</time><extensions><speed>0.820003</speed><course>329.072571</course><hAcc>0.891206</hAcc><vAcc>0.723229</vAcc></extensions></trkpt>
      <trkpt lon="-4.154588" lat="53.008808"><ele>624.254211</ele><time>2021-07-17T12:24:57Z</time><extensions><speed>0.817162</speed><course>325.473938</course><hAcc>0.891242</hAcc><vAcc>0.723426</vAcc></extensions></trkpt>
      <trkpt lon="-4.154599" lat="53.008811"><ele>624.053101</ele><time>2021-07-17T12:24:58Z</time><extensions><speed>0.813605</speed><course>325.383026</course><hAcc>0.891272</hAcc><vAcc>0.723624</vAcc></extensions></trkpt>
      <trkpt lon="-4.154611" lat="53.008813"><ele>623.840027</ele><time>2021-07-17T12:24:58Z</time><extensions><speed>0.809610</speed><course>325.061401</course><hAcc>0.891329</hAcc><vAcc>0.723836</vAcc></extensions></trkpt>
      <trkpt lon="-4.154622" lat="53.008816"><ele>623.617676</ele><time>2021-07-17T12:24:59Z</time><extensions><speed>0.805994</speed><course>325.207275</course><hAcc>0.891411</hAcc><vAcc>0.724054</vAcc></extensions></trkpt>
      <trkpt lon="-4.154633" lat="53.008819"><ele>623.390320</ele><time>2021-07-17T12:25:00Z</time><extensions><speed>0.803112</speed><course>322.410889</course><hAcc>0.891482</hAcc><vAcc>0.724248</vAcc></extensions></trkpt>
      <trkpt lon="-4.154644" lat="53.008822"><ele>623.161011</ele><time>2021-07-17T12:25:01Z</time><extensions><speed>0.801304</speed><course>319.218658</course><hAcc>0.891540</hAcc><vAcc>0.724413</vAcc></extensions></trkpt>
      <trkpt lon="-4.154654" lat="53.008825"><ele>622.931824</ele><time>2021-07-17T12:25:02Z</time><extensions><speed>0.801828</speed><course>319.790588</course><hAcc>0.891585</hAcc><vAcc>0.724545</vAcc></extensions></trkpt>
      <trkpt lon="-4.154664" lat="53.008829"><ele>622.704468</ele><time>2021-07-17T12:25:03Z</time><extensions><speed>0.805917</speed><course>318.972229</course><hAcc>0.891616</hAcc><vAcc>0.724641</vAcc></extensions></trkpt>
      <trkpt lon="-4.154674" lat="53.008833"><ele>622.480591</ele><time>2021-07-17T12:25:04Z</time><extensions><speed>0.814083</speed><course>320.354065</course><hAcc>0.891632</hAcc><vAcc>0.724695</vAcc></extensions></trkpt>
      <trkpt lon="-4.154683" lat="53.008838"><ele>622.261658</ele><time>2021-07-17T12:25:05Z</time><extensions><speed>0.826502</speed><course>320.541016</course><hAcc>0.891635</hAcc><vAcc>0.724702</vAcc></extensions></trkpt>
      <trkpt lon="-4.154693" lat="53.008843"><ele>622.049072</ele><time>2021-07-17T12:25:06Z</time><extensions><speed>0.842566</speed><course>317.906189</course><hAcc>0.891622</hAcc><vAcc>0.724659</vAcc></extensions></trkpt>
      <trkpt lon="-4.154701" lat="53.008849"><ele>621.844055</ele><time>2021-07-17T12:25:07Z</time><extensions><speed>0.860356</speed><course>316.077393</course><hAcc>0.891596</hAcc><vAcc>0.724567</vAcc></extensions></trkpt>
      <trkpt lon="-4.154710" lat="53.008855"><ele>621.646973</ele><time>2021-07-17T12:25:08Z</time><extensions><speed>0.877432</speed><course>307.356537</course><hAcc>0.891556</hAcc><vAcc>0.724429</vAcc></extensions></trkpt>
      <trkpt lon="-4.154718" lat="53.008861"><ele>621.456360</ele><time>2021-07-17T12:25:09Z</time><extensions><speed>0.891757</speed><course>302.004150</course><hAcc>0.891505</hAcc><vAcc>0.724246</vAcc></extensions></trkpt>
      <trkpt lon="-4.154725" lat="53.008868"><ele>621.269653</ele><time>2021-07-17T12:25:10Z</time><extensions><speed>0.901933</speed><course>310.520874</course><hAcc>0.891445</hAcc><vAcc>0.724023</vAcc></extensions></trkpt>
      <trkpt lon="-4.154733" lat="53.008874"><ele>621.083923</ele><time>2021-07-17T12:25:11Z</time><extensions><speed>0.907166</speed><course>307.778412</course><hAcc>0.891378</hAcc><vAcc>0.723768</vAcc></extensions></trkpt>
      <trkpt lon="-4.154739" lat="53.008882"><ele>620.896545</ele><time>2021-07-17T12:25:12Z</time><extensions><speed>0.907179</speed><course>310.132080</course><hAcc>0.891307</hAcc><vAcc>0.723495</vAcc></extensions></trkpt>
      <trkpt lon="-4.154745" lat="53.008889"><ele>620.705078</ele><time>2021-07-17T12:25:13Z</time><extensions><speed>0.902188</speed><course>310.327301</course><hAcc>0.891236</hAcc><vAcc>0.723216</vAcc></extensions></trkpt>
      <trkpt lon="-4.154750" lat="53.008896"><ele>620.507263</ele><time>2021-07-17T12:25:14Z</time><extensions><speed>0.892796</speed><course>308.925873</course><hAcc>0.891166</hAcc><vAcc>0.722946</vAcc></extensions></trkpt>
      <trkpt lon="-4.154755" lat="53.008904"><ele>620.301086</ele><time>2021-07-17T12:25:15Z</time><extensions><speed>0.879869</speed><course>308.955322</course><hAcc>0.891102</hAcc><vAcc>0.722698</vAcc></extensions></trkpt>
      <trkpt lon="-4.154758" lat="53.008911"><ele>620.085083</ele><time>2021-07-17T12:25:16Z</time><extensions><speed>0.864316</speed><course>303.152588</course><hAcc>0.891047</hAcc><vAcc>0.722482</vAcc></extensions></trkpt>
      <trkpt lon="-4.154761" lat="53.008919"><ele>619.858582</ele><time>2021-07-17T12:25:17Z</time><extensions><speed>0.846852</speed><course>313.156525</course><hAcc>0.891002</hAcc><vAcc>0.722310</vAcc></extensions></trkpt>
      <trkpt lon="-4.154762" lat="53.008926"><ele>619.621826</ele><time>2021-07-17T12:25:18Z</time><extensions><speed>0.828176</speed><course>307.864197</course><hAcc>0.890969</hAcc><vAcc>0.722189</vAcc></extensions></trkpt>
      <trkpt lon="-4.154763" lat="53.008934"><ele>619.375427</ele><time>2021-07-17T12:25:19Z</time><extensions><speed>0.808868</speed><course>309.541687</course><hAcc>0.890948</hAcc><vAcc>0.722123</vAcc></extensions></trkpt>
      <trkpt lon="-4.154763" lat="53.008941"><ele>619.120911</ele><time>2021-07-17T12:25:20Z</time><extensions><speed>0.788987</speed><course>312.130341</course><hAcc>0.890940</hAcc><vAcc>0.722114</vAcc></extensions></trkpt>
      <trkpt lon="-4.154762" lat="53.008948"><ele>618.860168</ele><time>2021-07-17T12:25:21Z</time><extensions><speed>0.768540</speed><course>310.268982</course><hAcc>0.890943</hAcc><vAcc>0.722157</vAcc></extensions></trkpt>
      <trkpt lon="-4.154760" lat="53.008955"><ele>618.594910</ele><time>2021-07-17T12:25:22Z</time><extensions><speed>0.747720</speed><course>308.247070</course><hAcc>0.890955</hAcc><vAcc>0.722242</vAcc></extensions></trkpt>
      <trkpt lon="-4.154759" lat="53.008961"><ele>618.327271</ele><time>2021-07-17T12:25:23Z</time><extensions><speed>0.726879</speed><course>304.229858</course><hAcc>0.890974</hAcc><vAcc>0.722357</vAcc></extensions></trkpt>
      <trkpt lon="-4.154756" lat="53.008967"><ele>618.059265</ele><time>2021-07-17T12:25:24Z</time><extensions><speed>0.706577</speed><course>308.310059</course><hAcc>0.890996</hAcc><vAcc>0.722482</vAcc></extensions></trkpt>
      <trkpt lon="-4.154754" lat="53.008973"><ele>617.793396</ele><time>2021-07-17T12:25:25Z</time><extensions><speed>0.687273</speed><course>311.142822</course><hAcc>0.891018</hAcc><vAcc>0.722602</vAcc></extensions></trkpt>
      <trkpt lon="-4.154751" lat="53.008979"><ele>617.531799</ele><time>2021-07-17T12:25:26Z</time><extensions><speed>0.669083</speed><course>305.518036</course><hAcc>0.891037</hAcc><vAcc>0.722705</vAcc></extensions></trkpt>
      <trkpt lon="-4.154747" lat="53.008985"><ele>617.276245</ele><time>2021-07-17T12:25:27Z</time><extensions><speed>0.651858</speed><course>303.061462</course><hAcc>0.891048</hAcc><vAcc>0.722779</vAcc></extensions></trkpt>
      <trkpt lon="-4.154744" lat="53.008990"><ele>617.027344</ele><time>2021-07-17T12:25:28Z</time><extensions><speed>0.635500</speed><course>298.232086</course><hAcc>0.891049</hAcc><vAcc>0.722814</vAcc></extensions></trkpt>
      <trkpt lon="-4.154741" lat="53.008995"><ele>616.785583</ele><time>2021-07-17T12:25:29Z</time><extensions><speed>0.619446</speed><course>289.358276</course><hAcc>0.891037</hAcc><vAcc>0.722800</vAcc></extensions></trkpt>
      <trkpt lon="-4.154737" lat="53.009001"><ele>616.551453</ele><time>2021-07-17T12:25:30Z</time><extensions><speed>0.602789</speed><course>285.924469</course><hAcc>0.891010</hAcc><vAcc>0.722730</vAcc></extensions></trkpt>
      <trkpt lon="-4.154734" lat="53.009005"><ele>616.325500</ele><time>2021-07-17T12:25:31Z</time><extensions><speed>0.584944</speed><course>280.520447</course><hAcc>0.890968</hAcc><vAcc>0.722598</vAcc></extensions></trkpt>
      <trkpt lon="-4.154730" lat="53.009010"><ele>616.107666</ele><time>2021-07-17T12:25:32Z</time><extensions><speed>0.565664</speed><course>286.862061</course><hAcc>0.890912</hAcc><vAcc>0.722402</vAcc></extensions></trkpt>
      <trkpt lon="-4.154728" lat="53.009015"><ele>615.897766</ele><time>2021-07-17T12:25:33Z</time><extensions><speed>0.545310</speed><course>295.700317</course><hAcc>0.890843</hAcc><vAcc>0.722148</vAcc></extensions></trkpt>
      <trkpt lon="-4.154725" lat="53.009020"><ele>615.695312</ele><time>2021-07-17T12:25:34Z</time><extensions><speed>0.525008</speed><course>296.161560</course><hAcc>0.890763</hAcc><vAcc>0.721847</vAcc></extensions></trkpt>
      <trkpt lon="-4.154724" lat="53.009024"><ele>615.499390</ele><time>2021-07-17T12:25:35Z</time><extensions><speed>0.506296</speed><course>298.229218</course><hAcc>0.890674</hAcc><vAcc>0.721509</vAcc></extensions></trkpt>
      <trkpt lon="-4.154722" lat="53.009028"><ele>615.308777</ele><time>2021-07-17T12:25:36Z</time><extensions><speed>0.490928</speed><course>297.545471</course><hAcc>0.890581</hAcc><vAcc>0.721148</vAcc></extensions></trkpt>
      <trkpt lon="-4.154722" lat="53.009033"><ele>615.121948</ele><time>2021-07-17T12:25:37Z</time><extensions><speed>0.481160</speed><course>292.454163</course><hAcc>0.890487</hAcc><vAcc>0.720777</vAcc></extensions></trkpt>
      <trkpt lon="-4.154723" lat="53.009037"><ele>614.937500</ele><time>2021-07-17T12:25:38Z</time><extensions><speed>0.479143</speed><course>287.195465</course><hAcc>0.890398</hAcc><vAcc>0.720414</vAcc></extensions></trkpt>
      <trkpt lon="-4.154724" lat="53.009041"><ele>614.754517</ele><time>2021-07-17T12:25:39Z</time><extensions><speed>0.485583</speed><course>283.339600</course><hAcc>0.890318</hAcc><vAcc>0.720073</vAcc></extensions></trkpt>
      <trkpt lon="-4.154726" lat="53.009046"><ele>614.572144</ele><time>2021-07-17T12:25:41Z</time><extensions><speed>0.498926</speed><course>283.687531</course><hAcc>0.890234</hAcc><vAcc>0.719758</vAcc></extensions></trkpt>
      <trkpt lon="-4.154730" lat="53.009050"><ele>614.390381</ele><time>2021-07-17T12:25:42Z</time><extensions><speed>0.516903</speed><course>284.089417</course><hAcc>0.890149</hAcc><vAcc>0.719482</vAcc></extensions></trkpt>
      <trkpt lon="-4.154734" lat="53.009054"><ele>614.208984</ele><time>2021-07-17T12:25:43Z</time><extensions><speed>0.537836</speed><course>286.432800</course><hAcc>0.890083</hAcc><vAcc>0.719270</vAcc></extensions></trkpt>
      <trkpt lon="-4.154738" lat="53.009058"><ele>614.027527</ele><time>2021-07-17T12:25:44Z</time><extensions><speed>0.559831</speed><course>288.844025</course><hAcc>0.890035</hAcc><vAcc>0.719129</vAcc></extensions></trkpt>
      <trkpt lon="-4.154744" lat="53.009062"><ele>613.845398</ele><time>2021-07-17T12:25:45Z</time><extensions><speed>0.580717</speed><course>294.600861</course><hAcc>0.890006</hAcc><vAcc>0.719062</vAcc></extensions></trkpt>
      <trkpt lon="-4.154750" lat="53.009066"><ele>613.661133</ele><time>2021-07-17T12:25:46Z</time><extensions><speed>0.598337</speed><course>289.399475</course><hAcc>0.889994</hAcc><vAcc>0.719064</vAcc></extensions></trkpt>
      <trkpt lon="-4.154756" lat="53.009069"><ele>613.473328</ele><time>2021-07-17T12:25:47Z</time><extensions><speed>0.611246</speed><course>292.462738</course><hAcc>0.889997</hAcc><vAcc>0.719125</vAcc></extensions></trkpt>
      <trkpt lon="-4.154763" lat="53.009073"><ele>613.280823</ele><time>2021-07-17T12:25:48Z</time><extensions><speed>0.618344</speed><course>292.044128</course><hAcc>0.890012</hAcc><vAcc>0.719233</vAcc></extensions></trkpt>
      <trkpt lon="-4.154770" lat="53.009077"><ele>613.083069</ele><time>2021-07-17T12:25:49Z</time><extensions><speed>0.618609</speed><course>289.426849</course><hAcc>0.890034</hAcc><vAcc>0.719372</vAcc></extensions></trkpt>
      <trkpt lon="-4.154776" lat="53.009081"><ele>612.880066</ele><time>2021-07-17T12:25:50Z</time><extensions><speed>0.611919</speed><course>292.821838</course><hAcc>0.890060</hAcc><vAcc>0.719522</vAcc></extensions></trkpt>
      <trkpt lon="-4.154783" lat="53.009084"><ele>612.672302</ele><time>2021-07-17T12:25:51Z</time><extensions><speed>0.598934</speed><course>287.405121</course><hAcc>0.890084</hAcc><vAcc>0.719663</vAcc></extensions></trkpt>
      <trkpt lon="-4.154789" lat="53.009088"><ele>612.460327</ele><time>2021-07-17T12:25:52Z</time><extensions><speed>0.580706</speed><course>289.328461</course><hAcc>0.890103</hAcc><vAcc>0.719781</vAcc></extensions></trkpt>
      <trkpt lon="-4.154795" lat="53.009092"><ele>612.244629</ele><time>2021-07-17T12:25:53Z</time><extensions><speed>0.558838</speed><course>290.686554</course><hAcc>0.890112</hAcc><vAcc>0.719861</vAcc></extensions></trkpt>
      <trkpt lon="-4.154800" lat="53.009096"><ele>612.025879</ele><time>2021-07-17T12:25:54Z</time><extensions><speed>0.535377</speed><course>291.519623</course><hAcc>0.890108</hAcc><vAcc>0.719893</vAcc></extensions></trkpt>
      <trkpt lon="-4.154805" lat="53.009099"><ele>611.804260</ele><time>2021-07-17T12:25:55Z</time><extensions><speed>0.512466</speed><course>289.260345</course><hAcc>0.890091</hAcc><vAcc>0.719863</vAcc></extensions></trkpt>
      <trkpt lon="-4.154808" lat="53.009103"><ele>611.580078</ele><time>2021-07-17T12:25:56Z</time><extensions><speed>0.492222</speed><course>291.671295</course><hAcc>0.890060</hAcc><vAcc>0.719762</vAcc></extensions></trkpt>
      <trkpt lon="-4.154811" lat="53.009107"><ele>611.354492</ele><time>2021-07-17T12:25:57Z</time><extensions><speed>0.476746</speed><course>285.797272</course><hAcc>0.890017</hAcc><vAcc>0.719589</vAcc></extensions></trkpt>
      <trkpt lon="-4.154813" lat="53.009112"><ele>611.129395</ele><time>2021-07-17T12:25:58Z</time><extensions><speed>0.467424</speed><course>284.045776</course><hAcc>0.889965</hAcc><vAcc>0.719355</vAcc></extensions></trkpt>
      <trkpt lon="-4.154814" lat="53.009116"><ele>610.906799</ele><time>2021-07-17T12:25:59Z</time><extensions><speed>0.463805</speed><course>290.744446</course><hAcc>0.889904</hAcc><vAcc>0.719078</vAcc></extensions></trkpt>
      <trkpt lon="-4.154813" lat="53.009120"><ele>610.688904</ele><time>2021-07-17T12:26:00Z</time><extensions><speed>0.463492</speed><course>286.155334</course><hAcc>0.889840</hAcc><vAcc>0.718786</vAcc></extensions></trkpt>
      <trkpt lon="-4.154813" lat="53.009124"><ele>610.477600</ele><time>2021-07-17T12:26:01Z</time><extensions><speed>0.463912</speed><course>292.078705</course><hAcc>0.889775</hAcc><vAcc>0.718502</vAcc></extensions></trkpt>
      <trkpt lon="-4.154811" lat="53.009128"><ele>610.274536</ele><time>2021-07-17T12:26:02Z</time><extensions><speed>0.463373</speed><course>292.906311</course><hAcc>0.889713</hAcc><vAcc>0.718250</vAcc></extensions></trkpt>
      <trkpt lon="-4.154809" lat="53.009132"><ele>610.080994</ele><time>2021-07-17T12:26:03Z</time><extensions><speed>0.460963</speed><course>291.462067</course><hAcc>0.889658</hAcc><vAcc>0.718046</vAcc></extensions></trkpt>
      <trkpt lon="-4.154807" lat="53.009136"><ele>609.897644</ele><time>2021-07-17T12:26:04Z</time><extensions><speed>0.456409</speed><course>290.448425</course><hAcc>0.889611</hAcc><vAcc>0.717895</vAcc></extensions></trkpt>
      <trkpt lon="-4.154804" lat="53.009140"><ele>609.724609</ele><time>2021-07-17T12:26:05Z</time><extensions><speed>0.449769</speed><course>295.857269</course><hAcc>0.889576</hAcc><vAcc>0.717795</vAcc></extensions></trkpt>
      <trkpt lon="-4.154801" lat="53.009143"><ele>609.561707</ele><time>2021-07-17T12:26:06Z</time><extensions><speed>0.441380</speed><course>298.185364</course><hAcc>0.889552</hAcc><vAcc>0.717745</vAcc></extensions></trkpt>
      <trkpt lon="-4.154798" lat="53.009147"><ele>609.408447</ele><time>2021-07-17T12:26:07Z</time><extensions><speed>0.431799</speed><course>294.469940</course><hAcc>0.889540</hAcc><vAcc>0.717736</vAcc></extensions></trkpt>
      <trkpt lon="-4.154795" lat="53.009150"><ele>609.264282</ele><time>2021-07-17T12:26:08Z</time><extensions><speed>0.421522</speed><course>292.898438</course><hAcc>0.889537</hAcc><vAcc>0.717761</vAcc></extensions></trkpt>
      <trkpt lon="-4.154791" lat="53.009153"><ele>609.128784</ele><time>2021-07-17T12:26:09Z</time><extensions><speed>0.410689</speed><course>292.422791</course><hAcc>0.889543</hAcc><vAcc>0.717811</vAcc></extensions></trkpt>
      <trkpt lon="-4.154788" lat="53.009156"><ele>609.001465</ele><time>2021-07-17T12:26:10Z</time><extensions><speed>0.399259</speed><course>292.622986</course><hAcc>0.889555</hAcc><vAcc>0.717878</vAcc></extensions></trkpt>
      <trkpt lon="-4.154785" lat="53.009159"><ele>608.881470</ele><time>2021-07-17T12:26:11Z</time><extensions><speed>0.387504</speed><course>292.749084</course><hAcc>0.889570</hAcc><vAcc>0.717957</vAcc></extensions></trkpt>
      <trkpt lon="-4.154782" lat="53.009162"><ele>608.768005</ele><time>2021-07-17T12:26:12Z</time><extensions><speed>0.376000</speed><course>294.832458</course><hAcc>0.889585</hAcc><vAcc>0.718038</vAcc></extensions></trkpt>
      <trkpt lon="-4.154780" lat="53.009165"><ele>608.660339</ele><time>2021-07-17T12:26:13Z</time><extensions><speed>0.365209</speed><course>290.563019</course><hAcc>0.889599</hAcc><vAcc>0.718112</vAcc></extensions></trkpt>
      <trkpt lon="-4.154778" lat="53.009168"><ele>608.558228</ele><time>2021-07-17T12:26:14Z</time><extensions><speed>0.356435</speed><course>288.082062</course><hAcc>0.889610</hAcc><vAcc>0.718171</vAcc></extensions></trkpt>
      <trkpt lon="-4.154776" lat="53.009171"><ele>608.461426</ele><time>2021-07-17T12:26:15Z</time><extensions><speed>0.351310</speed><course>289.238037</course><hAcc>0.889618</hAcc><vAcc>0.718206</vAcc></extensions></trkpt>
      <trkpt lon="-4.154774" lat="53.009174"><ele>608.369873</ele><time>2021-07-17T12:26:16Z</time><extensions><speed>0.350058</speed><course>289.037109</course><hAcc>0.889621</hAcc><vAcc>0.718211</vAcc></extensions></trkpt>
      <trkpt lon="-4.154773" lat="53.009177"><ele>608.283569</ele><time>2021-07-17T12:26:17Z</time><extensions><speed>0.351969</speed><course>291.884949</course><hAcc>0.889621</hAcc><vAcc>0.718186</vAcc></extensions></trkpt>
      <trkpt lon="-4.154772" lat="53.009180"><ele>608.201477</ele><time>2021-07-17T12:26:18Z</time><extensions><speed>0.356324</speed><course>287.567657</course><hAcc>0.889617</hAcc><vAcc>0.718138</vAcc></extensions></trkpt>
      <trkpt lon="-4.154771" lat="53.009183"><ele>608.122009</ele><time>2021-07-17T12:26:19Z</time><extensions><speed>0.362345</speed><course>291.768890</course><hAcc>0.889611</hAcc><vAcc>0.718080</vAcc></extensions></trkpt>
      <trkpt lon="-4.154770" lat="53.009187"><ele>608.043396</ele><time>2021-07-17T12:26:20Z</time><extensions><speed>0.369067</speed><course>296.126740</course><hAcc>0.889603</hAcc><vAcc>0.718022</vAcc></extensions></trkpt>
      <trkpt lon="-4.154769" lat="53.009190"><ele>607.964111</ele><time>2021-07-17T12:26:21Z</time><extensions><speed>0.375943</speed><course>297.059143</course><hAcc>0.889595</hAcc><vAcc>0.717972</vAcc></extensions></trkpt>
      <trkpt lon="-4.154769" lat="53.009193"><ele>607.882690</ele><time>2021-07-17T12:26:22Z</time><extensions><speed>0.382733</speed><course>303.696320</course><hAcc>0.889587</hAcc><vAcc>0.717936</vAcc></extensions></trkpt>
      <trkpt lon="-4.154768" lat="53.009197"><ele>607.797607</ele><time>2021-07-17T12:26:23Z</time><extensions><speed>0.389354</speed><course>307.460022</course><hAcc>0.889581</hAcc><vAcc>0.717916</vAcc></extensions></trkpt>
      <trkpt lon="-4.154768" lat="53.009200"><ele>607.707397</ele><time>2021-07-17T12:26:24Z</time><extensions><speed>0.395965</speed><course>302.094666</course><hAcc>0.889578</hAcc><vAcc>0.717913</vAcc></extensions></trkpt>
      <trkpt lon="-4.154768" lat="53.009204"><ele>607.611145</ele><time>2021-07-17T12:26:25Z</time><extensions><speed>0.402523</speed><course>294.763123</course><hAcc>0.889576</hAcc><vAcc>0.717927</vAcc></extensions></trkpt>
      <trkpt lon="-4.154767" lat="53.009208"><ele>607.508484</ele><time>2021-07-17T12:26:26Z</time><extensions><speed>0.408822</speed><course>292.310913</course><hAcc>0.889578</hAcc><vAcc>0.717954</vAcc></extensions></trkpt>
      <trkpt lon="-4.154766" lat="53.009211"><ele>607.399170</ele><time>2021-07-17T12:26:27Z</time><extensions><speed>0.415035</speed><course>286.252472</course><hAcc>0.889581</hAcc><vAcc>0.717987</vAcc></extensions></trkpt>
      <trkpt lon="-4.154766" lat="53.009215"><ele>607.283264</ele><time>2021-07-17T12:26:28Z</time><extensions><speed>0.421650</speed><course>277.085999</course><hAcc>0.889587</hAcc><vAcc>0.718019</vAcc></extensions></trkpt>
      <trkpt lon="-4.154765" lat="53.009219"><ele>607.160950</ele><time>2021-07-17T12:26:29Z</time><extensions><speed>0.428842</speed><course>269.880463</course><hAcc>0.889595</hAcc><vAcc>0.718046</vAcc></extensions></trkpt>
      <trkpt lon="-4.154765" lat="53.009223"><ele>607.033020</ele><time>2021-07-17T12:26:30Z</time><extensions><speed>0.436384</speed><course>256.014618</course><hAcc>0.889604</hAcc><vAcc>0.718066</vAcc></extensions></trkpt>
      <trkpt lon="-4.154765" lat="53.009227"><ele>606.900146</ele><time>2021-07-17T12:26:31Z</time><extensions><speed>0.443824</speed><course>250.524368</course><hAcc>0.889616</hAcc><vAcc>0.718083</vAcc></extensions></trkpt>
      <trkpt lon="-4.154764" lat="53.009231"><ele>606.763733</ele><time>2021-07-17T12:26:32Z</time><extensions><speed>0.450763</speed><course>237.491638</course><hAcc>0.889628</hAcc><vAcc>0.718103</vAcc></extensions></trkpt>
      <trkpt lon="-4.154765" lat="53.009235"><ele>606.625061</ele><time>2021-07-17T12:26:33Z</time><extensions><speed>0.457393</speed><course>231.976761</course><hAcc>0.889641</hAcc><vAcc>0.718131</vAcc></extensions></trkpt>
      <trkpt lon="-4.154765" lat="53.009239"><ele>606.485413</ele><time>2021-07-17T12:26:34Z</time><extensions><speed>0.464366</speed><course>228.504318</course><hAcc>0.889656</hAcc><vAcc>0.718170</vAcc></extensions></trkpt>
      <trkpt lon="-4.154767" lat="53.009243"><ele>606.345764</ele><time>2021-07-17T12:26:35Z</time><extensions><speed>0.472269</speed><course>227.577087</course><hAcc>0.889671</hAcc><vAcc>0.718221</vAcc></extensions></trkpt>
      <trkpt lon="-4.154768" lat="53.009247"><ele>606.206909</ele><time>2021-07-17T12:26:36Z</time><extensions><speed>0.482480</speed><course>219.513672</course><hAcc>0.889686</hAcc><vAcc>0.718282</vAcc></extensions></trkpt>
      <trkpt lon="-4.154771" lat="53.009251"><ele>606.069214</ele><time>2021-07-17T12:26:37Z</time><extensions><speed>0.496853</speed><course>224.903015</course><hAcc>0.889702</hAcc><vAcc>0.718351</vAcc></extensions></trkpt>
      <trkpt lon="-4.154774" lat="53.009255"><ele>605.932678</ele><time>2021-07-17T12:26:38Z</time><extensions><speed>0.516019</speed><course>222.390198</course><hAcc>0.889719</hAcc><vAcc>0.718421</vAcc></extensions></trkpt>
      <trkpt lon="-4.154778" lat="53.009259"><ele>605.796814</ele><time>2021-07-17T12:26:39Z</time><extensions><speed>0.538983</speed><course>223.313202</course><hAcc>0.889737</hAcc><vAcc>0.718484</vAcc></extensions></trkpt>
      <trkpt lon="-4.154783" lat="53.009263"><ele>605.660278</ele><time>2021-07-17T12:26:40Z</time><extensions><speed>0.563977</speed><course>224.045700</course><hAcc>0.889756</hAcc><vAcc>0.718536</vAcc></extensions></trkpt>
      <trkpt lon="-4.154788" lat="53.009267"><ele>605.521362</ele><time>2021-07-17T12:26:41Z</time><extensions><speed>0.589803</speed><course>224.975723</course><hAcc>0.889778</hAcc><vAcc>0.718575</vAcc></extensions></trkpt>
      <trkpt lon="-4.154794" lat="53.009271"><ele>605.378235</ele><time>2021-07-17T12:26:42Z</time><extensions><speed>0.615959</speed><course>226.513992</course><hAcc>0.889804</hAcc><vAcc>0.718605</vAcc></extensions></trkpt>
      <trkpt lon="-4.154801" lat="53.009275"><ele>605.229248</ele><time>2021-07-17T12:26:43Z</time><extensions><speed>0.642061</speed><course>227.291473</course><hAcc>0.889836</hAcc><vAcc>0.718635</vAcc></extensions></trkpt>
      <trkpt lon="-4.154808" lat="53.009279"><ele>605.073242</ele><time>2021-07-17T12:26:44Z</time><extensions><speed>0.667878</speed><course>231.833313</course><hAcc>0.889855</hAcc><vAcc>0.718665</vAcc></extensions></trkpt>
      <trkpt lon="-4.154816" lat="53.009283"><ele>604.910706</ele><time>2021-07-17T12:26:45Z</time><extensions><speed>0.693194</speed><course>230.421005</course><hAcc>0.889864</hAcc><vAcc>0.718705</vAcc></extensions></trkpt>
      <trkpt lon="-4.154825" lat="53.009287"><ele>604.742371</ele><time>2021-07-17T12:26:46Z</time><extensions><speed>0.717863</speed><course>235.980087</course><hAcc>0.889880</hAcc><vAcc>0.718773</vAcc></extensions></trkpt>
      <trkpt lon="-4.154834" lat="53.009290"><ele>604.569763</ele><time>2021-07-17T12:26:47Z</time><extensions><speed>0.741575</speed><course>243.213364</course><hAcc>0.889904</hAcc><vAcc>0.718868</vAcc></extensions></trkpt>
      <trkpt lon="-4.154843" lat="53.009294"><ele>604.394226</ele><time>2021-07-17T12:26:48Z</time><extensions><speed>0.763865</speed><course>253.165268</course><hAcc>0.889934</hAcc><vAcc>0.718988</vAcc></extensions></trkpt>
      <trkpt lon="-4.154854" lat="53.009297"><ele>604.217041</ele><time>2021-07-17T12:26:49Z</time><extensions><speed>0.783879</speed><course>266.505096</course><hAcc>0.889972</hAcc><vAcc>0.719128</vAcc></extensions></trkpt>
      <trkpt lon="-4.154864" lat="53.009301"><ele>604.039124</ele><time>2021-07-17T12:26:50Z</time><extensions><speed>0.800785</speed><course>267.255646</course><hAcc>0.890015</hAcc><vAcc>0.719288</vAcc></extensions></trkpt>
      <trkpt lon="-4.154875" lat="53.009304"><ele>603.860107</ele><time>2021-07-17T12:26:51Z</time><extensions><speed>0.813981</speed><course>271.176971</course><hAcc>0.890063</hAcc><vAcc>0.719465</vAcc></extensions></trkpt>
      <trkpt lon="-4.154886" lat="53.009307"><ele>603.679138</ele><time>2021-07-17T12:26:52Z</time><extensions><speed>0.823268</speed><course>283.145996</course><hAcc>0.890113</hAcc><vAcc>0.719655</vAcc></extensions></trkpt>
      <trkpt lon="-4.154897" lat="53.009310"><ele>603.494995</ele><time>2021-07-17T12:26:53Z</time><extensions><speed>0.828852</speed><course>291.499756</course><hAcc>0.890164</hAcc><vAcc>0.719850</vAcc></extensions></trkpt>
      <trkpt lon="-4.154908" lat="53.009314"><ele>603.306580</ele><time>2021-07-17T12:26:54Z</time><extensions><speed>0.831219</speed><course>295.960785</course><hAcc>0.890216</hAcc><vAcc>0.720042</vAcc></extensions></trkpt>
      <trkpt lon="-4.154919" lat="53.009317"><ele>603.112488</ele><time>2021-07-17T12:26:55Z</time><extensions><speed>0.830998</speed><course>298.309418</course><hAcc>0.890267</hAcc><vAcc>0.720221</vAcc></extensions></trkpt>
      <trkpt lon="-4.154930" lat="53.009321"><ele>602.911377</ele><time>2021-07-17T12:26:56Z</time><extensions><speed>0.828679</speed><course>301.442566</course><hAcc>0.890316</hAcc><vAcc>0.720385</vAcc></extensions></trkpt>
      <trkpt lon="-4.154940" lat="53.009325"><ele>602.702515</ele><time>2021-07-17T12:26:57Z</time><extensions><speed>0.824598</speed><course>301.820831</course><hAcc>0.890362</hAcc><vAcc>0.720532</vAcc></extensions></trkpt>
      <trkpt lon="-4.154950" lat="53.009329"><ele>602.485291</ele><time>2021-07-17T12:26:58Z</time><extensions><speed>0.819388</speed><course>306.533081</course><hAcc>0.890404</hAcc><vAcc>0.720666</vAcc></extensions></trkpt>
      <trkpt lon="-4.154960" lat="53.009333"><ele>602.259644</ele><time>2021-07-17T12:26:59Z</time><extensions><speed>0.813835</speed><course>310.759277</course><hAcc>0.890443</hAcc><vAcc>0.720786</vAcc></extensions></trkpt>
      <trkpt lon="-4.154970" lat="53.009337"><ele>602.026306</ele><time>2021-07-17T12:27:00Z</time><extensions><speed>0.808616</speed><course>315.721252</course><hAcc>0.890477</hAcc><vAcc>0.720894</vAcc></extensions></trkpt>
      <trkpt lon="-4.154979" lat="53.009342"><ele>601.786255</ele><time>2021-07-17T12:27:01Z</time><extensions><speed>0.804194</speed><course>321.376434</course><hAcc>0.890507</hAcc><vAcc>0.720993</vAcc></extensions></trkpt>
      <trkpt lon="-4.154988" lat="53.009347"><ele>601.540649</ele><time>2021-07-17T12:27:02Z</time><extensions><speed>0.800572</speed><course>321.893402</course><hAcc>0.890532</hAcc><vAcc>0.721086</vAcc></extensions></trkpt>
      <trkpt lon="-4.154997" lat="53.009351"><ele>601.290649</ele><time>2021-07-17T12:27:03Z</time><extensions><speed>0.797607</speed><course>325.867676</course><hAcc>0.890553</hAcc><vAcc>0.721173</vAcc></extensions></trkpt>
      <trkpt lon="-4.155006" lat="53.009356"><ele>601.037537</ele><time>2021-07-17T12:27:04Z</time><extensions><speed>0.795457</speed><course>319.975250</course><hAcc>0.890570</hAcc><vAcc>0.721255</vAcc></extensions></trkpt>
      <trkpt lon="-4.155015" lat="53.009361"><ele>600.783081</ele><time>2021-07-17T12:27:05Z</time><extensions><speed>0.794483</speed><course>320.826599</course><hAcc>0.890599</hAcc><vAcc>0.721346</vAcc></extensions></trkpt>
      <trkpt lon="-4.155023" lat="53.009366"><ele>600.528320</ele><time>2021-07-17T12:27:06Z</time><extensions><speed>0.795108</speed><course>320.826599</course><hAcc>0.890641</hAcc><vAcc>0.721449</vAcc></extensions></trkpt>
      <trkpt lon="-4.155032" lat="53.009371"><ele>600.275269</ele><time>2021-07-17T12:27:07Z</time><extensions><speed>0.797756</speed><course>320.826599</course><hAcc>0.890678</hAcc><vAcc>0.721551</vAcc></extensions></trkpt>
      <trkpt lon="-4.155041" lat="53.009376"><ele>600.025452</ele><time>2021-07-17T12:27:08Z</time><extensions><speed>0.802401</speed><course>320.826599</course><hAcc>0.890712</hAcc><vAcc>0.721648</vAcc></extensions></trkpt>
      <trkpt lon="-4.155050" lat="53.009380"><ele>599.780823</ele><time>2021-07-17T12:27:09Z</time><extensions><speed>0.808803</speed><course>320.826599</course><hAcc>0.890741</hAcc><vAcc>0.721736</vAcc></extensions></trkpt>
      <trkpt lon="-4.155059" lat="53.009385"><ele>599.543396</ele><time>2021-07-17T12:27:10Z</time><extensions><speed>0.816497</speed><course>320.826599</course><hAcc>0.890767</hAcc><vAcc>0.721813</vAcc></extensions></trkpt>
      <trkpt lon="-4.155069" lat="53.009390"><ele>599.314880</ele><time>2021-07-17T12:27:11Z</time><extensions><speed>0.823917</speed><course>320.826599</course><hAcc>0.890787</hAcc><vAcc>0.721882</vAcc></extensions></trkpt>
      <trkpt lon="-4.155079" lat="53.009394"><ele>599.095886</ele><time>2021-07-17T12:27:12Z</time><extensions><speed>0.828785</speed><course>320.826599</course><hAcc>0.890801</hAcc><vAcc>0.721941</vAcc></extensions></trkpt>
      <trkpt lon="-4.155088" lat="53.009399"><ele>598.886597</ele><time>2021-07-17T12:27:13Z</time><extensions><speed>0.829239</speed><course>320.826599</course><hAcc>0.890808</hAcc><vAcc>0.721985</vAcc></extensions></trkpt>
      <trkpt lon="-4.155098" lat="53.009403"><ele>598.686890</ele><time>2021-07-17T12:27:14Z</time><extensions><speed>0.824766</speed><course>320.826599</course><hAcc>0.890807</hAcc><vAcc>0.722009</vAcc></extensions></trkpt>
      <trkpt lon="-4.155107" lat="53.009408"><ele>598.496216</ele><time>2021-07-17T12:27:15Z</time><extensions><speed>0.816270</speed><course>320.826599</course><hAcc>0.890796</hAcc><vAcc>0.722007</vAcc></extensions></trkpt>
      <trkpt lon="-4.155116" lat="53.009413"><ele>598.313599</ele><time>2021-07-17T12:27:16Z</time><extensions><speed>0.805307</speed><course>320.826599</course><hAcc>0.890775</hAcc><vAcc>0.721972</vAcc></extensions></trkpt>
      <trkpt lon="-4.155125" lat="53.009418"><ele>598.138306</ele><time>2021-07-17T12:27:17Z</time><extensions><speed>0.793810</speed><course>320.826599</course><hAcc>0.890743</hAcc><vAcc>0.721902</vAcc></extensions></trkpt>
      <trkpt lon="-4.155133" lat="53.009423"><ele>597.970032</ele><time>2021-07-17T12:27:18Z</time><extensions><speed>0.783331</speed><course>320.826599</course><hAcc>0.890699</hAcc><vAcc>0.721794</vAcc></extensions></trkpt>
      <trkpt lon="-4.155140" lat="53.009429"><ele>597.808533</ele><time>2021-07-17T12:27:18Z</time><extensions><speed>0.774425</speed><course>320.826599</course><hAcc>0.890662</hAcc><vAcc>0.721662</vAcc></extensions></trkpt>
      <trkpt lon="-4.155146" lat="53.009434"><ele>597.653503</ele><time>2021-07-17T12:27:19Z</time><extensions><speed>0.766745</speed><course>320.826599</course><hAcc>0.890633</hAcc><vAcc>0.721510</vAcc></extensions></trkpt>
      <trkpt lon="-4.155152" lat="53.009440"><ele>597.505310</ele><time>2021-07-17T12:27:20Z</time><extensions><speed>0.759485</speed><course>320.826599</course><hAcc>0.890595</hAcc><vAcc>0.721334</vAcc></extensions></trkpt>
      <trkpt lon="-4.155158" lat="53.009446"><ele>597.364502</ele><time>2021-07-17T12:27:21Z</time><extensions><speed>0.751361</speed><course>320.826599</course><hAcc>0.890553</hAcc><vAcc>0.721141</vAcc></extensions></trkpt>
      <trkpt lon="-4.155163" lat="53.009452"><ele>597.232056</ele><time>2021-07-17T12:27:22Z</time><extensions><speed>0.740976</speed><course>320.826599</course><hAcc>0.890509</hAcc><vAcc>0.720944</vAcc></extensions></trkpt>
      <trkpt lon="-4.155167" lat="53.009458"><ele>597.108643</ele><time>2021-07-17T12:27:23Z</time><extensions><speed>0.727417</speed><course>320.826599</course><hAcc>0.890466</hAcc><vAcc>0.720752</vAcc></extensions></trkpt>
      <trkpt lon="-4.155171" lat="53.009464"><ele>596.994446</ele><time>2021-07-17T12:27:24Z</time><extensions><speed>0.710097</speed><course>320.826599</course><hAcc>0.890425</hAcc><vAcc>0.720580</vAcc></extensions></trkpt>
      <trkpt lon="-4.155175" lat="53.009470"><ele>596.889099</ele><time>2021-07-17T12:27:25Z</time><extensions><speed>0.688614</speed><course>320.826569</course><hAcc>0.890390</hAcc><vAcc>0.720436</vAcc></extensions></trkpt>
      <trkpt lon="-4.155178" lat="53.009476"><ele>596.792480</ele><time>2021-07-17T12:27:26Z</time><extensions><speed>0.662958</speed><course>320.826569</course><hAcc>0.890362</hAcc><vAcc>0.720328</vAcc></extensions></trkpt>
      <trkpt lon="-4.155181" lat="53.009481"><ele>596.704651</ele><time>2021-07-17T12:27:27Z</time><extensions><speed>0.633639</speed><course>320.826569</course><hAcc>0.890342</hAcc><vAcc>0.720258</vAcc></extensions></trkpt>
      <trkpt lon="-4.155184" lat="53.009487"><ele>596.625122</ele><time>2021-07-17T12:27:28Z</time><extensions><speed>0.601329</speed><course>320.826569</course><hAcc>0.890329</hAcc><vAcc>0.720229</vAcc></extensions></trkpt>
      <trkpt lon="-4.155187" lat="53.009492"><ele>596.553223</ele><time>2021-07-17T12:27:29Z</time><extensions><speed>0.566663</speed><course>306.179871</course><hAcc>0.890325</hAcc><vAcc>0.720237</vAcc></extensions></trkpt>
      <trkpt lon="-4.155190" lat="53.009496"><ele>596.487854</ele><time>2021-07-17T12:27:30Z</time><extensions><speed>0.530544</speed><course>252.340622</course><hAcc>0.890327</hAcc><vAcc>0.720272</vAcc></extensions></trkpt>
      <trkpt lon="-4.155193" lat="53.009500"><ele>596.428284</ele><time>2021-07-17T12:27:31Z</time><extensions><speed>0.494062</speed><course>240.417450</course><hAcc>0.890336</hAcc><vAcc>0.720325</vAcc></extensions></trkpt>
      <trkpt lon="-4.155196" lat="53.009504"><ele>596.374023</ele><time>2021-07-17T12:27:32Z</time><extensions><speed>0.458148</speed><course>226.735764</course><hAcc>0.890350</hAcc><vAcc>0.720383</vAcc></extensions></trkpt>
      <trkpt lon="-4.155199" lat="53.009508"><ele>596.324524</ele><time>2021-07-17T12:27:33Z</time><extensions><speed>0.423655</speed><course>213.254318</course><hAcc>0.890367</hAcc><vAcc>0.720439</vAcc></extensions></trkpt>
      <trkpt lon="-4.155201" lat="53.009511"><ele>596.278625</ele><time>2021-07-17T12:27:34Z</time><extensions><speed>0.391246</speed><course>209.983795</course><hAcc>0.890387</hAcc><vAcc>0.720488</vAcc></extensions></trkpt>
      <trkpt lon="-4.155204" lat="53.009514"><ele>596.235229</ele><time>2021-07-17T12:27:35Z</time><extensions><speed>0.361050</speed><course>212.464371</course><hAcc>0.890409</hAcc><vAcc>0.720526</vAcc></extensions></trkpt>
      <trkpt lon="-4.155207" lat="53.009517"><ele>596.193054</ele><time>2021-07-17T12:27:37Z</time><extensions><speed>0.332901</speed><course>212.464355</course><hAcc>0.890412</hAcc><vAcc>0.720539</vAcc></extensions></trkpt>
      <trkpt lon="-4.155209" lat="53.009519"><ele>596.151611</ele><time>2021-07-17T12:27:38Z</time><extensions><speed>0.306775</speed><course>212.464355</course><hAcc>0.890396</hAcc><vAcc>0.720527</vAcc></extensions></trkpt>
      <trkpt lon="-4.155212" lat="53.009521"><ele>596.110779</ele><time>2021-07-17T12:27:39Z</time><extensions><speed>0.282489</speed><course>212.464340</course><hAcc>0.890377</hAcc><vAcc>0.720500</vAcc></extensions></trkpt>
      <trkpt lon="-4.155214" lat="53.009523"><ele>596.070923</ele><time>2021-07-17T12:27:40Z</time><extensions><speed>0.259818</speed><course>212.464325</course><hAcc>0.890354</hAcc><vAcc>0.720456</vAcc></extensions></trkpt>
      <trkpt lon="-4.155217" lat="53.009525"><ele>596.032593</ele><time>2021-07-17T12:27:41Z</time><extensions><speed>0.238341</speed><course>212.464325</course><hAcc>0.890325</hAcc><vAcc>0.720390</vAcc></extensions></trkpt>
      <trkpt lon="-4.155219" lat="53.009526"><ele>595.996216</ele><time>2021-07-17T12:27:42Z</time><extensions><speed>0.218017</speed><course>212.464325</course><hAcc>0.890291</hAcc><vAcc>0.720299</vAcc></extensions></trkpt>
      <trkpt lon="-4.155222" lat="53.009528"><ele>595.962280</ele><time>2021-07-17T12:27:43Z</time><extensions><speed>0.199525</speed><course>212.464310</course><hAcc>0.890251</hAcc><vAcc>0.720180</vAcc></extensions></trkpt>
      <trkpt lon="-4.155224" lat="53.009529"><ele>595.930847</ele><time>2021-07-17T12:27:44Z</time><extensions><speed>0.183447</speed><course>305.064514</course><hAcc>0.890205</hAcc><vAcc>0.720033</vAcc></extensions></trkpt>
      <trkpt lon="-4.155226" lat="53.009530"><ele>595.901855</ele><time>2021-07-17T12:27:45Z</time><extensions><speed>0.169921</speed><course>295.507660</course><hAcc>0.890155</hAcc><vAcc>0.719862</vAcc></extensions></trkpt>
      <trkpt lon="-4.155228" lat="53.009531"><ele>595.875122</ele><time>2021-07-17T12:27:46Z</time><extensions><speed>0.159041</speed><course>292.618195</course><hAcc>0.890102</hAcc><vAcc>0.719674</vAcc></extensions></trkpt>
      <trkpt lon="-4.155229" lat="53.009532"><ele>595.850342</ele><time>2021-07-17T12:27:47Z</time><extensions><speed>0.151183</speed><course>285.374146</course><hAcc>0.890047</hAcc><vAcc>0.719477</vAcc></extensions></trkpt>
      <trkpt lon="-4.155231" lat="53.009533"><ele>595.827332</ele><time>2021-07-17T12:27:48Z</time><extensions><speed>0.146908</speed><course>282.990997</course><hAcc>0.889992</hAcc><vAcc>0.719278</vAcc></extensions></trkpt>
      <trkpt lon="-4.155233" lat="53.009533"><ele>595.805847</ele><time>2021-07-17T12:27:49Z</time><extensions><speed>0.146509</speed><course>269.408752</course><hAcc>0.889940</hAcc><vAcc>0.719085</vAcc></extensions></trkpt>
      <trkpt lon="-4.155234" lat="53.009534"><ele>595.785339</ele><time>2021-07-17T12:27:50Z</time><extensions><speed>0.149933</speed><course>268.581787</course><hAcc>0.889892</hAcc><vAcc>0.718904</vAcc></extensions></trkpt>
      <trkpt lon="-4.155236" lat="53.009535"><ele>595.765198</ele><time>2021-07-17T12:27:51Z</time><extensions><speed>0.156839</speed><course>262.171875</course><hAcc>0.889852</hAcc><vAcc>0.718743</vAcc></extensions></trkpt>
      <trkpt lon="-4.155238" lat="53.009536"><ele>595.744690</ele><time>2021-07-17T12:27:52Z</time><extensions><speed>0.166616</speed><course>261.539520</course><hAcc>0.889822</hAcc><vAcc>0.718610</vAcc></extensions></trkpt>
      <trkpt lon="-4.155239" lat="53.009537"><ele>595.722900</ele><time>2021-07-17T12:27:53Z</time><extensions><speed>0.178531</speed><course>255.803879</course><hAcc>0.889801</hAcc><vAcc>0.718516</vAcc></extensions></trkpt>
      <trkpt lon="-4.155241" lat="53.009539"><ele>595.699219</ele><time>2021-07-17T12:27:54Z</time><extensions><speed>0.191688</speed><course>247.733398</course><hAcc>0.889791</hAcc><vAcc>0.718472</vAcc></extensions></trkpt>
      <trkpt lon="-4.155243" lat="53.009540"><ele>595.672852</ele><time>2021-07-17T12:27:55Z</time><extensions><speed>0.204735</speed><course>231.932861</course><hAcc>0.889791</hAcc><vAcc>0.718482</vAcc></extensions></trkpt>
      <trkpt lon="-4.155245" lat="53.009542"><ele>595.643372</ele><time>2021-07-17T12:27:56Z</time><extensions><speed>0.215890</speed><course>232.043365</course><hAcc>0.889799</hAcc><vAcc>0.718545</vAcc></extensions></trkpt>
      <trkpt lon="-4.155247" lat="53.009543"><ele>595.610779</ele><time>2021-07-17T12:27:57Z</time><extensions><speed>0.223105</speed><course>225.182800</course><hAcc>0.889813</hAcc><vAcc>0.718652</vAcc></extensions></trkpt>
      <trkpt lon="-4.155249" lat="53.009545"><ele>595.575562</ele><time>2021-07-17T12:27:58Z</time><extensions><speed>0.224329</speed><course>222.937302</course><hAcc>0.889831</hAcc><vAcc>0.718782</vAcc></extensions></trkpt>
      <trkpt lon="-4.155251" lat="53.009546"><ele>595.538452</ele><time>2021-07-17T12:27:59Z</time><extensions><speed>0.218174</speed><course>226.615036</course><hAcc>0.889850</hAcc><vAcc>0.718913</vAcc></extensions></trkpt>
      <trkpt lon="-4.155253" lat="53.009548"><ele>595.500427</ele><time>2021-07-17T12:28:00Z</time><extensions><speed>0.204440</speed><course>227.377960</course><hAcc>0.889868</hAcc><vAcc>0.719024</vAcc></extensions></trkpt>
      <trkpt lon="-4.155255" lat="53.009549"><ele>595.462036</ele><time>2021-07-17T12:28:01Z</time><extensions><speed>0.183676</speed><course>225.027542</course><hAcc>0.889883</hAcc><vAcc>0.719101</vAcc></extensions></trkpt>
      <trkpt lon="-4.155256" lat="53.009550"><ele>595.423889</ele><time>2021-07-17T12:28:02Z</time><extensions><speed>0.157004</speed><course>217.523773</course><hAcc>0.889892</hAcc><vAcc>0.719134</vAcc></extensions></trkpt>
      <trkpt lon="-4.155258" lat="53.009551"><ele>595.387024</ele><time>2021-07-17T12:28:03Z</time><extensions><speed>0.126509</speed><course>217.503448</course><hAcc>0.889894</hAcc><vAcc>0.719123</vAcc></extensions></trkpt>
      <trkpt lon="-4.155258" lat="53.009552"><ele>595.352356</ele><time>2021-07-17T12:28:04Z</time><extensions><speed>0.094344</speed><course>222.947372</course><hAcc>0.889888</hAcc><vAcc>0.719072</vAcc></extensions></trkpt>
      <trkpt lon="-4.155259" lat="53.009553"><ele>595.320679</ele><time>2021-07-17T12:28:05Z</time><extensions><speed>0.062279</speed><course>228.737518</course><hAcc>0.889873</hAcc><vAcc>0.718989</vAcc></extensions></trkpt>
      <trkpt lon="-4.155259" lat="53.009553"><ele>595.292542</ele><time>2021-07-17T12:28:06Z</time><extensions><speed>0.033058</speed><course>234.887939</course><hAcc>0.889851</hAcc><vAcc>0.718883</vAcc></extensions></trkpt>
      <trkpt lon="-4.155259" lat="53.009553"><ele>595.268311</ele><time>2021-07-17T12:28:07Z</time><extensions><speed>0.019880</speed><course>232.671463</course><hAcc>0.889821</hAcc><vAcc>0.718762</vAcc></extensions></trkpt>
      <trkpt lon="-4.155259" lat="53.009553"><ele>595.248352</ele><time>2021-07-17T12:28:08Z</time><extensions><speed>0.037406</speed><course>228.680756</course><hAcc>0.889787</hAcc><vAcc>0.718635</vAcc></extensions></trkpt>
      <trkpt lon="-4.155258" lat="53.009553"><ele>595.232971</ele><time>2021-07-17T12:28:09Z</time><extensions><speed>0.059801</speed><course>228.367065</course><hAcc>0.889748</hAcc><vAcc>0.718505</vAcc></extensions></trkpt>
      <trkpt lon="-4.155257" lat="53.009553"><ele>595.222656</ele><time>2021-07-17T12:28:10Z</time><extensions><speed>0.079789</speed><course>227.760208</course><hAcc>0.889708</hAcc><vAcc>0.718378</vAcc></extensions></trkpt>
      <trkpt lon="-4.155256" lat="53.009552"><ele>595.217773</ele><time>2021-07-17T12:28:11Z</time><extensions><speed>0.096321</speed><course>230.377014</course><hAcc>0.889667</hAcc><vAcc>0.718253</vAcc></extensions></trkpt>
      <trkpt lon="-4.155255" lat="53.009552"><ele>595.218384</ele><time>2021-07-17T12:28:12Z</time><extensions><speed>0.109054</speed><course>236.559235</course><hAcc>0.889627</hAcc><vAcc>0.718130</vAcc></extensions></trkpt>
      <trkpt lon="-4.155254" lat="53.009551"><ele>595.224182</ele><time>2021-07-17T12:28:13Z</time><extensions><speed>0.117480</speed><course>232.877869</course><hAcc>0.889591</hAcc><vAcc>0.718009</vAcc></extensions></trkpt>
      <trkpt lon="-4.155253" lat="53.009550"><ele>595.234741</ele><time>2021-07-17T12:28:14Z</time><extensions><speed>0.120891</speed><course>233.901962</course><hAcc>0.889561</hAcc><vAcc>0.717893</vAcc></extensions></trkpt>
      <trkpt lon="-4.155251" lat="53.009550"><ele>595.249390</ele><time>2021-07-17T12:28:15Z</time><extensions><speed>0.118480</speed><course>234.840546</course><hAcc>0.889537</hAcc><vAcc>0.717786</vAcc></extensions></trkpt>
      <trkpt lon="-4.155250" lat="53.009549"><ele>595.267395</ele><time>2021-07-17T12:28:16Z</time><extensions><speed>0.109425</speed><course>231.563858</course><hAcc>0.889523</hAcc><vAcc>0.717699</vAcc></extensions></trkpt>
      <trkpt lon="-4.155249" lat="53.009548"><ele>595.287842</ele><time>2021-07-17T12:28:17Z</time><extensions><speed>0.093424</speed><course>226.163422</course><hAcc>0.889518</hAcc><vAcc>0.717643</vAcc></extensions></trkpt>
      <trkpt lon="-4.155248" lat="53.009548"><ele>595.309387</ele><time>2021-07-17T12:28:18Z</time><extensions><speed>0.071139</speed><course>224.694687</course><hAcc>0.889524</hAcc><vAcc>0.717633</vAcc></extensions></trkpt>
      <trkpt lon="-4.155247" lat="53.009548"><ele>595.330383</ele><time>2021-07-17T12:28:19Z</time><extensions><speed>0.045620</speed><course>227.400024</course><hAcc>0.889541</hAcc><vAcc>0.717679</vAcc></extensions></trkpt>
      <trkpt lon="-4.155247" lat="53.009548"><ele>595.349060</ele><time>2021-07-17T12:28:20Z</time><extensions><speed>0.033325</speed><course>225.215622</course><hAcc>0.889568</hAcc><vAcc>0.717784</vAcc></extensions></trkpt>
      <trkpt lon="-4.155246" lat="53.009548"><ele>595.363281</ele><time>2021-07-17T12:28:21Z</time><extensions><speed>0.059528</speed><course>227.979385</course><hAcc>0.889604</hAcc><vAcc>0.717942</vAcc></extensions></trkpt>
      <trkpt lon="-4.155246" lat="53.009549"><ele>595.370789</ele><time>2021-07-17T12:28:22Z</time><extensions><speed>0.103650</speed><course>238.133682</course><hAcc>0.889649</hAcc><vAcc>0.718139</vAcc></extensions></trkpt>
      <trkpt lon="-4.155247" lat="53.009550"><ele>595.369507</ele><time>2021-07-17T12:28:23Z</time><extensions><speed>0.154714</speed><course>235.678314</course><hAcc>0.889700</hAcc><vAcc>0.718356</vAcc></extensions></trkpt>
      <trkpt lon="-4.155247" lat="53.009551"><ele>595.357544</ele><time>2021-07-17T12:28:24Z</time><extensions><speed>0.210145</speed><course>238.960709</course><hAcc>0.889757</hAcc><vAcc>0.718579</vAcc></extensions></trkpt>
      <trkpt lon="-4.155248" lat="53.009554"><ele>595.333374</ele><time>2021-07-17T12:28:25Z</time><extensions><speed>0.268648</speed><course>237.793289</course><hAcc>0.889816</hAcc><vAcc>0.718793</vAcc></extensions></trkpt>
      <trkpt lon="-4.155249" lat="53.009556"><ele>595.295715</ele><time>2021-07-17T12:28:26Z</time><extensions><speed>0.329079</speed><course>238.209671</course><hAcc>0.889877</hAcc><vAcc>0.718993</vAcc></extensions></trkpt>
      <trkpt lon="-4.155250" lat="53.009559"><ele>595.243713</ele><time>2021-07-17T12:28:27Z</time><extensions><speed>0.390384</speed><course>239.435074</course><hAcc>0.889938</hAcc><vAcc>0.719176</vAcc></extensions></trkpt>
      <trkpt lon="-4.155252" lat="53.009563"><ele>595.176453</ele><time>2021-07-17T12:28:28Z</time><extensions><speed>0.451489</speed><course>238.666733</course><hAcc>0.889998</hAcc><vAcc>0.719345</vAcc></extensions></trkpt>
      <trkpt lon="-4.155253" lat="53.009567"><ele>595.093262</ele><time>2021-07-17T12:28:29Z</time><extensions><speed>0.511589</speed><course>234.077820</course><hAcc>0.890055</hAcc><vAcc>0.719505</vAcc></extensions></trkpt>
      <trkpt lon="-4.155255" lat="53.009572"><ele>594.993835</ele><time>2021-07-17T12:28:30Z</time><extensions><speed>0.570289</speed><course>227.293335</course><hAcc>0.890111</hAcc><vAcc>0.719661</vAcc></extensions></trkpt>
      <trkpt lon="-4.155257" lat="53.009577"><ele>594.877991</ele><time>2021-07-17T12:28:31Z</time><extensions><speed>0.626746</speed><course>230.072769</course><hAcc>0.890165</hAcc><vAcc>0.719817</vAcc></extensions></trkpt>
      <trkpt lon="-4.155258" lat="53.009583"><ele>594.746277</ele><time>2021-07-17T12:28:32Z</time><extensions><speed>0.679164</speed><course>228.397232</course><hAcc>0.890217</hAcc><vAcc>0.719976</vAcc></extensions></trkpt>
      <trkpt lon="-4.155260" lat="53.009589"><ele>594.599487</ele><time>2021-07-17T12:28:33Z</time><extensions><speed>0.726108</speed><course>230.234772</course><hAcc>0.890269</hAcc><vAcc>0.720140</vAcc></extensions></trkpt>
      <trkpt lon="-4.155262" lat="53.009596"><ele>594.438660</ele><time>2021-07-17T12:28:34Z</time><extensions><speed>0.767186</speed><course>226.599274</course><hAcc>0.890320</hAcc><vAcc>0.720308</vAcc></extensions></trkpt>
      <trkpt lon="-4.155263" lat="53.009603"><ele>594.265198</ele><time>2021-07-17T12:28:35Z</time><extensions><speed>0.802405</speed><course>226.515137</course><hAcc>0.890371</hAcc><vAcc>0.720480</vAcc></extensions></trkpt>
      <trkpt lon="-4.155264" lat="53.009610"><ele>594.080505</ele><time>2021-07-17T12:28:36Z</time><extensions><speed>0.831868</speed><course>226.136917</course><hAcc>0.890423</hAcc><vAcc>0.720651</vAcc></extensions></trkpt>
      <trkpt lon="-4.155266" lat="53.009618"><ele>593.886719</ele><time>2021-07-17T12:28:37Z</time><extensions><speed>0.855534</speed><course>230.381958</course><hAcc>0.890476</hAcc><vAcc>0.720820</vAcc></extensions></trkpt>
      <trkpt lon="-4.155266" lat="53.009625"><ele>593.687012</ele><time>2021-07-17T12:28:38Z</time><extensions><speed>0.873299</speed><course>226.727509</course><hAcc>0.890531</hAcc><vAcc>0.720986</vAcc></extensions></trkpt>
      <trkpt lon="-4.155267" lat="53.009633"><ele>593.485474</ele><time>2021-07-17T12:28:39Z</time><extensions><speed>0.885590</speed><course>230.180862</course><hAcc>0.890589</hAcc><vAcc>0.721148</vAcc></extensions></trkpt>
      <trkpt lon="-4.155268" lat="53.009641"><ele>593.286072</ele><time>2021-07-17T12:28:40Z</time><extensions><speed>0.893408</speed><course>225.214905</course><hAcc>0.890651</hAcc><vAcc>0.721308</vAcc></extensions></trkpt>
      <trkpt lon="-4.155269" lat="53.009649"><ele>593.091858</ele><time>2021-07-17T12:28:41Z</time><extensions><speed>0.897702</speed><course>228.288971</course><hAcc>0.890717</hAcc><vAcc>0.721468</vAcc></extensions></trkpt>
      <trkpt lon="-4.155270" lat="53.009657"><ele>592.905457</ele><time>2021-07-17T12:28:42Z</time><extensions><speed>0.899367</speed><course>234.392639</course><hAcc>0.890790</hAcc><vAcc>0.721639</vAcc></extensions></trkpt>
      <trkpt lon="-4.155270" lat="53.009666"><ele>592.728394</ele><time>2021-07-17T12:28:43Z</time><extensions><speed>0.899156</speed><course>233.208801</course><hAcc>0.890849</hAcc><vAcc>0.721815</vAcc></extensions></trkpt>
      <trkpt lon="-4.155272" lat="53.009674"><ele>592.561890</ele><time>2021-07-17T12:28:44Z</time><extensions><speed>0.897448</speed><course>238.158752</course><hAcc>0.890895</hAcc><vAcc>0.721999</vAcc></extensions></trkpt>
      <trkpt lon="-4.155273" lat="53.009682"><ele>592.405945</ele><time>2021-07-17T12:28:45Z</time><extensions><speed>0.893982</speed><course>239.142517</course><hAcc>0.890945</hAcc><vAcc>0.722202</vAcc></extensions></trkpt>
      <trkpt lon="-4.155275" lat="53.009689"><ele>592.259521</ele><time>2021-07-17T12:28:46Z</time><extensions><speed>0.888079</speed><course>241.003922</course><hAcc>0.890997</hAcc><vAcc>0.722417</vAcc></extensions></trkpt>
      <trkpt lon="-4.155276" lat="53.009697"><ele>592.121277</ele><time>2021-07-17T12:28:47Z</time><extensions><speed>0.879187</speed><course>244.474228</course><hAcc>0.891048</hAcc><vAcc>0.722636</vAcc></extensions></trkpt>
      <trkpt lon="-4.155278" lat="53.009705"><ele>591.990051</ele><time>2021-07-17T12:28:48Z</time><extensions><speed>0.867164</speed><course>238.879150</course><hAcc>0.891097</hAcc><vAcc>0.722846</vAcc></extensions></trkpt>
      <trkpt lon="-4.155281" lat="53.009713"><ele>591.864807</ele><time>2021-07-17T12:28:49Z</time><extensions><speed>0.852456</speed><course>237.538528</course><hAcc>0.891141</hAcc><vAcc>0.723034</vAcc></extensions></trkpt>
      <trkpt lon="-4.155284" lat="53.009720"><ele>591.743774</ele><time>2021-07-17T12:28:50Z</time><extensions><speed>0.836164</speed><course>249.037552</course><hAcc>0.891179</hAcc><vAcc>0.723186</vAcc></extensions></trkpt>
      <trkpt lon="-4.155287" lat="53.009727"><ele>591.624756</ele><time>2021-07-17T12:28:51Z</time><extensions><speed>0.820346</speed><course>259.361603</course><hAcc>0.891207</hAcc><vAcc>0.723299</vAcc></extensions></trkpt>
      <trkpt lon="-4.155291" lat="53.009734"><ele>591.505554</ele><time>2021-07-17T12:28:52Z</time><extensions><speed>0.807358</speed><course>261.193176</course><hAcc>0.891225</hAcc><vAcc>0.723368</vAcc></extensions></trkpt>
      <trkpt lon="-4.155296" lat="53.009741"><ele>591.384766</ele><time>2021-07-17T12:28:53Z</time><extensions><speed>0.799316</speed><course>261.193146</course><hAcc>0.891230</hAcc><vAcc>0.723390</vAcc></extensions></trkpt>
      <trkpt lon="-4.155301" lat="53.009747"><ele>591.261536</ele><time>2021-07-17T12:28:54Z</time><extensions><speed>0.797655</speed><course>261.193146</course><hAcc>0.891222</hAcc><vAcc>0.723364</vAcc></extensions></trkpt>
      <trkpt lon="-4.155308" lat="53.009753"><ele>591.134949</ele><time>2021-07-17T12:28:55Z</time><extensions><speed>0.802460</speed><course>261.193146</course><hAcc>0.891200</hAcc><vAcc>0.723290</vAcc></extensions></trkpt>
      <trkpt lon="-4.155315" lat="53.009759"><ele>591.003479</ele><time>2021-07-17T12:28:56Z</time><extensions><speed>0.812945</speed><course>261.193146</course><hAcc>0.891166</hAcc><vAcc>0.723172</vAcc></extensions></trkpt>
      <trkpt lon="-4.155324" lat="53.009764"><ele>590.866028</ele><time>2021-07-17T12:28:57Z</time><extensions><speed>0.827832</speed><course>261.193146</course><hAcc>0.891119</hAcc><vAcc>0.723010</vAcc></extensions></trkpt>
      <trkpt lon="-4.155333" lat="53.009769"><ele>590.722351</ele><time>2021-07-17T12:28:58Z</time><extensions><speed>0.845408</speed><course>261.193146</course><hAcc>0.891062</hAcc><vAcc>0.722808</vAcc></extensions></trkpt>
      <trkpt lon="-4.155342" lat="53.009774"><ele>590.571777</ele><time>2021-07-17T12:28:59Z</time><extensions><speed>0.863945</speed><course>261.193146</course><hAcc>0.890997</hAcc><vAcc>0.722574</vAcc></extensions></trkpt>
      <trkpt lon="-4.155353" lat="53.009779"><ele>590.413879</ele><time>2021-07-17T12:29:00Z</time><extensions><speed>0.882170</speed><course>261.193146</course><hAcc>0.890926</hAcc><vAcc>0.722317</vAcc></extensions></trkpt>
      <trkpt lon="-4.155363" lat="53.009784"><ele>590.248169</ele><time>2021-07-17T12:29:01Z</time><extensions><speed>0.898991</speed><course>234.852402</course><hAcc>0.890853</hAcc><vAcc>0.722045</vAcc></extensions></trkpt>
      <trkpt lon="-4.155374" lat="53.009789"><ele>590.074707</ele><time>2021-07-17T12:29:02Z</time><extensions><speed>0.913532</speed><course>215.025620</course><hAcc>0.890780</hAcc><vAcc>0.721772</vAcc></extensions></trkpt>
      <trkpt lon="-4.155386" lat="53.009793"><ele>589.893555</ele><time>2021-07-17T12:29:03Z</time><extensions><speed>0.925549</speed><course>206.872131</course><hAcc>0.890710</hAcc><vAcc>0.721512</vAcc></extensions></trkpt>
      <trkpt lon="-4.155397" lat="53.009798"><ele>589.704590</ele><time>2021-07-17T12:29:04Z</time><extensions><speed>0.935155</speed><course>205.862991</course><hAcc>0.890647</hAcc><vAcc>0.721278</vAcc></extensions></trkpt>
      <trkpt lon="-4.155409" lat="53.009803"><ele>589.508240</ele><time>2021-07-17T12:29:05Z</time><extensions><speed>0.942569</speed><course>205.862976</course><hAcc>0.890592</hAcc><vAcc>0.721080</vAcc></extensions></trkpt>
      <trkpt lon="-4.155420" lat="53.009808"><ele>589.305359</ele><time>2021-07-17T12:29:06Z</time><extensions><speed>0.948007</speed><course>234.677673</course><hAcc>0.890548</hAcc><vAcc>0.720926</vAcc></extensions></trkpt>
      <trkpt lon="-4.155431" lat="53.009813"><ele>589.097290</ele><time>2021-07-17T12:29:07Z</time><extensions><speed>0.951643</speed><course>246.321655</course><hAcc>0.890516</hAcc><vAcc>0.720822</vAcc></extensions></trkpt>
      <trkpt lon="-4.155443" lat="53.009818"><ele>588.885376</ele><time>2021-07-17T12:29:08Z</time><extensions><speed>0.954186</speed><course>256.732239</course><hAcc>0.890498</hAcc><vAcc>0.720771</vAcc></extensions></trkpt>
      <trkpt lon="-4.155454" lat="53.009824"><ele>588.671631</ele><time>2021-07-17T12:29:09Z</time><extensions><speed>0.956737</speed><course>257.461731</course><hAcc>0.890492</hAcc><vAcc>0.720775</vAcc></extensions></trkpt>
      <trkpt lon="-4.155464" lat="53.009829"><ele>588.458557</ele><time>2021-07-17T12:29:10Z</time><extensions><speed>0.959982</speed><course>256.219269</course><hAcc>0.890496</hAcc><vAcc>0.720833</vAcc></extensions></trkpt>
      <trkpt lon="-4.155475" lat="53.009835"><ele>588.249146</ele><time>2021-07-17T12:29:11Z</time><extensions><speed>0.964356</speed><course>253.669510</course><hAcc>0.890527</hAcc><vAcc>0.720955</vAcc></extensions></trkpt>
      <trkpt lon="-4.155485" lat="53.009841"><ele>588.045715</ele><time>2021-07-17T12:29:12Z</time><extensions><speed>0.970292</speed><course>253.907227</course><hAcc>0.890580</hAcc><vAcc>0.721137</vAcc></extensions></trkpt>
      <trkpt lon="-4.155496" lat="53.009847"><ele>587.850952</ele><time>2021-07-17T12:29:13Z</time><extensions><speed>0.978140</speed><course>260.189209</course><hAcc>0.890636</hAcc><vAcc>0.721355</vAcc></extensions></trkpt>
      <trkpt lon="-4.155506" lat="53.009853"><ele>587.667175</ele><time>2021-07-17T12:29:14Z</time><extensions><speed>0.988126</speed><course>263.253174</course><hAcc>0.890689</hAcc><vAcc>0.721595</vAcc></extensions></trkpt>
      <trkpt lon="-4.155517" lat="53.009860"><ele>587.495605</ele><time>2021-07-17T12:29:15Z</time><extensions><speed>1.000201</speed><course>264.349060</course><hAcc>0.890738</hAcc><vAcc>0.721833</vAcc></extensions></trkpt>
      <trkpt lon="-4.155527" lat="53.009866"><ele>587.336304</ele><time>2021-07-17T12:29:16Z</time><extensions><speed>1.013907</speed><course>258.002991</course><hAcc>0.890780</hAcc><vAcc>0.722045</vAcc></extensions></trkpt>
      <trkpt lon="-4.155538" lat="53.009872"><ele>587.188538</ele><time>2021-07-17T12:29:17Z</time><extensions><speed>1.028728</speed><course>264.832825</course><hAcc>0.890813</hAcc><vAcc>0.722204</vAcc></extensions></trkpt>
      <trkpt lon="-4.155549" lat="53.009879"><ele>587.050659</ele><time>2021-07-17T12:29:18Z</time><extensions><speed>1.044771</speed><course>262.654938</course><hAcc>0.890836</hAcc><vAcc>0.722291</vAcc></extensions></trkpt>
      <trkpt lon="-4.155560" lat="53.009886"><ele>586.920715</ele><time>2021-07-17T12:29:19Z</time><extensions><speed>1.062138</speed><course>262.654938</course><hAcc>0.890847</hAcc><vAcc>0.722299</vAcc></extensions></trkpt>
      <trkpt lon="-4.155572" lat="53.009892"><ele>586.796692</ele><time>2021-07-17T12:29:20Z</time><extensions><speed>1.079933</speed><course>262.654938</course><hAcc>0.890846</hAcc><vAcc>0.722239</vAcc></extensions></trkpt>
      <trkpt lon="-4.155583" lat="53.009899"><ele>586.676819</ele><time>2021-07-17T12:29:21Z</time><extensions><speed>1.096837</speed><course>262.654938</course><hAcc>0.890831</hAcc><vAcc>0.722130</vAcc></extensions></trkpt>
      <trkpt lon="-4.155595" lat="53.009906"><ele>586.560120</ele><time>2021-07-17T12:29:22Z</time><extensions><speed>1.111967</speed><course>262.654938</course><hAcc>0.890804</hAcc><vAcc>0.721992</vAcc></extensions></trkpt>
      <trkpt lon="-4.155607" lat="53.009913"><ele>586.445862</ele><time>2021-07-17T12:29:23Z</time><extensions><speed>1.124946</speed><course>262.654938</course><hAcc>0.890764</hAcc><vAcc>0.721840</vAcc></extensions></trkpt>
      <trkpt lon="-4.155620" lat="53.009920"><ele>586.333557</ele><time>2021-07-17T12:29:24Z</time><extensions><speed>1.135716</speed><course>262.654938</course><hAcc>0.890716</hAcc><vAcc>0.721682</vAcc></extensions></trkpt>
      <trkpt lon="-4.155632" lat="53.009927"><ele>586.222717</ele><time>2021-07-17T12:29:24Z</time><extensions><speed>1.144410</speed><course>262.654938</course><hAcc>0.890680</hAcc><vAcc>0.721535</vAcc></extensions></trkpt>
      <trkpt lon="-4.155645" lat="53.009934"><ele>586.112610</ele><time>2021-07-17T12:29:25Z</time><extensions><speed>1.151312</speed><course>262.654938</course><hAcc>0.890660</hAcc><vAcc>0.721400</vAcc></extensions></trkpt>
      <trkpt lon="-4.155658" lat="53.009940"><ele>586.002869</ele><time>2021-07-17T12:29:26Z</time><extensions><speed>1.156486</speed><course>262.654938</course><hAcc>0.890643</hAcc><vAcc>0.721273</vAcc></extensions></trkpt>
      <trkpt lon="-4.155671" lat="53.009947"><ele>585.893494</ele><time>2021-07-17T12:29:27Z</time><extensions><speed>1.159756</speed><course>262.654938</course><hAcc>0.890632</hAcc><vAcc>0.721162</vAcc></extensions></trkpt>
      <trkpt lon="-4.155684" lat="53.009954"><ele>585.783936</ele><time>2021-07-17T12:29:29Z</time><extensions><speed>1.160936</speed><course>262.654938</course><hAcc>0.890612</hAcc><vAcc>0.721065</vAcc></extensions></trkpt>
      <trkpt lon="-4.155697" lat="53.009961"><ele>585.674011</ele><time>2021-07-17T12:29:30Z</time><extensions><speed>1.159937</speed><course>262.654938</course><hAcc>0.890585</hAcc><vAcc>0.720991</vAcc></extensions></trkpt>
      <trkpt lon="-4.155710" lat="53.009968"><ele>585.563538</ele><time>2021-07-17T12:29:31Z</time><extensions><speed>1.156466</speed><course>262.654938</course><hAcc>0.890570</hAcc><vAcc>0.720957</vAcc></extensions></trkpt>
      <trkpt lon="-4.155723" lat="53.009974"><ele>585.452881</ele><time>2021-07-17T12:29:32Z</time><extensions><speed>1.150504</speed><course>262.654938</course><hAcc>0.890568</hAcc><vAcc>0.720965</vAcc></extensions></trkpt>
      <trkpt lon="-4.155736" lat="53.009981"><ele>585.341858</ele><time>2021-07-17T12:29:33Z</time><extensions><speed>1.142076</speed><course>262.654938</course><hAcc>0.890580</hAcc><vAcc>0.721012</vAcc></extensions></trkpt>
      <trkpt lon="-4.155748" lat="53.009988"><ele>585.229797</ele><time>2021-07-17T12:29:34Z</time><extensions><speed>1.130965</speed><course>262.654938</course><hAcc>0.890605</hAcc><vAcc>0.721098</vAcc></extensions></trkpt>
      <trkpt lon="-4.155760" lat="53.009995"><ele>585.116028</ele><time>2021-07-17T12:29:35Z</time><extensions><speed>1.117462</speed><course>262.654938</course><hAcc>0.890644</hAcc><vAcc>0.721220</vAcc></extensions></trkpt>
      <trkpt lon="-4.155772" lat="53.010002"><ele>585.000183</ele><time>2021-07-17T12:29:36Z</time><extensions><speed>1.102453</speed><course>262.654938</course><hAcc>0.890695</hAcc><vAcc>0.721378</vAcc></extensions></trkpt>
      <trkpt lon="-4.155783" lat="53.010010"><ele>584.881592</ele><time>2021-07-17T12:29:37Z</time><extensions><speed>1.087076</speed><course>262.654938</course><hAcc>0.890756</hAcc><vAcc>0.721576</vAcc></extensions></trkpt>
      <trkpt lon="-4.155793" lat="53.010017"><ele>584.759338</ele><time>2021-07-17T12:29:38Z</time><extensions><speed>1.072603</speed><course>262.654938</course><hAcc>0.890826</hAcc><vAcc>0.721814</vAcc></extensions></trkpt>
      <trkpt lon="-4.155802" lat="53.010025"><ele>584.632385</ele><time>2021-07-17T12:29:39Z</time><extensions><speed>1.060483</speed><course>262.654938</course><hAcc>0.890901</hAcc><vAcc>0.722088</vAcc></extensions></trkpt>
      <trkpt lon="-4.155811" lat="53.010033"><ele>584.500366</ele><time>2021-07-17T12:29:40Z</time><extensions><speed>1.052342</speed><course>262.654938</course><hAcc>0.890977</hAcc><vAcc>0.722388</vAcc></extensions></trkpt>
      <trkpt lon="-4.155819" lat="53.010041"><ele>584.363342</ele><time>2021-07-17T12:29:41Z</time><extensions><speed>1.049773</speed><course>262.654938</course><hAcc>0.891052</hAcc><vAcc>0.722695</vAcc></extensions></trkpt>
      <trkpt lon="-4.155826" lat="53.010049"><ele>584.221436</ele><time>2021-07-17T12:29:42Z</time><extensions><speed>1.053551</speed><course>262.654938</course><hAcc>0.891121</hAcc><vAcc>0.722990</vAcc></extensions></trkpt>
      <trkpt lon="-4.155832" lat="53.010058"><ele>584.074585</ele><time>2021-07-17T12:29:43Z</time><extensions><speed>1.063349</speed><course>262.654938</course><hAcc>0.891182</hAcc><vAcc>0.723254</vAcc></extensions></trkpt>
      <trkpt lon="-4.155838" lat="53.010067"><ele>583.922974</ele><time>2021-07-17T12:29:44Z</time><extensions><speed>1.078214</speed><course>262.654938</course><hAcc>0.891230</hAcc><vAcc>0.723468</vAcc></extensions></trkpt>
      <trkpt lon="-4.155843" lat="53.010076"><ele>583.766541</ele><time>2021-07-17T12:29:45Z</time><extensions><speed>1.096732</speed><course>262.654938</course><hAcc>0.891264</hAcc><vAcc>0.723617</vAcc></extensions></trkpt>
      <trkpt lon="-4.155848" lat="53.010086"><ele>583.605042</ele><time>2021-07-17T12:29:46Z</time><extensions><speed>1.117123</speed><course>262.654938</course><hAcc>0.891280</hAcc><vAcc>0.723688</vAcc></extensions></trkpt>
      <trkpt lon="-4.155853" lat="53.010096"><ele>583.438721</ele><time>2021-07-17T12:29:47Z</time><extensions><speed>1.137577</speed><course>262.654938</course><hAcc>0.891278</hAcc><vAcc>0.723676</vAcc></extensions></trkpt>
      <trkpt lon="-4.155858" lat="53.010105"><ele>583.267578</ele><time>2021-07-17T12:29:48Z</time><extensions><speed>1.156659</speed><course>262.654938</course><hAcc>0.891257</hAcc><vAcc>0.723583</vAcc></extensions></trkpt>
      <trkpt lon="-4.155862" lat="53.010116"><ele>583.091553</ele><time>2021-07-17T12:29:49Z</time><extensions><speed>1.173536</speed><course>262.654938</course><hAcc>0.891219</hAcc><vAcc>0.723417</vAcc></extensions></trkpt>
      <trkpt lon="-4.155867" lat="53.010126"><ele>582.910767</ele><time>2021-07-17T12:29:50Z</time><extensions><speed>1.187550</speed><course>262.654938</course><hAcc>0.891165</hAcc><vAcc>0.723193</vAcc></extensions></trkpt>
      <trkpt lon="-4.155871" lat="53.010136"><ele>582.726379</ele><time>2021-07-17T12:29:51Z</time><extensions><speed>1.198183</speed><course>262.654938</course><hAcc>0.891098</hAcc><vAcc>0.722923</vAcc></extensions></trkpt>
      <trkpt lon="-4.155876" lat="53.010147"><ele>582.540527</ele><time>2021-07-17T12:29:52Z</time><extensions><speed>1.205293</speed><course>262.654938</course><hAcc>0.891022</hAcc><vAcc>0.722625</vAcc></extensions></trkpt>
      <trkpt lon="-4.155881" lat="53.010157"><ele>582.355164</ele><time>2021-07-17T12:29:53Z</time><extensions><speed>1.209169</speed><course>262.654938</course><hAcc>0.890941</hAcc><vAcc>0.722314</vAcc></extensions></trkpt>
      <trkpt lon="-4.155887" lat="53.010167"><ele>582.170959</ele><time>2021-07-17T12:29:54Z</time><extensions><speed>1.210658</speed><course>262.654938</course><hAcc>0.890859</hAcc><vAcc>0.722005</vAcc></extensions></trkpt>
      <trkpt lon="-4.155892" lat="53.010178"><ele>581.988220</ele><time>2021-07-17T12:29:55Z</time><extensions><speed>1.210852</speed><course>262.654938</course><hAcc>0.890783</hAcc><vAcc>0.721709</vAcc></extensions></trkpt>
      <trkpt lon="-4.155898" lat="53.010188"><ele>581.807068</ele><time>2021-07-17T12:29:56Z</time><extensions><speed>1.210529</speed><course>262.654938</course><hAcc>0.890715</hAcc><vAcc>0.721439</vAcc></extensions></trkpt>
      <trkpt lon="-4.155904" lat="53.010198"><ele>581.627441</ele><time>2021-07-17T12:29:57Z</time><extensions><speed>1.209961</speed><course>262.654938</course><hAcc>0.890659</hAcc><vAcc>0.721213</vAcc></extensions></trkpt>
      <trkpt lon="-4.155910" lat="53.010208"><ele>581.449585</ele><time>2021-07-17T12:29:58Z</time><extensions><speed>1.209357</speed><course>262.654938</course><hAcc>0.890617</hAcc><vAcc>0.721046</vAcc></extensions></trkpt>
      <trkpt lon="-4.155917" lat="53.010219"><ele>581.274048</ele><time>2021-07-17T12:29:59Z</time><extensions><speed>1.209280</speed><course>262.654938</course><hAcc>0.890591</hAcc><vAcc>0.720949</vAcc></extensions></trkpt>
      <trkpt lon="-4.155923" lat="53.010229"><ele>581.101257</ele><time>2021-07-17T12:30:00Z</time><extensions><speed>1.210514</speed><course>262.654938</course><hAcc>0.890580</hAcc><vAcc>0.720927</vAcc></extensions></trkpt>
      <trkpt lon="-4.155930" lat="53.010239"><ele>580.931641</ele><time>2021-07-17T12:30:01Z</time><extensions><speed>1.213745</speed><course>262.654938</course><hAcc>0.890583</hAcc><vAcc>0.720975</vAcc></extensions></trkpt>
      <trkpt lon="-4.155936" lat="53.010249"><ele>580.766479</ele><time>2021-07-17T12:30:02Z</time><extensions><speed>1.219232</speed><course>262.654938</course><hAcc>0.890600</hAcc><vAcc>0.721083</vAcc></extensions></trkpt>
      <trkpt lon="-4.155943" lat="53.010259"><ele>580.607239</ele><time>2021-07-17T12:30:03Z</time><extensions><speed>1.227167</speed><course>262.654938</course><hAcc>0.890627</hAcc><vAcc>0.721234</vAcc></extensions></trkpt>
      <trkpt lon="-4.155949" lat="53.010270"><ele>580.455078</ele><time>2021-07-17T12:30:04Z</time><extensions><speed>1.237779</speed><course>262.654938</course><hAcc>0.890663</hAcc><vAcc>0.721413</vAcc></extensions></trkpt>
      <trkpt lon="-4.155956" lat="53.010280"><ele>580.311279</ele><time>2021-07-17T12:30:05Z</time><extensions><speed>1.250923</speed><course>262.654938</course><hAcc>0.890704</hAcc><vAcc>0.721601</vAcc></extensions></trkpt>
      <trkpt lon="-4.155962" lat="53.010291"><ele>580.177368</ele><time>2021-07-17T12:30:06Z</time><extensions><speed>1.266355</speed><course>262.654938</course><hAcc>0.890747</hAcc><vAcc>0.721780</vAcc></extensions></trkpt>
      <trkpt lon="-4.155968" lat="53.010302"><ele>580.055054</ele><time>2021-07-17T12:30:07Z</time><extensions><speed>1.283392</speed><course>262.654938</course><hAcc>0.890790</hAcc><vAcc>0.721937</vAcc></extensions></trkpt>
      <trkpt lon="-4.155974" lat="53.010313"><ele>579.945740</ele><time>2021-07-17T12:30:08Z</time><extensions><speed>1.301177</speed><course>262.654938</course><hAcc>0.890829</hAcc><vAcc>0.722065</vAcc></extensions></trkpt>
      <trkpt lon="-4.155981" lat="53.010324"><ele>579.849854</ele><time>2021-07-17T12:30:09Z</time><extensions><speed>1.319164</speed><course>262.654938</course><hAcc>0.890862</hAcc><vAcc>0.722163</vAcc></extensions></trkpt>
      <trkpt lon="-4.155988" lat="53.010335"><ele>579.767822</ele><time>2021-07-17T12:30:10Z</time><extensions><speed>1.336767</speed><course>262.654938</course><hAcc>0.890888</hAcc><vAcc>0.722232</vAcc></extensions></trkpt>
      <trkpt lon="-4.155995" lat="53.010346"><ele>579.699951</ele><time>2021-07-17T12:30:11Z</time><extensions><speed>1.353605</speed><course>262.654938</course><hAcc>0.890904</hAcc><vAcc>0.722277</vAcc></extensions></trkpt>
      <trkpt lon="-4.156002" lat="53.010358"><ele>579.645630</ele><time>2021-07-17T12:30:12Z</time><extensions><speed>1.369428</speed><course>262.654938</course><hAcc>0.890911</hAcc><vAcc>0.722298</vAcc></extensions></trkpt>
      <trkpt lon="-4.156010" lat="53.010369"><ele>579.603699</ele><time>2021-07-17T12:30:13Z</time><extensions><speed>1.383850</speed><course>262.654938</course><hAcc>0.890908</hAcc><vAcc>0.722293</vAcc></extensions></trkpt>
      <trkpt lon="-4.156018" lat="53.010381"><ele>579.572815</ele><time>2021-07-17T12:30:14Z</time><extensions><speed>1.396466</speed><course>262.654938</course><hAcc>0.890898</hAcc><vAcc>0.722259</vAcc></extensions></trkpt>
      <trkpt lon="-4.156026" lat="53.010392"><ele>579.551514</ele><time>2021-07-17T12:30:15Z</time><extensions><speed>1.406992</speed><course>209.646423</course><hAcc>0.890880</hAcc><vAcc>0.722197</vAcc></extensions></trkpt>
      <trkpt lon="-4.156034" lat="53.010404"><ele>579.537415</ele><time>2021-07-17T12:30:16Z</time><extensions><speed>1.415334</speed><course>207.502853</course><hAcc>0.890857</hAcc><vAcc>0.722108</vAcc></extensions></trkpt>
      <trkpt lon="-4.156043" lat="53.010416"><ele>579.528137</ele><time>2021-07-17T12:30:17Z</time><extensions><speed>1.421447</speed><course>210.649872</course><hAcc>0.890830</hAcc><vAcc>0.721999</vAcc></extensions></trkpt>
      <trkpt lon="-4.156052" lat="53.010427"><ele>579.521606</ele><time>2021-07-17T12:30:18Z</time><extensions><speed>1.425366</speed><course>218.307190</course><hAcc>0.890801</hAcc><vAcc>0.721875</vAcc></extensions></trkpt>
      <trkpt lon="-4.156061" lat="53.010439"><ele>579.515869</ele><time>2021-07-17T12:30:19Z</time><extensions><speed>1.427247</speed><course>221.774033</course><hAcc>0.890772</hAcc><vAcc>0.721744</vAcc></extensions></trkpt>
      <trkpt lon="-4.156071" lat="53.010450"><ele>579.509155</ele><time>2021-07-17T12:30:20Z</time><extensions><speed>1.427215</speed><course>225.071381</course><hAcc>0.890745</hAcc><vAcc>0.721618</vAcc></extensions></trkpt>
      <trkpt lon="-4.156080" lat="53.010462"><ele>579.500061</ele><time>2021-07-17T12:30:21Z</time><extensions><speed>1.425344</speed><course>229.682953</course><hAcc>0.890721</hAcc><vAcc>0.721506</vAcc></extensions></trkpt>
      <trkpt lon="-4.156090" lat="53.010473"><ele>579.487366</ele><time>2021-07-17T12:30:22Z</time><extensions><speed>1.421805</speed><course>228.187271</course><hAcc>0.890703</hAcc><vAcc>0.721416</vAcc></extensions></trkpt>
      <trkpt lon="-4.156100" lat="53.010484"><ele>579.470093</ele><time>2021-07-17T12:30:23Z</time><extensions><speed>1.416846</speed><course>224.821243</course><hAcc>0.890692</hAcc><vAcc>0.721352</vAcc></extensions></trkpt>
      <trkpt lon="-4.156110" lat="53.010495"><ele>579.447815</ele><time>2021-07-17T12:30:24Z</time><extensions><speed>1.410644</speed><course>222.757462</course><hAcc>0.890690</hAcc><vAcc>0.721319</vAcc></extensions></trkpt>
      <trkpt lon="-4.156120" lat="53.010506"><ele>579.419983</ele><time>2021-07-17T12:30:25Z</time><extensions><speed>1.403175</speed><course>223.047150</course><hAcc>0.890697</hAcc><vAcc>0.721318</vAcc></extensions></trkpt>
      <trkpt lon="-4.156131" lat="53.010517"><ele>579.386414</ele><time>2021-07-17T12:30:26Z</time><extensions><speed>1.394310</speed><course>218.695862</course><hAcc>0.890712</hAcc><vAcc>0.721350</vAcc></extensions></trkpt>
      <trkpt lon="-4.156142" lat="53.010528"><ele>579.347046</ele><time>2021-07-17T12:30:27Z</time><extensions><speed>1.383975</speed><course>216.351273</course><hAcc>0.890718</hAcc><vAcc>0.721401</vAcc></extensions></trkpt>
      <trkpt lon="-4.156152" lat="53.010538"><ele>579.302002</ele><time>2021-07-17T12:30:28Z</time><extensions><speed>1.372170</speed><course>219.658188</course><hAcc>0.890712</hAcc><vAcc>0.721463</vAcc></extensions></trkpt>
      <trkpt lon="-4.156163" lat="53.010549"><ele>579.251038</ele><time>2021-07-17T12:30:29Z</time><extensions><speed>1.358793</speed><course>221.748871</course><hAcc>0.890711</hAcc><vAcc>0.721537</vAcc></extensions></trkpt>
      <trkpt lon="-4.156175" lat="53.010559"><ele>579.194580</ele><time>2021-07-17T12:30:30Z</time><extensions><speed>1.343740</speed><course>225.723022</course><hAcc>0.890712</hAcc><vAcc>0.721606</vAcc></extensions></trkpt>
      <trkpt lon="-4.156186" lat="53.010569"><ele>579.132935</ele><time>2021-07-17T12:30:31Z</time><extensions><speed>1.326762</speed><course>227.303833</course><hAcc>0.890714</hAcc><vAcc>0.721656</vAcc></extensions></trkpt>
      <trkpt lon="-4.156198" lat="53.010578"><ele>579.065857</ele><time>2021-07-17T12:30:32Z</time><extensions><speed>1.307455</speed><course>225.742310</course><hAcc>0.890715</hAcc><vAcc>0.721679</vAcc></extensions></trkpt>
      <trkpt lon="-4.156209" lat="53.010587"><ele>578.993103</ele><time>2021-07-17T12:30:33Z</time><extensions><speed>1.285310</speed><course>225.742310</course><hAcc>0.890714</hAcc><vAcc>0.721672</vAcc></extensions></trkpt>
      <trkpt lon="-4.156221" lat="53.010596"><ele>578.914551</ele><time>2021-07-17T12:30:34Z</time><extensions><speed>1.259668</speed><course>225.742325</course><hAcc>0.890710</hAcc><vAcc>0.721640</vAcc></extensions></trkpt>
      <trkpt lon="-4.156232" lat="53.010605"><ele>578.830261</ele><time>2021-07-17T12:30:35Z</time><extensions><speed>1.230233</speed><course>225.742325</course><hAcc>0.890703</hAcc><vAcc>0.721589</vAcc></extensions></trkpt>
      <trkpt lon="-4.156244" lat="53.010614"><ele>578.740051</ele><time>2021-07-17T12:30:36Z</time><extensions><speed>1.197157</speed><course>225.742325</course><hAcc>0.890695</hAcc><vAcc>0.721527</vAcc></extensions></trkpt>
      <trkpt lon="-4.156254" lat="53.010622"><ele>578.643677</ele><time>2021-07-17T12:30:37Z</time><extensions><speed>1.160861</speed><course>224.360504</course><hAcc>0.890685</hAcc><vAcc>0.721463</vAcc></extensions></trkpt>
      <trkpt lon="-4.156265" lat="53.010630"><ele>578.540527</ele><time>2021-07-17T12:30:38Z</time><extensions><speed>1.122209</speed><course>231.374908</course><hAcc>0.890676</hAcc><vAcc>0.721407</vAcc></extensions></trkpt>
      <trkpt lon="-4.156274" lat="53.010638"><ele>578.430115</ele><time>2021-07-17T12:30:39Z</time><extensions><speed>1.082559</speed><course>226.234039</course><hAcc>0.890669</hAcc><vAcc>0.721366</vAcc></extensions></trkpt>
      <trkpt lon="-4.156284" lat="53.010646"><ele>578.312805</ele><time>2021-07-17T12:30:40Z</time><extensions><speed>1.043625</speed><course>228.443588</course><hAcc>0.890665</hAcc><vAcc>0.721345</vAcc></extensions></trkpt>
      <trkpt lon="-4.156292" lat="53.010654"><ele>578.189392</ele><time>2021-07-17T12:30:41Z</time><extensions><speed>1.007262</speed><course>217.150848</course><hAcc>0.890665</hAcc><vAcc>0.721346</vAcc></extensions></trkpt>
      <trkpt lon="-4.156300" lat="53.010661"><ele>578.060974</ele><time>2021-07-17T12:30:42Z</time><extensions><speed>0.975101</speed><course>214.670395</course><hAcc>0.890670</hAcc><vAcc>0.721368</vAcc></extensions></trkpt>
      <trkpt lon="-4.156307" lat="53.010669"><ele>577.928833</ele><time>2021-07-17T12:30:43Z</time><extensions><speed>0.948644</speed><course>219.066208</course><hAcc>0.890680</hAcc><vAcc>0.721410</vAcc></extensions></trkpt>
      <trkpt lon="-4.156314" lat="53.010676"><ele>577.794495</ele><time>2021-07-17T12:30:44Z</time><extensions><speed>0.929225</speed><course>218.042282</course><hAcc>0.890695</hAcc><vAcc>0.721471</vAcc></extensions></trkpt>
      <trkpt lon="-4.156321" lat="53.010683"><ele>577.659058</ele><time>2021-07-17T12:30:45Z</time><extensions><speed>0.917397</speed><course>220.994385</course><hAcc>0.890715</hAcc><vAcc>0.721547</vAcc></extensions></trkpt>
      <trkpt lon="-4.156328" lat="53.010691"><ele>577.524353</ele><time>2021-07-17T12:30:46Z</time><extensions><speed>0.912901</speed><course>227.746307</course><hAcc>0.890737</hAcc><vAcc>0.721638</vAcc></extensions></trkpt>
      <trkpt lon="-4.156334" lat="53.010698"><ele>577.392517</ele><time>2021-07-17T12:30:47Z</time><extensions><speed>0.914871</speed><course>224.855316</course><hAcc>0.890761</hAcc><vAcc>0.721737</vAcc></extensions></trkpt>
      <trkpt lon="-4.156341" lat="53.010705"><ele>577.265503</ele><time>2021-07-17T12:30:48Z</time><extensions><speed>0.922196</speed><course>223.584900</course><hAcc>0.890787</hAcc><vAcc>0.721840</vAcc></extensions></trkpt>
      <trkpt lon="-4.156348" lat="53.010712"><ele>577.144714</ele><time>2021-07-17T12:30:49Z</time><extensions><speed>0.933913</speed><course>224.383530</course><hAcc>0.890814</hAcc><vAcc>0.721940</vAcc></extensions></trkpt>
      <trkpt lon="-4.156355" lat="53.010719"><ele>577.031372</ele><time>2021-07-17T12:30:50Z</time><extensions><speed>0.949174</speed><course>225.716217</course><hAcc>0.890841</hAcc><vAcc>0.722034</vAcc></extensions></trkpt>
      <trkpt lon="-4.156362" lat="53.010727"><ele>576.926575</ele><time>2021-07-17T12:30:51Z</time><extensions><speed>0.967075</speed><course>229.189102</course><hAcc>0.890867</hAcc><vAcc>0.722118</vAcc></extensions></trkpt>
      <trkpt lon="-4.156369" lat="53.010734"><ele>576.830688</ele><time>2021-07-17T12:30:52Z</time><extensions><speed>0.986633</speed><course>224.817474</course><hAcc>0.890893</hAcc><vAcc>0.722192</vAcc></extensions></trkpt>
      <trkpt lon="-4.156377" lat="53.010742"><ele>576.743530</ele><time>2021-07-17T12:30:53Z</time><extensions><speed>1.006879</speed><course>225.227936</course><hAcc>0.890919</hAcc><vAcc>0.722258</vAcc></extensions></trkpt>
      <trkpt lon="-4.156384" lat="53.010750"><ele>576.664551</ele><time>2021-07-17T12:30:54Z</time><extensions><speed>1.026915</speed><course>228.251373</course><hAcc>0.890945</hAcc><vAcc>0.722322</vAcc></extensions></trkpt>
      <trkpt lon="-4.156392" lat="53.010758"><ele>576.592773</ele><time>2021-07-17T12:30:55Z</time><extensions><speed>1.046074</speed><course>230.721024</course><hAcc>0.890970</hAcc><vAcc>0.722388</vAcc></extensions></trkpt>
      <trkpt lon="-4.156400" lat="53.010766"><ele>576.527161</ele><time>2021-07-17T12:30:56Z</time><extensions><speed>1.063894</speed><course>234.697540</course><hAcc>0.890996</hAcc><vAcc>0.722459</vAcc></extensions></trkpt>
      <trkpt lon="-4.156407" lat="53.010775"><ele>576.466736</ele><time>2021-07-17T12:30:57Z</time><extensions><speed>1.079967</speed><course>236.619934</course><hAcc>0.891023</hAcc><vAcc>0.722535</vAcc></extensions></trkpt>
      <trkpt lon="-4.156415" lat="53.010784"><ele>576.410461</ele><time>2021-07-17T12:30:58Z</time><extensions><speed>1.094277</speed><course>247.542679</course><hAcc>0.891050</hAcc><vAcc>0.722616</vAcc></extensions></trkpt>
      <trkpt lon="-4.156422" lat="53.010792"><ele>576.357544</ele><time>2021-07-17T12:30:59Z</time><extensions><speed>1.107486</speed><course>242.855072</course><hAcc>0.891077</hAcc><vAcc>0.722705</vAcc></extensions></trkpt>
      <trkpt lon="-4.156429" lat="53.010802"><ele>576.307373</ele><time>2021-07-17T12:31:00Z</time><extensions><speed>1.120386</speed><course>241.397278</course><hAcc>0.891102</hAcc><vAcc>0.722800</vAcc></extensions></trkpt>
      <trkpt lon="-4.156436" lat="53.010811"><ele>576.259583</ele><time>2021-07-17T12:31:01Z</time><extensions><speed>1.133319</speed><course>241.667068</course><hAcc>0.891125</hAcc><vAcc>0.722902</vAcc></extensions></trkpt>
      <trkpt lon="-4.156443" lat="53.010820"><ele>576.213684</ele><time>2021-07-17T12:31:02Z</time><extensions><speed>1.146171</speed><course>241.132874</course><hAcc>0.891143</hAcc><vAcc>0.723002</vAcc></extensions></trkpt>
      <trkpt lon="-4.156449" lat="53.010830"><ele>576.169189</ele><time>2021-07-17T12:31:03Z</time><extensions><speed>1.158529</speed><course>242.509506</course><hAcc>0.891155</hAcc><vAcc>0.723090</vAcc></extensions></trkpt>
      <trkpt lon="-4.156455" lat="53.010840"><ele>576.125793</ele><time>2021-07-17T12:31:04Z</time><extensions><speed>1.170050</speed><course>242.195404</course><hAcc>0.891160</hAcc><vAcc>0.723151</vAcc></extensions></trkpt>
      <trkpt lon="-4.156462" lat="53.010849"><ele>576.083008</ele><time>2021-07-17T12:31:05Z</time><extensions><speed>1.180291</speed><course>244.443573</course><hAcc>0.891157</hAcc><vAcc>0.723172</vAcc></extensions></trkpt>
      <trkpt lon="-4.156468" lat="53.010859"><ele>576.040710</ele><time>2021-07-17T12:31:06Z</time><extensions><speed>1.188681</speed><course>246.780472</course><hAcc>0.891146</hAcc><vAcc>0.723145</vAcc></extensions></trkpt>
      <trkpt lon="-4.156474" lat="53.010869"><ele>575.998718</ele><time>2021-07-17T12:31:07Z</time><extensions><speed>1.194748</speed><course>247.423477</course><hAcc>0.891124</hAcc><vAcc>0.723070</vAcc></extensions></trkpt>
      <trkpt lon="-4.156481" lat="53.010879"><ele>575.956787</ele><time>2021-07-17T12:31:08Z</time><extensions><speed>1.197806</speed><course>252.345490</course><hAcc>0.891092</hAcc><vAcc>0.722950</vAcc></extensions></trkpt>
      <trkpt lon="-4.156487" lat="53.010889"><ele>575.915466</ele><time>2021-07-17T12:31:09Z</time><extensions><speed>1.197303</speed><course>252.366760</course><hAcc>0.891051</hAcc><vAcc>0.722792</vAcc></extensions></trkpt>
      <trkpt lon="-4.156494" lat="53.010899"><ele>575.875854</ele><time>2021-07-17T12:31:10Z</time><extensions><speed>1.193265</speed><course>254.889893</course><hAcc>0.891000</hAcc><vAcc>0.722604</vAcc></extensions></trkpt>
      <trkpt lon="-4.156502" lat="53.010909"><ele>575.839050</ele><time>2021-07-17T12:31:11Z</time><extensions><speed>1.186147</speed><course>257.492432</course><hAcc>0.890941</hAcc><vAcc>0.722395</vAcc></extensions></trkpt>
      <trkpt lon="-4.156509" lat="53.010919"><ele>575.806152</ele><time>2021-07-17T12:31:12Z</time><extensions><speed>1.176564</speed><course>255.728439</course><hAcc>0.890876</hAcc><vAcc>0.722171</vAcc></extensions></trkpt>
      <trkpt lon="-4.156518" lat="53.010928"><ele>575.778320</ele><time>2021-07-17T12:31:13Z</time><extensions><speed>1.165186</speed><course>258.375061</course><hAcc>0.890808</hAcc><vAcc>0.721941</vAcc></extensions></trkpt>
      <trkpt lon="-4.156526" lat="53.010937"><ele>575.756531</ele><time>2021-07-17T12:31:14Z</time><extensions><speed>1.152780</speed><course>260.722260</course><hAcc>0.890738</hAcc><vAcc>0.721711</vAcc></extensions></trkpt>
      <trkpt lon="-4.156536" lat="53.010945"><ele>575.741150</ele><time>2021-07-17T12:31:15Z</time><extensions><speed>1.140092</speed><course>260.722260</course><hAcc>0.890669</hAcc><vAcc>0.721488</vAcc></extensions></trkpt>
      <trkpt lon="-4.156546" lat="53.010954"><ele>575.732300</ele><time>2021-07-17T12:31:16Z</time><extensions><speed>1.127511</speed><course>260.722260</course><hAcc>0.890600</hAcc><vAcc>0.721277</vAcc></extensions></trkpt>
      <trkpt lon="-4.156556" lat="53.010961"><ele>575.730042</ele><time>2021-07-17T12:31:17Z</time><extensions><speed>1.114896</speed><course>260.722260</course><hAcc>0.890553</hAcc><vAcc>0.721100</vAcc></extensions></trkpt>
      <trkpt lon="-4.156567" lat="53.010969"><ele>575.734253</ele><time>2021-07-17T12:31:18Z</time><extensions><speed>1.101658</speed><course>260.722260</course><hAcc>0.890526</hAcc><vAcc>0.720967</vAcc></extensions></trkpt>
      <trkpt lon="-4.156578" lat="53.010976"><ele>575.744751</ele><time>2021-07-17T12:31:19Z</time><extensions><speed>1.087029</speed><course>260.722260</course><hAcc>0.890504</hAcc><vAcc>0.720872</vAcc></extensions></trkpt>
      <trkpt lon="-4.156589" lat="53.010983"><ele>575.761353</ele><time>2021-07-17T12:31:20Z</time><extensions><speed>1.070581</speed><course>260.722260</course><hAcc>0.890486</hAcc><vAcc>0.720818</vAcc></extensions></trkpt>
      <trkpt lon="-4.156600" lat="53.010990"><ele>575.784180</ele><time>2021-07-17T12:31:21Z</time><extensions><speed>1.052716</speed><course>260.722229</course><hAcc>0.890473</hAcc><vAcc>0.720799</vAcc></extensions></trkpt>
      <trkpt lon="-4.156610" lat="53.010997"><ele>575.813354</ele><time>2021-07-17T12:31:22Z</time><extensions><speed>1.034594</speed><course>268.575928</course><hAcc>0.890465</hAcc><vAcc>0.720801</vAcc></extensions></trkpt>
      <trkpt lon="-4.156620" lat="53.011004"><ele>575.848633</ele><time>2021-07-17T12:31:23Z</time><extensions><speed>1.017857</speed><course>268.685822</course><hAcc>0.890462</hAcc><vAcc>0.720813</vAcc></extensions></trkpt>
      <trkpt lon="-4.156629" lat="53.011011"><ele>575.889587</ele><time>2021-07-17T12:31:24Z</time><extensions><speed>1.004326</speed><course>264.169769</course><hAcc>0.890464</hAcc><vAcc>0.720826</vAcc></extensions></trkpt>
      <trkpt lon="-4.156638" lat="53.011019"><ele>575.935913</ele><time>2021-07-17T12:31:25Z</time><extensions><speed>0.995983</speed><course>272.216278</course><hAcc>0.890469</hAcc><vAcc>0.720838</vAcc></extensions></trkpt>
      <trkpt lon="-4.156646" lat="53.011026"><ele>575.987183</ele><time>2021-07-17T12:31:26Z</time><extensions><speed>0.994909</speed><course>279.707916</course><hAcc>0.890476</hAcc><vAcc>0.720851</vAcc></extensions></trkpt>
      <trkpt lon="-4.156652" lat="53.011034"><ele>576.042664</ele><time>2021-07-17T12:31:27Z</time><extensions><speed>1.002626</speed><course>277.974487</course><hAcc>0.890484</hAcc><vAcc>0.720868</vAcc></extensions></trkpt>
      <trkpt lon="-4.156658" lat="53.011043"><ele>576.101501</ele><time>2021-07-17T12:31:28Z</time><extensions><speed>1.019210</speed><course>285.359497</course><hAcc>0.890490</hAcc><vAcc>0.720892</vAcc></extensions></trkpt>
      <trkpt lon="-4.156662" lat="53.011052"><ele>576.162415</ele><time>2021-07-17T12:31:29Z</time><extensions><speed>1.043421</speed><course>288.896698</course><hAcc>0.890494</hAcc><vAcc>0.720919</vAcc></extensions></trkpt>
      <trkpt lon="-4.156665" lat="53.011061"><ele>576.224243</ele><time>2021-07-17T12:31:30Z</time><extensions><speed>1.073203</speed><course>285.949463</course><hAcc>0.890495</hAcc><vAcc>0.720947</vAcc></extensions></trkpt>
      <trkpt lon="-4.156667" lat="53.011071"><ele>576.286011</ele><time>2021-07-17T12:31:31Z</time><extensions><speed>1.106047</speed><course>279.328217</course><hAcc>0.890493</hAcc><vAcc>0.720969</vAcc></extensions></trkpt>
      <trkpt lon="-4.156669" lat="53.011081"><ele>576.346680</ele><time>2021-07-17T12:31:32Z</time><extensions><speed>1.139446</speed><course>280.252258</course><hAcc>0.890487</hAcc><vAcc>0.720981</vAcc></extensions></trkpt>
      <trkpt lon="-4.156669" lat="53.011091"><ele>576.405518</ele><time>2021-07-17T12:31:32Z</time><extensions><speed>1.171429</speed><course>280.968384</course><hAcc>0.890496</hAcc><vAcc>0.720989</vAcc></extensions></trkpt>
      <trkpt lon="-4.156669" lat="53.011102"><ele>576.461853</ele><time>2021-07-17T12:31:33Z</time><extensions><speed>1.201267</speed><course>279.577759</course><hAcc>0.890520</hAcc><vAcc>0.720993</vAcc></extensions></trkpt>
      <trkpt lon="-4.156668" lat="53.011113"><ele>576.514587</ele><time>2021-07-17T12:31:35Z</time><extensions><speed>1.228649</speed><course>280.039124</course><hAcc>0.890525</hAcc><vAcc>0.720968</vAcc></extensions></trkpt>
      <trkpt lon="-4.156667" lat="53.011124"><ele>576.563171</ele><time>2021-07-17T12:31:36Z</time><extensions><speed>1.252970</speed><course>285.588440</course><hAcc>0.890510</hAcc><vAcc>0.720921</vAcc></extensions></trkpt>
      <trkpt lon="-4.156665" lat="53.011135"><ele>576.608154</ele><time>2021-07-17T12:31:37Z</time><extensions><speed>1.273527</speed><course>287.653503</course><hAcc>0.890497</hAcc><vAcc>0.720870</vAcc></extensions></trkpt>
      <trkpt lon="-4.156662" lat="53.011147"><ele>576.650818</ele><time>2021-07-17T12:31:38Z</time><extensions><speed>1.289545</speed><course>285.239563</course><hAcc>0.890484</hAcc><vAcc>0.720822</vAcc></extensions></trkpt>
      <trkpt lon="-4.156660" lat="53.011158"><ele>576.693237</ele><time>2021-07-17T12:31:39Z</time><extensions><speed>1.300456</speed><course>283.468018</course><hAcc>0.890472</hAcc><vAcc>0.720782</vAcc></extensions></trkpt>
      <trkpt lon="-4.156658" lat="53.011170"><ele>576.737000</ele><time>2021-07-17T12:31:40Z</time><extensions><speed>1.306088</speed><course>279.656525</course><hAcc>0.890461</hAcc><vAcc>0.720752</vAcc></extensions></trkpt>
      <trkpt lon="-4.156655" lat="53.011181"><ele>576.782898</ele><time>2021-07-17T12:31:41Z</time><extensions><speed>1.306635</speed><course>278.539093</course><hAcc>0.890454</hAcc><vAcc>0.720733</vAcc></extensions></trkpt>
      <trkpt lon="-4.156653" lat="53.011193"><ele>576.830933</ele><time>2021-07-17T12:31:42Z</time><extensions><speed>1.302284</speed><course>281.435120</course><hAcc>0.890452</hAcc><vAcc>0.720722</vAcc></extensions></trkpt>
      <trkpt lon="-4.156651" lat="53.011205"><ele>576.880981</ele><time>2021-07-17T12:31:43Z</time><extensions><speed>1.293289</speed><course>285.299316</course><hAcc>0.890455</hAcc><vAcc>0.720719</vAcc></extensions></trkpt>
      <trkpt lon="-4.156649" lat="53.011216"><ele>576.932312</ele><time>2021-07-17T12:31:44Z</time><extensions><speed>1.280540</speed><course>278.729095</course><hAcc>0.890465</hAcc><vAcc>0.720729</vAcc></extensions></trkpt>
      <trkpt lon="-4.156648" lat="53.011228"><ele>576.983521</ele><time>2021-07-17T12:31:45Z</time><extensions><speed>1.265462</speed><course>281.499542</course><hAcc>0.890480</hAcc><vAcc>0.720759</vAcc></extensions></trkpt>
      <trkpt lon="-4.156648" lat="53.011239"><ele>577.032776</ele><time>2021-07-17T12:31:46Z</time><extensions><speed>1.249728</speed><course>280.886475</course><hAcc>0.890500</hAcc><vAcc>0.720816</vAcc></extensions></trkpt>
      <trkpt lon="-4.156648" lat="53.011250"><ele>577.078003</ele><time>2021-07-17T12:31:47Z</time><extensions><speed>1.235093</speed><course>287.541565</course><hAcc>0.890525</hAcc><vAcc>0.720903</vAcc></extensions></trkpt>
      <trkpt lon="-4.156649" lat="53.011261"><ele>577.117493</ele><time>2021-07-17T12:31:48Z</time><extensions><speed>1.222905</speed><course>288.221985</course><hAcc>0.890554</hAcc><vAcc>0.721016</vAcc></extensions></trkpt>
      <trkpt lon="-4.156651" lat="53.011272"><ele>577.149597</ele><time>2021-07-17T12:31:49Z</time><extensions><speed>1.213972</speed><course>291.891876</course><hAcc>0.890585</hAcc><vAcc>0.721149</vAcc></extensions></trkpt>
      <trkpt lon="-4.156654" lat="53.011283"><ele>577.173340</ele><time>2021-07-17T12:31:50Z</time><extensions><speed>1.208610</speed><course>289.035248</course><hAcc>0.890616</hAcc><vAcc>0.721291</vAcc></extensions></trkpt>
      <trkpt lon="-4.156658" lat="53.011293"><ele>577.188110</ele><time>2021-07-17T12:31:51Z</time><extensions><speed>1.206461</speed><course>286.354584</course><hAcc>0.890648</hAcc><vAcc>0.721431</vAcc></extensions></trkpt>
      <trkpt lon="-4.156662" lat="53.011304"><ele>577.193909</ele><time>2021-07-17T12:31:52Z</time><extensions><speed>1.206682</speed><course>285.070648</course><hAcc>0.890676</hAcc><vAcc>0.721560</vAcc></extensions></trkpt>
      <trkpt lon="-4.156667" lat="53.011314"><ele>577.191223</ele><time>2021-07-17T12:31:53Z</time><extensions><speed>1.208331</speed><course>282.456329</course><hAcc>0.890701</hAcc><vAcc>0.721668</vAcc></extensions></trkpt>
      <trkpt lon="-4.156673" lat="53.011324"><ele>577.180359</ele><time>2021-07-17T12:31:54Z</time><extensions><speed>1.210660</speed><course>277.579590</course><hAcc>0.890721</hAcc><vAcc>0.721749</vAcc></extensions></trkpt>
      <trkpt lon="-4.156680" lat="53.011335"><ele>577.161682</ele><time>2021-07-17T12:31:55Z</time><extensions><speed>1.212975</speed><course>280.944580</course><hAcc>0.890736</hAcc><vAcc>0.721797</vAcc></extensions></trkpt>
      <trkpt lon="-4.156686" lat="53.011345"><ele>577.135437</ele><time>2021-07-17T12:31:56Z</time><extensions><speed>1.214960</speed><course>286.555664</course><hAcc>0.890747</hAcc><vAcc>0.721810</vAcc></extensions></trkpt>
      <trkpt lon="-4.156693" lat="53.011355"><ele>577.100952</ele><time>2021-07-17T12:31:57Z</time><extensions><speed>1.216714</speed><course>286.867188</course><hAcc>0.890755</hAcc><vAcc>0.721794</vAcc></extensions></trkpt>
      <trkpt lon="-4.156700" lat="53.011365"><ele>577.057983</ele><time>2021-07-17T12:31:58Z</time><extensions><speed>1.218511</speed><course>285.747314</course><hAcc>0.890760</hAcc><vAcc>0.721759</vAcc></extensions></trkpt>
      <trkpt lon="-4.156707" lat="53.011375"><ele>577.006775</ele><time>2021-07-17T12:31:59Z</time><extensions><speed>1.220800</speed><course>288.748718</course><hAcc>0.890765</hAcc><vAcc>0.721721</vAcc></extensions></trkpt>
      <trkpt lon="-4.156714" lat="53.011385"><ele>576.948242</ele><time>2021-07-17T12:32:00Z</time><extensions><speed>1.223997</speed><course>282.056335</course><hAcc>0.890770</hAcc><vAcc>0.721693</vAcc></extensions></trkpt>
      <trkpt lon="-4.156720" lat="53.011396"><ele>576.883789</ele><time>2021-07-17T12:32:01Z</time><extensions><speed>1.228329</speed><course>284.841522</course><hAcc>0.890776</hAcc><vAcc>0.721688</vAcc></extensions></trkpt>
      <trkpt lon="-4.156726" lat="53.011406"><ele>576.815430</ele><time>2021-07-17T12:32:02Z</time><extensions><speed>1.233780</speed><course>283.873260</course><hAcc>0.890785</hAcc><vAcc>0.721711</vAcc></extensions></trkpt>
      <trkpt lon="-4.156732" lat="53.011417"><ele>576.745972</ele><time>2021-07-17T12:32:03Z</time><extensions><speed>1.240223</speed><course>280.645142</course><hAcc>0.890797</hAcc><vAcc>0.721767</vAcc></extensions></trkpt>
      <trkpt lon="-4.156737" lat="53.011427"><ele>576.678955</ele><time>2021-07-17T12:32:04Z</time><extensions><speed>1.247510</speed><course>278.726105</course><hAcc>0.890813</hAcc><vAcc>0.721851</vAcc></extensions></trkpt>
      <trkpt lon="-4.156742" lat="53.011438"><ele>576.617920</ele><time>2021-07-17T12:32:05Z</time><extensions><speed>1.255504</speed><course>276.107971</course><hAcc>0.890835</hAcc><vAcc>0.721953</vAcc></extensions></trkpt>
      <trkpt lon="-4.156747" lat="53.011449"><ele>576.566101</ele><time>2021-07-17T12:32:06Z</time><extensions><speed>1.263936</speed><course>275.135803</course><hAcc>0.890860</hAcc><vAcc>0.722063</vAcc></extensions></trkpt>
      <trkpt lon="-4.156751" lat="53.011460"><ele>576.526245</ele><time>2021-07-17T12:32:07Z</time><extensions><speed>1.272208</speed><course>273.705627</course><hAcc>0.890891</hAcc><vAcc>0.722174</vAcc></extensions></trkpt>
      <trkpt lon="-4.156755" lat="53.011471"><ele>576.500427</ele><time>2021-07-17T12:32:08Z</time><extensions><speed>1.279901</speed><course>279.700806</course><hAcc>0.890925</hAcc><vAcc>0.722280</vAcc></extensions></trkpt>
      <trkpt lon="-4.156760" lat="53.011483"><ele>576.489258</ele><time>2021-07-17T12:32:09Z</time><extensions><speed>1.287080</speed><course>279.102997</course><hAcc>0.890962</hAcc><vAcc>0.722383</vAcc></extensions></trkpt>
      <trkpt lon="-4.156763" lat="53.011494"><ele>576.492493</ele><time>2021-07-17T12:32:10Z</time><extensions><speed>1.293772</speed><course>281.416626</course><hAcc>0.891000</hAcc><vAcc>0.722486</vAcc></extensions></trkpt>
      <trkpt lon="-4.156767" lat="53.011505"><ele>576.509277</ele><time>2021-07-17T12:32:11Z</time><extensions><speed>1.300071</speed><course>274.399658</course><hAcc>0.891038</hAcc><vAcc>0.722596</vAcc></extensions></trkpt>
      <trkpt lon="-4.156771" lat="53.011517"><ele>576.538208</ele><time>2021-07-17T12:32:12Z</time><extensions><speed>1.306006</speed><course>277.055237</course><hAcc>0.891074</hAcc><vAcc>0.722718</vAcc></extensions></trkpt>
      <trkpt lon="-4.156775" lat="53.011528"><ele>576.577881</ele><time>2021-07-17T12:32:13Z</time><extensions><speed>1.311250</speed><course>271.055908</course><hAcc>0.891106</hAcc><vAcc>0.722850</vAcc></extensions></trkpt>
      <trkpt lon="-4.156778" lat="53.011540"><ele>576.627625</ele><time>2021-07-17T12:32:14Z</time><extensions><speed>1.315477</speed><course>270.959534</course><hAcc>0.891134</hAcc><vAcc>0.722984</vAcc></extensions></trkpt>
      <trkpt lon="-4.156782" lat="53.011552"><ele>576.687012</ele><time>2021-07-17T12:32:15Z</time><extensions><speed>1.318467</speed><course>273.311462</course><hAcc>0.891158</hAcc><vAcc>0.723106</vAcc></extensions></trkpt>
      <trkpt lon="-4.156785" lat="53.011563"><ele>576.756042</ele><time>2021-07-17T12:32:16Z</time><extensions><speed>1.319817</speed><course>270.079376</course><hAcc>0.891177</hAcc><vAcc>0.723201</vAcc></extensions></trkpt>
      <trkpt lon="-4.156788" lat="53.011575"><ele>576.834839</ele><time>2021-07-17T12:32:17Z</time><extensions><speed>1.319225</speed><course>269.858612</course><hAcc>0.891192</hAcc><vAcc>0.723258</vAcc></extensions></trkpt>
      <trkpt lon="-4.156792" lat="53.011587"><ele>576.923523</ele><time>2021-07-17T12:32:18Z</time><extensions><speed>1.316794</speed><course>271.614288</course><hAcc>0.891202</hAcc><vAcc>0.723273</vAcc></extensions></trkpt>
      <trkpt lon="-4.156795" lat="53.011598"><ele>577.022339</ele><time>2021-07-17T12:32:19Z</time><extensions><speed>1.312744</speed><course>269.703888</course><hAcc>0.891206</hAcc><vAcc>0.723253</vAcc></extensions></trkpt>
      <trkpt lon="-4.156798" lat="53.011610"><ele>577.130737</ele><time>2021-07-17T12:32:20Z</time><extensions><speed>1.306966</speed><course>271.185974</course><hAcc>0.891206</hAcc><vAcc>0.723208</vAcc></extensions></trkpt>
      <trkpt lon="-4.156801" lat="53.011622"><ele>577.248108</ele><time>2021-07-17T12:32:21Z</time><extensions><speed>1.299077</speed><course>276.545776</course><hAcc>0.891200</hAcc><vAcc>0.723150</vAcc></extensions></trkpt>
      <trkpt lon="-4.156805" lat="53.011633"><ele>577.373840</ele><time>2021-07-17T12:32:22Z</time><extensions><speed>1.288713</speed><course>274.150604</course><hAcc>0.891189</hAcc><vAcc>0.723089</vAcc></extensions></trkpt>
      <trkpt lon="-4.156808" lat="53.011644"><ele>577.507080</ele><time>2021-07-17T12:32:23Z</time><extensions><speed>1.275502</speed><course>269.686920</course><hAcc>0.891174</hAcc><vAcc>0.723030</vAcc></extensions></trkpt>
      <trkpt lon="-4.156811" lat="53.011656"><ele>577.647278</ele><time>2021-07-17T12:32:24Z</time><extensions><speed>1.259561</speed><course>266.852386</course><hAcc>0.891158</hAcc><vAcc>0.722974</vAcc></extensions></trkpt>
      <trkpt lon="-4.156814" lat="53.011667"><ele>577.793823</ele><time>2021-07-17T12:32:25Z</time><extensions><speed>1.241561</speed><course>267.243347</course><hAcc>0.891142</hAcc><vAcc>0.722916</vAcc></extensions></trkpt>
      <trkpt lon="-4.156817" lat="53.011678"><ele>577.945618</ele><time>2021-07-17T12:32:26Z</time><extensions><speed>1.222324</speed><course>260.829193</course><hAcc>0.891127</hAcc><vAcc>0.722858</vAcc></extensions></trkpt>
      <trkpt lon="-4.156820" lat="53.011688"><ele>578.101501</ele><time>2021-07-17T12:32:27Z</time><extensions><speed>1.202872</speed><course>268.227509</course><hAcc>0.891115</hAcc><vAcc>0.722799</vAcc></extensions></trkpt>
      <trkpt lon="-4.156823" lat="53.011699"><ele>578.260132</ele><time>2021-07-17T12:32:28Z</time><extensions><speed>1.184286</speed><course>261.241119</course><hAcc>0.891107</hAcc><vAcc>0.722743</vAcc></extensions></trkpt>
      <trkpt lon="-4.156826" lat="53.011709"><ele>578.420105</ele><time>2021-07-17T12:32:29Z</time><extensions><speed>1.167282</speed><course>259.199677</course><hAcc>0.891105</hAcc><vAcc>0.722691</vAcc></extensions></trkpt>
      <trkpt lon="-4.156830" lat="53.011720"><ele>578.580750</ele><time>2021-07-17T12:32:30Z</time><extensions><speed>1.151705</speed><course>258.372070</course><hAcc>0.891091</hAcc><vAcc>0.722635</vAcc></extensions></trkpt>
      <trkpt lon="-4.156833" lat="53.011730"><ele>578.741150</ele><time>2021-07-17T12:32:31Z</time><extensions><speed>1.137089</speed><course>251.644882</course><hAcc>0.891067</hAcc><vAcc>0.722578</vAcc></extensions></trkpt>
      <trkpt lon="-4.156836" lat="53.011740"><ele>578.901428</ele><time>2021-07-17T12:32:32Z</time><extensions><speed>1.123093</speed><course>250.726257</course><hAcc>0.891050</hAcc><vAcc>0.722536</vAcc></extensions></trkpt>
      <trkpt lon="-4.156839" lat="53.011749"><ele>579.061768</ele><time>2021-07-17T12:32:33Z</time><extensions><speed>1.109716</speed><course>245.632431</course><hAcc>0.891039</hAcc><vAcc>0.722510</vAcc></extensions></trkpt>
      <trkpt lon="-4.156843" lat="53.011759"><ele>579.222412</ele><time>2021-07-17T12:32:34Z</time><extensions><speed>1.097080</speed><course>245.967255</course><hAcc>0.891034</hAcc><vAcc>0.722503</vAcc></extensions></trkpt>
      <trkpt lon="-4.156847" lat="53.011769"><ele>579.383911</ele><time>2021-07-17T12:32:35Z</time><extensions><speed>1.085129</speed><course>241.448837</course><hAcc>0.891034</hAcc><vAcc>0.722516</vAcc></extensions></trkpt>
      <trkpt lon="-4.156850" lat="53.011778"><ele>579.546936</ele><time>2021-07-17T12:32:36Z</time><extensions><speed>1.073834</speed><course>246.306168</course><hAcc>0.891037</hAcc><vAcc>0.722548</vAcc></extensions></trkpt>
      <trkpt lon="-4.156854" lat="53.011787"><ele>579.712280</ele><time>2021-07-17T12:32:37Z</time><extensions><speed>1.063152</speed><course>241.853012</course><hAcc>0.891043</hAcc><vAcc>0.722596</vAcc></extensions></trkpt>
      <trkpt lon="-4.156858" lat="53.011797"><ele>579.880493</ele><time>2021-07-17T12:32:38Z</time><extensions><speed>1.052926</speed><course>247.017685</course><hAcc>0.891049</hAcc><vAcc>0.722655</vAcc></extensions></trkpt>
      <trkpt lon="-4.156863" lat="53.011806"><ele>580.052246</ele><time>2021-07-17T12:32:39Z</time><extensions><speed>1.043110</speed><course>242.793106</course><hAcc>0.891056</hAcc><vAcc>0.722715</vAcc></extensions></trkpt>
      <trkpt lon="-4.156868" lat="53.011814"><ele>580.227905</ele><time>2021-07-17T12:32:40Z</time><extensions><speed>1.033754</speed><course>241.528748</course><hAcc>0.891061</hAcc><vAcc>0.722763</vAcc></extensions></trkpt>
      <trkpt lon="-4.156873" lat="53.011823"><ele>580.407227</ele><time>2021-07-17T12:32:41Z</time><extensions><speed>1.024857</speed><course>239.773132</course><hAcc>0.891064</hAcc><vAcc>0.722792</vAcc></extensions></trkpt>
      <trkpt lon="-4.156878" lat="53.011832"><ele>580.590088</ele><time>2021-07-17T12:32:42Z</time><extensions><speed>1.016296</speed><course>228.079361</course><hAcc>0.891064</hAcc><vAcc>0.722798</vAcc></extensions></trkpt>
      <trkpt lon="-4.156883" lat="53.011840"><ele>580.776611</ele><time>2021-07-17T12:32:43Z</time><extensions><speed>1.008084</speed><course>235.745880</course><hAcc>0.891060</hAcc><vAcc>0.722780</vAcc></extensions></trkpt>
      <trkpt lon="-4.156889" lat="53.011849"><ele>580.966431</ele><time>2021-07-17T12:32:44Z</time><extensions><speed>1.000303</speed><course>241.026978</course><hAcc>0.891051</hAcc><vAcc>0.722739</vAcc></extensions></trkpt>
      <trkpt lon="-4.156895" lat="53.011857"><ele>581.158997</ele><time>2021-07-17T12:32:45Z</time><extensions><speed>0.992935</speed><course>241.201813</course><hAcc>0.891039</hAcc><vAcc>0.722680</vAcc></extensions></trkpt>
      <trkpt lon="-4.156901" lat="53.011865"><ele>581.353516</ele><time>2021-07-17T12:32:46Z</time><extensions><speed>0.985741</speed><course>237.798721</course><hAcc>0.891022</hAcc><vAcc>0.722608</vAcc></extensions></trkpt>
      <trkpt lon="-4.156907" lat="53.011873"><ele>581.549377</ele><time>2021-07-17T12:32:47Z</time><extensions><speed>0.978417</speed><course>239.932953</course><hAcc>0.891002</hAcc><vAcc>0.722527</vAcc></extensions></trkpt>
      <trkpt lon="-4.156914" lat="53.011881"><ele>581.746216</ele><time>2021-07-17T12:32:48Z</time><extensions><speed>0.970899</speed><course>236.617691</course><hAcc>0.890980</hAcc><vAcc>0.722441</vAcc></extensions></trkpt>
      <trkpt lon="-4.156921" lat="53.011888"><ele>581.944031</ele><time>2021-07-17T12:32:49Z</time><extensions><speed>0.963204</speed><course>241.818802</course><hAcc>0.890956</hAcc><vAcc>0.722354</vAcc></extensions></trkpt>
      <trkpt lon="-4.156927" lat="53.011896"><ele>582.142578</ele><time>2021-07-17T12:32:50Z</time><extensions><speed>0.955188</speed><course>239.437317</course><hAcc>0.890931</hAcc><vAcc>0.722269</vAcc></extensions></trkpt>
      <trkpt lon="-4.156935" lat="53.011903"><ele>582.341736</ele><time>2021-07-17T12:32:51Z</time><extensions><speed>0.946669</speed><course>246.363113</course><hAcc>0.890907</hAcc><vAcc>0.722187</vAcc></extensions></trkpt>
      <trkpt lon="-4.156942" lat="53.011911"><ele>582.541626</ele><time>2021-07-17T12:32:52Z</time><extensions><speed>0.937516</speed><course>246.700150</course><hAcc>0.890883</hAcc><vAcc>0.722112</vAcc></extensions></trkpt>
      <trkpt lon="-4.156949" lat="53.011918"><ele>582.742249</ele><time>2021-07-17T12:32:53Z</time><extensions><speed>0.927611</speed><course>246.096832</course><hAcc>0.890860</hAcc><vAcc>0.722043</vAcc></extensions></trkpt>
      <trkpt lon="-4.156956" lat="53.011925"><ele>582.943176</ele><time>2021-07-17T12:32:54Z</time><extensions><speed>0.917061</speed><course>243.815796</course><hAcc>0.890837</hAcc><vAcc>0.721980</vAcc></extensions></trkpt>
      <trkpt lon="-4.156964" lat="53.011932"><ele>583.143555</ele><time>2021-07-17T12:32:55Z</time><extensions><speed>0.906116</speed><course>246.512634</course><hAcc>0.890815</hAcc><vAcc>0.721922</vAcc></extensions></trkpt>
      <trkpt lon="-4.156971" lat="53.011938"><ele>583.341675</ele><time>2021-07-17T12:32:56Z</time><extensions><speed>0.894872</speed><course>244.050751</course><hAcc>0.890795</hAcc><vAcc>0.721866</vAcc></extensions></trkpt>
      <trkpt lon="-4.156979" lat="53.011945"><ele>583.535522</ele><time>2021-07-17T12:32:57Z</time><extensions><speed>0.883341</speed><course>244.230560</course><hAcc>0.890774</hAcc><vAcc>0.721811</vAcc></extensions></trkpt>
      <trkpt lon="-4.156986" lat="53.011951"><ele>583.722595</ele><time>2021-07-17T12:32:58Z</time><extensions><speed>0.871373</speed><course>245.032242</course><hAcc>0.890755</hAcc><vAcc>0.721751</vAcc></extensions></trkpt>
      <trkpt lon="-4.156993" lat="53.011958"><ele>583.900574</ele><time>2021-07-17T12:32:59Z</time><extensions><speed>0.858648</speed><course>246.179367</course><hAcc>0.890737</hAcc><vAcc>0.721684</vAcc></extensions></trkpt>
      <trkpt lon="-4.157001" lat="53.011964"><ele>584.068054</ele><time>2021-07-17T12:33:00Z</time><extensions><speed>0.844888</speed><course>241.821411</course><hAcc>0.890719</hAcc><vAcc>0.721612</vAcc></extensions></trkpt>
      <trkpt lon="-4.157008" lat="53.011970"><ele>584.225159</ele><time>2021-07-17T12:33:01Z</time><extensions><speed>0.829760</speed><course>243.788040</course><hAcc>0.890700</hAcc><vAcc>0.721541</vAcc></extensions></trkpt>
      <trkpt lon="-4.157015" lat="53.011976"><ele>584.372681</ele><time>2021-07-17T12:33:02Z</time><extensions><speed>0.812980</speed><course>243.693268</course><hAcc>0.890679</hAcc><vAcc>0.721474</vAcc></extensions></trkpt>
      <trkpt lon="-4.157022" lat="53.011982"><ele>584.511902</ele><time>2021-07-17T12:33:03Z</time><extensions><speed>0.794535</speed><course>242.775101</course><hAcc>0.890655</hAcc><vAcc>0.721411</vAcc></extensions></trkpt>
      <trkpt lon="-4.157029" lat="53.011988"><ele>584.644226</ele><time>2021-07-17T12:33:04Z</time><extensions><speed>0.774700</speed><course>245.970306</course><hAcc>0.890626</hAcc><vAcc>0.721349</vAcc></extensions></trkpt>
      <trkpt lon="-4.157036" lat="53.011993"><ele>584.771423</ele><time>2021-07-17T12:33:05Z</time><extensions><speed>0.753695</speed><course>242.405746</course><hAcc>0.890593</hAcc><vAcc>0.721278</vAcc></extensions></trkpt>
      <trkpt lon="-4.157043" lat="53.011999"><ele>584.895203</ele><time>2021-07-17T12:33:06Z</time><extensions><speed>0.731748</speed><course>242.953247</course><hAcc>0.890554</hAcc><vAcc>0.721188</vAcc></extensions></trkpt>
      <trkpt lon="-4.157049" lat="53.012004"><ele>585.016602</ele><time>2021-07-17T12:33:07Z</time><extensions><speed>0.709298</speed><course>243.898651</course><hAcc>0.890508</hAcc><vAcc>0.721070</vAcc></extensions></trkpt>
      <trkpt lon="-4.157056" lat="53.012009"><ele>585.136169</ele><time>2021-07-17T12:33:08Z</time><extensions><speed>0.686920</speed><course>246.283890</course><hAcc>0.890455</hAcc><vAcc>0.720917</vAcc></extensions></trkpt>
      <trkpt lon="-4.157062" lat="53.012013"><ele>585.254333</ele><time>2021-07-17T12:33:09Z</time><extensions><speed>0.665464</speed><course>244.954941</course><hAcc>0.890394</hAcc><vAcc>0.720726</vAcc></extensions></trkpt>
      <trkpt lon="-4.157069" lat="53.012018"><ele>585.371643</ele><time>2021-07-17T12:33:10Z</time><extensions><speed>0.645649</speed><course>242.649384</course><hAcc>0.890327</hAcc><vAcc>0.720496</vAcc></extensions></trkpt>
      <trkpt lon="-4.157075" lat="53.012022"><ele>585.488281</ele><time>2021-07-17T12:33:11Z</time><extensions><speed>0.627836</speed><course>244.763245</course><hAcc>0.890253</hAcc><vAcc>0.720233</vAcc></extensions></trkpt>
      <trkpt lon="-4.157081" lat="53.012026"><ele>585.604309</ele><time>2021-07-17T12:33:12Z</time><extensions><speed>0.612234</speed><course>244.903290</course><hAcc>0.890174</hAcc><vAcc>0.719947</vAcc></extensions></trkpt>
      <trkpt lon="-4.157088" lat="53.012030"><ele>585.719788</ele><time>2021-07-17T12:33:13Z</time><extensions><speed>0.598988</speed><course>245.405487</course><hAcc>0.890091</hAcc><vAcc>0.719649</vAcc></extensions></trkpt>
      <trkpt lon="-4.157094" lat="53.012033"><ele>585.835022</ele><time>2021-07-17T12:33:14Z</time><extensions><speed>0.588138</speed><course>244.116837</course><hAcc>0.890004</hAcc><vAcc>0.719348</vAcc></extensions></trkpt>
      <trkpt lon="-4.157100" lat="53.012037"><ele>585.950134</ele><time>2021-07-17T12:33:15Z</time><extensions><speed>0.579647</speed><course>244.373413</course><hAcc>0.889917</hAcc><vAcc>0.719054</vAcc></extensions></trkpt>
      <trkpt lon="-4.157107" lat="53.012040"><ele>586.065247</ele><time>2021-07-17T12:33:16Z</time><extensions><speed>0.573530</speed><course>242.926376</course><hAcc>0.889831</hAcc><vAcc>0.718774</vAcc></extensions></trkpt>
      <trkpt lon="-4.157113" lat="53.012044"><ele>586.180298</ele><time>2021-07-17T12:33:17Z</time><extensions><speed>0.569639</speed><course>245.132996</course><hAcc>0.889747</hAcc><vAcc>0.718510</vAcc></extensions></trkpt>
      <trkpt lon="-4.157120" lat="53.012047"><ele>586.295349</ele><time>2021-07-17T12:33:18Z</time><extensions><speed>0.567920</speed><course>244.501526</course><hAcc>0.889666</hAcc><vAcc>0.718267</vAcc></extensions></trkpt>
      <trkpt lon="-4.157126" lat="53.012050"><ele>586.410278</ele><time>2021-07-17T12:33:19Z</time><extensions><speed>0.568669</speed><course>246.537445</course><hAcc>0.889591</hAcc><vAcc>0.718046</vAcc></extensions></trkpt>
      <trkpt lon="-4.157133" lat="53.012054"><ele>586.524902</ele><time>2021-07-17T12:33:20Z</time><extensions><speed>0.572200</speed><course>249.471207</course><hAcc>0.889520</hAcc><vAcc>0.717848</vAcc></extensions></trkpt>
      <trkpt lon="-4.157139" lat="53.012057"><ele>586.639648</ele><time>2021-07-17T12:33:21Z</time><extensions><speed>0.578717</speed><course>248.775497</course><hAcc>0.889454</hAcc><vAcc>0.717674</vAcc></extensions></trkpt>
      <trkpt lon="-4.157146" lat="53.012060"><ele>586.754700</ele><time>2021-07-17T12:33:22Z</time><extensions><speed>0.588293</speed><course>246.941742</course><hAcc>0.889392</hAcc><vAcc>0.717526</vAcc></extensions></trkpt>
      <trkpt lon="-4.157153" lat="53.012064"><ele>586.870178</ele><time>2021-07-17T12:33:22Z</time><extensions><speed>0.600774</speed><course>244.433502</course><hAcc>0.889371</hAcc><vAcc>0.717431</vAcc></extensions></trkpt>
      <trkpt lon="-4.157160" lat="53.012067"><ele>586.986633</ele><time>2021-07-17T12:33:23Z</time><extensions><speed>0.616075</speed><course>244.037323</course><hAcc>0.889390</hAcc><vAcc>0.717391</vAcc></extensions></trkpt>
      <trkpt lon="-4.157167" lat="53.012071"><ele>587.104370</ele><time>2021-07-17T12:33:25Z</time><extensions><speed>0.633865</speed><course>247.924194</course><hAcc>0.889396</hAcc><vAcc>0.717371</vAcc></extensions></trkpt>
      <trkpt lon="-4.157174" lat="53.012075"><ele>587.223694</ele><time>2021-07-17T12:33:26Z</time><extensions><speed>0.653383</speed><course>244.193863</course><hAcc>0.889389</hAcc><vAcc>0.717372</vAcc></extensions></trkpt>
      <trkpt lon="-4.157181" lat="53.012079"><ele>587.345642</ele><time>2021-07-17T12:33:27Z</time><extensions><speed>0.673679</speed><course>245.117035</course><hAcc>0.889387</hAcc><vAcc>0.717405</vAcc></extensions></trkpt>
      <trkpt lon="-4.157189" lat="53.012083"><ele>587.470886</ele><time>2021-07-17T12:33:28Z</time><extensions><speed>0.693827</speed><course>240.947311</course><hAcc>0.889387</hAcc><vAcc>0.717465</vAcc></extensions></trkpt>
      <trkpt lon="-4.157197" lat="53.012087"><ele>587.600342</ele><time>2021-07-17T12:33:28Z</time><extensions><speed>0.712919</speed><course>248.726425</course><hAcc>0.889406</hAcc><vAcc>0.717556</vAcc></extensions></trkpt>
      <trkpt lon="-4.157205" lat="53.012091"><ele>587.734924</ele><time>2021-07-17T12:33:29Z</time><extensions><speed>0.730688</speed><course>246.210281</course><hAcc>0.889441</hAcc><vAcc>0.717666</vAcc></extensions></trkpt>
      <trkpt lon="-4.157213" lat="53.012096"><ele>587.875122</ele><time>2021-07-17T12:33:30Z</time><extensions><speed>0.747054</speed><course>244.130585</course><hAcc>0.889474</hAcc><vAcc>0.717773</vAcc></extensions></trkpt>
      <trkpt lon="-4.157221" lat="53.012101"><ele>588.021240</ele><time>2021-07-17T12:33:31Z</time><extensions><speed>0.761694</speed><course>242.385971</course><hAcc>0.889503</hAcc><vAcc>0.717865</vAcc></extensions></trkpt>
      <trkpt lon="-4.157229" lat="53.012105"><ele>588.173218</ele><time>2021-07-17T12:33:32Z</time><extensions><speed>0.774083</speed><course>242.586807</course><hAcc>0.889528</hAcc><vAcc>0.717938</vAcc></extensions></trkpt>
      <trkpt lon="-4.157237" lat="53.012110"><ele>588.331116</ele><time>2021-07-17T12:33:33Z</time><extensions><speed>0.783640</speed><course>243.360626</course><hAcc>0.889549</hAcc><vAcc>0.717989</vAcc></extensions></trkpt>
      <trkpt lon="-4.157245" lat="53.012115"><ele>588.495483</ele><time>2021-07-17T12:33:34Z</time><extensions><speed>0.790137</speed><course>243.971695</course><hAcc>0.889565</hAcc><vAcc>0.718018</vAcc></extensions></trkpt>
      <trkpt lon="-4.157254" lat="53.012121"><ele>588.666870</ele><time>2021-07-17T12:33:35Z</time><extensions><speed>0.793766</speed><course>240.206924</course><hAcc>0.889576</hAcc><vAcc>0.718027</vAcc></extensions></trkpt>
      <trkpt lon="-4.157262" lat="53.012126"><ele>588.846008</ele><time>2021-07-17T12:33:36Z</time><extensions><speed>0.794926</speed><course>239.075470</course><hAcc>0.889583</hAcc><vAcc>0.718018</vAcc></extensions></trkpt>
      <trkpt lon="-4.157270" lat="53.012131"><ele>589.033508</ele><time>2021-07-17T12:33:37Z</time><extensions><speed>0.793972</speed><course>237.642349</course><hAcc>0.889587</hAcc><vAcc>0.717993</vAcc></extensions></trkpt>
      <trkpt lon="-4.157278" lat="53.012136"><ele>589.229919</ele><time>2021-07-17T12:33:38Z</time><extensions><speed>0.791466</speed><course>240.263168</course><hAcc>0.889590</hAcc><vAcc>0.717957</vAcc></extensions></trkpt>
      <trkpt lon="-4.157286" lat="53.012141"><ele>589.435425</ele><time>2021-07-17T12:33:39Z</time><extensions><speed>0.788233</speed><course>236.992905</course><hAcc>0.889593</hAcc><vAcc>0.717917</vAcc></extensions></trkpt>
      <trkpt lon="-4.157294" lat="53.012147"><ele>589.650085</ele><time>2021-07-17T12:33:41Z</time><extensions><speed>0.784808</speed><course>237.814407</course><hAcc>0.889580</hAcc><vAcc>0.717863</vAcc></extensions></trkpt>
      <trkpt lon="-4.157302" lat="53.012152"><ele>589.873596</ele><time>2021-07-17T12:33:42Z</time><extensions><speed>0.781170</speed><course>233.161377</course><hAcc>0.889551</hAcc><vAcc>0.717801</vAcc></extensions></trkpt>
      <trkpt lon="-4.157310" lat="53.012157"><ele>590.106018</ele><time>2021-07-17T12:33:43Z</time><extensions><speed>0.777279</speed><course>231.854340</course><hAcc>0.889526</hAcc><vAcc>0.717744</vAcc></extensions></trkpt>
      <trkpt lon="-4.157318" lat="53.012162"><ele>590.347290</ele><time>2021-07-17T12:33:44Z</time><extensions><speed>0.773341</speed><course>230.330582</course><hAcc>0.889506</hAcc><vAcc>0.717694</vAcc></extensions></trkpt>
      <trkpt lon="-4.157326" lat="53.012167"><ele>590.596741</ele><time>2021-07-17T12:33:45Z</time><extensions><speed>0.769396</speed><course>225.955917</course><hAcc>0.889489</hAcc><vAcc>0.717653</vAcc></extensions></trkpt>
      <trkpt lon="-4.157334" lat="53.012172"><ele>590.852600</ele><time>2021-07-17T12:33:46Z</time><extensions><speed>0.765060</speed><course>228.667099</course><hAcc>0.889478</hAcc><vAcc>0.717622</vAcc></extensions></trkpt>
      <trkpt lon="-4.157342" lat="53.012177"><ele>591.112671</ele><time>2021-07-17T12:33:47Z</time><extensions><speed>0.759643</speed><course>231.197586</course><hAcc>0.889473</hAcc><vAcc>0.717603</vAcc></extensions></trkpt>
      <trkpt lon="-4.157350" lat="53.012181"><ele>591.374634</ele><time>2021-07-17T12:33:48Z</time><extensions><speed>0.752459</speed><course>231.649063</course><hAcc>0.889477</hAcc><vAcc>0.717598</vAcc></extensions></trkpt>
      <trkpt lon="-4.157358" lat="53.012186"><ele>591.636658</ele><time>2021-07-17T12:33:49Z</time><extensions><speed>0.742918</speed><course>225.252350</course><hAcc>0.889489</hAcc><vAcc>0.717616</vAcc></extensions></trkpt>
      <trkpt lon="-4.157366" lat="53.012191"><ele>591.896729</ele><time>2021-07-17T12:33:50Z</time><extensions><speed>0.730633</speed><course>227.044876</course><hAcc>0.889512</hAcc><vAcc>0.717662</vAcc></extensions></trkpt>
      <trkpt lon="-4.157373" lat="53.012195"><ele>592.152771</ele><time>2021-07-17T12:33:51Z</time><extensions><speed>0.715441</speed><course>232.104660</course><hAcc>0.889546</hAcc><vAcc>0.717745</vAcc></extensions></trkpt>
      <trkpt lon="-4.157381" lat="53.012200"><ele>592.402649</ele><time>2021-07-17T12:33:52Z</time><extensions><speed>0.697537</speed><course>229.338486</course><hAcc>0.889592</hAcc><vAcc>0.717875</vAcc></extensions></trkpt>
      <trkpt lon="-4.157387" lat="53.012204"><ele>592.644409</ele><time>2021-07-17T12:33:53Z</time><extensions><speed>0.677737</speed><course>229.521286</course><hAcc>0.889650</hAcc><vAcc>0.718058</vAcc></extensions></trkpt>
      <trkpt lon="-4.157394" lat="53.012209"><ele>592.875488</ele><time>2021-07-17T12:33:54Z</time><extensions><speed>0.657433</speed><course>230.490311</course><hAcc>0.889719</hAcc><vAcc>0.718295</vAcc></extensions></trkpt>
      <trkpt lon="-4.157400" lat="53.012214"><ele>593.093323</ele><time>2021-07-17T12:33:55Z</time><extensions><speed>0.638507</speed><course>231.378189</course><hAcc>0.889799</hAcc><vAcc>0.718580</vAcc></extensions></trkpt>
      <trkpt lon="-4.157405" lat="53.012218"><ele>593.295471</ele><time>2021-07-17T12:33:56Z</time><extensions><speed>0.623434</speed><course>228.697189</course><hAcc>0.889887</hAcc><vAcc>0.718904</vAcc></extensions></trkpt>
      <trkpt lon="-4.157409" lat="53.012223"><ele>593.479248</ele><time>2021-07-17T12:33:57Z</time><extensions><speed>0.614932</speed><course>226.471390</course><hAcc>0.889984</hAcc><vAcc>0.719253</vAcc></extensions></trkpt>
      <trkpt lon="-4.157413" lat="53.012228"><ele>593.642090</ele><time>2021-07-17T12:33:58Z</time><extensions><speed>0.615059</speed><course>220.030243</course><hAcc>0.890086</hAcc><vAcc>0.719612</vAcc></extensions></trkpt>
      <trkpt lon="-4.157416" lat="53.012234"><ele>593.781250</ele><time>2021-07-17T12:33:59Z</time><extensions><speed>0.624391</speed><course>220.714050</course><hAcc>0.890191</hAcc><vAcc>0.719973</vAcc></extensions></trkpt>
      <trkpt lon="-4.157419" lat="53.012239"><ele>593.894165</ele><time>2021-07-17T12:34:00Z</time><extensions><speed>0.642186</speed><course>225.627274</course><hAcc>0.890297</hAcc><vAcc>0.720327</vAcc></extensions></trkpt>
      <trkpt lon="-4.157421" lat="53.012245"><ele>593.978516</ele><time>2021-07-17T12:34:01Z</time><extensions><speed>0.666894</speed><course>226.764282</course><hAcc>0.890401</hAcc><vAcc>0.720669</vAcc></extensions></trkpt>
      <trkpt lon="-4.157423" lat="53.012251"><ele>594.033142</ele><time>2021-07-17T12:34:02Z</time><extensions><speed>0.696777</speed><course>226.578552</course><hAcc>0.890500</hAcc><vAcc>0.720994</vAcc></extensions></trkpt>
      <trkpt lon="-4.157425" lat="53.012257"><ele>594.058228</ele><time>2021-07-17T12:34:03Z</time><extensions><speed>0.730269</speed><course>225.919083</course><hAcc>0.890592</hAcc><vAcc>0.721297</vAcc></extensions></trkpt>
      <trkpt lon="-4.157427" lat="53.012264"><ele>594.055847</ele><time>2021-07-17T12:34:04Z</time><extensions><speed>0.766081</speed><course>231.063477</course><hAcc>0.890674</hAcc><vAcc>0.721574</vAcc></extensions></trkpt>
      <trkpt lon="-4.157429" lat="53.012271"><ele>594.029053</ele><time>2021-07-17T12:34:05Z</time><extensions><speed>0.803540</speed><course>239.724365</course><hAcc>0.890746</hAcc><vAcc>0.721821</vAcc></extensions></trkpt>
      <trkpt lon="-4.157431" lat="53.012278"><ele>593.981018</ele><time>2021-07-17T12:34:06Z</time><extensions><speed>0.842273</speed><course>234.846985</course><hAcc>0.890804</hAcc><vAcc>0.722032</vAcc></extensions></trkpt>
      <trkpt lon="-4.157433" lat="53.012286"><ele>593.915283</ele><time>2021-07-17T12:34:07Z</time><extensions><speed>0.881673</speed><course>233.853561</course><hAcc>0.890848</hAcc><vAcc>0.722201</vAcc></extensions></trkpt>
      <trkpt lon="-4.157435" lat="53.012294"><ele>593.835693</ele><time>2021-07-17T12:34:08Z</time><extensions><speed>0.920981</speed><course>233.915298</course><hAcc>0.890877</hAcc><vAcc>0.722319</vAcc></extensions></trkpt>
      <trkpt lon="-4.157438" lat="53.012302"><ele>593.745911</ele><time>2021-07-17T12:34:09Z</time><extensions><speed>0.959492</speed><course>223.625214</course><hAcc>0.890891</hAcc><vAcc>0.722380</vAcc></extensions></trkpt>
      <trkpt lon="-4.157440" lat="53.012311"><ele>593.649475</ele><time>2021-07-17T12:34:10Z</time><extensions><speed>0.996600</speed><course>224.382111</course><hAcc>0.890892</hAcc><vAcc>0.722381</vAcc></extensions></trkpt>
      <trkpt lon="-4.157442" lat="53.012320"><ele>593.550049</ele><time>2021-07-17T12:34:11Z</time><extensions><speed>1.031733</speed><course>225.549652</course><hAcc>0.890879</hAcc><vAcc>0.722324</vAcc></extensions></trkpt>
      <trkpt lon="-4.157445" lat="53.012329"><ele>593.451111</ele><time>2021-07-17T12:34:12Z</time><extensions><speed>1.064514</speed><course>226.825943</course><hAcc>0.890856</hAcc><vAcc>0.722214</vAcc></extensions></trkpt>
      <trkpt lon="-4.157447" lat="53.012339"><ele>593.355164</ele><time>2021-07-17T12:34:13Z</time><extensions><speed>1.094834</speed><course>220.216599</course><hAcc>0.890825</hAcc><vAcc>0.722060</vAcc></extensions></trkpt>
      <trkpt lon="-4.157449" lat="53.012348"><ele>593.263123</ele><time>2021-07-17T12:34:14Z</time><extensions><speed>1.122503</speed><course>222.039505</course><hAcc>0.890788</hAcc><vAcc>0.721878</vAcc></extensions></trkpt>
      <trkpt lon="-4.157450" lat="53.012359"><ele>593.175171</ele><time>2021-07-17T12:34:15Z</time><extensions><speed>1.147327</speed><course>227.811584</course><hAcc>0.890750</hAcc><vAcc>0.721686</vAcc></extensions></trkpt>
      <trkpt lon="-4.157452" lat="53.012369"><ele>593.091248</ele><time>2021-07-17T12:34:16Z</time><extensions><speed>1.168975</speed><course>229.822403</course><hAcc>0.890711</hAcc><vAcc>0.721503</vAcc></extensions></trkpt>
      <trkpt lon="-4.157454" lat="53.012379"><ele>593.011597</ele><time>2021-07-17T12:34:17Z</time><extensions><speed>1.187171</speed><course>226.344223</course><hAcc>0.890676</hAcc><vAcc>0.721346</vAcc></extensions></trkpt>
      <trkpt lon="-4.157456" lat="53.012390"><ele>592.936646</ele><time>2021-07-17T12:34:18Z</time><extensions><speed>1.202089</speed><course>227.863098</course><hAcc>0.890646</hAcc><vAcc>0.721228</vAcc></extensions></trkpt>
      <trkpt lon="-4.157458" lat="53.012401"><ele>592.867065</ele><time>2021-07-17T12:34:19Z</time><extensions><speed>1.214238</speed><course>224.422241</course><hAcc>0.890623</hAcc><vAcc>0.721155</vAcc></extensions></trkpt>
      <trkpt lon="-4.157461" lat="53.012412"><ele>592.803162</ele><time>2021-07-17T12:34:20Z</time><extensions><speed>1.224396</speed><course>216.486084</course><hAcc>0.890608</hAcc><vAcc>0.721127</vAcc></extensions></trkpt>
      <trkpt lon="-4.157464" lat="53.012423"><ele>592.744995</ele><time>2021-07-17T12:34:21Z</time><extensions><speed>1.233085</speed><course>218.578918</course><hAcc>0.890600</hAcc><vAcc>0.721141</vAcc></extensions></trkpt>
      <trkpt lon="-4.157467" lat="53.012434"><ele>592.692444</ele><time>2021-07-17T12:34:22Z</time><extensions><speed>1.240661</speed><course>214.758057</course><hAcc>0.890601</hAcc><vAcc>0.721184</vAcc></extensions></trkpt>
      <trkpt lon="-4.157471" lat="53.012444"><ele>592.644958</ele><time>2021-07-17T12:34:23Z</time><extensions><speed>1.247502</speed><course>215.942535</course><hAcc>0.890609</hAcc><vAcc>0.721246</vAcc></extensions></trkpt>
      <trkpt lon="-4.157475" lat="53.012455"><ele>592.601624</ele><time>2021-07-17T12:34:24Z</time><extensions><speed>1.253869</speed><course>217.256287</course><hAcc>0.890622</hAcc><vAcc>0.721316</vAcc></extensions></trkpt>
      <trkpt lon="-4.157479" lat="53.012466"><ele>592.561890</ele><time>2021-07-17T12:34:25Z</time><extensions><speed>1.259835</speed><course>217.763580</course><hAcc>0.890639</hAcc><vAcc>0.721387</vAcc></extensions></trkpt>
      <trkpt lon="-4.157484" lat="53.012477"><ele>592.525391</ele><time>2021-07-17T12:34:26Z</time><extensions><speed>1.265291</speed><course>218.954041</course><hAcc>0.890659</hAcc><vAcc>0.721456</vAcc></extensions></trkpt>
      <trkpt lon="-4.157489" lat="53.012488"><ele>592.492004</ele><time>2021-07-17T12:34:27Z</time><extensions><speed>1.270120</speed><course>217.422287</course><hAcc>0.890679</hAcc><vAcc>0.721521</vAcc></extensions></trkpt>
      <trkpt lon="-4.157494" lat="53.012499"><ele>592.461975</ele><time>2021-07-17T12:34:28Z</time><extensions><speed>1.274156</speed><course>223.047699</course><hAcc>0.890698</hAcc><vAcc>0.721579</vAcc></extensions></trkpt>
      <trkpt lon="-4.157499" lat="53.012511"><ele>592.435791</ele><time>2021-07-17T12:34:29Z</time><extensions><speed>1.277336</speed><course>226.677948</course><hAcc>0.890715</hAcc><vAcc>0.721630</vAcc></extensions></trkpt>
      <trkpt lon="-4.157503" lat="53.012522"><ele>592.414062</ele><time>2021-07-17T12:34:30Z</time><extensions><speed>1.279606</speed><course>227.703995</course><hAcc>0.890731</hAcc><vAcc>0.721673</vAcc></extensions></trkpt>
      <trkpt lon="-4.157508" lat="53.012533"><ele>592.397644</ele><time>2021-07-17T12:34:31Z</time><extensions><speed>1.280623</speed><course>230.590866</course><hAcc>0.890744</hAcc><vAcc>0.721707</vAcc></extensions></trkpt>
      <trkpt lon="-4.157513" lat="53.012544"><ele>592.387512</ele><time>2021-07-17T12:34:32Z</time><extensions><speed>1.280325</speed><course>227.438507</course><hAcc>0.890754</hAcc><vAcc>0.721731</vAcc></extensions></trkpt>
      <trkpt lon="-4.157517" lat="53.012555"><ele>592.384888</ele><time>2021-07-17T12:34:33Z</time><extensions><speed>1.279096</speed><course>225.468048</course><hAcc>0.890762</hAcc><vAcc>0.721747</vAcc></extensions></trkpt>
      <trkpt lon="-4.157522" lat="53.012566"><ele>592.390930</ele><time>2021-07-17T12:34:34Z</time><extensions><speed>1.277262</speed><course>227.529541</course><hAcc>0.890769</hAcc><vAcc>0.721754</vAcc></extensions></trkpt>
      <trkpt lon="-4.157526" lat="53.012578"><ele>592.406677</ele><time>2021-07-17T12:34:35Z</time><extensions><speed>1.274884</speed><course>229.101913</course><hAcc>0.890773</hAcc><vAcc>0.721753</vAcc></extensions></trkpt>
      <trkpt lon="-4.157529" lat="53.012589"><ele>592.432983</ele><time>2021-07-17T12:34:36Z</time><extensions><speed>1.271927</speed><course>232.658401</course><hAcc>0.890776</hAcc><vAcc>0.721745</vAcc></extensions></trkpt>
      <trkpt lon="-4.157533" lat="53.012600"><ele>592.470154</ele><time>2021-07-17T12:34:37Z</time><extensions><speed>1.268400</speed><course>240.985550</course><hAcc>0.890779</hAcc><vAcc>0.721730</vAcc></extensions></trkpt>
      <trkpt lon="-4.157536" lat="53.012611"><ele>592.518250</ele><time>2021-07-17T12:34:38Z</time><extensions><speed>1.264313</speed><course>247.754288</course><hAcc>0.890782</hAcc><vAcc>0.721710</vAcc></extensions></trkpt>
      <trkpt lon="-4.157539" lat="53.012622"><ele>592.577271</ele><time>2021-07-17T12:34:39Z</time><extensions><speed>1.259835</speed><course>248.647888</course><hAcc>0.890787</hAcc><vAcc>0.721688</vAcc></extensions></trkpt>
      <trkpt lon="-4.157542" lat="53.012634"><ele>592.646790</ele><time>2021-07-17T12:34:40Z</time><extensions><speed>1.255194</speed><course>249.837509</course><hAcc>0.890795</hAcc><vAcc>0.721665</vAcc></extensions></trkpt>
      <trkpt lon="-4.157545" lat="53.012645"><ele>592.726501</ele><time>2021-07-17T12:34:41Z</time><extensions><speed>1.250651</speed><course>249.805771</course><hAcc>0.890791</hAcc><vAcc>0.721632</vAcc></extensions></trkpt>
      <trkpt lon="-4.157547" lat="53.012656"><ele>592.815918</ele><time>2021-07-17T12:34:42Z</time><extensions><speed>1.246559</speed><course>248.499069</course><hAcc>0.890776</hAcc><vAcc>0.721594</vAcc></extensions></trkpt>
      <trkpt lon="-4.157550" lat="53.012667"><ele>592.914673</ele><time>2021-07-17T12:34:43Z</time><extensions><speed>1.243075</speed><course>253.940247</course><hAcc>0.890771</hAcc><vAcc>0.721573</vAcc></extensions></trkpt>
      <trkpt lon="-4.157552" lat="53.012678"><ele>593.021790</ele><time>2021-07-17T12:34:44Z</time><extensions><speed>1.240367</speed><course>258.336456</course><hAcc>0.890779</hAcc><vAcc>0.721582</vAcc></extensions></trkpt>
      <trkpt lon="-4.157554" lat="53.012689"><ele>593.135620</ele><time>2021-07-17T12:34:45Z</time><extensions><speed>1.238593</speed><course>262.374329</course><hAcc>0.890807</hAcc><vAcc>0.721633</vAcc></extensions></trkpt>
      <trkpt lon="-4.157556" lat="53.012700"><ele>593.254211</ele><time>2021-07-17T12:34:46Z</time><extensions><speed>1.237732</speed><course>267.969177</course><hAcc>0.890863</hAcc><vAcc>0.721742</vAcc></extensions></trkpt>
      <trkpt lon="-4.157558" lat="53.012711"><ele>593.375488</ele><time>2021-07-17T12:34:47Z</time><extensions><speed>1.237618</speed><course>264.224579</course><hAcc>0.890961</hAcc><vAcc>0.721922</vAcc></extensions></trkpt>
      <trkpt lon="-4.157560" lat="53.012722"><ele>593.497192</ele><time>2021-07-17T12:34:48Z</time><extensions><speed>1.238032</speed><course>268.129974</course><hAcc>0.891119</hAcc><vAcc>0.722191</vAcc></extensions></trkpt>
      <trkpt lon="-4.157562" lat="53.012733"><ele>593.617493</ele><time>2021-07-17T12:34:49Z</time><extensions><speed>1.238878</speed><course>264.321320</course><hAcc>0.891359</hAcc><vAcc>0.722565</vAcc></extensions></trkpt>
      <trkpt lon="-4.157565" lat="53.012744"><ele>593.734863</ele><time>2021-07-17T12:34:50Z</time><extensions><speed>1.240241</speed><course>264.580688</course><hAcc>0.891710</hAcc><vAcc>0.723069</vAcc></extensions></trkpt>
      <trkpt lon="-4.157567" lat="53.012755"><ele>593.847961</ele><time>2021-07-17T12:34:51Z</time><extensions><speed>1.242301</speed><course>261.702026</course><hAcc>0.892207</hAcc><vAcc>0.723729</vAcc></extensions></trkpt>
      <trkpt lon="-4.157570" lat="53.012766"><ele>593.955444</ele><time>2021-07-17T12:34:52Z</time><extensions><speed>1.245014</speed><course>257.883942</course><hAcc>0.892886</hAcc><vAcc>0.724569</vAcc></extensions></trkpt>
      <trkpt lon="-4.157572" lat="53.012777"><ele>594.056091</ele><time>2021-07-17T12:34:53Z</time><extensions><speed>1.248320</speed><course>263.828339</course><hAcc>0.893785</hAcc><vAcc>0.725606</vAcc></extensions></trkpt>
      <trkpt lon="-4.157575" lat="53.012789"><ele>594.148865</ele><time>2021-07-17T12:34:54Z</time><extensions><speed>1.252137</speed><course>263.187408</course><hAcc>0.894936</hAcc><vAcc>0.726843</vAcc></extensions></trkpt>
      <trkpt lon="-4.157578" lat="53.012800"><ele>594.232910</ele><time>2021-07-17T12:34:55Z</time><extensions><speed>1.256240</speed><course>268.276398</course><hAcc>0.896360</hAcc><vAcc>0.728262</vAcc></extensions></trkpt>
      <trkpt lon="-4.157581" lat="53.012811"><ele>594.307617</ele><time>2021-07-17T12:34:56Z</time><extensions><speed>1.260503</speed><course>267.108978</course><hAcc>0.898052</hAcc><vAcc>0.729822</vAcc></extensions></trkpt>
      <trkpt lon="-4.157585" lat="53.012822"><ele>594.372620</ele><time>2021-07-17T12:34:57Z</time><extensions><speed>1.264724</speed><course>258.999207</course><hAcc>0.899979</hAcc><vAcc>0.731451</vAcc></extensions></trkpt>
      <trkpt lon="-4.157588" lat="53.012833"><ele>594.428162</ele><time>2021-07-17T12:34:58Z</time><extensions><speed>1.268577</speed><course>261.609131</course><hAcc>0.902059</hAcc><vAcc>0.733044</vAcc></extensions></trkpt>
      <trkpt lon="-4.157592" lat="53.012844"><ele>594.474731</ele><time>2021-07-17T12:34:59Z</time><extensions><speed>1.271770</speed><course>260.762634</course><hAcc>0.904165</hAcc><vAcc>0.734470</vAcc></extensions></trkpt>
      <trkpt lon="-4.157596" lat="53.012856"><ele>594.513428</ele><time>2021-07-17T12:35:00Z</time><extensions><speed>1.274255</speed><course>257.773804</course><hAcc>0.906124</hAcc><vAcc>0.735586</vAcc></extensions></trkpt>
      <trkpt lon="-4.157600" lat="53.012867"><ele>594.545410</ele><time>2021-07-17T12:35:01Z</time><extensions><speed>1.276328</speed><course>262.016693</course><hAcc>0.907741</hAcc><vAcc>0.736277</vAcc></extensions></trkpt>
      <trkpt lon="-4.157604" lat="53.012878"><ele>594.571411</ele><time>2021-07-17T12:35:02Z</time><extensions><speed>1.278330</speed><course>259.305511</course><hAcc>0.908855</hAcc><vAcc>0.736519</vAcc></extensions></trkpt>
      <trkpt lon="-4.157609" lat="53.012889"><ele>594.592224</ele><time>2021-07-17T12:35:03Z</time><extensions><speed>1.280419</speed><course>255.993027</course><hAcc>0.909438</hAcc><vAcc>0.736479</vAcc></extensions></trkpt>
      <trkpt lon="-4.157614" lat="53.012900"><ele>594.609009</ele><time>2021-07-17T12:35:04Z</time><extensions><speed>1.282553</speed><course>263.841553</course><hAcc>0.909763</hAcc><vAcc>0.736657</vAcc></extensions></trkpt>
      <trkpt lon="-4.157619" lat="53.012911"><ele>594.622803</ele><time>2021-07-17T12:35:05Z</time><extensions><speed>1.284763</speed><course>263.463287</course><hAcc>0.910659</hAcc><vAcc>0.738087</vAcc></extensions></trkpt>
      <trkpt lon="-4.157625" lat="53.012922"><ele>594.634766</ele><time>2021-07-17T12:35:06Z</time><extensions><speed>1.287104</speed><course>263.463287</course><hAcc>0.913869</hAcc><vAcc>0.742565</vAcc></extensions></trkpt>
      <trkpt lon="-4.157631" lat="53.012933"><ele>594.645752</ele><time>2021-07-17T12:35:07Z</time><extensions><speed>1.289529</speed><course>263.463287</course><hAcc>0.922479</hAcc><vAcc>0.752882</vAcc></extensions></trkpt>
      <trkpt lon="-4.157637" lat="53.012944"><ele>594.656677</ele><time>2021-07-17T12:35:08Z</time><extensions><speed>1.291963</speed><course>263.463287</course><hAcc>0.941319</hAcc><vAcc>0.772942</vAcc></extensions></trkpt>
      <trkpt lon="-4.157644" lat="53.012955"><ele>594.668213</ele><time>2021-07-17T12:35:09Z</time><extensions><speed>1.294363</speed><course>263.463257</course><hAcc>0.977081</hAcc><vAcc>0.807607</vAcc></extensions></trkpt>
      <trkpt lon="-4.157654" lat="53.012965"><ele>594.654480</ele><time>2021-07-17T12:35:10Z</time><extensions><speed>1.213199</speed><course>207.637573</course><hAcc>0.938652</hAcc><vAcc>0.771753</vAcc></extensions></trkpt>
      <trkpt lon="-4.157663" lat="53.012974"><ele>594.693237</ele><time>2021-07-17T12:35:11Z</time><extensions><speed>1.208053</speed><course>199.781464</course><hAcc>0.919036</hAcc><vAcc>0.750534</vAcc></extensions></trkpt>
      <trkpt lon="-4.157673" lat="53.012983"><ele>594.737366</ele><time>2021-07-17T12:35:12Z</time><extensions><speed>1.201335</speed><course>204.898392</course><hAcc>0.910820</hAcc><vAcc>0.740032</vAcc></extensions></trkpt>
      <trkpt lon="-4.157683" lat="53.012992"><ele>594.786865</ele><time>2021-07-17T12:35:13Z</time><extensions><speed>1.193350</speed><course>218.988647</course><hAcc>0.908501</hAcc><vAcc>0.735899</vAcc></extensions></trkpt>
      <trkpt lon="-4.157693" lat="53.013001"><ele>594.840881</ele><time>2021-07-17T12:35:14Z</time><extensions><speed>1.184385</speed><course>240.875916</course><hAcc>0.908567</hAcc><vAcc>0.735014</vAcc></extensions></trkpt>
      <trkpt lon="-4.157703" lat="53.013010"><ele>594.898499</ele><time>2021-07-17T12:35:15Z</time><extensions><speed>1.174720</speed><course>240.875916</course><hAcc>0.909054</hAcc><vAcc>0.735373</vAcc></extensions></trkpt>
      <trkpt lon="-4.157713" lat="53.013018"><ele>594.958923</ele><time>2021-07-17T12:35:16Z</time><extensions><speed>1.164521</speed><course>240.875916</course><hAcc>0.909048</hAcc><vAcc>0.735832</vAcc></extensions></trkpt>
      <trkpt lon="-4.157723" lat="53.013027"><ele>595.021545</ele><time>2021-07-17T12:35:17Z</time><extensions><speed>1.153838</speed><course>240.875916</course><hAcc>0.908272</hAcc><vAcc>0.735846</vAcc></extensions></trkpt>
      <trkpt lon="-4.157734" lat="53.013035"><ele>595.085999</ele><time>2021-07-17T12:35:18Z</time><extensions><speed>1.142916</speed><course>240.875916</course><hAcc>0.906787</hAcc><vAcc>0.735248</vAcc></extensions></trkpt>
      <trkpt lon="-4.157744" lat="53.013043"><ele>595.152588</ele><time>2021-07-17T12:35:19Z</time><extensions><speed>1.131730</speed><course>240.875916</course><hAcc>0.904808</hAcc><vAcc>0.734084</vAcc></extensions></trkpt>
      <trkpt lon="-4.157754" lat="53.013051"><ele>595.221863</ele><time>2021-07-17T12:35:20Z</time><extensions><speed>1.119874</speed><course>269.430084</course><hAcc>0.902580</hAcc><vAcc>0.732500</vAcc></extensions></trkpt>
      <trkpt lon="-4.157764" lat="53.013059"><ele>595.294922</ele><time>2021-07-17T12:35:21Z</time><extensions><speed>1.107092</speed><course>274.056000</course><hAcc>0.900320</hAcc><vAcc>0.730675</vAcc></extensions></trkpt>
      <trkpt lon="-4.157774" lat="53.013067"><ele>595.373230</ele><time>2021-07-17T12:35:22Z</time><extensions><speed>1.093473</speed><course>273.580658</course><hAcc>0.898193</hAcc><vAcc>0.728777</vAcc></extensions></trkpt>
      <trkpt lon="-4.157784" lat="53.013075"><ele>595.458069</ele><time>2021-07-17T12:35:23Z</time><extensions><speed>1.079140</speed><course>266.285736</course><hAcc>0.896303</hAcc><vAcc>0.726938</vAcc></extensions></trkpt>
      <trkpt lon="-4.157793" lat="53.013083"><ele>595.550659</ele><time>2021-07-17T12:35:24Z</time><extensions><speed>1.063934</speed><course>280.416809</course><hAcc>0.894700</hAcc><vAcc>0.725257</vAcc></extensions></trkpt>
      <trkpt lon="-4.157802" lat="53.013090"><ele>595.652405</ele><time>2021-07-17T12:35:25Z</time><extensions><speed>1.047378</speed><course>289.633057</course><hAcc>0.893396</hAcc><vAcc>0.723791</vAcc></extensions></trkpt>
      <trkpt lon="-4.157811" lat="53.013098"><ele>595.764526</ele><time>2021-07-17T12:35:26Z</time><extensions><speed>1.029040</speed><course>274.042023</course><hAcc>0.892375</hAcc><vAcc>0.722567</vAcc></extensions></trkpt>
      <trkpt lon="-4.157818" lat="53.013106"><ele>595.888062</ele><time>2021-07-17T12:35:27Z</time><extensions><speed>1.008880</speed><course>259.398621</course><hAcc>0.891601</hAcc><vAcc>0.721588</vAcc></extensions></trkpt>
      <trkpt lon="-4.157825" lat="53.013114"><ele>596.023438</ele><time>2021-07-17T12:35:28Z</time><extensions><speed>0.987715</speed><course>235.228027</course><hAcc>0.891035</hAcc><vAcc>0.720840</vAcc></extensions></trkpt>
      <trkpt lon="-4.157832" lat="53.013122"><ele>596.170593</ele><time>2021-07-17T12:35:29Z</time><extensions><speed>0.967031</speed><course>233.943741</course><hAcc>0.890654</hAcc><vAcc>0.720311</vAcc></extensions></trkpt>
      <trkpt lon="-4.157837" lat="53.013130"><ele>596.329590</ele><time>2021-07-17T12:35:30Z</time><extensions><speed>0.948026</speed><course>251.986771</course><hAcc>0.890420</hAcc><vAcc>0.719971</vAcc></extensions></trkpt>
      <trkpt lon="-4.157842" lat="53.013138"><ele>596.499817</ele><time>2021-07-17T12:35:31Z</time><extensions><speed>0.931807</speed><course>230.632401</course><hAcc>0.890282</hAcc><vAcc>0.719780</vAcc></extensions></trkpt>
      <trkpt lon="-4.157846" lat="53.013146"><ele>596.680969</ele><time>2021-07-17T12:35:32Z</time><extensions><speed>0.919011</speed><course>208.539734</course><hAcc>0.890215</hAcc><vAcc>0.719711</vAcc></extensions></trkpt>
      <trkpt lon="-4.157849" lat="53.013154"><ele>596.872925</ele><time>2021-07-17T12:35:33Z</time><extensions><speed>0.909770</speed><course>217.062653</course><hAcc>0.890200</hAcc><vAcc>0.719738</vAcc></extensions></trkpt>
      <trkpt lon="-4.157851" lat="53.013162"><ele>597.075256</ele><time>2021-07-17T12:35:34Z</time><extensions><speed>0.903915</speed><course>216.480164</course><hAcc>0.890220</hAcc><vAcc>0.719844</vAcc></extensions></trkpt>
      <trkpt lon="-4.157853" lat="53.013170"><ele>597.287170</ele><time>2021-07-17T12:35:35Z</time><extensions><speed>0.900840</speed><course>215.204285</course><hAcc>0.890265</hAcc><vAcc>0.720011</vAcc></extensions></trkpt>
      <trkpt lon="-4.157854" lat="53.013178"><ele>597.507568</ele><time>2021-07-17T12:35:36Z</time><extensions><speed>0.899775</speed><course>192.608246</course><hAcc>0.890325</hAcc><vAcc>0.720227</vAcc></extensions></trkpt>
      <trkpt lon="-4.157855" lat="53.013186"><ele>597.735352</ele><time>2021-07-17T12:35:37Z</time><extensions><speed>0.899999</speed><course>196.818375</course><hAcc>0.890394</hAcc><vAcc>0.720479</vAcc></extensions></trkpt>
      <trkpt lon="-4.157856" lat="53.013194"><ele>597.969421</ele><time>2021-07-17T12:35:38Z</time><extensions><speed>0.900885</speed><course>200.564194</course><hAcc>0.890467</hAcc><vAcc>0.720755</vAcc></extensions></trkpt>
      <trkpt lon="-4.157856" lat="53.013202"><ele>598.208557</ele><time>2021-07-17T12:35:39Z</time><extensions><speed>0.902158</speed><course>224.718231</course><hAcc>0.890540</hAcc><vAcc>0.721041</vAcc></extensions></trkpt>
      <trkpt lon="-4.157857" lat="53.013210"><ele>598.451721</ele><time>2021-07-17T12:35:40Z</time><extensions><speed>0.903493</speed><course>228.969803</course><hAcc>0.890611</hAcc><vAcc>0.721323</vAcc></extensions></trkpt>
      <trkpt lon="-4.157858" lat="53.013218"><ele>598.697998</ele><time>2021-07-17T12:35:41Z</time><extensions><speed>0.904499</speed><course>250.366501</course><hAcc>0.890678</hAcc><vAcc>0.721585</vAcc></extensions></trkpt>
      <trkpt lon="-4.157858" lat="53.013226"><ele>598.946594</ele><time>2021-07-17T12:35:42Z</time><extensions><speed>0.905074</speed><course>-1.000000</course><hAcc>0.890738</hAcc><vAcc>0.721815</vAcc></extensions></trkpt>
      <trkpt lon="-4.157859" lat="53.013234"><ele>599.196533</ele><time>2021-07-17T12:35:43Z</time><extensions><speed>0.905147</speed><course>232.063629</course><hAcc>0.890790</hAcc><vAcc>0.722007</vAcc></extensions></trkpt>
      <trkpt lon="-4.157861" lat="53.013243"><ele>599.446716</ele><time>2021-07-17T12:35:44Z</time><extensions><speed>0.904796</speed><course>232.063614</course><hAcc>0.890831</hAcc><vAcc>0.722159</vAcc></extensions></trkpt>
      <trkpt lon="-4.157862" lat="53.013251"><ele>599.696045</ele><time>2021-07-17T12:35:45Z</time><extensions><speed>0.904142</speed><course>232.063614</course><hAcc>0.890861</hAcc><vAcc>0.722272</vAcc></extensions></trkpt>
      <trkpt lon="-4.157863" lat="53.013259"><ele>599.943176</ele><time>2021-07-17T12:35:46Z</time><extensions><speed>0.903279</speed><course>232.063599</course><hAcc>0.890878</hAcc><vAcc>0.722350</vAcc></extensions></trkpt>
      <trkpt lon="-4.157865" lat="53.013267"><ele>600.186768</ele><time>2021-07-17T12:35:46Z</time><extensions><speed>0.902437</speed><course>232.063599</course><hAcc>0.890900</hAcc><vAcc>0.722409</vAcc></extensions></trkpt>
      <trkpt lon="-4.157866" lat="53.013275"><ele>600.426636</ele><time>2021-07-17T12:35:47Z</time><extensions><speed>0.901772</speed><course>232.063583</course><hAcc>0.890928</hAcc><vAcc>0.722452</vAcc></extensions></trkpt>
      <trkpt lon="-4.157868" lat="53.013283"><ele>600.662048</ele><time>2021-07-17T12:35:48Z</time><extensions><speed>0.901159</speed><course>232.063583</course><hAcc>0.890945</hAcc><vAcc>0.722471</vAcc></extensions></trkpt>
      <trkpt lon="-4.157869" lat="53.013291"><ele>600.892761</ele><time>2021-07-17T12:35:49Z</time><extensions><speed>0.900173</speed><course>248.555511</course><hAcc>0.890953</hAcc><vAcc>0.722470</vAcc></extensions></trkpt>
      <trkpt lon="-4.157870" lat="53.013299"><ele>601.118835</ele><time>2021-07-17T12:35:50Z</time><extensions><speed>0.898555</speed><course>214.727661</course><hAcc>0.890955</hAcc><vAcc>0.722452</vAcc></extensions></trkpt>
      <trkpt lon="-4.157872" lat="53.013307"><ele>601.340393</ele><time>2021-07-17T12:35:51Z</time><extensions><speed>0.896070</speed><course>215.656113</course><hAcc>0.890952</hAcc><vAcc>0.722420</vAcc></extensions></trkpt>
      <trkpt lon="-4.157873" lat="53.013315"><ele>601.557800</ele><time>2021-07-17T12:35:52Z</time><extensions><speed>0.892302</speed><course>205.637772</course><hAcc>0.890948</hAcc><vAcc>0.722379</vAcc></extensions></trkpt>
      <trkpt lon="-4.157874" lat="53.013323"><ele>601.771851</ele><time>2021-07-17T12:35:53Z</time><extensions><speed>0.886794</speed><course>201.575424</course><hAcc>0.890942</hAcc><vAcc>0.722333</vAcc></extensions></trkpt>
      <trkpt lon="-4.157875" lat="53.013331"><ele>601.983704</ele><time>2021-07-17T12:35:54Z</time><extensions><speed>0.879109</speed><course>196.854248</course><hAcc>0.890939</hAcc><vAcc>0.722288</vAcc></extensions></trkpt>
      <trkpt lon="-4.157876" lat="53.013339"><ele>602.194031</ele><time>2021-07-17T12:35:55Z</time><extensions><speed>0.869035</speed><course>198.264053</course><hAcc>0.890938</hAcc><vAcc>0.722251</vAcc></extensions></trkpt>
      <trkpt lon="-4.157877" lat="53.013346"><ele>602.403442</ele><time>2021-07-17T12:35:56Z</time><extensions><speed>0.856507</speed><course>198.636932</course><hAcc>0.890943</hAcc><vAcc>0.722229</vAcc></extensions></trkpt>
      <trkpt lon="-4.157878" lat="53.013354"><ele>602.612427</ele><time>2021-07-17T12:35:57Z</time><extensions><speed>0.841638</speed><course>192.727798</course><hAcc>0.890952</hAcc><vAcc>0.722228</vAcc></extensions></trkpt>
      <trkpt lon="-4.157879" lat="53.013362"><ele>602.821411</ele><time>2021-07-17T12:35:58Z</time><extensions><speed>0.824819</speed><course>184.691818</course><hAcc>0.890968</hAcc><vAcc>0.722253</vAcc></extensions></trkpt>
      <trkpt lon="-4.157880" lat="53.013369"><ele>603.030579</ele><time>2021-07-17T12:35:59Z</time><extensions><speed>0.806612</speed><course>177.917740</course><hAcc>0.890991</hAcc><vAcc>0.722307</vAcc></extensions></trkpt>
      <trkpt lon="-4.157882" lat="53.013376"><ele>603.240356</ele><time>2021-07-17T12:36:00Z</time><extensions><speed>0.787749</speed><course>169.935883</course><hAcc>0.891020</hAcc><vAcc>0.722388</vAcc></extensions></trkpt>
      <trkpt lon="-4.157884" lat="53.013383"><ele>603.451721</ele><time>2021-07-17T12:36:02Z</time><extensions><speed>0.768939</speed><course>168.290512</course><hAcc>0.891037</hAcc><vAcc>0.722475</vAcc></extensions></trkpt>
      <trkpt lon="-4.157885" lat="53.013390"><ele>603.665039</ele><time>2021-07-17T12:36:03Z</time><extensions><speed>0.751046</speed><course>175.847488</course><hAcc>0.891041</hAcc><vAcc>0.722562</vAcc></extensions></trkpt>
      <trkpt lon="-4.157888" lat="53.013396"><ele>603.881592</ele><time>2021-07-17T12:36:04Z</time><extensions><speed>0.734773</speed><course>182.489380</course><hAcc>0.891047</hAcc><vAcc>0.722649</vAcc></extensions></trkpt>
      <trkpt lon="-4.157890" lat="53.013402"><ele>604.101990</ele><time>2021-07-17T12:36:05Z</time><extensions><speed>0.720805</speed><course>193.224472</course><hAcc>0.891053</hAcc><vAcc>0.722724</vAcc></extensions></trkpt>
      <trkpt lon="-4.157893" lat="53.013409"><ele>604.326355</ele><time>2021-07-17T12:36:06Z</time><extensions><speed>0.709815</speed><course>210.457108</course><hAcc>0.891057</hAcc><vAcc>0.722776</vAcc></extensions></trkpt>
      <trkpt lon="-4.157897" lat="53.013415"><ele>604.554260</ele><time>2021-07-17T12:36:07Z</time><extensions><speed>0.702223</speed><course>227.054108</course><hAcc>0.891057</hAcc><vAcc>0.722798</vAcc></extensions></trkpt>
      <trkpt lon="-4.157900" lat="53.013421"><ele>604.784729</ele><time>2021-07-17T12:36:08Z</time><extensions><speed>0.697981</speed><course>247.666534</course><hAcc>0.891052</hAcc><vAcc>0.722787</vAcc></extensions></trkpt>
      <trkpt lon="-4.157904" lat="53.013426"><ele>605.016479</ele><time>2021-07-17T12:36:09Z</time><extensions><speed>0.696601</speed><course>261.197876</course><hAcc>0.891040</hAcc><vAcc>0.722745</vAcc></extensions></trkpt>
      <trkpt lon="-4.157909" lat="53.013432"><ele>605.248474</ele><time>2021-07-17T12:36:10Z</time><extensions><speed>0.697531</speed><course>263.217255</course><hAcc>0.891023</hAcc><vAcc>0.722675</vAcc></extensions></trkpt>
      <trkpt lon="-4.157913" lat="53.013438"><ele>605.480103</ele><time>2021-07-17T12:36:11Z</time><extensions><speed>0.700375</speed><course>271.463165</course><hAcc>0.891000</hAcc><vAcc>0.722580</vAcc></extensions></trkpt>
      <trkpt lon="-4.157918" lat="53.013443"><ele>605.711304</ele><time>2021-07-17T12:36:12Z</time><extensions><speed>0.704766</speed><course>281.991608</course><hAcc>0.890972</hAcc><vAcc>0.722466</vAcc></extensions></trkpt>
      <trkpt lon="-4.157924" lat="53.013449"><ele>605.942322</ele><time>2021-07-17T12:36:13Z</time><extensions><speed>0.710071</speed><course>285.895782</course><hAcc>0.890942</hAcc><vAcc>0.722341</vAcc></extensions></trkpt>
      <trkpt lon="-4.157929" lat="53.013454"><ele>606.173645</ele><time>2021-07-17T12:36:14Z</time><extensions><speed>0.715591</speed><course>287.327179</course><hAcc>0.890910</hAcc><vAcc>0.722213</vAcc></extensions></trkpt>
      <trkpt lon="-4.157934" lat="53.013460"><ele>606.405701</ele><time>2021-07-17T12:36:15Z</time><extensions><speed>0.720932</speed><course>297.396240</course><hAcc>0.890878</hAcc><vAcc>0.722089</vAcc></extensions></trkpt>
      <trkpt lon="-4.157940" lat="53.013465"><ele>606.638550</ele><time>2021-07-17T12:36:16Z</time><extensions><speed>0.725951</speed><course>299.473175</course><hAcc>0.890848</hAcc><vAcc>0.721978</vAcc></extensions></trkpt>
      <trkpt lon="-4.157945" lat="53.013471"><ele>606.872314</ele><time>2021-07-17T12:36:17Z</time><extensions><speed>0.730632</speed><course>297.683289</course><hAcc>0.890822</hAcc><vAcc>0.721884</vAcc></extensions></trkpt>
      <trkpt lon="-4.157951" lat="53.013477"><ele>607.106995</ele><time>2021-07-17T12:36:18Z</time><extensions><speed>0.735208</speed><course>292.365356</course><hAcc>0.890801</hAcc><vAcc>0.721810</vAcc></extensions></trkpt>
      <trkpt lon="-4.157956" lat="53.013483"><ele>607.342346</ele><time>2021-07-17T12:36:19Z</time><extensions><speed>0.740000</speed><course>291.092651</course><hAcc>0.890787</hAcc><vAcc>0.721760</vAcc></extensions></trkpt>
      <trkpt lon="-4.157961" lat="53.013489"><ele>607.577759</ele><time>2021-07-17T12:36:20Z</time><extensions><speed>0.745294</speed><course>297.007721</course><hAcc>0.890778</hAcc><vAcc>0.721733</vAcc></extensions></trkpt>
      <trkpt lon="-4.157966" lat="53.013495"><ele>607.812500</ele><time>2021-07-17T12:36:21Z</time><extensions><speed>0.751442</speed><course>291.539093</course><hAcc>0.890777</hAcc><vAcc>0.721729</vAcc></extensions></trkpt>
      <trkpt lon="-4.157970" lat="53.013501"><ele>608.045715</ele><time>2021-07-17T12:36:22Z</time><extensions><speed>0.758358</speed><course>293.314819</course><hAcc>0.890782</hAcc><vAcc>0.721749</vAcc></extensions></trkpt>
      <trkpt lon="-4.157975" lat="53.013507"><ele>608.277405</ele><time>2021-07-17T12:36:23Z</time><extensions><speed>0.765630</speed><course>297.043213</course><hAcc>0.890794</hAcc><vAcc>0.721792</vAcc></extensions></trkpt>
      <trkpt lon="-4.157979" lat="53.013513"><ele>608.507996</ele><time>2021-07-17T12:36:24Z</time><extensions><speed>0.772965</speed><course>301.573547</course><hAcc>0.890809</hAcc><vAcc>0.721854</vAcc></extensions></trkpt>
      <trkpt lon="-4.157983" lat="53.013520"><ele>608.738037</ele><time>2021-07-17T12:36:25Z</time><extensions><speed>0.780299</speed><course>305.542847</course><hAcc>0.890828</hAcc><vAcc>0.721932</vAcc></extensions></trkpt>
      <trkpt lon="-4.157987" lat="53.013527"><ele>608.967896</ele><time>2021-07-17T12:36:26Z</time><extensions><speed>0.787497</speed><course>304.461029</course><hAcc>0.890847</hAcc><vAcc>0.722020</vAcc></extensions></trkpt>
      <trkpt lon="-4.157992" lat="53.013533"><ele>609.198120</ele><time>2021-07-17T12:36:27Z</time><extensions><speed>0.794171</speed><course>304.519958</course><hAcc>0.890865</hAcc><vAcc>0.722112</vAcc></extensions></trkpt>
      <trkpt lon="-4.157996" lat="53.013540"><ele>609.428955</ele><time>2021-07-17T12:36:28Z</time><extensions><speed>0.799863</speed><course>306.835541</course><hAcc>0.890879</hAcc><vAcc>0.722195</vAcc></extensions></trkpt>
      <trkpt lon="-4.158000" lat="53.013547"><ele>609.660522</ele><time>2021-07-17T12:36:29Z</time><extensions><speed>0.804088</speed><course>312.924469</course><hAcc>0.890887</hAcc><vAcc>0.722259</vAcc></extensions></trkpt>
      <trkpt lon="-4.158005" lat="53.013553"><ele>609.892883</ele><time>2021-07-17T12:36:30Z</time><extensions><speed>0.806458</speed><course>313.121582</course><hAcc>0.890888</hAcc><vAcc>0.722292</vAcc></extensions></trkpt>
      <trkpt lon="-4.158010" lat="53.013560"><ele>610.125977</ele><time>2021-07-17T12:36:31Z</time><extensions><speed>0.806882</speed><course>312.363678</course><hAcc>0.890880</hAcc><vAcc>0.722285</vAcc></extensions></trkpt>
      <trkpt lon="-4.158014" lat="53.013567"><ele>610.359375</ele><time>2021-07-17T12:36:32Z</time><extensions><speed>0.805510</speed><course>309.905548</course><hAcc>0.890862</hAcc><vAcc>0.722230</vAcc></extensions></trkpt>
      <trkpt lon="-4.158020" lat="53.013573"><ele>610.592896</ele><time>2021-07-17T12:36:33Z</time><extensions><speed>0.802733</speed><course>308.597687</course><hAcc>0.890834</hAcc><vAcc>0.722127</vAcc></extensions></trkpt>
      <trkpt lon="-4.158025" lat="53.013580"><ele>610.826172</ele><time>2021-07-17T12:36:34Z</time><extensions><speed>0.799376</speed><course>307.103394</course><hAcc>0.890796</hAcc><vAcc>0.721975</vAcc></extensions></trkpt>
      <trkpt lon="-4.158031" lat="53.013586"><ele>611.059082</ele><time>2021-07-17T12:36:35Z</time><extensions><speed>0.796230</speed><course>306.897400</course><hAcc>0.890748</hAcc><vAcc>0.721782</vAcc></extensions></trkpt>
      <trkpt lon="-4.158037" lat="53.013592"><ele>611.291870</ele><time>2021-07-17T12:36:36Z</time><extensions><speed>0.793566</speed><course>302.152618</course><hAcc>0.890693</hAcc><vAcc>0.721556</vAcc></extensions></trkpt>
      <trkpt lon="-4.158043" lat="53.013598"><ele>611.524597</ele><time>2021-07-17T12:36:37Z</time><extensions><speed>0.791086</speed><course>297.726410</course><hAcc>0.890632</hAcc><vAcc>0.721310</vAcc></extensions></trkpt>
      <trkpt lon="-4.158050" lat="53.013604"><ele>611.757080</ele><time>2021-07-17T12:36:38Z</time><extensions><speed>0.788188</speed><course>300.194183</course><hAcc>0.890567</hAcc><vAcc>0.721056</vAcc></extensions></trkpt>
      <trkpt lon="-4.158057" lat="53.013609"><ele>611.988586</ele><time>2021-07-17T12:36:39Z</time><extensions><speed>0.784349</speed><course>297.151825</course><hAcc>0.890501</hAcc><vAcc>0.720810</vAcc></extensions></trkpt>
      <trkpt lon="-4.158064" lat="53.013615"><ele>612.218201</ele><time>2021-07-17T12:36:40Z</time><extensions><speed>0.779460</speed><course>298.399384</course><hAcc>0.890440</hAcc><vAcc>0.720583</vAcc></extensions></trkpt>
      <trkpt lon="-4.158071" lat="53.013620"><ele>612.445374</ele><time>2021-07-17T12:36:41Z</time><extensions><speed>0.773914</speed><course>300.837921</course><hAcc>0.890387</hAcc><vAcc>0.720387</vAcc></extensions></trkpt>
      <trkpt lon="-4.158079" lat="53.013626"><ele>612.669678</ele><time>2021-07-17T12:36:42Z</time><extensions><speed>0.768203</speed><course>299.844330</course><hAcc>0.890352</hAcc><vAcc>0.720234</vAcc></extensions></trkpt>
      <trkpt lon="-4.158086" lat="53.013631"><ele>612.890503</ele><time>2021-07-17T12:36:43Z</time><extensions><speed>0.762926</speed><course>300.001373</course><hAcc>0.890344</hAcc><vAcc>0.720136</vAcc></extensions></trkpt>
      <trkpt lon="-4.158094" lat="53.013636"><ele>613.107849</ele><time>2021-07-17T12:36:44Z</time><extensions><speed>0.758945</speed><course>294.568817</course><hAcc>0.890377</hAcc><vAcc>0.720108</vAcc></extensions></trkpt>
      <trkpt lon="-4.158102" lat="53.013641"><ele>613.322021</ele><time>2021-07-17T12:36:45Z</time><extensions><speed>0.756832</speed><course>300.687103</course><hAcc>0.890470</hAcc><vAcc>0.720170</vAcc></extensions></trkpt>
      <trkpt lon="-4.158109" lat="53.013646"><ele>613.533447</ele><time>2021-07-17T12:36:46Z</time><extensions><speed>0.756606</speed><course>297.691925</course><hAcc>0.890648</hAcc><vAcc>0.720342</vAcc></extensions></trkpt>
      <trkpt lon="-4.158117" lat="53.013650"><ele>613.742493</ele><time>2021-07-17T12:36:47Z</time><extensions><speed>0.757743</speed><course>293.928223</course><hAcc>0.890940</hAcc><vAcc>0.720649</vAcc></extensions></trkpt>
      <trkpt lon="-4.158126" lat="53.013655"><ele>613.949585</ele><time>2021-07-17T12:36:48Z</time><extensions><speed>0.759382</speed><course>297.041656</course><hAcc>0.891381</hAcc><vAcc>0.721121</vAcc></extensions></trkpt>
      <trkpt lon="-4.158134" lat="53.013660"><ele>614.155151</ele><time>2021-07-17T12:36:49Z</time><extensions><speed>0.760481</speed><course>298.722290</course><hAcc>0.892011</hAcc><vAcc>0.721786</vAcc></extensions></trkpt>
      <trkpt lon="-4.158142" lat="53.013664"><ele>614.359802</ele><time>2021-07-17T12:36:50Z</time><extensions><speed>0.760184</speed><course>296.674316</course><hAcc>0.892868</hAcc><vAcc>0.722669</vAcc></extensions></trkpt>
      <trkpt lon="-4.158151" lat="53.013669"><ele>614.564026</ele><time>2021-07-17T12:36:51Z</time><extensions><speed>0.757933</speed><course>301.147156</course><hAcc>0.893986</hAcc><vAcc>0.723782</vAcc></extensions></trkpt>
      <trkpt lon="-4.158160" lat="53.013673"><ele>614.768066</ele><time>2021-07-17T12:36:52Z</time><extensions><speed>0.753314</speed><course>301.618805</course><hAcc>0.895387</hAcc><vAcc>0.725119</vAcc></extensions></trkpt>
      <trkpt lon="-4.158168" lat="53.013677"><ele>614.971558</ele><time>2021-07-17T12:36:53Z</time><extensions><speed>0.746161</speed><course>300.678009</course><hAcc>0.897069</hAcc><vAcc>0.726645</vAcc></extensions></trkpt>
      <trkpt lon="-4.158177" lat="53.013681"><ele>615.173645</ele><time>2021-07-17T12:36:54Z</time><extensions><speed>0.736256</speed><course>306.078644</course><hAcc>0.898995</hAcc><vAcc>0.728288</vAcc></extensions></trkpt>
      <trkpt lon="-4.158186" lat="53.013685"><ele>615.373352</ele><time>2021-07-17T12:36:55Z</time><extensions><speed>0.723487</speed><course>302.099213</course><hAcc>0.901086</hAcc><vAcc>0.729939</vAcc></extensions></trkpt>
      <trkpt lon="-4.158194" lat="53.013689"><ele>615.569763</ele><time>2021-07-17T12:36:56Z</time><extensions><speed>0.707991</speed><course>298.253754</course><hAcc>0.903213</hAcc><vAcc>0.731453</vAcc></extensions></trkpt>
      <trkpt lon="-4.158202" lat="53.013693"><ele>615.761719</ele><time>2021-07-17T12:36:57Z</time><extensions><speed>0.690213</speed><course>299.772583</course><hAcc>0.905201</hAcc><vAcc>0.732676</vAcc></extensions></trkpt>
      <trkpt lon="-4.158210" lat="53.013697"><ele>615.947876</ele><time>2021-07-17T12:36:58Z</time><extensions><speed>0.670591</speed><course>299.946075</course><hAcc>0.906851</hAcc><vAcc>0.733481</vAcc></extensions></trkpt>
      <trkpt lon="-4.158218" lat="53.013701"><ele>616.127441</ele><time>2021-07-17T12:36:59Z</time><extensions><speed>0.649482</speed><course>303.968170</course><hAcc>0.907998</hAcc><vAcc>0.733832</vAcc></extensions></trkpt>
      <trkpt lon="-4.158226" lat="53.013704"><ele>616.300293</ele><time>2021-07-17T12:37:00Z</time><extensions><speed>0.627598</speed><course>302.223755</course><hAcc>0.908608</hAcc><vAcc>0.733889</vAcc></extensions></trkpt>
      <trkpt lon="-4.158233" lat="53.013708"><ele>616.466736</ele><time>2021-07-17T12:37:01Z</time><extensions><speed>0.605526</speed><course>303.590851</course><hAcc>0.908950</hAcc><vAcc>0.734142</vAcc></extensions></trkpt>
      <trkpt lon="-4.158240" lat="53.013711"><ele>616.627441</ele><time>2021-07-17T12:37:02Z</time><extensions><speed>0.583611</speed><course>302.656281</course><hAcc>0.909849</hAcc><vAcc>0.735612</vAcc></extensions></trkpt>
      <trkpt lon="-4.158246" lat="53.013714"><ele>616.783142</ele><time>2021-07-17T12:37:03Z</time><extensions><speed>0.562363</speed><course>307.857574</course><hAcc>0.913040</hAcc><vAcc>0.740086</vAcc></extensions></trkpt>
      <trkpt lon="-4.158253" lat="53.013717"><ele>616.934631</ele><time>2021-07-17T12:37:04Z</time><extensions><speed>0.542630</speed><course>306.241272</course><hAcc>0.921609</hAcc><vAcc>0.750348</vAcc></extensions></trkpt>
      <trkpt lon="-4.158259" lat="53.013720"><ele>617.082458</ele><time>2021-07-17T12:37:05Z</time><extensions><speed>0.525240</speed><course>302.560516</course><hAcc>0.940388</hAcc><vAcc>0.770298</vAcc></extensions></trkpt>
      <trkpt lon="-4.158265" lat="53.013723"><ele>617.227173</ele><time>2021-07-17T12:37:06Z</time><extensions><speed>0.510274</speed><course>304.207947</course><hAcc>0.976074</hAcc><vAcc>0.804807</vAcc></extensions></trkpt>
      <trkpt lon="-4.158263" lat="53.013725"><ele>617.198364</ele><time>2021-07-17T12:37:07Z</time><extensions><speed>0.294051</speed><course>207.637573</course><hAcc>0.937842</hAcc><vAcc>0.769428</vAcc></extensions></trkpt>
      <trkpt lon="-4.158263" lat="53.013728"><ele>617.276123</ele><time>2021-07-17T12:37:08Z</time><extensions><speed>0.306964</speed><course>199.781464</course><hAcc>0.918371</hAcc><vAcc>0.748549</vAcc></extensions></trkpt>
      <trkpt lon="-4.158262" lat="53.013731"><ele>617.348572</ele><time>2021-07-17T12:37:09Z</time><extensions><speed>0.328867</speed><course>204.898392</course><hAcc>0.910293</hAcc><vAcc>0.738376</vAcc></extensions></trkpt>
      <trkpt lon="-4.158260" lat="53.013734"><ele>617.415161</ele><time>2021-07-17T12:37:10Z</time><extensions><speed>0.358492</speed><course>218.988647</course><hAcc>0.908099</hAcc><vAcc>0.734560</vAcc></extensions></trkpt>
      <trkpt lon="-4.158257" lat="53.013737"><ele>617.475952</ele><time>2021-07-17T12:37:11Z</time><extensions><speed>0.392603</speed><course>240.875916</course><hAcc>0.908279</hAcc><vAcc>0.733981</vAcc></extensions></trkpt>
      <trkpt lon="-4.158254" lat="53.013740"><ele>617.531433</ele><time>2021-07-17T12:37:12Z</time><extensions><speed>0.427288</speed><course>240.875916</course><hAcc>0.908872</hAcc><vAcc>0.734639</vAcc></extensions></trkpt>
      <trkpt lon="-4.158250" lat="53.013743"><ele>617.582458</ele><time>2021-07-17T12:37:13Z</time><extensions><speed>0.459126</speed><course>240.875916</course><hAcc>0.908965</hAcc><vAcc>0.735395</vAcc></extensions></trkpt>
      <trkpt lon="-4.158246" lat="53.013746"><ele>617.630493</ele><time>2021-07-17T12:37:14Z</time><extensions><speed>0.485594</speed><course>240.875916</course><hAcc>0.908285</hAcc><vAcc>0.735707</vAcc></extensions></trkpt>
      <trkpt lon="-4.158241" lat="53.013750"><ele>617.677490</ele><time>2021-07-17T12:37:15Z</time><extensions><speed>0.504845</speed><course>240.875916</course><hAcc>0.906897</hAcc><vAcc>0.735406</vAcc></extensions></trkpt>
      <trkpt lon="-4.158236" lat="53.013753"><ele>617.726379</ele><time>2021-07-17T12:37:16Z</time><extensions><speed>0.515899</speed><course>240.875916</course><hAcc>0.904993</hAcc><vAcc>0.734521</vAcc></extensions></trkpt>
      <trkpt lon="-4.158231" lat="53.013757"><ele>617.780884</ele><time>2021-07-17T12:37:17Z</time><extensions><speed>0.518424</speed><course>269.430084</course><hAcc>0.902822</hAcc><vAcc>0.733196</vAcc></extensions></trkpt>
      <trkpt lon="-4.158226" lat="53.013760"><ele>617.845398</ele><time>2021-07-17T12:37:18Z</time><extensions><speed>0.513018</speed><course>274.056000</course><hAcc>0.900619</hAcc><vAcc>0.731612</vAcc></extensions></trkpt>
      <trkpt lon="-4.158222" lat="53.013764"><ele>617.924011</ele><time>2021-07-17T12:37:19Z</time><extensions><speed>0.501822</speed><course>273.580658</course><hAcc>0.898544</hAcc><vAcc>0.729925</vAcc></extensions></trkpt>
      <trkpt lon="-4.158218" lat="53.013768"><ele>618.019836</ele><time>2021-07-17T12:37:20Z</time><extensions><speed>0.487531</speed><course>266.285736</course><hAcc>0.896699</hAcc><vAcc>0.728261</vAcc></extensions></trkpt>
      <trkpt lon="-4.158215" lat="53.013772"><ele>618.134705</ele><time>2021-07-17T12:37:21Z</time><extensions><speed>0.472254</speed><course>280.416809</course><hAcc>0.895136</hAcc><vAcc>0.726712</vAcc></extensions></trkpt>
      <trkpt lon="-4.158212" lat="53.013776"><ele>618.269226</ele><time>2021-07-17T12:37:22Z</time><extensions><speed>0.457560</speed><course>289.633057</course><hAcc>0.893863</hAcc><vAcc>0.725334</vAcc></extensions></trkpt>
      <trkpt lon="-4.158210" lat="53.013779"><ele>618.423035</ele><time>2021-07-17T12:37:23Z</time><extensions><speed>0.444817</speed><course>274.042023</course><hAcc>0.892865</hAcc><vAcc>0.724158</vAcc></extensions></trkpt>
      <trkpt lon="-4.158209" lat="53.013783"><ele>618.595337</ele><time>2021-07-17T12:37:24Z</time><extensions><speed>0.435027</speed><course>259.398621</course><hAcc>0.892107</hAcc><vAcc>0.723189</vAcc></extensions></trkpt>
      <trkpt lon="-4.158209" lat="53.013787"><ele>618.785400</ele><time>2021-07-17T12:37:25Z</time><extensions><speed>0.428744</speed><course>235.228027</course><hAcc>0.891551</hAcc><vAcc>0.722420</vAcc></extensions></trkpt>
      <trkpt lon="-4.158209" lat="53.013791"><ele>618.992432</ele><time>2021-07-17T12:37:26Z</time><extensions><speed>0.426093</speed><course>233.943741</course><hAcc>0.891156</hAcc><vAcc>0.721833</vAcc></extensions></trkpt>
      <trkpt lon="-4.158210" lat="53.013795"><ele>619.215088</ele><time>2021-07-17T12:37:27Z</time><extensions><speed>0.426299</speed><course>251.986771</course><hAcc>0.890885</hAcc><vAcc>0.721405</vAcc></extensions></trkpt>
      <trkpt lon="-4.158212" lat="53.013798"><ele>619.451904</ele><time>2021-07-17T12:37:28Z</time><extensions><speed>0.427490</speed><course>230.632401</course><hAcc>0.890707</hAcc><vAcc>0.721110</vAcc></extensions></trkpt>
      <trkpt lon="-4.158214" lat="53.013802"><ele>619.701233</ele><time>2021-07-17T12:37:29Z</time><extensions><speed>0.427412</speed><course>208.539734</course><hAcc>0.890596</hAcc><vAcc>0.720926</vAcc></extensions></trkpt>
      <trkpt lon="-4.158216" lat="53.013806"><ele>619.961670</ele><time>2021-07-17T12:37:30Z</time><extensions><speed>0.424295</speed><course>217.062653</course><hAcc>0.890531</hAcc><vAcc>0.720827</vAcc></extensions></trkpt>
      <trkpt lon="-4.158219" lat="53.013809"><ele>620.230957</ele><time>2021-07-17T12:37:31Z</time><extensions><speed>0.417477</speed><course>216.480164</course><hAcc>0.890497</hAcc><vAcc>0.720794</vAcc></extensions></trkpt>
      <trkpt lon="-4.158222" lat="53.013812"><ele>620.505981</ele><time>2021-07-17T12:37:32Z</time><extensions><speed>0.406931</speed><course>215.204285</course><hAcc>0.890483</hAcc><vAcc>0.720808</vAcc></extensions></trkpt>
      <trkpt lon="-4.158224" lat="53.013816"><ele>620.783691</ele><time>2021-07-17T12:37:33Z</time><extensions><speed>0.392988</speed><course>192.608246</course><hAcc>0.890479</hAcc><vAcc>0.720855</vAcc></extensions></trkpt>
      <trkpt lon="-4.158227" lat="53.013819"><ele>621.060974</ele><time>2021-07-17T12:37:34Z</time><extensions><speed>0.376823</speed><course>196.818375</course><hAcc>0.890480</hAcc><vAcc>0.720923</vAcc></extensions></trkpt>
      <trkpt lon="-4.158229" lat="53.013822"><ele>621.334778</ele><time>2021-07-17T12:37:35Z</time><extensions><speed>0.360466</speed><course>200.564194</course><hAcc>0.890500</hAcc><vAcc>0.721016</vAcc></extensions></trkpt>
      <trkpt lon="-4.158230" lat="53.013825"><ele>621.602844</ele><time>2021-07-17T12:37:36Z</time><extensions><speed>0.346701</speed><course>224.718231</course><hAcc>0.890536</hAcc><vAcc>0.721125</vAcc></extensions></trkpt>
      <trkpt lon="-4.158231" lat="53.013828"><ele>621.862366</ele><time>2021-07-17T12:37:37Z</time><extensions><speed>0.338750</speed><course>228.969803</course><hAcc>0.890568</hAcc><vAcc>0.721231</vAcc></extensions></trkpt>
      <trkpt lon="-4.158231" lat="53.013831"><ele>622.110718</ele><time>2021-07-17T12:37:38Z</time><extensions><speed>0.339099</speed><course>250.366501</course><hAcc>0.890598</hAcc><vAcc>0.721330</vAcc></extensions></trkpt>
      <trkpt lon="-4.158230" lat="53.013834"><ele>622.344849</ele><time>2021-07-17T12:37:39Z</time><extensions><speed>0.348495</speed><course>-1.000000</course><hAcc>0.890626</hAcc><vAcc>0.721421</vAcc></extensions></trkpt>
      <trkpt lon="-4.158229" lat="53.013837"><ele>622.561829</ele><time>2021-07-17T12:37:40Z</time><extensions><speed>0.365872</speed><course>232.063629</course><hAcc>0.890652</hAcc><vAcc>0.721502</vAcc></extensions></trkpt>
      <trkpt lon="-4.158227" lat="53.013840"><ele>622.759583</ele><time>2021-07-17T12:37:41Z</time><extensions><speed>0.389080</speed><course>232.063614</course><hAcc>0.890676</hAcc><vAcc>0.721575</vAcc></extensions></trkpt>
      <trkpt lon="-4.158225" lat="53.013844"><ele>622.937683</ele><time>2021-07-17T12:37:42Z</time><extensions><speed>0.415548</speed><course>232.063614</course><hAcc>0.890697</hAcc><vAcc>0.721648</vAcc></extensions></trkpt>
      <trkpt lon="-4.158222" lat="53.013847"><ele>623.096191</ele><time>2021-07-17T12:37:42Z</time><extensions><speed>0.442988</speed><course>232.063599</course><hAcc>0.890734</hAcc><vAcc>0.721742</vAcc></extensions></trkpt>
      <trkpt lon="-4.158219" lat="53.013851"><ele>623.235840</ele><time>2021-07-17T12:37:43Z</time><extensions><speed>0.470329</speed><course>232.063599</course><hAcc>0.890785</hAcc><vAcc>0.721867</vAcc></extensions></trkpt>
      <trkpt lon="-4.158215" lat="53.013854"><ele>623.356995</ele><time>2021-07-17T12:37:44Z</time><extensions><speed>0.496854</speed><course>232.063583</course><hAcc>0.890832</hAcc><vAcc>0.722009</vAcc></extensions></trkpt>
      <trkpt lon="-4.158211" lat="53.013858"><ele>623.461609</ele><time>2021-07-17T12:37:45Z</time><extensions><speed>0.521807</speed><course>232.063583</course><hAcc>0.890874</hAcc><vAcc>0.722164</vAcc></extensions></trkpt>
      <trkpt lon="-4.158206" lat="53.013862"><ele>623.551880</ele><time>2021-07-17T12:37:46Z</time><extensions><speed>0.544316</speed><course>248.555511</course><hAcc>0.890911</hAcc><vAcc>0.722319</vAcc></extensions></trkpt>
      <trkpt lon="-4.158201" lat="53.013866"><ele>623.629578</ele><time>2021-07-17T12:37:47Z</time><extensions><speed>0.563112</speed><course>214.727661</course><hAcc>0.890942</hAcc><vAcc>0.722459</vAcc></extensions></trkpt>
      <trkpt lon="-4.158196" lat="53.013870"><ele>623.696594</ele><time>2021-07-17T12:37:48Z</time><extensions><speed>0.576762</speed><course>215.656113</course><hAcc>0.890965</hAcc><vAcc>0.722573</vAcc></extensions></trkpt>
      <trkpt lon="-4.158191" lat="53.013874"><ele>623.754822</ele><time>2021-07-17T12:37:49Z</time><extensions><speed>0.584100</speed><course>205.637772</course><hAcc>0.890978</hAcc><vAcc>0.722648</vAcc></extensions></trkpt>
      <trkpt lon="-4.158186" lat="53.013879"><ele>623.806946</ele><time>2021-07-17T12:37:50Z</time><extensions><speed>0.584435</speed><course>201.575424</course><hAcc>0.890981</hAcc><vAcc>0.722674</vAcc></extensions></trkpt>
      <trkpt lon="-4.158181" lat="53.013883"><ele>623.856018</ele><time>2021-07-17T12:37:51Z</time><extensions><speed>0.577810</speed><course>196.854248</course><hAcc>0.890972</hAcc><vAcc>0.722646</vAcc></extensions></trkpt>
      <trkpt lon="-4.158176" lat="53.013887"><ele>623.905396</ele><time>2021-07-17T12:37:52Z</time><extensions><speed>0.565380</speed><course>198.264053</course><hAcc>0.890951</hAcc><vAcc>0.722564</vAcc></extensions></trkpt>
      <trkpt lon="-4.158172" lat="53.013891"><ele>623.957947</ele><time>2021-07-17T12:37:53Z</time><extensions><speed>0.549335</speed><course>198.636932</course><hAcc>0.890919</hAcc><vAcc>0.722430</vAcc></extensions></trkpt>
      <trkpt lon="-4.158168" lat="53.013896"><ele>624.015625</ele><time>2021-07-17T12:37:54Z</time><extensions><speed>0.532242</speed><course>192.727798</course><hAcc>0.890875</hAcc><vAcc>0.722254</vAcc></extensions></trkpt>
      <trkpt lon="-4.158165" lat="53.013900"><ele>624.079407</ele><time>2021-07-17T12:37:55Z</time><extensions><speed>0.516202</speed><course>184.691818</course><hAcc>0.890823</hAcc><vAcc>0.722047</vAcc></extensions></trkpt>
      <trkpt lon="-4.158162" lat="53.013904"><ele>624.149597</ele><time>2021-07-17T12:37:56Z</time><extensions><speed>0.502405</speed><course>177.917740</course><hAcc>0.890763</hAcc><vAcc>0.721818</vAcc></extensions></trkpt>
      <trkpt lon="-4.158160" lat="53.013909"><ele>624.226440</ele><time>2021-07-17T12:37:57Z</time><extensions><speed>0.491240</speed><course>169.935883</course><hAcc>0.890700</hAcc><vAcc>0.721579</vAcc></extensions></trkpt>
      <trkpt lon="-4.158159" lat="53.013913"><ele>624.310364</ele><time>2021-07-17T12:37:58Z</time><extensions><speed>0.482565</speed><course>168.290512</course><hAcc>0.890635</hAcc><vAcc>0.721338</vAcc></extensions></trkpt>
      <trkpt lon="-4.158157" lat="53.013917"><ele>624.401672</ele><time>2021-07-17T12:37:59Z</time><extensions><speed>0.475839</speed><course>175.847488</course><hAcc>0.890572</hAcc><vAcc>0.721106</vAcc></extensions></trkpt>
      <trkpt lon="-4.158156" lat="53.013921"><ele>624.500427</ele><time>2021-07-17T12:38:00Z</time><extensions><speed>0.470430</speed><course>182.489380</course><hAcc>0.890514</hAcc><vAcc>0.720892</vAcc></extensions></trkpt>
      <trkpt lon="-4.158155" lat="53.013925"><ele>624.606628</ele><time>2021-07-17T12:38:01Z</time><extensions><speed>0.465846</speed><course>193.224472</course><hAcc>0.890464</hAcc><vAcc>0.720704</vAcc></extensions></trkpt>
      <trkpt lon="-4.158155" lat="53.013930"><ele>624.720154</ele><time>2021-07-17T12:38:02Z</time><extensions><speed>0.461385</speed><course>210.457108</course><hAcc>0.890423</hAcc><vAcc>0.720549</vAcc></extensions></trkpt>
      <trkpt lon="-4.158154" lat="53.013934"><ele>624.840759</ele><time>2021-07-17T12:38:03Z</time><extensions><speed>0.456171</speed><course>227.054108</course><hAcc>0.890392</hAcc><vAcc>0.720434</vAcc></extensions></trkpt>
      <trkpt lon="-4.158154" lat="53.013938"><ele>624.968384</ele><time>2021-07-17T12:38:04Z</time><extensions><speed>0.449786</speed><course>247.666534</course><hAcc>0.890373</hAcc><vAcc>0.720363</vAcc></extensions></trkpt>
      <trkpt lon="-4.158154" lat="53.013942"><ele>625.102722</ele><time>2021-07-17T12:38:05Z</time><extensions><speed>0.442451</speed><course>261.197876</course><hAcc>0.890364</hAcc><vAcc>0.720339</vAcc></extensions></trkpt>
      <trkpt lon="-4.158155" lat="53.013946"><ele>625.243225</ele><time>2021-07-17T12:38:06Z</time><extensions><speed>0.435334</speed><course>263.217255</course><hAcc>0.890365</hAcc><vAcc>0.720362</vAcc></extensions></trkpt>
      <trkpt lon="-4.158156" lat="53.013950"><ele>625.389587</ele><time>2021-07-17T12:38:07Z</time><extensions><speed>0.430223</speed><course>271.463165</course><hAcc>0.890374</hAcc><vAcc>0.720426</vAcc></extensions></trkpt>
      <trkpt lon="-4.158158" lat="53.013953"><ele>625.541748</ele><time>2021-07-17T12:38:08Z</time><extensions><speed>0.428928</speed><course>281.991608</course><hAcc>0.890389</hAcc><vAcc>0.720521</vAcc></extensions></trkpt>
      <trkpt lon="-4.158160" lat="53.013957"><ele>625.699646</ele><time>2021-07-17T12:38:09Z</time><extensions><speed>0.432743</speed><course>285.895782</course><hAcc>0.890408</hAcc><vAcc>0.720633</vAcc></extensions></trkpt>
      <trkpt lon="-4.158163" lat="53.013960"><ele>625.863159</ele><time>2021-07-17T12:38:10Z</time><extensions><speed>0.441575</speed><course>287.327179</course><hAcc>0.890427</hAcc><vAcc>0.720747</vAcc></extensions></trkpt>
      <trkpt lon="-4.158167" lat="53.013964"><ele>626.031799</ele><time>2021-07-17T12:38:11Z</time><extensions><speed>0.453904</speed><course>297.396240</course><hAcc>0.890446</hAcc><vAcc>0.720844</vAcc></extensions></trkpt>
      <trkpt lon="-4.158171" lat="53.013967"><ele>626.204651</ele><time>2021-07-17T12:38:12Z</time><extensions><speed>0.467388</speed><course>299.473175</course><hAcc>0.890464</hAcc><vAcc>0.720912</vAcc></extensions></trkpt>
      <trkpt lon="-4.158175" lat="53.013971"><ele>626.380371</ele><time>2021-07-17T12:38:13Z</time><extensions><speed>0.480128</speed><course>297.683289</course><hAcc>0.890478</hAcc><vAcc>0.720944</vAcc></extensions></trkpt>
      <trkpt lon="-4.158179" lat="53.013974"><ele>626.557800</ele><time>2021-07-17T12:38:14Z</time><extensions><speed>0.491321</speed><course>292.365356</course><hAcc>0.890490</hAcc><vAcc>0.720939</vAcc></extensions></trkpt>
      <trkpt lon="-4.158184" lat="53.013977"><ele>626.735413</ele><time>2021-07-17T12:38:15Z</time><extensions><speed>0.500766</speed><course>291.092651</course><hAcc>0.890501</hAcc><vAcc>0.720901</vAcc></extensions></trkpt>
      <trkpt lon="-4.158189" lat="53.013981"><ele>626.912292</ele><time>2021-07-17T12:38:17Z</time><extensions><speed>0.508690</speed><course>297.007721</course><hAcc>0.890492</hAcc><vAcc>0.720828</vAcc></extensions></trkpt>
      <trkpt lon="-4.158193" lat="53.013985"><ele>627.087830</ele><time>2021-07-17T12:38:18Z</time><extensions><speed>0.515252</speed><course>291.539093</course><hAcc>0.890465</hAcc><vAcc>0.720732</vAcc></extensions></trkpt>
      <trkpt lon="-4.158198" lat="53.013988"><ele>627.262878</ele><time>2021-07-17T12:38:19Z</time><extensions><speed>0.520227</speed><course>293.314819</course><hAcc>0.890440</hAcc><vAcc>0.720636</vAcc></extensions></trkpt>
      <trkpt lon="-4.158202" lat="53.013992"><ele>627.438049</ele><time>2021-07-17T12:38:20Z</time><extensions><speed>0.523052</speed><course>297.043213</course><hAcc>0.890418</hAcc><vAcc>0.720551</vAcc></extensions></trkpt>
      <trkpt lon="-4.158206" lat="53.013996"><ele>627.613586</ele><time>2021-07-17T12:38:21Z</time><extensions><speed>0.523358</speed><course>301.573547</course><hAcc>0.890398</hAcc><vAcc>0.720485</vAcc></extensions></trkpt>
      <trkpt lon="-4.158210" lat="53.014000"><ele>627.789673</ele><time>2021-07-17T12:38:22Z</time><extensions><speed>0.521437</speed><course>305.542847</course><hAcc>0.890384</hAcc><vAcc>0.720444</vAcc></extensions></trkpt>
      <trkpt lon="-4.158214" lat="53.014005"><ele>627.966064</ele><time>2021-07-17T12:38:23Z</time><extensions><speed>0.517852</speed><course>304.461029</course><hAcc>0.890374</hAcc><vAcc>0.720429</vAcc></extensions></trkpt>
      <trkpt lon="-4.158217" lat="53.014009"><ele>628.142456</ele><time>2021-07-17T12:38:24Z</time><extensions><speed>0.512836</speed><course>304.519958</course><hAcc>0.890370</hAcc><vAcc>0.720440</vAcc></extensions></trkpt>
      <trkpt lon="-4.158220" lat="53.014013"><ele>628.318665</ele><time>2021-07-17T12:38:25Z</time><extensions><speed>0.506375</speed><course>306.835541</course><hAcc>0.890372</hAcc><vAcc>0.720471</vAcc></extensions></trkpt>
      <trkpt lon="-4.158222" lat="53.014017"><ele>628.494934</ele><time>2021-07-17T12:38:26Z</time><extensions><speed>0.498612</speed><course>312.924469</course><hAcc>0.890380</hAcc><vAcc>0.720517</vAcc></extensions></trkpt>
      <trkpt lon="-4.158224" lat="53.014021"><ele>628.671570</ele><time>2021-07-17T12:38:27Z</time><extensions><speed>0.490086</speed><course>313.121582</course><hAcc>0.890394</hAcc><vAcc>0.720575</vAcc></extensions></trkpt>
      <trkpt lon="-4.158226" lat="53.014026"><ele>628.849182</ele><time>2021-07-17T12:38:28Z</time><extensions><speed>0.481510</speed><course>312.363678</course><hAcc>0.890414</hAcc><vAcc>0.720640</vAcc></extensions></trkpt>
      <trkpt lon="-4.158228" lat="53.014030"><ele>629.028137</ele><time>2021-07-17T12:38:29Z</time><extensions><speed>0.473796</speed><course>309.905548</course><hAcc>0.890438</hAcc><vAcc>0.720713</vAcc></extensions></trkpt>
      <trkpt lon="-4.158229" lat="53.014034"><ele>629.208496</ele><time>2021-07-17T12:38:30Z</time><extensions><speed>0.468018</speed><course>308.597687</course><hAcc>0.890466</hAcc><vAcc>0.720794</vAcc></extensions></trkpt>
      <trkpt lon="-4.158231" lat="53.014038"><ele>629.389893</ele><time>2021-07-17T12:38:31Z</time><extensions><speed>0.464576</speed><course>307.103394</course><hAcc>0.890498</hAcc><vAcc>0.720888</vAcc></extensions></trkpt>
      <trkpt lon="-4.158232" lat="53.014042"><ele>629.572266</ele><time>2021-07-17T12:38:32Z</time><extensions><speed>0.463180</speed><course>306.897400</course><hAcc>0.890532</hAcc><vAcc>0.720995</vAcc></extensions></trkpt>
      <trkpt lon="-4.158232" lat="53.014046"><ele>629.755493</ele><time>2021-07-17T12:38:33Z</time><extensions><speed>0.463470</speed><course>302.152618</course><hAcc>0.890568</hAcc><vAcc>0.721115</vAcc></extensions></trkpt>
      <trkpt lon="-4.158233" lat="53.014051"><ele>629.939758</ele><time>2021-07-17T12:38:34Z</time><extensions><speed>0.465046</speed><course>297.726410</course><hAcc>0.890603</hAcc><vAcc>0.721247</vAcc></extensions></trkpt>
      <trkpt lon="-4.158233" lat="53.014055"><ele>630.125305</ele><time>2021-07-17T12:38:35Z</time><extensions><speed>0.467336</speed><course>300.194183</course><hAcc>0.890638</hAcc><vAcc>0.721384</vAcc></extensions></trkpt>
      <trkpt lon="-4.158233" lat="53.014059"><ele>630.312256</ele><time>2021-07-17T12:38:36Z</time><extensions><speed>0.469975</speed><course>297.151825</course><hAcc>0.890671</hAcc><vAcc>0.721519</vAcc></extensions></trkpt>
      <trkpt lon="-4.158234" lat="53.014063"><ele>630.500916</ele><time>2021-07-17T12:38:37Z</time><extensions><speed>0.472930</speed><course>298.399384</course><hAcc>0.890702</hAcc><vAcc>0.721646</vAcc></extensions></trkpt>
      <trkpt lon="-4.158234" lat="53.014067"><ele>630.691162</ele><time>2021-07-17T12:38:38Z</time><extensions><speed>0.476124</speed><course>300.837921</course><hAcc>0.890728</hAcc><vAcc>0.721755</vAcc></extensions></trkpt>
      <trkpt lon="-4.158234" lat="53.014072"><ele>630.882935</ele><time>2021-07-17T12:38:39Z</time><extensions><speed>0.479496</speed><course>299.844330</course><hAcc>0.890749</hAcc><vAcc>0.721837</vAcc></extensions></trkpt>
      <trkpt lon="-4.158234" lat="53.014076"><ele>631.076233</ele><time>2021-07-17T12:38:40Z</time><extensions><speed>0.483047</speed><course>300.001373</course><hAcc>0.890764</hAcc><vAcc>0.721888</vAcc></extensions></trkpt>
      <trkpt lon="-4.158235" lat="53.014080"><ele>631.270935</ele><time>2021-07-17T12:38:41Z</time><extensions><speed>0.486703</speed><course>294.568817</course><hAcc>0.890774</hAcc><vAcc>0.721908</vAcc></extensions></trkpt>
      <trkpt lon="-4.158235" lat="53.014085"><ele>631.466980</ele><time>2021-07-17T12:38:42Z</time><extensions><speed>0.490840</speed><course>300.687103</course><hAcc>0.890776</hAcc><vAcc>0.721899</vAcc></extensions></trkpt>
      <trkpt lon="-4.158237" lat="53.014089"><ele>631.663940</ele><time>2021-07-17T12:38:43Z</time><extensions><speed>0.496246</speed><course>297.691925</course><hAcc>0.890771</hAcc><vAcc>0.721867</vAcc></extensions></trkpt>
      <trkpt lon="-4.158238" lat="53.014094"><ele>631.861145</ele><time>2021-07-17T12:38:44Z</time><extensions><speed>0.503755</speed><course>293.928223</course><hAcc>0.890760</hAcc><vAcc>0.721814</vAcc></extensions></trkpt>
      <trkpt lon="-4.158240" lat="53.014098"><ele>632.058167</ele><time>2021-07-17T12:38:45Z</time><extensions><speed>0.514194</speed><course>297.041656</course><hAcc>0.890741</hAcc><vAcc>0.721745</vAcc></extensions></trkpt>
      <trkpt lon="-4.158243" lat="53.014102"><ele>632.254761</ele><time>2021-07-17T12:38:46Z</time><extensions><speed>0.527892</speed><course>298.722290</course><hAcc>0.890717</hAcc><vAcc>0.721661</vAcc></extensions></trkpt>
      <trkpt lon="-4.158246" lat="53.014107"><ele>632.450684</ele><time>2021-07-17T12:38:47Z</time><extensions><speed>0.544438</speed><course>296.674316</course><hAcc>0.890687</hAcc><vAcc>0.721564</vAcc></extensions></trkpt>
      <trkpt lon="-4.158250" lat="53.014111"><ele>632.645569</ele><time>2021-07-17T12:38:48Z</time><extensions><speed>0.562991</speed><course>301.147156</course><hAcc>0.890652</hAcc><vAcc>0.721454</vAcc></extensions></trkpt>
      <trkpt lon="-4.158254" lat="53.014116"><ele>632.839111</ele><time>2021-07-17T12:38:49Z</time><extensions><speed>0.582811</speed><course>301.618805</course><hAcc>0.890612</hAcc><vAcc>0.721333</vAcc></extensions></trkpt>
      <trkpt lon="-4.158259" lat="53.014120"><ele>633.030945</ele><time>2021-07-17T12:38:50Z</time><extensions><speed>0.603350</speed><course>300.678009</course><hAcc>0.890568</hAcc><vAcc>0.721200</vAcc></extensions></trkpt>
      <trkpt lon="-4.158265" lat="53.014124"><ele>633.220276</ele><time>2021-07-17T12:38:51Z</time><extensions><speed>0.623763</speed><course>306.078644</course><hAcc>0.890520</hAcc><vAcc>0.721054</vAcc></extensions></trkpt>
      <trkpt lon="-4.158271" lat="53.014129"><ele>633.406189</ele><time>2021-07-17T12:38:52Z</time><extensions><speed>0.642945</speed><course>302.099213</course><hAcc>0.890471</hAcc><vAcc>0.720896</vAcc></extensions></trkpt>
      <trkpt lon="-4.158277" lat="53.014133"><ele>633.588440</ele><time>2021-07-17T12:38:53Z</time><extensions><speed>0.659876</speed><course>298.253754</course><hAcc>0.890420</hAcc><vAcc>0.720724</vAcc></extensions></trkpt>
      <trkpt lon="-4.158284" lat="53.014138"><ele>633.767029</ele><time>2021-07-17T12:38:54Z</time><extensions><speed>0.673439</speed><course>299.772583</course><hAcc>0.890369</hAcc><vAcc>0.720545</vAcc></extensions></trkpt>
      <trkpt lon="-4.158291" lat="53.014142"><ele>633.942139</ele><time>2021-07-17T12:38:55Z</time><extensions><speed>0.682479</speed><course>299.946075</course><hAcc>0.890321</hAcc><vAcc>0.720362</vAcc></extensions></trkpt>
      <trkpt lon="-4.158298" lat="53.014146"><ele>634.113159</ele><time>2021-07-17T12:38:56Z</time><extensions><speed>0.685701</speed><course>303.968170</course><hAcc>0.890277</hAcc><vAcc>0.720187</vAcc></extensions></trkpt>
      <trkpt lon="-4.158305" lat="53.014151"><ele>634.279297</ele><time>2021-07-17T12:38:57Z</time><extensions><speed>0.682091</speed><course>302.223755</course><hAcc>0.890239</hAcc><vAcc>0.720028</vAcc></extensions></trkpt>
      <trkpt lon="-4.158312" lat="53.014155"><ele>634.439514</ele><time>2021-07-17T12:38:58Z</time><extensions><speed>0.671590</speed><course>303.590851</course><hAcc>0.890208</hAcc><vAcc>0.719893</vAcc></extensions></trkpt>
      <trkpt lon="-4.158319" lat="53.014159"><ele>634.592590</ele><time>2021-07-17T12:38:59Z</time><extensions><speed>0.654730</speed><course>302.656281</course><hAcc>0.890186</hAcc><vAcc>0.719793</vAcc></extensions></trkpt>
      <trkpt lon="-4.158326" lat="53.014164"><ele>634.737244</ele><time>2021-07-17T12:39:00Z</time><extensions><speed>0.632319</speed><course>307.857574</course><hAcc>0.890174</hAcc><vAcc>0.719737</vAcc></extensions></trkpt>
      <trkpt lon="-4.158332" lat="53.014168"><ele>634.872070</ele><time>2021-07-17T12:39:01Z</time><extensions><speed>0.605436</speed><course>306.241272</course><hAcc>0.890172</hAcc><vAcc>0.719731</vAcc></extensions></trkpt>
      <trkpt lon="-4.158337" lat="53.014172"><ele>634.995667</ele><time>2021-07-17T12:39:02Z</time><extensions><speed>0.575113</speed><course>302.560516</course><hAcc>0.890179</hAcc><vAcc>0.719777</vAcc></extensions></trkpt>
      <trkpt lon="-4.158342" lat="53.014176"><ele>635.106567</ele><time>2021-07-17T12:39:03Z</time><extensions><speed>0.542447</speed><course>304.207947</course><hAcc>0.890196</hAcc><vAcc>0.719869</vAcc></extensions></trkpt>
      <trkpt lon="-4.158346" lat="53.014180"><ele>635.203796</ele><time>2021-07-17T12:39:04Z</time><extensions><speed>0.508701</speed><course>304.678192</course><hAcc>0.890220</hAcc><vAcc>0.719994</vAcc></extensions></trkpt>
      <trkpt lon="-4.158350" lat="53.014184"><ele>635.287048</ele><time>2021-07-17T12:39:05Z</time><extensions><speed>0.474846</speed><course>300.816559</course><hAcc>0.890251</hAcc><vAcc>0.720137</vAcc></extensions></trkpt>
      <trkpt lon="-4.158353" lat="53.014188"><ele>635.356750</ele><time>2021-07-17T12:39:06Z</time><extensions><speed>0.441628</speed><course>302.457642</course><hAcc>0.890287</hAcc><vAcc>0.720285</vAcc></extensions></trkpt>
      <trkpt lon="-4.158355" lat="53.014191"><ele>635.414124</ele><time>2021-07-17T12:39:07Z</time><extensions><speed>0.409657</speed><course>303.405792</course><hAcc>0.890325</hAcc><vAcc>0.720428</vAcc></extensions></trkpt>
      <trkpt lon="-4.158356" lat="53.014195"><ele>635.460632</ele><time>2021-07-17T12:39:08Z</time><extensions><speed>0.379652</speed><course>305.179382</course><hAcc>0.890365</hAcc><vAcc>0.720561</vAcc></extensions></trkpt>
      <trkpt lon="-4.158357" lat="53.014198"><ele>635.497498</ele><time>2021-07-17T12:39:09Z</time><extensions><speed>0.352419</speed><course>301.811188</course><hAcc>0.890403</hAcc><vAcc>0.720682</vAcc></extensions></trkpt>
      <trkpt lon="-4.158357" lat="53.014201"><ele>635.526184</ele><time>2021-07-17T12:39:10Z</time><extensions><speed>0.328398</speed><course>294.111877</course><hAcc>0.890439</hAcc><vAcc>0.720790</vAcc></extensions></trkpt>
      <trkpt lon="-4.158357" lat="53.014204"><ele>635.547974</ele><time>2021-07-17T12:39:11Z</time><extensions><speed>0.307407</speed><course>291.186249</course><hAcc>0.890471</hAcc><vAcc>0.720886</vAcc></extensions></trkpt>
      <trkpt lon="-4.158356" lat="53.014206"><ele>635.563904</ele><time>2021-07-17T12:39:12Z</time><extensions><speed>0.288821</speed><course>291.833313</course><hAcc>0.890499</hAcc><vAcc>0.720970</vAcc></extensions></trkpt>
      <trkpt lon="-4.158355" lat="53.014209"><ele>635.574829</ele><time>2021-07-17T12:39:13Z</time><extensions><speed>0.272395</speed><course>293.198639</course><hAcc>0.890522</hAcc><vAcc>0.721041</vAcc></extensions></trkpt>
      <trkpt lon="-4.158354" lat="53.014211"><ele>635.581360</ele><time>2021-07-17T12:39:14Z</time><extensions><speed>0.258640</speed><course>297.953094</course><hAcc>0.890540</hAcc><vAcc>0.721100</vAcc></extensions></trkpt>
      <trkpt lon="-4.158353" lat="53.014213"><ele>635.584106</ele><time>2021-07-17T12:39:15Z</time><extensions><speed>0.248303</speed><course>294.998413</course><hAcc>0.890553</hAcc><vAcc>0.721148</vAcc></extensions></trkpt>
      <trkpt lon="-4.158351" lat="53.014215"><ele>635.583557</ele><time>2021-07-17T12:39:16Z</time><extensions><speed>0.241946</speed><course>290.333923</course><hAcc>0.890561</hAcc><vAcc>0.721183</vAcc></extensions></trkpt>
      <trkpt lon="-4.158349" lat="53.014217"><ele>635.580261</ele><time>2021-07-17T12:39:17Z</time><extensions><speed>0.239870</speed><course>297.336884</course><hAcc>0.890565</hAcc><vAcc>0.721205</vAcc></extensions></trkpt>
      <trkpt lon="-4.158348" lat="53.014219"><ele>635.574219</ele><time>2021-07-17T12:39:18Z</time><extensions><speed>0.242122</speed><course>291.763641</course><hAcc>0.890566</hAcc><vAcc>0.721210</vAcc></extensions></trkpt>
      <trkpt lon="-4.158346" lat="53.014221"><ele>635.565491</ele><time>2021-07-17T12:39:19Z</time><extensions><speed>0.248303</speed><course>293.588959</course><hAcc>0.890564</hAcc><vAcc>0.721197</vAcc></extensions></trkpt>
      <trkpt lon="-4.158344" lat="53.014223"><ele>635.553711</ele><time>2021-07-17T12:39:20Z</time><extensions><speed>0.257472</speed><course>298.534668</course><hAcc>0.890563</hAcc><vAcc>0.721167</vAcc></extensions></trkpt>
      <trkpt lon="-4.158342" lat="53.014225"><ele>635.538635</ele><time>2021-07-17T12:39:21Z</time><extensions><speed>0.268244</speed><course>294.834351</course><hAcc>0.890562</hAcc><vAcc>0.721128</vAcc></extensions></trkpt>
      <trkpt lon="-4.158340" lat="53.014227"><ele>635.519836</ele><time>2021-07-17T12:39:22Z</time><extensions><speed>0.279213</speed><course>297.698059</course><hAcc>0.890565</hAcc><vAcc>0.721091</vAcc></extensions></trkpt>
      <trkpt lon="-4.158338" lat="53.014229"><ele>635.496887</ele><time>2021-07-17T12:39:23Z</time><extensions><speed>0.289856</speed><course>298.511444</course><hAcc>0.890572</hAcc><vAcc>0.721065</vAcc></extensions></trkpt>
      <trkpt lon="-4.158336" lat="53.014232"><ele>635.469238</ele><time>2021-07-17T12:39:24Z</time><extensions><speed>0.300587</speed><course>303.054443</course><hAcc>0.890585</hAcc><vAcc>0.721062</vAcc></extensions></trkpt>
      <trkpt lon="-4.158334" lat="53.014234"><ele>635.436584</ele><time>2021-07-17T12:39:25Z</time><extensions><speed>0.311888</speed><course>300.594757</course><hAcc>0.890606</hAcc><vAcc>0.721093</vAcc></extensions></trkpt>
      <trkpt lon="-4.158333" lat="53.014237"><ele>635.398499</ele><time>2021-07-17T12:39:26Z</time><extensions><speed>0.324026</speed><course>303.489990</course><hAcc>0.890636</hAcc><vAcc>0.721163</vAcc></extensions></trkpt>
      <trkpt lon="-4.158331" lat="53.014240"><ele>635.354980</ele><time>2021-07-17T12:39:27Z</time><extensions><speed>0.337639</speed><course>307.296783</course><hAcc>0.890675</hAcc><vAcc>0.721276</vAcc></extensions></trkpt>
      <trkpt lon="-4.158330" lat="53.014243"><ele>635.306030</ele><time>2021-07-17T12:39:28Z</time><extensions><speed>0.353890</speed><course>306.846466</course><hAcc>0.890725</hAcc><vAcc>0.721427</vAcc></extensions></trkpt>
      <trkpt lon="-4.158330" lat="53.014246"><ele>635.251709</ele><time>2021-07-17T12:39:29Z</time><extensions><speed>0.373462</speed><course>314.303711</course><hAcc>0.890765</hAcc><vAcc>0.721596</vAcc></extensions></trkpt>
      <trkpt lon="-4.158329" lat="53.014250"><ele>635.192322</ele><time>2021-07-17T12:39:30Z</time><extensions><speed>0.396202</speed><course>316.753265</course><hAcc>0.890796</hAcc><vAcc>0.721770</vAcc></extensions></trkpt>
      <trkpt lon="-4.158329" lat="53.014253"><ele>635.128357</ele><time>2021-07-17T12:39:31Z</time><extensions><speed>0.421464</speed><course>312.101562</course><hAcc>0.890831</hAcc><vAcc>0.721952</vAcc></extensions></trkpt>
      <trkpt lon="-4.158330" lat="53.014257"><ele>635.060364</ele><time>2021-07-17T12:39:32Z</time><extensions><speed>0.447942</speed><course>310.983948</course><hAcc>0.890868</hAcc><vAcc>0.722131</vAcc></extensions></trkpt>
      <trkpt lon="-4.158331" lat="53.014261"><ele>634.989014</ele><time>2021-07-17T12:39:33Z</time><extensions><speed>0.474293</speed><course>316.824890</course><hAcc>0.890902</hAcc><vAcc>0.722298</vAcc></extensions></trkpt>
      <trkpt lon="-4.158333" lat="53.014265"><ele>634.914917</ele><time>2021-07-17T12:39:34Z</time><extensions><speed>0.499859</speed><course>324.005005</course><hAcc>0.890932</hAcc><vAcc>0.722443</vAcc></extensions></trkpt>
      <trkpt lon="-4.158334" lat="53.014270"><ele>634.838501</ele><time>2021-07-17T12:39:35Z</time><extensions><speed>0.524323</speed><course>322.091736</course><hAcc>0.890953</hAcc><vAcc>0.722559</vAcc></extensions></trkpt>
      <trkpt lon="-4.158337" lat="53.014274"><ele>634.760437</ele><time>2021-07-17T12:39:36Z</time><extensions><speed>0.546983</speed><course>322.830170</course><hAcc>0.890964</hAcc><vAcc>0.722638</vAcc></extensions></trkpt>
      <trkpt lon="-4.158340" lat="53.014279"><ele>634.681580</ele><time>2021-07-17T12:39:37Z</time><extensions><speed>0.567214</speed><course>325.823517</course><hAcc>0.890963</hAcc><vAcc>0.722674</vAcc></extensions></trkpt>
      <trkpt lon="-4.158343" lat="53.014284"><ele>634.602966</ele><time>2021-07-17T12:39:38Z</time><extensions><speed>0.584692</speed><course>331.853210</course><hAcc>0.890950</hAcc><vAcc>0.722664</vAcc></extensions></trkpt>
      <trkpt lon="-4.158347" lat="53.014289"><ele>634.525513</ele><time>2021-07-17T12:39:39Z</time><extensions><speed>0.599418</speed><course>331.260956</course><hAcc>0.890923</hAcc><vAcc>0.722609</vAcc></extensions></trkpt>
      <trkpt lon="-4.158351" lat="53.014294"><ele>634.450256</ele><time>2021-07-17T12:39:40Z</time><extensions><speed>0.611713</speed><course>329.072571</course><hAcc>0.890883</hAcc><vAcc>0.722515</vAcc></extensions></trkpt>
      <trkpt lon="-4.158356" lat="53.014298"><ele>634.378357</ele><time>2021-07-17T12:39:40Z</time><extensions><speed>0.622076</speed><course>325.473938</course><hAcc>0.890867</hAcc><vAcc>0.722416</vAcc></extensions></trkpt>
      <trkpt lon="-4.158361" lat="53.014303"><ele>634.310730</ele><time>2021-07-17T12:39:41Z</time><extensions><speed>0.630998</speed><course>325.383026</course><hAcc>0.890875</hAcc><vAcc>0.722323</vAcc></extensions></trkpt>
      <trkpt lon="-4.158366" lat="53.014308"><ele>634.247803</ele><time>2021-07-17T12:39:42Z</time><extensions><speed>0.638329</speed><course>325.061401</course><hAcc>0.890876</hAcc><vAcc>0.722225</vAcc></extensions></trkpt>
      <trkpt lon="-4.158371" lat="53.014313"><ele>634.189636</ele><time>2021-07-17T12:39:43Z</time><extensions><speed>0.644232</speed><course>325.207275</course><hAcc>0.890871</hAcc><vAcc>0.722136</vAcc></extensions></trkpt>
      <trkpt lon="-4.158376" lat="53.014318"><ele>634.135498</ele><time>2021-07-17T12:39:44Z</time><extensions><speed>0.649707</speed><course>322.410889</course><hAcc>0.890863</hAcc><vAcc>0.722065</vAcc></extensions></trkpt>
      <trkpt lon="-4.158381" lat="53.014323"><ele>634.084473</ele><time>2021-07-17T12:39:45Z</time><extensions><speed>0.655634</speed><course>319.218658</course><hAcc>0.890854</hAcc><vAcc>0.722023</vAcc></extensions></trkpt>
      <trkpt lon="-4.158386" lat="53.014328"><ele>634.035767</ele><time>2021-07-17T12:39:46Z</time><extensions><speed>0.662396</speed><course>319.790588</course><hAcc>0.890844</hAcc><vAcc>0.722011</vAcc></extensions></trkpt>
      <trkpt lon="-4.158390" lat="53.014333"><ele>633.988525</ele><time>2021-07-17T12:39:47Z</time><extensions><speed>0.670688</speed><course>318.972229</course><hAcc>0.890833</hAcc><vAcc>0.722024</vAcc></extensions></trkpt>
      <trkpt lon="-4.158394" lat="53.014339"><ele>633.942566</ele><time>2021-07-17T12:39:48Z</time><extensions><speed>0.681302</speed><course>320.354065</course><hAcc>0.890822</hAcc><vAcc>0.722045</vAcc></extensions></trkpt>
      <trkpt lon="-4.158398" lat="53.014345"><ele>633.898193</ele><time>2021-07-17T12:39:49Z</time><extensions><speed>0.694838</speed><course>320.541016</course><hAcc>0.890810</hAcc><vAcc>0.722053</vAcc></extensions></trkpt>
      <trkpt lon="-4.158400" lat="53.014351"><ele>633.856079</ele><time>2021-07-17T12:39:50Z</time><extensions><speed>0.712266</speed><course>317.906189</course><hAcc>0.890797</hAcc><vAcc>0.722033</vAcc></extensions></trkpt>
      <trkpt lon="-4.158402" lat="53.014357"><ele>633.816772</ele><time>2021-07-17T12:39:51Z</time><extensions><speed>0.734339</speed><course>316.077393</course><hAcc>0.890783</hAcc><vAcc>0.721980</vAcc></extensions></trkpt>
      <trkpt lon="-4.158403" lat="53.014364"><ele>633.780457</ele><time>2021-07-17T12:39:52Z</time><extensions><speed>0.760757</speed><course>307.356537</course><hAcc>0.890767</hAcc><vAcc>0.721902</vAcc></extensions></trkpt>
      <trkpt lon="-4.158403" lat="53.014371"><ele>633.747192</ele><time>2021-07-17T12:39:53Z</time><extensions><speed>0.790274</speed><course>302.004150</course><hAcc>0.890749</hAcc><vAcc>0.721809</vAcc></extensions></trkpt>
      <trkpt lon="-4.158402" lat="53.014378"><ele>633.716858</ele><time>2021-07-17T12:39:54Z</time><extensions><speed>0.821274</speed><course>310.520874</course><hAcc>0.890727</hAcc><vAcc>0.721709</vAcc></extensions></trkpt>
      <trkpt lon="-4.158400" lat="53.014385"><ele>633.688843</ele><time>2021-07-17T12:39:55Z</time><extensions><speed>0.851872</speed><course>307.778412</course><hAcc>0.890706</hAcc><vAcc>0.721605</vAcc></extensions></trkpt>
      <trkpt lon="-4.158398" lat="53.014393"><ele>633.662109</ele><time>2021-07-17T12:39:56Z</time><extensions><speed>0.880031</speed><course>310.132080</course><hAcc>0.890685</hAcc><vAcc>0.721501</vAcc></extensions></trkpt>
      <trkpt lon="-4.158395" lat="53.014401"><ele>633.635376</ele><time>2021-07-17T12:39:57Z</time><extensions><speed>0.904061</speed><course>310.327301</course><hAcc>0.890667</hAcc><vAcc>0.721409</vAcc></extensions></trkpt>
      <trkpt lon="-4.158392" lat="53.014409"><ele>633.607422</ele><time>2021-07-17T12:39:58Z</time><extensions><speed>0.923032</speed><course>308.925873</course><hAcc>0.890652</hAcc><vAcc>0.721336</vAcc></extensions></trkpt>
      <trkpt lon="-4.158389" lat="53.014417"><ele>633.577271</ele><time>2021-07-17T12:39:59Z</time><extensions><speed>0.936731</speed><course>308.955322</course><hAcc>0.890643</hAcc><vAcc>0.721288</vAcc></extensions></trkpt>
      <trkpt lon="-4.158386" lat="53.014425"><ele>633.544189</ele><time>2021-07-17T12:40:00Z</time><extensions><speed>0.945513</speed><course>303.152588</course><hAcc>0.890640</hAcc><vAcc>0.721271</vAcc></extensions></trkpt>
      <trkpt lon="-4.158384" lat="53.014434"><ele>633.507690</ele><time>2021-07-17T12:40:01Z</time><extensions><speed>0.950381</speed><course>313.156525</course><hAcc>0.890642</hAcc><vAcc>0.721284</vAcc></extensions></trkpt>
      <trkpt lon="-4.158383" lat="53.014442"><ele>633.467468</ele><time>2021-07-17T12:40:02Z</time><extensions><speed>0.952459</speed><course>307.864197</course><hAcc>0.890649</hAcc><vAcc>0.721327</vAcc></extensions></trkpt>
      <trkpt lon="-4.158382" lat="53.014451"><ele>633.423340</ele><time>2021-07-17T12:40:03Z</time><extensions><speed>0.952711</speed><course>309.541687</course><hAcc>0.890659</hAcc><vAcc>0.721393</vAcc></extensions></trkpt>
      <trkpt lon="-4.158382" lat="53.014459"><ele>633.375793</ele><time>2021-07-17T12:40:04Z</time><extensions><speed>0.951919</speed><course>312.130341</course><hAcc>0.890672</hAcc><vAcc>0.721473</vAcc></extensions></trkpt>
      <trkpt lon="-4.158384" lat="53.014468"><ele>633.325500</ele><time>2021-07-17T12:40:05Z</time><extensions><speed>0.950197</speed><course>310.268982</course><hAcc>0.890684</hAcc><vAcc>0.721557</vAcc></extensions></trkpt>
      <trkpt lon="-4.158385" lat="53.014476"><ele>633.273560</ele><time>2021-07-17T12:40:06Z</time><extensions><speed>0.947180</speed><course>308.247070</course><hAcc>0.890695</hAcc><vAcc>0.721630</vAcc></extensions></trkpt>
      <trkpt lon="-4.158388" lat="53.014485"><ele>633.221802</ele><time>2021-07-17T12:40:07Z</time><extensions><speed>0.942434</speed><course>304.229858</course><hAcc>0.890701</hAcc><vAcc>0.721681</vAcc></extensions></trkpt>
      <trkpt lon="-4.158392" lat="53.014493"><ele>633.172729</ele><time>2021-07-17T12:40:08Z</time><extensions><speed>0.935356</speed><course>308.310059</course><hAcc>0.890701</hAcc><vAcc>0.721700</vAcc></extensions></trkpt>
      <trkpt lon="-4.158396" lat="53.014501"><ele>633.128784</ele><time>2021-07-17T12:40:09Z</time><extensions><speed>0.925381</speed><course>311.142822</course><hAcc>0.890692</hAcc><vAcc>0.721681</vAcc></extensions></trkpt>
      <trkpt lon="-4.158401" lat="53.014509"><ele>633.092529</ele><time>2021-07-17T12:40:10Z</time><extensions><speed>0.911903</speed><course>305.518036</course><hAcc>0.890673</hAcc><vAcc>0.721623</vAcc></extensions></trkpt>
      <trkpt lon="-4.158406" lat="53.014516"><ele>633.066223</ele><time>2021-07-17T12:40:11Z</time><extensions><speed>0.894279</speed><course>303.061462</course><hAcc>0.890643</hAcc><vAcc>0.721527</vAcc></extensions></trkpt>
      <trkpt lon="-4.158411" lat="53.014523"><ele>633.052368</ele><time>2021-07-17T12:40:12Z</time><extensions><speed>0.872454</speed><course>298.232086</course><hAcc>0.890601</hAcc><vAcc>0.721391</vAcc></extensions></trkpt>
      <trkpt lon="-4.158417" lat="53.014530"><ele>633.053650</ele><time>2021-07-17T12:40:13Z</time><extensions><speed>0.847188</speed><course>289.358276</course><hAcc>0.890550</hAcc><vAcc>0.721214</vAcc></extensions></trkpt>
      <trkpt lon="-4.158423" lat="53.014537"><ele>633.071899</ele><time>2021-07-17T12:40:14Z</time><extensions><speed>0.819737</speed><course>285.924469</course><hAcc>0.890491</hAcc><vAcc>0.720998</vAcc></extensions></trkpt>
      <trkpt lon="-4.158430" lat="53.014543"><ele>633.107483</ele><time>2021-07-17T12:40:15Z</time><extensions><speed>0.791541</speed><course>280.520447</course><hAcc>0.890427</hAcc><vAcc>0.720746</vAcc></extensions></trkpt>
      <trkpt lon="-4.158436" lat="53.014549"><ele>633.158875</ele><time>2021-07-17T12:40:16Z</time><extensions><speed>0.763692</speed><course>286.862061</course><hAcc>0.890361</hAcc><vAcc>0.720468</vAcc></extensions></trkpt>
      <trkpt lon="-4.158442" lat="53.014554"><ele>633.224060</ele><time>2021-07-17T12:40:17Z</time><extensions><speed>0.736847</speed><course>295.700317</course><hAcc>0.890298</hAcc><vAcc>0.720175</vAcc></extensions></trkpt>
      <trkpt lon="-4.158449" lat="53.014559"><ele>633.301270</ele><time>2021-07-17T12:40:19Z</time><extensions><speed>0.711478</speed><course>296.161560</course><hAcc>0.890223</hAcc><vAcc>0.719871</vAcc></extensions></trkpt>
      <trkpt lon="-4.158455" lat="53.014564"><ele>633.388733</ele><time>2021-07-17T12:40:20Z</time><extensions><speed>0.687990</speed><course>298.229218</course><hAcc>0.890138</hAcc><vAcc>0.719580</vAcc></extensions></trkpt>
      <trkpt lon="-4.158461" lat="53.014569"><ele>633.484863</ele><time>2021-07-17T12:40:21Z</time><extensions><speed>0.666133</speed><course>297.545471</course><hAcc>0.890063</hAcc><vAcc>0.719330</vAcc></extensions></trkpt>
      <trkpt lon="-4.158467" lat="53.014574"><ele>633.588013</ele><time>2021-07-17T12:40:22Z</time><extensions><speed>0.645645</speed><course>292.454163</course><hAcc>0.890000</hAcc><vAcc>0.719128</vAcc></extensions></trkpt>
      <trkpt lon="-4.158473" lat="53.014578"><ele>633.695984</ele><time>2021-07-17T12:40:23Z</time><extensions><speed>0.626688</speed><course>287.195465</course><hAcc>0.889950</hAcc><vAcc>0.718980</vAcc></extensions></trkpt>
      <trkpt lon="-4.158478" lat="53.014583"><ele>633.806458</ele><time>2021-07-17T12:40:24Z</time><extensions><speed>0.609277</speed><course>283.339600</course><hAcc>0.889913</hAcc><vAcc>0.718886</vAcc></extensions></trkpt>
      <trkpt lon="-4.158484" lat="53.014587"><ele>633.916626</ele><time>2021-07-17T12:40:25Z</time><extensions><speed>0.592828</speed><course>283.687531</course><hAcc>0.889890</hAcc><vAcc>0.718843</vAcc></extensions></trkpt>
      <trkpt lon="-4.158489" lat="53.014592"><ele>634.024292</ele><time>2021-07-17T12:40:26Z</time><extensions><speed>0.576407</speed><course>284.089417</course><hAcc>0.889878</hAcc><vAcc>0.718844</vAcc></extensions></trkpt>
      <trkpt lon="-4.158493" lat="53.014596"><ele>634.128052</ele><time>2021-07-17T12:40:27Z</time><extensions><speed>0.559300</speed><course>286.432800</course><hAcc>0.889878</hAcc><vAcc>0.718880</vAcc></extensions></trkpt>
      <trkpt lon="-4.158497" lat="53.014600"><ele>634.226379</ele><time>2021-07-17T12:40:28Z</time><extensions><speed>0.541291</speed><course>288.844025</course><hAcc>0.889889</hAcc><vAcc>0.718941</vAcc></extensions></trkpt>
      <trkpt lon="-4.158501" lat="53.014604"><ele>634.318359</ele><time>2021-07-17T12:40:29Z</time><extensions><speed>0.522467</speed><course>294.600861</course><hAcc>0.889907</hAcc><vAcc>0.719022</vAcc></extensions></trkpt>
      <trkpt lon="-4.158504" lat="53.014609"><ele>634.403198</ele><time>2021-07-17T12:40:30Z</time><extensions><speed>0.502808</speed><course>289.399475</course><hAcc>0.889933</hAcc><vAcc>0.719118</vAcc></extensions></trkpt>
      <trkpt lon="-4.158507" lat="53.014613"><ele>634.480408</ele><time>2021-07-17T12:40:31Z</time><extensions><speed>0.482206</speed><course>292.462738</course><hAcc>0.889964</hAcc><vAcc>0.719228</vAcc></extensions></trkpt>
      <trkpt lon="-4.158510" lat="53.014616"><ele>634.549683</ele><time>2021-07-17T12:40:32Z</time><extensions><speed>0.460575</speed><course>292.044128</course><hAcc>0.889999</hAcc><vAcc>0.719346</vAcc></extensions></trkpt>
      <trkpt lon="-4.158513" lat="53.014620"><ele>634.611084</ele><time>2021-07-17T12:40:33Z</time><extensions><speed>0.437758</speed><course>289.426849</course><hAcc>0.890039</hAcc><vAcc>0.719471</vAcc></extensions></trkpt>
      <trkpt lon="-4.158515" lat="53.014624"><ele>634.664429</ele><time>2021-07-17T12:40:34Z</time><extensions><speed>0.413557</speed><course>292.821838</course><hAcc>0.890083</hAcc><vAcc>0.719602</vAcc></extensions></trkpt>
      <trkpt lon="-4.158517" lat="53.014627"><ele>634.709778</ele><time>2021-07-17T12:40:35Z</time><extensions><speed>0.388016</speed><course>287.405121</course><hAcc>0.890131</hAcc><vAcc>0.719740</vAcc></extensions></trkpt>
      <trkpt lon="-4.158519" lat="53.014630"><ele>634.747192</ele><time>2021-07-17T12:40:36Z</time><extensions><speed>0.361455</speed><course>289.328461</course><hAcc>0.890184</hAcc><vAcc>0.719888</vAcc></extensions></trkpt>
      <trkpt lon="-4.158521" lat="53.014633"><ele>634.776245</ele><time>2021-07-17T12:40:37Z</time><extensions><speed>0.334153</speed><course>290.686554</course><hAcc>0.890241</hAcc><vAcc>0.720051</vAcc></extensions></trkpt>
      <trkpt lon="-4.158522" lat="53.014636"><ele>634.796875</ele><time>2021-07-17T12:40:38Z</time><extensions><speed>0.305975</speed><course>291.519623</course><hAcc>0.890302</hAcc><vAcc>0.720232</vAcc></extensions></trkpt>
      <trkpt lon="-4.158524" lat="53.014638"><ele>634.809082</ele><time>2021-07-17T12:40:39Z</time><extensions><speed>0.276473</speed><course>289.260345</course><hAcc>0.890368</hAcc><vAcc>0.720435</vAcc></extensions></trkpt>
      <trkpt lon="-4.158525" lat="53.014641"><ele>634.813354</ele><time>2021-07-17T12:40:40Z</time><extensions><speed>0.245525</speed><course>291.671295</course><hAcc>0.890436</hAcc><vAcc>0.720662</vAcc></extensions></trkpt>
      <trkpt lon="-4.158526" lat="53.014643"><ele>634.810669</ele><time>2021-07-17T12:40:41Z</time><extensions><speed>0.213885</speed><course>285.797272</course><hAcc>0.890507</hAcc><vAcc>0.720911</vAcc></extensions></trkpt>
      <trkpt lon="-4.158527" lat="53.014644"><ele>634.802490</ele><time>2021-07-17T12:40:42Z</time><extensions><speed>0.182771</speed><course>284.045776</course><hAcc>0.890577</hAcc><vAcc>0.721176</vAcc></extensions></trkpt>
      <trkpt lon="-4.158528" lat="53.014646"><ele>634.790527</ele><time>2021-07-17T12:40:43Z</time><extensions><speed>0.153147</speed><course>290.744446</course><hAcc>0.890647</hAcc><vAcc>0.721446</vAcc></extensions></trkpt>
      <trkpt lon="-4.158529" lat="53.014647"><ele>634.776550</ele><time>2021-07-17T12:40:44Z</time><extensions><speed>0.125619</speed><course>286.155334</course><hAcc>0.890713</hAcc><vAcc>0.721707</vAcc></extensions></trkpt>
      <trkpt lon="-4.158529" lat="53.014648"><ele>634.762146</ele><time>2021-07-17T12:40:45Z</time><extensions><speed>0.100588</speed><course>292.078705</course><hAcc>0.890774</hAcc><vAcc>0.721943</vAcc></extensions></trkpt>
      <trkpt lon="-4.158529" lat="53.014649"><ele>634.748474</ele><time>2021-07-17T12:40:46Z</time><extensions><speed>0.078687</speed><course>292.906311</course><hAcc>0.890829</hAcc><vAcc>0.722142</vAcc></extensions></trkpt>
      <trkpt lon="-4.158529" lat="53.014649"><ele>634.736633</ele><time>2021-07-17T12:40:47Z</time><extensions><speed>0.061372</speed><course>291.462067</course><hAcc>0.890875</hAcc><vAcc>0.722297</vAcc></extensions></trkpt>
      <trkpt lon="-4.158529" lat="53.014650"><ele>634.727600</ele><time>2021-07-17T12:40:48Z</time><extensions><speed>0.051792</speed><course>290.448425</course><hAcc>0.890910</hAcc><vAcc>0.722406</vAcc></extensions></trkpt>
      <trkpt lon="-4.158528" lat="53.014650"><ele>634.721863</ele><time>2021-07-17T12:40:49Z</time><extensions><speed>0.053733</speed><course>295.857269</course><hAcc>0.890934</hAcc><vAcc>0.722470</vAcc></extensions></trkpt>
      <trkpt lon="-4.158527" lat="53.014650"><ele>634.719849</ele><time>2021-07-17T12:40:50Z</time><extensions><speed>0.066434</speed><course>298.185364</course><hAcc>0.890945</hAcc><vAcc>0.722492</vAcc></extensions></trkpt>
      <trkpt lon="-4.158526" lat="53.014650"><ele>634.721497</ele><time>2021-07-17T12:40:51Z</time><extensions><speed>0.085054</speed><course>294.469940</course><hAcc>0.890943</hAcc><vAcc>0.722474</vAcc></extensions></trkpt>
      <trkpt lon="-4.158525" lat="53.014650"><ele>634.726501</ele><time>2021-07-17T12:40:52Z</time><extensions><speed>0.105629</speed><course>292.898438</course><hAcc>0.890928</hAcc><vAcc>0.722417</vAcc></extensions></trkpt>
      <trkpt lon="-4.158523" lat="53.014650"><ele>634.734009</ele><time>2021-07-17T12:40:53Z</time><extensions><speed>0.125597</speed><course>292.422791</course><hAcc>0.890902</hAcc><vAcc>0.722325</vAcc></extensions></trkpt>
      <trkpt lon="-4.158521" lat="53.014650"><ele>634.742920</ele><time>2021-07-17T12:40:54Z</time><extensions><speed>0.143034</speed><course>292.622986</course><hAcc>0.890864</hAcc><vAcc>0.722199</vAcc></extensions></trkpt>
      <trkpt lon="-4.158519" lat="53.014650"><ele>634.751709</ele><time>2021-07-17T12:40:55Z</time><extensions><speed>0.156861</speed><course>292.749084</course><hAcc>0.890817</hAcc><vAcc>0.722043</vAcc></extensions></trkpt>
      <trkpt lon="-4.158516" lat="53.014650"><ele>634.758911</ele><time>2021-07-17T12:40:56Z</time><extensions><speed>0.166944</speed><course>294.832458</course><hAcc>0.890761</hAcc><vAcc>0.721858</vAcc></extensions></trkpt>
      <trkpt lon="-4.158514" lat="53.014649"><ele>634.762817</ele><time>2021-07-17T12:40:57Z</time><extensions><speed>0.173764</speed><course>290.563019</course><hAcc>0.890699</hAcc><vAcc>0.721649</vAcc></extensions></trkpt>
      <trkpt lon="-4.158511" lat="53.014649"><ele>634.761841</ele><time>2021-07-17T12:40:58Z</time><extensions><speed>0.177869</speed><course>288.082062</course><hAcc>0.890632</hAcc><vAcc>0.721422</vAcc></extensions></trkpt>
      <trkpt lon="-4.158509" lat="53.014649"><ele>634.754822</ele><time>2021-07-17T12:40:59Z</time><extensions><speed>0.179859</speed><course>289.238037</course><hAcc>0.890563</hAcc><vAcc>0.721182</vAcc></extensions></trkpt>
      <trkpt lon="-4.158506" lat="53.014649"><ele>634.741150</ele><time>2021-07-17T12:41:00Z</time><extensions><speed>0.180278</speed><course>289.037109</course><hAcc>0.890495</hAcc><vAcc>0.720936</vAcc></extensions></trkpt>
      <trkpt lon="-4.158503" lat="53.014648"><ele>634.720764</ele><time>2021-07-17T12:41:01Z</time><extensions><speed>0.179143</speed><course>291.884949</course><hAcc>0.890430</hAcc><vAcc>0.720691</vAcc></extensions></trkpt>
      <trkpt lon="-4.158501" lat="53.014648"><ele>634.693665</ele><time>2021-07-17T12:41:02Z</time><extensions><speed>0.176128</speed><course>287.567657</course><hAcc>0.890373</hAcc><vAcc>0.720459</vAcc></extensions></trkpt>
      <trkpt lon="-4.158498" lat="53.014648"><ele>634.660461</ele><time>2021-07-17T12:41:03Z</time><extensions><speed>0.170825</speed><course>291.768890</course><hAcc>0.890325</hAcc><vAcc>0.720253</vAcc></extensions></trkpt>
      <trkpt lon="-4.158496" lat="53.014648"><ele>634.621643</ele><time>2021-07-17T12:41:04Z</time><extensions><speed>0.162843</speed><course>296.126740</course><hAcc>0.890288</hAcc><vAcc>0.720091</vAcc></extensions></trkpt>
      <trkpt lon="-4.158493" lat="53.014648"><ele>634.578247</ele><time>2021-07-17T12:41:05Z</time><extensions><speed>0.152178</speed><course>297.059143</course><hAcc>0.890265</hAcc><vAcc>0.719984</vAcc></extensions></trkpt>
      <trkpt lon="-4.158491" lat="53.014647"><ele>634.531372</ele><time>2021-07-17T12:41:06Z</time><extensions><speed>0.139318</speed><course>303.696320</course><hAcc>0.890255</hAcc><vAcc>0.719943</vAcc></extensions></trkpt>
      <trkpt lon="-4.158489" lat="53.014647"><ele>634.482056</ele><time>2021-07-17T12:41:07Z</time><extensions><speed>0.124898</speed><course>307.460022</course><hAcc>0.890259</hAcc><vAcc>0.719968</vAcc></extensions></trkpt>
      <trkpt lon="-4.158487" lat="53.014647"><ele>634.431091</ele><time>2021-07-17T12:41:08Z</time><extensions><speed>0.109659</speed><course>302.094666</course><hAcc>0.890275</hAcc><vAcc>0.720055</vAcc></extensions></trkpt>
      <trkpt lon="-4.158486" lat="53.014647"><ele>634.379395</ele><time>2021-07-17T12:41:09Z</time><extensions><speed>0.094347</speed><course>294.763123</course><hAcc>0.890303</hAcc><vAcc>0.720194</vAcc></extensions></trkpt>
      <trkpt lon="-4.158485" lat="53.014647"><ele>634.327820</ele><time>2021-07-17T12:41:10Z</time><extensions><speed>0.079528</speed><course>292.310913</course><hAcc>0.890339</hAcc><vAcc>0.720371</vAcc></extensions></trkpt>
      <trkpt lon="-4.158484" lat="53.014647"><ele>634.276978</ele><time>2021-07-17T12:41:11Z</time><extensions><speed>0.065687</speed><course>286.252472</course><hAcc>0.890381</hAcc><vAcc>0.720566</vAcc></extensions></trkpt>
      <trkpt lon="-4.158483" lat="53.014646"><ele>634.227600</ele><time>2021-07-17T12:41:12Z</time><extensions><speed>0.053290</speed><course>277.085999</course><hAcc>0.890425</hAcc><vAcc>0.720762</vAcc></extensions></trkpt>
      <trkpt lon="-4.158482" lat="53.014646"><ele>634.180603</ele><time>2021-07-17T12:41:13Z</time><extensions><speed>0.042789</speed><course>269.880463</course><hAcc>0.890467</hAcc><vAcc>0.720944</vAcc></extensions></trkpt>
      <trkpt lon="-4.158482" lat="53.014646"><ele>634.136841</ele><time>2021-07-17T12:41:14Z</time><extensions><speed>0.034608</speed><course>256.014618</course><hAcc>0.890504</hAcc><vAcc>0.721097</vAcc></extensions></trkpt>
      <trkpt lon="-4.158482" lat="53.014646"><ele>634.097107</ele><time>2021-07-17T12:41:15Z</time><extensions><speed>0.029117</speed><course>250.524368</course><hAcc>0.890534</hAcc><vAcc>0.721212</vAcc></extensions></trkpt>
      <trkpt lon="-4.158481" lat="53.014645"><ele>634.062073</ele><time>2021-07-17T12:41:16Z</time><extensions><speed>0.026546</speed><course>237.491638</course><hAcc>0.890554</hAcc><vAcc>0.721280</vAcc></extensions></trkpt>
      <trkpt lon="-4.158481" lat="53.014645"><ele>634.031799</ele><time>2021-07-17T12:41:17Z</time><extensions><speed>0.026593</speed><course>231.976761</course><hAcc>0.890562</hAcc><vAcc>0.721300</vAcc></extensions></trkpt>
      <trkpt lon="-4.158482" lat="53.014645"><ele>634.006348</ele><time>2021-07-17T12:41:18Z</time><extensions><speed>0.028366</speed><course>228.504318</course><hAcc>0.890559</hAcc><vAcc>0.721272</vAcc></extensions></trkpt>
      <trkpt lon="-4.158482" lat="53.014645"><ele>633.985657</ele><time>2021-07-17T12:41:19Z</time><extensions><speed>0.031081</speed><course>227.577087</course><hAcc>0.890545</hAcc><vAcc>0.721200</vAcc></extensions></trkpt>
      <trkpt lon="-4.158482" lat="53.014645"><ele>633.969788</ele><time>2021-07-17T12:41:20Z</time><extensions><speed>0.034337</speed><course>219.513672</course><hAcc>0.890520</hAcc><vAcc>0.721091</vAcc></extensions></trkpt>
      <trkpt lon="-4.158483" lat="53.014645"><ele>633.958496</ele><time>2021-07-17T12:41:21Z</time><extensions><speed>0.038106</speed><course>224.903015</course><hAcc>0.890486</hAcc><vAcc>0.720950</vAcc></extensions></trkpt>
      <trkpt lon="-4.158483" lat="53.014645"><ele>633.951599</ele><time>2021-07-17T12:41:22Z</time><extensions><speed>0.042358</speed><course>222.390198</course><hAcc>0.890447</hAcc><vAcc>0.720783</vAcc></extensions></trkpt>
      <trkpt lon="-4.158484" lat="53.014645"><ele>633.948792</ele><time>2021-07-17T12:41:23Z</time><extensions><speed>0.046708</speed><course>223.313202</course><hAcc>0.890404</hAcc><vAcc>0.720600</vAcc></extensions></trkpt>
      <trkpt lon="-4.158485" lat="53.014645"><ele>633.949890</ele><time>2021-07-17T12:41:24Z</time><extensions><speed>0.050808</speed><course>224.045700</course><hAcc>0.890362</hAcc><vAcc>0.720409</vAcc></extensions></trkpt>
      <trkpt lon="-4.158486" lat="53.014645"><ele>633.954651</ele><time>2021-07-17T12:41:25Z</time><extensions><speed>0.054600</speed><course>224.975723</course><hAcc>0.890323</hAcc><vAcc>0.720221</vAcc></extensions></trkpt>
      <trkpt lon="-4.158486" lat="53.014645"><ele>633.962646</ele><time>2021-07-17T12:41:26Z</time><extensions><speed>0.058070</speed><course>226.513992</course><hAcc>0.890292</hAcc><vAcc>0.720047</vAcc></extensions></trkpt>
      <trkpt lon="-4.158487" lat="53.014645"><ele>633.973511</ele><time>2021-07-17T12:41:27Z</time><extensions><speed>0.061198</speed><course>227.291473</course><hAcc>0.890253</hAcc><vAcc>0.719886</vAcc></extensions></trkpt>
      <trkpt lon="-4.158488" lat="53.014646"><ele>633.986755</ele><time>2021-07-17T12:41:28Z</time><extensions><speed>0.063815</speed><course>231.833313</course><hAcc>0.890207</hAcc><vAcc>0.719749</vAcc></extensions></trkpt>
      <trkpt lon="-4.158489" lat="53.014646"><ele>634.001953</ele><time>2021-07-17T12:41:29Z</time><extensions><speed>0.065796</speed><course>230.421005</course><hAcc>0.890175</hAcc><vAcc>0.719655</vAcc></extensions></trkpt>
      <trkpt lon="-4.158489" lat="53.014646"><ele>634.018616</ele><time>2021-07-17T12:41:30Z</time><extensions><speed>0.066918</speed><course>235.980087</course><hAcc>0.890156</hAcc><vAcc>0.719609</vAcc></extensions></trkpt>
      <trkpt lon="-4.158490" lat="53.014647"><ele>634.036316</ele><time>2021-07-17T12:41:31Z</time><extensions><speed>0.066867</speed><course>243.213364</course><hAcc>0.890151</hAcc><vAcc>0.719608</vAcc></extensions></trkpt>
      <trkpt lon="-4.158491" lat="53.014647"><ele>634.054810</ele><time>2021-07-17T12:41:32Z</time><extensions><speed>0.065359</speed><course>253.165268</course><hAcc>0.890161</hAcc><vAcc>0.719652</vAcc></extensions></trkpt>
      <trkpt lon="-4.158492" lat="53.014647"><ele>634.073730</ele><time>2021-07-17T12:41:33Z</time><extensions><speed>0.062184</speed><course>266.505096</course><hAcc>0.890186</hAcc><vAcc>0.719738</vAcc></extensions></trkpt>
      <trkpt lon="-4.158492" lat="53.014648"><ele>634.092651</ele><time>2021-07-17T12:41:34Z</time><extensions><speed>0.057324</speed><course>267.255646</course><hAcc>0.890226</hAcc><vAcc>0.719867</vAcc></extensions></trkpt>
      <trkpt lon="-4.158493" lat="53.014648"><ele>634.111206</ele><time>2021-07-17T12:41:35Z</time><extensions><speed>0.051207</speed><course>271.176971</course><hAcc>0.890284</hAcc><vAcc>0.720042</vAcc></extensions></trkpt>
      <trkpt lon="-4.158494" lat="53.014648"><ele>634.129028</ele><time>2021-07-17T12:41:36Z</time><extensions><speed>0.044648</speed><course>283.145996</course><hAcc>0.890361</hAcc><vAcc>0.720269</vAcc></extensions></trkpt>
      <trkpt lon="-4.158494" lat="53.014648"><ele>634.145813</ele><time>2021-07-17T12:41:37Z</time><extensions><speed>0.038641</speed><course>291.499756</course><hAcc>0.890461</hAcc><vAcc>0.720556</vAcc></extensions></trkpt>
      <trkpt lon="-4.158495" lat="53.014648"><ele>634.161255</ele><time>2021-07-17T12:41:38Z</time><extensions><speed>0.033922</speed><course>295.960785</course><hAcc>0.890590</hAcc><vAcc>0.720914</vAcc></extensions></trkpt>
      <trkpt lon="-4.158495" lat="53.014648"><ele>634.175049</ele><time>2021-07-17T12:41:39Z</time><extensions><speed>0.030541</speed><course>298.309418</course><hAcc>0.890757</hAcc><vAcc>0.721354</vAcc></extensions></trkpt>
      <trkpt lon="-4.158496" lat="53.014648"><ele>634.187073</ele><time>2021-07-17T12:41:40Z</time><extensions><speed>0.028193</speed><course>301.442566</course><hAcc>0.890972</hAcc><vAcc>0.721897</vAcc></extensions></trkpt>
      <trkpt lon="-4.158496" lat="53.014648"><ele>634.197327</ele><time>2021-07-17T12:41:41Z</time><extensions><speed>0.026476</speed><course>301.820831</course><hAcc>0.891252</hAcc><vAcc>0.722562</vAcc></extensions></trkpt>
      <trkpt lon="-4.158497" lat="53.014648"><ele>634.205688</ele><time>2021-07-17T12:41:42Z</time><extensions><speed>0.025091</speed><course>306.533081</course><hAcc>0.891617</hAcc><vAcc>0.723369</vAcc></extensions></trkpt>
      <trkpt lon="-4.158497" lat="53.014648"><ele>634.212402</ele><time>2021-07-17T12:41:43Z</time><extensions><speed>0.023810</speed><course>310.759277</course><hAcc>0.892095</hAcc><vAcc>0.724330</vAcc></extensions></trkpt>
      <trkpt lon="-4.158497" lat="53.014647"><ele>634.217407</ele><time>2021-07-17T12:41:44Z</time><extensions><speed>0.022473</speed><course>315.721252</course><hAcc>0.892715</hAcc><vAcc>0.725453</vAcc></extensions></trkpt>
      <trkpt lon="-4.158497" lat="53.014647"><ele>634.221008</ele><time>2021-07-17T12:41:45Z</time><extensions><speed>0.021026</speed><course>321.376434</course><hAcc>0.893512</hAcc><vAcc>0.726739</vAcc></extensions></trkpt>
      <trkpt lon="-4.158497" lat="53.014647"><ele>634.223389</ele><time>2021-07-17T12:41:46Z</time><extensions><speed>0.019464</speed><course>321.893402</course><hAcc>0.894521</hAcc><vAcc>0.728187</vAcc></extensions></trkpt>
      <trkpt lon="-4.158497" lat="53.014647"><ele>634.224609</ele><time>2021-07-17T12:41:47Z</time><extensions><speed>0.017815</speed><course>325.867676</course><hAcc>0.895787</hAcc><vAcc>0.729797</vAcc></extensions></trkpt>
      <trkpt lon="-4.158497" lat="53.014647"><ele>634.225037</ele><time>2021-07-17T12:41:48Z</time><extensions><speed>0.016107</speed><course>319.975250</course><hAcc>0.897330</hAcc><vAcc>0.731552</vAcc></extensions></trkpt>
      <trkpt lon="-4.158497" lat="53.014647"><ele>634.224670</ele><time>2021-07-17T12:41:49Z</time><extensions><speed>0.014384</speed><course>320.826599</course><hAcc>0.899124</hAcc><vAcc>0.733397</vAcc></extensions></trkpt>
      <trkpt lon="-4.158497" lat="53.014646"><ele>634.223816</ele><time>2021-07-17T12:41:50Z</time><extensions><speed>0.012682</speed><course>320.826599</course><hAcc>0.901133</hAcc><vAcc>0.735265</vAcc></extensions></trkpt>
      <trkpt lon="-4.158497" lat="53.014646"><ele>634.222473</ele><time>2021-07-17T12:41:51Z</time><extensions><speed>0.011038</speed><course>320.826599</course><hAcc>0.903277</hAcc><vAcc>0.737055</vAcc></extensions></trkpt>
      <trkpt lon="-4.158497" lat="53.014646"><ele>634.220886</ele><time>2021-07-17T12:41:52Z</time><extensions><speed>0.009480</speed><course>320.826599</course><hAcc>0.905431</hAcc><vAcc>0.738641</vAcc></extensions></trkpt>
      <trkpt lon="-4.158497" lat="53.014646"><ele>634.219055</ele><time>2021-07-17T12:41:53Z</time><extensions><speed>0.008031</speed><course>320.826599</course><hAcc>0.907425</hAcc><vAcc>0.739887</vAcc></extensions></trkpt>
      <trkpt lon="-4.158497" lat="53.014646"><ele>634.217163</ele><time>2021-07-17T12:41:54Z</time><extensions><speed>0.006708</speed><course>320.826599</course><hAcc>0.909069</hAcc><vAcc>0.740690</vAcc></extensions></trkpt>
      <trkpt lon="-4.158497" lat="53.014646"><ele>634.215210</ele><time>2021-07-17T12:41:55Z</time><extensions><speed>0.005522</speed><course>320.826599</course><hAcc>0.910212</hAcc><vAcc>0.741041</vAcc></extensions></trkpt>
      <trkpt lon="-4.158497" lat="53.014646"><ele>634.213257</ele><time>2021-07-17T12:41:56Z</time><extensions><speed>0.004481</speed><course>320.826599</course><hAcc>0.910835</hAcc><vAcc>0.741127</vAcc></extensions></trkpt>
      <trkpt lon="-4.158497" lat="53.014646"><ele>634.211426</ele><time>2021-07-17T12:41:56Z</time><extensions><speed>0.003586</speed><course>320.826599</course><hAcc>0.911242</hAcc><vAcc>0.741490</vAcc></extensions></trkpt>
      <trkpt lon="-4.158497" lat="53.014646"><ele>634.209595</ele><time>2021-07-17T12:41:57Z</time><extensions><speed>0.002834</speed><course>320.826599</course><hAcc>0.912275</hAcc><vAcc>0.743191</vAcc></extensions></trkpt>
      <trkpt lon="-4.158497" lat="53.014646"><ele>634.207886</ele><time>2021-07-17T12:41:58Z</time><extensions><speed>0.002222</speed><course>320.826599</course><hAcc>0.915669</hAcc><vAcc>0.748045</vAcc></extensions></trkpt>
      <trkpt lon="-4.158497" lat="53.014646"><ele>634.206238</ele><time>2021-07-17T12:41:59Z</time><extensions><speed>0.001741</speed><course>320.826599</course><hAcc>0.924516</hAcc><vAcc>0.758863</vAcc></extensions></trkpt>
      <trkpt lon="-4.158497" lat="53.014646"><ele>634.204712</ele><time>2021-07-17T12:42:00Z</time><extensions><speed>0.001383</speed><course>320.826599</course><hAcc>0.943642</hAcc><vAcc>0.779552</vAcc></extensions></trkpt>
      <trkpt lon="-4.158497" lat="53.014646"><ele>634.203247</ele><time>2021-07-17T12:42:01Z</time><extensions><speed>0.001131</speed><course>320.826599</course><hAcc>0.979714</hAcc><vAcc>0.814951</vAcc></extensions></trkpt>
      <trkpt lon="-4.158497" lat="53.014646"><ele>634.203369</ele><time>2021-07-17T12:42:02Z</time><extensions><speed>0.000000</speed><course>207.637573</course><hAcc>0.941533</hAcc><vAcc>0.779226</vAcc></extensions></trkpt>
      <trkpt lon="-4.158497" lat="53.014646"><ele>634.203369</ele><time>2021-07-17T12:42:03Z</time><extensions><speed>0.000000</speed><course>199.781464</course><hAcc>0.922114</hAcc><vAcc>0.758152</vAcc></extensions></trkpt>
      <trkpt lon="-4.158497" lat="53.014646"><ele>634.203369</ele><time>2021-07-17T12:42:04Z</time><extensions><speed>0.000000</speed><course>204.898392</course><hAcc>0.914316</hAcc><vAcc>0.748102</vAcc></extensions></trkpt>
      <trkpt lon="-4.158497" lat="53.014646"><ele>634.203369</ele><time>2021-07-17T12:42:05Z</time><extensions><speed>0.000000</speed><course>218.988647</course><hAcc>0.912667</hAcc><vAcc>0.744738</vAcc></extensions></trkpt>
      <trkpt lon="-4.158497" lat="53.014646"><ele>634.203369</ele><time>2021-07-17T12:42:06Z</time><extensions><speed>0.000000</speed><course>240.875916</course><hAcc>0.913678</hAcc><vAcc>0.744926</vAcc></extensions></trkpt>
      <trkpt lon="-4.158497" lat="53.014646"><ele>634.203369</ele><time>2021-07-17T12:42:07Z</time><extensions><speed>0.000000</speed><course>240.875916</course><hAcc>0.915398</hAcc><vAcc>0.746634</vAcc></extensions></trkpt>
      <trkpt lon="-4.158497" lat="53.014646"><ele>634.203369</ele><time>2021-07-17T12:42:08Z</time><extensions><speed>0.000000</speed><course>240.875916</course><hAcc>0.916915</hAcc><vAcc>0.748676</vAcc></extensions></trkpt>
      <trkpt lon="-4.158497" lat="53.014646"><ele>634.203369</ele><time>2021-07-17T12:42:09Z</time><extensions><speed>0.000000</speed><course>240.875916</course><hAcc>0.917932</hAcc><vAcc>0.750440</vAcc></extensions></trkpt>
      <trkpt lon="-4.158497" lat="53.014646"><ele>634.203369</ele><time>2021-07-17T12:42:10Z</time><extensions><speed>0.000000</speed><course>240.875916</course><hAcc>0.918465</hAcc><vAcc>0.751667</vAcc></extensions></trkpt>
      <trkpt lon="-4.158497" lat="53.014646"><ele>634.203369</ele><time>2021-07-17T12:42:11Z</time><extensions><speed>0.000000</speed><course>240.875916</course><hAcc>0.918638</hAcc><vAcc>0.752281</vAcc></extensions></trkpt>
      <trkpt lon="-4.158497" lat="53.014646"><ele>634.203369</ele><time>2021-07-17T12:42:12Z</time><extensions><speed>0.000000</speed><course>269.430084</course><hAcc>0.918563</hAcc><vAcc>0.752283</vAcc></extensions></trkpt>
      <trkpt lon="-4.158497" lat="53.014646"><ele>634.203369</ele><time>2021-07-17T12:42:13Z</time><extensions><speed>0.000000</speed><course>274.056000</course><hAcc>0.918282</hAcc><vAcc>0.751702</vAcc></extensions></trkpt>
      <trkpt lon="-4.158497" lat="53.014646"><ele>634.203369</ele><time>2021-07-17T12:42:14Z</time><extensions><speed>0.000000</speed><course>273.580658</course><hAcc>0.917768</hAcc><vAcc>0.750586</vAcc></extensions></trkpt>
      <trkpt lon="-4.158497" lat="53.014646"><ele>634.203369</ele><time>2021-07-17T12:42:15Z</time><extensions><speed>0.000000</speed><course>266.285736</course><hAcc>0.916966</hAcc><vAcc>0.749048</vAcc></extensions></trkpt>
      <trkpt lon="-4.158497" lat="53.014646"><ele>634.203369</ele><time>2021-07-17T12:42:16Z</time><extensions><speed>0.000000</speed><course>280.416809</course><hAcc>0.915911</hAcc><vAcc>0.747361</vAcc></extensions></trkpt>
      <trkpt lon="-4.158497" lat="53.014646"><ele>634.203369</ele><time>2021-07-17T12:42:17Z</time><extensions><speed>0.000000</speed><course>289.633057</course><hAcc>0.914898</hAcc><vAcc>0.746100</vAcc></extensions></trkpt>
      <trkpt lon="-4.158497" lat="53.014646"><ele>634.203369</ele><time>2021-07-17T12:42:18Z</time><extensions><speed>0.000000</speed><course>274.042023</course><hAcc>0.914758</hAcc><vAcc>0.746350</vAcc></extensions></trkpt>
      <trkpt lon="-4.158497" lat="53.014646"><ele>634.203369</ele><time>2021-07-17T12:42:19Z</time><extensions><speed>0.000000</speed><course>259.398621</course><hAcc>0.917216</hAcc><vAcc>0.749941</vAcc></extensions></trkpt>
      <trkpt lon="-4.158497" lat="53.014646"><ele>634.203369</ele><time>2021-07-17T12:42:20Z</time><extensions><speed>0.000000</speed><course>235.228027</course><hAcc>0.925335</hAcc><vAcc>0.759685</vAcc></extensions></trkpt>
      <trkpt lon="-4.158497" lat="53.014646"><ele>634.203369</ele><time>2021-07-17T12:42:21Z</time><extensions><speed>0.000000</speed><course>233.943741</course><hAcc>0.943912</hAcc><vAcc>0.779490</vAcc></extensions></trkpt>
      <trkpt lon="-4.158497" lat="53.014646"><ele>634.203369</ele><time>2021-07-17T12:42:22Z</time><extensions><speed>0.000000</speed><course>251.986771</course><hAcc>0.979595</hAcc><vAcc>0.814197</vAcc></extensions></trkpt>
      <trkpt lon="-4.158497" lat="53.014646"><ele>634.203369</ele><time>2021-07-17T12:42:23Z</time><extensions><speed>0.000000</speed><course>207.637573</course><hAcc>0.941346</hAcc><vAcc>0.778465</vAcc></extensions></trkpt>
      <trkpt lon="-4.158497" lat="53.014646"><ele>634.203369</ele><time>2021-07-17T12:42:25Z</time><extensions><speed>0.000000</speed><course>199.781464</course><hAcc>0.921930</hAcc><vAcc>0.757386</vAcc></extensions></trkpt>
      <trkpt lon="-4.158497" lat="53.014646"><ele>634.203369</ele><time>2021-07-17T12:42:26Z</time><extensions><speed>0.000000</speed><course>204.898392</course><hAcc>0.914147</hAcc><vAcc>0.747392</vAcc></extensions></trkpt>
      <trkpt lon="-4.158497" lat="53.014646"><ele>634.203369</ele><time>2021-07-17T12:42:27Z</time><extensions><speed>0.000000</speed><course>218.988647</course><hAcc>0.912515</hAcc><vAcc>0.744114</vAcc></extensions></trkpt>
      <trkpt lon="-4.158497" lat="53.014646"><ele>634.203369</ele><time>2021-07-17T12:42:28Z</time><extensions><speed>0.000000</speed><course>240.875916</course><hAcc>0.913544</hAcc><vAcc>0.744409</vAcc></extensions></trkpt>
      <trkpt lon="-4.158497" lat="53.014646"><ele>634.203369</ele><time>2021-07-17T12:42:29Z</time><extensions><speed>0.000000</speed><course>240.875916</course><hAcc>0.915285</hAcc><vAcc>0.746230</vAcc></extensions></trkpt>
      <trkpt lon="-4.158497" lat="53.014646"><ele>634.203369</ele><time>2021-07-17T12:42:30Z</time><extensions><speed>0.000000</speed><course>240.875916</course><hAcc>0.916824</hAcc><vAcc>0.748381</vAcc></extensions></trkpt>
      <trkpt lon="-4.158497" lat="53.014646"><ele>634.203369</ele><time>2021-07-17T12:42:31Z</time><extensions><speed>0.000000</speed><course>240.875916</course><hAcc>0.917864</hAcc><vAcc>0.750245</vAcc></extensions></trkpt>
      <trkpt lon="-4.158497" lat="53.014646"><ele>634.203369</ele><time>2021-07-17T12:42:32Z</time><extensions><speed>0.000000</speed><course>240.875916</course><hAcc>0.918418</hAcc><vAcc>0.751557</vAcc></extensions></trkpt>
      <trkpt lon="-4.158497" lat="53.014646"><ele>634.203369</ele><time>2021-07-17T12:42:33Z</time><extensions><speed>0.000000</speed><course>240.875916</course><hAcc>0.918611</hAcc><vAcc>0.752239</vAcc></extensions></trkpt>
      <trkpt lon="-4.158497" lat="53.014646"><ele>634.203369</ele><time>2021-07-17T12:42:34Z</time><extensions><speed>0.000000</speed><course>269.430084</course><hAcc>0.918553</hAcc><vAcc>0.752293</vAcc></extensions></trkpt>
      <trkpt lon="-4.158497" lat="53.014646"><ele>634.203369</ele><time>2021-07-17T12:42:35Z</time><extensions><speed>0.000000</speed><course>274.056000</course><hAcc>0.918285</hAcc><vAcc>0.751746</vAcc></extensions></trkpt>
      <trkpt lon="-4.158497" lat="53.014646"><ele>634.203369</ele><time>2021-07-17T12:42:36Z</time><extensions><speed>0.000000</speed><course>273.580658</course><hAcc>0.917777</hAcc><vAcc>0.750649</vAcc></extensions></trkpt>
      <trkpt lon="-4.158497" lat="53.014646"><ele>634.203369</ele><time>2021-07-17T12:42:37Z</time><extensions><speed>0.000000</speed><course>266.285736</course><hAcc>0.916976</hAcc><vAcc>0.749116</vAcc></extensions></trkpt>
      <trkpt lon="-4.158497" lat="53.014646"><ele>634.203369</ele><time>2021-07-17T12:42:38Z</time><extensions><speed>0.000000</speed><course>280.416809</course><hAcc>0.915913</hAcc><vAcc>0.747414</vAcc></extensions></trkpt>
      <trkpt lon="-4.158497" lat="53.014646"><ele>634.203369</ele><time>2021-07-17T12:42:39Z</time><extensions><speed>0.000000</speed><course>289.633057</course><hAcc>0.914884</hAcc><vAcc>0.746118</vAcc></extensions></trkpt>
      <trkpt lon="-4.158497" lat="53.014646"><ele>634.203369</ele><time>2021-07-17T12:42:40Z</time><extensions><speed>0.000000</speed><course>274.042023</course><hAcc>0.914718</hAcc><vAcc>0.746306</vAcc></extensions></trkpt>
      <trkpt lon="-4.158497" lat="53.014646"><ele>634.203369</ele><time>2021-07-17T12:42:41Z</time><extensions><speed>0.000000</speed><course>259.398621</course><hAcc>0.917140</hAcc><vAcc>0.749807</vAcc></extensions></trkpt>
      <trkpt lon="-4.158497" lat="53.014646"><ele>634.203369</ele><time>2021-07-17T12:42:42Z</time><extensions><speed>0.000000</speed><course>235.228027</course><hAcc>0.925214</hAcc><vAcc>0.759430</vAcc></extensions></trkpt>
      <trkpt lon="-4.158497" lat="53.014646"><ele>634.203369</ele><time>2021-07-17T12:42:43Z</time><extensions><speed>0.000000</speed><course>233.943741</course><hAcc>0.943738</hAcc><vAcc>0.779084</vAcc></extensions></trkpt>
      <trkpt lon="-4.158497" lat="53.014646"><ele>634.203369</ele><time>2021-07-17T12:42:44Z</time><extensions><speed>0.000000</speed><course>251.986771</course><hAcc>0.979368</hAcc><vAcc>0.813618</vAcc></extensions></trkpt>
      <trkpt lon="-4.158497" lat="53.014646"><ele>634.203369</ele><time>2021-07-17T12:42:45Z</time><extensions><speed>0.000000</speed><course>207.637573</course><hAcc>0.941056</hAcc><vAcc>0.777760</vAcc></extensions></trkpt>
      <trkpt lon="-4.158497" lat="53.014646"><ele>634.203369</ele><time>2021-07-17T12:42:46Z</time><extensions><speed>0.000000</speed><course>199.781464</course><hAcc>0.921615</hAcc><vAcc>0.756564</vAcc></extensions></trkpt>
      <trkpt lon="-4.158497" lat="53.014646"><ele>634.203369</ele><time>2021-07-17T12:42:47Z</time><extensions><speed>0.000000</speed><course>204.898392</course><hAcc>0.913800</hAcc><vAcc>0.746427</vAcc></extensions></trkpt>
      <trkpt lon="-4.158497" lat="53.014646"><ele>634.203369</ele><time>2021-07-17T12:42:48Z</time><extensions><speed>0.000000</speed><course>218.988647</course><hAcc>0.912138</hAcc><vAcc>0.743004</vAcc></extensions></trkpt>
      <trkpt lon="-4.158497" lat="53.014646"><ele>634.203369</ele><time>2021-07-17T12:42:49Z</time><extensions><speed>0.000000</speed><course>240.875916</course><hAcc>0.913138</hAcc><vAcc>0.743159</vAcc></extensions></trkpt>
      <trkpt lon="-4.158497" lat="53.014646"><ele>634.203369</ele><time>2021-07-17T12:42:50Z</time><extensions><speed>0.000000</speed><course>240.875916</course><hAcc>0.914853</hAcc><vAcc>0.744856</vAcc></extensions></trkpt>
      <trkpt lon="-4.158497" lat="53.014646"><ele>634.203369</ele><time>2021-07-17T12:42:51Z</time><extensions><speed>0.000000</speed><course>240.875916</course><hAcc>0.916369</hAcc><vAcc>0.746906</vAcc></extensions></trkpt>
      <trkpt lon="-4.158497" lat="53.014646"><ele>634.203369</ele><time>2021-07-17T12:42:52Z</time><extensions><speed>0.000000</speed><course>240.875916</course><hAcc>0.917391</hAcc><vAcc>0.748699</vAcc></extensions></trkpt>
      <trkpt lon="-4.158497" lat="53.014646"><ele>634.203369</ele><time>2021-07-17T12:42:53Z</time><extensions><speed>0.000000</speed><course>240.875916</course><hAcc>0.917936</hAcc><vAcc>0.749976</vAcc></extensions></trkpt>
      <trkpt lon="-4.158497" lat="53.014646"><ele>634.203369</ele><time>2021-07-17T12:42:54Z</time><extensions><speed>0.000000</speed><course>240.875916</course><hAcc>0.918129</hAcc><vAcc>0.750661</vAcc></extensions></trkpt>
      <trkpt lon="-4.158497" lat="53.014646"><ele>634.203369</ele><time>2021-07-17T12:42:55Z</time><extensions><speed>0.000000</speed><course>269.430084</course><hAcc>0.918082</hAcc><vAcc>0.750756</vAcc></extensions></trkpt>
      <trkpt lon="-4.158497" lat="53.014646"><ele>634.203369</ele><time>2021-07-17T12:42:56Z</time><extensions><speed>0.000000</speed><course>274.056000</course><hAcc>0.917836</hAcc><vAcc>0.750288</vAcc></extensions></trkpt>
      <trkpt lon="-4.158497" lat="53.014646"><ele>634.203369</ele><time>2021-07-17T12:42:57Z</time><extensions><speed>0.000000</speed><course>273.580658</course><hAcc>0.917362</hAcc><vAcc>0.749304</vAcc></extensions></trkpt>
      <trkpt lon="-4.158497" lat="53.014646"><ele>634.203369</ele><time>2021-07-17T12:42:58Z</time><extensions><speed>0.000000</speed><course>266.285736</course><hAcc>0.916605</hAcc><vAcc>0.747913</vAcc></extensions></trkpt>
      <trkpt lon="-4.158497" lat="53.014646"><ele>634.203369</ele><time>2021-07-17T12:42:59Z</time><extensions><speed>0.000000</speed><course>280.416809</course><hAcc>0.915594</hAcc><vAcc>0.746384</vAcc></extensions></trkpt>
      <trkpt lon="-4.158497" lat="53.014646"><ele>634.203369</ele><time>2021-07-17T12:43:00Z</time><extensions><speed>0.000000</speed><course>289.633057</course><hAcc>0.914625</hAcc><vAcc>0.745287</vAcc></extensions></trkpt>
      <trkpt lon="-4.158497" lat="53.014646"><ele>634.203369</ele><time>2021-07-17T12:43:01Z</time><extensions><speed>0.000000</speed><course>274.042023</course><hAcc>0.914525</hAcc><vAcc>0.745697</vAcc></extensions></trkpt>
      <trkpt lon="-4.158497" lat="53.014646"><ele>634.203369</ele><time>2021-07-17T12:43:02Z</time><extensions><speed>0.000000</speed><course>259.398621</course><hAcc>0.917019</hAcc><vAcc>0.749434</vAcc></extensions></trkpt>
      <trkpt lon="-4.158497" lat="53.014646"><ele>634.203369</ele><time>2021-07-17T12:43:03Z</time><extensions><speed>0.000000</speed><course>235.228027</course><hAcc>0.925167</hAcc><vAcc>0.759297</vAcc></extensions></trkpt>
      <trkpt lon="-4.158497" lat="53.014646"><ele>634.203369</ele><time>2021-07-17T12:43:04Z</time><extensions><speed>0.000000</speed><course>233.943741</course><hAcc>0.943767</hAcc><vAcc>0.779184</vAcc></extensions></trkpt>
      <trkpt lon="-4.158497" lat="53.014646"><ele>634.203369</ele><time>2021-07-17T12:43:05Z</time><extensions><speed>0.000000</speed><course>251.986771</course><hAcc>0.979469</hAcc><vAcc>0.813931</vAcc></extensions></trkpt>
      <trkpt lon="-4.158497" lat="53.014646"><ele>634.203369</ele><time>2021-07-17T12:43:06Z</time><extensions><speed>0.000000</speed><course>207.637573</course><hAcc>0.941228</hAcc><vAcc>0.778272</vAcc></extensions></trkpt>
      <trkpt lon="-4.158497" lat="53.014646"><ele>634.203369</ele><time>2021-07-17T12:43:07Z</time><extensions><speed>0.000000</speed><course>199.781464</course><hAcc>0.921809</hAcc><vAcc>0.757151</vAcc></extensions></trkpt>
      <trkpt lon="-4.158497" lat="53.014646"><ele>634.203369</ele><time>2021-07-17T12:43:08Z</time><extensions><speed>0.000000</speed><course>204.898392</course><hAcc>0.914018</hAcc><vAcc>0.747088</vAcc></extensions></trkpt>
      <trkpt lon="-4.158497" lat="53.014646"><ele>634.203369</ele><time>2021-07-17T12:43:09Z</time><extensions><speed>0.000000</speed><course>218.988647</course><hAcc>0.912381</hAcc><vAcc>0.743744</vAcc></extensions></trkpt>
      <trkpt lon="-4.158497" lat="53.014646"><ele>634.203369</ele><time>2021-07-17T12:43:10Z</time><extensions><speed>0.000000</speed><course>240.875916</course><hAcc>0.913408</hAcc><vAcc>0.743981</vAcc></extensions></trkpt>
      <trkpt lon="-4.158497" lat="53.014646"><ele>634.203369</ele><time>2021-07-17T12:43:11Z</time><extensions><speed>0.000000</speed><course>240.875916</course><hAcc>0.915150</hAcc><vAcc>0.745763</vAcc></extensions></trkpt>
      <trkpt lon="-4.158497" lat="53.014646"><ele>634.203369</ele><time>2021-07-17T12:43:12Z</time><extensions><speed>0.000000</speed><course>240.875916</course><hAcc>0.916693</hAcc><vAcc>0.747900</vAcc></extensions></trkpt>
      <trkpt lon="-4.158497" lat="53.014646"><ele>634.203369</ele><time>2021-07-17T12:43:13Z</time><extensions><speed>0.000000</speed><course>240.875916</course><hAcc>0.917742</hAcc><vAcc>0.749777</vAcc></extensions></trkpt>
      <trkpt lon="-4.158497" lat="53.014646"><ele>634.203369</ele><time>2021-07-17T12:43:14Z</time><extensions><speed>0.000000</speed><course>240.875916</course><hAcc>0.918311</hAcc><vAcc>0.751132</vAcc></extensions></trkpt>
      <trkpt lon="-4.158497" lat="53.014646"><ele>634.203369</ele><time>2021-07-17T12:43:15Z</time><extensions><speed>0.000000</speed><course>240.875916</course><hAcc>0.918525</hAcc><vAcc>0.751889</vAcc></extensions></trkpt>
      <trkpt lon="-4.158497" lat="53.014646"><ele>634.203369</ele><time>2021-07-17T12:43:16Z</time><extensions><speed>0.000000</speed><course>269.430084</course><hAcc>0.918493</hAcc><vAcc>0.752047</vAcc></extensions></trkpt>
      <trkpt lon="-4.158497" lat="53.014646"><ele>634.203369</ele><time>2021-07-17T12:43:17Z</time><extensions><speed>0.000000</speed><course>274.056000</course><hAcc>0.918259</hAcc><vAcc>0.751632</vAcc></extensions></trkpt>
      <trkpt lon="-4.158497" lat="53.014646"><ele>634.203369</ele><time>2021-07-17T12:43:18Z</time><extensions><speed>0.000000</speed><course>273.580658</course><hAcc>0.917791</hAcc><vAcc>0.750687</vAcc></extensions></trkpt>
      <trkpt lon="-4.158497" lat="53.014646"><ele>634.203369</ele><time>2021-07-17T12:43:19Z</time><extensions><speed>0.000000</speed><course>266.285736</course><hAcc>0.917036</hAcc><vAcc>0.749321</vAcc></extensions></trkpt>
      <trkpt lon="-4.158497" lat="53.014646"><ele>634.203369</ele><time>2021-07-17T12:43:20Z</time><extensions><speed>0.000000</speed><course>280.416809</course><hAcc>0.916026</hAcc><vAcc>0.747801</vAcc></extensions></trkpt>
      <trkpt lon="-4.158497" lat="53.014646"><ele>634.203369</ele><time>2021-07-17T12:43:21Z</time><extensions><speed>0.000000</speed><course>289.633057</course><hAcc>0.915058</hAcc><vAcc>0.746698</vAcc></extensions></trkpt>
      <trkpt lon="-4.158497" lat="53.014646"><ele>634.203369</ele><time>2021-07-17T12:43:22Z</time><extensions><speed>0.000000</speed><course>274.042023</course><hAcc>0.914961</hAcc><vAcc>0.747092</vAcc></extensions></trkpt>
      <trkpt lon="-4.158497" lat="53.014646"><ele>634.203369</ele><time>2021-07-17T12:43:23Z</time><extensions><speed>0.000000</speed><course>259.398621</course><hAcc>0.917462</hAcc><vAcc>0.750810</vAcc></extensions></trkpt>
      <trkpt lon="-4.158497" lat="53.014646"><ele>634.203369</ele><time>2021-07-17T12:43:24Z</time><extensions><speed>0.000000</speed><course>235.228027</course><hAcc>0.925622</hAcc><vAcc>0.760661</vAcc></extensions></trkpt>
      <trkpt lon="-4.158497" lat="53.014646"><ele>634.203369</ele><time>2021-07-17T12:43:25Z</time><extensions><speed>0.000000</speed><course>233.943741</course><hAcc>0.944240</hAcc><vAcc>0.780546</vAcc></extensions></trkpt>
      <trkpt lon="-4.158497" lat="53.014646"><ele>634.203369</ele><time>2021-07-17T12:43:26Z</time><extensions><speed>0.000000</speed><course>251.986771</course><hAcc>0.979961</hAcc><vAcc>0.815304</vAcc></extensions></trkpt>
      <trkpt lon="-4.158497" lat="53.014646"><ele>634.203369</ele><time>2021-07-17T12:43:27Z</time><extensions><speed>0.000000</speed><course>207.637573</course><hAcc>0.941714</hAcc><vAcc>0.779579</vAcc></extensions></trkpt>
      <trkpt lon="-4.158497" lat="53.014646"><ele>634.203369</ele><time>2021-07-17T12:43:28Z</time><extensions><speed>0.000000</speed><course>199.781464</course><hAcc>0.922223</hAcc><vAcc>0.758272</vAcc></extensions></trkpt>
      <trkpt lon="-4.158497" lat="53.014646"><ele>634.203369</ele><time>2021-07-17T12:43:29Z</time><extensions><speed>0.000000</speed><course>204.898392</course><hAcc>0.914372</hAcc><vAcc>0.748062</vAcc></extensions></trkpt>
      <trkpt lon="-4.158497" lat="53.014646"><ele>634.203369</ele><time>2021-07-17T12:43:30Z</time><extensions><speed>0.000000</speed><course>218.988647</course><hAcc>0.912690</hAcc><vAcc>0.744607</vAcc></extensions></trkpt>
      <trkpt lon="-4.158497" lat="53.014646"><ele>634.203369</ele><time>2021-07-17T12:43:31Z</time><extensions><speed>0.000000</speed><course>240.875916</course><hAcc>0.913685</hAcc><vAcc>0.744764</vAcc></extensions></trkpt>
      <trkpt lon="-4.158497" lat="53.014646"><ele>634.203369</ele><time>2021-07-17T12:43:32Z</time><extensions><speed>0.000000</speed><course>240.875916</course><hAcc>0.915407</hAcc><vAcc>0.746487</vAcc></extensions></trkpt>
      <trkpt lon="-4.158497" lat="53.014646"><ele>634.203369</ele><time>2021-07-17T12:43:33Z</time><extensions><speed>0.000000</speed><course>240.875916</course><hAcc>0.916938</hAcc><vAcc>0.748575</vAcc></extensions></trkpt>
      <trkpt lon="-4.158497" lat="53.014646"><ele>634.203369</ele><time>2021-07-17T12:43:34Z</time><extensions><speed>0.000000</speed><course>240.875916</course><hAcc>0.917964</hAcc><vAcc>0.750394</vAcc></extensions></trkpt>
      <trkpt lon="-4.158497" lat="53.014646"><ele>634.203369</ele><time>2021-07-17T12:43:35Z</time><extensions><speed>0.000000</speed><course>240.875916</course><hAcc>0.918494</hAcc><vAcc>0.751668</vAcc></extensions></trkpt>
      <trkpt lon="-4.158497" lat="53.014646"><ele>634.203369</ele><time>2021-07-17T12:43:36Z</time><extensions><speed>0.000000</speed><course>240.875916</course><hAcc>0.918671</hAcc><vAcc>0.752332</vAcc></extensions></trkpt>
      <trkpt lon="-4.158497" lat="53.014646"><ele>634.203369</ele><time>2021-07-17T12:43:37Z</time><extensions><speed>0.000000</speed><course>269.430084</course><hAcc>0.918605</hAcc><vAcc>0.752384</vAcc></extensions></trkpt>
      <trkpt lon="-4.158497" lat="53.014646"><ele>634.203369</ele><time>2021-07-17T12:43:38Z</time><extensions><speed>0.000000</speed><course>274.056000</course><hAcc>0.918338</hAcc><vAcc>0.751851</vAcc></extensions></trkpt>
      <trkpt lon="-4.158497" lat="53.014646"><ele>634.203369</ele><time>2021-07-17T12:43:39Z</time><extensions><speed>0.000000</speed><course>273.580658</course><hAcc>0.917839</hAcc><vAcc>0.750785</vAcc></extensions></trkpt>
      <trkpt lon="-4.158497" lat="53.014646"><ele>634.203369</ele><time>2021-07-17T12:43:40Z</time><extensions><speed>0.000000</speed><course>266.285736</course><hAcc>0.917058</hAcc><vAcc>0.749302</vAcc></extensions></trkpt>
      <trkpt lon="-4.158497" lat="53.014646"><ele>634.203369</ele><time>2021-07-17T12:43:41Z</time><extensions><speed>0.000000</speed><course>280.416809</course><hAcc>0.916027</hAcc><vAcc>0.747682</vAcc></extensions></trkpt>
      <trkpt lon="-4.158497" lat="53.014646"><ele>634.203369</ele><time>2021-07-17T12:43:42Z</time><extensions><speed>0.000000</speed><course>289.633057</course><hAcc>0.915046</hAcc><vAcc>0.746511</vAcc></extensions></trkpt>
      <trkpt lon="-4.158497" lat="53.014646"><ele>634.203369</ele><time>2021-07-17T12:43:43Z</time><extensions><speed>0.000000</speed><course>274.042023</course><hAcc>0.914945</hAcc><vAcc>0.746879</vAcc></extensions></trkpt>
      <trkpt lon="-4.158497" lat="53.014646"><ele>634.203369</ele><time>2021-07-17T12:43:44Z</time><extensions><speed>0.000000</speed><course>259.398621</course><hAcc>0.917454</hAcc><vAcc>0.750622</vAcc></extensions></trkpt>
      <trkpt lon="-4.158497" lat="53.014646"><ele>634.203369</ele><time>2021-07-17T12:43:45Z</time><extensions><speed>0.000000</speed><course>235.228027</course><hAcc>0.925636</hAcc><vAcc>0.760553</vAcc></extensions></trkpt>
      <trkpt lon="-4.158497" lat="53.014646"><ele>634.203369</ele><time>2021-07-17T12:43:46Z</time><extensions><speed>0.000000</speed><course>233.943741</course><hAcc>0.944287</hAcc><vAcc>0.780571</vAcc></extensions></trkpt>
      <trkpt lon="-4.158497" lat="53.014646"><ele>634.203369</ele><time>2021-07-17T12:43:47Z</time><extensions><speed>0.000000</speed><course>251.986771</course><hAcc>0.980056</hAcc><vAcc>0.815506</vAcc></extensions></trkpt>
      <trkpt lon="-4.158497" lat="53.014646"><ele>634.203369</ele><time>2021-07-17T12:43:48Z</time><extensions><speed>0.000000</speed><course>207.637573</course><hAcc>0.941585</hAcc><vAcc>0.779399</vAcc></extensions></trkpt>
      <trkpt lon="-4.158497" lat="53.014646"><ele>634.203369</ele><time>2021-07-17T12:43:49Z</time><extensions><speed>0.000000</speed><course>199.781464</course><hAcc>0.922143</hAcc><vAcc>0.758287</vAcc></extensions></trkpt>
      <trkpt lon="-4.158497" lat="53.014646"><ele>634.203369</ele><time>2021-07-17T12:43:50Z</time><extensions><speed>0.000000</speed><course>204.898392</course><hAcc>0.914321</hAcc><vAcc>0.748210</vAcc></extensions></trkpt>
      <trkpt lon="-4.158497" lat="53.014646"><ele>634.203369</ele><time>2021-07-17T12:43:51Z</time><extensions><speed>0.000000</speed><course>218.988647</course><hAcc>0.912648</hAcc><vAcc>0.744827</vAcc></extensions></trkpt>
      <trkpt lon="-4.158497" lat="53.014646"><ele>634.203369</ele><time>2021-07-17T12:43:52Z</time><extensions><speed>0.000000</speed><course>240.875916</course><hAcc>0.913631</hAcc><vAcc>0.745000</vAcc></extensions></trkpt>
      <trkpt lon="-4.158497" lat="53.014646"><ele>634.203369</ele><time>2021-07-17T12:43:52Z</time><extensions><speed>0.000000</speed><course>240.875916</course><hAcc>0.915353</hAcc><vAcc>0.746714</vAcc></extensions></trkpt>
      <trkpt lon="-4.158497" lat="53.014646"><ele>634.203369</ele><time>2021-07-17T12:43:53Z</time><extensions><speed>0.000000</speed><course>240.875916</course><hAcc>0.916911</hAcc><vAcc>0.748789</vAcc></extensions></trkpt>
      <trkpt lon="-4.158497" lat="53.014646"><ele>634.203369</ele><time>2021-07-17T12:43:55Z</time><extensions><speed>0.000000</speed><course>240.875916</course><hAcc>0.917947</hAcc><vAcc>0.750570</vAcc></extensions></trkpt>
      <trkpt lon="-4.158497" lat="53.014646"><ele>634.203369</ele><time>2021-07-17T12:43:56Z</time><extensions><speed>0.000000</speed><course>240.875916</course><hAcc>0.918477</hAcc><vAcc>0.751794</vAcc></extensions></trkpt>
      <trkpt lon="-4.158497" lat="53.014646"><ele>634.203369</ele><time>2021-07-17T12:43:57Z</time><extensions><speed>0.000000</speed><course>240.875916</course><hAcc>0.918643</hAcc><vAcc>0.752398</vAcc></extensions></trkpt>
      <trkpt lon="-4.158497" lat="53.014646"><ele>634.203369</ele><time>2021-07-17T12:43:58Z</time><extensions><speed>0.000000</speed><course>269.430084</course><hAcc>0.918556</hAcc><vAcc>0.752389</vAcc></extensions></trkpt>
      <trkpt lon="-4.158497" lat="53.014646"><ele>634.203369</ele><time>2021-07-17T12:43:58Z</time><extensions><speed>0.000000</speed><course>274.056000</course><hAcc>0.918279</hAcc><vAcc>0.751808</vAcc></extensions></trkpt>
      <trkpt lon="-4.158497" lat="53.014646"><ele>634.203369</ele><time>2021-07-17T12:43:59Z</time><extensions><speed>0.000000</speed><course>273.580658</course><hAcc>0.917782</hAcc><vAcc>0.750707</vAcc></extensions></trkpt>
      <trkpt lon="-4.158497" lat="53.014646"><ele>634.203369</ele><time>2021-07-17T12:44:00Z</time><extensions><speed>0.000000</speed><course>266.285736</course><hAcc>0.916997</hAcc><vAcc>0.749192</vAcc></extensions></trkpt>
      <trkpt lon="-4.158497" lat="53.014646"><ele>634.203369</ele><time>2021-07-17T12:44:01Z</time><extensions><speed>0.000000</speed><course>280.416809</course><hAcc>0.915959</hAcc><vAcc>0.747537</vAcc></extensions></trkpt>
      <trkpt lon="-4.158497" lat="53.014646"><ele>634.203369</ele><time>2021-07-17T12:44:02Z</time><extensions><speed>0.000000</speed><course>289.633057</course><hAcc>0.914967</hAcc><vAcc>0.746327</vAcc></extensions></trkpt>
      <trkpt lon="-4.158497" lat="53.014646"><ele>634.203369</ele><time>2021-07-17T12:44:03Z</time><extensions><speed>0.000000</speed><course>274.042023</course><hAcc>0.914852</hAcc><vAcc>0.746648</vAcc></extensions></trkpt>
      <trkpt lon="-4.158497" lat="53.014646"><ele>634.203369</ele><time>2021-07-17T12:44:04Z</time><extensions><speed>0.000000</speed><course>259.398621</course><hAcc>0.917346</hAcc><vAcc>0.750336</vAcc></extensions></trkpt>
      <trkpt lon="-4.158497" lat="53.014646"><ele>634.203369</ele><time>2021-07-17T12:44:05Z</time><extensions><speed>0.000000</speed><course>235.228027</course><hAcc>0.925510</hAcc><vAcc>0.760206</vAcc></extensions></trkpt>
      <trkpt lon="-4.158497" lat="53.014646"><ele>634.203369</ele><time>2021-07-17T12:44:06Z</time><extensions><speed>0.000000</speed><course>233.943741</course><hAcc>0.944145</hAcc><vAcc>0.780164</vAcc></extensions></trkpt>
      <trkpt lon="-4.158497" lat="53.014646"><ele>634.203369</ele><time>2021-07-17T12:44:07Z</time><extensions><speed>0.000000</speed><course>251.986771</course><hAcc>0.979896</hAcc><vAcc>0.815045</vAcc></extensions></trkpt>
      <trkpt lon="-4.158497" lat="53.014646"><ele>634.203369</ele><time>2021-07-17T12:44:08Z</time><extensions><speed>0.000000</speed><course>207.637573</course><hAcc>0.941487</hAcc><vAcc>0.779024</vAcc></extensions></trkpt>
      <trkpt lon="-4.158497" lat="53.014646"><ele>634.203369</ele><time>2021-07-17T12:44:09Z</time><extensions><speed>0.000000</speed><course>199.781464</course><hAcc>0.922075</hAcc><vAcc>0.757967</vAcc></extensions></trkpt>
      <trkpt lon="-4.158497" lat="53.014646"><ele>634.203369</ele><time>2021-07-17T12:44:10Z</time><extensions><speed>0.000000</speed><course>204.898392</course><hAcc>0.914290</hAcc><vAcc>0.747964</vAcc></extensions></trkpt>
      <trkpt lon="-4.158497" lat="53.014646"><ele>634.203369</ele><time>2021-07-17T12:44:11Z</time><extensions><speed>0.000000</speed><course>218.988647</course><hAcc>0.912657</hAcc><vAcc>0.744665</vAcc></extensions></trkpt>
      <trkpt lon="-4.158497" lat="53.014646"><ele>634.203369</ele><time>2021-07-17T12:44:12Z</time><extensions><speed>0.000000</speed><course>240.875916</course><hAcc>0.913687</hAcc><vAcc>0.744928</vAcc></extensions></trkpt>
      <trkpt lon="-4.158497" lat="53.014646"><ele>634.203369</ele><time>2021-07-17T12:44:13Z</time><extensions><speed>0.000000</speed><course>240.875916</course><hAcc>0.915430</hAcc><vAcc>0.746715</vAcc></extensions></trkpt>
      <trkpt lon="-4.158497" lat="53.014646"><ele>634.203369</ele><time>2021-07-17T12:44:14Z</time><extensions><speed>0.000000</speed><course>240.875916</course><hAcc>0.916970</hAcc><vAcc>0.748831</vAcc></extensions></trkpt>
      <trkpt lon="-4.158497" lat="53.014646"><ele>634.203369</ele><time>2021-07-17T12:44:15Z</time><extensions><speed>0.000000</speed><course>240.875916</course><hAcc>0.918011</hAcc><vAcc>0.750664</vAcc></extensions></trkpt>
      <trkpt lon="-4.158497" lat="53.014646"><ele>634.203369</ele><time>2021-07-17T12:44:16Z</time><extensions><speed>0.000000</speed><course>240.875916</course><hAcc>0.918568</hAcc><vAcc>0.751952</vAcc></extensions></trkpt>
      <trkpt lon="-4.158497" lat="53.014646"><ele>634.203369</ele><time>2021-07-17T12:44:17Z</time><extensions><speed>0.000000</speed><course>240.875916</course><hAcc>0.918764</hAcc><vAcc>0.752617</vAcc></extensions></trkpt>
      <trkpt lon="-4.158497" lat="53.014646"><ele>634.203369</ele><time>2021-07-17T12:44:18Z</time><extensions><speed>0.000000</speed><course>269.430084</course><hAcc>0.918714</hAcc><vAcc>0.752665</vAcc></extensions></trkpt>
      <trkpt lon="-4.158497" lat="53.014646"><ele>634.203369</ele><time>2021-07-17T12:44:19Z</time><extensions><speed>0.000000</speed><course>274.056000</course><hAcc>0.918460</hAcc><vAcc>0.752125</vAcc></extensions></trkpt>
      <trkpt lon="-4.158497" lat="53.014646"><ele>634.203369</ele><time>2021-07-17T12:44:21Z</time><extensions><speed>0.000000</speed><course>273.580658</course><hAcc>0.917954</hAcc><vAcc>0.751034</vAcc></extensions></trkpt>
      <trkpt lon="-4.158497" lat="53.014646"><ele>634.203369</ele><time>2021-07-17T12:44:22Z</time><extensions><speed>0.000000</speed><course>266.285736</course><hAcc>0.917146</hAcc><vAcc>0.749510</vAcc></extensions></trkpt>
      <trkpt lon="-4.158497" lat="53.014646"><ele>634.203369</ele><time>2021-07-17T12:44:23Z</time><extensions><speed>0.000000</speed><course>280.416809</course><hAcc>0.916085</hAcc><vAcc>0.747837</vAcc></extensions></trkpt>
      <trkpt lon="-4.158497" lat="53.014646"><ele>634.203369</ele><time>2021-07-17T12:44:24Z</time><extensions><speed>0.000000</speed><course>289.633057</course><hAcc>0.915069</hAcc><vAcc>0.746593</vAcc></extensions></trkpt>
      <trkpt lon="-4.158497" lat="53.014646"><ele>634.203369</ele><time>2021-07-17T12:44:25Z</time><extensions><speed>0.000000</speed><course>274.042023</course><hAcc>0.914928</hAcc><vAcc>0.746862</vAcc></extensions></trkpt>
      <trkpt lon="-4.158497" lat="53.014646"><ele>634.203369</ele><time>2021-07-17T12:44:26Z</time><extensions><speed>0.000000</speed><course>259.398621</course><hAcc>0.917387</hAcc><vAcc>0.750475</vAcc></extensions></trkpt>
      <trkpt lon="-4.158497" lat="53.014646"><ele>634.203369</ele><time>2021-07-17T12:44:27Z</time><extensions><speed>0.000000</speed><course>235.228027</course><hAcc>0.925509</hAcc><vAcc>0.760241</vAcc></extensions></trkpt>
      <trkpt lon="-4.158497" lat="53.014646"><ele>634.203369</ele><time>2021-07-17T12:44:28Z</time><extensions><speed>0.000000</speed><course>233.943741</course><hAcc>0.944093</hAcc><vAcc>0.780064</vAcc></extensions></trkpt>
      <trkpt lon="-4.158497" lat="53.014646"><ele>634.203369</ele><time>2021-07-17T12:44:29Z</time><extensions><speed>0.000000</speed><course>251.986771</course><hAcc>0.979788</hAcc><vAcc>0.814780</vAcc></extensions></trkpt>
      <trkpt lon="-4.158497" lat="53.014646"><ele>634.203369</ele><time>2021-07-17T12:44:30Z</time><extensions><speed>0.000000</speed><course>207.637573</course><hAcc>0.941509</hAcc><vAcc>0.779033</vAcc></extensions></trkpt>
      <trkpt lon="-4.158497" lat="53.014646"><ele>634.203369</ele><time>2021-07-17T12:44:31Z</time><extensions><speed>0.000000</speed><course>199.781464</course><hAcc>0.922065</hAcc><vAcc>0.757865</vAcc></extensions></trkpt>
      <trkpt lon="-4.158497" lat="53.014646"><ele>634.203369</ele><time>2021-07-17T12:44:32Z</time><extensions><speed>0.000000</speed><course>204.898392</course><hAcc>0.914255</hAcc><vAcc>0.747779</vAcc></extensions></trkpt>
      <trkpt lon="-4.158497" lat="53.014646"><ele>634.203369</ele><time>2021-07-17T12:44:33Z</time><extensions><speed>0.000000</speed><course>218.988647</course><hAcc>0.912607</hAcc><vAcc>0.744431</vAcc></extensions></trkpt>
      <trkpt lon="-4.158497" lat="53.014646"><ele>634.203369</ele><time>2021-07-17T12:44:34Z</time><extensions><speed>0.000000</speed><course>240.875916</course><hAcc>0.913628</hAcc><vAcc>0.744678</vAcc></extensions></trkpt>
      <trkpt lon="-4.158497" lat="53.014646"><ele>634.203369</ele><time>2021-07-17T12:44:35Z</time><extensions><speed>0.000000</speed><course>240.875916</course><hAcc>0.915366</hAcc><vAcc>0.746475</vAcc></extensions></trkpt>
      <trkpt lon="-4.158497" lat="53.014646"><ele>634.203369</ele><time>2021-07-17T12:44:36Z</time><extensions><speed>0.000000</speed><course>240.875916</course><hAcc>0.916907</hAcc><vAcc>0.748623</vAcc></extensions></trkpt>
      <trkpt lon="-4.158497" lat="53.014646"><ele>634.203369</ele><time>2021-07-17T12:44:37Z</time><extensions><speed>0.000000</speed><course>240.875916</course><hAcc>0.917951</hAcc><vAcc>0.750500</vAcc></extensions></trkpt>
      <trkpt lon="-4.158497" lat="53.014646"><ele>634.203369</ele><time>2021-07-17T12:44:38Z</time><extensions><speed>0.000000</speed><course>240.875916</course><hAcc>0.918513</hAcc><vAcc>0.751835</vAcc></extensions></trkpt>
      <trkpt lon="-4.158497" lat="53.014646"><ele>634.203369</ele><time>2021-07-17T12:44:39Z</time><extensions><speed>0.000000</speed><course>240.875916</course><hAcc>0.918715</hAcc><vAcc>0.752547</vAcc></extensions></trkpt>
      <trkpt lon="-4.158497" lat="53.014646"><ele>634.203369</ele><time>2021-07-17T12:44:40Z</time><extensions><speed>0.000000</speed><course>269.430084</course><hAcc>0.918668</hAcc><vAcc>0.752637</vAcc></extensions></trkpt>
      <trkpt lon="-4.158497" lat="53.014646"><ele>634.203369</ele><time>2021-07-17T12:44:41Z</time><extensions><speed>0.000000</speed><course>274.056000</course><hAcc>0.918413</hAcc><vAcc>0.752134</vAcc></extensions></trkpt>
      <trkpt lon="-4.158497" lat="53.014646"><ele>634.203369</ele><time>2021-07-17T12:44:42Z</time><extensions><speed>0.000000</speed><course>273.580658</course><hAcc>0.917919</hAcc><vAcc>0.751087</vAcc></extensions></trkpt>
      <trkpt lon="-4.158497" lat="53.014646"><ele>634.203369</ele><time>2021-07-17T12:44:43Z</time><extensions><speed>0.000000</speed><course>266.285736</course><hAcc>0.917135</hAcc><vAcc>0.749611</vAcc></extensions></trkpt>
      <trkpt lon="-4.158497" lat="53.014646"><ele>634.203369</ele><time>2021-07-17T12:44:44Z</time><extensions><speed>0.000000</speed><course>280.416809</course><hAcc>0.916094</hAcc><vAcc>0.747976</vAcc></extensions></trkpt>
      <trkpt lon="-4.158497" lat="53.014646"><ele>634.203369</ele><time>2021-07-17T12:44:45Z</time><extensions><speed>0.000000</speed><course>289.633057</course><hAcc>0.915093</hAcc><vAcc>0.746761</vAcc></extensions></trkpt>
      <trkpt lon="-4.158497" lat="53.014646"><ele>634.203369</ele><time>2021-07-17T12:44:46Z</time><extensions><speed>0.000000</speed><course>274.042023</course><hAcc>0.914963</hAcc><vAcc>0.747047</vAcc></extensions></trkpt>
      <trkpt lon="-4.158497" lat="53.014646"><ele>634.203369</ele><time>2021-07-17T12:44:47Z</time><extensions><speed>0.000000</speed><course>259.398621</course><hAcc>0.917432</hAcc><vAcc>0.750668</vAcc></extensions></trkpt>
      <trkpt lon="-4.158497" lat="53.014646"><ele>634.203369</ele><time>2021-07-17T12:44:48Z</time><extensions><speed>0.000000</speed><course>235.228027</course><hAcc>0.925563</hAcc><vAcc>0.760434</vAcc></extensions></trkpt>
      <trkpt lon="-4.158497" lat="53.014646"><ele>634.203369</ele><time>2021-07-17T12:44:49Z</time><extensions><speed>0.000000</speed><course>233.943741</course><hAcc>0.944155</hAcc><vAcc>0.780253</vAcc></extensions></trkpt>
      <trkpt lon="-4.158497" lat="53.014646"><ele>634.203369</ele><time>2021-07-17T12:44:50Z</time><extensions><speed>0.000000</speed><course>251.986771</course><hAcc>0.979856</hAcc><vAcc>0.814968</vAcc></extensions></trkpt>
      <trkpt lon="-4.158497" lat="53.014646"><ele>634.203369</ele><time>2021-07-17T12:44:51Z</time><extensions><speed>0.000000</speed><course>207.637573</course><hAcc>0.941535</hAcc><vAcc>0.779095</vAcc></extensions></trkpt>
      <trkpt lon="-4.158497" lat="53.014646"><ele>634.203369</ele><time>2021-07-17T12:44:52Z</time><extensions><speed>0.000000</speed><course>199.781464</course><hAcc>0.922062</hAcc><vAcc>0.757840</vAcc></extensions></trkpt>
      <trkpt lon="-4.158497" lat="53.014646"><ele>634.203369</ele><time>2021-07-17T12:44:53Z</time><extensions><speed>0.000000</speed><course>204.898392</course><hAcc>0.914227</hAcc><vAcc>0.747674</vAcc></extensions></trkpt>
      <trkpt lon="-4.158497" lat="53.014646"><ele>634.203369</ele><time>2021-07-17T12:44:54Z</time><extensions><speed>0.000000</speed><course>218.988647</course><hAcc>0.912557</hAcc><vAcc>0.744253</vAcc></extensions></trkpt>
      <trkpt lon="-4.158497" lat="53.014646"><ele>634.203369</ele><time>2021-07-17T12:44:55Z</time><extensions><speed>0.000000</speed><course>240.875916</course><hAcc>0.913562</hAcc><vAcc>0.744435</vAcc></extensions></trkpt>
      <trkpt lon="-4.158497" lat="53.014646"><ele>634.203369</ele><time>2021-07-17T12:44:56Z</time><extensions><speed>0.000000</speed><course>240.875916</course><hAcc>0.915289</hAcc><vAcc>0.746180</vAcc></extensions></trkpt>
      <trkpt lon="-4.158497" lat="53.014646"><ele>634.203369</ele><time>2021-07-17T12:44:57Z</time><extensions><speed>0.000000</speed><course>240.875916</course><hAcc>0.916823</hAcc><vAcc>0.748293</vAcc></extensions></trkpt>
      <trkpt lon="-4.158497" lat="53.014646"><ele>634.203369</ele><time>2021-07-17T12:44:58Z</time><extensions><speed>0.000000</speed><course>240.875916</course><hAcc>0.917866</hAcc><vAcc>0.750158</vAcc></extensions></trkpt>
      <trkpt lon="-4.158497" lat="53.014646"><ele>634.203369</ele><time>2021-07-17T12:44:59Z</time><extensions><speed>0.000000</speed><course>240.875916</course><hAcc>0.918430</hAcc><vAcc>0.751507</vAcc></extensions></trkpt>
      <trkpt lon="-4.158497" lat="53.014646"><ele>634.203369</ele><time>2021-07-17T12:45:00Z</time><extensions><speed>0.000000</speed><course>240.875916</course><hAcc>0.918638</hAcc><vAcc>0.752258</vAcc></extensions></trkpt>
      <trkpt lon="-4.158497" lat="53.014646"><ele>634.203369</ele><time>2021-07-17T12:45:01Z</time><extensions><speed>0.000000</speed><course>269.430084</course><hAcc>0.918600</hAcc><vAcc>0.752408</vAcc></extensions></trkpt>
      <trkpt lon="-4.158497" lat="53.014646"><ele>634.203369</ele><time>2021-07-17T12:45:02Z</time><extensions><speed>0.000000</speed><course>274.056000</course><hAcc>0.918359</hAcc><vAcc>0.751974</vAcc></extensions></trkpt>
      <trkpt lon="-4.158497" lat="53.014646"><ele>634.203369</ele><time>2021-07-17T12:45:03Z</time><extensions><speed>0.000000</speed><course>273.580658</course><hAcc>0.917883</hAcc><vAcc>0.751000</vAcc></extensions></trkpt>
      <trkpt lon="-4.158497" lat="53.014646"><ele>634.203369</ele><time>2021-07-17T12:45:04Z</time><extensions><speed>0.000000</speed><course>266.285736</course><hAcc>0.917122</hAcc><vAcc>0.749597</vAcc></extensions></trkpt>
      <trkpt lon="-4.158497" lat="53.014646"><ele>634.203369</ele><time>2021-07-17T12:45:05Z</time><extensions><speed>0.000000</speed><course>280.416809</course><hAcc>0.916106</hAcc><vAcc>0.748038</vAcc></extensions></trkpt>
      <trkpt lon="-4.158497" lat="53.014646"><ele>634.203369</ele><time>2021-07-17T12:45:06Z</time><extensions><speed>0.000000</speed><course>289.633057</course><hAcc>0.915136</hAcc><vAcc>0.746904</vAcc></extensions></trkpt>
      <trkpt lon="-4.158497" lat="53.014646"><ele>634.203369</ele><time>2021-07-17T12:45:07Z</time><extensions><speed>0.000000</speed><course>274.042023</course><hAcc>0.915043</hAcc><vAcc>0.747284</vAcc></extensions></trkpt>
      <trkpt lon="-4.158497" lat="53.014646"><ele>634.203369</ele><time>2021-07-17T12:45:08Z</time><extensions><speed>0.000000</speed><course>259.398621</course><hAcc>0.917554</hAcc><vAcc>0.751012</vAcc></extensions></trkpt>
      <trkpt lon="-4.158497" lat="53.014646"><ele>634.203369</ele><time>2021-07-17T12:45:09Z</time><extensions><speed>0.000000</speed><course>235.228027</course><hAcc>0.925733</hAcc><vAcc>0.760904</vAcc></extensions></trkpt>
      <trkpt lon="-4.158497" lat="53.014646"><ele>634.203369</ele><time>2021-07-17T12:45:10Z</time><extensions><speed>0.000000</speed><course>233.943741</course><hAcc>0.944379</hAcc><vAcc>0.780867</vAcc></extensions></trkpt>
      <trkpt lon="-4.158497" lat="53.014646"><ele>634.203369</ele><time>2021-07-17T12:45:11Z</time><extensions><speed>0.000000</speed><course>251.986771</course><hAcc>0.980136</hAcc><vAcc>0.815736</vAcc></extensions></trkpt>
      <trkpt lon="-4.158497" lat="53.014646"><ele>634.203369</ele><time>2021-07-17T12:45:12Z</time><extensions><speed>0.000000</speed><course>207.637573</course><hAcc>0.941759</hAcc><vAcc>0.779761</vAcc></extensions></trkpt>
      <trkpt lon="-4.158497" lat="53.014646"><ele>634.203369</ele><time>2021-07-17T12:45:13Z</time><extensions><speed>0.000000</speed><course>199.781464</course><hAcc>0.922269</hAcc><vAcc>0.758491</vAcc></extensions></trkpt>
      <trkpt lon="-4.158497" lat="53.014646"><ele>634.203369</ele><time>2021-07-17T12:45:14Z</time><extensions><speed>0.000000</speed><course>204.898392</course><hAcc>0.914414</hAcc><vAcc>0.748298</vAcc></extensions></trkpt>
      <trkpt lon="-4.158497" lat="53.014646"><ele>634.203369</ele><time>2021-07-17T12:45:15Z</time><extensions><speed>0.000000</speed><course>218.988647</course><hAcc>0.912723</hAcc><vAcc>0.744838</vAcc></extensions></trkpt>
      <trkpt lon="-4.158497" lat="53.014646"><ele>634.203369</ele><time>2021-07-17T12:45:16Z</time><extensions><speed>0.000000</speed><course>240.875916</course><hAcc>0.913705</hAcc><vAcc>0.744969</vAcc></extensions></trkpt>
      <trkpt lon="-4.158497" lat="53.014646"><ele>634.203369</ele><time>2021-07-17T12:45:17Z</time><extensions><speed>0.000000</speed><course>240.875916</course><hAcc>0.915409</hAcc><vAcc>0.746646</vAcc></extensions></trkpt>
      <trkpt lon="-4.158497" lat="53.014646"><ele>634.203369</ele><time>2021-07-17T12:45:18Z</time><extensions><speed>0.000000</speed><course>240.875916</course><hAcc>0.916919</hAcc><vAcc>0.748676</vAcc></extensions></trkpt>
      <trkpt lon="-4.158497" lat="53.014646"><ele>634.203369</ele><time>2021-07-17T12:45:19Z</time><extensions><speed>0.000000</speed><course>240.875916</course><hAcc>0.917936</hAcc><vAcc>0.750441</vAcc></extensions></trkpt>
      <trkpt lon="-4.158497" lat="53.014646"><ele>634.203369</ele><time>2021-07-17T12:45:20Z</time><extensions><speed>0.000000</speed><course>240.875916</course><hAcc>0.918475</hAcc><vAcc>0.751678</vAcc></extensions></trkpt>
      <trkpt lon="-4.158497" lat="53.014646"><ele>634.203369</ele><time>2021-07-17T12:45:21Z</time><extensions><speed>0.000000</speed><course>240.875916</course><hAcc>0.918658</hAcc><vAcc>0.752310</vAcc></extensions></trkpt>
      <trkpt lon="-4.158497" lat="53.014646"><ele>634.203369</ele><time>2021-07-17T12:45:22Z</time><extensions><speed>0.000000</speed><course>269.430084</course><hAcc>0.918597</hAcc><vAcc>0.752344</vAcc></extensions></trkpt>
      <trkpt lon="-4.158497" lat="53.014646"><ele>634.203369</ele><time>2021-07-17T12:45:23Z</time><extensions><speed>0.000000</speed><course>274.056000</course><hAcc>0.918335</hAcc><vAcc>0.751809</vAcc></extensions></trkpt>
      <trkpt lon="-4.158497" lat="53.014646"><ele>634.203369</ele><time>2021-07-17T12:45:24Z</time><extensions><speed>0.000000</speed><course>273.580658</course><hAcc>0.917843</hAcc><vAcc>0.750755</vAcc></extensions></trkpt>
      <trkpt lon="-4.158497" lat="53.014646"><ele>634.203369</ele><time>2021-07-17T12:45:25Z</time><extensions><speed>0.000000</speed><course>266.285736</course><hAcc>0.917068</hAcc><vAcc>0.749297</vAcc></extensions></trkpt>
      <trkpt lon="-4.158497" lat="53.014646"><ele>634.203369</ele><time>2021-07-17T12:45:26Z</time><extensions><speed>0.000000</speed><course>280.416809</course><hAcc>0.916045</hAcc><vAcc>0.747706</vAcc></extensions></trkpt>
      <trkpt lon="-4.158497" lat="53.014646"><ele>634.203369</ele><time>2021-07-17T12:45:27Z</time><extensions><speed>0.000000</speed><course>289.633057</course><hAcc>0.915071</hAcc><vAcc>0.746559</vAcc></extensions></trkpt>
      <trkpt lon="-4.158497" lat="53.014646"><ele>634.203369</ele><time>2021-07-17T12:45:28Z</time><extensions><speed>0.000000</speed><course>274.042023</course><hAcc>0.914978</hAcc><vAcc>0.746938</vAcc></extensions></trkpt>
      <trkpt lon="-4.158497" lat="53.014646"><ele>634.203369</ele><time>2021-07-17T12:45:29Z</time><extensions><speed>0.000000</speed><course>259.398621</course><hAcc>0.917491</hAcc><vAcc>0.750674</vAcc></extensions></trkpt>
      <trkpt lon="-4.158497" lat="53.014646"><ele>634.203369</ele><time>2021-07-17T12:45:30Z</time><extensions><speed>0.000000</speed><course>235.228027</course><hAcc>0.925667</hAcc><vAcc>0.760578</vAcc></extensions></trkpt>
      <trkpt lon="-4.158497" lat="53.014646"><ele>634.203369</ele><time>2021-07-17T12:45:31Z</time><extensions><speed>0.000000</speed><course>233.943741</course><hAcc>0.944293</hAcc><vAcc>0.780538</vAcc></extensions></trkpt>
      <trkpt lon="-4.158497" lat="53.014646"><ele>634.203369</ele><time>2021-07-17T12:45:32Z</time><extensions><speed>0.000000</speed><course>251.986771</course><hAcc>0.980037</hAcc><vAcc>0.815406</vAcc></extensions></trkpt>
      <trkpt lon="-4.158497" lat="53.014646"><ele>634.203369</ele><time>2021-07-17T12:45:33Z</time><extensions><speed>0.000000</speed><course>207.637573</course><hAcc>0.941662</hAcc><vAcc>0.779476</vAcc></extensions></trkpt>
      <trkpt lon="-4.158497" lat="53.014646"><ele>634.203369</ele><time>2021-07-17T12:45:34Z</time><extensions><speed>0.000000</speed><course>199.781464</course><hAcc>0.922202</hAcc><vAcc>0.758280</vAcc></extensions></trkpt>
      <trkpt lon="-4.158497" lat="53.014646"><ele>634.203369</ele><time>2021-07-17T12:45:35Z</time><extensions><speed>0.000000</speed><course>204.898392</course><hAcc>0.914371</hAcc><vAcc>0.748152</vAcc></extensions></trkpt>
      <trkpt lon="-4.158497" lat="53.014646"><ele>634.203369</ele><time>2021-07-17T12:45:36Z</time><extensions><speed>0.000000</speed><course>218.988647</course><hAcc>0.912698</hAcc><vAcc>0.744746</vAcc></extensions></trkpt>
      <trkpt lon="-4.158497" lat="53.014646"><ele>634.203369</ele><time>2021-07-17T12:45:37Z</time><extensions><speed>0.000000</speed><course>240.875916</course><hAcc>0.913693</hAcc><vAcc>0.744922</vAcc></extensions></trkpt>
      <trkpt lon="-4.158497" lat="53.014646"><ele>634.203369</ele><time>2021-07-17T12:45:38Z</time><extensions><speed>0.000000</speed><course>240.875916</course><hAcc>0.915407</hAcc><vAcc>0.746638</vAcc></extensions></trkpt>
      <trkpt lon="-4.158497" lat="53.014646"><ele>634.203369</ele><time>2021-07-17T12:45:39Z</time><extensions><speed>0.000000</speed><course>240.875916</course><hAcc>0.916922</hAcc><vAcc>0.748699</vAcc></extensions></trkpt>
      <trkpt lon="-4.158497" lat="53.014646"><ele>634.203369</ele><time>2021-07-17T12:45:40Z</time><extensions><speed>0.000000</speed><course>240.875916</course><hAcc>0.917942</hAcc><vAcc>0.750486</vAcc></extensions></trkpt>
      <trkpt lon="-4.158497" lat="53.014646"><ele>634.203369</ele><time>2021-07-17T12:45:41Z</time><extensions><speed>0.000000</speed><course>240.875916</course><hAcc>0.918480</hAcc><vAcc>0.751736</vAcc></extensions></trkpt>
      <trkpt lon="-4.158497" lat="53.014646"><ele>634.203369</ele><time>2021-07-17T12:45:42Z</time><extensions><speed>0.000000</speed><course>240.875916</course><hAcc>0.918658</hAcc><vAcc>0.752369</vAcc></extensions></trkpt>
      <trkpt lon="-4.158497" lat="53.014646"><ele>634.203369</ele><time>2021-07-17T12:45:43Z</time><extensions><speed>0.000000</speed><course>269.430084</course><hAcc>0.918590</hAcc><vAcc>0.752387</vAcc></extensions></trkpt>
      <trkpt lon="-4.158497" lat="53.014646"><ele>634.203369</ele><time>2021-07-17T12:45:44Z</time><extensions><speed>0.000000</speed><course>274.056000</course><hAcc>0.918316</hAcc><vAcc>0.751817</vAcc></extensions></trkpt>
      <trkpt lon="-4.158497" lat="53.014646"><ele>634.203369</ele><time>2021-07-17T12:45:45Z</time><extensions><speed>0.000000</speed><course>273.580658</course><hAcc>0.917808</hAcc><vAcc>0.750712</vAcc></extensions></trkpt>
      <trkpt lon="-4.158497" lat="53.014646"><ele>634.203369</ele><time>2021-07-17T12:45:46Z</time><extensions><speed>0.000000</speed><course>266.285736</course><hAcc>0.917015</hAcc><vAcc>0.749186</vAcc></extensions></trkpt>
      <trkpt lon="-4.158497" lat="53.014646"><ele>634.203369</ele><time>2021-07-17T12:45:47Z</time><extensions><speed>0.000000</speed><course>280.416809</course><hAcc>0.915968</hAcc><vAcc>0.747517</vAcc></extensions></trkpt>
      <trkpt lon="-4.158497" lat="53.014646"><ele>634.203369</ele><time>2021-07-17T12:45:48Z</time><extensions><speed>0.000000</speed><course>289.633057</course><hAcc>0.914967</hAcc><vAcc>0.746285</vAcc></extensions></trkpt>
      <trkpt lon="-4.158497" lat="53.014646"><ele>634.203369</ele><time>2021-07-17T12:45:49Z</time><extensions><speed>0.000000</speed><course>274.042023</course><hAcc>0.914841</hAcc><vAcc>0.746581</vAcc></extensions></trkpt>
      <trkpt lon="-4.158497" lat="53.014646"><ele>634.203369</ele><time>2021-07-17T12:45:50Z</time><extensions><speed>0.000000</speed><course>259.398621</course><hAcc>0.917318</hAcc><vAcc>0.750238</vAcc></extensions></trkpt>
      <trkpt lon="-4.158497" lat="53.014646"><ele>634.203369</ele><time>2021-07-17T12:45:51Z</time><extensions><speed>0.000000</speed><course>235.228027</course><hAcc>0.925460</hAcc><vAcc>0.760066</vAcc></extensions></trkpt>
      <trkpt lon="-4.158497" lat="53.014646"><ele>634.203369</ele><time>2021-07-17T12:45:52Z</time><extensions><speed>0.000000</speed><course>233.943741</course><hAcc>0.944067</hAcc><vAcc>0.779967</vAcc></extensions></trkpt>
      <trkpt lon="-4.158497" lat="53.014646"><ele>634.203369</ele><time>2021-07-17T12:45:53Z</time><extensions><speed>0.000000</speed><course>251.986771</course><hAcc>0.979788</hAcc><vAcc>0.814773</vAcc></extensions></trkpt>
      <trkpt lon="-4.158497" lat="53.014646"><ele>634.203369</ele><time>2021-07-17T12:45:54Z</time><extensions><speed>0.000000</speed><course>207.637573</course><hAcc>0.941336</hAcc><vAcc>0.778678</vAcc></extensions></trkpt>
      <trkpt lon="-4.158497" lat="53.014646"><ele>634.203369</ele><time>2021-07-17T12:45:55Z</time><extensions><speed>0.000000</speed><course>199.781464</course><hAcc>0.921913</hAcc><vAcc>0.757586</vAcc></extensions></trkpt>
      <trkpt lon="-4.158497" lat="53.014646"><ele>634.203369</ele><time>2021-07-17T12:45:56Z</time><extensions><speed>0.000000</speed><course>204.898392</course><hAcc>0.914108</hAcc><vAcc>0.747521</vAcc></extensions></trkpt>
      <trkpt lon="-4.158497" lat="53.014646"><ele>634.203369</ele><time>2021-07-17T12:45:57Z</time><extensions><speed>0.000000</speed><course>218.988647</course><hAcc>0.912447</hAcc><vAcc>0.744144</vAcc></extensions></trkpt>
      <trkpt lon="-4.158497" lat="53.014646"><ele>634.203369</ele><time>2021-07-17T12:45:58Z</time><extensions><speed>0.000000</speed><course>240.875916</course><hAcc>0.913441</hAcc><vAcc>0.744319</vAcc></extensions></trkpt>
      <trkpt lon="-4.158497" lat="53.014646"><ele>634.203369</ele><time>2021-07-17T12:45:59Z</time><extensions><speed>0.000000</speed><course>240.875916</course><hAcc>0.915157</hAcc><vAcc>0.746025</vAcc></extensions></trkpt>
      <trkpt lon="-4.158497" lat="53.014646"><ele>634.203369</ele><time>2021-07-17T12:46:00Z</time><extensions><speed>0.000000</speed><course>240.875916</course><hAcc>0.916687</hAcc><vAcc>0.748076</vAcc></extensions></trkpt>
      <trkpt lon="-4.158497" lat="53.014646"><ele>634.203369</ele><time>2021-07-17T12:46:01Z</time><extensions><speed>0.000000</speed><course>240.875916</course><hAcc>0.917713</hAcc><vAcc>0.749847</vAcc></extensions></trkpt>
      <trkpt lon="-4.158497" lat="53.014646"><ele>634.203369</ele><time>2021-07-17T12:46:02Z</time><extensions><speed>0.000000</speed><course>240.875916</course><hAcc>0.918252</hAcc><vAcc>0.751075</vAcc></extensions></trkpt>
      <trkpt lon="-4.158497" lat="53.014646"><ele>634.203369</ele><time>2021-07-17T12:46:03Z</time><extensions><speed>0.000000</speed><course>240.875916</course><hAcc>0.918429</hAcc><vAcc>0.751687</vAcc></extensions></trkpt>
      <trkpt lon="-4.158497" lat="53.014646"><ele>634.203369</ele><time>2021-07-17T12:46:04Z</time><extensions><speed>0.000000</speed><course>269.430084</course><hAcc>0.918356</hAcc><vAcc>0.751683</vAcc></extensions></trkpt>
      <trkpt lon="-4.158497" lat="53.014646"><ele>634.203369</ele><time>2021-07-17T12:46:05Z</time><extensions><speed>0.000000</speed><course>274.056000</course><hAcc>0.918076</hAcc><vAcc>0.751092</vAcc></extensions></trkpt>
      <trkpt lon="-4.158497" lat="53.014646"><ele>634.203369</ele><time>2021-07-17T12:46:06Z</time><extensions><speed>0.000000</speed><course>273.580658</course><hAcc>0.917556</hAcc><vAcc>0.749960</vAcc></extensions></trkpt>
      <trkpt lon="-4.158497" lat="53.014646"><ele>634.203369</ele><time>2021-07-17T12:46:07Z</time><extensions><speed>0.000000</speed><course>266.285736</course><hAcc>0.916745</hAcc><vAcc>0.748395</vAcc></extensions></trkpt>
      <trkpt lon="-4.158497" lat="53.014646"><ele>634.203369</ele><time>2021-07-17T12:46:08Z</time><extensions><speed>0.000000</speed><course>280.416809</course><hAcc>0.915670</hAcc><vAcc>0.746664</vAcc></extensions></trkpt>
      <trkpt lon="-4.158497" lat="53.014646"><ele>634.203369</ele><time>2021-07-17T12:46:09Z</time><extensions><speed>0.000000</speed><course>289.633057</course><hAcc>0.914628</hAcc><vAcc>0.745336</vAcc></extensions></trkpt>
      <trkpt lon="-4.158497" lat="53.014646"><ele>634.203369</ele><time>2021-07-17T12:46:10Z</time><extensions><speed>0.000000</speed><course>274.042023</course><hAcc>0.914444</hAcc><vAcc>0.745488</vAcc></extensions></trkpt>
      <trkpt lon="-4.158497" lat="53.014646"><ele>634.203369</ele><time>2021-07-17T12:46:11Z</time><extensions><speed>0.000000</speed><course>259.398621</course><hAcc>0.916842</hAcc><vAcc>0.748945</vAcc></extensions></trkpt>
      <trkpt lon="-4.158497" lat="53.014646"><ele>634.203369</ele><time>2021-07-17T12:46:12Z</time><extensions><speed>0.000000</speed><course>235.228027</course><hAcc>0.924884</hAcc><vAcc>0.758512</vAcc></extensions></trkpt>
      <trkpt lon="-4.158497" lat="53.014646"><ele>634.203369</ele><time>2021-07-17T12:46:12Z</time><extensions><speed>0.000000</speed><course>233.943741</course><hAcc>0.943360</hAcc><vAcc>0.778079</vAcc></extensions></trkpt>
      <trkpt lon="-4.158497" lat="53.014646"><ele>634.203369</ele><time>2021-07-17T12:46:14Z</time><extensions><speed>0.000000</speed><course>251.986771</course><hAcc>0.978987</hAcc><vAcc>0.812559</vAcc></extensions></trkpt>
      <trkpt lon="-4.158497" lat="53.014646"><ele>634.203369</ele><time>2021-07-17T12:46:14Z</time><extensions><speed>0.000000</speed><course>207.637573</course><hAcc>0.940802</hAcc><vAcc>0.776995</vAcc></extensions></trkpt>
      <trkpt lon="-4.158497" lat="53.014646"><ele>634.203369</ele><time>2021-07-17T12:46:16Z</time><extensions><speed>0.000000</speed><course>199.781464</course><hAcc>0.921418</hAcc><vAcc>0.755963</vAcc></extensions></trkpt>
      <trkpt lon="-4.158497" lat="53.014646"><ele>634.203369</ele><time>2021-07-17T12:46:17Z</time><extensions><speed>0.000000</speed><course>204.898392</course><hAcc>0.913662</hAcc><vAcc>0.745993</vAcc></extensions></trkpt>
      <trkpt lon="-4.158497" lat="53.014646"><ele>634.203369</ele><time>2021-07-17T12:46:18Z</time><extensions><speed>0.000000</speed><course>218.988647</course><hAcc>0.912047</hAcc><vAcc>0.742720</vAcc></extensions></trkpt>
      <trkpt lon="-4.158497" lat="53.014646"><ele>634.203369</ele><time>2021-07-17T12:46:19Z</time><extensions><speed>0.000000</speed><course>240.875916</course><hAcc>0.913083</hAcc><vAcc>0.743004</vAcc></extensions></trkpt>
      <trkpt lon="-4.158497" lat="53.014646"><ele>634.203369</ele><time>2021-07-17T12:46:20Z</time><extensions><speed>0.000000</speed><course>240.875916</course><hAcc>0.914823</hAcc><vAcc>0.744805</vAcc></extensions></trkpt>
      <trkpt lon="-4.158497" lat="53.014646"><ele>634.203369</ele><time>2021-07-17T12:46:21Z</time><extensions><speed>0.000000</speed><course>240.875916</course><hAcc>0.916355</hAcc><vAcc>0.746929</vAcc></extensions></trkpt>
      <trkpt lon="-4.158497" lat="53.014646"><ele>634.203369</ele><time>2021-07-17T12:46:22Z</time><extensions><speed>0.000000</speed><course>240.875916</course><hAcc>0.917385</hAcc><vAcc>0.748762</vAcc></extensions></trkpt>
      <trkpt lon="-4.158497" lat="53.014646"><ele>634.203369</ele><time>2021-07-17T12:46:23Z</time><extensions><speed>0.000000</speed><course>240.875916</course><hAcc>0.917931</hAcc><vAcc>0.750044</vAcc></extensions></trkpt>
      <trkpt lon="-4.158497" lat="53.014646"><ele>634.203369</ele><time>2021-07-17T12:46:24Z</time><extensions><speed>0.000000</speed><course>240.875916</course><hAcc>0.918118</hAcc><vAcc>0.750701</vAcc></extensions></trkpt>
      <trkpt lon="-4.158497" lat="53.014646"><ele>634.203369</ele><time>2021-07-17T12:46:25Z</time><extensions><speed>0.000000</speed><course>269.430084</course><hAcc>0.918057</hAcc><vAcc>0.750740</vAcc></extensions></trkpt>
      <trkpt lon="-4.158497" lat="53.014646"><ele>634.203369</ele><time>2021-07-17T12:46:26Z</time><extensions><speed>0.000000</speed><course>274.056000</course><hAcc>0.917792</hAcc><vAcc>0.750192</vAcc></extensions></trkpt>
      <trkpt lon="-4.158497" lat="53.014646"><ele>634.203369</ele><time>2021-07-17T12:46:27Z</time><extensions><speed>0.000000</speed><course>273.580658</course><hAcc>0.917290</hAcc><vAcc>0.749104</vAcc></extensions></trkpt>
      <trkpt lon="-4.158497" lat="53.014646"><ele>634.203369</ele><time>2021-07-17T12:46:28Z</time><extensions><speed>0.000000</speed><course>266.285736</course><hAcc>0.916498</hAcc><vAcc>0.747588</vAcc></extensions></trkpt>
      <trkpt lon="-4.158497" lat="53.014646"><ele>634.203369</ele><time>2021-07-17T12:46:29Z</time><extensions><speed>0.000000</speed><course>280.416809</course><hAcc>0.915445</hAcc><vAcc>0.745913</vAcc></extensions></trkpt>
      <trkpt lon="-4.158497" lat="53.014646"><ele>634.203369</ele><time>2021-07-17T12:46:30Z</time><extensions><speed>0.000000</speed><course>289.633057</course><hAcc>0.914422</hAcc><vAcc>0.744646</vAcc></extensions></trkpt>
      <trkpt lon="-4.158497" lat="53.014646"><ele>634.203369</ele><time>2021-07-17T12:46:31Z</time><extensions><speed>0.000000</speed><course>274.042023</course><hAcc>0.914255</hAcc><vAcc>0.744862</vAcc></extensions></trkpt>
      <trkpt lon="-4.158497" lat="53.014646"><ele>634.203369</ele><time>2021-07-17T12:46:32Z</time><extensions><speed>0.000000</speed><course>259.398621</course><hAcc>0.916667</hAcc><vAcc>0.748380</vAcc></extensions></trkpt>
      <trkpt lon="-4.158497" lat="53.014646"><ele>634.203369</ele><time>2021-07-17T12:46:33Z</time><extensions><speed>0.000000</speed><course>235.228027</course><hAcc>0.924718</hAcc><vAcc>0.757996</vAcc></extensions></trkpt>
      <trkpt lon="-4.158497" lat="53.014646"><ele>634.203369</ele><time>2021-07-17T12:46:34Z</time><extensions><speed>0.000000</speed><course>233.943741</course><hAcc>0.943208</hAcc><vAcc>0.777609</vAcc></extensions></trkpt>
      <trkpt lon="-4.158497" lat="53.014646"><ele>634.203369</ele><time>2021-07-17T12:46:35Z</time><extensions><speed>0.000000</speed><course>251.986771</course><hAcc>0.978794</hAcc><vAcc>0.812062</vAcc></extensions></trkpt>
      <trkpt lon="-4.158497" lat="53.014646"><ele>634.203369</ele><time>2021-07-17T12:46:36Z</time><extensions><speed>0.000000</speed><course>207.637573</course><hAcc>0.940560</hAcc><vAcc>0.776398</vAcc></extensions></trkpt>
      <trkpt lon="-4.158497" lat="53.014646"><ele>634.203369</ele><time>2021-07-17T12:46:37Z</time><extensions><speed>0.000000</speed><course>199.781464</course><hAcc>0.921190</hAcc><vAcc>0.755355</vAcc></extensions></trkpt>
      <trkpt lon="-4.158497" lat="53.014646"><ele>634.203369</ele><time>2021-07-17T12:46:38Z</time><extensions><speed>0.000000</speed><course>204.898392</course><hAcc>0.913433</hAcc><vAcc>0.745337</vAcc></extensions></trkpt>
      <trkpt lon="-4.158497" lat="53.014646"><ele>634.203369</ele><time>2021-07-17T12:46:39Z</time><extensions><speed>0.000000</speed><course>218.988647</course><hAcc>0.911816</hAcc><vAcc>0.742005</vAcc></extensions></trkpt>
      <trkpt lon="-4.158497" lat="53.014646"><ele>634.203369</ele><time>2021-07-17T12:46:40Z</time><extensions><speed>0.000000</speed><course>240.875916</course><hAcc>0.912849</hAcc><vAcc>0.742231</vAcc></extensions></trkpt>
      <trkpt lon="-4.158497" lat="53.014646"><ele>634.203369</ele><time>2021-07-17T12:46:41Z</time><extensions><speed>0.000000</speed><course>240.875916</course><hAcc>0.914585</hAcc><vAcc>0.743988</vAcc></extensions></trkpt>
      <trkpt lon="-4.158497" lat="53.014646"><ele>634.203369</ele><time>2021-07-17T12:46:42Z</time><extensions><speed>0.000000</speed><course>240.875916</course><hAcc>0.916115</hAcc><vAcc>0.746091</vAcc></extensions></trkpt>
      <trkpt lon="-4.158497" lat="53.014646"><ele>634.203369</ele><time>2021-07-17T12:46:43Z</time><extensions><speed>0.000000</speed><course>240.875916</course><hAcc>0.917147</hAcc><vAcc>0.747933</vAcc></extensions></trkpt>
      <trkpt lon="-4.158497" lat="53.014646"><ele>634.203369</ele><time>2021-07-17T12:46:44Z</time><extensions><speed>0.000000</speed><course>240.875916</course><hAcc>0.917698</hAcc><vAcc>0.749252</vAcc></extensions></trkpt>
      <trkpt lon="-4.158497" lat="53.014646"><ele>634.203369</ele><time>2021-07-17T12:46:45Z</time><extensions><speed>0.000000</speed><course>240.875916</course><hAcc>0.917895</hAcc><vAcc>0.749970</vAcc></extensions></trkpt>
      <trkpt lon="-4.158497" lat="53.014646"><ele>634.203369</ele><time>2021-07-17T12:46:46Z</time><extensions><speed>0.000000</speed><course>269.430084</course><hAcc>0.917851</hAcc><vAcc>0.750088</vAcc></extensions></trkpt>
      <trkpt lon="-4.158497" lat="53.014646"><ele>634.203369</ele><time>2021-07-17T12:46:47Z</time><extensions><speed>0.000000</speed><course>274.056000</course><hAcc>0.917608</hAcc><vAcc>0.749631</vAcc></extensions></trkpt>
      <trkpt lon="-4.158497" lat="53.014646"><ele>634.203369</ele><time>2021-07-17T12:46:48Z</time><extensions><speed>0.000000</speed><course>273.580658</course><hAcc>0.917136</hAcc><vAcc>0.748646</vAcc></extensions></trkpt>
      <trkpt lon="-4.158497" lat="53.014646"><ele>634.203369</ele><time>2021-07-17T12:46:49Z</time><extensions><speed>0.000000</speed><course>266.285736</course><hAcc>0.916378</hAcc><vAcc>0.747242</vAcc></extensions></trkpt>
      <trkpt lon="-4.158497" lat="53.014646"><ele>634.203369</ele><time>2021-07-17T12:46:50Z</time><extensions><speed>0.000000</speed><course>280.416809</course><hAcc>0.915366</hAcc><vAcc>0.745689</vAcc></extensions></trkpt>
      <trkpt lon="-4.158497" lat="53.014646"><ele>634.203369</ele><time>2021-07-17T12:46:51Z</time><extensions><speed>0.000000</speed><course>289.633057</course><hAcc>0.914392</hAcc><vAcc>0.744559</vAcc></extensions></trkpt>
      <trkpt lon="-4.158497" lat="53.014646"><ele>634.203369</ele><time>2021-07-17T12:46:52Z</time><extensions><speed>0.000000</speed><course>274.042023</course><hAcc>0.914282</hAcc><vAcc>0.744930</vAcc></extensions></trkpt>
      <trkpt lon="-4.158497" lat="53.014646"><ele>634.203369</ele><time>2021-07-17T12:46:53Z</time><extensions><speed>0.000000</speed><course>259.398621</course><hAcc>0.916762</hAcc><vAcc>0.748627</vAcc></extensions></trkpt>
      <trkpt lon="-4.158497" lat="53.014646"><ele>634.203369</ele><time>2021-07-17T12:46:54Z</time><extensions><speed>0.000000</speed><course>235.228027</course><hAcc>0.924892</hAcc><vAcc>0.758453</vAcc></extensions></trkpt>
      <trkpt lon="-4.158497" lat="53.014646"><ele>634.203369</ele><time>2021-07-17T12:46:55Z</time><extensions><speed>0.000000</speed><course>233.943741</course><hAcc>0.943471</hAcc><vAcc>0.778306</vAcc></extensions></trkpt>
      <trkpt lon="-4.158497" lat="53.014646"><ele>634.203369</ele><time>2021-07-17T12:46:56Z</time><extensions><speed>0.000000</speed><course>251.986771</course><hAcc>0.979152</hAcc><vAcc>0.813025</vAcc></extensions></trkpt>
      <trkpt lon="-4.158497" lat="53.014646"><ele>634.203369</ele><time>2021-07-17T12:46:57Z</time><extensions><speed>0.000000</speed><course>207.637573</course><hAcc>0.940805</hAcc><vAcc>0.777143</vAcc></extensions></trkpt>
      <trkpt lon="-4.158497" lat="53.014646"><ele>634.203369</ele><time>2021-07-17T12:46:58Z</time><extensions><speed>0.000000</speed><course>199.781464</course><hAcc>0.921456</hAcc><vAcc>0.756194</vAcc></extensions></trkpt>
      <trkpt lon="-4.158497" lat="53.014646"><ele>634.203369</ele><time>2021-07-17T12:46:59Z</time><extensions><speed>0.000000</speed><course>204.898392</course><hAcc>0.913719</hAcc><vAcc>0.746258</vAcc></extensions></trkpt>
      <trkpt lon="-4.158497" lat="53.014646"><ele>634.203369</ele><time>2021-07-17T12:47:00Z</time><extensions><speed>0.000000</speed><course>218.988647</course><hAcc>0.912122</hAcc><vAcc>0.742995</vAcc></extensions></trkpt>
      <trkpt lon="-4.158497" lat="53.014646"><ele>634.203369</ele><time>2021-07-17T12:47:01Z</time><extensions><speed>0.000000</speed><course>240.875916</course><hAcc>0.913174</hAcc><vAcc>0.743278</vAcc></extensions></trkpt>
      <trkpt lon="-4.158497" lat="53.014646"><ele>634.203369</ele><time>2021-07-17T12:47:02Z</time><extensions><speed>0.000000</speed><course>240.875916</course><hAcc>0.914931</hAcc><vAcc>0.745080</vAcc></extensions></trkpt>
      <trkpt lon="-4.158497" lat="53.014646"><ele>634.203369</ele><time>2021-07-17T12:47:03Z</time><extensions><speed>0.000000</speed><course>240.875916</course><hAcc>0.916482</hAcc><vAcc>0.747222</vAcc></extensions></trkpt>
      <trkpt lon="-4.158497" lat="53.014646"><ele>634.203369</ele><time>2021-07-17T12:47:04Z</time><extensions><speed>0.000000</speed><course>240.875916</course><hAcc>0.917534</hAcc><vAcc>0.749100</vAcc></extensions></trkpt>
      <trkpt lon="-4.158497" lat="53.014646"><ele>634.203369</ele><time>2021-07-17T12:47:05Z</time><extensions><speed>0.000000</speed><course>240.875916</course><hAcc>0.918104</hAcc><vAcc>0.750459</vAcc></extensions></trkpt>
      <trkpt lon="-4.158497" lat="53.014646"><ele>634.203369</ele><time>2021-07-17T12:47:06Z</time><extensions><speed>0.000000</speed><course>240.875916</course><hAcc>0.918320</hAcc><vAcc>0.751227</vAcc></extensions></trkpt>
      <trkpt lon="-4.158497" lat="53.014646"><ele>634.203369</ele><time>2021-07-17T12:47:07Z</time><extensions><speed>0.000000</speed><course>269.430084</course><hAcc>0.918293</hAcc><vAcc>0.751406</vAcc></extensions></trkpt>
      <trkpt lon="-4.158497" lat="53.014646"><ele>634.203369</ele><time>2021-07-17T12:47:08Z</time><extensions><speed>0.000000</speed><course>274.056000</course><hAcc>0.918067</hAcc><vAcc>0.751023</vAcc></extensions></trkpt>
      <trkpt lon="-4.158497" lat="53.014646"><ele>634.203369</ele><time>2021-07-17T12:47:09Z</time><extensions><speed>0.000000</speed><course>273.580658</course><hAcc>0.917611</hAcc><vAcc>0.750123</vAcc></extensions></trkpt>
      <trkpt lon="-4.158497" lat="53.014646"><ele>634.203369</ele><time>2021-07-17T12:47:10Z</time><extensions><speed>0.000000</speed><course>266.285736</course><hAcc>0.916873</hAcc><vAcc>0.748813</vAcc></extensions></trkpt>
      <trkpt lon="-4.158497" lat="53.014646"><ele>634.203369</ele><time>2021-07-17T12:47:11Z</time><extensions><speed>0.000000</speed><course>280.416809</course><hAcc>0.915885</hAcc><vAcc>0.747360</vAcc></extensions></trkpt>
      <trkpt lon="-4.158497" lat="53.014646"><ele>634.203369</ele><time>2021-07-17T12:47:12Z</time><extensions><speed>0.000000</speed><course>289.633057</course><hAcc>0.914944</hAcc><vAcc>0.746338</vAcc></extensions></trkpt>
      <trkpt lon="-4.158497" lat="53.014646"><ele>634.203369</ele><time>2021-07-17T12:47:13Z</time><extensions><speed>0.000000</speed><course>274.042023</course><hAcc>0.914881</hAcc><vAcc>0.746827</vAcc></extensions></trkpt>
      <trkpt lon="-4.158497" lat="53.014646"><ele>634.203369</ele><time>2021-07-17T12:47:14Z</time><extensions><speed>0.000000</speed><course>259.398621</course><hAcc>0.917423</hAcc><vAcc>0.750659</vAcc></extensions></trkpt>
      <trkpt lon="-4.158497" lat="53.014646"><ele>634.203369</ele><time>2021-07-17T12:47:15Z</time><extensions><speed>0.000000</speed><course>235.228027</course><hAcc>0.925632</hAcc><vAcc>0.760643</vAcc></extensions></trkpt>
      <trkpt lon="-4.158497" lat="53.014646"><ele>634.203369</ele><time>2021-07-17T12:47:16Z</time><extensions><speed>0.000000</speed><course>233.943741</course><hAcc>0.944305</hAcc><vAcc>0.780684</vAcc></extensions></trkpt>
      <trkpt lon="-4.158497" lat="53.014646"><ele>634.203369</ele><time>2021-07-17T12:47:17Z</time><extensions><speed>0.000000</speed><course>251.986771</course><hAcc>0.980086</hAcc><vAcc>0.815615</vAcc></extensions></trkpt>
      <trkpt lon="-4.158497" lat="53.014646"><ele>634.203369</ele><time>2021-07-17T12:47:18Z</time><extensions><speed>0.000000</speed><course>207.637573</course><hAcc>0.941759</hAcc><vAcc>0.779759</vAcc></extensions></trkpt>
      <trkpt lon="-4.158497" lat="53.014646"><ele>634.203369</ele><time>2021-07-17T12:47:19Z</time><extensions><speed>0.000000</speed><course>199.781464</course><hAcc>0.922283</hAcc><vAcc>0.758528</vAcc></extensions></trkpt>
      <trkpt lon="-4.158497" lat="53.014646"><ele>634.203369</ele><time>2021-07-17T12:47:20Z</time><extensions><speed>0.000000</speed><course>204.898392</course><hAcc>0.914440</hAcc><vAcc>0.748375</vAcc></extensions></trkpt>
      <trkpt lon="-4.158497" lat="53.014646"><ele>634.203369</ele><time>2021-07-17T12:47:21Z</time><extensions><speed>0.000000</speed><course>218.988647</course><hAcc>0.912760</hAcc><vAcc>0.744952</vAcc></extensions></trkpt>
      <trkpt lon="-4.158497" lat="53.014646"><ele>634.203369</ele><time>2021-07-17T12:47:22Z</time><extensions><speed>0.000000</speed><course>240.875916</course><hAcc>0.913753</hAcc><vAcc>0.745115</vAcc></extensions></trkpt>
      <trkpt lon="-4.158497" lat="53.014646"><ele>634.203369</ele><time>2021-07-17T12:47:23Z</time><extensions><speed>0.000000</speed><course>240.875916</course><hAcc>0.915465</hAcc><vAcc>0.746820</vAcc></extensions></trkpt>
      <trkpt lon="-4.158497" lat="53.014646"><ele>634.203369</ele><time>2021-07-17T12:47:24Z</time><extensions><speed>0.000000</speed><course>240.875916</course><hAcc>0.916981</hAcc><vAcc>0.748870</vAcc></extensions></trkpt>
      <trkpt lon="-4.158497" lat="53.014646"><ele>634.203369</ele><time>2021-07-17T12:47:25Z</time><extensions><speed>0.000000</speed><course>240.875916</course><hAcc>0.918004</hAcc><vAcc>0.750647</vAcc></extensions></trkpt>
      <trkpt lon="-4.158497" lat="53.014646"><ele>634.203369</ele><time>2021-07-17T12:47:26Z</time><extensions><speed>0.000000</speed><course>240.875916</course><hAcc>0.918546</hAcc><vAcc>0.751889</vAcc></extensions></trkpt>
      <trkpt lon="-4.158497" lat="53.014646"><ele>634.203369</ele><time>2021-07-17T12:47:27Z</time><extensions><speed>0.000000</speed><course>240.875916</course><hAcc>0.918733</hAcc><vAcc>0.752518</vAcc></extensions></trkpt>
      <trkpt lon="-4.158497" lat="53.014646"><ele>634.203369</ele><time>2021-07-17T12:47:28Z</time><extensions><speed>0.000000</speed><course>269.430084</course><hAcc>0.918675</hAcc><vAcc>0.752541</vAcc></extensions></trkpt>
      <trkpt lon="-4.158497" lat="53.014646"><ele>634.203369</ele><time>2021-07-17T12:47:29Z</time><extensions><speed>0.000000</speed><course>274.056000</course><hAcc>0.918418</hAcc><vAcc>0.751990</vAcc></extensions></trkpt>
      <trkpt lon="-4.158497" lat="53.014646"><ele>634.203369</ele><time>2021-07-17T12:47:30Z</time><extensions><speed>0.000000</speed><course>273.580658</course><hAcc>0.917933</hAcc><vAcc>0.750920</vAcc></extensions></trkpt>
      <trkpt lon="-4.158497" lat="53.014646"><ele>634.203369</ele><time>2021-07-17T12:47:31Z</time><extensions><speed>0.000000</speed><course>266.285736</course><hAcc>0.917149</hAcc><vAcc>0.749434</vAcc></extensions></trkpt>
      <trkpt lon="-4.158497" lat="53.014646"><ele>634.203369</ele><time>2021-07-17T12:47:32Z</time><extensions><speed>0.000000</speed><course>280.416809</course><hAcc>0.916104</hAcc><vAcc>0.747814</vAcc></extensions></trkpt>
      <trkpt lon="-4.158497" lat="53.014646"><ele>634.203369</ele><time>2021-07-17T12:47:33Z</time><extensions><speed>0.000000</speed><course>289.633057</course><hAcc>0.915114</hAcc><vAcc>0.746653</vAcc></extensions></trkpt>
      <trkpt lon="-4.158497" lat="53.014646"><ele>634.203369</ele><time>2021-07-17T12:47:34Z</time><extensions><speed>0.000000</speed><course>274.042023</course><hAcc>0.915010</hAcc><vAcc>0.747039</vAcc></extensions></trkpt>
      <trkpt lon="-4.158497" lat="53.014646"><ele>634.203369</ele><time>2021-07-17T12:47:35Z</time><extensions><speed>0.000000</speed><course>259.398621</course><hAcc>0.917521</hAcc><vAcc>0.750804</vAcc></extensions></trkpt>
      <trkpt lon="-4.158497" lat="53.014646"><ele>634.203369</ele><time>2021-07-17T12:47:36Z</time><extensions><speed>0.000000</speed><course>235.228027</course><hAcc>0.925710</hAcc><vAcc>0.760759</vAcc></extensions></trkpt>
      <trkpt lon="-4.158497" lat="53.014646"><ele>634.203369</ele><time>2021-07-17T12:47:37Z</time><extensions><speed>0.000000</speed><course>233.943741</course><hAcc>0.944373</hAcc><vAcc>0.780805</vAcc></extensions></trkpt>
      <trkpt lon="-4.158497" lat="53.014646"><ele>634.203369</ele><time>2021-07-17T12:47:38Z</time><extensions><speed>0.000000</speed><course>251.986771</course><hAcc>0.980155</hAcc><vAcc>0.815769</vAcc></extensions></trkpt>
      <trkpt lon="-4.158497" lat="53.014646"><ele>634.203369</ele><time>2021-07-17T12:47:39Z</time><extensions><speed>0.000000</speed><course>207.637573</course><hAcc>0.941718</hAcc><vAcc>0.779704</vAcc></extensions></trkpt>
      <trkpt lon="-4.158497" lat="53.014646"><ele>634.203369</ele><time>2021-07-17T12:47:40Z</time><extensions><speed>0.000000</speed><course>199.781464</course><hAcc>0.922275</hAcc><vAcc>0.758571</vAcc></extensions></trkpt>
      <trkpt lon="-4.158497" lat="53.014646"><ele>634.203369</ele><time>2021-07-17T12:47:41Z</time><extensions><speed>0.000000</speed><course>204.898392</course><hAcc>0.914459</hAcc><vAcc>0.748490</vAcc></extensions></trkpt>
      <trkpt lon="-4.158497" lat="53.014646"><ele>634.203369</ele><time>2021-07-17T12:47:42Z</time><extensions><speed>0.000000</speed><course>218.988647</course><hAcc>0.912798</hAcc><vAcc>0.745117</vAcc></extensions></trkpt>
      <trkpt lon="-4.158497" lat="53.014646"><ele>634.203369</ele><time>2021-07-17T12:47:43Z</time><extensions><speed>0.000000</speed><course>240.875916</course><hAcc>0.913803</hAcc><vAcc>0.745310</vAcc></extensions></trkpt>
      <trkpt lon="-4.158497" lat="53.014646"><ele>634.203369</ele><time>2021-07-17T12:47:44Z</time><extensions><speed>0.000000</speed><course>240.875916</course><hAcc>0.915522</hAcc><vAcc>0.747031</vAcc></extensions></trkpt>
      <trkpt lon="-4.158497" lat="53.014646"><ele>634.203369</ele><time>2021-07-17T12:47:45Z</time><extensions><speed>0.000000</speed><course>240.875916</course><hAcc>0.917040</hAcc><vAcc>0.749085</vAcc></extensions></trkpt>
      <trkpt lon="-4.158497" lat="53.014646"><ele>634.203369</ele><time>2021-07-17T12:47:46Z</time><extensions><speed>0.000000</speed><course>240.875916</course><hAcc>0.918060</hAcc><vAcc>0.750856</vAcc></extensions></trkpt>
      <trkpt lon="-4.158497" lat="53.014646"><ele>634.203369</ele><time>2021-07-17T12:47:47Z</time><extensions><speed>0.000000</speed><course>240.875916</course><hAcc>0.918596</hAcc><vAcc>0.752084</vAcc></extensions></trkpt>
      <trkpt lon="-4.158497" lat="53.014646"><ele>634.203369</ele><time>2021-07-17T12:47:48Z</time><extensions><speed>0.000000</speed><course>240.875916</course><hAcc>0.918771</hAcc><vAcc>0.752693</vAcc></extensions></trkpt>
      <trkpt lon="-4.158497" lat="53.014646"><ele>634.203369</ele><time>2021-07-17T12:47:49Z</time><extensions><speed>0.000000</speed><course>269.430084</course><hAcc>0.918697</hAcc><vAcc>0.752690</vAcc></extensions></trkpt>
      <trkpt lon="-4.158497" lat="53.014646"><ele>634.203369</ele><time>2021-07-17T12:47:50Z</time><extensions><speed>0.000000</speed><course>274.056000</course><hAcc>0.918417</hAcc><vAcc>0.752105</vAcc></extensions></trkpt>
      <trkpt lon="-4.158497" lat="53.014646"><ele>634.203369</ele><time>2021-07-17T12:47:51Z</time><extensions><speed>0.000000</speed><course>273.580658</course><hAcc>0.917902</hAcc><vAcc>0.750990</vAcc></extensions></trkpt>
      <trkpt lon="-4.158497" lat="53.014646"><ele>634.203369</ele><time>2021-07-17T12:47:52Z</time><extensions><speed>0.000000</speed><course>266.285736</course><hAcc>0.917103</hAcc><vAcc>0.749461</vAcc></extensions></trkpt>
      <trkpt lon="-4.158497" lat="53.014646"><ele>634.203369</ele><time>2021-07-17T12:47:53Z</time><extensions><speed>0.000000</speed><course>280.416809</course><hAcc>0.916052</hAcc><vAcc>0.747792</vAcc></extensions></trkpt>
      <trkpt lon="-4.158497" lat="53.014646"><ele>634.203369</ele><time>2021-07-17T12:47:54Z</time><extensions><speed>0.000000</speed><course>289.633057</course><hAcc>0.915051</hAcc><vAcc>0.746566</vAcc></extensions></trkpt>
      <trkpt lon="-4.158497" lat="53.014646"><ele>634.203369</ele><time>2021-07-17T12:47:55Z</time><extensions><speed>0.000000</speed><course>274.042023</course><hAcc>0.914932</hAcc><vAcc>0.746871</vAcc></extensions></trkpt>
      <trkpt lon="-4.158497" lat="53.014646"><ele>634.203369</ele><time>2021-07-17T12:47:56Z</time><extensions><speed>0.000000</speed><course>259.398621</course><hAcc>0.917425</hAcc><vAcc>0.750547</vAcc></extensions></trkpt>
      <trkpt lon="-4.158497" lat="53.014646"><ele>634.203369</ele><time>2021-07-17T12:47:57Z</time><extensions><speed>0.000000</speed><course>235.228027</course><hAcc>0.925593</hAcc><vAcc>0.760413</vAcc></extensions></trkpt>
      <trkpt lon="-4.158497" lat="53.014646"><ele>634.203369</ele><time>2021-07-17T12:47:58Z</time><extensions><speed>0.000000</speed><course>233.943741</course><hAcc>0.944236</hAcc><vAcc>0.780383</vAcc></extensions></trkpt>
      <trkpt lon="-4.158497" lat="53.014646"><ele>634.203369</ele><time>2021-07-17T12:47:59Z</time><extensions><speed>0.000000</speed><course>251.986771</course><hAcc>0.980000</hAcc><vAcc>0.815297</vAcc></extensions></trkpt>
      <trkpt lon="-4.158497" lat="53.014646"><ele>634.203369</ele><time>2021-07-17T12:48:00Z</time><extensions><speed>0.000000</speed><course>207.637573</course><hAcc>0.941550</hAcc><vAcc>0.779212</vAcc></extensions></trkpt>
      <trkpt lon="-4.158497" lat="53.014646"><ele>634.203369</ele><time>2021-07-17T12:48:01Z</time><extensions><speed>0.000000</speed><course>199.781464</course><hAcc>0.922115</hAcc><vAcc>0.758115</vAcc></extensions></trkpt>
      <trkpt lon="-4.158497" lat="53.014646"><ele>634.203369</ele><time>2021-07-17T12:48:02Z</time><extensions><speed>0.000000</speed><course>204.898392</course><hAcc>0.914306</hAcc><vAcc>0.748085</vAcc></extensions></trkpt>
      <trkpt lon="-4.158497" lat="53.014646"><ele>634.203369</ele><time>2021-07-17T12:48:03Z</time><extensions><speed>0.000000</speed><course>218.988647</course><hAcc>0.912652</hAcc><vAcc>0.744765</vAcc></extensions></trkpt>
      <trkpt lon="-4.158497" lat="53.014646"><ele>634.203369</ele><time>2021-07-17T12:48:04Z</time><extensions><speed>0.000000</speed><course>240.875916</course><hAcc>0.913658</hAcc><vAcc>0.745008</vAcc></extensions></trkpt>
      <trkpt lon="-4.158497" lat="53.014646"><ele>634.203369</ele><time>2021-07-17T12:48:05Z</time><extensions><speed>0.000000</speed><course>240.875916</course><hAcc>0.915391</hAcc><vAcc>0.746782</vAcc></extensions></trkpt>
      <trkpt lon="-4.158497" lat="53.014646"><ele>634.203369</ele><time>2021-07-17T12:48:06Z</time><extensions><speed>0.000000</speed><course>240.875916</course><hAcc>0.916940</hAcc><vAcc>0.748897</vAcc></extensions></trkpt>
      <trkpt lon="-4.158497" lat="53.014646"><ele>634.203369</ele><time>2021-07-17T12:48:07Z</time><extensions><speed>0.000000</speed><course>240.875916</course><hAcc>0.917984</hAcc><vAcc>0.750723</vAcc></extensions></trkpt>
      <trkpt lon="-4.158497" lat="53.014646"><ele>634.203369</ele><time>2021-07-17T12:48:08Z</time><extensions><speed>0.000000</speed><course>240.875916</course><hAcc>0.918540</hAcc><vAcc>0.751996</vAcc></extensions></trkpt>
      <trkpt lon="-4.158497" lat="53.014646"><ele>634.203369</ele><time>2021-07-17T12:48:09Z</time><extensions><speed>0.000000</speed><course>240.875916</course><hAcc>0.918731</hAcc><vAcc>0.752640</vAcc></extensions></trkpt>
      <trkpt lon="-4.158497" lat="53.014646"><ele>634.203369</ele><time>2021-07-17T12:48:10Z</time><extensions><speed>0.000000</speed><course>269.430084</course><hAcc>0.918670</hAcc><vAcc>0.752660</vAcc></extensions></trkpt>
      <trkpt lon="-4.158497" lat="53.014646"><ele>634.203369</ele><time>2021-07-17T12:48:11Z</time><extensions><speed>0.000000</speed><course>274.056000</course><hAcc>0.918398</hAcc><vAcc>0.752086</vAcc></extensions></trkpt>
      <trkpt lon="-4.158497" lat="53.014646"><ele>634.203369</ele><time>2021-07-17T12:48:12Z</time><extensions><speed>0.000000</speed><course>273.580658</course><hAcc>0.917889</hAcc><vAcc>0.750971</vAcc></extensions></trkpt>
      <trkpt lon="-4.158497" lat="53.014646"><ele>634.203369</ele><time>2021-07-17T12:48:13Z</time><extensions><speed>0.000000</speed><course>266.285736</course><hAcc>0.917090</hAcc><vAcc>0.749432</vAcc></extensions></trkpt>
      <trkpt lon="-4.158497" lat="53.014646"><ele>634.203369</ele><time>2021-07-17T12:48:14Z</time><extensions><speed>0.000000</speed><course>280.416809</course><hAcc>0.916036</hAcc><vAcc>0.747743</vAcc></extensions></trkpt>
      <trkpt lon="-4.158497" lat="53.014646"><ele>634.203369</ele><time>2021-07-17T12:48:15Z</time><extensions><speed>0.000000</speed><course>289.633057</course><hAcc>0.915023</hAcc><vAcc>0.746484</vAcc></extensions></trkpt>
      <trkpt lon="-4.158497" lat="53.014646"><ele>634.203369</ele><time>2021-07-17T12:48:16Z</time><extensions><speed>0.000000</speed><course>274.042023</course><hAcc>0.914884</hAcc><vAcc>0.746743</vAcc></extensions></trkpt>
      <trkpt lon="-4.158497" lat="53.014646"><ele>634.203369</ele><time>2021-07-17T12:48:17Z</time><extensions><speed>0.000000</speed><course>259.398621</course><hAcc>0.917344</hAcc><vAcc>0.750351</vAcc></extensions></trkpt>
      <trkpt lon="-4.158497" lat="53.014646"><ele>634.203369</ele><time>2021-07-17T12:48:18Z</time><extensions><speed>0.000000</speed><course>235.228027</course><hAcc>0.925468</hAcc><vAcc>0.760119</vAcc></extensions></trkpt>
      <trkpt lon="-4.158497" lat="53.014646"><ele>634.203369</ele><time>2021-07-17T12:48:19Z</time><extensions><speed>0.000000</speed><course>233.943741</course><hAcc>0.944053</hAcc><vAcc>0.779949</vAcc></extensions></trkpt>
      <trkpt lon="-4.158497" lat="53.014646"><ele>634.203369</ele><time>2021-07-17T12:48:20Z</time><extensions><speed>0.000000</speed><course>251.986771</course><hAcc>0.979750</hAcc><vAcc>0.814677</vAcc></extensions></trkpt>
      <trkpt lon="-4.158497" lat="53.014646"><ele>634.203369</ele><time>2021-07-17T12:48:21Z</time><extensions><speed>0.000000</speed><course>207.637573</course><hAcc>0.941434</hAcc><vAcc>0.778858</vAcc></extensions></trkpt>
      <trkpt lon="-4.158497" lat="53.014646"><ele>634.203369</ele><time>2021-07-17T12:48:22Z</time><extensions><speed>0.000000</speed><course>199.781464</course><hAcc>0.922016</hAcc><vAcc>0.757765</vAcc></extensions></trkpt>
      <trkpt lon="-4.158497" lat="53.014646"><ele>634.203369</ele><time>2021-07-17T12:48:23Z</time><extensions><speed>0.000000</speed><course>204.898392</course><hAcc>0.914226</hAcc><vAcc>0.747734</vAcc></extensions></trkpt>
      <trkpt lon="-4.158497" lat="53.014646"><ele>634.203369</ele><time>2021-07-17T12:48:24Z</time><extensions><speed>0.000000</speed><course>218.988647</course><hAcc>0.912590</hAcc><vAcc>0.744421</vAcc></extensions></trkpt>
      <trkpt lon="-4.158497" lat="53.014646"><ele>634.203369</ele><time>2021-07-17T12:48:25Z</time><extensions><speed>0.000000</speed><course>240.875916</course><hAcc>0.913618</hAcc><vAcc>0.744685</vAcc></extensions></trkpt>
      <trkpt lon="-4.158497" lat="53.014646"><ele>634.203369</ele><time>2021-07-17T12:48:26Z</time><extensions><speed>0.000000</speed><course>240.875916</course><hAcc>0.915360</hAcc><vAcc>0.746485</vAcc></extensions></trkpt>
      <trkpt lon="-4.158497" lat="53.014646"><ele>634.203369</ele><time>2021-07-17T12:48:27Z</time><extensions><speed>0.000000</speed><course>240.875916</course><hAcc>0.916900</hAcc><vAcc>0.748622</vAcc></extensions></trkpt>
      <trkpt lon="-4.158497" lat="53.014646"><ele>634.203369</ele><time>2021-07-17T12:48:28Z</time><extensions><speed>0.000000</speed><course>240.875916</course><hAcc>0.917941</hAcc><vAcc>0.750479</vAcc></extensions></trkpt>
      <trkpt lon="-4.158497" lat="53.014646"><ele>634.203369</ele><time>2021-07-17T12:48:29Z</time><extensions><speed>0.000000</speed><course>240.875916</course><hAcc>0.918499</hAcc><vAcc>0.751791</vAcc></extensions></trkpt>
      <trkpt lon="-4.158497" lat="53.014646"><ele>634.203369</ele><time>2021-07-17T12:48:30Z</time><extensions><speed>0.000000</speed><course>240.875916</course><hAcc>0.918696</hAcc><vAcc>0.752479</vAcc></extensions></trkpt>
      <trkpt lon="-4.158497" lat="53.014646"><ele>634.203369</ele><time>2021-07-17T12:48:31Z</time><extensions><speed>0.000000</speed><course>269.430084</course><hAcc>0.918644</hAcc><vAcc>0.752549</vAcc></extensions></trkpt>
      <trkpt lon="-4.158497" lat="53.014646"><ele>634.203369</ele><time>2021-07-17T12:48:32Z</time><extensions><speed>0.000000</speed><course>274.056000</course><hAcc>0.918386</hAcc><vAcc>0.752031</vAcc></extensions></trkpt>
      <trkpt lon="-4.158497" lat="53.014646"><ele>634.203369</ele><time>2021-07-17T12:48:33Z</time><extensions><speed>0.000000</speed><course>273.580658</course><hAcc>0.917891</hAcc><vAcc>0.750974</vAcc></extensions></trkpt>
      <trkpt lon="-4.158497" lat="53.014646"><ele>634.203369</ele><time>2021-07-17T12:48:34Z</time><extensions><speed>0.000000</speed><course>266.285736</course><hAcc>0.917107</hAcc><vAcc>0.749496</vAcc></extensions></trkpt>
      <trkpt lon="-4.158497" lat="53.014646"><ele>634.203369</ele><time>2021-07-17T12:48:35Z</time><extensions><speed>0.000000</speed><course>280.416809</course><hAcc>0.916068</hAcc><vAcc>0.747869</vAcc></extensions></trkpt>
      <trkpt lon="-4.158497" lat="53.014646"><ele>634.203369</ele><time>2021-07-17T12:48:36Z</time><extensions><speed>0.000000</speed><course>289.633057</course><hAcc>0.915072</hAcc><vAcc>0.746670</vAcc></extensions></trkpt>
      <trkpt lon="-4.158497" lat="53.014646"><ele>634.203369</ele><time>2021-07-17T12:48:37Z</time><extensions><speed>0.000000</speed><course>274.042023</course><hAcc>0.914948</hAcc><vAcc>0.746981</vAcc></extensions></trkpt>
      <trkpt lon="-4.158497" lat="53.014646"><ele>634.203369</ele><time>2021-07-17T12:48:38Z</time><extensions><speed>0.000000</speed><course>259.398621</course><hAcc>0.917424</hAcc><vAcc>0.750633</vAcc></extensions></trkpt>
      <trkpt lon="-4.158497" lat="53.014646"><ele>634.203369</ele><time>2021-07-17T12:48:39Z</time><extensions><speed>0.000000</speed><course>235.228027</course><hAcc>0.925563</hAcc><vAcc>0.760434</vAcc></extensions></trkpt>
      <trkpt lon="-4.158497" lat="53.014646"><ele>634.203369</ele><time>2021-07-17T12:48:40Z</time><extensions><speed>0.000000</speed><course>233.943741</course><hAcc>0.944162</hAcc><vAcc>0.780287</vAcc></extensions></trkpt>
      <trkpt lon="-4.158497" lat="53.014646"><ele>634.203369</ele><time>2021-07-17T12:48:41Z</time><extensions><speed>0.000000</speed><course>251.986771</course><hAcc>0.979871</hAcc><vAcc>0.815029</vAcc></extensions></trkpt>
      <trkpt lon="-4.158497" lat="53.014646"><ele>634.203125</ele><time>2021-07-17T12:48:42Z</time><extensions><speed>0.004737</speed><course>207.637573</course><hAcc>0.941015</hAcc><vAcc>0.778365</vAcc></extensions></trkpt>
      <trkpt lon="-4.158497" lat="53.014646"><ele>634.201538</ele><time>2021-07-17T12:48:43Z</time><extensions><speed>0.005677</speed><course>199.781464</course><hAcc>0.921134</hAcc><vAcc>0.756558</vAcc></extensions></trkpt>
      <trkpt lon="-4.158497" lat="53.014646"><ele>634.199951</ele><time>2021-07-17T12:48:44Z</time><extensions><speed>0.006875</speed><course>204.898392</course><hAcc>0.912710</hAcc><vAcc>0.745625</vAcc></extensions></trkpt>
      <trkpt lon="-4.158497" lat="53.014646"><ele>634.198303</ele><time>2021-07-17T12:48:45Z</time><extensions><speed>0.008341</speed><course>218.988647</course><hAcc>0.910251</hAcc><vAcc>0.741221</vAcc></extensions></trkpt>
      <trkpt lon="-4.158497" lat="53.014646"><ele>634.196655</ele><time>2021-07-17T12:48:46Z</time><extensions><speed>0.010079</speed><course>240.875916</course><hAcc>0.910240</hAcc><vAcc>0.740206</vAcc></extensions></trkpt>
      <trkpt lon="-4.158497" lat="53.014646"><ele>634.194946</ele><time>2021-07-17T12:48:47Z</time><extensions><speed>0.012076</speed><course>240.875916</course><hAcc>0.910704</hAcc><vAcc>0.740548</vAcc></extensions></trkpt>
      <trkpt lon="-4.158497" lat="53.014646"><ele>634.193298</ele><time>2021-07-17T12:48:48Z</time><extensions><speed>0.014310</speed><course>240.875916</course><hAcc>0.910714</hAcc><vAcc>0.741078</vAcc></extensions></trkpt>
      <trkpt lon="-4.158497" lat="53.014646"><ele>634.191589</ele><time>2021-07-17T12:48:49Z</time><extensions><speed>0.016739</speed><course>240.875916</course><hAcc>0.909982</hAcc><vAcc>0.741224</vAcc></extensions></trkpt>
      <trkpt lon="-4.158497" lat="53.014645"><ele>634.190002</ele><time>2021-07-17T12:48:50Z</time><extensions><speed>0.019304</speed><course>240.875916</course><hAcc>0.908558</hAcc><vAcc>0.740797</vAcc></extensions></trkpt>
      <trkpt lon="-4.158497" lat="53.014645"><ele>634.188477</ele><time>2021-07-17T12:48:51Z</time><extensions><speed>0.021920</speed><course>240.875916</course><hAcc>0.906647</hAcc><vAcc>0.739825</vAcc></extensions></trkpt>
      <trkpt lon="-4.158497" lat="53.014645"><ele>634.187073</ele><time>2021-07-17T12:48:52Z</time><extensions><speed>0.024476</speed><course>269.430084</course><hAcc>0.904487</hAcc><vAcc>0.738442</vAcc></extensions></trkpt>
      <trkpt lon="-4.158497" lat="53.014645"><ele>634.185852</ele><time>2021-07-17T12:48:53Z</time><extensions><speed>0.026831</speed><course>274.056000</course><hAcc>0.902293</hAcc><vAcc>0.736814</vAcc></extensions></trkpt>
      <trkpt lon="-4.158497" lat="53.014645"><ele>634.184875</ele><time>2021-07-17T12:48:54Z</time><extensions><speed>0.028809</speed><course>273.580658</course><hAcc>0.900223</hAcc><vAcc>0.735099</vAcc></extensions></trkpt>
      <trkpt lon="-4.158497" lat="53.014644"><ele>634.184082</ele><time>2021-07-17T12:48:55Z</time><extensions><speed>0.030198</speed><course>266.285736</course><hAcc>0.898381</hAcc><vAcc>0.733425</vAcc></extensions></trkpt>
      <trkpt lon="-4.158496" lat="53.014644"><ele>634.183655</ele><time>2021-07-17T12:48:56Z</time><extensions><speed>0.030743</speed><course>280.416809</course><hAcc>0.896817</hAcc><vAcc>0.731881</vAcc></extensions></trkpt>
      <trkpt lon="-4.158496" lat="53.014644"><ele>634.183533</ele><time>2021-07-17T12:48:57Z</time><extensions><speed>0.030151</speed><course>289.633057</course><hAcc>0.895542</hAcc><vAcc>0.730523</vAcc></extensions></trkpt>
      <trkpt lon="-4.158496" lat="53.014644"><ele>634.183716</ele><time>2021-07-17T12:48:58Z</time><extensions><speed>0.028083</speed><course>274.042023</course><hAcc>0.894540</hAcc><vAcc>0.729374</vAcc></extensions></trkpt>
      <trkpt lon="-4.158496" lat="53.014643"><ele>634.184265</ele><time>2021-07-17T12:48:59Z</time><extensions><speed>0.024160</speed><course>259.398621</course><hAcc>0.893777</hAcc><vAcc>0.728434</vAcc></extensions></trkpt>
      <trkpt lon="-4.158496" lat="53.014643"><ele>634.185059</ele><time>2021-07-17T12:49:00Z</time><extensions><speed>0.017974</speed><course>235.228027</course><hAcc>0.893213</hAcc><vAcc>0.727688</vAcc></extensions></trkpt>
      <trkpt lon="-4.158496" lat="53.014643"><ele>634.186035</ele><time>2021-07-17T12:49:01Z</time><extensions><speed>0.009135</speed><course>233.943741</course><hAcc>0.892809</hAcc><vAcc>0.727110</vAcc></extensions></trkpt>
      <trkpt lon="-4.158496" lat="53.014643"><ele>634.187195</ele><time>2021-07-17T12:49:02Z</time><extensions><speed>0.003834</speed><course>251.986771</course><hAcc>0.892526</hAcc><vAcc>0.726672</vAcc></extensions></trkpt>
      <trkpt lon="-4.158496" lat="53.014643"><ele>634.188293</ele><time>2021-07-17T12:49:03Z</time><extensions><speed>0.019234</speed><course>230.632401</course><hAcc>0.892332</hAcc><vAcc>0.726344</vAcc></extensions></trkpt>
      <trkpt lon="-4.158496" lat="53.014643"><ele>634.189148</ele><time>2021-07-17T12:49:04Z</time><extensions><speed>0.039238</speed><course>208.539734</course><hAcc>0.892202</hAcc><vAcc>0.726099</vAcc></extensions></trkpt>
      <trkpt lon="-4.158497" lat="53.014644"><ele>634.189636</ele><time>2021-07-17T12:49:05Z</time><extensions><speed>0.063919</speed><course>217.062653</course><hAcc>0.892115</hAcc><vAcc>0.725914</vAcc></extensions></trkpt>
      <trkpt lon="-4.158497" lat="53.014644"><ele>634.189392</ele><time>2021-07-17T12:49:06Z</time><extensions><speed>0.093649</speed><course>216.480164</course><hAcc>0.892056</hAcc><vAcc>0.725772</vAcc></extensions></trkpt>
      <trkpt lon="-4.158497" lat="53.014645"><ele>634.188232</ele><time>2021-07-17T12:49:07Z</time><extensions><speed>0.128722</speed><course>215.204285</course><hAcc>0.892017</hAcc><vAcc>0.725660</vAcc></extensions></trkpt>
      <trkpt lon="-4.158498" lat="53.014647"><ele>634.185791</ele><time>2021-07-17T12:49:08Z</time><extensions><speed>0.169301</speed><course>192.608246</course><hAcc>0.891989</hAcc><vAcc>0.725570</vAcc></extensions></trkpt>
      <trkpt lon="-4.158499" lat="53.014648"><ele>634.181763</ele><time>2021-07-17T12:49:09Z</time><extensions><speed>0.215361</speed><course>196.818375</course><hAcc>0.891969</hAcc><vAcc>0.725497</vAcc></extensions></trkpt>
      <trkpt lon="-4.158500" lat="53.014650"><ele>634.175903</ele><time>2021-07-17T12:49:10Z</time><extensions><speed>0.266632</speed><course>200.564194</course><hAcc>0.891955</hAcc><vAcc>0.725440</vAcc></extensions></trkpt>
      <trkpt lon="-4.158501" lat="53.014653"><ele>634.168030</ele><time>2021-07-17T12:49:11Z</time><extensions><speed>0.322531</speed><course>224.718231</course><hAcc>0.891944</hAcc><vAcc>0.725401</vAcc></extensions></trkpt>
      <trkpt lon="-4.158502" lat="53.014656"><ele>634.158081</ele><time>2021-07-17T12:49:12Z</time><extensions><speed>0.382094</speed><course>228.969803</course><hAcc>0.891937</hAcc><vAcc>0.725379</vAcc></extensions></trkpt>
      <trkpt lon="-4.158504" lat="53.014660"><ele>634.146179</ele><time>2021-07-17T12:49:13Z</time><extensions><speed>0.443892</speed><course>250.366501</course><hAcc>0.891932</hAcc><vAcc>0.725376</vAcc></extensions></trkpt>
      <trkpt lon="-4.158505" lat="53.014664"><ele>634.132690</ele><time>2021-07-17T12:49:14Z</time><extensions><speed>0.505961</speed><course>-1.000000</course><hAcc>0.891929</hAcc><vAcc>0.725390</vAcc></extensions></trkpt>
      <trkpt lon="-4.158507" lat="53.014668"><ele>634.118286</ele><time>2021-07-17T12:49:15Z</time><extensions><speed>0.565717</speed><course>232.063629</course><hAcc>0.891927</hAcc><vAcc>0.725417</vAcc></extensions></trkpt>
      <trkpt lon="-4.158509" lat="53.014674"><ele>634.104065</ele><time>2021-07-17T12:49:16Z</time><extensions><speed>0.619885</speed><course>232.063614</course><hAcc>0.891924</hAcc><vAcc>0.725451</vAcc></extensions></trkpt>
      <trkpt lon="-4.158511" lat="53.014679"><ele>634.091797</ele><time>2021-07-17T12:49:17Z</time><extensions><speed>0.664458</speed><course>232.063614</course><hAcc>0.891921</hAcc><vAcc>0.725483</vAcc></extensions></trkpt>
      <trkpt lon="-4.158512" lat="53.014685"><ele>634.083801</ele><time>2021-07-17T12:49:18Z</time><extensions><speed>0.694670</speed><course>232.063599</course><hAcc>0.891916</hAcc><vAcc>0.725503</vAcc></extensions></trkpt>
      <trkpt lon="-4.158514" lat="53.014692"><ele>634.082642</ele><time>2021-07-17T12:49:19Z</time><extensions><speed>0.710268</speed><course>232.063599</course><hAcc>0.891908</hAcc><vAcc>0.725504</vAcc></extensions></trkpt>
      <trkpt lon="-4.158515" lat="53.014698"><ele>634.090149</ele><time>2021-07-17T12:49:20Z</time><extensions><speed>0.715444</speed><course>232.063583</course><hAcc>0.891898</hAcc><vAcc>0.725479</vAcc></extensions></trkpt>
      <trkpt lon="-4.158516" lat="53.014704"><ele>634.106689</ele><time>2021-07-17T12:49:21Z</time><extensions><speed>0.713931</speed><course>232.063583</course><hAcc>0.891885</hAcc><vAcc>0.725429</vAcc></extensions></trkpt>
      <trkpt lon="-4.158517" lat="53.014711"><ele>634.131348</ele><time>2021-07-17T12:49:22Z</time><extensions><speed>0.709308</speed><course>248.555511</course><hAcc>0.891867</hAcc><vAcc>0.725356</vAcc></extensions></trkpt>
      <trkpt lon="-4.158517" lat="53.014717"><ele>634.161865</ele><time>2021-07-17T12:49:23Z</time><extensions><speed>0.704533</speed><course>214.727661</course><hAcc>0.891847</hAcc><vAcc>0.725266</vAcc></extensions></trkpt>
      <trkpt lon="-4.158517" lat="53.014723"><ele>634.195190</ele><time>2021-07-17T12:49:24Z</time><extensions><speed>0.701615</speed><course>215.656113</course><hAcc>0.891823</hAcc><vAcc>0.725164</vAcc></extensions></trkpt>
      <trkpt lon="-4.158517" lat="53.014730"><ele>634.228088</ele><time>2021-07-17T12:49:25Z</time><extensions><speed>0.701740</speed><course>205.637772</course><hAcc>0.891796</hAcc><vAcc>0.725057</vAcc></extensions></trkpt>
      <trkpt lon="-4.158517" lat="53.014736"><ele>634.257751</ele><time>2021-07-17T12:49:26Z</time><extensions><speed>0.705578</speed><course>201.575424</course><hAcc>0.891769</hAcc><vAcc>0.724945</vAcc></extensions></trkpt>
      <trkpt lon="-4.158517" lat="53.014742"><ele>634.281372</ele><time>2021-07-17T12:49:27Z</time><extensions><speed>0.713634</speed><course>196.854248</course><hAcc>0.891743</hAcc><vAcc>0.724833</vAcc></extensions></trkpt>
      <trkpt lon="-4.158517" lat="53.014749"><ele>634.296631</ele><time>2021-07-17T12:49:28Z</time><extensions><speed>0.726630</speed><course>198.264053</course><hAcc>0.891717</hAcc><vAcc>0.724724</vAcc></extensions></trkpt>
      <trkpt lon="-4.158518" lat="53.014755"><ele>634.301575</ele><time>2021-07-17T12:49:29Z</time><extensions><speed>0.744868</speed><course>198.636932</course><hAcc>0.891694</hAcc><vAcc>0.724625</vAcc></extensions></trkpt>
      <trkpt lon="-4.158519" lat="53.014762"><ele>634.294922</ele><time>2021-07-17T12:49:30Z</time><extensions><speed>0.767486</speed><course>192.727798</course><hAcc>0.891672</hAcc><vAcc>0.724541</vAcc></extensions></trkpt>
      <trkpt lon="-4.158520" lat="53.014769"><ele>634.276062</ele><time>2021-07-17T12:49:31Z</time><extensions><speed>0.793198</speed><course>184.691818</course><hAcc>0.891652</hAcc><vAcc>0.724476</vAcc></extensions></trkpt>
      <trkpt lon="-4.158523" lat="53.014776"><ele>634.245361</ele><time>2021-07-17T12:49:32Z</time><extensions><speed>0.820692</speed><course>177.917740</course><hAcc>0.891634</hAcc><vAcc>0.724426</vAcc></extensions></trkpt>
      <trkpt lon="-4.158526" lat="53.014784"><ele>634.203613</ele><time>2021-07-17T12:49:33Z</time><extensions><speed>0.848709</speed><course>169.935883</course><hAcc>0.891601</hAcc><vAcc>0.724369</vAcc></extensions></trkpt>
      <trkpt lon="-4.158529" lat="53.014791"><ele>634.151917</ele><time>2021-07-17T12:49:34Z</time><extensions><speed>0.876334</speed><course>168.290512</course><hAcc>0.891552</hAcc><vAcc>0.724291</vAcc></extensions></trkpt>
      <trkpt lon="-4.158534" lat="53.014799"><ele>634.091003</ele><time>2021-07-17T12:49:35Z</time><extensions><speed>0.903208</speed><course>175.847488</course><hAcc>0.891508</hAcc><vAcc>0.724192</vAcc></extensions></trkpt>
      <trkpt lon="-4.158539" lat="53.014806"><ele>634.021301</ele><time>2021-07-17T12:49:36Z</time><extensions><speed>0.928977</speed><course>182.489380</course><hAcc>0.891468</hAcc><vAcc>0.724069</vAcc></extensions></trkpt>
      <trkpt lon="-4.158545" lat="53.014814"><ele>633.943359</ele><time>2021-07-17T12:49:37Z</time><extensions><speed>0.953261</speed><course>193.224472</course><hAcc>0.891432</hAcc><vAcc>0.723925</vAcc></extensions></trkpt>
      <trkpt lon="-4.158552" lat="53.014821"><ele>633.857422</ele><time>2021-07-17T12:49:38Z</time><extensions><speed>0.975965</speed><course>210.457108</course><hAcc>0.891402</hAcc><vAcc>0.723774</vAcc></extensions></trkpt>
      <trkpt lon="-4.158559" lat="53.014829"><ele>633.763245</ele><time>2021-07-17T12:49:39Z</time><extensions><speed>0.997188</speed><course>227.054108</course><hAcc>0.891379</hAcc><vAcc>0.723631</vAcc></extensions></trkpt>
      <trkpt lon="-4.158567" lat="53.014837"><ele>633.661133</ele><time>2021-07-17T12:49:40Z</time><extensions><speed>1.016783</speed><course>247.666534</course><hAcc>0.891364</hAcc><vAcc>0.723517</vAcc></extensions></trkpt>
      <trkpt lon="-4.158576" lat="53.014844"><ele>633.552185</ele><time>2021-07-17T12:49:41Z</time><extensions><speed>1.034734</speed><course>261.197876</course><hAcc>0.891358</hAcc><vAcc>0.723448</vAcc></extensions></trkpt>
      <trkpt lon="-4.158585" lat="53.014852"><ele>633.438171</ele><time>2021-07-17T12:49:42Z</time><extensions><speed>1.051070</speed><course>263.217255</course><hAcc>0.891362</hAcc><vAcc>0.723440</vAcc></extensions></trkpt>
      <trkpt lon="-4.158594" lat="53.014860"><ele>633.321350</ele><time>2021-07-17T12:49:43Z</time><extensions><speed>1.065572</speed><course>271.463165</course><hAcc>0.891375</hAcc><vAcc>0.723498</vAcc></extensions></trkpt>
      <trkpt lon="-4.158603" lat="53.014868"><ele>633.203918</ele><time>2021-07-17T12:49:44Z</time><extensions><speed>1.077953</speed><course>281.991608</course><hAcc>0.891396</hAcc><vAcc>0.723620</vAcc></extensions></trkpt>
      <trkpt lon="-4.158612" lat="53.014876"><ele>633.087219</ele><time>2021-07-17T12:49:45Z</time><extensions><speed>1.088728</speed><course>285.895782</course><hAcc>0.891425</hAcc><vAcc>0.723790</vAcc></extensions></trkpt>
      <trkpt lon="-4.158622" lat="53.014884"><ele>632.971130</ele><time>2021-07-17T12:49:46Z</time><extensions><speed>1.099041</speed><course>287.327179</course><hAcc>0.891460</hAcc><vAcc>0.723989</vAcc></extensions></trkpt>
      <trkpt lon="-4.158631" lat="53.014892"><ele>632.854553</ele><time>2021-07-17T12:49:47Z</time><extensions><speed>1.109523</speed><course>297.396240</course><hAcc>0.891499</hAcc><vAcc>0.724196</vAcc></extensions></trkpt>
      <trkpt lon="-4.158639" lat="53.014900"><ele>632.736328</ele><time>2021-07-17T12:49:48Z</time><extensions><speed>1.119972</speed><course>299.473175</course><hAcc>0.891539</hAcc><vAcc>0.724391</vAcc></extensions></trkpt>
      <trkpt lon="-4.158648" lat="53.014909"><ele>632.615662</ele><time>2021-07-17T12:49:49Z</time><extensions><speed>1.129461</speed><course>297.683289</course><hAcc>0.891578</hAcc><vAcc>0.724556</vAcc></extensions></trkpt>
      <trkpt lon="-4.158656" lat="53.014918"><ele>632.492615</ele><time>2021-07-17T12:49:50Z</time><extensions><speed>1.137072</speed><course>292.365356</course><hAcc>0.891617</hAcc><vAcc>0.724680</vAcc></extensions></trkpt>
      <trkpt lon="-4.158664" lat="53.014927"><ele>632.368286</ele><time>2021-07-17T12:49:51Z</time><extensions><speed>1.142159</speed><course>291.092651</course><hAcc>0.891652</hAcc><vAcc>0.724762</vAcc></extensions></trkpt>
      <trkpt lon="-4.158671" lat="53.014937"><ele>632.244080</ele><time>2021-07-17T12:49:52Z</time><extensions><speed>1.144317</speed><course>297.007721</course><hAcc>0.891683</hAcc><vAcc>0.724810</vAcc></extensions></trkpt>
      <trkpt lon="-4.158678" lat="53.014946"><ele>632.120789</ele><time>2021-07-17T12:49:53Z</time><extensions><speed>1.143618</speed><course>291.539093</course><hAcc>0.891711</hAcc><vAcc>0.724836</vAcc></extensions></trkpt>
      <trkpt lon="-4.158685" lat="53.014955"><ele>631.998413</ele><time>2021-07-17T12:49:54Z</time><extensions><speed>1.140298</speed><course>293.314819</course><hAcc>0.891735</hAcc><vAcc>0.724852</vAcc></extensions></trkpt>
      <trkpt lon="-4.158691" lat="53.014965"><ele>631.876709</ele><time>2021-07-17T12:49:55Z</time><extensions><speed>1.134560</speed><course>297.043213</course><hAcc>0.891756</hAcc><vAcc>0.724872</vAcc></extensions></trkpt>
      <trkpt lon="-4.158697" lat="53.014974"><ele>631.755554</ele><time>2021-07-17T12:49:56Z</time><extensions><speed>1.126707</speed><course>301.573547</course><hAcc>0.891775</hAcc><vAcc>0.724907</vAcc></extensions></trkpt>
      <trkpt lon="-4.158702" lat="53.014984"><ele>631.635193</ele><time>2021-07-17T12:49:57Z</time><extensions><speed>1.117180</speed><course>305.542847</course><hAcc>0.891793</hAcc><vAcc>0.724963</vAcc></extensions></trkpt>
      <trkpt lon="-4.158707" lat="53.014993"><ele>631.516357</ele><time>2021-07-17T12:49:58Z</time><extensions><speed>1.106617</speed><course>304.461029</course><hAcc>0.891807</hAcc><vAcc>0.725040</vAcc></extensions></trkpt>
      <trkpt lon="-4.158711" lat="53.015003"><ele>631.400085</ele><time>2021-07-17T12:49:59Z</time><extensions><speed>1.095748</speed><course>304.519958</course><hAcc>0.891819</hAcc><vAcc>0.725131</vAcc></extensions></trkpt>
      <trkpt lon="-4.158715" lat="53.015013"><ele>631.287781</ele><time>2021-07-17T12:50:00Z</time><extensions><speed>1.085056</speed><course>306.835541</course><hAcc>0.891827</hAcc><vAcc>0.725222</vAcc></extensions></trkpt>
      <trkpt lon="-4.158719" lat="53.015022"><ele>631.180847</ele><time>2021-07-17T12:50:01Z</time><extensions><speed>1.074615</speed><course>312.924469</course><hAcc>0.891830</hAcc><vAcc>0.725298</vAcc></extensions></trkpt>
      <trkpt lon="-4.158721" lat="53.015031"><ele>631.080566</ele><time>2021-07-17T12:50:02Z</time><extensions><speed>1.064206</speed><course>313.121582</course><hAcc>0.891827</hAcc><vAcc>0.725343</vAcc></extensions></trkpt>
      <trkpt lon="-4.158723" lat="53.015041"><ele>630.988220</ele><time>2021-07-17T12:50:03Z</time><extensions><speed>1.053505</speed><course>312.363678</course><hAcc>0.891817</hAcc><vAcc>0.725345</vAcc></extensions></trkpt>
      <trkpt lon="-4.158725" lat="53.015050"><ele>630.905212</ele><time>2021-07-17T12:50:04Z</time><extensions><speed>1.041915</speed><course>309.905548</course><hAcc>0.891798</hAcc><vAcc>0.725297</vAcc></extensions></trkpt>
      <trkpt lon="-4.158725" lat="53.015060"><ele>630.832336</ele><time>2021-07-17T12:50:05Z</time><extensions><speed>1.029164</speed><course>308.597687</course><hAcc>0.891769</hAcc><vAcc>0.725199</vAcc></extensions></trkpt>
      <trkpt lon="-4.158725" lat="53.015069"><ele>630.769287</ele><time>2021-07-17T12:50:06Z</time><extensions><speed>1.015682</speed><course>307.103394</course><hAcc>0.891731</hAcc><vAcc>0.725056</vAcc></extensions></trkpt>
      <trkpt lon="-4.158725" lat="53.015078"><ele>630.715637</ele><time>2021-07-17T12:50:07Z</time><extensions><speed>1.002062</speed><course>306.897400</course><hAcc>0.891684</hAcc><vAcc>0.724877</vAcc></extensions></trkpt>
      <trkpt lon="-4.158723" lat="53.015087"><ele>630.670654</ele><time>2021-07-17T12:50:08Z</time><extensions><speed>0.989130</speed><course>302.152618</course><hAcc>0.891628</hAcc><vAcc>0.724670</vAcc></extensions></trkpt>
      <trkpt lon="-4.158722" lat="53.015096"><ele>630.633362</ele><time>2021-07-17T12:50:09Z</time><extensions><speed>0.978291</speed><course>297.726410</course><hAcc>0.891566</hAcc><vAcc>0.724446</vAcc></extensions></trkpt>
      <trkpt lon="-4.158720" lat="53.015104"><ele>630.602539</ele><time>2021-07-17T12:50:10Z</time><extensions><speed>0.971234</speed><course>300.194183</course><hAcc>0.891497</hAcc><vAcc>0.724219</vAcc></extensions></trkpt>
      <trkpt lon="-4.158717" lat="53.015113"><ele>630.576965</ele><time>2021-07-17T12:50:11Z</time><extensions><speed>0.969468</speed><course>297.151825</course><hAcc>0.891443</hAcc><vAcc>0.724010</vAcc></extensions></trkpt>
      <trkpt lon="-4.158714" lat="53.015121"><ele>630.555603</ele><time>2021-07-17T12:50:12Z</time><extensions><speed>0.973714</speed><course>298.399384</course><hAcc>0.891404</hAcc><vAcc>0.723827</vAcc></extensions></trkpt>
      <trkpt lon="-4.158711" lat="53.015130"><ele>630.537109</ele><time>2021-07-17T12:50:13Z</time><extensions><speed>0.983373</speed><course>300.837921</course><hAcc>0.891365</hAcc><vAcc>0.723666</vAcc></extensions></trkpt>
      <trkpt lon="-4.158708" lat="53.015139"><ele>630.519958</ele><time>2021-07-17T12:50:14Z</time><extensions><speed>0.996866</speed><course>299.844330</course><hAcc>0.891327</hAcc><vAcc>0.723529</vAcc></extensions></trkpt>
      <trkpt lon="-4.158706" lat="53.015148"><ele>630.502625</ele><time>2021-07-17T12:50:15Z</time><extensions><speed>1.012675</speed><course>300.001373</course><hAcc>0.891292</hAcc><vAcc>0.723418</vAcc></extensions></trkpt>
      <trkpt lon="-4.158703" lat="53.015157"><ele>630.483582</ele><time>2021-07-17T12:50:16Z</time><extensions><speed>1.030175</speed><course>294.568817</course><hAcc>0.891258</hAcc><vAcc>0.723328</vAcc></extensions></trkpt>
      <trkpt lon="-4.158701" lat="53.015166"><ele>630.460938</ele><time>2021-07-17T12:50:17Z</time><extensions><speed>1.049040</speed><course>300.687103</course><hAcc>0.891228</hAcc><vAcc>0.723255</vAcc></extensions></trkpt>
      <trkpt lon="-4.158699" lat="53.015175"><ele>630.433350</ele><time>2021-07-17T12:50:18Z</time><extensions><speed>1.068636</speed><course>297.691925</course><hAcc>0.891199</hAcc><vAcc>0.723191</vAcc></extensions></trkpt>
      <trkpt lon="-4.158697" lat="53.015185"><ele>630.400024</ele><time>2021-07-17T12:50:19Z</time><extensions><speed>1.088520</speed><course>293.928223</course><hAcc>0.891172</hAcc><vAcc>0.723127</vAcc></extensions></trkpt>
      <trkpt lon="-4.158697" lat="53.015195"><ele>630.360107</ele><time>2021-07-17T12:50:20Z</time><extensions><speed>1.108391</speed><course>297.041656</course><hAcc>0.891146</hAcc><vAcc>0.723057</vAcc></extensions></trkpt>
      <trkpt lon="-4.158696" lat="53.015205"><ele>630.312744</ele><time>2021-07-17T12:50:21Z</time><extensions><speed>1.127465</speed><course>298.722290</course><hAcc>0.891121</hAcc><vAcc>0.722978</vAcc></extensions></trkpt>
      <trkpt lon="-4.158696" lat="53.015215"><ele>630.257874</ele><time>2021-07-17T12:50:22Z</time><extensions><speed>1.144814</speed><course>296.674316</course><hAcc>0.891097</hAcc><vAcc>0.722891</vAcc></extensions></trkpt>
      <trkpt lon="-4.158697" lat="53.015225"><ele>630.196106</ele><time>2021-07-17T12:50:23Z</time><extensions><speed>1.159494</speed><course>301.147156</course><hAcc>0.891074</hAcc><vAcc>0.722797</vAcc></extensions></trkpt>
      <trkpt lon="-4.158698" lat="53.015236"><ele>630.128479</ele><time>2021-07-17T12:50:24Z</time><extensions><speed>1.170722</speed><course>301.618805</course><hAcc>0.891053</hAcc><vAcc>0.722701</vAcc></extensions></trkpt>
      <trkpt lon="-4.158699" lat="53.015246"><ele>630.056641</ele><time>2021-07-17T12:50:25Z</time><extensions><speed>1.178232</speed><course>300.678009</course><hAcc>0.891035</hAcc><vAcc>0.722610</vAcc></extensions></trkpt>
      <trkpt lon="-4.158701" lat="53.015257"><ele>629.982056</ele><time>2021-07-17T12:50:26Z</time><extensions><speed>1.182184</speed><course>306.078644</course><hAcc>0.891022</hAcc><vAcc>0.722532</vAcc></extensions></trkpt>
      <trkpt lon="-4.158703" lat="53.015267"><ele>629.905945</ele><time>2021-07-17T12:50:27Z</time><extensions><speed>1.183035</speed><course>302.099213</course><hAcc>0.891015</hAcc><vAcc>0.722477</vAcc></extensions></trkpt>
      <trkpt lon="-4.158705" lat="53.015278"><ele>629.829529</ele><time>2021-07-17T12:50:28Z</time><extensions><speed>1.181294</speed><course>298.253754</course><hAcc>0.891014</hAcc><vAcc>0.722453</vAcc></extensions></trkpt>
      <trkpt lon="-4.158708" lat="53.015288"><ele>629.754272</ele><time>2021-07-17T12:50:29Z</time><extensions><speed>1.177306</speed><course>299.772583</course><hAcc>0.891021</hAcc><vAcc>0.722464</vAcc></extensions></trkpt>
      <trkpt lon="-4.158711" lat="53.015299"><ele>629.681519</ele><time>2021-07-17T12:50:30Z</time><extensions><speed>1.171426</speed><course>299.946075</course><hAcc>0.891034</hAcc><vAcc>0.722514</vAcc></extensions></trkpt>
      <trkpt lon="-4.158714" lat="53.015309"><ele>629.612122</ele><time>2021-07-17T12:50:31Z</time><extensions><speed>1.163955</speed><course>303.968170</course><hAcc>0.891054</hAcc><vAcc>0.722600</vAcc></extensions></trkpt>
      <trkpt lon="-4.158717" lat="53.015319"><ele>629.546814</ele><time>2021-07-17T12:50:32Z</time><extensions><speed>1.155012</speed><course>302.223755</course><hAcc>0.891080</hAcc><vAcc>0.722717</vAcc></extensions></trkpt>
      <trkpt lon="-4.158719" lat="53.015330"><ele>629.486755</ele><time>2021-07-17T12:50:33Z</time><extensions><speed>1.144663</speed><course>303.590851</course><hAcc>0.891110</hAcc><vAcc>0.722857</vAcc></extensions></trkpt>
      <trkpt lon="-4.158722" lat="53.015340"><ele>629.433411</ele><time>2021-07-17T12:50:34Z</time><extensions><speed>1.133138</speed><course>302.656281</course><hAcc>0.891143</hAcc><vAcc>0.723006</vAcc></extensions></trkpt>
      <trkpt lon="-4.158724" lat="53.015350"><ele>629.388367</ele><time>2021-07-17T12:50:35Z</time><extensions><speed>1.121171</speed><course>307.857574</course><hAcc>0.891177</hAcc><vAcc>0.723153</vAcc></extensions></trkpt>
      <trkpt lon="-4.158726" lat="53.015360"><ele>629.352539</ele><time>2021-07-17T12:50:36Z</time><extensions><speed>1.109954</speed><course>306.241272</course><hAcc>0.891210</hAcc><vAcc>0.723285</vAcc></extensions></trkpt>
      <trkpt lon="-4.158728" lat="53.015370"><ele>629.326172</ele><time>2021-07-17T12:50:37Z</time><extensions><speed>1.100827</speed><course>302.560516</course><hAcc>0.891241</hAcc><vAcc>0.723396</vAcc></extensions></trkpt>
      <trkpt lon="-4.158729" lat="53.015379"><ele>629.308838</ele><time>2021-07-17T12:50:38Z</time><extensions><speed>1.095196</speed><course>304.207947</course><hAcc>0.891268</hAcc><vAcc>0.723481</vAcc></extensions></trkpt>
      <trkpt lon="-4.158729" lat="53.015389"><ele>629.299622</ele><time>2021-07-17T12:50:39Z</time><extensions><speed>1.094090</speed><course>304.678192</course><hAcc>0.891288</hAcc><vAcc>0.723541</vAcc></extensions></trkpt>
      <trkpt lon="-4.158728" lat="53.015399"><ele>629.297241</ele><time>2021-07-17T12:50:40Z</time><extensions><speed>1.097718</speed><course>300.816559</course><hAcc>0.891301</hAcc><vAcc>0.723579</vAcc></extensions></trkpt>
      <trkpt lon="-4.158727" lat="53.015409"><ele>629.300232</ele><time>2021-07-17T12:50:41Z</time><extensions><speed>1.105616</speed><course>302.457642</course><hAcc>0.891304</hAcc><vAcc>0.723592</vAcc></extensions></trkpt>
      <trkpt lon="-4.158725" lat="53.015419"><ele>629.307434</ele><time>2021-07-17T12:50:42Z</time><extensions><speed>1.116804</speed><course>303.405792</course><hAcc>0.891298</hAcc><vAcc>0.723580</vAcc></extensions></trkpt>
      <trkpt lon="-4.158723" lat="53.015429"><ele>629.318054</ele><time>2021-07-17T12:50:43Z</time><extensions><speed>1.130180</speed><course>305.179382</course><hAcc>0.891283</hAcc><vAcc>0.723539</vAcc></extensions></trkpt>
      <trkpt lon="-4.158720" lat="53.015439"><ele>629.331543</ele><time>2021-07-17T12:50:44Z</time><extensions><speed>1.144309</speed><course>301.811188</course><hAcc>0.891258</hAcc><vAcc>0.723467</vAcc></extensions></trkpt>
      <trkpt lon="-4.158716" lat="53.015449"><ele>629.347290</ele><time>2021-07-17T12:50:45Z</time><extensions><speed>1.157117</speed><course>294.111877</course><hAcc>0.891225</hAcc><vAcc>0.723366</vAcc></extensions></trkpt>
      <trkpt lon="-4.158713" lat="53.015459"><ele>629.365295</ele><time>2021-07-17T12:50:46Z</time><extensions><speed>1.166735</speed><course>291.186249</course><hAcc>0.891184</hAcc><vAcc>0.723235</vAcc></extensions></trkpt>
      <trkpt lon="-4.158709" lat="53.015470"><ele>629.385681</ele><time>2021-07-17T12:50:47Z</time><extensions><speed>1.172151</speed><course>291.833313</course><hAcc>0.891136</hAcc><vAcc>0.723073</vAcc></extensions></trkpt>
      <trkpt lon="-4.158704" lat="53.015480"><ele>629.408386</ele><time>2021-07-17T12:50:48Z</time><extensions><speed>1.172683</speed><course>293.198639</course><hAcc>0.891084</hAcc><vAcc>0.722884</vAcc></extensions></trkpt>
      <trkpt lon="-4.158700" lat="53.015490"><ele>629.433289</ele><time>2021-07-17T12:50:49Z</time><extensions><speed>1.167624</speed><course>297.953094</course><hAcc>0.891030</hAcc><vAcc>0.722676</vAcc></extensions></trkpt>
      <trkpt lon="-4.158695" lat="53.015500"><ele>629.460022</ele><time>2021-07-17T12:50:50Z</time><extensions><speed>1.156369</speed><course>294.998413</course><hAcc>0.890976</hAcc><vAcc>0.722458</vAcc></extensions></trkpt>
      <trkpt lon="-4.158691" lat="53.015510"><ele>629.488098</ele><time>2021-07-17T12:50:51Z</time><extensions><speed>1.138349</speed><course>290.333923</course><hAcc>0.890924</hAcc><vAcc>0.722244</vAcc></extensions></trkpt>
      <trkpt lon="-4.158686" lat="53.015520"><ele>629.517212</ele><time>2021-07-17T12:50:52Z</time><extensions><speed>1.113148</speed><course>297.336884</course><hAcc>0.890876</hAcc><vAcc>0.722047</vAcc></extensions></trkpt>
      <trkpt lon="-4.158681" lat="53.015529"><ele>629.547546</ele><time>2021-07-17T12:50:53Z</time><extensions><speed>1.080691</speed><course>291.763641</course><hAcc>0.890835</hAcc><vAcc>0.721878</vAcc></extensions></trkpt>
      <trkpt lon="-4.158676" lat="53.015538"><ele>629.579041</ele><time>2021-07-17T12:50:54Z</time><extensions><speed>1.041296</speed><course>293.588959</course><hAcc>0.890803</hAcc><vAcc>0.721748</vAcc></extensions></trkpt>
      <trkpt lon="-4.158671" lat="53.015547"><ele>629.611755</ele><time>2021-07-17T12:50:55Z</time><extensions><speed>0.995545</speed><course>298.534668</course><hAcc>0.890781</hAcc><vAcc>0.721664</vAcc></extensions></trkpt>
      <trkpt lon="-4.158667" lat="53.015555"><ele>629.645691</ele><time>2021-07-17T12:50:56Z</time><extensions><speed>0.944440</speed><course>294.834351</course><hAcc>0.890768</hAcc><vAcc>0.721630</vAcc></extensions></trkpt>
      <trkpt lon="-4.158662" lat="53.015563"><ele>629.680237</ele><time>2021-07-17T12:50:57Z</time><extensions><speed>0.889715</speed><course>297.698059</course><hAcc>0.890766</hAcc><vAcc>0.721644</vAcc></extensions></trkpt>
      <trkpt lon="-4.158658" lat="53.015570"><ele>629.714539</ele><time>2021-07-17T12:50:58Z</time><extensions><speed>0.833798</speed><course>298.511444</course><hAcc>0.890774</hAcc><vAcc>0.721697</vAcc></extensions></trkpt>
      <trkpt lon="-4.158654" lat="53.015577"><ele>629.748047</ele><time>2021-07-17T12:50:59Z</time><extensions><speed>0.779462</speed><course>303.054443</course><hAcc>0.890790</hAcc><vAcc>0.721779</vAcc></extensions></trkpt>
      <trkpt lon="-4.158650" lat="53.015583"><ele>629.780579</ele><time>2021-07-17T12:51:00Z</time><extensions><speed>0.728918</speed><course>300.594757</course><hAcc>0.890813</hAcc><vAcc>0.721879</vAcc></extensions></trkpt>
      <trkpt lon="-4.158647" lat="53.015589"><ele>629.812256</ele><time>2021-07-17T12:51:01Z</time><extensions><speed>0.682900</speed><course>303.489990</course><hAcc>0.890842</hAcc><vAcc>0.721988</vAcc></extensions></trkpt>
      <trkpt lon="-4.158643" lat="53.015595"><ele>629.843262</ele><time>2021-07-17T12:51:02Z</time><extensions><speed>0.640661</speed><course>307.296783</course><hAcc>0.890872</hAcc><vAcc>0.722100</vAcc></extensions></trkpt>
      <trkpt lon="-4.158640" lat="53.015600"><ele>629.874329</ele><time>2021-07-17T12:51:03Z</time><extensions><speed>0.600754</speed><course>306.846466</course><hAcc>0.890903</hAcc><vAcc>0.722207</vAcc></extensions></trkpt>
      <trkpt lon="-4.158637" lat="53.015605"><ele>629.906128</ele><time>2021-07-17T12:51:04Z</time><extensions><speed>0.561933</speed><course>314.303711</course><hAcc>0.890932</hAcc><vAcc>0.722305</vAcc></extensions></trkpt>
      <trkpt lon="-4.158633" lat="53.015609"><ele>629.939575</ele><time>2021-07-17T12:51:05Z</time><extensions><speed>0.524205</speed><course>316.753265</course><hAcc>0.890958</hAcc><vAcc>0.722392</vAcc></extensions></trkpt>
      <trkpt lon="-4.158631" lat="53.015614"><ele>629.975281</ele><time>2021-07-17T12:51:06Z</time><extensions><speed>0.489387</speed><course>312.101562</course><hAcc>0.890980</hAcc><vAcc>0.722466</vAcc></extensions></trkpt>
      <trkpt lon="-4.158628" lat="53.015618"><ele>630.013672</ele><time>2021-07-17T12:51:07Z</time><extensions><speed>0.460663</speed><course>310.983948</course><hAcc>0.891001</hAcc><vAcc>0.722529</vAcc></extensions></trkpt>
      <trkpt lon="-4.158625" lat="53.015621"><ele>630.055176</ele><time>2021-07-17T12:51:08Z</time><extensions><speed>0.441416</speed><course>316.824890</course><hAcc>0.891023</hAcc><vAcc>0.722582</vAcc></extensions></trkpt>
      <trkpt lon="-4.158623" lat="53.015625"><ele>630.100037</ele><time>2021-07-17T12:51:09Z</time><extensions><speed>0.434010</speed><course>324.005005</course><hAcc>0.891052</hAcc><vAcc>0.722633</vAcc></extensions></trkpt>
      <trkpt lon="-4.158620" lat="53.015628"><ele>630.148315</ele><time>2021-07-17T12:51:10Z</time><extensions><speed>0.439668</speed><course>322.091736</course><hAcc>0.891099</hAcc><vAcc>0.722692</vAcc></extensions></trkpt>
      <trkpt lon="-4.158617" lat="53.015632"><ele>630.199951</ele><time>2021-07-17T12:51:11Z</time><extensions><speed>0.458819</speed><course>322.830170</course><hAcc>0.891176</hAcc><vAcc>0.722778</vAcc></extensions></trkpt>
      <trkpt lon="-4.158614" lat="53.015636"><ele>630.254700</ele><time>2021-07-17T12:51:12Z</time><extensions><speed>0.491111</speed><course>325.823517</course><hAcc>0.891303</hAcc><vAcc>0.722915</vAcc></extensions></trkpt>
      <trkpt lon="-4.158611" lat="53.015640"><ele>630.312195</ele><time>2021-07-17T12:51:13Z</time><extensions><speed>0.535397</speed><course>331.853210</course><hAcc>0.891505</hAcc><vAcc>0.723130</vAcc></extensions></trkpt>
      <trkpt lon="-4.158607" lat="53.015645"><ele>630.372009</ele><time>2021-07-17T12:51:14Z</time><extensions><speed>0.589704</speed><course>331.260956</course><hAcc>0.891812</hAcc><vAcc>0.723459</vAcc></extensions></trkpt>
      <trkpt lon="-4.158603" lat="53.015650"><ele>630.433594</ele><time>2021-07-17T12:51:15Z</time><extensions><speed>0.651279</speed><course>329.072571</course><hAcc>0.892260</hAcc><vAcc>0.723935</vAcc></extensions></trkpt>
      <trkpt lon="-4.158598" lat="53.015655"><ele>630.496399</ele><time>2021-07-17T12:51:16Z</time><extensions><speed>0.716519</speed><course>325.473938</course><hAcc>0.892891</hAcc><vAcc>0.724590</vAcc></extensions></trkpt>
      <trkpt lon="-4.158593" lat="53.015661"><ele>630.560059</ele><time>2021-07-17T12:51:17Z</time><extensions><speed>0.781728</speed><course>325.383026</course><hAcc>0.893744</hAcc><vAcc>0.725450</vAcc></extensions></trkpt>
      <trkpt lon="-4.158588" lat="53.015668"><ele>630.624146</ele><time>2021-07-17T12:51:18Z</time><extensions><speed>0.844186</speed><course>325.061401</course><hAcc>0.894854</hAcc><vAcc>0.726526</vAcc></extensions></trkpt>
      <trkpt lon="-4.158582" lat="53.015675"><ele>630.688110</ele><time>2021-07-17T12:51:19Z</time><extensions><speed>0.902254</speed><course>325.207275</course><hAcc>0.896244</hAcc><vAcc>0.727813</vAcc></extensions></trkpt>
      <trkpt lon="-4.158576" lat="53.015682"><ele>630.751587</ele><time>2021-07-17T12:51:20Z</time><extensions><speed>0.954776</speed><course>322.410889</course><hAcc>0.897912</hAcc><vAcc>0.729277</vAcc></extensions></trkpt>
      <trkpt lon="-4.158569" lat="53.015690"><ele>630.814209</ele><time>2021-07-17T12:51:21Z</time><extensions><speed>1.000903</speed><course>319.218658</course><hAcc>0.899825</hAcc><vAcc>0.730854</vAcc></extensions></trkpt>
      <trkpt lon="-4.158563" lat="53.015698"><ele>630.875793</ele><time>2021-07-17T12:51:22Z</time><extensions><speed>1.040089</speed><course>319.790588</course><hAcc>0.901904</hAcc><vAcc>0.732443</vAcc></extensions></trkpt>
      <trkpt lon="-4.158557" lat="53.015707"><ele>630.936096</ele><time>2021-07-17T12:51:23Z</time><extensions><speed>1.072137</speed><course>318.972229</course><hAcc>0.904019</hAcc><vAcc>0.733913</vAcc></extensions></trkpt>
      <trkpt lon="-4.158550" lat="53.015716"><ele>630.994873</ele><time>2021-07-17T12:51:24Z</time><extensions><speed>1.097421</speed><course>320.354065</course><hAcc>0.905997</hAcc><vAcc>0.735119</vAcc></extensions></trkpt>
      <trkpt lon="-4.158544" lat="53.015725"><ele>631.052124</ele><time>2021-07-17T12:51:25Z</time><extensions><speed>1.116580</speed><course>320.541016</course><hAcc>0.907643</hAcc><vAcc>0.735940</vAcc></extensions></trkpt>
      <trkpt lon="-4.158538" lat="53.015735"><ele>631.108398</ele><time>2021-07-17T12:51:26Z</time><extensions><speed>1.130223</speed><course>317.906189</course><hAcc>0.908794</hAcc><vAcc>0.736342</vAcc></extensions></trkpt>
      <trkpt lon="-4.158532" lat="53.015744"><ele>631.164062</ele><time>2021-07-17T12:51:27Z</time><extensions><speed>1.138953</speed><course>316.077393</course><hAcc>0.909421</hAcc><vAcc>0.736477</vAcc></extensions></trkpt>
      <trkpt lon="-4.158527" lat="53.015754"><ele>631.219543</ele><time>2021-07-17T12:51:28Z</time><extensions><speed>1.143558</speed><course>307.356537</course><hAcc>0.909796</hAcc><vAcc>0.736837</vAcc></extensions></trkpt>
      <trkpt lon="-4.158522" lat="53.015764"><ele>631.274902</ele><time>2021-07-17T12:51:29Z</time><extensions><speed>1.144887</speed><course>302.004150</course><hAcc>0.910747</hAcc><vAcc>0.738447</vAcc></extensions></trkpt>
      <trkpt lon="-4.158518" lat="53.015774"><ele>631.330322</ele><time>2021-07-17T12:51:30Z</time><extensions><speed>1.143671</speed><course>310.520874</course><hAcc>0.914013</hAcc><vAcc>0.743098</vAcc></extensions></trkpt>
      <trkpt lon="-4.158514" lat="53.015784"><ele>631.386292</ele><time>2021-07-17T12:51:31Z</time><extensions><speed>1.140714</speed><course>307.778412</course><hAcc>0.922680</hAcc><vAcc>0.753573</vAcc></extensions></trkpt>
      <trkpt lon="-4.158511" lat="53.015794"><ele>631.442993</ele><time>2021-07-17T12:51:32Z</time><extensions><speed>1.136696</speed><course>310.132080</course><hAcc>0.941574</hAcc><vAcc>0.773768</vAcc></extensions></trkpt>
      <trkpt lon="-4.158508" lat="53.015804"><ele>631.500366</ele><time>2021-07-17T12:51:33Z</time><extensions><speed>1.132518</speed><course>310.327301</course><hAcc>0.977381</hAcc><vAcc>0.808535</vAcc></extensions></trkpt>
      <trkpt lon="-4.158508" lat="53.015817"><ele>631.666443</ele><time>2021-07-17T12:51:34Z</time><extensions><speed>1.072842</speed><course>207.637573</course><hAcc>0.938996</hAcc><vAcc>0.772740</vAcc></extensions></trkpt>
      <trkpt lon="-4.158509" lat="53.015826"><ele>631.668701</ele><time>2021-07-17T12:51:35Z</time><extensions><speed>1.071067</speed><course>199.781464</course><hAcc>0.919336</hAcc><vAcc>0.751398</vAcc></extensions></trkpt>
      <trkpt lon="-4.158511" lat="53.015836"><ele>631.666138</ele><time>2021-07-17T12:51:36Z</time><extensions><speed>1.069397</speed><course>204.898392</course><hAcc>0.911084</hAcc><vAcc>0.740786</vAcc></extensions></trkpt>
      <trkpt lon="-4.158512" lat="53.015846"><ele>631.657288</ele><time>2021-07-17T12:51:37Z</time><extensions><speed>1.067334</speed><course>218.988647</course><hAcc>0.908739</hAcc><vAcc>0.736567</vAcc></extensions></trkpt>
      <trkpt lon="-4.158514" lat="53.015855"><ele>631.640869</ele><time>2021-07-17T12:51:38Z</time><extensions><speed>1.064515</speed><course>240.875916</course><hAcc>0.908789</hAcc><vAcc>0.735624</vAcc></extensions></trkpt>
      <trkpt lon="-4.158516" lat="53.015865"><ele>631.615967</ele><time>2021-07-17T12:51:39Z</time><extensions><speed>1.060643</speed><course>240.875916</course><hAcc>0.909273</hAcc><vAcc>0.735955</vAcc></extensions></trkpt>
      <trkpt lon="-4.158519" lat="53.015874"><ele>631.581787</ele><time>2021-07-17T12:51:40Z</time><extensions><speed>1.055448</speed><course>240.875916</course><hAcc>0.909276</hAcc><vAcc>0.736420</vAcc></extensions></trkpt>
      <trkpt lon="-4.158521" lat="53.015883"><ele>631.538147</ele><time>2021-07-17T12:51:41Z</time><extensions><speed>1.048762</speed><course>240.875916</course><hAcc>0.908520</hAcc><vAcc>0.736476</vAcc></extensions></trkpt>
      <trkpt lon="-4.158524" lat="53.015892"><ele>631.485107</ele><time>2021-07-17T12:51:42Z</time><extensions><speed>1.040553</speed><course>240.875916</course><hAcc>0.907073</hAcc><vAcc>0.735959</vAcc></extensions></trkpt>
      <trkpt lon="-4.158527" lat="53.015902"><ele>631.423340</ele><time>2021-07-17T12:51:43Z</time><extensions><speed>1.030916</speed><course>240.875916</course><hAcc>0.905151</hAcc><vAcc>0.734925</vAcc></extensions></trkpt>
      <trkpt lon="-4.158530" lat="53.015911"><ele>631.353516</ele><time>2021-07-17T12:51:44Z</time><extensions><speed>1.020199</speed><course>269.430084</course><hAcc>0.903005</hAcc><vAcc>0.733532</vAcc></extensions></trkpt>
      <trkpt lon="-4.158533" lat="53.015920"><ele>631.276367</ele><time>2021-07-17T12:51:45Z</time><extensions><speed>1.008847</speed><course>274.056000</course><hAcc>0.900863</hAcc><vAcc>0.731976</vAcc></extensions></trkpt>
      <trkpt lon="-4.158536" lat="53.015928"><ele>631.193054</ele><time>2021-07-17T12:51:46Z</time><extensions><speed>0.997194</speed><course>273.580658</course><hAcc>0.898900</hAcc><vAcc>0.730441</vAcc></extensions></trkpt>
      <trkpt lon="-4.158538" lat="53.015937"><ele>631.104675</ele><time>2021-07-17T12:51:47Z</time><extensions><speed>0.985403</speed><course>266.285736</course><hAcc>0.897238</hAcc><vAcc>0.729084</vAcc></extensions></trkpt>
      <trkpt lon="-4.158541" lat="53.015946"><ele>631.012634</ele><time>2021-07-17T12:51:48Z</time><extensions><speed>0.973747</speed><course>280.416809</course><hAcc>0.895949</hAcc><vAcc>0.728018</vAcc></extensions></trkpt>
      <trkpt lon="-4.158544" lat="53.015954"><ele>630.918091</ele><time>2021-07-17T12:51:49Z</time><extensions><speed>0.962750</speed><course>289.633057</course><hAcc>0.895072</hAcc><vAcc>0.727319</vAcc></extensions></trkpt>
      <trkpt lon="-4.158546" lat="53.015963"><ele>630.822754</ele><time>2021-07-17T12:51:50Z</time><extensions><speed>0.952937</speed><course>274.042023</course><hAcc>0.894622</hAcc><vAcc>0.727025</vAcc></extensions></trkpt>
      <trkpt lon="-4.158549" lat="53.015971"><ele>630.728577</ele><time>2021-07-17T12:51:51Z</time><extensions><speed>0.944780</speed><course>259.398621</course><hAcc>0.894601</hAcc><vAcc>0.727145</vAcc></extensions></trkpt>
      <trkpt lon="-4.158551" lat="53.015980"><ele>630.637573</ele><time>2021-07-17T12:51:52Z</time><extensions><speed>0.938654</speed><course>235.228027</course><hAcc>0.895003</hAcc><vAcc>0.727669</vAcc></extensions></trkpt>
      <trkpt lon="-4.158553" lat="53.015988"><ele>630.551758</ele><time>2021-07-17T12:51:53Z</time><extensions><speed>0.934738</speed><course>233.943741</course><hAcc>0.895819</hAcc><vAcc>0.728559</vAcc></extensions></trkpt>
      <trkpt lon="-4.158554" lat="53.015996"><ele>630.472717</ele><time>2021-07-17T12:51:54Z</time><extensions><speed>0.933262</speed><course>251.986771</course><hAcc>0.897029</hAcc><vAcc>0.729757</vAcc></extensions></trkpt>
      <trkpt lon="-4.158556" lat="53.016005"><ele>630.401611</ele><time>2021-07-17T12:51:55Z</time><extensions><speed>0.934460</speed><course>230.632401</course><hAcc>0.898595</hAcc><vAcc>0.731183</vAcc></extensions></trkpt>
      <trkpt lon="-4.158557" lat="53.016013"><ele>630.339417</ele><time>2021-07-17T12:51:56Z</time><extensions><speed>0.938306</speed><course>208.539734</course><hAcc>0.900455</hAcc><vAcc>0.732733</vAcc></extensions></trkpt>
      <trkpt lon="-4.158558" lat="53.016021"><ele>630.286865</ele><time>2021-07-17T12:51:57Z</time><extensions><speed>0.944599</speed><course>217.062653</course><hAcc>0.902508</hAcc><vAcc>0.734279</vAcc></extensions></trkpt>
      <trkpt lon="-4.158558" lat="53.016030"><ele>630.244080</ele><time>2021-07-17T12:51:58Z</time><extensions><speed>0.952962</speed><course>216.480164</course><hAcc>0.904595</hAcc><vAcc>0.735663</vAcc></extensions></trkpt>
      <trkpt lon="-4.158559" lat="53.016039"><ele>630.211243</ele><time>2021-07-17T12:51:59Z</time><extensions><speed>0.962648</speed><course>215.204285</course><hAcc>0.906526</hAcc><vAcc>0.736730</vAcc></extensions></trkpt>
      <trkpt lon="-4.158559" lat="53.016047"><ele>630.188171</ele><time>2021-07-17T12:52:00Z</time><extensions><speed>0.972809</speed><course>192.608246</course><hAcc>0.908121</hAcc><vAcc>0.737372</vAcc></extensions></trkpt>
      <trkpt lon="-4.158559" lat="53.016056"><ele>630.174438</ele><time>2021-07-17T12:52:01Z</time><extensions><speed>0.982906</speed><course>196.818375</course><hAcc>0.909212</hAcc><vAcc>0.737562</vAcc></extensions></trkpt>
      <trkpt lon="-4.158558" lat="53.016065"><ele>630.169495</ele><time>2021-07-17T12:52:02Z</time><extensions><speed>0.992691</speed><course>200.564194</course><hAcc>0.909768</hAcc><vAcc>0.737460</vAcc></extensions></trkpt>
      <trkpt lon="-4.158557" lat="53.016074"><ele>630.172241</ele><time>2021-07-17T12:52:03Z</time><extensions><speed>1.002166</speed><course>224.718231</course><hAcc>0.910060</hAcc><vAcc>0.737561</vAcc></extensions></trkpt>
      <trkpt lon="-4.158556" lat="53.016083"><ele>630.181641</ele><time>2021-07-17T12:52:04Z</time><extensions><speed>1.011629</speed><course>228.969803</course><hAcc>0.910915</hAcc><vAcc>0.738891</vAcc></extensions></trkpt>
      <trkpt lon="-4.158555" lat="53.016092"><ele>630.196045</ele><time>2021-07-17T12:52:05Z</time><extensions><speed>1.021366</speed><course>250.366501</course><hAcc>0.914074</hAcc><vAcc>0.743239</vAcc></extensions></trkpt>
      <trkpt lon="-4.158553" lat="53.016101"><ele>630.213379</ele><time>2021-07-17T12:52:06Z</time><extensions><speed>1.031309</speed><course>-1.000000</course><hAcc>0.922620</hAcc><vAcc>0.753390</vAcc></extensions></trkpt>
      <trkpt lon="-4.158551" lat="53.016110"><ele>630.231750</ele><time>2021-07-17T12:52:07Z</time><extensions><speed>1.040940</speed><course>232.063629</course><hAcc>0.941385</hAcc><vAcc>0.773238</vAcc></extensions></trkpt>
      <trkpt lon="-4.158549" lat="53.016120"><ele>630.250122</ele><time>2021-07-17T12:52:08Z</time><extensions><speed>1.049616</speed><course>232.063614</course><hAcc>0.977062</hAcc><vAcc>0.807646</vAcc></extensions></trkpt>
      <trkpt lon="-4.158544" lat="53.016131"><ele>630.209595</ele><time>2021-07-17T12:52:09Z</time><extensions><speed>1.199430</speed><course>207.637573</course><hAcc>0.938720</hAcc><vAcc>0.771928</vAcc></extensions></trkpt>
      <trkpt lon="-4.158538" lat="53.016141"><ele>630.164612</ele><time>2021-07-17T12:52:10Z</time><extensions><speed>1.213439</speed><course>199.781464</course><hAcc>0.919039</hAcc><vAcc>0.750469</vAcc></extensions></trkpt>
      <trkpt lon="-4.158532" lat="53.016151"><ele>630.108582</ele><time>2021-07-17T12:52:11Z</time><extensions><speed>1.228818</speed><course>204.898392</course><hAcc>0.910775</hAcc><vAcc>0.739778</vAcc></extensions></trkpt>
      <trkpt lon="-4.158525" lat="53.016161"><ele>630.041138</ele><time>2021-07-17T12:52:12Z</time><extensions><speed>1.244969</speed><course>218.988647</course><hAcc>0.908427</hAcc><vAcc>0.735523</vAcc></extensions></trkpt>
      <trkpt lon="-4.158518" lat="53.016172"><ele>629.962219</ele><time>2021-07-17T12:52:13Z</time><extensions><speed>1.261287</speed><course>240.875916</course><hAcc>0.908483</hAcc><vAcc>0.734593</vAcc></extensions></trkpt>
      <trkpt lon="-4.158510" lat="53.016182"><ele>629.871826</ele><time>2021-07-17T12:52:14Z</time><extensions><speed>1.277094</speed><course>240.875916</course><hAcc>0.908979</hAcc><vAcc>0.734985</vAcc></extensions></trkpt>
      <trkpt lon="-4.158502" lat="53.016193"><ele>629.770508</ele><time>2021-07-17T12:52:15Z</time><extensions><speed>1.291648</speed><course>240.875916</course><hAcc>0.908996</hAcc><vAcc>0.735554</vAcc></extensions></trkpt>
      <trkpt lon="-4.158493" lat="53.016203"><ele>629.659180</ele><time>2021-07-17T12:52:16Z</time><extensions><speed>1.304329</speed><course>240.875916</course><hAcc>0.908254</hAcc><vAcc>0.735747</vAcc></extensions></trkpt>
      <trkpt lon="-4.158485" lat="53.016214"><ele>629.539185</ele><time>2021-07-17T12:52:17Z</time><extensions><speed>1.314849</speed><course>240.875916</course><hAcc>0.906833</hAcc><vAcc>0.735399</vAcc></extensions></trkpt>
      <trkpt lon="-4.158476" lat="53.016224"><ele>629.411987</ele><time>2021-07-17T12:52:18Z</time><extensions><speed>1.323137</speed><course>240.875916</course><hAcc>0.904941</hAcc><vAcc>0.734536</vAcc></extensions></trkpt>
      <trkpt lon="-4.158466" lat="53.016235"><ele>629.280396</ele><time>2021-07-17T12:52:19Z</time><extensions><speed>1.328913</speed><course>269.430084</course><hAcc>0.902801</hAcc><vAcc>0.733272</vAcc></extensions></trkpt>
      <trkpt lon="-4.158457" lat="53.016245"><ele>629.147522</ele><time>2021-07-17T12:52:20Z</time><extensions><speed>1.332375</speed><course>274.056000</course><hAcc>0.900631</hAcc><vAcc>0.731765</vAcc></extensions></trkpt>
      <trkpt lon="-4.158447" lat="53.016256"><ele>629.015930</ele><time>2021-07-17T12:52:21Z</time><extensions><speed>1.333880</speed><course>273.580658</course><hAcc>0.898589</hAcc><vAcc>0.730163</vAcc></extensions></trkpt>
      <trkpt lon="-4.158438" lat="53.016266"><ele>628.887390</ele><time>2021-07-17T12:52:22Z</time><extensions><speed>1.333376</speed><course>266.285736</course><hAcc>0.896778</hAcc><vAcc>0.728588</vAcc></extensions></trkpt>
      <trkpt lon="-4.158428" lat="53.016277"><ele>628.762390</ele><time>2021-07-17T12:52:23Z</time><extensions><speed>1.330969</speed><course>280.416809</course><hAcc>0.895246</hAcc><vAcc>0.727130</vAcc></extensions></trkpt>
      <trkpt lon="-4.158418" lat="53.016287"><ele>628.640381</ele><time>2021-07-17T12:52:24Z</time><extensions><speed>1.326703</speed><course>289.633057</course><hAcc>0.894003</hAcc><vAcc>0.725843</vAcc></extensions></trkpt>
      <trkpt lon="-4.158408" lat="53.016297"><ele>628.520569</ele><time>2021-07-17T12:52:25Z</time><extensions><speed>1.320525</speed><course>274.042023</course><hAcc>0.893032</hAcc><vAcc>0.724751</vAcc></extensions></trkpt>
      <trkpt lon="-4.158398" lat="53.016307"><ele>628.402527</ele><time>2021-07-17T12:52:26Z</time><extensions><speed>1.312650</speed><course>259.398621</course><hAcc>0.892300</hAcc><vAcc>0.723857</vAcc></extensions></trkpt>
      <trkpt lon="-4.158388" lat="53.016317"><ele>628.285522</ele><time>2021-07-17T12:52:27Z</time><extensions><speed>1.303523</speed><course>235.228027</course><hAcc>0.891767</hAcc><vAcc>0.723153</vAcc></extensions></trkpt>
      <trkpt lon="-4.158378" lat="53.016327"><ele>628.168274</ele><time>2021-07-17T12:52:28Z</time><extensions><speed>1.293144</speed><course>233.943741</course><hAcc>0.891393</hAcc><vAcc>0.722623</vAcc></extensions></trkpt>
      <trkpt lon="-4.158368" lat="53.016337"><ele>628.049988</ele><time>2021-07-17T12:52:29Z</time><extensions><speed>1.281163</speed><course>251.986771</course><hAcc>0.891142</hAcc><vAcc>0.722246</vAcc></extensions></trkpt>
      <trkpt lon="-4.158358" lat="53.016347"><ele>627.930542</ele><time>2021-07-17T12:52:30Z</time><extensions><speed>1.267511</speed><course>230.632401</course><hAcc>0.890981</hAcc><vAcc>0.721999</vAcc></extensions></trkpt>
      <trkpt lon="-4.158347" lat="53.016356"><ele>627.810425</ele><time>2021-07-17T12:52:31Z</time><extensions><speed>1.251969</speed><course>208.539734</course><hAcc>0.890887</hAcc><vAcc>0.721858</vAcc></extensions></trkpt>
      <trkpt lon="-4.158337" lat="53.016366"><ele>627.690491</ele><time>2021-07-17T12:52:32Z</time><extensions><speed>1.234505</speed><course>217.062653</course><hAcc>0.890839</hAcc><vAcc>0.721803</vAcc></extensions></trkpt>
      <trkpt lon="-4.158327" lat="53.016375"><ele>627.570984</ele><time>2021-07-17T12:52:33Z</time><extensions><speed>1.215260</speed><course>216.480164</course><hAcc>0.890821</hAcc><vAcc>0.721813</vAcc></extensions></trkpt>
      <trkpt lon="-4.158317" lat="53.016384"><ele>627.452026</ele><time>2021-07-17T12:52:34Z</time><extensions><speed>1.194381</speed><course>215.204285</course><hAcc>0.890824</hAcc><vAcc>0.721870</vAcc></extensions></trkpt>
      <trkpt lon="-4.158307" lat="53.016393"><ele>627.334229</ele><time>2021-07-17T12:52:34Z</time><extensions><speed>1.172420</speed><course>192.608246</course><hAcc>0.890856</hAcc><vAcc>0.721974</vAcc></extensions></trkpt>
      <trkpt lon="-4.158297" lat="53.016401"><ele>627.217468</ele><time>2021-07-17T12:52:36Z</time><extensions><speed>1.150252</speed><course>196.818375</course><hAcc>0.890895</hAcc><vAcc>0.722100</vAcc></extensions></trkpt>
      <trkpt lon="-4.158287" lat="53.016409"><ele>627.102356</ele><time>2021-07-17T12:52:37Z</time><extensions><speed>1.129506</speed><course>200.564194</course><hAcc>0.890920</hAcc><vAcc>0.722223</vAcc></extensions></trkpt>
      <trkpt lon="-4.158277" lat="53.016417"><ele>626.988953</ele><time>2021-07-17T12:52:38Z</time><extensions><speed>1.111518</speed><course>224.718231</course><hAcc>0.890945</hAcc><vAcc>0.722344</vAcc></extensions></trkpt>
      <trkpt lon="-4.158267" lat="53.016425"><ele>626.877930</ele><time>2021-07-17T12:52:39Z</time><extensions><speed>1.097329</speed><course>228.969803</course><hAcc>0.890970</hAcc><vAcc>0.722451</vAcc></extensions></trkpt>
      <trkpt lon="-4.158257" lat="53.016433"><ele>626.769714</ele><time>2021-07-17T12:52:40Z</time><extensions><speed>1.087696</speed><course>250.366501</course><hAcc>0.890992</hAcc><vAcc>0.722538</vAcc></extensions></trkpt>
      <trkpt lon="-4.158248" lat="53.016441"><ele>626.664734</ele><time>2021-07-17T12:52:41Z</time><extensions><speed>1.083016</speed><course>-1.000000</course><hAcc>0.891011</hAcc><vAcc>0.722604</vAcc></extensions></trkpt>
      <trkpt lon="-4.158238" lat="53.016449"><ele>626.563782</ele><time>2021-07-17T12:52:42Z</time><extensions><speed>1.083677</speed><course>232.063629</course><hAcc>0.891024</hAcc><vAcc>0.722649</vAcc></extensions></trkpt>
      <trkpt lon="-4.158229" lat="53.016457"><ele>626.467163</ele><time>2021-07-17T12:52:43Z</time><extensions><speed>1.090125</speed><course>232.063614</course><hAcc>0.891030</hAcc><vAcc>0.722676</vAcc></extensions></trkpt>
      <trkpt lon="-4.158219" lat="53.016465"><ele>626.374756</ele><time>2021-07-17T12:52:44Z</time><extensions><speed>1.102416</speed><course>232.063614</course><hAcc>0.891030</hAcc><vAcc>0.722683</vAcc></extensions></trkpt>
      <trkpt lon="-4.158210" lat="53.016473"><ele>626.285828</ele><time>2021-07-17T12:52:45Z</time><extensions><speed>1.120031</speed><course>232.063599</course><hAcc>0.891021</hAcc><vAcc>0.722668</vAcc></extensions></trkpt>
      <trkpt lon="-4.158200" lat="53.016481"><ele>626.199280</ele><time>2021-07-17T12:52:46Z</time><extensions><speed>1.141937</speed><course>232.063599</course><hAcc>0.891005</hAcc><vAcc>0.722630</vAcc></extensions></trkpt>
      <trkpt lon="-4.158190" lat="53.016490"><ele>626.113647</ele><time>2021-07-17T12:52:47Z</time><extensions><speed>1.166507</speed><course>232.063583</course><hAcc>0.890979</hAcc><vAcc>0.722567</vAcc></extensions></trkpt>
      <trkpt lon="-4.158180" lat="53.016499"><ele>626.028015</ele><time>2021-07-17T12:52:48Z</time><extensions><speed>1.191634</speed><course>232.063583</course><hAcc>0.890944</hAcc><vAcc>0.722476</vAcc></extensions></trkpt>
      <trkpt lon="-4.158171" lat="53.016508"><ele>625.941895</ele><time>2021-07-17T12:52:49Z</time><extensions><speed>1.215447</speed><course>248.555511</course><hAcc>0.890900</hAcc><vAcc>0.722350</vAcc></extensions></trkpt>
      <trkpt lon="-4.158161" lat="53.016517"><ele>625.855042</ele><time>2021-07-17T12:52:50Z</time><extensions><speed>1.236423</speed><course>214.727661</course><hAcc>0.890848</hAcc><vAcc>0.722187</vAcc></extensions></trkpt>
      <trkpt lon="-4.158151" lat="53.016527"><ele>625.766968</ele><time>2021-07-17T12:52:51Z</time><extensions><speed>1.253486</speed><course>215.656113</course><hAcc>0.890787</hAcc><vAcc>0.721987</vAcc></extensions></trkpt>
      <trkpt lon="-4.158142" lat="53.016537"><ele>625.677063</ele><time>2021-07-17T12:52:52Z</time><extensions><speed>1.266221</speed><course>205.637772</course><hAcc>0.890719</hAcc><vAcc>0.721754</vAcc></extensions></trkpt>
      <trkpt lon="-4.158133" lat="53.016547"><ele>625.584106</ele><time>2021-07-17T12:52:53Z</time><extensions><speed>1.274240</speed><course>201.575424</course><hAcc>0.890644</hAcc><vAcc>0.721496</vAcc></extensions></trkpt>
      <trkpt lon="-4.158125" lat="53.016557"><ele>625.487305</ele><time>2021-07-17T12:52:54Z</time><extensions><speed>1.277319</speed><course>196.854248</course><hAcc>0.890564</hAcc><vAcc>0.721218</vAcc></extensions></trkpt>
      <trkpt lon="-4.158117" lat="53.016567"><ele>625.386536</ele><time>2021-07-17T12:52:55Z</time><extensions><speed>1.275618</speed><course>198.264053</course><hAcc>0.890482</hAcc><vAcc>0.720929</vAcc></extensions></trkpt>
      <trkpt lon="-4.158109" lat="53.016578"><ele>625.281616</ele><time>2021-07-17T12:52:56Z</time><extensions><speed>1.269298</speed><course>198.636932</course><hAcc>0.890401</hAcc><vAcc>0.720637</vAcc></extensions></trkpt>
      <trkpt lon="-4.158102" lat="53.016588"><ele>625.172241</ele><time>2021-07-17T12:52:57Z</time><extensions><speed>1.258229</speed><course>192.727798</course><hAcc>0.890323</hAcc><vAcc>0.720353</vAcc></extensions></trkpt>
      <trkpt lon="-4.158096" lat="53.016599"><ele>625.058044</ele><time>2021-07-17T12:52:58Z</time><extensions><speed>1.242026</speed><course>184.691818</course><hAcc>0.890252</hAcc><vAcc>0.720086</vAcc></extensions></trkpt>
      <trkpt lon="-4.158090" lat="53.016609"><ele>624.938965</ele><time>2021-07-17T12:52:59Z</time><extensions><speed>1.220198</speed><course>177.917740</course><hAcc>0.890191</hAcc><vAcc>0.719849</vAcc></extensions></trkpt>
      <trkpt lon="-4.158085" lat="53.016620"><ele>624.814941</ele><time>2021-07-17T12:53:00Z</time><extensions><speed>1.192391</speed><course>169.935883</course><hAcc>0.890143</hAcc><vAcc>0.719654</vAcc></extensions></trkpt>
      <trkpt lon="-4.158081" lat="53.016630"><ele>624.685974</ele><time>2021-07-17T12:53:01Z</time><extensions><speed>1.158496</speed><course>168.290512</course><hAcc>0.890111</hAcc><vAcc>0.719513</vAcc></extensions></trkpt>
      <trkpt lon="-4.158077" lat="53.016640"><ele>624.552185</ele><time>2021-07-17T12:53:02Z</time><extensions><speed>1.118487</speed><course>175.847488</course><hAcc>0.890096</hAcc><vAcc>0.719438</vAcc></extensions></trkpt>
      <trkpt lon="-4.158074" lat="53.016650"><ele>624.414368</ele><time>2021-07-17T12:53:03Z</time><extensions><speed>1.072412</speed><course>182.489380</course><hAcc>0.890101</hAcc><vAcc>0.719437</vAcc></extensions></trkpt>
      <trkpt lon="-4.158072" lat="53.016659"><ele>624.273254</ele><time>2021-07-17T12:53:04Z</time><extensions><speed>1.020259</speed><course>193.224472</course><hAcc>0.890124</hAcc><vAcc>0.719515</vAcc></extensions></trkpt>
      <trkpt lon="-4.158070" lat="53.016668"><ele>624.129944</ele><time>2021-07-17T12:53:05Z</time><extensions><speed>0.961972</speed><course>210.457108</course><hAcc>0.890165</hAcc><vAcc>0.719670</vAcc></extensions></trkpt>
      <trkpt lon="-4.158070" lat="53.016676"><ele>623.985718</ele><time>2021-07-17T12:53:06Z</time><extensions><speed>0.898000</speed><course>227.054108</course><hAcc>0.890223</hAcc><vAcc>0.719897</vAcc></extensions></trkpt>
      <trkpt lon="-4.158069" lat="53.016684"><ele>623.841858</ele><time>2021-07-17T12:53:07Z</time><extensions><speed>0.829079</speed><course>247.666534</course><hAcc>0.890294</hAcc><vAcc>0.720184</vAcc></extensions></trkpt>
      <trkpt lon="-4.158069" lat="53.016691"><ele>623.699829</ele><time>2021-07-17T12:53:08Z</time><extensions><speed>0.755854</speed><course>261.197876</course><hAcc>0.890377</hAcc><vAcc>0.720513</vAcc></extensions></trkpt>
      <trkpt lon="-4.158070" lat="53.016697"><ele>623.561401</ele><time>2021-07-17T12:53:09Z</time><extensions><speed>0.679325</speed><course>263.217255</course><hAcc>0.890466</hAcc><vAcc>0.720866</vAcc></extensions></trkpt>
      <trkpt lon="-4.158071" lat="53.016703"><ele>623.428345</ele><time>2021-07-17T12:53:10Z</time><extensions><speed>0.600880</speed><course>271.463165</course><hAcc>0.890559</hAcc><vAcc>0.721223</vAcc></extensions></trkpt>
      <trkpt lon="-4.158071" lat="53.016708"><ele>623.302063</ele><time>2021-07-17T12:53:11Z</time><extensions><speed>0.522085</speed><course>281.991608</course><hAcc>0.890652</hAcc><vAcc>0.721565</vAcc></extensions></trkpt>
      <trkpt lon="-4.158072" lat="53.016713"><ele>623.184082</ele><time>2021-07-17T12:53:12Z</time><extensions><speed>0.444773</speed><course>285.895782</course><hAcc>0.890742</hAcc><vAcc>0.721879</vAcc></extensions></trkpt>
      <trkpt lon="-4.158073" lat="53.016716"><ele>623.075317</ele><time>2021-07-17T12:53:13Z</time><extensions><speed>0.370897</speed><course>287.327179</course><hAcc>0.890826</hAcc><vAcc>0.722155</vAcc></extensions></trkpt>
      <trkpt lon="-4.158074" lat="53.016719"><ele>622.976135</ele><time>2021-07-17T12:53:14Z</time><extensions><speed>0.302052</speed><course>297.396240</course><hAcc>0.890903</hAcc><vAcc>0.722390</vAcc></extensions></trkpt>
      <trkpt lon="-4.158074" lat="53.016722"><ele>622.886780</ele><time>2021-07-17T12:53:15Z</time><extensions><speed>0.239397</speed><course>299.473175</course><hAcc>0.890969</hAcc><vAcc>0.722584</vAcc></extensions></trkpt>
      <trkpt lon="-4.158075" lat="53.016723"><ele>622.806946</ele><time>2021-07-17T12:53:16Z</time><extensions><speed>0.183713</speed><course>297.683289</course><hAcc>0.891025</hAcc><vAcc>0.722740</vAcc></extensions></trkpt>
      <trkpt lon="-4.158075" lat="53.016725"><ele>622.736206</ele><time>2021-07-17T12:53:17Z</time><extensions><speed>0.135245</speed><course>292.365356</course><hAcc>0.891070</hAcc><vAcc>0.722864</vAcc></extensions></trkpt>
      <trkpt lon="-4.158076" lat="53.016726"><ele>622.674194</ele><time>2021-07-17T12:53:18Z</time><extensions><speed>0.093835</speed><course>291.092651</course><hAcc>0.891103</hAcc><vAcc>0.722960</vAcc></extensions></trkpt>
      <trkpt lon="-4.158076" lat="53.016727"><ele>622.620300</ele><time>2021-07-17T12:53:19Z</time><extensions><speed>0.059173</speed><course>297.007721</course><hAcc>0.891126</hAcc><vAcc>0.723028</vAcc></extensions></trkpt>
      <trkpt lon="-4.158076" lat="53.016727"><ele>622.573792</ele><time>2021-07-17T12:53:20Z</time><extensions><speed>0.030791</speed><course>291.539093</course><hAcc>0.891138</hAcc><vAcc>0.723071</vAcc></extensions></trkpt>
      <trkpt lon="-4.158076" lat="53.016727"><ele>622.533813</ele><time>2021-07-17T12:53:21Z</time><extensions><speed>0.008187</speed><course>293.314819</course><hAcc>0.891142</hAcc><vAcc>0.723088</vAcc></extensions></trkpt>
      <trkpt lon="-4.158076" lat="53.016727"><ele>622.499756</ele><time>2021-07-17T12:53:22Z</time><extensions><speed>0.009160</speed><course>297.043213</course><hAcc>0.891136</hAcc><vAcc>0.723081</vAcc></extensions></trkpt>
      <trkpt lon="-4.158076" lat="53.016727"><ele>622.470947</ele><time>2021-07-17T12:53:23Z</time><extensions><speed>0.021968</speed><course>301.573547</course><hAcc>0.891124</hAcc><vAcc>0.723045</vAcc></extensions></trkpt>
      <trkpt lon="-4.158076" lat="53.016727"><ele>622.446777</ele><time>2021-07-17T12:53:24Z</time><extensions><speed>0.031147</speed><course>305.542847</course><hAcc>0.891107</hAcc><vAcc>0.722983</vAcc></extensions></trkpt>
      <trkpt lon="-4.158076" lat="53.016726"><ele>622.426697</ele><time>2021-07-17T12:53:25Z</time><extensions><speed>0.037565</speed><course>304.461029</course><hAcc>0.891086</hAcc><vAcc>0.722895</vAcc></extensions></trkpt>
      <trkpt lon="-4.158075" lat="53.016726"><ele>622.410217</ele><time>2021-07-17T12:53:26Z</time><extensions><speed>0.041947</speed><course>304.519958</course><hAcc>0.891063</hAcc><vAcc>0.722788</vAcc></extensions></trkpt>
      <trkpt lon="-4.158075" lat="53.016726"><ele>622.396851</ele><time>2021-07-17T12:53:27Z</time><extensions><speed>0.044874</speed><course>306.835541</course><hAcc>0.891039</hAcc><vAcc>0.722670</vAcc></extensions></trkpt>
      <trkpt lon="-4.158074" lat="53.016726"><ele>622.386169</ele><time>2021-07-17T12:53:28Z</time><extensions><speed>0.046762</speed><course>312.924469</course><hAcc>0.891016</hAcc><vAcc>0.722554</vAcc></extensions></trkpt>
      <trkpt lon="-4.158074" lat="53.016725"><ele>622.377808</ele><time>2021-07-17T12:53:29Z</time><extensions><speed>0.047829</speed><course>313.121582</course><hAcc>0.890996</hAcc><vAcc>0.722452</vAcc></extensions></trkpt>
      <trkpt lon="-4.158073" lat="53.016725"><ele>622.371338</ele><time>2021-07-17T12:53:30Z</time><extensions><speed>0.048097</speed><course>312.363678</course><hAcc>0.890977</hAcc><vAcc>0.722375</vAcc></extensions></trkpt>
      <trkpt lon="-4.158073" lat="53.016725"><ele>622.366333</ele><time>2021-07-17T12:53:31Z</time><extensions><speed>0.047520</speed><course>309.905548</course><hAcc>0.890962</hAcc><vAcc>0.722328</vAcc></extensions></trkpt>
      <trkpt lon="-4.158072" lat="53.016724"><ele>622.362427</ele><time>2021-07-17T12:53:32Z</time><extensions><speed>0.046181</speed><course>308.597687</course><hAcc>0.890950</hAcc><vAcc>0.722313</vAcc></extensions></trkpt>
      <trkpt lon="-4.158072" lat="53.016724"><ele>622.359375</ele><time>2021-07-17T12:53:33Z</time><extensions><speed>0.044397</speed><course>307.103394</course><hAcc>0.890940</hAcc><vAcc>0.722322</vAcc></extensions></trkpt>
      <trkpt lon="-4.158071" lat="53.016724"><ele>622.357056</ele><time>2021-07-17T12:53:34Z</time><extensions><speed>0.042793</speed><course>306.897400</course><hAcc>0.890934</hAcc><vAcc>0.722344</vAcc></extensions></trkpt>
      <trkpt lon="-4.158070" lat="53.016724"><ele>622.355408</ele><time>2021-07-17T12:53:35Z</time><extensions><speed>0.041976</speed><course>302.152618</course><hAcc>0.890930</hAcc><vAcc>0.722364</vAcc></extensions></trkpt>
      <trkpt lon="-4.158070" lat="53.016724"><ele>622.354248</ele><time>2021-07-17T12:53:36Z</time><extensions><speed>0.042154</speed><course>297.726410</course><hAcc>0.890929</hAcc><vAcc>0.722376</vAcc></extensions></trkpt>
      <trkpt lon="-4.158069" lat="53.016724"><ele>622.353516</ele><time>2021-07-17T12:53:37Z</time><extensions><speed>0.043148</speed><course>300.194183</course><hAcc>0.890927</hAcc><vAcc>0.722375</vAcc></extensions></trkpt>
      <trkpt lon="-4.158069" lat="53.016724"><ele>622.352966</ele><time>2021-07-17T12:53:38Z</time><extensions><speed>0.044546</speed><course>297.151825</course><hAcc>0.890926</hAcc><vAcc>0.722362</vAcc></extensions></trkpt>
      <trkpt lon="-4.158068" lat="53.016725"><ele>622.352417</ele><time>2021-07-17T12:53:39Z</time><extensions><speed>0.046008</speed><course>298.399384</course><hAcc>0.890923</hAcc><vAcc>0.722340</vAcc></extensions></trkpt>
      <trkpt lon="-4.158067" lat="53.016725"><ele>622.351624</ele><time>2021-07-17T12:53:40Z</time><extensions><speed>0.047365</speed><course>300.837921</course><hAcc>0.890918</hAcc><vAcc>0.722310</vAcc></extensions></trkpt>
      <trkpt lon="-4.158067" lat="53.016725"><ele>622.350281</ele><time>2021-07-17T12:53:41Z</time><extensions><speed>0.048501</speed><course>299.844330</course><hAcc>0.890912</hAcc><vAcc>0.722277</vAcc></extensions></trkpt>
      <trkpt lon="-4.158066" lat="53.016725"><ele>622.348145</ele><time>2021-07-17T12:53:42Z</time><extensions><speed>0.049396</speed><course>300.001373</course><hAcc>0.890904</hAcc><vAcc>0.722241</vAcc></extensions></trkpt>
      <trkpt lon="-4.158066" lat="53.016726"><ele>622.344971</ele><time>2021-07-17T12:53:43Z</time><extensions><speed>0.050018</speed><course>294.568817</course><hAcc>0.890895</hAcc><vAcc>0.722205</vAcc></extensions></trkpt>
      <trkpt lon="-4.158065" lat="53.016726"><ele>622.340637</ele><time>2021-07-17T12:53:44Z</time><extensions><speed>0.050291</speed><course>300.687103</course><hAcc>0.890885</hAcc><vAcc>0.722170</vAcc></extensions></trkpt>
      <trkpt lon="-4.158065" lat="53.016726"><ele>622.335144</ele><time>2021-07-17T12:53:45Z</time><extensions><speed>0.050134</speed><course>297.691925</course><hAcc>0.890874</hAcc><vAcc>0.722137</vAcc></extensions></trkpt>
      <trkpt lon="-4.158064" lat="53.016727"><ele>622.328674</ele><time>2021-07-17T12:53:46Z</time><extensions><speed>0.049482</speed><course>293.928223</course><hAcc>0.890863</hAcc><vAcc>0.722106</vAcc></extensions></trkpt>
      <trkpt lon="-4.158064" lat="53.016727"><ele>622.321106</ele><time>2021-07-17T12:53:47Z</time><extensions><speed>0.048297</speed><course>297.041656</course><hAcc>0.890851</hAcc><vAcc>0.722078</vAcc></extensions></trkpt>
      <trkpt lon="-4.158063" lat="53.016727"><ele>622.312317</ele><time>2021-07-17T12:53:48Z</time><extensions><speed>0.046462</speed><course>298.722290</course><hAcc>0.890840</hAcc><vAcc>0.722053</vAcc></extensions></trkpt>
      <trkpt lon="-4.158063" lat="53.016728"><ele>622.302185</ele><time>2021-07-17T12:53:49Z</time><extensions><speed>0.043822</speed><course>296.674316</course><hAcc>0.890829</hAcc><vAcc>0.722027</vAcc></extensions></trkpt>
      <trkpt lon="-4.158063" lat="53.016728"><ele>622.290710</ele><time>2021-07-17T12:53:50Z</time><extensions><speed>0.040195</speed><course>301.147156</course><hAcc>0.890819</hAcc><vAcc>0.721998</vAcc></extensions></trkpt>
      <trkpt lon="-4.158062" lat="53.016728"><ele>622.278198</ele><time>2021-07-17T12:53:51Z</time><extensions><speed>0.035294</speed><course>301.618805</course><hAcc>0.890812</hAcc><vAcc>0.721965</vAcc></extensions></trkpt>
      <trkpt lon="-4.158062" lat="53.016728"><ele>622.264832</ele><time>2021-07-17T12:53:52Z</time><extensions><speed>0.029238</speed><course>300.678009</course><hAcc>0.890808</hAcc><vAcc>0.721929</vAcc></extensions></trkpt>
      <trkpt lon="-4.158062" lat="53.016729"><ele>622.250916</ele><time>2021-07-17T12:53:53Z</time><extensions><speed>0.022804</speed><course>306.078644</course><hAcc>0.890807</hAcc><vAcc>0.721897</vAcc></extensions></trkpt>
      <trkpt lon="-4.158062" lat="53.016729"><ele>622.236877</ele><time>2021-07-17T12:53:54Z</time><extensions><speed>0.017435</speed><course>302.099213</course><hAcc>0.890810</hAcc><vAcc>0.721876</vAcc></extensions></trkpt>
      <trkpt lon="-4.158062" lat="53.016729"><ele>622.223022</ele><time>2021-07-17T12:53:55Z</time><extensions><speed>0.015777</speed><course>298.253754</course><hAcc>0.890818</hAcc><vAcc>0.721875</vAcc></extensions></trkpt>
      <trkpt lon="-4.158062" lat="53.016729"><ele>622.209534</ele><time>2021-07-17T12:53:56Z</time><extensions><speed>0.019461</speed><course>299.772583</course><hAcc>0.890830</hAcc><vAcc>0.721901</vAcc></extensions></trkpt>
      <trkpt lon="-4.158062" lat="53.016729"><ele>622.196594</ele><time>2021-07-17T12:53:57Z</time><extensions><speed>0.026376</speed><course>299.946075</course><hAcc>0.890846</hAcc><vAcc>0.721956</vAcc></extensions></trkpt>
      <trkpt lon="-4.158062" lat="53.016729"><ele>622.184143</ele><time>2021-07-17T12:53:58Z</time><extensions><speed>0.034269</speed><course>303.968170</course><hAcc>0.890865</hAcc><vAcc>0.722037</vAcc></extensions></trkpt>
      <trkpt lon="-4.158063" lat="53.016729"><ele>622.172485</ele><time>2021-07-17T12:53:59Z</time><extensions><speed>0.041964</speed><course>302.223755</course><hAcc>0.890885</hAcc><vAcc>0.722138</vAcc></extensions></trkpt>
      <trkpt lon="-4.158064" lat="53.016729"><ele>622.162354</ele><time>2021-07-17T12:54:00Z</time><extensions><speed>0.048786</speed><course>303.590851</course><hAcc>0.890906</hAcc><vAcc>0.722245</vAcc></extensions></trkpt>
      <trkpt lon="-4.158064" lat="53.016729"><ele>622.154419</ele><time>2021-07-17T12:54:01Z</time><extensions><speed>0.054300</speed><course>302.656281</course><hAcc>0.890926</hAcc><vAcc>0.722346</vAcc></extensions></trkpt>
      <trkpt lon="-4.158065" lat="53.016729"><ele>622.149292</ele><time>2021-07-17T12:54:02Z</time><extensions><speed>0.058084</speed><course>307.857574</course><hAcc>0.890943</hAcc><vAcc>0.722429</vAcc></extensions></trkpt>
      <trkpt lon="-4.158066" lat="53.016729"><ele>622.147278</ele><time>2021-07-17T12:54:03Z</time><extensions><speed>0.060171</speed><course>306.241272</course><hAcc>0.890956</hAcc><vAcc>0.722484</vAcc></extensions></trkpt>
      <trkpt lon="-4.158067" lat="53.016729"><ele>622.148254</ele><time>2021-07-17T12:54:04Z</time><extensions><speed>0.061108</speed><course>302.560516</course><hAcc>0.890963</hAcc><vAcc>0.722506</vAcc></extensions></trkpt>
      <trkpt lon="-4.158068" lat="53.016729"><ele>622.152100</ele><time>2021-07-17T12:54:05Z</time><extensions><speed>0.061357</speed><course>304.207947</course><hAcc>0.890963</hAcc><vAcc>0.722492</vAcc></extensions></trkpt>
      <trkpt lon="-4.158069" lat="53.016729"><ele>622.158569</ele><time>2021-07-17T12:54:06Z</time><extensions><speed>0.061294</speed><course>304.678192</course><hAcc>0.890957</hAcc><vAcc>0.722444</vAcc></extensions></trkpt>
      <trkpt lon="-4.158070" lat="53.016729"><ele>622.167358</ele><time>2021-07-17T12:54:07Z</time><extensions><speed>0.061255</speed><course>300.816559</course><hAcc>0.890945</hAcc><vAcc>0.722367</vAcc></extensions></trkpt>
      <trkpt lon="-4.158071" lat="53.016729"><ele>622.178040</ele><time>2021-07-17T12:54:08Z</time><extensions><speed>0.061421</speed><course>302.457642</course><hAcc>0.890930</hAcc><vAcc>0.722265</vAcc></extensions></trkpt>
      <trkpt lon="-4.158072" lat="53.016729"><ele>622.190430</ele><time>2021-07-17T12:54:09Z</time><extensions><speed>0.061802</speed><course>303.405792</course><hAcc>0.890916</hAcc><vAcc>0.722149</vAcc></extensions></trkpt>
      <trkpt lon="-4.158073" lat="53.016729"><ele>622.204041</ele><time>2021-07-17T12:54:10Z</time><extensions><speed>0.062301</speed><course>305.179382</course><hAcc>0.890906</hAcc><vAcc>0.722033</vAcc></extensions></trkpt>
      <trkpt lon="-4.158074" lat="53.016729"><ele>622.218811</ele><time>2021-07-17T12:54:11Z</time><extensions><speed>0.062682</speed><course>301.811188</course><hAcc>0.890891</hAcc><vAcc>0.721920</vAcc></extensions></trkpt>
      <trkpt lon="-4.158074" lat="53.016729"><ele>622.234314</ele><time>2021-07-17T12:54:12Z</time><extensions><speed>0.062636</speed><course>294.111877</course><hAcc>0.890877</hAcc><vAcc>0.721832</vAcc></extensions></trkpt>
      <trkpt lon="-4.158075" lat="53.016729"><ele>622.250305</ele><time>2021-07-17T12:54:13Z</time><extensions><speed>0.061955</speed><course>291.186249</course><hAcc>0.890891</hAcc><vAcc>0.721804</vAcc></extensions></trkpt>
      <trkpt lon="-4.158076" lat="53.016729"><ele>622.266479</ele><time>2021-07-17T12:54:14Z</time><extensions><speed>0.060375</speed><course>291.833313</course><hAcc>0.890945</hAcc><vAcc>0.721866</vAcc></extensions></trkpt>
      <trkpt lon="-4.158077" lat="53.016729"><ele>622.282410</ele><time>2021-07-17T12:54:15Z</time><extensions><speed>0.057507</speed><course>293.198639</course><hAcc>0.891054</hAcc><vAcc>0.722046</vAcc></extensions></trkpt>
      <trkpt lon="-4.158078" lat="53.016729"><ele>622.297852</ele><time>2021-07-17T12:54:16Z</time><extensions><speed>0.053241</speed><course>297.953094</course><hAcc>0.891236</hAcc><vAcc>0.722375</vAcc></extensions></trkpt>
      <trkpt lon="-4.158079" lat="53.016729"><ele>622.312622</ele><time>2021-07-17T12:54:17Z</time><extensions><speed>0.047855</speed><course>294.998413</course><hAcc>0.891516</hAcc><vAcc>0.722880</vAcc></extensions></trkpt>
      <trkpt lon="-4.158079" lat="53.016730"><ele>622.326538</ele><time>2021-07-17T12:54:18Z</time><extensions><speed>0.041836</speed><course>290.333923</course><hAcc>0.891920</hAcc><vAcc>0.723585</vAcc></extensions></trkpt>
      <trkpt lon="-4.158080" lat="53.016730"><ele>622.339417</ele><time>2021-07-17T12:54:19Z</time><extensions><speed>0.035651</speed><course>297.336884</course><hAcc>0.892483</hAcc><vAcc>0.724509</vAcc></extensions></trkpt>
      <trkpt lon="-4.158080" lat="53.016730"><ele>622.351135</ele><time>2021-07-17T12:54:20Z</time><extensions><speed>0.029619</speed><course>291.763641</course><hAcc>0.893237</hAcc><vAcc>0.725661</vAcc></extensions></trkpt>
      <trkpt lon="-4.158081" lat="53.016730"><ele>622.361511</ele><time>2021-07-17T12:54:21Z</time><extensions><speed>0.023965</speed><course>293.588959</course><hAcc>0.894217</hAcc><vAcc>0.727042</vAcc></extensions></trkpt>
      <trkpt lon="-4.158081" lat="53.016730"><ele>622.370605</ele><time>2021-07-17T12:54:22Z</time><extensions><speed>0.018838</speed><course>298.534668</course><hAcc>0.895451</hAcc><vAcc>0.728639</vAcc></extensions></trkpt>
      <trkpt lon="-4.158081" lat="53.016730"><ele>622.378418</ele><time>2021-07-17T12:54:23Z</time><extensions><speed>0.014332</speed><course>294.834351</course><hAcc>0.896968</hAcc><vAcc>0.730431</vAcc></extensions></trkpt>
      <trkpt lon="-4.158082" lat="53.016730"><ele>622.385010</ele><time>2021-07-17T12:54:24Z</time><extensions><speed>0.010468</speed><course>297.698059</course><hAcc>0.898763</hAcc><vAcc>0.732365</vAcc></extensions></trkpt>
      <trkpt lon="-4.158082" lat="53.016730"><ele>622.390442</ele><time>2021-07-17T12:54:24Z</time><extensions><speed>0.007267</speed><course>298.511444</course><hAcc>0.900795</hAcc><vAcc>0.734352</vAcc></extensions></trkpt>
      <trkpt lon="-4.158082" lat="53.016730"><ele>622.394897</ele><time>2021-07-17T12:54:25Z</time><extensions><speed>0.004709</speed><course>303.054443</course><hAcc>0.902985</hAcc><vAcc>0.736279</vAcc></extensions></trkpt>
      <trkpt lon="-4.158082" lat="53.016730"><ele>622.398438</ele><time>2021-07-17T12:54:26Z</time><extensions><speed>0.002820</speed><course>300.594757</course><hAcc>0.905185</hAcc><vAcc>0.737991</vAcc></extensions></trkpt>
      <trkpt lon="-4.158082" lat="53.016730"><ele>622.401123</ele><time>2021-07-17T12:54:27Z</time><extensions><speed>0.001749</speed><course>303.489990</course><hAcc>0.907224</hAcc><vAcc>0.739348</vAcc></extensions></trkpt>
      <trkpt lon="-4.158082" lat="53.016730"><ele>622.403137</ele><time>2021-07-17T12:54:28Z</time><extensions><speed>0.001670</speed><course>307.296783</course><hAcc>0.908913</hAcc><vAcc>0.740241</vAcc></extensions></trkpt>
      <trkpt lon="-4.158082" lat="53.016730"><ele>622.404541</ele><time>2021-07-17T12:54:29Z</time><extensions><speed>0.002069</speed><course>306.846466</course><hAcc>0.910096</hAcc><vAcc>0.740661</vAcc></extensions></trkpt>
      <trkpt lon="-4.158082" lat="53.016730"><ele>622.405457</ele><time>2021-07-17T12:54:30Z</time><extensions><speed>0.002449</speed><course>314.303711</course><hAcc>0.910753</hAcc><vAcc>0.740793</vAcc></extensions></trkpt>
      <trkpt lon="-4.158082" lat="53.016730"><ele>622.405945</ele><time>2021-07-17T12:54:31Z</time><extensions><speed>0.002693</speed><course>316.753265</course><hAcc>0.911170</hAcc><vAcc>0.741164</vAcc></extensions></trkpt>
      <trkpt lon="-4.158082" lat="53.016730"><ele>622.406189</ele><time>2021-07-17T12:54:33Z</time><extensions><speed>0.002807</speed><course>312.101562</course><hAcc>0.912169</hAcc><vAcc>0.742822</vAcc></extensions></trkpt>
      <trkpt lon="-4.158082" lat="53.016730"><ele>622.406128</ele><time>2021-07-17T12:54:34Z</time><extensions><speed>0.002819</speed><course>310.983948</course><hAcc>0.915504</hAcc><vAcc>0.747591</vAcc></extensions></trkpt>
      <trkpt lon="-4.158082" lat="53.016730"><ele>622.405823</ele><time>2021-07-17T12:54:34Z</time><extensions><speed>0.002764</speed><course>316.824890</course><hAcc>0.924290</hAcc><vAcc>0.758291</vAcc></extensions></trkpt>
      <trkpt lon="-4.158082" lat="53.016730"><ele>622.405457</ele><time>2021-07-17T12:54:35Z</time><extensions><speed>0.002672</speed><course>324.005005</course><hAcc>0.943366</hAcc><vAcc>0.778843</vAcc></extensions></trkpt>
      <trkpt lon="-4.158082" lat="53.016730"><ele>622.404968</ele><time>2021-07-17T12:54:36Z</time><extensions><speed>0.002567</speed><course>322.091736</course><hAcc>0.979379</hAcc><vAcc>0.814074</vAcc></extensions></trkpt>
      <trkpt lon="-4.158080" lat="53.016728"><ele>622.449158</ele><time>2021-07-17T12:54:37Z</time><extensions><speed>0.039725</speed><course>207.637573</course><hAcc>0.941324</hAcc><vAcc>0.778625</vAcc></extensions></trkpt>
      <trkpt lon="-4.158080" lat="53.016728"><ele>622.459229</ele><time>2021-07-17T12:54:38Z</time><extensions><speed>0.038444</speed><course>199.781464</course><hAcc>0.921908</hAcc><vAcc>0.757529</vAcc></extensions></trkpt>
      <trkpt lon="-4.158079" lat="53.016728"><ele>622.468567</ele><time>2021-07-17T12:54:39Z</time><extensions><speed>0.036147</speed><course>204.898392</course><hAcc>0.914119</hAcc><vAcc>0.747477</vAcc></extensions></trkpt>
      <trkpt lon="-4.158079" lat="53.016728"><ele>622.476807</ele><time>2021-07-17T12:54:40Z</time><extensions><speed>0.032489</speed><course>218.988647</course><hAcc>0.912483</hAcc><vAcc>0.744130</vAcc></extensions></trkpt>
      <trkpt lon="-4.158078" lat="53.016727"><ele>622.483276</ele><time>2021-07-17T12:54:41Z</time><extensions><speed>0.027235</speed><course>240.875916</course><hAcc>0.913509</hAcc><vAcc>0.744352</vAcc></extensions></trkpt>
      <trkpt lon="-4.158078" lat="53.016727"><ele>622.487488</ele><time>2021-07-17T12:54:42Z</time><extensions><speed>0.020771</speed><course>240.875916</course><hAcc>0.915247</hAcc><vAcc>0.746109</vAcc></extensions></trkpt>
      <trkpt lon="-4.158078" lat="53.016727"><ele>622.488464</ele><time>2021-07-17T12:54:43Z</time><extensions><speed>0.016582</speed><course>240.875916</course><hAcc>0.916785</hAcc><vAcc>0.748210</vAcc></extensions></trkpt>
      <trkpt lon="-4.158078" lat="53.016728"><ele>622.485352</ele><time>2021-07-17T12:54:44Z</time><extensions><speed>0.023533</speed><course>240.875916</course><hAcc>0.917826</hAcc><vAcc>0.750044</vAcc></extensions></trkpt>
      <trkpt lon="-4.158078" lat="53.016728"><ele>622.476929</ele><time>2021-07-17T12:54:45Z</time><extensions><speed>0.041702</speed><course>240.875916</course><hAcc>0.918387</hAcc><vAcc>0.751350</vAcc></extensions></trkpt>
      <trkpt lon="-4.158078" lat="53.016728"><ele>622.462097</ele><time>2021-07-17T12:54:46Z</time><extensions><speed>0.067512</speed><course>240.875916</course><hAcc>0.918594</hAcc><vAcc>0.752054</vAcc></extensions></trkpt>
      <trkpt lon="-4.158078" lat="53.016729"><ele>622.439331</ele><time>2021-07-17T12:54:47Z</time><extensions><speed>0.100298</speed><course>269.430084</course><hAcc>0.918559</hAcc><vAcc>0.752160</vAcc></extensions></trkpt>
      <trkpt lon="-4.158080" lat="53.016730"><ele>622.407227</ele><time>2021-07-17T12:54:48Z</time><extensions><speed>0.140237</speed><course>274.056000</course><hAcc>0.918326</hAcc><vAcc>0.751698</vAcc></extensions></trkpt>
      <trkpt lon="-4.158081" lat="53.016731"><ele>622.364197</ele><time>2021-07-17T12:54:50Z</time><extensions><speed>0.187677</speed><course>273.580658</course><hAcc>0.917847</hAcc><vAcc>0.750704</vAcc></extensions></trkpt>
      <trkpt lon="-4.158083" lat="53.016733"><ele>622.308777</ele><time>2021-07-17T12:54:51Z</time><extensions><speed>0.242497</speed><course>266.285736</course><hAcc>0.917072</hAcc><vAcc>0.749296</vAcc></extensions></trkpt>
      <trkpt lon="-4.158086" lat="53.016734"><ele>622.239502</ele><time>2021-07-17T12:54:52Z</time><extensions><speed>0.304523</speed><course>280.416809</course><hAcc>0.916053</hAcc><vAcc>0.747757</vAcc></extensions></trkpt>
      <trkpt lon="-4.158089" lat="53.016737"><ele>622.155090</ele><time>2021-07-17T12:54:53Z</time><extensions><speed>0.373025</speed><course>289.633057</course><hAcc>0.915086</hAcc><vAcc>0.746665</vAcc></extensions></trkpt>
      <trkpt lon="-4.158094" lat="53.016739"><ele>622.054504</ele><time>2021-07-17T12:54:54Z</time><extensions><speed>0.446660</speed><course>274.042023</course><hAcc>0.915002</hAcc><vAcc>0.747107</vAcc></extensions></trkpt>
      <trkpt lon="-4.158099" lat="53.016742"><ele>621.937256</ele><time>2021-07-17T12:54:55Z</time><extensions><speed>0.523324</speed><course>259.398621</course><hAcc>0.917530</hAcc><vAcc>0.750914</vAcc></extensions></trkpt>
      <trkpt lon="-4.158105" lat="53.016745"><ele>621.803345</ele><time>2021-07-17T12:54:56Z</time><extensions><speed>0.599984</speed><course>235.228027</course><hAcc>0.925731</hAcc><vAcc>0.760895</vAcc></extensions></trkpt>
      <trkpt lon="-4.158112" lat="53.016749"><ele>621.653564</ele><time>2021-07-17T12:54:57Z</time><extensions><speed>0.672508</speed><course>233.943741</course><hAcc>0.944402</hAcc><vAcc>0.780949</vAcc></extensions></trkpt>
      <trkpt lon="-4.158120" lat="53.016753"><ele>621.489868</ele><time>2021-07-17T12:54:58Z</time><extensions><speed>0.735501</speed><course>251.986771</course><hAcc>0.980187</hAcc><vAcc>0.815908</vAcc></extensions></trkpt>
      <trkpt lon="-4.158129" lat="53.016759"><ele>621.227600</ele><time>2021-07-17T12:54:59Z</time><extensions><speed>1.080366</speed><course>207.637573</course><hAcc>0.941110</hAcc><vAcc>0.778758</vAcc></extensions></trkpt>
      <trkpt lon="-4.158141" lat="53.016766"><ele>621.033447</ele><time>2021-07-17T12:55:00Z</time><extensions><speed>1.065490</speed><course>199.781464</course><hAcc>0.921148</hAcc><vAcc>0.756760</vAcc></extensions></trkpt>
      <trkpt lon="-4.158152" lat="53.016773"><ele>620.851501</ele><time>2021-07-17T12:55:01Z</time><extensions><speed>1.044786</speed><course>204.898392</course><hAcc>0.912628</hAcc><vAcc>0.745571</vAcc></extensions></trkpt>
      <trkpt lon="-4.158163" lat="53.016779"><ele>620.684143</ele><time>2021-07-17T12:55:02Z</time><extensions><speed>1.021814</speed><course>218.988647</course><hAcc>0.910058</hAcc><vAcc>0.740850</vAcc></extensions></trkpt>
      <trkpt lon="-4.158173" lat="53.016786"><ele>620.532654</ele><time>2021-07-17T12:55:03Z</time><extensions><speed>0.999105</speed><course>240.875916</course><hAcc>0.909926</hAcc><vAcc>0.739462</vAcc></extensions></trkpt>
      <trkpt lon="-4.158184" lat="53.016792"><ele>620.397888</ele><time>2021-07-17T12:55:04Z</time><extensions><speed>0.978335</speed><course>240.875916</course><hAcc>0.910261</hAcc><vAcc>0.739382</vAcc></extensions></trkpt>
      <trkpt lon="-4.158194" lat="53.016798"><ele>620.279968</ele><time>2021-07-17T12:55:05Z</time><extensions><speed>0.960574</speed><course>240.875916</course><hAcc>0.910135</hAcc><vAcc>0.739450</vAcc></extensions></trkpt>
      <trkpt lon="-4.158204" lat="53.016804"><ele>620.178284</ele><time>2021-07-17T12:55:06Z</time><extensions><speed>0.946971</speed><course>240.875916</course><hAcc>0.909262</hAcc><vAcc>0.739110</vAcc></extensions></trkpt>
      <trkpt lon="-4.158214" lat="53.016810"><ele>620.091431</ele><time>2021-07-17T12:55:07Z</time><extensions><speed>0.938691</speed><course>240.875916</course><hAcc>0.907698</hAcc><vAcc>0.738189</vAcc></extensions></trkpt>
      <trkpt lon="-4.158224" lat="53.016816"><ele>620.017700</ele><time>2021-07-17T12:55:08Z</time><extensions><speed>0.936433</speed><course>240.875916</course><hAcc>0.905649</hAcc><vAcc>0.736730</vAcc></extensions></trkpt>
      <trkpt lon="-4.158234" lat="53.016822"><ele>619.955444</ele><time>2021-07-17T12:55:09Z</time><extensions><speed>0.940725</speed><course>269.430084</course><hAcc>0.903359</hAcc><vAcc>0.734884</vAcc></extensions></trkpt>
      <trkpt lon="-4.158245" lat="53.016827"><ele>619.902771</ele><time>2021-07-17T12:55:10Z</time><extensions><speed>0.952053</speed><course>274.056000</course><hAcc>0.901044</hAcc><vAcc>0.732831</vAcc></extensions></trkpt>
      <trkpt lon="-4.158256" lat="53.016833"><ele>619.857910</ele><time>2021-07-17T12:55:11Z</time><extensions><speed>0.970619</speed><course>273.580658</course><hAcc>0.898869</hAcc><vAcc>0.730743</vAcc></extensions></trkpt>
      <trkpt lon="-4.158267" lat="53.016839"><ele>619.819031</ele><time>2021-07-17T12:55:12Z</time><extensions><speed>0.995425</speed><course>266.285736</course><hAcc>0.896938</hAcc><vAcc>0.728756</vAcc></extensions></trkpt>
      <trkpt lon="-4.158278" lat="53.016845"><ele>619.784363</ele><time>2021-07-17T12:55:13Z</time><extensions><speed>1.023962</speed><course>280.416809</course><hAcc>0.895302</hAcc><vAcc>0.726967</vAcc></extensions></trkpt>
      <trkpt lon="-4.158290" lat="53.016851"><ele>619.752258</ele><time>2021-07-17T12:55:14Z</time><extensions><speed>1.053150</speed><course>289.633057</course><hAcc>0.893973</hAcc><vAcc>0.725432</vAcc></extensions></trkpt>
      <trkpt lon="-4.158303" lat="53.016857"><ele>619.721558</ele><time>2021-07-17T12:55:15Z</time><extensions><speed>1.080334</speed><course>274.042023</course><hAcc>0.892931</hAcc><vAcc>0.724172</vAcc></extensions></trkpt>
      <trkpt lon="-4.158315" lat="53.016863"><ele>619.691528</ele><time>2021-07-17T12:55:16Z</time><extensions><speed>1.104105</speed><course>259.398621</course><hAcc>0.892143</hAcc><vAcc>0.723178</vAcc></extensions></trkpt>
      <trkpt lon="-4.158328" lat="53.016869"><ele>619.661194</ele><time>2021-07-17T12:55:17Z</time><extensions><speed>1.123809</speed><course>235.228027</course><hAcc>0.891567</hAcc><vAcc>0.722421</vAcc></extensions></trkpt>
      <trkpt lon="-4.158342" lat="53.016875"><ele>619.629089</ele><time>2021-07-17T12:55:18Z</time><extensions><speed>1.138797</speed><course>233.943741</course><hAcc>0.891158</hAcc><vAcc>0.721862</vAcc></extensions></trkpt>
      <trkpt lon="-4.158355" lat="53.016882"><ele>619.594055</ele><time>2021-07-17T12:55:19Z</time><extensions><speed>1.148594</speed><course>251.986771</course><hAcc>0.890875</hAcc><vAcc>0.721460</vAcc></extensions></trkpt>
      <trkpt lon="-4.158368" lat="53.016888"><ele>619.555786</ele><time>2021-07-17T12:55:20Z</time><extensions><speed>1.153125</speed><course>230.632401</course><hAcc>0.890683</hAcc><vAcc>0.721171</vAcc></extensions></trkpt>
      <trkpt lon="-4.158382" lat="53.016895"><ele>619.513794</ele><time>2021-07-17T12:55:21Z</time><extensions><speed>1.152735</speed><course>208.539734</course><hAcc>0.890553</hAcc><vAcc>0.720958</vAcc></extensions></trkpt>
      <trkpt lon="-4.158395" lat="53.016901"><ele>619.467041</ele><time>2021-07-17T12:55:22Z</time><extensions><speed>1.148042</speed><course>217.062653</course><hAcc>0.890462</hAcc><vAcc>0.720786</vAcc></extensions></trkpt>
      <trkpt lon="-4.158408" lat="53.016908"><ele>619.414246</ele><time>2021-07-17T12:55:23Z</time><extensions><speed>1.139643</speed><course>216.480164</course><hAcc>0.890394</hAcc><vAcc>0.720629</vAcc></extensions></trkpt>
      <trkpt lon="-4.158421" lat="53.016914"><ele>619.354431</ele><time>2021-07-17T12:55:24Z</time><extensions><speed>1.127605</speed><course>215.204285</course><hAcc>0.890338</hAcc><vAcc>0.720469</vAcc></extensions></trkpt>
      <trkpt lon="-4.158434" lat="53.016921"><ele>619.286865</ele><time>2021-07-17T12:55:25Z</time><extensions><speed>1.111594</speed><course>192.608246</course><hAcc>0.890285</hAcc><vAcc>0.720295</vAcc></extensions></trkpt>
      <trkpt lon="-4.158447" lat="53.016927"><ele>619.211487</ele><time>2021-07-17T12:55:26Z</time><extensions><speed>1.091733</speed><course>196.818375</course><hAcc>0.890233</hAcc><vAcc>0.720105</vAcc></extensions></trkpt>
      <trkpt lon="-4.158459" lat="53.016933"><ele>619.128174</ele><time>2021-07-17T12:55:27Z</time><extensions><speed>1.069130</speed><course>200.564194</course><hAcc>0.890180</hAcc><vAcc>0.719901</vAcc></extensions></trkpt>
      <trkpt lon="-4.158471" lat="53.016939"><ele>619.036560</ele><time>2021-07-17T12:55:28Z</time><extensions><speed>1.045673</speed><course>224.718231</course><hAcc>0.890125</hAcc><vAcc>0.719693</vAcc></extensions></trkpt>
      <trkpt lon="-4.158482" lat="53.016946"><ele>618.936951</ele><time>2021-07-17T12:55:29Z</time><extensions><speed>1.023416</speed><course>228.969803</course><hAcc>0.890070</hAcc><vAcc>0.719491</vAcc></extensions></trkpt>
      <trkpt lon="-4.158494" lat="53.016952"><ele>618.830017</ele><time>2021-07-17T12:55:30Z</time><extensions><speed>1.004217</speed><course>250.366501</course><hAcc>0.890017</hAcc><vAcc>0.719304</vAcc></extensions></trkpt>
      <trkpt lon="-4.158505" lat="53.016958"><ele>618.716431</ele><time>2021-07-17T12:55:31Z</time><extensions><speed>0.989820</speed><course>-1.000000</course><hAcc>0.889967</hAcc><vAcc>0.719139</vAcc></extensions></trkpt>
      <trkpt lon="-4.158516" lat="53.016964"><ele>618.596069</ele><time>2021-07-17T12:55:32Z</time><extensions><speed>0.981796</speed><course>232.063629</course><hAcc>0.889924</hAcc><vAcc>0.719001</vAcc></extensions></trkpt>
      <trkpt lon="-4.158526" lat="53.016969"><ele>618.468628</ele><time>2021-07-17T12:55:33Z</time><extensions><speed>0.980674</speed><course>232.063614</course><hAcc>0.889888</hAcc><vAcc>0.718893</vAcc></extensions></trkpt>
      <trkpt lon="-4.158537" lat="53.016975"><ele>618.333862</ele><time>2021-07-17T12:55:34Z</time><extensions><speed>0.984934</speed><course>232.063614</course><hAcc>0.889861</hAcc><vAcc>0.718814</vAcc></extensions></trkpt>
      <trkpt lon="-4.158548" lat="53.016981"><ele>618.191772</ele><time>2021-07-17T12:55:35Z</time><extensions><speed>0.992256</speed><course>232.063599</course><hAcc>0.889844</hAcc><vAcc>0.718765</vAcc></extensions></trkpt>
      <trkpt lon="-4.158559" lat="53.016987"><ele>618.042908</ele><time>2021-07-17T12:55:36Z</time><extensions><speed>1.001012</speed><course>232.063599</course><hAcc>0.889840</hAcc><vAcc>0.718748</vAcc></extensions></trkpt>
      <trkpt lon="-4.158570" lat="53.016993"><ele>617.888000</ele><time>2021-07-17T12:55:37Z</time><extensions><speed>1.010008</speed><course>232.063583</course><hAcc>0.889846</hAcc><vAcc>0.718765</vAcc></extensions></trkpt>
      <trkpt lon="-4.158582" lat="53.017000"><ele>617.727905</ele><time>2021-07-17T12:55:38Z</time><extensions><speed>1.018122</speed><course>232.063583</course><hAcc>0.889864</hAcc><vAcc>0.718818</vAcc></extensions></trkpt>
      <trkpt lon="-4.158593" lat="53.017006"><ele>617.562988</ele><time>2021-07-17T12:55:39Z</time><extensions><speed>1.024606</speed><course>248.555511</course><hAcc>0.889892</hAcc><vAcc>0.718911</vAcc></extensions></trkpt>
      <trkpt lon="-4.158604" lat="53.017012"><ele>617.393616</ele><time>2021-07-17T12:55:40Z</time><extensions><speed>1.029173</speed><course>214.727661</course><hAcc>0.889930</hAcc><vAcc>0.719042</vAcc></extensions></trkpt>
      <trkpt lon="-4.158616" lat="53.017018"><ele>617.219910</ele><time>2021-07-17T12:55:41Z</time><extensions><speed>1.031724</speed><course>215.656113</course><hAcc>0.889976</hAcc><vAcc>0.719208</vAcc></extensions></trkpt>
      <trkpt lon="-4.158627" lat="53.017024"><ele>617.042053</ele><time>2021-07-17T12:55:42Z</time><extensions><speed>1.032157</speed><course>205.637772</course><hAcc>0.890029</hAcc><vAcc>0.719404</vAcc></extensions></trkpt>
      <trkpt lon="-4.158639" lat="53.017030"><ele>616.859924</ele><time>2021-07-17T12:55:43Z</time><extensions><speed>1.030079</speed><course>201.575424</course><hAcc>0.890087</hAcc><vAcc>0.719619</vAcc></extensions></trkpt>
      <trkpt lon="-4.158650" lat="53.017036"><ele>616.673767</ele><time>2021-07-17T12:55:44Z</time><extensions><speed>1.025168</speed><course>196.854248</course><hAcc>0.890149</hAcc><vAcc>0.719844</vAcc></extensions></trkpt>
      <trkpt lon="-4.158661" lat="53.017043"><ele>616.484314</ele><time>2021-07-17T12:55:45Z</time><extensions><speed>1.017288</speed><course>198.264053</course><hAcc>0.890212</hAcc><vAcc>0.720070</vAcc></extensions></trkpt>
      <trkpt lon="-4.158673" lat="53.017049"><ele>616.292603</ele><time>2021-07-17T12:55:46Z</time><extensions><speed>1.006042</speed><course>198.636932</course><hAcc>0.890274</hAcc><vAcc>0.720290</vAcc></extensions></trkpt>
      <trkpt lon="-4.158683" lat="53.017055"><ele>616.099792</ele><time>2021-07-17T12:55:47Z</time><extensions><speed>0.991071</speed><course>192.727798</course><hAcc>0.890331</hAcc><vAcc>0.720501</vAcc></extensions></trkpt>
      <trkpt lon="-4.158694" lat="53.017061"><ele>615.907349</ele><time>2021-07-17T12:55:48Z</time><extensions><speed>0.972605</speed><course>184.691818</course><hAcc>0.890384</hAcc><vAcc>0.720694</vAcc></extensions></trkpt>
      <trkpt lon="-4.158704" lat="53.017067"><ele>615.717163</ele><time>2021-07-17T12:55:49Z</time><extensions><speed>0.951770</speed><course>177.917740</course><hAcc>0.890429</hAcc><vAcc>0.720864</vAcc></extensions></trkpt>
      <trkpt lon="-4.158714" lat="53.017073"><ele>615.531433</ele><time>2021-07-17T12:55:50Z</time><extensions><speed>0.930397</speed><course>169.935883</course><hAcc>0.890466</hAcc><vAcc>0.721002</vAcc></extensions></trkpt>
      <trkpt lon="-4.158722" lat="53.017080"><ele>615.352661</ele><time>2021-07-17T12:55:51Z</time><extensions><speed>0.910433</speed><course>168.290512</course><hAcc>0.890497</hAcc><vAcc>0.721099</vAcc></extensions></trkpt>
      <trkpt lon="-4.158731" lat="53.017086"><ele>615.182312</ele><time>2021-07-17T12:55:52Z</time><extensions><speed>0.893503</speed><course>175.847488</course><hAcc>0.890520</hAcc><vAcc>0.721155</vAcc></extensions></trkpt>
      <trkpt lon="-4.158739" lat="53.017092"><ele>615.020752</ele><time>2021-07-17T12:55:53Z</time><extensions><speed>0.880375</speed><course>182.489380</course><hAcc>0.890537</hAcc><vAcc>0.721175</vAcc></extensions></trkpt>
      <trkpt lon="-4.158746" lat="53.017099"><ele>614.867126</ele><time>2021-07-17T12:55:54Z</time><extensions><speed>0.871152</speed><course>193.224472</course><hAcc>0.890547</hAcc><vAcc>0.721172</vAcc></extensions></trkpt>
      <trkpt lon="-4.158753" lat="53.017105"><ele>614.719910</ele><time>2021-07-17T12:55:55Z</time><extensions><speed>0.865761</speed><course>210.457108</course><hAcc>0.890553</hAcc><vAcc>0.721156</vAcc></extensions></trkpt>
      <trkpt lon="-4.158759" lat="53.017112"><ele>614.576843</ele><time>2021-07-17T12:55:56Z</time><extensions><speed>0.863855</speed><course>227.054108</course><hAcc>0.890556</hAcc><vAcc>0.721137</vAcc></extensions></trkpt>
      <trkpt lon="-4.158765" lat="53.017119"><ele>614.435547</ele><time>2021-07-17T12:55:57Z</time><extensions><speed>0.864825</speed><course>247.666534</course><hAcc>0.890558</hAcc><vAcc>0.721120</vAcc></extensions></trkpt>
      <trkpt lon="-4.158771" lat="53.017126"><ele>614.294128</ele><time>2021-07-17T12:55:58Z</time><extensions><speed>0.868379</speed><course>261.197876</course><hAcc>0.890560</hAcc><vAcc>0.721109</vAcc></extensions></trkpt>
      <trkpt lon="-4.158777" lat="53.017133"><ele>614.151184</ele><time>2021-07-17T12:55:59Z</time><extensions><speed>0.874585</speed><course>263.217255</course><hAcc>0.890565</hAcc><vAcc>0.721107</vAcc></extensions></trkpt>
      <trkpt lon="-4.158782" lat="53.017140"><ele>614.005127</ele><time>2021-07-17T12:56:00Z</time><extensions><speed>0.883633</speed><course>271.463165</course><hAcc>0.890574</hAcc><vAcc>0.721119</vAcc></extensions></trkpt>
      <trkpt lon="-4.158788" lat="53.017147"><ele>613.854797</ele><time>2021-07-17T12:56:01Z</time><extensions><speed>0.895632</speed><course>281.991608</course><hAcc>0.890586</hAcc><vAcc>0.721150</vAcc></extensions></trkpt>
      <trkpt lon="-4.158794" lat="53.017155"><ele>613.699158</ele><time>2021-07-17T12:56:02Z</time><extensions><speed>0.910367</speed><course>285.895782</course><hAcc>0.890602</hAcc><vAcc>0.721203</vAcc></extensions></trkpt>
      <trkpt lon="-4.158801" lat="53.017162"><ele>613.537598</ele><time>2021-07-17T12:56:03Z</time><extensions><speed>0.927335</speed><course>287.327179</course><hAcc>0.890621</hAcc><vAcc>0.721278</vAcc></extensions></trkpt>
      <trkpt lon="-4.158808" lat="53.017169"><ele>613.369446</ele><time>2021-07-17T12:56:04Z</time><extensions><speed>0.945704</speed><course>297.396240</course><hAcc>0.890642</hAcc><vAcc>0.721372</vAcc></extensions></trkpt>
      <trkpt lon="-4.158816" lat="53.017176"><ele>613.194153</ele><time>2021-07-17T12:56:05Z</time><extensions><speed>0.964131</speed><course>299.473175</course><hAcc>0.890662</hAcc><vAcc>0.721478</vAcc></extensions></trkpt>
      <trkpt lon="-4.158824" lat="53.017183"><ele>613.010681</ele><time>2021-07-17T12:56:06Z</time><extensions><speed>0.980651</speed><course>297.683289</course><hAcc>0.890682</hAcc><vAcc>0.721586</vAcc></extensions></trkpt>
      <trkpt lon="-4.158833" lat="53.017191"><ele>612.818176</ele><time>2021-07-17T12:56:07Z</time><extensions><speed>0.993126</speed><course>292.365356</course><hAcc>0.890701</hAcc><vAcc>0.721683</vAcc></extensions></trkpt>
      <trkpt lon="-4.158842" lat="53.017198"><ele>612.615967</ele><time>2021-07-17T12:56:08Z</time><extensions><speed>1.000187</speed><course>291.092651</course><hAcc>0.890718</hAcc><vAcc>0.721756</vAcc></extensions></trkpt>
      <trkpt lon="-4.158851" lat="53.017205"><ele>612.404053</ele><time>2021-07-17T12:56:09Z</time><extensions><speed>1.001395</speed><course>297.007721</course><hAcc>0.890733</hAcc><vAcc>0.721795</vAcc></extensions></trkpt>
      <trkpt lon="-4.158861" lat="53.017212"><ele>612.183716</ele><time>2021-07-17T12:56:10Z</time><extensions><speed>0.996591</speed><course>291.539093</course><hAcc>0.890747</hAcc><vAcc>0.721798</vAcc></extensions></trkpt>
      <trkpt lon="-4.158870" lat="53.017218"><ele>611.956909</ele><time>2021-07-17T12:56:11Z</time><extensions><speed>0.985831</speed><course>293.314819</course><hAcc>0.890761</hAcc><vAcc>0.721771</vAcc></extensions></trkpt>
      <trkpt lon="-4.158880" lat="53.017225"><ele>611.725586</ele><time>2021-07-17T12:56:12Z</time><extensions><speed>0.969808</speed><course>297.043213</course><hAcc>0.890777</hAcc><vAcc>0.721729</vAcc></extensions></trkpt>
      <trkpt lon="-4.158889" lat="53.017232"><ele>611.491577</ele><time>2021-07-17T12:56:13Z</time><extensions><speed>0.949797</speed><course>301.573547</course><hAcc>0.890776</hAcc><vAcc>0.721673</vAcc></extensions></trkpt>
      <trkpt lon="-4.158898" lat="53.017238"><ele>611.257629</ele><time>2021-07-17T12:56:14Z</time><extensions><speed>0.927566</speed><course>305.542847</course><hAcc>0.890760</hAcc><vAcc>0.721618</vAcc></extensions></trkpt>
      <trkpt lon="-4.158907" lat="53.017244"><ele>611.025940</ele><time>2021-07-17T12:56:15Z</time><extensions><speed>0.904779</speed><course>304.461029</course><hAcc>0.890746</hAcc><vAcc>0.721585</vAcc></extensions></trkpt>
      <trkpt lon="-4.158916" lat="53.017250"><ele>610.798218</ele><time>2021-07-17T12:56:16Z</time><extensions><speed>0.882939</speed><course>304.519958</course><hAcc>0.890733</hAcc><vAcc>0.721574</vAcc></extensions></trkpt>
      <trkpt lon="-4.158924" lat="53.017256"><ele>610.575684</ele><time>2021-07-17T12:56:17Z</time><extensions><speed>0.863045</speed><course>306.835541</course><hAcc>0.890722</hAcc><vAcc>0.721583</vAcc></extensions></trkpt>
      <trkpt lon="-4.158933" lat="53.017262"><ele>610.358643</ele><time>2021-07-17T12:56:18Z</time><extensions><speed>0.845688</speed><course>312.924469</course><hAcc>0.890709</hAcc><vAcc>0.721603</vAcc></extensions></trkpt>
      <trkpt lon="-4.158941" lat="53.017268"><ele>610.147034</ele><time>2021-07-17T12:56:19Z</time><extensions><speed>0.831298</speed><course>313.121582</course><hAcc>0.890694</hAcc><vAcc>0.721621</vAcc></extensions></trkpt>
      <trkpt lon="-4.158949" lat="53.017273"><ele>609.940430</ele><time>2021-07-17T12:56:20Z</time><extensions><speed>0.819731</speed><course>312.363678</course><hAcc>0.890675</hAcc><vAcc>0.721625</vAcc></extensions></trkpt>
      <trkpt lon="-4.158958" lat="53.017278"><ele>609.738647</ele><time>2021-07-17T12:56:21Z</time><extensions><speed>0.810443</speed><course>309.905548</course><hAcc>0.890649</hAcc><vAcc>0.721599</vAcc></extensions></trkpt>
      <trkpt lon="-4.158966" lat="53.017284"><ele>609.540955</ele><time>2021-07-17T12:56:22Z</time><extensions><speed>0.803242</speed><course>308.597687</course><hAcc>0.890617</hAcc><vAcc>0.721532</vAcc></extensions></trkpt>
      <trkpt lon="-4.158975" lat="53.017289"><ele>609.346130</ele><time>2021-07-17T12:56:23Z</time><extensions><speed>0.798259</speed><course>307.103394</course><hAcc>0.890576</hAcc><vAcc>0.721418</vAcc></extensions></trkpt>
      <trkpt lon="-4.158983" lat="53.017294"><ele>609.152588</ele><time>2021-07-17T12:56:24Z</time><extensions><speed>0.795678</speed><course>306.897400</course><hAcc>0.890528</hAcc><vAcc>0.721256</vAcc></extensions></trkpt>
      <trkpt lon="-4.158991" lat="53.017299"><ele>608.958862</ele><time>2021-07-17T12:56:25Z</time><extensions><speed>0.795724</speed><course>302.152618</course><hAcc>0.890471</hAcc><vAcc>0.721054</vAcc></extensions></trkpt>
      <trkpt lon="-4.159000" lat="53.017304"><ele>608.763916</ele><time>2021-07-17T12:56:26Z</time><extensions><speed>0.798388</speed><course>297.726410</course><hAcc>0.890407</hAcc><vAcc>0.720821</vAcc></extensions></trkpt>
      <trkpt lon="-4.159008" lat="53.017309"><ele>608.566895</ele><time>2021-07-17T12:56:27Z</time><extensions><speed>0.803411</speed><course>300.194183</course><hAcc>0.890338</hAcc><vAcc>0.720571</vAcc></extensions></trkpt>
      <trkpt lon="-4.159017" lat="53.017314"><ele>608.366638</ele><time>2021-07-17T12:56:28Z</time><extensions><speed>0.810711</speed><course>297.151825</course><hAcc>0.890266</hAcc><vAcc>0.720316</vAcc></extensions></trkpt>
      <trkpt lon="-4.159025" lat="53.017319"><ele>608.162170</ele><time>2021-07-17T12:56:29Z</time><extensions><speed>0.820372</speed><course>298.399384</course><hAcc>0.890211</hAcc><vAcc>0.720083</vAcc></extensions></trkpt>
      <trkpt lon="-4.159034" lat="53.017325"><ele>607.952454</ele><time>2021-07-17T12:56:30Z</time><extensions><speed>0.832117</speed><course>300.837921</course><hAcc>0.890176</hAcc><vAcc>0.719886</vAcc></extensions></trkpt>
      <trkpt lon="-4.159043" lat="53.017330"><ele>607.737061</ele><time>2021-07-17T12:56:31Z</time><extensions><speed>0.845517</speed><course>299.844330</course><hAcc>0.890144</hAcc><vAcc>0.719729</vAcc></extensions></trkpt>
      <trkpt lon="-4.159051" lat="53.017335"><ele>607.515747</ele><time>2021-07-17T12:56:32Z</time><extensions><speed>0.860311</speed><course>300.001373</course><hAcc>0.890119</hAcc><vAcc>0.719624</vAcc></extensions></trkpt>
      <trkpt lon="-4.159060" lat="53.017341"><ele>607.288635</ele><time>2021-07-17T12:56:33Z</time><extensions><speed>0.876245</speed><course>294.568817</course><hAcc>0.890101</hAcc><vAcc>0.719571</vAcc></extensions></trkpt>
      <trkpt lon="-4.159070" lat="53.017347"><ele>607.056274</ele><time>2021-07-17T12:56:34Z</time><extensions><speed>0.892725</speed><course>300.687103</course><hAcc>0.890090</hAcc><vAcc>0.719565</vAcc></extensions></trkpt>
      <trkpt lon="-4.159079" lat="53.017353"><ele>606.819458</ele><time>2021-07-17T12:56:35Z</time><extensions><speed>0.908762</speed><course>297.691925</course><hAcc>0.890085</hAcc><vAcc>0.719591</vAcc></extensions></trkpt>
      <trkpt lon="-4.159088" lat="53.017358"><ele>606.578735</ele><time>2021-07-17T12:56:36Z</time><extensions><speed>0.923406</speed><course>293.928223</course><hAcc>0.890085</hAcc><vAcc>0.719636</vAcc></extensions></trkpt>
      <trkpt lon="-4.159098" lat="53.017365"><ele>606.334229</ele><time>2021-07-17T12:56:37Z</time><extensions><speed>0.935822</speed><course>297.041656</course><hAcc>0.890089</hAcc><vAcc>0.719688</vAcc></extensions></trkpt>
      <trkpt lon="-4.159108" lat="53.017371"><ele>606.086426</ele><time>2021-07-17T12:56:38Z</time><extensions><speed>0.945270</speed><course>298.722290</course><hAcc>0.890093</hAcc><vAcc>0.719739</vAcc></extensions></trkpt>
      <trkpt lon="-4.159117" lat="53.017377"><ele>605.836243</ele><time>2021-07-17T12:56:39Z</time><extensions><speed>0.950822</speed><course>296.674316</course><hAcc>0.890096</hAcc><vAcc>0.719780</vAcc></extensions></trkpt>
      <trkpt lon="-4.159127" lat="53.017383"><ele>605.583862</ele><time>2021-07-17T12:56:40Z</time><extensions><speed>0.951750</speed><course>301.147156</course><hAcc>0.890096</hAcc><vAcc>0.719803</vAcc></extensions></trkpt>
      <trkpt lon="-4.159136" lat="53.017389"><ele>605.329651</ele><time>2021-07-17T12:56:41Z</time><extensions><speed>0.947937</speed><course>301.618805</course><hAcc>0.890096</hAcc><vAcc>0.719799</vAcc></extensions></trkpt>
      <trkpt lon="-4.159146" lat="53.017396"><ele>605.074402</ele><time>2021-07-17T12:56:42Z</time><extensions><speed>0.939892</speed><course>300.678009</course><hAcc>0.890096</hAcc><vAcc>0.719769</vAcc></extensions></trkpt>
      <trkpt lon="-4.159155" lat="53.017402"><ele>604.819092</ele><time>2021-07-17T12:56:43Z</time><extensions><speed>0.928719</speed><course>306.078644</course><hAcc>0.890098</hAcc><vAcc>0.719720</vAcc></extensions></trkpt>
      <trkpt lon="-4.159164" lat="53.017409"><ele>604.564636</ele><time>2021-07-17T12:56:44Z</time><extensions><speed>0.915743</speed><course>302.099213</course><hAcc>0.890107</hAcc><vAcc>0.719671</vAcc></extensions></trkpt>
      <trkpt lon="-4.159172" lat="53.017415"><ele>604.311218</ele><time>2021-07-17T12:56:45Z</time><extensions><speed>0.901938</speed><course>298.253754</course><hAcc>0.890125</hAcc><vAcc>0.719649</vAcc></extensions></trkpt>
      <trkpt lon="-4.159180" lat="53.017421"><ele>604.058167</ele><time>2021-07-17T12:56:46Z</time><extensions><speed>0.887822</speed><course>299.772583</course><hAcc>0.890158</hAcc><vAcc>0.719679</vAcc></extensions></trkpt>
      <trkpt lon="-4.159188" lat="53.017427"><ele>603.803650</ele><time>2021-07-17T12:56:47Z</time><extensions><speed>0.873657</speed><course>299.946075</course><hAcc>0.890212</hAcc><vAcc>0.719784</vAcc></extensions></trkpt>
      <trkpt lon="-4.159196" lat="53.017434"><ele>603.545471</ele><time>2021-07-17T12:56:48Z</time><extensions><speed>0.859313</speed><course>303.968170</course><hAcc>0.890292</hAcc><vAcc>0.719984</vAcc></extensions></trkpt>
      <trkpt lon="-4.159203" lat="53.017440"><ele>603.281494</ele><time>2021-07-17T12:56:49Z</time><extensions><speed>0.844437</speed><course>302.223755</course><hAcc>0.890404</hAcc><vAcc>0.720293</vAcc></extensions></trkpt>
      <trkpt lon="-4.159210" lat="53.017446"><ele>603.010132</ele><time>2021-07-17T12:56:50Z</time><extensions><speed>0.828714</speed><course>303.590851</course><hAcc>0.890553</hAcc><vAcc>0.720725</vAcc></extensions></trkpt>
      <trkpt lon="-4.159217" lat="53.017452"><ele>602.729675</ele><time>2021-07-17T12:56:51Z</time><extensions><speed>0.812154</speed><course>302.656281</course><hAcc>0.890744</hAcc><vAcc>0.721292</vAcc></extensions></trkpt>
      <trkpt lon="-4.159223" lat="53.017458"><ele>602.438599</ele><time>2021-07-17T12:56:52Z</time><extensions><speed>0.794960</speed><course>307.857574</course><hAcc>0.890979</hAcc><vAcc>0.722009</vAcc></extensions></trkpt>
      <trkpt lon="-4.159229" lat="53.017465"><ele>602.135559</ele><time>2021-07-17T12:56:53Z</time><extensions><speed>0.777103</speed><course>306.241272</course><hAcc>0.891257</hAcc><vAcc>0.722893</vAcc></extensions></trkpt>
      <trkpt lon="-4.159235" lat="53.017471"><ele>601.819824</ele><time>2021-07-17T12:56:54Z</time><extensions><speed>0.758397</speed><course>302.560516</course><hAcc>0.891578</hAcc><vAcc>0.723952</vAcc></extensions></trkpt>
      <trkpt lon="-4.159240" lat="53.017476"><ele>601.491272</ele><time>2021-07-17T12:56:55Z</time><extensions><speed>0.738667</speed><course>304.207947</course><hAcc>0.891939</hAcc><vAcc>0.725186</vAcc></extensions></trkpt>
      <trkpt lon="-4.159245" lat="53.017482"><ele>601.150391</ele><time>2021-07-17T12:56:56Z</time><extensions><speed>0.717905</speed><course>304.678192</course><hAcc>0.892334</hAcc><vAcc>0.726576</vAcc></extensions></trkpt>
      <trkpt lon="-4.159249" lat="53.017488"><ele>600.798035</ele><time>2021-07-17T12:56:57Z</time><extensions><speed>0.696576</speed><course>300.816559</course><hAcc>0.892759</hAcc><vAcc>0.728085</vAcc></extensions></trkpt>
      <trkpt lon="-4.159253" lat="53.017494"><ele>600.434875</ele><time>2021-07-17T12:56:58Z</time><extensions><speed>0.675701</speed><course>302.457642</course><hAcc>0.893209</hAcc><vAcc>0.729665</vAcc></extensions></trkpt>
      <trkpt lon="-4.159255" lat="53.017500"><ele>600.061523</ele><time>2021-07-17T12:56:59Z</time><extensions><speed>0.656963</speed><course>303.405792</course><hAcc>0.893675</hAcc><vAcc>0.731271</vAcc></extensions></trkpt>
      <trkpt lon="-4.159257" lat="53.017505"><ele>599.678528</ele><time>2021-07-17T12:57:00Z</time><extensions><speed>0.642311</speed><course>305.179382</course><hAcc>0.894144</hAcc><vAcc>0.732865</vAcc></extensions></trkpt>
      <trkpt lon="-4.159259" lat="53.017511"><ele>599.287231</ele><time>2021-07-17T12:57:01Z</time><extensions><speed>0.633341</speed><course>301.811188</course><hAcc>0.894605</hAcc><vAcc>0.734415</vAcc></extensions></trkpt>
      <trkpt lon="-4.159259" lat="53.017517"><ele>598.889587</ele><time>2021-07-17T12:57:02Z</time><extensions><speed>0.630872</speed><course>294.111877</course><hAcc>0.895040</hAcc><vAcc>0.735895</vAcc></extensions></trkpt>
      <trkpt lon="-4.159258" lat="53.017522"><ele>598.487610</ele><time>2021-07-17T12:57:03Z</time><extensions><speed>0.634336</speed><course>291.186249</course><hAcc>0.895432</hAcc><vAcc>0.737279</vAcc></extensions></trkpt>
      <trkpt lon="-4.159257" lat="53.017528"><ele>598.083435</ele><time>2021-07-17T12:57:04Z</time><extensions><speed>0.642171</speed><course>291.833313</course><hAcc>0.895764</hAcc><vAcc>0.738542</vAcc></extensions></trkpt>
      <trkpt lon="-4.159254" lat="53.017534"><ele>597.679504</ele><time>2021-07-17T12:57:05Z</time><extensions><speed>0.652535</speed><course>293.198639</course><hAcc>0.896018</hAcc><vAcc>0.739652</vAcc></extensions></trkpt>
      <trkpt lon="-4.159251" lat="53.017539"><ele>597.278809</ele><time>2021-07-17T12:57:06Z</time><extensions><speed>0.664288</speed><course>297.953094</course><hAcc>0.896182</hAcc><vAcc>0.740561</vAcc></extensions></trkpt>
      <trkpt lon="-4.159247" lat="53.017545"><ele>596.884155</ele><time>2021-07-17T12:57:07Z</time><extensions><speed>0.677332</speed><course>294.998413</course><hAcc>0.896248</hAcc><vAcc>0.741206</vAcc></extensions></trkpt>
      <trkpt lon="-4.159243" lat="53.017550"><ele>596.497314</ele><time>2021-07-17T12:57:08Z</time><extensions><speed>0.691837</speed><course>290.333923</course><hAcc>0.896218</hAcc><vAcc>0.741518</vAcc></extensions></trkpt>
      <trkpt lon="-4.159237" lat="53.017556"><ele>596.119629</ele><time>2021-07-17T12:57:09Z</time><extensions><speed>0.707961</speed><course>297.336884</course><hAcc>0.896099</hAcc><vAcc>0.741435</vAcc></extensions></trkpt>
      <trkpt lon="-4.159231" lat="53.017561"><ele>595.752136</ele><time>2021-07-17T12:57:10Z</time><extensions><speed>0.725711</speed><course>291.763641</course><hAcc>0.895903</hAcc><vAcc>0.740915</vAcc></extensions></trkpt>
      <trkpt lon="-4.159225" lat="53.017566"><ele>595.395386</ele><time>2021-07-17T12:57:11Z</time><extensions><speed>0.744294</speed><course>293.588959</course><hAcc>0.895647</hAcc><vAcc>0.739951</vAcc></extensions></trkpt>
      <trkpt lon="-4.159217" lat="53.017571"><ele>595.049622</ele><time>2021-07-17T12:57:12Z</time><extensions><speed>0.761575</speed><course>298.534668</course><hAcc>0.895347</hAcc><vAcc>0.738586</vAcc></extensions></trkpt>
      <trkpt lon="-4.159210" lat="53.017576"><ele>594.714844</ele><time>2021-07-17T12:57:13Z</time><extensions><speed>0.774946</speed><course>294.834351</course><hAcc>0.895011</hAcc><vAcc>0.736915</vAcc></extensions></trkpt>
      <trkpt lon="-4.159201" lat="53.017581"><ele>594.390869</ele><time>2021-07-17T12:57:14Z</time><extensions><speed>0.782688</speed><course>297.698059</course><hAcc>0.894646</hAcc><vAcc>0.735080</vAcc></extensions></trkpt>
      <trkpt lon="-4.159193" lat="53.017586"><ele>594.077148</ele><time>2021-07-17T12:57:15Z</time><extensions><speed>0.784299</speed><course>298.511444</course><hAcc>0.894258</hAcc><vAcc>0.733222</vAcc></extensions></trkpt>
      <trkpt lon="-4.159185" lat="53.017591"><ele>593.772339</ele><time>2021-07-17T12:57:16Z</time><extensions><speed>0.780308</speed><course>303.054443</course><hAcc>0.893862</hAcc><vAcc>0.731457</vAcc></extensions></trkpt>
      <trkpt lon="-4.159176" lat="53.017596"><ele>593.474731</ele><time>2021-07-17T12:57:17Z</time><extensions><speed>0.772170</speed><course>300.594757</course><hAcc>0.893473</hAcc><vAcc>0.729867</vAcc></extensions></trkpt>
      <trkpt lon="-4.159168" lat="53.017601"><ele>593.182312</ele><time>2021-07-17T12:57:18Z</time><extensions><speed>0.761903</speed><course>303.489990</course><hAcc>0.893107</hAcc><vAcc>0.728503</vAcc></extensions></trkpt>
      <trkpt lon="-4.159160" lat="53.017606"><ele>592.893433</ele><time>2021-07-17T12:57:19Z</time><extensions><speed>0.751524</speed><course>307.296783</course><hAcc>0.892777</hAcc><vAcc>0.727390</vAcc></extensions></trkpt>
      <trkpt lon="-4.159152" lat="53.017611"><ele>592.606567</ele><time>2021-07-17T12:57:20Z</time><extensions><speed>0.742629</speed><course>306.846466</course><hAcc>0.892492</hAcc><vAcc>0.726533</vAcc></extensions></trkpt>
      <trkpt lon="-4.159145" lat="53.017615"><ele>592.320618</ele><time>2021-07-17T12:57:21Z</time><extensions><speed>0.736279</speed><course>314.303711</course><hAcc>0.892254</hAcc><vAcc>0.725914</vAcc></extensions></trkpt>
      <trkpt lon="-4.159138" lat="53.017620"><ele>592.034607</ele><time>2021-07-17T12:57:22Z</time><extensions><speed>0.733193</speed><course>316.753265</course><hAcc>0.892064</hAcc><vAcc>0.725501</vAcc></extensions></trkpt>
      <trkpt lon="-4.159130" lat="53.017625"><ele>591.748047</ele><time>2021-07-17T12:57:23Z</time><extensions><speed>0.733546</speed><course>312.101562</course><hAcc>0.891918</hAcc><vAcc>0.725242</vAcc></extensions></trkpt>
      <trkpt lon="-4.159123" lat="53.017630"><ele>591.460693</ele><time>2021-07-17T12:57:24Z</time><extensions><speed>0.737165</speed><course>310.983948</course><hAcc>0.891811</hAcc><vAcc>0.725079</vAcc></extensions></trkpt>
      <trkpt lon="-4.159116" lat="53.017635"><ele>591.173096</ele><time>2021-07-17T12:57:25Z</time><extensions><speed>0.743699</speed><course>316.824890</course><hAcc>0.891735</hAcc><vAcc>0.724961</vAcc></extensions></trkpt>
      <trkpt lon="-4.159108" lat="53.017640"><ele>590.886597</ele><time>2021-07-17T12:57:26Z</time><extensions><speed>0.752771</speed><course>324.005005</course><hAcc>0.891683</hAcc><vAcc>0.724852</vAcc></extensions></trkpt>
      <trkpt lon="-4.159100" lat="53.017645"><ele>590.603149</ele><time>2021-07-17T12:57:27Z</time><extensions><speed>0.764316</speed><course>322.091736</course><hAcc>0.891644</hAcc><vAcc>0.724738</vAcc></extensions></trkpt>
      <trkpt lon="-4.159092" lat="53.017650"><ele>590.324646</ele><time>2021-07-17T12:57:28Z</time><extensions><speed>0.778212</speed><course>322.830170</course><hAcc>0.891612</hAcc><vAcc>0.724614</vAcc></extensions></trkpt>
      <trkpt lon="-4.159084" lat="53.017655"><ele>590.053040</ele><time>2021-07-17T12:57:29Z</time><extensions><speed>0.794120</speed><course>325.823517</course><hAcc>0.891578</hAcc><vAcc>0.724482</vAcc></extensions></trkpt>
      <trkpt lon="-4.159075" lat="53.017659"><ele>589.790283</ele><time>2021-07-17T12:57:30Z</time><extensions><speed>0.811276</speed><course>331.853210</course><hAcc>0.891539</hAcc><vAcc>0.724343</vAcc></extensions></trkpt>
      <trkpt lon="-4.159065" lat="53.017664"><ele>589.537781</ele><time>2021-07-17T12:57:31Z</time><extensions><speed>0.828547</speed><course>331.260956</course><hAcc>0.891492</hAcc><vAcc>0.724194</vAcc></extensions></trkpt>
      <trkpt lon="-4.159056" lat="53.017669"><ele>589.296692</ele><time>2021-07-17T12:57:32Z</time><extensions><speed>0.844742</speed><course>329.072571</course><hAcc>0.891437</hAcc><vAcc>0.724030</vAcc></extensions></trkpt>
      <trkpt lon="-4.159046" lat="53.017674"><ele>589.067505</ele><time>2021-07-17T12:57:33Z</time><extensions><speed>0.858860</speed><course>325.473938</course><hAcc>0.891374</hAcc><vAcc>0.723844</vAcc></extensions></trkpt>
      <trkpt lon="-4.159035" lat="53.017678"><ele>588.850281</ele><time>2021-07-17T12:57:34Z</time><extensions><speed>0.870597</speed><course>325.383026</course><hAcc>0.891306</hAcc><vAcc>0.723628</vAcc></extensions></trkpt>
      <trkpt lon="-4.159025" lat="53.017683"><ele>588.644897</ele><time>2021-07-17T12:57:35Z</time><extensions><speed>0.880312</speed><course>325.061401</course><hAcc>0.891234</hAcc><vAcc>0.723382</vAcc></extensions></trkpt>
      <trkpt lon="-4.159014" lat="53.017688"><ele>588.450867</ele><time>2021-07-17T12:57:36Z</time><extensions><speed>0.888595</speed><course>325.207275</course><hAcc>0.891162</hAcc><vAcc>0.723112</vAcc></extensions></trkpt>
      <trkpt lon="-4.159003" lat="53.017692"><ele>588.267517</ele><time>2021-07-17T12:57:37Z</time><extensions><speed>0.895604</speed><course>322.410889</course><hAcc>0.891091</hAcc><vAcc>0.722831</vAcc></extensions></trkpt>
      <trkpt lon="-4.158992" lat="53.017697"><ele>588.094482</ele><time>2021-07-17T12:57:38Z</time><extensions><speed>0.901131</speed><course>319.218658</course><hAcc>0.891023</hAcc><vAcc>0.722556</vAcc></extensions></trkpt>
      <trkpt lon="-4.158981" lat="53.017702"><ele>587.931580</ele><time>2021-07-17T12:57:39Z</time><extensions><speed>0.905145</speed><course>319.790588</course><hAcc>0.890962</hAcc><vAcc>0.722305</vAcc></extensions></trkpt>
      <trkpt lon="-4.158970" lat="53.017706"><ele>587.778809</ele><time>2021-07-17T12:57:40Z</time><extensions><speed>0.907734</speed><course>318.972229</course><hAcc>0.890909</hAcc><vAcc>0.722095</vAcc></extensions></trkpt>
      <trkpt lon="-4.158959" lat="53.017711"><ele>587.636108</ele><time>2021-07-17T12:57:41Z</time><extensions><speed>0.908919</speed><course>320.354065</course><hAcc>0.890867</hAcc><vAcc>0.721937</vAcc></extensions></trkpt>
      <trkpt lon="-4.158948" lat="53.017715"><ele>587.503296</ele><time>2021-07-17T12:57:42Z</time><extensions><speed>0.908344</speed><course>320.541016</course><hAcc>0.890836</hAcc><vAcc>0.721840</vAcc></extensions></trkpt>
      <trkpt lon="-4.158936" lat="53.017720"><ele>587.379089</ele><time>2021-07-17T12:57:43Z</time><extensions><speed>0.905602</speed><course>317.906189</course><hAcc>0.890819</hAcc><vAcc>0.721802</vAcc></extensions></trkpt>
      <trkpt lon="-4.158925" lat="53.017724"><ele>587.261169</ele><time>2021-07-17T12:57:44Z</time><extensions><speed>0.900773</speed><course>316.077393</course><hAcc>0.890816</hAcc><vAcc>0.721819</vAcc></extensions></trkpt>
      <trkpt lon="-4.158914" lat="53.017728"><ele>587.147278</ele><time>2021-07-17T12:57:45Z</time><extensions><speed>0.894285</speed><course>307.356537</course><hAcc>0.890827</hAcc><vAcc>0.721880</vAcc></extensions></trkpt>
      <trkpt lon="-4.158903" lat="53.017733"><ele>587.035156</ele><time>2021-07-17T12:57:46Z</time><extensions><speed>0.886609</speed><course>302.004150</course><hAcc>0.890851</hAcc><vAcc>0.721977</vAcc></extensions></trkpt>
      <trkpt lon="-4.158891" lat="53.017737"><ele>586.923096</ele><time>2021-07-17T12:57:47Z</time><extensions><speed>0.878352</speed><course>310.520874</course><hAcc>0.890887</hAcc><vAcc>0.722104</vAcc></extensions></trkpt>
      <trkpt lon="-4.158880" lat="53.017741"><ele>586.809875</ele><time>2021-07-17T12:57:48Z</time><extensions><speed>0.869797</speed><course>307.778412</course><hAcc>0.890931</hAcc><vAcc>0.722261</vAcc></extensions></trkpt>
      <trkpt lon="-4.158869" lat="53.017745"><ele>586.694763</ele><time>2021-07-17T12:57:49Z</time><extensions><speed>0.861152</speed><course>310.132080</course><hAcc>0.890980</hAcc><vAcc>0.722445</vAcc></extensions></trkpt>
      <trkpt lon="-4.158858" lat="53.017749"><ele>586.576965</ele><time>2021-07-17T12:57:50Z</time><extensions><speed>0.853042</speed><course>310.327301</course><hAcc>0.891033</hAcc><vAcc>0.722650</vAcc></extensions></trkpt>
      <trkpt lon="-4.158847" lat="53.017752"><ele>586.455444</ele><time>2021-07-17T12:57:51Z</time><extensions><speed>0.846078</speed><course>308.925873</course><hAcc>0.891086</hAcc><vAcc>0.722864</vAcc></extensions></trkpt>
      <trkpt lon="-4.158836" lat="53.017756"><ele>586.328796</ele><time>2021-07-17T12:57:52Z</time><extensions><speed>0.840715</speed><course>308.955322</course><hAcc>0.891138</hAcc><vAcc>0.723070</vAcc></extensions></trkpt>
      <trkpt lon="-4.158825" lat="53.017760"><ele>586.195496</ele><time>2021-07-17T12:57:53Z</time><extensions><speed>0.836437</speed><course>303.152588</course><hAcc>0.891187</hAcc><vAcc>0.723253</vAcc></extensions></trkpt>
      <trkpt lon="-4.158814" lat="53.017763"><ele>586.053894</ele><time>2021-07-17T12:57:54Z</time><extensions><speed>0.831659</speed><course>313.156525</course><hAcc>0.891231</hAcc><vAcc>0.723406</vAcc></extensions></trkpt>
      <trkpt lon="-4.158803" lat="53.017766"><ele>585.902649</ele><time>2021-07-17T12:57:55Z</time><extensions><speed>0.824859</speed><course>307.864197</course><hAcc>0.891269</hAcc><vAcc>0.723527</vAcc></extensions></trkpt>
      <trkpt lon="-4.158792" lat="53.017770"><ele>585.740417</ele><time>2021-07-17T12:57:56Z</time><extensions><speed>0.815587</speed><course>309.541687</course><hAcc>0.891299</hAcc><vAcc>0.723618</vAcc></extensions></trkpt>
      <trkpt lon="-4.158781" lat="53.017773"><ele>585.566711</ele><time>2021-07-17T12:57:57Z</time><extensions><speed>0.804536</speed><course>312.130341</course><hAcc>0.891322</hAcc><vAcc>0.723681</vAcc></extensions></trkpt>
      <trkpt lon="-4.158771" lat="53.017776"><ele>585.382019</ele><time>2021-07-17T12:57:58Z</time><extensions><speed>0.792820</speed><course>310.268982</course><hAcc>0.891339</hAcc><vAcc>0.723720</vAcc></extensions></trkpt>
      <trkpt lon="-4.158760" lat="53.017779"><ele>585.187378</ele><time>2021-07-17T12:57:59Z</time><extensions><speed>0.781461</speed><course>308.247070</course><hAcc>0.891351</hAcc><vAcc>0.723740</vAcc></extensions></trkpt>
      <trkpt lon="-4.158750" lat="53.017783"><ele>584.983704</ele><time>2021-07-17T12:58:00Z</time><extensions><speed>0.771160</speed><course>304.229858</course><hAcc>0.891361</hAcc><vAcc>0.723747</vAcc></extensions></trkpt>
      <trkpt lon="-4.158740" lat="53.017786"><ele>584.771362</ele><time>2021-07-17T12:58:01Z</time><extensions><speed>0.761841</speed><course>308.310059</course><hAcc>0.891375</hAcc><vAcc>0.723750</vAcc></extensions></trkpt>
      <trkpt lon="-4.158730" lat="53.017789"><ele>584.550781</ele><time>2021-07-17T12:58:02Z</time><extensions><speed>0.752798</speed><course>311.142822</course><hAcc>0.891396</hAcc><vAcc>0.723764</vAcc></extensions></trkpt>
      <trkpt lon="-4.158720" lat="53.017793"><ele>584.322876</ele><time>2021-07-17T12:58:03Z</time><extensions><speed>0.743131</speed><course>305.518036</course><hAcc>0.891431</hAcc><vAcc>0.723804</vAcc></extensions></trkpt>
      <trkpt lon="-4.158711" lat="53.017796"><ele>584.088440</ele><time>2021-07-17T12:58:04Z</time><extensions><speed>0.732046</speed><course>303.061462</course><hAcc>0.891486</hAcc><vAcc>0.723889</vAcc></extensions></trkpt>
      <trkpt lon="-4.158701" lat="53.017799"><ele>583.847839</ele><time>2021-07-17T12:58:05Z</time><extensions><speed>0.719393</speed><course>298.232086</course><hAcc>0.891567</hAcc><vAcc>0.724040</vAcc></extensions></trkpt>
      <trkpt lon="-4.158692" lat="53.017803"><ele>583.600586</ele><time>2021-07-17T12:58:06Z</time><extensions><speed>0.705667</speed><course>289.358276</course><hAcc>0.891680</hAcc><vAcc>0.724279</vAcc></extensions></trkpt>
      <trkpt lon="-4.158684" lat="53.017806"><ele>583.346191</ele><time>2021-07-17T12:58:07Z</time><extensions><speed>0.691723</speed><course>285.924469</course><hAcc>0.891830</hAcc><vAcc>0.724630</vAcc></extensions></trkpt>
      <trkpt lon="-4.158675" lat="53.017810"><ele>583.084473</ele><time>2021-07-17T12:58:08Z</time><extensions><speed>0.678769</speed><course>280.520447</course><hAcc>0.892019</hAcc><vAcc>0.725117</vAcc></extensions></trkpt>
      <trkpt lon="-4.158667" lat="53.017813"><ele>582.815247</ele><time>2021-07-17T12:58:09Z</time><extensions><speed>0.667791</speed><course>286.862061</course><hAcc>0.892227</hAcc><vAcc>0.725748</vAcc></extensions></trkpt>
      <trkpt lon="-4.158659" lat="53.017817"><ele>582.539429</ele><time>2021-07-17T12:58:10Z</time><extensions><speed>0.658760</speed><course>295.700317</course><hAcc>0.892449</hAcc><vAcc>0.726534</vAcc></extensions></trkpt>
      <trkpt lon="-4.158652" lat="53.017820"><ele>582.257263</ele><time>2021-07-17T12:58:11Z</time><extensions><speed>0.650784</speed><course>296.161560</course><hAcc>0.892694</hAcc><vAcc>0.727482</vAcc></extensions></trkpt>
      <trkpt lon="-4.158644" lat="53.017824"><ele>581.968811</ele><time>2021-07-17T12:58:12Z</time><extensions><speed>0.643522</speed><course>298.229218</course><hAcc>0.892949</hAcc><vAcc>0.728562</vAcc></extensions></trkpt>
      <trkpt lon="-4.158637" lat="53.017828"><ele>581.673584</ele><time>2021-07-17T12:58:13Z</time><extensions><speed>0.636959</speed><course>297.545471</course><hAcc>0.893201</hAcc><vAcc>0.729716</vAcc></extensions></trkpt>
      <trkpt lon="-4.158629" lat="53.017831"><ele>581.370789</ele><time>2021-07-17T12:58:14Z</time><extensions><speed>0.631316</speed><course>292.454163</course><hAcc>0.893434</hAcc><vAcc>0.730869</vAcc></extensions></trkpt>
      <trkpt lon="-4.158622" lat="53.017835"><ele>581.060669</ele><time>2021-07-17T12:58:15Z</time><extensions><speed>0.627155</speed><course>287.195465</course><hAcc>0.893636</hAcc><vAcc>0.731929</vAcc></extensions></trkpt>
      <trkpt lon="-4.158615" lat="53.017838"><ele>580.744080</ele><time>2021-07-17T12:58:16Z</time><extensions><speed>0.625978</speed><course>283.339600</course><hAcc>0.893792</hAcc><vAcc>0.732806</vAcc></extensions></trkpt>
      <trkpt lon="-4.158607" lat="53.017841"><ele>580.422058</ele><time>2021-07-17T12:58:17Z</time><extensions><speed>0.630035</speed><course>283.687531</course><hAcc>0.893895</hAcc><vAcc>0.733417</vAcc></extensions></trkpt>
      <trkpt lon="-4.158599" lat="53.017845"><ele>580.095337</ele><time>2021-07-17T12:58:18Z</time><extensions><speed>0.640262</speed><course>284.089417</course><hAcc>0.893935</hAcc><vAcc>0.733702</vAcc></extensions></trkpt>
      <trkpt lon="-4.158591" lat="53.017848"><ele>579.764954</ele><time>2021-07-17T12:58:19Z</time><extensions><speed>0.655992</speed><course>286.432800</course><hAcc>0.893909</hAcc><vAcc>0.733631</vAcc></extensions></trkpt>
      <trkpt lon="-4.158582" lat="53.017851"><ele>579.432556</ele><time>2021-07-17T12:58:20Z</time><extensions><speed>0.675386</speed><course>288.844025</course><hAcc>0.893814</hAcc><vAcc>0.733203</vAcc></extensions></trkpt>
      <trkpt lon="-4.158574" lat="53.017854"><ele>579.099915</ele><time>2021-07-17T12:58:21Z</time><extensions><speed>0.695710</speed><course>294.600861</course><hAcc>0.893656</hAcc><vAcc>0.732445</vAcc></extensions></trkpt>
      <trkpt lon="-4.158564" lat="53.017857"><ele>578.768433</ele><time>2021-07-17T12:58:22Z</time><extensions><speed>0.714281</speed><course>289.399475</course><hAcc>0.893441</hAcc><vAcc>0.731410</vAcc></extensions></trkpt>
      <trkpt lon="-4.158555" lat="53.017860"><ele>578.439270</ele><time>2021-07-17T12:58:23Z</time><extensions><speed>0.729497</speed><course>292.462738</course><hAcc>0.893179</hAcc><vAcc>0.730182</vAcc></extensions></trkpt>
      <trkpt lon="-4.158545" lat="53.017862"><ele>578.113647</ele><time>2021-07-17T12:58:24Z</time><extensions><speed>0.740830</speed><course>292.044128</course><hAcc>0.892882</hAcc><vAcc>0.728850</vAcc></extensions></trkpt>
      <trkpt lon="-4.158535" lat="53.017865"><ele>577.792664</ele><time>2021-07-17T12:58:25Z</time><extensions><speed>0.748163</speed><course>289.426849</course><hAcc>0.892563</hAcc><vAcc>0.727504</vAcc></extensions></trkpt>
      <trkpt lon="-4.158525" lat="53.017868"><ele>577.477356</ele><time>2021-07-17T12:58:26Z</time><extensions><speed>0.751961</speed><course>292.821838</course><hAcc>0.892238</hAcc><vAcc>0.726218</vAcc></extensions></trkpt>
      <trkpt lon="-4.158514" lat="53.017871"><ele>577.168091</ele><time>2021-07-17T12:58:27Z</time><extensions><speed>0.753522</speed><course>287.405121</course><hAcc>0.891924</hAcc><vAcc>0.725046</vAcc></extensions></trkpt>
      <trkpt lon="-4.158504" lat="53.017874"><ele>576.864929</ele><time>2021-07-17T12:58:28Z</time><extensions><speed>0.754155</speed><course>289.328461</course><hAcc>0.891633</hAcc><vAcc>0.724024</vAcc></extensions></trkpt>
      <trkpt lon="-4.158494" lat="53.017876"><ele>576.567566</ele><time>2021-07-17T12:58:29Z</time><extensions><speed>0.754502</speed><course>290.686554</course><hAcc>0.891377</hAcc><vAcc>0.723176</vAcc></extensions></trkpt>
      <trkpt lon="-4.158483" lat="53.017879"><ele>576.274902</ele><time>2021-07-17T12:58:30Z</time><extensions><speed>0.754891</speed><course>291.519623</course><hAcc>0.891159</hAcc><vAcc>0.722518</vAcc></extensions></trkpt>
      <trkpt lon="-4.158473" lat="53.017882"><ele>575.984802</ele><time>2021-07-17T12:58:31Z</time><extensions><speed>0.755666</speed><course>289.260345</course><hAcc>0.890983</hAcc><vAcc>0.722054</vAcc></extensions></trkpt>
      <trkpt lon="-4.158463" lat="53.017885"><ele>575.694885</ele><time>2021-07-17T12:58:32Z</time><extensions><speed>0.756708</speed><course>291.671295</course><hAcc>0.890845</hAcc><vAcc>0.721773</vAcc></extensions></trkpt>
      <trkpt lon="-4.158452" lat="53.017887"><ele>575.402893</ele><time>2021-07-17T12:58:33Z</time><extensions><speed>0.757239</speed><course>285.797272</course><hAcc>0.890742</hAcc><vAcc>0.721643</vAcc></extensions></trkpt>
      <trkpt lon="-4.158442" lat="53.017890"><ele>575.107117</ele><time>2021-07-17T12:58:34Z</time><extensions><speed>0.756715</speed><course>284.045776</course><hAcc>0.890669</hAcc><vAcc>0.721614</vAcc></extensions></trkpt>
      <trkpt lon="-4.158432" lat="53.017892"><ele>574.806702</ele><time>2021-07-17T12:58:35Z</time><extensions><speed>0.754411</speed><course>290.744446</course><hAcc>0.890640</hAcc><vAcc>0.721645</vAcc></extensions></trkpt>
      <trkpt lon="-4.158421" lat="53.017895"><ele>574.500671</ele><time>2021-07-17T12:58:36Z</time><extensions><speed>0.748953</speed><course>286.155334</course><hAcc>0.890649</hAcc><vAcc>0.721698</vAcc></extensions></trkpt>
      <trkpt lon="-4.158411" lat="53.017898"><ele>574.189209</ele><time>2021-07-17T12:58:37Z</time><extensions><speed>0.739640</speed><course>292.078705</course><hAcc>0.890669</hAcc><vAcc>0.721744</vAcc></extensions></trkpt>
      <trkpt lon="-4.158401" lat="53.017900"><ele>573.872498</ele><time>2021-07-17T12:58:38Z</time><extensions><speed>0.727400</speed><course>292.906311</course><hAcc>0.890694</hAcc><vAcc>0.721786</vAcc></extensions></trkpt>
      <trkpt lon="-4.158391" lat="53.017903"><ele>573.551086</ele><time>2021-07-17T12:58:38Z</time><extensions><speed>0.714335</speed><course>291.462067</course><hAcc>0.890735</hAcc><vAcc>0.721848</vAcc></extensions></trkpt>
      <trkpt lon="-4.158382" lat="53.017906"><ele>573.224121</ele><time>2021-07-17T12:58:39Z</time><extensions><speed>0.702402</speed><course>290.448425</course><hAcc>0.890785</hAcc><vAcc>0.721942</vAcc></extensions></trkpt>
      <trkpt lon="-4.158373" lat="53.017909"><ele>572.891602</ele><time>2021-07-17T12:58:40Z</time><extensions><speed>0.693249</speed><course>295.857269</course><hAcc>0.890821</hAcc><vAcc>0.722055</vAcc></extensions></trkpt>
      <trkpt lon="-4.158364" lat="53.017912"><ele>572.551758</ele><time>2021-07-17T12:58:42Z</time><extensions><speed>0.688015</speed><course>298.185364</course><hAcc>0.890820</hAcc><vAcc>0.722165</vAcc></extensions></trkpt>
      <trkpt lon="-4.158356" lat="53.017916"><ele>572.204102</ele><time>2021-07-17T12:58:42Z</time><extensions><speed>0.686568</speed><course>294.469940</course><hAcc>0.890799</hAcc><vAcc>0.722258</vAcc></extensions></trkpt>
      <trkpt lon="-4.158347" lat="53.017919"><ele>571.846619</ele><time>2021-07-17T12:58:44Z</time><extensions><speed>0.688070</speed><course>292.898438</course><hAcc>0.890754</hAcc><vAcc>0.722291</vAcc></extensions></trkpt>
      <trkpt lon="-4.158339" lat="53.017923"><ele>571.481262</ele><time>2021-07-17T12:58:44Z</time><extensions><speed>0.692163</speed><course>292.422791</course><hAcc>0.890686</hAcc><vAcc>0.722217</vAcc></extensions></trkpt>
      <trkpt lon="-4.158331" lat="53.017927"><ele>571.108337</ele><time>2021-07-17T12:58:45Z</time><extensions><speed>0.698458</speed><course>292.622986</course><hAcc>0.890613</hAcc><vAcc>0.722015</vAcc></extensions></trkpt>
      <trkpt lon="-4.158322" lat="53.017930"><ele>570.730774</ele><time>2021-07-17T12:58:46Z</time><extensions><speed>0.706120</speed><course>292.749084</course><hAcc>0.890521</hAcc><vAcc>0.721659</vAcc></extensions></trkpt>
      <trkpt lon="-4.158314" lat="53.017934"><ele>570.351868</ele><time>2021-07-17T12:58:47Z</time><extensions><speed>0.714375</speed><course>294.832458</course><hAcc>0.890410</hAcc><vAcc>0.721167</vAcc></extensions></trkpt>
      <trkpt lon="-4.158305" lat="53.017938"><ele>569.975098</ele><time>2021-07-17T12:58:48Z</time><extensions><speed>0.723015</speed><course>290.563019</course><hAcc>0.890283</hAcc><vAcc>0.720581</vAcc></extensions></trkpt>
      <trkpt lon="-4.158296" lat="53.017942"><ele>569.603943</ele><time>2021-07-17T12:58:49Z</time><extensions><speed>0.732269</speed><course>288.082062</course><hAcc>0.890145</hAcc><vAcc>0.719950</vAcc></extensions></trkpt>
      <trkpt lon="-4.158287" lat="53.017945"><ele>569.241516</ele><time>2021-07-17T12:58:50Z</time><extensions><speed>0.741918</speed><course>289.238037</course><hAcc>0.890000</hAcc><vAcc>0.719323</vAcc></extensions></trkpt>
      <trkpt lon="-4.158278" lat="53.017949"><ele>568.890625</ele><time>2021-07-17T12:58:51Z</time><extensions><speed>0.751409</speed><course>289.037109</course><hAcc>0.889855</hAcc><vAcc>0.718738</vAcc></extensions></trkpt>
      <trkpt lon="-4.158268" lat="53.017952"><ele>568.552612</ele><time>2021-07-17T12:58:52Z</time><extensions><speed>0.760467</speed><course>291.884949</course><hAcc>0.889716</hAcc><vAcc>0.718222</vAcc></extensions></trkpt>
      <trkpt lon="-4.158258" lat="53.017956"><ele>568.227478</ele><time>2021-07-17T12:58:53Z</time><extensions><speed>0.768626</speed><course>287.567657</course><hAcc>0.889588</hAcc><vAcc>0.717789</vAcc></extensions></trkpt>
      <trkpt lon="-4.158248" lat="53.017959"><ele>567.914978</ele><time>2021-07-17T12:58:54Z</time><extensions><speed>0.775156</speed><course>291.768890</course><hAcc>0.889474</hAcc><vAcc>0.717443</vAcc></extensions></trkpt>
      <trkpt lon="-4.158238" lat="53.017963"><ele>567.615051</ele><time>2021-07-17T12:58:55Z</time><extensions><speed>0.779317</speed><course>296.126740</course><hAcc>0.889376</hAcc><vAcc>0.717180</vAcc></extensions></trkpt>
      <trkpt lon="-4.158228" lat="53.017966"><ele>567.327942</ele><time>2021-07-17T12:58:56Z</time><extensions><speed>0.780936</speed><course>297.059143</course><hAcc>0.889294</hAcc><vAcc>0.716985</vAcc></extensions></trkpt>
      <trkpt lon="-4.158217" lat="53.017969"><ele>567.053711</ele><time>2021-07-17T12:58:57Z</time><extensions><speed>0.780738</speed><course>303.696320</course><hAcc>0.889226</hAcc><vAcc>0.716842</vAcc></extensions></trkpt>
      <trkpt lon="-4.158207" lat="53.017972"><ele>566.792908</ele><time>2021-07-17T12:58:58Z</time><extensions><speed>0.779569</speed><course>307.460022</course><hAcc>0.889170</hAcc><vAcc>0.716733</vAcc></extensions></trkpt>
      <trkpt lon="-4.158196" lat="53.017975"><ele>566.546326</ele><time>2021-07-17T12:58:59Z</time><extensions><speed>0.777943</speed><course>302.094666</course><hAcc>0.889123</hAcc><vAcc>0.716641</vAcc></extensions></trkpt>
      <trkpt lon="-4.158186" lat="53.017978"><ele>566.314697</ele><time>2021-07-17T12:59:00Z</time><extensions><speed>0.775707</speed><course>294.763123</course><hAcc>0.889082</hAcc><vAcc>0.716548</vAcc></extensions></trkpt>
      <trkpt lon="-4.158176" lat="53.017981"><ele>566.097656</ele><time>2021-07-17T12:59:01Z</time><extensions><speed>0.771847</speed><course>292.310913</course><hAcc>0.889046</hAcc><vAcc>0.716442</vAcc></extensions></trkpt>
      <trkpt lon="-4.158165" lat="53.017984"><ele>565.893494</ele><time>2021-07-17T12:59:02Z</time><extensions><speed>0.765072</speed><course>286.252472</course><hAcc>0.889013</hAcc><vAcc>0.716319</vAcc></extensions></trkpt>
      <trkpt lon="-4.158155" lat="53.017987"><ele>565.699402</ele><time>2021-07-17T12:59:03Z</time><extensions><speed>0.754434</speed><course>277.085999</course><hAcc>0.888980</hAcc><vAcc>0.716186</vAcc></extensions></trkpt>
      <trkpt lon="-4.158145" lat="53.017990"><ele>565.512756</ele><time>2021-07-17T12:59:04Z</time><extensions><speed>0.738939</speed><course>269.880463</course><hAcc>0.888948</hAcc><vAcc>0.716054</vAcc></extensions></trkpt>
      <trkpt lon="-4.158136" lat="53.017993"><ele>565.331299</ele><time>2021-07-17T12:59:05Z</time><extensions><speed>0.718016</speed><course>256.014618</course><hAcc>0.888917</hAcc><vAcc>0.715930</vAcc></extensions></trkpt>
      <trkpt lon="-4.158126" lat="53.017996"><ele>565.152893</ele><time>2021-07-17T12:59:06Z</time><extensions><speed>0.692069</speed><course>250.524368</course><hAcc>0.888887</hAcc><vAcc>0.715818</vAcc></extensions></trkpt>
      <trkpt lon="-4.158118" lat="53.018000"><ele>564.975586</ele><time>2021-07-17T12:59:07Z</time><extensions><speed>0.662151</speed><course>237.491638</course><hAcc>0.888861</hAcc><vAcc>0.715721</vAcc></extensions></trkpt>
      <trkpt lon="-4.158110" lat="53.018003"><ele>564.797058</ele><time>2021-07-17T12:59:08Z</time><extensions><speed>0.630560</speed><course>231.976761</course><hAcc>0.888840</hAcc><vAcc>0.715642</vAcc></extensions></trkpt>
      <trkpt lon="-4.158103" lat="53.018006"><ele>564.614075</ele><time>2021-07-17T12:59:09Z</time><extensions><speed>0.601021</speed><course>228.504318</course><hAcc>0.888825</hAcc><vAcc>0.715580</vAcc></extensions></trkpt>
      <trkpt lon="-4.158096" lat="53.018010"><ele>564.422241</ele><time>2021-07-17T12:59:10Z</time><extensions><speed>0.577398</speed><course>227.577087</course><hAcc>0.888819</hAcc><vAcc>0.715541</vAcc></extensions></trkpt>
      <trkpt lon="-4.158091" lat="53.018014"><ele>564.217651</ele><time>2021-07-17T12:59:11Z</time><extensions><speed>0.562926</speed><course>219.513672</course><hAcc>0.888822</hAcc><vAcc>0.715530</vAcc></extensions></trkpt>
      <trkpt lon="-4.158087" lat="53.018018"><ele>563.997742</ele><time>2021-07-17T12:59:12Z</time><extensions><speed>0.559058</speed><course>224.903015</course><hAcc>0.888836</hAcc><vAcc>0.715554</vAcc></extensions></trkpt>
      <trkpt lon="-4.158084" lat="53.018023"><ele>563.761353</ele><time>2021-07-17T12:59:13Z</time><extensions><speed>0.564810</speed><course>222.390198</course><hAcc>0.888861</hAcc><vAcc>0.715619</vAcc></extensions></trkpt>
      <trkpt lon="-4.158081" lat="53.018028"><ele>563.508789</ele><time>2021-07-17T12:59:14Z</time><extensions><speed>0.577860</speed><course>223.313202</course><hAcc>0.888897</hAcc><vAcc>0.715727</vAcc></extensions></trkpt>
      <trkpt lon="-4.158080" lat="53.018033"><ele>563.241028</ele><time>2021-07-17T12:59:15Z</time><extensions><speed>0.595694</speed><course>224.045700</course><hAcc>0.888946</hAcc><vAcc>0.715880</vAcc></extensions></trkpt>
      <trkpt lon="-4.158079" lat="53.018039"><ele>562.960266</ele><time>2021-07-17T12:59:16Z</time><extensions><speed>0.616405</speed><course>224.975723</course><hAcc>0.889006</hAcc><vAcc>0.716075</vAcc></extensions></trkpt>
      <trkpt lon="-4.158079" lat="53.018044"><ele>562.669128</ele><time>2021-07-17T12:59:17Z</time><extensions><speed>0.638432</speed><course>226.513992</course><hAcc>0.889078</hAcc><vAcc>0.716306</vAcc></extensions></trkpt>
      <trkpt lon="-4.158080" lat="53.018050"><ele>562.370483</ele><time>2021-07-17T12:59:18Z</time><extensions><speed>0.660524</speed><course>227.291473</course><hAcc>0.889161</hAcc><vAcc>0.716565</vAcc></extensions></trkpt>
      <trkpt lon="-4.158081" lat="53.018056"><ele>562.067017</ele><time>2021-07-17T12:59:19Z</time><extensions><speed>0.681698</speed><course>231.833313</course><hAcc>0.889254</hAcc><vAcc>0.716850</vAcc></extensions></trkpt>
      <trkpt lon="-4.158082" lat="53.018062"><ele>561.760925</ele><time>2021-07-17T12:59:21Z</time><extensions><speed>0.701043</speed><course>230.421005</course><hAcc>0.889339</hAcc><vAcc>0.717142</vAcc></extensions></trkpt>
      <trkpt lon="-4.158085" lat="53.018068"><ele>561.454651</ele><time>2021-07-17T12:59:22Z</time><extensions><speed>0.717991</speed><course>235.980087</course><hAcc>0.889414</hAcc><vAcc>0.717435</vAcc></extensions></trkpt>
      <trkpt lon="-4.158087" lat="53.018075"><ele>561.149292</ele><time>2021-07-17T12:59:23Z</time><extensions><speed>0.732770</speed><course>243.213364</course><hAcc>0.889495</hAcc><vAcc>0.717735</vAcc></extensions></trkpt>
      <trkpt lon="-4.158090" lat="53.018081"><ele>560.846252</ele><time>2021-07-17T12:59:24Z</time><extensions><speed>0.745894</speed><course>253.165268</course><hAcc>0.889582</hAcc><vAcc>0.718034</vAcc></extensions></trkpt>
      <trkpt lon="-4.158093" lat="53.018088"><ele>560.546997</ele><time>2021-07-17T12:59:25Z</time><extensions><speed>0.757977</speed><course>266.505096</course><hAcc>0.889671</hAcc><vAcc>0.718329</vAcc></extensions></trkpt>
      <trkpt lon="-4.158096" lat="53.018094"><ele>560.252869</ele><time>2021-07-17T12:59:26Z</time><extensions><speed>0.769507</speed><course>267.255646</course><hAcc>0.889763</hAcc><vAcc>0.718617</vAcc></extensions></trkpt>
      <trkpt lon="-4.158100" lat="53.018101"><ele>559.965088</ele><time>2021-07-17T12:59:27Z</time><extensions><speed>0.780563</speed><course>271.176971</course><hAcc>0.889856</hAcc><vAcc>0.718902</vAcc></extensions></trkpt>
      <trkpt lon="-4.158104" lat="53.018107"><ele>559.684631</ele><time>2021-07-17T12:59:28Z</time><extensions><speed>0.790971</speed><course>283.145996</course><hAcc>0.889949</hAcc><vAcc>0.719187</vAcc></extensions></trkpt>
      <trkpt lon="-4.158109" lat="53.018114"><ele>559.412170</ele><time>2021-07-17T12:59:29Z</time><extensions><speed>0.800420</speed><course>291.499756</course><hAcc>0.890040</hAcc><vAcc>0.719477</vAcc></extensions></trkpt>
      <trkpt lon="-4.158114" lat="53.018121"><ele>559.148132</ele><time>2021-07-17T12:59:30Z</time><extensions><speed>0.808506</speed><course>295.960785</course><hAcc>0.890127</hAcc><vAcc>0.719773</vAcc></extensions></trkpt>
      <trkpt lon="-4.158119" lat="53.018127"><ele>558.893005</ele><time>2021-07-17T12:59:31Z</time><extensions><speed>0.814954</speed><course>298.309418</course><hAcc>0.890210</hAcc><vAcc>0.720072</vAcc></extensions></trkpt>
      <trkpt lon="-4.158124" lat="53.018134"><ele>558.647339</ele><time>2021-07-17T12:59:32Z</time><extensions><speed>0.819733</speed><course>301.442566</course><hAcc>0.890285</hAcc><vAcc>0.720363</vAcc></extensions></trkpt>
      <trkpt lon="-4.158130" lat="53.018140"><ele>558.411621</ele><time>2021-07-17T12:59:33Z</time><extensions><speed>0.822881</speed><course>301.820831</course><hAcc>0.890353</hAcc><vAcc>0.720630</vAcc></extensions></trkpt>
      <trkpt lon="-4.158137" lat="53.018147"><ele>558.186218</ele><time>2021-07-17T12:59:34Z</time><extensions><speed>0.824191</speed><course>306.533081</course><hAcc>0.890410</hAcc><vAcc>0.720860</vAcc></extensions></trkpt>
      <trkpt lon="-4.158143" lat="53.018153"><ele>557.971008</ele><time>2021-07-17T12:59:35Z</time><extensions><speed>0.823136</speed><course>310.759277</course><hAcc>0.890457</hAcc><vAcc>0.721041</vAcc></extensions></trkpt>
      <trkpt lon="-4.158150" lat="53.018159"><ele>557.765869</ele><time>2021-07-17T12:59:36Z</time><extensions><speed>0.818966</speed><course>315.721252</course><hAcc>0.890491</hAcc><vAcc>0.721167</vAcc></extensions></trkpt>
      <trkpt lon="-4.158158" lat="53.018165"><ele>557.570374</ele><time>2021-07-17T12:59:37Z</time><extensions><speed>0.810957</speed><course>321.376434</course><hAcc>0.890513</hAcc><vAcc>0.721234</vAcc></extensions></trkpt>
      <trkpt lon="-4.158165" lat="53.018170"><ele>557.384277</ele><time>2021-07-17T12:59:38Z</time><extensions><speed>0.799126</speed><course>321.893402</course><hAcc>0.890525</hAcc><vAcc>0.721243</vAcc></extensions></trkpt>
      <trkpt lon="-4.158173" lat="53.018176"><ele>557.207336</ele><time>2021-07-17T12:59:39Z</time><extensions><speed>0.784223</speed><course>325.867676</course><hAcc>0.890526</hAcc><vAcc>0.721198</vAcc></extensions></trkpt>
      <trkpt lon="-4.158181" lat="53.018181"><ele>557.039429</ele><time>2021-07-17T12:59:40Z</time><extensions><speed>0.767158</speed><course>319.975250</course><hAcc>0.890520</hAcc><vAcc>0.721117</vAcc></extensions></trkpt>
      <trkpt lon="-4.158189" lat="53.018185"><ele>556.880554</ele><time>2021-07-17T12:59:41Z</time><extensions><speed>0.749003</speed><course>320.826599</course><hAcc>0.890508</hAcc><vAcc>0.721016</vAcc></extensions></trkpt>
      <trkpt lon="-4.158197" lat="53.018190"><ele>556.730896</ele><time>2021-07-17T12:59:42Z</time><extensions><speed>0.730649</speed><course>320.826599</course><hAcc>0.890493</hAcc><vAcc>0.720917</vAcc></extensions></trkpt>
      <trkpt lon="-4.158205" lat="53.018194"><ele>556.590332</ele><time>2021-07-17T12:59:43Z</time><extensions><speed>0.712710</speed><course>320.826599</course><hAcc>0.890478</hAcc><vAcc>0.720832</vAcc></extensions></trkpt>
      <trkpt lon="-4.158214" lat="53.018198"><ele>556.458252</ele><time>2021-07-17T12:59:44Z</time><extensions><speed>0.695870</speed><course>320.826599</course><hAcc>0.890467</hAcc><vAcc>0.720772</vAcc></extensions></trkpt>
      <trkpt lon="-4.158222" lat="53.018202"><ele>556.333740</ele><time>2021-07-17T12:59:45Z</time><extensions><speed>0.681233</speed><course>320.826599</course><hAcc>0.890464</hAcc><vAcc>0.720740</vAcc></extensions></trkpt>
      <trkpt lon="-4.158230" lat="53.018205"><ele>556.215454</ele><time>2021-07-17T12:59:46Z</time><extensions><speed>0.670126</speed><course>320.826599</course><hAcc>0.890471</hAcc><vAcc>0.720744</vAcc></extensions></trkpt>
      <trkpt lon="-4.158238" lat="53.018208"><ele>556.101990</ele><time>2021-07-17T12:59:47Z</time><extensions><speed>0.663843</speed><course>320.826599</course><hAcc>0.890490</hAcc><vAcc>0.720789</vAcc></extensions></trkpt>
      <trkpt lon="-4.158247" lat="53.018212"><ele>555.991577</ele><time>2021-07-17T12:59:48Z</time><extensions><speed>0.663429</speed><course>320.826599</course><hAcc>0.890522</hAcc><vAcc>0.720883</vAcc></extensions></trkpt>
      <trkpt lon="-4.158255" lat="53.018215"><ele>555.882751</ele><time>2021-07-17T12:59:49Z</time><extensions><speed>0.669175</speed><course>320.826599</course><hAcc>0.890567</hAcc><vAcc>0.721030</vAcc></extensions></trkpt>
      <trkpt lon="-4.158264" lat="53.018217"><ele>555.774841</ele><time>2021-07-17T12:59:50Z</time><extensions><speed>0.680568</speed><course>320.826599</course><hAcc>0.890625</hAcc><vAcc>0.721227</vAcc></extensions></trkpt>
      <trkpt lon="-4.158274" lat="53.018220"><ele>555.667419</ele><time>2021-07-17T12:59:51Z</time><extensions><speed>0.696669</speed><course>320.826599</course><hAcc>0.890695</hAcc><vAcc>0.721470</vAcc></extensions></trkpt>
      <trkpt lon="-4.158283" lat="53.018223"><ele>555.560730</ele><time>2021-07-17T12:59:52Z</time><extensions><speed>0.716143</speed><course>320.826599</course><hAcc>0.890776</hAcc><vAcc>0.721750</vAcc></extensions></trkpt>
      <trkpt lon="-4.158293" lat="53.018225"><ele>555.455627</ele><time>2021-07-17T12:59:53Z</time><extensions><speed>0.737422</speed><course>320.826599</course><hAcc>0.890865</hAcc><vAcc>0.722062</vAcc></extensions></trkpt>
      <trkpt lon="-4.158304" lat="53.018227"><ele>555.353638</ele><time>2021-07-17T12:59:54Z</time><extensions><speed>0.759049</speed><course>320.826599</course><hAcc>0.890958</hAcc><vAcc>0.722398</vAcc></extensions></trkpt>
      <trkpt lon="-4.158315" lat="53.018230"><ele>555.256470</ele><time>2021-07-17T12:59:55Z</time><extensions><speed>0.779912</speed><course>320.826599</course><hAcc>0.891053</hAcc><vAcc>0.722745</vAcc></extensions></trkpt>
      <trkpt lon="-4.158326" lat="53.018232"><ele>555.165466</ele><time>2021-07-17T12:59:56Z</time><extensions><speed>0.799990</speed><course>320.826599</course><hAcc>0.891145</hAcc><vAcc>0.723092</vAcc></extensions></trkpt>
      <trkpt lon="-4.158338" lat="53.018233"><ele>555.081665</ele><time>2021-07-17T12:59:57Z</time><extensions><speed>0.819660</speed><course>320.826599</course><hAcc>0.891230</hAcc><vAcc>0.723422</vAcc></extensions></trkpt>
      <trkpt lon="-4.158350" lat="53.018235"><ele>555.005554</ele><time>2021-07-17T12:59:58Z</time><extensions><speed>0.838667</speed><course>320.826599</course><hAcc>0.891305</hAcc><vAcc>0.723718</vAcc></extensions></trkpt>
      <trkpt lon="-4.158362" lat="53.018236"><ele>554.937500</ele><time>2021-07-17T12:59:59Z</time><extensions><speed>0.856308</speed><course>320.826599</course><hAcc>0.891366</hAcc><vAcc>0.723964</vAcc></extensions></trkpt>
      <trkpt lon="-4.158375" lat="53.018238"><ele>554.877747</ele><time>2021-07-17T13:00:00Z</time><extensions><speed>0.871456</speed><course>320.826599</course><hAcc>0.891410</hAcc><vAcc>0.724144</vAcc></extensions></trkpt>
      <trkpt lon="-4.158388" lat="53.018239"><ele>554.826050</ele><time>2021-07-17T13:00:01Z</time><extensions><speed>0.883089</speed><course>320.826599</course><hAcc>0.891434</hAcc><vAcc>0.724249</vAcc></extensions></trkpt>
      <trkpt lon="-4.158401" lat="53.018239"><ele>554.782227</ele><time>2021-07-17T13:00:02Z</time><extensions><speed>0.890617</speed><course>320.826569</course><hAcc>0.891437</hAcc><vAcc>0.724273</vAcc></extensions></trkpt>
      <trkpt lon="-4.158414" lat="53.018240"><ele>554.745544</ele><time>2021-07-17T13:00:03Z</time><extensions><speed>0.894028</speed><course>320.826569</course><hAcc>0.891417</hAcc><vAcc>0.724215</vAcc></extensions></trkpt>
      <trkpt lon="-4.158427" lat="53.018240"><ele>554.714844</ele><time>2021-07-17T13:00:04Z</time><extensions><speed>0.893629</speed><course>320.826569</course><hAcc>0.891374</hAcc><vAcc>0.724069</vAcc></extensions></trkpt>
      <trkpt lon="-4.158441" lat="53.018241"><ele>554.688049</ele><time>2021-07-17T13:00:05Z</time><extensions><speed>0.889647</speed><course>320.826569</course><hAcc>0.891310</hAcc><vAcc>0.723835</vAcc></extensions></trkpt>
      <trkpt lon="-4.158454" lat="53.018241"><ele>554.662109</ele><time>2021-07-17T13:00:06Z</time><extensions><speed>0.882392</speed><course>306.179871</course><hAcc>0.891228</hAcc><vAcc>0.723518</vAcc></extensions></trkpt>
      <trkpt lon="-4.158467" lat="53.018241"><ele>554.633179</ele><time>2021-07-17T13:00:07Z</time><extensions><speed>0.871926</speed><course>252.340622</course><hAcc>0.891129</hAcc><vAcc>0.723134</vAcc></extensions></trkpt>
      <trkpt lon="-4.158480" lat="53.018241"><ele>554.597595</ele><time>2021-07-17T13:00:08Z</time><extensions><speed>0.858056</speed><course>240.417450</course><hAcc>0.891015</hAcc><vAcc>0.722705</vAcc></extensions></trkpt>
      <trkpt lon="-4.158492" lat="53.018240"><ele>554.551575</ele><time>2021-07-17T13:00:09Z</time><extensions><speed>0.840535</speed><course>226.735764</course><hAcc>0.890888</hAcc><vAcc>0.722250</vAcc></extensions></trkpt>
      <trkpt lon="-4.158505" lat="53.018240"><ele>554.490723</ele><time>2021-07-17T13:00:10Z</time><extensions><speed>0.819341</speed><course>213.254318</course><hAcc>0.890751</hAcc><vAcc>0.721785</vAcc></extensions></trkpt>
      <trkpt lon="-4.158517" lat="53.018241"><ele>554.410278</ele><time>2021-07-17T13:00:11Z</time><extensions><speed>0.795249</speed><course>209.983795</course><hAcc>0.890609</hAcc><vAcc>0.721319</vAcc></extensions></trkpt>
      <trkpt lon="-4.158528" lat="53.018241"><ele>554.305542</ele><time>2021-07-17T13:00:12Z</time><extensions><speed>0.769357</speed><course>212.464371</course><hAcc>0.890464</hAcc><vAcc>0.720860</vAcc></extensions></trkpt>
      <trkpt lon="-4.158540" lat="53.018241"><ele>554.172607</ele><time>2021-07-17T13:00:13Z</time><extensions><speed>0.742442</speed><course>212.464355</course><hAcc>0.890323</hAcc><vAcc>0.720411</vAcc></extensions></trkpt>
      <trkpt lon="-4.158550" lat="53.018242"><ele>554.008179</ele><time>2021-07-17T13:00:14Z</time><extensions><speed>0.715493</speed><course>212.464355</course><hAcc>0.890189</hAcc><vAcc>0.719975</vAcc></extensions></trkpt>
      <trkpt lon="-4.158561" lat="53.018244"><ele>553.809814</ele><time>2021-07-17T13:00:15Z</time><extensions><speed>0.690154</speed><course>212.464340</course><hAcc>0.890070</hAcc><vAcc>0.719559</vAcc></extensions></trkpt>
      <trkpt lon="-4.158571" lat="53.018245"><ele>553.575867</ele><time>2021-07-17T13:00:16Z</time><extensions><speed>0.668411</speed><course>212.464325</course><hAcc>0.889972</hAcc><vAcc>0.719178</vAcc></extensions></trkpt>
      <trkpt lon="-4.158580" lat="53.018247"><ele>553.305786</ele><time>2021-07-17T13:00:17Z</time><extensions><speed>0.651540</speed><course>212.464325</course><hAcc>0.889900</hAcc><vAcc>0.718858</vAcc></extensions></trkpt>
      <trkpt lon="-4.158589" lat="53.018249"><ele>553.000000</ele><time>2021-07-17T13:00:18Z</time><extensions><speed>0.639649</speed><course>212.464325</course><hAcc>0.889863</hAcc><vAcc>0.718629</vAcc></extensions></trkpt>
      <trkpt lon="-4.158597" lat="53.018252"><ele>552.659851</ele><time>2021-07-17T13:00:19Z</time><extensions><speed>0.632621</speed><course>212.464310</course><hAcc>0.889867</hAcc><vAcc>0.718523</vAcc></extensions></trkpt>
      <trkpt lon="-4.158605" lat="53.018255"><ele>552.287537</ele><time>2021-07-17T13:00:20Z</time><extensions><speed>0.630145</speed><course>305.064514</course><hAcc>0.889917</hAcc><vAcc>0.718576</vAcc></extensions></trkpt>
      <trkpt lon="-4.158613" lat="53.018258"><ele>551.886841</ele><time>2021-07-17T13:00:21Z</time><extensions><speed>0.631382</speed><course>295.507660</course><hAcc>0.890018</hAcc><vAcc>0.718819</vAcc></extensions></trkpt>
      <trkpt lon="-4.158621" lat="53.018261"><ele>551.463318</ele><time>2021-07-17T13:00:22Z</time><extensions><speed>0.635281</speed><course>292.618195</course><hAcc>0.890171</hAcc><vAcc>0.719278</vAcc></extensions></trkpt>
      <trkpt lon="-4.158628" lat="53.018265"><ele>551.024780</ele><time>2021-07-17T13:00:23Z</time><extensions><speed>0.640346</speed><course>285.374146</course><hAcc>0.890373</hAcc><vAcc>0.719968</vAcc></extensions></trkpt>
      <trkpt lon="-4.158635" lat="53.018268"><ele>550.580078</ele><time>2021-07-17T13:00:24Z</time><extensions><speed>0.644730</speed><course>282.990997</course><hAcc>0.890621</hAcc><vAcc>0.720891</vAcc></extensions></trkpt>
      <trkpt lon="-4.158643" lat="53.018272"><ele>550.137268</ele><time>2021-07-17T13:00:25Z</time><extensions><speed>0.647105</speed><course>269.408752</course><hAcc>0.890908</hAcc><vAcc>0.722024</vAcc></extensions></trkpt>
      <trkpt lon="-4.158650" lat="53.018276"><ele>549.703125</ele><time>2021-07-17T13:00:26Z</time><extensions><speed>0.646879</speed><course>268.581787</course><hAcc>0.891223</hAcc><vAcc>0.723311</vAcc></extensions></trkpt>
      <trkpt lon="-4.158657" lat="53.018280"><ele>549.282654</ele><time>2021-07-17T13:00:27Z</time><extensions><speed>0.643765</speed><course>262.171875</course><hAcc>0.891558</hAcc><vAcc>0.724669</vAcc></extensions></trkpt>
      <trkpt lon="-4.158664" lat="53.018284"><ele>548.879639</ele><time>2021-07-17T13:00:28Z</time><extensions><speed>0.637717</speed><course>261.539520</course><hAcc>0.891900</hAcc><vAcc>0.726005</vAcc></extensions></trkpt>
      <trkpt lon="-4.158671" lat="53.018288"><ele>548.497314</ele><time>2021-07-17T13:00:29Z</time><extensions><speed>0.628640</speed><course>255.803879</course><hAcc>0.892236</hAcc><vAcc>0.727245</vAcc></extensions></trkpt>
      <trkpt lon="-4.158678" lat="53.018292"><ele>548.138123</ele><time>2021-07-17T13:00:30Z</time><extensions><speed>0.616495</speed><course>247.733398</course><hAcc>0.892552</hAcc><vAcc>0.728338</vAcc></extensions></trkpt>
      <trkpt lon="-4.158685" lat="53.018295"><ele>547.803711</ele><time>2021-07-17T13:00:31Z</time><extensions><speed>0.601599</speed><course>231.932861</course><hAcc>0.892831</hAcc><vAcc>0.729253</vAcc></extensions></trkpt>
      <trkpt lon="-4.158691" lat="53.018299"><ele>547.494690</ele><time>2021-07-17T13:00:32Z</time><extensions><speed>0.584542</speed><course>232.043365</course><hAcc>0.893060</hAcc><vAcc>0.729974</vAcc></extensions></trkpt>
      <trkpt lon="-4.158698" lat="53.018302"><ele>547.211182</ele><time>2021-07-17T13:00:33Z</time><extensions><speed>0.565907</speed><course>225.182800</course><hAcc>0.893228</hAcc><vAcc>0.730496</vAcc></extensions></trkpt>
      <trkpt lon="-4.158705" lat="53.018305"><ele>546.953064</ele><time>2021-07-17T13:00:34Z</time><extensions><speed>0.546070</speed><course>222.937302</course><hAcc>0.893326</hAcc><vAcc>0.730822</vAcc></extensions></trkpt>
      <trkpt lon="-4.158712" lat="53.018307"><ele>546.720276</ele><time>2021-07-17T13:00:35Z</time><extensions><speed>0.525730</speed><course>226.615036</course><hAcc>0.893348</hAcc><vAcc>0.730951</vAcc></extensions></trkpt>
      <trkpt lon="-4.158719" lat="53.018309"><ele>546.512207</ele><time>2021-07-17T13:00:36Z</time><extensions><speed>0.506149</speed><course>227.377960</course><hAcc>0.893294</hAcc><vAcc>0.730880</vAcc></extensions></trkpt>
      <trkpt lon="-4.158725" lat="53.018311"><ele>546.328247</ele><time>2021-07-17T13:00:37Z</time><extensions><speed>0.488322</speed><course>225.027542</course><hAcc>0.893170</hAcc><vAcc>0.730600</vAcc></extensions></trkpt>
      <trkpt lon="-4.158732" lat="53.018313"><ele>546.167297</ele><time>2021-07-17T13:00:38Z</time><extensions><speed>0.472393</speed><course>217.523773</course><hAcc>0.892987</hAcc><vAcc>0.730101</vAcc></extensions></trkpt>
      <trkpt lon="-4.158739" lat="53.018314"><ele>546.028259</ele><time>2021-07-17T13:00:39Z</time><extensions><speed>0.458265</speed><course>217.503448</course><hAcc>0.892760</hAcc><vAcc>0.729378</vAcc></extensions></trkpt>
      <trkpt lon="-4.158745" lat="53.018315"><ele>545.909851</ele><time>2021-07-17T13:00:40Z</time><extensions><speed>0.445123</speed><course>222.947372</course><hAcc>0.892508</hAcc><vAcc>0.728447</vAcc></extensions></trkpt>
      <trkpt lon="-4.158751" lat="53.018316"><ele>545.809631</ele><time>2021-07-17T13:00:40Z</time><extensions><speed>0.431157</speed><course>228.737518</course><hAcc>0.892270</hAcc><vAcc>0.727372</vAcc></extensions></trkpt>
      <trkpt lon="-4.158758" lat="53.018317"><ele>545.723083</ele><time>2021-07-17T13:00:41Z</time><extensions><speed>0.415038</speed><course>234.887939</course><hAcc>0.892061</hAcc><vAcc>0.726246</vAcc></extensions></trkpt>
      <trkpt lon="-4.158764" lat="53.018317"><ele>545.645142</ele><time>2021-07-17T13:00:42Z</time><extensions><speed>0.396224</speed><course>232.671463</course><hAcc>0.891877</hAcc><vAcc>0.725183</vAcc></extensions></trkpt>
      <trkpt lon="-4.158769" lat="53.018318"><ele>545.570923</ele><time>2021-07-17T13:00:43Z</time><extensions><speed>0.374710</speed><course>228.680756</course><hAcc>0.891732</hAcc><vAcc>0.724311</vAcc></extensions></trkpt>
      <trkpt lon="-4.158774" lat="53.018319"><ele>545.495972</ele><time>2021-07-17T13:00:44Z</time><extensions><speed>0.351717</speed><course>228.367065</course><hAcc>0.891637</hAcc><vAcc>0.723728</vAcc></extensions></trkpt>
      <trkpt lon="-4.158779" lat="53.018320"><ele>545.416809</ele><time>2021-07-17T13:00:45Z</time><extensions><speed>0.328985</speed><course>227.760208</course><hAcc>0.891602</hAcc><vAcc>0.723494</vAcc></extensions></trkpt>
      <trkpt lon="-4.158784" lat="53.018321"><ele>545.330383</ele><time>2021-07-17T13:00:46Z</time><extensions><speed>0.307603</speed><course>230.377014</course><hAcc>0.891633</hAcc><vAcc>0.723626</vAcc></extensions></trkpt>
      <trkpt lon="-4.158788" lat="53.018322"><ele>545.233887</ele><time>2021-07-17T13:00:47Z</time><extensions><speed>0.288611</speed><course>236.559235</course><hAcc>0.891731</hAcc><vAcc>0.724104</vAcc></extensions></trkpt>
      <trkpt lon="-4.158791" lat="53.018323"><ele>545.125061</ele><time>2021-07-17T13:00:48Z</time><extensions><speed>0.273433</speed><course>232.877869</course><hAcc>0.891893</hAcc><vAcc>0.724876</vAcc></extensions></trkpt>
      <trkpt lon="-4.158794" lat="53.018325"><ele>545.003174</ele><time>2021-07-17T13:00:49Z</time><extensions><speed>0.262425</speed><course>233.901962</course><hAcc>0.892112</hAcc><vAcc>0.725875</vAcc></extensions></trkpt>
      <trkpt lon="-4.158797" lat="53.018326"><ele>544.868042</ele><time>2021-07-17T13:00:50Z</time><extensions><speed>0.254786</speed><course>234.840546</course><hAcc>0.892380</hAcc><vAcc>0.727020</vAcc></extensions></trkpt>
      <trkpt lon="-4.158800" lat="53.018328"><ele>544.719910</ele><time>2021-07-17T13:00:51Z</time><extensions><speed>0.249225</speed><course>231.563858</course><hAcc>0.892684</hAcc><vAcc>0.728228</vAcc></extensions></trkpt>
      <trkpt lon="-4.158803" lat="53.018329"><ele>544.558960</ele><time>2021-07-17T13:00:52Z</time><extensions><speed>0.244530</speed><course>226.163422</course><hAcc>0.893011</hAcc><vAcc>0.729429</vAcc></extensions></trkpt>
      <trkpt lon="-4.158805" lat="53.018331"><ele>544.385071</ele><time>2021-07-17T13:00:53Z</time><extensions><speed>0.240325</speed><course>224.694687</course><hAcc>0.893347</hAcc><vAcc>0.730579</vAcc></extensions></trkpt>
      <trkpt lon="-4.158808" lat="53.018332"><ele>544.198547</ele><time>2021-07-17T13:00:54Z</time><extensions><speed>0.236728</speed><course>227.400024</course><hAcc>0.893679</hAcc><vAcc>0.731653</vAcc></extensions></trkpt>
      <trkpt lon="-4.158810" lat="53.018334"><ele>543.999878</ele><time>2021-07-17T13:00:55Z</time><extensions><speed>0.233943</speed><course>225.215622</course><hAcc>0.893995</hAcc><vAcc>0.732635</vAcc></extensions></trkpt>
      <trkpt lon="-4.158813" lat="53.018335"><ele>543.789978</ele><time>2021-07-17T13:00:56Z</time><extensions><speed>0.232314</speed><course>227.979385</course><hAcc>0.894288</hAcc><vAcc>0.733520</vAcc></extensions></trkpt>
      <trkpt lon="-4.158815" lat="53.018337"><ele>543.569946</ele><time>2021-07-17T13:00:57Z</time><extensions><speed>0.232439</speed><course>238.133682</course><hAcc>0.894553</hAcc><vAcc>0.734304</vAcc></extensions></trkpt>
      <trkpt lon="-4.158818" lat="53.018338"><ele>543.341064</ele><time>2021-07-17T13:00:58Z</time><extensions><speed>0.234912</speed><course>235.678314</course><hAcc>0.894785</hAcc><vAcc>0.734992</vAcc></extensions></trkpt>
      <trkpt lon="-4.158821" lat="53.018340"><ele>543.104492</ele><time>2021-07-17T13:00:59Z</time><extensions><speed>0.239872</speed><course>238.960709</course><hAcc>0.894983</hAcc><vAcc>0.735588</vAcc></extensions></trkpt>
      <trkpt lon="-4.158823" lat="53.018341"><ele>542.861267</ele><time>2021-07-17T13:01:00Z</time><extensions><speed>0.247328</speed><course>237.793289</course><hAcc>0.895145</hAcc><vAcc>0.736099</vAcc></extensions></trkpt>
      <trkpt lon="-4.158826" lat="53.018342"><ele>542.612488</ele><time>2021-07-17T13:01:01Z</time><extensions><speed>0.257033</speed><course>238.209671</course><hAcc>0.895269</hAcc><vAcc>0.736527</vAcc></extensions></trkpt>
      <trkpt lon="-4.158830" lat="53.018344"><ele>542.359253</ele><time>2021-07-17T13:01:02Z</time><extensions><speed>0.267947</speed><course>239.435074</course><hAcc>0.895356</hAcc><vAcc>0.736866</vAcc></extensions></trkpt>
      <trkpt lon="-4.158833" lat="53.018345"><ele>542.102783</ele><time>2021-07-17T13:01:03Z</time><extensions><speed>0.278834</speed><course>238.666733</course><hAcc>0.895406</hAcc><vAcc>0.737107</vAcc></extensions></trkpt>
      <trkpt lon="-4.158837" lat="53.018346"><ele>541.844177</ele><time>2021-07-17T13:01:04Z</time><extensions><speed>0.288774</speed><course>234.077820</course><hAcc>0.895422</hAcc><vAcc>0.737237</vAcc></extensions></trkpt>
      <trkpt lon="-4.158840" lat="53.018348"><ele>541.584900</ele><time>2021-07-17T13:01:05Z</time><extensions><speed>0.297105</speed><course>227.293335</course><hAcc>0.895406</hAcc><vAcc>0.737240</vAcc></extensions></trkpt>
      <trkpt lon="-4.158844" lat="53.018349"><ele>541.326477</ele><time>2021-07-17T13:01:06Z</time><extensions><speed>0.303570</speed><course>230.072769</course><hAcc>0.895364</hAcc><vAcc>0.737106</vAcc></extensions></trkpt>
      <trkpt lon="-4.158848" lat="53.018351"><ele>541.070923</ele><time>2021-07-17T13:01:07Z</time><extensions><speed>0.308161</speed><course>228.397232</course><hAcc>0.895297</hAcc><vAcc>0.736832</vAcc></extensions></trkpt>
      <trkpt lon="-4.158852" lat="53.018352"><ele>540.820923</ele><time>2021-07-17T13:01:08Z</time><extensions><speed>0.310953</speed><course>230.234772</course><hAcc>0.895210</hAcc><vAcc>0.736425</vAcc></extensions></trkpt>
      <trkpt lon="-4.158856" lat="53.018354"><ele>540.579285</ele><time>2021-07-17T13:01:10Z</time><extensions><speed>0.312159</speed><course>226.599274</course><hAcc>0.895084</hAcc><vAcc>0.735894</vAcc></extensions></trkpt>
      <trkpt lon="-4.158860" lat="53.018355"><ele>540.348938</ele><time>2021-07-17T13:01:11Z</time><extensions><speed>0.312460</speed><course>226.515137</course><hAcc>0.894916</hAcc><vAcc>0.735275</vAcc></extensions></trkpt>
      <trkpt lon="-4.158863" lat="53.018357"><ele>540.130676</ele><time>2021-07-17T13:01:12Z</time><extensions><speed>0.313322</speed><course>226.136917</course><hAcc>0.894717</hAcc><vAcc>0.734619</vAcc></extensions></trkpt>
      <trkpt lon="-4.158867" lat="53.018359"><ele>539.924683</ele><time>2021-07-17T13:01:13Z</time><extensions><speed>0.316187</speed><course>230.381958</course><hAcc>0.894483</hAcc><vAcc>0.733940</vAcc></extensions></trkpt>
      <trkpt lon="-4.158870" lat="53.018361"><ele>539.730957</ele><time>2021-07-17T13:01:14Z</time><extensions><speed>0.321414</speed><course>226.727509</course><hAcc>0.894213</hAcc><vAcc>0.733225</vAcc></extensions></trkpt>
      <trkpt lon="-4.158873" lat="53.018363"><ele>539.549072</ele><time>2021-07-17T13:01:15Z</time><extensions><speed>0.328681</speed><course>230.180862</course><hAcc>0.893910</hAcc><vAcc>0.732440</vAcc></extensions></trkpt>
      <trkpt lon="-4.158877" lat="53.018365"><ele>539.378418</ele><time>2021-07-17T13:01:16Z</time><extensions><speed>0.337539</speed><course>225.214905</course><hAcc>0.893580</hAcc><vAcc>0.731544</vAcc></extensions></trkpt>
      <trkpt lon="-4.158880" lat="53.018368"><ele>539.217896</ele><time>2021-07-17T13:01:17Z</time><extensions><speed>0.347391</speed><course>228.288971</course><hAcc>0.893230</hAcc><vAcc>0.730504</vAcc></extensions></trkpt>
      <trkpt lon="-4.158883" lat="53.018370"><ele>539.065979</ele><time>2021-07-17T13:01:18Z</time><extensions><speed>0.357562</speed><course>234.392639</course><hAcc>0.892866</hAcc><vAcc>0.729307</vAcc></extensions></trkpt>
      <trkpt lon="-4.158887" lat="53.018373"><ele>538.920471</ele><time>2021-07-17T13:01:19Z</time><extensions><speed>0.367642</speed><course>233.208801</course><hAcc>0.892493</hAcc><vAcc>0.727968</vAcc></extensions></trkpt>
      <trkpt lon="-4.158890" lat="53.018375"><ele>538.778137</ele><time>2021-07-17T13:01:20Z</time><extensions><speed>0.377606</speed><course>238.158752</course><hAcc>0.892114</hAcc><vAcc>0.726539</vAcc></extensions></trkpt>
      <trkpt lon="-4.158893" lat="53.018378"><ele>538.635193</ele><time>2021-07-17T13:01:21Z</time><extensions><speed>0.387482</speed><course>239.142517</course><hAcc>0.891731</hAcc><vAcc>0.725080</vAcc></extensions></trkpt>
      <trkpt lon="-4.158896" lat="53.018381"><ele>538.488342</ele><time>2021-07-17T13:01:22Z</time><extensions><speed>0.397239</speed><course>241.003922</course><hAcc>0.891349</hAcc><vAcc>0.723645</vAcc></extensions></trkpt>
      <trkpt lon="-4.158899" lat="53.018384"><ele>538.335388</ele><time>2021-07-17T13:01:23Z</time><extensions><speed>0.406242</speed><course>244.474228</course><hAcc>0.890974</hAcc><vAcc>0.722283</vAcc></extensions></trkpt>
      <trkpt lon="-4.158902" lat="53.018388"><ele>538.174866</ele><time>2021-07-17T13:01:24Z</time><extensions><speed>0.413518</speed><course>238.879150</course><hAcc>0.890615</hAcc><vAcc>0.721031</vAcc></extensions></trkpt>
      <trkpt lon="-4.158905" lat="53.018391"><ele>538.006226</ele><time>2021-07-17T13:01:25Z</time><extensions><speed>0.418348</speed><course>237.538528</course><hAcc>0.890278</hAcc><vAcc>0.719911</vAcc></extensions></trkpt>
      <trkpt lon="-4.158908" lat="53.018394"><ele>537.829956</ele><time>2021-07-17T13:01:26Z</time><extensions><speed>0.420196</speed><course>249.037552</course><hAcc>0.889968</hAcc><vAcc>0.718927</vAcc></extensions></trkpt>
      <trkpt lon="-4.158911" lat="53.018397"><ele>537.647461</ele><time>2021-07-17T13:01:27Z</time><extensions><speed>0.418908</speed><course>259.361603</course><hAcc>0.889692</hAcc><vAcc>0.718073</vAcc></extensions></trkpt>
      <trkpt lon="-4.158914" lat="53.018401"><ele>537.460632</ele><time>2021-07-17T13:01:28Z</time><extensions><speed>0.414999</speed><course>261.193176</course><hAcc>0.889452</hAcc><vAcc>0.717336</vAcc></extensions></trkpt>
      <trkpt lon="-4.158918" lat="53.018404"><ele>537.271667</ele><time>2021-07-17T13:01:29Z</time><extensions><speed>0.409499</speed><course>261.193146</course><hAcc>0.889251</hAcc><vAcc>0.716709</vAcc></extensions></trkpt>
      <trkpt lon="-4.158921" lat="53.018407"><ele>537.082520</ele><time>2021-07-17T13:01:30Z</time><extensions><speed>0.403446</speed><course>261.193146</course><hAcc>0.889088</hAcc><vAcc>0.716191</vAcc></extensions></trkpt>
      <trkpt lon="-4.158925" lat="53.018409"><ele>536.894836</ele><time>2021-07-17T13:01:31Z</time><extensions><speed>0.397561</speed><course>261.193146</course><hAcc>0.888963</hAcc><vAcc>0.715785</vAcc></extensions></trkpt>
      <trkpt lon="-4.158929" lat="53.018412"><ele>536.710083</ele><time>2021-07-17T13:01:32Z</time><extensions><speed>0.392415</speed><course>261.193146</course><hAcc>0.888873</hAcc><vAcc>0.715496</vAcc></extensions></trkpt>
      <trkpt lon="-4.158934" lat="53.018414"><ele>536.529480</ele><time>2021-07-17T13:01:33Z</time><extensions><speed>0.388128</speed><course>261.193146</course><hAcc>0.888816</hAcc><vAcc>0.715327</vAcc></extensions></trkpt>
      <trkpt lon="-4.158938" lat="53.018416"><ele>536.353943</ele><time>2021-07-17T13:01:34Z</time><extensions><speed>0.384182</speed><course>261.193146</course><hAcc>0.888790</hAcc><vAcc>0.715270</vAcc></extensions></trkpt>
      <trkpt lon="-4.158943" lat="53.018418"><ele>536.183655</ele><time>2021-07-17T13:01:35Z</time><extensions><speed>0.379911</speed><course>261.193146</course><hAcc>0.888789</hAcc><vAcc>0.715313</vAcc></extensions></trkpt>
      <trkpt lon="-4.158948" lat="53.018420"><ele>536.017700</ele><time>2021-07-17T13:01:36Z</time><extensions><speed>0.375092</speed><course>261.193146</course><hAcc>0.888811</hAcc><vAcc>0.715437</vAcc></extensions></trkpt>
      <trkpt lon="-4.158953" lat="53.018422"><ele>535.854309</ele><time>2021-07-17T13:01:37Z</time><extensions><speed>0.369689</speed><course>234.852402</course><hAcc>0.888850</hAcc><vAcc>0.715624</vAcc></extensions></trkpt>
      <trkpt lon="-4.158957" lat="53.018424"><ele>535.691589</ele><time>2021-07-17T13:01:38Z</time><extensions><speed>0.363644</speed><course>215.025620</course><hAcc>0.888903</hAcc><vAcc>0.715851</vAcc></extensions></trkpt>
      <trkpt lon="-4.158961" lat="53.018426"><ele>535.528137</ele><time>2021-07-17T13:01:39Z</time><extensions><speed>0.357392</speed><course>206.872131</course><hAcc>0.888963</hAcc><vAcc>0.716098</vAcc></extensions></trkpt>
      <trkpt lon="-4.158966" lat="53.018427"><ele>535.363098</ele><time>2021-07-17T13:01:40Z</time><extensions><speed>0.351493</speed><course>205.862991</course><hAcc>0.889027</hAcc><vAcc>0.716348</vAcc></extensions></trkpt>
      <trkpt lon="-4.158970" lat="53.018430"><ele>535.195923</ele><time>2021-07-17T13:01:41Z</time><extensions><speed>0.346026</speed><course>205.862976</course><hAcc>0.889089</hAcc><vAcc>0.716586</vAcc></extensions></trkpt>
      <trkpt lon="-4.158973" lat="53.018432"><ele>535.026672</ele><time>2021-07-17T13:01:42Z</time><extensions><speed>0.340602</speed><course>234.677673</course><hAcc>0.889146</hAcc><vAcc>0.716800</vAcc></extensions></trkpt>
      <trkpt lon="-4.158977" lat="53.018434"><ele>534.855713</ele><time>2021-07-17T13:01:43Z</time><extensions><speed>0.334735</speed><course>246.321655</course><hAcc>0.889194</hAcc><vAcc>0.716984</vAcc></extensions></trkpt>
      <trkpt lon="-4.158980" lat="53.018436"><ele>534.683899</ele><time>2021-07-17T13:01:44Z</time><extensions><speed>0.328554</speed><course>256.732239</course><hAcc>0.889231</hAcc><vAcc>0.717127</vAcc></extensions></trkpt>
      <trkpt lon="-4.158983" lat="53.018439"><ele>534.512390</ele><time>2021-07-17T13:01:45Z</time><extensions><speed>0.322586</speed><course>257.461731</course><hAcc>0.889258</hAcc><vAcc>0.717223</vAcc></extensions></trkpt>
      <trkpt lon="-4.158985" lat="53.018441"><ele>534.341736</ele><time>2021-07-17T13:01:46Z</time><extensions><speed>0.317452</speed><course>256.219269</course><hAcc>0.889273</hAcc><vAcc>0.717262</vAcc></extensions></trkpt>
      <trkpt lon="-4.158987" lat="53.018444"><ele>534.171997</ele><time>2021-07-17T13:01:47Z</time><extensions><speed>0.313585</speed><course>253.669510</course><hAcc>0.889278</hAcc><vAcc>0.717245</vAcc></extensions></trkpt>
      <trkpt lon="-4.158989" lat="53.018446"><ele>534.003540</ele><time>2021-07-17T13:01:48Z</time><extensions><speed>0.310816</speed><course>253.907227</course><hAcc>0.889275</hAcc><vAcc>0.717183</vAcc></extensions></trkpt>
      <trkpt lon="-4.158990" lat="53.018449"><ele>533.836853</ele><time>2021-07-17T13:01:49Z</time><extensions><speed>0.308669</speed><course>260.189209</course><hAcc>0.889265</hAcc><vAcc>0.717093</vAcc></extensions></trkpt>
      <trkpt lon="-4.158991" lat="53.018452"><ele>533.673096</ele><time>2021-07-17T13:01:50Z</time><extensions><speed>0.306481</speed><course>263.253174</course><hAcc>0.889251</hAcc><vAcc>0.716995</vAcc></extensions></trkpt>
      <trkpt lon="-4.158992" lat="53.018454"><ele>533.513428</ele><time>2021-07-17T13:01:51Z</time><extensions><speed>0.303846</speed><course>264.349060</course><hAcc>0.889235</hAcc><vAcc>0.716904</vAcc></extensions></trkpt>
      <trkpt lon="-4.158993" lat="53.018457"><ele>533.359131</ele><time>2021-07-17T13:01:52Z</time><extensions><speed>0.300934</speed><course>258.002991</course><hAcc>0.889221</hAcc><vAcc>0.716830</vAcc></extensions></trkpt>
      <trkpt lon="-4.158995" lat="53.018459"><ele>533.210938</ele><time>2021-07-17T13:01:53Z</time><extensions><speed>0.298378</speed><course>264.832825</course><hAcc>0.889209</hAcc><vAcc>0.716781</vAcc></extensions></trkpt>
      <trkpt lon="-4.158996" lat="53.018462"><ele>533.068970</ele><time>2021-07-17T13:01:54Z</time><extensions><speed>0.296950</speed><course>262.654938</course><hAcc>0.889202</hAcc><vAcc>0.716759</vAcc></extensions></trkpt>
      <trkpt lon="-4.158997" lat="53.018465"><ele>532.932739</ele><time>2021-07-17T13:01:55Z</time><extensions><speed>0.297377</speed><course>262.654938</course><hAcc>0.889201</hAcc><vAcc>0.716764</vAcc></extensions></trkpt>
      <trkpt lon="-4.158999" lat="53.018467"><ele>532.801331</ele><time>2021-07-17T13:01:56Z</time><extensions><speed>0.300332</speed><course>262.654938</course><hAcc>0.889207</hAcc><vAcc>0.716795</vAcc></extensions></trkpt>
      <trkpt lon="-4.159001" lat="53.018469"><ele>532.673828</ele><time>2021-07-17T13:01:57Z</time><extensions><speed>0.306374</speed><course>262.654938</course><hAcc>0.889221</hAcc><vAcc>0.716851</vAcc></extensions></trkpt>
      <trkpt lon="-4.159004" lat="53.018472"><ele>532.549133</ele><time>2021-07-17T13:01:58Z</time><extensions><speed>0.316350</speed><course>262.654938</course><hAcc>0.889240</hAcc><vAcc>0.716927</vAcc></extensions></trkpt>
      <trkpt lon="-4.159007" lat="53.018474"><ele>532.426208</ele><time>2021-07-17T13:01:59Z</time><extensions><speed>0.331073</speed><course>262.654938</course><hAcc>0.889266</hAcc><vAcc>0.717021</vAcc></extensions></trkpt>
      <trkpt lon="-4.159010" lat="53.018476"><ele>532.304138</ele><time>2021-07-17T13:02:00Z</time><extensions><speed>0.350661</speed><course>262.654938</course><hAcc>0.889297</hAcc><vAcc>0.717128</vAcc></extensions></trkpt>
      <trkpt lon="-4.159014" lat="53.018478"><ele>532.181580</ele><time>2021-07-17T13:02:01Z</time><extensions><speed>0.374599</speed><course>262.654938</course><hAcc>0.889332</hAcc><vAcc>0.717247</vAcc></extensions></trkpt>
      <trkpt lon="-4.159019" lat="53.018481"><ele>532.056091</ele><time>2021-07-17T13:02:02Z</time><extensions><speed>0.402583</speed><course>262.654938</course><hAcc>0.889370</hAcc><vAcc>0.717376</vAcc></extensions></trkpt>
      <trkpt lon="-4.159024" lat="53.018483"><ele>531.925110</ele><time>2021-07-17T13:02:03Z</time><extensions><speed>0.434703</speed><course>262.654938</course><hAcc>0.889411</hAcc><vAcc>0.717511</vAcc></extensions></trkpt>
      <trkpt lon="-4.159030" lat="53.018485"><ele>531.786926</ele><time>2021-07-17T13:02:04Z</time><extensions><speed>0.470262</speed><course>262.654938</course><hAcc>0.889453</hAcc><vAcc>0.717654</vAcc></extensions></trkpt>
      <trkpt lon="-4.159036" lat="53.018487"><ele>531.640259</ele><time>2021-07-17T13:02:05Z</time><extensions><speed>0.507892</speed><course>262.654938</course><hAcc>0.889497</hAcc><vAcc>0.717804</vAcc></extensions></trkpt>
      <trkpt lon="-4.159043" lat="53.018489"><ele>531.484619</ele><time>2021-07-17T13:02:06Z</time><extensions><speed>0.545860</speed><course>262.654938</course><hAcc>0.889543</hAcc><vAcc>0.717959</vAcc></extensions></trkpt>
      <trkpt lon="-4.159051" lat="53.018491"><ele>531.320007</ele><time>2021-07-17T13:02:07Z</time><extensions><speed>0.581785</speed><course>262.654938</course><hAcc>0.889591</hAcc><vAcc>0.718116</vAcc></extensions></trkpt>
      <trkpt lon="-4.159059" lat="53.018493"><ele>531.147156</ele><time>2021-07-17T13:02:08Z</time><extensions><speed>0.612772</speed><course>262.654938</course><hAcc>0.889642</hAcc><vAcc>0.718272</vAcc></extensions></trkpt>
      <trkpt lon="-4.159068" lat="53.018495"><ele>530.966858</ele><time>2021-07-17T13:02:09Z</time><extensions><speed>0.636515</speed><course>262.654938</course><hAcc>0.889699</hAcc><vAcc>0.718429</vAcc></extensions></trkpt>
      <trkpt lon="-4.159077" lat="53.018498"><ele>530.780029</ele><time>2021-07-17T13:02:10Z</time><extensions><speed>0.651223</speed><course>262.654938</course><hAcc>0.889763</hAcc><vAcc>0.718590</vAcc></extensions></trkpt>
      <trkpt lon="-4.159085" lat="53.018500"><ele>530.587402</ele><time>2021-07-17T13:02:11Z</time><extensions><speed>0.655496</speed><course>262.654938</course><hAcc>0.889835</hAcc><vAcc>0.718767</vAcc></extensions></trkpt>
      <trkpt lon="-4.159094" lat="53.018503"><ele>530.390076</ele><time>2021-07-17T13:02:12Z</time><extensions><speed>0.649330</speed><course>262.654938</course><hAcc>0.889917</hAcc><vAcc>0.718974</vAcc></extensions></trkpt>
      <trkpt lon="-4.159103" lat="53.018505"><ele>530.188782</ele><time>2021-07-17T13:02:13Z</time><extensions><speed>0.634096</speed><course>262.654938</course><hAcc>0.890007</hAcc><vAcc>0.719223</vAcc></extensions></trkpt>
      <trkpt lon="-4.159111" lat="53.018508"><ele>529.983276</ele><time>2021-07-17T13:02:14Z</time><extensions><speed>0.612256</speed><course>262.654938</course><hAcc>0.890106</hAcc><vAcc>0.719525</vAcc></extensions></trkpt>
      <trkpt lon="-4.159118" lat="53.018511"><ele>529.773193</ele><time>2021-07-17T13:02:15Z</time><extensions><speed>0.586611</speed><course>262.654938</course><hAcc>0.890210</hAcc><vAcc>0.719885</vAcc></extensions></trkpt>
      <trkpt lon="-4.159125" lat="53.018514"><ele>529.558228</ele><time>2021-07-17T13:02:16Z</time><extensions><speed>0.559769</speed><course>262.654938</course><hAcc>0.890317</hAcc><vAcc>0.720298</vAcc></extensions></trkpt>
      <trkpt lon="-4.159131" lat="53.018518"><ele>529.337769</ele><time>2021-07-17T13:02:17Z</time><extensions><speed>0.534720</speed><course>262.654938</course><hAcc>0.890423</hAcc><vAcc>0.720750</vAcc></extensions></trkpt>
      <trkpt lon="-4.159136" lat="53.018521"><ele>529.110779</ele><time>2021-07-17T13:02:18Z</time><extensions><speed>0.514069</speed><course>262.654938</course><hAcc>0.890523</hAcc><vAcc>0.721212</vAcc></extensions></trkpt>
      <trkpt lon="-4.159140" lat="53.018525"><ele>528.876770</ele><time>2021-07-17T13:02:19Z</time><extensions><speed>0.499637</speed><course>262.654938</course><hAcc>0.890614</hAcc><vAcc>0.721646</vAcc></extensions></trkpt>
      <trkpt lon="-4.159143" lat="53.018529"><ele>528.636108</ele><time>2021-07-17T13:02:20Z</time><extensions><speed>0.492749</speed><course>262.654938</course><hAcc>0.890692</hAcc><vAcc>0.722011</vAcc></extensions></trkpt>
      <trkpt lon="-4.159146" lat="53.018533"><ele>528.389465</ele><time>2021-07-17T13:02:21Z</time><extensions><speed>0.494239</speed><course>262.654938</course><hAcc>0.890756</hAcc><vAcc>0.722275</vAcc></extensions></trkpt>
      <trkpt lon="-4.159148" lat="53.018537"><ele>528.137939</ele><time>2021-07-17T13:02:22Z</time><extensions><speed>0.504057</speed><course>262.654938</course><hAcc>0.890803</hAcc><vAcc>0.722417</vAcc></extensions></trkpt>
      <trkpt lon="-4.159149" lat="53.018542"><ele>527.882446</ele><time>2021-07-17T13:02:23Z</time><extensions><speed>0.520636</speed><course>262.654938</course><hAcc>0.890833</hAcc><vAcc>0.722441</vAcc></extensions></trkpt>
      <trkpt lon="-4.159150" lat="53.018547"><ele>527.623779</ele><time>2021-07-17T13:02:24Z</time><extensions><speed>0.541566</speed><course>262.654938</course><hAcc>0.890844</hAcc><vAcc>0.722367</vAcc></extensions></trkpt>
      <trkpt lon="-4.159150" lat="53.018552"><ele>527.362732</ele><time>2021-07-17T13:02:25Z</time><extensions><speed>0.564633</speed><course>262.654938</course><hAcc>0.890838</hAcc><vAcc>0.722227</vAcc></extensions></trkpt>
      <trkpt lon="-4.159150" lat="53.018557"><ele>527.099609</ele><time>2021-07-17T13:02:26Z</time><extensions><speed>0.588171</speed><course>262.654938</course><hAcc>0.890817</hAcc><vAcc>0.722051</vAcc></extensions></trkpt>
      <trkpt lon="-4.159150" lat="53.018562"><ele>526.834106</ele><time>2021-07-17T13:02:27Z</time><extensions><speed>0.610978</speed><course>262.654938</course><hAcc>0.890783</hAcc><vAcc>0.721862</vAcc></extensions></trkpt>
      <trkpt lon="-4.159149" lat="53.018568"><ele>526.565857</ele><time>2021-07-17T13:02:28Z</time><extensions><speed>0.632291</speed><course>262.654938</course><hAcc>0.890743</hAcc><vAcc>0.721675</vAcc></extensions></trkpt>
      <trkpt lon="-4.159149" lat="53.018574"><ele>526.293945</ele><time>2021-07-17T13:02:29Z</time><extensions><speed>0.651811</speed><course>262.654938</course><hAcc>0.890699</hAcc><vAcc>0.721500</vAcc></extensions></trkpt>
      <trkpt lon="-4.159148" lat="53.018579"><ele>526.017517</ele><time>2021-07-17T13:02:30Z</time><extensions><speed>0.669526</speed><course>262.654938</course><hAcc>0.890655</hAcc><vAcc>0.721348</vAcc></extensions></trkpt>
      <trkpt lon="-4.159148" lat="53.018586"><ele>525.736511</ele><time>2021-07-17T13:02:31Z</time><extensions><speed>0.685786</speed><course>262.654938</course><hAcc>0.890615</hAcc><vAcc>0.721226</vAcc></extensions></trkpt>
      <trkpt lon="-4.159148" lat="53.018592"><ele>525.451416</ele><time>2021-07-17T13:02:32Z</time><extensions><speed>0.701158</speed><course>262.654938</course><hAcc>0.890579</hAcc><vAcc>0.721132</vAcc></extensions></trkpt>
      <trkpt lon="-4.159147" lat="53.018598"><ele>525.163269</ele><time>2021-07-17T13:02:33Z</time><extensions><speed>0.715787</speed><course>262.654938</course><hAcc>0.890549</hAcc><vAcc>0.721059</vAcc></extensions></trkpt>
      <trkpt lon="-4.159147" lat="53.018605"><ele>524.873901</ele><time>2021-07-17T13:02:34Z</time><extensions><speed>0.729653</speed><course>262.654938</course><hAcc>0.890529</hAcc><vAcc>0.720998</vAcc></extensions></trkpt>
      <trkpt lon="-4.159147" lat="53.018611"><ele>524.585510</ele><time>2021-07-17T13:02:35Z</time><extensions><speed>0.743101</speed><course>262.654938</course><hAcc>0.890517</hAcc><vAcc>0.720944</vAcc></extensions></trkpt>
      <trkpt lon="-4.159147" lat="53.018618"><ele>524.300537</ele><time>2021-07-17T13:02:36Z</time><extensions><speed>0.756362</speed><course>262.654938</course><hAcc>0.890517</hAcc><vAcc>0.720898</vAcc></extensions></trkpt>
      <trkpt lon="-4.159147" lat="53.018625"><ele>524.020081</ele><time>2021-07-17T13:02:37Z</time><extensions><speed>0.769189</speed><course>262.654938</course><hAcc>0.890508</hAcc><vAcc>0.720855</vAcc></extensions></trkpt>
      <trkpt lon="-4.159147" lat="53.018632"><ele>523.745117</ele><time>2021-07-17T13:02:38Z</time><extensions><speed>0.780885</speed><course>262.654938</course><hAcc>0.890492</hAcc><vAcc>0.720819</vAcc></extensions></trkpt>
      <trkpt lon="-4.159147" lat="53.018639"><ele>523.474976</ele><time>2021-07-17T13:02:39Z</time><extensions><speed>0.790912</speed><course>262.654938</course><hAcc>0.890485</hAcc><vAcc>0.720808</vAcc></extensions></trkpt>
      <trkpt lon="-4.159147" lat="53.018646"><ele>523.209412</ele><time>2021-07-17T13:02:40Z</time><extensions><speed>0.799394</speed><course>262.654938</course><hAcc>0.890487</hAcc><vAcc>0.720825</vAcc></extensions></trkpt>
      <trkpt lon="-4.159147" lat="53.018653"><ele>522.947937</ele><time>2021-07-17T13:02:41Z</time><extensions><speed>0.807447</speed><course>262.654938</course><hAcc>0.890497</hAcc><vAcc>0.720874</vAcc></extensions></trkpt>
      <trkpt lon="-4.159148" lat="53.018661"><ele>522.689392</ele><time>2021-07-17T13:02:42Z</time><extensions><speed>0.816586</speed><course>262.654938</course><hAcc>0.890513</hAcc><vAcc>0.720955</vAcc></extensions></trkpt>
      <trkpt lon="-4.159148" lat="53.018668"><ele>522.432678</ele><time>2021-07-17T13:02:43Z</time><extensions><speed>0.827786</speed><course>262.654938</course><hAcc>0.890532</hAcc><vAcc>0.721068</vAcc></extensions></trkpt>
      <trkpt lon="-4.159149" lat="53.018675"><ele>522.176636</ele><time>2021-07-17T13:02:44Z</time><extensions><speed>0.841709</speed><course>262.654938</course><hAcc>0.890552</hAcc><vAcc>0.721209</vAcc></extensions></trkpt>
      <trkpt lon="-4.159150" lat="53.018683"><ele>521.920471</ele><time>2021-07-17T13:02:45Z</time><extensions><speed>0.858646</speed><course>262.654938</course><hAcc>0.890568</hAcc><vAcc>0.721367</vAcc></extensions></trkpt>
      <trkpt lon="-4.159151" lat="53.018691"><ele>521.663330</ele><time>2021-07-17T13:02:46Z</time><extensions><speed>0.878161</speed><course>262.654938</course><hAcc>0.890578</hAcc><vAcc>0.721527</vAcc></extensions></trkpt>
      <trkpt lon="-4.159153" lat="53.018699"><ele>521.405090</ele><time>2021-07-17T13:02:46Z</time><extensions><speed>0.899168</speed><course>262.654938</course><hAcc>0.890613</hAcc><vAcc>0.721696</vAcc></extensions></trkpt>
      <trkpt lon="-4.159155" lat="53.018707"><ele>521.144287</ele><time>2021-07-17T13:02:47Z</time><extensions><speed>0.920277</speed><course>262.654938</course><hAcc>0.890673</hAcc><vAcc>0.721859</vAcc></extensions></trkpt>
      <trkpt lon="-4.159157" lat="53.018715"><ele>520.881226</ele><time>2021-07-17T13:02:48Z</time><extensions><speed>0.939487</speed><course>262.654938</course><hAcc>0.890719</hAcc><vAcc>0.721982</vAcc></extensions></trkpt>
      <trkpt lon="-4.159160" lat="53.018723"><ele>520.615784</ele><time>2021-07-17T13:02:49Z</time><extensions><speed>0.954751</speed><course>262.654938</course><hAcc>0.890752</hAcc><vAcc>0.722058</vAcc></extensions></trkpt>
      <trkpt lon="-4.159162" lat="53.018732"><ele>520.348328</ele><time>2021-07-17T13:02:50Z</time><extensions><speed>0.964246</speed><course>209.646423</course><hAcc>0.890771</hAcc><vAcc>0.722085</vAcc></extensions></trkpt>
      <trkpt lon="-4.159165" lat="53.018740"><ele>520.079651</ele><time>2021-07-17T13:02:51Z</time><extensions><speed>0.966787</speed><course>207.502853</course><hAcc>0.890776</hAcc><vAcc>0.722066</vAcc></extensions></trkpt>
      <trkpt lon="-4.159168" lat="53.018749"><ele>519.810730</ele><time>2021-07-17T13:02:52Z</time><extensions><speed>0.961798</speed><course>210.649872</course><hAcc>0.890769</hAcc><vAcc>0.722004</vAcc></extensions></trkpt>
      <trkpt lon="-4.159170" lat="53.018757"><ele>519.541870</ele><time>2021-07-17T13:02:53Z</time><extensions><speed>0.949247</speed><course>218.307190</course><hAcc>0.890749</hAcc><vAcc>0.721904</vAcc></extensions></trkpt>
      <trkpt lon="-4.159173" lat="53.018766"><ele>519.272461</ele><time>2021-07-17T13:02:54Z</time><extensions><speed>0.929583</speed><course>221.774033</course><hAcc>0.890719</hAcc><vAcc>0.721774</vAcc></extensions></trkpt>
      <trkpt lon="-4.159176" lat="53.018774"><ele>519.002014</ele><time>2021-07-17T13:02:55Z</time><extensions><speed>0.903659</speed><course>225.071381</course><hAcc>0.890679</hAcc><vAcc>0.721622</vAcc></extensions></trkpt>
      <trkpt lon="-4.159178" lat="53.018781"><ele>518.730835</ele><time>2021-07-17T13:02:56Z</time><extensions><speed>0.872917</speed><course>229.682953</course><hAcc>0.890630</hAcc><vAcc>0.721454</vAcc></extensions></trkpt>
      <trkpt lon="-4.159181" lat="53.018789"><ele>518.459778</ele><time>2021-07-17T13:02:57Z</time><extensions><speed>0.839247</speed><course>228.187271</course><hAcc>0.890575</hAcc><vAcc>0.721269</vAcc></extensions></trkpt>
      <trkpt lon="-4.159183" lat="53.018796"><ele>518.189514</ele><time>2021-07-17T13:02:58Z</time><extensions><speed>0.804276</speed><course>224.821243</course><hAcc>0.890515</hAcc><vAcc>0.721069</vAcc></extensions></trkpt>
      <trkpt lon="-4.159185" lat="53.018803"><ele>517.920593</ele><time>2021-07-17T13:02:59Z</time><extensions><speed>0.768986</speed><course>222.757462</course><hAcc>0.890450</hAcc><vAcc>0.720858</vAcc></extensions></trkpt>
      <trkpt lon="-4.159187" lat="53.018810"><ele>517.653809</ele><time>2021-07-17T13:03:00Z</time><extensions><speed>0.734201</speed><course>223.047150</course><hAcc>0.890383</hAcc><vAcc>0.720637</vAcc></extensions></trkpt>
      <trkpt lon="-4.159188" lat="53.018816"><ele>517.390137</ele><time>2021-07-17T13:03:01Z</time><extensions><speed>0.701046</speed><course>218.695862</course><hAcc>0.890314</hAcc><vAcc>0.720408</vAcc></extensions></trkpt>
      <trkpt lon="-4.159189" lat="53.018822"><ele>517.130737</ele><time>2021-07-17T13:03:02Z</time><extensions><speed>0.670784</speed><course>216.351273</course><hAcc>0.890245</hAcc><vAcc>0.720175</vAcc></extensions></trkpt>
      <trkpt lon="-4.159190" lat="53.018828"><ele>516.876831</ele><time>2021-07-17T13:03:03Z</time><extensions><speed>0.644402</speed><course>219.658188</course><hAcc>0.890175</hAcc><vAcc>0.719943</vAcc></extensions></trkpt>
      <trkpt lon="-4.159191" lat="53.018834"><ele>516.629333</ele><time>2021-07-17T13:03:04Z</time><extensions><speed>0.622055</speed><course>221.748871</course><hAcc>0.890107</hAcc><vAcc>0.719718</vAcc></extensions></trkpt>
      <trkpt lon="-4.159191" lat="53.018840"><ele>516.389526</ele><time>2021-07-17T13:03:05Z</time><extensions><speed>0.602978</speed><course>225.723022</course><hAcc>0.890040</hAcc><vAcc>0.719504</vAcc></extensions></trkpt>
      <trkpt lon="-4.159191" lat="53.018845"><ele>516.158752</ele><time>2021-07-17T13:03:06Z</time><extensions><speed>0.586425</speed><course>227.303833</course><hAcc>0.889976</hAcc><vAcc>0.719301</vAcc></extensions></trkpt>
      <trkpt lon="-4.159190" lat="53.018850"><ele>515.938110</ele><time>2021-07-17T13:03:07Z</time><extensions><speed>0.572082</speed><course>225.742310</course><hAcc>0.889918</hAcc><vAcc>0.719110</vAcc></extensions></trkpt>
      <trkpt lon="-4.159190" lat="53.018855"><ele>515.727600</ele><time>2021-07-17T13:03:08Z</time><extensions><speed>0.559594</speed><course>225.742310</course><hAcc>0.889866</hAcc><vAcc>0.718930</vAcc></extensions></trkpt>
      <trkpt lon="-4.159189" lat="53.018860"><ele>515.526611</ele><time>2021-07-17T13:03:09Z</time><extensions><speed>0.548432</speed><course>225.742325</course><hAcc>0.889824</hAcc><vAcc>0.718766</vAcc></extensions></trkpt>
      <trkpt lon="-4.159187" lat="53.018865"><ele>515.334717</ele><time>2021-07-17T13:03:10Z</time><extensions><speed>0.537793</speed><course>225.742325</course><hAcc>0.889792</hAcc><vAcc>0.718625</vAcc></extensions></trkpt>
      <trkpt lon="-4.159186" lat="53.018870"><ele>515.151550</ele><time>2021-07-17T13:03:11Z</time><extensions><speed>0.526905</speed><course>225.742325</course><hAcc>0.889773</hAcc><vAcc>0.718521</vAcc></extensions></trkpt>
      <trkpt lon="-4.159184" lat="53.018874"><ele>514.976074</ele><time>2021-07-17T13:03:12Z</time><extensions><speed>0.515328</speed><course>224.360504</course><hAcc>0.889767</hAcc><vAcc>0.718465</vAcc></extensions></trkpt>
      <trkpt lon="-4.159183" lat="53.018879"><ele>514.807007</ele><time>2021-07-17T13:03:13Z</time><extensions><speed>0.502992</speed><course>231.374908</course><hAcc>0.889775</hAcc><vAcc>0.718469</vAcc></extensions></trkpt>
      <trkpt lon="-4.159181" lat="53.018883"><ele>514.642456</ele><time>2021-07-17T13:03:14Z</time><extensions><speed>0.489951</speed><course>226.234039</course><hAcc>0.889796</hAcc><vAcc>0.718537</vAcc></extensions></trkpt>
      <trkpt lon="-4.159179" lat="53.018887"><ele>514.481018</ele><time>2021-07-17T13:03:15Z</time><extensions><speed>0.476210</speed><course>228.443588</course><hAcc>0.889829</hAcc><vAcc>0.718668</vAcc></extensions></trkpt>
      <trkpt lon="-4.159177" lat="53.018891"><ele>514.321350</ele><time>2021-07-17T13:03:16Z</time><extensions><speed>0.462303</speed><course>217.150848</course><hAcc>0.889873</hAcc><vAcc>0.718854</vAcc></extensions></trkpt>
      <trkpt lon="-4.159175" lat="53.018895"><ele>514.162109</ele><time>2021-07-17T13:03:17Z</time><extensions><speed>0.448599</speed><course>214.670395</course><hAcc>0.889925</hAcc><vAcc>0.719080</vAcc></extensions></trkpt>
      <trkpt lon="-4.159174" lat="53.018899"><ele>514.002075</ele><time>2021-07-17T13:03:18Z</time><extensions><speed>0.435273</speed><course>219.066208</course><hAcc>0.889981</hAcc><vAcc>0.719327</vAcc></extensions></trkpt>
      <trkpt lon="-4.159172" lat="53.018903"><ele>513.840027</ele><time>2021-07-17T13:03:19Z</time><extensions><speed>0.422504</speed><course>218.042282</course><hAcc>0.890040</hAcc><vAcc>0.719575</vAcc></extensions></trkpt>
      <trkpt lon="-4.159170" lat="53.018906"><ele>513.675171</ele><time>2021-07-17T13:03:20Z</time><extensions><speed>0.409747</speed><course>220.994385</course><hAcc>0.890097</hAcc><vAcc>0.719803</vAcc></extensions></trkpt>
      <trkpt lon="-4.159169" lat="53.018910"><ele>513.507202</ele><time>2021-07-17T13:03:21Z</time><extensions><speed>0.396324</speed><course>227.746307</course><hAcc>0.890148</hAcc><vAcc>0.719998</vAcc></extensions></trkpt>
      <trkpt lon="-4.159168" lat="53.018913"><ele>513.336426</ele><time>2021-07-17T13:03:22Z</time><extensions><speed>0.382259</speed><course>224.855316</course><hAcc>0.890192</hAcc><vAcc>0.720151</vAcc></extensions></trkpt>
      <trkpt lon="-4.159167" lat="53.018917"><ele>513.163940</ele><time>2021-07-17T13:03:23Z</time><extensions><speed>0.368633</speed><course>223.584900</course><hAcc>0.890226</hAcc><vAcc>0.720254</vAcc></extensions></trkpt>
      <trkpt lon="-4.159166" lat="53.018920"><ele>512.990845</ele><time>2021-07-17T13:03:24Z</time><extensions><speed>0.357437</speed><course>224.383530</course><hAcc>0.890248</hAcc><vAcc>0.720304</vAcc></extensions></trkpt>
      <trkpt lon="-4.159167" lat="53.018923"><ele>512.818481</ele><time>2021-07-17T13:03:25Z</time><extensions><speed>0.351339</speed><course>225.716217</course><hAcc>0.890261</hAcc><vAcc>0.720300</vAcc></extensions></trkpt>
      <trkpt lon="-4.159168" lat="53.018926"><ele>512.647949</ele><time>2021-07-17T13:03:26Z</time><extensions><speed>0.353159</speed><course>229.189102</course><hAcc>0.890264</hAcc><vAcc>0.720246</vAcc></extensions></trkpt>
      <trkpt lon="-4.159169" lat="53.018929"><ele>512.479797</ele><time>2021-07-17T13:03:28Z</time><extensions><speed>0.364674</speed><course>224.817474</course><hAcc>0.890242</hAcc><vAcc>0.720139</vAcc></extensions></trkpt>
      <trkpt lon="-4.159172" lat="53.018932"><ele>512.315186</ele><time>2021-07-17T13:03:29Z</time><extensions><speed>0.385501</speed><course>225.227936</course><hAcc>0.890195</hAcc><vAcc>0.719988</vAcc></extensions></trkpt>
      <trkpt lon="-4.159175" lat="53.018935"><ele>512.154907</ele><time>2021-07-17T13:03:30Z</time><extensions><speed>0.412866</speed><course>228.251373</course><hAcc>0.890144</hAcc><vAcc>0.719818</vAcc></extensions></trkpt>
      <trkpt lon="-4.159180" lat="53.018938"><ele>511.998993</ele><time>2021-07-17T13:03:31Z</time><extensions><speed>0.442303</speed><course>230.721024</course><hAcc>0.890091</hAcc><vAcc>0.719636</vAcc></extensions></trkpt>
      <trkpt lon="-4.159184" lat="53.018941"><ele>511.846436</ele><time>2021-07-17T13:03:32Z</time><extensions><speed>0.469619</speed><course>234.697540</course><hAcc>0.890038</hAcc><vAcc>0.719451</vAcc></extensions></trkpt>
      <trkpt lon="-4.159190" lat="53.018944"><ele>511.695984</ele><time>2021-07-17T13:03:33Z</time><extensions><speed>0.492056</speed><course>236.619934</course><hAcc>0.889987</hAcc><vAcc>0.719269</vAcc></extensions></trkpt>
      <trkpt lon="-4.159195" lat="53.018947"><ele>511.546295</ele><time>2021-07-17T13:03:34Z</time><extensions><speed>0.507767</speed><course>247.542679</course><hAcc>0.889941</hAcc><vAcc>0.719101</vAcc></extensions></trkpt>
      <trkpt lon="-4.159201" lat="53.018950"><ele>511.395691</ele><time>2021-07-17T13:03:35Z</time><extensions><speed>0.515210</speed><course>242.855072</course><hAcc>0.889901</hAcc><vAcc>0.718957</vAcc></extensions></trkpt>
      <trkpt lon="-4.159206" lat="53.018953"><ele>511.242920</ele><time>2021-07-17T13:03:36Z</time><extensions><speed>0.514153</speed><course>241.397278</course><hAcc>0.889868</hAcc><vAcc>0.718845</vAcc></extensions></trkpt>
      <trkpt lon="-4.159212" lat="53.018956"><ele>511.087555</ele><time>2021-07-17T13:03:37Z</time><extensions><speed>0.506058</speed><course>241.667068</course><hAcc>0.889844</hAcc><vAcc>0.718771</vAcc></extensions></trkpt>
      <trkpt lon="-4.159217" lat="53.018960"><ele>510.929871</ele><time>2021-07-17T13:03:38Z</time><extensions><speed>0.493699</speed><course>241.132874</course><hAcc>0.889830</hAcc><vAcc>0.718739</vAcc></extensions></trkpt>
      <trkpt lon="-4.159221" lat="53.018963"><ele>510.770660</ele><time>2021-07-17T13:03:39Z</time><extensions><speed>0.480557</speed><course>242.509506</course><hAcc>0.889825</hAcc><vAcc>0.718747</vAcc></extensions></trkpt>
      <trkpt lon="-4.159224" lat="53.018967"><ele>510.610626</ele><time>2021-07-17T13:03:40Z</time><extensions><speed>0.470190</speed><course>242.195404</course><hAcc>0.889832</hAcc><vAcc>0.718789</vAcc></extensions></trkpt>
      <trkpt lon="-4.159227" lat="53.018971"><ele>510.449646</ele><time>2021-07-17T13:03:41Z</time><extensions><speed>0.466644</speed><course>244.443573</course><hAcc>0.889850</hAcc><vAcc>0.718858</vAcc></extensions></trkpt>
      <trkpt lon="-4.159229" lat="53.018975"><ele>510.287079</ele><time>2021-07-17T13:03:42Z</time><extensions><speed>0.472882</speed><course>246.780472</course><hAcc>0.889881</hAcc><vAcc>0.718950</vAcc></extensions></trkpt>
      <trkpt lon="-4.159230" lat="53.018979"><ele>510.122192</ele><time>2021-07-17T13:03:43Z</time><extensions><speed>0.488946</speed><course>247.423477</course><hAcc>0.889924</hAcc><vAcc>0.719065</vAcc></extensions></trkpt>
      <trkpt lon="-4.159230" lat="53.018984"><ele>509.954529</ele><time>2021-07-17T13:03:44Z</time><extensions><speed>0.512850</speed><course>252.345490</course><hAcc>0.889980</hAcc><vAcc>0.719212</vAcc></extensions></trkpt>
      <trkpt lon="-4.159229" lat="53.018988"><ele>509.784058</ele><time>2021-07-17T13:03:45Z</time><extensions><speed>0.541907</speed><course>252.366760</course><hAcc>0.890048</hAcc><vAcc>0.719403</vAcc></extensions></trkpt>
      <trkpt lon="-4.159228" lat="53.018993"><ele>509.611084</ele><time>2021-07-17T13:03:46Z</time><extensions><speed>0.573262</speed><course>254.889893</course><hAcc>0.890128</hAcc><vAcc>0.719643</vAcc></extensions></trkpt>
      <trkpt lon="-4.159226" lat="53.018998"><ele>509.435760</ele><time>2021-07-17T13:03:47Z</time><extensions><speed>0.604492</speed><course>257.492432</course><hAcc>0.890219</hAcc><vAcc>0.719932</vAcc></extensions></trkpt>
      <trkpt lon="-4.159225" lat="53.019004"><ele>509.257233</ele><time>2021-07-17T13:03:48Z</time><extensions><speed>0.634561</speed><course>255.728439</course><hAcc>0.890320</hAcc><vAcc>0.720266</vAcc></extensions></trkpt>
      <trkpt lon="-4.159223" lat="53.019010"><ele>509.074005</ele><time>2021-07-17T13:03:49Z</time><extensions><speed>0.663976</speed><course>258.375061</course><hAcc>0.890428</hAcc><vAcc>0.720636</vAcc></extensions></trkpt>
      <trkpt lon="-4.159221" lat="53.019016"><ele>508.884552</ele><time>2021-07-17T13:03:50Z</time><extensions><speed>0.693811</speed><course>260.722260</course><hAcc>0.890541</hAcc><vAcc>0.721033</vAcc></extensions></trkpt>
      <trkpt lon="-4.159219" lat="53.019022"><ele>508.687714</ele><time>2021-07-17T13:03:51Z</time><extensions><speed>0.724842</speed><course>260.722260</course><hAcc>0.890656</hAcc><vAcc>0.721444</vAcc></extensions></trkpt>
      <trkpt lon="-4.159218" lat="53.019029"><ele>508.482697</ele><time>2021-07-17T13:03:52Z</time><extensions><speed>0.757138</speed><course>260.722260</course><hAcc>0.890768</hAcc><vAcc>0.721853</vAcc></extensions></trkpt>
      <trkpt lon="-4.159217" lat="53.019035"><ele>508.268219</ele><time>2021-07-17T13:03:53Z</time><extensions><speed>0.789858</speed><course>260.722260</course><hAcc>0.890871</hAcc><vAcc>0.722246</vAcc></extensions></trkpt>
      <trkpt lon="-4.159216" lat="53.019043"><ele>508.042419</ele><time>2021-07-17T13:03:54Z</time><extensions><speed>0.821652</speed><course>260.722260</course><hAcc>0.890962</hAcc><vAcc>0.722604</vAcc></extensions></trkpt>
      <trkpt lon="-4.159215" lat="53.019050"><ele>507.803375</ele><time>2021-07-17T13:03:55Z</time><extensions><speed>0.851239</speed><course>260.722260</course><hAcc>0.891037</hAcc><vAcc>0.722908</vAcc></extensions></trkpt>
      <trkpt lon="-4.159214" lat="53.019058"><ele>507.549683</ele><time>2021-07-17T13:03:56Z</time><extensions><speed>0.877493</speed><course>260.722260</course><hAcc>0.891093</hAcc><vAcc>0.723138</vAcc></extensions></trkpt>
      <trkpt lon="-4.159214" lat="53.019066"><ele>507.280243</ele><time>2021-07-17T13:03:57Z</time><extensions><speed>0.899505</speed><course>260.722229</course><hAcc>0.891127</hAcc><vAcc>0.723280</vAcc></extensions></trkpt>
      <trkpt lon="-4.159213" lat="53.019074"><ele>506.995026</ele><time>2021-07-17T13:03:58Z</time><extensions><speed>0.916336</speed><course>268.575928</course><hAcc>0.891142</hAcc><vAcc>0.723326</vAcc></extensions></trkpt>
      <trkpt lon="-4.159213" lat="53.019082"><ele>506.695007</ele><time>2021-07-17T13:03:59Z</time><extensions><speed>0.927075</speed><course>268.685822</course><hAcc>0.891140</hAcc><vAcc>0.723278</vAcc></extensions></trkpt>
      <trkpt lon="-4.159212" lat="53.019091"><ele>506.381958</ele><time>2021-07-17T13:04:00Z</time><extensions><speed>0.931215</speed><course>264.169769</course><hAcc>0.891126</hAcc><vAcc>0.723150</vAcc></extensions></trkpt>
      <trkpt lon="-4.159212" lat="53.019099"><ele>506.054779</ele><time>2021-07-17T13:04:01Z</time><extensions><speed>0.927790</speed><course>215.204285</course><hAcc>0.891055</hAcc><vAcc>0.722874</vAcc></extensions></trkpt>
      <trkpt lon="-4.159211" lat="53.019107"><ele>505.723572</ele><time>2021-07-17T13:04:02Z</time><extensions><speed>0.919976</speed><course>192.608246</course><hAcc>0.890981</hAcc><vAcc>0.722562</vAcc></extensions></trkpt>
      <trkpt lon="-4.159211" lat="53.019116"><ele>505.386719</ele><time>2021-07-17T13:04:03Z</time><extensions><speed>0.906653</speed><course>196.818375</course><hAcc>0.890901</hAcc><vAcc>0.722231</vAcc></extensions></trkpt>
      <trkpt lon="-4.159211" lat="53.019124"><ele>505.047272</ele><time>2021-07-17T13:04:04Z</time><extensions><speed>0.888473</speed><course>200.564194</course><hAcc>0.890818</hAcc><vAcc>0.721897</vAcc></extensions></trkpt>
      <trkpt lon="-4.159210" lat="53.019132"><ele>504.709167</ele><time>2021-07-17T13:04:05Z</time><extensions><speed>0.866230</speed><course>224.718231</course><hAcc>0.890736</hAcc><vAcc>0.721576</vAcc></extensions></trkpt>
      <trkpt lon="-4.159210" lat="53.019139"><ele>504.376495</ele><time>2021-07-17T13:04:06Z</time><extensions><speed>0.840700</speed><course>228.969803</course><hAcc>0.890659</hAcc><vAcc>0.721282</vAcc></extensions></trkpt>
      <trkpt lon="-4.159210" lat="53.019147"><ele>504.052887</ele><time>2021-07-17T13:04:07Z</time><extensions><speed>0.812793</speed><course>250.366501</course><hAcc>0.890592</hAcc><vAcc>0.721029</vAcc></extensions></trkpt>
      <trkpt lon="-4.159210" lat="53.019154"><ele>503.741211</ele><time>2021-07-17T13:04:08Z</time><extensions><speed>0.783495</speed><course>-1.000000</course><hAcc>0.890539</hAcc><vAcc>0.720830</vAcc></extensions></trkpt>
      <trkpt lon="-4.159210" lat="53.019161"><ele>503.443848</ele><time>2021-07-17T13:04:09Z</time><extensions><speed>0.753997</speed><course>232.063629</course><hAcc>0.890501</hAcc><vAcc>0.720699</vAcc></extensions></trkpt>
      <trkpt lon="-4.159211" lat="53.019167"><ele>503.162384</ele><time>2021-07-17T13:04:10Z</time><extensions><speed>0.725481</speed><course>232.063614</course><hAcc>0.890480</hAcc><vAcc>0.720643</vAcc></extensions></trkpt>
      <trkpt lon="-4.159211" lat="53.019174"><ele>502.897705</ele><time>2021-07-17T13:04:11Z</time><extensions><speed>0.699046</speed><course>232.063614</course><hAcc>0.890474</hAcc><vAcc>0.720663</vAcc></extensions></trkpt>
      <trkpt lon="-4.159212" lat="53.019180"><ele>502.650391</ele><time>2021-07-17T13:04:12Z</time><extensions><speed>0.675700</speed><course>232.063599</course><hAcc>0.890484</hAcc><vAcc>0.720752</vAcc></extensions></trkpt>
      <trkpt lon="-4.159213" lat="53.019186"><ele>502.420776</ele><time>2021-07-17T13:04:13Z</time><extensions><speed>0.656170</speed><course>232.063599</course><hAcc>0.890505</hAcc><vAcc>0.720894</vAcc></extensions></trkpt>
      <trkpt lon="-4.159215" lat="53.019192"><ele>502.208710</ele><time>2021-07-17T13:04:14Z</time><extensions><speed>0.640964</speed><course>232.063583</course><hAcc>0.890536</hAcc><vAcc>0.721066</vAcc></extensions></trkpt>
      <trkpt lon="-4.159216" lat="53.019197"><ele>502.013336</ele><time>2021-07-17T13:04:15Z</time><extensions><speed>0.630205</speed><course>232.063583</course><hAcc>0.890573</hAcc><vAcc>0.721246</vAcc></extensions></trkpt>
      <trkpt lon="-4.159219" lat="53.019203"><ele>501.833282</ele><time>2021-07-17T13:04:16Z</time><extensions><speed>0.622965</speed><course>248.555511</course><hAcc>0.890610</hAcc><vAcc>0.721417</vAcc></extensions></trkpt>
      <trkpt lon="-4.159222" lat="53.019208"><ele>501.667267</ele><time>2021-07-17T13:04:17Z</time><extensions><speed>0.618208</speed><course>214.727661</course><hAcc>0.890645</hAcc><vAcc>0.721566</vAcc></extensions></trkpt>
      <trkpt lon="-4.159225" lat="53.019213"><ele>501.514313</ele><time>2021-07-17T13:04:18Z</time><extensions><speed>0.615557</speed><course>215.656113</course><hAcc>0.890671</hAcc><vAcc>0.721684</vAcc></extensions></trkpt>
      <trkpt lon="-4.159229" lat="53.019218"><ele>501.373627</ele><time>2021-07-17T13:04:19Z</time><extensions><speed>0.614771</speed><course>205.637772</course><hAcc>0.890685</hAcc><vAcc>0.721761</vAcc></extensions></trkpt>
      <trkpt lon="-4.159233" lat="53.019223"><ele>501.244232</ele><time>2021-07-17T13:04:20Z</time><extensions><speed>0.615418</speed><course>201.575424</course><hAcc>0.890685</hAcc><vAcc>0.721790</vAcc></extensions></trkpt>
      <trkpt lon="-4.159238" lat="53.019228"><ele>501.125031</ele><time>2021-07-17T13:04:21Z</time><extensions><speed>0.616701</speed><course>196.854248</course><hAcc>0.890670</hAcc><vAcc>0.721765</vAcc></extensions></trkpt>
      <trkpt lon="-4.159243" lat="53.019232"><ele>501.015259</ele><time>2021-07-17T13:04:22Z</time><extensions><speed>0.617662</speed><course>198.264053</course><hAcc>0.890638</hAcc><vAcc>0.721678</vAcc></extensions></trkpt>
      <trkpt lon="-4.159249" lat="53.019237"><ele>500.914276</ele><time>2021-07-17T13:04:23Z</time><extensions><speed>0.618059</speed><course>198.636932</course><hAcc>0.890593</hAcc><vAcc>0.721523</vAcc></extensions></trkpt>
      <trkpt lon="-4.159255" lat="53.019241"><ele>500.821198</ele><time>2021-07-17T13:04:24Z</time><extensions><speed>0.618995</speed><course>192.727798</course><hAcc>0.890537</hAcc><vAcc>0.721303</vAcc></extensions></trkpt>
      <trkpt lon="-4.159261" lat="53.019245"><ele>500.734619</ele><time>2021-07-17T13:04:25Z</time><extensions><speed>0.622060</speed><course>184.691818</course><hAcc>0.890473</hAcc><vAcc>0.721029</vAcc></extensions></trkpt>
      <trkpt lon="-4.159268" lat="53.019249"><ele>500.652557</ele><time>2021-07-17T13:04:26Z</time><extensions><speed>0.628154</speed><course>177.917740</course><hAcc>0.890405</hAcc><vAcc>0.720725</vAcc></extensions></trkpt>
      <trkpt lon="-4.159275" lat="53.019253"><ele>500.572723</ele><time>2021-07-17T13:04:27Z</time><extensions><speed>0.637069</speed><course>169.935883</course><hAcc>0.890336</hAcc><vAcc>0.720416</vAcc></extensions></trkpt>
      <trkpt lon="-4.159282" lat="53.019257"><ele>500.492645</ele><time>2021-07-17T13:04:28Z</time><extensions><speed>0.647608</speed><course>168.290512</course><hAcc>0.890273</hAcc><vAcc>0.720127</vAcc></extensions></trkpt>
      <trkpt lon="-4.159289" lat="53.019261"><ele>500.409851</ele><time>2021-07-17T13:04:29Z</time><extensions><speed>0.657680</speed><course>175.847488</course><hAcc>0.890218</hAcc><vAcc>0.719880</vAcc></extensions></trkpt>
      <trkpt lon="-4.159296" lat="53.019265"><ele>500.321930</ele><time>2021-07-17T13:04:30Z</time><extensions><speed>0.665072</speed><course>182.489380</course><hAcc>0.890176</hAcc><vAcc>0.719696</vAcc></extensions></trkpt>
      <trkpt lon="-4.159303" lat="53.019269"><ele>500.227020</ele><time>2021-07-17T13:04:31Z</time><extensions><speed>0.669091</speed><course>193.224472</course><hAcc>0.890148</hAcc><vAcc>0.719589</vAcc></extensions></trkpt>
      <trkpt lon="-4.159309" lat="53.019274"><ele>500.123749</ele><time>2021-07-17T13:04:32Z</time><extensions><speed>0.670674</speed><course>210.457108</course><hAcc>0.890138</hAcc><vAcc>0.719566</vAcc></extensions></trkpt>
      <trkpt lon="-4.159316" lat="53.019278"><ele>500.011200</ele><time>2021-07-17T13:04:33Z</time><extensions><speed>0.671416</speed><course>227.054108</course><hAcc>0.890144</hAcc><vAcc>0.719625</vAcc></extensions></trkpt>
      <trkpt lon="-4.159322" lat="53.019283"><ele>499.888916</ele><time>2021-07-17T13:04:34Z</time><extensions><speed>0.672666</speed><course>247.666534</course><hAcc>0.890165</hAcc><vAcc>0.719755</vAcc></extensions></trkpt>
      <trkpt lon="-4.159327" lat="53.019288"><ele>499.756836</ele><time>2021-07-17T13:04:35Z</time><extensions><speed>0.675138</speed><course>261.197876</course><hAcc>0.890201</hAcc><vAcc>0.719937</vAcc></extensions></trkpt>
      <trkpt lon="-4.159332" lat="53.019294"><ele>499.615479</ele><time>2021-07-17T13:04:36Z</time><extensions><speed>0.679349</speed><course>263.217255</course><hAcc>0.890247</hAcc><vAcc>0.720152</vAcc></extensions></trkpt>
      <trkpt lon="-4.159336" lat="53.019299"><ele>499.466064</ele><time>2021-07-17T13:04:37Z</time><extensions><speed>0.685504</speed><course>271.463165</course><hAcc>0.890301</hAcc><vAcc>0.720379</vAcc></extensions></trkpt>
      <trkpt lon="-4.159340" lat="53.019305"><ele>499.310425</ele><time>2021-07-17T13:04:38Z</time><extensions><speed>0.693001</speed><course>281.991608</course><hAcc>0.890359</hAcc><vAcc>0.720603</vAcc></extensions></trkpt>
      <trkpt lon="-4.159344" lat="53.019311"><ele>499.150909</ele><time>2021-07-17T13:04:39Z</time><extensions><speed>0.701186</speed><course>285.895782</course><hAcc>0.890414</hAcc><vAcc>0.720816</vAcc></extensions></trkpt>
      <trkpt lon="-4.159348" lat="53.019317"><ele>498.990356</ele><time>2021-07-17T13:04:40Z</time><extensions><speed>0.709695</speed><course>287.327179</course><hAcc>0.890465</hAcc><vAcc>0.721010</vAcc></extensions></trkpt>
      <trkpt lon="-4.159352" lat="53.019323"><ele>498.831696</ele><time>2021-07-17T13:04:41Z</time><extensions><speed>0.718346</speed><course>297.396240</course><hAcc>0.890506</hAcc><vAcc>0.721176</vAcc></extensions></trkpt>
      <trkpt lon="-4.159356" lat="53.019329"><ele>498.677063</ele><time>2021-07-17T13:04:42Z</time><extensions><speed>0.727415</speed><course>299.473175</course><hAcc>0.890537</hAcc><vAcc>0.721301</vAcc></extensions></trkpt>
      <trkpt lon="-4.159360" lat="53.019335"><ele>498.527527</ele><time>2021-07-17T13:04:43Z</time><extensions><speed>0.737479</speed><course>297.683289</course><hAcc>0.890556</hAcc><vAcc>0.721374</vAcc></extensions></trkpt>
      <trkpt lon="-4.159365" lat="53.019341"><ele>498.383820</ele><time>2021-07-17T13:04:44Z</time><extensions><speed>0.749305</speed><course>292.365356</course><hAcc>0.890563</hAcc><vAcc>0.721389</vAcc></extensions></trkpt>
      <trkpt lon="-4.159371" lat="53.019347"><ele>498.246521</ele><time>2021-07-17T13:04:45Z</time><extensions><speed>0.763634</speed><course>291.092651</course><hAcc>0.890557</hAcc><vAcc>0.721348</vAcc></extensions></trkpt>
      <trkpt lon="-4.159377" lat="53.019352"><ele>498.116486</ele><time>2021-07-17T13:04:46Z</time><extensions><speed>0.780870</speed><course>297.007721</course><hAcc>0.890538</hAcc><vAcc>0.721258</vAcc></extensions></trkpt>
      <trkpt lon="-4.159384" lat="53.019358"><ele>497.994446</ele><time>2021-07-17T13:04:47Z</time><extensions><speed>0.800655</speed><course>291.539093</course><hAcc>0.890506</hAcc><vAcc>0.721132</vAcc></extensions></trkpt>
      <trkpt lon="-4.159391" lat="53.019364"><ele>497.880981</ele><time>2021-07-17T13:04:48Z</time><extensions><speed>0.822291</speed><course>293.314819</course><hAcc>0.890462</hAcc><vAcc>0.720977</vAcc></extensions></trkpt>
      <trkpt lon="-4.159399" lat="53.019370"><ele>497.776093</ele><time>2021-07-17T13:04:49Z</time><extensions><speed>0.844895</speed><course>297.043213</course><hAcc>0.890408</hAcc><vAcc>0.720801</vAcc></extensions></trkpt>
      <trkpt lon="-4.159408" lat="53.019375"><ele>497.679321</ele><time>2021-07-17T13:04:50Z</time><extensions><speed>0.866925</speed><course>301.573547</course><hAcc>0.890343</hAcc><vAcc>0.720605</vAcc></extensions></trkpt>
      <trkpt lon="-4.159417" lat="53.019381"><ele>497.590027</ele><time>2021-07-17T13:04:51Z</time><extensions><speed>0.886258</speed><course>305.542847</course><hAcc>0.890268</hAcc><vAcc>0.720393</vAcc></extensions></trkpt>
      <trkpt lon="-4.159427" lat="53.019386"><ele>497.507751</ele><time>2021-07-17T13:04:52Z</time><extensions><speed>0.901154</speed><course>304.461029</course><hAcc>0.890185</hAcc><vAcc>0.720166</vAcc></extensions></trkpt>
      <trkpt lon="-4.159436" lat="53.019392"><ele>497.431885</ele><time>2021-07-17T13:04:52Z</time><extensions><speed>0.910681</speed><course>304.519958</course><hAcc>0.890112</hAcc><vAcc>0.719934</vAcc></extensions></trkpt>
      <trkpt lon="-4.159446" lat="53.019398"><ele>497.361359</ele><time>2021-07-17T13:04:53Z</time><extensions><speed>0.914351</speed><course>306.835541</course><hAcc>0.890050</hAcc><vAcc>0.719699</vAcc></extensions></trkpt>
      <trkpt lon="-4.159456" lat="53.019404"><ele>497.295227</ele><time>2021-07-17T13:04:54Z</time><extensions><speed>0.912178</speed><course>312.924469</course><hAcc>0.889982</hAcc><vAcc>0.719448</vAcc></extensions></trkpt>
      <trkpt lon="-4.159465" lat="53.019409"><ele>497.232697</ele><time>2021-07-17T13:04:55Z</time><extensions><speed>0.904765</speed><course>313.121582</course><hAcc>0.889909</hAcc><vAcc>0.719186</vAcc></extensions></trkpt>
      <trkpt lon="-4.159474" lat="53.019415"><ele>497.173645</ele><time>2021-07-17T13:04:56Z</time><extensions><speed>0.892894</speed><course>312.363678</course><hAcc>0.889832</hAcc><vAcc>0.718916</vAcc></extensions></trkpt>
      <trkpt lon="-4.159483" lat="53.019422"><ele>497.118622</ele><time>2021-07-17T13:04:57Z</time><extensions><speed>0.876792</speed><course>309.905548</course><hAcc>0.889752</hAcc><vAcc>0.718641</vAcc></extensions></trkpt>
      <trkpt lon="-4.159490" lat="53.019428"><ele>497.068726</ele><time>2021-07-17T13:04:58Z</time><extensions><speed>0.856395</speed><course>308.597687</course><hAcc>0.889668</hAcc><vAcc>0.718363</vAcc></extensions></trkpt>
      <trkpt lon="-4.159497" lat="53.019434"><ele>497.025208</ele><time>2021-07-17T13:04:59Z</time><extensions><speed>0.832355</speed><course>307.103394</course><hAcc>0.889579</hAcc><vAcc>0.718081</vAcc></extensions></trkpt>
      <trkpt lon="-4.159502" lat="53.019441"><ele>496.989197</ele><time>2021-07-17T13:05:00Z</time><extensions><speed>0.806271</speed><course>306.897400</course><hAcc>0.889484</hAcc><vAcc>0.717793</vAcc></extensions></trkpt>
      <trkpt lon="-4.159507" lat="53.019448"><ele>496.961060</ele><time>2021-07-17T13:05:01Z</time><extensions><speed>0.780187</speed><course>302.152618</course><hAcc>0.889383</hAcc><vAcc>0.717496</vAcc></extensions></trkpt>
      <trkpt lon="-4.159510" lat="53.019454"><ele>496.940460</ele><time>2021-07-17T13:05:02Z</time><extensions><speed>0.755616</speed><course>297.726410</course><hAcc>0.889271</hAcc><vAcc>0.717182</vAcc></extensions></trkpt>
      <trkpt lon="-4.159512" lat="53.019461"><ele>496.927094</ele><time>2021-07-17T13:05:03Z</time><extensions><speed>0.732899</speed><course>300.194183</course><hAcc>0.889149</hAcc><vAcc>0.716841</vAcc></extensions></trkpt>
      <trkpt lon="-4.159513" lat="53.019467"><ele>496.920959</ele><time>2021-07-17T13:05:04Z</time><extensions><speed>0.711332</speed><course>297.151825</course><hAcc>0.889015</hAcc><vAcc>0.716462</vAcc></extensions></trkpt>
      <trkpt lon="-4.159513" lat="53.019473"><ele>496.922119</ele><time>2021-07-17T13:05:05Z</time><extensions><speed>0.689438</speed><course>298.399384</course><hAcc>0.888868</hAcc><vAcc>0.716034</vAcc></extensions></trkpt>
      <trkpt lon="-4.159513" lat="53.019479"><ele>496.930634</ele><time>2021-07-17T13:05:06Z</time><extensions><speed>0.665689</speed><course>300.837921</course><hAcc>0.888709</hAcc><vAcc>0.715552</vAcc></extensions></trkpt>
      <trkpt lon="-4.159511" lat="53.019485"><ele>496.946014</ele><time>2021-07-17T13:05:07Z</time><extensions><speed>0.639655</speed><course>299.844330</course><hAcc>0.888540</hAcc><vAcc>0.715011</vAcc></extensions></trkpt>
      <trkpt lon="-4.159509" lat="53.019491"><ele>496.967468</ele><time>2021-07-17T13:05:08Z</time><extensions><speed>0.612327</speed><course>300.001373</course><hAcc>0.888364</hAcc><vAcc>0.714413</vAcc></extensions></trkpt>
      <trkpt lon="-4.159507" lat="53.019496"><ele>496.993927</ele><time>2021-07-17T13:05:09Z</time><extensions><speed>0.585914</speed><course>294.568817</course><hAcc>0.888187</hAcc><vAcc>0.713773</vAcc></extensions></trkpt>
      <trkpt lon="-4.159505" lat="53.019501"><ele>497.024261</ele><time>2021-07-17T13:05:10Z</time><extensions><speed>0.563288</speed><course>300.687103</course><hAcc>0.888014</hAcc><vAcc>0.713115</vAcc></extensions></trkpt>
      <trkpt lon="-4.159502" lat="53.019506"><ele>497.057281</ele><time>2021-07-17T13:05:11Z</time><extensions><speed>0.546591</speed><course>297.691925</course><hAcc>0.887853</hAcc><vAcc>0.712473</vAcc></extensions></trkpt>
      <trkpt lon="-4.159499" lat="53.019510"><ele>497.091980</ele><time>2021-07-17T13:05:12Z</time><extensions><speed>0.536916</speed><course>293.928223</course><hAcc>0.887710</hAcc><vAcc>0.711892</vAcc></extensions></trkpt>
      <trkpt lon="-4.159495" lat="53.019515"><ele>497.127319</ele><time>2021-07-17T13:05:13Z</time><extensions><speed>0.534820</speed><course>297.041656</course><hAcc>0.887591</hAcc><vAcc>0.711415</vAcc></extensions></trkpt>
      <trkpt lon="-4.159492" lat="53.019519"><ele>497.162231</ele><time>2021-07-17T13:05:14Z</time><extensions><speed>0.540075</speed><course>298.722290</course><hAcc>0.887500</hAcc><vAcc>0.711080</vAcc></extensions></trkpt>
      <trkpt lon="-4.159488" lat="53.019523"><ele>497.195709</ele><time>2021-07-17T13:05:15Z</time><extensions><speed>0.551549</speed><course>296.674316</course><hAcc>0.887440</hAcc><vAcc>0.710904</vAcc></extensions></trkpt>
      <trkpt lon="-4.159484" lat="53.019528"><ele>497.226807</ele><time>2021-07-17T13:05:16Z</time><extensions><speed>0.567751</speed><course>301.147156</course><hAcc>0.887411</hAcc><vAcc>0.710877</vAcc></extensions></trkpt>
      <trkpt lon="-4.159481" lat="53.019532"><ele>497.254700</ele><time>2021-07-17T13:05:17Z</time><extensions><speed>0.587241</speed><course>301.618805</course><hAcc>0.887413</hAcc><vAcc>0.710973</vAcc></extensions></trkpt>
      <trkpt lon="-4.159477" lat="53.019537"><ele>497.278809</ele><time>2021-07-17T13:05:18Z</time><extensions><speed>0.609309</speed><course>300.678009</course><hAcc>0.887442</hAcc><vAcc>0.711157</vAcc></extensions></trkpt>
      <trkpt lon="-4.159473" lat="53.019542"><ele>497.298767</ele><time>2021-07-17T13:05:19Z</time><extensions><speed>0.633743</speed><course>306.078644</course><hAcc>0.887494</hAcc><vAcc>0.711398</vAcc></extensions></trkpt>
      <trkpt lon="-4.159468" lat="53.019547"><ele>497.313843</ele><time>2021-07-17T13:05:20Z</time><extensions><speed>0.660006</speed><course>302.099213</course><hAcc>0.887565</hAcc><vAcc>0.711671</vAcc></extensions></trkpt>
      <trkpt lon="-4.159464" lat="53.019553"><ele>497.323395</ele><time>2021-07-17T13:05:21Z</time><extensions><speed>0.687559</speed><course>298.253754</course><hAcc>0.887651</hAcc><vAcc>0.711962</vAcc></extensions></trkpt>
      <trkpt lon="-4.159460" lat="53.019559"><ele>497.327118</ele><time>2021-07-17T13:05:22Z</time><extensions><speed>0.715914</speed><course>299.772583</course><hAcc>0.887747</hAcc><vAcc>0.712262</vAcc></extensions></trkpt>
      <trkpt lon="-4.159456" lat="53.019565"><ele>497.324677</ele><time>2021-07-17T13:05:23Z</time><extensions><speed>0.744505</speed><course>299.946075</course><hAcc>0.887851</hAcc><vAcc>0.712569</vAcc></extensions></trkpt>
      <trkpt lon="-4.159452" lat="53.019571"><ele>497.315674</ele><time>2021-07-17T13:05:24Z</time><extensions><speed>0.772835</speed><course>303.968170</course><hAcc>0.887959</hAcc><vAcc>0.712886</vAcc></extensions></trkpt>
      <trkpt lon="-4.159447" lat="53.019578"><ele>497.299652</ele><time>2021-07-17T13:05:25Z</time><extensions><speed>0.800278</speed><course>302.223755</course><hAcc>0.888071</hAcc><vAcc>0.713217</vAcc></extensions></trkpt>
      <trkpt lon="-4.159443" lat="53.019584"><ele>497.276215</ele><time>2021-07-17T13:05:26Z</time><extensions><speed>0.826342</speed><course>303.590851</course><hAcc>0.888185</hAcc><vAcc>0.713566</vAcc></extensions></trkpt>
      <trkpt lon="-4.159439" lat="53.019592"><ele>497.245239</ele><time>2021-07-17T13:05:27Z</time><extensions><speed>0.851387</speed><course>302.656281</course><hAcc>0.888299</hAcc><vAcc>0.713932</vAcc></extensions></trkpt>
      <trkpt lon="-4.159435" lat="53.019599"><ele>497.206909</ele><time>2021-07-17T13:05:28Z</time><extensions><speed>0.876316</speed><course>307.857574</course><hAcc>0.888414</hAcc><vAcc>0.714309</vAcc></extensions></trkpt>
      <trkpt lon="-4.159430" lat="53.019606"><ele>497.161346</ele><time>2021-07-17T13:05:29Z</time><extensions><speed>0.901920</speed><course>306.241272</course><hAcc>0.888528</hAcc><vAcc>0.714684</vAcc></extensions></trkpt>
      <trkpt lon="-4.159426" lat="53.019614"><ele>497.108734</ele><time>2021-07-17T13:05:30Z</time><extensions><speed>0.928306</speed><course>302.560516</course><hAcc>0.888641</hAcc><vAcc>0.715045</vAcc></extensions></trkpt>
      <trkpt lon="-4.159423" lat="53.019622"><ele>497.049347</ele><time>2021-07-17T13:05:32Z</time><extensions><speed>0.954962</speed><course>304.207947</course><hAcc>0.888735</hAcc><vAcc>0.715368</vAcc></extensions></trkpt>
      <trkpt lon="-4.159419" lat="53.019631"><ele>496.983887</ele><time>2021-07-17T13:05:33Z</time><extensions><speed>0.980976</speed><course>304.678192</course><hAcc>0.888808</hAcc><vAcc>0.715646</vAcc></extensions></trkpt>
      <trkpt lon="-4.159415" lat="53.019640"><ele>496.913239</ele><time>2021-07-17T13:05:34Z</time><extensions><speed>1.005967</speed><course>300.816559</course><hAcc>0.888877</hAcc><vAcc>0.715890</vAcc></extensions></trkpt>
      <trkpt lon="-4.159412" lat="53.019648"><ele>496.838531</ele><time>2021-07-17T13:05:35Z</time><extensions><speed>1.030093</speed><course>302.457642</course><hAcc>0.888942</hAcc><vAcc>0.716100</vAcc></extensions></trkpt>
      <trkpt lon="-4.159409" lat="53.019658"><ele>496.760590</ele><time>2021-07-17T13:05:36Z</time><extensions><speed>1.053415</speed><course>303.405792</course><hAcc>0.889003</hAcc><vAcc>0.716280</vAcc></extensions></trkpt>
      <trkpt lon="-4.159406" lat="53.019667"><ele>496.680145</ele><time>2021-07-17T13:05:37Z</time><extensions><speed>1.075732</speed><course>305.179382</course><hAcc>0.889059</hAcc><vAcc>0.716436</vAcc></extensions></trkpt>
      <trkpt lon="-4.159402" lat="53.019677"><ele>496.597687</ele><time>2021-07-17T13:05:38Z</time><extensions><speed>1.096557</speed><course>301.811188</course><hAcc>0.889113</hAcc><vAcc>0.716578</vAcc></extensions></trkpt>
      <trkpt lon="-4.159399" lat="53.019686"><ele>496.512970</ele><time>2021-07-17T13:05:39Z</time><extensions><speed>1.115019</speed><course>294.111877</course><hAcc>0.889165</hAcc><vAcc>0.716715</vAcc></extensions></trkpt>
      <trkpt lon="-4.159396" lat="53.019696"><ele>496.424683</ele><time>2021-07-17T13:05:40Z</time><extensions><speed>1.130080</speed><course>291.186249</course><hAcc>0.889217</hAcc><vAcc>0.716859</vAcc></extensions></trkpt>
      <trkpt lon="-4.159393" lat="53.019706"><ele>496.330994</ele><time>2021-07-17T13:05:41Z</time><extensions><speed>1.141200</speed><course>291.833313</course><hAcc>0.889271</hAcc><vAcc>0.717019</vAcc></extensions></trkpt>
      <trkpt lon="-4.159390" lat="53.019716"><ele>496.230377</ele><time>2021-07-17T13:05:42Z</time><extensions><speed>1.148505</speed><course>293.198639</course><hAcc>0.889328</hAcc><vAcc>0.717200</vAcc></extensions></trkpt>
      <trkpt lon="-4.159386" lat="53.019727"><ele>496.122040</ele><time>2021-07-17T13:05:43Z</time><extensions><speed>1.152362</speed><course>297.953094</course><hAcc>0.889388</hAcc><vAcc>0.717405</vAcc></extensions></trkpt>
      <trkpt lon="-4.159383" lat="53.019737"><ele>496.006500</ele><time>2021-07-17T13:05:44Z</time><extensions><speed>1.152743</speed><course>294.998413</course><hAcc>0.889454</hAcc><vAcc>0.717629</vAcc></extensions></trkpt>
      <trkpt lon="-4.159380" lat="53.019747"><ele>495.885895</ele><time>2021-07-17T13:05:45Z</time><extensions><speed>1.149400</speed><course>290.333923</course><hAcc>0.889525</hAcc><vAcc>0.717867</vAcc></extensions></trkpt>
      <trkpt lon="-4.159378" lat="53.019757"><ele>495.763184</ele><time>2021-07-17T13:05:46Z</time><extensions><speed>1.142578</speed><course>297.336884</course><hAcc>0.889603</hAcc><vAcc>0.718116</vAcc></extensions></trkpt>
      <trkpt lon="-4.159375" lat="53.019767"><ele>495.640869</ele><time>2021-07-17T13:05:47Z</time><extensions><speed>1.132980</speed><course>291.763641</course><hAcc>0.889687</hAcc><vAcc>0.718371</vAcc></extensions></trkpt>
      <trkpt lon="-4.159373" lat="53.019777"><ele>495.520721</ele><time>2021-07-17T13:05:48Z</time><extensions><speed>1.121436</speed><course>293.588959</course><hAcc>0.889776</hAcc><vAcc>0.718636</vAcc></extensions></trkpt>
      <trkpt lon="-4.159371" lat="53.019787"><ele>495.403961</ele><time>2021-07-17T13:05:49Z</time><extensions><speed>1.108595</speed><course>298.534668</course><hAcc>0.889869</hAcc><vAcc>0.718920</vAcc></extensions></trkpt>
      <trkpt lon="-4.159369" lat="53.019797"><ele>495.291748</ele><time>2021-07-17T13:05:50Z</time><extensions><speed>1.094905</speed><course>294.834351</course><hAcc>0.889965</hAcc><vAcc>0.719226</vAcc></extensions></trkpt>
      <trkpt lon="-4.159368" lat="53.019807"><ele>495.184906</ele><time>2021-07-17T13:05:51Z</time><extensions><speed>1.080434</speed><course>297.698059</course><hAcc>0.890060</hAcc><vAcc>0.719555</vAcc></extensions></trkpt>
      <trkpt lon="-4.159367" lat="53.019816"><ele>495.084045</ele><time>2021-07-17T13:05:52Z</time><extensions><speed>1.064911</speed><course>298.511444</course><hAcc>0.890153</hAcc><vAcc>0.719899</vAcc></extensions></trkpt>
      <trkpt lon="-4.159366" lat="53.019826"><ele>494.990051</ele><time>2021-07-17T13:05:53Z</time><extensions><speed>1.047383</speed><course>303.054443</course><hAcc>0.890240</hAcc><vAcc>0.720243</vAcc></extensions></trkpt>
      <trkpt lon="-4.159366" lat="53.019835"><ele>494.903992</ele><time>2021-07-17T13:05:54Z</time><extensions><speed>1.026226</speed><course>300.594757</course><hAcc>0.890321</hAcc><vAcc>0.720568</vAcc></extensions></trkpt>
      <trkpt lon="-4.159366" lat="53.019844"><ele>494.826569</ele><time>2021-07-17T13:05:55Z</time><extensions><speed>1.000253</speed><course>303.489990</course><hAcc>0.890392</hAcc><vAcc>0.720853</vAcc></extensions></trkpt>
      <trkpt lon="-4.159366" lat="53.019853"><ele>494.757812</ele><time>2021-07-17T13:05:56Z</time><extensions><speed>0.968828</speed><course>307.296783</course><hAcc>0.890452</hAcc><vAcc>0.721083</vAcc></extensions></trkpt>
      <trkpt lon="-4.159366" lat="53.019862"><ele>494.697418</ele><time>2021-07-17T13:05:57Z</time><extensions><speed>0.931610</speed><course>306.846466</course><hAcc>0.890499</hAcc><vAcc>0.721245</vAcc></extensions></trkpt>
      <trkpt lon="-4.159366" lat="53.019870"><ele>494.644562</ele><time>2021-07-17T13:05:58Z</time><extensions><speed>0.888755</speed><course>314.303711</course><hAcc>0.890532</hAcc><vAcc>0.721335</vAcc></extensions></trkpt>
      <trkpt lon="-4.159365" lat="53.019878"><ele>494.598145</ele><time>2021-07-17T13:05:59Z</time><extensions><speed>0.840680</speed><course>316.753265</course><hAcc>0.890549</hAcc><vAcc>0.721357</vAcc></extensions></trkpt>
      <trkpt lon="-4.159365" lat="53.019885"><ele>494.556641</ele><time>2021-07-17T13:06:00Z</time><extensions><speed>0.788123</speed><course>312.101562</course><hAcc>0.890552</hAcc><vAcc>0.721320</vAcc></extensions></trkpt>
      <trkpt lon="-4.159364" lat="53.019892"><ele>494.518494</ele><time>2021-07-17T13:06:01Z</time><extensions><speed>0.732676</speed><course>310.983948</course><hAcc>0.890541</hAcc><vAcc>0.721238</vAcc></extensions></trkpt>
      <trkpt lon="-4.159362" lat="53.019898"><ele>494.482025</ele><time>2021-07-17T13:06:02Z</time><extensions><speed>0.676598</speed><course>316.824890</course><hAcc>0.890517</hAcc><vAcc>0.721121</vAcc></extensions></trkpt>
      <trkpt lon="-4.159361" lat="53.019904"><ele>494.445618</ele><time>2021-07-17T13:06:03Z</time><extensions><speed>0.621937</speed><course>324.005005</course><hAcc>0.890481</hAcc><vAcc>0.720979</vAcc></extensions></trkpt>
      <trkpt lon="-4.159359" lat="53.019909"><ele>494.408325</ele><time>2021-07-17T13:06:04Z</time><extensions><speed>0.570821</speed><course>322.091736</course><hAcc>0.890436</hAcc><vAcc>0.720819</vAcc></extensions></trkpt>
      <trkpt lon="-4.159358" lat="53.019914"><ele>494.369507</ele><time>2021-07-17T13:06:05Z</time><extensions><speed>0.526052</speed><course>322.830170</course><hAcc>0.890383</hAcc><vAcc>0.720644</vAcc></extensions></trkpt>
      <trkpt lon="-4.159356" lat="53.019918"><ele>494.328583</ele><time>2021-07-17T13:06:06Z</time><extensions><speed>0.489691</speed><course>325.823517</course><hAcc>0.890326</hAcc><vAcc>0.720458</vAcc></extensions></trkpt>
      <trkpt lon="-4.159354" lat="53.019922"><ele>494.285065</ele><time>2021-07-17T13:06:07Z</time><extensions><speed>0.462550</speed><course>331.853210</course><hAcc>0.890265</hAcc><vAcc>0.720264</vAcc></extensions></trkpt>
      <trkpt lon="-4.159352" lat="53.019926"><ele>494.238281</ele><time>2021-07-17T13:06:08Z</time><extensions><speed>0.444860</speed><course>331.260956</course><hAcc>0.890202</hAcc><vAcc>0.720063</vAcc></extensions></trkpt>
      <trkpt lon="-4.159350" lat="53.019930"><ele>494.187531</ele><time>2021-07-17T13:06:09Z</time><extensions><speed>0.436267</speed><course>329.072571</course><hAcc>0.890139</hAcc><vAcc>0.719858</vAcc></extensions></trkpt>
      <trkpt lon="-4.159347" lat="53.019934"><ele>494.132172</ele><time>2021-07-17T13:06:10Z</time><extensions><speed>0.435892</speed><course>325.473938</course><hAcc>0.890078</hAcc><vAcc>0.719653</vAcc></extensions></trkpt>
      <trkpt lon="-4.159345" lat="53.019937"><ele>494.071594</ele><time>2021-07-17T13:06:11Z</time><extensions><speed>0.442338</speed><course>325.383026</course><hAcc>0.890020</hAcc><vAcc>0.719451</vAcc></extensions></trkpt>
      <trkpt lon="-4.159342" lat="53.019941"><ele>494.005249</ele><time>2021-07-17T13:06:12Z</time><extensions><speed>0.453713</speed><course>325.061401</course><hAcc>0.889968</hAcc><vAcc>0.719260</vAcc></extensions></trkpt>
      <trkpt lon="-4.159339" lat="53.019945"><ele>493.932892</ele><time>2021-07-17T13:06:13Z</time><extensions><speed>0.467594</speed><course>325.207275</course><hAcc>0.889923</hAcc><vAcc>0.719088</vAcc></extensions></trkpt>
      <trkpt lon="-4.159336" lat="53.019948"><ele>493.854340</ele><time>2021-07-17T13:06:14Z</time><extensions><speed>0.480887</speed><course>322.410889</course><hAcc>0.889889</hAcc><vAcc>0.718944</vAcc></extensions></trkpt>
      <trkpt lon="-4.159332" lat="53.019952"><ele>493.769806</ele><time>2021-07-17T13:06:15Z</time><extensions><speed>0.490036</speed><course>319.218658</course><hAcc>0.889865</hAcc><vAcc>0.718836</vAcc></extensions></trkpt>
      <trkpt lon="-4.159329" lat="53.019956"><ele>493.679962</ele><time>2021-07-17T13:06:16Z</time><extensions><speed>0.492301</speed><course>319.790588</course><hAcc>0.889856</hAcc><vAcc>0.718773</vAcc></extensions></trkpt>
      <trkpt lon="-4.159326" lat="53.019960"><ele>493.585907</ele><time>2021-07-17T13:06:17Z</time><extensions><speed>0.486353</speed><course>318.972229</course><hAcc>0.889861</hAcc><vAcc>0.718761</vAcc></extensions></trkpt>
      <trkpt lon="-4.159324" lat="53.019964"><ele>493.489258</ele><time>2021-07-17T13:06:18Z</time><extensions><speed>0.471736</speed><course>320.354065</course><hAcc>0.889881</hAcc><vAcc>0.718810</vAcc></extensions></trkpt>
      <trkpt lon="-4.159321" lat="53.019968"><ele>493.391998</ele><time>2021-07-17T13:06:19Z</time><extensions><speed>0.449058</speed><course>320.541016</course><hAcc>0.889916</hAcc><vAcc>0.718922</vAcc></extensions></trkpt>
      <trkpt lon="-4.159319" lat="53.019972"><ele>493.296082</ele><time>2021-07-17T13:06:20Z</time><extensions><speed>0.419997</speed><course>317.906189</course><hAcc>0.889964</hAcc><vAcc>0.719100</vAcc></extensions></trkpt>
      <trkpt lon="-4.159317" lat="53.019975"><ele>493.203217</ele><time>2021-07-17T13:06:21Z</time><extensions><speed>0.386700</speed><course>316.077393</course><hAcc>0.890022</hAcc><vAcc>0.719335</vAcc></extensions></trkpt>
      <trkpt lon="-4.159316" lat="53.019979"><ele>493.114777</ele><time>2021-07-17T13:06:22Z</time><extensions><speed>0.351849</speed><course>307.356537</course><hAcc>0.890089</hAcc><vAcc>0.719615</vAcc></extensions></trkpt>
      <trkpt lon="-4.159315" lat="53.019981"><ele>493.031830</ele><time>2021-07-17T13:06:23Z</time><extensions><speed>0.318304</speed><course>302.004150</course><hAcc>0.890160</hAcc><vAcc>0.719919</vAcc></extensions></trkpt>
      <trkpt lon="-4.159315" lat="53.019984"><ele>492.955139</ele><time>2021-07-17T13:06:24Z</time><extensions><speed>0.288589</speed><course>310.520874</course><hAcc>0.890232</hAcc><vAcc>0.720227</vAcc></extensions></trkpt>
      <trkpt lon="-4.159315" lat="53.019987"><ele>492.885132</ele><time>2021-07-17T13:06:25Z</time><extensions><speed>0.265152</speed><course>307.778412</course><hAcc>0.890302</hAcc><vAcc>0.720515</vAcc></extensions></trkpt>
      <trkpt lon="-4.159315" lat="53.019989"><ele>492.822174</ele><time>2021-07-17T13:06:26Z</time><extensions><speed>0.250346</speed><course>310.132080</course><hAcc>0.890366</hAcc><vAcc>0.720765</vAcc></extensions></trkpt>
      <trkpt lon="-4.159316" lat="53.019991"><ele>492.766174</ele><time>2021-07-17T13:06:27Z</time><extensions><speed>0.245732</speed><course>310.327301</course><hAcc>0.890423</hAcc><vAcc>0.720963</vAcc></extensions></trkpt>
      <trkpt lon="-4.159318" lat="53.019993"><ele>492.716644</ele><time>2021-07-17T13:06:28Z</time><extensions><speed>0.251288</speed><course>308.925873</course><hAcc>0.890471</hAcc><vAcc>0.721104</vAcc></extensions></trkpt>
      <trkpt lon="-4.159320" lat="53.019995"><ele>492.672577</ele><time>2021-07-17T13:06:29Z</time><extensions><speed>0.264968</speed><course>308.955322</course><hAcc>0.890508</hAcc><vAcc>0.721190</vAcc></extensions></trkpt>
      <trkpt lon="-4.159322" lat="53.019997"><ele>492.632629</ele><time>2021-07-17T13:06:30Z</time><extensions><speed>0.284510</speed><course>303.152588</course><hAcc>0.890534</hAcc><vAcc>0.721229</vAcc></extensions></trkpt>
      <trkpt lon="-4.159325" lat="53.019999"><ele>492.595154</ele><time>2021-07-17T13:06:31Z</time><extensions><speed>0.308517</speed><course>313.156525</course><hAcc>0.890550</hAcc><vAcc>0.721232</vAcc></extensions></trkpt>
      <trkpt lon="-4.159328" lat="53.020001"><ele>492.558563</ele><time>2021-07-17T13:06:32Z</time><extensions><speed>0.335557</speed><course>307.864197</course><hAcc>0.890557</hAcc><vAcc>0.721210</vAcc></extensions></trkpt>
      <trkpt lon="-4.159332" lat="53.020004"><ele>492.521301</ele><time>2021-07-17T13:06:33Z</time><extensions><speed>0.363817</speed><course>309.541687</course><hAcc>0.890557</hAcc><vAcc>0.721174</vAcc></extensions></trkpt>
      <trkpt lon="-4.159336" lat="53.020006"><ele>492.482147</ele><time>2021-07-17T13:06:34Z</time><extensions><speed>0.390953</speed><course>312.130341</course><hAcc>0.890551</hAcc><vAcc>0.721132</vAcc></extensions></trkpt>
      <trkpt lon="-4.159340" lat="53.020009"><ele>492.440186</ele><time>2021-07-17T13:06:35Z</time><extensions><speed>0.414166</speed><course>310.268982</course><hAcc>0.890541</hAcc><vAcc>0.721091</vAcc></extensions></trkpt>
      <trkpt lon="-4.159344" lat="53.020011"><ele>492.395172</ele><time>2021-07-17T13:06:36Z</time><extensions><speed>0.431157</speed><course>308.247070</course><hAcc>0.890529</hAcc><vAcc>0.721053</vAcc></extensions></trkpt>
      <trkpt lon="-4.159348" lat="53.020014"><ele>492.347351</ele><time>2021-07-17T13:06:37Z</time><extensions><speed>0.441034</speed><course>304.229858</course><hAcc>0.890514</hAcc><vAcc>0.721018</vAcc></extensions></trkpt>
      <trkpt lon="-4.159353" lat="53.020017"><ele>492.297455</ele><time>2021-07-17T13:06:38Z</time><extensions><speed>0.443857</speed><course>308.310059</course><hAcc>0.890499</hAcc><vAcc>0.720985</vAcc></extensions></trkpt>
      <trkpt lon="-4.159357" lat="53.020020"><ele>492.246033</ele><time>2021-07-17T13:06:39Z</time><extensions><speed>0.440054</speed><course>311.142822</course><hAcc>0.890482</hAcc><vAcc>0.720951</vAcc></extensions></trkpt>
      <trkpt lon="-4.159362" lat="53.020023"><ele>492.193604</ele><time>2021-07-17T13:06:40Z</time><extensions><speed>0.430564</speed><course>305.518036</course><hAcc>0.890465</hAcc><vAcc>0.720914</vAcc></extensions></trkpt>
      <trkpt lon="-4.159366" lat="53.020026"><ele>492.141266</ele><time>2021-07-17T13:06:41Z</time><extensions><speed>0.416989</speed><course>303.061462</course><hAcc>0.890448</hAcc><vAcc>0.720867</vAcc></extensions></trkpt>
      <trkpt lon="-4.159370" lat="53.020029"><ele>492.090820</ele><time>2021-07-17T13:06:42Z</time><extensions><speed>0.401419</speed><course>298.232086</course><hAcc>0.890432</hAcc><vAcc>0.720807</vAcc></extensions></trkpt>
      <trkpt lon="-4.159374" lat="53.020031"><ele>492.043762</ele><time>2021-07-17T13:06:43Z</time><extensions><speed>0.386265</speed><course>289.358276</course><hAcc>0.890417</hAcc><vAcc>0.720732</vAcc></extensions></trkpt>
      <trkpt lon="-4.159378" lat="53.020034"><ele>492.000946</ele><time>2021-07-17T13:06:44Z</time><extensions><speed>0.374068</speed><course>285.924469</course><hAcc>0.890405</hAcc><vAcc>0.720646</vAcc></extensions></trkpt>
      <trkpt lon="-4.159382" lat="53.020036"><ele>491.962097</ele><time>2021-07-17T13:06:45Z</time><extensions><speed>0.366712</speed><course>280.520447</course><hAcc>0.890396</hAcc><vAcc>0.720561</vAcc></extensions></trkpt>
      <trkpt lon="-4.159386" lat="53.020038"><ele>491.926178</ele><time>2021-07-17T13:06:46Z</time><extensions><speed>0.365127</speed><course>286.862061</course><hAcc>0.890389</hAcc><vAcc>0.720488</vAcc></extensions></trkpt>
      <trkpt lon="-4.159390" lat="53.020041"><ele>491.891876</ele><time>2021-07-17T13:06:47Z</time><extensions><speed>0.369580</speed><course>295.700317</course><hAcc>0.890386</hAcc><vAcc>0.720438</vAcc></extensions></trkpt>
      <trkpt lon="-4.159394" lat="53.020043"><ele>491.857849</ele><time>2021-07-17T13:06:48Z</time><extensions><speed>0.379458</speed><course>296.161560</course><hAcc>0.890368</hAcc><vAcc>0.720399</vAcc></extensions></trkpt>
      <trkpt lon="-4.159398" lat="53.020045"><ele>491.823151</ele><time>2021-07-17T13:06:49Z</time><extensions><speed>0.393309</speed><course>298.229218</course><hAcc>0.890334</hAcc><vAcc>0.720366</vAcc></extensions></trkpt>
      <trkpt lon="-4.159403" lat="53.020048"><ele>491.787231</ele><time>2021-07-17T13:06:50Z</time><extensions><speed>0.409104</speed><course>297.545471</course><hAcc>0.890301</hAcc><vAcc>0.720337</vAcc></extensions></trkpt>
      <trkpt lon="-4.159407" lat="53.020050"><ele>491.750092</ele><time>2021-07-17T13:06:51Z</time><extensions><speed>0.423983</speed><course>292.454163</course><hAcc>0.890267</hAcc><vAcc>0.720300</vAcc></extensions></trkpt>
      <trkpt lon="-4.159412" lat="53.020053"><ele>491.712372</ele><time>2021-07-17T13:06:52Z</time><extensions><speed>0.434560</speed><course>287.195465</course><hAcc>0.890229</hAcc><vAcc>0.720244</vAcc></extensions></trkpt>
      <trkpt lon="-4.159417" lat="53.020055"><ele>491.674774</ele><time>2021-07-17T13:06:53Z</time><extensions><speed>0.437643</speed><course>283.339600</course><hAcc>0.890186</hAcc><vAcc>0.720160</vAcc></extensions></trkpt>
      <trkpt lon="-4.159422" lat="53.020058"><ele>491.637451</ele><time>2021-07-17T13:06:54Z</time><extensions><speed>0.430793</speed><course>283.687531</course><hAcc>0.890136</hAcc><vAcc>0.720042</vAcc></extensions></trkpt>
      <trkpt lon="-4.159427" lat="53.020060"><ele>491.600555</ele><time>2021-07-17T13:06:55Z</time><extensions><speed>0.413138</speed><course>284.089417</course><hAcc>0.890077</hAcc><vAcc>0.719885</vAcc></extensions></trkpt>
      <trkpt lon="-4.159431" lat="53.020063"><ele>491.564270</ele><time>2021-07-17T13:06:56Z</time><extensions><speed>0.386245</speed><course>286.432800</course><hAcc>0.890011</hAcc><vAcc>0.719689</vAcc></extensions></trkpt>
      <trkpt lon="-4.159435" lat="53.020065"><ele>491.528961</ele><time>2021-07-17T13:06:57Z</time><extensions><speed>0.353472</speed><course>288.844025</course><hAcc>0.889937</hAcc><vAcc>0.719461</vAcc></extensions></trkpt>
      <trkpt lon="-4.159439" lat="53.020067"><ele>491.495331</ele><time>2021-07-17T13:06:58Z</time><extensions><speed>0.318552</speed><course>294.600861</course><hAcc>0.889856</hAcc><vAcc>0.719215</vAcc></extensions></trkpt>
      <trkpt lon="-4.159442" lat="53.020069"><ele>491.464050</ele><time>2021-07-17T13:06:58Z</time><extensions><speed>0.284973</speed><course>289.399475</course><hAcc>0.889804</hAcc><vAcc>0.718993</vAcc></extensions></trkpt>
      <trkpt lon="-4.159445" lat="53.020071"><ele>491.435028</ele><time>2021-07-17T13:06:59Z</time><extensions><speed>0.254972</speed><course>292.462738</course><hAcc>0.889784</hAcc><vAcc>0.718810</vAcc></extensions></trkpt>
      <trkpt lon="-4.159447" lat="53.020072"><ele>491.407990</ele><time>2021-07-17T13:07:00Z</time><extensions><speed>0.230340</speed><course>292.044128</course><hAcc>0.889764</hAcc><vAcc>0.718656</vAcc></extensions></trkpt>
      <trkpt lon="-4.159449" lat="53.020074"><ele>491.382538</ele><time>2021-07-17T13:07:01Z</time><extensions><speed>0.212175</speed><course>289.426849</course><hAcc>0.889748</hAcc><vAcc>0.718545</vAcc></extensions></trkpt>
      <trkpt lon="-4.159451" lat="53.020075"><ele>491.357971</ele><time>2021-07-17T13:07:02Z</time><extensions><speed>0.201046</speed><course>292.821838</course><hAcc>0.889738</hAcc><vAcc>0.718482</vAcc></extensions></trkpt>
      <trkpt lon="-4.159453" lat="53.020076"><ele>491.332977</ele><time>2021-07-17T13:07:03Z</time><extensions><speed>0.197038</speed><course>287.405121</course><hAcc>0.889738</hAcc><vAcc>0.718471</vAcc></extensions></trkpt>
      <trkpt lon="-4.159455" lat="53.020078"><ele>491.306000</ele><time>2021-07-17T13:07:04Z</time><extensions><speed>0.200025</speed><course>289.328461</course><hAcc>0.889749</hAcc><vAcc>0.718507</vAcc></extensions></trkpt>
      <trkpt lon="-4.159457" lat="53.020079"><ele>491.275208</ele><time>2021-07-17T13:07:05Z</time><extensions><speed>0.209659</speed><course>290.686554</course><hAcc>0.889772</hAcc><vAcc>0.718585</vAcc></extensions></trkpt>
      <trkpt lon="-4.159459" lat="53.020081"><ele>491.238800</ele><time>2021-07-17T13:07:06Z</time><extensions><speed>0.225209</speed><course>291.519623</course><hAcc>0.889805</hAcc><vAcc>0.718699</vAcc></extensions></trkpt>
      <trkpt lon="-4.159461" lat="53.020083"><ele>491.195129</ele><time>2021-07-17T13:07:07Z</time><extensions><speed>0.245466</speed><course>289.260345</course><hAcc>0.889848</hAcc><vAcc>0.718845</vAcc></extensions></trkpt>
      <trkpt lon="-4.159463" lat="53.020084"><ele>491.142731</ele><time>2021-07-17T13:07:08Z</time><extensions><speed>0.268776</speed><course>291.671295</course><hAcc>0.889899</hAcc><vAcc>0.719021</vAcc></extensions></trkpt>
      <trkpt lon="-4.159466" lat="53.020087"><ele>491.080841</ele><time>2021-07-17T13:07:09Z</time><extensions><speed>0.293326</speed><course>285.797272</course><hAcc>0.889955</hAcc><vAcc>0.719220</vAcc></extensions></trkpt>
      <trkpt lon="-4.159468" lat="53.020089"><ele>491.009338</ele><time>2021-07-17T13:07:10Z</time><extensions><speed>0.317450</speed><course>284.045776</course><hAcc>0.890013</hAcc><vAcc>0.719438</vAcc></extensions></trkpt>
      <trkpt lon="-4.159471" lat="53.020091"><ele>490.928741</ele><time>2021-07-17T13:07:11Z</time><extensions><speed>0.339740</speed><course>290.744446</course><hAcc>0.890071</hAcc><vAcc>0.719664</vAcc></extensions></trkpt>
      <trkpt lon="-4.159473" lat="53.020094"><ele>490.840210</ele><time>2021-07-17T13:07:12Z</time><extensions><speed>0.359133</speed><course>286.155334</course><hAcc>0.890125</hAcc><vAcc>0.719886</vAcc></extensions></trkpt>
      <trkpt lon="-4.159476" lat="53.020097"><ele>490.745667</ele><time>2021-07-17T13:07:13Z</time><extensions><speed>0.375243</speed><course>292.078705</course><hAcc>0.890173</hAcc><vAcc>0.720085</vAcc></extensions></trkpt>
      <trkpt lon="-4.159479" lat="53.020100"><ele>490.647705</ele><time>2021-07-17T13:07:14Z</time><extensions><speed>0.388005</speed><course>292.906311</course><hAcc>0.890215</hAcc><vAcc>0.720248</vAcc></extensions></trkpt>
      <trkpt lon="-4.159482" lat="53.020103"><ele>490.548798</ele><time>2021-07-17T13:07:15Z</time><extensions><speed>0.397459</speed><course>291.462067</course><hAcc>0.890248</hAcc><vAcc>0.720365</vAcc></extensions></trkpt>
      <trkpt lon="-4.159485" lat="53.020106"><ele>490.450226</ele><time>2021-07-17T13:07:16Z</time><extensions><speed>0.404198</speed><course>290.448425</course><hAcc>0.890271</hAcc><vAcc>0.720434</vAcc></extensions></trkpt>
      <trkpt lon="-4.159487" lat="53.020109"><ele>490.352448</ele><time>2021-07-17T13:07:17Z</time><extensions><speed>0.409384</speed><course>295.857269</course><hAcc>0.890284</hAcc><vAcc>0.720458</vAcc></extensions></trkpt>
      <trkpt lon="-4.159490" lat="53.020113"><ele>490.255463</ele><time>2021-07-17T13:07:18Z</time><extensions><speed>0.414345</speed><course>298.185364</course><hAcc>0.890287</hAcc><vAcc>0.720439</vAcc></extensions></trkpt>
      <trkpt lon="-4.159493" lat="53.020116"><ele>490.158508</ele><time>2021-07-17T13:07:19Z</time><extensions><speed>0.420387</speed><course>294.469940</course><hAcc>0.890281</hAcc><vAcc>0.720387</vAcc></extensions></trkpt>
      <trkpt lon="-4.159495" lat="53.020120"><ele>490.060242</ele><time>2021-07-17T13:07:20Z</time><extensions><speed>0.428485</speed><course>292.898438</course><hAcc>0.890269</hAcc><vAcc>0.720311</vAcc></extensions></trkpt>
      <trkpt lon="-4.159498" lat="53.020123"><ele>489.958771</ele><time>2021-07-17T13:07:21Z</time><extensions><speed>0.438965</speed><course>292.422791</course><hAcc>0.890253</hAcc><vAcc>0.720222</vAcc></extensions></trkpt>
      <trkpt lon="-4.159500" lat="53.020127"><ele>489.852142</ele><time>2021-07-17T13:07:22Z</time><extensions><speed>0.451427</speed><course>292.622986</course><hAcc>0.890236</hAcc><vAcc>0.720131</vAcc></extensions></trkpt>
      <trkpt lon="-4.159502" lat="53.020131"><ele>489.738556</ele><time>2021-07-17T13:07:23Z</time><extensions><speed>0.464850</speed><course>292.749084</course><hAcc>0.890221</hAcc><vAcc>0.720047</vAcc></extensions></trkpt>
      <trkpt lon="-4.159503" lat="53.020135"><ele>489.616638</ele><time>2021-07-17T13:07:24Z</time><extensions><speed>0.478099</speed><course>294.832458</course><hAcc>0.890210</hAcc><vAcc>0.719979</vAcc></extensions></trkpt>
      <trkpt lon="-4.159504" lat="53.020139"><ele>489.485199</ele><time>2021-07-17T13:07:25Z</time><extensions><speed>0.490798</speed><course>290.563019</course><hAcc>0.890206</hAcc><vAcc>0.719935</vAcc></extensions></trkpt>
      <trkpt lon="-4.159504" lat="53.020144"><ele>489.343781</ele><time>2021-07-17T13:07:26Z</time><extensions><speed>0.503438</speed><course>288.082062</course><hAcc>0.890212</hAcc><vAcc>0.719924</vAcc></extensions></trkpt>
      <trkpt lon="-4.159504" lat="53.020148"><ele>489.192627</ele><time>2021-07-17T13:07:27Z</time><extensions><speed>0.517021</speed><course>289.238037</course><hAcc>0.890227</hAcc><vAcc>0.719957</vAcc></extensions></trkpt>
      <trkpt lon="-4.159503" lat="53.020153"><ele>489.033142</ele><time>2021-07-17T13:07:28Z</time><extensions><speed>0.532983</speed><course>289.037109</course><hAcc>0.890252</hAcc><vAcc>0.720041</vAcc></extensions></trkpt>
      <trkpt lon="-4.159500" lat="53.020158"><ele>488.867432</ele><time>2021-07-17T13:07:29Z</time><extensions><speed>0.552290</speed><course>291.884949</course><hAcc>0.890285</hAcc><vAcc>0.720176</vAcc></extensions></trkpt>
      <trkpt lon="-4.159497" lat="53.020162"><ele>488.697845</ele><time>2021-07-17T13:07:30Z</time><extensions><speed>0.574488</speed><course>287.567657</course><hAcc>0.890326</hAcc><vAcc>0.720356</vAcc></extensions></trkpt>
      <trkpt lon="-4.159494" lat="53.020167"><ele>488.526123</ele><time>2021-07-17T13:07:31Z</time><extensions><speed>0.597557</speed><course>291.768890</course><hAcc>0.890373</hAcc><vAcc>0.720567</vAcc></extensions></trkpt>
      <trkpt lon="-4.159489" lat="53.020172"><ele>488.352783</ele><time>2021-07-17T13:07:32Z</time><extensions><speed>0.619328</speed><course>296.126740</course><hAcc>0.890423</hAcc><vAcc>0.720791</vAcc></extensions></trkpt>
      <trkpt lon="-4.159484" lat="53.020177"><ele>488.177612</ele><time>2021-07-17T13:07:33Z</time><extensions><speed>0.638815</speed><course>297.059143</course><hAcc>0.890476</hAcc><vAcc>0.721009</vAcc></extensions></trkpt>
      <trkpt lon="-4.159478" lat="53.020181"><ele>488.000610</ele><time>2021-07-17T13:07:34Z</time><extensions><speed>0.655771</speed><course>303.696320</course><hAcc>0.890528</hAcc><vAcc>0.721206</vAcc></extensions></trkpt>
      <trkpt lon="-4.159472" lat="53.020186"><ele>487.822205</ele><time>2021-07-17T13:07:35Z</time><extensions><speed>0.670154</speed><course>307.460022</course><hAcc>0.890580</hAcc><vAcc>0.721373</vAcc></extensions></trkpt>
      <trkpt lon="-4.159465" lat="53.020191"><ele>487.643402</ele><time>2021-07-17T13:07:36Z</time><extensions><speed>0.682145</speed><course>302.094666</course><hAcc>0.890628</hAcc><vAcc>0.721506</vAcc></extensions></trkpt>
      <trkpt lon="-4.159458" lat="53.020195"><ele>487.465729</ele><time>2021-07-17T13:07:37Z</time><extensions><speed>0.692029</speed><course>294.763123</course><hAcc>0.890670</hAcc><vAcc>0.721611</vAcc></extensions></trkpt>
      <trkpt lon="-4.159451" lat="53.020199"><ele>487.290833</ele><time>2021-07-17T13:07:38Z</time><extensions><speed>0.699831</speed><course>292.310913</course><hAcc>0.890706</hAcc><vAcc>0.721695</vAcc></extensions></trkpt>
      <trkpt lon="-4.159443" lat="53.020204"><ele>487.120209</ele><time>2021-07-17T13:07:39Z</time><extensions><speed>0.705085</speed><course>286.252472</course><hAcc>0.890734</hAcc><vAcc>0.721770</vAcc></extensions></trkpt>
      <trkpt lon="-4.159435" lat="53.020208"><ele>486.955139</ele><time>2021-07-17T13:07:40Z</time><extensions><speed>0.706823</speed><course>277.085999</course><hAcc>0.890752</hAcc><vAcc>0.721837</vAcc></extensions></trkpt>
      <trkpt lon="-4.159427" lat="53.020212"><ele>486.796600</ele><time>2021-07-17T13:07:41Z</time><extensions><speed>0.703825</speed><course>269.880463</course><hAcc>0.890759</hAcc><vAcc>0.721890</vAcc></extensions></trkpt>
      <trkpt lon="-4.159418" lat="53.020215"><ele>486.645355</ele><time>2021-07-17T13:07:42Z</time><extensions><speed>0.695504</speed><course>256.014618</course><hAcc>0.890755</hAcc><vAcc>0.721918</vAcc></extensions></trkpt>
      <trkpt lon="-4.159410" lat="53.020219"><ele>486.501526</ele><time>2021-07-17T13:07:43Z</time><extensions><speed>0.682131</speed><course>250.524368</course><hAcc>0.890741</hAcc><vAcc>0.721909</vAcc></extensions></trkpt>
      <trkpt lon="-4.159402" lat="53.020223"><ele>486.364441</ele><time>2021-07-17T13:07:44Z</time><extensions><speed>0.664591</speed><course>237.491638</course><hAcc>0.890715</hAcc><vAcc>0.721852</vAcc></extensions></trkpt>
      <trkpt lon="-4.159394" lat="53.020226"><ele>486.232727</ele><time>2021-07-17T13:07:45Z</time><extensions><speed>0.644181</speed><course>231.976761</course><hAcc>0.890677</hAcc><vAcc>0.721746</vAcc></extensions></trkpt>
      <trkpt lon="-4.159387" lat="53.020230"><ele>486.104889</ele><time>2021-07-17T13:07:46Z</time><extensions><speed>0.621424</speed><course>228.504318</course><hAcc>0.890627</hAcc><vAcc>0.721590</vAcc></extensions></trkpt>
      <trkpt lon="-4.159380" lat="53.020233"><ele>485.979919</ele><time>2021-07-17T13:07:47Z</time><extensions><speed>0.596564</speed><course>227.577087</course><hAcc>0.890566</hAcc><vAcc>0.721386</vAcc></extensions></trkpt>
      <trkpt lon="-4.159374" lat="53.020237"><ele>485.857361</ele><time>2021-07-17T13:07:48Z</time><extensions><speed>0.570937</speed><course>219.513672</course><hAcc>0.890496</hAcc><vAcc>0.721133</vAcc></extensions></trkpt>
      <trkpt lon="-4.159368" lat="53.020241"><ele>485.736877</ele><time>2021-07-17T13:07:49Z</time><extensions><speed>0.546699</speed><course>224.903015</course><hAcc>0.890420</hAcc><vAcc>0.720837</vAcc></extensions></trkpt>
      <trkpt lon="-4.159364" lat="53.020245"><ele>485.618225</ele><time>2021-07-17T13:07:50Z</time><extensions><speed>0.525915</speed><course>222.390198</course><hAcc>0.890341</hAcc><vAcc>0.720512</vAcc></extensions></trkpt>
      <trkpt lon="-4.159360" lat="53.020249"><ele>485.501404</ele><time>2021-07-17T13:07:51Z</time><extensions><speed>0.510197</speed><course>223.313202</course><hAcc>0.890264</hAcc><vAcc>0.720181</vAcc></extensions></trkpt>
      <trkpt lon="-4.159356" lat="53.020253"><ele>485.386383</ele><time>2021-07-17T13:07:52Z</time><extensions><speed>0.501043</speed><course>224.045700</course><hAcc>0.890191</hAcc><vAcc>0.719864</vAcc></extensions></trkpt>
      <trkpt lon="-4.159354" lat="53.020257"><ele>485.273041</ele><time>2021-07-17T13:07:53Z</time><extensions><speed>0.500606</speed><course>224.975723</course><hAcc>0.890126</hAcc><vAcc>0.719581</vAcc></extensions></trkpt>
      <trkpt lon="-4.159353" lat="53.020261"><ele>485.161255</ele><time>2021-07-17T13:07:54Z</time><extensions><speed>0.511565</speed><course>226.513992</course><hAcc>0.890073</hAcc><vAcc>0.719348</vAcc></extensions></trkpt>
      <trkpt lon="-4.159353" lat="53.020266"><ele>485.050812</ele><time>2021-07-17T13:07:55Z</time><extensions><speed>0.535498</speed><course>227.291473</course><hAcc>0.890036</hAcc><vAcc>0.719175</vAcc></extensions></trkpt>
      <trkpt lon="-4.159354" lat="53.020271"><ele>484.940979</ele><time>2021-07-17T13:07:57Z</time><extensions><speed>0.571840</speed><course>231.833313</course><hAcc>0.889999</hAcc><vAcc>0.719057</vAcc></extensions></trkpt>
      <trkpt lon="-4.159356" lat="53.020276"><ele>484.831360</ele><time>2021-07-17T13:07:58Z</time><extensions><speed>0.617430</speed><course>230.421005</course><hAcc>0.889962</hAcc><vAcc>0.718993</vAcc></extensions></trkpt>
      <trkpt lon="-4.159360" lat="53.020282"><ele>484.721893</ele><time>2021-07-17T13:07:59Z</time><extensions><speed>0.668054</speed><course>235.980087</course><hAcc>0.889943</hAcc><vAcc>0.718991</vAcc></extensions></trkpt>
      <trkpt lon="-4.159364" lat="53.020287"><ele>484.613281</ele><time>2021-07-17T13:08:00Z</time><extensions><speed>0.719691</speed><course>243.213364</course><hAcc>0.889942</hAcc><vAcc>0.719041</vAcc></extensions></trkpt>
      <trkpt lon="-4.159369" lat="53.020293"><ele>484.506317</ele><time>2021-07-17T13:08:01Z</time><extensions><speed>0.769181</speed><course>253.165268</course><hAcc>0.889954</hAcc><vAcc>0.719130</vAcc></extensions></trkpt>
      <trkpt lon="-4.159376" lat="53.020299"><ele>484.401428</ele><time>2021-07-17T13:08:02Z</time><extensions><speed>0.813964</speed><course>266.505096</course><hAcc>0.889978</hAcc><vAcc>0.719248</vAcc></extensions></trkpt>
      <trkpt lon="-4.159382" lat="53.020305"><ele>484.297668</ele><time>2021-07-17T13:08:03Z</time><extensions><speed>0.852232</speed><course>267.255646</course><hAcc>0.890010</hAcc><vAcc>0.719391</vAcc></extensions></trkpt>
      <trkpt lon="-4.159389" lat="53.020312"><ele>484.192871</ele><time>2021-07-17T13:08:04Z</time><extensions><speed>0.883190</speed><course>271.176971</course><hAcc>0.890047</hAcc><vAcc>0.719554</vAcc></extensions></trkpt>
      <trkpt lon="-4.159396" lat="53.020319"><ele>484.084686</ele><time>2021-07-17T13:08:05Z</time><extensions><speed>0.907027</speed><course>283.145996</course><hAcc>0.890085</hAcc><vAcc>0.719728</vAcc></extensions></trkpt>
      <trkpt lon="-4.159404" lat="53.020326"><ele>483.970947</ele><time>2021-07-17T13:08:06Z</time><extensions><speed>0.924785</speed><course>291.499756</course><hAcc>0.890123</hAcc><vAcc>0.719897</vAcc></extensions></trkpt>
      <trkpt lon="-4.159410" lat="53.020333"><ele>483.849365</ele><time>2021-07-17T13:08:07Z</time><extensions><speed>0.937641</speed><course>295.960785</course><hAcc>0.890160</hAcc><vAcc>0.720042</vAcc></extensions></trkpt>
      <trkpt lon="-4.159417" lat="53.020341"><ele>483.717957</ele><time>2021-07-17T13:08:08Z</time><extensions><speed>0.946494</speed><course>298.309418</course><hAcc>0.890195</hAcc><vAcc>0.720150</vAcc></extensions></trkpt>
      <trkpt lon="-4.159422" lat="53.020348"><ele>483.575592</ele><time>2021-07-17T13:08:09Z</time><extensions><speed>0.951759</speed><course>301.442566</course><hAcc>0.890227</hAcc><vAcc>0.720223</vAcc></extensions></trkpt>
      <trkpt lon="-4.159428" lat="53.020356"><ele>483.422394</ele><time>2021-07-17T13:08:10Z</time><extensions><speed>0.953215</speed><course>301.820831</course><hAcc>0.890256</hAcc><vAcc>0.720271</vAcc></extensions></trkpt>
      <trkpt lon="-4.159432" lat="53.020365"><ele>483.258759</ele><time>2021-07-17T13:08:11Z</time><extensions><speed>0.951179</speed><course>306.533081</course><hAcc>0.890282</hAcc><vAcc>0.720307</vAcc></extensions></trkpt>
      <trkpt lon="-4.159435" lat="53.020373"><ele>483.084991</ele><time>2021-07-17T13:08:12Z</time><extensions><speed>0.946857</speed><course>310.759277</course><hAcc>0.890303</hAcc><vAcc>0.720344</vAcc></extensions></trkpt>
      <trkpt lon="-4.159438" lat="53.020381"><ele>482.901489</ele><time>2021-07-17T13:08:13Z</time><extensions><speed>0.941354</speed><course>315.721252</course><hAcc>0.890320</hAcc><vAcc>0.720390</vAcc></extensions></trkpt>
      <trkpt lon="-4.159440" lat="53.020389"><ele>482.709167</ele><time>2021-07-17T13:08:14Z</time><extensions><speed>0.935603</speed><course>321.376434</course><hAcc>0.890335</hAcc><vAcc>0.720445</vAcc></extensions></trkpt>
      <trkpt lon="-4.159440" lat="53.020398"><ele>482.508820</ele><time>2021-07-17T13:08:15Z</time><extensions><speed>0.930248</speed><course>321.893402</course><hAcc>0.890347</hAcc><vAcc>0.720502</vAcc></extensions></trkpt>
      <trkpt lon="-4.159440" lat="53.020406"><ele>482.301392</ele><time>2021-07-17T13:08:16Z</time><extensions><speed>0.925289</speed><course>325.867676</course><hAcc>0.890356</hAcc><vAcc>0.720554</vAcc></extensions></trkpt>
      <trkpt lon="-4.159439" lat="53.020414"><ele>482.088379</ele><time>2021-07-17T13:08:17Z</time><extensions><speed>0.920601</speed><course>319.975250</course><hAcc>0.890363</hAcc><vAcc>0.720597</vAcc></extensions></trkpt>
      <trkpt lon="-4.159438" lat="53.020423"><ele>481.871521</ele><time>2021-07-17T13:08:18Z</time><extensions><speed>0.916130</speed><course>320.826599</course><hAcc>0.890367</hAcc><vAcc>0.720628</vAcc></extensions></trkpt>
      <trkpt lon="-4.159436" lat="53.020431"><ele>481.652252</ele><time>2021-07-17T13:08:19Z</time><extensions><speed>0.911398</speed><course>320.826599</course><hAcc>0.890366</hAcc><vAcc>0.720645</vAcc></extensions></trkpt>
      <trkpt lon="-4.159434" lat="53.020439"><ele>481.431793</ele><time>2021-07-17T13:08:20Z</time><extensions><speed>0.905785</speed><course>320.826599</course><hAcc>0.890361</hAcc><vAcc>0.720644</vAcc></extensions></trkpt>
      <trkpt lon="-4.159431" lat="53.020447"><ele>481.211060</ele><time>2021-07-17T13:08:21Z</time><extensions><speed>0.899050</speed><course>320.826599</course><hAcc>0.890351</hAcc><vAcc>0.720621</vAcc></extensions></trkpt>
      <trkpt lon="-4.159428" lat="53.020455"><ele>480.989807</ele><time>2021-07-17T13:08:22Z</time><extensions><speed>0.891435</speed><course>320.826599</course><hAcc>0.890339</hAcc><vAcc>0.720574</vAcc></extensions></trkpt>
      <trkpt lon="-4.159425" lat="53.020462"><ele>480.767273</ele><time>2021-07-17T13:08:23Z</time><extensions><speed>0.883022</speed><course>320.826599</course><hAcc>0.890326</hAcc><vAcc>0.720505</vAcc></extensions></trkpt>
      <trkpt lon="-4.159421" lat="53.020470"><ele>480.543396</ele><time>2021-07-17T13:08:24Z</time><extensions><speed>0.873524</speed><course>320.826599</course><hAcc>0.890313</hAcc><vAcc>0.720421</vAcc></extensions></trkpt>
      <trkpt lon="-4.159417" lat="53.020477"><ele>480.318878</ele><time>2021-07-17T13:08:25Z</time><extensions><speed>0.863122</speed><course>320.826599</course><hAcc>0.890302</hAcc><vAcc>0.720334</vAcc></extensions></trkpt>
      <trkpt lon="-4.159414" lat="53.020485"><ele>480.094849</ele><time>2021-07-17T13:08:26Z</time><extensions><speed>0.852135</speed><course>320.826599</course><hAcc>0.890296</hAcc><vAcc>0.720261</vAcc></extensions></trkpt>
      <trkpt lon="-4.159409" lat="53.020492"><ele>479.872681</ele><time>2021-07-17T13:08:27Z</time><extensions><speed>0.840617</speed><course>320.826599</course><hAcc>0.890295</hAcc><vAcc>0.720216</vAcc></extensions></trkpt>
      <trkpt lon="-4.159405" lat="53.020499"><ele>479.654083</ele><time>2021-07-17T13:08:28Z</time><extensions><speed>0.828572</speed><course>320.826599</course><hAcc>0.890302</hAcc><vAcc>0.720212</vAcc></extensions></trkpt>
      <trkpt lon="-4.159402" lat="53.020506"><ele>479.441101</ele><time>2021-07-17T13:08:29Z</time><extensions><speed>0.815532</speed><course>320.826599</course><hAcc>0.890319</hAcc><vAcc>0.720253</vAcc></extensions></trkpt>
      <trkpt lon="-4.159398" lat="53.020513"><ele>479.235687</ele><time>2021-07-17T13:08:30Z</time><extensions><speed>0.800502</speed><course>320.826599</course><hAcc>0.890346</hAcc><vAcc>0.720344</vAcc></extensions></trkpt>
      <trkpt lon="-4.159394" lat="53.020520"><ele>479.039154</ele><time>2021-07-17T13:08:31Z</time><extensions><speed>0.783279</speed><course>320.826599</course><hAcc>0.890384</hAcc><vAcc>0.720482</vAcc></extensions></trkpt>
      <trkpt lon="-4.159391" lat="53.020526"><ele>478.852112</ele><time>2021-07-17T13:08:32Z</time><extensions><speed>0.764755</speed><course>320.826599</course><hAcc>0.890431</hAcc><vAcc>0.720662</vAcc></extensions></trkpt>
      <trkpt lon="-4.159388" lat="53.020533"><ele>478.674866</ele><time>2021-07-17T13:08:33Z</time><extensions><speed>0.746342</speed><course>320.826599</course><hAcc>0.890487</hAcc><vAcc>0.720874</vAcc></extensions></trkpt>
      <trkpt lon="-4.159386" lat="53.020539"><ele>478.507812</ele><time>2021-07-17T13:08:34Z</time><extensions><speed>0.730006</speed><course>320.826599</course><hAcc>0.890549</hAcc><vAcc>0.721107</vAcc></extensions></trkpt>
      <trkpt lon="-4.159384" lat="53.020546"><ele>478.351379</ele><time>2021-07-17T13:08:35Z</time><extensions><speed>0.717674</speed><course>320.826599</course><hAcc>0.890615</hAcc><vAcc>0.721354</vAcc></extensions></trkpt>
      <trkpt lon="-4.159383" lat="53.020552"><ele>478.205627</ele><time>2021-07-17T13:08:36Z</time><extensions><speed>0.710683</speed><course>320.826599</course><hAcc>0.890680</hAcc><vAcc>0.721607</vAcc></extensions></trkpt>
      <trkpt lon="-4.159382" lat="53.020559"><ele>478.070038</ele><time>2021-07-17T13:08:37Z</time><extensions><speed>0.709883</speed><course>320.826599</course><hAcc>0.890743</hAcc><vAcc>0.721857</vAcc></extensions></trkpt>
      <trkpt lon="-4.159382" lat="53.020565"><ele>477.943390</ele><time>2021-07-17T13:08:38Z</time><extensions><speed>0.715244</speed><course>320.826599</course><hAcc>0.890800</hAcc><vAcc>0.722090</vAcc></extensions></trkpt>
      <trkpt lon="-4.159382" lat="53.020571"><ele>477.823547</ele><time>2021-07-17T13:08:39Z</time><extensions><speed>0.726068</speed><course>320.826569</course><hAcc>0.890850</hAcc><vAcc>0.722291</vAcc></extensions></trkpt>
      <trkpt lon="-4.159382" lat="53.020578"><ele>477.707794</ele><time>2021-07-17T13:08:40Z</time><extensions><speed>0.741525</speed><course>320.826569</course><hAcc>0.890891</hAcc><vAcc>0.722448</vAcc></extensions></trkpt>
      <trkpt lon="-4.159382" lat="53.020585"><ele>477.593903</ele><time>2021-07-17T13:08:41Z</time><extensions><speed>0.761021</speed><course>320.826569</course><hAcc>0.890924</hAcc><vAcc>0.722550</vAcc></extensions></trkpt>
      <trkpt lon="-4.159382" lat="53.020592"><ele>477.480560</ele><time>2021-07-17T13:08:42Z</time><extensions><speed>0.784210</speed><course>320.826569</course><hAcc>0.890949</hAcc><vAcc>0.722596</vAcc></extensions></trkpt>
      <trkpt lon="-4.159382" lat="53.020599"><ele>477.367188</ele><time>2021-07-17T13:08:43Z</time><extensions><speed>0.810963</speed><course>306.179871</course><hAcc>0.890967</hAcc><vAcc>0.722596</vAcc></extensions></trkpt>
      <trkpt lon="-4.159382" lat="53.020606"><ele>477.253662</ele><time>2021-07-17T13:08:44Z</time><extensions><speed>0.841416</speed><course>252.340622</course><hAcc>0.890977</hAcc><vAcc>0.722566</vAcc></extensions></trkpt>
      <trkpt lon="-4.159383" lat="53.020614"><ele>477.140106</ele><time>2021-07-17T13:08:45Z</time><extensions><speed>0.875630</speed><course>240.417450</course><hAcc>0.890980</hAcc><vAcc>0.722521</vAcc></extensions></trkpt>
      <trkpt lon="-4.159383" lat="53.020622"><ele>477.026764</ele><time>2021-07-17T13:08:46Z</time><extensions><speed>0.913340</speed><course>226.735764</course><hAcc>0.890979</hAcc><vAcc>0.722477</vAcc></extensions></trkpt>
      <trkpt lon="-4.159383" lat="53.020630"><ele>476.913879</ele><time>2021-07-17T13:08:47Z</time><extensions><speed>0.953763</speed><course>213.254318</course><hAcc>0.890973</hAcc><vAcc>0.722444</vAcc></extensions></trkpt>
      <trkpt lon="-4.159384" lat="53.020639"><ele>476.801575</ele><time>2021-07-17T13:08:48Z</time><extensions><speed>0.995723</speed><course>209.983795</course><hAcc>0.890965</hAcc><vAcc>0.722423</vAcc></extensions></trkpt>
      <trkpt lon="-4.159385" lat="53.020648"><ele>476.689911</ele><time>2021-07-17T13:08:49Z</time><extensions><speed>1.037705</speed><course>212.464371</course><hAcc>0.890954</hAcc><vAcc>0.722414</vAcc></extensions></trkpt>
      <trkpt lon="-4.159386" lat="53.020658"><ele>476.578827</ele><time>2021-07-17T13:08:50Z</time><extensions><speed>1.078066</speed><course>212.464355</course><hAcc>0.890943</hAcc><vAcc>0.722411</vAcc></extensions></trkpt>
      <trkpt lon="-4.159387" lat="53.020668"><ele>476.468140</ele><time>2021-07-17T13:08:51Z</time><extensions><speed>1.115250</speed><course>212.464355</course><hAcc>0.890931</hAcc><vAcc>0.722404</vAcc></extensions></trkpt>
      <trkpt lon="-4.159388" lat="53.020678"><ele>476.356934</ele><time>2021-07-17T13:08:52Z</time><extensions><speed>1.148262</speed><course>212.464340</course><hAcc>0.890919</hAcc><vAcc>0.722386</vAcc></extensions></trkpt>
      <trkpt lon="-4.159390" lat="53.020688"><ele>476.242828</ele><time>2021-07-17T13:08:53Z</time><extensions><speed>1.176862</speed><course>212.464325</course><hAcc>0.890905</hAcc><vAcc>0.722353</vAcc></extensions></trkpt>
      <trkpt lon="-4.159392" lat="53.020699"><ele>476.123016</ele><time>2021-07-17T13:08:54Z</time><extensions><speed>1.200676</speed><course>212.464325</course><hAcc>0.890890</hAcc><vAcc>0.722305</vAcc></extensions></trkpt>
      <trkpt lon="-4.159394" lat="53.020710"><ele>475.995667</ele><time>2021-07-17T13:08:55Z</time><extensions><speed>1.218811</speed><course>212.464325</course><hAcc>0.890872</hAcc><vAcc>0.722245</vAcc></extensions></trkpt>
      <trkpt lon="-4.159396" lat="53.020721"><ele>475.860229</ele><time>2021-07-17T13:08:56Z</time><extensions><speed>1.230513</speed><course>212.464310</course><hAcc>0.890852</hAcc><vAcc>0.722175</vAcc></extensions></trkpt>
      <trkpt lon="-4.159398" lat="53.020732"><ele>475.716248</ele><time>2021-07-17T13:08:57Z</time><extensions><speed>1.235372</speed><course>305.064514</course><hAcc>0.890830</hAcc><vAcc>0.722094</vAcc></extensions></trkpt>
      <trkpt lon="-4.159401" lat="53.020743"><ele>475.563171</ele><time>2021-07-17T13:08:58Z</time><extensions><speed>1.232947</speed><course>295.507660</course><hAcc>0.890807</hAcc><vAcc>0.722005</vAcc></extensions></trkpt>
      <trkpt lon="-4.159403" lat="53.020753"><ele>475.401184</ele><time>2021-07-17T13:08:59Z</time><extensions><speed>1.222794</speed><course>292.618195</course><hAcc>0.890782</hAcc><vAcc>0.721913</vAcc></extensions></trkpt>
      <trkpt lon="-4.159405" lat="53.020764"><ele>475.231262</ele><time>2021-07-17T13:09:00Z</time><extensions><speed>1.204913</speed><course>285.374146</course><hAcc>0.890756</hAcc><vAcc>0.721822</vAcc></extensions></trkpt>
      <trkpt lon="-4.159407" lat="53.020775"><ele>475.054169</ele><time>2021-07-17T13:09:01Z</time><extensions><speed>1.179828</speed><course>282.990997</course><hAcc>0.890730</hAcc><vAcc>0.721738</vAcc></extensions></trkpt>
      <trkpt lon="-4.159409" lat="53.020785"><ele>474.870636</ele><time>2021-07-17T13:09:02Z</time><extensions><speed>1.148171</speed><course>269.408752</course><hAcc>0.890703</hAcc><vAcc>0.721664</vAcc></extensions></trkpt>
      <trkpt lon="-4.159411" lat="53.020795"><ele>474.681885</ele><time>2021-07-17T13:09:03Z</time><extensions><speed>1.110311</speed><course>268.581787</course><hAcc>0.890674</hAcc><vAcc>0.721603</vAcc></extensions></trkpt>
      <trkpt lon="-4.159413" lat="53.020805"><ele>474.489197</ele><time>2021-07-17T13:09:04Z</time><extensions><speed>1.066695</speed><course>262.171875</course><hAcc>0.890642</hAcc><vAcc>0.721552</vAcc></extensions></trkpt>
      <trkpt lon="-4.159414" lat="53.020814"><ele>474.293610</ele><time>2021-07-17T13:09:04Z</time><extensions><speed>1.018252</speed><course>261.539520</course><hAcc>0.890627</hAcc><vAcc>0.721521</vAcc></extensions></trkpt>
      <trkpt lon="-4.159416" lat="53.020823"><ele>474.095032</ele><time>2021-07-17T13:09:05Z</time><extensions><speed>0.965674</speed><course>255.803879</course><hAcc>0.890627</hAcc><vAcc>0.721507</vAcc></extensions></trkpt>
      <trkpt lon="-4.159417" lat="53.020832"><ele>473.894226</ele><time>2021-07-17T13:09:06Z</time><extensions><speed>0.910316</speed><course>247.733398</course><hAcc>0.890625</hAcc><vAcc>0.721492</vAcc></extensions></trkpt>
      <trkpt lon="-4.159418" lat="53.020840"><ele>473.691833</ele><time>2021-07-17T13:09:07Z</time><extensions><speed>0.853719</speed><course>231.932861</course><hAcc>0.890623</hAcc><vAcc>0.721473</vAcc></extensions></trkpt>
      <trkpt lon="-4.159418" lat="53.020847"><ele>473.488678</ele><time>2021-07-17T13:09:08Z</time><extensions><speed>0.797525</speed><course>232.043365</course><hAcc>0.890623</hAcc><vAcc>0.721450</vAcc></extensions></trkpt>
      <trkpt lon="-4.159419" lat="53.020854"><ele>473.285583</ele><time>2021-07-17T13:09:09Z</time><extensions><speed>0.743429</speed><course>225.182800</course><hAcc>0.890625</hAcc><vAcc>0.721422</vAcc></extensions></trkpt>
      <trkpt lon="-4.159418" lat="53.020860"><ele>473.083466</ele><time>2021-07-17T13:09:10Z</time><extensions><speed>0.693487</speed><course>222.937302</course><hAcc>0.890631</hAcc><vAcc>0.721398</vAcc></extensions></trkpt>
      <trkpt lon="-4.159418" lat="53.020866"><ele>472.883148</ele><time>2021-07-17T13:09:11Z</time><extensions><speed>0.649983</speed><course>226.615036</course><hAcc>0.890642</hAcc><vAcc>0.721388</vAcc></extensions></trkpt>
      <trkpt lon="-4.159417" lat="53.020872"><ele>472.685242</ele><time>2021-07-17T13:09:12Z</time><extensions><speed>0.614598</speed><course>227.377960</course><hAcc>0.890660</hAcc><vAcc>0.721403</vAcc></extensions></trkpt>
      <trkpt lon="-4.159416" lat="53.020877"><ele>472.490021</ele><time>2021-07-17T13:09:13Z</time><extensions><speed>0.588659</speed><course>225.027542</course><hAcc>0.890685</hAcc><vAcc>0.721452</vAcc></extensions></trkpt>
      <trkpt lon="-4.159414" lat="53.020883"><ele>472.297089</ele><time>2021-07-17T13:09:14Z</time><extensions><speed>0.572732</speed><course>217.523773</course><hAcc>0.890717</hAcc><vAcc>0.721543</vAcc></extensions></trkpt>
      <trkpt lon="-4.159412" lat="53.020888"><ele>472.105621</ele><time>2021-07-17T13:09:15Z</time><extensions><speed>0.566128</speed><course>217.503448</course><hAcc>0.890757</hAcc><vAcc>0.721676</vAcc></extensions></trkpt>
      <trkpt lon="-4.159410" lat="53.020892"><ele>471.914551</ele><time>2021-07-17T13:09:16Z</time><extensions><speed>0.567134</speed><course>222.947372</course><hAcc>0.890803</hAcc><vAcc>0.721851</vAcc></extensions></trkpt>
      <trkpt lon="-4.159408" lat="53.020897"><ele>471.722900</ele><time>2021-07-17T13:09:17Z</time><extensions><speed>0.573660</speed><course>228.737518</course><hAcc>0.890854</hAcc><vAcc>0.722057</vAcc></extensions></trkpt>
      <trkpt lon="-4.159405" lat="53.020902"><ele>471.529968</ele><time>2021-07-17T13:09:18Z</time><extensions><speed>0.583579</speed><course>234.887939</course><hAcc>0.890909</hAcc><vAcc>0.722282</vAcc></extensions></trkpt>
      <trkpt lon="-4.159403" lat="53.020907"><ele>471.335144</ele><time>2021-07-17T13:09:19Z</time><extensions><speed>0.596194</speed><course>232.671463</course><hAcc>0.890966</hAcc><vAcc>0.722511</vAcc></extensions></trkpt>
      <trkpt lon="-4.159401" lat="53.020913"><ele>471.137695</ele><time>2021-07-17T13:09:20Z</time><extensions><speed>0.612373</speed><course>228.680756</course><hAcc>0.891021</hAcc><vAcc>0.722732</vAcc></extensions></trkpt>
      <trkpt lon="-4.159399" lat="53.020918"><ele>470.936401</ele><time>2021-07-17T13:09:21Z</time><extensions><speed>0.632780</speed><course>228.367065</course><hAcc>0.891071</hAcc><vAcc>0.722935</vAcc></extensions></trkpt>
      <trkpt lon="-4.159398" lat="53.020924"><ele>470.729584</ele><time>2021-07-17T13:09:22Z</time><extensions><speed>0.657566</speed><course>227.760208</course><hAcc>0.891115</hAcc><vAcc>0.723111</vAcc></extensions></trkpt>
      <trkpt lon="-4.159397" lat="53.020930"><ele>470.515533</ele><time>2021-07-17T13:09:23Z</time><extensions><speed>0.685701</speed><course>230.377014</course><hAcc>0.891152</hAcc><vAcc>0.723250</vAcc></extensions></trkpt>
      <trkpt lon="-4.159396" lat="53.020936"><ele>470.292847</ele><time>2021-07-17T13:09:24Z</time><extensions><speed>0.715117</speed><course>236.559235</course><hAcc>0.891179</hAcc><vAcc>0.723343</vAcc></extensions></trkpt>
      <trkpt lon="-4.159396" lat="53.020943"><ele>470.060883</ele><time>2021-07-17T13:09:25Z</time><extensions><speed>0.743696</speed><course>232.877869</course><hAcc>0.891199</hAcc><vAcc>0.723390</vAcc></extensions></trkpt>
      <trkpt lon="-4.159395" lat="53.020950"><ele>469.819794</ele><time>2021-07-17T13:09:26Z</time><extensions><speed>0.769830</speed><course>233.901962</course><hAcc>0.891211</hAcc><vAcc>0.723390</vAcc></extensions></trkpt>
      <trkpt lon="-4.159395" lat="53.020957"><ele>469.570038</ele><time>2021-07-17T13:09:27Z</time><extensions><speed>0.792775</speed><course>234.840546</course><hAcc>0.891216</hAcc><vAcc>0.723355</vAcc></extensions></trkpt>
      <trkpt lon="-4.159394" lat="53.020964"><ele>469.311920</ele><time>2021-07-17T13:09:28Z</time><extensions><speed>0.812117</speed><course>231.563858</course><hAcc>0.891218</hAcc><vAcc>0.723299</vAcc></extensions></trkpt>
      <trkpt lon="-4.159394" lat="53.020971"><ele>469.045929</ele><time>2021-07-17T13:09:29Z</time><extensions><speed>0.827205</speed><course>226.163422</course><hAcc>0.891216</hAcc><vAcc>0.723237</vAcc></extensions></trkpt>
      <trkpt lon="-4.159394" lat="53.020979"><ele>468.773163</ele><time>2021-07-17T13:09:30Z</time><extensions><speed>0.837535</speed><course>224.694687</course><hAcc>0.891214</hAcc><vAcc>0.723183</vAcc></extensions></trkpt>
      <trkpt lon="-4.159393" lat="53.020986"><ele>468.495361</ele><time>2021-07-17T13:09:31Z</time><extensions><speed>0.842866</speed><course>227.400024</course><hAcc>0.891214</hAcc><vAcc>0.723147</vAcc></extensions></trkpt>
      <trkpt lon="-4.159393" lat="53.020994"><ele>468.214752</ele><time>2021-07-17T13:09:32Z</time><extensions><speed>0.843092</speed><course>225.215622</course><hAcc>0.891219</hAcc><vAcc>0.723135</vAcc></extensions></trkpt>
      <trkpt lon="-4.159393" lat="53.021001"><ele>467.933380</ele><time>2021-07-17T13:09:33Z</time><extensions><speed>0.838619</speed><course>227.979385</course><hAcc>0.891231</hAcc><vAcc>0.723151</vAcc></extensions></trkpt>
      <trkpt lon="-4.159394" lat="53.021009"><ele>467.652618</ele><time>2021-07-17T13:09:34Z</time><extensions><speed>0.830047</speed><course>238.133682</course><hAcc>0.891250</hAcc><vAcc>0.723198</vAcc></extensions></trkpt>
      <trkpt lon="-4.159395" lat="53.021016"><ele>467.373901</ele><time>2021-07-17T13:09:35Z</time><extensions><speed>0.817853</speed><course>235.678314</course><hAcc>0.891278</hAcc><vAcc>0.723278</vAcc></extensions></trkpt>
      <trkpt lon="-4.159397" lat="53.021023"><ele>467.099091</ele><time>2021-07-17T13:09:36Z</time><extensions><speed>0.802533</speed><course>238.960709</course><hAcc>0.891313</hAcc><vAcc>0.723386</vAcc></extensions></trkpt>
      <trkpt lon="-4.159399" lat="53.021030"><ele>466.829712</ele><time>2021-07-17T13:09:38Z</time><extensions><speed>0.784444</speed><course>237.793289</course><hAcc>0.891339</hAcc><vAcc>0.723505</vAcc></extensions></trkpt>
      <trkpt lon="-4.159402" lat="53.021037"><ele>466.568207</ele><time>2021-07-17T13:09:39Z</time><extensions><speed>0.764086</speed><course>238.209671</course><hAcc>0.891353</hAcc><vAcc>0.723625</vAcc></extensions></trkpt>
      <trkpt lon="-4.159406" lat="53.021044"><ele>466.316193</ele><time>2021-07-17T13:09:40Z</time><extensions><speed>0.742130</speed><course>239.435074</course><hAcc>0.891371</hAcc><vAcc>0.723746</vAcc></extensions></trkpt>
      <trkpt lon="-4.159410" lat="53.021050"><ele>466.075073</ele><time>2021-07-17T13:09:41Z</time><extensions><speed>0.719549</speed><course>238.666733</course><hAcc>0.891392</hAcc><vAcc>0.723857</vAcc></extensions></trkpt>
      <trkpt lon="-4.159415" lat="53.021055"><ele>465.845306</ele><time>2021-07-17T13:09:42Z</time><extensions><speed>0.697887</speed><course>234.077820</course><hAcc>0.891413</hAcc><vAcc>0.723950</vAcc></extensions></trkpt>
      <trkpt lon="-4.159421" lat="53.021060"><ele>465.626709</ele><time>2021-07-17T13:09:43Z</time><extensions><speed>0.678992</speed><course>227.293335</course><hAcc>0.891432</hAcc><vAcc>0.724021</vAcc></extensions></trkpt>
      <trkpt lon="-4.159427" lat="53.021065"><ele>465.419586</ele><time>2021-07-17T13:09:44Z</time><extensions><speed>0.664163</speed><course>230.072769</course><hAcc>0.891447</hAcc><vAcc>0.724071</vAcc></extensions></trkpt>
      <trkpt lon="-4.159435" lat="53.021069"><ele>465.224854</ele><time>2021-07-17T13:09:45Z</time><extensions><speed>0.653878</speed><course>228.397232</course><hAcc>0.891457</hAcc><vAcc>0.724100</vAcc></extensions></trkpt>
      <trkpt lon="-4.159443" lat="53.021072"><ele>465.043671</ele><time>2021-07-17T13:09:46Z</time><extensions><speed>0.647438</speed><course>230.234772</course><hAcc>0.891460</hAcc><vAcc>0.724113</vAcc></extensions></trkpt>
      <trkpt lon="-4.159451" lat="53.021075"><ele>464.876740</ele><time>2021-07-17T13:09:47Z</time><extensions><speed>0.643530</speed><course>226.599274</course><hAcc>0.891457</hAcc><vAcc>0.724109</vAcc></extensions></trkpt>
      <trkpt lon="-4.159460" lat="53.021077"><ele>464.724335</ele><time>2021-07-17T13:09:48Z</time><extensions><speed>0.641348</speed><course>226.515137</course><hAcc>0.891447</hAcc><vAcc>0.724085</vAcc></extensions></trkpt>
      <trkpt lon="-4.159469" lat="53.021079"><ele>464.586426</ele><time>2021-07-17T13:09:49Z</time><extensions><speed>0.640319</speed><course>226.136917</course><hAcc>0.891431</hAcc><vAcc>0.724038</vAcc></extensions></trkpt>
      <trkpt lon="-4.159478" lat="53.021081"><ele>464.462738</ele><time>2021-07-17T13:09:50Z</time><extensions><speed>0.639651</speed><course>230.381958</course><hAcc>0.891409</hAcc><vAcc>0.723967</vAcc></extensions></trkpt>
      <trkpt lon="-4.159487" lat="53.021082"><ele>464.352966</ele><time>2021-07-17T13:09:51Z</time><extensions><speed>0.638206</speed><course>226.727509</course><hAcc>0.891382</hAcc><vAcc>0.723872</vAcc></extensions></trkpt>
      <trkpt lon="-4.159497" lat="53.021083"><ele>464.256866</ele><time>2021-07-17T13:09:52Z</time><extensions><speed>0.634602</speed><course>230.180862</course><hAcc>0.891351</hAcc><vAcc>0.723756</vAcc></extensions></trkpt>
      <trkpt lon="-4.159506" lat="53.021083"><ele>464.173431</ele><time>2021-07-17T13:09:53Z</time><extensions><speed>0.628119</speed><course>225.214905</course><hAcc>0.891315</hAcc><vAcc>0.723623</vAcc></extensions></trkpt>
      <trkpt lon="-4.159515" lat="53.021083"><ele>464.101013</ele><time>2021-07-17T13:09:54Z</time><extensions><speed>0.618887</speed><course>228.288971</course><hAcc>0.891274</hAcc><vAcc>0.723478</vAcc></extensions></trkpt>
      <trkpt lon="-4.159524" lat="53.021084"><ele>464.038025</ele><time>2021-07-17T13:09:55Z</time><extensions><speed>0.607325</speed><course>234.392639</course><hAcc>0.891229</hAcc><vAcc>0.723324</vAcc></extensions></trkpt>
      <trkpt lon="-4.159533" lat="53.021084"><ele>463.982788</ele><time>2021-07-17T13:09:56Z</time><extensions><speed>0.593759</speed><course>233.208801</course><hAcc>0.891179</hAcc><vAcc>0.723168</vAcc></extensions></trkpt>
      <trkpt lon="-4.159542" lat="53.021084"><ele>463.933472</ele><time>2021-07-17T13:09:57Z</time><extensions><speed>0.578701</speed><course>238.158752</course><hAcc>0.891124</hAcc><vAcc>0.723009</vAcc></extensions></trkpt>
      <trkpt lon="-4.159550" lat="53.021085"><ele>463.887756</ele><time>2021-07-17T13:09:58Z</time><extensions><speed>0.563883</speed><course>239.142517</course><hAcc>0.891064</hAcc><vAcc>0.722842</vAcc></extensions></trkpt>
      <trkpt lon="-4.159559" lat="53.021086"><ele>463.843231</ele><time>2021-07-17T13:09:59Z</time><extensions><speed>0.552335</speed><course>241.003922</course><hAcc>0.890998</hAcc><vAcc>0.722661</vAcc></extensions></trkpt>
      <trkpt lon="-4.159566" lat="53.021087"><ele>463.797485</ele><time>2021-07-17T13:10:00Z</time><extensions><speed>0.547086</speed><course>244.474228</course><hAcc>0.890927</hAcc><vAcc>0.722460</vAcc></extensions></trkpt>
      <trkpt lon="-4.159574" lat="53.021089"><ele>463.748444</ele><time>2021-07-17T13:10:01Z</time><extensions><speed>0.549982</speed><course>238.879150</course><hAcc>0.890852</hAcc><vAcc>0.722236</vAcc></extensions></trkpt>
      <trkpt lon="-4.159581" lat="53.021091"><ele>463.694397</ele><time>2021-07-17T13:10:02Z</time><extensions><speed>0.561303</speed><course>237.538528</course><hAcc>0.890772</hAcc><vAcc>0.721984</vAcc></extensions></trkpt>
      <trkpt lon="-4.159589" lat="53.021094"><ele>463.634125</ele><time>2021-07-17T13:10:03Z</time><extensions><speed>0.580171</speed><course>249.037552</course><hAcc>0.890690</hAcc><vAcc>0.721703</vAcc></extensions></trkpt>
      <trkpt lon="-4.159596" lat="53.021097"><ele>463.566711</ele><time>2021-07-17T13:10:04Z</time><extensions><speed>0.604695</speed><course>259.361603</course><hAcc>0.890607</hAcc><vAcc>0.721398</vAcc></extensions></trkpt>
      <trkpt lon="-4.159603" lat="53.021101"><ele>463.491760</ele><time>2021-07-17T13:10:05Z</time><extensions><speed>0.631959</speed><course>261.193176</course><hAcc>0.890524</hAcc><vAcc>0.721082</vAcc></extensions></trkpt>
      <trkpt lon="-4.159610" lat="53.021105"><ele>463.409424</ele><time>2021-07-17T13:10:06Z</time><extensions><speed>0.658540</speed><course>261.193146</course><hAcc>0.890444</hAcc><vAcc>0.720772</vAcc></extensions></trkpt>
      <trkpt lon="-4.159616" lat="53.021109"><ele>463.320068</ele><time>2021-07-17T13:10:07Z</time><extensions><speed>0.681318</speed><course>261.193146</course><hAcc>0.890368</hAcc><vAcc>0.720482</vAcc></extensions></trkpt>
      <trkpt lon="-4.159623" lat="53.021114"><ele>463.223724</ele><time>2021-07-17T13:10:08Z</time><extensions><speed>0.697886</speed><course>261.193146</course><hAcc>0.890296</hAcc><vAcc>0.720225</vAcc></extensions></trkpt>
      <trkpt lon="-4.159629" lat="53.021119"><ele>463.119446</ele><time>2021-07-17T13:10:09Z</time><extensions><speed>0.707172</speed><course>261.193146</course><hAcc>0.890232</hAcc><vAcc>0.720006</vAcc></extensions></trkpt>
      <trkpt lon="-4.159635" lat="53.021124"><ele>463.005554</ele><time>2021-07-17T13:10:10Z</time><extensions><speed>0.709863</speed><course>261.193146</course><hAcc>0.890176</hAcc><vAcc>0.719829</vAcc></extensions></trkpt>
      <trkpt lon="-4.159640" lat="53.021130"><ele>462.880585</ele><time>2021-07-17T13:10:11Z</time><extensions><speed>0.707929</speed><course>261.193146</course><hAcc>0.890128</hAcc><vAcc>0.719692</vAcc></extensions></trkpt>
      <trkpt lon="-4.159644" lat="53.021136"><ele>462.744507</ele><time>2021-07-17T13:10:12Z</time><extensions><speed>0.703883</speed><course>261.193146</course><hAcc>0.890088</hAcc><vAcc>0.719592</vAcc></extensions></trkpt>
      <trkpt lon="-4.159648" lat="53.021142"><ele>462.598358</ele><time>2021-07-17T13:10:13Z</time><extensions><speed>0.700246</speed><course>261.193146</course><hAcc>0.890055</hAcc><vAcc>0.719521</vAcc></extensions></trkpt>
      <trkpt lon="-4.159650" lat="53.021148"><ele>462.443817</ele><time>2021-07-17T13:10:14Z</time><extensions><speed>0.699258</speed><course>234.852402</course><hAcc>0.890027</hAcc><vAcc>0.719472</vAcc></extensions></trkpt>
      <trkpt lon="-4.159651" lat="53.021154"><ele>462.282288</ele><time>2021-07-17T13:10:15Z</time><extensions><speed>0.702087</speed><course>215.025620</course><hAcc>0.890002</hAcc><vAcc>0.719434</vAcc></extensions></trkpt>
      <trkpt lon="-4.159651" lat="53.021160"><ele>462.114838</ele><time>2021-07-17T13:10:16Z</time><extensions><speed>0.708574</speed><course>206.872131</course><hAcc>0.889980</hAcc><vAcc>0.719395</vAcc></extensions></trkpt>
      <trkpt lon="-4.159651" lat="53.021167"><ele>461.942413</ele><time>2021-07-17T13:10:17Z</time><extensions><speed>0.717442</speed><course>205.862991</course><hAcc>0.889957</hAcc><vAcc>0.719346</vAcc></extensions></trkpt>
      <trkpt lon="-4.159649" lat="53.021173"><ele>461.765411</ele><time>2021-07-17T13:10:18Z</time><extensions><speed>0.726636</speed><course>205.862976</course><hAcc>0.889935</hAcc><vAcc>0.719283</vAcc></extensions></trkpt>
      <trkpt lon="-4.159647" lat="53.021180"><ele>461.583679</ele><time>2021-07-17T13:10:19Z</time><extensions><speed>0.734000</speed><course>234.677673</course><hAcc>0.889910</hAcc><vAcc>0.719203</vAcc></extensions></trkpt>
      <trkpt lon="-4.159645" lat="53.021186"><ele>461.397186</ele><time>2021-07-17T13:10:20Z</time><extensions><speed>0.737762</speed><course>246.321655</course><hAcc>0.889885</hAcc><vAcc>0.719105</vAcc></extensions></trkpt>
      <trkpt lon="-4.159642" lat="53.021192"><ele>461.206543</ele><time>2021-07-17T13:10:21Z</time><extensions><speed>0.736918</speed><course>256.732239</course><hAcc>0.889859</hAcc><vAcc>0.718992</vAcc></extensions></trkpt>
      <trkpt lon="-4.159639" lat="53.021199"><ele>461.012756</ele><time>2021-07-17T13:10:22Z</time><extensions><speed>0.731585</speed><course>257.461731</course><hAcc>0.889833</hAcc><vAcc>0.718875</vAcc></extensions></trkpt>
      <trkpt lon="-4.159636" lat="53.021205"><ele>460.816772</ele><time>2021-07-17T13:10:23Z</time><extensions><speed>0.723026</speed><course>256.219269</course><hAcc>0.889809</hAcc><vAcc>0.718761</vAcc></extensions></trkpt>
      <trkpt lon="-4.159633" lat="53.021211"><ele>460.619110</ele><time>2021-07-17T13:10:24Z</time><extensions><speed>0.712929</speed><course>253.669510</course><hAcc>0.889787</hAcc><vAcc>0.718663</vAcc></extensions></trkpt>
      <trkpt lon="-4.159630" lat="53.021217"><ele>460.419922</ele><time>2021-07-17T13:10:25Z</time><extensions><speed>0.702465</speed><course>253.907227</course><hAcc>0.889768</hAcc><vAcc>0.718586</vAcc></extensions></trkpt>
      <trkpt lon="-4.159627" lat="53.021223"><ele>460.219452</ele><time>2021-07-17T13:10:26Z</time><extensions><speed>0.692415</speed><course>260.189209</course><hAcc>0.889755</hAcc><vAcc>0.718535</vAcc></extensions></trkpt>
      <trkpt lon="-4.159625" lat="53.021229"><ele>460.017761</ele><time>2021-07-17T13:10:27Z</time><extensions><speed>0.683292</speed><course>263.253174</course><hAcc>0.889747</hAcc><vAcc>0.718512</vAcc></extensions></trkpt>
      <trkpt lon="-4.159624" lat="53.021235"><ele>459.814941</ele><time>2021-07-17T13:10:28Z</time><extensions><speed>0.675306</speed><course>264.349060</course><hAcc>0.889744</hAcc><vAcc>0.718518</vAcc></extensions></trkpt>
      <trkpt lon="-4.159622" lat="53.021241"><ele>459.611176</ele><time>2021-07-17T13:10:29Z</time><extensions><speed>0.668412</speed><course>258.002991</course><hAcc>0.889747</hAcc><vAcc>0.718550</vAcc></extensions></trkpt>
      <trkpt lon="-4.159621" lat="53.021247"><ele>459.405823</ele><time>2021-07-17T13:10:30Z</time><extensions><speed>0.662228</speed><course>264.832825</course><hAcc>0.889754</hAcc><vAcc>0.718602</vAcc></extensions></trkpt>
      <trkpt lon="-4.159619" lat="53.021253"><ele>459.198029</ele><time>2021-07-17T13:10:31Z</time><extensions><speed>0.656238</speed><course>262.654938</course><hAcc>0.889766</hAcc><vAcc>0.718667</vAcc></extensions></trkpt>
      <trkpt lon="-4.159618" lat="53.021259"><ele>458.987457</ele><time>2021-07-17T13:10:32Z</time><extensions><speed>0.650243</speed><course>262.654938</course><hAcc>0.889782</hAcc><vAcc>0.718736</vAcc></extensions></trkpt>
      <trkpt lon="-4.159617" lat="53.021265"><ele>458.774567</ele><time>2021-07-17T13:10:33Z</time><extensions><speed>0.644332</speed><course>262.654938</course><hAcc>0.889801</hAcc><vAcc>0.718803</vAcc></extensions></trkpt>
      <trkpt lon="-4.159616" lat="53.021271"><ele>458.560150</ele><time>2021-07-17T13:10:34Z</time><extensions><speed>0.638664</speed><course>262.654938</course><hAcc>0.889822</hAcc><vAcc>0.718868</vAcc></extensions></trkpt>
      <trkpt lon="-4.159614" lat="53.021276"><ele>458.345306</ele><time>2021-07-17T13:10:35Z</time><extensions><speed>0.633901</speed><course>262.654938</course><hAcc>0.889845</hAcc><vAcc>0.718929</vAcc></extensions></trkpt>
      <trkpt lon="-4.159613" lat="53.021282"><ele>458.130920</ele><time>2021-07-17T13:10:36Z</time><extensions><speed>0.630766</speed><course>262.654938</course><hAcc>0.889868</hAcc><vAcc>0.718991</vAcc></extensions></trkpt>
      <trkpt lon="-4.159611" lat="53.021287"><ele>457.917603</ele><time>2021-07-17T13:10:37Z</time><extensions><speed>0.629232</speed><course>262.654938</course><hAcc>0.889892</hAcc><vAcc>0.719055</vAcc></extensions></trkpt>
      <trkpt lon="-4.159609" lat="53.021293"><ele>457.705597</ele><time>2021-07-17T13:10:38Z</time><extensions><speed>0.628543</speed><course>262.654938</course><hAcc>0.889915</hAcc><vAcc>0.719121</vAcc></extensions></trkpt>
      <trkpt lon="-4.159607" lat="53.021298"><ele>457.494934</ele><time>2021-07-17T13:10:39Z</time><extensions><speed>0.627225</speed><course>262.654938</course><hAcc>0.889936</hAcc><vAcc>0.719191</vAcc></extensions></trkpt>
      <trkpt lon="-4.159605" lat="53.021304"><ele>457.285767</ele><time>2021-07-17T13:10:40Z</time><extensions><speed>0.623885</speed><course>262.654938</course><hAcc>0.889954</hAcc><vAcc>0.719266</vAcc></extensions></trkpt>
      <trkpt lon="-4.159602" lat="53.021309"><ele>457.078522</ele><time>2021-07-17T13:10:41Z</time><extensions><speed>0.618008</speed><course>262.654938</course><hAcc>0.889968</hAcc><vAcc>0.719339</vAcc></extensions></trkpt>
      <trkpt lon="-4.159600" lat="53.021315"><ele>456.873840</ele><time>2021-07-17T13:10:42Z</time><extensions><speed>0.609882</speed><course>262.654938</course><hAcc>0.889976</hAcc><vAcc>0.719402</vAcc></extensions></trkpt>
      <trkpt lon="-4.159598" lat="53.021320"><ele>456.672089</ele><time>2021-07-17T13:10:43Z</time><extensions><speed>0.600373</speed><course>262.654938</course><hAcc>0.889976</hAcc><vAcc>0.719444</vAcc></extensions></trkpt>
      <trkpt lon="-4.159597" lat="53.021325"><ele>456.472992</ele><time>2021-07-17T13:10:44Z</time><extensions><speed>0.590441</speed><course>262.654938</course><hAcc>0.889968</hAcc><vAcc>0.719450</vAcc></extensions></trkpt>
      <trkpt lon="-4.159596" lat="53.021330"><ele>456.276093</ele><time>2021-07-17T13:10:45Z</time><extensions><speed>0.580700</speed><course>262.654938</course><hAcc>0.889950</hAcc><vAcc>0.719408</vAcc></extensions></trkpt>
      <trkpt lon="-4.159594" lat="53.021336"><ele>456.080475</ele><time>2021-07-17T13:10:46Z</time><extensions><speed>0.571663</speed><course>262.654938</course><hAcc>0.889923</hAcc><vAcc>0.719314</vAcc></extensions></trkpt>
      <trkpt lon="-4.159594" lat="53.021341"><ele>455.884827</ele><time>2021-07-17T13:10:47Z</time><extensions><speed>0.563820</speed><course>262.654938</course><hAcc>0.889885</hAcc><vAcc>0.719172</vAcc></extensions></trkpt>
      <trkpt lon="-4.159593" lat="53.021346"><ele>455.688080</ele><time>2021-07-17T13:10:48Z</time><extensions><speed>0.556972</speed><course>262.654938</course><hAcc>0.889837</hAcc><vAcc>0.718988</vAcc></extensions></trkpt>
      <trkpt lon="-4.159592" lat="53.021351"><ele>455.489929</ele><time>2021-07-17T13:10:49Z</time><extensions><speed>0.550702</speed><course>262.654938</course><hAcc>0.889782</hAcc><vAcc>0.718765</vAcc></extensions></trkpt>
      <trkpt lon="-4.159592" lat="53.021355"><ele>455.290253</ele><time>2021-07-17T13:10:50Z</time><extensions><speed>0.545492</speed><course>262.654938</course><hAcc>0.889722</hAcc><vAcc>0.718512</vAcc></extensions></trkpt>
      <trkpt lon="-4.159591" lat="53.021360"><ele>455.088837</ele><time>2021-07-17T13:10:51Z</time><extensions><speed>0.542260</speed><course>262.654938</course><hAcc>0.889642</hAcc><vAcc>0.718221</vAcc></extensions></trkpt>
      <trkpt lon="-4.159590" lat="53.021365"><ele>454.886047</ele><time>2021-07-17T13:10:52Z</time><extensions><speed>0.541908</speed><course>262.654938</course><hAcc>0.889547</hAcc><vAcc>0.717903</vAcc></extensions></trkpt>
      <trkpt lon="-4.159590" lat="53.021370"><ele>454.681854</ele><time>2021-07-17T13:10:53Z</time><extensions><speed>0.545176</speed><course>262.654938</course><hAcc>0.889458</hAcc><vAcc>0.717587</vAcc></extensions></trkpt>
      <trkpt lon="-4.159589" lat="53.021375"><ele>454.476959</ele><time>2021-07-17T13:10:54Z</time><extensions><speed>0.552390</speed><course>262.654938</course><hAcc>0.889376</hAcc><vAcc>0.717292</vAcc></extensions></trkpt>
      <trkpt lon="-4.159588" lat="53.021380"><ele>454.271606</ele><time>2021-07-17T13:10:55Z</time><extensions><speed>0.563673</speed><course>262.654938</course><hAcc>0.889306</hAcc><vAcc>0.717034</vAcc></extensions></trkpt>
      <trkpt lon="-4.159588" lat="53.021385"><ele>454.064789</ele><time>2021-07-17T13:10:56Z</time><extensions><speed>0.578844</speed><course>262.654938</course><hAcc>0.889249</hAcc><vAcc>0.716824</vAcc></extensions></trkpt>
      <trkpt lon="-4.159587" lat="53.021390"><ele>453.854858</ele><time>2021-07-17T13:10:57Z</time><extensions><speed>0.597288</speed><course>262.654938</course><hAcc>0.889208</hAcc><vAcc>0.716671</vAcc></extensions></trkpt>
      <trkpt lon="-4.159587" lat="53.021396"><ele>453.640411</ele><time>2021-07-17T13:10:58Z</time><extensions><speed>0.618461</speed><course>262.654938</course><hAcc>0.889182</hAcc><vAcc>0.716586</vAcc></extensions></trkpt>
      <trkpt lon="-4.159586" lat="53.021402"><ele>453.420502</ele><time>2021-07-17T13:10:59Z</time><extensions><speed>0.642038</speed><course>262.654938</course><hAcc>0.889170</hAcc><vAcc>0.716577</vAcc></extensions></trkpt>
      <trkpt lon="-4.159586" lat="53.021407"><ele>453.194000</ele><time>2021-07-17T13:11:00Z</time><extensions><speed>0.667468</speed><course>262.654938</course><hAcc>0.889172</hAcc><vAcc>0.716639</vAcc></extensions></trkpt>
      <trkpt lon="-4.159585" lat="53.021413"><ele>452.959991</ele><time>2021-07-17T13:11:01Z</time><extensions><speed>0.694166</speed><course>262.654938</course><hAcc>0.889184</hAcc><vAcc>0.716753</vAcc></extensions></trkpt>
      <trkpt lon="-4.159584" lat="53.021420"><ele>452.717651</ele><time>2021-07-17T13:11:02Z</time><extensions><speed>0.721454</speed><course>262.654938</course><hAcc>0.889202</hAcc><vAcc>0.716896</vAcc></extensions></trkpt>
      <trkpt lon="-4.159583" lat="53.021426"><ele>452.466492</ele><time>2021-07-17T13:11:03Z</time><extensions><speed>0.748160</speed><course>262.654938</course><hAcc>0.889223</hAcc><vAcc>0.717046</vAcc></extensions></trkpt>
      <trkpt lon="-4.159582" lat="53.021433"><ele>452.206757</ele><time>2021-07-17T13:11:04Z</time><extensions><speed>0.772614</speed><course>262.654938</course><hAcc>0.889241</hAcc><vAcc>0.717184</vAcc></extensions></trkpt>
      <trkpt lon="-4.159581" lat="53.021440"><ele>451.939270</ele><time>2021-07-17T13:11:05Z</time><extensions><speed>0.793210</speed><course>262.654938</course><hAcc>0.889251</hAcc><vAcc>0.717293</vAcc></extensions></trkpt>
      <trkpt lon="-4.159580" lat="53.021447"><ele>451.665100</ele><time>2021-07-17T13:11:06Z</time><extensions><speed>0.808982</speed><course>262.654938</course><hAcc>0.889251</hAcc><vAcc>0.717356</vAcc></extensions></trkpt>
      <trkpt lon="-4.159578" lat="53.021455"><ele>451.385254</ele><time>2021-07-17T13:11:07Z</time><extensions><speed>0.820069</speed><course>262.654938</course><hAcc>0.889238</hAcc><vAcc>0.717354</vAcc></extensions></trkpt>
      <trkpt lon="-4.159577" lat="53.021462"><ele>451.100311</ele><time>2021-07-17T13:11:08Z</time><extensions><speed>0.827108</speed><course>262.654938</course><hAcc>0.889209</hAcc><vAcc>0.717282</vAcc></extensions></trkpt>
      <trkpt lon="-4.159575" lat="53.021469"><ele>450.810852</ele><time>2021-07-17T13:11:09Z</time><extensions><speed>0.830558</speed><course>262.654938</course><hAcc>0.889164</hAcc><vAcc>0.717142</vAcc></extensions></trkpt>
      <trkpt lon="-4.159573" lat="53.021477"><ele>450.517303</ele><time>2021-07-17T13:11:10Z</time><extensions><speed>0.831165</speed><course>262.654938</course><hAcc>0.889101</hAcc><vAcc>0.716950</vAcc></extensions></trkpt>
      <trkpt lon="-4.159572" lat="53.021484"><ele>450.220612</ele><time>2021-07-17T13:11:10Z</time><extensions><speed>0.829838</speed><course>262.654938</course><hAcc>0.889058</hAcc><vAcc>0.716750</vAcc></extensions></trkpt>
      <trkpt lon="-4.159570" lat="53.021491"><ele>449.919647</ele><time>2021-07-17T13:11:11Z</time><extensions><speed>0.827370</speed><course>262.654938</course><hAcc>0.889036</hAcc><vAcc>0.716559</vAcc></extensions></trkpt>
      <trkpt lon="-4.159568" lat="53.021499"><ele>449.614868</ele><time>2021-07-17T13:11:12Z</time><extensions><speed>0.824406</speed><course>262.654938</course><hAcc>0.889003</hAcc><vAcc>0.716366</vAcc></extensions></trkpt>
      <trkpt lon="-4.159566" lat="53.021506"><ele>449.305328</ele><time>2021-07-17T13:11:13Z</time><extensions><speed>0.821215</speed><course>262.654938</course><hAcc>0.888964</hAcc><vAcc>0.716181</vAcc></extensions></trkpt>
      <trkpt lon="-4.159565" lat="53.021513"><ele>448.989624</ele><time>2021-07-17T13:11:14Z</time><extensions><speed>0.817984</speed><course>262.654938</course><hAcc>0.888925</hAcc><vAcc>0.716010</vAcc></extensions></trkpt>
      <trkpt lon="-4.159563" lat="53.021521"><ele>448.667053</ele><time>2021-07-17T13:11:15Z</time><extensions><speed>0.815130</speed><course>262.654938</course><hAcc>0.888887</hAcc><vAcc>0.715858</vAcc></extensions></trkpt>
      <trkpt lon="-4.159561" lat="53.021528"><ele>448.338043</ele><time>2021-07-17T13:11:16Z</time><extensions><speed>0.812910</speed><course>262.654938</course><hAcc>0.888855</hAcc><vAcc>0.715728</vAcc></extensions></trkpt>
      <trkpt lon="-4.159560" lat="53.021535"><ele>448.003448</ele><time>2021-07-17T13:11:17Z</time><extensions><speed>0.811344</speed><course>262.654938</course><hAcc>0.888830</hAcc><vAcc>0.715627</vAcc></extensions></trkpt>
      <trkpt lon="-4.159558" lat="53.021542"><ele>447.663483</ele><time>2021-07-17T13:11:18Z</time><extensions><speed>0.810188</speed><course>262.654938</course><hAcc>0.888812</hAcc><vAcc>0.715562</vAcc></extensions></trkpt>
      <trkpt lon="-4.159556" lat="53.021550"><ele>447.318298</ele><time>2021-07-17T13:11:19Z</time><extensions><speed>0.809054</speed><course>262.654938</course><hAcc>0.888802</hAcc><vAcc>0.715539</vAcc></extensions></trkpt>
      <trkpt lon="-4.159554" lat="53.021557"><ele>446.968384</ele><time>2021-07-17T13:11:20Z</time><extensions><speed>0.807486</speed><course>262.654938</course><hAcc>0.888801</hAcc><vAcc>0.715554</vAcc></extensions></trkpt>
      <trkpt lon="-4.159552" lat="53.021564"><ele>446.614563</ele><time>2021-07-17T13:11:21Z</time><extensions><speed>0.805197</speed><course>262.654938</course><hAcc>0.888808</hAcc><vAcc>0.715601</vAcc></extensions></trkpt>
      <trkpt lon="-4.159550" lat="53.021571"><ele>446.257690</ele><time>2021-07-17T13:11:22Z</time><extensions><speed>0.801850</speed><course>262.654938</course><hAcc>0.888823</hAcc><vAcc>0.715667</vAcc></extensions></trkpt>
      <trkpt lon="-4.159547" lat="53.021578"><ele>445.899109</ele><time>2021-07-17T13:11:23Z</time><extensions><speed>0.796532</speed><course>262.654938</course><hAcc>0.888847</hAcc><vAcc>0.715745</vAcc></extensions></trkpt>
      <trkpt lon="-4.159545" lat="53.021585"><ele>445.540466</ele><time>2021-07-17T13:11:24Z</time><extensions><speed>0.788608</speed><course>262.654938</course><hAcc>0.888879</hAcc><vAcc>0.715832</vAcc></extensions></trkpt>
      <trkpt lon="-4.159542" lat="53.021592"><ele>445.184052</ele><time>2021-07-17T13:11:25Z</time><extensions><speed>0.777998</speed><course>262.654938</course><hAcc>0.888919</hAcc><vAcc>0.715933</vAcc></extensions></trkpt>
      <trkpt lon="-4.159538" lat="53.021598"><ele>444.832825</ele><time>2021-07-17T13:11:26Z</time><extensions><speed>0.764754</speed><course>262.654938</course><hAcc>0.888967</hAcc><vAcc>0.716058</vAcc></extensions></trkpt>
      <trkpt lon="-4.159535" lat="53.021605"><ele>444.489685</ele><time>2021-07-17T13:11:27Z</time><extensions><speed>0.749597</speed><course>209.646423</course><hAcc>0.889021</hAcc><vAcc>0.716214</vAcc></extensions></trkpt>
      <trkpt lon="-4.159531" lat="53.021611"><ele>444.156616</ele><time>2021-07-17T13:11:28Z</time><extensions><speed>0.733861</speed><course>207.502853</course><hAcc>0.889083</hAcc><vAcc>0.716408</vAcc></extensions></trkpt>
      <trkpt lon="-4.159527" lat="53.021617"><ele>443.834412</ele><time>2021-07-17T13:11:29Z</time><extensions><speed>0.718407</speed><course>210.649872</course><hAcc>0.889151</hAcc><vAcc>0.716641</vAcc></extensions></trkpt>
      <trkpt lon="-4.159523" lat="53.021623"><ele>443.523163</ele><time>2021-07-17T13:11:30Z</time><extensions><speed>0.703185</speed><course>218.307190</course><hAcc>0.889225</hAcc><vAcc>0.716906</vAcc></extensions></trkpt>
      <trkpt lon="-4.159519" lat="53.021629"><ele>443.222504</ele><time>2021-07-17T13:11:31Z</time><extensions><speed>0.687535</speed><course>221.774033</course><hAcc>0.889304</hAcc><vAcc>0.717191</vAcc></extensions></trkpt>
      <trkpt lon="-4.159515" lat="53.021634"><ele>442.931580</ele><time>2021-07-17T13:11:32Z</time><extensions><speed>0.671177</speed><course>225.071381</course><hAcc>0.889387</hAcc><vAcc>0.717483</vAcc></extensions></trkpt>
      <trkpt lon="-4.159511" lat="53.021640"><ele>442.649231</ele><time>2021-07-17T13:11:33Z</time><extensions><speed>0.655104</speed><course>229.682953</course><hAcc>0.889473</hAcc><vAcc>0.717773</vAcc></extensions></trkpt>
      <trkpt lon="-4.159508" lat="53.021645"><ele>442.374268</ele><time>2021-07-17T13:11:34Z</time><extensions><speed>0.640837</speed><course>228.187271</course><hAcc>0.889560</hAcc><vAcc>0.718059</vAcc></extensions></trkpt>
      <trkpt lon="-4.159505" lat="53.021651"><ele>442.105377</ele><time>2021-07-17T13:11:35Z</time><extensions><speed>0.629537</speed><course>224.821243</course><hAcc>0.889647</hAcc><vAcc>0.718337</vAcc></extensions></trkpt>
      <trkpt lon="-4.159502" lat="53.021656"><ele>441.841309</ele><time>2021-07-17T13:11:36Z</time><extensions><speed>0.621629</speed><course>222.757462</course><hAcc>0.889732</hAcc><vAcc>0.718606</vAcc></extensions></trkpt>
      <trkpt lon="-4.159500" lat="53.021661"><ele>441.581543</ele><time>2021-07-17T13:11:37Z</time><extensions><speed>0.616936</speed><course>223.047150</course><hAcc>0.889814</hAcc><vAcc>0.718864</vAcc></extensions></trkpt>
      <trkpt lon="-4.159498" lat="53.021667"><ele>441.325897</ele><time>2021-07-17T13:11:38Z</time><extensions><speed>0.615628</speed><course>218.695862</course><hAcc>0.889891</hAcc><vAcc>0.719112</vAcc></extensions></trkpt>
      <trkpt lon="-4.159497" lat="53.021672"><ele>441.074646</ele><time>2021-07-17T13:11:39Z</time><extensions><speed>0.617783</speed><course>216.351273</course><hAcc>0.889963</hAcc><vAcc>0.719349</vAcc></extensions></trkpt>
      <trkpt lon="-4.159496" lat="53.021678"><ele>440.828308</ele><time>2021-07-17T13:11:40Z</time><extensions><speed>0.622670</speed><course>219.658188</course><hAcc>0.890026</hAcc><vAcc>0.719568</vAcc></extensions></trkpt>
      <trkpt lon="-4.159496" lat="53.021684"><ele>440.587372</ele><time>2021-07-17T13:11:41Z</time><extensions><speed>0.629020</speed><course>221.748871</course><hAcc>0.890081</hAcc><vAcc>0.719765</vAcc></extensions></trkpt>
      <trkpt lon="-4.159497" lat="53.021689"><ele>440.352417</ele><time>2021-07-17T13:11:42Z</time><extensions><speed>0.635225</speed><course>225.723022</course><hAcc>0.890126</hAcc><vAcc>0.719935</vAcc></extensions></trkpt>
      <trkpt lon="-4.159498" lat="53.021695"><ele>440.123962</ele><time>2021-07-17T13:11:43Z</time><extensions><speed>0.639706</speed><course>227.303833</course><hAcc>0.890159</hAcc><vAcc>0.720073</vAcc></extensions></trkpt>
      <trkpt lon="-4.159499" lat="53.021701"><ele>439.902618</ele><time>2021-07-17T13:11:44Z</time><extensions><speed>0.641367</speed><course>225.742310</course><hAcc>0.890180</hAcc><vAcc>0.720170</vAcc></extensions></trkpt>
      <trkpt lon="-4.159501" lat="53.021706"><ele>439.688446</ele><time>2021-07-17T13:11:45Z</time><extensions><speed>0.639791</speed><course>225.742310</course><hAcc>0.890189</hAcc><vAcc>0.720215</vAcc></extensions></trkpt>
      <trkpt lon="-4.159502" lat="53.021712"><ele>439.480957</ele><time>2021-07-17T13:11:46Z</time><extensions><speed>0.635032</speed><course>225.742325</course><hAcc>0.890186</hAcc><vAcc>0.720204</vAcc></extensions></trkpt>
      <trkpt lon="-4.159504" lat="53.021718"><ele>439.279358</ele><time>2021-07-17T13:11:47Z</time><extensions><speed>0.626965</speed><course>225.742325</course><hAcc>0.890174</hAcc><vAcc>0.720139</vAcc></extensions></trkpt>
      <trkpt lon="-4.159506" lat="53.021723"><ele>439.082703</ele><time>2021-07-17T13:11:48Z</time><extensions><speed>0.615492</speed><course>225.742325</course><hAcc>0.890152</hAcc><vAcc>0.720026</vAcc></extensions></trkpt>
      <trkpt lon="-4.159507" lat="53.021728"><ele>438.890045</ele><time>2021-07-17T13:11:49Z</time><extensions><speed>0.601259</speed><course>224.360504</course><hAcc>0.890123</hAcc><vAcc>0.719879</vAcc></extensions></trkpt>
      <trkpt lon="-4.159508" lat="53.021734"><ele>438.700653</ele><time>2021-07-17T13:11:50Z</time><extensions><speed>0.585626</speed><course>231.374908</course><hAcc>0.890090</hAcc><vAcc>0.719712</vAcc></extensions></trkpt>
      <trkpt lon="-4.159508" lat="53.021739"><ele>438.514008</ele><time>2021-07-17T13:11:51Z</time><extensions><speed>0.570429</speed><course>226.234039</course><hAcc>0.890054</hAcc><vAcc>0.719541</vAcc></extensions></trkpt>
      <trkpt lon="-4.159508" lat="53.021744"><ele>438.329529</ele><time>2021-07-17T13:11:52Z</time><extensions><speed>0.557434</speed><course>228.443588</course><hAcc>0.890019</hAcc><vAcc>0.719383</vAcc></extensions></trkpt>
      <trkpt lon="-4.159507" lat="53.021749"><ele>438.146637</ele><time>2021-07-17T13:11:53Z</time><extensions><speed>0.547905</speed><course>217.150848</course><hAcc>0.889987</hAcc><vAcc>0.719252</vAcc></extensions></trkpt>
      <trkpt lon="-4.159506" lat="53.021754"><ele>437.964935</ele><time>2021-07-17T13:11:54Z</time><extensions><speed>0.542586</speed><course>214.670395</course><hAcc>0.889959</hAcc><vAcc>0.719159</vAcc></extensions></trkpt>
      <trkpt lon="-4.159504" lat="53.021759"><ele>437.783966</ele><time>2021-07-17T13:11:55Z</time><extensions><speed>0.541716</speed><course>219.066208</course><hAcc>0.889938</hAcc><vAcc>0.719103</vAcc></extensions></trkpt>
      <trkpt lon="-4.159502" lat="53.021763"><ele>437.603333</ele><time>2021-07-17T13:11:56Z</time><extensions><speed>0.544852</speed><course>218.042282</course><hAcc>0.889923</hAcc><vAcc>0.719080</vAcc></extensions></trkpt>
      <trkpt lon="-4.159500" lat="53.021768"><ele>437.422699</ele><time>2021-07-17T13:11:57Z</time><extensions><speed>0.551279</speed><course>220.994385</course><hAcc>0.889918</hAcc><vAcc>0.719080</vAcc></extensions></trkpt>
      <trkpt lon="-4.159498" lat="53.021773"><ele>437.241791</ele><time>2021-07-17T13:11:58Z</time><extensions><speed>0.560887</speed><course>227.746307</course><hAcc>0.889922</hAcc><vAcc>0.719093</vAcc></extensions></trkpt>
      <trkpt lon="-4.159495" lat="53.021778"><ele>437.060547</ele><time>2021-07-17T13:11:59Z</time><extensions><speed>0.574080</speed><course>224.855316</course><hAcc>0.889936</hAcc><vAcc>0.719117</vAcc></extensions></trkpt>
      <trkpt lon="-4.159493" lat="53.021783"><ele>436.878754</ele><time>2021-07-17T13:12:00Z</time><extensions><speed>0.591410</speed><course>223.584900</course><hAcc>0.889960</hAcc><vAcc>0.719156</vAcc></extensions></trkpt>
      <trkpt lon="-4.159491" lat="53.021788"><ele>436.695984</ele><time>2021-07-17T13:12:01Z</time><extensions><speed>0.613483</speed><course>224.383530</course><hAcc>0.889994</hAcc><vAcc>0.719218</vAcc></extensions></trkpt>
      <trkpt lon="-4.159490" lat="53.021794"><ele>436.511414</ele><time>2021-07-17T13:12:03Z</time><extensions><speed>0.640616</speed><course>225.716217</course><hAcc>0.890020</hAcc><vAcc>0.719297</vAcc></extensions></trkpt>
      <trkpt lon="-4.159488" lat="53.021799"><ele>436.324860</ele><time>2021-07-17T13:12:04Z</time><extensions><speed>0.672508</speed><course>229.189102</course><hAcc>0.890038</hAcc><vAcc>0.719390</vAcc></extensions></trkpt>
      <trkpt lon="-4.159487" lat="53.021806"><ele>436.135895</ele><time>2021-07-17T13:12:05Z</time><extensions><speed>0.708520</speed><course>224.817474</course><hAcc>0.890066</hAcc><vAcc>0.719505</vAcc></extensions></trkpt>
      <trkpt lon="-4.159487" lat="53.021812"><ele>435.944855</ele><time>2021-07-17T13:12:06Z</time><extensions><speed>0.747691</speed><course>225.227936</course><hAcc>0.890103</hAcc><vAcc>0.719635</vAcc></extensions></trkpt>
      <trkpt lon="-4.159487" lat="53.021819"><ele>435.752502</ele><time>2021-07-17T13:12:07Z</time><extensions><speed>0.788850</speed><course>228.251373</course><hAcc>0.890148</hAcc><vAcc>0.719781</vAcc></extensions></trkpt>
      <trkpt lon="-4.159488" lat="53.021826"><ele>435.559998</ele><time>2021-07-17T13:12:08Z</time><extensions><speed>0.830447</speed><course>230.721024</course><hAcc>0.890199</hAcc><vAcc>0.719946</vAcc></extensions></trkpt>
      <trkpt lon="-4.159489" lat="53.021834"><ele>435.368347</ele><time>2021-07-17T13:12:09Z</time><extensions><speed>0.870952</speed><course>234.697540</course><hAcc>0.890254</hAcc><vAcc>0.720133</vAcc></extensions></trkpt>
      <trkpt lon="-4.159490" lat="53.021842"><ele>435.178009</ele><time>2021-07-17T13:12:10Z</time><extensions><speed>0.909086</speed><course>236.619934</course><hAcc>0.890311</hAcc><vAcc>0.720342</vAcc></extensions></trkpt>
      <trkpt lon="-4.159491" lat="53.021850"><ele>434.987976</ele><time>2021-07-17T13:12:11Z</time><extensions><speed>0.943865</speed><course>247.542679</course><hAcc>0.890368</hAcc><vAcc>0.720567</vAcc></extensions></trkpt>
      <trkpt lon="-4.159492" lat="53.021859"><ele>434.795990</ele><time>2021-07-17T13:12:12Z</time><extensions><speed>0.974436</speed><course>242.855072</course><hAcc>0.890422</hAcc><vAcc>0.720798</vAcc></extensions></trkpt>
      <trkpt lon="-4.159493" lat="53.021868"><ele>434.599976</ele><time>2021-07-17T13:12:13Z</time><extensions><speed>1.000101</speed><course>241.397278</course><hAcc>0.890473</hAcc><vAcc>0.721021</vAcc></extensions></trkpt>
      <trkpt lon="-4.159495" lat="53.021877"><ele>434.398285</ele><time>2021-07-17T13:12:14Z</time><extensions><speed>1.020402</speed><course>241.667068</course><hAcc>0.890518</hAcc><vAcc>0.721218</vAcc></extensions></trkpt>
      <trkpt lon="-4.159496" lat="53.021886"><ele>434.189606</ele><time>2021-07-17T13:12:15Z</time><extensions><speed>1.034699</speed><course>241.132874</course><hAcc>0.890557</hAcc><vAcc>0.721374</vAcc></extensions></trkpt>
      <trkpt lon="-4.159497" lat="53.021895"><ele>433.972961</ele><time>2021-07-17T13:12:16Z</time><extensions><speed>1.042527</speed><course>242.509506</course><hAcc>0.890589</hAcc><vAcc>0.721482</vAcc></extensions></trkpt>
      <trkpt lon="-4.159498" lat="53.021905"><ele>433.747650</ele><time>2021-07-17T13:12:17Z</time><extensions><speed>1.043944</speed><course>242.195404</course><hAcc>0.890615</hAcc><vAcc>0.721537</vAcc></extensions></trkpt>
      <trkpt lon="-4.159498" lat="53.021914"><ele>433.513062</ele><time>2021-07-17T13:12:18Z</time><extensions><speed>1.039010</speed><course>244.443573</course><hAcc>0.890636</hAcc><vAcc>0.721550</vAcc></extensions></trkpt>
      <trkpt lon="-4.159499" lat="53.021923"><ele>433.268707</ele><time>2021-07-17T13:12:19Z</time><extensions><speed>1.027717</speed><course>246.780472</course><hAcc>0.890652</hAcc><vAcc>0.721536</vAcc></extensions></trkpt>
      <trkpt lon="-4.159499" lat="53.021932"><ele>433.014587</ele><time>2021-07-17T13:12:20Z</time><extensions><speed>1.009953</speed><course>247.423477</course><hAcc>0.890664</hAcc><vAcc>0.721512</vAcc></extensions></trkpt>
      <trkpt lon="-4.159500" lat="53.021941"><ele>432.750946</ele><time>2021-07-17T13:12:21Z</time><extensions><speed>0.985762</speed><course>252.345490</course><hAcc>0.890674</hAcc><vAcc>0.721497</vAcc></extensions></trkpt>
      <trkpt lon="-4.159500" lat="53.021950"><ele>432.478058</ele><time>2021-07-17T13:12:22Z</time><extensions><speed>0.955965</speed><course>252.366760</course><hAcc>0.890684</hAcc><vAcc>0.721500</vAcc></extensions></trkpt>
      <trkpt lon="-4.159501" lat="53.021958"><ele>432.196808</ele><time>2021-07-17T13:12:23Z</time><extensions><speed>0.922388</speed><course>254.889893</course><hAcc>0.890696</hAcc><vAcc>0.721526</vAcc></extensions></trkpt>
      <trkpt lon="-4.159503" lat="53.021967"><ele>431.909332</ele><time>2021-07-17T13:12:24Z</time><extensions><speed>0.887340</speed><course>257.492432</course><hAcc>0.890710</hAcc><vAcc>0.721574</vAcc></extensions></trkpt>
      <trkpt lon="-4.159505" lat="53.021974"><ele>431.617981</ele><time>2021-07-17T13:12:25Z</time><extensions><speed>0.853020</speed><course>255.728439</course><hAcc>0.890727</hAcc><vAcc>0.721645</vAcc></extensions></trkpt>
      <trkpt lon="-4.159508" lat="53.021982"><ele>431.325104</ele><time>2021-07-17T13:12:26Z</time><extensions><speed>0.821511</speed><course>258.375061</course><hAcc>0.890747</hAcc><vAcc>0.721735</vAcc></extensions></trkpt>
      <trkpt lon="-4.159511" lat="53.021989"><ele>431.033173</ele><time>2021-07-17T13:12:27Z</time><extensions><speed>0.794729</speed><course>260.722260</course><hAcc>0.890768</hAcc><vAcc>0.721837</vAcc></extensions></trkpt>
      <trkpt lon="-4.159515" lat="53.021995"><ele>430.745270</ele><time>2021-07-17T13:12:28Z</time><extensions><speed>0.774176</speed><course>260.722260</course><hAcc>0.890788</hAcc><vAcc>0.721941</vAcc></extensions></trkpt>
      <trkpt lon="-4.159520" lat="53.022001"><ele>430.464691</ele><time>2021-07-17T13:12:29Z</time><extensions><speed>0.760754</speed><course>260.722260</course><hAcc>0.890806</hAcc><vAcc>0.722032</vAcc></extensions></trkpt>
      <trkpt lon="-4.159526" lat="53.022007"><ele>430.194366</ele><time>2021-07-17T13:12:30Z</time><extensions><speed>0.754530</speed><course>260.722260</course><hAcc>0.890821</hAcc><vAcc>0.722100</vAcc></extensions></trkpt>
      <trkpt lon="-4.159533" lat="53.022013"><ele>429.936584</ele><time>2021-07-17T13:12:31Z</time><extensions><speed>0.754697</speed><course>260.722260</course><hAcc>0.890832</hAcc><vAcc>0.722136</vAcc></extensions></trkpt>
      <trkpt lon="-4.159540" lat="53.022018"><ele>429.692932</ele><time>2021-07-17T13:12:32Z</time><extensions><speed>0.759854</speed><course>260.722260</course><hAcc>0.890837</hAcc><vAcc>0.722137</vAcc></extensions></trkpt>
      <trkpt lon="-4.159548" lat="53.022023"><ele>429.464691</ele><time>2021-07-17T13:12:33Z</time><extensions><speed>0.768381</speed><course>260.722260</course><hAcc>0.890835</hAcc><vAcc>0.722105</vAcc></extensions></trkpt>
      <trkpt lon="-4.159556" lat="53.022027"><ele>429.252655</ele><time>2021-07-17T13:12:34Z</time><extensions><speed>0.779130</speed><course>260.722229</course><hAcc>0.890826</hAcc><vAcc>0.722044</vAcc></extensions></trkpt>
      <trkpt lon="-4.159565" lat="53.022032"><ele>429.057068</ele><time>2021-07-17T13:12:35Z</time><extensions><speed>0.791275</speed><course>268.575928</course><hAcc>0.890812</hAcc><vAcc>0.721965</vAcc></extensions></trkpt>
      <trkpt lon="-4.159575" lat="53.022036"><ele>428.877319</ele><time>2021-07-17T13:12:36Z</time><extensions><speed>0.804168</speed><course>268.685822</course><hAcc>0.890793</hAcc><vAcc>0.721880</vAcc></extensions></trkpt>
      <trkpt lon="-4.159585" lat="53.022040"><ele>428.712250</ele><time>2021-07-17T13:12:37Z</time><extensions><speed>0.817213</speed><course>264.169769</course><hAcc>0.890774</hAcc><vAcc>0.721801</vAcc></extensions></trkpt>
      <trkpt lon="-4.159595" lat="53.022045"><ele>428.560760</ele><time>2021-07-17T13:12:38Z</time><extensions><speed>0.829396</speed><course>272.216278</course><hAcc>0.890762</hAcc><vAcc>0.721737</vAcc></extensions></trkpt>
      <trkpt lon="-4.159605" lat="53.022049"><ele>428.422150</ele><time>2021-07-17T13:12:39Z</time><extensions><speed>0.839585</speed><course>279.707916</course><hAcc>0.890767</hAcc><vAcc>0.721696</vAcc></extensions></trkpt>
      <trkpt lon="-4.159615" lat="53.022053"><ele>428.295593</ele><time>2021-07-17T13:12:40Z</time><extensions><speed>0.846679</speed><course>277.974487</course><hAcc>0.890804</hAcc><vAcc>0.721688</vAcc></extensions></trkpt>
      <trkpt lon="-4.159626" lat="53.022058"><ele>428.179779</ele><time>2021-07-17T13:12:41Z</time><extensions><speed>0.850110</speed><course>285.359497</course><hAcc>0.890894</hAcc><vAcc>0.721727</vAcc></extensions></trkpt>
      <trkpt lon="-4.159636" lat="53.022062"><ele>428.073334</ele><time>2021-07-17T13:12:42Z</time><extensions><speed>0.850313</speed><course>288.896698</course><hAcc>0.891063</hAcc><vAcc>0.721838</vAcc></extensions></trkpt>
      <trkpt lon="-4.159646" lat="53.022067"><ele>427.974915</ele><time>2021-07-17T13:12:43Z</time><extensions><speed>0.848004</speed><course>285.949463</course><hAcc>0.891344</hAcc><vAcc>0.722054</vAcc></extensions></trkpt>
      <trkpt lon="-4.159656" lat="53.022072"><ele>427.882507</ele><time>2021-07-17T13:12:44Z</time><extensions><speed>0.843874</speed><course>279.328217</course><hAcc>0.891773</hAcc><vAcc>0.722420</vAcc></extensions></trkpt>
      <trkpt lon="-4.159665" lat="53.022077"><ele>427.793213</ele><time>2021-07-17T13:12:45Z</time><extensions><speed>0.838932</speed><course>280.252258</course><hAcc>0.892392</hAcc><vAcc>0.722983</vAcc></extensions></trkpt>
      <trkpt lon="-4.159674" lat="53.022082"><ele>427.703796</ele><time>2021-07-17T13:12:46Z</time><extensions><speed>0.834190</speed><course>280.968384</course><hAcc>0.893241</hAcc><vAcc>0.723787</vAcc></extensions></trkpt>
      <trkpt lon="-4.159683" lat="53.022087"><ele>427.611450</ele><time>2021-07-17T13:12:47Z</time><extensions><speed>0.830269</speed><course>279.577759</course><hAcc>0.894355</hAcc><vAcc>0.724860</vAcc></extensions></trkpt>
      <trkpt lon="-4.159691" lat="53.022093"><ele>427.514099</ele><time>2021-07-17T13:12:48Z</time><extensions><speed>0.827560</speed><course>280.039124</course><hAcc>0.895754</hAcc><vAcc>0.726205</vAcc></extensions></trkpt>
      <trkpt lon="-4.159699" lat="53.022098"><ele>427.410004</ele><time>2021-07-17T13:12:49Z</time><extensions><speed>0.826504</speed><course>285.588440</course><hAcc>0.897437</hAcc><vAcc>0.727780</vAcc></extensions></trkpt>
      <trkpt lon="-4.159707" lat="53.022104"><ele>427.298096</ele><time>2021-07-17T13:12:50Z</time><extensions><speed>0.827225</speed><course>287.653503</course><hAcc>0.899368</hAcc><vAcc>0.729500</vAcc></extensions></trkpt>
      <trkpt lon="-4.159715" lat="53.022110"><ele>427.177765</ele><time>2021-07-17T13:12:51Z</time><extensions><speed>0.829124</speed><course>285.239563</course><hAcc>0.901464</hAcc><vAcc>0.731232</vAcc></extensions></trkpt>
      <trkpt lon="-4.159722" lat="53.022116"><ele>427.048859</ele><time>2021-07-17T13:12:52Z</time><extensions><speed>0.831381</speed><course>283.468018</course><hAcc>0.903596</hAcc><vAcc>0.732816</vAcc></extensions></trkpt>
      <trkpt lon="-4.159729" lat="53.022122"><ele>426.911285</ele><time>2021-07-17T13:12:53Z</time><extensions><speed>0.833242</speed><course>279.656525</course><hAcc>0.905587</hAcc><vAcc>0.734085</vAcc></extensions></trkpt>
      <trkpt lon="-4.159735" lat="53.022128"><ele>426.764496</ele><time>2021-07-17T13:12:54Z</time><extensions><speed>0.834305</speed><course>278.539093</course><hAcc>0.907237</hAcc><vAcc>0.734909</vAcc></extensions></trkpt>
      <trkpt lon="-4.159742" lat="53.022135"><ele>426.607666</ele><time>2021-07-17T13:12:55Z</time><extensions><speed>0.834578</speed><course>281.435120</course><hAcc>0.908381</hAcc><vAcc>0.735252</vAcc></extensions></trkpt>
      <trkpt lon="-4.159748" lat="53.022141"><ele>426.440796</ele><time>2021-07-17T13:12:56Z</time><extensions><speed>0.833974</speed><course>285.299316</course><hAcc>0.908987</hAcc><vAcc>0.735275</vAcc></extensions></trkpt>
      <trkpt lon="-4.159754" lat="53.022148"><ele>426.264862</ele><time>2021-07-17T13:12:57Z</time><extensions><speed>0.832466</speed><course>278.729095</course><hAcc>0.909324</hAcc><vAcc>0.735471</vAcc></extensions></trkpt>
      <trkpt lon="-4.159760" lat="53.022155"><ele>426.081207</ele><time>2021-07-17T13:12:58Z</time><extensions><speed>0.830319</speed><course>281.499542</course><hAcc>0.910218</hAcc><vAcc>0.736873</vAcc></extensions></trkpt>
      <trkpt lon="-4.159765" lat="53.022161"><ele>425.890656</ele><time>2021-07-17T13:12:59Z</time><extensions><speed>0.827923</speed><course>280.886475</course><hAcc>0.913410</hAcc><vAcc>0.741283</vAcc></extensions></trkpt>
      <trkpt lon="-4.159770" lat="53.022168"><ele>425.693298</ele><time>2021-07-17T13:13:00Z</time><extensions><speed>0.825524</speed><course>287.541565</course><hAcc>0.921985</hAcc><vAcc>0.751504</vAcc></extensions></trkpt>
      <trkpt lon="-4.159775" lat="53.022175"><ele>425.489197</ele><time>2021-07-17T13:13:01Z</time><extensions><speed>0.823177</speed><course>288.221985</course><hAcc>0.940773</hAcc><vAcc>0.771449</vAcc></extensions></trkpt>
      <trkpt lon="-4.159780" lat="53.022182"><ele>425.278992</ele><time>2021-07-17T13:13:02Z</time><extensions><speed>0.820926</speed><course>291.891876</course><hAcc>0.976474</hAcc><vAcc>0.805987</vAcc></extensions></trkpt>
      <trkpt lon="-4.159780" lat="53.022187"><ele>424.946075</ele><time>2021-07-17T13:13:03Z</time><extensions><speed>0.736743</speed><course>207.637573</course><hAcc>0.938025</hAcc><vAcc>0.770082</vAcc></extensions></trkpt>
      <trkpt lon="-4.159779" lat="53.022194"><ele>424.704742</ele><time>2021-07-17T13:13:04Z</time><extensions><speed>0.742327</speed><course>199.781464</course><hAcc>0.918481</hAcc><vAcc>0.749032</vAcc></extensions></trkpt>
      <trkpt lon="-4.159778" lat="53.022200"><ele>424.453461</ele><time>2021-07-17T13:13:05Z</time><extensions><speed>0.752392</speed><course>204.898392</course><hAcc>0.910325</hAcc><vAcc>0.738663</vAcc></extensions></trkpt>
      <trkpt lon="-4.159775" lat="53.022207"><ele>424.191772</ele><time>2021-07-17T13:13:06Z</time><extensions><speed>0.768207</speed><course>218.988647</course><hAcc>0.908051</hAcc><vAcc>0.734623</vAcc></extensions></trkpt>
      <trkpt lon="-4.159772" lat="53.022214"><ele>423.918549</ele><time>2021-07-17T13:13:07Z</time><extensions><speed>0.790067</speed><course>240.875916</course><hAcc>0.908147</hAcc><vAcc>0.733794</vAcc></extensions></trkpt>
      <trkpt lon="-4.159768" lat="53.022220"><ele>423.632294</ele><time>2021-07-17T13:13:08Z</time><extensions><speed>0.816983</speed><course>240.875916</course><hAcc>0.908651</hAcc><vAcc>0.734183</vAcc></extensions></trkpt>
      <trkpt lon="-4.159763" lat="53.022227"><ele>423.332092</ele><time>2021-07-17T13:13:09Z</time><extensions><speed>0.846953</speed><course>240.875916</course><hAcc>0.908652</hAcc><vAcc>0.734655</vAcc></extensions></trkpt>
      <trkpt lon="-4.159757" lat="53.022234"><ele>423.018280</ele><time>2021-07-17T13:13:10Z</time><extensions><speed>0.877812</speed><course>240.875916</course><hAcc>0.907874</hAcc><vAcc>0.734670</vAcc></extensions></trkpt>
      <trkpt lon="-4.159751" lat="53.022241"><ele>422.692444</ele><time>2021-07-17T13:13:11Z</time><extensions><speed>0.907702</speed><course>240.875916</course><hAcc>0.906385</hAcc><vAcc>0.734061</vAcc></extensions></trkpt>
      <trkpt lon="-4.159744" lat="53.022249"><ele>422.357178</ele><time>2021-07-17T13:13:12Z</time><extensions><speed>0.935340</speed><course>240.875916</course><hAcc>0.904399</hAcc><vAcc>0.732875</vAcc></extensions></trkpt>
      <trkpt lon="-4.159737" lat="53.022256"><ele>422.015625</ele><time>2021-07-17T13:13:13Z</time><extensions><speed>0.959845</speed><course>269.430084</course><hAcc>0.902163</hAcc><vAcc>0.731264</vAcc></extensions></trkpt>
      <trkpt lon="-4.159729" lat="53.022263"><ele>421.670929</ele><time>2021-07-17T13:13:14Z</time><extensions><speed>0.980253</speed><course>274.056000</course><hAcc>0.899875</hAcc><vAcc>0.729396</vAcc></extensions></trkpt>
      <trkpt lon="-4.159722" lat="53.022271"><ele>421.326996</ele><time>2021-07-17T13:13:15Z</time><extensions><speed>0.995722</speed><course>273.580658</course><hAcc>0.897703</hAcc><vAcc>0.727442</vAcc></extensions></trkpt>
      <trkpt lon="-4.159715" lat="53.022279"><ele>420.985840</ele><time>2021-07-17T13:13:16Z</time><extensions><speed>1.006129</speed><course>266.285736</course><hAcc>0.895764</hAcc><vAcc>0.725545</vAcc></extensions></trkpt>
      <trkpt lon="-4.159709" lat="53.022287"><ele>420.649078</ele><time>2021-07-17T13:13:16Z</time><extensions><speed>1.012121</speed><course>280.416809</course><hAcc>0.894147</hAcc><vAcc>0.723822</vAcc></extensions></trkpt>
      <trkpt lon="-4.159703" lat="53.022296"><ele>420.314972</ele><time>2021-07-17T13:13:17Z</time><extensions><speed>1.015041</speed><course>289.633057</course><hAcc>0.892858</hAcc><vAcc>0.722325</vAcc></extensions></trkpt>
      <trkpt lon="-4.159697" lat="53.022304"><ele>419.983093</ele><time>2021-07-17T13:13:18Z</time><extensions><speed>1.016388</speed><course>274.042023</course><hAcc>0.891847</hAcc><vAcc>0.721061</vAcc></extensions></trkpt>
      <trkpt lon="-4.159693" lat="53.022313"><ele>419.652435</ele><time>2021-07-17T13:13:19Z</time><extensions><speed>1.017144</speed><course>259.398621</course><hAcc>0.891082</hAcc><vAcc>0.720035</vAcc></extensions></trkpt>
      <trkpt lon="-4.159689" lat="53.022322"><ele>419.322754</ele><time>2021-07-17T13:13:20Z</time><extensions><speed>1.017445</speed><course>235.228027</course><hAcc>0.890526</hAcc><vAcc>0.719237</vAcc></extensions></trkpt>
      <trkpt lon="-4.159686" lat="53.022331"><ele>418.994415</ele><time>2021-07-17T13:13:21Z</time><extensions><speed>1.016783</speed><course>233.943741</course><hAcc>0.890136</hAcc><vAcc>0.718648</vAcc></extensions></trkpt>
      <trkpt lon="-4.159683" lat="53.022340"><ele>418.668030</ele><time>2021-07-17T13:13:22Z</time><extensions><speed>1.014216</speed><course>251.986771</course><hAcc>0.889876</hAcc><vAcc>0.718242</vAcc></extensions></trkpt>
      <trkpt lon="-4.159681" lat="53.022349"><ele>418.344482</ele><time>2021-07-17T13:13:23Z</time><extensions><speed>1.009050</speed><course>230.632401</course><hAcc>0.889712</hAcc><vAcc>0.717991</vAcc></extensions></trkpt>
      <trkpt lon="-4.159680" lat="53.022358"><ele>418.024902</ele><time>2021-07-17T13:13:24Z</time><extensions><speed>1.000907</speed><course>208.539734</course><hAcc>0.889617</hAcc><vAcc>0.717865</vAcc></extensions></trkpt>
      <trkpt lon="-4.159680" lat="53.022367"><ele>417.710510</ele><time>2021-07-17T13:13:25Z</time><extensions><speed>0.989560</speed><course>217.062653</course><hAcc>0.889570</hAcc><vAcc>0.717835</vAcc></extensions></trkpt>
      <trkpt lon="-4.159680" lat="53.022375"><ele>417.402283</ele><time>2021-07-17T13:13:26Z</time><extensions><speed>0.974857</speed><course>216.480164</course><hAcc>0.889554</hAcc><vAcc>0.717873</vAcc></extensions></trkpt>
      <trkpt lon="-4.159680" lat="53.022384"><ele>417.100098</ele><time>2021-07-17T13:13:27Z</time><extensions><speed>0.956651</speed><course>215.204285</course><hAcc>0.889556</hAcc><vAcc>0.717951</vAcc></extensions></trkpt>
      <trkpt lon="-4.159681" lat="53.022393"><ele>416.802887</ele><time>2021-07-17T13:13:28Z</time><extensions><speed>0.934788</speed><course>192.608246</course><hAcc>0.889568</hAcc><vAcc>0.718046</vAcc></extensions></trkpt>
      <trkpt lon="-4.159682" lat="53.022401"><ele>416.509949</ele><time>2021-07-17T13:13:29Z</time><extensions><speed>0.909086</speed><course>196.818375</course><hAcc>0.889585</hAcc><vAcc>0.718137</vAcc></extensions></trkpt>
      <trkpt lon="-4.159684" lat="53.022409"><ele>416.221619</ele><time>2021-07-17T13:13:30Z</time><extensions><speed>0.879554</speed><course>200.564194</course><hAcc>0.889603</hAcc><vAcc>0.718213</vAcc></extensions></trkpt>
      <trkpt lon="-4.159685" lat="53.022417"><ele>415.938812</ele><time>2021-07-17T13:13:31Z</time><extensions><speed>0.846588</speed><course>224.718231</course><hAcc>0.889623</hAcc><vAcc>0.718266</vAcc></extensions></trkpt>
      <trkpt lon="-4.159686" lat="53.022424"><ele>415.662018</ele><time>2021-07-17T13:13:32Z</time><extensions><speed>0.811292</speed><course>228.969803</course><hAcc>0.889645</hAcc><vAcc>0.718301</vAcc></extensions></trkpt>
      <trkpt lon="-4.159687" lat="53.022431"><ele>415.390747</ele><time>2021-07-17T13:13:33Z</time><extensions><speed>0.775289</speed><course>250.366501</course><hAcc>0.889672</hAcc><vAcc>0.718328</vAcc></extensions></trkpt>
      <trkpt lon="-4.159688" lat="53.022438"><ele>415.123810</ele><time>2021-07-17T13:13:34Z</time><extensions><speed>0.739980</speed><course>-1.000000</course><hAcc>0.889708</hAcc><vAcc>0.718366</vAcc></extensions></trkpt>
      <trkpt lon="-4.159688" lat="53.022444"><ele>414.859833</ele><time>2021-07-17T13:13:35Z</time><extensions><speed>0.706438</speed><course>232.063629</course><hAcc>0.889755</hAcc><vAcc>0.718439</vAcc></extensions></trkpt>
      <trkpt lon="-4.159688" lat="53.022451"><ele>414.597778</ele><time>2021-07-17T13:13:36Z</time><extensions><speed>0.675536</speed><course>232.063614</course><hAcc>0.889817</hAcc><vAcc>0.718568</vAcc></extensions></trkpt>
      <trkpt lon="-4.159687" lat="53.022456"><ele>414.337433</ele><time>2021-07-17T13:13:37Z</time><extensions><speed>0.647996</speed><course>232.063614</course><hAcc>0.889896</hAcc><vAcc>0.718771</vAcc></extensions></trkpt>
      <trkpt lon="-4.159686" lat="53.022462"><ele>414.078888</ele><time>2021-07-17T13:13:38Z</time><extensions><speed>0.624164</speed><course>232.063599</course><hAcc>0.889994</hAcc><vAcc>0.719062</vAcc></extensions></trkpt>
      <trkpt lon="-4.159685" lat="53.022468"><ele>413.822327</ele><time>2021-07-17T13:13:39Z</time><extensions><speed>0.604525</speed><course>232.063599</course><hAcc>0.890108</hAcc><vAcc>0.719446</vAcc></extensions></trkpt>
      <trkpt lon="-4.159683" lat="53.022473"><ele>413.568115</ele><time>2021-07-17T13:13:40Z</time><extensions><speed>0.589772</speed><course>232.063583</course><hAcc>0.890237</hAcc><vAcc>0.719919</vAcc></extensions></trkpt>
      <trkpt lon="-4.159680" lat="53.022478"><ele>413.316528</ele><time>2021-07-17T13:13:41Z</time><extensions><speed>0.580174</speed><course>232.063583</course><hAcc>0.890374</hAcc><vAcc>0.720467</vAcc></extensions></trkpt>
      <trkpt lon="-4.159677" lat="53.022483"><ele>413.068237</ele><time>2021-07-17T13:13:42Z</time><extensions><speed>0.575500</speed><course>248.555511</course><hAcc>0.890511</hAcc><vAcc>0.721067</vAcc></extensions></trkpt>
      <trkpt lon="-4.159673" lat="53.022487"><ele>412.823883</ele><time>2021-07-17T13:13:43Z</time><extensions><speed>0.574516</speed><course>214.727661</course><hAcc>0.890642</hAcc><vAcc>0.721683</vAcc></extensions></trkpt>
      <trkpt lon="-4.159669" lat="53.022492"><ele>412.583862</ele><time>2021-07-17T13:13:44Z</time><extensions><speed>0.575681</speed><course>215.656113</course><hAcc>0.890758</hAcc><vAcc>0.722268</vAcc></extensions></trkpt>
      <trkpt lon="-4.159665" lat="53.022496"><ele>412.348358</ele><time>2021-07-17T13:13:45Z</time><extensions><speed>0.577873</speed><course>205.637772</course><hAcc>0.890854</hAcc><vAcc>0.722766</vAcc></extensions></trkpt>
      <trkpt lon="-4.159660" lat="53.022501"><ele>412.117218</ele><time>2021-07-17T13:13:46Z</time><extensions><speed>0.580560</speed><course>201.575424</course><hAcc>0.890925</hAcc><vAcc>0.723125</vAcc></extensions></trkpt>
      <trkpt lon="-4.159655" lat="53.022505"><ele>411.889801</ele><time>2021-07-17T13:13:47Z</time><extensions><speed>0.583627</speed><course>196.854248</course><hAcc>0.890969</hAcc><vAcc>0.723308</vAcc></extensions></trkpt>
      <trkpt lon="-4.159650" lat="53.022509"><ele>411.665192</ele><time>2021-07-17T13:13:48Z</time><extensions><speed>0.586633</speed><course>198.264053</course><hAcc>0.890984</hAcc><vAcc>0.723299</vAcc></extensions></trkpt>
      <trkpt lon="-4.159645" lat="53.022513"><ele>411.442230</ele><time>2021-07-17T13:13:49Z</time><extensions><speed>0.589140</speed><course>198.636932</course><hAcc>0.890971</hAcc><vAcc>0.723114</vAcc></extensions></trkpt>
      <trkpt lon="-4.159639" lat="53.022518"><ele>411.218933</ele><time>2021-07-17T13:13:50Z</time><extensions><speed>0.591202</speed><course>192.727798</course><hAcc>0.890931</hAcc><vAcc>0.722792</vAcc></extensions></trkpt>
      <trkpt lon="-4.159634" lat="53.022522"><ele>410.993622</ele><time>2021-07-17T13:13:51Z</time><extensions><speed>0.592626</speed><course>184.691818</course><hAcc>0.890866</hAcc><vAcc>0.722389</vAcc></extensions></trkpt>
      <trkpt lon="-4.159628" lat="53.022526"><ele>410.765167</ele><time>2021-07-17T13:13:52Z</time><extensions><speed>0.592734</speed><course>177.917740</course><hAcc>0.890780</hAcc><vAcc>0.721953</vAcc></extensions></trkpt>
      <trkpt lon="-4.159622" lat="53.022530"><ele>410.533020</ele><time>2021-07-17T13:13:53Z</time><extensions><speed>0.590466</speed><course>169.935883</course><hAcc>0.890680</hAcc><vAcc>0.721521</vAcc></extensions></trkpt>
      <trkpt lon="-4.159617" lat="53.022534"><ele>410.296143</ele><time>2021-07-17T13:13:54Z</time><extensions><speed>0.584550</speed><course>168.290512</course><hAcc>0.890575</hAcc><vAcc>0.721113</vAcc></extensions></trkpt>
      <trkpt lon="-4.159612" lat="53.022538"><ele>410.052185</ele><time>2021-07-17T13:13:55Z</time><extensions><speed>0.575397</speed><course>175.847488</course><hAcc>0.890470</hAcc><vAcc>0.720738</vAcc></extensions></trkpt>
      <trkpt lon="-4.159607" lat="53.022542"><ele>409.798584</ele><time>2021-07-17T13:13:56Z</time><extensions><speed>0.565212</speed><course>182.489380</course><hAcc>0.890373</hAcc><vAcc>0.720404</vAcc></extensions></trkpt>
      <trkpt lon="-4.159602" lat="53.022547"><ele>409.534271</ele><time>2021-07-17T13:13:57Z</time><extensions><speed>0.556292</speed><course>193.224472</course><hAcc>0.890286</hAcc><vAcc>0.720119</vAcc></extensions></trkpt>
      <trkpt lon="-4.159598" lat="53.022551"><ele>409.259644</ele><time>2021-07-17T13:13:58Z</time><extensions><speed>0.549572</speed><course>210.457108</course><hAcc>0.890213</hAcc><vAcc>0.719888</vAcc></extensions></trkpt>
      <trkpt lon="-4.159594" lat="53.022555"><ele>408.975922</ele><time>2021-07-17T13:13:59Z</time><extensions><speed>0.544599</speed><course>227.054108</course><hAcc>0.890153</hAcc><vAcc>0.719713</vAcc></extensions></trkpt>
      <trkpt lon="-4.159591" lat="53.022560"><ele>408.684845</ele><time>2021-07-17T13:14:00Z</time><extensions><speed>0.540729</speed><course>247.666534</course><hAcc>0.890108</hAcc><vAcc>0.719589</vAcc></extensions></trkpt>
      <trkpt lon="-4.159588" lat="53.022564"><ele>408.388458</ele><time>2021-07-17T13:14:01Z</time><extensions><speed>0.537193</speed><course>261.197876</course><hAcc>0.890076</hAcc><vAcc>0.719507</vAcc></extensions></trkpt>
      <trkpt lon="-4.159585" lat="53.022569"><ele>408.088898</ele><time>2021-07-17T13:14:02Z</time><extensions><speed>0.533527</speed><course>263.217255</course><hAcc>0.890058</hAcc><vAcc>0.719453</vAcc></extensions></trkpt>
      <trkpt lon="-4.159582" lat="53.022573"><ele>407.787994</ele><time>2021-07-17T13:14:04Z</time><extensions><speed>0.530217</speed><course>271.463165</course><hAcc>0.890034</hAcc><vAcc>0.719401</vAcc></extensions></trkpt>
      <trkpt lon="-4.159579" lat="53.022577"><ele>407.487976</ele><time>2021-07-17T13:14:05Z</time><extensions><speed>0.527683</speed><course>281.991608</course><hAcc>0.890001</hAcc><vAcc>0.719345</vAcc></extensions></trkpt>
      <trkpt lon="-4.159576" lat="53.022582"><ele>407.189850</ele><time>2021-07-17T13:14:06Z</time><extensions><speed>0.525653</speed><course>285.895782</course><hAcc>0.889976</hAcc><vAcc>0.719295</vAcc></extensions></trkpt>
      <trkpt lon="-4.159573" lat="53.022586"><ele>406.894409</ele><time>2021-07-17T13:14:07Z</time><extensions><speed>0.523761</speed><course>287.327179</course><hAcc>0.889955</hAcc><vAcc>0.719253</vAcc></extensions></trkpt>
      <trkpt lon="-4.159570" lat="53.022591"><ele>406.602051</ele><time>2021-07-17T13:14:08Z</time><extensions><speed>0.521341</speed><course>297.396240</course><hAcc>0.889937</hAcc><vAcc>0.719214</vAcc></extensions></trkpt>
      <trkpt lon="-4.159567" lat="53.022595"><ele>406.313263</ele><time>2021-07-17T13:14:09Z</time><extensions><speed>0.517949</speed><course>299.473175</course><hAcc>0.889919</hAcc><vAcc>0.719172</vAcc></extensions></trkpt>
      <trkpt lon="-4.159565" lat="53.022599"><ele>406.028809</ele><time>2021-07-17T13:14:10Z</time><extensions><speed>0.513957</speed><course>297.683289</course><hAcc>0.889901</hAcc><vAcc>0.719123</vAcc></extensions></trkpt>
      <trkpt lon="-4.159563" lat="53.022604"><ele>405.749603</ele><time>2021-07-17T13:14:11Z</time><extensions><speed>0.510131</speed><course>292.365356</course><hAcc>0.889884</hAcc><vAcc>0.719068</vAcc></extensions></trkpt>
      <trkpt lon="-4.159561" lat="53.022608"><ele>405.476318</ele><time>2021-07-17T13:14:12Z</time><extensions><speed>0.507147</speed><course>291.092651</course><hAcc>0.889866</hAcc><vAcc>0.719010</vAcc></extensions></trkpt>
      <trkpt lon="-4.159560" lat="53.022613"><ele>405.209351</ele><time>2021-07-17T13:14:13Z</time><extensions><speed>0.505155</speed><course>297.007721</course><hAcc>0.889848</hAcc><vAcc>0.718952</vAcc></extensions></trkpt>
      <trkpt lon="-4.159559" lat="53.022617"><ele>404.948944</ele><time>2021-07-17T13:14:14Z</time><extensions><speed>0.503796</speed><course>291.539093</course><hAcc>0.889832</hAcc><vAcc>0.718894</vAcc></extensions></trkpt>
      <trkpt lon="-4.159559" lat="53.022622"><ele>404.695435</ele><time>2021-07-17T13:14:15Z</time><extensions><speed>0.502638</speed><course>293.314819</course><hAcc>0.889819</hAcc><vAcc>0.718835</vAcc></extensions></trkpt>
      <trkpt lon="-4.159559" lat="53.022626"><ele>404.449585</ele><time>2021-07-17T13:14:16Z</time><extensions><speed>0.501740</speed><course>297.043213</course><hAcc>0.889810</hAcc><vAcc>0.718781</vAcc></extensions></trkpt>
      <trkpt lon="-4.159559" lat="53.022631"><ele>404.212585</ele><time>2021-07-17T13:14:17Z</time><extensions><speed>0.501591</speed><course>301.573547</course><hAcc>0.889806</hAcc><vAcc>0.718741</vAcc></extensions></trkpt>
      <trkpt lon="-4.159561" lat="53.022635"><ele>403.985352</ele><time>2021-07-17T13:14:18Z</time><extensions><speed>0.502371</speed><course>305.542847</course><hAcc>0.889810</hAcc><vAcc>0.718726</vAcc></extensions></trkpt>
      <trkpt lon="-4.159562" lat="53.022640"><ele>403.767792</ele><time>2021-07-17T13:14:19Z</time><extensions><speed>0.503807</speed><course>304.461029</course><hAcc>0.889821</hAcc><vAcc>0.718743</vAcc></extensions></trkpt>
      <trkpt lon="-4.159564" lat="53.022644"><ele>403.559540</ele><time>2021-07-17T13:14:20Z</time><extensions><speed>0.505224</speed><course>304.519958</course><hAcc>0.889841</hAcc><vAcc>0.718795</vAcc></extensions></trkpt>
      <trkpt lon="-4.159567" lat="53.022648"><ele>403.360565</ele><time>2021-07-17T13:14:21Z</time><extensions><speed>0.505557</speed><course>306.835541</course><hAcc>0.889870</hAcc><vAcc>0.718885</vAcc></extensions></trkpt>
      <trkpt lon="-4.159570" lat="53.022652"><ele>403.170532</ele><time>2021-07-17T13:14:22Z</time><extensions><speed>0.504058</speed><course>312.924469</course><hAcc>0.889907</hAcc><vAcc>0.719010</vAcc></extensions></trkpt>
      <trkpt lon="-4.159573" lat="53.022656"><ele>402.988190</ele><time>2021-07-17T13:14:23Z</time><extensions><speed>0.500821</speed><course>313.121582</course><hAcc>0.889952</hAcc><vAcc>0.719168</vAcc></extensions></trkpt>
      <trkpt lon="-4.159576" lat="53.022660"><ele>402.811554</ele><time>2021-07-17T13:14:24Z</time><extensions><speed>0.495882</speed><course>312.363678</course><hAcc>0.890002</hAcc><vAcc>0.719354</vAcc></extensions></trkpt>
      <trkpt lon="-4.159580" lat="53.022664"><ele>402.638580</ele><time>2021-07-17T13:14:25Z</time><extensions><speed>0.488897</speed><course>309.905548</course><hAcc>0.890055</hAcc><vAcc>0.719561</vAcc></extensions></trkpt>
      <trkpt lon="-4.159583" lat="53.022668"><ele>402.467072</ele><time>2021-07-17T13:14:26Z</time><extensions><speed>0.479691</speed><course>308.597687</course><hAcc>0.890107</hAcc><vAcc>0.719777</vAcc></extensions></trkpt>
      <trkpt lon="-4.159586" lat="53.022672"><ele>402.295074</ele><time>2021-07-17T13:14:27Z</time><extensions><speed>0.468753</speed><course>307.103394</course><hAcc>0.890155</hAcc><vAcc>0.719992</vAcc></extensions></trkpt>
      <trkpt lon="-4.159589" lat="53.022676"><ele>402.121307</ele><time>2021-07-17T13:14:28Z</time><extensions><speed>0.457375</speed><course>306.897400</course><hAcc>0.890196</hAcc><vAcc>0.720189</vAcc></extensions></trkpt>
      <trkpt lon="-4.159591" lat="53.022680"><ele>401.945251</ele><time>2021-07-17T13:14:29Z</time><extensions><speed>0.446543</speed><course>302.152618</course><hAcc>0.890226</hAcc><vAcc>0.720353</vAcc></extensions></trkpt>
      <trkpt lon="-4.159593" lat="53.022684"><ele>401.767242</ele><time>2021-07-17T13:14:30Z</time><extensions><speed>0.436675</speed><course>297.726410</course><hAcc>0.890244</hAcc><vAcc>0.720462</vAcc></extensions></trkpt>
      <trkpt lon="-4.159594" lat="53.022687"><ele>401.588196</ele><time>2021-07-17T13:14:31Z</time><extensions><speed>0.428136</speed><course>300.194183</course><hAcc>0.890249</hAcc><vAcc>0.720502</vAcc></extensions></trkpt>
      <trkpt lon="-4.159595" lat="53.022691"><ele>401.409637</ele><time>2021-07-17T13:14:32Z</time><extensions><speed>0.421725</speed><course>297.151825</course><hAcc>0.890241</hAcc><vAcc>0.720466</vAcc></extensions></trkpt>
      <trkpt lon="-4.159595" lat="53.022695"><ele>401.233459</ele><time>2021-07-17T13:14:33Z</time><extensions><speed>0.418425</speed><course>298.399384</course><hAcc>0.890221</hAcc><vAcc>0.720358</vAcc></extensions></trkpt>
      <trkpt lon="-4.159594" lat="53.022699"><ele>401.061401</ele><time>2021-07-17T13:14:34Z</time><extensions><speed>0.418534</speed><course>300.837921</course><hAcc>0.890190</hAcc><vAcc>0.720193</vAcc></extensions></trkpt>
      <trkpt lon="-4.159593" lat="53.022702"><ele>400.894684</ele><time>2021-07-17T13:14:35Z</time><extensions><speed>0.421869</speed><course>299.844330</course><hAcc>0.890152</hAcc><vAcc>0.719989</vAcc></extensions></trkpt>
      <trkpt lon="-4.159591" lat="53.022706"><ele>400.734436</ele><time>2021-07-17T13:14:36Z</time><extensions><speed>0.428176</speed><course>300.001373</course><hAcc>0.890109</hAcc><vAcc>0.719765</vAcc></extensions></trkpt>
      <trkpt lon="-4.159589" lat="53.022710"><ele>400.581238</ele><time>2021-07-17T13:14:37Z</time><extensions><speed>0.436927</speed><course>294.568817</course><hAcc>0.890066</hAcc><vAcc>0.719545</vAcc></extensions></trkpt>
      <trkpt lon="-4.159586" lat="53.022713"><ele>400.434814</ele><time>2021-07-17T13:14:38Z</time><extensions><speed>0.446757</speed><course>300.687103</course><hAcc>0.890025</hAcc><vAcc>0.719349</vAcc></extensions></trkpt>
      <trkpt lon="-4.159582" lat="53.022717"><ele>400.294434</ele><time>2021-07-17T13:14:39Z</time><extensions><speed>0.455734</speed><course>297.691925</course><hAcc>0.889991</hAcc><vAcc>0.719199</vAcc></extensions></trkpt>
      <trkpt lon="-4.159578" lat="53.022720"><ele>400.159149</ele><time>2021-07-17T13:14:40Z</time><extensions><speed>0.461748</speed><course>293.928223</course><hAcc>0.889963</hAcc><vAcc>0.719107</vAcc></extensions></trkpt>
      <trkpt lon="-4.159574" lat="53.022723"><ele>400.027374</ele><time>2021-07-17T13:14:41Z</time><extensions><speed>0.463132</speed><course>297.041656</course><hAcc>0.889943</hAcc><vAcc>0.719077</vAcc></extensions></trkpt>
      <trkpt lon="-4.159570" lat="53.022726"><ele>399.897034</ele><time>2021-07-17T13:14:42Z</time><extensions><speed>0.459022</speed><course>298.722290</course><hAcc>0.889930</hAcc><vAcc>0.719099</vAcc></extensions></trkpt>
      <trkpt lon="-4.159565" lat="53.022729"><ele>399.765442</ele><time>2021-07-17T13:14:43Z</time><extensions><speed>0.449259</speed><course>296.674316</course><hAcc>0.889925</hAcc><vAcc>0.719157</vAcc></extensions></trkpt>
      <trkpt lon="-4.159561" lat="53.022732"><ele>399.629822</ele><time>2021-07-17T13:14:44Z</time><extensions><speed>0.435027</speed><course>301.147156</course><hAcc>0.889924</hAcc><vAcc>0.719226</vAcc></extensions></trkpt>
      <trkpt lon="-4.159557" lat="53.022735"><ele>399.487457</ele><time>2021-07-17T13:14:45Z</time><extensions><speed>0.418798</speed><course>301.618805</course><hAcc>0.889928</hAcc><vAcc>0.719288</vAcc></extensions></trkpt>
      <trkpt lon="-4.159553" lat="53.022738"><ele>399.335968</ele><time>2021-07-17T13:14:46Z</time><extensions><speed>0.403223</speed><course>300.678009</course><hAcc>0.889931</hAcc><vAcc>0.719328</vAcc></extensions></trkpt>
      <trkpt lon="-4.159550" lat="53.022741"><ele>399.174133</ele><time>2021-07-17T13:14:47Z</time><extensions><speed>0.390287</speed><course>306.078644</course><hAcc>0.889934</hAcc><vAcc>0.719343</vAcc></extensions></trkpt>
      <trkpt lon="-4.159547" lat="53.022744"><ele>399.002136</ele><time>2021-07-17T13:14:48Z</time><extensions><speed>0.381038</speed><course>302.099213</course><hAcc>0.889933</hAcc><vAcc>0.719329</vAcc></extensions></trkpt>
      <trkpt lon="-4.159545" lat="53.022747"><ele>398.820892</ele><time>2021-07-17T13:14:49Z</time><extensions><speed>0.375328</speed><course>298.253754</course><hAcc>0.889928</hAcc><vAcc>0.719288</vAcc></extensions></trkpt>
      <trkpt lon="-4.159542" lat="53.022750"><ele>398.631897</ele><time>2021-07-17T13:14:50Z</time><extensions><speed>0.372314</speed><course>299.772583</course><hAcc>0.889918</hAcc><vAcc>0.719226</vAcc></extensions></trkpt>
      <trkpt lon="-4.159540" lat="53.022753"><ele>398.436951</ele><time>2021-07-17T13:14:51Z</time><extensions><speed>0.371634</speed><course>299.946075</course><hAcc>0.889903</hAcc><vAcc>0.719150</vAcc></extensions></trkpt>
      <trkpt lon="-4.159538" lat="53.022757"><ele>398.237732</ele><time>2021-07-17T13:14:52Z</time><extensions><speed>0.373493</speed><course>303.968170</course><hAcc>0.889883</hAcc><vAcc>0.719069</vAcc></extensions></trkpt>
      <trkpt lon="-4.159535" lat="53.022760"><ele>398.035553</ele><time>2021-07-17T13:14:53Z</time><extensions><speed>0.378030</speed><course>302.223755</course><hAcc>0.889860</hAcc><vAcc>0.718989</vAcc></extensions></trkpt>
      <trkpt lon="-4.159533" lat="53.022763"><ele>397.831390</ele><time>2021-07-17T13:14:54Z</time><extensions><speed>0.384899</speed><course>303.590851</course><hAcc>0.889833</hAcc><vAcc>0.718910</vAcc></extensions></trkpt>
      <trkpt lon="-4.159531" lat="53.022766"><ele>397.626312</ele><time>2021-07-17T13:14:55Z</time><extensions><speed>0.393588</speed><course>302.656281</course><hAcc>0.889806</hAcc><vAcc>0.718828</vAcc></extensions></trkpt>
      <trkpt lon="-4.159529" lat="53.022769"><ele>397.421326</ele><time>2021-07-17T13:14:56Z</time><extensions><speed>0.403778</speed><course>307.857574</course><hAcc>0.889780</hAcc><vAcc>0.718739</vAcc></extensions></trkpt>
      <trkpt lon="-4.159526" lat="53.022773"><ele>397.217651</ele><time>2021-07-17T13:14:57Z</time><extensions><speed>0.415244</speed><course>306.241272</course><hAcc>0.889755</hAcc><vAcc>0.718642</vAcc></extensions></trkpt>
      <trkpt lon="-4.159523" lat="53.022776"><ele>397.016785</ele><time>2021-07-17T13:14:58Z</time><extensions><speed>0.427603</speed><course>302.560516</course><hAcc>0.889731</hAcc><vAcc>0.718545</vAcc></extensions></trkpt>
      <trkpt lon="-4.159520" lat="53.022779"><ele>396.820282</ele><time>2021-07-17T13:14:59Z</time><extensions><speed>0.440016</speed><course>304.207947</course><hAcc>0.889709</hAcc><vAcc>0.718460</vAcc></extensions></trkpt>
      <trkpt lon="-4.159516" lat="53.022783"><ele>396.629242</ele><time>2021-07-17T13:15:00Z</time><extensions><speed>0.451290</speed><course>304.678192</course><hAcc>0.889688</hAcc><vAcc>0.718393</vAcc></extensions></trkpt>
      <trkpt lon="-4.159512" lat="53.022786"><ele>396.444580</ele><time>2021-07-17T13:15:01Z</time><extensions><speed>0.460729</speed><course>300.816559</course><hAcc>0.889667</hAcc><vAcc>0.718342</vAcc></extensions></trkpt>
      <trkpt lon="-4.159508" lat="53.022789"><ele>396.266815</ele><time>2021-07-17T13:15:02Z</time><extensions><speed>0.468381</speed><course>302.457642</course><hAcc>0.889647</hAcc><vAcc>0.718301</vAcc></extensions></trkpt>
      <trkpt lon="-4.159504" lat="53.022793"><ele>396.095947</ele><time>2021-07-17T13:15:03Z</time><extensions><speed>0.474397</speed><course>303.405792</course><hAcc>0.889627</hAcc><vAcc>0.718263</vAcc></extensions></trkpt>
      <trkpt lon="-4.159500" lat="53.022796"><ele>395.931641</ele><time>2021-07-17T13:15:04Z</time><extensions><speed>0.478924</speed><course>305.179382</course><hAcc>0.889607</hAcc><vAcc>0.718220</vAcc></extensions></trkpt>
      <trkpt lon="-4.159496" lat="53.022800"><ele>395.773132</ele><time>2021-07-17T13:15:05Z</time><extensions><speed>0.482308</speed><course>301.811188</course><hAcc>0.889588</hAcc><vAcc>0.718167</vAcc></extensions></trkpt>
      <trkpt lon="-4.159491" lat="53.022803"><ele>395.619446</ele><time>2021-07-17T13:15:06Z</time><extensions><speed>0.485259</speed><course>294.111877</course><hAcc>0.889571</hAcc><vAcc>0.718104</vAcc></extensions></trkpt>
      <trkpt lon="-4.159487" lat="53.022807"><ele>395.469604</ele><time>2021-07-17T13:15:07Z</time><extensions><speed>0.488464</speed><course>291.186249</course><hAcc>0.889556</hAcc><vAcc>0.718033</vAcc></extensions></trkpt>
      <trkpt lon="-4.159483" lat="53.022810"><ele>395.322968</ele><time>2021-07-17T13:15:08Z</time><extensions><speed>0.492529</speed><course>291.833313</course><hAcc>0.889544</hAcc><vAcc>0.717957</vAcc></extensions></trkpt>
      <trkpt lon="-4.159478" lat="53.022814"><ele>395.179077</ele><time>2021-07-17T13:15:09Z</time><extensions><speed>0.498445</speed><course>293.198639</course><hAcc>0.889538</hAcc><vAcc>0.717886</vAcc></extensions></trkpt>
      <trkpt lon="-4.159474" lat="53.022818"><ele>395.037628</ele><time>2021-07-17T13:15:10Z</time><extensions><speed>0.507519</speed><course>297.953094</course><hAcc>0.889540</hAcc><vAcc>0.717832</vAcc></extensions></trkpt>
      <trkpt lon="-4.159469" lat="53.022821"><ele>394.898254</ele><time>2021-07-17T13:15:11Z</time><extensions><speed>0.521321</speed><course>294.998413</course><hAcc>0.889552</hAcc><vAcc>0.717807</vAcc></extensions></trkpt>
      <trkpt lon="-4.159463" lat="53.022825"><ele>394.760559</ele><time>2021-07-17T13:15:12Z</time><extensions><speed>0.541030</speed><course>290.333923</course><hAcc>0.889575</hAcc><vAcc>0.717825</vAcc></extensions></trkpt>
      <trkpt lon="-4.159457" lat="53.022828"><ele>394.623932</ele><time>2021-07-17T13:15:13Z</time><extensions><speed>0.566768</speed><course>297.336884</course><hAcc>0.889611</hAcc><vAcc>0.717894</vAcc></extensions></trkpt>
      <trkpt lon="-4.159451" lat="53.022831"><ele>394.487640</ele><time>2021-07-17T13:15:14Z</time><extensions><speed>0.598707</speed><course>291.763641</course><hAcc>0.889642</hAcc><vAcc>0.718008</vAcc></extensions></trkpt>
      <trkpt lon="-4.159443" lat="53.022835"><ele>394.351257</ele><time>2021-07-17T13:15:15Z</time><extensions><speed>0.636850</speed><course>293.588959</course><hAcc>0.889665</hAcc><vAcc>0.718165</vAcc></extensions></trkpt>
      <trkpt lon="-4.159435" lat="53.022838"><ele>394.214294</ele><time>2021-07-17T13:15:16Z</time><extensions><speed>0.680788</speed><course>298.534668</course><hAcc>0.889696</hAcc><vAcc>0.718365</vAcc></extensions></trkpt>
      <trkpt lon="-4.159426" lat="53.022841"><ele>394.076416</ele><time>2021-07-17T13:15:17Z</time><extensions><speed>0.729660</speed><course>294.834351</course><hAcc>0.889732</hAcc><vAcc>0.718589</vAcc></extensions></trkpt>
      <trkpt lon="-4.159416" lat="53.022844"><ele>393.937378</ele><time>2021-07-17T13:15:18Z</time><extensions><speed>0.781801</speed><course>297.698059</course><hAcc>0.889768</hAcc><vAcc>0.718818</vAcc></extensions></trkpt>
      <trkpt lon="-4.159404" lat="53.022846"><ele>393.796967</ele><time>2021-07-17T13:15:19Z</time><extensions><speed>0.834070</speed><course>298.511444</course><hAcc>0.889801</hAcc><vAcc>0.719030</vAcc></extensions></trkpt>
      <trkpt lon="-4.159392" lat="53.022849"><ele>393.654999</ele><time>2021-07-17T13:15:20Z</time><extensions><speed>0.882424</speed><course>303.054443</course><hAcc>0.889827</hAcc><vAcc>0.719202</vAcc></extensions></trkpt>
      <trkpt lon="-4.159379" lat="53.022851"><ele>393.511292</ele><time>2021-07-17T13:15:21Z</time><extensions><speed>0.923325</speed><course>300.594757</course><hAcc>0.889842</hAcc><vAcc>0.719320</vAcc></extensions></trkpt>
      <trkpt lon="-4.159366" lat="53.022853"><ele>393.365356</ele><time>2021-07-17T13:15:22Z</time><extensions><speed>0.954030</speed><course>303.489990</course><hAcc>0.889843</hAcc><vAcc>0.719376</vAcc></extensions></trkpt>
      <trkpt lon="-4.159352" lat="53.022854"><ele>393.216522</ele><time>2021-07-17T13:15:22Z</time><extensions><speed>0.972812</speed><course>307.296783</course><hAcc>0.889864</hAcc><vAcc>0.719401</vAcc></extensions></trkpt>
      <trkpt lon="-4.159337" lat="53.022856"><ele>393.062744</ele><time>2021-07-17T13:15:23Z</time><extensions><speed>0.979425</speed><course>306.846466</course><hAcc>0.889905</hAcc><vAcc>0.719408</vAcc></extensions></trkpt>
      <trkpt lon="-4.159323" lat="53.022857"><ele>392.903442</ele><time>2021-07-17T13:15:24Z</time><extensions><speed>0.974371</speed><course>314.303711</course><hAcc>0.889930</hAcc><vAcc>0.719390</vAcc></extensions></trkpt>
      <trkpt lon="-4.159309" lat="53.022859"><ele>392.738312</ele><time>2021-07-17T13:15:25Z</time><extensions><speed>0.958838</speed><course>316.753265</course><hAcc>0.889941</hAcc><vAcc>0.719361</vAcc></extensions></trkpt>
      <trkpt lon="-4.159295" lat="53.022860"><ele>392.567383</ele><time>2021-07-17T13:15:26Z</time><extensions><speed>0.934108</speed><course>312.101562</course><hAcc>0.889941</hAcc><vAcc>0.719328</vAcc></extensions></trkpt>
      <trkpt lon="-4.159281" lat="53.022861"><ele>392.391113</ele><time>2021-07-17T13:15:27Z</time><extensions><speed>0.901853</speed><course>310.983948</course><hAcc>0.889932</hAcc><vAcc>0.719289</vAcc></extensions></trkpt>
      <trkpt lon="-4.159268" lat="53.022862"><ele>392.210327</ele><time>2021-07-17T13:15:28Z</time><extensions><speed>0.863948</speed><course>316.824890</course><hAcc>0.889916</hAcc><vAcc>0.719239</vAcc></extensions></trkpt>
      <trkpt lon="-4.159256" lat="53.022864"><ele>392.026520</ele><time>2021-07-17T13:15:29Z</time><extensions><speed>0.821910</speed><course>324.005005</course><hAcc>0.889896</hAcc><vAcc>0.719175</vAcc></extensions></trkpt>
      <trkpt lon="-4.159244" lat="53.022865"><ele>391.841492</ele><time>2021-07-17T13:15:30Z</time><extensions><speed>0.777153</speed><course>322.091736</course><hAcc>0.889871</hAcc><vAcc>0.719094</vAcc></extensions></trkpt>
      <trkpt lon="-4.159233" lat="53.022866"><ele>391.656586</ele><time>2021-07-17T13:15:31Z</time><extensions><speed>0.730735</speed><course>322.830170</course><hAcc>0.889843</hAcc><vAcc>0.718998</vAcc></extensions></trkpt>
      <trkpt lon="-4.159223" lat="53.022867"><ele>391.472748</ele><time>2021-07-17T13:15:32Z</time><extensions><speed>0.682746</speed><course>325.823517</course><hAcc>0.889813</hAcc><vAcc>0.718890</vAcc></extensions></trkpt>
      <trkpt lon="-4.159213" lat="53.022869"><ele>391.290894</ele><time>2021-07-17T13:15:33Z</time><extensions><speed>0.633017</speed><course>331.853210</course><hAcc>0.889782</hAcc><vAcc>0.718775</vAcc></extensions></trkpt>
      <trkpt lon="-4.159204" lat="53.022870"><ele>391.112091</ele><time>2021-07-17T13:15:34Z</time><extensions><speed>0.582006</speed><course>331.260956</course><hAcc>0.889750</hAcc><vAcc>0.718656</vAcc></extensions></trkpt>
      <trkpt lon="-4.159196" lat="53.022871"><ele>390.937469</ele><time>2021-07-17T13:15:35Z</time><extensions><speed>0.530079</speed><course>329.072571</course><hAcc>0.889720</hAcc><vAcc>0.718538</vAcc></extensions></trkpt>
      <trkpt lon="-4.159189" lat="53.022872"><ele>390.768372</ele><time>2021-07-17T13:15:36Z</time><extensions><speed>0.477246</speed><course>325.473938</course><hAcc>0.889694</hAcc><vAcc>0.718426</vAcc></extensions></trkpt>
      <trkpt lon="-4.159183" lat="53.022874"><ele>390.605988</ele><time>2021-07-17T13:15:37Z</time><extensions><speed>0.423979</speed><course>325.383026</course><hAcc>0.889672</hAcc><vAcc>0.718327</vAcc></extensions></trkpt>
      <trkpt lon="-4.159177" lat="53.022875"><ele>390.451355</ele><time>2021-07-17T13:15:38Z</time><extensions><speed>0.371560</speed><course>325.061401</course><hAcc>0.889657</hAcc><vAcc>0.718250</vAcc></extensions></trkpt>
      <trkpt lon="-4.159172" lat="53.022876"><ele>390.305084</ele><time>2021-07-17T13:15:39Z</time><extensions><speed>0.321401</speed><course>325.207275</course><hAcc>0.889651</hAcc><vAcc>0.718202</vAcc></extensions></trkpt>
      <trkpt lon="-4.159168" lat="53.022877"><ele>390.167694</ele><time>2021-07-17T13:15:40Z</time><extensions><speed>0.274314</speed><course>322.410889</course><hAcc>0.889653</hAcc><vAcc>0.718192</vAcc></extensions></trkpt>
      <trkpt lon="-4.159165" lat="53.022878"><ele>390.039398</ele><time>2021-07-17T13:15:41Z</time><extensions><speed>0.230872</speed><course>319.218658</course><hAcc>0.889664</hAcc><vAcc>0.718225</vAcc></extensions></trkpt>
      <trkpt lon="-4.159162" lat="53.022879"><ele>389.920532</ele><time>2021-07-17T13:15:42Z</time><extensions><speed>0.191650</speed><course>319.790588</course><hAcc>0.889684</hAcc><vAcc>0.718302</vAcc></extensions></trkpt>
      <trkpt lon="-4.159160" lat="53.022880"><ele>389.811249</ele><time>2021-07-17T13:15:43Z</time><extensions><speed>0.157132</speed><course>318.972229</course><hAcc>0.889713</hAcc><vAcc>0.718421</vAcc></extensions></trkpt>
      <trkpt lon="-4.159158" lat="53.022881"><ele>389.711426</ele><time>2021-07-17T13:15:44Z</time><extensions><speed>0.128059</speed><course>320.354065</course><hAcc>0.889749</hAcc><vAcc>0.718571</vAcc></extensions></trkpt>
      <trkpt lon="-4.159157" lat="53.022882"><ele>389.620758</ele><time>2021-07-17T13:15:45Z</time><extensions><speed>0.105412</speed><course>320.541016</course><hAcc>0.889791</hAcc><vAcc>0.718738</vAcc></extensions></trkpt>
      <trkpt lon="-4.159157" lat="53.022882"><ele>389.538605</ele><time>2021-07-17T13:15:46Z</time><extensions><speed>0.090339</speed><course>317.906189</course><hAcc>0.889837</hAcc><vAcc>0.718910</vAcc></extensions></trkpt>
      <trkpt lon="-4.159156" lat="53.022883"><ele>389.464355</ele><time>2021-07-17T13:15:47Z</time><extensions><speed>0.083342</speed><course>316.077393</course><hAcc>0.889883</hAcc><vAcc>0.719082</vAcc></extensions></trkpt>
      <trkpt lon="-4.159156" lat="53.022884"><ele>389.397339</ele><time>2021-07-17T13:15:48Z</time><extensions><speed>0.082869</speed><course>307.356537</course><hAcc>0.889928</hAcc><vAcc>0.719248</vAcc></extensions></trkpt>
      <trkpt lon="-4.159156" lat="53.022885"><ele>389.336853</ele><time>2021-07-17T13:15:49Z</time><extensions><speed>0.085869</speed><course>302.004150</course><hAcc>0.889968</hAcc><vAcc>0.719400</vAcc></extensions></trkpt>
      <trkpt lon="-4.159157" lat="53.022885"><ele>389.281677</ele><time>2021-07-17T13:15:50Z</time><extensions><speed>0.089459</speed><course>310.520874</course><hAcc>0.890000</hAcc><vAcc>0.719532</vAcc></extensions></trkpt>
      <trkpt lon="-4.159157" lat="53.022886"><ele>389.230164</ele><time>2021-07-17T13:15:51Z</time><extensions><speed>0.092237</speed><course>307.778412</course><hAcc>0.890024</hAcc><vAcc>0.719632</vAcc></extensions></trkpt>
      <trkpt lon="-4.159157" lat="53.022887"><ele>389.180939</ele><time>2021-07-17T13:15:52Z</time><extensions><speed>0.094106</speed><course>310.132080</course><hAcc>0.890037</hAcc><vAcc>0.719695</vAcc></extensions></trkpt>
      <trkpt lon="-4.159157" lat="53.022888"><ele>389.133392</ele><time>2021-07-17T13:15:53Z</time><extensions><speed>0.095279</speed><course>310.327301</course><hAcc>0.890039</hAcc><vAcc>0.719716</vAcc></extensions></trkpt>
      <trkpt lon="-4.159157" lat="53.022889"><ele>389.087311</ele><time>2021-07-17T13:15:54Z</time><extensions><speed>0.095571</speed><course>308.925873</course><hAcc>0.890030</hAcc><vAcc>0.719691</vAcc></extensions></trkpt>
      <trkpt lon="-4.159157" lat="53.022890"><ele>389.042816</ele><time>2021-07-17T13:15:55Z</time><extensions><speed>0.094804</speed><course>308.955322</course><hAcc>0.890012</hAcc><vAcc>0.719621</vAcc></extensions></trkpt>
      <trkpt lon="-4.159157" lat="53.022890"><ele>389.000092</ele><time>2021-07-17T13:15:56Z</time><extensions><speed>0.093189</speed><course>303.152588</course><hAcc>0.889986</hAcc><vAcc>0.719509</vAcc></extensions></trkpt>
      <trkpt lon="-4.159157" lat="53.022891"><ele>388.959412</ele><time>2021-07-17T13:15:57Z</time><extensions><speed>0.090972</speed><course>313.156525</course><hAcc>0.889955</hAcc><vAcc>0.719364</vAcc></extensions></trkpt>
      <trkpt lon="-4.159157" lat="53.022892"><ele>388.920868</ele><time>2021-07-17T13:15:58Z</time><extensions><speed>0.088245</speed><course>307.864197</course><hAcc>0.889924</hAcc><vAcc>0.719198</vAcc></extensions></trkpt>
      <trkpt lon="-4.159156" lat="53.022893"><ele>388.884552</ele><time>2021-07-17T13:15:59Z</time><extensions><speed>0.085193</speed><course>309.541687</course><hAcc>0.889897</hAcc><vAcc>0.719031</vAcc></extensions></trkpt>
      <trkpt lon="-4.159156" lat="53.022893"><ele>388.850739</ele><time>2021-07-17T13:16:00Z</time><extensions><speed>0.082187</speed><course>312.130341</course><hAcc>0.889878</hAcc><vAcc>0.718886</vAcc></extensions></trkpt>
      <trkpt lon="-4.159155" lat="53.022894"><ele>388.819611</ele><time>2021-07-17T13:16:01Z</time><extensions><speed>0.079647</speed><course>310.268982</course><hAcc>0.889871</hAcc><vAcc>0.718784</vAcc></extensions></trkpt>
      <trkpt lon="-4.159154" lat="53.022895"><ele>388.791138</ele><time>2021-07-17T13:16:02Z</time><extensions><speed>0.077925</speed><course>308.247070</course><hAcc>0.889880</hAcc><vAcc>0.718742</vAcc></extensions></trkpt>
      <trkpt lon="-4.159153" lat="53.022895"><ele>388.765350</ele><time>2021-07-17T13:16:03Z</time><extensions><speed>0.077195</speed><course>304.229858</course><hAcc>0.889909</hAcc><vAcc>0.718778</vAcc></extensions></trkpt>
      <trkpt lon="-4.159152" lat="53.022895"><ele>388.742126</ele><time>2021-07-17T13:16:04Z</time><extensions><speed>0.077331</speed><course>308.310059</course><hAcc>0.889958</hAcc><vAcc>0.718903</vAcc></extensions></trkpt>
      <trkpt lon="-4.159151" lat="53.022896"><ele>388.721313</ele><time>2021-07-17T13:16:05Z</time><extensions><speed>0.077884</speed><course>311.142822</course><hAcc>0.890029</hAcc><vAcc>0.719118</vAcc></extensions></trkpt>
      <trkpt lon="-4.159150" lat="53.022896"><ele>388.702789</ele><time>2021-07-17T13:16:07Z</time><extensions><speed>0.078208</speed><course>305.518036</course><hAcc>0.890101</hAcc><vAcc>0.719405</vAcc></extensions></trkpt>
      <trkpt lon="-4.159149" lat="53.022896"><ele>388.686523</ele><time>2021-07-17T13:16:08Z</time><extensions><speed>0.077538</speed><course>303.061462</course><hAcc>0.890172</hAcc><vAcc>0.719748</vAcc></extensions></trkpt>
      <trkpt lon="-4.159148" lat="53.022896"><ele>388.672455</ele><time>2021-07-17T13:16:09Z</time><extensions><speed>0.075270</speed><course>298.232086</course><hAcc>0.890253</hAcc><vAcc>0.720134</vAcc></extensions></trkpt>
      <trkpt lon="-4.159147" lat="53.022896"><ele>388.660614</ele><time>2021-07-17T13:16:10Z</time><extensions><speed>0.071186</speed><course>289.358276</course><hAcc>0.890338</hAcc><vAcc>0.720534</vAcc></extensions></trkpt>
      <trkpt lon="-4.159146" lat="53.022896"><ele>388.650970</ele><time>2021-07-17T13:16:11Z</time><extensions><speed>0.065297</speed><course>285.924469</course><hAcc>0.890421</hAcc><vAcc>0.720914</vAcc></extensions></trkpt>
      <trkpt lon="-4.159145" lat="53.022897"><ele>388.643433</ele><time>2021-07-17T13:16:12Z</time><extensions><speed>0.057663</speed><course>280.520447</course><hAcc>0.890494</hAcc><vAcc>0.721245</vAcc></extensions></trkpt>
      <trkpt lon="-4.159144" lat="53.022897"><ele>388.637909</ele><time>2021-07-17T13:16:13Z</time><extensions><speed>0.048585</speed><course>286.862061</course><hAcc>0.890551</hAcc><vAcc>0.721500</vAcc></extensions></trkpt>
      <trkpt lon="-4.159144" lat="53.022897"><ele>388.634277</ele><time>2021-07-17T13:16:14Z</time><extensions><speed>0.038841</speed><course>295.700317</course><hAcc>0.890585</hAcc><vAcc>0.721661</vAcc></extensions></trkpt>
      <trkpt lon="-4.159143" lat="53.022897"><ele>388.632477</ele><time>2021-07-17T13:16:15Z</time><extensions><speed>0.029863</speed><course>296.161560</course><hAcc>0.890593</hAcc><vAcc>0.721714</vAcc></extensions></trkpt>
      <trkpt lon="-4.159143" lat="53.022897"><ele>388.632233</ele><time>2021-07-17T13:16:16Z</time><extensions><speed>0.024517</speed><course>298.229218</course><hAcc>0.890570</hAcc><vAcc>0.721653</vAcc></extensions></trkpt>
      <trkpt lon="-4.159143" lat="53.022897"><ele>388.633240</ele><time>2021-07-17T13:16:17Z</time><extensions><speed>0.026599</speed><course>297.545471</course><hAcc>0.890514</hAcc><vAcc>0.721475</vAcc></extensions></trkpt>
      <trkpt lon="-4.159143" lat="53.022898"><ele>388.635132</ele><time>2021-07-17T13:16:18Z</time><extensions><speed>0.035274</speed><course>292.454163</course><hAcc>0.890427</hAcc><vAcc>0.721180</vAcc></extensions></trkpt>
      <trkpt lon="-4.159143" lat="53.022898"><ele>388.637604</ele><time>2021-07-17T13:16:19Z</time><extensions><speed>0.046487</speed><course>287.195465</course><hAcc>0.890308</hAcc><vAcc>0.720770</vAcc></extensions></trkpt>
      <trkpt lon="-4.159144" lat="53.022898"><ele>388.640411</ele><time>2021-07-17T13:16:20Z</time><extensions><speed>0.057589</speed><course>283.339600</course><hAcc>0.890162</hAcc><vAcc>0.720257</vAcc></extensions></trkpt>
      <trkpt lon="-4.159145" lat="53.022899"><ele>388.643433</ele><time>2021-07-17T13:16:21Z</time><extensions><speed>0.067217</speed><course>283.687531</course><hAcc>0.889992</hAcc><vAcc>0.719654</vAcc></extensions></trkpt>
      <trkpt lon="-4.159145" lat="53.022899"><ele>388.646423</ele><time>2021-07-17T13:16:22Z</time><extensions><speed>0.074830</speed><course>284.089417</course><hAcc>0.889805</hAcc><vAcc>0.718983</vAcc></extensions></trkpt>
      <trkpt lon="-4.159146" lat="53.022899"><ele>388.649231</ele><time>2021-07-17T13:16:23Z</time><extensions><speed>0.080238</speed><course>286.432800</course><hAcc>0.889606</hAcc><vAcc>0.718269</vAcc></extensions></trkpt>
      <trkpt lon="-4.159147" lat="53.022900"><ele>388.651642</ele><time>2021-07-17T13:16:24Z</time><extensions><speed>0.083178</speed><course>288.844025</course><hAcc>0.889402</hAcc><vAcc>0.717539</vAcc></extensions></trkpt>
      <trkpt lon="-4.159149" lat="53.022900"><ele>388.653839</ele><time>2021-07-17T13:16:25Z</time><extensions><speed>0.083463</speed><course>294.600861</course><hAcc>0.889199</hAcc><vAcc>0.716819</vAcc></extensions></trkpt>
      <trkpt lon="-4.159150" lat="53.022900"><ele>388.656067</ele><time>2021-07-17T13:16:26Z</time><extensions><speed>0.081163</speed><course>289.399475</course><hAcc>0.889005</hAcc><vAcc>0.716133</vAcc></extensions></trkpt>
      <trkpt lon="-4.159151" lat="53.022901"><ele>388.658478</ele><time>2021-07-17T13:16:27Z</time><extensions><speed>0.076742</speed><course>292.462738</course><hAcc>0.888826</hAcc><vAcc>0.715503</vAcc></extensions></trkpt>
      <trkpt lon="-4.159152" lat="53.022901"><ele>388.661041</ele><time>2021-07-17T13:16:28Z</time><extensions><speed>0.070822</speed><course>292.044128</course><hAcc>0.888670</hAcc><vAcc>0.714949</vAcc></extensions></trkpt>
      <trkpt lon="-4.159153" lat="53.022901"><ele>388.663635</ele><time>2021-07-17T13:16:29Z</time><extensions><speed>0.064063</speed><course>289.426849</course><hAcc>0.888542</hAcc><vAcc>0.714489</vAcc></extensions></trkpt>
      <trkpt lon="-4.159154" lat="53.022901"><ele>388.665985</ele><time>2021-07-17T13:16:30Z</time><extensions><speed>0.057107</speed><course>292.821838</course><hAcc>0.888446</hAcc><vAcc>0.714137</vAcc></extensions></trkpt>
      <trkpt lon="-4.159154" lat="53.022901"><ele>388.667847</ele><time>2021-07-17T13:16:31Z</time><extensions><speed>0.050488</speed><course>287.405121</course><hAcc>0.888385</hAcc><vAcc>0.713910</vAcc></extensions></trkpt>
      <trkpt lon="-4.159155" lat="53.022901"><ele>388.668884</ele><time>2021-07-17T13:16:32Z</time><extensions><speed>0.044658</speed><course>289.328461</course><hAcc>0.888360</hAcc><vAcc>0.713817</vAcc></extensions></trkpt>
      <trkpt lon="-4.159156" lat="53.022901"><ele>388.668945</ele><time>2021-07-17T13:16:33Z</time><extensions><speed>0.039724</speed><course>290.686554</course><hAcc>0.888372</hAcc><vAcc>0.713865</vAcc></extensions></trkpt>
      <trkpt lon="-4.159156" lat="53.022901"><ele>388.667664</ele><time>2021-07-17T13:16:34Z</time><extensions><speed>0.035318</speed><course>291.519623</course><hAcc>0.888417</hAcc><vAcc>0.714052</vAcc></extensions></trkpt>
      <trkpt lon="-4.159156" lat="53.022900"><ele>388.664673</ele><time>2021-07-17T13:16:35Z</time><extensions><speed>0.030784</speed><course>289.260345</course><hAcc>0.888491</hAcc><vAcc>0.714368</vAcc></extensions></trkpt>
      <trkpt lon="-4.159157" lat="53.022900"><ele>388.659454</ele><time>2021-07-17T13:16:36Z</time><extensions><speed>0.025369</speed><course>291.671295</course><hAcc>0.888589</hAcc><vAcc>0.714789</vAcc></extensions></trkpt>
      <trkpt lon="-4.159157" lat="53.022900"><ele>388.651642</ele><time>2021-07-17T13:16:37Z</time><extensions><speed>0.018925</speed><course>285.797272</course><hAcc>0.888706</hAcc><vAcc>0.715282</vAcc></extensions></trkpt>
      <trkpt lon="-4.159157" lat="53.022900"><ele>388.640778</ele><time>2021-07-17T13:16:38Z</time><extensions><speed>0.013174</speed><course>284.045776</course><hAcc>0.888833</hAcc><vAcc>0.715807</vAcc></extensions></trkpt>
      <trkpt lon="-4.159157" lat="53.022900"><ele>388.626434</ele><time>2021-07-17T13:16:39Z</time><extensions><speed>0.015542</speed><course>290.744446</course><hAcc>0.888966</hAcc><vAcc>0.716325</vAcc></extensions></trkpt>
      <trkpt lon="-4.159158" lat="53.022900"><ele>388.608215</ele><time>2021-07-17T13:16:40Z</time><extensions><speed>0.028962</speed><course>286.155334</course><hAcc>0.889099</hAcc><vAcc>0.716805</vAcc></extensions></trkpt>
      <trkpt lon="-4.159158" lat="53.022900"><ele>388.585846</ele><time>2021-07-17T13:16:41Z</time><extensions><speed>0.048818</speed><course>292.078705</course><hAcc>0.889226</hAcc><vAcc>0.717230</vAcc></extensions></trkpt>
      <trkpt lon="-4.159159" lat="53.022901"><ele>388.558990</ele><time>2021-07-17T13:16:42Z</time><extensions><speed>0.073472</speed><course>292.906311</course><hAcc>0.889344</hAcc><vAcc>0.717591</vAcc></extensions></trkpt>
      <trkpt lon="-4.159159" lat="53.022901"><ele>388.527283</ele><time>2021-07-17T13:16:43Z</time><extensions><speed>0.102266</speed><course>291.462067</course><hAcc>0.889452</hAcc><vAcc>0.717891</vAcc></extensions></trkpt>
      <trkpt lon="-4.159160" lat="53.022902"><ele>388.490417</ele><time>2021-07-17T13:16:44Z</time><extensions><speed>0.134777</speed><course>290.448425</course><hAcc>0.889549</hAcc><vAcc>0.718137</vAcc></extensions></trkpt>
      <trkpt lon="-4.159162" lat="53.022903"><ele>388.448090</ele><time>2021-07-17T13:16:45Z</time><extensions><speed>0.170721</speed><course>295.857269</course><hAcc>0.889636</hAcc><vAcc>0.718344</vAcc></extensions></trkpt>
      <trkpt lon="-4.159164" lat="53.022904"><ele>388.400055</ele><time>2021-07-17T13:16:46Z</time><extensions><speed>0.209674</speed><course>298.185364</course><hAcc>0.889713</hAcc><vAcc>0.718530</vAcc></extensions></trkpt>
      <trkpt lon="-4.159166" lat="53.022906"><ele>388.346283</ele><time>2021-07-17T13:16:47Z</time><extensions><speed>0.251028</speed><course>294.469940</course><hAcc>0.889784</hAcc><vAcc>0.718707</vAcc></extensions></trkpt>
      <trkpt lon="-4.159169" lat="53.022908"><ele>388.286896</ele><time>2021-07-17T13:16:48Z</time><extensions><speed>0.294229</speed><course>292.898438</course><hAcc>0.889849</hAcc><vAcc>0.718887</vAcc></extensions></trkpt>
      <trkpt lon="-4.159172" lat="53.022910"><ele>388.222137</ele><time>2021-07-17T13:16:49Z</time><extensions><speed>0.338990</speed><course>292.422791</course><hAcc>0.889910</hAcc><vAcc>0.719076</vAcc></extensions></trkpt>
      <trkpt lon="-4.159175" lat="53.022913"><ele>388.152344</ele><time>2021-07-17T13:16:50Z</time><extensions><speed>0.385003</speed><course>292.622986</course><hAcc>0.889966</hAcc><vAcc>0.719279</vAcc></extensions></trkpt>
      <trkpt lon="-4.159179" lat="53.022915"><ele>388.078278</ele><time>2021-07-17T13:16:51Z</time><extensions><speed>0.431767</speed><course>292.749084</course><hAcc>0.890018</hAcc><vAcc>0.719494</vAcc></extensions></trkpt>
      <trkpt lon="-4.159183" lat="53.022919"><ele>388.000977</ele><time>2021-07-17T13:16:52Z</time><extensions><speed>0.478777</speed><course>294.832458</course><hAcc>0.890064</hAcc><vAcc>0.719708</vAcc></extensions></trkpt>
      <trkpt lon="-4.159187" lat="53.022922"><ele>387.921143</ele><time>2021-07-17T13:16:53Z</time><extensions><speed>0.525243</speed><course>290.563019</course><hAcc>0.890105</hAcc><vAcc>0.719902</vAcc></extensions></trkpt>
      <trkpt lon="-4.159192" lat="53.022926"><ele>387.838745</ele><time>2021-07-17T13:16:54Z</time><extensions><speed>0.569723</speed><course>288.082062</course><hAcc>0.890138</hAcc><vAcc>0.720055</vAcc></extensions></trkpt>
      <trkpt lon="-4.159197" lat="53.022931"><ele>387.753174</ele><time>2021-07-17T13:16:55Z</time><extensions><speed>0.609985</speed><course>289.238037</course><hAcc>0.890164</hAcc><vAcc>0.720157</vAcc></extensions></trkpt>
      <trkpt lon="-4.159201" lat="53.022936"><ele>387.663513</ele><time>2021-07-17T13:16:56Z</time><extensions><speed>0.645125</speed><course>289.037109</course><hAcc>0.890180</hAcc><vAcc>0.720205</vAcc></extensions></trkpt>
      <trkpt lon="-4.159206" lat="53.022941"><ele>387.568695</ele><time>2021-07-17T13:16:57Z</time><extensions><speed>0.675901</speed><course>291.884949</course><hAcc>0.890187</hAcc><vAcc>0.720203</vAcc></extensions></trkpt>
      <trkpt lon="-4.159211" lat="53.022947"><ele>387.467865</ele><time>2021-07-17T13:16:58Z</time><extensions><speed>0.703160</speed><course>287.567657</course><hAcc>0.890184</hAcc><vAcc>0.720159</vAcc></extensions></trkpt>
      <trkpt lon="-4.159215" lat="53.022952"><ele>387.360107</ele><time>2021-07-17T13:16:59Z</time><extensions><speed>0.728063</speed><course>291.768890</course><hAcc>0.890175</hAcc><vAcc>0.720082</vAcc></extensions></trkpt>
      <trkpt lon="-4.159219" lat="53.022959"><ele>387.244843</ele><time>2021-07-17T13:17:00Z</time><extensions><speed>0.751381</speed><course>296.126740</course><hAcc>0.890160</hAcc><vAcc>0.719983</vAcc></extensions></trkpt>
      <trkpt lon="-4.159222" lat="53.022965"><ele>387.121979</ele><time>2021-07-17T13:17:01Z</time><extensions><speed>0.773085</speed><course>297.059143</course><hAcc>0.890143</hAcc><vAcc>0.719873</vAcc></extensions></trkpt>
      <trkpt lon="-4.159226" lat="53.022972"><ele>386.991882</ele><time>2021-07-17T13:17:02Z</time><extensions><speed>0.793077</speed><course>303.696320</course><hAcc>0.890127</hAcc><vAcc>0.719767</vAcc></extensions></trkpt>
      <trkpt lon="-4.159229" lat="53.022979"><ele>386.855255</ele><time>2021-07-17T13:17:03Z</time><extensions><speed>0.811367</speed><course>307.460022</course><hAcc>0.890115</hAcc><vAcc>0.719679</vAcc></extensions></trkpt>
      <trkpt lon="-4.159232" lat="53.022986"><ele>386.713318</ele><time>2021-07-17T13:17:04Z</time><extensions><speed>0.828046</speed><course>302.094666</course><hAcc>0.890108</hAcc><vAcc>0.719621</vAcc></extensions></trkpt>
      <trkpt lon="-4.159235" lat="53.022993"><ele>386.567688</ele><time>2021-07-17T13:17:05Z</time><extensions><speed>0.843127</speed><course>294.763123</course><hAcc>0.890107</hAcc><vAcc>0.719605</vAcc></extensions></trkpt>
      <trkpt lon="-4.159237" lat="53.023001"><ele>386.419922</ele><time>2021-07-17T13:17:06Z</time><extensions><speed>0.856329</speed><course>292.310913</course><hAcc>0.890113</hAcc><vAcc>0.719633</vAcc></extensions></trkpt>
      <trkpt lon="-4.159240" lat="53.023008"><ele>386.271271</ele><time>2021-07-17T13:17:07Z</time><extensions><speed>0.866910</speed><course>286.252472</course><hAcc>0.890124</hAcc><vAcc>0.719703</vAcc></extensions></trkpt>
      <trkpt lon="-4.159243" lat="53.023016"><ele>386.122772</ele><time>2021-07-17T13:17:08Z</time><extensions><speed>0.873849</speed><course>277.085999</course><hAcc>0.890139</hAcc><vAcc>0.719805</vAcc></extensions></trkpt>
      <trkpt lon="-4.159245" lat="53.023024"><ele>385.975189</ele><time>2021-07-17T13:17:09Z</time><extensions><speed>0.876209</speed><course>269.880463</course><hAcc>0.890154</hAcc><vAcc>0.719923</vAcc></extensions></trkpt>
      <trkpt lon="-4.159248" lat="53.023031"><ele>385.828918</ele><time>2021-07-17T13:17:10Z</time><extensions><speed>0.873438</speed><course>256.014618</course><hAcc>0.890169</hAcc><vAcc>0.720035</vAcc></extensions></trkpt>
      <trkpt lon="-4.159250" lat="53.023039"><ele>385.683960</ele><time>2021-07-17T13:17:11Z</time><extensions><speed>0.865422</speed><course>250.524368</course><hAcc>0.890179</hAcc><vAcc>0.720122</vAcc></extensions></trkpt>
      <trkpt lon="-4.159252" lat="53.023047"><ele>385.540253</ele><time>2021-07-17T13:17:12Z</time><extensions><speed>0.852247</speed><course>237.491638</course><hAcc>0.890183</hAcc><vAcc>0.720165</vAcc></extensions></trkpt>
      <trkpt lon="-4.159255" lat="53.023054"><ele>385.397125</ele><time>2021-07-17T13:17:13Z</time><extensions><speed>0.834252</speed><course>231.976761</course><hAcc>0.890178</hAcc><vAcc>0.720152</vAcc></extensions></trkpt>
      <trkpt lon="-4.159257" lat="53.023061"><ele>385.252930</ele><time>2021-07-17T13:17:14Z</time><extensions><speed>0.812395</speed><course>228.504318</course><hAcc>0.890162</hAcc><vAcc>0.720078</vAcc></extensions></trkpt>
      <trkpt lon="-4.159258" lat="53.023069"><ele>385.105560</ele><time>2021-07-17T13:17:15Z</time><extensions><speed>0.787961</speed><course>227.577087</course><hAcc>0.890134</hAcc><vAcc>0.719946</vAcc></extensions></trkpt>
      <trkpt lon="-4.159260" lat="53.023075"><ele>384.953461</ele><time>2021-07-17T13:17:16Z</time><extensions><speed>0.761700</speed><course>219.513672</course><hAcc>0.890078</hAcc><vAcc>0.719747</vAcc></extensions></trkpt>
      <trkpt lon="-4.159261" lat="53.023082"><ele>384.796204</ele><time>2021-07-17T13:17:17Z</time><extensions><speed>0.734269</speed><course>224.903015</course><hAcc>0.889993</hAcc><vAcc>0.719487</vAcc></extensions></trkpt>
      <trkpt lon="-4.159261" lat="53.023089"><ele>384.633667</ele><time>2021-07-17T13:17:18Z</time><extensions><speed>0.706318</speed><course>222.390198</course><hAcc>0.889899</hAcc><vAcc>0.719183</vAcc></extensions></trkpt>
      <trkpt lon="-4.159261" lat="53.023095"><ele>384.466187</ele><time>2021-07-17T13:17:19Z</time><extensions><speed>0.678663</speed><course>223.313202</course><hAcc>0.889798</hAcc><vAcc>0.718842</vAcc></extensions></trkpt>
      <trkpt lon="-4.159261" lat="53.023101"><ele>384.294495</ele><time>2021-07-17T13:17:20Z</time><extensions><speed>0.652011</speed><course>224.045700</course><hAcc>0.889693</hAcc><vAcc>0.718477</vAcc></extensions></trkpt>
      <trkpt lon="-4.159260" lat="53.023107"><ele>384.119934</ele><time>2021-07-17T13:17:21Z</time><extensions><speed>0.626805</speed><course>224.975723</course><hAcc>0.889586</hAcc><vAcc>0.718104</vAcc></extensions></trkpt>
      <trkpt lon="-4.159258" lat="53.023112"><ele>383.944153</ele><time>2021-07-17T13:17:22Z</time><extensions><speed>0.603421</speed><course>226.513992</course><hAcc>0.889479</hAcc><vAcc>0.717735</vAcc></extensions></trkpt>
      <trkpt lon="-4.159257" lat="53.023117"><ele>383.768005</ele><time>2021-07-17T13:17:23Z</time><extensions><speed>0.582186</speed><course>227.291473</course><hAcc>0.889374</hAcc><vAcc>0.717385</vAcc></extensions></trkpt>
      <trkpt lon="-4.159254" lat="53.023122"><ele>383.590668</ele><time>2021-07-17T13:17:24Z</time><extensions><speed>0.563189</speed><course>231.833313</course><hAcc>0.889275</hAcc><vAcc>0.717064</vAcc></extensions></trkpt>
      <trkpt lon="-4.159252" lat="53.023127"><ele>383.410370</ele><time>2021-07-17T13:17:25Z</time><extensions><speed>0.546577</speed><course>230.421005</course><hAcc>0.889181</hAcc><vAcc>0.716781</vAcc></extensions></trkpt>
      <trkpt lon="-4.159249" lat="53.023131"><ele>383.225189</ele><time>2021-07-17T13:17:26Z</time><extensions><speed>0.532828</speed><course>235.980087</course><hAcc>0.889093</hAcc><vAcc>0.716538</vAcc></extensions></trkpt>
      <trkpt lon="-4.159245" lat="53.023136"><ele>383.033936</ele><time>2021-07-17T13:17:27Z</time><extensions><speed>0.522025</speed><course>243.213364</course><hAcc>0.889009</hAcc><vAcc>0.716334</vAcc></extensions></trkpt>
      <trkpt lon="-4.159241" lat="53.023140"><ele>382.836395</ele><time>2021-07-17T13:17:28Z</time><extensions><speed>0.513194</speed><course>253.165268</course><hAcc>0.888928</hAcc><vAcc>0.716163</vAcc></extensions></trkpt>
      <trkpt lon="-4.159238" lat="53.023144"><ele>382.632935</ele><time>2021-07-17T13:17:29Z</time><extensions><speed>0.504721</speed><course>266.505096</course><hAcc>0.888866</hAcc><vAcc>0.716024</vAcc></extensions></trkpt>
      <trkpt lon="-4.159233" lat="53.023147"><ele>382.423798</ele><time>2021-07-17T13:17:30Z</time><extensions><speed>0.495634</speed><course>267.255646</course><hAcc>0.888820</hAcc><vAcc>0.715904</vAcc></extensions></trkpt>
      <trkpt lon="-4.159229" lat="53.023151"><ele>382.210754</ele><time>2021-07-17T13:17:30Z</time><extensions><speed>0.486085</speed><course>271.176971</course><hAcc>0.888787</hAcc><vAcc>0.715790</vAcc></extensions></trkpt>
      <trkpt lon="-4.159225" lat="53.023154"><ele>381.995453</ele><time>2021-07-17T13:17:31Z</time><extensions><speed>0.476580</speed><course>283.145996</course><hAcc>0.888763</hAcc><vAcc>0.715676</vAcc></extensions></trkpt>
      <trkpt lon="-4.159221" lat="53.023158"><ele>381.780426</ele><time>2021-07-17T13:17:32Z</time><extensions><speed>0.467662</speed><course>291.499756</course><hAcc>0.888729</hAcc><vAcc>0.715550</vAcc></extensions></trkpt>
      <trkpt lon="-4.159217" lat="53.023161"><ele>381.567535</ele><time>2021-07-17T13:17:33Z</time><extensions><speed>0.458986</speed><course>295.960785</course><hAcc>0.888679</hAcc><vAcc>0.715405</vAcc></extensions></trkpt>
      <trkpt lon="-4.159212" lat="53.023164"><ele>381.358124</ele><time>2021-07-17T13:17:34Z</time><extensions><speed>0.449620</speed><course>298.309418</course><hAcc>0.888610</hAcc><vAcc>0.715231</vAcc></extensions></trkpt>
      <trkpt lon="-4.159208" lat="53.023168"><ele>381.153015</ele><time>2021-07-17T13:17:35Z</time><extensions><speed>0.440130</speed><course>301.442566</course><hAcc>0.888519</hAcc><vAcc>0.715010</vAcc></extensions></trkpt>
      <trkpt lon="-4.159204" lat="53.023171"><ele>380.952637</ele><time>2021-07-17T13:17:36Z</time><extensions><speed>0.431990</speed><course>301.820831</course><hAcc>0.888401</hAcc><vAcc>0.714718</vAcc></extensions></trkpt>
      <trkpt lon="-4.159201" lat="53.023174"><ele>380.757233</ele><time>2021-07-17T13:17:37Z</time><extensions><speed>0.425705</speed><course>306.533081</course><hAcc>0.888254</hAcc><vAcc>0.714328</vAcc></extensions></trkpt>
      <trkpt lon="-4.159197" lat="53.023177"><ele>380.567139</ele><time>2021-07-17T13:17:38Z</time><extensions><speed>0.421013</speed><course>310.759277</course><hAcc>0.888080</hAcc><vAcc>0.713822</vAcc></extensions></trkpt>
      <trkpt lon="-4.159194" lat="53.023180"><ele>380.382782</ele><time>2021-07-17T13:17:39Z</time><extensions><speed>0.417793</speed><course>315.721252</course><hAcc>0.887878</hAcc><vAcc>0.713194</vAcc></extensions></trkpt>
      <trkpt lon="-4.159190" lat="53.023183"><ele>380.204651</ele><time>2021-07-17T13:17:40Z</time><extensions><speed>0.416328</speed><course>321.376434</course><hAcc>0.887654</hAcc><vAcc>0.712446</vAcc></extensions></trkpt>
      <trkpt lon="-4.159187" lat="53.023186"><ele>380.033081</ele><time>2021-07-17T13:17:41Z</time><extensions><speed>0.416897</speed><course>321.893402</course><hAcc>0.887415</hAcc><vAcc>0.711595</vAcc></extensions></trkpt>
      <trkpt lon="-4.159184" lat="53.023190"><ele>379.868164</ele><time>2021-07-17T13:17:42Z</time><extensions><speed>0.420672</speed><course>325.867676</course><hAcc>0.887171</hAcc><vAcc>0.710675</vAcc></extensions></trkpt>
      <trkpt lon="-4.159181" lat="53.023193"><ele>379.709564</ele><time>2021-07-17T13:17:43Z</time><extensions><speed>0.428734</speed><course>319.975250</course><hAcc>0.886934</hAcc><vAcc>0.709734</vAcc></extensions></trkpt>
      <trkpt lon="-4.159178" lat="53.023197"><ele>379.556519</ele><time>2021-07-17T13:17:44Z</time><extensions><speed>0.441012</speed><course>320.826599</course><hAcc>0.886719</hAcc><vAcc>0.708838</vAcc></extensions></trkpt>
      <trkpt lon="-4.159175" lat="53.023200"><ele>379.407990</ele><time>2021-07-17T13:17:45Z</time><extensions><speed>0.457286</speed><course>320.826599</course><hAcc>0.886538</hAcc><vAcc>0.708061</vAcc></extensions></trkpt>
      <trkpt lon="-4.159172" lat="53.023204"><ele>379.263031</ele><time>2021-07-17T13:17:46Z</time><extensions><speed>0.476854</speed><course>320.826599</course><hAcc>0.886403</hAcc><vAcc>0.707479</vAcc></extensions></trkpt>
      <trkpt lon="-4.159169" lat="53.023208"><ele>379.120605</ele><time>2021-07-17T13:17:47Z</time><extensions><speed>0.498461</speed><course>320.826599</course><hAcc>0.886324</hAcc><vAcc>0.707149</vAcc></extensions></trkpt>
      <trkpt lon="-4.159165" lat="53.023212"><ele>378.979370</ele><time>2021-07-17T13:17:48Z</time><extensions><speed>0.520759</speed><course>320.826599</course><hAcc>0.886304</hAcc><vAcc>0.707097</vAcc></extensions></trkpt>
      <trkpt lon="-4.159161" lat="53.023216"><ele>378.837311</ele><time>2021-07-17T13:17:49Z</time><extensions><speed>0.542954</speed><course>320.826599</course><hAcc>0.886346</hAcc><vAcc>0.707313</vAcc></extensions></trkpt>
      <trkpt lon="-4.159158" lat="53.023220"><ele>378.692139</ele><time>2021-07-17T13:17:50Z</time><extensions><speed>0.564754</speed><course>320.826599</course><hAcc>0.886443</hAcc><vAcc>0.707759</vAcc></extensions></trkpt>
      <trkpt lon="-4.159154" lat="53.023225"><ele>378.541077</ele><time>2021-07-17T13:17:51Z</time><extensions><speed>0.585849</speed><course>320.826599</course><hAcc>0.886589</hAcc><vAcc>0.708382</vAcc></extensions></trkpt>
      <trkpt lon="-4.159149" lat="53.023230"><ele>378.381592</ele><time>2021-07-17T13:17:52Z</time><extensions><speed>0.605646</speed><course>320.826599</course><hAcc>0.886773</hAcc><vAcc>0.709120</vAcc></extensions></trkpt>
      <trkpt lon="-4.159145" lat="53.023235"><ele>378.211823</ele><time>2021-07-17T13:17:53Z</time><extensions><speed>0.623023</speed><course>320.826599</course><hAcc>0.886986</hAcc><vAcc>0.709916</vAcc></extensions></trkpt>
      <trkpt lon="-4.159141" lat="53.023240"><ele>378.030853</ele><time>2021-07-17T13:17:54Z</time><extensions><speed>0.637583</speed><course>320.826599</course><hAcc>0.887215</hAcc><vAcc>0.710725</vAcc></extensions></trkpt>
      <trkpt lon="-4.159136" lat="53.023245"><ele>377.838654</ele><time>2021-07-17T13:17:55Z</time><extensions><speed>0.649868</speed><course>320.826599</course><hAcc>0.887451</hAcc><vAcc>0.711513</vAcc></extensions></trkpt>
      <trkpt lon="-4.159132" lat="53.023250"><ele>377.635956</ele><time>2021-07-17T13:17:56Z</time><extensions><speed>0.660256</speed><course>320.826599</course><hAcc>0.887685</hAcc><vAcc>0.712257</vAcc></extensions></trkpt>
      <trkpt lon="-4.159128" lat="53.023255"><ele>377.423462</ele><time>2021-07-17T13:17:57Z</time><extensions><speed>0.668599</speed><course>320.826599</course><hAcc>0.887911</hAcc><vAcc>0.712944</vAcc></extensions></trkpt>
      <trkpt lon="-4.159123" lat="53.023261"><ele>377.201569</ele><time>2021-07-17T13:17:59Z</time><extensions><speed>0.674252</speed><course>320.826599</course><hAcc>0.888107</hAcc><vAcc>0.713554</vAcc></extensions></trkpt>
      <trkpt lon="-4.159119" lat="53.023266"><ele>376.971344</ele><time>2021-07-17T13:18:00Z</time><extensions><speed>0.676140</speed><course>320.826599</course><hAcc>0.888269</hAcc><vAcc>0.714081</vAcc></extensions></trkpt>
      <trkpt lon="-4.159114" lat="53.023272"><ele>376.733276</ele><time>2021-07-17T13:18:01Z</time><extensions><speed>0.673613</speed><course>320.826599</course><hAcc>0.888413</hAcc><vAcc>0.714537</vAcc></extensions></trkpt>
      <trkpt lon="-4.159109" lat="53.023277"><ele>376.488373</ele><time>2021-07-17T13:18:02Z</time><extensions><speed>0.666940</speed><course>320.826599</course><hAcc>0.888539</hAcc><vAcc>0.714925</vAcc></extensions></trkpt>
      <trkpt lon="-4.159105" lat="53.023282"><ele>376.238159</ele><time>2021-07-17T13:18:03Z</time><extensions><speed>0.656846</speed><course>320.826599</course><hAcc>0.888645</hAcc><vAcc>0.715248</vAcc></extensions></trkpt>
      <trkpt lon="-4.159100" lat="53.023287"><ele>375.984680</ele><time>2021-07-17T13:18:04Z</time><extensions><speed>0.644205</speed><course>320.826599</course><hAcc>0.888733</hAcc><vAcc>0.715518</vAcc></extensions></trkpt>
      <trkpt lon="-4.159094" lat="53.023292"><ele>375.730194</ele><time>2021-07-17T13:18:05Z</time><extensions><speed>0.629979</speed><course>320.826599</course><hAcc>0.888802</hAcc><vAcc>0.715741</vAcc></extensions></trkpt>
      <trkpt lon="-4.159089" lat="53.023297"><ele>375.476898</ele><time>2021-07-17T13:18:06Z</time><extensions><speed>0.614691</speed><course>320.826569</course><hAcc>0.888853</hAcc><vAcc>0.715923</vAcc></extensions></trkpt>
      <trkpt lon="-4.159084" lat="53.023301"><ele>375.227020</ele><time>2021-07-17T13:18:07Z</time><extensions><speed>0.598114</speed><course>320.826569</course><hAcc>0.888888</hAcc><vAcc>0.716058</vAcc></extensions></trkpt>
      <trkpt lon="-4.159079" lat="53.023305"><ele>374.982941</ele><time>2021-07-17T13:18:08Z</time><extensions><speed>0.580696</speed><course>320.826569</course><hAcc>0.888907</hAcc><vAcc>0.716139</vAcc></extensions></trkpt>
      <trkpt lon="-4.159073" lat="53.023309"><ele>374.746979</ele><time>2021-07-17T13:18:09Z</time><extensions><speed>0.563567</speed><course>320.826569</course><hAcc>0.888914</hAcc><vAcc>0.716160</vAcc></extensions></trkpt>
      <trkpt lon="-4.159068" lat="53.023313"><ele>374.521393</ele><time>2021-07-17T13:18:10Z</time><extensions><speed>0.547345</speed><course>306.179871</course><hAcc>0.888908</hAcc><vAcc>0.716126</vAcc></extensions></trkpt>
      <trkpt lon="-4.159063" lat="53.023317"><ele>374.307770</ele><time>2021-07-17T13:18:11Z</time><extensions><speed>0.532045</speed><course>252.340622</course><hAcc>0.888892</hAcc><vAcc>0.716044</vAcc></extensions></trkpt>
      <trkpt lon="-4.159059" lat="53.023321"><ele>374.106293</ele><time>2021-07-17T13:18:12Z</time><extensions><speed>0.517794</speed><course>240.417450</course><hAcc>0.888868</hAcc><vAcc>0.715926</vAcc></extensions></trkpt>
      <trkpt lon="-4.159054" lat="53.023324"><ele>373.915802</ele><time>2021-07-17T13:18:13Z</time><extensions><speed>0.504913</speed><course>226.735764</course><hAcc>0.888839</hAcc><vAcc>0.715785</vAcc></extensions></trkpt>
      <trkpt lon="-4.159050" lat="53.023328"><ele>373.733795</ele><time>2021-07-17T13:18:14Z</time><extensions><speed>0.493748</speed><course>213.254318</course><hAcc>0.888806</hAcc><vAcc>0.715633</vAcc></extensions></trkpt>
      <trkpt lon="-4.159046" lat="53.023332"><ele>373.557129</ele><time>2021-07-17T13:18:15Z</time><extensions><speed>0.485210</speed><course>209.983795</course><hAcc>0.888772</hAcc><vAcc>0.715487</vAcc></extensions></trkpt>
      <trkpt lon="-4.159042" lat="53.023336"><ele>373.382965</ele><time>2021-07-17T13:18:16Z</time><extensions><speed>0.479818</speed><course>212.464371</course><hAcc>0.888739</hAcc><vAcc>0.715365</vAcc></extensions></trkpt>
      <trkpt lon="-4.159038" lat="53.023339"><ele>373.208984</ele><time>2021-07-17T13:18:17Z</time><extensions><speed>0.477373</speed><course>212.464355</course><hAcc>0.888709</hAcc><vAcc>0.715276</vAcc></extensions></trkpt>
      <trkpt lon="-4.159035" lat="53.023343"><ele>373.033203</ele><time>2021-07-17T13:18:18Z</time><extensions><speed>0.477477</speed><course>212.464355</course><hAcc>0.888682</hAcc><vAcc>0.715220</vAcc></extensions></trkpt>
      <trkpt lon="-4.159032" lat="53.023347"><ele>372.853973</ele><time>2021-07-17T13:18:19Z</time><extensions><speed>0.479573</speed><course>212.464340</course><hAcc>0.888661</hAcc><vAcc>0.715189</vAcc></extensions></trkpt>
      <trkpt lon="-4.159029" lat="53.023351"><ele>372.670135</ele><time>2021-07-17T13:18:20Z</time><extensions><speed>0.483132</speed><course>212.464325</course><hAcc>0.888647</hAcc><vAcc>0.715167</vAcc></extensions></trkpt>
      <trkpt lon="-4.159027" lat="53.023355"><ele>372.480988</ele><time>2021-07-17T13:18:21Z</time><extensions><speed>0.487572</speed><course>212.464325</course><hAcc>0.888643</hAcc><vAcc>0.715142</vAcc></extensions></trkpt>
      <trkpt lon="-4.159024" lat="53.023359"><ele>372.286255</ele><time>2021-07-17T13:18:22Z</time><extensions><speed>0.491986</speed><course>212.464325</course><hAcc>0.888648</hAcc><vAcc>0.715117</vAcc></extensions></trkpt>
      <trkpt lon="-4.159022" lat="53.023363"><ele>372.086365</ele><time>2021-07-17T13:18:23Z</time><extensions><speed>0.496093</speed><course>212.464310</course><hAcc>0.888665</hAcc><vAcc>0.715107</vAcc></extensions></trkpt>
      <trkpt lon="-4.159020" lat="53.023368"><ele>371.882507</ele><time>2021-07-17T13:18:24Z</time><extensions><speed>0.500093</speed><course>305.064514</course><hAcc>0.888692</hAcc><vAcc>0.715132</vAcc></extensions></trkpt>
      <trkpt lon="-4.159018" lat="53.023372"><ele>371.676697</ele><time>2021-07-17T13:18:25Z</time><extensions><speed>0.503516</speed><course>295.507660</course><hAcc>0.888728</hAcc><vAcc>0.715216</vAcc></extensions></trkpt>
      <trkpt lon="-4.159016" lat="53.023376"><ele>371.471161</ele><time>2021-07-17T13:18:26Z</time><extensions><speed>0.505462</speed><course>292.618195</course><hAcc>0.888771</hAcc><vAcc>0.715369</vAcc></extensions></trkpt>
      <trkpt lon="-4.159014" lat="53.023381"><ele>371.268127</ele><time>2021-07-17T13:18:27Z</time><extensions><speed>0.505466</speed><course>285.374146</course><hAcc>0.888821</hAcc><vAcc>0.715586</vAcc></extensions></trkpt>
      <trkpt lon="-4.159012" lat="53.023385"><ele>371.069550</ele><time>2021-07-17T13:18:28Z</time><extensions><speed>0.503564</speed><course>282.990997</course><hAcc>0.888873</hAcc><vAcc>0.715849</vAcc></extensions></trkpt>
      <trkpt lon="-4.159011" lat="53.023390"><ele>370.876678</ele><time>2021-07-17T13:18:29Z</time><extensions><speed>0.499901</speed><course>269.408752</course><hAcc>0.888926</hAcc><vAcc>0.716126</vAcc></extensions></trkpt>
      <trkpt lon="-4.159009" lat="53.023394"><ele>370.689972</ele><time>2021-07-17T13:18:30Z</time><extensions><speed>0.494903</speed><course>268.581787</course><hAcc>0.888976</hAcc><vAcc>0.716383</vAcc></extensions></trkpt>
      <trkpt lon="-4.159008" lat="53.023398"><ele>370.509460</ele><time>2021-07-17T13:18:31Z</time><extensions><speed>0.489338</speed><course>262.171875</course><hAcc>0.889021</hAcc><vAcc>0.716587</vAcc></extensions></trkpt>
      <trkpt lon="-4.159006" lat="53.023403"><ele>370.334381</ele><time>2021-07-17T13:18:32Z</time><extensions><speed>0.484181</speed><course>261.539520</course><hAcc>0.889058</hAcc><vAcc>0.716722</vAcc></extensions></trkpt>
      <trkpt lon="-4.159004" lat="53.023407"><ele>370.163116</ele><time>2021-07-17T13:18:33Z</time><extensions><speed>0.480307</speed><course>255.803879</course><hAcc>0.889086</hAcc><vAcc>0.716786</vAcc></extensions></trkpt>
      <trkpt lon="-4.159002" lat="53.023411"><ele>369.994049</ele><time>2021-07-17T13:18:34Z</time><extensions><speed>0.478035</speed><course>247.733398</course><hAcc>0.889105</hAcc><vAcc>0.716788</vAcc></extensions></trkpt>
      <trkpt lon="-4.159000" lat="53.023415"><ele>369.825928</ele><time>2021-07-17T13:18:35Z</time><extensions><speed>0.477367</speed><course>231.932861</course><hAcc>0.889116</hAcc><vAcc>0.716744</vAcc></extensions></trkpt>
      <trkpt lon="-4.158998" lat="53.023419"><ele>369.657776</ele><time>2021-07-17T13:18:36Z</time><extensions><speed>0.478465</speed><course>232.043365</course><hAcc>0.889120</hAcc><vAcc>0.716672</vAcc></extensions></trkpt>
      <trkpt lon="-4.158996" lat="53.023423"><ele>369.488739</ele><time>2021-07-17T13:18:37Z</time><extensions><speed>0.481322</speed><course>225.182800</course><hAcc>0.889120</hAcc><vAcc>0.716599</vAcc></extensions></trkpt>
      <trkpt lon="-4.158993" lat="53.023427"><ele>369.317810</ele><time>2021-07-17T13:18:38Z</time><extensions><speed>0.485896</speed><course>222.937302</course><hAcc>0.889121</hAcc><vAcc>0.716544</vAcc></extensions></trkpt>
      <trkpt lon="-4.158991" lat="53.023431"><ele>369.143738</ele><time>2021-07-17T13:18:39Z</time><extensions><speed>0.492077</speed><course>226.615036</course><hAcc>0.889125</hAcc><vAcc>0.716522</vAcc></extensions></trkpt>
      <trkpt lon="-4.158988" lat="53.023435"><ele>368.965240</ele><time>2021-07-17T13:18:40Z</time><extensions><speed>0.499628</speed><course>227.377960</course><hAcc>0.889135</hAcc><vAcc>0.716541</vAcc></extensions></trkpt>
      <trkpt lon="-4.158985" lat="53.023440"><ele>368.781158</ele><time>2021-07-17T13:18:41Z</time><extensions><speed>0.508085</speed><course>225.027542</course><hAcc>0.889153</hAcc><vAcc>0.716603</vAcc></extensions></trkpt>
      <trkpt lon="-4.158982" lat="53.023444"><ele>368.590302</ele><time>2021-07-17T13:18:42Z</time><extensions><speed>0.517170</speed><course>217.523773</course><hAcc>0.889181</hAcc><vAcc>0.716706</vAcc></extensions></trkpt>
      <trkpt lon="-4.158979" lat="53.023448"><ele>368.391113</ele><time>2021-07-17T13:18:43Z</time><extensions><speed>0.527312</speed><course>217.503448</course><hAcc>0.889219</hAcc><vAcc>0.716847</vAcc></extensions></trkpt>
      <trkpt lon="-4.158975" lat="53.023452"><ele>368.181885</ele><time>2021-07-17T13:18:44Z</time><extensions><speed>0.538689</speed><course>222.947372</course><hAcc>0.889266</hAcc><vAcc>0.717024</vAcc></extensions></trkpt>
      <trkpt lon="-4.158972" lat="53.023457"><ele>367.961304</ele><time>2021-07-17T13:18:45Z</time><extensions><speed>0.550670</speed><course>228.737518</course><hAcc>0.889320</hAcc><vAcc>0.717230</vAcc></extensions></trkpt>
      <trkpt lon="-4.158968" lat="53.023461"><ele>367.729370</ele><time>2021-07-17T13:18:46Z</time><extensions><speed>0.562313</speed><course>234.887939</course><hAcc>0.889380</hAcc><vAcc>0.717454</vAcc></extensions></trkpt>
      <trkpt lon="-4.158965" lat="53.023466"><ele>367.487732</ele><time>2021-07-17T13:18:47Z</time><extensions><speed>0.573094</speed><course>232.671463</course><hAcc>0.889444</hAcc><vAcc>0.717686</vAcc></extensions></trkpt>
      <trkpt lon="-4.158961" lat="53.023471"><ele>367.238739</ele><time>2021-07-17T13:18:48Z</time><extensions><speed>0.582766</speed><course>228.680756</course><hAcc>0.889508</hAcc><vAcc>0.717919</vAcc></extensions></trkpt>
      <trkpt lon="-4.158958" lat="53.023476"><ele>366.984802</ele><time>2021-07-17T13:18:49Z</time><extensions><speed>0.591069</speed><course>228.367065</course><hAcc>0.889570</hAcc><vAcc>0.718145</vAcc></extensions></trkpt>
      <trkpt lon="-4.158955" lat="53.023481"><ele>366.727417</ele><time>2021-07-17T13:18:50Z</time><extensions><speed>0.597985</speed><course>227.760208</course><hAcc>0.889628</hAcc><vAcc>0.718352</vAcc></extensions></trkpt>
      <trkpt lon="-4.158953" lat="53.023486"><ele>366.466736</ele><time>2021-07-17T13:18:51Z</time><extensions><speed>0.603893</speed><course>230.377014</course><hAcc>0.889679</hAcc><vAcc>0.718530</vAcc></extensions></trkpt>
      <trkpt lon="-4.158950" lat="53.023491"><ele>366.202606</ele><time>2021-07-17T13:18:52Z</time><extensions><speed>0.609302</speed><course>236.559235</course><hAcc>0.889722</hAcc><vAcc>0.718671</vAcc></extensions></trkpt>
      <trkpt lon="-4.158948" lat="53.023497"><ele>365.935211</ele><time>2021-07-17T13:18:53Z</time><extensions><speed>0.614348</speed><course>232.877869</course><hAcc>0.889755</hAcc><vAcc>0.718771</vAcc></extensions></trkpt>
      <trkpt lon="-4.158946" lat="53.023502"><ele>365.664978</ele><time>2021-07-17T13:18:54Z</time><extensions><speed>0.618846</speed><course>233.901962</course><hAcc>0.889775</hAcc><vAcc>0.718833</vAcc></extensions></trkpt>
      <trkpt lon="-4.158945" lat="53.023507"><ele>365.392365</ele><time>2021-07-17T13:18:55Z</time><extensions><speed>0.622572</speed><course>234.840546</course><hAcc>0.889780</hAcc><vAcc>0.718859</vAcc></extensions></trkpt>
      <trkpt lon="-4.158944" lat="53.023513"><ele>365.117828</ele><time>2021-07-17T13:18:56Z</time><extensions><speed>0.625409</speed><course>231.563858</course><hAcc>0.889768</hAcc><vAcc>0.718847</vAcc></extensions></trkpt>
      <trkpt lon="-4.158943" lat="53.023519"><ele>364.841705</ele><time>2021-07-17T13:18:57Z</time><extensions><speed>0.627282</speed><course>226.163422</course><hAcc>0.889739</hAcc><vAcc>0.718787</vAcc></extensions></trkpt>
      <trkpt lon="-4.158942" lat="53.023524"><ele>364.563934</ele><time>2021-07-17T13:18:58Z</time><extensions><speed>0.627826</speed><course>224.694687</course><hAcc>0.889692</hAcc><vAcc>0.718667</vAcc></extensions></trkpt>
      <trkpt lon="-4.158941" lat="53.023530"><ele>364.284515</ele><time>2021-07-17T13:18:59Z</time><extensions><speed>0.626496</speed><course>227.400024</course><hAcc>0.889629</hAcc><vAcc>0.718478</vAcc></extensions></trkpt>
      <trkpt lon="-4.158941" lat="53.023535"><ele>364.003693</ele><time>2021-07-17T13:19:00Z</time><extensions><speed>0.622809</speed><course>225.215622</course><hAcc>0.889549</hAcc><vAcc>0.718216</vAcc></extensions></trkpt>
      <trkpt lon="-4.158940" lat="53.023541"><ele>363.721954</ele><time>2021-07-17T13:19:01Z</time><extensions><speed>0.616486</speed><course>227.979385</course><hAcc>0.889456</hAcc><vAcc>0.717885</vAcc></extensions></trkpt>
      <trkpt lon="-4.158940" lat="53.023547"><ele>363.440216</ele><time>2021-07-17T13:19:02Z</time><extensions><speed>0.607720</speed><course>238.133682</course><hAcc>0.889351</hAcc><vAcc>0.717496</vAcc></extensions></trkpt>
      <trkpt lon="-4.158939" lat="53.023552"><ele>363.159485</ele><time>2021-07-17T13:19:03Z</time><extensions><speed>0.597435</speed><course>235.678314</course><hAcc>0.889240</hAcc><vAcc>0.717062</vAcc></extensions></trkpt>
      <trkpt lon="-4.158937" lat="53.023557"><ele>362.881134</ele><time>2021-07-17T13:19:04Z</time><extensions><speed>0.586991</speed><course>238.960709</course><hAcc>0.889127</hAcc><vAcc>0.716601</vAcc></extensions></trkpt>
      <trkpt lon="-4.158936" lat="53.023562"><ele>362.606445</ele><time>2021-07-17T13:19:05Z</time><extensions><speed>0.577972</speed><course>237.793289</course><hAcc>0.889000</hAcc><vAcc>0.716117</vAcc></extensions></trkpt>
      <trkpt lon="-4.158934" lat="53.023567"><ele>362.337830</ele><time>2021-07-17T13:19:06Z</time><extensions><speed>0.572208</speed><course>238.209671</course><hAcc>0.888864</hAcc><vAcc>0.715634</vAcc></extensions></trkpt>
      <trkpt lon="-4.158931" lat="53.023572"><ele>362.077118</ele><time>2021-07-17T13:19:07Z</time><extensions><speed>0.571102</speed><course>239.435074</course><hAcc>0.888741</hAcc><vAcc>0.715189</vAcc></extensions></trkpt>
      <trkpt lon="-4.158927" lat="53.023577"><ele>361.826263</ele><time>2021-07-17T13:19:08Z</time><extensions><speed>0.575387</speed><course>238.666733</course><hAcc>0.888635</hAcc><vAcc>0.714808</vAcc></extensions></trkpt>
      <trkpt lon="-4.158922" lat="53.023581"><ele>361.586945</ele><time>2021-07-17T13:19:09Z</time><extensions><speed>0.584792</speed><course>234.077820</course><hAcc>0.888547</hAcc><vAcc>0.714512</vAcc></extensions></trkpt>
      <trkpt lon="-4.158917" lat="53.023585"><ele>361.360046</ele><time>2021-07-17T13:19:10Z</time><extensions><speed>0.597963</speed><course>227.293335</course><hAcc>0.888478</hAcc><vAcc>0.714310</vAcc></extensions></trkpt>
      <trkpt lon="-4.158911" lat="53.023590"><ele>361.145416</ele><time>2021-07-17T13:19:11Z</time><extensions><speed>0.612694</speed><course>230.072769</course><hAcc>0.888427</hAcc><vAcc>0.714198</vAcc></extensions></trkpt>
      <trkpt lon="-4.158905" lat="53.023593"><ele>360.941559</ele><time>2021-07-17T13:19:12Z</time><extensions><speed>0.626663</speed><course>228.397232</course><hAcc>0.888393</hAcc><vAcc>0.714162</vAcc></extensions></trkpt>
      <trkpt lon="-4.158898" lat="53.023597"><ele>360.746552</ele><time>2021-07-17T13:19:13Z</time><extensions><speed>0.638242</speed><course>230.234772</course><hAcc>0.888372</hAcc><vAcc>0.714177</vAcc></extensions></trkpt>
      <trkpt lon="-4.158891" lat="53.023601"><ele>360.558502</ele><time>2021-07-17T13:19:14Z</time><extensions><speed>0.647095</speed><course>226.599274</course><hAcc>0.888360</hAcc><vAcc>0.714221</vAcc></extensions></trkpt>
      <trkpt lon="-4.158883" lat="53.023605"><ele>360.375732</ele><time>2021-07-17T13:19:15Z</time><extensions><speed>0.653984</speed><course>226.515137</course><hAcc>0.888353</hAcc><vAcc>0.714269</vAcc></extensions></trkpt>
      <trkpt lon="-4.158876" lat="53.023609"><ele>360.196686</ele><time>2021-07-17T13:19:16Z</time><extensions><speed>0.660197</speed><course>226.136917</course><hAcc>0.888345</hAcc><vAcc>0.714304</vAcc></extensions></trkpt>
      <trkpt lon="-4.158869" lat="53.023613"><ele>360.019409</ele><time>2021-07-17T13:19:17Z</time><extensions><speed>0.667222</speed><course>230.381958</course><hAcc>0.888333</hAcc><vAcc>0.714312</vAcc></extensions></trkpt>
      <trkpt lon="-4.158862" lat="53.023617"><ele>359.841339</ele><time>2021-07-17T13:19:18Z</time><extensions><speed>0.676195</speed><course>226.727509</course><hAcc>0.888313</hAcc><vAcc>0.714281</vAcc></extensions></trkpt>
      <trkpt lon="-4.158855" lat="53.023622"><ele>359.660309</ele><time>2021-07-17T13:19:19Z</time><extensions><speed>0.687098</speed><course>230.180862</course><hAcc>0.888284</hAcc><vAcc>0.714200</vAcc></extensions></trkpt>
      <trkpt lon="-4.158849" lat="53.023627"><ele>359.474945</ele><time>2021-07-17T13:19:20Z</time><extensions><speed>0.699540</speed><course>225.214905</course><hAcc>0.888245</hAcc><vAcc>0.714060</vAcc></extensions></trkpt>
      <trkpt lon="-4.158843" lat="53.023632"><ele>359.284607</ele><time>2021-07-17T13:19:21Z</time><extensions><speed>0.713524</speed><course>228.288971</course><hAcc>0.888196</hAcc><vAcc>0.713865</vAcc></extensions></trkpt>
      <trkpt lon="-4.158837" lat="53.023638"><ele>359.088776</ele><time>2021-07-17T13:19:22Z</time><extensions><speed>0.729076</speed><course>234.392639</course><hAcc>0.888139</hAcc><vAcc>0.713628</vAcc></extensions></trkpt>
      <trkpt lon="-4.158832" lat="53.023643"><ele>358.886566</ele><time>2021-07-17T13:19:23Z</time><extensions><speed>0.745844</speed><course>233.208801</course><hAcc>0.888075</hAcc><vAcc>0.713369</vAcc></extensions></trkpt>
      <trkpt lon="-4.158827" lat="53.023649"><ele>358.677246</ele><time>2021-07-17T13:19:24Z</time><extensions><speed>0.762710</speed><course>238.158752</course><hAcc>0.888008</hAcc><vAcc>0.713108</vAcc></extensions></trkpt>
      <trkpt lon="-4.158822" lat="53.023656"><ele>358.460388</ele><time>2021-07-17T13:19:25Z</time><extensions><speed>0.778392</speed><course>239.142517</course><hAcc>0.887941</hAcc><vAcc>0.712858</vAcc></extensions></trkpt>
      <trkpt lon="-4.158817" lat="53.023662"><ele>358.235504</ele><time>2021-07-17T13:19:26Z</time><extensions><speed>0.791761</speed><course>241.003922</course><hAcc>0.887875</hAcc><vAcc>0.712630</vAcc></extensions></trkpt>
      <trkpt lon="-4.158813" lat="53.023669"><ele>358.002289</ele><time>2021-07-17T13:19:27Z</time><extensions><speed>0.802405</speed><course>244.474228</course><hAcc>0.887815</hAcc><vAcc>0.712431</vAcc></extensions></trkpt>
      <trkpt lon="-4.158809" lat="53.023676"><ele>357.761383</ele><time>2021-07-17T13:19:28Z</time><extensions><speed>0.810287</speed><course>238.879150</course><hAcc>0.887762</hAcc><vAcc>0.712264</vAcc></extensions></trkpt>
      <trkpt lon="-4.158806" lat="53.023683"><ele>357.514404</ele><time>2021-07-17T13:19:29Z</time><extensions><speed>0.815427</speed><course>237.538528</course><hAcc>0.887718</hAcc><vAcc>0.712131</vAcc></extensions></trkpt>
      <trkpt lon="-4.158802" lat="53.023690"><ele>357.262726</ele><time>2021-07-17T13:19:30Z</time><extensions><speed>0.818119</speed><course>249.037552</course><hAcc>0.887683</hAcc><vAcc>0.712031</vAcc></extensions></trkpt>
      <trkpt lon="-4.158799" lat="53.023697"><ele>357.006744</ele><time>2021-07-17T13:19:31Z</time><extensions><speed>0.818646</speed><course>259.361603</course><hAcc>0.887658</hAcc><vAcc>0.711964</vAcc></extensions></trkpt>
      <trkpt lon="-4.158796" lat="53.023704"><ele>356.746613</ele><time>2021-07-17T13:19:32Z</time><extensions><speed>0.817702</speed><course>261.193176</course><hAcc>0.887642</hAcc><vAcc>0.711933</vAcc></extensions></trkpt>
      <trkpt lon="-4.158793" lat="53.023711"><ele>356.482941</ele><time>2021-07-17T13:19:33Z</time><extensions><speed>0.816277</speed><course>261.193146</course><hAcc>0.887633</hAcc><vAcc>0.711939</vAcc></extensions></trkpt>
      <trkpt lon="-4.158790" lat="53.023718"><ele>356.216949</ele><time>2021-07-17T13:19:34Z</time><extensions><speed>0.814927</speed><course>261.193146</course><hAcc>0.887629</hAcc><vAcc>0.711980</vAcc></extensions></trkpt>
      <trkpt lon="-4.158786" lat="53.023725"><ele>355.950928</ele><time>2021-07-17T13:19:35Z</time><extensions><speed>0.813954</speed><course>261.193146</course><hAcc>0.887644</hAcc><vAcc>0.712064</vAcc></extensions></trkpt>
      <trkpt lon="-4.158783" lat="53.023732"><ele>355.687195</ele><time>2021-07-17T13:19:36Z</time><extensions><speed>0.813638</speed><course>261.193146</course><hAcc>0.887677</hAcc><vAcc>0.712182</vAcc></extensions></trkpt>
      <trkpt lon="-4.158780" lat="53.023739"><ele>355.428955</ele><time>2021-07-17T13:19:37Z</time><extensions><speed>0.814230</speed><course>261.193146</course><hAcc>0.887707</hAcc><vAcc>0.712303</vAcc></extensions></trkpt>
      <trkpt lon="-4.158776" lat="53.023746"><ele>355.178284</ele><time>2021-07-17T13:19:38Z</time><extensions><speed>0.815918</speed><course>261.193146</course><hAcc>0.887731</hAcc><vAcc>0.712407</vAcc></extensions></trkpt>
      <trkpt lon="-4.158773" lat="53.023753"><ele>354.936127</ele><time>2021-07-17T13:19:39Z</time><extensions><speed>0.818362</speed><course>261.193146</course><hAcc>0.887747</hAcc><vAcc>0.712479</vAcc></extensions></trkpt>
      <trkpt lon="-4.158769" lat="53.023760"><ele>354.702698</ele><time>2021-07-17T13:19:40Z</time><extensions><speed>0.821001</speed><course>261.193146</course><hAcc>0.887753</hAcc><vAcc>0.712512</vAcc></extensions></trkpt>
      <trkpt lon="-4.158765" lat="53.023767"><ele>354.478149</ele><time>2021-07-17T13:19:41Z</time><extensions><speed>0.823638</speed><course>234.852402</course><hAcc>0.887744</hAcc><vAcc>0.712506</vAcc></extensions></trkpt>
      <trkpt lon="-4.158761" lat="53.023774"><ele>354.262604</ele><time>2021-07-17T13:19:42Z</time><extensions><speed>0.826582</speed><course>215.025620</course><hAcc>0.887720</hAcc><vAcc>0.712459</vAcc></extensions></trkpt>
      <trkpt lon="-4.158757" lat="53.023781"><ele>354.055511</ele><time>2021-07-17T13:19:43Z</time><extensions><speed>0.830120</speed><course>206.872131</course><hAcc>0.887677</hAcc><vAcc>0.712367</vAcc></extensions></trkpt>
      <trkpt lon="-4.158753" lat="53.023789"><ele>353.855225</ele><time>2021-07-17T13:19:44Z</time><extensions><speed>0.833949</speed><course>205.862991</course><hAcc>0.887617</hAcc><vAcc>0.712223</vAcc></extensions></trkpt>
      <trkpt lon="-4.158749" lat="53.023796"><ele>353.659821</ele><time>2021-07-17T13:19:44Z</time><extensions><speed>0.837917</speed><course>205.862976</course><hAcc>0.887557</hAcc><vAcc>0.712033</vAcc></extensions></trkpt>
      <trkpt lon="-4.158745" lat="53.023803"><ele>353.467163</ele><time>2021-07-17T13:19:45Z</time><extensions><speed>0.842098</speed><course>234.677673</course><hAcc>0.887501</hAcc><vAcc>0.711795</vAcc></extensions></trkpt>
      <trkpt lon="-4.158741" lat="53.023810"><ele>353.276611</ele><time>2021-07-17T13:19:46Z</time><extensions><speed>0.846253</speed><course>246.321655</course><hAcc>0.887435</hAcc><vAcc>0.711506</vAcc></extensions></trkpt>
      <trkpt lon="-4.158738" lat="53.023817"><ele>353.087494</ele><time>2021-07-17T13:19:47Z</time><extensions><speed>0.850416</speed><course>256.732239</course><hAcc>0.887365</hAcc><vAcc>0.711186</vAcc></extensions></trkpt>
      <trkpt lon="-4.158734" lat="53.023825"><ele>352.898468</ele><time>2021-07-17T13:19:48Z</time><extensions><speed>0.855217</speed><course>257.461731</course><hAcc>0.887297</hAcc><vAcc>0.710864</vAcc></extensions></trkpt>
      <trkpt lon="-4.158730" lat="53.023832"><ele>352.707733</ele><time>2021-07-17T13:19:49Z</time><extensions><speed>0.861637</speed><course>256.219269</course><hAcc>0.887238</hAcc><vAcc>0.710573</vAcc></extensions></trkpt>
      <trkpt lon="-4.158726" lat="53.023839"><ele>352.513855</ele><time>2021-07-17T13:19:50Z</time><extensions><speed>0.870219</speed><course>253.669510</course><hAcc>0.887194</hAcc><vAcc>0.710342</vAcc></extensions></trkpt>
      <trkpt lon="-4.158723" lat="53.023847"><ele>352.316528</ele><time>2021-07-17T13:19:51Z</time><extensions><speed>0.880971</speed><course>253.907227</course><hAcc>0.887171</hAcc><vAcc>0.710196</vAcc></extensions></trkpt>
      <trkpt lon="-4.158719" lat="53.023855"><ele>352.115997</ele><time>2021-07-17T13:19:52Z</time><extensions><speed>0.894029</speed><course>260.189209</course><hAcc>0.887174</hAcc><vAcc>0.710154</vAcc></extensions></trkpt>
      <trkpt lon="-4.158715" lat="53.023862"><ele>351.912994</ele><time>2021-07-17T13:19:53Z</time><extensions><speed>0.909557</speed><course>263.253174</course><hAcc>0.887205</hAcc><vAcc>0.710227</vAcc></extensions></trkpt>
      <trkpt lon="-4.158711" lat="53.023870"><ele>351.708618</ele><time>2021-07-17T13:19:54Z</time><extensions><speed>0.927453</speed><course>264.349060</course><hAcc>0.887265</hAcc><vAcc>0.710422</vAcc></extensions></trkpt>
      <trkpt lon="-4.158707" lat="53.023878"><ele>351.504150</ele><time>2021-07-17T13:19:55Z</time><extensions><speed>0.947275</speed><course>258.002991</course><hAcc>0.887353</hAcc><vAcc>0.710737</vAcc></extensions></trkpt>
      <trkpt lon="-4.158703" lat="53.023887"><ele>351.300568</ele><time>2021-07-17T13:19:56Z</time><extensions><speed>0.968344</speed><course>264.832825</course><hAcc>0.887464</hAcc><vAcc>0.711161</vAcc></extensions></trkpt>
      <trkpt lon="-4.158699" lat="53.023895"><ele>351.098236</ele><time>2021-07-17T13:19:57Z</time><extensions><speed>0.989581</speed><course>262.654938</course><hAcc>0.887593</hAcc><vAcc>0.711671</vAcc></extensions></trkpt>
      <trkpt lon="-4.158694" lat="53.023904"><ele>350.897064</ele><time>2021-07-17T13:19:58Z</time><extensions><speed>1.009654</speed><course>262.654938</course><hAcc>0.887733</hAcc><vAcc>0.712231</vAcc></extensions></trkpt>
      <trkpt lon="-4.158690" lat="53.023912"><ele>350.697540</ele><time>2021-07-17T13:19:59Z</time><extensions><speed>1.027699</speed><course>262.654938</course><hAcc>0.887876</hAcc><vAcc>0.712797</vAcc></extensions></trkpt>
      <trkpt lon="-4.158685" lat="53.023921"><ele>350.500671</ele><time>2021-07-17T13:20:00Z</time><extensions><speed>1.043783</speed><course>262.654938</course><hAcc>0.888014</hAcc><vAcc>0.713325</vAcc></extensions></trkpt>
      <trkpt lon="-4.158681" lat="53.023930"><ele>350.307220</ele><time>2021-07-17T13:20:01Z</time><extensions><speed>1.058082</speed><course>262.654938</course><hAcc>0.888139</hAcc><vAcc>0.713777</vAcc></extensions></trkpt>
      <trkpt lon="-4.158676" lat="53.023939"><ele>350.117004</ele><time>2021-07-17T13:20:03Z</time><extensions><speed>1.070464</speed><course>262.654938</course><hAcc>0.888227</hAcc><vAcc>0.714113</vAcc></extensions></trkpt>
      <trkpt lon="-4.158671" lat="53.023949"><ele>349.929596</ele><time>2021-07-17T13:20:04Z</time><extensions><speed>1.080694</speed><course>262.654938</course><hAcc>0.888271</hAcc><vAcc>0.714314</vAcc></extensions></trkpt>
      <trkpt lon="-4.158666" lat="53.023958"><ele>349.743744</ele><time>2021-07-17T13:20:05Z</time><extensions><speed>1.088114</speed><course>262.654938</course><hAcc>0.888285</hAcc><vAcc>0.714383</vAcc></extensions></trkpt>
      <trkpt lon="-4.158661" lat="53.023967"><ele>349.558838</ele><time>2021-07-17T13:20:06Z</time><extensions><speed>1.092100</speed><course>262.654938</course><hAcc>0.888267</hAcc><vAcc>0.714322</vAcc></extensions></trkpt>
      <trkpt lon="-4.158656" lat="53.023977"><ele>349.375061</ele><time>2021-07-17T13:20:07Z</time><extensions><speed>1.092470</speed><course>262.654938</course><hAcc>0.888216</hAcc><vAcc>0.714137</vAcc></extensions></trkpt>
      <trkpt lon="-4.158651" lat="53.023986"><ele>349.192993</ele><time>2021-07-17T13:20:08Z</time><extensions><speed>1.088959</speed><course>262.654938</course><hAcc>0.888134</hAcc><vAcc>0.713839</vAcc></extensions></trkpt>
      <trkpt lon="-4.158646" lat="53.023995"><ele>349.013306</ele><time>2021-07-17T13:20:09Z</time><extensions><speed>1.081792</speed><course>262.654938</course><hAcc>0.888025</hAcc><vAcc>0.713439</vAcc></extensions></trkpt>
      <trkpt lon="-4.158641" lat="53.024004"><ele>348.835754</ele><time>2021-07-17T13:20:10Z</time><extensions><speed>1.072005</speed><course>262.654938</course><hAcc>0.887896</hAcc><vAcc>0.712956</vAcc></extensions></trkpt>
      <trkpt lon="-4.158635" lat="53.024013"><ele>348.658844</ele><time>2021-07-17T13:20:11Z</time><extensions><speed>1.060804</speed><course>262.654938</course><hAcc>0.887753</hAcc><vAcc>0.712413</vAcc></extensions></trkpt>
      <trkpt lon="-4.158630" lat="53.024022"><ele>348.480072</ele><time>2021-07-17T13:20:12Z</time><extensions><speed>1.049380</speed><course>262.654938</course><hAcc>0.887603</hAcc><vAcc>0.711845</vAcc></extensions></trkpt>
      <trkpt lon="-4.158625" lat="53.024031"><ele>348.297638</ele><time>2021-07-17T13:20:13Z</time><extensions><speed>1.038672</speed><course>262.654938</course><hAcc>0.887453</hAcc><vAcc>0.711286</vAcc></extensions></trkpt>
      <trkpt lon="-4.158620" lat="53.024040"><ele>348.110840</ele><time>2021-07-17T13:20:14Z</time><extensions><speed>1.029398</speed><course>262.654938</course><hAcc>0.887311</hAcc><vAcc>0.710766</vAcc></extensions></trkpt>
      <trkpt lon="-4.158615" lat="53.024049"><ele>347.919708</ele><time>2021-07-17T13:20:15Z</time><extensions><speed>1.021849</speed><course>262.654938</course><hAcc>0.887183</hAcc><vAcc>0.710305</vAcc></extensions></trkpt>
      <trkpt lon="-4.158610" lat="53.024057"><ele>347.725433</ele><time>2021-07-17T13:20:16Z</time><extensions><speed>1.016371</speed><course>262.654938</course><hAcc>0.887075</hAcc><vAcc>0.709920</vAcc></extensions></trkpt>
      <trkpt lon="-4.158606" lat="53.024066"><ele>347.529999</ele><time>2021-07-17T13:20:17Z</time><extensions><speed>1.013436</speed><course>262.654938</course><hAcc>0.886988</hAcc><vAcc>0.709624</vAcc></extensions></trkpt>
      <trkpt lon="-4.158601" lat="53.024075"><ele>347.335083</ele><time>2021-07-17T13:20:18Z</time><extensions><speed>1.013310</speed><course>262.654938</course><hAcc>0.886927</hAcc><vAcc>0.709426</vAcc></extensions></trkpt>
      <trkpt lon="-4.158596" lat="53.024083"><ele>347.141541</ele><time>2021-07-17T13:20:19Z</time><extensions><speed>1.016236</speed><course>262.654938</course><hAcc>0.886891</hAcc><vAcc>0.709328</vAcc></extensions></trkpt>
      <trkpt lon="-4.158592" lat="53.024092"><ele>346.949524</ele><time>2021-07-17T13:20:20Z</time><extensions><speed>1.022483</speed><course>262.654938</course><hAcc>0.886877</hAcc><vAcc>0.709324</vAcc></extensions></trkpt>
      <trkpt lon="-4.158587" lat="53.024101"><ele>346.759369</ele><time>2021-07-17T13:20:21Z</time><extensions><speed>1.031946</speed><course>262.654938</course><hAcc>0.886883</hAcc><vAcc>0.709406</vAcc></extensions></trkpt>
      <trkpt lon="-4.158582" lat="53.024110"><ele>346.571655</ele><time>2021-07-17T13:20:22Z</time><extensions><speed>1.043678</speed><course>262.654938</course><hAcc>0.886904</hAcc><vAcc>0.709557</vAcc></extensions></trkpt>
      <trkpt lon="-4.158577" lat="53.024119"><ele>346.386688</ele><time>2021-07-17T13:20:23Z</time><extensions><speed>1.056578</speed><course>262.654938</course><hAcc>0.886933</hAcc><vAcc>0.709748</vAcc></extensions></trkpt>
      <trkpt lon="-4.158572" lat="53.024128"><ele>346.204834</ele><time>2021-07-17T13:20:24Z</time><extensions><speed>1.069778</speed><course>262.654938</course><hAcc>0.886965</hAcc><vAcc>0.709945</vAcc></extensions></trkpt>
      <trkpt lon="-4.158567" lat="53.024137"><ele>346.026642</ele><time>2021-07-17T13:20:25Z</time><extensions><speed>1.082314</speed><course>262.654938</course><hAcc>0.886994</hAcc><vAcc>0.710118</vAcc></extensions></trkpt>
      <trkpt lon="-4.158561" lat="53.024146"><ele>345.852814</ele><time>2021-07-17T13:20:26Z</time><extensions><speed>1.093594</speed><course>262.654938</course><hAcc>0.887015</hAcc><vAcc>0.710240</vAcc></extensions></trkpt>
      <trkpt lon="-4.158556" lat="53.024155"><ele>345.683868</ele><time>2021-07-17T13:20:27Z</time><extensions><speed>1.103552</speed><course>262.654938</course><hAcc>0.887024</hAcc><vAcc>0.710290</vAcc></extensions></trkpt>
      <trkpt lon="-4.158550" lat="53.024165"><ele>345.520294</ele><time>2021-07-17T13:20:28Z</time><extensions><speed>1.112363</speed><course>262.654938</course><hAcc>0.887020</hAcc><vAcc>0.710259</vAcc></extensions></trkpt>
      <trkpt lon="-4.158545" lat="53.024174"><ele>345.362701</ele><time>2021-07-17T13:20:29Z</time><extensions><speed>1.120521</speed><course>262.654938</course><hAcc>0.887002</hAcc><vAcc>0.710151</vAcc></extensions></trkpt>
      <trkpt lon="-4.158539" lat="53.024184"><ele>345.211273</ele><time>2021-07-17T13:20:30Z</time><extensions><speed>1.128379</speed><course>262.654938</course><hAcc>0.886971</hAcc><vAcc>0.709987</vAcc></extensions></trkpt>
      <trkpt lon="-4.158533" lat="53.024193"><ele>345.064606</ele><time>2021-07-17T13:20:31Z</time><extensions><speed>1.136175</speed><course>262.654938</course><hAcc>0.886930</hAcc><vAcc>0.709790</vAcc></extensions></trkpt>
      <trkpt lon="-4.158527" lat="53.024203"><ele>344.919708</ele><time>2021-07-17T13:20:32Z</time><extensions><speed>1.143973</speed><course>262.654938</course><hAcc>0.886880</hAcc><vAcc>0.709579</vAcc></extensions></trkpt>
      <trkpt lon="-4.158520" lat="53.024212"><ele>344.773926</ele><time>2021-07-17T13:20:33Z</time><extensions><speed>1.151678</speed><course>262.654938</course><hAcc>0.886826</hAcc><vAcc>0.709368</vAcc></extensions></trkpt>
      <trkpt lon="-4.158514" lat="53.024222"><ele>344.625702</ele><time>2021-07-17T13:20:34Z</time><extensions><speed>1.159050</speed><course>262.654938</course><hAcc>0.886772</hAcc><vAcc>0.709168</vAcc></extensions></trkpt>
      <trkpt lon="-4.158507" lat="53.024231"><ele>344.473724</ele><time>2021-07-17T13:20:35Z</time><extensions><speed>1.165902</speed><course>262.654938</course><hAcc>0.886722</hAcc><vAcc>0.708984</vAcc></extensions></trkpt>
      <trkpt lon="-4.158500" lat="53.024241"><ele>344.316589</ele><time>2021-07-17T13:20:36Z</time><extensions><speed>1.172310</speed><course>262.654938</course><hAcc>0.886680</hAcc><vAcc>0.708825</vAcc></extensions></trkpt>
      <trkpt lon="-4.158492" lat="53.024250"><ele>344.153229</ele><time>2021-07-17T13:20:37Z</time><extensions><speed>1.178170</speed><course>262.654938</course><hAcc>0.886648</hAcc><vAcc>0.708697</vAcc></extensions></trkpt>
      <trkpt lon="-4.158484" lat="53.024260"><ele>343.982849</ele><time>2021-07-17T13:20:38Z</time><extensions><speed>1.182915</speed><course>262.654938</course><hAcc>0.886630</hAcc><vAcc>0.708613</vAcc></extensions></trkpt>
      <trkpt lon="-4.158476" lat="53.024269"><ele>343.805237</ele><time>2021-07-17T13:20:39Z</time><extensions><speed>1.185825</speed><course>262.654938</course><hAcc>0.886627</hAcc><vAcc>0.708583</vAcc></extensions></trkpt>
      <trkpt lon="-4.158468" lat="53.024279"><ele>343.621185</ele><time>2021-07-17T13:20:40Z</time><extensions><speed>1.186513</speed><course>262.654938</course><hAcc>0.886640</hAcc><vAcc>0.708620</vAcc></extensions></trkpt>
      <trkpt lon="-4.158460" lat="53.024288"><ele>343.431519</ele><time>2021-07-17T13:20:41Z</time><extensions><speed>1.184815</speed><course>262.654938</course><hAcc>0.886669</hAcc><vAcc>0.708729</vAcc></extensions></trkpt>
      <trkpt lon="-4.158452" lat="53.024298"><ele>343.237274</ele><time>2021-07-17T13:20:42Z</time><extensions><speed>1.180690</speed><course>262.654938</course><hAcc>0.886713</hAcc><vAcc>0.708909</vAcc></extensions></trkpt>
      <trkpt lon="-4.158445" lat="53.024307"><ele>343.039520</ele><time>2021-07-17T13:20:43Z</time><extensions><speed>1.174579</speed><course>262.654938</course><hAcc>0.886771</hAcc><vAcc>0.709147</vAcc></extensions></trkpt>
      <trkpt lon="-4.158437" lat="53.024317"><ele>342.839020</ele><time>2021-07-17T13:20:44Z</time><extensions><speed>1.167131</speed><course>262.654938</course><hAcc>0.886842</hAcc><vAcc>0.709421</vAcc></extensions></trkpt>
      <trkpt lon="-4.158430" lat="53.024327"><ele>342.635529</ele><time>2021-07-17T13:20:45Z</time><extensions><speed>1.158916</speed><course>262.654938</course><hAcc>0.886923</hAcc><vAcc>0.709713</vAcc></extensions></trkpt>
      <trkpt lon="-4.158424" lat="53.024336"><ele>342.427704</ele><time>2021-07-17T13:20:46Z</time><extensions><speed>1.150588</speed><course>262.654938</course><hAcc>0.887012</hAcc><vAcc>0.710009</vAcc></extensions></trkpt>
      <trkpt lon="-4.158419" lat="53.024346"><ele>342.214355</ele><time>2021-07-17T13:20:47Z</time><extensions><speed>1.142268</speed><course>262.654938</course><hAcc>0.887109</hAcc><vAcc>0.710304</vAcc></extensions></trkpt>
      <trkpt lon="-4.158414" lat="53.024356"><ele>341.995453</ele><time>2021-07-17T13:20:48Z</time><extensions><speed>1.133364</speed><course>262.654938</course><hAcc>0.887213</hAcc><vAcc>0.710600</vAcc></extensions></trkpt>
      <trkpt lon="-4.158409" lat="53.024366"><ele>341.771820</ele><time>2021-07-17T13:20:49Z</time><extensions><speed>1.123620</speed><course>262.654938</course><hAcc>0.887322</hAcc><vAcc>0.710904</vAcc></extensions></trkpt>
      <trkpt lon="-4.158406" lat="53.024375"><ele>341.544525</ele><time>2021-07-17T13:20:50Z</time><extensions><speed>1.113265</speed><course>262.654938</course><hAcc>0.887435</hAcc><vAcc>0.711231</vAcc></extensions></trkpt>
      <trkpt lon="-4.158403" lat="53.024385"><ele>341.315125</ele><time>2021-07-17T13:20:51Z</time><extensions><speed>1.102392</speed><course>262.654938</course><hAcc>0.887552</hAcc><vAcc>0.711594</vAcc></extensions></trkpt>
      <trkpt lon="-4.158401" lat="53.024395"><ele>341.085693</ele><time>2021-07-17T13:20:52Z</time><extensions><speed>1.090531</speed><course>262.654938</course><hAcc>0.887670</hAcc><vAcc>0.711998</vAcc></extensions></trkpt>
      <trkpt lon="-4.158399" lat="53.024405"><ele>340.858917</ele><time>2021-07-17T13:20:53Z</time><extensions><speed>1.076855</speed><course>262.654938</course><hAcc>0.887787</hAcc><vAcc>0.712433</vAcc></extensions></trkpt>
      <trkpt lon="-4.158398" lat="53.024414"><ele>340.638000</ele><time>2021-07-17T13:20:54Z</time><extensions><speed>1.060540</speed><course>262.654938</course><hAcc>0.887901</hAcc><vAcc>0.712876</vAcc></extensions></trkpt>
      <trkpt lon="-4.158398" lat="53.024424"><ele>340.426239</ele><time>2021-07-17T13:20:55Z</time><extensions><speed>1.040904</speed><course>209.646423</course><hAcc>0.888007</hAcc><vAcc>0.713296</vAcc></extensions></trkpt>
      <trkpt lon="-4.158398" lat="53.024433"><ele>340.226593</ele><time>2021-07-17T13:20:56Z</time><extensions><speed>1.017384</speed><course>207.502853</course><hAcc>0.888104</hAcc><vAcc>0.713664</vAcc></extensions></trkpt>
      <trkpt lon="-4.158399" lat="53.024442"><ele>340.041382</ele><time>2021-07-17T13:20:57Z</time><extensions><speed>0.989695</speed><course>210.649872</course><hAcc>0.888187</hAcc><vAcc>0.713960</vAcc></extensions></trkpt>
      <trkpt lon="-4.158400" lat="53.024451"><ele>339.872284</ele><time>2021-07-17T13:20:58Z</time><extensions><speed>0.957976</speed><course>218.307190</course><hAcc>0.888254</hAcc><vAcc>0.714174</vAcc></extensions></trkpt>
      <trkpt lon="-4.158401" lat="53.024459"><ele>339.720123</ele><time>2021-07-17T13:20:59Z</time><extensions><speed>0.922757</speed><course>221.774033</course><hAcc>0.888304</hAcc><vAcc>0.714309</vAcc></extensions></trkpt>
      <trkpt lon="-4.158403" lat="53.024467"><ele>339.584747</ele><time>2021-07-17T13:21:00Z</time><extensions><speed>0.884411</speed><course>225.071381</course><hAcc>0.888335</hAcc><vAcc>0.714374</vAcc></extensions></trkpt>
      <trkpt lon="-4.158405" lat="53.024475"><ele>339.465820</ele><time>2021-07-17T13:21:01Z</time><extensions><speed>0.843066</speed><course>229.682953</course><hAcc>0.888347</hAcc><vAcc>0.714379</vAcc></extensions></trkpt>
      <trkpt lon="-4.158407" lat="53.024482"><ele>339.363159</ele><time>2021-07-17T13:21:02Z</time><extensions><speed>0.799155</speed><course>228.187271</course><hAcc>0.888341</hAcc><vAcc>0.714332</vAcc></extensions></trkpt>
      <trkpt lon="-4.158409" lat="53.024489"><ele>339.276581</ele><time>2021-07-17T13:21:03Z</time><extensions><speed>0.753837</speed><course>224.821243</course><hAcc>0.888321</hAcc><vAcc>0.714240</vAcc></extensions></trkpt>
      <trkpt lon="-4.158411" lat="53.024495"><ele>339.205322</ele><time>2021-07-17T13:21:04Z</time><extensions><speed>0.709093</speed><course>222.757462</course><hAcc>0.888290</hAcc><vAcc>0.714109</vAcc></extensions></trkpt>
      <trkpt lon="-4.158412" lat="53.024501"><ele>339.147949</ele><time>2021-07-17T13:21:05Z</time><extensions><speed>0.666879</speed><course>223.047150</course><hAcc>0.888251</hAcc><vAcc>0.713947</vAcc></extensions></trkpt>
      <trkpt lon="-4.158414" lat="53.024507"><ele>339.102753</ele><time>2021-07-17T13:21:06Z</time><extensions><speed>0.629013</speed><course>218.695862</course><hAcc>0.888209</hAcc><vAcc>0.713762</vAcc></extensions></trkpt>
      <trkpt lon="-4.158416" lat="53.024513"><ele>339.068024</ele><time>2021-07-17T13:21:07Z</time><extensions><speed>0.597374</speed><course>216.351273</course><hAcc>0.888168</hAcc><vAcc>0.713568</vAcc></extensions></trkpt>
      <trkpt lon="-4.158417" lat="53.024518"><ele>339.042053</ele><time>2021-07-17T13:21:08Z</time><extensions><speed>0.573720</speed><course>219.658188</course><hAcc>0.888132</hAcc><vAcc>0.713381</vAcc></extensions></trkpt>
      <trkpt lon="-4.158419" lat="53.024523"><ele>339.022949</ele><time>2021-07-17T13:21:09Z</time><extensions><speed>0.559288</speed><course>221.748871</course><hAcc>0.888106</hAcc><vAcc>0.713223</vAcc></extensions></trkpt>
      <trkpt lon="-4.158421" lat="53.024528"><ele>339.008728</ele><time>2021-07-17T13:21:10Z</time><extensions><speed>0.554488</speed><course>225.723022</course><hAcc>0.888091</hAcc><vAcc>0.713114</vAcc></extensions></trkpt>
      <trkpt lon="-4.158424" lat="53.024532"><ele>338.997345</ele><time>2021-07-17T13:21:11Z</time><extensions><speed>0.559144</speed><course>227.303833</course><hAcc>0.888089</hAcc><vAcc>0.713067</vAcc></extensions></trkpt>
      <trkpt lon="-4.158426" lat="53.024537"><ele>338.987061</ele><time>2021-07-17T13:21:12Z</time><extensions><speed>0.572375</speed><course>225.742310</course><hAcc>0.888085</hAcc><vAcc>0.713074</vAcc></extensions></trkpt>
      <trkpt lon="-4.158430" lat="53.024542"><ele>338.976318</ele><time>2021-07-17T13:21:13Z</time><extensions><speed>0.592364</speed><course>225.742310</course><hAcc>0.888076</hAcc><vAcc>0.713128</vAcc></extensions></trkpt>
      <trkpt lon="-4.158434" lat="53.024547"><ele>338.963745</ele><time>2021-07-17T13:21:14Z</time><extensions><speed>0.616730</speed><course>225.742325</course><hAcc>0.888079</hAcc><vAcc>0.713223</vAcc></extensions></trkpt>
      <trkpt lon="-4.158438" lat="53.024552"><ele>338.948059</ele><time>2021-07-17T13:21:15Z</time><extensions><speed>0.642701</speed><course>225.742325</course><hAcc>0.888091</hAcc><vAcc>0.713340</vAcc></extensions></trkpt>
      <trkpt lon="-4.158444" lat="53.024557"><ele>338.928101</ele><time>2021-07-17T13:21:16Z</time><extensions><speed>0.667389</speed><course>225.742325</course><hAcc>0.888108</hAcc><vAcc>0.713460</vAcc></extensions></trkpt>
      <trkpt lon="-4.158449" lat="53.024562"><ele>338.903015</ele><time>2021-07-17T13:21:17Z</time><extensions><speed>0.688252</speed><course>224.360504</course><hAcc>0.888129</hAcc><vAcc>0.713570</vAcc></extensions></trkpt>
      <trkpt lon="-4.158456" lat="53.024567"><ele>338.872131</ele><time>2021-07-17T13:21:18Z</time><extensions><speed>0.703280</speed><course>231.374908</course><hAcc>0.888149</hAcc><vAcc>0.713661</vAcc></extensions></trkpt>
      <trkpt lon="-4.158463" lat="53.024571"><ele>338.835144</ele><time>2021-07-17T13:21:19Z</time><extensions><speed>0.711141</speed><course>226.234039</course><hAcc>0.888169</hAcc><vAcc>0.713730</vAcc></extensions></trkpt>
      <trkpt lon="-4.158470" lat="53.024576"><ele>338.791931</ele><time>2021-07-17T13:21:20Z</time><extensions><speed>0.711339</speed><course>228.443588</course><hAcc>0.888187</hAcc><vAcc>0.713777</vAcc></extensions></trkpt>
      <trkpt lon="-4.158477" lat="53.024581"><ele>338.742371</ele><time>2021-07-17T13:21:21Z</time><extensions><speed>0.703952</speed><course>217.150848</course><hAcc>0.888205</hAcc><vAcc>0.713806</vAcc></extensions></trkpt>
      <trkpt lon="-4.158484" lat="53.024585"><ele>338.686584</ele><time>2021-07-17T13:21:22Z</time><extensions><speed>0.689603</speed><course>214.670395</course><hAcc>0.888225</hAcc><vAcc>0.713825</vAcc></extensions></trkpt>
      <trkpt lon="-4.158491" lat="53.024590"><ele>338.624756</ele><time>2021-07-17T13:21:23Z</time><extensions><speed>0.669029</speed><course>219.066208</course><hAcc>0.888251</hAcc><vAcc>0.713848</vAcc></extensions></trkpt>
      <trkpt lon="-4.158498" lat="53.024594"><ele>338.557190</ele><time>2021-07-17T13:21:24Z</time><extensions><speed>0.642584</speed><course>218.042282</course><hAcc>0.888284</hAcc><vAcc>0.713889</vAcc></extensions></trkpt>
      <trkpt lon="-4.158505" lat="53.024598"><ele>338.484161</ele><time>2021-07-17T13:21:25Z</time><extensions><speed>0.610885</speed><course>220.994385</course><hAcc>0.888330</hAcc><vAcc>0.713969</vAcc></extensions></trkpt>
      <trkpt lon="-4.158512" lat="53.024601"><ele>338.405945</ele><time>2021-07-17T13:21:26Z</time><extensions><speed>0.575374</speed><course>227.746307</course><hAcc>0.888391</hAcc><vAcc>0.714106</vAcc></extensions></trkpt>
      <trkpt lon="-4.158518" lat="53.024605"><ele>338.322876</ele><time>2021-07-17T13:21:27Z</time><extensions><speed>0.537818</speed><course>224.855316</course><hAcc>0.888468</hAcc><vAcc>0.714319</vAcc></extensions></trkpt>
      <trkpt lon="-4.158523" lat="53.024608"><ele>338.235657</ele><time>2021-07-17T13:21:28Z</time><extensions><speed>0.499364</speed><course>223.584900</course><hAcc>0.888562</hAcc><vAcc>0.714618</vAcc></extensions></trkpt>
      <trkpt lon="-4.158529" lat="53.024611"><ele>338.145355</ele><time>2021-07-17T13:21:29Z</time><extensions><speed>0.460606</speed><course>224.383530</course><hAcc>0.888672</hAcc><vAcc>0.715007</vAcc></extensions></trkpt>
      <trkpt lon="-4.158533" lat="53.024614"><ele>338.053406</ele><time>2021-07-17T13:21:30Z</time><extensions><speed>0.422162</speed><course>225.716217</course><hAcc>0.888795</hAcc><vAcc>0.715475</vAcc></extensions></trkpt>
      <trkpt lon="-4.158538" lat="53.024616"><ele>337.961334</ele><time>2021-07-17T13:21:31Z</time><extensions><speed>0.384466</speed><course>229.189102</course><hAcc>0.888928</hAcc><vAcc>0.716001</vAcc></extensions></trkpt>
      <trkpt lon="-4.158542" lat="53.024618"><ele>337.870667</ele><time>2021-07-17T13:21:32Z</time><extensions><speed>0.347321</speed><course>224.817474</course><hAcc>0.889065</hAcc><vAcc>0.716552</vAcc></extensions></trkpt>
      <trkpt lon="-4.158546" lat="53.024620"><ele>337.782990</ele><time>2021-07-17T13:21:33Z</time><extensions><speed>0.310904</speed><course>225.227936</course><hAcc>0.889201</hAcc><vAcc>0.717098</vAcc></extensions></trkpt>
      <trkpt lon="-4.158549" lat="53.024622"><ele>337.699768</ele><time>2021-07-17T13:21:34Z</time><extensions><speed>0.275899</speed><course>228.251373</course><hAcc>0.889330</hAcc><vAcc>0.717606</vAcc></extensions></trkpt>
      <trkpt lon="-4.158552" lat="53.024623"><ele>337.622406</ele><time>2021-07-17T13:21:35Z</time><extensions><speed>0.242824</speed><course>230.721024</course><hAcc>0.889446</hAcc><vAcc>0.718051</vAcc></extensions></trkpt>
      <trkpt lon="-4.158555" lat="53.024624"><ele>337.551849</ele><time>2021-07-17T13:21:36Z</time><extensions><speed>0.212067</speed><course>234.697540</course><hAcc>0.889544</hAcc><vAcc>0.718409</vAcc></extensions></trkpt>
      <trkpt lon="-4.158557" lat="53.024625"><ele>337.488708</ele><time>2021-07-17T13:21:37Z</time><extensions><speed>0.183729</speed><course>236.619934</course><hAcc>0.889622</hAcc><vAcc>0.718671</vAcc></extensions></trkpt>
      <trkpt lon="-4.158559" lat="53.024626"><ele>337.433167</ele><time>2021-07-17T13:21:38Z</time><extensions><speed>0.157823</speed><course>247.542679</course><hAcc>0.889677</hAcc><vAcc>0.718834</vAcc></extensions></trkpt>
      <trkpt lon="-4.158561" lat="53.024627"><ele>337.385223</ele><time>2021-07-17T13:21:39Z</time><extensions><speed>0.134169</speed><course>242.855072</course><hAcc>0.889706</hAcc><vAcc>0.718906</vAcc></extensions></trkpt>
      <trkpt lon="-4.158562" lat="53.024628"><ele>337.344574</ele><time>2021-07-17T13:21:40Z</time><extensions><speed>0.112739</speed><course>241.397278</course><hAcc>0.889710</hAcc><vAcc>0.718895</vAcc></extensions></trkpt>
      <trkpt lon="-4.158563" lat="53.024629"><ele>337.310669</ele><time>2021-07-17T13:21:41Z</time><extensions><speed>0.093776</speed><course>241.667068</course><hAcc>0.889708</hAcc><vAcc>0.718827</vAcc></extensions></trkpt>
      <trkpt lon="-4.158564" lat="53.024629"><ele>337.282532</ele><time>2021-07-17T13:21:42Z</time><extensions><speed>0.077246</speed><course>241.132874</course><hAcc>0.889701</hAcc><vAcc>0.718719</vAcc></extensions></trkpt>
      <trkpt lon="-4.158565" lat="53.024630"><ele>337.259277</ele><time>2021-07-17T13:21:43Z</time><extensions><speed>0.063050</speed><course>242.509506</course><hAcc>0.889674</hAcc><vAcc>0.718572</vAcc></extensions></trkpt>
      <trkpt lon="-4.158565" lat="53.024630"><ele>337.239838</ele><time>2021-07-17T13:21:44Z</time><extensions><speed>0.051015</speed><course>242.195404</course><hAcc>0.889628</hAcc><vAcc>0.718399</vAcc></extensions></trkpt>
      <trkpt lon="-4.158565" lat="53.024631"><ele>337.223236</ele><time>2021-07-17T13:21:45Z</time><extensions><speed>0.041151</speed><course>244.443573</course><hAcc>0.889565</hAcc><vAcc>0.718201</vAcc></extensions></trkpt>
      <trkpt lon="-4.158565" lat="53.024631"><ele>337.208618</ele><time>2021-07-17T13:21:46Z</time><extensions><speed>0.034439</speed><course>246.780472</course><hAcc>0.889487</hAcc><vAcc>0.717976</vAcc></extensions></trkpt>
      <trkpt lon="-4.158565" lat="53.024631"><ele>337.195343</ele><time>2021-07-17T13:21:47Z</time><extensions><speed>0.033959</speed><course>247.423477</course><hAcc>0.889391</hAcc><vAcc>0.717718</vAcc></extensions></trkpt>
      <trkpt lon="-4.158564" lat="53.024631"><ele>337.182983</ele><time>2021-07-17T13:21:48Z</time><extensions><speed>0.043132</speed><course>252.345490</course><hAcc>0.889277</hAcc><vAcc>0.717415</vAcc></extensions></trkpt>
      <trkpt lon="-4.158564" lat="53.024631"><ele>337.171265</ele><time>2021-07-17T13:21:48Z</time><extensions><speed>0.061616</speed><course>252.366760</course><hAcc>0.889161</hAcc><vAcc>0.717068</vAcc></extensions></trkpt>
      <trkpt lon="-4.158563" lat="53.024631"><ele>337.160156</ele><time>2021-07-17T13:21:49Z</time><extensions><speed>0.087439</speed><course>254.889893</course><hAcc>0.889042</hAcc><vAcc>0.716664</vAcc></extensions></trkpt>
      <trkpt lon="-4.158561" lat="53.024631"><ele>337.149811</ele><time>2021-07-17T13:21:51Z</time><extensions><speed>0.119469</speed><course>257.492432</course><hAcc>0.888879</hAcc><vAcc>0.716168</vAcc></extensions></trkpt>
      <trkpt lon="-4.158559" lat="53.024631"><ele>337.140503</ele><time>2021-07-17T13:21:52Z</time><extensions><speed>0.157135</speed><course>255.728439</course><hAcc>0.888672</hAcc><vAcc>0.715573</vAcc></extensions></trkpt>
      <trkpt lon="-4.158557" lat="53.024630"><ele>337.132751</ele><time>2021-07-17T13:21:53Z</time><extensions><speed>0.200115</speed><course>258.375061</course><hAcc>0.888435</hAcc><vAcc>0.714884</vAcc></extensions></trkpt>
      <trkpt lon="-4.158553" lat="53.024630"><ele>337.127350</ele><time>2021-07-17T13:21:54Z</time><extensions><speed>0.248074</speed><course>260.722260</course><hAcc>0.888165</hAcc><vAcc>0.714093</vAcc></extensions></trkpt>
      <trkpt lon="-4.158550" lat="53.024629"><ele>337.125366</ele><time>2021-07-17T13:21:54Z</time><extensions><speed>0.300094</speed><course>260.722260</course><hAcc>0.887879</hAcc><vAcc>0.713208</vAcc></extensions></trkpt>
      <trkpt lon="-4.158545" lat="53.024628"><ele>337.127991</ele><time>2021-07-17T13:21:55Z</time><extensions><speed>0.354393</speed><course>260.722260</course><hAcc>0.887575</hAcc><vAcc>0.712224</vAcc></extensions></trkpt>
      <trkpt lon="-4.158540" lat="53.024626"><ele>337.136475</ele><time>2021-07-17T13:21:56Z</time><extensions><speed>0.407827</speed><course>260.722260</course><hAcc>0.887238</hAcc><vAcc>0.711136</vAcc></extensions></trkpt>
      <trkpt lon="-4.158534" lat="53.024625"><ele>337.152466</ele><time>2021-07-17T13:21:57Z</time><extensions><speed>0.457072</speed><course>260.722260</course><hAcc>0.886870</hAcc><vAcc>0.709953</vAcc></extensions></trkpt>
      <trkpt lon="-4.158528" lat="53.024623"><ele>337.177948</ele><time>2021-07-17T13:21:58Z</time><extensions><speed>0.499263</speed><course>260.722260</course><hAcc>0.886476</hAcc><vAcc>0.708683</vAcc></extensions></trkpt>
      <trkpt lon="-4.158521" lat="53.024621"><ele>337.215393</ele><time>2021-07-17T13:21:59Z</time><extensions><speed>0.532156</speed><course>260.722260</course><hAcc>0.886065</hAcc><vAcc>0.707337</vAcc></extensions></trkpt>
      <trkpt lon="-4.158514" lat="53.024618"><ele>337.266876</ele><time>2021-07-17T13:22:00Z</time><extensions><speed>0.555025</speed><course>260.722229</course><hAcc>0.885644</hAcc><vAcc>0.705929</vAcc></extensions></trkpt>
      <trkpt lon="-4.158506" lat="53.024616"><ele>337.332672</ele><time>2021-07-17T13:22:01Z</time><extensions><speed>0.568580</speed><course>268.575928</course><hAcc>0.885227</hAcc><vAcc>0.704487</vAcc></extensions></trkpt>
      <trkpt lon="-4.158499" lat="53.024613"><ele>337.411224</ele><time>2021-07-17T13:22:02Z</time><extensions><speed>0.573848</speed><course>268.685822</course><hAcc>0.884825</hAcc><vAcc>0.703058</vAcc></extensions></trkpt>
      <trkpt lon="-4.158492" lat="53.024610"><ele>337.500244</ele><time>2021-07-17T13:22:03Z</time><extensions><speed>0.571964</speed><course>264.169769</course><hAcc>0.884454</hAcc><vAcc>0.701705</vAcc></extensions></trkpt>
      <trkpt lon="-4.158485" lat="53.024607"><ele>337.597290</ele><time>2021-07-17T13:22:04Z</time><extensions><speed>0.564363</speed><course>272.216278</course><hAcc>0.884126</hAcc><vAcc>0.700501</vAcc></extensions></trkpt>
      <trkpt lon="-4.158479" lat="53.024604"><ele>337.699585</ele><time>2021-07-17T13:22:05Z</time><extensions><speed>0.552608</speed><course>279.707916</course><hAcc>0.883855</hAcc><vAcc>0.699510</vAcc></extensions></trkpt>
      <trkpt lon="-4.158473" lat="53.024601"><ele>337.804138</ele><time>2021-07-17T13:22:06Z</time><extensions><speed>0.537994</speed><course>277.974487</course><hAcc>0.883648</hAcc><vAcc>0.698774</vAcc></extensions></trkpt>
      <trkpt lon="-4.158468" lat="53.024597"><ele>337.907837</ele><time>2021-07-17T13:22:07Z</time><extensions><speed>0.521666</speed><course>285.359497</course><hAcc>0.883513</hAcc><vAcc>0.698311</vAcc></extensions></trkpt>
      <trkpt lon="-4.158463" lat="53.024594"><ele>338.007629</ele><time>2021-07-17T13:22:08Z</time><extensions><speed>0.504650</speed><course>288.896698</course><hAcc>0.883448</hAcc><vAcc>0.698113</vAcc></extensions></trkpt>
      <trkpt lon="-4.158459" lat="53.024590"><ele>338.100952</ele><time>2021-07-17T13:22:09Z</time><extensions><speed>0.487789</speed><course>285.949463</course><hAcc>0.883453</hAcc><vAcc>0.698159</vAcc></extensions></trkpt>
      <trkpt lon="-4.158455" lat="53.024586"><ele>338.185913</ele><time>2021-07-17T13:22:10Z</time><extensions><speed>0.471320</speed><course>279.328217</course><hAcc>0.883521</hAcc><vAcc>0.698420</vAcc></extensions></trkpt>
      <trkpt lon="-4.158452" lat="53.024582"><ele>338.261017</ele><time>2021-07-17T13:22:12Z</time><extensions><speed>0.455053</speed><course>280.252258</course><hAcc>0.883628</hAcc><vAcc>0.698852</vAcc></extensions></trkpt>
      <trkpt lon="-4.158450" lat="53.024579"><ele>338.324921</ele><time>2021-07-17T13:22:13Z</time><extensions><speed>0.439069</speed><course>280.968384</course><hAcc>0.883762</hAcc><vAcc>0.699415</vAcc></extensions></trkpt>
      <trkpt lon="-4.158448" lat="53.024575"><ele>338.377167</ele><time>2021-07-17T13:22:14Z</time><extensions><speed>0.423168</speed><course>279.577759</course><hAcc>0.883932</hAcc><vAcc>0.700081</vAcc></extensions></trkpt>
      <trkpt lon="-4.158447" lat="53.024571"><ele>338.417786</ele><time>2021-07-17T13:22:15Z</time><extensions><speed>0.406763</speed><course>280.039124</course><hAcc>0.884126</hAcc><vAcc>0.700806</vAcc></extensions></trkpt>
      <trkpt lon="-4.158446" lat="53.024568"><ele>338.447205</ele><time>2021-07-17T13:22:16Z</time><extensions><speed>0.389055</speed><course>285.588440</course><hAcc>0.884338</hAcc><vAcc>0.701545</vAcc></extensions></trkpt>
      <trkpt lon="-4.158445" lat="53.024564"><ele>338.466461</ele><time>2021-07-17T13:22:17Z</time><extensions><speed>0.369370</speed><course>287.653503</course><hAcc>0.884561</hAcc><vAcc>0.702260</vAcc></extensions></trkpt>
      <trkpt lon="-4.158444" lat="53.024561"><ele>338.476929</ele><time>2021-07-17T13:22:18Z</time><extensions><speed>0.347615</speed><course>285.239563</course><hAcc>0.884796</hAcc><vAcc>0.702920</vAcc></extensions></trkpt>
      <trkpt lon="-4.158444" lat="53.024558"><ele>338.480103</ele><time>2021-07-17T13:22:19Z</time><extensions><speed>0.324204</speed><course>283.468018</course><hAcc>0.885048</hAcc><vAcc>0.703503</vAcc></extensions></trkpt>
      <trkpt lon="-4.158443" lat="53.024555"><ele>338.477844</ele><time>2021-07-17T13:22:20Z</time><extensions><speed>0.299825</speed><course>279.656525</course><hAcc>0.885329</hAcc><vAcc>0.703993</vAcc></extensions></trkpt>
      <trkpt lon="-4.158443" lat="53.024553"><ele>338.472412</ele><time>2021-07-17T13:22:21Z</time><extensions><speed>0.275194</speed><course>278.539093</course><hAcc>0.885655</hAcc><vAcc>0.704384</vAcc></extensions></trkpt>
      <trkpt lon="-4.158442" lat="53.024550"><ele>338.466614</ele><time>2021-07-17T13:22:22Z</time><extensions><speed>0.250815</speed><course>281.435120</course><hAcc>0.886047</hAcc><vAcc>0.704677</vAcc></extensions></trkpt>
      <trkpt lon="-4.158441" lat="53.024548"><ele>338.462616</ele><time>2021-07-17T13:22:23Z</time><extensions><speed>0.226770</speed><course>285.299316</course><hAcc>0.886527</hAcc><vAcc>0.704884</vAcc></extensions></trkpt>
      <trkpt lon="-4.158441" lat="53.024546"><ele>338.461273</ele><time>2021-07-17T13:22:24Z</time><extensions><speed>0.203386</speed><course>278.729095</course><hAcc>0.887113</hAcc><vAcc>0.705027</vAcc></extensions></trkpt>
      <trkpt lon="-4.158440" lat="53.024545"><ele>338.462036</ele><time>2021-07-17T13:22:25Z</time><extensions><speed>0.181329</speed><course>281.499542</course><hAcc>0.887811</hAcc><vAcc>0.705143</vAcc></extensions></trkpt>
      <trkpt lon="-4.158439" lat="53.024543"><ele>338.463989</ele><time>2021-07-17T13:22:26Z</time><extensions><speed>0.161078</speed><course>280.886475</course><hAcc>0.888609</hAcc><vAcc>0.705281</vAcc></extensions></trkpt>
      <trkpt lon="-4.158438" lat="53.024542"><ele>338.466583</ele><time>2021-07-17T13:22:27Z</time><extensions><speed>0.142975</speed><course>287.541565</course><hAcc>0.889468</hAcc><vAcc>0.705499</vAcc></extensions></trkpt>
      <trkpt lon="-4.158437" lat="53.024541"><ele>338.469727</ele><time>2021-07-17T13:22:28Z</time><extensions><speed>0.127009</speed><course>288.221985</course><hAcc>0.890319</hAcc><vAcc>0.705850</vAcc></extensions></trkpt>
      <trkpt lon="-4.158436" lat="53.024540"><ele>338.473145</ele><time>2021-07-17T13:22:29Z</time><extensions><speed>0.112873</speed><course>291.891876</course><hAcc>0.891080</hAcc><vAcc>0.706364</vAcc></extensions></trkpt>
      <trkpt lon="-4.158435" lat="53.024539"><ele>338.476318</ele><time>2021-07-17T13:22:30Z</time><extensions><speed>0.100307</speed><course>289.035248</course><hAcc>0.891709</hAcc><vAcc>0.707049</vAcc></extensions></trkpt>
      <trkpt lon="-4.158434" lat="53.024539"><ele>338.478790</ele><time>2021-07-17T13:22:31Z</time><extensions><speed>0.089184</speed><course>286.354584</course><hAcc>0.892235</hAcc><vAcc>0.707895</vAcc></extensions></trkpt>
      <trkpt lon="-4.158433" lat="53.024538"><ele>338.480225</ele><time>2021-07-17T13:22:32Z</time><extensions><speed>0.079249</speed><course>285.070648</course><hAcc>0.892682</hAcc><vAcc>0.708888</vAcc></extensions></trkpt>
      <trkpt lon="-4.158432" lat="53.024538"><ele>338.480316</ele><time>2021-07-17T13:22:33Z</time><extensions><speed>0.070072</speed><course>282.456329</course><hAcc>0.893025</hAcc><vAcc>0.710008</vAcc></extensions></trkpt>
      <trkpt lon="-4.158431" lat="53.024538"><ele>338.479095</ele><time>2021-07-17T13:22:34Z</time><extensions><speed>0.061284</speed><course>277.579590</course><hAcc>0.893208</hAcc><vAcc>0.711241</vAcc></extensions></trkpt>
      <trkpt lon="-4.158430" lat="53.024538"><ele>338.476776</ele><time>2021-07-17T13:22:35Z</time><extensions><speed>0.052800</speed><course>280.944580</course><hAcc>0.893226</hAcc><vAcc>0.712581</vAcc></extensions></trkpt>
      <trkpt lon="-4.158429" lat="53.024538"><ele>338.473694</ele><time>2021-07-17T13:22:36Z</time><extensions><speed>0.044746</speed><course>286.555664</course><hAcc>0.893189</hAcc><vAcc>0.714028</vAcc></extensions></trkpt>
      <trkpt lon="-4.158429" lat="53.024537"><ele>338.470184</ele><time>2021-07-17T13:22:37Z</time><extensions><speed>0.037308</speed><course>286.867188</course><hAcc>0.893254</hAcc><vAcc>0.715588</vAcc></extensions></trkpt>
      <trkpt lon="-4.158428" lat="53.024537"><ele>338.466492</ele><time>2021-07-17T13:22:38Z</time><extensions><speed>0.030636</speed><course>285.747314</course><hAcc>0.893556</hAcc><vAcc>0.717263</vAcc></extensions></trkpt>
      <trkpt lon="-4.158428" lat="53.024537"><ele>338.462799</ele><time>2021-07-17T13:22:39Z</time><extensions><speed>0.024834</speed><course>288.748718</course><hAcc>0.894188</hAcc><vAcc>0.719051</vAcc></extensions></trkpt>
      <trkpt lon="-4.158428" lat="53.024538"><ele>338.459290</ele><time>2021-07-17T13:22:40Z</time><extensions><speed>0.019965</speed><course>282.056335</course><hAcc>0.895200</hAcc><vAcc>0.720939</vAcc></extensions></trkpt>
      <trkpt lon="-4.158427" lat="53.024538"><ele>338.456024</ele><time>2021-07-17T13:22:41Z</time><extensions><speed>0.016050</speed><course>284.841522</course><hAcc>0.896597</hAcc><vAcc>0.722898</vAcc></extensions></trkpt>
      <trkpt lon="-4.158427" lat="53.024538"><ele>338.453094</ele><time>2021-07-17T13:22:42Z</time><extensions><speed>0.013068</speed><course>283.873260</course><hAcc>0.898334</hAcc><vAcc>0.724874</vAcc></extensions></trkpt>
      <trkpt lon="-4.158427" lat="53.024538"><ele>338.450562</ele><time>2021-07-17T13:22:43Z</time><extensions><speed>0.010942</speed><course>280.645142</course><hAcc>0.900314</hAcc><vAcc>0.726780</vAcc></extensions></trkpt>
      <trkpt lon="-4.158427" lat="53.024538"><ele>338.448395</ele><time>2021-07-17T13:22:44Z</time><extensions><speed>0.009529</speed><course>278.726105</course><hAcc>0.902390</hAcc><vAcc>0.728499</vAcc></extensions></trkpt>
      <trkpt lon="-4.158427" lat="53.024538"><ele>338.446594</ele><time>2021-07-17T13:22:45Z</time><extensions><speed>0.008631</speed><course>276.107971</course><hAcc>0.904370</hAcc><vAcc>0.729897</vAcc></extensions></trkpt>
      <trkpt lon="-4.158427" lat="53.024538"><ele>338.445190</ele><time>2021-07-17T13:22:46Z</time><extensions><speed>0.008044</speed><course>275.135803</course><hAcc>0.906041</hAcc><vAcc>0.730865</vAcc></extensions></trkpt>
      <trkpt lon="-4.158427" lat="53.024538"><ele>338.444092</ele><time>2021-07-17T13:22:47Z</time><extensions><speed>0.007604</speed><course>273.705627</course><hAcc>0.907225</hAcc><vAcc>0.731379</vAcc></extensions></trkpt>
      <trkpt lon="-4.158427" lat="53.024538"><ele>338.443298</ele><time>2021-07-17T13:22:48Z</time><extensions><speed>0.007214</speed><course>279.700806</course><hAcc>0.907879</hAcc><vAcc>0.731597</vAcc></extensions></trkpt>
      <trkpt lon="-4.158427" lat="53.024538"><ele>338.442780</ele><time>2021-07-17T13:22:49Z</time><extensions><speed>0.006827</speed><course>279.102997</course><hAcc>0.908262</hAcc><vAcc>0.732009</vAcc></extensions></trkpt>
      <trkpt lon="-4.158427" lat="53.024538"><ele>338.442505</ele><time>2021-07-17T13:22:50Z</time><extensions><speed>0.006430</speed><course>281.416626</course><hAcc>0.909193</hAcc><vAcc>0.733628</vAcc></extensions></trkpt>
      <trkpt lon="-4.158427" lat="53.024538"><ele>338.442413</ele><time>2021-07-17T13:22:51Z</time><extensions><speed>0.006031</speed><course>274.399658</course><hAcc>0.912403</hAcc><vAcc>0.738228</vAcc></extensions></trkpt>
      <trkpt lon="-4.158427" lat="53.024538"><ele>338.442444</ele><time>2021-07-17T13:22:52Z</time><extensions><speed>0.005647</speed><course>277.055237</course><hAcc>0.920973</hAcc><vAcc>0.748577</vAcc></extensions></trkpt>
      <trkpt lon="-4.158427" lat="53.024538"><ele>338.442627</ele><time>2021-07-17T13:22:53Z</time><extensions><speed>0.005295</speed><course>271.055908</course><hAcc>0.939733</hAcc><vAcc>0.768561</vAcc></extensions></trkpt>
      <trkpt lon="-4.158427" lat="53.024538"><ele>338.442871</ele><time>2021-07-17T13:22:54Z</time><extensions><speed>0.004993</speed><course>270.959534</course><hAcc>0.975385</hAcc><vAcc>0.803039</vAcc></extensions></trkpt>
      <trkpt lon="-4.158428" lat="53.024539"><ele>338.466064</ele><time>2021-07-17T13:22:55Z</time><extensions><speed>0.009658</speed><course>207.637573</course><hAcc>0.937642</hAcc><vAcc>0.768411</vAcc></extensions></trkpt>
      <trkpt lon="-4.158428" lat="53.024539"><ele>338.467072</ele><time>2021-07-17T13:22:56Z</time><extensions><speed>0.009400</speed><course>199.781464</course><hAcc>0.918627</hAcc><vAcc>0.748184</vAcc></extensions></trkpt>
      <trkpt lon="-4.158428" lat="53.024539"><ele>338.467682</ele><time>2021-07-17T13:22:57Z</time><extensions><speed>0.008907</speed><course>204.898392</course><hAcc>0.911154</hAcc><vAcc>0.738774</vAcc></extensions></trkpt>
      <trkpt lon="-4.158428" lat="53.024539"><ele>338.467712</ele><time>2021-07-17T13:22:58Z</time><extensions><speed>0.008107</speed><course>218.988647</course><hAcc>0.909738</hAcc><vAcc>0.735855</vAcc></extensions></trkpt>
      <trkpt lon="-4.158428" lat="53.024539"><ele>338.467010</ele><time>2021-07-17T13:22:59Z</time><extensions><speed>0.006973</speed><course>240.875916</course><hAcc>0.910899</hAcc><vAcc>0.736333</vAcc></extensions></trkpt>
      <trkpt lon="-4.158428" lat="53.024539"><ele>338.465424</ele><time>2021-07-17T13:23:00Z</time><extensions><speed>0.005690</speed><course>240.875916</course><hAcc>0.912707</hAcc><vAcc>0.738227</vAcc></extensions></trkpt>
      <trkpt lon="-4.158428" lat="53.024539"><ele>338.462708</ele><time>2021-07-17T13:23:01Z</time><extensions><speed>0.005181</speed><course>240.875916</course><hAcc>0.914273</hAcc><vAcc>0.740399</vAcc></extensions></trkpt>
      <trkpt lon="-4.158428" lat="53.024539"><ele>338.458618</ele><time>2021-07-17T13:23:02Z</time><extensions><speed>0.007118</speed><course>240.875916</course><hAcc>0.915321</hAcc><vAcc>0.742279</vAcc></extensions></trkpt>
      <trkpt lon="-4.158428" lat="53.024539"><ele>338.452972</ele><time>2021-07-17T13:23:03Z</time><extensions><speed>0.011627</speed><course>240.875916</course><hAcc>0.915888</hAcc><vAcc>0.743641</vAcc></extensions></trkpt>
      <trkpt lon="-4.158428" lat="53.024539"><ele>338.445465</ele><time>2021-07-17T13:23:04Z</time><extensions><speed>0.018140</speed><course>240.875916</course><hAcc>0.916111</hAcc><vAcc>0.744436</vAcc></extensions></trkpt>
      <trkpt lon="-4.158428" lat="53.024538"><ele>338.435883</ele><time>2021-07-17T13:23:05Z</time><extensions><speed>0.026506</speed><course>269.430084</course><hAcc>0.916111</hAcc><vAcc>0.744685</vAcc></extensions></trkpt>
      <trkpt lon="-4.158428" lat="53.024538"><ele>338.423920</ele><time>2021-07-17T13:23:06Z</time><extensions><speed>0.036757</speed><course>274.056000</course><hAcc>0.915935</hAcc><vAcc>0.744427</vAcc></extensions></trkpt>
      <trkpt lon="-4.158427" lat="53.024538"><ele>338.409363</ele><time>2021-07-17T13:23:07Z</time><extensions><speed>0.048944</speed><course>273.580658</course><hAcc>0.915551</hAcc><vAcc>0.743714</vAcc></extensions></trkpt>
      <trkpt lon="-4.158427" lat="53.024538"><ele>338.391968</ele><time>2021-07-17T13:23:08Z</time><extensions><speed>0.063067</speed><course>266.285736</course><hAcc>0.914901</hAcc><vAcc>0.742655</vAcc></extensions></trkpt>
      <trkpt lon="-4.158426" lat="53.024537"><ele>338.371582</ele><time>2021-07-17T13:23:09Z</time><extensions><speed>0.079038</speed><course>280.416809</course><hAcc>0.914008</hAcc><vAcc>0.741508</vAcc></extensions></trkpt>
      <trkpt lon="-4.158425" lat="53.024537"><ele>338.348022</ele><time>2021-07-17T13:23:10Z</time><extensions><speed>0.096636</speed><course>289.633057</course><hAcc>0.913158</hAcc><vAcc>0.740827</vAcc></extensions></trkpt>
      <trkpt lon="-4.158424" lat="53.024536"><ele>338.321320</ele><time>2021-07-17T13:23:11Z</time><extensions><speed>0.115474</speed><course>274.042023</course><hAcc>0.913170</hAcc><vAcc>0.741661</vAcc></extensions></trkpt>
      <trkpt lon="-4.158422" lat="53.024536"><ele>338.291473</ele><time>2021-07-17T13:23:12Z</time><extensions><speed>0.134946</speed><course>259.398621</course><hAcc>0.915759</hAcc><vAcc>0.745799</vAcc></extensions></trkpt>
      <trkpt lon="-4.158420" lat="53.024535"><ele>338.258667</ele><time>2021-07-17T13:23:13Z</time><extensions><speed>0.154191</speed><course>235.228027</course><hAcc>0.923979</hAcc><vAcc>0.756008</vAcc></extensions></trkpt>
      <trkpt lon="-4.158418" lat="53.024534"><ele>338.223297</ele><time>2021-07-17T13:23:14Z</time><extensions><speed>0.172040</speed><course>233.943741</course><hAcc>0.942624</hAcc><vAcc>0.776154</vAcc></extensions></trkpt>
      <trkpt lon="-4.158416" lat="53.024533"><ele>338.185852</ele><time>2021-07-17T13:23:15Z</time><extensions><speed>0.186970</speed><course>251.986771</course><hAcc>0.978345</hAcc><vAcc>0.811050</vAcc></extensions></trkpt>
      <trkpt lon="-4.158414" lat="53.024533"><ele>338.166321</ele><time>2021-07-17T13:23:16Z</time><extensions><speed>0.173917</speed><course>207.637573</course><hAcc>0.939747</hAcc><vAcc>0.775047</vAcc></extensions></trkpt>
      <trkpt lon="-4.158412" lat="53.024532"><ele>338.143646</ele><time>2021-07-17T13:23:17Z</time><extensions><speed>0.158124</speed><course>199.781464</course><hAcc>0.920054</hAcc><vAcc>0.753671</vAcc></extensions></trkpt>
      <trkpt lon="-4.158410" lat="53.024532"><ele>338.125000</ele><time>2021-07-17T13:23:18Z</time><extensions><speed>0.139461</speed><course>204.898392</course><hAcc>0.911779</hAcc><vAcc>0.743043</vAcc></extensions></trkpt>
      <trkpt lon="-4.158408" lat="53.024531"><ele>338.110596</ele><time>2021-07-17T13:23:19Z</time><extensions><speed>0.119682</speed><course>218.988647</course><hAcc>0.909423</hAcc><vAcc>0.738828</vAcc></extensions></trkpt>
      <trkpt lon="-4.158407" lat="53.024531"><ele>338.100403</ele><time>2021-07-17T13:23:20Z</time><extensions><speed>0.100189</speed><course>240.875916</course><hAcc>0.909477</hAcc><vAcc>0.737914</vAcc></extensions></trkpt>
      <trkpt lon="-4.158405" lat="53.024530"><ele>338.094299</ele><time>2021-07-17T13:23:21Z</time><extensions><speed>0.082015</speed><course>240.875916</course><hAcc>0.909975</hAcc><vAcc>0.738293</vAcc></extensions></trkpt>
      <trkpt lon="-4.158404" lat="53.024530"><ele>338.092102</ele><time>2021-07-17T13:23:22Z</time><extensions><speed>0.065915</speed><course>240.875916</course><hAcc>0.909998</hAcc><vAcc>0.738816</vAcc></extensions></trkpt>
      <trkpt lon="-4.158404" lat="53.024530"><ele>338.093719</ele><time>2021-07-17T13:23:23Z</time><extensions><speed>0.052454</speed><course>240.875916</course><hAcc>0.909265</hAcc><vAcc>0.738930</vAcc></extensions></trkpt>
      <trkpt lon="-4.158403" lat="53.024529"><ele>338.098938</ele><time>2021-07-17T13:23:24Z</time><extensions><speed>0.042101</speed><course>240.875916</course><hAcc>0.907835</hAcc><vAcc>0.738460</vAcc></extensions></trkpt>
      <trkpt lon="-4.158403" lat="53.024529"><ele>338.107513</ele><time>2021-07-17T13:23:25Z</time><extensions><speed>0.034850</speed><course>240.875916</course><hAcc>0.905917</hAcc><vAcc>0.737445</vAcc></extensions></trkpt>
      <trkpt lon="-4.158402" lat="53.024529"><ele>338.118805</ele><time>2021-07-17T13:23:26Z</time><extensions><speed>0.030289</speed><course>269.430084</course><hAcc>0.903733</hAcc><vAcc>0.736014</vAcc></extensions></trkpt>
      <trkpt lon="-4.158402" lat="53.024529"><ele>338.132233</ele><time>2021-07-17T13:23:27Z</time><extensions><speed>0.028175</speed><course>274.056000</course><hAcc>0.901500</hAcc><vAcc>0.734336</vAcc></extensions></trkpt>
      <trkpt lon="-4.158402" lat="53.024529"><ele>338.147308</ele><time>2021-07-17T13:23:28Z</time><extensions><speed>0.028284</speed><course>273.580658</course><hAcc>0.899393</hAcc><vAcc>0.732573</vAcc></extensions></trkpt>
      <trkpt lon="-4.158401" lat="53.024529"><ele>338.163818</ele><time>2021-07-17T13:23:29Z</time><extensions><speed>0.030336</speed><course>266.285736</course><hAcc>0.897514</hAcc><vAcc>0.730839</vAcc></extensions></trkpt>
      <trkpt lon="-4.158401" lat="53.024528"><ele>338.181702</ele><time>2021-07-17T13:23:30Z</time><extensions><speed>0.033991</speed><course>280.416809</course><hAcc>0.895908</hAcc><vAcc>0.729214</vAcc></extensions></trkpt>
      <trkpt lon="-4.158400" lat="53.024528"><ele>338.201019</ele><time>2021-07-17T13:23:31Z</time><extensions><speed>0.038708</speed><course>289.633057</course><hAcc>0.894586</hAcc><vAcc>0.727740</vAcc></extensions></trkpt>
      <trkpt lon="-4.158400" lat="53.024528"><ele>338.221863</ele><time>2021-07-17T13:23:32Z</time><extensions><speed>0.043858</speed><course>274.042023</course><hAcc>0.893526</hAcc><vAcc>0.726433</vAcc></extensions></trkpt>
      <trkpt lon="-4.158399" lat="53.024528"><ele>338.244385</ele><time>2021-07-17T13:23:33Z</time><extensions><speed>0.048848</speed><course>259.398621</course><hAcc>0.892697</hAcc><vAcc>0.725284</vAcc></extensions></trkpt>
      <trkpt lon="-4.158399" lat="53.024527"><ele>338.268799</ele><time>2021-07-17T13:23:34Z</time><extensions><speed>0.052994</speed><course>235.228027</course><hAcc>0.892058</hAcc><vAcc>0.724275</vAcc></extensions></trkpt>
      <trkpt lon="-4.158398" lat="53.024527"><ele>338.295288</ele><time>2021-07-17T13:23:35Z</time><extensions><speed>0.056052</speed><course>233.943741</course><hAcc>0.891570</hAcc><vAcc>0.723384</vAcc></extensions></trkpt>
      <trkpt lon="-4.158397" lat="53.024527"><ele>338.323669</ele><time>2021-07-17T13:23:36Z</time><extensions><speed>0.058030</speed><course>251.986771</course><hAcc>0.891199</hAcc><vAcc>0.722593</vAcc></extensions></trkpt>
      <trkpt lon="-4.158397" lat="53.024526"><ele>338.353607</ele><time>2021-07-17T13:23:37Z</time><extensions><speed>0.058832</speed><course>230.632401</course><hAcc>0.890917</hAcc><vAcc>0.721895</vAcc></extensions></trkpt>
      <trkpt lon="-4.158396" lat="53.024526"><ele>338.384460</ele><time>2021-07-17T13:23:38Z</time><extensions><speed>0.058587</speed><course>208.539734</course><hAcc>0.890707</hAcc><vAcc>0.721290</vAcc></extensions></trkpt>
      <trkpt lon="-4.158395" lat="53.024526"><ele>338.415771</ele><time>2021-07-17T13:23:39Z</time><extensions><speed>0.057425</speed><course>217.062653</course><hAcc>0.890556</hAcc><vAcc>0.720786</vAcc></extensions></trkpt>
      <trkpt lon="-4.158395" lat="53.024526"><ele>338.446960</ele><time>2021-07-17T13:23:40Z</time><extensions><speed>0.055264</speed><course>216.480164</course><hAcc>0.890463</hAcc><vAcc>0.720400</vAcc></extensions></trkpt>
      <trkpt lon="-4.158394" lat="53.024525"><ele>338.477264</ele><time>2021-07-17T13:23:41Z</time><extensions><speed>0.051929</speed><course>215.204285</course><hAcc>0.890434</hAcc><vAcc>0.720152</vAcc></extensions></trkpt>
      <trkpt lon="-4.158393" lat="53.024525"><ele>338.505920</ele><time>2021-07-17T13:23:42Z</time><extensions><speed>0.047495</speed><course>192.608246</course><hAcc>0.890481</hAcc><vAcc>0.720064</vAcc></extensions></trkpt>
      <trkpt lon="-4.158393" lat="53.024525"><ele>338.532288</ele><time>2021-07-17T13:23:43Z</time><extensions><speed>0.042378</speed><course>196.818375</course><hAcc>0.890626</hAcc><vAcc>0.720157</vAcc></extensions></trkpt>
      <trkpt lon="-4.158392" lat="53.024524"><ele>338.555878</ele><time>2021-07-17T13:23:44Z</time><extensions><speed>0.037072</speed><course>200.564194</course><hAcc>0.890895</hAcc><vAcc>0.720449</vAcc></extensions></trkpt>
      <trkpt lon="-4.158392" lat="53.024524"><ele>338.576324</ele><time>2021-07-17T13:23:45Z</time><extensions><speed>0.031987</speed><course>224.718231</course><hAcc>0.891322</hAcc><vAcc>0.720955</vAcc></extensions></trkpt>
      <trkpt lon="-4.158392" lat="53.024524"><ele>338.593414</ele><time>2021-07-17T13:23:46Z</time><extensions><speed>0.027476</speed><course>228.969803</course><hAcc>0.891942</hAcc><vAcc>0.721691</vAcc></extensions></trkpt>
      <trkpt lon="-4.158391" lat="53.024524"><ele>338.607025</ele><time>2021-07-17T13:23:47Z</time><extensions><speed>0.023891</speed><course>250.366501</course><hAcc>0.892809</hAcc><vAcc>0.722678</vAcc></extensions></trkpt>
      <trkpt lon="-4.158391" lat="53.024524"><ele>338.617157</ele><time>2021-07-17T13:23:48Z</time><extensions><speed>0.021616</speed><course>-1.000000</course><hAcc>0.893954</hAcc><vAcc>0.723917</vAcc></extensions></trkpt>
      <trkpt lon="-4.158391" lat="53.024524"><ele>338.623657</ele><time>2021-07-17T13:23:48Z</time><extensions><speed>0.021115</speed><course>232.063629</course><hAcc>0.895396</hAcc><vAcc>0.725386</vAcc></extensions></trkpt>
      <trkpt lon="-4.158391" lat="53.024523"><ele>338.626648</ele><time>2021-07-17T13:23:49Z</time><extensions><speed>0.022760</speed><course>232.063614</course><hAcc>0.897133</hAcc><vAcc>0.727042</vAcc></extensions></trkpt>
      <trkpt lon="-4.158391" lat="53.024523"><ele>338.626038</ele><time>2021-07-17T13:23:51Z</time><extensions><speed>0.026681</speed><course>232.063614</course><hAcc>0.899096</hAcc><vAcc>0.728784</vAcc></extensions></trkpt>
      <trkpt lon="-4.158391" lat="53.024523"><ele>338.621918</ele><time>2021-07-17T13:23:52Z</time><extensions><speed>0.032770</speed><course>232.063599</course><hAcc>0.901199</hAcc><vAcc>0.730496</vAcc></extensions></trkpt>
      <trkpt lon="-4.158391" lat="53.024523"><ele>338.614258</ele><time>2021-07-17T13:23:53Z</time><extensions><speed>0.040904</speed><course>232.063599</course><hAcc>0.903334</hAcc><vAcc>0.732053</vAcc></extensions></trkpt>
      <trkpt lon="-4.158391" lat="53.024522"><ele>338.603119</ele><time>2021-07-17T13:23:54Z</time><extensions><speed>0.050982</speed><course>232.063583</course><hAcc>0.905323</hAcc><vAcc>0.733309</vAcc></extensions></trkpt>
      <trkpt lon="-4.158391" lat="53.024522"><ele>338.588531</ele><time>2021-07-17T13:23:54Z</time><extensions><speed>0.062884</speed><course>232.063583</course><hAcc>0.906989</hAcc><vAcc>0.734155</vAcc></extensions></trkpt>
      <trkpt lon="-4.158391" lat="53.024521"><ele>338.570496</ele><time>2021-07-17T13:23:55Z</time><extensions><speed>0.076527</speed><course>248.555511</course><hAcc>0.908169</hAcc><vAcc>0.734566</vAcc></extensions></trkpt>
      <trkpt lon="-4.158391" lat="53.024520"><ele>338.549133</ele><time>2021-07-17T13:23:56Z</time><extensions><speed>0.091690</speed><course>214.727661</course><hAcc>0.908815</hAcc><vAcc>0.734693</vAcc></extensions></trkpt>
      <trkpt lon="-4.158391" lat="53.024519"><ele>338.524506</ele><time>2021-07-17T13:23:57Z</time><extensions><speed>0.108072</speed><course>215.656113</course><hAcc>0.909199</hAcc><vAcc>0.735038</vAcc></extensions></trkpt>
      <trkpt lon="-4.158391" lat="53.024518"><ele>338.496765</ele><time>2021-07-17T13:23:58Z</time><extensions><speed>0.125250</speed><course>205.637772</course><hAcc>0.910149</hAcc><vAcc>0.736631</vAcc></extensions></trkpt>
      <trkpt lon="-4.158391" lat="53.024517"><ele>338.466156</ele><time>2021-07-17T13:23:59Z</time><extensions><speed>0.142652</speed><course>201.575424</course><hAcc>0.913406</hAcc><vAcc>0.741267</vAcc></extensions></trkpt>
      <trkpt lon="-4.158391" lat="53.024516"><ele>338.432861</ele><time>2021-07-17T13:24:00Z</time><extensions><speed>0.159532</speed><course>196.854248</course><hAcc>0.922058</hAcc><vAcc>0.751736</vAcc></extensions></trkpt>
      <trkpt lon="-4.158391" lat="53.024514"><ele>338.397339</ele><time>2021-07-17T13:24:01Z</time><extensions><speed>0.174946</speed><course>198.264053</course><hAcc>0.940933</hAcc><vAcc>0.771939</vAcc></extensions></trkpt>
      <trkpt lon="-4.158392" lat="53.024513"><ele>338.359985</ele><time>2021-07-17T13:24:02Z</time><extensions><speed>0.187731</speed><course>198.636932</course><hAcc>0.976725</hAcc><vAcc>0.806734</vAcc></extensions></trkpt>
      <trkpt lon="-4.158392" lat="53.024512"><ele>338.321594</ele><time>2021-07-17T13:24:03Z</time><extensions><speed>0.180894</speed><course>207.637573</course><hAcc>0.938452</hAcc><vAcc>0.771231</vAcc></extensions></trkpt>
      <trkpt lon="-4.158392" lat="53.024510"><ele>338.287842</ele><time>2021-07-17T13:24:04Z</time><extensions><speed>0.166686</speed><course>199.781464</course><hAcc>0.918995</hAcc><vAcc>0.750420</vAcc></extensions></trkpt>
      <trkpt lon="-4.158392" lat="53.024509"><ele>338.256531</ele><time>2021-07-17T13:24:05Z</time><extensions><speed>0.149974</speed><course>204.898392</course><hAcc>0.910964</hAcc><vAcc>0.740367</vAcc></extensions></trkpt>
      <trkpt lon="-4.158392" lat="53.024507"><ele>338.227844</ele><time>2021-07-17T13:24:06Z</time><extensions><speed>0.132058</speed><course>218.988647</course><hAcc>0.908866</hAcc><vAcc>0.736737</vAcc></extensions></trkpt>
      <trkpt lon="-4.158392" lat="53.024506"><ele>338.201874</ele><time>2021-07-17T13:24:07Z</time><extensions><speed>0.113960</speed><course>240.875916</course><hAcc>0.909204</hAcc><vAcc>0.736423</vAcc></extensions></trkpt>
      <trkpt lon="-4.158392" lat="53.024505"><ele>338.178589</ele><time>2021-07-17T13:24:08Z</time><extensions><speed>0.096454</speed><course>240.875916</course><hAcc>0.910037</hAcc><vAcc>0.737440</vAcc></extensions></trkpt>
      <trkpt lon="-4.158392" lat="53.024504"><ele>338.157959</ele><time>2021-07-17T13:24:09Z</time><extensions><speed>0.080040</speed><course>240.875916</course><hAcc>0.910481</hAcc><vAcc>0.738663</vAcc></extensions></trkpt>
      <trkpt lon="-4.158391" lat="53.024504"><ele>338.140015</ele><time>2021-07-17T13:24:10Z</time><extensions><speed>0.064981</speed><course>240.875916</course><hAcc>0.910291</hAcc><vAcc>0.739570</vAcc></extensions></trkpt>
      <trkpt lon="-4.158391" lat="53.024503"><ele>338.124603</ele><time>2021-07-17T13:24:11Z</time><extensions><speed>0.051439</speed><course>240.875916</course><hAcc>0.909568</hAcc><vAcc>0.740017</vAcc></extensions></trkpt>
      <trkpt lon="-4.158391" lat="53.024503"><ele>338.111603</ele><time>2021-07-17T13:24:12Z</time><extensions><speed>0.039486</speed><course>240.875916</course><hAcc>0.908563</hAcc><vAcc>0.740066</vAcc></extensions></trkpt>
      <trkpt lon="-4.158391" lat="53.024503"><ele>338.100861</ele><time>2021-07-17T13:24:13Z</time><extensions><speed>0.029128</speed><course>269.430084</course><hAcc>0.907554</hAcc><vAcc>0.739873</vAcc></extensions></trkpt>
      <trkpt lon="-4.158391" lat="53.024502"><ele>338.092194</ele><time>2021-07-17T13:24:14Z</time><extensions><speed>0.020318</speed><course>274.056000</course><hAcc>0.906781</hAcc><vAcc>0.739607</vAcc></extensions></trkpt>
      <trkpt lon="-4.158391" lat="53.024502"><ele>338.085419</ele><time>2021-07-17T13:24:16Z</time><extensions><speed>0.012962</speed><course>273.580658</course><hAcc>0.906386</hAcc><vAcc>0.739385</vAcc></extensions></trkpt>
      <trkpt lon="-4.158391" lat="53.024502"><ele>338.080292</ele><time>2021-07-17T13:24:17Z</time><extensions><speed>0.006998</speed><course>266.285736</course><hAcc>0.906438</hAcc><vAcc>0.739270</vAcc></extensions></trkpt>
      <trkpt lon="-4.158391" lat="53.024502"><ele>338.076691</ele><time>2021-07-17T13:24:18Z</time><extensions><speed>0.002481</speed><course>280.416809</course><hAcc>0.906927</hAcc><vAcc>0.739262</vAcc></extensions></trkpt>
      <trkpt lon="-4.158391" lat="53.024502"><ele>338.074341</ele><time>2021-07-17T13:24:19Z</time><extensions><speed>0.002265</speed><course>289.633057</course><hAcc>0.907735</hAcc><vAcc>0.739284</vAcc></extensions></trkpt>
      <trkpt lon="-4.158391" lat="53.024502"><ele>338.073090</ele><time>2021-07-17T13:24:20Z</time><extensions><speed>0.004814</speed><course>274.042023</course><hAcc>0.908672</hAcc><vAcc>0.739214</vAcc></extensions></trkpt>
      <trkpt lon="-4.158391" lat="53.024502"><ele>338.072754</ele><time>2021-07-17T13:24:21Z</time><extensions><speed>0.006817</speed><course>259.398621</course><hAcc>0.909509</hAcc><vAcc>0.738939</vAcc></extensions></trkpt>
      <trkpt lon="-4.158391" lat="53.024502"><ele>338.073181</ele><time>2021-07-17T13:24:22Z</time><extensions><speed>0.008219</speed><course>235.228027</course><hAcc>0.910047</hAcc><vAcc>0.738419</vAcc></extensions></trkpt>
      <trkpt lon="-4.158391" lat="53.024502"><ele>338.074219</ele><time>2021-07-17T13:24:23Z</time><extensions><speed>0.009118</speed><course>233.943741</course><hAcc>0.910216</hAcc><vAcc>0.737797</vAcc></extensions></trkpt>
      <trkpt lon="-4.158391" lat="53.024502"><ele>338.075775</ele><time>2021-07-17T13:24:24Z</time><extensions><speed>0.009623</speed><course>251.986771</course><hAcc>0.910253</hAcc><vAcc>0.737549</vAcc></extensions></trkpt>
      <trkpt lon="-4.158391" lat="53.024502"><ele>338.077667</ele><time>2021-07-17T13:24:25Z</time><extensions><speed>0.009834</speed><course>230.632401</course><hAcc>0.910958</hAcc><vAcc>0.738681</vAcc></extensions></trkpt>
      <trkpt lon="-4.158391" lat="53.024503"><ele>338.079865</ele><time>2021-07-17T13:24:26Z</time><extensions><speed>0.009837</speed><course>208.539734</course><hAcc>0.914049</hAcc><vAcc>0.742966</vAcc></extensions></trkpt>
      <trkpt lon="-4.158391" lat="53.024503"><ele>338.082245</ele><time>2021-07-17T13:24:27Z</time><extensions><speed>0.009710</speed><course>217.062653</course><hAcc>0.922593</hAcc><vAcc>0.753176</vAcc></extensions></trkpt>
      <trkpt lon="-4.158391" lat="53.024503"><ele>338.084778</ele><time>2021-07-17T13:24:28Z</time><extensions><speed>0.009514</speed><course>216.480164</course><hAcc>0.941407</hAcc><vAcc>0.773198</vAcc></extensions></trkpt>
      <trkpt lon="-4.158391" lat="53.024503"><ele>338.087433</ele><time>2021-07-17T13:24:29Z</time><extensions><speed>0.009298</speed><course>215.204285</course><hAcc>0.977171</hAcc><vAcc>0.807879</vAcc></extensions></trkpt>
      <trkpt lon="-4.158391" lat="53.024503"><ele>338.098755</ele><time>2021-07-17T13:24:30Z</time><extensions><speed>0.000000</speed><course>207.637573</course><hAcc>0.939258</hAcc><vAcc>0.772883</vAcc></extensions></trkpt>
      <trkpt lon="-4.158391" lat="53.024503"><ele>338.098755</ele><time>2021-07-17T13:24:31Z</time><extensions><speed>0.000000</speed><course>199.781464</course><hAcc>0.920079</hAcc><vAcc>0.752314</vAcc></extensions></trkpt>
      <trkpt lon="-4.158391" lat="53.024503"><ele>338.098755</ele><time>2021-07-17T13:24:32Z</time><extensions><speed>0.000000</speed><course>204.898392</course><hAcc>0.912478</hAcc><vAcc>0.742685</vAcc></extensions></trkpt>
      <trkpt lon="-4.158391" lat="53.024503"><ele>338.098755</ele><time>2021-07-17T13:24:33Z</time><extensions><speed>0.000000</speed><course>218.988647</course><hAcc>0.910975</hAcc><vAcc>0.739650</vAcc></extensions></trkpt>
      <trkpt lon="-4.158391" lat="53.024503"><ele>338.098755</ele><time>2021-07-17T13:24:34Z</time><extensions><speed>0.000000</speed><course>240.875916</course><hAcc>0.912081</hAcc><vAcc>0.740081</vAcc></extensions></trkpt>
      <trkpt lon="-4.158391" lat="53.024503"><ele>338.098755</ele><time>2021-07-17T13:24:35Z</time><extensions><speed>0.000000</speed><course>240.875916</course><hAcc>0.913857</hAcc><vAcc>0.741958</vAcc></extensions></trkpt>
      <trkpt lon="-4.158391" lat="53.024503"><ele>338.098755</ele><time>2021-07-17T13:24:36Z</time><extensions><speed>0.000000</speed><course>240.875916</course><hAcc>0.915400</hAcc><vAcc>0.744109</vAcc></extensions></trkpt>
      <trkpt lon="-4.158391" lat="53.024503"><ele>338.098755</ele><time>2021-07-17T13:24:37Z</time><extensions><speed>0.000000</speed><course>240.875916</course><hAcc>0.916426</hAcc><vAcc>0.745933</vAcc></extensions></trkpt>
      <trkpt lon="-4.158391" lat="53.024503"><ele>338.098755</ele><time>2021-07-17T13:24:38Z</time><extensions><speed>0.000000</speed><course>240.875916</course><hAcc>0.916959</hAcc><vAcc>0.747181</vAcc></extensions></trkpt>
      <trkpt lon="-4.158391" lat="53.024503"><ele>338.098755</ele><time>2021-07-17T13:24:39Z</time><extensions><speed>0.000000</speed><course>240.875916</course><hAcc>0.917131</hAcc><vAcc>0.747790</vAcc></extensions></trkpt>
      <trkpt lon="-4.158391" lat="53.024503"><ele>338.098755</ele><time>2021-07-17T13:24:40Z</time><extensions><speed>0.000000</speed><course>269.430084</course><hAcc>0.917058</hAcc><vAcc>0.747773</vAcc></extensions></trkpt>
      <trkpt lon="-4.158391" lat="53.024503"><ele>338.098755</ele><time>2021-07-17T13:24:41Z</time><extensions><speed>0.000000</speed><course>274.056000</course><hAcc>0.916783</hAcc><vAcc>0.747167</vAcc></extensions></trkpt>
      <trkpt lon="-4.158391" lat="53.024503"><ele>338.098755</ele><time>2021-07-17T13:24:42Z</time><extensions><speed>0.000000</speed><course>273.580658</course><hAcc>0.916274</hAcc><vAcc>0.746025</vAcc></extensions></trkpt>
      <trkpt lon="-4.158391" lat="53.024503"><ele>338.098755</ele><time>2021-07-17T13:24:43Z</time><extensions><speed>0.000000</speed><course>266.285736</course><hAcc>0.915475</hAcc><vAcc>0.744460</vAcc></extensions></trkpt>
      <trkpt lon="-4.158391" lat="53.024503"><ele>338.098755</ele><time>2021-07-17T13:24:44Z</time><extensions><speed>0.000000</speed><course>280.416809</course><hAcc>0.914408</hAcc><vAcc>0.742735</vAcc></extensions></trkpt>
      <trkpt lon="-4.158391" lat="53.024503"><ele>338.098755</ele><time>2021-07-17T13:24:45Z</time><extensions><speed>0.000000</speed><course>289.633057</course><hAcc>0.913361</hAcc><vAcc>0.741410</vAcc></extensions></trkpt>
      <trkpt lon="-4.158391" lat="53.024503"><ele>338.098755</ele><time>2021-07-17T13:24:46Z</time><extensions><speed>0.000000</speed><course>274.042023</course><hAcc>0.913150</hAcc><vAcc>0.741543</vAcc></extensions></trkpt>
      <trkpt lon="-4.158391" lat="53.024503"><ele>338.098755</ele><time>2021-07-17T13:24:47Z</time><extensions><speed>0.000000</speed><course>259.398621</course><hAcc>0.915493</hAcc><vAcc>0.744938</vAcc></extensions></trkpt>
      <trkpt lon="-4.158391" lat="53.024503"><ele>338.098755</ele><time>2021-07-17T13:24:48Z</time><extensions><speed>0.000000</speed><course>235.228027</course><hAcc>0.923446</hAcc><vAcc>0.754378</vAcc></extensions></trkpt>
      <trkpt lon="-4.158391" lat="53.024503"><ele>338.098755</ele><time>2021-07-17T13:24:49Z</time><extensions><speed>0.000000</speed><course>233.943741</course><hAcc>0.941811</hAcc><vAcc>0.773754</vAcc></extensions></trkpt>
      <trkpt lon="-4.158391" lat="53.024503"><ele>338.098755</ele><time>2021-07-17T13:24:50Z</time><extensions><speed>0.000000</speed><course>251.986771</course><hAcc>0.977257</hAcc><vAcc>0.807914</vAcc></extensions></trkpt>
      <trkpt lon="-4.158391" lat="53.024503"><ele>338.098755</ele><time>2021-07-17T13:24:51Z</time><extensions><speed>0.000000</speed><course>207.637573</course><hAcc>0.939110</hAcc><vAcc>0.772476</vAcc></extensions></trkpt>
      <trkpt lon="-4.158391" lat="53.024503"><ele>338.098755</ele><time>2021-07-17T13:24:52Z</time><extensions><speed>0.000000</speed><course>199.781464</course><hAcc>0.919879</hAcc><vAcc>0.751732</vAcc></extensions></trkpt>
      <trkpt lon="-4.158391" lat="53.024503"><ele>338.098755</ele><time>2021-07-17T13:24:53Z</time><extensions><speed>0.000000</speed><course>204.898392</course><hAcc>0.912227</hAcc><vAcc>0.741914</vAcc></extensions></trkpt>
      <trkpt lon="-4.158391" lat="53.024503"><ele>338.098755</ele><time>2021-07-17T13:24:54Z</time><extensions><speed>0.000000</speed><course>218.988647</course><hAcc>0.910673</hAcc><vAcc>0.738686</vAcc></extensions></trkpt>
      <trkpt lon="-4.158391" lat="53.024503"><ele>338.098755</ele><time>2021-07-17T13:24:55Z</time><extensions><speed>0.000000</speed><course>240.875916</course><hAcc>0.911733</hAcc><vAcc>0.738936</vAcc></extensions></trkpt>
      <trkpt lon="-4.158391" lat="53.024503"><ele>338.098755</ele><time>2021-07-17T13:24:56Z</time><extensions><speed>0.000000</speed><course>240.875916</course><hAcc>0.913468</hAcc><vAcc>0.740655</vAcc></extensions></trkpt>
      <trkpt lon="-4.158391" lat="53.024503"><ele>338.098755</ele><time>2021-07-17T13:24:57Z</time><extensions><speed>0.000000</speed><course>240.875916</course><hAcc>0.914978</hAcc><vAcc>0.742680</vAcc></extensions></trkpt>
      <trkpt lon="-4.158391" lat="53.024503"><ele>338.098755</ele><time>2021-07-17T13:24:58Z</time><extensions><speed>0.000000</speed><course>240.875916</course><hAcc>0.915978</hAcc><vAcc>0.744420</vAcc></extensions></trkpt>
      <trkpt lon="-4.158391" lat="53.024503"><ele>338.098755</ele><time>2021-07-17T13:24:59Z</time><extensions><speed>0.000000</speed><course>240.875916</course><hAcc>0.916496</hAcc><vAcc>0.745630</vAcc></extensions></trkpt>
      <trkpt lon="-4.158391" lat="53.024503"><ele>338.098755</ele><time>2021-07-17T13:25:00Z</time><extensions><speed>0.000000</speed><course>240.875916</course><hAcc>0.916663</hAcc><vAcc>0.746246</vAcc></extensions></trkpt>
      <trkpt lon="-4.158391" lat="53.024503"><ele>338.098755</ele><time>2021-07-17T13:25:01Z</time><extensions><speed>0.000000</speed><course>269.430084</course><hAcc>0.916596</hAcc><vAcc>0.746277</vAcc></extensions></trkpt>
      <trkpt lon="-4.158391" lat="53.024503"><ele>338.098755</ele><time>2021-07-17T13:25:02Z</time><extensions><speed>0.000000</speed><course>274.056000</course><hAcc>0.916338</hAcc><vAcc>0.745750</vAcc></extensions></trkpt>
      <trkpt lon="-4.158391" lat="53.024503"><ele>338.098755</ele><time>2021-07-17T13:25:03Z</time><extensions><speed>0.000000</speed><course>273.580658</course><hAcc>0.915854</hAcc><vAcc>0.744711</vAcc></extensions></trkpt>
      <trkpt lon="-4.158391" lat="53.024503"><ele>338.098755</ele><time>2021-07-17T13:25:04Z</time><extensions><speed>0.000000</speed><course>266.285736</course><hAcc>0.915085</hAcc><vAcc>0.743261</vAcc></extensions></trkpt>
      <trkpt lon="-4.158391" lat="53.024503"><ele>338.098755</ele><time>2021-07-17T13:25:05Z</time><extensions><speed>0.000000</speed><course>280.416809</course><hAcc>0.914052</hAcc><vAcc>0.741656</vAcc></extensions></trkpt>
      <trkpt lon="-4.158391" lat="53.024503"><ele>338.098755</ele><time>2021-07-17T13:25:06Z</time><extensions><speed>0.000000</speed><course>289.633057</course><hAcc>0.913040</hAcc><vAcc>0.740448</vAcc></extensions></trkpt>
      <trkpt lon="-4.158391" lat="53.024503"><ele>338.098755</ele><time>2021-07-17T13:25:07Z</time><extensions><speed>0.000000</speed><course>274.042023</course><hAcc>0.912863</hAcc><vAcc>0.740692</vAcc></extensions></trkpt>
      <trkpt lon="-4.158391" lat="53.024503"><ele>338.098755</ele><time>2021-07-17T13:25:08Z</time><extensions><speed>0.000000</speed><course>259.398621</course><hAcc>0.915236</hAcc><vAcc>0.744185</vAcc></extensions></trkpt>
      <trkpt lon="-4.158391" lat="53.024503"><ele>338.098755</ele><time>2021-07-17T13:25:09Z</time><extensions><speed>0.000000</speed><course>235.228027</course><hAcc>0.923213</hAcc><vAcc>0.753710</vAcc></extensions></trkpt>
      <trkpt lon="-4.158391" lat="53.024503"><ele>338.098755</ele><time>2021-07-17T13:25:10Z</time><extensions><speed>0.000000</speed><course>233.943741</course><hAcc>0.941597</hAcc><vAcc>0.773153</vAcc></extensions></trkpt>
      <trkpt lon="-4.158391" lat="53.024503"><ele>338.098755</ele><time>2021-07-17T13:25:11Z</time><extensions><speed>0.000000</speed><course>251.986771</course><hAcc>0.977056</hAcc><vAcc>0.807362</vAcc></extensions></trkpt>
      <trkpt lon="-4.158391" lat="53.024503"><ele>338.098755</ele><time>2021-07-17T13:25:12Z</time><extensions><speed>0.000000</speed><course>207.637573</course><hAcc>0.938923</hAcc><vAcc>0.771972</vAcc></extensions></trkpt>
      <trkpt lon="-4.158391" lat="53.024503"><ele>338.098755</ele><time>2021-07-17T13:25:13Z</time><extensions><speed>0.000000</speed><course>199.781464</course><hAcc>0.919732</hAcc><vAcc>0.751330</vAcc></extensions></trkpt>
      <trkpt lon="-4.158391" lat="53.024503"><ele>338.098755</ele><time>2021-07-17T13:25:14Z</time><extensions><speed>0.000000</speed><course>204.898392</course><hAcc>0.912113</hAcc><vAcc>0.741594</vAcc></extensions></trkpt>
      <trkpt lon="-4.158391" lat="53.024503"><ele>338.098755</ele><time>2021-07-17T13:25:15Z</time><extensions><speed>0.000000</speed><course>218.988647</course><hAcc>0.910586</hAcc><vAcc>0.738431</vAcc></extensions></trkpt>
      <trkpt lon="-4.158391" lat="53.024503"><ele>338.098755</ele><time>2021-07-17T13:25:16Z</time><extensions><speed>0.000000</speed><course>240.875916</course><hAcc>0.911667</hAcc><vAcc>0.738731</vAcc></extensions></trkpt>
      <trkpt lon="-4.158391" lat="53.024503"><ele>338.098755</ele><time>2021-07-17T13:25:17Z</time><extensions><speed>0.000000</speed><course>240.875916</course><hAcc>0.913417</hAcc><vAcc>0.740489</vAcc></extensions></trkpt>
      <trkpt lon="-4.158391" lat="53.024503"><ele>338.098755</ele><time>2021-07-17T13:25:18Z</time><extensions><speed>0.000000</speed><course>240.875916</course><hAcc>0.914938</hAcc><vAcc>0.742545</vAcc></extensions></trkpt>
      <trkpt lon="-4.158391" lat="53.024503"><ele>338.098755</ele><time>2021-07-17T13:25:19Z</time><extensions><speed>0.000000</speed><course>240.875916</course><hAcc>0.915948</hAcc><vAcc>0.744311</vAcc></extensions></trkpt>
      <trkpt lon="-4.158391" lat="53.024503"><ele>338.098755</ele><time>2021-07-17T13:25:20Z</time><extensions><speed>0.000000</speed><course>240.875916</course><hAcc>0.916475</hAcc><vAcc>0.745544</vAcc></extensions></trkpt>
      <trkpt lon="-4.158391" lat="53.024503"><ele>338.098755</ele><time>2021-07-17T13:25:21Z</time><extensions><speed>0.000000</speed><course>240.875916</course><hAcc>0.916651</hAcc><vAcc>0.746181</vAcc></extensions></trkpt>
      <trkpt lon="-4.158391" lat="53.024503"><ele>338.098755</ele><time>2021-07-17T13:25:22Z</time><extensions><speed>0.000000</speed><course>269.430084</course><hAcc>0.916593</hAcc><vAcc>0.746232</vAcc></extensions></trkpt>
      <trkpt lon="-4.158391" lat="53.024503"><ele>338.098755</ele><time>2021-07-17T13:25:23Z</time><extensions><speed>0.000000</speed><course>274.056000</course><hAcc>0.916346</hAcc><vAcc>0.745727</vAcc></extensions></trkpt>
      <trkpt lon="-4.158391" lat="53.024503"><ele>338.098755</ele><time>2021-07-17T13:25:24Z</time><extensions><speed>0.000000</speed><course>273.580658</course><hAcc>0.915876</hAcc><vAcc>0.744709</vAcc></extensions></trkpt>
      <trkpt lon="-4.158391" lat="53.024503"><ele>338.098755</ele><time>2021-07-17T13:25:25Z</time><extensions><speed>0.000000</speed><course>266.285736</course><hAcc>0.915123</hAcc><vAcc>0.743283</vAcc></extensions></trkpt>
      <trkpt lon="-4.158391" lat="53.024503"><ele>338.098755</ele><time>2021-07-17T13:25:26Z</time><extensions><speed>0.000000</speed><course>280.416809</course><hAcc>0.914111</hAcc><vAcc>0.741703</vAcc></extensions></trkpt>
      <trkpt lon="-4.158391" lat="53.024503"><ele>338.098755</ele><time>2021-07-17T13:25:27Z</time><extensions><speed>0.000000</speed><course>289.633057</course><hAcc>0.913103</hAcc><vAcc>0.740510</vAcc></extensions></trkpt>
      <trkpt lon="-4.158391" lat="53.024503"><ele>338.098755</ele><time>2021-07-17T13:25:28Z</time><extensions><speed>0.000000</speed><course>274.042023</course><hAcc>0.912917</hAcc><vAcc>0.740761</vAcc></extensions></trkpt>
      <trkpt lon="-4.158391" lat="53.024503"><ele>338.098755</ele><time>2021-07-17T13:25:29Z</time><extensions><speed>0.000000</speed><course>259.398621</course><hAcc>0.915287</hAcc><vAcc>0.744267</vAcc></extensions></trkpt>
      <trkpt lon="-4.158391" lat="53.024503"><ele>338.098755</ele><time>2021-07-17T13:25:30Z</time><extensions><speed>0.000000</speed><course>235.228027</course><hAcc>0.923265</hAcc><vAcc>0.753809</vAcc></extensions></trkpt>
      <trkpt lon="-4.158391" lat="53.024503"><ele>338.098755</ele><time>2021-07-17T13:25:31Z</time><extensions><speed>0.000000</speed><course>233.943741</course><hAcc>0.941653</hAcc><vAcc>0.773275</vAcc></extensions></trkpt>
      <trkpt lon="-4.158391" lat="53.024503"><ele>338.098755</ele><time>2021-07-17T13:25:32Z</time><extensions><speed>0.000000</speed><course>251.986771</course><hAcc>0.977119</hAcc><vAcc>0.807510</vAcc></extensions></trkpt>
      <trkpt lon="-4.158391" lat="53.024503"><ele>338.100067</ele><time>2021-07-17T13:25:33Z</time><extensions><speed>0.000976</speed><course>207.637573</course><hAcc>0.938466</hAcc><vAcc>0.771358</vAcc></extensions></trkpt>
      <trkpt lon="-4.158391" lat="53.024503"><ele>338.099182</ele><time>2021-07-17T13:25:34Z</time><extensions><speed>0.001287</speed><course>199.781464</course><hAcc>0.918872</hAcc><vAcc>0.750164</vAcc></extensions></trkpt>
      <trkpt lon="-4.158391" lat="53.024503"><ele>338.098206</ele><time>2021-07-17T13:25:35Z</time><extensions><speed>0.001692</speed><course>204.898392</course><hAcc>0.910677</hAcc><vAcc>0.739682</vAcc></extensions></trkpt>
      <trkpt lon="-4.158391" lat="53.024503"><ele>338.097107</ele><time>2021-07-17T13:25:36Z</time><extensions><speed>0.002200</speed><course>218.988647</course><hAcc>0.908379</hAcc><vAcc>0.735571</vAcc></extensions></trkpt>
      <trkpt lon="-4.158391" lat="53.024503"><ele>338.095886</ele><time>2021-07-17T13:25:37Z</time><extensions><speed>0.002815</speed><course>240.875916</course><hAcc>0.908466</hAcc><vAcc>0.734722</vAcc></extensions></trkpt>
      <trkpt lon="-4.158391" lat="53.024503"><ele>338.094513</ele><time>2021-07-17T13:25:38Z</time><extensions><speed>0.003542</speed><course>240.875916</course><hAcc>0.908979</hAcc><vAcc>0.735134</vAcc></extensions></trkpt>
      <trkpt lon="-4.158391" lat="53.024503"><ele>338.092987</ele><time>2021-07-17T13:25:39Z</time><extensions><speed>0.004378</speed><course>240.875916</course><hAcc>0.909002</hAcc><vAcc>0.735671</vAcc></extensions></trkpt>
      <trkpt lon="-4.158391" lat="53.024503"><ele>338.091309</ele><time>2021-07-17T13:25:40Z</time><extensions><speed>0.005320</speed><course>240.875916</course><hAcc>0.908261</hAcc><vAcc>0.735792</vAcc></extensions></trkpt>
      <trkpt lon="-4.158391" lat="53.024503"><ele>338.089447</ele><time>2021-07-17T13:25:41Z</time><extensions><speed>0.006355</speed><course>240.875916</course><hAcc>0.906820</hAcc><vAcc>0.735328</vAcc></extensions></trkpt>
      <trkpt lon="-4.158391" lat="53.024503"><ele>338.087433</ele><time>2021-07-17T13:25:42Z</time><extensions><speed>0.007466</speed><course>240.875916</course><hAcc>0.904890</hAcc><vAcc>0.734328</vAcc></extensions></trkpt>
      <trkpt lon="-4.158391" lat="53.024503"><ele>338.085297</ele><time>2021-07-17T13:25:43Z</time><extensions><speed>0.008625</speed><course>269.430084</course><hAcc>0.902718</hAcc><vAcc>0.732936</vAcc></extensions></trkpt>
      <trkpt lon="-4.158391" lat="53.024503"><ele>338.083038</ele><time>2021-07-17T13:25:44Z</time><extensions><speed>0.009794</speed><course>274.056000</course><hAcc>0.900520</hAcc><vAcc>0.731328</vAcc></extensions></trkpt>
      <trkpt lon="-4.158391" lat="53.024503"><ele>338.080719</ele><time>2021-07-17T13:25:45Z</time><extensions><speed>0.010926</speed><course>273.580658</course><hAcc>0.898458</hAcc><vAcc>0.729664</vAcc></extensions></trkpt>
      <trkpt lon="-4.158391" lat="53.024502"><ele>338.078369</ele><time>2021-07-17T13:25:46Z</time><extensions><speed>0.011958</speed><course>266.285736</course><hAcc>0.896633</hAcc><vAcc>0.728074</vAcc></extensions></trkpt>
      <trkpt lon="-4.158391" lat="53.024502"><ele>338.076080</ele><time>2021-07-17T13:25:47Z</time><extensions><speed>0.012813</speed><course>280.416809</course><hAcc>0.895095</hAcc><vAcc>0.726641</vAcc></extensions></trkpt>
      <trkpt lon="-4.158391" lat="53.024502"><ele>338.073914</ele><time>2021-07-17T13:25:48Z</time><extensions><speed>0.013398</speed><course>289.633057</course><hAcc>0.893852</hAcc><vAcc>0.725412</vAcc></extensions></trkpt>
      <trkpt lon="-4.158391" lat="53.024502"><ele>338.071991</ele><time>2021-07-17T13:25:49Z</time><extensions><speed>0.013602</speed><course>274.042023</course><hAcc>0.892888</hAcc><vAcc>0.724400</vAcc></extensions></trkpt>
      <trkpt lon="-4.158391" lat="53.024502"><ele>338.070404</ele><time>2021-07-17T13:25:50Z</time><extensions><speed>0.013298</speed><course>259.398621</course><hAcc>0.892167</hAcc><vAcc>0.723597</vAcc></extensions></trkpt>
      <trkpt lon="-4.158391" lat="53.024502"><ele>338.069275</ele><time>2021-07-17T13:25:51Z</time><extensions><speed>0.012342</speed><course>235.228027</course><hAcc>0.891648</hAcc><vAcc>0.722984</vAcc></extensions></trkpt>
      <trkpt lon="-4.158391" lat="53.024502"><ele>338.068787</ele><time>2021-07-17T13:25:52Z</time><extensions><speed>0.010576</speed><course>233.943741</course><hAcc>0.891289</hAcc><vAcc>0.722539</vAcc></extensions></trkpt>
      <trkpt lon="-4.158391" lat="53.024502"><ele>338.069061</ele><time>2021-07-17T13:25:53Z</time><extensions><speed>0.007853</speed><course>251.986771</course><hAcc>0.891070</hAcc><vAcc>0.722251</vAcc></extensions></trkpt>
      <trkpt lon="-4.158391" lat="53.024502"><ele>338.070282</ele><time>2021-07-17T13:25:54Z</time><extensions><speed>0.004137</speed><course>230.632401</course><hAcc>0.890959</hAcc><vAcc>0.722100</vAcc></extensions></trkpt>
      <trkpt lon="-4.158391" lat="53.024502"><ele>338.072662</ele><time>2021-07-17T13:25:55Z</time><extensions><speed>0.002865</speed><course>208.539734</course><hAcc>0.890910</hAcc><vAcc>0.722053</vAcc></extensions></trkpt>
      <trkpt lon="-4.158391" lat="53.024502"><ele>338.076385</ele><time>2021-07-17T13:25:56Z</time><extensions><speed>0.009220</speed><course>217.062653</course><hAcc>0.890905</hAcc><vAcc>0.722094</vAcc></extensions></trkpt>
      <trkpt lon="-4.158391" lat="53.024502"><ele>338.081665</ele><time>2021-07-17T13:25:57Z</time><extensions><speed>0.018011</speed><course>216.480164</course><hAcc>0.890926</hAcc><vAcc>0.722206</vAcc></extensions></trkpt>
      <trkpt lon="-4.158391" lat="53.024502"><ele>338.088684</ele><time>2021-07-17T13:25:58Z</time><extensions><speed>0.028924</speed><course>215.204285</course><hAcc>0.890961</hAcc><vAcc>0.722371</vAcc></extensions></trkpt>
      <trkpt lon="-4.158391" lat="53.024502"><ele>338.097687</ele><time>2021-07-17T13:25:59Z</time><extensions><speed>0.042085</speed><course>192.608246</course><hAcc>0.890998</hAcc><vAcc>0.722566</vAcc></extensions></trkpt>
      <trkpt lon="-4.158391" lat="53.024503"><ele>338.108826</ele><time>2021-07-17T13:26:00Z</time><extensions><speed>0.057618</speed><course>196.818375</course><hAcc>0.891029</hAcc><vAcc>0.722765</vAcc></extensions></trkpt>
      <trkpt lon="-4.158391" lat="53.024503"><ele>338.122345</ele><time>2021-07-17T13:26:01Z</time><extensions><speed>0.075598</speed><course>200.564194</course><hAcc>0.891047</hAcc><vAcc>0.722934</vAcc></extensions></trkpt>
      <trkpt lon="-4.158391" lat="53.024504"><ele>338.138397</ele><time>2021-07-17T13:26:02Z</time><extensions><speed>0.096023</speed><course>224.718231</course><hAcc>0.891043</hAcc><vAcc>0.723040</vAcc></extensions></trkpt>
      <trkpt lon="-4.158391" lat="53.024505"><ele>338.157104</ele><time>2021-07-17T13:26:03Z</time><extensions><speed>0.118790</speed><course>228.969803</course><hAcc>0.891012</hAcc><vAcc>0.723047</vAcc></extensions></trkpt>
      <trkpt lon="-4.158392" lat="53.024506"><ele>338.178589</ele><time>2021-07-17T13:26:04Z</time><extensions><speed>0.143662</speed><course>250.366501</course><hAcc>0.890948</hAcc><vAcc>0.722930</vAcc></extensions></trkpt>
      <trkpt lon="-4.158392" lat="53.024508"><ele>338.203003</ele><time>2021-07-17T13:26:05Z</time><extensions><speed>0.170243</speed><course>-1.000000</course><hAcc>0.890845</hAcc><vAcc>0.722669</vAcc></extensions></trkpt>
      <trkpt lon="-4.158392" lat="53.024509"><ele>338.230347</ele><time>2021-07-17T13:26:06Z</time><extensions><speed>0.197936</speed><course>232.063629</course><hAcc>0.890699</hAcc><vAcc>0.722250</vAcc></extensions></trkpt>
      <trkpt lon="-4.158393" lat="53.024511"><ele>338.260651</ele><time>2021-07-17T13:26:07Z</time><extensions><speed>0.225907</speed><course>232.063614</course><hAcc>0.890508</hAcc><vAcc>0.721668</vAcc></extensions></trkpt>
      <trkpt lon="-4.158394" lat="53.024513"><ele>338.293884</ele><time>2021-07-17T13:26:08Z</time><extensions><speed>0.253044</speed><course>232.063614</course><hAcc>0.890272</hAcc><vAcc>0.720919</vAcc></extensions></trkpt>
      <trkpt lon="-4.158394" lat="53.024516"><ele>338.329956</ele><time>2021-07-17T13:26:09Z</time><extensions><speed>0.277920</speed><course>232.063599</course><hAcc>0.889991</hAcc><vAcc>0.720007</vAcc></extensions></trkpt>
      <trkpt lon="-4.158395" lat="53.024518"><ele>338.368774</ele><time>2021-07-17T13:26:10Z</time><extensions><speed>0.298751</speed><course>232.063599</course><hAcc>0.889670</hAcc><vAcc>0.718940</vAcc></extensions></trkpt>
      <trkpt lon="-4.158396" lat="53.024521"><ele>338.410126</ele><time>2021-07-17T13:26:11Z</time><extensions><speed>0.313358</speed><course>232.063583</course><hAcc>0.889314</hAcc><vAcc>0.717734</vAcc></extensions></trkpt>
      <trkpt lon="-4.158397" lat="53.024524"><ele>338.453827</ele><time>2021-07-17T13:26:12Z</time><extensions><speed>0.319134</speed><course>232.063583</course><hAcc>0.888929</hAcc><vAcc>0.716413</vAcc></extensions></trkpt>
      <trkpt lon="-4.158398" lat="53.024526"><ele>338.499481</ele><time>2021-07-17T13:26:13Z</time><extensions><speed>0.315935</speed><course>248.555511</course><hAcc>0.888521</hAcc><vAcc>0.715014</vAcc></extensions></trkpt>
      <trkpt lon="-4.158399" lat="53.024529"><ele>338.546539</ele><time>2021-07-17T13:26:14Z</time><extensions><speed>0.306235</speed><course>214.727661</course><hAcc>0.888099</hAcc><vAcc>0.713572</vAcc></extensions></trkpt>
      <trkpt lon="-4.158400" lat="53.024532"><ele>338.594360</ele><time>2021-07-17T13:26:15Z</time><extensions><speed>0.292327</speed><course>215.656113</course><hAcc>0.887670</hAcc><vAcc>0.712120</vAcc></extensions></trkpt>
      <trkpt lon="-4.158401" lat="53.024534"><ele>338.642334</ele><time>2021-07-17T13:26:16Z</time><extensions><speed>0.276241</speed><course>205.637772</course><hAcc>0.887240</hAcc><vAcc>0.710683</vAcc></extensions></trkpt>
      <trkpt lon="-4.158401" lat="53.024537"><ele>338.689728</ele><time>2021-07-17T13:26:17Z</time><extensions><speed>0.259466</speed><course>201.575424</course><hAcc>0.886818</hAcc><vAcc>0.709287</vAcc></extensions></trkpt>
      <trkpt lon="-4.158402" lat="53.024539"><ele>338.735931</ele><time>2021-07-17T13:26:18Z</time><extensions><speed>0.242744</speed><course>196.854248</course><hAcc>0.886409</hAcc><vAcc>0.707960</vAcc></extensions></trkpt>
      <trkpt lon="-4.158402" lat="53.024541"><ele>338.780334</ele><time>2021-07-17T13:26:19Z</time><extensions><speed>0.226611</speed><course>198.264053</course><hAcc>0.886016</hAcc><vAcc>0.706722</vAcc></extensions></trkpt>
      <trkpt lon="-4.158403" lat="53.024543"><ele>338.822327</ele><time>2021-07-17T13:26:20Z</time><extensions><speed>0.211694</speed><course>198.636932</course><hAcc>0.885642</hAcc><vAcc>0.705578</vAcc></extensions></trkpt>
      <trkpt lon="-4.158403" lat="53.024545"><ele>338.861298</ele><time>2021-07-17T13:26:21Z</time><extensions><speed>0.198228</speed><course>192.727798</course><hAcc>0.885291</hAcc><vAcc>0.704515</vAcc></extensions></trkpt>
      <trkpt lon="-4.158403" lat="53.024547"><ele>338.896729</ele><time>2021-07-17T13:26:22Z</time><extensions><speed>0.185896</speed><course>184.691818</course><hAcc>0.884962</hAcc><vAcc>0.703506</vAcc></extensions></trkpt>
      <trkpt lon="-4.158403" lat="53.024548"><ele>338.928375</ele><time>2021-07-17T13:26:23Z</time><extensions><speed>0.174550</speed><course>177.917740</course><hAcc>0.884660</hAcc><vAcc>0.702541</vAcc></extensions></trkpt>
      <trkpt lon="-4.158403" lat="53.024550"><ele>338.955963</ele><time>2021-07-17T13:26:24Z</time><extensions><speed>0.164588</speed><course>169.935883</course><hAcc>0.884387</hAcc><vAcc>0.701627</vAcc></extensions></trkpt>
      <trkpt lon="-4.158402" lat="53.024551"><ele>338.979462</ele><time>2021-07-17T13:26:25Z</time><extensions><speed>0.156203</speed><course>168.290512</course><hAcc>0.884147</hAcc><vAcc>0.700790</vAcc></extensions></trkpt>
      <trkpt lon="-4.158402" lat="53.024552"><ele>338.998749</ele><time>2021-07-17T13:26:26Z</time><extensions><speed>0.148955</speed><course>175.847488</course><hAcc>0.883946</hAcc><vAcc>0.700068</vAcc></extensions></trkpt>
      <trkpt lon="-4.158402" lat="53.024554"><ele>339.013885</ele><time>2021-07-17T13:26:27Z</time><extensions><speed>0.142360</speed><course>182.489380</course><hAcc>0.883788</hAcc><vAcc>0.699493</vAcc></extensions></trkpt>
      <trkpt lon="-4.158402" lat="53.024555"><ele>339.024811</ele><time>2021-07-17T13:26:28Z</time><extensions><speed>0.136416</speed><course>193.224472</course><hAcc>0.883677</hAcc><vAcc>0.699089</vAcc></extensions></trkpt>
      <trkpt lon="-4.158402" lat="53.024556"><ele>339.031372</ele><time>2021-07-17T13:26:29Z</time><extensions><speed>0.131610</speed><course>210.457108</course><hAcc>0.883615</hAcc><vAcc>0.698869</vAcc></extensions></trkpt>
      <trkpt lon="-4.158403" lat="53.024557"><ele>339.033356</ele><time>2021-07-17T13:26:30Z</time><extensions><speed>0.128571</speed><course>227.054108</course><hAcc>0.883603</hAcc><vAcc>0.698835</vAcc></extensions></trkpt>
      <trkpt lon="-4.158403" lat="53.024558"><ele>339.030853</ele><time>2021-07-17T13:26:31Z</time><extensions><speed>0.127820</speed><course>247.666534</course><hAcc>0.883638</hAcc><vAcc>0.698975</vAcc></extensions></trkpt>
      <trkpt lon="-4.158404" lat="53.024560"><ele>339.024139</ele><time>2021-07-17T13:26:32Z</time><extensions><speed>0.129676</speed><course>261.197876</course><hAcc>0.883715</hAcc><vAcc>0.699273</vAcc></extensions></trkpt>
      <trkpt lon="-4.158405" lat="53.024561"><ele>339.013519</ele><time>2021-07-17T13:26:33Z</time><extensions><speed>0.133971</speed><course>263.217255</course><hAcc>0.883827</hAcc><vAcc>0.699705</vAcc></extensions></trkpt>
      <trkpt lon="-4.158406" lat="53.024562"><ele>338.999512</ele><time>2021-07-17T13:26:34Z</time><extensions><speed>0.139745</speed><course>271.463165</course><hAcc>0.883964</hAcc><vAcc>0.700249</vAcc></extensions></trkpt>
      <trkpt lon="-4.158407" lat="53.024563"><ele>338.982635</ele><time>2021-07-17T13:26:35Z</time><extensions><speed>0.145532</speed><course>281.991608</course><hAcc>0.884114</hAcc><vAcc>0.700868</vAcc></extensions></trkpt>
      <trkpt lon="-4.158409" lat="53.024564"><ele>338.963593</ele><time>2021-07-17T13:26:36Z</time><extensions><speed>0.149870</speed><course>285.895782</course><hAcc>0.884265</hAcc><vAcc>0.701517</vAcc></extensions></trkpt>
      <trkpt lon="-4.158410" lat="53.024565"><ele>338.943146</ele><time>2021-07-17T13:26:37Z</time><extensions><speed>0.151615</speed><course>287.327179</course><hAcc>0.884403</hAcc><vAcc>0.702132</vAcc></extensions></trkpt>
      <trkpt lon="-4.158412" lat="53.024566"><ele>338.921997</ele><time>2021-07-17T13:26:38Z</time><extensions><speed>0.149871</speed><course>297.396240</course><hAcc>0.884513</hAcc><vAcc>0.702641</vAcc></extensions></trkpt>
      <trkpt lon="-4.158413" lat="53.024567"><ele>338.900696</ele><time>2021-07-17T13:26:39Z</time><extensions><speed>0.144572</speed><course>299.473175</course><hAcc>0.884584</hAcc><vAcc>0.702982</vAcc></extensions></trkpt>
      <trkpt lon="-4.158415" lat="53.024567"><ele>338.879730</ele><time>2021-07-17T13:26:40Z</time><extensions><speed>0.136468</speed><course>297.683289</course><hAcc>0.884606</hAcc><vAcc>0.703120</vAcc></extensions></trkpt>
      <trkpt lon="-4.158416" lat="53.024568"><ele>338.859314</ele><time>2021-07-17T13:26:41Z</time><extensions><speed>0.126368</speed><course>292.365356</course><hAcc>0.884574</hAcc><vAcc>0.703036</vAcc></extensions></trkpt>
      <trkpt lon="-4.158417" lat="53.024569"><ele>338.839691</ele><time>2021-07-17T13:26:42Z</time><extensions><speed>0.115178</speed><course>291.092651</course><hAcc>0.884485</hAcc><vAcc>0.702728</vAcc></extensions></trkpt>
      <trkpt lon="-4.158418" lat="53.024570"><ele>338.821014</ele><time>2021-07-17T13:26:43Z</time><extensions><speed>0.103489</speed><course>297.007721</course><hAcc>0.884342</hAcc><vAcc>0.702200</vAcc></extensions></trkpt>
      <trkpt lon="-4.158418" lat="53.024571"><ele>338.803528</ele><time>2021-07-17T13:26:44Z</time><extensions><speed>0.091449</speed><course>291.539093</course><hAcc>0.884152</hAcc><vAcc>0.701469</vAcc></extensions></trkpt>
      <trkpt lon="-4.158419" lat="53.024572"><ele>338.787384</ele><time>2021-07-17T13:26:45Z</time><extensions><speed>0.079278</speed><course>293.314819</course><hAcc>0.883923</hAcc><vAcc>0.700579</vAcc></extensions></trkpt>
      <trkpt lon="-4.158419" lat="53.024572"><ele>338.772858</ele><time>2021-07-17T13:26:46Z</time><extensions><speed>0.067717</speed><course>297.043213</course><hAcc>0.883667</hAcc><vAcc>0.699595</vAcc></extensions></trkpt>
      <trkpt lon="-4.158419" lat="53.024573"><ele>338.760376</ele><time>2021-07-17T13:26:47Z</time><extensions><speed>0.057522</speed><course>301.573547</course><hAcc>0.883393</hAcc><vAcc>0.698585</vAcc></extensions></trkpt>
      <trkpt lon="-4.158419" lat="53.024573"><ele>338.750305</ele><time>2021-07-17T13:26:48Z</time><extensions><speed>0.049066</speed><course>305.542847</course><hAcc>0.883110</hAcc><vAcc>0.697600</vAcc></extensions></trkpt>
      <trkpt lon="-4.158418" lat="53.024574"><ele>338.743042</ele><time>2021-07-17T13:26:49Z</time><extensions><speed>0.042819</speed><course>304.461029</course><hAcc>0.882825</hAcc><vAcc>0.696668</vAcc></extensions></trkpt>
      <trkpt lon="-4.158418" lat="53.024574"><ele>338.738861</ele><time>2021-07-17T13:26:50Z</time><extensions><speed>0.039935</speed><course>304.519958</course><hAcc>0.882540</hAcc><vAcc>0.695797</vAcc></extensions></trkpt>
      <trkpt lon="-4.158417" lat="53.024574"><ele>338.737732</ele><time>2021-07-17T13:26:51Z</time><extensions><speed>0.042072</speed><course>306.835541</course><hAcc>0.882257</hAcc><vAcc>0.694982</vAcc></extensions></trkpt>
      <trkpt lon="-4.158416" lat="53.024574"><ele>338.739624</ele><time>2021-07-17T13:26:52Z</time><extensions><speed>0.049442</speed><course>312.924469</course><hAcc>0.881973</hAcc><vAcc>0.694208</vAcc></extensions></trkpt>
      <trkpt lon="-4.158416" lat="53.024574"><ele>338.744507</ele><time>2021-07-17T13:26:53Z</time><extensions><speed>0.060620</speed><course>313.121582</course><hAcc>0.881689</hAcc><vAcc>0.693445</vAcc></extensions></trkpt>
      <trkpt lon="-4.158415" lat="53.024573"><ele>338.752289</ele><time>2021-07-17T13:26:54Z</time><extensions><speed>0.074327</speed><course>312.363678</course><hAcc>0.881403</hAcc><vAcc>0.692659</vAcc></extensions></trkpt>
      <trkpt lon="-4.158414" lat="53.024573"><ele>338.762817</ele><time>2021-07-17T13:26:55Z</time><extensions><speed>0.089528</speed><course>309.905548</course><hAcc>0.881118</hAcc><vAcc>0.691815</vAcc></extensions></trkpt>
      <trkpt lon="-4.158413" lat="53.024572"><ele>338.775787</ele><time>2021-07-17T13:26:56Z</time><extensions><speed>0.105360</speed><course>308.597687</course><hAcc>0.880843</hAcc><vAcc>0.690900</vAcc></extensions></trkpt>
      <trkpt lon="-4.158413" lat="53.024571"><ele>338.790802</ele><time>2021-07-17T13:26:57Z</time><extensions><speed>0.121268</speed><course>307.103394</course><hAcc>0.880593</hAcc><vAcc>0.689955</vAcc></extensions></trkpt>
      <trkpt lon="-4.158412" lat="53.024570"><ele>338.807281</ele><time>2021-07-17T13:26:58Z</time><extensions><speed>0.137094</speed><course>306.897400</course><hAcc>0.880391</hAcc><vAcc>0.689080</vAcc></extensions></trkpt>
      <trkpt lon="-4.158412" lat="53.024569"><ele>338.824646</ele><time>2021-07-17T13:26:59Z</time><extensions><speed>0.152446</speed><course>302.152618</course><hAcc>0.880268</hAcc><vAcc>0.688418</vAcc></extensions></trkpt>
      <trkpt lon="-4.158411" lat="53.024567"><ele>338.842163</ele><time>2021-07-17T13:27:00Z</time><extensions><speed>0.166654</speed><course>297.726410</course><hAcc>0.880239</hAcc><vAcc>0.688117</vAcc></extensions></trkpt>
      <trkpt lon="-4.158410" lat="53.024566"><ele>338.859009</ele><time>2021-07-17T13:27:01Z</time><extensions><speed>0.179301</speed><course>300.194183</course><hAcc>0.880336</hAcc><vAcc>0.688329</vAcc></extensions></trkpt>
      <trkpt lon="-4.158410" lat="53.024564"><ele>338.874573</ele><time>2021-07-17T13:27:02Z</time><extensions><speed>0.189965</speed><course>297.151825</course><hAcc>0.880601</hAcc><vAcc>0.689164</vAcc></extensions></trkpt>
      <trkpt lon="-4.158409" lat="53.024562"><ele>338.888824</ele><time>2021-07-17T13:27:03Z</time><extensions><speed>0.197995</speed><course>298.399384</course><hAcc>0.881046</hAcc><vAcc>0.690621</vAcc></extensions></trkpt>
      <trkpt lon="-4.158409" lat="53.024561"><ele>338.901825</ele><time>2021-07-17T13:27:04Z</time><extensions><speed>0.202681</speed><course>300.837921</course><hAcc>0.881666</hAcc><vAcc>0.692605</vAcc></extensions></trkpt>
      <trkpt lon="-4.158408" lat="53.024559"><ele>338.913605</ele><time>2021-07-17T13:27:05Z</time><extensions><speed>0.203040</speed><course>299.844330</course><hAcc>0.882455</hAcc><vAcc>0.694989</vAcc></extensions></trkpt>
      <trkpt lon="-4.158408" lat="53.024557"><ele>338.923950</ele><time>2021-07-17T13:27:06Z</time><extensions><speed>0.197788</speed><course>300.001373</course><hAcc>0.883411</hAcc><vAcc>0.697655</vAcc></extensions></trkpt>
      <trkpt lon="-4.158407" lat="53.024555"><ele>338.932648</ele><time>2021-07-17T13:27:07Z</time><extensions><speed>0.187140</speed><course>294.568817</course><hAcc>0.884537</hAcc><vAcc>0.700511</vAcc></extensions></trkpt>
      <trkpt lon="-4.158407" lat="53.024554"><ele>338.939514</ele><time>2021-07-17T13:27:08Z</time><extensions><speed>0.172796</speed><course>300.687103</course><hAcc>0.885846</hAcc><vAcc>0.703481</vAcc></extensions></trkpt>
      <trkpt lon="-4.158406" lat="53.024552"><ele>338.944550</ele><time>2021-07-17T13:27:09Z</time><extensions><speed>0.156152</speed><course>297.691925</course><hAcc>0.887355</hAcc><vAcc>0.706510</vAcc></extensions></trkpt>
      <trkpt lon="-4.158406" lat="53.024551"><ele>338.947784</ele><time>2021-07-17T13:27:10Z</time><extensions><speed>0.138335</speed><course>293.928223</course><hAcc>0.889081</hAcc><vAcc>0.709559</vAcc></extensions></trkpt>
      <trkpt lon="-4.158405" lat="53.024550"><ele>338.949402</ele><time>2021-07-17T13:27:11Z</time><extensions><speed>0.120235</speed><course>297.041656</course><hAcc>0.891035</hAcc><vAcc>0.712595</vAcc></extensions></trkpt>
      <trkpt lon="-4.158405" lat="53.024549"><ele>338.949585</ele><time>2021-07-17T13:27:12Z</time><extensions><speed>0.102531</speed><course>298.722290</course><hAcc>0.893211</hAcc><vAcc>0.715579</vAcc></extensions></trkpt>
      <trkpt lon="-4.158405" lat="53.024548"><ele>338.948608</ele><time>2021-07-17T13:27:13Z</time><extensions><speed>0.085724</speed><course>296.674316</course><hAcc>0.895573</hAcc><vAcc>0.718455</vAcc></extensions></trkpt>
      <trkpt lon="-4.158405" lat="53.024547"><ele>338.946686</ele><time>2021-07-17T13:27:14Z</time><extensions><speed>0.070162</speed><course>301.147156</course><hAcc>0.898045</hAcc><vAcc>0.721140</vAcc></extensions></trkpt>
      <trkpt lon="-4.158404" lat="53.024547"><ele>338.944031</ele><time>2021-07-17T13:27:15Z</time><extensions><speed>0.056064</speed><course>301.618805</course><hAcc>0.900502</hAcc><vAcc>0.723524</vAcc></extensions></trkpt>
      <trkpt lon="-4.158404" lat="53.024546"><ele>338.940887</ele><time>2021-07-17T13:27:16Z</time><extensions><speed>0.043548</speed><course>300.678009</course><hAcc>0.902774</hAcc><vAcc>0.725486</vAcc></extensions></trkpt>
      <trkpt lon="-4.158404" lat="53.024546"><ele>338.937408</ele><time>2021-07-17T13:27:17Z</time><extensions><speed>0.032648</speed><course>306.078644</course><hAcc>0.904667</hAcc><vAcc>0.726928</vAcc></extensions></trkpt>
      <trkpt lon="-4.158404" lat="53.024546"><ele>338.933777</ele><time>2021-07-17T13:27:18Z</time><extensions><speed>0.023335</speed><course>302.099213</course><hAcc>0.906020</hAcc><vAcc>0.727832</vAcc></extensions></trkpt>
      <trkpt lon="-4.158404" lat="53.024546"><ele>338.930145</ele><time>2021-07-17T13:27:19Z</time><extensions><speed>0.015534</speed><course>298.253754</course><hAcc>0.906798</hAcc><vAcc>0.728367</vAcc></extensions></trkpt>
      <trkpt lon="-4.158404" lat="53.024546"><ele>338.926575</ele><time>2021-07-17T13:27:20Z</time><extensions><speed>0.009140</speed><course>299.772583</course><hAcc>0.907268</hAcc><vAcc>0.729024</vAcc></extensions></trkpt>
      <trkpt lon="-4.158404" lat="53.024545"><ele>338.923126</ele><time>2021-07-17T13:27:21Z</time><extensions><speed>0.004054</speed><course>299.946075</course><hAcc>0.908252</hAcc><vAcc>0.730817</vAcc></extensions></trkpt>
      <trkpt lon="-4.158404" lat="53.024545"><ele>338.919891</ele><time>2021-07-17T13:27:22Z</time><extensions><speed>0.000962</speed><course>303.968170</course><hAcc>0.911481</hAcc><vAcc>0.735518</vAcc></extensions></trkpt>
      <trkpt lon="-4.158404" lat="53.024545"><ele>338.916840</ele><time>2021-07-17T13:27:23Z</time><extensions><speed>0.003299</speed><course>302.223755</course><hAcc>0.920037</hAcc><vAcc>0.745892</vAcc></extensions></trkpt>
      <trkpt lon="-4.158404" lat="53.024545"><ele>338.913971</ele><time>2021-07-17T13:27:24Z</time><extensions><speed>0.005489</speed><course>303.590851</course><hAcc>0.938756</hAcc><vAcc>0.765827</vAcc></extensions></trkpt>
      <trkpt lon="-4.158404" lat="53.024546"><ele>338.911285</ele><time>2021-07-17T13:27:25Z</time><extensions><speed>0.007045</speed><course>302.656281</course><hAcc>0.974345</hAcc><vAcc>0.800189</vAcc></extensions></trkpt>
      <trkpt lon="-4.158404" lat="53.024546"><ele>338.918396</ele><time>2021-07-17T13:27:26Z</time><extensions><speed>0.000000</speed><course>207.637573</course><hAcc>0.936709</hAcc><vAcc>0.765812</vAcc></extensions></trkpt>
      <trkpt lon="-4.158404" lat="53.024546"><ele>338.918396</ele><time>2021-07-17T13:27:27Z</time><extensions><speed>0.000000</speed><course>199.781464</course><hAcc>0.917808</hAcc><vAcc>0.745851</vAcc></extensions></trkpt>
      <trkpt lon="-4.158404" lat="53.024546"><ele>338.918396</ele><time>2021-07-17T13:27:28Z</time><extensions><speed>0.000000</speed><course>204.898392</course><hAcc>0.910425</hAcc><vAcc>0.736644</vAcc></extensions></trkpt>
      <trkpt lon="-4.158404" lat="53.024546"><ele>338.918396</ele><time>2021-07-17T13:27:29Z</time><extensions><speed>0.000000</speed><course>218.988647</course><hAcc>0.909072</hAcc><vAcc>0.733864</vAcc></extensions></trkpt>
      <trkpt lon="-4.158404" lat="53.024546"><ele>338.918396</ele><time>2021-07-17T13:27:30Z</time><extensions><speed>0.000000</speed><course>240.875916</course><hAcc>0.910271</hAcc><vAcc>0.734427</vAcc></extensions></trkpt>
      <trkpt lon="-4.158404" lat="53.024546"><ele>338.918396</ele><time>2021-07-17T13:27:31Z</time><extensions><speed>0.000000</speed><course>240.875916</course><hAcc>0.912096</hAcc><vAcc>0.736362</vAcc></extensions></trkpt>
      <trkpt lon="-4.158404" lat="53.024546"><ele>338.918396</ele><time>2021-07-17T13:27:32Z</time><extensions><speed>0.000000</speed><course>240.875916</course><hAcc>0.913661</hAcc><vAcc>0.738540</vAcc></extensions></trkpt>
      <trkpt lon="-4.158404" lat="53.024546"><ele>338.918396</ele><time>2021-07-17T13:27:33Z</time><extensions><speed>0.000000</speed><course>240.875916</course><hAcc>0.914698</hAcc><vAcc>0.740399</vAcc></extensions></trkpt>
      <trkpt lon="-4.158404" lat="53.024546"><ele>338.918396</ele><time>2021-07-17T13:27:34Z</time><extensions><speed>0.000000</speed><course>240.875916</course><hAcc>0.915242</hAcc><vAcc>0.741714</vAcc></extensions></trkpt>
      <trkpt lon="-4.158404" lat="53.024546"><ele>338.918396</ele><time>2021-07-17T13:27:35Z</time><extensions><speed>0.000000</speed><course>240.875916</course><hAcc>0.915436</hAcc><vAcc>0.742436</vAcc></extensions></trkpt>
      <trkpt lon="-4.158404" lat="53.024546"><ele>338.918396</ele><time>2021-07-17T13:27:36Z</time><extensions><speed>0.000000</speed><course>269.430084</course><hAcc>0.915399</hAcc><vAcc>0.742581</vAcc></extensions></trkpt>
      <trkpt lon="-4.158404" lat="53.024546"><ele>338.918396</ele><time>2021-07-17T13:27:37Z</time><extensions><speed>0.000000</speed><course>274.056000</course><hAcc>0.915178</hAcc><vAcc>0.742180</vAcc></extensions></trkpt>
      <trkpt lon="-4.158404" lat="53.024546"><ele>338.918396</ele><time>2021-07-17T13:27:38Z</time><extensions><speed>0.000000</speed><course>273.580658</course><hAcc>0.914736</hAcc><vAcc>0.741275</vAcc></extensions></trkpt>
      <trkpt lon="-4.158404" lat="53.024546"><ele>338.918396</ele><time>2021-07-17T13:27:39Z</time><extensions><speed>0.000000</speed><course>266.285736</course><hAcc>0.914012</hAcc><vAcc>0.739964</vAcc></extensions></trkpt>
      <trkpt lon="-4.158404" lat="53.024546"><ele>338.918396</ele><time>2021-07-17T13:27:40Z</time><extensions><speed>0.000000</speed><course>280.416809</course><hAcc>0.913022</hAcc><vAcc>0.738492</vAcc></extensions></trkpt>
      <trkpt lon="-4.158404" lat="53.024546"><ele>338.918396</ele><time>2021-07-17T13:27:41Z</time><extensions><speed>0.000000</speed><course>289.633057</course><hAcc>0.912043</hAcc><vAcc>0.737402</vAcc></extensions></trkpt>
      <trkpt lon="-4.158404" lat="53.024546"><ele>338.918396</ele><time>2021-07-17T13:27:42Z</time><extensions><speed>0.000000</speed><course>274.042023</course><hAcc>0.911885</hAcc><vAcc>0.737736</vAcc></extensions></trkpt>
      <trkpt lon="-4.158404" lat="53.024546"><ele>338.918396</ele><time>2021-07-17T13:27:43Z</time><extensions><speed>0.000000</speed><course>259.398621</course><hAcc>0.914255</hAcc><vAcc>0.741277</vAcc></extensions></trkpt>
      <trkpt lon="-4.158404" lat="53.024546"><ele>338.918396</ele><time>2021-07-17T13:27:44Z</time><extensions><speed>0.000000</speed><course>235.228027</course><hAcc>0.922206</hAcc><vAcc>0.750796</vAcc></extensions></trkpt>
      <trkpt lon="-4.158404" lat="53.024546"><ele>338.918396</ele><time>2021-07-17T13:27:45Z</time><extensions><speed>0.000000</speed><course>233.943741</course><hAcc>0.940540</hAcc><vAcc>0.770172</vAcc></extensions></trkpt>
      <trkpt lon="-4.158404" lat="53.024546"><ele>338.918396</ele><time>2021-07-17T13:27:46Z</time><extensions><speed>0.000000</speed><course>251.986771</course><hAcc>0.975932</hAcc><vAcc>0.804253</vAcc></extensions></trkpt>
      <trkpt lon="-4.158404" lat="53.024546"><ele>338.918396</ele><time>2021-07-17T13:27:47Z</time><extensions><speed>0.000000</speed><course>207.637573</course><hAcc>0.937898</hAcc><vAcc>0.769123</vAcc></extensions></trkpt>
      <trkpt lon="-4.158404" lat="53.024546"><ele>338.918396</ele><time>2021-07-17T13:27:48Z</time><extensions><speed>0.000000</speed><course>199.781464</course><hAcc>0.918838</hAcc><vAcc>0.748786</vAcc></extensions></trkpt>
      <trkpt lon="-4.158404" lat="53.024546"><ele>338.918396</ele><time>2021-07-17T13:27:49Z</time><extensions><speed>0.000000</speed><course>204.898392</course><hAcc>0.911325</hAcc><vAcc>0.739287</vAcc></extensions></trkpt>
      <trkpt lon="-4.158404" lat="53.024546"><ele>338.918396</ele><time>2021-07-17T13:27:50Z</time><extensions><speed>0.000000</speed><course>218.988647</course><hAcc>0.909875</hAcc><vAcc>0.736295</vAcc></extensions></trkpt>
      <trkpt lon="-4.158404" lat="53.024546"><ele>338.918396</ele><time>2021-07-17T13:27:51Z</time><extensions><speed>0.000000</speed><course>240.875916</course><hAcc>0.911008</hAcc><vAcc>0.736712</vAcc></extensions></trkpt>
      <trkpt lon="-4.158404" lat="53.024546"><ele>338.918396</ele><time>2021-07-17T13:27:52Z</time><extensions><speed>0.000000</speed><course>240.875916</course><hAcc>0.912789</hAcc><vAcc>0.738548</vAcc></extensions></trkpt>
      <trkpt lon="-4.158404" lat="53.024546"><ele>338.918396</ele><time>2021-07-17T13:27:53Z</time><extensions><speed>0.000000</speed><course>240.875916</course><hAcc>0.914326</hAcc><vAcc>0.740657</vAcc></extensions></trkpt>
      <trkpt lon="-4.158404" lat="53.024546"><ele>338.918396</ele><time>2021-07-17T13:27:54Z</time><extensions><speed>0.000000</speed><course>240.875916</course><hAcc>0.915343</hAcc><vAcc>0.742462</vAcc></extensions></trkpt>
      <trkpt lon="-4.158404" lat="53.024546"><ele>338.918396</ele><time>2021-07-17T13:27:55Z</time><extensions><speed>0.000000</speed><course>240.875916</course><hAcc>0.915871</hAcc><vAcc>0.743729</vAcc></extensions></trkpt>
      <trkpt lon="-4.158404" lat="53.024546"><ele>338.918396</ele><time>2021-07-17T13:27:56Z</time><extensions><speed>0.000000</speed><course>240.875916</course><hAcc>0.916046</hAcc><vAcc>0.744401</vAcc></extensions></trkpt>
      <trkpt lon="-4.158404" lat="53.024546"><ele>338.918396</ele><time>2021-07-17T13:27:57Z</time><extensions><speed>0.000000</speed><course>269.430084</course><hAcc>0.915986</hAcc><vAcc>0.744489</vAcc></extensions></trkpt>
      <trkpt lon="-4.158404" lat="53.024546"><ele>338.918396</ele><time>2021-07-17T13:27:58Z</time><extensions><speed>0.000000</speed><course>274.056000</course><hAcc>0.915734</hAcc><vAcc>0.744025</vAcc></extensions></trkpt>
      <trkpt lon="-4.158404" lat="53.024546"><ele>338.918396</ele><time>2021-07-17T13:27:59Z</time><extensions><speed>0.000000</speed><course>273.580658</course><hAcc>0.915276</hAcc><vAcc>0.743065</vAcc></extensions></trkpt>
      <trkpt lon="-4.158404" lat="53.024546"><ele>338.918396</ele><time>2021-07-17T13:28:00Z</time><extensions><speed>0.000000</speed><course>266.285736</course><hAcc>0.914547</hAcc><vAcc>0.741709</vAcc></extensions></trkpt>
      <trkpt lon="-4.158404" lat="53.024546"><ele>338.918396</ele><time>2021-07-17T13:28:01Z</time><extensions><speed>0.000000</speed><course>280.416809</course><hAcc>0.913552</hAcc><vAcc>0.740195</vAcc></extensions></trkpt>
      <trkpt lon="-4.158404" lat="53.024546"><ele>338.918396</ele><time>2021-07-17T13:28:02Z</time><extensions><speed>0.000000</speed><course>289.633057</course><hAcc>0.912572</hAcc><vAcc>0.739073</vAcc></extensions></trkpt>
      <trkpt lon="-4.158404" lat="53.024546"><ele>338.918396</ele><time>2021-07-17T13:28:03Z</time><extensions><speed>0.000000</speed><course>274.042023</course><hAcc>0.912419</hAcc><vAcc>0.739392</vAcc></extensions></trkpt>
      <trkpt lon="-4.158404" lat="53.024546"><ele>338.918396</ele><time>2021-07-17T13:28:04Z</time><extensions><speed>0.000000</speed><course>259.398621</course><hAcc>0.914808</hAcc><vAcc>0.742945</vAcc></extensions></trkpt>
      <trkpt lon="-4.158404" lat="53.024546"><ele>338.918396</ele><time>2021-07-17T13:28:05Z</time><extensions><speed>0.000000</speed><course>235.228027</course><hAcc>0.922791</hAcc><vAcc>0.752507</vAcc></extensions></trkpt>
      <trkpt lon="-4.158404" lat="53.024546"><ele>338.918396</ele><time>2021-07-17T13:28:06Z</time><extensions><speed>0.000000</speed><course>233.943741</course><hAcc>0.941171</hAcc><vAcc>0.771964</vAcc></extensions></trkpt>
      <trkpt lon="-4.158404" lat="53.024546"><ele>338.918396</ele><time>2021-07-17T13:28:07Z</time><extensions><speed>0.000000</speed><course>251.986771</course><hAcc>0.976618</hAcc><vAcc>0.806161</vAcc></extensions></trkpt>
      <trkpt lon="-4.158404" lat="53.024546"><ele>338.918396</ele><time>2021-07-17T13:28:08Z</time><extensions><speed>0.000000</speed><course>207.637573</course><hAcc>0.938537</hAcc><vAcc>0.770901</vAcc></extensions></trkpt>
      <trkpt lon="-4.158404" lat="53.024546"><ele>338.918396</ele><time>2021-07-17T13:28:09Z</time><extensions><speed>0.000000</speed><course>199.781464</course><hAcc>0.919411</hAcc><vAcc>0.750416</vAcc></extensions></trkpt>
      <trkpt lon="-4.158404" lat="53.024546"><ele>338.918396</ele><time>2021-07-17T13:28:10Z</time><extensions><speed>0.000000</speed><course>204.898392</course><hAcc>0.911847</hAcc><vAcc>0.740813</vAcc></extensions></trkpt>
      <trkpt lon="-4.158404" lat="53.024546"><ele>338.918396</ele><time>2021-07-17T13:28:11Z</time><extensions><speed>0.000000</speed><course>218.988647</course><hAcc>0.910365</hAcc><vAcc>0.737759</vAcc></extensions></trkpt>
      <trkpt lon="-4.158404" lat="53.024546"><ele>338.918396</ele><time>2021-07-17T13:28:12Z</time><extensions><speed>0.000000</speed><course>240.875916</course><hAcc>0.911480</hAcc><vAcc>0.738149</vAcc></extensions></trkpt>
      <trkpt lon="-4.158404" lat="53.024546"><ele>338.918396</ele><time>2021-07-17T13:28:13Z</time><extensions><speed>0.000000</speed><course>240.875916</course><hAcc>0.913256</hAcc><vAcc>0.739982</vAcc></extensions></trkpt>
      <trkpt lon="-4.158404" lat="53.024546"><ele>338.918396</ele><time>2021-07-17T13:28:14Z</time><extensions><speed>0.000000</speed><course>240.875916</course><hAcc>0.914795</hAcc><vAcc>0.742103</vAcc></extensions></trkpt>
      <trkpt lon="-4.158404" lat="53.024546"><ele>338.918396</ele><time>2021-07-17T13:28:15Z</time><extensions><speed>0.000000</speed><course>240.875916</course><hAcc>0.915818</hAcc><vAcc>0.743926</vAcc></extensions></trkpt>
      <trkpt lon="-4.158404" lat="53.024546"><ele>338.918396</ele><time>2021-07-17T13:28:16Z</time><extensions><speed>0.000000</speed><course>240.875916</course><hAcc>0.916352</hAcc><vAcc>0.745206</vAcc></extensions></trkpt>
      <trkpt lon="-4.158404" lat="53.024546"><ele>338.918396</ele><time>2021-07-17T13:28:17Z</time><extensions><speed>0.000000</speed><course>240.875916</course><hAcc>0.916530</hAcc><vAcc>0.745878</vAcc></extensions></trkpt>
      <trkpt lon="-4.158404" lat="53.024546"><ele>338.918396</ele><time>2021-07-17T13:28:18Z</time><extensions><speed>0.000000</speed><course>269.430084</course><hAcc>0.916470</hAcc><vAcc>0.745947</vAcc></extensions></trkpt>
      <trkpt lon="-4.158404" lat="53.024546"><ele>338.918396</ele><time>2021-07-17T13:28:19Z</time><extensions><speed>0.000000</speed><course>274.056000</course><hAcc>0.916214</hAcc><vAcc>0.745436</vAcc></extensions></trkpt>
      <trkpt lon="-4.158404" lat="53.024546"><ele>338.918396</ele><time>2021-07-17T13:28:20Z</time><extensions><speed>0.000000</speed><course>273.580658</course><hAcc>0.915728</hAcc><vAcc>0.744388</vAcc></extensions></trkpt>
      <trkpt lon="-4.158404" lat="53.024546"><ele>338.918396</ele><time>2021-07-17T13:28:21Z</time><extensions><speed>0.000000</speed><course>266.285736</course><hAcc>0.914951</hAcc><vAcc>0.742903</vAcc></extensions></trkpt>
      <trkpt lon="-4.158404" lat="53.024546"><ele>338.918396</ele><time>2021-07-17T13:28:22Z</time><extensions><speed>0.000000</speed><course>280.416809</course><hAcc>0.913904</hAcc><vAcc>0.741237</vAcc></extensions></trkpt>
      <trkpt lon="-4.158404" lat="53.024546"><ele>338.918396</ele><time>2021-07-17T13:28:23Z</time><extensions><speed>0.000000</speed><course>289.633057</course><hAcc>0.912869</hAcc><vAcc>0.739946</vAcc></extensions></trkpt>
      <trkpt lon="-4.158404" lat="53.024546"><ele>338.918396</ele><time>2021-07-17T13:28:24Z</time><extensions><speed>0.000000</speed><course>274.042023</course><hAcc>0.912659</hAcc><vAcc>0.740086</vAcc></extensions></trkpt>
      <trkpt lon="-4.158404" lat="53.024546"><ele>338.918396</ele><time>2021-07-17T13:28:25Z</time><extensions><speed>0.000000</speed><course>259.398621</course><hAcc>0.914988</hAcc><vAcc>0.743455</vAcc></extensions></trkpt>
      <trkpt lon="-4.158404" lat="53.024546"><ele>338.918396</ele><time>2021-07-17T13:28:26Z</time><extensions><speed>0.000000</speed><course>235.228027</course><hAcc>0.922909</hAcc><vAcc>0.752833</vAcc></extensions></trkpt>
      <trkpt lon="-4.158404" lat="53.024546"><ele>338.918396</ele><time>2021-07-17T13:28:27Z</time><extensions><speed>0.000000</speed><course>233.943741</course><hAcc>0.941227</hAcc><vAcc>0.772109</vAcc></extensions></trkpt>
      <trkpt lon="-4.158404" lat="53.024546"><ele>338.918396</ele><time>2021-07-17T13:28:28Z</time><extensions><speed>0.000000</speed><course>251.986771</course><hAcc>0.976615</hAcc><vAcc>0.806135</vAcc></extensions></trkpt>
      <trkpt lon="-4.158404" lat="53.024546"><ele>338.918396</ele><time>2021-07-17T13:28:29Z</time><extensions><speed>0.000000</speed><course>207.637573</course><hAcc>0.938506</hAcc><vAcc>0.770794</vAcc></extensions></trkpt>
      <trkpt lon="-4.158404" lat="53.024546"><ele>338.918396</ele><time>2021-07-17T13:28:30Z</time><extensions><speed>0.000000</speed><course>199.781464</course><hAcc>0.919346</hAcc><vAcc>0.750207</vAcc></extensions></trkpt>
      <trkpt lon="-4.158404" lat="53.024546"><ele>338.918396</ele><time>2021-07-17T13:28:31Z</time><extensions><speed>0.000000</speed><course>204.898392</course><hAcc>0.911751</hAcc><vAcc>0.740507</vAcc></extensions></trkpt>
      <trkpt lon="-4.158404" lat="53.024546"><ele>338.918396</ele><time>2021-07-17T13:28:32Z</time><extensions><speed>0.000000</speed><course>218.988647</course><hAcc>0.910238</hAcc><vAcc>0.737363</vAcc></extensions></trkpt>
      <trkpt lon="-4.158404" lat="53.024546"><ele>338.918396</ele><time>2021-07-17T13:28:33Z</time><extensions><speed>0.000000</speed><course>240.875916</course><hAcc>0.911326</hAcc><vAcc>0.737668</vAcc></extensions></trkpt>
      <trkpt lon="-4.158404" lat="53.024546"><ele>338.918396</ele><time>2021-07-17T13:28:34Z</time><extensions><speed>0.000000</speed><course>240.875916</course><hAcc>0.913076</hAcc><vAcc>0.739423</vAcc></extensions></trkpt>
      <trkpt lon="-4.158404" lat="53.024546"><ele>338.918396</ele><time>2021-07-17T13:28:35Z</time><extensions><speed>0.000000</speed><course>240.875916</course><hAcc>0.914595</hAcc><vAcc>0.741471</vAcc></extensions></trkpt>
      <trkpt lon="-4.158404" lat="53.024546"><ele>338.918396</ele><time>2021-07-17T13:28:36Z</time><extensions><speed>0.000000</speed><course>240.875916</course><hAcc>0.915600</hAcc><vAcc>0.743230</vAcc></extensions></trkpt>
      <trkpt lon="-4.158404" lat="53.024546"><ele>338.918396</ele><time>2021-07-17T13:28:37Z</time><extensions><speed>0.000000</speed><course>240.875916</course><hAcc>0.916122</hAcc><vAcc>0.744459</vAcc></extensions></trkpt>
      <trkpt lon="-4.158404" lat="53.024546"><ele>338.918396</ele><time>2021-07-17T13:28:38Z</time><extensions><speed>0.000000</speed><course>240.875916</course><hAcc>0.916294</hAcc><vAcc>0.745096</vAcc></extensions></trkpt>
      <trkpt lon="-4.158404" lat="53.024546"><ele>338.918396</ele><time>2021-07-17T13:28:39Z</time><extensions><speed>0.000000</speed><course>269.430084</course><hAcc>0.916233</hAcc><vAcc>0.745152</vAcc></extensions></trkpt>
      <trkpt lon="-4.158404" lat="53.024546"><ele>338.918396</ele><time>2021-07-17T13:28:40Z</time><extensions><speed>0.000000</speed><course>274.056000</course><hAcc>0.915983</hAcc><vAcc>0.744656</vAcc></extensions></trkpt>
      <trkpt lon="-4.158404" lat="53.024546"><ele>338.918396</ele><time>2021-07-17T13:28:41Z</time><extensions><speed>0.000000</speed><course>273.580658</course><hAcc>0.915511</hAcc><vAcc>0.743651</vAcc></extensions></trkpt>
      <trkpt lon="-4.158404" lat="53.024546"><ele>338.918396</ele><time>2021-07-17T13:28:42Z</time><extensions><speed>0.000000</speed><course>266.285736</course><hAcc>0.914753</hAcc><vAcc>0.742238</vAcc></extensions></trkpt>
      <trkpt lon="-4.158404" lat="53.024546"><ele>338.918396</ele><time>2021-07-17T13:28:43Z</time><extensions><speed>0.000000</speed><course>280.416809</course><hAcc>0.913731</hAcc><vAcc>0.740666</vAcc></extensions></trkpt>
      <trkpt lon="-4.158404" lat="53.024546"><ele>338.918396</ele><time>2021-07-17T13:28:44Z</time><extensions><speed>0.000000</speed><course>289.633057</course><hAcc>0.912726</hAcc><vAcc>0.739487</vAcc></extensions></trkpt>
      <trkpt lon="-4.158404" lat="53.024546"><ele>338.918396</ele><time>2021-07-17T13:28:45Z</time><extensions><speed>0.000000</speed><course>274.042023</course><hAcc>0.912552</hAcc><vAcc>0.739750</vAcc></extensions></trkpt>
      <trkpt lon="-4.158404" lat="53.024546"><ele>338.918396</ele><time>2021-07-17T13:28:46Z</time><extensions><speed>0.000000</speed><course>259.398621</course><hAcc>0.914920</hAcc><vAcc>0.743249</vAcc></extensions></trkpt>
      <trkpt lon="-4.158404" lat="53.024546"><ele>338.918396</ele><time>2021-07-17T13:28:47Z</time><extensions><speed>0.000000</speed><course>235.228027</course><hAcc>0.922884</hAcc><vAcc>0.752760</vAcc></extensions></trkpt>
      <trkpt lon="-4.158404" lat="53.024546"><ele>338.918396</ele><time>2021-07-17T13:28:48Z</time><extensions><speed>0.000000</speed><course>233.943741</course><hAcc>0.941247</hAcc><vAcc>0.772168</vAcc></extensions></trkpt>
      <trkpt lon="-4.158404" lat="53.024546"><ele>338.918396</ele><time>2021-07-17T13:28:49Z</time><extensions><speed>0.000000</speed><course>251.986771</course><hAcc>0.976680</hAcc><vAcc>0.806322</vAcc></extensions></trkpt>
      <trkpt lon="-4.158404" lat="53.024546"><ele>338.918396</ele><time>2021-07-17T13:28:50Z</time><extensions><speed>0.000000</speed><course>207.637573</course><hAcc>0.938582</hAcc><vAcc>0.771021</vAcc></extensions></trkpt>
      <trkpt lon="-4.158404" lat="53.024546"><ele>338.918396</ele><time>2021-07-17T13:28:51Z</time><extensions><speed>0.000000</speed><course>199.781464</course><hAcc>0.919430</hAcc><vAcc>0.750466</vAcc></extensions></trkpt>
      <trkpt lon="-4.158404" lat="53.024546"><ele>338.918396</ele><time>2021-07-17T13:28:52Z</time><extensions><speed>0.000000</speed><course>204.898392</course><hAcc>0.911842</hAcc><vAcc>0.740797</vAcc></extensions></trkpt>
      <trkpt lon="-4.158404" lat="53.024546"><ele>338.918396</ele><time>2021-07-17T13:28:53Z</time><extensions><speed>0.000000</speed><course>218.988647</course><hAcc>0.910338</hAcc><vAcc>0.737681</vAcc></extensions></trkpt>
      <trkpt lon="-4.158404" lat="53.024546"><ele>338.918396</ele><time>2021-07-17T13:28:54Z</time><extensions><speed>0.000000</speed><course>240.875916</course><hAcc>0.911434</hAcc><vAcc>0.738013</vAcc></extensions></trkpt>
      <trkpt lon="-4.158404" lat="53.024546"><ele>338.918396</ele><time>2021-07-17T13:28:55Z</time><extensions><speed>0.000000</speed><course>240.875916</course><hAcc>0.913195</hAcc><vAcc>0.739793</vAcc></extensions></trkpt>
      <trkpt lon="-4.158404" lat="53.024546"><ele>338.918396</ele><time>2021-07-17T13:28:56Z</time><extensions><speed>0.000000</speed><course>240.875916</course><hAcc>0.914723</hAcc><vAcc>0.741866</vAcc></extensions></trkpt>
      <trkpt lon="-4.158404" lat="53.024546"><ele>338.918396</ele><time>2021-07-17T13:28:57Z</time><extensions><speed>0.000000</speed><course>240.875916</course><hAcc>0.915739</hAcc><vAcc>0.743650</vAcc></extensions></trkpt>
      <trkpt lon="-4.158404" lat="53.024546"><ele>338.918396</ele><time>2021-07-17T13:28:58Z</time><extensions><speed>0.000000</speed><course>240.875916</course><hAcc>0.916272</hAcc><vAcc>0.744906</vAcc></extensions></trkpt>
      <trkpt lon="-4.158404" lat="53.024546"><ele>338.918396</ele><time>2021-07-17T13:28:59Z</time><extensions><speed>0.000000</speed><course>240.875916</course><hAcc>0.916456</hAcc><vAcc>0.745575</vAcc></extensions></trkpt>
      <trkpt lon="-4.158404" lat="53.024546"><ele>338.918396</ele><time>2021-07-17T13:29:00Z</time><extensions><speed>0.000000</speed><course>269.430084</course><hAcc>0.916408</hAcc><vAcc>0.745667</vAcc></extensions></trkpt>
      <trkpt lon="-4.158404" lat="53.024546"><ele>338.918396</ele><time>2021-07-17T13:29:01Z</time><extensions><speed>0.000000</speed><course>274.056000</course><hAcc>0.916173</hAcc><vAcc>0.745215</vAcc></extensions></trkpt>
      <trkpt lon="-4.158404" lat="53.024546"><ele>338.918396</ele><time>2021-07-17T13:29:02Z</time><extensions><speed>0.000000</speed><course>273.580658</course><hAcc>0.915715</hAcc><vAcc>0.744264</vAcc></extensions></trkpt>
      <trkpt lon="-4.158404" lat="53.024546"><ele>338.918396</ele><time>2021-07-17T13:29:03Z</time><extensions><speed>0.000000</speed><course>266.285736</course><hAcc>0.914974</hAcc><vAcc>0.742914</vAcc></extensions></trkpt>
      <trkpt lon="-4.158404" lat="53.024546"><ele>338.918396</ele><time>2021-07-17T13:29:04Z</time><extensions><speed>0.000000</speed><course>280.416809</course><hAcc>0.913971</hAcc><vAcc>0.741417</vAcc></extensions></trkpt>
      <trkpt lon="-4.158404" lat="53.024546"><ele>338.918396</ele><time>2021-07-17T13:29:05Z</time><extensions><speed>0.000000</speed><course>289.633057</course><hAcc>0.912988</hAcc><vAcc>0.740322</vAcc></extensions></trkpt>
      <trkpt lon="-4.158404" lat="53.024546"><ele>338.918396</ele><time>2021-07-17T13:29:06Z</time><extensions><speed>0.000000</speed><course>274.042023</course><hAcc>0.912838</hAcc><vAcc>0.740675</vAcc></extensions></trkpt>
      <trkpt lon="-4.158404" lat="53.024546"><ele>338.918396</ele><time>2021-07-17T13:29:07Z</time><extensions><speed>0.000000</speed><course>259.398621</course><hAcc>0.915235</hAcc><vAcc>0.744263</vAcc></extensions></trkpt>
      <trkpt lon="-4.158404" lat="53.024546"><ele>338.918396</ele><time>2021-07-17T13:29:08Z</time><extensions><speed>0.000000</speed><course>235.228027</course><hAcc>0.923232</hAcc><vAcc>0.753855</vAcc></extensions></trkpt>
      <trkpt lon="-4.158404" lat="53.024546"><ele>338.918396</ele><time>2021-07-17T13:29:09Z</time><extensions><speed>0.000000</speed><course>233.943741</course><hAcc>0.941630</hAcc><vAcc>0.773329</vAcc></extensions></trkpt>
      <trkpt lon="-4.158404" lat="53.024546"><ele>338.918396</ele><time>2021-07-17T13:29:10Z</time><extensions><speed>0.000000</speed><course>251.986771</course><hAcc>0.977095</hAcc><vAcc>0.807530</vAcc></extensions></trkpt>
      <trkpt lon="-4.158404" lat="53.024546"><ele>338.918396</ele><time>2021-07-17T13:29:11Z</time><extensions><speed>0.000000</speed><course>207.637573</course><hAcc>0.939041</hAcc><vAcc>0.772297</vAcc></extensions></trkpt>
      <trkpt lon="-4.158404" lat="53.024546"><ele>338.918396</ele><time>2021-07-17T13:29:12Z</time><extensions><speed>0.000000</speed><course>199.781464</course><hAcc>0.919806</hAcc><vAcc>0.751519</vAcc></extensions></trkpt>
      <trkpt lon="-4.158404" lat="53.024546"><ele>338.918396</ele><time>2021-07-17T13:29:13Z</time><extensions><speed>0.000000</speed><course>204.898392</course><hAcc>0.912146</hAcc><vAcc>0.741660</vAcc></extensions></trkpt>
      <trkpt lon="-4.158404" lat="53.024546"><ele>338.918396</ele><time>2021-07-17T13:29:14Z</time><extensions><speed>0.000000</speed><course>218.988647</course><hAcc>0.910583</hAcc><vAcc>0.738391</vAcc></extensions></trkpt>
      <trkpt lon="-4.158404" lat="53.024546"><ele>338.918396</ele><time>2021-07-17T13:29:15Z</time><extensions><speed>0.000000</speed><course>240.875916</course><hAcc>0.911632</hAcc><vAcc>0.738602</vAcc></extensions></trkpt>
      <trkpt lon="-4.158404" lat="53.024546"><ele>338.918396</ele><time>2021-07-17T13:29:16Z</time><extensions><speed>0.000000</speed><course>240.875916</course><hAcc>0.913355</hAcc><vAcc>0.740287</vAcc></extensions></trkpt>
      <trkpt lon="-4.158404" lat="53.024546"><ele>338.918396</ele><time>2021-07-17T13:29:17Z</time><extensions><speed>0.000000</speed><course>240.875916</course><hAcc>0.914853</hAcc><vAcc>0.742283</vAcc></extensions></trkpt>
      <trkpt lon="-4.158404" lat="53.024546"><ele>338.918396</ele><time>2021-07-17T13:29:18Z</time><extensions><speed>0.000000</speed><course>240.875916</course><hAcc>0.915844</hAcc><vAcc>0.743999</vAcc></extensions></trkpt>
      <trkpt lon="-4.158404" lat="53.024546"><ele>338.918396</ele><time>2021-07-17T13:29:19Z</time><extensions><speed>0.000000</speed><course>240.875916</course><hAcc>0.916354</hAcc><vAcc>0.745191</vAcc></extensions></trkpt>
      <trkpt lon="-4.158404" lat="53.024546"><ele>338.918396</ele><time>2021-07-17T13:29:20Z</time><extensions><speed>0.000000</speed><course>240.875916</course><hAcc>0.916515</hAcc><vAcc>0.745792</vAcc></extensions></trkpt>
      <trkpt lon="-4.158404" lat="53.024546"><ele>338.918396</ele><time>2021-07-17T13:29:21Z</time><extensions><speed>0.000000</speed><course>269.430084</course><hAcc>0.916444</hAcc><vAcc>0.745811</vAcc></extensions></trkpt>
      <trkpt lon="-4.158404" lat="53.024546"><ele>338.918396</ele><time>2021-07-17T13:29:22Z</time><extensions><speed>0.000000</speed><course>274.056000</course><hAcc>0.916183</hAcc><vAcc>0.745276</vAcc></extensions></trkpt>
      <trkpt lon="-4.158404" lat="53.024546"><ele>338.918396</ele><time>2021-07-17T13:29:23Z</time><extensions><speed>0.000000</speed><course>273.580658</course><hAcc>0.915699</hAcc><vAcc>0.744230</vAcc></extensions></trkpt>
      <trkpt lon="-4.158404" lat="53.024546"><ele>338.918396</ele><time>2021-07-17T13:29:24Z</time><extensions><speed>0.000000</speed><course>266.285736</course><hAcc>0.914930</hAcc><vAcc>0.742774</vAcc></extensions></trkpt>
      <trkpt lon="-4.158404" lat="53.024546"><ele>338.918396</ele><time>2021-07-17T13:29:25Z</time><extensions><speed>0.000000</speed><course>280.416809</course><hAcc>0.913897</hAcc><vAcc>0.741161</vAcc></extensions></trkpt>
      <trkpt lon="-4.158404" lat="53.024546"><ele>338.918396</ele><time>2021-07-17T13:29:26Z</time><extensions><speed>0.000000</speed><course>289.633057</course><hAcc>0.912882</hAcc><vAcc>0.739940</vAcc></extensions></trkpt>
      <trkpt lon="-4.158404" lat="53.024546"><ele>338.918396</ele><time>2021-07-17T13:29:27Z</time><extensions><speed>0.000000</speed><course>274.042023</course><hAcc>0.912698</hAcc><vAcc>0.740164</vAcc></extensions></trkpt>
      <trkpt lon="-4.158404" lat="53.024546"><ele>338.918396</ele><time>2021-07-17T13:29:28Z</time><extensions><speed>0.000000</speed><course>259.398621</course><hAcc>0.915059</hAcc><vAcc>0.743626</vAcc></extensions></trkpt>
      <trkpt lon="-4.158404" lat="53.024546"><ele>338.918396</ele><time>2021-07-17T13:29:29Z</time><extensions><speed>0.000000</speed><course>235.228027</course><hAcc>0.923016</hAcc><vAcc>0.753104</vAcc></extensions></trkpt>
      <trkpt lon="-4.158404" lat="53.024546"><ele>338.918396</ele><time>2021-07-17T13:29:30Z</time><extensions><speed>0.000000</speed><course>233.943741</course><hAcc>0.941371</hAcc><vAcc>0.772483</vAcc></extensions></trkpt>
      <trkpt lon="-4.158404" lat="53.024546"><ele>338.918396</ele><time>2021-07-17T13:29:31Z</time><extensions><speed>0.000000</speed><course>251.986771</course><hAcc>0.976790</hAcc><vAcc>0.806609</vAcc></extensions></trkpt>
      <trkpt lon="-4.158404" lat="53.024546"><ele>338.918396</ele><time>2021-07-17T13:29:32Z</time><extensions><speed>0.000000</speed><course>207.637573</course><hAcc>0.938728</hAcc><vAcc>0.771314</vAcc></extensions></trkpt>
      <trkpt lon="-4.158404" lat="53.024546"><ele>338.918396</ele><time>2021-07-17T13:29:33Z</time><extensions><speed>0.000000</speed><course>199.781464</course><hAcc>0.919549</hAcc><vAcc>0.750702</vAcc></extensions></trkpt>
      <trkpt lon="-4.158404" lat="53.024546"><ele>338.918396</ele><time>2021-07-17T13:29:34Z</time><extensions><speed>0.000000</speed><course>204.898392</course><hAcc>0.911944</hAcc><vAcc>0.740998</vAcc></extensions></trkpt>
      <trkpt lon="-4.158404" lat="53.024546"><ele>338.918396</ele><time>2021-07-17T13:29:35Z</time><extensions><speed>0.000000</speed><course>218.988647</course><hAcc>0.910422</hAcc><vAcc>0.737853</vAcc></extensions></trkpt>
      <trkpt lon="-4.158404" lat="53.024546"><ele>338.918396</ele><time>2021-07-17T13:29:36Z</time><extensions><speed>0.000000</speed><course>240.875916</course><hAcc>0.911502</hAcc><vAcc>0.738160</vAcc></extensions></trkpt>
      <trkpt lon="-4.158404" lat="53.024546"><ele>338.918396</ele><time>2021-07-17T13:29:37Z</time><extensions><speed>0.000000</speed><course>240.875916</course><hAcc>0.913248</hAcc><vAcc>0.739920</vAcc></extensions></trkpt>
      <trkpt lon="-4.158404" lat="53.024546"><ele>338.918396</ele><time>2021-07-17T13:29:38Z</time><extensions><speed>0.000000</speed><course>240.875916</course><hAcc>0.914765</hAcc><vAcc>0.741976</vAcc></extensions></trkpt>
      <trkpt lon="-4.158404" lat="53.024546"><ele>338.918396</ele><time>2021-07-17T13:29:39Z</time><extensions><speed>0.000000</speed><course>240.875916</course><hAcc>0.915770</hAcc><vAcc>0.743743</vAcc></extensions></trkpt>
      <trkpt lon="-4.158404" lat="53.024546"><ele>338.918396</ele><time>2021-07-17T13:29:40Z</time><extensions><speed>0.000000</speed><course>240.875916</course><hAcc>0.916293</hAcc><vAcc>0.744980</vAcc></extensions></trkpt>
      <trkpt lon="-4.158404" lat="53.024546"><ele>338.918396</ele><time>2021-07-17T13:29:41Z</time><extensions><speed>0.000000</speed><course>240.875916</course><hAcc>0.916467</hAcc><vAcc>0.745625</vAcc></extensions></trkpt>
      <trkpt lon="-4.158404" lat="53.024546"><ele>338.918396</ele><time>2021-07-17T13:29:42Z</time><extensions><speed>0.000000</speed><course>269.430084</course><hAcc>0.916407</hAcc><vAcc>0.745687</vAcc></extensions></trkpt>
      <trkpt lon="-4.158404" lat="53.024546"><ele>338.918396</ele><time>2021-07-17T13:29:43Z</time><extensions><speed>0.000000</speed><course>274.056000</course><hAcc>0.916156</hAcc><vAcc>0.745194</vAcc></extensions></trkpt>
      <trkpt lon="-4.158404" lat="53.024546"><ele>338.918396</ele><time>2021-07-17T13:29:44Z</time><extensions><speed>0.000000</speed><course>273.580658</course><hAcc>0.915680</hAcc><vAcc>0.744187</vAcc></extensions></trkpt>
      <trkpt lon="-4.158404" lat="53.024546"><ele>338.918396</ele><time>2021-07-17T13:29:45Z</time><extensions><speed>0.000000</speed><course>266.285736</course><hAcc>0.914916</hAcc><vAcc>0.742764</vAcc></extensions></trkpt>
      <trkpt lon="-4.158404" lat="53.024546"><ele>338.918396</ele><time>2021-07-17T13:29:46Z</time><extensions><speed>0.000000</speed><course>280.416809</course><hAcc>0.913884</hAcc><vAcc>0.741173</vAcc></extensions></trkpt>
      <trkpt lon="-4.158404" lat="53.024546"><ele>338.918396</ele><time>2021-07-17T13:29:47Z</time><extensions><speed>0.000000</speed><course>289.633057</course><hAcc>0.912865</hAcc><vAcc>0.739959</vAcc></extensions></trkpt>
      <trkpt lon="-4.158404" lat="53.024546"><ele>338.918396</ele><time>2021-07-17T13:29:48Z</time><extensions><speed>0.000000</speed><course>274.042023</course><hAcc>0.912671</hAcc><vAcc>0.740169</vAcc></extensions></trkpt>
      <trkpt lon="-4.158404" lat="53.024546"><ele>338.918396</ele><time>2021-07-17T13:29:49Z</time><extensions><speed>0.000000</speed><course>259.398621</course><hAcc>0.915014</hAcc><vAcc>0.743593</vAcc></extensions></trkpt>
      <trkpt lon="-4.158404" lat="53.024546"><ele>338.918396</ele><time>2021-07-17T13:29:50Z</time><extensions><speed>0.000000</speed><course>235.228027</course><hAcc>0.922948</hAcc><vAcc>0.753005</vAcc></extensions></trkpt>
      <trkpt lon="-4.158404" lat="53.024546"><ele>338.918396</ele><time>2021-07-17T13:29:51Z</time><extensions><speed>0.000000</speed><course>233.943741</course><hAcc>0.941275</hAcc><vAcc>0.772294</vAcc></extensions></trkpt>
      <trkpt lon="-4.158404" lat="53.024546"><ele>338.918396</ele><time>2021-07-17T13:29:52Z</time><extensions><speed>0.000000</speed><course>251.986771</course><hAcc>0.976667</hAcc><vAcc>0.806312</vAcc></extensions></trkpt>
      <trkpt lon="-4.158404" lat="53.024546"><ele>338.918396</ele><time>2021-07-17T13:29:53Z</time><extensions><speed>0.000000</speed><course>207.637573</course><hAcc>0.938630</hAcc><vAcc>0.771112</vAcc></extensions></trkpt>
      <trkpt lon="-4.158404" lat="53.024546"><ele>338.918396</ele><time>2021-07-17T13:29:54Z</time><extensions><speed>0.000000</speed><course>199.781464</course><hAcc>0.919421</hAcc><vAcc>0.750389</vAcc></extensions></trkpt>
      <trkpt lon="-4.158404" lat="53.024546"><ele>338.918396</ele><time>2021-07-17T13:29:55Z</time><extensions><speed>0.000000</speed><course>204.898392</course><hAcc>0.911783</hAcc><vAcc>0.740575</vAcc></extensions></trkpt>
      <trkpt lon="-4.158404" lat="53.024546"><ele>338.918396</ele><time>2021-07-17T13:29:56Z</time><extensions><speed>0.000000</speed><course>218.988647</course><hAcc>0.910235</hAcc><vAcc>0.737337</vAcc></extensions></trkpt>
      <trkpt lon="-4.158404" lat="53.024546"><ele>338.918396</ele><time>2021-07-17T13:29:57Z</time><extensions><speed>0.000000</speed><course>240.875916</course><hAcc>0.911293</hAcc><vAcc>0.737567</vAcc></extensions></trkpt>
      <trkpt lon="-4.158404" lat="53.024546"><ele>338.918396</ele><time>2021-07-17T13:29:58Z</time><extensions><speed>0.000000</speed><course>240.875916</course><hAcc>0.913020</hAcc><vAcc>0.739260</vAcc></extensions></trkpt>
      <trkpt lon="-4.158404" lat="53.024546"><ele>338.918396</ele><time>2021-07-17T13:29:59Z</time><extensions><speed>0.000000</speed><course>240.875916</course><hAcc>0.914518</hAcc><vAcc>0.741259</vAcc></extensions></trkpt>
      <trkpt lon="-4.158404" lat="53.024546"><ele>338.918396</ele><time>2021-07-17T13:30:00Z</time><extensions><speed>0.000000</speed><course>240.875916</course><hAcc>0.915506</hAcc><vAcc>0.742976</vAcc></extensions></trkpt>
      <trkpt lon="-4.158404" lat="53.024546"><ele>338.918396</ele><time>2021-07-17T13:30:01Z</time><extensions><speed>0.000000</speed><course>240.875916</course><hAcc>0.916011</hAcc><vAcc>0.744168</vAcc></extensions></trkpt>
      <trkpt lon="-4.158404" lat="53.024546"><ele>338.918396</ele><time>2021-07-17T13:30:02Z</time><extensions><speed>0.000000</speed><course>240.875916</course><hAcc>0.916167</hAcc><vAcc>0.744774</vAcc></extensions></trkpt>
      <trkpt lon="-4.158404" lat="53.024546"><ele>338.918396</ele><time>2021-07-17T13:30:03Z</time><extensions><speed>0.000000</speed><course>269.430084</course><hAcc>0.916090</hAcc><vAcc>0.744802</vAcc></extensions></trkpt>
      <trkpt lon="-4.158404" lat="53.024546"><ele>338.918396</ele><time>2021-07-17T13:30:04Z</time><extensions><speed>0.000000</speed><course>274.056000</course><hAcc>0.915822</hAcc><vAcc>0.744280</vAcc></extensions></trkpt>
      <trkpt lon="-4.158404" lat="53.024546"><ele>338.918396</ele><time>2021-07-17T13:30:05Z</time><extensions><speed>0.000000</speed><course>273.580658</course><hAcc>0.915347</hAcc><vAcc>0.743264</vAcc></extensions></trkpt>
      <trkpt lon="-4.158404" lat="53.024546"><ele>338.918396</ele><time>2021-07-17T13:30:06Z</time><extensions><speed>0.000000</speed><course>266.285736</course><hAcc>0.914601</hAcc><vAcc>0.741851</vAcc></extensions></trkpt>
      <trkpt lon="-4.158404" lat="53.024546"><ele>338.918396</ele><time>2021-07-17T13:30:07Z</time><extensions><speed>0.000000</speed><course>280.416809</course><hAcc>0.913587</hAcc><vAcc>0.740280</vAcc></extensions></trkpt>
      <trkpt lon="-4.158404" lat="53.024546"><ele>338.918396</ele><time>2021-07-17T13:30:08Z</time><extensions><speed>0.000000</speed><course>289.633057</course><hAcc>0.912586</hAcc><vAcc>0.739099</vAcc></extensions></trkpt>
      <trkpt lon="-4.158404" lat="53.024546"><ele>338.918396</ele><time>2021-07-17T13:30:09Z</time><extensions><speed>0.000000</speed><course>274.042023</course><hAcc>0.912412</hAcc><vAcc>0.739356</vAcc></extensions></trkpt>
      <trkpt lon="-4.158404" lat="53.024546"><ele>338.918396</ele><time>2021-07-17T13:30:10Z</time><extensions><speed>0.000000</speed><course>259.398621</course><hAcc>0.914775</hAcc><vAcc>0.742842</vAcc></extensions></trkpt>
      <trkpt lon="-4.158404" lat="53.024546"><ele>338.918396</ele><time>2021-07-17T13:30:11Z</time><extensions><speed>0.000000</speed><course>235.228027</course><hAcc>0.922730</hAcc><vAcc>0.752331</vAcc></extensions></trkpt>
      <trkpt lon="-4.158404" lat="53.024546"><ele>338.918396</ele><time>2021-07-17T13:30:12Z</time><extensions><speed>0.000000</speed><course>233.943741</course><hAcc>0.941080</hAcc><vAcc>0.771709</vAcc></extensions></trkpt>
      <trkpt lon="-4.158404" lat="53.024546"><ele>338.918396</ele><time>2021-07-17T13:30:13Z</time><extensions><speed>0.000000</speed><course>251.986771</course><hAcc>0.976496</hAcc><vAcc>0.805823</vAcc></extensions></trkpt>
      <trkpt lon="-4.158404" lat="53.024546"><ele>338.918396</ele><time>2021-07-17T13:30:14Z</time><extensions><speed>0.000000</speed><course>207.637573</course><hAcc>0.938416</hAcc><vAcc>0.770557</vAcc></extensions></trkpt>
      <trkpt lon="-4.158404" lat="53.024546"><ele>338.918396</ele><time>2021-07-17T13:30:15Z</time><extensions><speed>0.000000</speed><course>199.781464</course><hAcc>0.919281</hAcc><vAcc>0.750038</vAcc></extensions></trkpt>
      <trkpt lon="-4.158404" lat="53.024546"><ele>338.918396</ele><time>2021-07-17T13:30:16Z</time><extensions><speed>0.000000</speed><course>204.898392</course><hAcc>0.911706</hAcc><vAcc>0.740394</vAcc></extensions></trkpt>
      <trkpt lon="-4.158404" lat="53.024546"><ele>338.918396</ele><time>2021-07-17T13:30:17Z</time><extensions><speed>0.000000</speed><course>218.988647</course><hAcc>0.910209</hAcc><vAcc>0.737291</vAcc></extensions></trkpt>
      <trkpt lon="-4.158404" lat="53.024546"><ele>338.918396</ele><time>2021-07-17T13:30:18Z</time><extensions><speed>0.000000</speed><course>240.875916</course><hAcc>0.911308</hAcc><vAcc>0.737627</vAcc></extensions></trkpt>
      <trkpt lon="-4.158404" lat="53.024546"><ele>338.918396</ele><time>2021-07-17T13:30:19Z</time><extensions><speed>0.000000</speed><course>240.875916</course><hAcc>0.913067</hAcc><vAcc>0.739403</vAcc></extensions></trkpt>
      <trkpt lon="-4.158404" lat="53.024546"><ele>338.918396</ele><time>2021-07-17T13:30:20Z</time><extensions><speed>0.000000</speed><course>240.875916</course><hAcc>0.914591</hAcc><vAcc>0.741466</vAcc></extensions></trkpt>
      <trkpt lon="-4.158404" lat="53.024546"><ele>338.918396</ele><time>2021-07-17T13:30:21Z</time><extensions><speed>0.000000</speed><course>240.875916</course><hAcc>0.915600</hAcc><vAcc>0.743234</vAcc></extensions></trkpt>
      <trkpt lon="-4.158404" lat="53.024546"><ele>338.918396</ele><time>2021-07-17T13:30:22Z</time><extensions><speed>0.000000</speed><course>240.875916</course><hAcc>0.916124</hAcc><vAcc>0.744468</vAcc></extensions></trkpt>
      <trkpt lon="-4.158404" lat="53.024546"><ele>338.918396</ele><time>2021-07-17T13:30:23Z</time><extensions><speed>0.000000</speed><course>240.875916</course><hAcc>0.916296</hAcc><vAcc>0.745107</vAcc></extensions></trkpt>
      <trkpt lon="-4.158404" lat="53.024546"><ele>338.918396</ele><time>2021-07-17T13:30:24Z</time><extensions><speed>0.000000</speed><course>269.430084</course><hAcc>0.916236</hAcc><vAcc>0.745164</vAcc></extensions></trkpt>
      <trkpt lon="-4.158404" lat="53.024546"><ele>338.918396</ele><time>2021-07-17T13:30:25Z</time><extensions><speed>0.000000</speed><course>274.056000</course><hAcc>0.915986</hAcc><vAcc>0.744666</vAcc></extensions></trkpt>
      <trkpt lon="-4.158404" lat="53.024546"><ele>338.918396</ele><time>2021-07-17T13:30:26Z</time><extensions><speed>0.000000</speed><course>273.580658</course><hAcc>0.915513</hAcc><vAcc>0.743659</vAcc></extensions></trkpt>
      <trkpt lon="-4.158404" lat="53.024546"><ele>338.918396</ele><time>2021-07-17T13:30:27Z</time><extensions><speed>0.000000</speed><course>266.285736</course><hAcc>0.914755</hAcc><vAcc>0.742243</vAcc></extensions></trkpt>
      <trkpt lon="-4.158404" lat="53.024546"><ele>338.918396</ele><time>2021-07-17T13:30:28Z</time><extensions><speed>0.000000</speed><course>280.416809</course><hAcc>0.913733</hAcc><vAcc>0.740671</vAcc></extensions></trkpt>
      <trkpt lon="-4.158404" lat="53.024546"><ele>338.918396</ele><time>2021-07-17T13:30:29Z</time><extensions><speed>0.000000</speed><course>289.633057</course><hAcc>0.912728</hAcc><vAcc>0.739492</vAcc></extensions></trkpt>
      <trkpt lon="-4.158404" lat="53.024546"><ele>338.918396</ele><time>2021-07-17T13:30:30Z</time><extensions><speed>0.000000</speed><course>274.042023</course><hAcc>0.912554</hAcc><vAcc>0.739756</vAcc></extensions></trkpt>
      <trkpt lon="-4.158404" lat="53.024546"><ele>338.918396</ele><time>2021-07-17T13:30:31Z</time><extensions><speed>0.000000</speed><course>259.398621</course><hAcc>0.914923</hAcc><vAcc>0.743258</vAcc></extensions></trkpt>
      <trkpt lon="-4.158404" lat="53.024546"><ele>338.918396</ele><time>2021-07-17T13:30:32Z</time><extensions><speed>0.000000</speed><course>235.228027</course><hAcc>0.922890</hAcc><vAcc>0.752774</vAcc></extensions></trkpt>
      <trkpt lon="-4.158404" lat="53.024546"><ele>338.918396</ele><time>2021-07-17T13:30:33Z</time><extensions><speed>0.000000</speed><course>233.943741</course><hAcc>0.941256</hAcc><vAcc>0.772190</vAcc></extensions></trkpt>
      <trkpt lon="-4.158404" lat="53.024546"><ele>338.918396</ele><time>2021-07-17T13:30:34Z</time><extensions><speed>0.000000</speed><course>251.986771</course><hAcc>0.976691</hAcc><vAcc>0.806353</vAcc></extensions></trkpt>
      <trkpt lon="-4.158404" lat="53.024546"><ele>338.918396</ele><time>2021-07-17T13:30:35Z</time><extensions><speed>0.000000</speed><course>207.637573</course><hAcc>0.938592</hAcc><vAcc>0.771049</vAcc></extensions></trkpt>
      <trkpt lon="-4.158404" lat="53.024546"><ele>338.918396</ele><time>2021-07-17T13:30:36Z</time><extensions><speed>0.000000</speed><course>199.781464</course><hAcc>0.919442</hAcc><vAcc>0.750503</vAcc></extensions></trkpt>
      <trkpt lon="-4.158404" lat="53.024546"><ele>338.918396</ele><time>2021-07-17T13:30:37Z</time><extensions><speed>0.000000</speed><course>204.898392</course><hAcc>0.911857</hAcc><vAcc>0.740843</vAcc></extensions></trkpt>
      <trkpt lon="-4.158404" lat="53.024546"><ele>338.918396</ele><time>2021-07-17T13:30:38Z</time><extensions><speed>0.000000</speed><course>218.988647</course><hAcc>0.910355</hAcc><vAcc>0.737735</vAcc></extensions></trkpt>
      <trkpt lon="-4.158404" lat="53.024546"><ele>338.918396</ele><time>2021-07-17T13:30:39Z</time><extensions><speed>0.000000</speed><course>240.875916</course><hAcc>0.911452</hAcc><vAcc>0.738073</vAcc></extensions></trkpt>
      <trkpt lon="-4.158404" lat="53.024546"><ele>338.918396</ele><time>2021-07-17T13:30:40Z</time><extensions><speed>0.000000</speed><course>240.875916</course><hAcc>0.913213</hAcc><vAcc>0.739857</vAcc></extensions></trkpt>
      <trkpt lon="-4.158404" lat="53.024546"><ele>338.918396</ele><time>2021-07-17T13:30:41Z</time><extensions><speed>0.000000</speed><course>240.875916</course><hAcc>0.914740</hAcc><vAcc>0.741930</vAcc></extensions></trkpt>
      <trkpt lon="-4.158404" lat="53.024546"><ele>338.918396</ele><time>2021-07-17T13:30:42Z</time><extensions><speed>0.000000</speed><course>240.875916</course><hAcc>0.915752</hAcc><vAcc>0.743709</vAcc></extensions></trkpt>
      <trkpt lon="-4.158404" lat="53.024546"><ele>338.918396</ele><time>2021-07-17T13:30:43Z</time><extensions><speed>0.000000</speed><course>240.875916</course><hAcc>0.916280</hAcc><vAcc>0.744954</vAcc></extensions></trkpt>
      <trkpt lon="-4.158404" lat="53.024546"><ele>338.918396</ele><time>2021-07-17T13:30:44Z</time><extensions><speed>0.000000</speed><course>240.875916</course><hAcc>0.916456</hAcc><vAcc>0.745602</vAcc></extensions></trkpt>
      <trkpt lon="-4.158404" lat="53.024546"><ele>338.918396</ele><time>2021-07-17T13:30:45Z</time><extensions><speed>0.000000</speed><course>269.430084</course><hAcc>0.916398</hAcc><vAcc>0.745665</vAcc></extensions></trkpt>
      <trkpt lon="-4.158404" lat="53.024546"><ele>338.918396</ele><time>2021-07-17T13:30:46Z</time><extensions><speed>0.000000</speed><course>274.056000</course><hAcc>0.916149</hAcc><vAcc>0.745172</vAcc></extensions></trkpt>
      <trkpt lon="-4.158404" lat="53.024546"><ele>338.918396</ele><time>2021-07-17T13:30:47Z</time><extensions><speed>0.000000</speed><course>273.580658</course><hAcc>0.915676</hAcc><vAcc>0.744168</vAcc></extensions></trkpt>
      <trkpt lon="-4.158404" lat="53.024546"><ele>338.918396</ele><time>2021-07-17T13:30:48Z</time><extensions><speed>0.000000</speed><course>266.285736</course><hAcc>0.914918</hAcc><vAcc>0.742754</vAcc></extensions></trkpt>
      <trkpt lon="-4.158404" lat="53.024546"><ele>338.918396</ele><time>2021-07-17T13:30:49Z</time><extensions><speed>0.000000</speed><course>280.416809</course><hAcc>0.913896</hAcc><vAcc>0.741183</vAcc></extensions></trkpt>
      <trkpt lon="-4.158404" lat="53.024546"><ele>338.918396</ele><time>2021-07-17T13:30:50Z</time><extensions><speed>0.000000</speed><course>289.633057</course><hAcc>0.912894</hAcc><vAcc>0.740008</vAcc></extensions></trkpt>
      <trkpt lon="-4.158404" lat="53.024546"><ele>338.918396</ele><time>2021-07-17T13:30:51Z</time><extensions><speed>0.000000</speed><course>274.042023</course><hAcc>0.912725</hAcc><vAcc>0.740281</vAcc></extensions></trkpt>
      <trkpt lon="-4.158404" lat="53.024546"><ele>338.918396</ele><time>2021-07-17T13:30:52Z</time><extensions><speed>0.000000</speed><course>259.398621</course><hAcc>0.915104</hAcc><vAcc>0.743799</vAcc></extensions></trkpt>
      <trkpt lon="-4.158404" lat="53.024546"><ele>338.918396</ele><time>2021-07-17T13:30:53Z</time><extensions><speed>0.000000</speed><course>235.228027</course><hAcc>0.923085</hAcc><vAcc>0.753341</vAcc></extensions></trkpt>
      <trkpt lon="-4.158404" lat="53.024546"><ele>338.918396</ele><time>2021-07-17T13:30:54Z</time><extensions><speed>0.000000</speed><course>233.943741</course><hAcc>0.941469</hAcc><vAcc>0.772794</vAcc></extensions></trkpt>
      <trkpt lon="-4.158404" lat="53.024546"><ele>338.918396</ele><time>2021-07-17T13:30:55Z</time><extensions><speed>0.000000</speed><course>251.986771</course><hAcc>0.976927</hAcc><vAcc>0.807005</vAcc></extensions></trkpt>
      <trkpt lon="-4.158404" lat="53.024546"><ele>338.918396</ele><time>2021-07-17T13:30:56Z</time><extensions><speed>0.000000</speed><course>207.637573</course><hAcc>0.938808</hAcc><vAcc>0.771653</vAcc></extensions></trkpt>
      <trkpt lon="-4.158404" lat="53.024546"><ele>338.918396</ele><time>2021-07-17T13:30:57Z</time><extensions><speed>0.000000</speed><course>199.781464</course><hAcc>0.919634</hAcc><vAcc>0.751053</vAcc></extensions></trkpt>
      <trkpt lon="-4.158404" lat="53.024546"><ele>338.918396</ele><time>2021-07-17T13:30:58Z</time><extensions><speed>0.000000</speed><course>204.898392</course><hAcc>0.912029</hAcc><vAcc>0.741351</vAcc></extensions></trkpt>
      <trkpt lon="-4.158404" lat="53.024546"><ele>338.918396</ele><time>2021-07-17T13:30:59Z</time><extensions><speed>0.000000</speed><course>218.988647</course><hAcc>0.910512</hAcc><vAcc>0.738214</vAcc></extensions></trkpt>
      <trkpt lon="-4.158404" lat="53.024546"><ele>338.918396</ele><time>2021-07-17T13:31:00Z</time><extensions><speed>0.000000</speed><course>240.875916</course><hAcc>0.911599</hAcc><vAcc>0.738531</vAcc></extensions></trkpt>
      <trkpt lon="-4.158404" lat="53.024546"><ele>338.918396</ele><time>2021-07-17T13:31:01Z</time><extensions><speed>0.000000</speed><course>240.875916</course><hAcc>0.913354</hAcc><vAcc>0.740301</vAcc></extensions></trkpt>
      <trkpt lon="-4.158404" lat="53.024546"><ele>338.918396</ele><time>2021-07-17T13:31:02Z</time><extensions><speed>0.000000</speed><course>240.875916</course><hAcc>0.914877</hAcc><vAcc>0.742364</vAcc></extensions></trkpt>
      <trkpt lon="-4.158404" lat="53.024546"><ele>338.918396</ele><time>2021-07-17T13:31:03Z</time><extensions><speed>0.000000</speed><course>240.875916</course><hAcc>0.915887</hAcc><vAcc>0.744134</vAcc></extensions></trkpt>
      <trkpt lon="-4.158404" lat="53.024546"><ele>338.918396</ele><time>2021-07-17T13:31:04Z</time><extensions><speed>0.000000</speed><course>240.875916</course><hAcc>0.916413</hAcc><vAcc>0.745370</vAcc></extensions></trkpt>
      <trkpt lon="-4.158404" lat="53.024546"><ele>338.918396</ele><time>2021-07-17T13:31:05Z</time><extensions><speed>0.000000</speed><course>240.875916</course><hAcc>0.916586</hAcc><vAcc>0.746008</vAcc></extensions></trkpt>
      <trkpt lon="-4.158404" lat="53.024546"><ele>338.918396</ele><time>2021-07-17T13:31:06Z</time><extensions><speed>0.000000</speed><course>269.430084</course><hAcc>0.916525</hAcc><vAcc>0.746060</vAcc></extensions></trkpt>
      <trkpt lon="-4.158404" lat="53.024546"><ele>338.918396</ele><time>2021-07-17T13:31:07Z</time><extensions><speed>0.000000</speed><course>274.056000</course><hAcc>0.916272</hAcc><vAcc>0.745554</vAcc></extensions></trkpt>
      <trkpt lon="-4.158404" lat="53.024546"><ele>338.918396</ele><time>2021-07-17T13:31:08Z</time><extensions><speed>0.000000</speed><course>273.580658</course><hAcc>0.915795</hAcc><vAcc>0.744535</vAcc></extensions></trkpt>
      <trkpt lon="-4.158404" lat="53.024546"><ele>338.918396</ele><time>2021-07-17T13:31:09Z</time><extensions><speed>0.000000</speed><course>266.285736</course><hAcc>0.915032</hAcc><vAcc>0.743106</vAcc></extensions></trkpt>
      <trkpt lon="-4.158404" lat="53.024546"><ele>338.918396</ele><time>2021-07-17T13:31:10Z</time><extensions><speed>0.000000</speed><course>280.416809</course><hAcc>0.914006</hAcc><vAcc>0.741520</vAcc></extensions></trkpt>
      <trkpt lon="-4.158404" lat="53.024546"><ele>338.918396</ele><time>2021-07-17T13:31:11Z</time><extensions><speed>0.000000</speed><course>289.633057</course><hAcc>0.913000</hAcc><vAcc>0.740331</vAcc></extensions></trkpt>
      <trkpt lon="-4.158404" lat="53.024546"><ele>338.918396</ele><time>2021-07-17T13:31:12Z</time><extensions><speed>0.000000</speed><course>274.042023</course><hAcc>0.912828</hAcc><vAcc>0.740593</vAcc></extensions></trkpt>
      <trkpt lon="-4.158404" lat="53.024546"><ele>338.918396</ele><time>2021-07-17T13:31:13Z</time><extensions><speed>0.000000</speed><course>259.398621</course><hAcc>0.915207</hAcc><vAcc>0.744104</vAcc></extensions></trkpt>
      <trkpt lon="-4.158404" lat="53.024546"><ele>338.918396</ele><time>2021-07-17T13:31:14Z</time><extensions><speed>0.000000</speed><course>235.228027</course><hAcc>0.923189</hAcc><vAcc>0.753645</vAcc></extensions></trkpt>
      <trkpt lon="-4.158404" lat="53.024546"><ele>338.918396</ele><time>2021-07-17T13:31:15Z</time><extensions><speed>0.000000</speed><course>233.943741</course><hAcc>0.941578</hAcc><vAcc>0.773102</vAcc></extensions></trkpt>
      <trkpt lon="-4.158404" lat="53.024546"><ele>338.918396</ele><time>2021-07-17T13:31:16Z</time><extensions><speed>0.000000</speed><course>251.986771</course><hAcc>0.977041</hAcc><vAcc>0.807323</vAcc></extensions></trkpt>
      <trkpt lon="-4.158404" lat="53.024546"><ele>338.918396</ele><time>2021-07-17T13:31:17Z</time><extensions><speed>0.000000</speed><course>207.637573</course><hAcc>0.938914</hAcc><vAcc>0.771946</vAcc></extensions></trkpt>
      <trkpt lon="-4.158404" lat="53.024546"><ele>338.918396</ele><time>2021-07-17T13:31:18Z</time><extensions><speed>0.000000</speed><course>199.781464</course><hAcc>0.919728</hAcc><vAcc>0.751315</vAcc></extensions></trkpt>
      <trkpt lon="-4.158404" lat="53.024546"><ele>338.918396</ele><time>2021-07-17T13:31:19Z</time><extensions><speed>0.000000</speed><course>204.898392</course><hAcc>0.912113</hAcc><vAcc>0.741589</vAcc></extensions></trkpt>
      <trkpt lon="-4.158404" lat="53.024546"><ele>338.918396</ele><time>2021-07-17T13:31:20Z</time><extensions><speed>0.000000</speed><course>218.988647</course><hAcc>0.910590</hAcc><vAcc>0.738436</vAcc></extensions></trkpt>
      <trkpt lon="-4.158404" lat="53.024546"><ele>338.918396</ele><time>2021-07-17T13:31:21Z</time><extensions><speed>0.000000</speed><course>240.875916</course><hAcc>0.911674</hAcc><vAcc>0.738744</vAcc></extensions></trkpt>
      <trkpt lon="-4.158404" lat="53.024546"><ele>338.918396</ele><time>2021-07-17T13:31:22Z</time><extensions><speed>0.000000</speed><course>240.875916</course><hAcc>0.913429</hAcc><vAcc>0.740510</vAcc></extensions></trkpt>
      <trkpt lon="-4.158404" lat="53.024546"><ele>338.918396</ele><time>2021-07-17T13:31:23Z</time><extensions><speed>0.000000</speed><course>240.875916</course><hAcc>0.914955</hAcc><vAcc>0.742575</vAcc></extensions></trkpt>
      <trkpt lon="-4.158404" lat="53.024546"><ele>338.918396</ele><time>2021-07-17T13:31:24Z</time><extensions><speed>0.000000</speed><course>240.875916</course><hAcc>0.915972</hAcc><vAcc>0.744351</vAcc></extensions></trkpt>
      <trkpt lon="-4.158404" lat="53.024546"><ele>338.918396</ele><time>2021-07-17T13:31:25Z</time><extensions><speed>0.000000</speed><course>240.875916</course><hAcc>0.916506</hAcc><vAcc>0.745596</vAcc></extensions></trkpt>
      <trkpt lon="-4.158404" lat="53.024546"><ele>338.918396</ele><time>2021-07-17T13:31:26Z</time><extensions><speed>0.000000</speed><course>240.875916</course><hAcc>0.916691</hAcc><vAcc>0.746248</vAcc></extensions></trkpt>
      <trkpt lon="-4.158404" lat="53.024546"><ele>338.918396</ele><time>2021-07-17T13:31:27Z</time><extensions><speed>0.000000</speed><course>269.430084</course><hAcc>0.916644</hAcc><vAcc>0.746319</vAcc></extensions></trkpt>
      <trkpt lon="-4.158404" lat="53.024546"><ele>338.918396</ele><time>2021-07-17T13:31:28Z</time><extensions><speed>0.000000</speed><course>274.056000</course><hAcc>0.916410</hAcc><vAcc>0.745837</vAcc></extensions></trkpt>
      <trkpt lon="-4.158404" lat="53.024546"><ele>338.918396</ele><time>2021-07-17T13:31:29Z</time><extensions><speed>0.000000</speed><course>273.580658</course><hAcc>0.915937</hAcc><vAcc>0.744835</vAcc></extensions></trkpt>
      <trkpt lon="-4.158404" lat="53.024546"><ele>338.918396</ele><time>2021-07-17T13:31:30Z</time><extensions><speed>0.000000</speed><course>266.285736</course><hAcc>0.915167</hAcc><vAcc>0.743418</vAcc></extensions></trkpt>
      <trkpt lon="-4.158404" lat="53.024546"><ele>338.918396</ele><time>2021-07-17T13:31:31Z</time><extensions><speed>0.000000</speed><course>280.416809</course><hAcc>0.914137</hAcc><vAcc>0.741852</vAcc></extensions></trkpt>
      <trkpt lon="-4.158404" lat="53.024546"><ele>338.918396</ele><time>2021-07-17T13:31:32Z</time><extensions><speed>0.000000</speed><course>289.633057</course><hAcc>0.913133</hAcc><vAcc>0.740691</vAcc></extensions></trkpt>
      <trkpt lon="-4.158404" lat="53.024546"><ele>338.918396</ele><time>2021-07-17T13:31:33Z</time><extensions><speed>0.000000</speed><course>274.042023</course><hAcc>0.912969</hAcc><vAcc>0.740988</vAcc></extensions></trkpt>
      <trkpt lon="-4.158404" lat="53.024546"><ele>338.918396</ele><time>2021-07-17T13:31:34Z</time><extensions><speed>0.000000</speed><course>259.398621</course><hAcc>0.915358</hAcc><vAcc>0.744540</vAcc></extensions></trkpt>
      <trkpt lon="-4.158404" lat="53.024546"><ele>338.918396</ele><time>2021-07-17T13:31:35Z</time><extensions><speed>0.000000</speed><course>235.228027</course><hAcc>0.923357</hAcc><vAcc>0.754126</vAcc></extensions></trkpt>
      <trkpt lon="-4.158404" lat="53.024546"><ele>338.918396</ele><time>2021-07-17T13:31:36Z</time><extensions><speed>0.000000</speed><course>233.943741</course><hAcc>0.941766</hAcc><vAcc>0.773633</vAcc></extensions></trkpt>
      <trkpt lon="-4.158404" lat="53.024546"><ele>338.918396</ele><time>2021-07-17T13:31:37Z</time><extensions><speed>0.000000</speed><course>251.986771</course><hAcc>0.977251</hAcc><vAcc>0.807905</vAcc></extensions></trkpt>
      <trkpt lon="-4.158404" lat="53.024546"><ele>338.918396</ele><time>2021-07-17T13:31:38Z</time><extensions><speed>0.000000</speed><course>207.637573</course><hAcc>0.939124</hAcc><vAcc>0.772530</vAcc></extensions></trkpt>
      <trkpt lon="-4.158404" lat="53.024546"><ele>338.918396</ele><time>2021-07-17T13:31:39Z</time><extensions><speed>0.000000</speed><course>199.781464</course><hAcc>0.919912</hAcc><vAcc>0.751834</vAcc></extensions></trkpt>
      <trkpt lon="-4.158404" lat="53.024546"><ele>338.918396</ele><time>2021-07-17T13:31:40Z</time><extensions><speed>0.000000</speed><course>204.898392</course><hAcc>0.912278</hAcc><vAcc>0.742061</vAcc></extensions></trkpt>
      <trkpt lon="-4.158404" lat="53.024546"><ele>338.918396</ele><time>2021-07-17T13:31:41Z</time><extensions><speed>0.000000</speed><course>218.988647</course><hAcc>0.910742</hAcc><vAcc>0.738877</vAcc></extensions></trkpt>
      <trkpt lon="-4.158404" lat="53.024546"><ele>338.918396</ele><time>2021-07-17T13:31:42Z</time><extensions><speed>0.000000</speed><course>240.875916</course><hAcc>0.911822</hAcc><vAcc>0.739173</vAcc></extensions></trkpt>
      <trkpt lon="-4.158404" lat="53.024546"><ele>338.918396</ele><time>2021-07-17T13:31:43Z</time><extensions><speed>0.000000</speed><course>240.875916</course><hAcc>0.913577</hAcc><vAcc>0.740942</vAcc></extensions></trkpt>
      <trkpt lon="-4.158404" lat="53.024546"><ele>338.918396</ele><time>2021-07-17T13:31:44Z</time><extensions><speed>0.000000</speed><course>240.875916</course><hAcc>0.915108</hAcc><vAcc>0.743025</vAcc></extensions></trkpt>
      <trkpt lon="-4.158404" lat="53.024546"><ele>338.918396</ele><time>2021-07-17T13:31:45Z</time><extensions><speed>0.000000</speed><course>240.875916</course><hAcc>0.916133</hAcc><vAcc>0.744833</vAcc></extensions></trkpt>
      <trkpt lon="-4.158404" lat="53.024546"><ele>338.918396</ele><time>2021-07-17T13:31:46Z</time><extensions><speed>0.000000</speed><course>240.875916</course><hAcc>0.916675</hAcc><vAcc>0.746123</vAcc></extensions></trkpt>
      <trkpt lon="-4.158404" lat="53.024546"><ele>338.918396</ele><time>2021-07-17T13:31:47Z</time><extensions><speed>0.000000</speed><course>240.875916</course><hAcc>0.916869</hAcc><vAcc>0.746831</vAcc></extensions></trkpt>
      <trkpt lon="-4.158404" lat="53.024546"><ele>338.918396</ele><time>2021-07-17T13:31:48Z</time><extensions><speed>0.000000</speed><course>269.430084</course><hAcc>0.916829</hAcc><vAcc>0.746968</vAcc></extensions></trkpt>
      <trkpt lon="-4.158404" lat="53.024546"><ele>338.918396</ele><time>2021-07-17T13:31:49Z</time><extensions><speed>0.000000</speed><course>274.056000</course><hAcc>0.916600</hAcc><vAcc>0.746561</vAcc></extensions></trkpt>
      <trkpt lon="-4.158404" lat="53.024546"><ele>338.918396</ele><time>2021-07-17T13:31:50Z</time><extensions><speed>0.000000</speed><course>273.580658</course><hAcc>0.916149</hAcc><vAcc>0.745655</vAcc></extensions></trkpt>
      <trkpt lon="-4.158404" lat="53.024546"><ele>338.918396</ele><time>2021-07-17T13:31:51Z</time><extensions><speed>0.000000</speed><course>266.285736</course><hAcc>0.915420</hAcc><vAcc>0.744351</vAcc></extensions></trkpt>
      <trkpt lon="-4.158404" lat="53.024546"><ele>338.918396</ele><time>2021-07-17T13:31:52Z</time><extensions><speed>0.000000</speed><course>280.416809</course><hAcc>0.914438</hAcc><vAcc>0.742907</vAcc></extensions></trkpt>
      <trkpt lon="-4.158404" lat="53.024546"><ele>338.918396</ele><time>2021-07-17T13:31:53Z</time><extensions><speed>0.000000</speed><course>289.633057</course><hAcc>0.913492</hAcc><vAcc>0.741884</vAcc></extensions></trkpt>
      <trkpt lon="-4.158404" lat="53.024546"><ele>338.918396</ele><time>2021-07-17T13:31:54Z</time><extensions><speed>0.000000</speed><course>274.042023</course><hAcc>0.913406</hAcc><vAcc>0.742352</vAcc></extensions></trkpt>
      <trkpt lon="-4.158404" lat="53.024546"><ele>338.918396</ele><time>2021-07-17T13:31:55Z</time><extensions><speed>0.000000</speed><course>259.398621</course><hAcc>0.915899</hAcc><vAcc>0.746126</vAcc></extensions></trkpt>
      <trkpt lon="-4.158404" lat="53.024546"><ele>338.918396</ele><time>2021-07-17T13:31:56Z</time><extensions><speed>0.000000</speed><course>235.228027</course><hAcc>0.924031</hAcc><vAcc>0.756006</vAcc></extensions></trkpt>
      <trkpt lon="-4.158404" lat="53.024546"><ele>338.918396</ele><time>2021-07-17T13:31:57Z</time><extensions><speed>0.000000</speed><course>233.943741</course><hAcc>0.942601</hAcc><vAcc>0.775896</vAcc></extensions></trkpt>
      <trkpt lon="-4.158404" lat="53.024546"><ele>338.918396</ele><time>2021-07-17T13:31:58Z</time><extensions><speed>0.000000</speed><course>251.986771</course><hAcc>0.978267</hAcc><vAcc>0.810638</vAcc></extensions></trkpt>
      <trkpt lon="-4.158404" lat="53.024546"><ele>338.918396</ele><time>2021-07-17T13:31:59Z</time><extensions><speed>0.000000</speed><course>207.637573</course><hAcc>0.939903</hAcc><vAcc>0.774746</vAcc></extensions></trkpt>
      <trkpt lon="-4.158404" lat="53.024546"><ele>338.918396</ele><time>2021-07-17T13:32:00Z</time><extensions><speed>0.000000</speed><course>199.781464</course><hAcc>0.920636</hAcc><vAcc>0.753992</vAcc></extensions></trkpt>
      <trkpt lon="-4.158404" lat="53.024546"><ele>338.918396</ele><time>2021-07-17T13:32:01Z</time><extensions><speed>0.000000</speed><course>204.898392</course><hAcc>0.912960</hAcc><vAcc>0.744187</vAcc></extensions></trkpt>
      <trkpt lon="-4.158404" lat="53.024546"><ele>338.918396</ele><time>2021-07-17T13:32:02Z</time><extensions><speed>0.000000</speed><course>218.988647</course><hAcc>0.911397</hAcc><vAcc>0.740987</vAcc></extensions></trkpt>
      <trkpt lon="-4.158404" lat="53.024546"><ele>338.918396</ele><time>2021-07-17T13:32:03Z</time><extensions><speed>0.000000</speed><course>240.875916</course><hAcc>0.912461</hAcc><vAcc>0.741267</vAcc></extensions></trkpt>
      <trkpt lon="-4.158404" lat="53.024546"><ele>338.918396</ele><time>2021-07-17T13:32:04Z</time><extensions><speed>0.000000</speed><course>240.875916</course><hAcc>0.914210</hAcc><vAcc>0.743015</vAcc></extensions></trkpt>
      <trkpt lon="-4.158404" lat="53.024546"><ele>338.918396</ele><time>2021-07-17T13:32:05Z</time><extensions><speed>0.000000</speed><course>240.875916</course><hAcc>0.915740</hAcc><vAcc>0.745070</vAcc></extensions></trkpt>
      <trkpt lon="-4.158404" lat="53.024546"><ele>338.918396</ele><time>2021-07-17T13:32:06Z</time><extensions><speed>0.000000</speed><course>240.875916</course><hAcc>0.916761</hAcc><vAcc>0.746846</vAcc></extensions></trkpt>
      <trkpt lon="-4.158404" lat="53.024546"><ele>338.918396</ele><time>2021-07-17T13:32:07Z</time><extensions><speed>0.000000</speed><course>240.875916</course><hAcc>0.917296</hAcc><vAcc>0.748101</vAcc></extensions></trkpt>
      <trkpt lon="-4.158404" lat="53.024546"><ele>338.918396</ele><time>2021-07-17T13:32:08Z</time><extensions><speed>0.000000</speed><course>240.875916</course><hAcc>0.917475</hAcc><vAcc>0.748766</vAcc></extensions></trkpt>
      <trkpt lon="-4.158404" lat="53.024546"><ele>338.918396</ele><time>2021-07-17T13:32:09Z</time><extensions><speed>0.000000</speed><course>269.430084</course><hAcc>0.917413</hAcc><vAcc>0.748842</vAcc></extensions></trkpt>
      <trkpt lon="-4.158404" lat="53.024546"><ele>338.918396</ele><time>2021-07-17T13:32:10Z</time><extensions><speed>0.000000</speed><course>274.056000</course><hAcc>0.917150</hAcc><vAcc>0.748351</vAcc></extensions></trkpt>
      <trkpt lon="-4.158404" lat="53.024546"><ele>338.918396</ele><time>2021-07-17T13:32:11Z</time><extensions><speed>0.000000</speed><course>273.580658</course><hAcc>0.916656</hAcc><vAcc>0.747331</vAcc></extensions></trkpt>
      <trkpt lon="-4.158404" lat="53.024546"><ele>338.918396</ele><time>2021-07-17T13:32:12Z</time><extensions><speed>0.000000</speed><course>266.285736</course><hAcc>0.915872</hAcc><vAcc>0.745884</vAcc></extensions></trkpt>
      <trkpt lon="-4.158404" lat="53.024546"><ele>338.918396</ele><time>2021-07-17T13:32:13Z</time><extensions><speed>0.000000</speed><course>280.416809</course><hAcc>0.914843</hAcc><vAcc>0.744282</vAcc></extensions></trkpt>
      <trkpt lon="-4.158404" lat="53.024546"><ele>338.918396</ele><time>2021-07-17T13:32:14Z</time><extensions><speed>0.000000</speed><course>289.633057</course><hAcc>0.913854</hAcc><vAcc>0.743085</vAcc></extensions></trkpt>
      <trkpt lon="-4.158404" lat="53.024546"><ele>338.918396</ele><time>2021-07-17T13:32:15Z</time><extensions><speed>0.000000</speed><course>274.042023</course><hAcc>0.913709</hAcc><vAcc>0.743348</vAcc></extensions></trkpt>
      <trkpt lon="-4.158404" lat="53.024546"><ele>338.918396</ele><time>2021-07-17T13:32:16Z</time><extensions><speed>0.000000</speed><course>259.398621</course><hAcc>0.916125</hAcc><vAcc>0.746882</vAcc></extensions></trkpt>
      <trkpt lon="-4.158404" lat="53.024546"><ele>338.918396</ele><time>2021-07-17T13:32:17Z</time><extensions><speed>0.000000</speed><course>235.228027</course><hAcc>0.924157</hAcc><vAcc>0.756481</vAcc></extensions></trkpt>
      <trkpt lon="-4.158404" lat="53.024546"><ele>338.918396</ele><time>2021-07-17T13:32:18Z</time><extensions><speed>0.000000</speed><course>233.943741</course><hAcc>0.942596</hAcc><vAcc>0.776024</vAcc></extensions></trkpt>
      <trkpt lon="-4.158404" lat="53.024546"><ele>338.918396</ele><time>2021-07-17T13:32:19Z</time><extensions><speed>0.000000</speed><course>251.986771</course><hAcc>0.978097</hAcc><vAcc>0.810338</vAcc></extensions></trkpt>
      <trkpt lon="-4.158404" lat="53.024546"><ele>338.918396</ele><time>2021-07-17T13:32:20Z</time><extensions><speed>0.000000</speed><course>207.637573</course><hAcc>0.939882</hAcc><vAcc>0.774679</vAcc></extensions></trkpt>
      <trkpt lon="-4.158404" lat="53.024546"><ele>338.918396</ele><time>2021-07-17T13:32:21Z</time><extensions><speed>0.000000</speed><course>199.781464</course><hAcc>0.920553</hAcc><vAcc>0.753697</vAcc></extensions></trkpt>
      <trkpt lon="-4.158404" lat="53.024546"><ele>338.918396</ele><time>2021-07-17T13:32:22Z</time><extensions><speed>0.000000</speed><course>204.898392</course><hAcc>0.912825</hAcc><vAcc>0.743689</vAcc></extensions></trkpt>
      <trkpt lon="-4.158404" lat="53.024546"><ele>338.918396</ele><time>2021-07-17T13:32:23Z</time><extensions><speed>0.000000</speed><course>218.988647</course><hAcc>0.911221</hAcc><vAcc>0.740326</vAcc></extensions></trkpt>
      <trkpt lon="-4.158404" lat="53.024546"><ele>338.918396</ele><time>2021-07-17T13:32:24Z</time><extensions><speed>0.000000</speed><course>240.875916</course><hAcc>0.912256</hAcc><vAcc>0.740494</vAcc></extensions></trkpt>
      <trkpt lon="-4.158404" lat="53.024546"><ele>338.918396</ele><time>2021-07-17T13:32:25Z</time><extensions><speed>0.000000</speed><course>240.875916</course><hAcc>0.913987</hAcc><vAcc>0.742183</vAcc></extensions></trkpt>
      <trkpt lon="-4.158404" lat="53.024546"><ele>338.918396</ele><time>2021-07-17T13:32:26Z</time><extensions><speed>0.000000</speed><course>240.875916</course><hAcc>0.915509</hAcc><vAcc>0.744228</vAcc></extensions></trkpt>
      <trkpt lon="-4.158404" lat="53.024546"><ele>338.918396</ele><time>2021-07-17T13:32:27Z</time><extensions><speed>0.000000</speed><course>240.875916</course><hAcc>0.916535</hAcc><vAcc>0.746033</vAcc></extensions></trkpt>
      <trkpt lon="-4.158404" lat="53.024546"><ele>338.918396</ele><time>2021-07-17T13:32:28Z</time><extensions><speed>0.000000</speed><course>240.875916</course><hAcc>0.917087</hAcc><vAcc>0.747349</vAcc></extensions></trkpt>
      <trkpt lon="-4.158404" lat="53.024546"><ele>338.918396</ele><time>2021-07-17T13:32:29Z</time><extensions><speed>0.000000</speed><course>240.875916</course><hAcc>0.917292</hAcc><vAcc>0.748104</vAcc></extensions></trkpt>
      <trkpt lon="-4.158404" lat="53.024546"><ele>338.918396</ele><time>2021-07-17T13:32:30Z</time><extensions><speed>0.000000</speed><course>269.430084</course><hAcc>0.917264</hAcc><vAcc>0.748296</vAcc></extensions></trkpt>
      <trkpt lon="-4.158404" lat="53.024546"><ele>338.918396</ele><time>2021-07-17T13:32:31Z</time><extensions><speed>0.000000</speed><course>274.056000</course><hAcc>0.917042</hAcc><vAcc>0.747942</vAcc></extensions></trkpt>
      <trkpt lon="-4.158404" lat="53.024546"><ele>338.918396</ele><time>2021-07-17T13:32:32Z</time><extensions><speed>0.000000</speed><course>273.580658</course><hAcc>0.916593</hAcc><vAcc>0.747072</vAcc></extensions></trkpt>
      <trkpt lon="-4.158404" lat="53.024546"><ele>338.918396</ele><time>2021-07-17T13:32:33Z</time><extensions><speed>0.000000</speed><course>266.285736</course><hAcc>0.915856</hAcc><vAcc>0.745777</vAcc></extensions></trkpt>
      <trkpt lon="-4.158404" lat="53.024546"><ele>338.918396</ele><time>2021-07-17T13:32:34Z</time><extensions><speed>0.000000</speed><course>280.416809</course><hAcc>0.914853</hAcc><vAcc>0.744303</vAcc></extensions></trkpt>
      <trkpt lon="-4.158404" lat="53.024546"><ele>338.918396</ele><time>2021-07-17T13:32:35Z</time><extensions><speed>0.000000</speed><course>289.633057</course><hAcc>0.913870</hAcc><vAcc>0.743199</vAcc></extensions></trkpt>
      <trkpt lon="-4.158404" lat="53.024546"><ele>338.918396</ele><time>2021-07-17T13:32:36Z</time><extensions><speed>0.000000</speed><course>274.042023</course><hAcc>0.913724</hAcc><vAcc>0.743518</vAcc></extensions></trkpt>
      <trkpt lon="-4.158404" lat="53.024546"><ele>338.918396</ele><time>2021-07-17T13:32:37Z</time><extensions><speed>0.000000</speed><course>259.398621</course><hAcc>0.916132</hAcc><vAcc>0.747060</vAcc></extensions></trkpt>
      <trkpt lon="-4.158404" lat="53.024546"><ele>338.918396</ele><time>2021-07-17T13:32:38Z</time><extensions><speed>0.000000</speed><course>235.228027</course><hAcc>0.924149</hAcc><vAcc>0.756609</vAcc></extensions></trkpt>
      <trkpt lon="-4.158404" lat="53.024546"><ele>338.918396</ele><time>2021-07-17T13:32:39Z</time><extensions><speed>0.000000</speed><course>233.943741</course><hAcc>0.942575</hAcc><vAcc>0.776057</vAcc></extensions></trkpt>
      <trkpt lon="-4.158404" lat="53.024546"><ele>338.918396</ele><time>2021-07-17T13:32:40Z</time><extensions><speed>0.000000</speed><course>251.986771</course><hAcc>0.978072</hAcc><vAcc>0.810257</vAcc></extensions></trkpt>
      <trkpt lon="-4.158404" lat="53.024546"><ele>338.918396</ele><time>2021-07-17T13:32:41Z</time><extensions><speed>0.000000</speed><course>207.637573</course><hAcc>0.940092</hAcc><vAcc>0.775122</vAcc></extensions></trkpt>
      <trkpt lon="-4.158404" lat="53.024546"><ele>338.918396</ele><time>2021-07-17T13:32:42Z</time><extensions><speed>0.000000</speed><course>199.781464</course><hAcc>0.920724</hAcc><vAcc>0.754026</vAcc></extensions></trkpt>
      <trkpt lon="-4.158404" lat="53.024546"><ele>338.918396</ele><time>2021-07-17T13:32:43Z</time><extensions><speed>0.000000</speed><course>204.898392</course><hAcc>0.912966</hAcc><vAcc>0.743961</vAcc></extensions></trkpt>
      <trkpt lon="-4.158404" lat="53.024546"><ele>338.918396</ele><time>2021-07-17T13:32:44Z</time><extensions><speed>0.000000</speed><course>218.988647</course><hAcc>0.911340</hAcc><vAcc>0.740589</vAcc></extensions></trkpt>
      <trkpt lon="-4.158404" lat="53.024546"><ele>338.918396</ele><time>2021-07-17T13:32:45Z</time><extensions><speed>0.000000</speed><course>240.875916</course><hAcc>0.912358</hAcc><vAcc>0.740780</vAcc></extensions></trkpt>
      <trkpt lon="-4.158404" lat="53.024546"><ele>338.918396</ele><time>2021-07-17T13:32:46Z</time><extensions><speed>0.000000</speed><course>240.875916</course><hAcc>0.914074</hAcc><vAcc>0.742501</vAcc></extensions></trkpt>
      <trkpt lon="-4.158404" lat="53.024546"><ele>338.918396</ele><time>2021-07-17T13:32:47Z</time><extensions><speed>0.000000</speed><course>240.875916</course><hAcc>0.915580</hAcc><vAcc>0.744564</vAcc></extensions></trkpt>
      <trkpt lon="-4.158404" lat="53.024546"><ele>338.918396</ele><time>2021-07-17T13:32:48Z</time><extensions><speed>0.000000</speed><course>240.875916</course><hAcc>0.916586</hAcc><vAcc>0.746355</vAcc></extensions></trkpt>
      <trkpt lon="-4.158404" lat="53.024546"><ele>338.918396</ele><time>2021-07-17T13:32:49Z</time><extensions><speed>0.000000</speed><course>240.875916</course><hAcc>0.917113</hAcc><vAcc>0.747610</vAcc></extensions></trkpt>
      <trkpt lon="-4.158404" lat="53.024546"><ele>338.918396</ele><time>2021-07-17T13:32:50Z</time><extensions><speed>0.000000</speed><course>240.875916</course><hAcc>0.917288</hAcc><vAcc>0.748251</vAcc></extensions></trkpt>
      <trkpt lon="-4.158404" lat="53.024546"><ele>338.918396</ele><time>2021-07-17T13:32:51Z</time><extensions><speed>0.000000</speed><course>269.430084</course><hAcc>0.917227</hAcc><vAcc>0.748286</vAcc></extensions></trkpt>
      <trkpt lon="-4.158404" lat="53.024546"><ele>338.918396</ele><time>2021-07-17T13:32:52Z</time><extensions><speed>0.000000</speed><course>274.056000</course><hAcc>0.916972</hAcc><vAcc>0.747747</vAcc></extensions></trkpt>
      <trkpt lon="-4.158404" lat="53.024546"><ele>338.918396</ele><time>2021-07-17T13:32:53Z</time><extensions><speed>0.000000</speed><course>273.580658</course><hAcc>0.916492</hAcc><vAcc>0.746690</vAcc></extensions></trkpt>
      <trkpt lon="-4.158404" lat="53.024546"><ele>338.918396</ele><time>2021-07-17T13:32:54Z</time><extensions><speed>0.000000</speed><course>266.285736</course><hAcc>0.915734</hAcc><vAcc>0.745236</vAcc></extensions></trkpt>
      <trkpt lon="-4.158404" lat="53.024546"><ele>338.918396</ele><time>2021-07-17T13:32:55Z</time><extensions><speed>0.000000</speed><course>280.416809</course><hAcc>0.914724</hAcc><vAcc>0.743659</vAcc></extensions></trkpt>
      <trkpt lon="-4.158404" lat="53.024546"><ele>338.918396</ele><time>2021-07-17T13:32:56Z</time><extensions><speed>0.000000</speed><course>289.633057</course><hAcc>0.913755</hAcc><vAcc>0.742536</vAcc></extensions></trkpt>
      <trkpt lon="-4.158404" lat="53.024546"><ele>338.918396</ele><time>2021-07-17T13:32:57Z</time><extensions><speed>0.000000</speed><course>274.042023</course><hAcc>0.913652</hAcc><vAcc>0.742946</vAcc></extensions></trkpt>
      <trkpt lon="-4.158404" lat="53.024546"><ele>338.918396</ele><time>2021-07-17T13:32:58Z</time><extensions><speed>0.000000</speed><course>259.398621</course><hAcc>0.916136</hAcc><vAcc>0.746710</vAcc></extensions></trkpt>
      <trkpt lon="-4.158404" lat="53.024546"><ele>338.918396</ele><time>2021-07-17T13:32:59Z</time><extensions><speed>0.000000</speed><course>235.228027</course><hAcc>0.924266</hAcc><vAcc>0.756625</vAcc></extensions></trkpt>
      <trkpt lon="-4.158404" lat="53.024546"><ele>338.918396</ele><time>2021-07-17T13:33:00Z</time><extensions><speed>0.000000</speed><course>233.943741</course><hAcc>0.942843</hAcc><vAcc>0.776576</vAcc></extensions></trkpt>
      <trkpt lon="-4.158404" lat="53.024546"><ele>338.918396</ele><time>2021-07-17T13:33:01Z</time><extensions><speed>0.000000</speed><course>251.986771</course><hAcc>0.978521</hAcc><vAcc>0.811384</vAcc></extensions></trkpt>
      <trkpt lon="-4.158404" lat="53.024546"><ele>338.918396</ele><time>2021-07-17T13:33:02Z</time><extensions><speed>0.000000</speed><course>207.637573</course><hAcc>0.940001</hAcc><vAcc>0.775175</vAcc></extensions></trkpt>
      <trkpt lon="-4.158404" lat="53.024546"><ele>338.918396</ele><time>2021-07-17T13:33:03Z</time><extensions><speed>0.000000</speed><course>199.781464</course><hAcc>0.920737</hAcc><vAcc>0.754443</vAcc></extensions></trkpt>
      <trkpt lon="-4.158404" lat="53.024546"><ele>338.918396</ele><time>2021-07-17T13:33:04Z</time><extensions><speed>0.000000</speed><course>204.898392</course><hAcc>0.913046</hAcc><vAcc>0.744589</vAcc></extensions></trkpt>
      <trkpt lon="-4.158404" lat="53.024546"><ele>338.918396</ele><time>2021-07-17T13:33:05Z</time><extensions><speed>0.000000</speed><course>218.988647</course><hAcc>0.911453</hAcc><vAcc>0.741284</vAcc></extensions></trkpt>
      <trkpt lon="-4.158404" lat="53.024546"><ele>338.918396</ele><time>2021-07-17T13:33:06Z</time><extensions><speed>0.000000</speed><course>240.875916</course><hAcc>0.912475</hAcc><vAcc>0.741421</vAcc></extensions></trkpt>
      <trkpt lon="-4.158404" lat="53.024546"><ele>338.918396</ele><time>2021-07-17T13:33:07Z</time><extensions><speed>0.000000</speed><course>240.875916</course><hAcc>0.914172</hAcc><vAcc>0.742996</vAcc></extensions></trkpt>
      <trkpt lon="-4.158404" lat="53.024546"><ele>338.918396</ele><time>2021-07-17T13:33:08Z</time><extensions><speed>0.000000</speed><course>240.875916</course><hAcc>0.915642</hAcc><vAcc>0.744855</vAcc></extensions></trkpt>
      <trkpt lon="-4.158404" lat="53.024546"><ele>338.918396</ele><time>2021-07-17T13:33:09Z</time><extensions><speed>0.000000</speed><course>240.875916</course><hAcc>0.916601</hAcc><vAcc>0.746412</vAcc></extensions></trkpt>
      <trkpt lon="-4.158404" lat="53.024546"><ele>338.918396</ele><time>2021-07-17T13:33:10Z</time><extensions><speed>0.000000</speed><course>240.875916</course><hAcc>0.917075</hAcc><vAcc>0.747432</vAcc></extensions></trkpt>
      <trkpt lon="-4.158404" lat="53.024546"><ele>338.918396</ele><time>2021-07-17T13:33:11Z</time><extensions><speed>0.000000</speed><course>240.875916</course><hAcc>0.917194</hAcc><vAcc>0.747859</vAcc></extensions></trkpt>
      <trkpt lon="-4.158404" lat="53.024546"><ele>338.918396</ele><time>2021-07-17T13:33:12Z</time><extensions><speed>0.000000</speed><course>269.430084</course><hAcc>0.917076</hAcc><vAcc>0.747706</vAcc></extensions></trkpt>
      <trkpt lon="-4.158404" lat="53.024546"><ele>338.918396</ele><time>2021-07-17T13:33:13Z</time><extensions><speed>0.000000</speed><course>274.056000</course><hAcc>0.916766</hAcc><vAcc>0.747007</vAcc></extensions></trkpt>
      <trkpt lon="-4.158404" lat="53.024546"><ele>338.918396</ele><time>2021-07-17T13:33:14Z</time><extensions><speed>0.000000</speed><course>273.580658</course><hAcc>0.916232</hAcc><vAcc>0.745809</vAcc></extensions></trkpt>
      <trkpt lon="-4.158404" lat="53.024546"><ele>338.918396</ele><time>2021-07-17T13:33:15Z</time><extensions><speed>0.000000</speed><course>266.285736</course><hAcc>0.915416</hAcc><vAcc>0.744218</vAcc></extensions></trkpt>
      <trkpt lon="-4.158404" lat="53.024546"><ele>338.918396</ele><time>2021-07-17T13:33:16Z</time><extensions><speed>0.000000</speed><course>280.416809</course><hAcc>0.914343</hAcc><vAcc>0.742491</vAcc></extensions></trkpt>
      <trkpt lon="-4.158404" lat="53.024546"><ele>338.918396</ele><time>2021-07-17T13:33:17Z</time><extensions><speed>0.000000</speed><course>289.633057</course><hAcc>0.913297</hAcc><vAcc>0.741184</vAcc></extensions></trkpt>
      <trkpt lon="-4.158404" lat="53.024546"><ele>338.918396</ele><time>2021-07-17T13:33:18Z</time><extensions><speed>0.000000</speed><course>274.042023</course><hAcc>0.913098</hAcc><vAcc>0.741355</vAcc></extensions></trkpt>
      <trkpt lon="-4.158404" lat="53.024546"><ele>338.918396</ele><time>2021-07-17T13:33:19Z</time><extensions><speed>0.000000</speed><course>259.398621</course><hAcc>0.915460</hAcc><vAcc>0.744808</vAcc></extensions></trkpt>
      <trkpt lon="-4.158404" lat="53.024546"><ele>338.918396</ele><time>2021-07-17T13:33:20Z</time><extensions><speed>0.000000</speed><course>235.228027</course><hAcc>0.923442</hAcc><vAcc>0.754327</vAcc></extensions></trkpt>
      <trkpt lon="-4.158404" lat="53.024546"><ele>338.918396</ele><time>2021-07-17T13:33:21Z</time><extensions><speed>0.000000</speed><course>233.943741</course><hAcc>0.941844</hAcc><vAcc>0.773806</vAcc></extensions></trkpt>
      <trkpt lon="-4.158404" lat="53.024546"><ele>338.918396</ele><time>2021-07-17T13:33:22Z</time><extensions><speed>0.000000</speed><course>251.986771</course><hAcc>0.977333</hAcc><vAcc>0.808090</vAcc></extensions></trkpt>
      <trkpt lon="-4.158404" lat="53.024546"><ele>338.918396</ele><time>2021-07-17T13:33:23Z</time><extensions><speed>0.000000</speed><course>207.637573</course><hAcc>0.939208</hAcc><vAcc>0.772758</vAcc></extensions></trkpt>
      <trkpt lon="-4.158404" lat="53.024546"><ele>338.918396</ele><time>2021-07-17T13:33:24Z</time><extensions><speed>0.000000</speed><course>199.781464</course><hAcc>0.920029</hAcc><vAcc>0.752193</vAcc></extensions></trkpt>
      <trkpt lon="-4.158404" lat="53.024546"><ele>338.918396</ele><time>2021-07-17T13:33:25Z</time><extensions><speed>0.000000</speed><course>204.898392</course><hAcc>0.912425</hAcc><vAcc>0.742555</vAcc></extensions></trkpt>
      <trkpt lon="-4.158404" lat="53.024546"><ele>338.918396</ele><time>2021-07-17T13:33:26Z</time><extensions><speed>0.000000</speed><course>218.988647</course><hAcc>0.910914</hAcc><vAcc>0.739498</vAcc></extensions></trkpt>
      <trkpt lon="-4.158404" lat="53.024546"><ele>338.918396</ele><time>2021-07-17T13:33:27Z</time><extensions><speed>0.000000</speed><course>240.875916</course><hAcc>0.912011</hAcc><vAcc>0.739899</vAcc></extensions></trkpt>
      <trkpt lon="-4.158404" lat="53.024546"><ele>338.918396</ele><time>2021-07-17T13:33:28Z</time><extensions><speed>0.000000</speed><course>240.875916</course><hAcc>0.913775</hAcc><vAcc>0.741737</vAcc></extensions></trkpt>
      <trkpt lon="-4.158404" lat="53.024546"><ele>338.918396</ele><time>2021-07-17T13:33:29Z</time><extensions><speed>0.000000</speed><course>240.875916</course><hAcc>0.915306</hAcc><vAcc>0.743840</vAcc></extensions></trkpt>
      <trkpt lon="-4.158404" lat="53.024546"><ele>338.918396</ele><time>2021-07-17T13:33:30Z</time><extensions><speed>0.000000</speed><course>240.875916</course><hAcc>0.916321</hAcc><vAcc>0.745614</vAcc></extensions></trkpt>
      <trkpt lon="-4.158404" lat="53.024546"><ele>338.918396</ele><time>2021-07-17T13:33:31Z</time><extensions><speed>0.000000</speed><course>240.875916</course><hAcc>0.916846</hAcc><vAcc>0.746813</vAcc></extensions></trkpt>
      <trkpt lon="-4.158404" lat="53.024546"><ele>338.918396</ele><time>2021-07-17T13:33:32Z</time><extensions><speed>0.000000</speed><course>240.875916</course><hAcc>0.917012</hAcc><vAcc>0.747381</vAcc></extensions></trkpt>
      <trkpt lon="-4.158404" lat="53.024546"><ele>338.918396</ele><time>2021-07-17T13:33:33Z</time><extensions><speed>0.000000</speed><course>269.430084</course><hAcc>0.916937</hAcc><vAcc>0.747339</vAcc></extensions></trkpt>
      <trkpt lon="-4.158404" lat="53.024546"><ele>338.918396</ele><time>2021-07-17T13:33:34Z</time><extensions><speed>0.000000</speed><course>274.056000</course><hAcc>0.916665</hAcc><vAcc>0.746725</vAcc></extensions></trkpt>
      <trkpt lon="-4.158404" lat="53.024546"><ele>338.918396</ele><time>2021-07-17T13:33:35Z</time><extensions><speed>0.000000</speed><course>273.580658</course><hAcc>0.916165</hAcc><vAcc>0.745595</vAcc></extensions></trkpt>
      <trkpt lon="-4.158404" lat="53.024546"><ele>338.918396</ele><time>2021-07-17T13:33:36Z</time><extensions><speed>0.000000</speed><course>266.285736</course><hAcc>0.915376</hAcc><vAcc>0.744057</vAcc></extensions></trkpt>
      <trkpt lon="-4.158404" lat="53.024546"><ele>338.918396</ele><time>2021-07-17T13:33:37Z</time><extensions><speed>0.000000</speed><course>280.416809</course><hAcc>0.914323</hAcc><vAcc>0.742368</vAcc></extensions></trkpt>
      <trkpt lon="-4.158404" lat="53.024546"><ele>338.918396</ele><time>2021-07-17T13:33:38Z</time><extensions><speed>0.000000</speed><course>289.633057</course><hAcc>0.913290</hAcc><vAcc>0.741081</vAcc></extensions></trkpt>
      <trkpt lon="-4.158404" lat="53.024546"><ele>338.918396</ele><time>2021-07-17T13:33:39Z</time><extensions><speed>0.000000</speed><course>274.042023</course><hAcc>0.913091</hAcc><vAcc>0.741247</vAcc></extensions></trkpt>
      <trkpt lon="-4.158404" lat="53.024546"><ele>338.918396</ele><time>2021-07-17T13:33:40Z</time><extensions><speed>0.000000</speed><course>259.398621</course><hAcc>0.915425</hAcc><vAcc>0.744650</vAcc></extensions></trkpt>
      <trkpt lon="-4.158404" lat="53.024546"><ele>338.918396</ele><time>2021-07-17T13:33:41Z</time><extensions><speed>0.000000</speed><course>235.228027</course><hAcc>0.923344</hAcc><vAcc>0.754061</vAcc></extensions></trkpt>
      <trkpt lon="-4.158404" lat="53.024546"><ele>338.918396</ele><time>2021-07-17T13:33:42Z</time><extensions><speed>0.000000</speed><course>233.943741</course><hAcc>0.941670</hAcc><vAcc>0.773372</vAcc></extensions></trkpt>
      <trkpt lon="-4.158404" lat="53.024546"><ele>338.918396</ele><time>2021-07-17T13:33:43Z</time><extensions><speed>0.000000</speed><course>251.986771</course><hAcc>0.977071</hAcc><vAcc>0.807424</vAcc></extensions></trkpt>
      <trkpt lon="-4.158404" lat="53.024546"><ele>338.918396</ele><time>2021-07-17T13:33:44Z</time><extensions><speed>0.000000</speed><course>207.637573</course><hAcc>0.938938</hAcc><vAcc>0.772020</vAcc></extensions></trkpt>
      <trkpt lon="-4.158404" lat="53.024546"><ele>338.918396</ele><time>2021-07-17T13:33:45Z</time><extensions><speed>0.000000</speed><course>199.781464</course><hAcc>0.919696</hAcc><vAcc>0.751206</vAcc></extensions></trkpt>
      <trkpt lon="-4.158404" lat="53.024546"><ele>338.918396</ele><time>2021-07-17T13:33:46Z</time><extensions><speed>0.000000</speed><course>204.898392</course><hAcc>0.912025</hAcc><vAcc>0.741297</vAcc></extensions></trkpt>
      <trkpt lon="-4.158404" lat="53.024546"><ele>338.918396</ele><time>2021-07-17T13:33:47Z</time><extensions><speed>0.000000</speed><course>218.988647</course><hAcc>0.910448</hAcc><vAcc>0.737971</vAcc></extensions></trkpt>
      <trkpt lon="-4.158404" lat="53.024546"><ele>338.918396</ele><time>2021-07-17T13:33:48Z</time><extensions><speed>0.000000</speed><course>240.875916</course><hAcc>0.911483</hAcc><vAcc>0.738127</vAcc></extensions></trkpt>
      <trkpt lon="-4.158404" lat="53.024546"><ele>338.918396</ele><time>2021-07-17T13:33:49Z</time><extensions><speed>0.000000</speed><course>240.875916</course><hAcc>0.913193</hAcc><vAcc>0.739762</vAcc></extensions></trkpt>
      <trkpt lon="-4.158404" lat="53.024546"><ele>338.918396</ele><time>2021-07-17T13:33:50Z</time><extensions><speed>0.000000</speed><course>240.875916</course><hAcc>0.914680</hAcc><vAcc>0.741719</vAcc></extensions></trkpt>
      <trkpt lon="-4.158404" lat="53.024546"><ele>338.918396</ele><time>2021-07-17T13:33:51Z</time><extensions><speed>0.000000</speed><course>240.875916</course><hAcc>0.915663</hAcc><vAcc>0.743409</vAcc></extensions></trkpt>
      <trkpt lon="-4.158404" lat="53.024546"><ele>338.918396</ele><time>2021-07-17T13:33:52Z</time><extensions><speed>0.000000</speed><course>240.875916</course><hAcc>0.916169</hAcc><vAcc>0.744587</vAcc></extensions></trkpt>
      <trkpt lon="-4.158404" lat="53.024546"><ele>338.918396</ele><time>2021-07-17T13:33:53Z</time><extensions><speed>0.000000</speed><course>240.875916</course><hAcc>0.916330</hAcc><vAcc>0.745188</vAcc></extensions></trkpt>
      <trkpt lon="-4.158404" lat="53.024546"><ele>338.918396</ele><time>2021-07-17T13:33:54Z</time><extensions><speed>0.000000</speed><course>269.430084</course><hAcc>0.916261</hAcc><vAcc>0.745218</vAcc></extensions></trkpt>
      <trkpt lon="-4.158404" lat="53.024546"><ele>338.918396</ele><time>2021-07-17T13:33:55Z</time><extensions><speed>0.000000</speed><course>274.056000</course><hAcc>0.916003</hAcc><vAcc>0.744699</vAcc></extensions></trkpt>
      <trkpt lon="-4.158404" lat="53.024546"><ele>338.918396</ele><time>2021-07-17T13:33:56Z</time><extensions><speed>0.000000</speed><course>273.580658</course><hAcc>0.915518</hAcc><vAcc>0.743668</vAcc></extensions></trkpt>
      <trkpt lon="-4.158404" lat="53.024546"><ele>338.918396</ele><time>2021-07-17T13:33:57Z</time><extensions><speed>0.000000</speed><course>266.285736</course><hAcc>0.914743</hAcc><vAcc>0.742217</vAcc></extensions></trkpt>
      <trkpt lon="-4.158404" lat="53.024546"><ele>338.918396</ele><time>2021-07-17T13:33:58Z</time><extensions><speed>0.000000</speed><course>280.416809</course><hAcc>0.913692</hAcc><vAcc>0.740586</vAcc></extensions></trkpt>
      <trkpt lon="-4.158404" lat="53.024546"><ele>338.918396</ele><time>2021-07-17T13:33:59Z</time><extensions><speed>0.000000</speed><course>289.633057</course><hAcc>0.912642</hAcc><vAcc>0.739308</vAcc></extensions></trkpt>
      <trkpt lon="-4.158404" lat="53.024546"><ele>338.918396</ele><time>2021-07-17T13:34:00Z</time><extensions><speed>0.000000</speed><course>274.042023</course><hAcc>0.912400</hAcc><vAcc>0.739416</vAcc></extensions></trkpt>
      <trkpt lon="-4.158404" lat="53.024546"><ele>338.918396</ele><time>2021-07-17T13:34:01Z</time><extensions><speed>0.000000</speed><course>259.398621</course><hAcc>0.914673</hAcc><vAcc>0.742683</vAcc></extensions></trkpt>
      <trkpt lon="-4.158404" lat="53.024546"><ele>338.918396</ele><time>2021-07-17T13:34:02Z</time><extensions><speed>0.000000</speed><course>235.228027</course><hAcc>0.922511</hAcc><vAcc>0.751867</vAcc></extensions></trkpt>
      <trkpt lon="-4.158404" lat="53.024546"><ele>338.918396</ele><time>2021-07-17T13:34:03Z</time><extensions><speed>0.000000</speed><course>233.943741</course><hAcc>0.940718</hAcc><vAcc>0.770845</vAcc></extensions></trkpt>
      <trkpt lon="-4.158404" lat="53.024546"><ele>338.918396</ele><time>2021-07-17T13:34:04Z</time><extensions><speed>0.000000</speed><course>251.986771</course><hAcc>0.975973</hAcc><vAcc>0.804475</vAcc></extensions></trkpt>
      <trkpt lon="-4.158404" lat="53.024546"><ele>338.918396</ele><time>2021-07-17T13:34:05Z</time><extensions><speed>0.000000</speed><course>207.637573</course><hAcc>0.938252</hAcc><vAcc>0.769983</vAcc></extensions></trkpt>
      <trkpt lon="-4.158404" lat="53.024546"><ele>338.918396</ele><time>2021-07-17T13:34:06Z</time><extensions><speed>0.000000</speed><course>199.781464</course><hAcc>0.919090</hAcc><vAcc>0.749323</vAcc></extensions></trkpt>
      <trkpt lon="-4.158404" lat="53.024546"><ele>338.918396</ele><time>2021-07-17T13:34:07Z</time><extensions><speed>0.000000</speed><course>204.898392</course><hAcc>0.911503</hAcc><vAcc>0.739608</vAcc></extensions></trkpt>
      <trkpt lon="-4.158404" lat="53.024546"><ele>338.918396</ele><time>2021-07-17T13:34:08Z</time><extensions><speed>0.000000</speed><course>218.988647</course><hAcc>0.910006</hAcc><vAcc>0.736512</vAcc></extensions></trkpt>
      <trkpt lon="-4.158404" lat="53.024546"><ele>338.918396</ele><time>2021-07-17T13:34:09Z</time><extensions><speed>0.000000</speed><course>240.875916</course><hAcc>0.911116</hAcc><vAcc>0.736921</vAcc></extensions></trkpt>
      <trkpt lon="-4.158404" lat="53.024546"><ele>338.918396</ele><time>2021-07-17T13:34:10Z</time><extensions><speed>0.000000</speed><course>240.875916</course><hAcc>0.912894</hAcc><vAcc>0.738815</vAcc></extensions></trkpt>
      <trkpt lon="-4.158404" lat="53.024546"><ele>338.918396</ele><time>2021-07-17T13:34:11Z</time><extensions><speed>0.000000</speed><course>240.875916</course><hAcc>0.914443</hAcc><vAcc>0.741018</vAcc></extensions></trkpt>
      <trkpt lon="-4.158404" lat="53.024546"><ele>338.918396</ele><time>2021-07-17T13:34:12Z</time><extensions><speed>0.000000</speed><course>240.875916</course><hAcc>0.915482</hAcc><vAcc>0.742929</vAcc></extensions></trkpt>
      <trkpt lon="-4.158404" lat="53.024546"><ele>338.918396</ele><time>2021-07-17T13:34:13Z</time><extensions><speed>0.000000</speed><course>240.875916</course><hAcc>0.916036</hAcc><vAcc>0.744295</vAcc></extensions></trkpt>
      <trkpt lon="-4.158404" lat="53.024546"><ele>338.918396</ele><time>2021-07-17T13:34:14Z</time><extensions><speed>0.000000</speed><course>240.875916</course><hAcc>0.916236</hAcc><vAcc>0.745048</vAcc></extensions></trkpt>
      <trkpt lon="-4.158404" lat="53.024546"><ele>338.918396</ele><time>2021-07-17T13:34:15Z</time><extensions><speed>0.000000</speed><course>269.430084</course><hAcc>0.916198</hAcc><vAcc>0.745192</vAcc></extensions></trkpt>
      <trkpt lon="-4.158404" lat="53.024546"><ele>338.918396</ele><time>2021-07-17T13:34:16Z</time><extensions><speed>0.000000</speed><course>274.056000</course><hAcc>0.915960</hAcc><vAcc>0.744753</vAcc></extensions></trkpt>
      <trkpt lon="-4.158404" lat="53.024546"><ele>338.918396</ele><time>2021-07-17T13:34:17Z</time><extensions><speed>0.000000</speed><course>273.580658</course><hAcc>0.915503</hAcc><vAcc>0.743784</vAcc></extensions></trkpt>
      <trkpt lon="-4.158404" lat="53.024546"><ele>338.918396</ele><time>2021-07-17T13:34:18Z</time><extensions><speed>0.000000</speed><course>266.285736</course><hAcc>0.914762</hAcc><vAcc>0.742378</vAcc></extensions></trkpt>
      <trkpt lon="-4.158404" lat="53.024546"><ele>338.918396</ele><time>2021-07-17T13:34:19Z</time><extensions><speed>0.000000</speed><course>280.416809</course><hAcc>0.913716</hAcc><vAcc>0.740752</vAcc></extensions></trkpt>
      <trkpt lon="-4.158404" lat="53.024546"><ele>338.918396</ele><time>2021-07-17T13:34:20Z</time><extensions><speed>0.000000</speed><course>289.633057</course><hAcc>0.912644</hAcc><vAcc>0.739446</vAcc></extensions></trkpt>
      <trkpt lon="-4.158404" lat="53.024546"><ele>338.918396</ele><time>2021-07-17T13:34:21Z</time><extensions><speed>0.000000</speed><course>274.042023</course><hAcc>0.912390</hAcc><vAcc>0.739517</vAcc></extensions></trkpt>
      <trkpt lon="-4.158404" lat="53.024546"><ele>338.918396</ele><time>2021-07-17T13:34:22Z</time><extensions><speed>0.000000</speed><course>259.398621</course><hAcc>0.914657</hAcc><vAcc>0.742735</vAcc></extensions></trkpt>
      <trkpt lon="-4.158404" lat="53.024546"><ele>338.918396</ele><time>2021-07-17T13:34:23Z</time><extensions><speed>0.000000</speed><course>235.228027</course><hAcc>0.922479</hAcc><vAcc>0.751848</vAcc></extensions></trkpt>
      <trkpt lon="-4.158404" lat="53.024546"><ele>338.918396</ele><time>2021-07-17T13:34:24Z</time><extensions><speed>0.000000</speed><course>233.943741</course><hAcc>0.940659</hAcc><vAcc>0.770732</vAcc></extensions></trkpt>
      <trkpt lon="-4.158404" lat="53.024546"><ele>338.918396</ele><time>2021-07-17T13:34:25Z</time><extensions><speed>0.000000</speed><course>251.986771</course><hAcc>0.975878</hAcc><vAcc>0.804249</vAcc></extensions></trkpt>
      <trkpt lon="-4.158404" lat="53.024546"><ele>338.918396</ele><time>2021-07-17T13:34:26Z</time><extensions><speed>0.000000</speed><course>207.637573</course><hAcc>0.938066</hAcc><vAcc>0.769466</vAcc></extensions></trkpt>
      <trkpt lon="-4.158404" lat="53.024546"><ele>338.918396</ele><time>2021-07-17T13:34:27Z</time><extensions><speed>0.000000</speed><course>199.781464</course><hAcc>0.918822</hAcc><vAcc>0.748551</vAcc></extensions></trkpt>
      <trkpt lon="-4.158404" lat="53.024546"><ele>338.918396</ele><time>2021-07-17T13:34:28Z</time><extensions><speed>0.000000</speed><course>204.898392</course><hAcc>0.911150</hAcc><vAcc>0.738552</vAcc></extensions></trkpt>
      <trkpt lon="-4.158404" lat="53.024546"><ele>338.918396</ele><time>2021-07-17T13:34:29Z</time><extensions><speed>0.000000</speed><course>218.988647</course><hAcc>0.909568</hAcc><vAcc>0.735151</vAcc></extensions></trkpt>
      <trkpt lon="-4.158404" lat="53.024546"><ele>338.918396</ele><time>2021-07-17T13:34:30Z</time><extensions><speed>0.000000</speed><course>240.875916</course><hAcc>0.910595</hAcc><vAcc>0.735249</vAcc></extensions></trkpt>
      <trkpt lon="-4.158404" lat="53.024546"><ele>338.918396</ele><time>2021-07-17T13:34:31Z</time><extensions><speed>0.000000</speed><course>240.875916</course><hAcc>0.912297</hAcc><vAcc>0.736850</vAcc></extensions></trkpt>
      <trkpt lon="-4.158404" lat="53.024546"><ele>338.918396</ele><time>2021-07-17T13:34:32Z</time><extensions><speed>0.000000</speed><course>240.875916</course><hAcc>0.913778</hAcc><vAcc>0.738799</vAcc></extensions></trkpt>
      <trkpt lon="-4.158404" lat="53.024546"><ele>338.918396</ele><time>2021-07-17T13:34:33Z</time><extensions><speed>0.000000</speed><course>240.875916</course><hAcc>0.914759</hAcc><vAcc>0.740512</vAcc></extensions></trkpt>
      <trkpt lon="-4.158404" lat="53.024546"><ele>338.918396</ele><time>2021-07-17T13:34:34Z</time><extensions><speed>0.000000</speed><course>240.875916</course><hAcc>0.915272</hAcc><vAcc>0.741746</vAcc></extensions></trkpt>
      <trkpt lon="-4.158404" lat="53.024546"><ele>338.918396</ele><time>2021-07-17T13:34:35Z</time><extensions><speed>0.000000</speed><course>240.875916</course><hAcc>0.915450</hAcc><vAcc>0.742435</vAcc></extensions></trkpt>
      <trkpt lon="-4.158404" lat="53.024546"><ele>338.918396</ele><time>2021-07-17T13:34:36Z</time><extensions><speed>0.000000</speed><course>269.430084</course><hAcc>0.915410</hAcc><vAcc>0.742580</vAcc></extensions></trkpt>
      <trkpt lon="-4.158404" lat="53.024546"><ele>338.918396</ele><time>2021-07-17T13:34:37Z</time><extensions><speed>0.000000</speed><course>274.056000</course><hAcc>0.915192</hAcc><vAcc>0.742200</vAcc></extensions></trkpt>
      <trkpt lon="-4.158404" lat="53.024546"><ele>338.918396</ele><time>2021-07-17T13:34:38Z</time><extensions><speed>0.000000</speed><course>273.580658</course><hAcc>0.914761</hAcc><vAcc>0.741329</vAcc></extensions></trkpt>
      <trkpt lon="-4.158404" lat="53.024546"><ele>338.918396</ele><time>2021-07-17T13:34:39Z</time><extensions><speed>0.000000</speed><course>266.285736</course><hAcc>0.914051</hAcc><vAcc>0.740063</vAcc></extensions></trkpt>
      <trkpt lon="-4.158404" lat="53.024546"><ele>338.918396</ele><time>2021-07-17T13:34:40Z</time><extensions><speed>0.000000</speed><course>280.416809</course><hAcc>0.913078</hAcc><vAcc>0.738646</vAcc></extensions></trkpt>
      <trkpt lon="-4.158404" lat="53.024546"><ele>338.918396</ele><time>2021-07-17T13:34:41Z</time><extensions><speed>0.000000</speed><course>289.633057</course><hAcc>0.912117</hAcc><vAcc>0.737620</vAcc></extensions></trkpt>
      <trkpt lon="-4.158404" lat="53.024546"><ele>338.918396</ele><time>2021-07-17T13:34:42Z</time><extensions><speed>0.000000</speed><course>274.042023</course><hAcc>0.911979</hAcc><vAcc>0.738024</vAcc></extensions></trkpt>
      <trkpt lon="-4.158404" lat="53.024546"><ele>338.918396</ele><time>2021-07-17T13:34:43Z</time><extensions><speed>0.000000</speed><course>259.398621</course><hAcc>0.914370</hAcc><vAcc>0.741637</vAcc></extensions></trkpt>
      <trkpt lon="-4.158404" lat="53.024546"><ele>338.918396</ele><time>2021-07-17T13:34:44Z</time><extensions><speed>0.000000</speed><course>235.228027</course><hAcc>0.922343</hAcc><vAcc>0.751220</vAcc></extensions></trkpt>
      <trkpt lon="-4.158404" lat="53.024546"><ele>338.918396</ele><time>2021-07-17T13:34:45Z</time><extensions><speed>0.000000</speed><course>233.943741</course><hAcc>0.940699</hAcc><vAcc>0.770650</vAcc></extensions></trkpt>
      <trkpt lon="-4.158404" lat="53.024546"><ele>338.918396</ele><time>2021-07-17T13:34:46Z</time><extensions><speed>0.000000</speed><course>251.986771</course><hAcc>0.976110</hAcc><vAcc>0.804772</vAcc></extensions></trkpt>
      <trkpt lon="-4.158404" lat="53.024546"><ele>338.918396</ele><time>2021-07-17T13:34:47Z</time><extensions><speed>0.000000</speed><course>207.637573</course><hAcc>0.937931</hAcc><vAcc>0.769262</vAcc></extensions></trkpt>
      <trkpt lon="-4.158404" lat="53.024546"><ele>338.918396</ele><time>2021-07-17T13:34:48Z</time><extensions><speed>0.000000</speed><course>199.781464</course><hAcc>0.918737</hAcc><vAcc>0.748541</vAcc></extensions></trkpt>
      <trkpt lon="-4.158404" lat="53.024546"><ele>338.918396</ele><time>2021-07-17T13:34:49Z</time><extensions><speed>0.000000</speed><course>204.898392</course><hAcc>0.911086</hAcc><vAcc>0.738631</vAcc></extensions></trkpt>
      <trkpt lon="-4.158404" lat="53.024546"><ele>338.918396</ele><time>2021-07-17T13:34:50Z</time><extensions><speed>0.000000</speed><course>218.988647</course><hAcc>0.909501</hAcc><vAcc>0.735211</vAcc></extensions></trkpt>
      <trkpt lon="-4.158404" lat="53.024546"><ele>338.918396</ele><time>2021-07-17T13:34:51Z</time><extensions><speed>0.000000</speed><course>240.875916</course><hAcc>0.910501</hAcc><vAcc>0.735196</vAcc></extensions></trkpt>
      <trkpt lon="-4.158404" lat="53.024546"><ele>338.918396</ele><time>2021-07-17T13:34:52Z</time><extensions><speed>0.000000</speed><course>240.875916</course><hAcc>0.912158</hAcc><vAcc>0.736608</vAcc></extensions></trkpt>
      <trkpt lon="-4.158404" lat="53.024546"><ele>338.918396</ele><time>2021-07-17T13:34:53Z</time><extensions><speed>0.000000</speed><course>240.875916</course><hAcc>0.913582</hAcc><vAcc>0.738320</vAcc></extensions></trkpt>
      <trkpt lon="-4.158404" lat="53.024546"><ele>338.918396</ele><time>2021-07-17T13:34:54Z</time><extensions><speed>0.000000</speed><course>240.875916</course><hAcc>0.914497</hAcc><vAcc>0.739771</vAcc></extensions></trkpt>
      <trkpt lon="-4.158404" lat="53.024546"><ele>338.918396</ele><time>2021-07-17T13:34:55Z</time><extensions><speed>0.000000</speed><course>240.875916</course><hAcc>0.914940</hAcc><vAcc>0.740736</vAcc></extensions></trkpt>
      <trkpt lon="-4.158404" lat="53.024546"><ele>338.918396</ele><time>2021-07-17T13:34:56Z</time><extensions><speed>0.000000</speed><course>240.875916</course><hAcc>0.915049</hAcc><vAcc>0.741162</vAcc></extensions></trkpt>
      <trkpt lon="-4.158404" lat="53.024546"><ele>338.918396</ele><time>2021-07-17T13:34:57Z</time><extensions><speed>0.000000</speed><course>269.430084</course><hAcc>0.914942</hAcc><vAcc>0.741061</vAcc></extensions></trkpt>
      <trkpt lon="-4.158404" lat="53.024546"><ele>338.918396</ele><time>2021-07-17T13:34:58Z</time><extensions><speed>0.000000</speed><course>274.056000</course><hAcc>0.914662</hAcc><vAcc>0.740457</vAcc></extensions></trkpt>
      <trkpt lon="-4.158404" lat="53.024546"><ele>338.918396</ele><time>2021-07-17T13:34:59Z</time><extensions><speed>0.000000</speed><course>273.580658</course><hAcc>0.914170</hAcc><vAcc>0.739383</vAcc></extensions></trkpt>
      <trkpt lon="-4.158404" lat="53.024546"><ele>338.918396</ele><time>2021-07-17T13:35:00Z</time><extensions><speed>0.000000</speed><course>266.285736</course><hAcc>0.913396</hAcc><vAcc>0.737926</vAcc></extensions></trkpt>
      <trkpt lon="-4.158404" lat="53.024546"><ele>338.918396</ele><time>2021-07-17T13:35:01Z</time><extensions><speed>0.000000</speed><course>280.416809</course><hAcc>0.912349</hAcc><vAcc>0.736312</vAcc></extensions></trkpt>
      <trkpt lon="-4.158404" lat="53.024546"><ele>338.918396</ele><time>2021-07-17T13:35:02Z</time><extensions><speed>0.000000</speed><course>289.633057</course><hAcc>0.911294</hAcc><vAcc>0.735059</vAcc></extensions></trkpt>
      <trkpt lon="-4.158404" lat="53.024546"><ele>338.918396</ele><time>2021-07-17T13:35:03Z</time><extensions><speed>0.000000</speed><course>274.042023</course><hAcc>0.911029</hAcc><vAcc>0.735176</vAcc></extensions></trkpt>
      <trkpt lon="-4.158404" lat="53.024546"><ele>338.918396</ele><time>2021-07-17T13:35:04Z</time><extensions><speed>0.000000</speed><course>259.398621</course><hAcc>0.913251</hAcc><vAcc>0.738407</vAcc></extensions></trkpt>
      <trkpt lon="-4.158404" lat="53.024546"><ele>338.918396</ele><time>2021-07-17T13:35:05Z</time><extensions><speed>0.000000</speed><course>235.228027</course><hAcc>0.921003</hAcc><vAcc>0.747477</vAcc></extensions></trkpt>
      <trkpt lon="-4.158404" lat="53.024546"><ele>338.918396</ele><time>2021-07-17T13:35:06Z</time><extensions><speed>0.000000</speed><course>233.943741</course><hAcc>0.939088</hAcc><vAcc>0.766242</vAcc></extensions></trkpt>
      <trkpt lon="-4.158404" lat="53.024546"><ele>338.918396</ele><time>2021-07-17T13:35:07Z</time><extensions><speed>0.000000</speed><course>251.986771</course><hAcc>0.974194</hAcc><vAcc>0.799554</vAcc></extensions></trkpt>
      <trkpt lon="-4.158404" lat="53.024546"><ele>338.918396</ele><time>2021-07-17T13:35:08Z</time><extensions><speed>0.000000</speed><course>207.637573</course><hAcc>0.936445</hAcc><vAcc>0.764992</vAcc></extensions></trkpt>
      <trkpt lon="-4.158404" lat="53.024546"><ele>338.918396</ele><time>2021-07-17T13:35:09Z</time><extensions><speed>0.000000</speed><course>199.781464</course><hAcc>0.917419</hAcc><vAcc>0.744583</vAcc></extensions></trkpt>
      <trkpt lon="-4.158404" lat="53.024546"><ele>338.918396</ele><time>2021-07-17T13:35:10Z</time><extensions><speed>0.000000</speed><course>204.898392</course><hAcc>0.909917</hAcc><vAcc>0.734957</vAcc></extensions></trkpt>
      <trkpt lon="-4.158404" lat="53.024546"><ele>338.918396</ele><time>2021-07-17T13:35:11Z</time><extensions><speed>0.000000</speed><course>218.988647</course><hAcc>0.908452</hAcc><vAcc>0.731805</vAcc></extensions></trkpt>
      <trkpt lon="-4.158404" lat="53.024546"><ele>338.918396</ele><time>2021-07-17T13:35:12Z</time><extensions><speed>0.000000</speed><course>240.875916</course><hAcc>0.909548</hAcc><vAcc>0.732052</vAcc></extensions></trkpt>
      <trkpt lon="-4.158404" lat="53.024546"><ele>338.918396</ele><time>2021-07-17T13:35:13Z</time><extensions><speed>0.000000</speed><course>240.875916</course><hAcc>0.911280</hAcc><vAcc>0.733726</vAcc></extensions></trkpt>
      <trkpt lon="-4.158404" lat="53.024546"><ele>338.918396</ele><time>2021-07-17T13:35:14Z</time><extensions><speed>0.000000</speed><course>240.875916</course><hAcc>0.912762</hAcc><vAcc>0.735693</vAcc></extensions></trkpt>
      <trkpt lon="-4.158404" lat="53.024546"><ele>338.918396</ele><time>2021-07-17T13:35:15Z</time><extensions><speed>0.000000</speed><course>240.875916</course><hAcc>0.913727</hAcc><vAcc>0.737380</vAcc></extensions></trkpt>
      <trkpt lon="-4.158404" lat="53.024546"><ele>338.918396</ele><time>2021-07-17T13:35:16Z</time><extensions><speed>0.000000</speed><course>240.875916</course><hAcc>0.914213</hAcc><vAcc>0.738553</vAcc></extensions></trkpt>
      <trkpt lon="-4.158404" lat="53.024546"><ele>338.918396</ele><time>2021-07-17T13:35:17Z</time><extensions><speed>0.000000</speed><course>240.875916</course><hAcc>0.914360</hAcc><vAcc>0.739150</vAcc></extensions></trkpt>
      <trkpt lon="-4.158404" lat="53.024546"><ele>338.918396</ele><time>2021-07-17T13:35:18Z</time><extensions><speed>0.000000</speed><course>269.430084</course><hAcc>0.914291</hAcc><vAcc>0.739181</vAcc></extensions></trkpt>
      <trkpt lon="-4.158404" lat="53.024546"><ele>338.918396</ele><time>2021-07-17T13:35:19Z</time><extensions><speed>0.000000</speed><course>274.056000</course><hAcc>0.914049</hAcc><vAcc>0.738682</vAcc></extensions></trkpt>
      <trkpt lon="-4.158404" lat="53.024546"><ele>338.918396</ele><time>2021-07-17T13:35:20Z</time><extensions><speed>0.000000</speed><course>273.580658</course><hAcc>0.913601</hAcc><vAcc>0.737701</vAcc></extensions></trkpt>
      <trkpt lon="-4.158404" lat="53.024546"><ele>338.918396</ele><time>2021-07-17T13:35:21Z</time><extensions><speed>0.000000</speed><course>266.285736</course><hAcc>0.912880</hAcc><vAcc>0.736347</vAcc></extensions></trkpt>
      <trkpt lon="-4.158404" lat="53.024546"><ele>338.918396</ele><time>2021-07-17T13:35:22Z</time><extensions><speed>0.000000</speed><course>280.416809</course><hAcc>0.911900</hAcc><vAcc>0.734871</vAcc></extensions></trkpt>
      <trkpt lon="-4.158404" lat="53.024546"><ele>338.918396</ele><time>2021-07-17T13:35:23Z</time><extensions><speed>0.000000</speed><course>289.633057</course><hAcc>0.910937</hAcc><vAcc>0.733821</vAcc></extensions></trkpt>
      <trkpt lon="-4.158404" lat="53.024546"><ele>338.918396</ele><time>2021-07-17T13:35:24Z</time><extensions><speed>0.000000</speed><course>274.042023</course><hAcc>0.910796</hAcc><vAcc>0.734237</vAcc></extensions></trkpt>
      <trkpt lon="-4.158404" lat="53.024546"><ele>338.918396</ele><time>2021-07-17T13:35:25Z</time><extensions><speed>0.000000</speed><course>259.398621</course><hAcc>0.913184</hAcc><vAcc>0.737895</vAcc></extensions></trkpt>
      <trkpt lon="-4.158404" lat="53.024546"><ele>338.918396</ele><time>2021-07-17T13:35:26Z</time><extensions><speed>0.000000</speed><course>235.228027</course><hAcc>0.921151</hAcc><vAcc>0.747556</vAcc></extensions></trkpt>
      <trkpt lon="-4.158404" lat="53.024546"><ele>338.918396</ele><time>2021-07-17T13:35:27Z</time><extensions><speed>0.000000</speed><course>233.943741</course><hAcc>0.939503</hAcc><vAcc>0.767093</vAcc></extensions></trkpt>
      <trkpt lon="-4.158404" lat="53.024546"><ele>338.918396</ele><time>2021-07-17T13:35:28Z</time><extensions><speed>0.000000</speed><course>251.986771</course><hAcc>0.974916</hAcc><vAcc>0.801349</vAcc></extensions></trkpt>
      <trkpt lon="-4.158404" lat="53.024546"><ele>338.918396</ele><time>2021-07-17T13:35:29Z</time><extensions><speed>0.000000</speed><course>207.637573</course><hAcc>0.936858</hAcc><vAcc>0.766299</vAcc></extensions></trkpt>
      <trkpt lon="-4.158404" lat="53.024546"><ele>338.918396</ele><time>2021-07-17T13:35:30Z</time><extensions><speed>0.000000</speed><course>199.781464</course><hAcc>0.918028</hAcc><vAcc>0.746590</vAcc></extensions></trkpt>
      <trkpt lon="-4.158404" lat="53.024546"><ele>338.918396</ele><time>2021-07-17T13:35:31Z</time><extensions><speed>0.000000</speed><course>204.898392</course><hAcc>0.910704</hAcc><vAcc>0.737607</vAcc></extensions></trkpt>
      <trkpt lon="-4.158404" lat="53.024546"><ele>338.918396</ele><time>2021-07-17T13:35:32Z</time><extensions><speed>0.000000</speed><course>218.988647</course><hAcc>0.909398</hAcc><vAcc>0.735011</vAcc></extensions></trkpt>
      <trkpt lon="-4.158404" lat="53.024546"><ele>338.918396</ele><time>2021-07-17T13:35:33Z</time><extensions><speed>0.000000</speed><course>240.875916</course><hAcc>0.910631</hAcc><vAcc>0.735711</vAcc></extensions></trkpt>
      <trkpt lon="-4.158404" lat="53.024546"><ele>338.918396</ele><time>2021-07-17T13:35:34Z</time><extensions><speed>0.000000</speed><course>240.875916</course><hAcc>0.912474</hAcc><vAcc>0.737725</vAcc></extensions></trkpt>
      <trkpt lon="-4.158404" lat="53.024546"><ele>338.918396</ele><time>2021-07-17T13:35:35Z</time><extensions><speed>0.000000</speed><course>240.875916</course><hAcc>0.914043</hAcc><vAcc>0.739922</vAcc></extensions></trkpt>
      <trkpt lon="-4.158404" lat="53.024546"><ele>338.918396</ele><time>2021-07-17T13:35:36Z</time><extensions><speed>0.000000</speed><course>240.875916</course><hAcc>0.915068</hAcc><vAcc>0.741738</vAcc></extensions></trkpt>
      <trkpt lon="-4.158404" lat="53.024546"><ele>338.918396</ele><time>2021-07-17T13:35:37Z</time><extensions><speed>0.000000</speed><course>240.875916</course><hAcc>0.915585</hAcc><vAcc>0.742947</vAcc></extensions></trkpt>
      <trkpt lon="-4.158404" lat="53.024546"><ele>338.918396</ele><time>2021-07-17T13:35:38Z</time><extensions><speed>0.000000</speed><course>240.875916</course><hAcc>0.915736</hAcc><vAcc>0.743503</vAcc></extensions></trkpt>
      <trkpt lon="-4.158404" lat="53.024546"><ele>338.918396</ele><time>2021-07-17T13:35:39Z</time><extensions><speed>0.000000</speed><course>269.430084</course><hAcc>0.915643</hAcc><vAcc>0.743428</vAcc></extensions></trkpt>
      <trkpt lon="-4.158404" lat="53.024546"><ele>338.918396</ele><time>2021-07-17T13:35:40Z</time><extensions><speed>0.000000</speed><course>274.056000</course><hAcc>0.915352</hAcc><vAcc>0.742761</vAcc></extensions></trkpt>
      <trkpt lon="-4.158404" lat="53.024546"><ele>338.918396</ele><time>2021-07-17T13:35:41Z</time><extensions><speed>0.000000</speed><course>273.580658</course><hAcc>0.914830</hAcc><vAcc>0.741554</vAcc></extensions></trkpt>
      <trkpt lon="-4.158404" lat="53.024546"><ele>338.918396</ele><time>2021-07-17T13:35:42Z</time><extensions><speed>0.000000</speed><course>266.285736</course><hAcc>0.914015</hAcc><vAcc>0.739913</vAcc></extensions></trkpt>
      <trkpt lon="-4.158404" lat="53.024546"><ele>338.918396</ele><time>2021-07-17T13:35:43Z</time><extensions><speed>0.000000</speed><course>280.416809</course><hAcc>0.912923</hAcc><vAcc>0.738090</vAcc></extensions></trkpt>
      <trkpt lon="-4.158404" lat="53.024546"><ele>338.918396</ele><time>2021-07-17T13:35:44Z</time><extensions><speed>0.000000</speed><course>289.633057</course><hAcc>0.911831</hAcc><vAcc>0.736630</vAcc></extensions></trkpt>
      <trkpt lon="-4.158404" lat="53.024546"><ele>338.918396</ele><time>2021-07-17T13:35:45Z</time><extensions><speed>0.000000</speed><course>274.042023</course><hAcc>0.911545</hAcc><vAcc>0.736575</vAcc></extensions></trkpt>
      <trkpt lon="-4.158404" lat="53.024546"><ele>338.918396</ele><time>2021-07-17T13:35:46Z</time><extensions><speed>0.000000</speed><course>259.398621</course><hAcc>0.913771</hAcc><vAcc>0.739707</vAcc></extensions></trkpt>
      <trkpt lon="-4.158404" lat="53.024546"><ele>338.918396</ele><time>2021-07-17T13:35:47Z</time><extensions><speed>0.000000</speed><course>235.228027</course><hAcc>0.921559</hAcc><vAcc>0.748793</vAcc></extensions></trkpt>
      <trkpt lon="-4.158404" lat="53.024546"><ele>338.918396</ele><time>2021-07-17T13:35:48Z</time><extensions><speed>0.000000</speed><course>233.943741</course><hAcc>0.939713</hAcc><vAcc>0.767717</vAcc></extensions></trkpt>
      <trkpt lon="-4.158404" lat="53.024546"><ele>338.918396</ele><time>2021-07-17T13:35:49Z</time><extensions><speed>0.000000</speed><course>251.986771</course><hAcc>0.974950</hAcc><vAcc>0.801372</vAcc></extensions></trkpt>
      <trkpt lon="-4.158404" lat="53.024546"><ele>338.918396</ele><time>2021-07-17T13:35:50Z</time><extensions><speed>0.000000</speed><course>207.637573</course><hAcc>0.936963</hAcc><vAcc>0.766416</vAcc></extensions></trkpt>
      <trkpt lon="-4.158404" lat="53.024546"><ele>338.918396</ele><time>2021-07-17T13:35:51Z</time><extensions><speed>0.000000</speed><course>199.781464</course><hAcc>0.918016</hAcc><vAcc>0.746340</vAcc></extensions></trkpt>
      <trkpt lon="-4.158404" lat="53.024546"><ele>338.918396</ele><time>2021-07-17T13:35:52Z</time><extensions><speed>0.000000</speed><course>204.898392</course><hAcc>0.910592</hAcc><vAcc>0.737057</vAcc></extensions></trkpt>
      <trkpt lon="-4.158404" lat="53.024546"><ele>338.918396</ele><time>2021-07-17T13:35:53Z</time><extensions><speed>0.000000</speed><course>218.988647</course><hAcc>0.909204</hAcc><vAcc>0.734233</vAcc></extensions></trkpt>
      <trkpt lon="-4.158404" lat="53.024546"><ele>338.918396</ele><time>2021-07-17T13:35:54Z</time><extensions><speed>0.000000</speed><course>240.875916</course><hAcc>0.910375</hAcc><vAcc>0.734772</vAcc></extensions></trkpt>
      <trkpt lon="-4.158404" lat="53.024546"><ele>338.918396</ele><time>2021-07-17T13:35:55Z</time><extensions><speed>0.000000</speed><course>240.875916</course><hAcc>0.912176</hAcc><vAcc>0.736687</vAcc></extensions></trkpt>
      <trkpt lon="-4.158404" lat="53.024546"><ele>338.918396</ele><time>2021-07-17T13:35:56Z</time><extensions><speed>0.000000</speed><course>240.875916</course><hAcc>0.913721</hAcc><vAcc>0.738834</vAcc></extensions></trkpt>
      <trkpt lon="-4.158404" lat="53.024546"><ele>338.918396</ele><time>2021-07-17T13:35:57Z</time><extensions><speed>0.000000</speed><course>240.875916</course><hAcc>0.914740</hAcc><vAcc>0.740642</vAcc></extensions></trkpt>
      <trkpt lon="-4.158404" lat="53.024546"><ele>338.918396</ele><time>2021-07-17T13:35:58Z</time><extensions><speed>0.000000</speed><course>240.875916</course><hAcc>0.915268</hAcc><vAcc>0.741882</vAcc></extensions></trkpt>
      <trkpt lon="-4.158404" lat="53.024546"><ele>338.918396</ele><time>2021-07-17T13:35:59Z</time><extensions><speed>0.000000</speed><course>240.875916</course><hAcc>0.915447</hAcc><vAcc>0.742508</vAcc></extensions></trkpt>
      <trkpt lon="-4.158404" lat="53.024546"><ele>338.918396</ele><time>2021-07-17T13:36:00Z</time><extensions><speed>0.000000</speed><course>269.430084</course><hAcc>0.915397</hAcc><vAcc>0.742551</vAcc></extensions></trkpt>
      <trkpt lon="-4.158404" lat="53.024546"><ele>338.918396</ele><time>2021-07-17T13:36:01Z</time><extensions><speed>0.000000</speed><course>274.056000</course><hAcc>0.915162</hAcc><vAcc>0.742060</vAcc></extensions></trkpt>
      <trkpt lon="-4.158404" lat="53.024546"><ele>338.918396</ele><time>2021-07-17T13:36:02Z</time><extensions><speed>0.000000</speed><course>273.580658</course><hAcc>0.914707</hAcc><vAcc>0.741090</vAcc></extensions></trkpt>
      <trkpt lon="-4.158404" lat="53.024546"><ele>338.918396</ele><time>2021-07-17T13:36:03Z</time><extensions><speed>0.000000</speed><course>266.285736</course><hAcc>0.913967</hAcc><vAcc>0.739740</vAcc></extensions></trkpt>
      <trkpt lon="-4.158404" lat="53.024546"><ele>338.918396</ele><time>2021-07-17T13:36:04Z</time><extensions><speed>0.000000</speed><course>280.416809</course><hAcc>0.912956</hAcc><vAcc>0.738243</vAcc></extensions></trkpt>
      <trkpt lon="-4.158404" lat="53.024546"><ele>338.918396</ele><time>2021-07-17T13:36:05Z</time><extensions><speed>0.000000</speed><course>289.633057</course><hAcc>0.911947</hAcc><vAcc>0.737120</vAcc></extensions></trkpt>
      <trkpt lon="-4.158404" lat="53.024546"><ele>338.918396</ele><time>2021-07-17T13:36:06Z</time><extensions><speed>0.000000</speed><course>274.042023</course><hAcc>0.911744</hAcc><vAcc>0.737387</vAcc></extensions></trkpt>
      <trkpt lon="-4.158404" lat="53.024546"><ele>338.918396</ele><time>2021-07-17T13:36:07Z</time><extensions><speed>0.000000</speed><course>259.398621</course><hAcc>0.914050</hAcc><vAcc>0.740802</vAcc></extensions></trkpt>
      <trkpt lon="-4.158404" lat="53.024546"><ele>338.918396</ele><time>2021-07-17T13:36:08Z</time><extensions><speed>0.000000</speed><course>235.228027</course><hAcc>0.921912</hAcc><vAcc>0.750113</vAcc></extensions></trkpt>
      <trkpt lon="-4.158404" lat="53.024546"><ele>338.918396</ele><time>2021-07-17T13:36:09Z</time><extensions><speed>0.000000</speed><course>233.943741</course><hAcc>0.940131</hAcc><vAcc>0.769185</vAcc></extensions></trkpt>
      <trkpt lon="-4.158404" lat="53.024546"><ele>338.918396</ele><time>2021-07-17T13:36:10Z</time><extensions><speed>0.000000</speed><course>251.986771</course><hAcc>0.975386</hAcc><vAcc>0.802867</vAcc></extensions></trkpt>
      <trkpt lon="-4.158404" lat="53.024546"><ele>338.918396</ele><time>2021-07-17T13:36:11Z</time><extensions><speed>0.000000</speed><course>207.637573</course><hAcc>0.937570</hAcc><vAcc>0.768128</vAcc></extensions></trkpt>
      <trkpt lon="-4.158404" lat="53.024546"><ele>338.918396</ele><time>2021-07-17T13:36:12Z</time><extensions><speed>0.000000</speed><course>199.781464</course><hAcc>0.918410</hAcc><vAcc>0.747429</vAcc></extensions></trkpt>
      <trkpt lon="-4.158404" lat="53.024546"><ele>338.918396</ele><time>2021-07-17T13:36:13Z</time><extensions><speed>0.000000</speed><course>204.898392</course><hAcc>0.910805</hAcc><vAcc>0.737591</vAcc></extensions></trkpt>
      <trkpt lon="-4.158404" lat="53.024546"><ele>338.918396</ele><time>2021-07-17T13:36:14Z</time><extensions><speed>0.000000</speed><course>218.988647</course><hAcc>0.909273</hAcc><vAcc>0.734302</vAcc></extensions></trkpt>
      <trkpt lon="-4.158404" lat="53.024546"><ele>338.918396</ele><time>2021-07-17T13:36:15Z</time><extensions><speed>0.000000</speed><course>240.875916</course><hAcc>0.910334</hAcc><vAcc>0.734473</vAcc></extensions></trkpt>
      <trkpt lon="-4.158404" lat="53.024546"><ele>338.918396</ele><time>2021-07-17T13:36:16Z</time><extensions><speed>0.000000</speed><course>240.875916</course><hAcc>0.912055</hAcc><vAcc>0.736122</vAcc></extensions></trkpt>
      <trkpt lon="-4.158404" lat="53.024546"><ele>338.918396</ele><time>2021-07-17T13:36:17Z</time><extensions><speed>0.000000</speed><course>240.875916</course><hAcc>0.913546</hAcc><vAcc>0.738107</vAcc></extensions></trkpt>
      <trkpt lon="-4.158404" lat="53.024546"><ele>338.918396</ele><time>2021-07-17T13:36:18Z</time><extensions><speed>0.000000</speed><course>240.875916</course><hAcc>0.914531</hAcc><vAcc>0.739846</vAcc></extensions></trkpt>
      <trkpt lon="-4.158404" lat="53.024546"><ele>338.918396</ele><time>2021-07-17T13:36:19Z</time><extensions><speed>0.000000</speed><course>240.875916</course><hAcc>0.915043</hAcc><vAcc>0.741097</vAcc></extensions></trkpt>
      <trkpt lon="-4.158404" lat="53.024546"><ele>338.918396</ele><time>2021-07-17T13:36:20Z</time><extensions><speed>0.000000</speed><course>240.875916</course><hAcc>0.915218</hAcc><vAcc>0.741795</vAcc></extensions></trkpt>
      <trkpt lon="-4.158404" lat="53.024546"><ele>338.918396</ele><time>2021-07-17T13:36:21Z</time><extensions><speed>0.000000</speed><course>269.430084</course><hAcc>0.915173</hAcc><vAcc>0.741945</vAcc></extensions></trkpt>
      <trkpt lon="-4.158404" lat="53.024546"><ele>338.918396</ele><time>2021-07-17T13:36:22Z</time><extensions><speed>0.000000</speed><course>274.056000</course><hAcc>0.914950</hAcc><vAcc>0.741572</vAcc></extensions></trkpt>
      <trkpt lon="-4.158404" lat="53.024546"><ele>338.918396</ele><time>2021-07-17T13:36:23Z</time><extensions><speed>0.000000</speed><course>273.580658</course><hAcc>0.914531</hAcc><vAcc>0.740730</vAcc></extensions></trkpt>
      <trkpt lon="-4.158404" lat="53.024546"><ele>338.918396</ele><time>2021-07-17T13:36:24Z</time><extensions><speed>0.000000</speed><course>266.285736</course><hAcc>0.913850</hAcc><vAcc>0.739514</vAcc></extensions></trkpt>
      <trkpt lon="-4.158404" lat="53.024546"><ele>338.918396</ele><time>2021-07-17T13:36:25Z</time><extensions><speed>0.000000</speed><course>280.416809</course><hAcc>0.912904</hAcc><vAcc>0.738156</vAcc></extensions></trkpt>
      <trkpt lon="-4.158404" lat="53.024546"><ele>338.918396</ele><time>2021-07-17T13:36:26Z</time><extensions><speed>0.000000</speed><course>289.633057</course><hAcc>0.911971</hAcc><vAcc>0.737200</vAcc></extensions></trkpt>
      <trkpt lon="-4.158404" lat="53.024546"><ele>338.918396</ele><time>2021-07-17T13:36:27Z</time><extensions><speed>0.000000</speed><course>274.042023</course><hAcc>0.911859</hAcc><vAcc>0.737681</vAcc></extensions></trkpt>
      <trkpt lon="-4.158404" lat="53.024546"><ele>338.918396</ele><time>2021-07-17T13:36:28Z</time><extensions><speed>0.000000</speed><course>259.398621</course><hAcc>0.914275</hAcc><vAcc>0.741376</vAcc></extensions></trkpt>
      <trkpt lon="-4.158404" lat="53.024546"><ele>338.918396</ele><time>2021-07-17T13:36:29Z</time><extensions><speed>0.000000</speed><course>235.228027</course><hAcc>0.922271</hAcc><vAcc>0.751041</vAcc></extensions></trkpt>
      <trkpt lon="-4.158404" lat="53.024546"><ele>338.918396</ele><time>2021-07-17T13:36:30Z</time><extensions><speed>0.000000</speed><course>233.943741</course><hAcc>0.940646</hAcc><vAcc>0.770542</vAcc></extensions></trkpt>
      <trkpt lon="-4.158404" lat="53.024546"><ele>338.918396</ele><time>2021-07-17T13:36:31Z</time><extensions><speed>0.000000</speed><course>251.986771</course><hAcc>0.976073</hAcc><vAcc>0.804714</vAcc></extensions></trkpt>
      <trkpt lon="-4.158404" lat="53.024546"><ele>338.942932</ele><time>2021-07-17T13:36:32Z</time><extensions><speed>0.008683</speed><course>207.637573</course><hAcc>0.937488</hAcc><vAcc>0.768706</vAcc></extensions></trkpt>
      <trkpt lon="-4.158404" lat="53.024546"><ele>338.945099</ele><time>2021-07-17T13:36:33Z</time><extensions><speed>0.007538</speed><course>199.781464</course><hAcc>0.917972</hAcc><vAcc>0.747653</vAcc></extensions></trkpt>
      <trkpt lon="-4.158404" lat="53.024546"><ele>338.946564</ele><time>2021-07-17T13:36:34Z</time><extensions><speed>0.006010</speed><course>204.898392</course><hAcc>0.909820</hAcc><vAcc>0.737200</vAcc></extensions></trkpt>
      <trkpt lon="-4.158404" lat="53.024546"><ele>338.947083</ele><time>2021-07-17T13:36:35Z</time><extensions><speed>0.004322</speed><course>218.988647</course><hAcc>0.907530</hAcc><vAcc>0.733024</vAcc></extensions></trkpt>
      <trkpt lon="-4.158404" lat="53.024546"><ele>338.946350</ele><time>2021-07-17T13:36:36Z</time><extensions><speed>0.003838</speed><course>240.875916</course><hAcc>0.907596</hAcc><vAcc>0.732034</vAcc></extensions></trkpt>
      <trkpt lon="-4.158404" lat="53.024546"><ele>338.944000</ele><time>2021-07-17T13:36:37Z</time><extensions><speed>0.006437</speed><course>240.875916</course><hAcc>0.908063</hAcc><vAcc>0.732256</vAcc></extensions></trkpt>
      <trkpt lon="-4.158404" lat="53.024546"><ele>338.939606</ele><time>2021-07-17T13:36:38Z</time><extensions><speed>0.011192</speed><course>240.875916</course><hAcc>0.908026</hAcc><vAcc>0.732575</vAcc></extensions></trkpt>
      <trkpt lon="-4.158404" lat="53.024546"><ele>338.932709</ele><time>2021-07-17T13:36:39Z</time><extensions><speed>0.017448</speed><course>240.875916</course><hAcc>0.907216</hAcc><vAcc>0.732469</vAcc></extensions></trkpt>
      <trkpt lon="-4.158404" lat="53.024546"><ele>338.922821</ele><time>2021-07-17T13:36:40Z</time><extensions><speed>0.025122</speed><course>240.875916</course><hAcc>0.905705</hAcc><vAcc>0.731788</vAcc></extensions></trkpt>
      <trkpt lon="-4.158404" lat="53.024546"><ele>338.909393</ele><time>2021-07-17T13:36:41Z</time><extensions><speed>0.034244</speed><course>240.875916</course><hAcc>0.903711</hAcc><vAcc>0.730587</vAcc></extensions></trkpt>
      <trkpt lon="-4.158404" lat="53.024547"><ele>338.891876</ele><time>2021-07-17T13:36:42Z</time><extensions><speed>0.044845</speed><course>269.430084</course><hAcc>0.901483</hAcc><vAcc>0.729021</vAcc></extensions></trkpt>
      <trkpt lon="-4.158404" lat="53.024547"><ele>338.869720</ele><time>2021-07-17T13:36:43Z</time><extensions><speed>0.056922</speed><course>274.056000</course><hAcc>0.899242</hAcc><vAcc>0.727271</vAcc></extensions></trkpt>
      <trkpt lon="-4.158404" lat="53.024548"><ele>338.842499</ele><time>2021-07-17T13:36:44Z</time><extensions><speed>0.070414</speed><course>273.580658</course><hAcc>0.897152</hAcc><vAcc>0.725501</vAcc></extensions></trkpt>
      <trkpt lon="-4.158404" lat="53.024548"><ele>338.809723</ele><time>2021-07-17T13:36:45Z</time><extensions><speed>0.085183</speed><course>266.285736</course><hAcc>0.895314</hAcc><vAcc>0.723842</vAcc></extensions></trkpt>
      <trkpt lon="-4.158404" lat="53.024549"><ele>338.771179</ele><time>2021-07-17T13:36:46Z</time><extensions><speed>0.100992</speed><course>280.416809</course><hAcc>0.893778</hAcc><vAcc>0.722385</vAcc></extensions></trkpt>
      <trkpt lon="-4.158404" lat="53.024550"><ele>338.726776</ele><time>2021-07-17T13:36:47Z</time><extensions><speed>0.117486</speed><course>289.633057</course><hAcc>0.892551</hAcc><vAcc>0.721177</vAcc></extensions></trkpt>
      <trkpt lon="-4.158404" lat="53.024551"><ele>338.676636</ele><time>2021-07-17T13:36:48Z</time><extensions><speed>0.134172</speed><course>274.042023</course><hAcc>0.891611</hAcc><vAcc>0.720234</vAcc></extensions></trkpt>
      <trkpt lon="-4.158405" lat="53.024552"><ele>338.621307</ele><time>2021-07-17T13:36:49Z</time><extensions><speed>0.150396</speed><course>259.398621</course><hAcc>0.890920</hAcc><vAcc>0.719541</vAcc></extensions></trkpt>
      <trkpt lon="-4.158405" lat="53.024554"><ele>338.561676</ele><time>2021-07-17T13:36:50Z</time><extensions><speed>0.165324</speed><course>235.228027</course><hAcc>0.890435</hAcc><vAcc>0.719066</vAcc></extensions></trkpt>
      <trkpt lon="-4.158406" lat="53.024555"><ele>338.499176</ele><time>2021-07-17T13:36:51Z</time><extensions><speed>0.177930</speed><course>233.943741</course><hAcc>0.890109</hAcc><vAcc>0.718761</vAcc></extensions></trkpt>
      <trkpt lon="-4.158407" lat="53.024557"><ele>338.435883</ele><time>2021-07-17T13:36:52Z</time><extensions><speed>0.186998</speed><course>251.986771</course><hAcc>0.889901</hAcc><vAcc>0.718577</vAcc></extensions></trkpt>
      <trkpt lon="-4.158408" lat="53.024559"><ele>338.374603</ele><time>2021-07-17T13:36:53Z</time><extensions><speed>0.191133</speed><course>230.632401</course><hAcc>0.889774</hAcc><vAcc>0.718471</vAcc></extensions></trkpt>
      <trkpt lon="-4.158409" lat="53.024560"><ele>338.318481</ele><time>2021-07-17T13:36:54Z</time><extensions><speed>0.190661</speed><course>208.539734</course><hAcc>0.889698</hAcc><vAcc>0.718404</vAcc></extensions></trkpt>
      <trkpt lon="-4.158410" lat="53.024562"><ele>338.270325</ele><time>2021-07-17T13:36:55Z</time><extensions><speed>0.187596</speed><course>217.062653</course><hAcc>0.889648</hAcc><vAcc>0.718347</vAcc></extensions></trkpt>
      <trkpt lon="-4.158411" lat="53.024563"><ele>338.232086</ele><time>2021-07-17T13:36:56Z</time><extensions><speed>0.183730</speed><course>216.480164</course><hAcc>0.889606</hAcc><vAcc>0.718274</vAcc></extensions></trkpt>
      <trkpt lon="-4.158413" lat="53.024564"><ele>338.205048</ele><time>2021-07-17T13:36:57Z</time><extensions><speed>0.180545</speed><course>215.204285</course><hAcc>0.889559</hAcc><vAcc>0.718165</vAcc></extensions></trkpt>
      <trkpt lon="-4.158415" lat="53.024565"><ele>338.189911</ele><time>2021-07-17T13:36:58Z</time><extensions><speed>0.179022</speed><course>192.608246</course><hAcc>0.889495</hAcc><vAcc>0.718003</vAcc></extensions></trkpt>
      <trkpt lon="-4.158417" lat="53.024566"><ele>338.186737</ele><time>2021-07-17T13:36:59Z</time><extensions><speed>0.179423</speed><course>196.818375</course><hAcc>0.889409</hAcc><vAcc>0.717774</vAcc></extensions></trkpt>
      <trkpt lon="-4.158419" lat="53.024567"><ele>338.195129</ele><time>2021-07-17T13:37:00Z</time><extensions><speed>0.181152</speed><course>200.564194</course><hAcc>0.889295</hAcc><vAcc>0.717463</vAcc></extensions></trkpt>
      <trkpt lon="-4.158422" lat="53.024568"><ele>338.214142</ele><time>2021-07-17T13:37:01Z</time><extensions><speed>0.182762</speed><course>224.718231</course><hAcc>0.889152</hAcc><vAcc>0.717057</vAcc></extensions></trkpt>
      <trkpt lon="-4.158424" lat="53.024569"><ele>338.242340</ele><time>2021-07-17T13:37:02Z</time><extensions><speed>0.182099</speed><course>228.969803</course><hAcc>0.888977</hAcc><vAcc>0.716544</vAcc></extensions></trkpt>
      <trkpt lon="-4.158427" lat="53.024569"><ele>338.277863</ele><time>2021-07-17T13:37:03Z</time><extensions><speed>0.178042</speed><course>250.366501</course><hAcc>0.888772</hAcc><vAcc>0.715918</vAcc></extensions></trkpt>
      <trkpt lon="-4.158429" lat="53.024569"><ele>338.318909</ele><time>2021-07-17T13:37:04Z</time><extensions><speed>0.170746</speed><course>-1.000000</course><hAcc>0.888539</hAcc><vAcc>0.715178</vAcc></extensions></trkpt>
      <trkpt lon="-4.158432" lat="53.024569"><ele>338.363861</ele><time>2021-07-17T13:37:05Z</time><extensions><speed>0.161468</speed><course>232.063629</course><hAcc>0.888283</hAcc><vAcc>0.714330</vAcc></extensions></trkpt>
      <trkpt lon="-4.158434" lat="53.024569"><ele>338.411072</ele><time>2021-07-17T13:37:06Z</time><extensions><speed>0.152033</speed><course>232.063614</course><hAcc>0.888008</hAcc><vAcc>0.713389</vAcc></extensions></trkpt>
      <trkpt lon="-4.158436" lat="53.024569"><ele>338.458862</ele><time>2021-07-17T13:37:07Z</time><extensions><speed>0.143679</speed><course>232.063614</course><hAcc>0.887719</hAcc><vAcc>0.712379</vAcc></extensions></trkpt>
      <trkpt lon="-4.158438" lat="53.024569"><ele>338.505981</ele><time>2021-07-17T13:37:08Z</time><extensions><speed>0.137553</speed><course>232.063599</course><hAcc>0.887424</hAcc><vAcc>0.711341</vAcc></extensions></trkpt>
      <trkpt lon="-4.158440" lat="53.024568"><ele>338.551331</ele><time>2021-07-17T13:37:09Z</time><extensions><speed>0.134092</speed><course>232.063599</course><hAcc>0.887126</hAcc><vAcc>0.710311</vAcc></extensions></trkpt>
      <trkpt lon="-4.158442" lat="53.024567"><ele>338.594086</ele><time>2021-07-17T13:37:10Z</time><extensions><speed>0.133182</speed><course>232.063583</course><hAcc>0.886832</hAcc><vAcc>0.709317</vAcc></extensions></trkpt>
      <trkpt lon="-4.158443" lat="53.024566"><ele>338.633514</ele><time>2021-07-17T13:37:11Z</time><extensions><speed>0.134293</speed><course>232.063583</course><hAcc>0.886546</hAcc><vAcc>0.708373</vAcc></extensions></trkpt>
      <trkpt lon="-4.158445" lat="53.024566"><ele>338.669098</ele><time>2021-07-17T13:37:12Z</time><extensions><speed>0.136421</speed><course>248.555511</course><hAcc>0.886272</hAcc><vAcc>0.707489</vAcc></extensions></trkpt>
      <trkpt lon="-4.158446" lat="53.024564"><ele>338.700500</ele><time>2021-07-17T13:37:13Z</time><extensions><speed>0.138464</speed><course>214.727661</course><hAcc>0.886011</hAcc><vAcc>0.706666</vAcc></extensions></trkpt>
      <trkpt lon="-4.158447" lat="53.024563"><ele>338.727570</ele><time>2021-07-17T13:37:14Z</time><extensions><speed>0.139367</speed><course>215.656113</course><hAcc>0.885764</hAcc><vAcc>0.705903</vAcc></extensions></trkpt>
      <trkpt lon="-4.158448" lat="53.024562"><ele>338.750214</ele><time>2021-07-17T13:37:15Z</time><extensions><speed>0.138263</speed><course>205.637772</course><hAcc>0.885531</hAcc><vAcc>0.705198</vAcc></extensions></trkpt>
      <trkpt lon="-4.158449" lat="53.024561"><ele>338.768555</ele><time>2021-07-17T13:37:16Z</time><extensions><speed>0.134764</speed><course>201.575424</course><hAcc>0.885310</hAcc><vAcc>0.704541</vAcc></extensions></trkpt>
      <trkpt lon="-4.158449" lat="53.024560"><ele>338.782745</ele><time>2021-07-17T13:37:17Z</time><extensions><speed>0.128991</speed><course>196.854248</course><hAcc>0.885098</hAcc><vAcc>0.703921</vAcc></extensions></trkpt>
      <trkpt lon="-4.158450" lat="53.024559"><ele>338.792999</ele><time>2021-07-17T13:37:18Z</time><extensions><speed>0.121328</speed><course>198.264053</course><hAcc>0.884891</hAcc><vAcc>0.703321</vAcc></extensions></trkpt>
      <trkpt lon="-4.158451" lat="53.024558"><ele>338.799683</ele><time>2021-07-17T13:37:19Z</time><extensions><speed>0.112284</speed><course>198.636932</course><hAcc>0.884688</hAcc><vAcc>0.702721</vAcc></extensions></trkpt>
      <trkpt lon="-4.158451" lat="53.024557"><ele>338.803162</ele><time>2021-07-17T13:37:20Z</time><extensions><speed>0.102493</speed><course>192.727798</course><hAcc>0.884486</hAcc><vAcc>0.702107</vAcc></extensions></trkpt>
      <trkpt lon="-4.158452" lat="53.024556"><ele>338.803864</ele><time>2021-07-17T13:37:21Z</time><extensions><speed>0.092569</speed><course>184.691818</course><hAcc>0.884283</hAcc><vAcc>0.701472</vAcc></extensions></trkpt>
      <trkpt lon="-4.158453" lat="53.024556"><ele>338.802216</ele><time>2021-07-17T13:37:22Z</time><extensions><speed>0.082920</speed><course>177.917740</course><hAcc>0.884081</hAcc><vAcc>0.700818</vAcc></extensions></trkpt>
      <trkpt lon="-4.158453" lat="53.024555"><ele>338.798798</ele><time>2021-07-17T13:37:23Z</time><extensions><speed>0.073901</speed><course>169.935883</course><hAcc>0.883881</hAcc><vAcc>0.700155</vAcc></extensions></trkpt>
      <trkpt lon="-4.158454" lat="53.024555"><ele>338.793945</ele><time>2021-07-17T13:37:24Z</time><extensions><speed>0.065785</speed><course>168.290512</course><hAcc>0.883685</hAcc><vAcc>0.699493</vAcc></extensions></trkpt>
      <trkpt lon="-4.158455" lat="53.024554"><ele>338.788025</ele><time>2021-07-17T13:37:25Z</time><extensions><speed>0.058490</speed><course>175.847488</course><hAcc>0.883497</hAcc><vAcc>0.698846</vAcc></extensions></trkpt>
      <trkpt lon="-4.158455" lat="53.024554"><ele>338.781342</ele><time>2021-07-17T13:37:26Z</time><extensions><speed>0.051786</speed><course>182.489380</course><hAcc>0.883321</hAcc><vAcc>0.698233</vAcc></extensions></trkpt>
      <trkpt lon="-4.158456" lat="53.024554"><ele>338.774200</ele><time>2021-07-17T13:37:27Z</time><extensions><speed>0.045550</speed><course>193.224472</course><hAcc>0.883161</hAcc><vAcc>0.697674</vAcc></extensions></trkpt>
      <trkpt lon="-4.158456" lat="53.024554"><ele>338.766937</ele><time>2021-07-17T13:37:28Z</time><extensions><speed>0.039706</speed><course>210.457108</course><hAcc>0.883021</hAcc><vAcc>0.697190</vAcc></extensions></trkpt>
      <trkpt lon="-4.158457" lat="53.024553"><ele>338.759888</ele><time>2021-07-17T13:37:29Z</time><extensions><speed>0.034023</speed><course>227.054108</course><hAcc>0.882903</hAcc><vAcc>0.696797</vAcc></extensions></trkpt>
      <trkpt lon="-4.158457" lat="53.024553"><ele>338.753235</ele><time>2021-07-17T13:37:30Z</time><extensions><speed>0.028218</speed><course>247.666534</course><hAcc>0.882808</hAcc><vAcc>0.696504</vAcc></extensions></trkpt>
      <trkpt lon="-4.158458" lat="53.024553"><ele>338.747070</ele><time>2021-07-17T13:37:31Z</time><extensions><speed>0.022600</speed><course>261.197876</course><hAcc>0.882735</hAcc><vAcc>0.696310</vAcc></extensions></trkpt>
      <trkpt lon="-4.158458" lat="53.024553"><ele>338.741364</ele><time>2021-07-17T13:37:32Z</time><extensions><speed>0.017977</speed><course>263.217255</course><hAcc>0.882681</hAcc><vAcc>0.696203</vAcc></extensions></trkpt>
      <trkpt lon="-4.158458" lat="53.024553"><ele>338.736145</ele><time>2021-07-17T13:37:33Z</time><extensions><speed>0.015842</speed><course>271.463165</course><hAcc>0.882640</hAcc><vAcc>0.696158</vAcc></extensions></trkpt>
      <trkpt lon="-4.158458" lat="53.024553"><ele>338.731445</ele><time>2021-07-17T13:37:34Z</time><extensions><speed>0.017901</speed><course>281.991608</course><hAcc>0.882606</hAcc><vAcc>0.696141</vAcc></extensions></trkpt>
      <trkpt lon="-4.158458" lat="53.024553"><ele>338.727264</ele><time>2021-07-17T13:37:35Z</time><extensions><speed>0.023514</speed><course>285.895782</course><hAcc>0.882573</hAcc><vAcc>0.696114</vAcc></extensions></trkpt>
      <trkpt lon="-4.158458" lat="53.024552"><ele>338.723572</ele><time>2021-07-17T13:37:36Z</time><extensions><speed>0.031240</speed><course>287.327179</course><hAcc>0.882535</hAcc><vAcc>0.696048</vAcc></extensions></trkpt>
      <trkpt lon="-4.158458" lat="53.024552"><ele>338.720245</ele><time>2021-07-17T13:37:37Z</time><extensions><speed>0.040524</speed><course>297.396240</course><hAcc>0.882488</hAcc><vAcc>0.695923</vAcc></extensions></trkpt>
      <trkpt lon="-4.158458" lat="53.024552"><ele>338.717255</ele><time>2021-07-17T13:37:38Z</time><extensions><speed>0.051186</speed><course>299.473175</course><hAcc>0.882432</hAcc><vAcc>0.695730</vAcc></extensions></trkpt>
      <trkpt lon="-4.158458" lat="53.024551"><ele>338.714539</ele><time>2021-07-17T13:37:39Z</time><extensions><speed>0.062827</speed><course>297.683289</course><hAcc>0.882365</hAcc><vAcc>0.695477</vAcc></extensions></trkpt>
      <trkpt lon="-4.158459" lat="53.024551"><ele>338.712158</ele><time>2021-07-17T13:37:40Z</time><extensions><speed>0.074690</speed><course>292.365356</course><hAcc>0.882293</hAcc><vAcc>0.695180</vAcc></extensions></trkpt>
      <trkpt lon="-4.158459" lat="53.024550"><ele>338.710175</ele><time>2021-07-17T13:37:41Z</time><extensions><speed>0.086058</speed><course>291.092651</course><hAcc>0.882219</hAcc><vAcc>0.694866</vAcc></extensions></trkpt>
      <trkpt lon="-4.158459" lat="53.024549"><ele>338.708649</ele><time>2021-07-17T13:37:42Z</time><extensions><speed>0.096463</speed><course>297.007721</course><hAcc>0.882148</hAcc><vAcc>0.694562</vAcc></extensions></trkpt>
      <trkpt lon="-4.158460" lat="53.024548"><ele>338.707458</ele><time>2021-07-17T13:37:43Z</time><extensions><speed>0.105428</speed><course>291.539093</course><hAcc>0.882088</hAcc><vAcc>0.694300</vAcc></extensions></trkpt>
      <trkpt lon="-4.158460" lat="53.024547"><ele>338.706360</ele><time>2021-07-17T13:37:44Z</time><extensions><speed>0.112274</speed><course>293.314819</course><hAcc>0.882043</hAcc><vAcc>0.694112</vAcc></extensions></trkpt>
      <trkpt lon="-4.158461" lat="53.024546"><ele>338.705048</ele><time>2021-07-17T13:37:45Z</time><extensions><speed>0.116076</speed><course>297.043213</course><hAcc>0.882017</hAcc><vAcc>0.694025</vAcc></extensions></trkpt>
      <trkpt lon="-4.158462" lat="53.024545"><ele>338.703339</ele><time>2021-07-17T13:37:46Z</time><extensions><speed>0.115942</speed><course>301.573547</course><hAcc>0.882013</hAcc><vAcc>0.694047</vAcc></extensions></trkpt>
      <trkpt lon="-4.158462" lat="53.024544"><ele>338.700928</ele><time>2021-07-17T13:37:47Z</time><extensions><speed>0.111457</speed><course>305.542847</course><hAcc>0.882028</hAcc><vAcc>0.694170</vAcc></extensions></trkpt>
      <trkpt lon="-4.158463" lat="53.024543"><ele>338.697662</ele><time>2021-07-17T13:37:48Z</time><extensions><speed>0.102803</speed><course>304.461029</course><hAcc>0.882060</hAcc><vAcc>0.694363</vAcc></extensions></trkpt>
      <trkpt lon="-4.158463" lat="53.024543"><ele>338.693359</ele><time>2021-07-17T13:37:49Z</time><extensions><speed>0.090936</speed><course>304.519958</course><hAcc>0.882107</hAcc><vAcc>0.694589</vAcc></extensions></trkpt>
      <trkpt lon="-4.158463" lat="53.024542"><ele>338.687988</ele><time>2021-07-17T13:37:50Z</time><extensions><speed>0.077414</speed><course>306.835541</course><hAcc>0.882165</hAcc><vAcc>0.694811</vAcc></extensions></trkpt>
      <trkpt lon="-4.158463" lat="53.024541"><ele>338.681549</ele><time>2021-07-17T13:37:51Z</time><extensions><speed>0.063866</speed><course>312.924469</course><hAcc>0.882234</hAcc><vAcc>0.695013</vAcc></extensions></trkpt>
      <trkpt lon="-4.158463" lat="53.024541"><ele>338.674255</ele><time>2021-07-17T13:37:52Z</time><extensions><speed>0.051790</speed><course>313.121582</course><hAcc>0.882319</hAcc><vAcc>0.695198</vAcc></extensions></trkpt>
      <trkpt lon="-4.158463" lat="53.024540"><ele>338.666412</ele><time>2021-07-17T13:37:53Z</time><extensions><speed>0.042363</speed><course>312.363678</course><hAcc>0.882428</hAcc><vAcc>0.695400</vAcc></extensions></trkpt>
      <trkpt lon="-4.158463" lat="53.024540"><ele>338.658356</ele><time>2021-07-17T13:37:54Z</time><extensions><speed>0.035921</speed><course>309.905548</course><hAcc>0.882572</hAcc><vAcc>0.695680</vAcc></extensions></trkpt>
      <trkpt lon="-4.158463" lat="53.024540"><ele>338.650269</ele><time>2021-07-17T13:37:55Z</time><extensions><speed>0.032149</speed><course>308.597687</course><hAcc>0.882763</hAcc><vAcc>0.696118</vAcc></extensions></trkpt>
      <trkpt lon="-4.158462" lat="53.024540"><ele>338.642242</ele><time>2021-07-17T13:37:56Z</time><extensions><speed>0.030127</speed><course>307.103394</course><hAcc>0.883016</hAcc><vAcc>0.696797</vAcc></extensions></trkpt>
      <trkpt lon="-4.158462" lat="53.024539"><ele>338.634308</ele><time>2021-07-17T13:37:57Z</time><extensions><speed>0.028839</speed><course>306.897400</course><hAcc>0.883343</hAcc><vAcc>0.697780</vAcc></extensions></trkpt>
      <trkpt lon="-4.158461" lat="53.024539"><ele>338.626495</ele><time>2021-07-17T13:37:58Z</time><extensions><speed>0.027704</speed><course>302.152618</course><hAcc>0.883752</hAcc><vAcc>0.699099</vAcc></extensions></trkpt>
      <trkpt lon="-4.158461" lat="53.024539"><ele>338.618805</ele><time>2021-07-17T13:37:59Z</time><extensions><speed>0.026478</speed><course>297.726410</course><hAcc>0.884249</hAcc><vAcc>0.700747</vAcc></extensions></trkpt>
      <trkpt lon="-4.158461" lat="53.024539"><ele>338.611389</ele><time>2021-07-17T13:38:00Z</time><extensions><speed>0.025130</speed><course>300.194183</course><hAcc>0.884838</hAcc><vAcc>0.702689</vAcc></extensions></trkpt>
      <trkpt lon="-4.158460" lat="53.024539"><ele>338.604401</ele><time>2021-07-17T13:38:01Z</time><extensions><speed>0.023527</speed><course>297.151825</course><hAcc>0.885522</hAcc><vAcc>0.704862</vAcc></extensions></trkpt>
      <trkpt lon="-4.158460" lat="53.024539"><ele>338.598114</ele><time>2021-07-17T13:38:02Z</time><extensions><speed>0.021510</speed><course>298.399384</course><hAcc>0.886309</hAcc><vAcc>0.707194</vAcc></extensions></trkpt>
      <trkpt lon="-4.158460" lat="53.024539"><ele>338.592682</ele><time>2021-07-17T13:38:03Z</time><extensions><speed>0.019146</speed><course>300.837921</course><hAcc>0.887210</hAcc><vAcc>0.709619</vAcc></extensions></trkpt>
      <trkpt lon="-4.158459" lat="53.024539"><ele>338.588104</ele><time>2021-07-17T13:38:04Z</time><extensions><speed>0.016617</speed><course>299.844330</course><hAcc>0.888242</hAcc><vAcc>0.712093</vAcc></extensions></trkpt>
      <trkpt lon="-4.158459" lat="53.024539"><ele>338.584381</ele><time>2021-07-17T13:38:05Z</time><extensions><speed>0.014074</speed><course>300.001373</course><hAcc>0.889431</hAcc><vAcc>0.714593</vAcc></extensions></trkpt>
      <trkpt lon="-4.158459" lat="53.024539"><ele>338.581390</ele><time>2021-07-17T13:38:06Z</time><extensions><speed>0.011633</speed><course>294.568817</course><hAcc>0.890803</hAcc><vAcc>0.717111</vAcc></extensions></trkpt>
      <trkpt lon="-4.158459" lat="53.024539"><ele>338.579102</ele><time>2021-07-17T13:38:07Z</time><extensions><speed>0.009373</speed><course>300.687103</course><hAcc>0.892383</hAcc><vAcc>0.719647</vAcc></extensions></trkpt>
      <trkpt lon="-4.158459" lat="53.024539"><ele>338.577393</ele><time>2021-07-17T13:38:08Z</time><extensions><speed>0.007347</speed><course>297.691925</course><hAcc>0.894189</hAcc><vAcc>0.722192</vAcc></extensions></trkpt>
      <trkpt lon="-4.158459" lat="53.024539"><ele>338.576233</ele><time>2021-07-17T13:38:09Z</time><extensions><speed>0.005584</speed><course>293.928223</course><hAcc>0.896216</hAcc><vAcc>0.724721</vAcc></extensions></trkpt>
      <trkpt lon="-4.158459" lat="53.024539"><ele>338.575470</ele><time>2021-07-17T13:38:10Z</time><extensions><speed>0.004100</speed><course>297.041656</course><hAcc>0.898433</hAcc><vAcc>0.727178</vAcc></extensions></trkpt>
      <trkpt lon="-4.158459" lat="53.024539"><ele>338.575073</ele><time>2021-07-17T13:38:11Z</time><extensions><speed>0.002898</speed><course>298.722290</course><hAcc>0.900762</hAcc><vAcc>0.729477</vAcc></extensions></trkpt>
      <trkpt lon="-4.158459" lat="53.024539"><ele>338.574982</ele><time>2021-07-17T13:38:12Z</time><extensions><speed>0.001985</speed><course>296.674316</course><hAcc>0.903080</hAcc><vAcc>0.731502</vAcc></extensions></trkpt>
      <trkpt lon="-4.158458" lat="53.024539"><ele>338.575104</ele><time>2021-07-17T13:38:13Z</time><extensions><speed>0.001382</speed><course>301.147156</course><hAcc>0.905220</hAcc><vAcc>0.733126</vAcc></extensions></trkpt>
      <trkpt lon="-4.158458" lat="53.024539"><ele>338.575409</ele><time>2021-07-17T13:38:14Z</time><extensions><speed>0.001107</speed><course>301.618805</course><hAcc>0.906992</hAcc><vAcc>0.734247</vAcc></extensions></trkpt>
      <trkpt lon="-4.158458" lat="53.024539"><ele>338.575867</ele><time>2021-07-17T13:38:15Z</time><extensions><speed>0.001089</speed><course>300.678009</course><hAcc>0.908239</hAcc><vAcc>0.734855</vAcc></extensions></trkpt>
      <trkpt lon="-4.158458" lat="53.024539"><ele>338.576385</ele><time>2021-07-17T13:38:16Z</time><extensions><speed>0.001173</speed><course>306.078644</course><hAcc>0.908935</hAcc><vAcc>0.735129</vAcc></extensions></trkpt>
      <trkpt lon="-4.158459" lat="53.024539"><ele>338.576965</ele><time>2021-07-17T13:38:17Z</time><extensions><speed>0.001257</speed><course>302.099213</course><hAcc>0.909357</hAcc><vAcc>0.735582</vAcc></extensions></trkpt>
      <trkpt lon="-4.158459" lat="53.024539"><ele>338.577576</ele><time>2021-07-17T13:38:18Z</time><extensions><speed>0.001307</speed><course>298.253754</course><hAcc>0.910336</hAcc><vAcc>0.737256</vAcc></extensions></trkpt>
      <trkpt lon="-4.158459" lat="53.024539"><ele>338.578217</ele><time>2021-07-17T13:38:19Z</time><extensions><speed>0.001321</speed><course>299.772583</course><hAcc>0.913616</hAcc><vAcc>0.741950</vAcc></extensions></trkpt>
      <trkpt lon="-4.158459" lat="53.024539"><ele>338.578857</ele><time>2021-07-17T13:38:20Z</time><extensions><speed>0.001306</speed><course>299.946075</course><hAcc>0.922283</hAcc><vAcc>0.752455</vAcc></extensions></trkpt>
      <trkpt lon="-4.158459" lat="53.024539"><ele>338.579498</ele><time>2021-07-17T13:38:21Z</time><extensions><speed>0.001274</speed><course>303.968170</course><hAcc>0.941168</hAcc><vAcc>0.772670</vAcc></extensions></trkpt>
      <trkpt lon="-4.158459" lat="53.024539"><ele>338.580139</ele><time>2021-07-17T13:38:22Z</time><extensions><speed>0.001235</speed><course>302.223755</course><hAcc>0.976962</hAcc><vAcc>0.807452</vAcc></extensions></trkpt>
      <trkpt lon="-4.158459" lat="53.024539"><ele>338.581604</ele><time>2021-07-17T13:38:23Z</time><extensions><speed>0.000000</speed><course>207.637573</course><hAcc>0.939136</hAcc><vAcc>0.772591</vAcc></extensions></trkpt>
      <trkpt lon="-4.158459" lat="53.024539"><ele>338.581604</ele><time>2021-07-17T13:38:24Z</time><extensions><speed>0.000000</speed><course>199.781464</course><hAcc>0.919976</hAcc><vAcc>0.752067</vAcc></extensions></trkpt>
      <trkpt lon="-4.158459" lat="53.024539"><ele>338.581604</ele><time>2021-07-17T13:38:25Z</time><extensions><speed>0.000000</speed><course>204.898392</course><hAcc>0.912386</hAcc><vAcc>0.742450</vAcc></extensions></trkpt>
      <trkpt lon="-4.158459" lat="53.024539"><ele>338.581604</ele><time>2021-07-17T13:38:26Z</time><extensions><speed>0.000000</speed><course>218.988647</course><hAcc>0.910885</hAcc><vAcc>0.739400</vAcc></extensions></trkpt>
      <trkpt lon="-4.158459" lat="53.024539"><ele>338.581604</ele><time>2021-07-17T13:38:27Z</time><extensions><speed>0.000000</speed><course>240.875916</course><hAcc>0.911988</hAcc><vAcc>0.739800</vAcc></extensions></trkpt>
      <trkpt lon="-4.158459" lat="53.024539"><ele>338.581604</ele><time>2021-07-17T13:38:28Z</time><extensions><speed>0.000000</speed><course>240.875916</course><hAcc>0.913756</hAcc><vAcc>0.741639</vAcc></extensions></trkpt>
      <trkpt lon="-4.158459" lat="53.024539"><ele>338.581604</ele><time>2021-07-17T13:38:29Z</time><extensions><speed>0.000000</speed><course>240.875916</course><hAcc>0.915289</hAcc><vAcc>0.743747</vAcc></extensions></trkpt>
      <trkpt lon="-4.158459" lat="53.024539"><ele>338.581604</ele><time>2021-07-17T13:38:30Z</time><extensions><speed>0.000000</speed><course>240.875916</course><hAcc>0.916303</hAcc><vAcc>0.745531</vAcc></extensions></trkpt>
      <trkpt lon="-4.158459" lat="53.024539"><ele>338.581604</ele><time>2021-07-17T13:38:31Z</time><extensions><speed>0.000000</speed><course>240.875916</course><hAcc>0.916825</hAcc><vAcc>0.746747</vAcc></extensions></trkpt>
      <trkpt lon="-4.158459" lat="53.024539"><ele>338.581604</ele><time>2021-07-17T13:38:32Z</time><extensions><speed>0.000000</speed><course>240.875916</course><hAcc>0.916987</hAcc><vAcc>0.747330</vAcc></extensions></trkpt>
      <trkpt lon="-4.158459" lat="53.024539"><ele>338.581604</ele><time>2021-07-17T13:38:33Z</time><extensions><speed>0.000000</speed><course>269.430084</course><hAcc>0.916907</hAcc><vAcc>0.747295</vAcc></extensions></trkpt>
      <trkpt lon="-4.158459" lat="53.024539"><ele>338.581604</ele><time>2021-07-17T13:38:34Z</time><extensions><speed>0.000000</speed><course>274.056000</course><hAcc>0.916628</hAcc><vAcc>0.746678</vAcc></extensions></trkpt>
      <trkpt lon="-4.158459" lat="53.024539"><ele>338.581604</ele><time>2021-07-17T13:38:35Z</time><extensions><speed>0.000000</speed><course>273.580658</course><hAcc>0.916119</hAcc><vAcc>0.745533</vAcc></extensions></trkpt>
      <trkpt lon="-4.158459" lat="53.024539"><ele>338.581604</ele><time>2021-07-17T13:38:36Z</time><extensions><speed>0.000000</speed><course>266.285736</course><hAcc>0.915323</hAcc><vAcc>0.743974</vAcc></extensions></trkpt>
      <trkpt lon="-4.158459" lat="53.024539"><ele>338.581604</ele><time>2021-07-17T13:38:37Z</time><extensions><speed>0.000000</speed><course>280.416809</course><hAcc>0.914265</hAcc><vAcc>0.742266</vAcc></extensions></trkpt>
      <trkpt lon="-4.158459" lat="53.024539"><ele>338.581604</ele><time>2021-07-17T13:38:38Z</time><extensions><speed>0.000000</speed><course>289.633057</course><hAcc>0.913230</hAcc><vAcc>0.740972</vAcc></extensions></trkpt>
      <trkpt lon="-4.158459" lat="53.024539"><ele>338.581604</ele><time>2021-07-17T13:38:39Z</time><extensions><speed>0.000000</speed><course>274.042023</course><hAcc>0.913037</hAcc><vAcc>0.741154</vAcc></extensions></trkpt>
      <trkpt lon="-4.158459" lat="53.024539"><ele>338.581604</ele><time>2021-07-17T13:38:40Z</time><extensions><speed>0.000000</speed><course>259.398621</course><hAcc>0.915403</hAcc><vAcc>0.744618</vAcc></extensions></trkpt>
      <trkpt lon="-4.158459" lat="53.024539"><ele>338.581604</ele><time>2021-07-17T13:38:41Z</time><extensions><speed>0.000000</speed><course>235.228027</course><hAcc>0.923384</hAcc><vAcc>0.754148</vAcc></extensions></trkpt>
      <trkpt lon="-4.158459" lat="53.024539"><ele>338.581604</ele><time>2021-07-17T13:38:42Z</time><extensions><speed>0.000000</speed><course>233.943741</course><hAcc>0.941784</hAcc><vAcc>0.773635</vAcc></extensions></trkpt>
      <trkpt lon="-4.158459" lat="53.024539"><ele>338.581604</ele><time>2021-07-17T13:38:43Z</time><extensions><speed>0.000000</speed><course>251.986771</course><hAcc>0.977270</hAcc><vAcc>0.807923</vAcc></extensions></trkpt>
      <trkpt lon="-4.158459" lat="53.024539"><ele>338.581604</ele><time>2021-07-17T13:38:44Z</time><extensions><speed>0.000000</speed><course>207.637573</course><hAcc>0.939153</hAcc><vAcc>0.772611</vAcc></extensions></trkpt>
      <trkpt lon="-4.158459" lat="53.024539"><ele>338.581604</ele><time>2021-07-17T13:38:45Z</time><extensions><speed>0.000000</speed><course>199.781464</course><hAcc>0.920003</hAcc><vAcc>0.752109</vAcc></extensions></trkpt>
      <trkpt lon="-4.158459" lat="53.024539"><ele>338.581604</ele><time>2021-07-17T13:38:46Z</time><extensions><speed>0.000000</speed><course>204.898392</course><hAcc>0.912429</hAcc><vAcc>0.742536</vAcc></extensions></trkpt>
      <trkpt lon="-4.158459" lat="53.024539"><ele>338.581604</ele><time>2021-07-17T13:38:47Z</time><extensions><speed>0.000000</speed><course>218.988647</course><hAcc>0.910952</hAcc><vAcc>0.739550</vAcc></extensions></trkpt>
      <trkpt lon="-4.158459" lat="53.024539"><ele>338.581604</ele><time>2021-07-17T13:38:48Z</time><extensions><speed>0.000000</speed><course>240.875916</course><hAcc>0.912083</hAcc><vAcc>0.740033</vAcc></extensions></trkpt>
      <trkpt lon="-4.158459" lat="53.024539"><ele>338.581604</ele><time>2021-07-17T13:38:49Z</time><extensions><speed>0.000000</speed><course>240.875916</course><hAcc>0.913884</hAcc><vAcc>0.741971</vAcc></extensions></trkpt>
      <trkpt lon="-4.158459" lat="53.024539"><ele>338.581604</ele><time>2021-07-17T13:38:50Z</time><extensions><speed>0.000000</speed><course>240.875916</course><hAcc>0.915454</hAcc><vAcc>0.744195</vAcc></extensions></trkpt>
      <trkpt lon="-4.158459" lat="53.024539"><ele>338.581604</ele><time>2021-07-17T13:38:51Z</time><extensions><speed>0.000000</speed><course>240.875916</course><hAcc>0.916508</hAcc><vAcc>0.746108</vAcc></extensions></trkpt>
      <trkpt lon="-4.158459" lat="53.024539"><ele>338.581604</ele><time>2021-07-17T13:38:52Z</time><extensions><speed>0.000000</speed><course>240.875916</course><hAcc>0.917071</hAcc><vAcc>0.747463</vAcc></extensions></trkpt>
      <trkpt lon="-4.158459" lat="53.024539"><ele>338.581604</ele><time>2021-07-17T13:38:53Z</time><extensions><speed>0.000000</speed><course>240.875916</course><hAcc>0.917273</hAcc><vAcc>0.748191</vAcc></extensions></trkpt>
      <trkpt lon="-4.158459" lat="53.024539"><ele>338.581604</ele><time>2021-07-17T13:38:54Z</time><extensions><speed>0.000000</speed><course>269.430084</course><hAcc>0.917230</hAcc><vAcc>0.748301</vAcc></extensions></trkpt>
      <trkpt lon="-4.158459" lat="53.024539"><ele>338.581604</ele><time>2021-07-17T13:38:55Z</time><extensions><speed>0.000000</speed><course>274.056000</course><hAcc>0.916985</hAcc><vAcc>0.747822</vAcc></extensions></trkpt>
      <trkpt lon="-4.158459" lat="53.024539"><ele>338.581604</ele><time>2021-07-17T13:38:56Z</time><extensions><speed>0.000000</speed><course>273.580658</course><hAcc>0.916506</hAcc><vAcc>0.746801</vAcc></extensions></trkpt>
      <trkpt lon="-4.158459" lat="53.024539"><ele>338.581604</ele><time>2021-07-17T13:38:57Z</time><extensions><speed>0.000000</speed><course>266.285736</course><hAcc>0.915735</hAcc><vAcc>0.745344</vAcc></extensions></trkpt>
      <trkpt lon="-4.158459" lat="53.024539"><ele>338.581604</ele><time>2021-07-17T13:38:58Z</time><extensions><speed>0.000000</speed><course>280.416809</course><hAcc>0.914696</hAcc><vAcc>0.743712</vAcc></extensions></trkpt>
      <trkpt lon="-4.158459" lat="53.024539"><ele>338.581604</ele><time>2021-07-17T13:38:59Z</time><extensions><speed>0.000000</speed><course>289.633057</course><hAcc>0.913675</hAcc><vAcc>0.742468</vAcc></extensions></trkpt>
      <trkpt lon="-4.158459" lat="53.024539"><ele>338.581604</ele><time>2021-07-17T13:39:00Z</time><extensions><speed>0.000000</speed><course>274.042023</course><hAcc>0.913492</hAcc><vAcc>0.742672</vAcc></extensions></trkpt>
      <trkpt lon="-4.158459" lat="53.024539"><ele>338.581604</ele><time>2021-07-17T13:39:01Z</time><extensions><speed>0.000000</speed><course>259.398621</course><hAcc>0.915863</hAcc><vAcc>0.746126</vAcc></extensions></trkpt>
      <trkpt lon="-4.158459" lat="53.024539"><ele>338.581604</ele><time>2021-07-17T13:39:02Z</time><extensions><speed>0.000000</speed><course>235.228027</course><hAcc>0.923846</hAcc><vAcc>0.755616</vAcc></extensions></trkpt>
      <trkpt lon="-4.158459" lat="53.024539"><ele>338.581604</ele><time>2021-07-17T13:39:03Z</time><extensions><speed>0.000000</speed><course>233.943741</course><hAcc>0.942240</hAcc><vAcc>0.775032</vAcc></extensions></trkpt>
      <trkpt lon="-4.158459" lat="53.024539"><ele>338.581604</ele><time>2021-07-17T13:39:04Z</time><extensions><speed>0.000000</speed><course>251.986771</course><hAcc>0.977713</hAcc><vAcc>0.809220</vAcc></extensions></trkpt>
      <trkpt lon="-4.158459" lat="53.024539"><ele>338.581604</ele><time>2021-07-17T13:39:05Z</time><extensions><speed>0.000000</speed><course>207.637573</course><hAcc>0.939628</hAcc><vAcc>0.773893</vAcc></extensions></trkpt>
      <trkpt lon="-4.158459" lat="53.024539"><ele>338.581604</ele><time>2021-07-17T13:39:06Z</time><extensions><speed>0.000000</speed><course>199.781464</course><hAcc>0.920329</hAcc><vAcc>0.752973</vAcc></extensions></trkpt>
      <trkpt lon="-4.158459" lat="53.024539"><ele>338.581604</ele><time>2021-07-17T13:39:07Z</time><extensions><speed>0.000000</speed><course>204.898392</course><hAcc>0.912626</hAcc><vAcc>0.743028</vAcc></extensions></trkpt>
      <trkpt lon="-4.158459" lat="53.024539"><ele>338.581604</ele><time>2021-07-17T13:39:08Z</time><extensions><speed>0.000000</speed><course>218.988647</course><hAcc>0.911039</hAcc><vAcc>0.739725</vAcc></extensions></trkpt>
      <trkpt lon="-4.158459" lat="53.024539"><ele>338.581604</ele><time>2021-07-17T13:39:09Z</time><extensions><speed>0.000000</speed><course>240.875916</course><hAcc>0.912083</hAcc><vAcc>0.739946</vAcc></extensions></trkpt>
      <trkpt lon="-4.158459" lat="53.024539"><ele>338.581604</ele><time>2021-07-17T13:39:10Z</time><extensions><speed>0.000000</speed><course>240.875916</course><hAcc>0.913816</hAcc><vAcc>0.741674</vAcc></extensions></trkpt>
      <trkpt lon="-4.158459" lat="53.024539"><ele>338.581604</ele><time>2021-07-17T13:39:11Z</time><extensions><speed>0.000000</speed><course>240.875916</course><hAcc>0.915334</hAcc><vAcc>0.743737</vAcc></extensions></trkpt>
      <trkpt lon="-4.158459" lat="53.024539"><ele>338.581604</ele><time>2021-07-17T13:39:12Z</time><extensions><speed>0.000000</speed><course>240.875916</course><hAcc>0.916351</hAcc><vAcc>0.745533</vAcc></extensions></trkpt>
      <trkpt lon="-4.158459" lat="53.024539"><ele>338.581604</ele><time>2021-07-17T13:39:13Z</time><extensions><speed>0.000000</speed><course>240.875916</course><hAcc>0.916888</hAcc><vAcc>0.746813</vAcc></extensions></trkpt>
      <trkpt lon="-4.158459" lat="53.024539"><ele>338.581604</ele><time>2021-07-17T13:39:14Z</time><extensions><speed>0.000000</speed><course>240.875916</course><hAcc>0.917076</hAcc><vAcc>0.747506</vAcc></extensions></trkpt>
      <trkpt lon="-4.158459" lat="53.024539"><ele>338.581604</ele><time>2021-07-17T13:39:15Z</time><extensions><speed>0.000000</speed><course>269.430084</course><hAcc>0.917028</hAcc><vAcc>0.747618</vAcc></extensions></trkpt>
      <trkpt lon="-4.158459" lat="53.024539"><ele>338.581604</ele><time>2021-07-17T13:39:16Z</time><extensions><speed>0.000000</speed><course>274.056000</course><hAcc>0.916788</hAcc><vAcc>0.747174</vAcc></extensions></trkpt>
      <trkpt lon="-4.158459" lat="53.024539"><ele>338.581604</ele><time>2021-07-17T13:39:17Z</time><extensions><speed>0.000000</speed><course>273.580658</course><hAcc>0.916323</hAcc><vAcc>0.746213</vAcc></extensions></trkpt>
      <trkpt lon="-4.158459" lat="53.024539"><ele>338.581604</ele><time>2021-07-17T13:39:18Z</time><extensions><speed>0.000000</speed><course>266.285736</course><hAcc>0.915575</hAcc><vAcc>0.744839</vAcc></extensions></trkpt>
      <trkpt lon="-4.158459" lat="53.024539"><ele>338.581604</ele><time>2021-07-17T13:39:19Z</time><extensions><speed>0.000000</speed><course>280.416809</course><hAcc>0.914570</hAcc><vAcc>0.743311</vAcc></extensions></trkpt>
      <trkpt lon="-4.158459" lat="53.024539"><ele>338.581604</ele><time>2021-07-17T13:39:20Z</time><extensions><speed>0.000000</speed><course>289.633057</course><hAcc>0.913597</hAcc><vAcc>0.742194</vAcc></extensions></trkpt>
      <trkpt lon="-4.158459" lat="53.024539"><ele>338.581604</ele><time>2021-07-17T13:39:21Z</time><extensions><speed>0.000000</speed><course>274.042023</course><hAcc>0.913477</hAcc><vAcc>0.742557</vAcc></extensions></trkpt>
      <trkpt lon="-4.158459" lat="53.024539"><ele>338.581604</ele><time>2021-07-17T13:39:22Z</time><extensions><speed>0.000000</speed><course>259.398621</course><hAcc>0.915930</hAcc><vAcc>0.746219</vAcc></extensions></trkpt>
      <trkpt lon="-4.158459" lat="53.024539"><ele>338.581604</ele><time>2021-07-17T13:39:23Z</time><extensions><speed>0.000000</speed><course>235.228027</course><hAcc>0.924015</hAcc><vAcc>0.755976</vAcc></extensions></trkpt>
      <trkpt lon="-4.158459" lat="53.024539"><ele>338.581604</ele><time>2021-07-17T13:39:24Z</time><extensions><speed>0.000000</speed><course>233.943741</course><hAcc>0.942532</hAcc><vAcc>0.775728</vAcc></extensions></trkpt>
      <trkpt lon="-4.158459" lat="53.024539"><ele>338.581604</ele><time>2021-07-17T13:39:25Z</time><extensions><speed>0.000000</speed><course>251.986771</course><hAcc>0.978141</hAcc><vAcc>0.810317</vAcc></extensions></trkpt>
      <trkpt lon="-4.158459" lat="53.024539"><ele>338.581604</ele><time>2021-07-17T13:39:26Z</time><extensions><speed>0.000000</speed><course>207.637573</course><hAcc>0.939786</hAcc><vAcc>0.774431</vAcc></extensions></trkpt>
      <trkpt lon="-4.158459" lat="53.024539"><ele>338.581604</ele><time>2021-07-17T13:39:27Z</time><extensions><speed>0.000000</speed><course>199.781464</course><hAcc>0.920515</hAcc><vAcc>0.753650</vAcc></extensions></trkpt>
      <trkpt lon="-4.158459" lat="53.024539"><ele>338.581604</ele><time>2021-07-17T13:39:28Z</time><extensions><speed>0.000000</speed><course>204.898392</course><hAcc>0.912831</hAcc><vAcc>0.743801</vAcc></extensions></trkpt>
      <trkpt lon="-4.158459" lat="53.024539"><ele>338.581604</ele><time>2021-07-17T13:39:29Z</time><extensions><speed>0.000000</speed><course>218.988647</course><hAcc>0.911255</hAcc><vAcc>0.740546</vAcc></extensions></trkpt>
      <trkpt lon="-4.158459" lat="53.024539"><ele>338.581604</ele><time>2021-07-17T13:39:30Z</time><extensions><speed>0.000000</speed><course>240.875916</course><hAcc>0.912303</hAcc><vAcc>0.740769</vAcc></extensions></trkpt>
      <trkpt lon="-4.158459" lat="53.024539"><ele>338.581604</ele><time>2021-07-17T13:39:31Z</time><extensions><speed>0.000000</speed><course>240.875916</course><hAcc>0.914034</hAcc><vAcc>0.742461</vAcc></extensions></trkpt>
      <trkpt lon="-4.158459" lat="53.024539"><ele>338.581604</ele><time>2021-07-17T13:39:32Z</time><extensions><speed>0.000000</speed><course>240.875916</course><hAcc>0.915545</hAcc><vAcc>0.744460</vAcc></extensions></trkpt>
      <trkpt lon="-4.158459" lat="53.024539"><ele>338.581604</ele><time>2021-07-17T13:39:33Z</time><extensions><speed>0.000000</speed><course>240.875916</course><hAcc>0.916551</hAcc><vAcc>0.746181</vAcc></extensions></trkpt>
      <trkpt lon="-4.158459" lat="53.024539"><ele>338.581604</ele><time>2021-07-17T13:39:34Z</time><extensions><speed>0.000000</speed><course>240.875916</course><hAcc>0.917076</hAcc><vAcc>0.747383</vAcc></extensions></trkpt>
      <trkpt lon="-4.158459" lat="53.024539"><ele>338.581604</ele><time>2021-07-17T13:39:35Z</time><extensions><speed>0.000000</speed><course>240.875916</course><hAcc>0.917250</hAcc><vAcc>0.748002</vAcc></extensions></trkpt>
      <trkpt lon="-4.158459" lat="53.024539"><ele>338.581604</ele><time>2021-07-17T13:39:36Z</time><extensions><speed>0.000000</speed><course>269.430084</course><hAcc>0.917190</hAcc><vAcc>0.748051</vAcc></extensions></trkpt>
      <trkpt lon="-4.158459" lat="53.024539"><ele>338.581604</ele><time>2021-07-17T13:39:37Z</time><extensions><speed>0.000000</speed><course>274.056000</course><hAcc>0.916940</hAcc><vAcc>0.747558</vAcc></extensions></trkpt>
      <trkpt lon="-4.158459" lat="53.024539"><ele>338.581604</ele><time>2021-07-17T13:39:38Z</time><extensions><speed>0.000000</speed><course>273.580658</course><hAcc>0.916468</hAcc><vAcc>0.746571</vAcc></extensions></trkpt>
      <trkpt lon="-4.158459" lat="53.024539"><ele>338.581604</ele><time>2021-07-17T13:39:39Z</time><extensions><speed>0.000000</speed><course>266.285736</course><hAcc>0.915716</hAcc><vAcc>0.745194</vAcc></extensions></trkpt>
      <trkpt lon="-4.158459" lat="53.024539"><ele>338.581604</ele><time>2021-07-17T13:39:40Z</time><extensions><speed>0.000000</speed><course>280.416809</course><hAcc>0.914709</hAcc><vAcc>0.743685</vAcc></extensions></trkpt>
      <trkpt lon="-4.158459" lat="53.024539"><ele>338.581604</ele><time>2021-07-17T13:39:41Z</time><extensions><speed>0.000000</speed><course>289.633057</course><hAcc>0.913733</hAcc><vAcc>0.742603</vAcc></extensions></trkpt>
      <trkpt lon="-4.158459" lat="53.024539"><ele>338.581604</ele><time>2021-07-17T13:39:42Z</time><extensions><speed>0.000000</speed><course>274.042023</course><hAcc>0.913609</hAcc><vAcc>0.743004</vAcc></extensions></trkpt>
      <trkpt lon="-4.158459" lat="53.024539"><ele>338.581604</ele><time>2021-07-17T13:39:43Z</time><extensions><speed>0.000000</speed><course>259.398621</course><hAcc>0.916053</hAcc><vAcc>0.746687</vAcc></extensions></trkpt>
      <trkpt lon="-4.158459" lat="53.024539"><ele>338.581604</ele><time>2021-07-17T13:39:44Z</time><extensions><speed>0.000000</speed><course>235.228027</course><hAcc>0.924122</hAcc><vAcc>0.756428</vAcc></extensions></trkpt>
      <trkpt lon="-4.158459" lat="53.024539"><ele>338.581604</ele><time>2021-07-17T13:39:45Z</time><extensions><speed>0.000000</speed><course>233.943741</course><hAcc>0.942613</hAcc><vAcc>0.776108</vAcc></extensions></trkpt>
      <trkpt lon="-4.158459" lat="53.024539"><ele>338.581604</ele><time>2021-07-17T13:39:46Z</time><extensions><speed>0.000000</speed><course>251.986771</course><hAcc>0.978185</hAcc><vAcc>0.810560</vAcc></extensions></trkpt>
      <trkpt lon="-4.158459" lat="53.024539"><ele>338.581604</ele><time>2021-07-17T13:39:47Z</time><extensions><speed>0.000000</speed><course>207.637573</course><hAcc>0.940053</hAcc><vAcc>0.775147</vAcc></extensions></trkpt>
      <trkpt lon="-4.158459" lat="53.024539"><ele>338.581604</ele><time>2021-07-17T13:39:48Z</time><extensions><speed>0.000000</speed><course>199.781464</course><hAcc>0.920745</hAcc><vAcc>0.754237</vAcc></extensions></trkpt>
      <trkpt lon="-4.158459" lat="53.024539"><ele>338.581604</ele><time>2021-07-17T13:39:49Z</time><extensions><speed>0.000000</speed><course>204.898392</course><hAcc>0.913031</hAcc><vAcc>0.744294</vAcc></extensions></trkpt>
      <trkpt lon="-4.158459" lat="53.024539"><ele>338.581604</ele><time>2021-07-17T13:39:50Z</time><extensions><speed>0.000000</speed><course>218.988647</course><hAcc>0.911433</hAcc><vAcc>0.740987</vAcc></extensions></trkpt>
      <trkpt lon="-4.158459" lat="53.024539"><ele>338.581604</ele><time>2021-07-17T13:39:51Z</time><extensions><speed>0.000000</speed><course>240.875916</course><hAcc>0.912467</hAcc><vAcc>0.741199</vAcc></extensions></trkpt>
      <trkpt lon="-4.158459" lat="53.024539"><ele>338.581604</ele><time>2021-07-17T13:39:52Z</time><extensions><speed>0.000000</speed><course>240.875916</course><hAcc>0.914189</hAcc><vAcc>0.742907</vAcc></extensions></trkpt>
      <trkpt lon="-4.158459" lat="53.024539"><ele>338.581604</ele><time>2021-07-17T13:39:53Z</time><extensions><speed>0.000000</speed><course>240.875916</course><hAcc>0.915694</hAcc><vAcc>0.744936</vAcc></extensions></trkpt>
      <trkpt lon="-4.158459" lat="53.024539"><ele>338.581604</ele><time>2021-07-17T13:39:54Z</time><extensions><speed>0.000000</speed><course>240.875916</course><hAcc>0.916694</hAcc><vAcc>0.746681</vAcc></extensions></trkpt>
      <trkpt lon="-4.158459" lat="53.024539"><ele>338.581604</ele><time>2021-07-17T13:39:55Z</time><extensions><speed>0.000000</speed><course>240.875916</course><hAcc>0.917212</hAcc><vAcc>0.747889</vAcc></extensions></trkpt>
      <trkpt lon="-4.158459" lat="53.024539"><ele>338.581604</ele><time>2021-07-17T13:39:56Z</time><extensions><speed>0.000000</speed><course>240.875916</course><hAcc>0.917378</hAcc><vAcc>0.748491</vAcc></extensions></trkpt>
      <trkpt lon="-4.158459" lat="53.024539"><ele>338.581604</ele><time>2021-07-17T13:39:57Z</time><extensions><speed>0.000000</speed><course>269.430084</course><hAcc>0.917306</hAcc><vAcc>0.748493</vAcc></extensions></trkpt>
      <trkpt lon="-4.158459" lat="53.024539"><ele>338.581604</ele><time>2021-07-17T13:39:58Z</time><extensions><speed>0.000000</speed><course>274.056000</course><hAcc>0.917041</hAcc><vAcc>0.747929</vAcc></extensions></trkpt>
      <trkpt lon="-4.158459" lat="53.024539"><ele>338.581604</ele><time>2021-07-17T13:39:59Z</time><extensions><speed>0.000000</speed><course>273.580658</course><hAcc>0.916551</hAcc><vAcc>0.746852</vAcc></extensions></trkpt>
      <trkpt lon="-4.158459" lat="53.024539"><ele>338.581604</ele><time>2021-07-17T13:40:00Z</time><extensions><speed>0.000000</speed><course>266.285736</course><hAcc>0.915782</hAcc><vAcc>0.745380</vAcc></extensions></trkpt>
      <trkpt lon="-4.158459" lat="53.024539"><ele>338.581604</ele><time>2021-07-17T13:40:01Z</time><extensions><speed>0.000000</speed><course>280.416809</course><hAcc>0.914760</hAcc><vAcc>0.743785</vAcc></extensions></trkpt>
      <trkpt lon="-4.158459" lat="53.024539"><ele>338.581604</ele><time>2021-07-17T13:40:02Z</time><extensions><speed>0.000000</speed><course>289.633057</course><hAcc>0.913777</hAcc><vAcc>0.742640</vAcc></extensions></trkpt>
      <trkpt lon="-4.158459" lat="53.024539"><ele>338.581604</ele><time>2021-07-17T13:40:03Z</time><extensions><speed>0.000000</speed><course>274.042023</course><hAcc>0.913654</hAcc><vAcc>0.743016</vAcc></extensions></trkpt>
      <trkpt lon="-4.158459" lat="53.024539"><ele>338.581604</ele><time>2021-07-17T13:40:04Z</time><extensions><speed>0.000000</speed><course>259.398621</course><hAcc>0.916114</hAcc><vAcc>0.746724</vAcc></extensions></trkpt>
      <trkpt lon="-4.158459" lat="53.024539"><ele>338.581604</ele><time>2021-07-17T13:40:05Z</time><extensions><speed>0.000000</speed><course>235.228027</course><hAcc>0.924215</hAcc><vAcc>0.756553</vAcc></extensions></trkpt>
      <trkpt lon="-4.158459" lat="53.024539"><ele>338.581604</ele><time>2021-07-17T13:40:06Z</time><extensions><speed>0.000000</speed><course>233.943741</course><hAcc>0.942758</hAcc><vAcc>0.776388</vAcc></extensions></trkpt>
      <trkpt lon="-4.158459" lat="53.024539"><ele>338.581604</ele><time>2021-07-17T13:40:07Z</time><extensions><speed>0.000000</speed><course>251.986771</course><hAcc>0.978398</hAcc><vAcc>0.811060</vAcc></extensions></trkpt>
      <trkpt lon="-4.158459" lat="53.024539"><ele>338.581604</ele><time>2021-07-17T13:40:08Z</time><extensions><speed>0.000000</speed><course>207.637573</course><hAcc>0.940052</hAcc><vAcc>0.775211</vAcc></extensions></trkpt>
      <trkpt lon="-4.158459" lat="53.024539"><ele>338.581604</ele><time>2021-07-17T13:40:09Z</time><extensions><speed>0.000000</speed><course>199.781464</course><hAcc>0.920766</hAcc><vAcc>0.754395</vAcc></extensions></trkpt>
      <trkpt lon="-4.158459" lat="53.024539"><ele>338.581604</ele><time>2021-07-17T13:40:10Z</time><extensions><speed>0.000000</speed><course>204.898392</course><hAcc>0.913065</hAcc><vAcc>0.744513</vAcc></extensions></trkpt>
      <trkpt lon="-4.158459" lat="53.024539"><ele>338.581604</ele><time>2021-07-17T13:40:11Z</time><extensions><speed>0.000000</speed><course>218.988647</course><hAcc>0.911473</hAcc><vAcc>0.741230</vAcc></extensions></trkpt>
      <trkpt lon="-4.158459" lat="53.024539"><ele>338.581604</ele><time>2021-07-17T13:40:12Z</time><extensions><speed>0.000000</speed><course>240.875916</course><hAcc>0.912505</hAcc><vAcc>0.741426</vAcc></extensions></trkpt>
      <trkpt lon="-4.158459" lat="53.024539"><ele>338.581604</ele><time>2021-07-17T13:40:13Z</time><extensions><speed>0.000000</speed><course>240.875916</course><hAcc>0.914219</hAcc><vAcc>0.743088</vAcc></extensions></trkpt>
      <trkpt lon="-4.158459" lat="53.024539"><ele>338.581604</ele><time>2021-07-17T13:40:14Z</time><extensions><speed>0.000000</speed><course>240.875916</course><hAcc>0.915712</hAcc><vAcc>0.745048</vAcc></extensions></trkpt>
      <trkpt lon="-4.158459" lat="53.024539"><ele>338.581604</ele><time>2021-07-17T13:40:15Z</time><extensions><speed>0.000000</speed><course>240.875916</course><hAcc>0.916696</hAcc><vAcc>0.746709</vAcc></extensions></trkpt>
      <trkpt lon="-4.158459" lat="53.024539"><ele>338.581604</ele><time>2021-07-17T13:40:16Z</time><extensions><speed>0.000000</speed><course>240.875916</course><hAcc>0.917194</hAcc><vAcc>0.747828</vAcc></extensions></trkpt>
      <trkpt lon="-4.158459" lat="53.024539"><ele>338.581604</ele><time>2021-07-17T13:40:17Z</time><extensions><speed>0.000000</speed><course>240.875916</course><hAcc>0.917337</hAcc><vAcc>0.748341</vAcc></extensions></trkpt>
      <trkpt lon="-4.158459" lat="53.024539"><ele>338.581604</ele><time>2021-07-17T13:40:18Z</time><extensions><speed>0.000000</speed><course>269.430084</course><hAcc>0.917239</hAcc><vAcc>0.748259</vAcc></extensions></trkpt>
      <trkpt lon="-4.158459" lat="53.024539"><ele>338.581604</ele><time>2021-07-17T13:40:19Z</time><extensions><speed>0.000000</speed><course>274.056000</course><hAcc>0.916944</hAcc><vAcc>0.747612</vAcc></extensions></trkpt>
      <trkpt lon="-4.158459" lat="53.024539"><ele>338.581604</ele><time>2021-07-17T13:40:20Z</time><extensions><speed>0.000000</speed><course>273.580658</course><hAcc>0.916419</hAcc><vAcc>0.746448</vAcc></extensions></trkpt>
      <trkpt lon="-4.158459" lat="53.024539"><ele>338.581604</ele><time>2021-07-17T13:40:21Z</time><extensions><speed>0.000000</speed><course>266.285736</course><hAcc>0.915607</hAcc><vAcc>0.744871</vAcc></extensions></trkpt>
      <trkpt lon="-4.158459" lat="53.024539"><ele>338.581604</ele><time>2021-07-17T13:40:22Z</time><extensions><speed>0.000000</speed><course>280.416809</course><hAcc>0.914533</hAcc><vAcc>0.743138</vAcc></extensions></trkpt>
      <trkpt lon="-4.158459" lat="53.024539"><ele>338.581604</ele><time>2021-07-17T13:40:23Z</time><extensions><speed>0.000000</speed><course>289.633057</course><hAcc>0.913482</hAcc><vAcc>0.741805</vAcc></extensions></trkpt>
      <trkpt lon="-4.158459" lat="53.024539"><ele>338.581604</ele><time>2021-07-17T13:40:24Z</time><extensions><speed>0.000000</speed><course>274.042023</course><hAcc>0.913275</hAcc><vAcc>0.741934</vAcc></extensions></trkpt>
      <trkpt lon="-4.158459" lat="53.024539"><ele>338.581604</ele><time>2021-07-17T13:40:25Z</time><extensions><speed>0.000000</speed><course>259.398621</course><hAcc>0.915627</hAcc><vAcc>0.745332</vAcc></extensions></trkpt>
      <trkpt lon="-4.158459" lat="53.024539"><ele>338.581604</ele><time>2021-07-17T13:40:26Z</time><extensions><speed>0.000000</speed><course>235.228027</course><hAcc>0.923597</hAcc><vAcc>0.754792</vAcc></extensions></trkpt>
      <trkpt lon="-4.158459" lat="53.024539"><ele>338.581604</ele><time>2021-07-17T13:40:27Z</time><extensions><speed>0.000000</speed><course>233.943741</course><hAcc>0.941987</hAcc><vAcc>0.774214</vAcc></extensions></trkpt>
      <trkpt lon="-4.158459" lat="53.024539"><ele>338.581604</ele><time>2021-07-17T13:40:28Z</time><extensions><speed>0.000000</speed><course>251.986771</course><hAcc>0.977464</hAcc><vAcc>0.808449</vAcc></extensions></trkpt>
      <trkpt lon="-4.158459" lat="53.024539"><ele>338.581604</ele><time>2021-07-17T13:40:29Z</time><extensions><speed>0.000000</speed><course>207.637573</course><hAcc>0.939354</hAcc><vAcc>0.773119</vAcc></extensions></trkpt>
      <trkpt lon="-4.158459" lat="53.024539"><ele>338.581604</ele><time>2021-07-17T13:40:30Z</time><extensions><speed>0.000000</speed><course>199.781464</course><hAcc>0.920147</hAcc><vAcc>0.752475</vAcc></extensions></trkpt>
      <trkpt lon="-4.158459" lat="53.024539"><ele>338.581604</ele><time>2021-07-17T13:40:31Z</time><extensions><speed>0.000000</speed><course>204.898392</course><hAcc>0.912527</hAcc><vAcc>0.742791</vAcc></extensions></trkpt>
      <trkpt lon="-4.158459" lat="53.024539"><ele>338.581604</ele><time>2021-07-17T13:40:32Z</time><extensions><speed>0.000000</speed><course>218.988647</course><hAcc>0.911011</hAcc><vAcc>0.739718</vAcc></extensions></trkpt>
      <trkpt lon="-4.158459" lat="53.024539"><ele>338.581604</ele><time>2021-07-17T13:40:33Z</time><extensions><speed>0.000000</speed><course>240.875916</course><hAcc>0.912115</hAcc><vAcc>0.740132</vAcc></extensions></trkpt>
      <trkpt lon="-4.158459" lat="53.024539"><ele>338.581604</ele><time>2021-07-17T13:40:34Z</time><extensions><speed>0.000000</speed><course>240.875916</course><hAcc>0.913894</hAcc><vAcc>0.742012</vAcc></extensions></trkpt>
      <trkpt lon="-4.158459" lat="53.024539"><ele>338.581604</ele><time>2021-07-17T13:40:35Z</time><extensions><speed>0.000000</speed><course>240.875916</course><hAcc>0.915447</hAcc><vAcc>0.744184</vAcc></extensions></trkpt>
      <trkpt lon="-4.158459" lat="53.024539"><ele>338.581604</ele><time>2021-07-17T13:40:36Z</time><extensions><speed>0.000000</speed><course>240.875916</course><hAcc>0.916487</hAcc><vAcc>0.746051</vAcc></extensions></trkpt>
      <trkpt lon="-4.158459" lat="53.024539"><ele>338.581604</ele><time>2021-07-17T13:40:37Z</time><extensions><speed>0.000000</speed><course>240.875916</course><hAcc>0.917038</hAcc><vAcc>0.747363</vAcc></extensions></trkpt>
      <trkpt lon="-4.158459" lat="53.024539"><ele>338.581604</ele><time>2021-07-17T13:40:38Z</time><extensions><speed>0.000000</speed><course>240.875916</course><hAcc>0.917230</hAcc><vAcc>0.748054</vAcc></extensions></trkpt>
      <trkpt lon="-4.158459" lat="53.024539"><ele>338.581604</ele><time>2021-07-17T13:40:39Z</time><extensions><speed>0.000000</speed><course>269.430084</course><hAcc>0.917181</hAcc><vAcc>0.748135</vAcc></extensions></trkpt>
      <trkpt lon="-4.158459" lat="53.024539"><ele>338.581604</ele><time>2021-07-17T13:40:40Z</time><extensions><speed>0.000000</speed><course>274.056000</course><hAcc>0.916933</hAcc><vAcc>0.747636</vAcc></extensions></trkpt>
      <trkpt lon="-4.158459" lat="53.024539"><ele>338.581604</ele><time>2021-07-17T13:40:41Z</time><extensions><speed>0.000000</speed><course>273.580658</course><hAcc>0.916456</hAcc><vAcc>0.746610</vAcc></extensions></trkpt>
      <trkpt lon="-4.158459" lat="53.024539"><ele>338.581604</ele><time>2021-07-17T13:40:42Z</time><extensions><speed>0.000000</speed><course>266.285736</course><hAcc>0.915693</hAcc><vAcc>0.745166</vAcc></extensions></trkpt>
      <trkpt lon="-4.158459" lat="53.024539"><ele>338.581604</ele><time>2021-07-17T13:40:43Z</time><extensions><speed>0.000000</speed><course>280.416809</course><hAcc>0.914671</hAcc><vAcc>0.743572</vAcc></extensions></trkpt>
      <trkpt lon="-4.158459" lat="53.024539"><ele>338.581604</ele><time>2021-07-17T13:40:44Z</time><extensions><speed>0.000000</speed><course>289.633057</course><hAcc>0.913679</hAcc><vAcc>0.742397</vAcc></extensions></trkpt>
      <trkpt lon="-4.158459" lat="53.024539"><ele>338.581604</ele><time>2021-07-17T13:40:45Z</time><extensions><speed>0.000000</speed><course>274.042023</course><hAcc>0.913539</hAcc><vAcc>0.742710</vAcc></extensions></trkpt>
      <trkpt lon="-4.158459" lat="53.024539"><ele>338.581604</ele><time>2021-07-17T13:40:46Z</time><extensions><speed>0.000000</speed><course>259.398621</course><hAcc>0.915970</hAcc><vAcc>0.746326</vAcc></extensions></trkpt>
      <trkpt lon="-4.158459" lat="53.024539"><ele>338.581604</ele><time>2021-07-17T13:40:47Z</time><extensions><speed>0.000000</speed><course>235.228027</course><hAcc>0.924029</hAcc><vAcc>0.756036</vAcc></extensions></trkpt>
      <trkpt lon="-4.158459" lat="53.024539"><ele>338.581604</ele><time>2021-07-17T13:40:48Z</time><extensions><speed>0.000000</speed><course>233.943741</course><hAcc>0.942518</hAcc><vAcc>0.775730</vAcc></extensions></trkpt>
      <trkpt lon="-4.158459" lat="53.024539"><ele>338.581604</ele><time>2021-07-17T13:40:49Z</time><extensions><speed>0.000000</speed><course>251.986771</course><hAcc>0.978096</hAcc><vAcc>0.810240</vAcc></extensions></trkpt>
      <trkpt lon="-4.158458" lat="53.024539"><ele>338.587708</ele><time>2021-07-17T13:40:50Z</time><extensions><speed>0.009679</speed><course>207.637573</course><hAcc>0.939265</hAcc><vAcc>0.773670</vAcc></extensions></trkpt>
      <trkpt lon="-4.158458" lat="53.024539"><ele>338.590027</ele><time>2021-07-17T13:40:51Z</time><extensions><speed>0.010613</speed><course>199.781464</course><hAcc>0.919595</hAcc><vAcc>0.752326</vAcc></extensions></trkpt>
      <trkpt lon="-4.158459" lat="53.024539"><ele>338.592560</ele><time>2021-07-17T13:40:52Z</time><extensions><speed>0.011812</speed><course>204.898392</course><hAcc>0.911335</hAcc><vAcc>0.741709</vAcc></extensions></trkpt>
      <trkpt lon="-4.158459" lat="53.024539"><ele>338.595215</ele><time>2021-07-17T13:40:53Z</time><extensions><speed>0.013284</speed><course>218.988647</course><hAcc>0.908985</hAcc><vAcc>0.737485</vAcc></extensions></trkpt>
      <trkpt lon="-4.158459" lat="53.024539"><ele>338.598083</ele><time>2021-07-17T13:40:54Z</time><extensions><speed>0.015021</speed><course>240.875916</course><hAcc>0.909036</hAcc><vAcc>0.736542</vAcc></extensions></trkpt>
      <trkpt lon="-4.158459" lat="53.024539"><ele>338.601044</ele><time>2021-07-17T13:40:55Z</time><extensions><speed>0.016992</speed><course>240.875916</course><hAcc>0.909522</hAcc><vAcc>0.736880</vAcc></extensions></trkpt>
      <trkpt lon="-4.158459" lat="53.024539"><ele>338.604034</ele><time>2021-07-17T13:40:56Z</time><extensions><speed>0.019140</speed><course>240.875916</course><hAcc>0.909528</hAcc><vAcc>0.737360</vAcc></extensions></trkpt>
      <trkpt lon="-4.158459" lat="53.024539"><ele>338.606964</ele><time>2021-07-17T13:40:57Z</time><extensions><speed>0.021381</speed><course>240.875916</course><hAcc>0.908774</hAcc><vAcc>0.737434</vAcc></extensions></trkpt>
      <trkpt lon="-4.158459" lat="53.024538"><ele>338.609680</ele><time>2021-07-17T13:40:58Z</time><extensions><speed>0.023600</speed><course>240.875916</course><hAcc>0.907321</hAcc><vAcc>0.736932</vAcc></extensions></trkpt>
      <trkpt lon="-4.158460" lat="53.024538"><ele>338.611938</ele><time>2021-07-17T13:40:59Z</time><extensions><speed>0.025650</speed><course>240.875916</course><hAcc>0.905380</hAcc><vAcc>0.735894</vAcc></extensions></trkpt>
      <trkpt lon="-4.158460" lat="53.024538"><ele>338.613525</ele><time>2021-07-17T13:41:00Z</time><extensions><speed>0.027357</speed><course>269.430084</course><hAcc>0.903196</hAcc><vAcc>0.734460</vAcc></extensions></trkpt>
      <trkpt lon="-4.158460" lat="53.024538"><ele>338.614044</ele><time>2021-07-17T13:41:01Z</time><extensions><speed>0.028527</speed><course>274.056000</course><hAcc>0.900986</hAcc><vAcc>0.732799</vAcc></extensions></trkpt>
      <trkpt lon="-4.158461" lat="53.024538"><ele>338.613098</ele><time>2021-07-17T13:41:02Z</time><extensions><speed>0.028975</speed><course>273.580658</course><hAcc>0.898911</hAcc><vAcc>0.731073</vAcc></extensions></trkpt>
      <trkpt lon="-4.158461" lat="53.024538"><ele>338.610199</ele><time>2021-07-17T13:41:03Z</time><extensions><speed>0.028600</speed><course>266.285736</course><hAcc>0.897075</hAcc><vAcc>0.729412</vAcc></extensions></trkpt>
      <trkpt lon="-4.158462" lat="53.024538"><ele>338.604797</ele><time>2021-07-17T13:41:04Z</time><extensions><speed>0.027568</speed><course>280.416809</course><hAcc>0.895528</hAcc><vAcc>0.727908</vAcc></extensions></trkpt>
      <trkpt lon="-4.158462" lat="53.024538"><ele>338.596252</ele><time>2021-07-17T13:41:05Z</time><extensions><speed>0.026725</speed><course>289.633057</course><hAcc>0.894281</hAcc><vAcc>0.726617</vAcc></extensions></trkpt>
      <trkpt lon="-4.158462" lat="53.024538"><ele>338.583832</ele><time>2021-07-17T13:41:06Z</time><extensions><speed>0.028193</speed><course>274.042023</course><hAcc>0.893314</hAcc><vAcc>0.725562</vAcc></extensions></trkpt>
      <trkpt lon="-4.158463" lat="53.024538"><ele>338.566772</ele><time>2021-07-17T13:41:07Z</time><extensions><speed>0.034933</speed><course>259.398621</course><hAcc>0.892594</hAcc><vAcc>0.724743</vAcc></extensions></trkpt>
      <trkpt lon="-4.158463" lat="53.024539"><ele>338.544250</ele><time>2021-07-17T13:41:08Z</time><extensions><speed>0.048601</speed><course>235.228027</course><hAcc>0.892080</hAcc><vAcc>0.724142</vAcc></extensions></trkpt>
      <trkpt lon="-4.158463" lat="53.024539"><ele>338.515442</ele><time>2021-07-17T13:41:09Z</time><extensions><speed>0.069291</speed><course>233.943741</course><hAcc>0.891727</hAcc><vAcc>0.723731</vAcc></extensions></trkpt>
      <trkpt lon="-4.158462" lat="53.024540"><ele>338.479523</ele><time>2021-07-17T13:41:10Z</time><extensions><speed>0.096884</speed><course>251.986771</course><hAcc>0.891497</hAcc><vAcc>0.723476</vAcc></extensions></trkpt>
      <trkpt lon="-4.158461" lat="53.024541"><ele>338.435791</ele><time>2021-07-17T13:41:11Z</time><extensions><speed>0.131454</speed><course>230.632401</course><hAcc>0.891354</hAcc><vAcc>0.723340</vAcc></extensions></trkpt>
      <trkpt lon="-4.158460" lat="53.024542"><ele>338.383636</ele><time>2021-07-17T13:41:12Z</time><extensions><speed>0.173128</speed><course>208.539734</course><hAcc>0.891270</hAcc><vAcc>0.723286</vAcc></extensions></trkpt>
      <trkpt lon="-4.158458" lat="53.024543"><ele>338.322632</ele><time>2021-07-17T13:41:13Z</time><extensions><speed>0.221904</speed><course>217.062653</course><hAcc>0.891222</hAcc><vAcc>0.723276</vAcc></extensions></trkpt>
      <trkpt lon="-4.158456" lat="53.024545"><ele>338.252747</ele><time>2021-07-17T13:41:14Z</time><extensions><speed>0.277498</speed><course>216.480164</course><hAcc>0.891193</hAcc><vAcc>0.723279</vAcc></extensions></trkpt>
      <trkpt lon="-4.158452" lat="53.024547"><ele>338.174286</ele><time>2021-07-17T13:41:15Z</time><extensions><speed>0.339192</speed><course>215.204285</course><hAcc>0.891170</hAcc><vAcc>0.723265</vAcc></extensions></trkpt>
      <trkpt lon="-4.158448" lat="53.024549"><ele>338.088165</ele><time>2021-07-17T13:41:16Z</time><extensions><speed>0.405687</speed><course>192.608246</course><hAcc>0.891146</hAcc><vAcc>0.723215</vAcc></extensions></trkpt>
      <trkpt lon="-4.158443" lat="53.024552"><ele>337.995941</ele><time>2021-07-17T13:41:17Z</time><extensions><speed>0.474942</speed><course>196.818375</course><hAcc>0.891114</hAcc><vAcc>0.723119</vAcc></extensions></trkpt>
      <trkpt lon="-4.158437" lat="53.024554"><ele>337.900146</ele><time>2021-07-17T13:41:18Z</time><extensions><speed>0.544005</speed><course>200.564194</course><hAcc>0.891072</hAcc><vAcc>0.722971</vAcc></extensions></trkpt>
      <trkpt lon="-4.158430" lat="53.024557"><ele>337.804260</ele><time>2021-07-17T13:41:19Z</time><extensions><speed>0.608837</speed><course>224.718231</course><hAcc>0.891019</hAcc><vAcc>0.722774</vAcc></extensions></trkpt>
      <trkpt lon="-4.158422" lat="53.024560"><ele>337.713135</ele><time>2021-07-17T13:41:20Z</time><extensions><speed>0.664144</speed><course>228.969803</course><hAcc>0.890954</hAcc><vAcc>0.722533</vAcc></extensions></trkpt>
      <trkpt lon="-4.158413" lat="53.024564"><ele>337.632141</ele><time>2021-07-17T13:41:21Z</time><extensions><speed>0.708133</speed><course>250.366501</course><hAcc>0.890878</hAcc><vAcc>0.722259</vAcc></extensions></trkpt>
      <trkpt lon="-4.158404" lat="53.024567"><ele>337.565765</ele><time>2021-07-17T13:41:22Z</time><extensions><speed>0.742590</speed><course>-1.000000</course><hAcc>0.890794</hAcc><vAcc>0.721962</vAcc></extensions></trkpt>
      <trkpt lon="-4.158394" lat="53.024570"><ele>337.517059</ele><time>2021-07-17T13:41:23Z</time><extensions><speed>0.768353</speed><course>232.063629</course><hAcc>0.890703</hAcc><vAcc>0.721654</vAcc></extensions></trkpt>
      <trkpt lon="-4.158384" lat="53.024573"><ele>337.487213</ele><time>2021-07-17T13:41:24Z</time><extensions><speed>0.786414</speed><course>232.063614</course><hAcc>0.890607</hAcc><vAcc>0.721343</vAcc></extensions></trkpt>
      <trkpt lon="-4.158373" lat="53.024577"><ele>337.476044</ele><time>2021-07-17T13:41:25Z</time><extensions><speed>0.798086</speed><course>232.063614</course><hAcc>0.890507</hAcc><vAcc>0.721031</vAcc></extensions></trkpt>
      <trkpt lon="-4.158363" lat="53.024580"><ele>337.482666</ele><time>2021-07-17T13:41:26Z</time><extensions><speed>0.804256</speed><course>232.063599</course><hAcc>0.890406</hAcc><vAcc>0.720717</vAcc></extensions></trkpt>
      <trkpt lon="-4.158352" lat="53.024583"><ele>337.505798</ele><time>2021-07-17T13:41:27Z</time><extensions><speed>0.805439</speed><course>232.063599</course><hAcc>0.890304</hAcc><vAcc>0.720402</vAcc></extensions></trkpt>
      <trkpt lon="-4.158341" lat="53.024586"><ele>337.544037</ele><time>2021-07-17T13:41:28Z</time><extensions><speed>0.801745</speed><course>232.063583</course><hAcc>0.890204</hAcc><vAcc>0.720086</vAcc></extensions></trkpt>
      <trkpt lon="-4.158330" lat="53.024589"><ele>337.595612</ele><time>2021-07-17T13:41:29Z</time><extensions><speed>0.793397</speed><course>232.063583</course><hAcc>0.890105</hAcc><vAcc>0.719772</vAcc></extensions></trkpt>
      <trkpt lon="-4.158320" lat="53.024593"><ele>337.658264</ele><time>2021-07-17T13:41:30Z</time><extensions><speed>0.781422</speed><course>248.555511</course><hAcc>0.890008</hAcc><vAcc>0.719461</vAcc></extensions></trkpt>
      <trkpt lon="-4.158310" lat="53.024596"><ele>337.729767</ele><time>2021-07-17T13:41:31Z</time><extensions><speed>0.767375</speed><course>214.727661</course><hAcc>0.889915</hAcc><vAcc>0.719155</vAcc></extensions></trkpt>
      <trkpt lon="-4.158300" lat="53.024599"><ele>337.808411</ele><time>2021-07-17T13:41:32Z</time><extensions><speed>0.752929</speed><course>215.656113</course><hAcc>0.889825</hAcc><vAcc>0.718857</vAcc></extensions></trkpt>
      <trkpt lon="-4.158290" lat="53.024602"><ele>337.892517</ele><time>2021-07-17T13:41:33Z</time><extensions><speed>0.739207</speed><course>205.637772</course><hAcc>0.889739</hAcc><vAcc>0.718572</vAcc></extensions></trkpt>
      <trkpt lon="-4.158280" lat="53.024605"><ele>337.980408</ele><time>2021-07-17T13:41:34Z</time><extensions><speed>0.727141</speed><course>201.575424</course><hAcc>0.889658</hAcc><vAcc>0.718304</vAcc></extensions></trkpt>
      <trkpt lon="-4.158271" lat="53.024608"><ele>338.070343</ele><time>2021-07-17T13:41:35Z</time><extensions><speed>0.717682</speed><course>196.854248</course><hAcc>0.889583</hAcc><vAcc>0.718058</vAcc></extensions></trkpt>
      <trkpt lon="-4.158261" lat="53.024611"><ele>338.160553</ele><time>2021-07-17T13:41:36Z</time><extensions><speed>0.711557</speed><course>198.264053</course><hAcc>0.889513</hAcc><vAcc>0.717836</vAcc></extensions></trkpt>
      <trkpt lon="-4.158252" lat="53.024614"><ele>338.249237</ele><time>2021-07-17T13:41:37Z</time><extensions><speed>0.709940</speed><course>198.636932</course><hAcc>0.889450</hAcc><vAcc>0.717639</vAcc></extensions></trkpt>
      <trkpt lon="-4.158242" lat="53.024617"><ele>338.334656</ele><time>2021-07-17T13:41:38Z</time><extensions><speed>0.713572</speed><course>192.727798</course><hAcc>0.889394</hAcc><vAcc>0.717464</vAcc></extensions></trkpt>
      <trkpt lon="-4.158232" lat="53.024619"><ele>338.415253</ele><time>2021-07-17T13:41:39Z</time><extensions><speed>0.722921</speed><course>184.691818</course><hAcc>0.889346</hAcc><vAcc>0.717309</vAcc></extensions></trkpt>
      <trkpt lon="-4.158222" lat="53.024621"><ele>338.489777</ele><time>2021-07-17T13:41:40Z</time><extensions><speed>0.738011</speed><course>177.917740</course><hAcc>0.889306</hAcc><vAcc>0.717175</vAcc></extensions></trkpt>
      <trkpt lon="-4.158211" lat="53.024623"><ele>338.557037</ele><time>2021-07-17T13:41:41Z</time><extensions><speed>0.757744</speed><course>169.935883</course><hAcc>0.889273</hAcc><vAcc>0.717071</vAcc></extensions></trkpt>
      <trkpt lon="-4.158200" lat="53.024625"><ele>338.615204</ele><time>2021-07-17T13:41:42Z</time><extensions><speed>0.780913</speed><course>168.290512</course><hAcc>0.889249</hAcc><vAcc>0.717000</vAcc></extensions></trkpt>
      <trkpt lon="-4.158188" lat="53.024626"><ele>338.661957</ele><time>2021-07-17T13:41:43Z</time><extensions><speed>0.806918</speed><course>175.847488</course><hAcc>0.889232</hAcc><vAcc>0.716958</vAcc></extensions></trkpt>
      <trkpt lon="-4.158176" lat="53.024627"><ele>338.694855</ele><time>2021-07-17T13:41:44Z</time><extensions><speed>0.835995</speed><course>182.489380</course><hAcc>0.889224</hAcc><vAcc>0.716938</vAcc></extensions></trkpt>
      <trkpt lon="-4.158164" lat="53.024628"><ele>338.712372</ele><time>2021-07-17T13:41:45Z</time><extensions><speed>0.868363</speed><course>193.224472</course><hAcc>0.889223</hAcc><vAcc>0.716933</vAcc></extensions></trkpt>
      <trkpt lon="-4.158151" lat="53.024629"><ele>338.715393</ele><time>2021-07-17T13:41:46Z</time><extensions><speed>0.903967</speed><course>210.457108</course><hAcc>0.889232</hAcc><vAcc>0.716945</vAcc></extensions></trkpt>
      <trkpt lon="-4.158137" lat="53.024629"><ele>338.706970</ele><time>2021-07-17T13:41:47Z</time><extensions><speed>0.941336</speed><course>227.054108</course><hAcc>0.889247</hAcc><vAcc>0.716979</vAcc></extensions></trkpt>
      <trkpt lon="-4.158123" lat="53.024630"><ele>338.691071</ele><time>2021-07-17T13:41:48Z</time><extensions><speed>0.977708</speed><course>247.666534</course><hAcc>0.889269</hAcc><vAcc>0.717042</vAcc></extensions></trkpt>
      <trkpt lon="-4.158108" lat="53.024629"><ele>338.671844</ele><time>2021-07-17T13:41:49Z</time><extensions><speed>1.010870</speed><course>261.197876</course><hAcc>0.889296</hAcc><vAcc>0.717136</vAcc></extensions></trkpt>
      <trkpt lon="-4.158092" lat="53.024629"><ele>338.654266</ele><time>2021-07-17T13:41:50Z</time><extensions><speed>1.039351</speed><course>263.217255</course><hAcc>0.889326</hAcc><vAcc>0.717254</vAcc></extensions></trkpt>
      <trkpt lon="-4.158077" lat="53.024628"><ele>338.644257</ele><time>2021-07-17T13:41:51Z</time><extensions><speed>1.062270</speed><course>271.463165</course><hAcc>0.889357</hAcc><vAcc>0.717390</vAcc></extensions></trkpt>
      <trkpt lon="-4.158061" lat="53.024627"><ele>338.646484</ele><time>2021-07-17T13:41:52Z</time><extensions><speed>1.078882</speed><course>281.991608</course><hAcc>0.889389</hAcc><vAcc>0.717531</vAcc></extensions></trkpt>
      <trkpt lon="-4.158045" lat="53.024626"><ele>338.663666</ele><time>2021-07-17T13:41:53Z</time><extensions><speed>1.088891</speed><course>285.895782</course><hAcc>0.889418</hAcc><vAcc>0.717663</vAcc></extensions></trkpt>
      <trkpt lon="-4.158029" lat="53.024624"><ele>338.696625</ele><time>2021-07-17T13:41:54Z</time><extensions><speed>1.093220</speed><course>287.327179</course><hAcc>0.889441</hAcc><vAcc>0.717770</vAcc></extensions></trkpt>
      <trkpt lon="-4.158013" lat="53.024622"><ele>338.744720</ele><time>2021-07-17T13:41:55Z</time><extensions><speed>1.093338</speed><course>297.396240</course><hAcc>0.889458</hAcc><vAcc>0.717843</vAcc></extensions></trkpt>
      <trkpt lon="-4.157997" lat="53.024620"><ele>338.805969</ele><time>2021-07-17T13:41:56Z</time><extensions><speed>1.089972</speed><course>299.473175</course><hAcc>0.889463</hAcc><vAcc>0.717880</vAcc></extensions></trkpt>
      <trkpt lon="-4.157981" lat="53.024618"><ele>338.877930</ele><time>2021-07-17T13:41:57Z</time><extensions><speed>1.083224</speed><course>297.683289</course><hAcc>0.889455</hAcc><vAcc>0.717878</vAcc></extensions></trkpt>
      <trkpt lon="-4.157966" lat="53.024615"><ele>338.958435</ele><time>2021-07-17T13:41:58Z</time><extensions><speed>1.073560</speed><course>292.365356</course><hAcc>0.889432</hAcc><vAcc>0.717834</vAcc></extensions></trkpt>
      <trkpt lon="-4.157951" lat="53.024612"><ele>339.045563</ele><time>2021-07-17T13:41:59Z</time><extensions><speed>1.061483</speed><course>291.092651</course><hAcc>0.889393</hAcc><vAcc>0.717740</vAcc></extensions></trkpt>
      <trkpt lon="-4.157936" lat="53.024610"><ele>339.137604</ele><time>2021-07-17T13:42:00Z</time><extensions><speed>1.046975</speed><course>297.007721</course><hAcc>0.889339</hAcc><vAcc>0.717586</vAcc></extensions></trkpt>
      <trkpt lon="-4.157921" lat="53.024606"><ele>339.232605</ele><time>2021-07-17T13:42:01Z</time><extensions><speed>1.029858</speed><course>291.539093</course><hAcc>0.889272</hAcc><vAcc>0.717365</vAcc></extensions></trkpt>
      <trkpt lon="-4.157907" lat="53.024603"><ele>339.328064</ele><time>2021-07-17T13:42:02Z</time><extensions><speed>1.010346</speed><course>293.314819</course><hAcc>0.889196</hAcc><vAcc>0.717082</vAcc></extensions></trkpt>
      <trkpt lon="-4.157893" lat="53.024600"><ele>339.421570</ele><time>2021-07-17T13:42:03Z</time><extensions><speed>0.989617</speed><course>297.043213</course><hAcc>0.889113</hAcc><vAcc>0.716749</vAcc></extensions></trkpt>
      <trkpt lon="-4.157880" lat="53.024596"><ele>339.511475</ele><time>2021-07-17T13:42:04Z</time><extensions><speed>0.969408</speed><course>301.573547</course><hAcc>0.889029</hAcc><vAcc>0.716389</vAcc></extensions></trkpt>
      <trkpt lon="-4.157867" lat="53.024593"><ele>339.596039</ele><time>2021-07-17T13:42:05Z</time><extensions><speed>0.951092</speed><course>305.542847</course><hAcc>0.888947</hAcc><vAcc>0.716033</vAcc></extensions></trkpt>
      <trkpt lon="-4.157854" lat="53.024589"><ele>339.673126</ele><time>2021-07-17T13:42:06Z</time><extensions><speed>0.935113</speed><course>304.461029</course><hAcc>0.888872</hAcc><vAcc>0.715710</vAcc></extensions></trkpt>
      <trkpt lon="-4.157841" lat="53.024586"><ele>339.740692</ele><time>2021-07-17T13:42:07Z</time><extensions><speed>0.922124</speed><course>304.519958</course><hAcc>0.888810</hAcc><vAcc>0.715444</vAcc></extensions></trkpt>
      <trkpt lon="-4.157829" lat="53.024582"><ele>339.797302</ele><time>2021-07-17T13:42:08Z</time><extensions><speed>0.913104</speed><course>306.835541</course><hAcc>0.888763</hAcc><vAcc>0.715252</vAcc></extensions></trkpt>
      <trkpt lon="-4.157817" lat="53.024579"><ele>339.842163</ele><time>2021-07-17T13:42:09Z</time><extensions><speed>0.908522</speed><course>312.924469</course><hAcc>0.888735</hAcc><vAcc>0.715146</vAcc></extensions></trkpt>
      <trkpt lon="-4.157804" lat="53.024576"><ele>339.874878</ele><time>2021-07-17T13:42:10Z</time><extensions><speed>0.908146</speed><course>313.121582</course><hAcc>0.888726</hAcc><vAcc>0.715134</vAcc></extensions></trkpt>
      <trkpt lon="-4.157792" lat="53.024573"><ele>339.894897</ele><time>2021-07-17T13:42:11Z</time><extensions><speed>0.910891</speed><course>312.363678</course><hAcc>0.888737</hAcc><vAcc>0.715210</vAcc></extensions></trkpt>
      <trkpt lon="-4.157779" lat="53.024570"><ele>339.902008</ele><time>2021-07-17T13:42:12Z</time><extensions><speed>0.915335</speed><course>309.905548</course><hAcc>0.888765</hAcc><vAcc>0.715361</vAcc></extensions></trkpt>
      <trkpt lon="-4.157766" lat="53.024567"><ele>339.896240</ele><time>2021-07-17T13:42:13Z</time><extensions><speed>0.920439</speed><course>308.597687</course><hAcc>0.888809</hAcc><vAcc>0.715568</vAcc></extensions></trkpt>
      <trkpt lon="-4.157753" lat="53.024564"><ele>339.877472</ele><time>2021-07-17T13:42:14Z</time><extensions><speed>0.925864</speed><course>307.103394</course><hAcc>0.888864</hAcc><vAcc>0.715812</vAcc></extensions></trkpt>
      <trkpt lon="-4.157740" lat="53.024561"><ele>339.846191</ele><time>2021-07-17T13:42:15Z</time><extensions><speed>0.931090</speed><course>306.897400</course><hAcc>0.888927</hAcc><vAcc>0.716071</vAcc></extensions></trkpt>
      <trkpt lon="-4.157727" lat="53.024559"><ele>339.803741</ele><time>2021-07-17T13:42:16Z</time><extensions><speed>0.934647</speed><course>302.152618</course><hAcc>0.888992</hAcc><vAcc>0.716328</vAcc></extensions></trkpt>
      <trkpt lon="-4.157713" lat="53.024557"><ele>339.751617</ele><time>2021-07-17T13:42:17Z</time><extensions><speed>0.934573</speed><course>297.726410</course><hAcc>0.889056</hAcc><vAcc>0.716568</vAcc></extensions></trkpt>
      <trkpt lon="-4.157700" lat="53.024555"><ele>339.691528</ele><time>2021-07-17T13:42:18Z</time><extensions><speed>0.929306</speed><course>300.194183</course><hAcc>0.889115</hAcc><vAcc>0.716779</vAcc></extensions></trkpt>
      <trkpt lon="-4.157686" lat="53.024553"><ele>339.625397</ele><time>2021-07-17T13:42:19Z</time><extensions><speed>0.918182</speed><course>297.151825</course><hAcc>0.889166</hAcc><vAcc>0.716950</vAcc></extensions></trkpt>
      <trkpt lon="-4.157673" lat="53.024552"><ele>339.555054</ele><time>2021-07-17T13:42:20Z</time><extensions><speed>0.901059</speed><course>298.399384</course><hAcc>0.889208</hAcc><vAcc>0.717076</vAcc></extensions></trkpt>
      <trkpt lon="-4.157660" lat="53.024550"><ele>339.482391</ele><time>2021-07-17T13:42:21Z</time><extensions><speed>0.878156</speed><course>300.837921</course><hAcc>0.889239</hAcc><vAcc>0.717159</vAcc></extensions></trkpt>
      <trkpt lon="-4.157647" lat="53.024549"><ele>339.409088</ele><time>2021-07-17T13:42:22Z</time><extensions><speed>0.850468</speed><course>299.844330</course><hAcc>0.889258</hAcc><vAcc>0.717200</vAcc></extensions></trkpt>
      <trkpt lon="-4.157635" lat="53.024548"><ele>339.336426</ele><time>2021-07-17T13:42:23Z</time><extensions><speed>0.819589</speed><course>300.001373</course><hAcc>0.889264</hAcc><vAcc>0.717202</vAcc></extensions></trkpt>
      <trkpt lon="-4.157623" lat="53.024547"><ele>339.265289</ele><time>2021-07-17T13:42:24Z</time><extensions><speed>0.787057</speed><course>294.568817</course><hAcc>0.889258</hAcc><vAcc>0.717167</vAcc></extensions></trkpt>
      <trkpt lon="-4.157612" lat="53.024546"><ele>339.196381</ele><time>2021-07-17T13:42:25Z</time><extensions><speed>0.753751</speed><course>300.687103</course><hAcc>0.889240</hAcc><vAcc>0.717100</vAcc></extensions></trkpt>
      <trkpt lon="-4.157601" lat="53.024545"><ele>339.130005</ele><time>2021-07-17T13:42:26Z</time><extensions><speed>0.719941</speed><course>297.691925</course><hAcc>0.889210</hAcc><vAcc>0.717002</vAcc></extensions></trkpt>
      <trkpt lon="-4.157590" lat="53.024544"><ele>339.066956</ele><time>2021-07-17T13:42:27Z</time><extensions><speed>0.685971</speed><course>293.928223</course><hAcc>0.889169</hAcc><vAcc>0.716874</vAcc></extensions></trkpt>
      <trkpt lon="-4.157580" lat="53.024543"><ele>339.007996</ele><time>2021-07-17T13:42:28Z</time><extensions><speed>0.652588</speed><course>297.041656</course><hAcc>0.889118</hAcc><vAcc>0.716715</vAcc></extensions></trkpt>
      <trkpt lon="-4.157571" lat="53.024543"><ele>338.953125</ele><time>2021-07-17T13:42:29Z</time><extensions><speed>0.620833</speed><course>298.722290</course><hAcc>0.889058</hAcc><vAcc>0.716526</vAcc></extensions></trkpt>
      <trkpt lon="-4.157562" lat="53.024542"><ele>338.902191</ele><time>2021-07-17T13:42:30Z</time><extensions><speed>0.592340</speed><course>296.674316</course><hAcc>0.888991</hAcc><vAcc>0.716304</vAcc></extensions></trkpt>
      <trkpt lon="-4.157554" lat="53.024541"><ele>338.855225</ele><time>2021-07-17T13:42:31Z</time><extensions><speed>0.568680</speed><course>301.147156</course><hAcc>0.888919</hAcc><vAcc>0.716051</vAcc></extensions></trkpt>
      <trkpt lon="-4.157545" lat="53.024540"><ele>338.812256</ele><time>2021-07-17T13:42:32Z</time><extensions><speed>0.550772</speed><course>301.618805</course><hAcc>0.888846</hAcc><vAcc>0.715768</vAcc></extensions></trkpt>
      <trkpt lon="-4.157537" lat="53.024539"><ele>338.773651</ele><time>2021-07-17T13:42:33Z</time><extensions><speed>0.539195</speed><course>300.678009</course><hAcc>0.888758</hAcc><vAcc>0.715451</vAcc></extensions></trkpt>
      <trkpt lon="-4.157530" lat="53.024538"><ele>338.739441</ele><time>2021-07-17T13:42:34Z</time><extensions><speed>0.534148</speed><course>306.078644</course><hAcc>0.888657</hAcc><vAcc>0.715114</vAcc></extensions></trkpt>
      <trkpt lon="-4.157522" lat="53.024537"><ele>338.708496</ele><time>2021-07-17T13:42:35Z</time><extensions><speed>0.535577</speed><course>302.099213</course><hAcc>0.888566</hAcc><vAcc>0.714786</vAcc></extensions></trkpt>
      <trkpt lon="-4.157514" lat="53.024536"><ele>338.679657</ele><time>2021-07-17T13:42:36Z</time><extensions><speed>0.543615</speed><course>298.253754</course><hAcc>0.888487</hAcc><vAcc>0.714487</vAcc></extensions></trkpt>
      <trkpt lon="-4.157506" lat="53.024535"><ele>338.652008</ele><time>2021-07-17T13:42:37Z</time><extensions><speed>0.557828</speed><course>299.772583</course><hAcc>0.888423</hAcc><vAcc>0.714238</vAcc></extensions></trkpt>
      <trkpt lon="-4.157498" lat="53.024533"><ele>338.624695</ele><time>2021-07-17T13:42:38Z</time><extensions><speed>0.576935</speed><course>299.946075</course><hAcc>0.888374</hAcc><vAcc>0.714061</vAcc></extensions></trkpt>
      <trkpt lon="-4.157489" lat="53.024532"><ele>338.596924</ele><time>2021-07-17T13:42:39Z</time><extensions><speed>0.599620</speed><course>303.968170</course><hAcc>0.888341</hAcc><vAcc>0.713971</vAcc></extensions></trkpt>
      <trkpt lon="-4.157481" lat="53.024531"><ele>338.567780</ele><time>2021-07-17T13:42:40Z</time><extensions><speed>0.624964</speed><course>302.223755</course><hAcc>0.888321</hAcc><vAcc>0.713977</vAcc></extensions></trkpt>
      <trkpt lon="-4.157471" lat="53.024529"><ele>338.536041</ele><time>2021-07-17T13:42:41Z</time><extensions><speed>0.651805</speed><course>303.590851</course><hAcc>0.888329</hAcc><vAcc>0.714088</vAcc></extensions></trkpt>
      <trkpt lon="-4.157462" lat="53.024528"><ele>338.499969</ele><time>2021-07-17T13:42:42Z</time><extensions><speed>0.678582</speed><course>302.656281</course><hAcc>0.888360</hAcc><vAcc>0.714281</vAcc></extensions></trkpt>
      <trkpt lon="-4.157452" lat="53.024527"><ele>338.457703</ele><time>2021-07-17T13:42:43Z</time><extensions><speed>0.703152</speed><course>307.857574</course><hAcc>0.888393</hAcc><vAcc>0.714503</vAcc></extensions></trkpt>
      <trkpt lon="-4.157441" lat="53.024525"><ele>338.407379</ele><time>2021-07-17T13:42:44Z</time><extensions><speed>0.723378</speed><course>306.241272</course><hAcc>0.888422</hAcc><vAcc>0.714708</vAcc></extensions></trkpt>
      <trkpt lon="-4.157431" lat="53.024524"><ele>338.346985</ele><time>2021-07-17T13:42:45Z</time><extensions><speed>0.737708</speed><course>302.560516</course><hAcc>0.888443</hAcc><vAcc>0.714855</vAcc></extensions></trkpt>
      <trkpt lon="-4.157420" lat="53.024523"><ele>338.275177</ele><time>2021-07-17T13:42:46Z</time><extensions><speed>0.745060</speed><course>304.207947</course><hAcc>0.888452</hAcc><vAcc>0.714916</vAcc></extensions></trkpt>
      <trkpt lon="-4.157409" lat="53.024522"><ele>338.192017</ele><time>2021-07-17T13:42:47Z</time><extensions><speed>0.745110</speed><course>304.678192</course><hAcc>0.888444</hAcc><vAcc>0.714881</vAcc></extensions></trkpt>
      <trkpt lon="-4.157398" lat="53.024521"><ele>338.098541</ele><time>2021-07-17T13:42:48Z</time><extensions><speed>0.738831</speed><course>300.816559</course><hAcc>0.888419</hAcc><vAcc>0.714753</vAcc></extensions></trkpt>
      <trkpt lon="-4.157387" lat="53.024519"><ele>337.996429</ele><time>2021-07-17T13:42:49Z</time><extensions><speed>0.728321</speed><course>302.457642</course><hAcc>0.888377</hAcc><vAcc>0.714545</vAcc></extensions></trkpt>
      <trkpt lon="-4.157376" lat="53.024519"><ele>337.887848</ele><time>2021-07-17T13:42:50Z</time><extensions><speed>0.715481</speed><course>303.405792</course><hAcc>0.888318</hAcc><vAcc>0.714275</vAcc></extensions></trkpt>
      <trkpt lon="-4.157366" lat="53.024518"><ele>337.774475</ele><time>2021-07-17T13:42:51Z</time><extensions><speed>0.701086</speed><course>305.179382</course><hAcc>0.888248</hAcc><vAcc>0.713965</vAcc></extensions></trkpt>
      <trkpt lon="-4.157356" lat="53.024517"><ele>337.656921</ele><time>2021-07-17T13:42:52Z</time><extensions><speed>0.685684</speed><course>301.811188</course><hAcc>0.888171</hAcc><vAcc>0.713639</vAcc></extensions></trkpt>
      <trkpt lon="-4.157346" lat="53.024516"><ele>337.535248</ele><time>2021-07-17T13:42:53Z</time><extensions><speed>0.670587</speed><course>294.111877</course><hAcc>0.888092</hAcc><vAcc>0.713317</vAcc></extensions></trkpt>
      <trkpt lon="-4.157336" lat="53.024515"><ele>337.409698</ele><time>2021-07-17T13:42:54Z</time><extensions><speed>0.657050</speed><course>291.186249</course><hAcc>0.888015</hAcc><vAcc>0.713022</vAcc></extensions></trkpt>
      <trkpt lon="-4.157326" lat="53.024514"><ele>337.280701</ele><time>2021-07-17T13:42:55Z</time><extensions><speed>0.644980</speed><course>291.833313</course><hAcc>0.887946</hAcc><vAcc>0.712768</vAcc></extensions></trkpt>
      <trkpt lon="-4.157317" lat="53.024513"><ele>337.149384</ele><time>2021-07-17T13:42:56Z</time><extensions><speed>0.634521</speed><course>293.198639</course><hAcc>0.887888</hAcc><vAcc>0.712568</vAcc></extensions></trkpt>
      <trkpt lon="-4.157308" lat="53.024511"><ele>337.016846</ele><time>2021-07-17T13:42:57Z</time><extensions><speed>0.626951</speed><course>297.953094</course><hAcc>0.887844</hAcc><vAcc>0.712426</vAcc></extensions></trkpt>
      <trkpt lon="-4.157299" lat="53.024510"><ele>336.883698</ele><time>2021-07-17T13:42:58Z</time><extensions><speed>0.623477</speed><course>294.998413</course><hAcc>0.887817</hAcc><vAcc>0.712344</vAcc></extensions></trkpt>
      <trkpt lon="-4.157290" lat="53.024509"><ele>336.750061</ele><time>2021-07-17T13:42:59Z</time><extensions><speed>0.624825</speed><course>290.333923</course><hAcc>0.887807</hAcc><vAcc>0.712323</vAcc></extensions></trkpt>
      <trkpt lon="-4.157281" lat="53.024507"><ele>336.615692</ele><time>2021-07-17T13:43:00Z</time><extensions><speed>0.631508</speed><course>297.336884</course><hAcc>0.887813</hAcc><vAcc>0.712359</vAcc></extensions></trkpt>
      <trkpt lon="-4.157272" lat="53.024505"><ele>336.480316</ele><time>2021-07-17T13:43:01Z</time><extensions><speed>0.643360</speed><course>291.763641</course><hAcc>0.887835</hAcc><vAcc>0.712449</vAcc></extensions></trkpt>
      <trkpt lon="-4.157263" lat="53.024503"><ele>336.343384</ele><time>2021-07-17T13:43:02Z</time><extensions><speed>0.659263</speed><course>293.588959</course><hAcc>0.887871</hAcc><vAcc>0.712588</vAcc></extensions></trkpt>
      <trkpt lon="-4.157253" lat="53.024501"><ele>336.203888</ele><time>2021-07-17T13:43:03Z</time><extensions><speed>0.677696</speed><course>298.534668</course><hAcc>0.887919</hAcc><vAcc>0.712770</vAcc></extensions></trkpt>
      <trkpt lon="-4.157244" lat="53.024499"><ele>336.060364</ele><time>2021-07-17T13:43:04Z</time><extensions><speed>0.697182</speed><course>294.834351</course><hAcc>0.887977</hAcc><vAcc>0.712985</vAcc></extensions></trkpt>
      <trkpt lon="-4.157234" lat="53.024497"><ele>335.911438</ele><time>2021-07-17T13:43:05Z</time><extensions><speed>0.716377</speed><course>297.698059</course><hAcc>0.888041</hAcc><vAcc>0.713222</vAcc></extensions></trkpt>
      <trkpt lon="-4.157224" lat="53.024495"><ele>335.756256</ele><time>2021-07-17T13:43:06Z</time><extensions><speed>0.733869</speed><course>298.511444</course><hAcc>0.888109</hAcc><vAcc>0.713467</vAcc></extensions></trkpt>
      <trkpt lon="-4.157213" lat="53.024493"><ele>335.594574</ele><time>2021-07-17T13:43:07Z</time><extensions><speed>0.748334</speed><course>303.054443</course><hAcc>0.888179</hAcc><vAcc>0.713713</vAcc></extensions></trkpt>
      <trkpt lon="-4.157202" lat="53.024491"><ele>335.427094</ele><time>2021-07-17T13:43:08Z</time><extensions><speed>0.758305</speed><course>300.594757</course><hAcc>0.888247</hAcc><vAcc>0.713950</vAcc></extensions></trkpt>
      <trkpt lon="-4.157191" lat="53.024489"><ele>335.255432</ele><time>2021-07-17T13:43:09Z</time><extensions><speed>0.763341</speed><course>303.489990</course><hAcc>0.888312</hAcc><vAcc>0.714170</vAcc></extensions></trkpt>
      <trkpt lon="-4.157180" lat="53.024488"><ele>335.081726</ele><time>2021-07-17T13:43:10Z</time><extensions><speed>0.764264</speed><course>307.296783</course><hAcc>0.888372</hAcc><vAcc>0.714368</vAcc></extensions></trkpt>
      <trkpt lon="-4.157169" lat="53.024486"><ele>334.908539</ele><time>2021-07-17T13:43:11Z</time><extensions><speed>0.761773</speed><course>306.846466</course><hAcc>0.888424</hAcc><vAcc>0.714541</vAcc></extensions></trkpt>
      <trkpt lon="-4.157158" lat="53.024485"><ele>334.738586</ele><time>2021-07-17T13:43:12Z</time><extensions><speed>0.756416</speed><course>314.303711</course><hAcc>0.888469</hAcc><vAcc>0.714685</vAcc></extensions></trkpt>
      <trkpt lon="-4.157147" lat="53.024484"><ele>334.574554</ele><time>2021-07-17T13:43:13Z</time><extensions><speed>0.748792</speed><course>316.753265</course><hAcc>0.888506</hAcc><vAcc>0.714796</vAcc></extensions></trkpt>
      <trkpt lon="-4.157136" lat="53.024483"><ele>334.418152</ele><time>2021-07-17T13:43:14Z</time><extensions><speed>0.739603</speed><course>312.101562</course><hAcc>0.888533</hAcc><vAcc>0.714876</vAcc></extensions></trkpt>
      <trkpt lon="-4.157125" lat="53.024482"><ele>334.269501</ele><time>2021-07-17T13:43:15Z</time><extensions><speed>0.729759</speed><course>310.983948</course><hAcc>0.888552</hAcc><vAcc>0.714930</vAcc></extensions></trkpt>
      <trkpt lon="-4.157114" lat="53.024481"><ele>334.128082</ele><time>2021-07-17T13:43:16Z</time><extensions><speed>0.719913</speed><course>316.824890</course><hAcc>0.888562</hAcc><vAcc>0.714958</vAcc></extensions></trkpt>
      <trkpt lon="-4.157104" lat="53.024481"><ele>333.993134</ele><time>2021-07-17T13:43:17Z</time><extensions><speed>0.710028</speed><course>324.005005</course><hAcc>0.888564</hAcc><vAcc>0.714963</vAcc></extensions></trkpt>
      <trkpt lon="-4.157093" lat="53.024480"><ele>333.863434</ele><time>2021-07-17T13:43:18Z</time><extensions><speed>0.699959</speed><course>322.091736</course><hAcc>0.888559</hAcc><vAcc>0.714947</vAcc></extensions></trkpt>
      <trkpt lon="-4.157083" lat="53.024480"><ele>333.737854</ele><time>2021-07-17T13:43:19Z</time><extensions><speed>0.689741</speed><course>322.830170</course><hAcc>0.888547</hAcc><vAcc>0.714912</vAcc></extensions></trkpt>
      <trkpt lon="-4.157073" lat="53.024480"><ele>333.615295</ele><time>2021-07-17T13:43:20Z</time><extensions><speed>0.679609</speed><course>325.823517</course><hAcc>0.888532</hAcc><vAcc>0.714857</vAcc></extensions></trkpt>
      <trkpt lon="-4.157063" lat="53.024479"><ele>333.494659</ele><time>2021-07-17T13:43:21Z</time><extensions><speed>0.670161</speed><course>331.853210</course><hAcc>0.888514</hAcc><vAcc>0.714785</vAcc></extensions></trkpt>
      <trkpt lon="-4.157053" lat="53.024479"><ele>333.375214</ele><time>2021-07-17T13:43:22Z</time><extensions><speed>0.661853</speed><course>331.260956</course><hAcc>0.888495</hAcc><vAcc>0.714701</vAcc></extensions></trkpt>
      <trkpt lon="-4.157043" lat="53.024479"><ele>333.256348</ele><time>2021-07-17T13:43:23Z</time><extensions><speed>0.654990</speed><course>329.072571</course><hAcc>0.888479</hAcc><vAcc>0.714610</vAcc></extensions></trkpt>
      <trkpt lon="-4.157033" lat="53.024479"><ele>333.137665</ele><time>2021-07-17T13:43:24Z</time><extensions><speed>0.649983</speed><course>325.473938</course><hAcc>0.888468</hAcc><vAcc>0.714525</vAcc></extensions></trkpt>
      <trkpt lon="-4.157024" lat="53.024479"><ele>333.018433</ele><time>2021-07-17T13:43:25Z</time><extensions><speed>0.646694</speed><course>325.383026</course><hAcc>0.888463</hAcc><vAcc>0.714463</vAcc></extensions></trkpt>
      <trkpt lon="-4.157014" lat="53.024480"><ele>332.897858</ele><time>2021-07-17T13:43:26Z</time><extensions><speed>0.644697</speed><course>325.061401</course><hAcc>0.888466</hAcc><vAcc>0.714441</vAcc></extensions></trkpt>
      <trkpt lon="-4.157004" lat="53.024480"><ele>332.775513</ele><time>2021-07-17T13:43:27Z</time><extensions><speed>0.643805</speed><course>325.207275</course><hAcc>0.888476</hAcc><vAcc>0.714472</vAcc></extensions></trkpt>
      <trkpt lon="-4.156995" lat="53.024480"><ele>332.651642</ele><time>2021-07-17T13:43:28Z</time><extensions><speed>0.643989</speed><course>322.410889</course><hAcc>0.888495</hAcc><vAcc>0.714556</vAcc></extensions></trkpt>
      <trkpt lon="-4.156985" lat="53.024480"><ele>332.526306</ele><time>2021-07-17T13:43:29Z</time><extensions><speed>0.645305</speed><course>319.218658</course><hAcc>0.888522</hAcc><vAcc>0.714685</vAcc></extensions></trkpt>
      <trkpt lon="-4.156975" lat="53.024480"><ele>332.399139</ele><time>2021-07-17T13:43:30Z</time><extensions><speed>0.647769</speed><course>319.790588</course><hAcc>0.888556</hAcc><vAcc>0.714845</vAcc></extensions></trkpt>
      <trkpt lon="-4.156966" lat="53.024480"><ele>332.269470</ele><time>2021-07-17T13:43:31Z</time><extensions><speed>0.651789</speed><course>318.972229</course><hAcc>0.888596</hAcc><vAcc>0.715016</vAcc></extensions></trkpt>
      <trkpt lon="-4.156956" lat="53.024481"><ele>332.136169</ele><time>2021-07-17T13:43:32Z</time><extensions><speed>0.658286</speed><course>320.354065</course><hAcc>0.888639</hAcc><vAcc>0.715183</vAcc></extensions></trkpt>
      <trkpt lon="-4.156946" lat="53.024481"><ele>331.998260</ele><time>2021-07-17T13:43:33Z</time><extensions><speed>0.667952</speed><course>320.541016</course><hAcc>0.888685</hAcc><vAcc>0.715332</vAcc></extensions></trkpt>
      <trkpt lon="-4.156936" lat="53.024482"><ele>331.855103</ele><time>2021-07-17T13:43:34Z</time><extensions><speed>0.681163</speed><course>317.906189</course><hAcc>0.888730</hAcc><vAcc>0.715463</vAcc></extensions></trkpt>
      <trkpt lon="-4.156926" lat="53.024482"><ele>331.706360</ele><time>2021-07-17T13:43:35Z</time><extensions><speed>0.697535</speed><course>316.077393</course><hAcc>0.888771</hAcc><vAcc>0.715582</vAcc></extensions></trkpt>
      <trkpt lon="-4.156915" lat="53.024482"><ele>331.552155</ele><time>2021-07-17T13:43:36Z</time><extensions><speed>0.716215</speed><course>307.356537</course><hAcc>0.888806</hAcc><vAcc>0.715694</vAcc></extensions></trkpt>
      <trkpt lon="-4.156905" lat="53.024483"><ele>331.392914</ele><time>2021-07-17T13:43:37Z</time><extensions><speed>0.736374</speed><course>302.004150</course><hAcc>0.888831</hAcc><vAcc>0.715800</vAcc></extensions></trkpt>
      <trkpt lon="-4.156894" lat="53.024484"><ele>331.229492</ele><time>2021-07-17T13:43:38Z</time><extensions><speed>0.756884</speed><course>310.520874</course><hAcc>0.888844</hAcc><vAcc>0.715889</vAcc></extensions></trkpt>
      <trkpt lon="-4.156882" lat="53.024484"><ele>331.063110</ele><time>2021-07-17T13:43:39Z</time><extensions><speed>0.777173</speed><course>307.778412</course><hAcc>0.888844</hAcc><vAcc>0.715948</vAcc></extensions></trkpt>
      <trkpt lon="-4.156870" lat="53.024485"><ele>330.895325</ele><time>2021-07-17T13:43:40Z</time><extensions><speed>0.796787</speed><course>310.132080</course><hAcc>0.888830</hAcc><vAcc>0.715957</vAcc></extensions></trkpt>
      <trkpt lon="-4.156859" lat="53.024486"><ele>330.727814</ele><time>2021-07-17T13:43:41Z</time><extensions><speed>0.815150</speed><course>310.327301</course><hAcc>0.888801</hAcc><vAcc>0.715903</vAcc></extensions></trkpt>
      <trkpt lon="-4.156846" lat="53.024486"><ele>330.561829</ele><time>2021-07-17T13:43:42Z</time><extensions><speed>0.832525</speed><course>308.925873</course><hAcc>0.888758</hAcc><vAcc>0.715774</vAcc></extensions></trkpt>
      <trkpt lon="-4.156834" lat="53.024487"><ele>330.398346</ele><time>2021-07-17T13:43:43Z</time><extensions><speed>0.849027</speed><course>308.955322</course><hAcc>0.888703</hAcc><vAcc>0.715569</vAcc></extensions></trkpt>
      <trkpt lon="-4.156821" lat="53.024488"><ele>330.238007</ele><time>2021-07-17T13:43:44Z</time><extensions><speed>0.863615</speed><course>303.152588</course><hAcc>0.888638</hAcc><vAcc>0.715301</vAcc></extensions></trkpt>
      <trkpt lon="-4.156808" lat="53.024489"><ele>330.081512</ele><time>2021-07-17T13:43:45Z</time><extensions><speed>0.874877</speed><course>313.156525</course><hAcc>0.888566</hAcc><vAcc>0.714990</vAcc></extensions></trkpt>
      <trkpt lon="-4.156795" lat="53.024490"><ele>329.929779</ele><time>2021-07-17T13:43:46Z</time><extensions><speed>0.881333</speed><course>307.864197</course><hAcc>0.888491</hAcc><vAcc>0.714665</vAcc></extensions></trkpt>
      <trkpt lon="-4.156782" lat="53.024490"><ele>329.783936</ele><time>2021-07-17T13:43:47Z</time><extensions><speed>0.882166</speed><course>309.541687</course><hAcc>0.888419</hAcc><vAcc>0.714351</vAcc></extensions></trkpt>
      <trkpt lon="-4.156769" lat="53.024491"><ele>329.644318</ele><time>2021-07-17T13:43:48Z</time><extensions><speed>0.877265</speed><course>312.130341</course><hAcc>0.888354</hAcc><vAcc>0.714070</vAcc></extensions></trkpt>
      <trkpt lon="-4.156756" lat="53.024492"><ele>329.510437</ele><time>2021-07-17T13:43:49Z</time><extensions><speed>0.866417</speed><course>310.268982</course><hAcc>0.888301</hAcc><vAcc>0.713844</vAcc></extensions></trkpt>
      <trkpt lon="-4.156744" lat="53.024493"><ele>329.381287</ele><time>2021-07-17T13:43:50Z</time><extensions><speed>0.850276</speed><course>308.247070</course><hAcc>0.888262</hAcc><vAcc>0.713691</vAcc></extensions></trkpt>
      <trkpt lon="-4.156731" lat="53.024494"><ele>329.255219</ele><time>2021-07-17T13:43:51Z</time><extensions><speed>0.830206</speed><course>304.229858</course><hAcc>0.888240</hAcc><vAcc>0.713618</vAcc></extensions></trkpt>
      <trkpt lon="-4.156719" lat="53.024495"><ele>329.130371</ele><time>2021-07-17T13:43:52Z</time><extensions><speed>0.807108</speed><course>308.310059</course><hAcc>0.888236</hAcc><vAcc>0.713626</vAcc></extensions></trkpt>
      <trkpt lon="-4.156707" lat="53.024496"><ele>329.005310</ele><time>2021-07-17T13:43:53Z</time><extensions><speed>0.781626</speed><course>311.142822</course><hAcc>0.888248</hAcc><vAcc>0.713704</vAcc></extensions></trkpt>
      <trkpt lon="-4.156696" lat="53.024496"><ele>328.878754</ele><time>2021-07-17T13:43:54Z</time><extensions><speed>0.754473</speed><course>305.518036</course><hAcc>0.888275</hAcc><vAcc>0.713838</vAcc></extensions></trkpt>
      <trkpt lon="-4.156685" lat="53.024497"><ele>328.749084</ele><time>2021-07-17T13:43:55Z</time><extensions><speed>0.726562</speed><course>303.061462</course><hAcc>0.888313</hAcc><vAcc>0.714014</vAcc></extensions></trkpt>
      <trkpt lon="-4.156674" lat="53.024497"><ele>328.614594</ele><time>2021-07-17T13:43:56Z</time><extensions><speed>0.698749</speed><course>298.232086</course><hAcc>0.888357</hAcc><vAcc>0.714213</vAcc></extensions></trkpt>
      <trkpt lon="-4.156664" lat="53.024497"><ele>328.474365</ele><time>2021-07-17T13:43:57Z</time><extensions><speed>0.671948</speed><course>289.358276</course><hAcc>0.888403</hAcc><vAcc>0.714419</vAcc></extensions></trkpt>
      <trkpt lon="-4.156654" lat="53.024497"><ele>328.328613</ele><time>2021-07-17T13:43:58Z</time><extensions><speed>0.647434</speed><course>285.924469</course><hAcc>0.888445</hAcc><vAcc>0.714614</vAcc></extensions></trkpt>
      <trkpt lon="-4.156645" lat="53.024497"><ele>328.178131</ele><time>2021-07-17T13:43:59Z</time><extensions><speed>0.626378</speed><course>280.520447</course><hAcc>0.888478</hAcc><vAcc>0.714782</vAcc></extensions></trkpt>
      <trkpt lon="-4.156636" lat="53.024496"><ele>328.023865</ele><time>2021-07-17T13:44:00Z</time><extensions><speed>0.609845</speed><course>286.862061</course><hAcc>0.888498</hAcc><vAcc>0.714906</vAcc></extensions></trkpt>
      <trkpt lon="-4.156627" lat="53.024495"><ele>327.866974</ele><time>2021-07-17T13:44:01Z</time><extensions><speed>0.598864</speed><course>295.700317</course><hAcc>0.888502</hAcc><vAcc>0.714969</vAcc></extensions></trkpt>
      <trkpt lon="-4.156618" lat="53.024493"><ele>327.708801</ele><time>2021-07-17T13:44:02Z</time><extensions><speed>0.594285</speed><course>296.161560</course><hAcc>0.888489</hAcc><vAcc>0.714960</vAcc></extensions></trkpt>
      <trkpt lon="-4.156610" lat="53.024491"><ele>327.550598</ele><time>2021-07-17T13:44:03Z</time><extensions><speed>0.596538</speed><course>298.229218</course><hAcc>0.888462</hAcc><vAcc>0.714872</vAcc></extensions></trkpt>
      <trkpt lon="-4.156602" lat="53.024489"><ele>327.393402</ele><time>2021-07-17T13:44:04Z</time><extensions><speed>0.605372</speed><course>297.545471</course><hAcc>0.888422</hAcc><vAcc>0.714703</vAcc></extensions></trkpt>
      <trkpt lon="-4.156594" lat="53.024486"><ele>327.237915</ele><time>2021-07-17T13:44:05Z</time><extensions><speed>0.620332</speed><course>292.454163</course><hAcc>0.888376</hAcc><vAcc>0.714464</vAcc></extensions></trkpt>
      <trkpt lon="-4.156587" lat="53.024482"><ele>327.084442</ele><time>2021-07-17T13:44:06Z</time><extensions><speed>0.640449</speed><course>287.195465</course><hAcc>0.888331</hAcc><vAcc>0.714185</vAcc></extensions></trkpt>
      <trkpt lon="-4.156580" lat="53.024479"><ele>326.932587</ele><time>2021-07-17T13:44:07Z</time><extensions><speed>0.663670</speed><course>283.339600</course><hAcc>0.888295</hAcc><vAcc>0.713910</vAcc></extensions></trkpt>
      <trkpt lon="-4.156572" lat="53.024474"><ele>326.781128</ele><time>2021-07-17T13:44:08Z</time><extensions><speed>0.687267</speed><course>283.687531</course><hAcc>0.888276</hAcc><vAcc>0.713691</vAcc></extensions></trkpt>
      <trkpt lon="-4.156565" lat="53.024470"><ele>326.628632</ele><time>2021-07-17T13:44:09Z</time><extensions><speed>0.708253</speed><course>284.089417</course><hAcc>0.888282</hAcc><vAcc>0.713574</vAcc></extensions></trkpt>
      <trkpt lon="-4.156558" lat="53.024465"><ele>326.473114</ele><time>2021-07-17T13:44:10Z</time><extensions><speed>0.724451</speed><course>286.432800</course><hAcc>0.888320</hAcc><vAcc>0.713598</vAcc></extensions></trkpt>
      <trkpt lon="-4.156551" lat="53.024460"><ele>326.311981</ele><time>2021-07-17T13:44:11Z</time><extensions><speed>0.734964</speed><course>288.844025</course><hAcc>0.888396</hAcc><vAcc>0.713790</vAcc></extensions></trkpt>
      <trkpt lon="-4.156543" lat="53.024455"><ele>326.142761</ele><time>2021-07-17T13:44:12Z</time><extensions><speed>0.739511</speed><course>294.600861</course><hAcc>0.888512</hAcc><vAcc>0.714167</vAcc></extensions></trkpt>
      <trkpt lon="-4.156536" lat="53.024450"><ele>325.963898</ele><time>2021-07-17T13:44:13Z</time><extensions><speed>0.738358</speed><course>289.399475</course><hAcc>0.888670</hAcc><vAcc>0.714728</vAcc></extensions></trkpt>
      <trkpt lon="-4.156529" lat="53.024445"><ele>325.773590</ele><time>2021-07-17T13:44:14Z</time><extensions><speed>0.732008</speed><course>292.462738</course><hAcc>0.888866</hAcc><vAcc>0.715457</vAcc></extensions></trkpt>
      <trkpt lon="-4.156522" lat="53.024441"><ele>325.569397</ele><time>2021-07-17T13:44:15Z</time><extensions><speed>0.720846</speed><course>292.044128</course><hAcc>0.889098</hAcc><vAcc>0.716321</vAcc></extensions></trkpt>
      <trkpt lon="-4.156514" lat="53.024436"><ele>325.349274</ele><time>2021-07-17T13:44:16Z</time><extensions><speed>0.705637</speed><course>289.426849</course><hAcc>0.889361</hAcc><vAcc>0.717277</vAcc></extensions></trkpt>
      <trkpt lon="-4.156507" lat="53.024431"><ele>325.111816</ele><time>2021-07-17T13:44:17Z</time><extensions><speed>0.687986</speed><course>292.821838</course><hAcc>0.889649</hAcc><vAcc>0.718283</vAcc></extensions></trkpt>
      <trkpt lon="-4.156500" lat="53.024427"><ele>324.856232</ele><time>2021-07-17T13:44:18Z</time><extensions><speed>0.670156</speed><course>287.405121</course><hAcc>0.889958</hAcc><vAcc>0.719309</vAcc></extensions></trkpt>
      <trkpt lon="-4.156493" lat="53.024423"><ele>324.582428</ele><time>2021-07-17T13:44:19Z</time><extensions><speed>0.654318</speed><course>289.328461</course><hAcc>0.890283</hAcc><vAcc>0.720340</vAcc></extensions></trkpt>
      <trkpt lon="-4.156486" lat="53.024419"><ele>324.290527</ele><time>2021-07-17T13:44:20Z</time><extensions><speed>0.642672</speed><course>290.686554</course><hAcc>0.890626</hAcc><vAcc>0.721374</vAcc></extensions></trkpt>
      <trkpt lon="-4.156479" lat="53.024415"><ele>323.980743</ele><time>2021-07-17T13:44:21Z</time><extensions><speed>0.638106</speed><course>291.519623</course><hAcc>0.890990</hAcc><vAcc>0.722407</vAcc></extensions></trkpt>
      <trkpt lon="-4.156471" lat="53.024412"><ele>323.653503</ele><time>2021-07-17T13:44:22Z</time><extensions><speed>0.643362</speed><course>289.260345</course><hAcc>0.891388</hAcc><vAcc>0.723434</vAcc></extensions></trkpt>
      <trkpt lon="-4.156463" lat="53.024408"><ele>323.309509</ele><time>2021-07-17T13:44:23Z</time><extensions><speed>0.659607</speed><course>291.671295</course><hAcc>0.891841</hAcc><vAcc>0.724445</vAcc></extensions></trkpt>
      <trkpt lon="-4.156455" lat="53.024405"><ele>322.949554</ele><time>2021-07-17T13:44:24Z</time><extensions><speed>0.686899</speed><course>285.797272</course><hAcc>0.892378</hAcc><vAcc>0.725422</vAcc></extensions></trkpt>
      <trkpt lon="-4.156446" lat="53.024402"><ele>322.574646</ele><time>2021-07-17T13:44:25Z</time><extensions><speed>0.724240</speed><course>284.045776</course><hAcc>0.893035</hAcc><vAcc>0.726345</vAcc></extensions></trkpt>
      <trkpt lon="-4.156436" lat="53.024399"><ele>322.186157</ele><time>2021-07-17T13:44:26Z</time><extensions><speed>0.769270</speed><course>290.744446</course><hAcc>0.893854</hAcc><vAcc>0.727195</vAcc></extensions></trkpt>
      <trkpt lon="-4.156425" lat="53.024396"><ele>321.785492</ele><time>2021-07-17T13:44:27Z</time><extensions><speed>0.818577</speed><course>286.155334</course><hAcc>0.894873</hAcc><vAcc>0.727963</vAcc></extensions></trkpt>
      <trkpt lon="-4.156413" lat="53.024394"><ele>321.374512</ele><time>2021-07-17T13:44:28Z</time><extensions><speed>0.867580</speed><course>292.078705</course><hAcc>0.896121</hAcc><vAcc>0.728652</vAcc></extensions></trkpt>
      <trkpt lon="-4.156400" lat="53.024391"><ele>320.955292</ele><time>2021-07-17T13:44:29Z</time><extensions><speed>0.912534</speed><course>292.906311</course><hAcc>0.897606</hAcc><vAcc>0.729274</vAcc></extensions></trkpt>
      <trkpt lon="-4.156387" lat="53.024388"><ele>320.530090</ele><time>2021-07-17T13:44:30Z</time><extensions><speed>0.951741</speed><course>291.462067</course><hAcc>0.899302</hAcc><vAcc>0.729842</vAcc></extensions></trkpt>
      <trkpt lon="-4.156373" lat="53.024386"><ele>320.101288</ele><time>2021-07-17T13:44:31Z</time><extensions><speed>0.984767</speed><course>290.448425</course><hAcc>0.901138</hAcc><vAcc>0.730337</vAcc></extensions></trkpt>
      <trkpt lon="-4.156359" lat="53.024384"><ele>319.670990</ele><time>2021-07-17T13:44:32Z</time><extensions><speed>1.011767</speed><course>295.857269</course><hAcc>0.902995</hAcc><vAcc>0.730700</vAcc></extensions></trkpt>
      <trkpt lon="-4.156344" lat="53.024382"><ele>319.240936</ele><time>2021-07-17T13:44:33Z</time><extensions><speed>1.033246</speed><course>298.185364</course><hAcc>0.904707</hAcc><vAcc>0.730833</vAcc></extensions></trkpt>
      <trkpt lon="-4.156329" lat="53.024380"><ele>318.812408</ele><time>2021-07-17T13:44:34Z</time><extensions><speed>1.049934</speed><course>294.469940</course><hAcc>0.906080</hAcc><vAcc>0.730641</vAcc></extensions></trkpt>
      <trkpt lon="-4.156313" lat="53.024378"><ele>318.386444</ele><time>2021-07-17T13:44:35Z</time><extensions><speed>1.061896</speed><course>292.898438</course><hAcc>0.906948</hAcc><vAcc>0.730088</vAcc></extensions></trkpt>
      <trkpt lon="-4.156298" lat="53.024377"><ele>317.963104</ele><time>2021-07-17T13:44:36Z</time><extensions><speed>1.068938</speed><course>292.422791</course><hAcc>0.907267</hAcc><vAcc>0.729301</vAcc></extensions></trkpt>
      <trkpt lon="-4.156282" lat="53.024376"><ele>317.541382</ele><time>2021-07-17T13:44:37Z</time><extensions><speed>1.071464</speed><course>292.622986</course><hAcc>0.907291</hAcc><vAcc>0.728722</vAcc></extensions></trkpt>
      <trkpt lon="-4.156266" lat="53.024375"><ele>317.119965</ele><time>2021-07-17T13:44:38Z</time><extensions><speed>1.070617</speed><course>292.749084</course><hAcc>0.907822</hAcc><vAcc>0.729310</vAcc></extensions></trkpt>
      <trkpt lon="-4.156250" lat="53.024375"><ele>316.698059</ele><time>2021-07-17T13:44:39Z</time><extensions><speed>1.068089</speed><course>294.832458</course><hAcc>0.910575</hAcc><vAcc>0.732778</vAcc></extensions></trkpt>
      <trkpt lon="-4.156234" lat="53.024375"><ele>316.275177</ele><time>2021-07-17T13:44:40Z</time><extensions><speed>1.065059</speed><course>290.563019</course><hAcc>0.918617</hAcc><vAcc>0.741842</vAcc></extensions></trkpt>
      <trkpt lon="-4.156218" lat="53.024375"><ele>315.851440</ele><time>2021-07-17T13:44:41Z</time><extensions><speed>1.061712</speed><course>288.082062</course><hAcc>0.936783</hAcc><vAcc>0.760355</vAcc></extensions></trkpt>
      <trkpt lon="-4.156202" lat="53.024376"><ele>315.427155</ele><time>2021-07-17T13:44:42Z</time><extensions><speed>1.058254</speed><course>289.238037</course><hAcc>0.971803</hAcc><vAcc>0.793191</vAcc></extensions></trkpt>
      <trkpt lon="-4.156188" lat="53.024379"><ele>315.064728</ele><time>2021-07-17T13:44:43Z</time><extensions><speed>1.115397</speed><course>207.637573</course><hAcc>0.934066</hAcc><vAcc>0.758836</vAcc></extensions></trkpt>
      <trkpt lon="-4.156174" lat="53.024385"><ele>314.756287</ele><time>2021-07-17T13:44:44Z</time><extensions><speed>1.124225</speed><course>199.781464</course><hAcc>0.914855</hAcc><vAcc>0.738329</vAcc></extensions></trkpt>
      <trkpt lon="-4.156161" lat="53.024391"><ele>314.453186</ele><time>2021-07-17T13:44:45Z</time><extensions><speed>1.136668</speed><course>204.898392</course><hAcc>0.906970</hAcc><vAcc>0.728346</vAcc></extensions></trkpt>
      <trkpt lon="-4.156148" lat="53.024398"><ele>314.156189</ele><time>2021-07-17T13:44:46Z</time><extensions><speed>1.153168</speed><course>218.988647</course><hAcc>0.904894</hAcc><vAcc>0.724577</vAcc></extensions></trkpt>
      <trkpt lon="-4.156134" lat="53.024404"><ele>313.866028</ele><time>2021-07-17T13:44:47Z</time><extensions><speed>1.173885</speed><course>240.875916</course><hAcc>0.905125</hAcc><vAcc>0.723963</vAcc></extensions></trkpt>
      <trkpt lon="-4.156121" lat="53.024411"><ele>313.583313</ele><time>2021-07-17T13:44:48Z</time><extensions><speed>1.198407</speed><course>240.875916</course><hAcc>0.905715</hAcc><vAcc>0.724551</vAcc></extensions></trkpt>
      <trkpt lon="-4.156107" lat="53.024419"><ele>313.308502</ele><time>2021-07-17T13:44:49Z</time><extensions><speed>1.225645</speed><course>240.875916</course><hAcc>0.905772</hAcc><vAcc>0.725239</vAcc></extensions></trkpt>
      <trkpt lon="-4.156094" lat="53.024426"><ele>313.042358</ele><time>2021-07-17T13:44:50Z</time><extensions><speed>1.253938</speed><course>240.875916</course><hAcc>0.905036</hAcc><vAcc>0.725496</vAcc></extensions></trkpt>
      <trkpt lon="-4.156080" lat="53.024434"><ele>312.785645</ele><time>2021-07-17T13:44:51Z</time><extensions><speed>1.281615</speed><course>240.875916</course><hAcc>0.903585</hAcc><vAcc>0.725154</vAcc></extensions></trkpt>
      <trkpt lon="-4.156066" lat="53.024442"><ele>312.538818</ele><time>2021-07-17T13:44:52Z</time><extensions><speed>1.307058</speed><course>240.875916</course><hAcc>0.901641</hAcc><vAcc>0.724248</vAcc></extensions></trkpt>
      <trkpt lon="-4.156052" lat="53.024450"><ele>312.302246</ele><time>2021-07-17T13:44:53Z</time><extensions><speed>1.328979</speed><course>269.430084</course><hAcc>0.899453</hAcc><vAcc>0.722917</vAcc></extensions></trkpt>
      <trkpt lon="-4.156037" lat="53.024458"><ele>312.076324</ele><time>2021-07-17T13:44:54Z</time><extensions><speed>1.346406</speed><course>274.056000</course><hAcc>0.897240</hAcc><vAcc>0.721326</vAcc></extensions></trkpt>
      <trkpt lon="-4.156023" lat="53.024467"><ele>311.861237</ele><time>2021-07-17T13:44:55Z</time><extensions><speed>1.358715</speed><course>273.580658</course><hAcc>0.895162</hAcc><vAcc>0.719633</vAcc></extensions></trkpt>
      <trkpt lon="-4.156008" lat="53.024475"><ele>311.656555</ele><time>2021-07-17T13:44:56Z</time><extensions><speed>1.365730</speed><course>266.285736</course><hAcc>0.893320</hAcc><vAcc>0.717966</vAcc></extensions></trkpt>
      <trkpt lon="-4.155993" lat="53.024484"><ele>311.461578</ele><time>2021-07-17T13:44:57Z</time><extensions><speed>1.367343</speed><course>280.416809</course><hAcc>0.891762</hAcc><vAcc>0.716414</vAcc></extensions></trkpt>
      <trkpt lon="-4.155979" lat="53.024492"><ele>311.276031</ele><time>2021-07-17T13:44:58Z</time><extensions><speed>1.363372</speed><course>289.633057</course><hAcc>0.890493</hAcc><vAcc>0.715029</vAcc></extensions></trkpt>
      <trkpt lon="-4.155964" lat="53.024501"><ele>311.099579</ele><time>2021-07-17T13:44:59Z</time><extensions><speed>1.353318</speed><course>274.042023</course><hAcc>0.889496</hAcc><vAcc>0.713833</vAcc></extensions></trkpt>
      <trkpt lon="-4.155950" lat="53.024509"><ele>310.931793</ele><time>2021-07-17T13:45:00Z</time><extensions><speed>1.336373</speed><course>259.398621</course><hAcc>0.888735</hAcc><vAcc>0.712827</vAcc></extensions></trkpt>
      <trkpt lon="-4.155935" lat="53.024517"><ele>310.772522</ele><time>2021-07-17T13:45:01Z</time><extensions><speed>1.312094</speed><course>235.228027</course><hAcc>0.888170</hAcc><vAcc>0.711999</vAcc></extensions></trkpt>
      <trkpt lon="-4.155921" lat="53.024525"><ele>310.621521</ele><time>2021-07-17T13:45:02Z</time><extensions><speed>1.280364</speed><course>233.943741</course><hAcc>0.887762</hAcc><vAcc>0.711329</vAcc></extensions></trkpt>
      <trkpt lon="-4.155907" lat="53.024533"><ele>310.478607</ele><time>2021-07-17T13:45:03Z</time><extensions><speed>1.240747</speed><course>251.986771</course><hAcc>0.887475</hAcc><vAcc>0.710794</vAcc></extensions></trkpt>
      <trkpt lon="-4.155894" lat="53.024540"><ele>310.344116</ele><time>2021-07-17T13:45:04Z</time><extensions><speed>1.192605</speed><course>230.632401</course><hAcc>0.887279</hAcc><vAcc>0.710378</vAcc></extensions></trkpt>
      <trkpt lon="-4.155881" lat="53.024547"><ele>310.218719</ele><time>2021-07-17T13:45:05Z</time><extensions><speed>1.135444</speed><course>208.539734</course><hAcc>0.887150</hAcc><vAcc>0.710067</vAcc></extensions></trkpt>
      <trkpt lon="-4.155869" lat="53.024554"><ele>310.102722</ele><time>2021-07-17T13:45:06Z</time><extensions><speed>1.069370</speed><course>217.062653</course><hAcc>0.887071</hAcc><vAcc>0.709854</vAcc></extensions></trkpt>
      <trkpt lon="-4.155857" lat="53.024560"><ele>309.996307</ele><time>2021-07-17T13:45:07Z</time><extensions><speed>0.995018</speed><course>216.480164</course><hAcc>0.887028</hAcc><vAcc>0.709734</vAcc></extensions></trkpt>
      <trkpt lon="-4.155846" lat="53.024565"><ele>309.899567</ele><time>2021-07-17T13:45:08Z</time><extensions><speed>0.913504</speed><course>215.204285</course><hAcc>0.887009</hAcc><vAcc>0.709699</vAcc></extensions></trkpt>
      <trkpt lon="-4.155837" lat="53.024571"><ele>309.812225</ele><time>2021-07-17T13:45:09Z</time><extensions><speed>0.826765</speed><course>192.608246</course><hAcc>0.887007</hAcc><vAcc>0.709737</vAcc></extensions></trkpt>
      <trkpt lon="-4.155828" lat="53.024575"><ele>309.733521</ele><time>2021-07-17T13:45:10Z</time><extensions><speed>0.737696</speed><course>196.818375</course><hAcc>0.887013</hAcc><vAcc>0.709829</vAcc></extensions></trkpt>
      <trkpt lon="-4.155820" lat="53.024579"><ele>309.663055</ele><time>2021-07-17T13:45:11Z</time><extensions><speed>0.650058</speed><course>200.564194</course><hAcc>0.887021</hAcc><vAcc>0.709952</vAcc></extensions></trkpt>
      <trkpt lon="-4.155813" lat="53.024583"><ele>309.600586</ele><time>2021-07-17T13:45:12Z</time><extensions><speed>0.567243</speed><course>224.718231</course><hAcc>0.887023</hAcc><vAcc>0.710075</vAcc></extensions></trkpt>
      <trkpt lon="-4.155807" lat="53.024586"><ele>309.545715</ele><time>2021-07-17T13:45:13Z</time><extensions><speed>0.491563</speed><course>228.969803</course><hAcc>0.887013</hAcc><vAcc>0.710164</vAcc></extensions></trkpt>
      <trkpt lon="-4.155801" lat="53.024588"><ele>309.497681</ele><time>2021-07-17T13:45:14Z</time><extensions><speed>0.424478</speed><course>250.366501</course><hAcc>0.886988</hAcc><vAcc>0.710183</vAcc></extensions></trkpt>
      <trkpt lon="-4.155796" lat="53.024590"><ele>309.455505</ele><time>2021-07-17T13:45:15Z</time><extensions><speed>0.367067</speed><course>-1.000000</course><hAcc>0.886942</hAcc><vAcc>0.710102</vAcc></extensions></trkpt>
      <trkpt lon="-4.155792" lat="53.024592"><ele>309.418030</ele><time>2021-07-17T13:45:16Z</time><extensions><speed>0.320382</speed><course>232.063629</course><hAcc>0.886874</hAcc><vAcc>0.709905</vAcc></extensions></trkpt>
      <trkpt lon="-4.155788" lat="53.024593"><ele>309.384094</ele><time>2021-07-17T13:45:17Z</time><extensions><speed>0.285642</speed><course>232.063614</course><hAcc>0.886786</hAcc><vAcc>0.709593</vAcc></extensions></trkpt>
      <trkpt lon="-4.155784" lat="53.024593"><ele>309.352570</ele><time>2021-07-17T13:45:18Z</time><extensions><speed>0.264898</speed><course>232.063614</course><hAcc>0.886679</hAcc><vAcc>0.709183</vAcc></extensions></trkpt>
      <trkpt lon="-4.155780" lat="53.024594"><ele>309.322144</ele><time>2021-07-17T13:45:19Z</time><extensions><speed>0.259814</speed><course>232.063599</course><hAcc>0.886559</hAcc><vAcc>0.708703</vAcc></extensions></trkpt>
      <trkpt lon="-4.155776" lat="53.024594"><ele>309.291870</ele><time>2021-07-17T13:45:20Z</time><extensions><speed>0.269504</speed><course>232.063599</course><hAcc>0.886433</hAcc><vAcc>0.708191</vAcc></extensions></trkpt>
      <trkpt lon="-4.155772" lat="53.024593"><ele>309.260864</ele><time>2021-07-17T13:45:21Z</time><extensions><speed>0.290552</speed><course>232.063583</course><hAcc>0.886310</hAcc><vAcc>0.707680</vAcc></extensions></trkpt>
      <trkpt lon="-4.155767" lat="53.024593"><ele>309.228363</ele><time>2021-07-17T13:45:22Z</time><extensions><speed>0.319076</speed><course>232.063583</course><hAcc>0.886199</hAcc><vAcc>0.707210</vAcc></extensions></trkpt>
      <trkpt lon="-4.155762" lat="53.024592"><ele>309.193756</ele><time>2021-07-17T13:45:23Z</time><extensions><speed>0.352215</speed><course>248.555511</course><hAcc>0.886108</hAcc><vAcc>0.706820</vAcc></extensions></trkpt>
      <trkpt lon="-4.155757" lat="53.024591"><ele>309.156738</ele><time>2021-07-17T13:45:24Z</time><extensions><speed>0.387972</speed><course>214.727661</course><hAcc>0.886045</hAcc><vAcc>0.706547</vAcc></extensions></trkpt>
      <trkpt lon="-4.155751" lat="53.024591"><ele>309.117096</ele><time>2021-07-17T13:45:25Z</time><extensions><speed>0.425130</speed><course>215.656113</course><hAcc>0.886015</hAcc><vAcc>0.706422</vAcc></extensions></trkpt>
      <trkpt lon="-4.155745" lat="53.024590"><ele>309.074890</ele><time>2021-07-17T13:45:26Z</time><extensions><speed>0.462963</speed><course>205.637772</course><hAcc>0.886021</hAcc><vAcc>0.706457</vAcc></extensions></trkpt>
      <trkpt lon="-4.155738" lat="53.024589"><ele>309.030365</ele><time>2021-07-17T13:45:27Z</time><extensions><speed>0.500798</speed><course>201.575424</course><hAcc>0.886064</hAcc><vAcc>0.706647</vAcc></extensions></trkpt>
      <trkpt lon="-4.155730" lat="53.024589"><ele>308.983795</ele><time>2021-07-17T13:45:28Z</time><extensions><speed>0.537745</speed><course>196.854248</course><hAcc>0.886142</hAcc><vAcc>0.706974</vAcc></extensions></trkpt>
      <trkpt lon="-4.155722" lat="53.024588"><ele>308.935577</ele><time>2021-07-17T13:45:29Z</time><extensions><speed>0.572759</speed><course>198.264053</course><hAcc>0.886250</hAcc><vAcc>0.707408</vAcc></extensions></trkpt>
      <trkpt lon="-4.155713" lat="53.024588"><ele>308.886322</ele><time>2021-07-17T13:45:30Z</time><extensions><speed>0.604829</speed><course>198.636932</course><hAcc>0.886384</hAcc><vAcc>0.707919</vAcc></extensions></trkpt>
      <trkpt lon="-4.155704" lat="53.024588"><ele>308.836487</ele><time>2021-07-17T13:45:31Z</time><extensions><speed>0.633604</speed><course>192.727798</course><hAcc>0.886537</hAcc><vAcc>0.708477</vAcc></extensions></trkpt>
      <trkpt lon="-4.155694" lat="53.024588"><ele>308.786224</ele><time>2021-07-17T13:45:32Z</time><extensions><speed>0.659505</speed><course>184.691818</course><hAcc>0.886703</hAcc><vAcc>0.709056</vAcc></extensions></trkpt>
      <trkpt lon="-4.155684" lat="53.024589"><ele>308.735413</ele><time>2021-07-17T13:45:33Z</time><extensions><speed>0.682460</speed><course>177.917740</course><hAcc>0.886877</hAcc><vAcc>0.709635</vAcc></extensions></trkpt>
      <trkpt lon="-4.155674" lat="53.024589"><ele>308.684143</ele><time>2021-07-17T13:45:34Z</time><extensions><speed>0.701685</speed><course>169.935883</course><hAcc>0.887053</hAcc><vAcc>0.710202</vAcc></extensions></trkpt>
      <trkpt lon="-4.155663" lat="53.024590"><ele>308.632202</ele><time>2021-07-17T13:45:35Z</time><extensions><speed>0.716403</speed><course>168.290512</course><hAcc>0.887228</hAcc><vAcc>0.710749</vAcc></extensions></trkpt>
      <trkpt lon="-4.155653" lat="53.024591"><ele>308.579437</ele><time>2021-07-17T13:45:36Z</time><extensions><speed>0.726025</speed><course>175.847488</course><hAcc>0.887396</hAcc><vAcc>0.711273</vAcc></extensions></trkpt>
      <trkpt lon="-4.155642" lat="53.024592"><ele>308.525848</ele><time>2021-07-17T13:45:37Z</time><extensions><speed>0.729957</speed><course>182.489380</course><hAcc>0.887555</hAcc><vAcc>0.711773</vAcc></extensions></trkpt>
      <trkpt lon="-4.155631" lat="53.024594"><ele>308.471802</ele><time>2021-07-17T13:45:38Z</time><extensions><speed>0.727136</speed><course>193.224472</course><hAcc>0.887702</hAcc><vAcc>0.712248</vAcc></extensions></trkpt>
      <trkpt lon="-4.155621" lat="53.024595"><ele>308.418030</ele><time>2021-07-17T13:45:39Z</time><extensions><speed>0.716442</speed><course>210.457108</course><hAcc>0.887833</hAcc><vAcc>0.712691</vAcc></extensions></trkpt>
      <trkpt lon="-4.155611" lat="53.024597"><ele>308.365509</ele><time>2021-07-17T13:45:40Z</time><extensions><speed>0.697313</speed><course>227.054108</course><hAcc>0.887945</hAcc><vAcc>0.713092</vAcc></extensions></trkpt>
      <trkpt lon="-4.155601" lat="53.024599"><ele>308.315552</ele><time>2021-07-17T13:45:41Z</time><extensions><speed>0.669845</speed><course>247.666534</course><hAcc>0.888033</hAcc><vAcc>0.713436</vAcc></extensions></trkpt>
      <trkpt lon="-4.155592" lat="53.024601"><ele>308.269348</ele><time>2021-07-17T13:45:42Z</time><extensions><speed>0.634877</speed><course>261.197876</course><hAcc>0.888096</hAcc><vAcc>0.713705</vAcc></extensions></trkpt>
      <trkpt lon="-4.155583" lat="53.024603"><ele>308.227936</ele><time>2021-07-17T13:45:43Z</time><extensions><speed>0.593658</speed><course>263.217255</course><hAcc>0.888130</hAcc><vAcc>0.713879</vAcc></extensions></trkpt>
      <trkpt lon="-4.155576" lat="53.024605"><ele>308.192108</ele><time>2021-07-17T13:45:44Z</time><extensions><speed>0.547877</speed><course>271.463165</course><hAcc>0.888133</hAcc><vAcc>0.713937</vAcc></extensions></trkpt>
      <trkpt lon="-4.155569" lat="53.024607"><ele>308.162262</ele><time>2021-07-17T13:45:45Z</time><extensions><speed>0.499335</speed><course>281.991608</course><hAcc>0.888104</hAcc><vAcc>0.713868</vAcc></extensions></trkpt>
      <trkpt lon="-4.155562" lat="53.024609"><ele>308.138367</ele><time>2021-07-17T13:45:46Z</time><extensions><speed>0.449200</speed><course>285.895782</course><hAcc>0.888044</hAcc><vAcc>0.713669</vAcc></extensions></trkpt>
      <trkpt lon="-4.155557" lat="53.024611"><ele>308.120117</ele><time>2021-07-17T13:45:47Z</time><extensions><speed>0.398746</speed><course>287.327179</course><hAcc>0.887956</hAcc><vAcc>0.713344</vAcc></extensions></trkpt>
      <trkpt lon="-4.155552" lat="53.024613"><ele>308.106842</ele><time>2021-07-17T13:45:48Z</time><extensions><speed>0.350243</speed><course>297.396240</course><hAcc>0.887843</hAcc><vAcc>0.712910</vAcc></extensions></trkpt>
      <trkpt lon="-4.155548" lat="53.024614"><ele>308.097748</ele><time>2021-07-17T13:45:49Z</time><extensions><speed>0.306269</speed><course>299.473175</course><hAcc>0.887712</hAcc><vAcc>0.712392</vAcc></extensions></trkpt>
      <trkpt lon="-4.155545" lat="53.024616"><ele>308.092194</ele><time>2021-07-17T13:45:50Z</time><extensions><speed>0.268397</speed><course>297.683289</course><hAcc>0.887569</hAcc><vAcc>0.711826</vAcc></extensions></trkpt>
      <trkpt lon="-4.155542" lat="53.024618"><ele>308.089630</ele><time>2021-07-17T13:45:51Z</time><extensions><speed>0.236985</speed><course>292.365356</course><hAcc>0.887423</hAcc><vAcc>0.711250</vAcc></extensions></trkpt>
      <trkpt lon="-4.155540" lat="53.024619"><ele>308.089691</ele><time>2021-07-17T13:45:52Z</time><extensions><speed>0.211782</speed><course>291.092651</course><hAcc>0.887282</hAcc><vAcc>0.710702</vAcc></extensions></trkpt>
      <trkpt lon="-4.155538" lat="53.024621"><ele>308.092072</ele><time>2021-07-17T13:45:53Z</time><extensions><speed>0.192673</speed><course>297.007721</course><hAcc>0.887154</hAcc><vAcc>0.710212</vAcc></extensions></trkpt>
      <trkpt lon="-4.155536" lat="53.024622"><ele>308.096313</ele><time>2021-07-17T13:45:54Z</time><extensions><speed>0.180403</speed><course>291.539093</course><hAcc>0.887047</hAcc><vAcc>0.709805</vAcc></extensions></trkpt>
      <trkpt lon="-4.155534" lat="53.024623"><ele>308.102020</ele><time>2021-07-17T13:45:55Z</time><extensions><speed>0.176913</speed><course>293.314819</course><hAcc>0.886966</hAcc><vAcc>0.709501</vAcc></extensions></trkpt>
      <trkpt lon="-4.155531" lat="53.024623"><ele>308.108704</ele><time>2021-07-17T13:45:56Z</time><extensions><speed>0.185007</speed><course>297.043213</course><hAcc>0.886917</hAcc><vAcc>0.709318</vAcc></extensions></trkpt>
      <trkpt lon="-4.155529" lat="53.024624"><ele>308.116058</ele><time>2021-07-17T13:45:57Z</time><extensions><speed>0.206750</speed><course>301.573547</course><hAcc>0.886902</hAcc><vAcc>0.709266</vAcc></extensions></trkpt>
      <trkpt lon="-4.155525" lat="53.024624"><ele>308.123840</ele><time>2021-07-17T13:45:58Z</time><extensions><speed>0.241824</speed><course>305.542847</course><hAcc>0.886922</hAcc><vAcc>0.709349</vAcc></extensions></trkpt>
      <trkpt lon="-4.155521" lat="53.024624"><ele>308.131653</ele><time>2021-07-17T13:45:59Z</time><extensions><speed>0.287569</speed><course>304.461029</course><hAcc>0.886974</hAcc><vAcc>0.709562</vAcc></extensions></trkpt>
      <trkpt lon="-4.155517" lat="53.024624"><ele>308.139221</ele><time>2021-07-17T13:46:00Z</time><extensions><speed>0.340535</speed><course>304.519958</course><hAcc>0.887056</hAcc><vAcc>0.709889</vAcc></extensions></trkpt>
      <trkpt lon="-4.155511" lat="53.024624"><ele>308.146271</ele><time>2021-07-17T13:46:01Z</time><extensions><speed>0.398125</speed><course>306.835541</course><hAcc>0.887163</hAcc><vAcc>0.710308</vAcc></extensions></trkpt>
      <trkpt lon="-4.155505" lat="53.024623"><ele>308.152618</ele><time>2021-07-17T13:46:02Z</time><extensions><speed>0.459124</speed><course>312.924469</course><hAcc>0.887289</hAcc><vAcc>0.710792</vAcc></extensions></trkpt>
      <trkpt lon="-4.155498" lat="53.024622"><ele>308.158051</ele><time>2021-07-17T13:46:03Z</time><extensions><speed>0.523324</speed><course>313.121582</course><hAcc>0.887428</hAcc><vAcc>0.711313</vAcc></extensions></trkpt>
      <trkpt lon="-4.155490" lat="53.024621"><ele>308.162598</ele><time>2021-07-17T13:46:04Z</time><extensions><speed>0.590885</speed><course>312.363678</course><hAcc>0.887572</hAcc><vAcc>0.711841</vAcc></extensions></trkpt>
      <trkpt lon="-4.155481" lat="53.024620"><ele>308.166534</ele><time>2021-07-17T13:46:05Z</time><extensions><speed>0.661398</speed><course>309.905548</course><hAcc>0.887716</hAcc><vAcc>0.712352</vAcc></extensions></trkpt>
      <trkpt lon="-4.155470" lat="53.024619"><ele>308.170380</ele><time>2021-07-17T13:46:06Z</time><extensions><speed>0.733100</speed><course>308.597687</course><hAcc>0.887854</hAcc><vAcc>0.712826</vAcc></extensions></trkpt>
      <trkpt lon="-4.155459" lat="53.024618"><ele>308.174683</ele><time>2021-07-17T13:46:07Z</time><extensions><speed>0.802598</speed><course>307.103394</course><hAcc>0.887980</hAcc><vAcc>0.713250</vAcc></extensions></trkpt>
      <trkpt lon="-4.155447" lat="53.024616"><ele>308.179871</ele><time>2021-07-17T13:46:08Z</time><extensions><speed>0.866358</speed><course>306.897400</course><hAcc>0.888092</hAcc><vAcc>0.713616</vAcc></extensions></trkpt>
      <trkpt lon="-4.155434" lat="53.024614"><ele>308.186157</ele><time>2021-07-17T13:46:09Z</time><extensions><speed>0.921969</speed><course>302.152618</course><hAcc>0.888186</hAcc><vAcc>0.713916</vAcc></extensions></trkpt>
      <trkpt lon="-4.155420" lat="53.024613"><ele>308.194000</ele><time>2021-07-17T13:46:10Z</time><extensions><speed>0.967521</speed><course>297.726410</course><hAcc>0.888260</hAcc><vAcc>0.714147</vAcc></extensions></trkpt>
      <trkpt lon="-4.155406" lat="53.024611"><ele>308.204193</ele><time>2021-07-17T13:46:11Z</time><extensions><speed>1.001622</speed><course>300.194183</course><hAcc>0.888316</hAcc><vAcc>0.714309</vAcc></extensions></trkpt>
      <trkpt lon="-4.155391" lat="53.024609"><ele>308.217926</ele><time>2021-07-17T13:46:12Z</time><extensions><speed>1.023370</speed><course>297.151825</course><hAcc>0.888351</hAcc><vAcc>0.714406</vAcc></extensions></trkpt>
      <trkpt lon="-4.155376" lat="53.024607"><ele>308.236511</ele><time>2021-07-17T13:46:13Z</time><extensions><speed>1.032201</speed><course>298.399384</course><hAcc>0.888369</hAcc><vAcc>0.714440</vAcc></extensions></trkpt>
      <trkpt lon="-4.155361" lat="53.024605"><ele>308.261566</ele><time>2021-07-17T13:46:14Z</time><extensions><speed>1.029015</speed><course>300.837921</course><hAcc>0.888371</hAcc><vAcc>0.714419</vAcc></extensions></trkpt>
      <trkpt lon="-4.155346" lat="53.024603"><ele>308.294525</ele><time>2021-07-17T13:46:15Z</time><extensions><speed>1.015930</speed><course>299.844330</course><hAcc>0.888358</hAcc><vAcc>0.714349</vAcc></extensions></trkpt>
      <trkpt lon="-4.155332" lat="53.024601"><ele>308.336182</ele><time>2021-07-17T13:46:16Z</time><extensions><speed>0.995373</speed><course>300.001373</course><hAcc>0.888335</hAcc><vAcc>0.714240</vAcc></extensions></trkpt>
      <trkpt lon="-4.155317" lat="53.024599"><ele>308.387238</ele><time>2021-07-17T13:46:17Z</time><extensions><speed>0.970354</speed><course>294.568817</course><hAcc>0.888303</hAcc><vAcc>0.714105</vAcc></extensions></trkpt>
      <trkpt lon="-4.155303" lat="53.024597"><ele>308.448090</ele><time>2021-07-17T13:46:18Z</time><extensions><speed>0.943910</speed><course>300.687103</course><hAcc>0.888265</hAcc><vAcc>0.713953</vAcc></extensions></trkpt>
      <trkpt lon="-4.155290" lat="53.024595"><ele>308.518707</ele><time>2021-07-17T13:46:19Z</time><extensions><speed>0.917972</speed><course>297.691925</course><hAcc>0.888224</hAcc><vAcc>0.713797</vAcc></extensions></trkpt>
      <trkpt lon="-4.155277" lat="53.024594"><ele>308.598907</ele><time>2021-07-17T13:46:20Z</time><extensions><speed>0.893612</speed><course>293.928223</course><hAcc>0.888181</hAcc><vAcc>0.713648</vAcc></extensions></trkpt>
      <trkpt lon="-4.155264" lat="53.024592"><ele>308.688416</ele><time>2021-07-17T13:46:21Z</time><extensions><speed>0.872146</speed><course>297.041656</course><hAcc>0.888139</hAcc><vAcc>0.713512</vAcc></extensions></trkpt>
      <trkpt lon="-4.155251" lat="53.024591"><ele>308.786438</ele><time>2021-07-17T13:46:22Z</time><extensions><speed>0.854947</speed><course>298.722290</course><hAcc>0.888100</hAcc><vAcc>0.713389</vAcc></extensions></trkpt>
      <trkpt lon="-4.155239" lat="53.024589"><ele>308.891388</ele><time>2021-07-17T13:46:23Z</time><extensions><speed>0.842954</speed><course>296.674316</course><hAcc>0.888064</hAcc><vAcc>0.713280</vAcc></extensions></trkpt>
      <trkpt lon="-4.155226" lat="53.024588"><ele>309.001373</ele><time>2021-07-17T13:46:24Z</time><extensions><speed>0.836722</speed><course>301.147156</course><hAcc>0.888033</hAcc><vAcc>0.713183</vAcc></extensions></trkpt>
      <trkpt lon="-4.155214" lat="53.024588"><ele>309.114899</ele><time>2021-07-17T13:46:25Z</time><extensions><speed>0.836247</speed><course>301.618805</course><hAcc>0.888009</hAcc><vAcc>0.713099</vAcc></extensions></trkpt>
      <trkpt lon="-4.155201" lat="53.024588"><ele>309.230591</ele><time>2021-07-17T13:46:26Z</time><extensions><speed>0.841251</speed><course>300.678009</course><hAcc>0.887991</hAcc><vAcc>0.713028</vAcc></extensions></trkpt>
      <trkpt lon="-4.155189" lat="53.024588"><ele>309.347443</ele><time>2021-07-17T13:46:27Z</time><extensions><speed>0.851202</speed><course>306.078644</course><hAcc>0.887982</hAcc><vAcc>0.712976</vAcc></extensions></trkpt>
      <trkpt lon="-4.155176" lat="53.024588"><ele>309.464630</ele><time>2021-07-17T13:46:28Z</time><extensions><speed>0.865375</speed><course>302.099213</course><hAcc>0.887980</hAcc><vAcc>0.712947</vAcc></extensions></trkpt>
      <trkpt lon="-4.155163" lat="53.024589"><ele>309.581085</ele><time>2021-07-17T13:46:29Z</time><extensions><speed>0.882973</speed><course>298.253754</course><hAcc>0.887986</hAcc><vAcc>0.712951</vAcc></extensions></trkpt>
      <trkpt lon="-4.155150" lat="53.024590"><ele>309.695923</ele><time>2021-07-17T13:46:30Z</time><extensions><speed>0.902998</speed><course>299.772583</course><hAcc>0.887999</hAcc><vAcc>0.712993</vAcc></extensions></trkpt>
      <trkpt lon="-4.155136" lat="53.024591"><ele>309.808350</ele><time>2021-07-17T13:46:31Z</time><extensions><speed>0.924026</speed><course>299.946075</course><hAcc>0.888018</hAcc><vAcc>0.713075</vAcc></extensions></trkpt>
      <trkpt lon="-4.155123" lat="53.024593"><ele>309.917664</ele><time>2021-07-17T13:46:32Z</time><extensions><speed>0.943912</speed><course>303.968170</course><hAcc>0.888041</hAcc><vAcc>0.713192</vAcc></extensions></trkpt>
      <trkpt lon="-4.155109" lat="53.024594"><ele>310.023193</ele><time>2021-07-17T13:46:33Z</time><extensions><speed>0.960917</speed><course>302.223755</course><hAcc>0.888067</hAcc><vAcc>0.713330</vAcc></extensions></trkpt>
      <trkpt lon="-4.155095" lat="53.024596"><ele>310.124817</ele><time>2021-07-17T13:46:34Z</time><extensions><speed>0.974243</speed><course>303.590851</course><hAcc>0.888095</hAcc><vAcc>0.713470</vAcc></extensions></trkpt>
      <trkpt lon="-4.155080" lat="53.024598"><ele>310.222961</ele><time>2021-07-17T13:46:35Z</time><extensions><speed>0.983258</speed><course>302.656281</course><hAcc>0.888121</hAcc><vAcc>0.713594</vAcc></extensions></trkpt>
      <trkpt lon="-4.155066" lat="53.024600"><ele>310.318604</ele><time>2021-07-17T13:46:36Z</time><extensions><speed>0.987686</speed><course>307.857574</course><hAcc>0.888146</hAcc><vAcc>0.713688</vAcc></extensions></trkpt>
      <trkpt lon="-4.155052" lat="53.024603"><ele>310.412903</ele><time>2021-07-17T13:46:37Z</time><extensions><speed>0.988349</speed><course>306.241272</course><hAcc>0.888169</hAcc><vAcc>0.713748</vAcc></extensions></trkpt>
      <trkpt lon="-4.155038" lat="53.024605"><ele>310.507050</ele><time>2021-07-17T13:46:38Z</time><extensions><speed>0.986244</speed><course>302.560516</course><hAcc>0.888188</hAcc><vAcc>0.713779</vAcc></extensions></trkpt>
      <trkpt lon="-4.155023" lat="53.024607"><ele>310.602112</ele><time>2021-07-17T13:46:39Z</time><extensions><speed>0.981854</speed><course>304.207947</course><hAcc>0.888204</hAcc><vAcc>0.713790</vAcc></extensions></trkpt>
      <trkpt lon="-4.155009" lat="53.024609"><ele>310.699463</ele><time>2021-07-17T13:46:40Z</time><extensions><speed>0.975351</speed><course>304.678192</course><hAcc>0.888218</hAcc><vAcc>0.713793</vAcc></extensions></trkpt>
      <trkpt lon="-4.154995" lat="53.024611"><ele>310.800751</ele><time>2021-07-17T13:46:41Z</time><extensions><speed>0.967273</speed><course>300.816559</course><hAcc>0.888230</hAcc><vAcc>0.713800</vAcc></extensions></trkpt>
      <trkpt lon="-4.154981" lat="53.024613"><ele>310.907532</ele><time>2021-07-17T13:46:42Z</time><extensions><speed>0.958435</speed><course>302.457642</course><hAcc>0.888242</hAcc><vAcc>0.713820</vAcc></extensions></trkpt>
      <trkpt lon="-4.154967" lat="53.024615"><ele>311.021179</ele><time>2021-07-17T13:46:43Z</time><extensions><speed>0.949294</speed><course>303.405792</course><hAcc>0.888254</hAcc><vAcc>0.713858</vAcc></extensions></trkpt>
      <trkpt lon="-4.154954" lat="53.024617"><ele>311.142578</ele><time>2021-07-17T13:46:44Z</time><extensions><speed>0.939702</speed><course>305.179382</course><hAcc>0.888268</hAcc><vAcc>0.713913</vAcc></extensions></trkpt>
      <trkpt lon="-4.154940" lat="53.024618"><ele>311.272186</ele><time>2021-07-17T13:46:45Z</time><extensions><speed>0.929079</speed><course>301.811188</course><hAcc>0.888284</hAcc><vAcc>0.713980</vAcc></extensions></trkpt>
      <trkpt lon="-4.154926" lat="53.024619"><ele>311.410034</ele><time>2021-07-17T13:46:46Z</time><extensions><speed>0.917306</speed><course>294.111877</course><hAcc>0.888301</hAcc><vAcc>0.714054</vAcc></extensions></trkpt>
      <trkpt lon="-4.154913" lat="53.024621"><ele>311.556183</ele><time>2021-07-17T13:46:47Z</time><extensions><speed>0.904477</speed><course>291.186249</course><hAcc>0.888320</hAcc><vAcc>0.714130</vAcc></extensions></trkpt>
      <trkpt lon="-4.154900" lat="53.024622"><ele>311.710754</ele><time>2021-07-17T13:46:48Z</time><extensions><speed>0.890926</speed><course>291.833313</course><hAcc>0.888340</hAcc><vAcc>0.714203</vAcc></extensions></trkpt>
      <trkpt lon="-4.154887" lat="53.024623"><ele>311.873535</ele><time>2021-07-17T13:46:49Z</time><extensions><speed>0.877594</speed><course>293.198639</course><hAcc>0.888360</hAcc><vAcc>0.714271</vAcc></extensions></trkpt>
      <trkpt lon="-4.154874" lat="53.024624"><ele>312.044342</ele><time>2021-07-17T13:46:50Z</time><extensions><speed>0.865476</speed><course>297.953094</course><hAcc>0.888380</hAcc><vAcc>0.714333</vAcc></extensions></trkpt>
      <trkpt lon="-4.154861" lat="53.024624"><ele>312.223175</ele><time>2021-07-17T13:46:51Z</time><extensions><speed>0.855130</speed><course>294.998413</course><hAcc>0.888398</hAcc><vAcc>0.714387</vAcc></extensions></trkpt>
      <trkpt lon="-4.154848" lat="53.024625"><ele>312.410156</ele><time>2021-07-17T13:46:52Z</time><extensions><speed>0.846634</speed><course>290.333923</course><hAcc>0.888415</hAcc><vAcc>0.714434</vAcc></extensions></trkpt>
      <trkpt lon="-4.154836" lat="53.024626"><ele>312.605499</ele><time>2021-07-17T13:46:53Z</time><extensions><speed>0.839602</speed><course>297.336884</course><hAcc>0.888428</hAcc><vAcc>0.714476</vAcc></extensions></trkpt>
      <trkpt lon="-4.154823" lat="53.024626"><ele>312.809174</ele><time>2021-07-17T13:46:54Z</time><extensions><speed>0.833322</speed><course>291.763641</course><hAcc>0.888436</hAcc><vAcc>0.714511</vAcc></extensions></trkpt>
      <trkpt lon="-4.154811" lat="53.024626"><ele>313.020813</ele><time>2021-07-17T13:46:55Z</time><extensions><speed>0.826510</speed><course>293.588959</course><hAcc>0.888438</hAcc><vAcc>0.714539</vAcc></extensions></trkpt>
      <trkpt lon="-4.154799" lat="53.024627"><ele>313.239685</ele><time>2021-07-17T13:46:56Z</time><extensions><speed>0.817865</speed><course>298.534668</course><hAcc>0.888433</hAcc><vAcc>0.714553</vAcc></extensions></trkpt>
      <trkpt lon="-4.154787" lat="53.024627"><ele>313.464539</ele><time>2021-07-17T13:46:57Z</time><extensions><speed>0.806431</speed><course>294.834351</course><hAcc>0.888417</hAcc><vAcc>0.714542</vAcc></extensions></trkpt>
      <trkpt lon="-4.154775" lat="53.024627"><ele>313.694122</ele><time>2021-07-17T13:46:58Z</time><extensions><speed>0.791515</speed><course>297.698059</course><hAcc>0.888390</hAcc><vAcc>0.714494</vAcc></extensions></trkpt>
      <trkpt lon="-4.154763" lat="53.024627"><ele>313.927582</ele><time>2021-07-17T13:46:59Z</time><extensions><speed>0.773024</speed><course>298.511444</course><hAcc>0.888351</hAcc><vAcc>0.714400</vAcc></extensions></trkpt>
      <trkpt lon="-4.154752" lat="53.024627"><ele>314.164337</ele><time>2021-07-17T13:47:00Z</time><extensions><speed>0.751844</speed><course>303.054443</course><hAcc>0.888298</hAcc><vAcc>0.714252</vAcc></extensions></trkpt>
      <trkpt lon="-4.154741" lat="53.024626"><ele>314.403595</ele><time>2021-07-17T13:47:01Z</time><extensions><speed>0.729623</speed><course>300.594757</course><hAcc>0.888231</hAcc><vAcc>0.714047</vAcc></extensions></trkpt>
      <trkpt lon="-4.154730" lat="53.024626"><ele>314.644440</ele><time>2021-07-17T13:47:02Z</time><extensions><speed>0.708195</speed><course>303.489990</course><hAcc>0.888150</hAcc><vAcc>0.713784</vAcc></extensions></trkpt>
      <trkpt lon="-4.154720" lat="53.024625"><ele>314.885498</ele><time>2021-07-17T13:47:03Z</time><extensions><speed>0.689387</speed><course>307.296783</course><hAcc>0.888056</hAcc><vAcc>0.713469</vAcc></extensions></trkpt>
      <trkpt lon="-4.154710" lat="53.024624"><ele>315.125275</ele><time>2021-07-17T13:47:04Z</time><extensions><speed>0.674788</speed><course>306.846466</course><hAcc>0.887951</hAcc><vAcc>0.713111</vAcc></extensions></trkpt>
      <trkpt lon="-4.154700" lat="53.024623"><ele>315.362061</ele><time>2021-07-17T13:47:05Z</time><extensions><speed>0.665485</speed><course>314.303711</course><hAcc>0.887838</hAcc><vAcc>0.712722</vAcc></extensions></trkpt>
      <trkpt lon="-4.154690" lat="53.024622"><ele>315.593842</ele><time>2021-07-17T13:47:06Z</time><extensions><speed>0.661918</speed><course>316.753265</course><hAcc>0.887717</hAcc><vAcc>0.712316</vAcc></extensions></trkpt>
      <trkpt lon="-4.154680" lat="53.024621"><ele>315.818146</ele><time>2021-07-17T13:47:06Z</time><extensions><speed>0.664337</speed><course>312.101562</course><hAcc>0.887612</hAcc><vAcc>0.711923</vAcc></extensions></trkpt>
      <trkpt lon="-4.154671" lat="53.024619"><ele>316.032898</ele><time>2021-07-17T13:47:07Z</time><extensions><speed>0.672701</speed><course>310.983948</course><hAcc>0.887526</hAcc><vAcc>0.711556</vAcc></extensions></trkpt>
      <trkpt lon="-4.154661" lat="53.024618"><ele>316.235382</ele><time>2021-07-17T13:47:08Z</time><extensions><speed>0.686465</speed><course>316.824890</course><hAcc>0.887445</hAcc><vAcc>0.711219</vAcc></extensions></trkpt>
      <trkpt lon="-4.154651" lat="53.024616"><ele>316.423431</ele><time>2021-07-17T13:47:09Z</time><extensions><speed>0.704611</speed><course>324.005005</course><hAcc>0.887375</hAcc><vAcc>0.710923</vAcc></extensions></trkpt>
      <trkpt lon="-4.154640" lat="53.024615"><ele>316.595642</ele><time>2021-07-17T13:47:11Z</time><extensions><speed>0.725879</speed><course>322.091736</course><hAcc>0.887300</hAcc><vAcc>0.710662</vAcc></extensions></trkpt>
      <trkpt lon="-4.154630" lat="53.024613"><ele>316.750946</ele><time>2021-07-17T13:47:12Z</time><extensions><speed>0.749446</speed><course>322.830170</course><hAcc>0.887222</hAcc><vAcc>0.710440</vAcc></extensions></trkpt>
      <trkpt lon="-4.154619" lat="53.024612"><ele>316.889313</ele><time>2021-07-17T13:47:13Z</time><extensions><speed>0.774521</speed><course>325.823517</course><hAcc>0.887163</hAcc><vAcc>0.710270</vAcc></extensions></trkpt>
      <trkpt lon="-4.154607" lat="53.024611"><ele>317.011139</ele><time>2021-07-17T13:47:14Z</time><extensions><speed>0.799854</speed><course>331.853210</course><hAcc>0.887121</hAcc><vAcc>0.710151</vAcc></extensions></trkpt>
      <trkpt lon="-4.154595" lat="53.024609"><ele>317.117035</ele><time>2021-07-17T13:47:15Z</time><extensions><speed>0.824478</speed><course>331.260956</course><hAcc>0.887096</hAcc><vAcc>0.710083</vAcc></extensions></trkpt>
      <trkpt lon="-4.154583" lat="53.024608"><ele>317.207855</ele><time>2021-07-17T13:47:16Z</time><extensions><speed>0.847763</speed><course>329.072571</course><hAcc>0.887088</hAcc><vAcc>0.710066</vAcc></extensions></trkpt>
      <trkpt lon="-4.154570" lat="53.024607"><ele>317.284760</ele><time>2021-07-17T13:47:17Z</time><extensions><speed>0.869373</speed><course>325.473938</course><hAcc>0.887094</hAcc><vAcc>0.710097</vAcc></extensions></trkpt>
      <trkpt lon="-4.154557" lat="53.024606"><ele>317.348907</ele><time>2021-07-17T13:47:18Z</time><extensions><speed>0.889338</speed><course>325.383026</course><hAcc>0.887114</hAcc><vAcc>0.710174</vAcc></extensions></trkpt>
      <trkpt lon="-4.154544" lat="53.024605"><ele>317.401398</ele><time>2021-07-17T13:47:19Z</time><extensions><speed>0.907971</speed><course>325.061401</course><hAcc>0.887145</hAcc><vAcc>0.710294</vAcc></extensions></trkpt>
      <trkpt lon="-4.154530" lat="53.024604"><ele>317.443329</ele><time>2021-07-17T13:47:20Z</time><extensions><speed>0.926199</speed><course>325.207275</course><hAcc>0.887183</hAcc><vAcc>0.710448</vAcc></extensions></trkpt>
      <trkpt lon="-4.154517" lat="53.024603"><ele>317.475983</ele><time>2021-07-17T13:47:21Z</time><extensions><speed>0.945135</speed><course>322.410889</course><hAcc>0.887225</hAcc><vAcc>0.710627</vAcc></extensions></trkpt>
      <trkpt lon="-4.154502" lat="53.024602"><ele>317.501068</ele><time>2021-07-17T13:47:22Z</time><extensions><speed>0.964996</speed><course>319.218658</course><hAcc>0.887266</hAcc><vAcc>0.710815</vAcc></extensions></trkpt>
      <trkpt lon="-4.154488" lat="53.024601"><ele>317.520569</ele><time>2021-07-17T13:47:23Z</time><extensions><speed>0.985369</speed><course>319.790588</course><hAcc>0.887302</hAcc><vAcc>0.710996</vAcc></extensions></trkpt>
      <trkpt lon="-4.154473" lat="53.024600"><ele>317.536713</ele><time>2021-07-17T13:47:24Z</time><extensions><speed>1.005407</speed><course>318.972229</course><hAcc>0.887330</hAcc><vAcc>0.711150</vAcc></extensions></trkpt>
      <trkpt lon="-4.154458" lat="53.024599"><ele>317.551819</ele><time>2021-07-17T13:47:25Z</time><extensions><speed>1.024668</speed><course>320.354065</course><hAcc>0.887345</hAcc><vAcc>0.711254</vAcc></extensions></trkpt>
      <trkpt lon="-4.154443" lat="53.024598"><ele>317.567657</ele><time>2021-07-17T13:47:26Z</time><extensions><speed>1.043427</speed><course>320.541016</course><hAcc>0.887345</hAcc><vAcc>0.711291</vAcc></extensions></trkpt>
      <trkpt lon="-4.154427" lat="53.024597"><ele>317.585266</ele><time>2021-07-17T13:47:27Z</time><extensions><speed>1.061821</speed><course>317.906189</course><hAcc>0.887328</hAcc><vAcc>0.711251</vAcc></extensions></trkpt>
      <trkpt lon="-4.154411" lat="53.024597"><ele>317.605804</ele><time>2021-07-17T13:47:28Z</time><extensions><speed>1.080327</speed><course>316.077393</course><hAcc>0.887294</hAcc><vAcc>0.711131</vAcc></extensions></trkpt>
      <trkpt lon="-4.154395" lat="53.024596"><ele>317.630737</ele><time>2021-07-17T13:47:29Z</time><extensions><speed>1.099272</speed><course>307.356537</course><hAcc>0.887244</hAcc><vAcc>0.710933</vAcc></extensions></trkpt>
      <trkpt lon="-4.154379" lat="53.024595"><ele>317.661377</ele><time>2021-07-17T13:47:30Z</time><extensions><speed>1.118210</speed><course>302.004150</course><hAcc>0.887181</hAcc><vAcc>0.710667</vAcc></extensions></trkpt>
      <trkpt lon="-4.154362" lat="53.024594"><ele>317.698669</ele><time>2021-07-17T13:47:31Z</time><extensions><speed>1.137034</speed><course>310.520874</course><hAcc>0.887108</hAcc><vAcc>0.710354</vAcc></extensions></trkpt>
      <trkpt lon="-4.154345" lat="53.024594"><ele>317.742523</ele><time>2021-07-17T13:47:32Z</time><extensions><speed>1.155546</speed><course>307.778412</course><hAcc>0.887029</hAcc><vAcc>0.710022</vAcc></extensions></trkpt>
      <trkpt lon="-4.154327" lat="53.024593"><ele>317.792114</ele><time>2021-07-17T13:47:33Z</time><extensions><speed>1.173096</speed><course>310.132080</course><hAcc>0.886947</hAcc><vAcc>0.709700</vAcc></extensions></trkpt>
      <trkpt lon="-4.154310" lat="53.024593"><ele>317.846893</ele><time>2021-07-17T13:47:34Z</time><extensions><speed>1.189264</speed><course>310.327301</course><hAcc>0.886868</hAcc><vAcc>0.709410</vAcc></extensions></trkpt>
      <trkpt lon="-4.154292" lat="53.024592"><ele>317.906219</ele><time>2021-07-17T13:47:35Z</time><extensions><speed>1.204215</speed><course>308.925873</course><hAcc>0.886794</hAcc><vAcc>0.709164</vAcc></extensions></trkpt>
      <trkpt lon="-4.154274" lat="53.024592"><ele>317.969055</ele><time>2021-07-17T13:47:36Z</time><extensions><speed>1.218334</speed><course>308.955322</course><hAcc>0.886728</hAcc><vAcc>0.708965</vAcc></extensions></trkpt>
      <trkpt lon="-4.154256" lat="53.024592"><ele>318.034210</ele><time>2021-07-17T13:47:37Z</time><extensions><speed>1.231537</speed><course>303.152588</course><hAcc>0.886671</hAcc><vAcc>0.708810</vAcc></extensions></trkpt>
      <trkpt lon="-4.154237" lat="53.024592"><ele>318.100739</ele><time>2021-07-17T13:47:38Z</time><extensions><speed>1.243061</speed><course>313.156525</course><hAcc>0.886625</hAcc><vAcc>0.708690</vAcc></extensions></trkpt>
      <trkpt lon="-4.154219" lat="53.024592"><ele>318.168457</ele><time>2021-07-17T13:47:39Z</time><extensions><speed>1.252610</speed><course>307.864197</course><hAcc>0.886591</hAcc><vAcc>0.708597</vAcc></extensions></trkpt>
      <trkpt lon="-4.154200" lat="53.024592"><ele>318.237366</ele><time>2021-07-17T13:47:40Z</time><extensions><speed>1.259902</speed><course>309.541687</course><hAcc>0.886568</hAcc><vAcc>0.708528</vAcc></extensions></trkpt>
      <trkpt lon="-4.154181" lat="53.024593"><ele>318.307495</ele><time>2021-07-17T13:47:41Z</time><extensions><speed>1.263665</speed><course>312.130341</course><hAcc>0.886558</hAcc><vAcc>0.708481</vAcc></extensions></trkpt>
      <trkpt lon="-4.154163" lat="53.024594"><ele>318.378967</ele><time>2021-07-17T13:47:42Z</time><extensions><speed>1.262683</speed><course>310.268982</course><hAcc>0.886561</hAcc><vAcc>0.708463</vAcc></extensions></trkpt>
      <trkpt lon="-4.154144" lat="53.024595"><ele>318.451538</ele><time>2021-07-17T13:47:43Z</time><extensions><speed>1.256880</speed><course>308.247070</course><hAcc>0.886576</hAcc><vAcc>0.708481</vAcc></extensions></trkpt>
      <trkpt lon="-4.154125" lat="53.024597"><ele>318.524445</ele><time>2021-07-17T13:47:44Z</time><extensions><speed>1.246931</speed><course>304.229858</course><hAcc>0.886603</hAcc><vAcc>0.708546</vAcc></extensions></trkpt>
      <trkpt lon="-4.154107" lat="53.024599"><ele>318.596588</ele><time>2021-07-17T13:47:45Z</time><extensions><speed>1.233451</speed><course>308.310059</course><hAcc>0.886643</hAcc><vAcc>0.708666</vAcc></extensions></trkpt>
      <trkpt lon="-4.154089" lat="53.024601"><ele>318.666931</ele><time>2021-07-17T13:47:46Z</time><extensions><speed>1.217110</speed><course>311.142822</course><hAcc>0.886694</hAcc><vAcc>0.708843</vAcc></extensions></trkpt>
      <trkpt lon="-4.154072" lat="53.024603"><ele>318.734619</ele><time>2021-07-17T13:47:47Z</time><extensions><speed>1.198496</speed><course>305.518036</course><hAcc>0.886753</hAcc><vAcc>0.709073</vAcc></extensions></trkpt>
      <trkpt lon="-4.154055" lat="53.024606"><ele>318.799194</ele><time>2021-07-17T13:47:48Z</time><extensions><speed>1.177929</speed><course>303.061462</course><hAcc>0.886819</hAcc><vAcc>0.709343</vAcc></extensions></trkpt>
      <trkpt lon="-4.154038" lat="53.024609"><ele>318.860504</ele><time>2021-07-17T13:47:49Z</time><extensions><speed>1.155845</speed><course>298.232086</course><hAcc>0.886888</hAcc><vAcc>0.709630</vAcc></extensions></trkpt>
      <trkpt lon="-4.154021" lat="53.024612"><ele>318.918488</ele><time>2021-07-17T13:47:50Z</time><extensions><speed>1.132652</speed><course>289.358276</course><hAcc>0.886958</hAcc><vAcc>0.709909</vAcc></extensions></trkpt>
      <trkpt lon="-4.154005" lat="53.024615"><ele>318.973022</ele><time>2021-07-17T13:47:51Z</time><extensions><speed>1.108386</speed><course>285.924469</course><hAcc>0.887026</hAcc><vAcc>0.710161</vAcc></extensions></trkpt>
      <trkpt lon="-4.153990" lat="53.024617"><ele>319.024017</ele><time>2021-07-17T13:47:52Z</time><extensions><speed>1.083006</speed><course>280.520447</course><hAcc>0.887090</hAcc><vAcc>0.710371</vAcc></extensions></trkpt>
      <trkpt lon="-4.153975" lat="53.024620"><ele>319.070953</ele><time>2021-07-17T13:47:53Z</time><extensions><speed>1.056611</speed><course>286.862061</course><hAcc>0.887149</hAcc><vAcc>0.710541</vAcc></extensions></trkpt>
      <trkpt lon="-4.153960" lat="53.024623"><ele>319.113098</ele><time>2021-07-17T13:47:54Z</time><extensions><speed>1.029242</speed><course>295.700317</course><hAcc>0.887202</hAcc><vAcc>0.710676</vAcc></extensions></trkpt>
      <trkpt lon="-4.153945" lat="53.024625"><ele>319.149902</ele><time>2021-07-17T13:47:55Z</time><extensions><speed>1.000711</speed><course>296.161560</course><hAcc>0.887250</hAcc><vAcc>0.710788</vAcc></extensions></trkpt>
      <trkpt lon="-4.153931" lat="53.024628"><ele>319.181213</ele><time>2021-07-17T13:47:56Z</time><extensions><speed>0.971290</speed><course>298.229218</course><hAcc>0.887295</hAcc><vAcc>0.710889</vAcc></extensions></trkpt>
      <trkpt lon="-4.153917" lat="53.024630"><ele>319.207153</ele><time>2021-07-17T13:47:57Z</time><extensions><speed>0.941847</speed><course>297.545471</course><hAcc>0.887337</hAcc><vAcc>0.710989</vAcc></extensions></trkpt>
      <trkpt lon="-4.153904" lat="53.024632"><ele>319.227844</ele><time>2021-07-17T13:47:58Z</time><extensions><speed>0.913147</speed><course>292.454163</course><hAcc>0.887379</hAcc><vAcc>0.711097</vAcc></extensions></trkpt>
      <trkpt lon="-4.153891" lat="53.024634"><ele>319.243317</ele><time>2021-07-17T13:47:59Z</time><extensions><speed>0.885800</speed><course>287.195465</course><hAcc>0.887424</hAcc><vAcc>0.711219</vAcc></extensions></trkpt>
      <trkpt lon="-4.153878" lat="53.024636"><ele>319.253479</ele><time>2021-07-17T13:48:00Z</time><extensions><speed>0.860837</speed><course>283.339600</course><hAcc>0.887472</hAcc><vAcc>0.711359</vAcc></extensions></trkpt>
      <trkpt lon="-4.153866" lat="53.024638"><ele>319.258423</ele><time>2021-07-17T13:48:01Z</time><extensions><speed>0.839844</speed><course>283.687531</course><hAcc>0.887525</hAcc><vAcc>0.711521</vAcc></extensions></trkpt>
      <trkpt lon="-4.153854" lat="53.024639"><ele>319.258179</ele><time>2021-07-17T13:48:02Z</time><extensions><speed>0.824631</speed><course>284.089417</course><hAcc>0.887583</hAcc><vAcc>0.711709</vAcc></extensions></trkpt>
      <trkpt lon="-4.153842" lat="53.024640"><ele>319.252869</ele><time>2021-07-17T13:48:03Z</time><extensions><speed>0.816840</speed><course>286.432800</course><hAcc>0.887647</hAcc><vAcc>0.711925</vAcc></extensions></trkpt>
      <trkpt lon="-4.153830" lat="53.024641"><ele>319.243286</ele><time>2021-07-17T13:48:04Z</time><extensions><speed>0.817451</speed><course>288.844025</course><hAcc>0.887714</hAcc><vAcc>0.712164</vAcc></extensions></trkpt>
      <trkpt lon="-4.153817" lat="53.024642"><ele>319.231079</ele><time>2021-07-17T13:48:05Z</time><extensions><speed>0.825903</speed><course>294.600861</course><hAcc>0.887784</hAcc><vAcc>0.712420</vAcc></extensions></trkpt>
      <trkpt lon="-4.153805" lat="53.024642"><ele>319.218384</ele><time>2021-07-17T13:48:06Z</time><extensions><speed>0.840836</speed><course>289.399475</course><hAcc>0.887855</hAcc><vAcc>0.712682</vAcc></extensions></trkpt>
      <trkpt lon="-4.153792" lat="53.024643"><ele>319.207672</ele><time>2021-07-17T13:48:07Z</time><extensions><speed>0.861043</speed><course>292.462738</course><hAcc>0.887926</hAcc><vAcc>0.712936</vAcc></extensions></trkpt>
      <trkpt lon="-4.153779" lat="53.024642"><ele>319.201569</ele><time>2021-07-17T13:48:08Z</time><extensions><speed>0.885203</speed><course>292.044128</course><hAcc>0.887996</hAcc><vAcc>0.713172</vAcc></extensions></trkpt>
      <trkpt lon="-4.153766" lat="53.024642"><ele>319.202393</ele><time>2021-07-17T13:48:09Z</time><extensions><speed>0.912215</speed><course>289.426849</course><hAcc>0.888062</hAcc><vAcc>0.713384</vAcc></extensions></trkpt>
      <trkpt lon="-4.153752" lat="53.024641"><ele>319.211884</ele><time>2021-07-17T13:48:10Z</time><extensions><speed>0.940534</speed><course>292.821838</course><hAcc>0.888124</hAcc><vAcc>0.713573</vAcc></extensions></trkpt>
      <trkpt lon="-4.153738" lat="53.024640"><ele>319.231537</ele><time>2021-07-17T13:48:11Z</time><extensions><speed>0.967609</speed><course>287.405121</course><hAcc>0.888179</hAcc><vAcc>0.713743</vAcc></extensions></trkpt>
      <trkpt lon="-4.153724" lat="53.024639"><ele>319.262909</ele><time>2021-07-17T13:48:12Z</time><extensions><speed>0.990862</speed><course>289.328461</course><hAcc>0.888229</hAcc><vAcc>0.713897</vAcc></extensions></trkpt>
      <trkpt lon="-4.153709" lat="53.024637"><ele>319.307159</ele><time>2021-07-17T13:48:13Z</time><extensions><speed>1.008947</speed><course>290.686554</course><hAcc>0.888272</hAcc><vAcc>0.714034</vAcc></extensions></trkpt>
      <trkpt lon="-4.153694" lat="53.024635"><ele>319.364319</ele><time>2021-07-17T13:48:14Z</time><extensions><speed>1.021721</speed><course>291.519623</course><hAcc>0.888308</hAcc><vAcc>0.714154</vAcc></extensions></trkpt>
      <trkpt lon="-4.153679" lat="53.024633"><ele>319.433502</ele><time>2021-07-17T13:48:15Z</time><extensions><speed>1.029456</speed><course>289.260345</course><hAcc>0.888338</hAcc><vAcc>0.714250</vAcc></extensions></trkpt>
      <trkpt lon="-4.153664" lat="53.024631"><ele>319.513855</ele><time>2021-07-17T13:48:16Z</time><extensions><speed>1.032691</speed><course>291.671295</course><hAcc>0.888362</hAcc><vAcc>0.714322</vAcc></extensions></trkpt>
      <trkpt lon="-4.153649" lat="53.024629"><ele>319.604340</ele><time>2021-07-17T13:48:17Z</time><extensions><speed>1.031986</speed><course>285.797272</course><hAcc>0.888381</hAcc><vAcc>0.714369</vAcc></extensions></trkpt>
      <trkpt lon="-4.153634" lat="53.024627"><ele>319.703430</ele><time>2021-07-17T13:48:18Z</time><extensions><speed>1.027920</speed><course>284.045776</course><hAcc>0.888395</hAcc><vAcc>0.714398</vAcc></extensions></trkpt>
      <trkpt lon="-4.153620" lat="53.024624"><ele>319.809082</ele><time>2021-07-17T13:48:19Z</time><extensions><speed>1.021572</speed><course>290.744446</course><hAcc>0.888405</hAcc><vAcc>0.714413</vAcc></extensions></trkpt>
      <trkpt lon="-4.153605" lat="53.024622"><ele>319.918488</ele><time>2021-07-17T13:48:20Z</time><extensions><speed>1.014363</speed><course>286.155334</course><hAcc>0.888412</hAcc><vAcc>0.714419</vAcc></extensions></trkpt>
      <trkpt lon="-4.153590" lat="53.024620"><ele>320.028015</ele><time>2021-07-17T13:48:21Z</time><extensions><speed>1.007291</speed><course>292.078705</course><hAcc>0.888414</hAcc><vAcc>0.714421</vAcc></extensions></trkpt>
      <trkpt lon="-4.153576" lat="53.024618"><ele>320.134277</ele><time>2021-07-17T13:48:22Z</time><extensions><speed>1.000812</speed><course>292.906311</course><hAcc>0.888413</hAcc><vAcc>0.714421</vAcc></extensions></trkpt>
      <trkpt lon="-4.153561" lat="53.024616"><ele>320.235016</ele><time>2021-07-17T13:48:23Z</time><extensions><speed>0.995070</speed><course>291.462067</course><hAcc>0.888409</hAcc><vAcc>0.714418</vAcc></extensions></trkpt>
      <trkpt lon="-4.153547" lat="53.024614"><ele>320.328430</ele><time>2021-07-17T13:48:24Z</time><extensions><speed>0.990477</speed><course>290.448425</course><hAcc>0.888401</hAcc><vAcc>0.714409</vAcc></extensions></trkpt>
      <trkpt lon="-4.153533" lat="53.024612"><ele>320.413208</ele><time>2021-07-17T13:48:25Z</time><extensions><speed>0.987927</speed><course>295.857269</course><hAcc>0.888389</hAcc><vAcc>0.714390</vAcc></extensions></trkpt>
      <trkpt lon="-4.153518" lat="53.024611"><ele>320.487976</ele><time>2021-07-17T13:48:26Z</time><extensions><speed>0.988090</speed><course>298.185364</course><hAcc>0.888374</hAcc><vAcc>0.714356</vAcc></extensions></trkpt>
      <trkpt lon="-4.153503" lat="53.024609"><ele>320.551575</ele><time>2021-07-17T13:48:27Z</time><extensions><speed>0.991310</speed><course>294.469940</course><hAcc>0.888354</hAcc><vAcc>0.714304</vAcc></extensions></trkpt>
      <trkpt lon="-4.153489" lat="53.024608"><ele>320.603149</ele><time>2021-07-17T13:48:28Z</time><extensions><speed>0.997680</speed><course>292.898438</course><hAcc>0.888330</hAcc><vAcc>0.714232</vAcc></extensions></trkpt>
      <trkpt lon="-4.153474" lat="53.024607"><ele>320.642822</ele><time>2021-07-17T13:48:29Z</time><extensions><speed>1.006892</speed><course>292.422791</course><hAcc>0.888305</hAcc><vAcc>0.714140</vAcc></extensions></trkpt>
      <trkpt lon="-4.153459" lat="53.024607"><ele>320.671173</ele><time>2021-07-17T13:48:30Z</time><extensions><speed>1.018674</speed><course>292.622986</course><hAcc>0.888277</hAcc><vAcc>0.714030</vAcc></extensions></trkpt>
      <trkpt lon="-4.153443" lat="53.024607"><ele>320.688843</ele><time>2021-07-17T13:48:31Z</time><extensions><speed>1.033218</speed><course>292.749084</course><hAcc>0.888250</hAcc><vAcc>0.713910</vAcc></extensions></trkpt>
      <trkpt lon="-4.153428" lat="53.024606"><ele>320.696411</ele><time>2021-07-17T13:48:32Z</time><extensions><speed>1.051194</speed><course>294.832458</course><hAcc>0.888225</hAcc><vAcc>0.713790</vAcc></extensions></trkpt>
      <trkpt lon="-4.153412" lat="53.024607"><ele>320.694611</ele><time>2021-07-17T13:48:33Z</time><extensions><speed>1.073415</speed><course>290.563019</course><hAcc>0.888204</hAcc><vAcc>0.713681</vAcc></extensions></trkpt>
      <trkpt lon="-4.153396" lat="53.024607"><ele>320.684448</ele><time>2021-07-17T13:48:34Z</time><extensions><speed>1.100188</speed><course>288.082062</course><hAcc>0.888188</hAcc><vAcc>0.713597</vAcc></extensions></trkpt>
      <trkpt lon="-4.153379" lat="53.024608"><ele>320.667603</ele><time>2021-07-17T13:48:35Z</time><extensions><speed>1.130723</speed><course>289.238037</course><hAcc>0.888179</hAcc><vAcc>0.713548</vAcc></extensions></trkpt>
      <trkpt lon="-4.153362" lat="53.024608"><ele>320.646545</ele><time>2021-07-17T13:48:36Z</time><extensions><speed>1.163117</speed><course>289.037109</course><hAcc>0.888177</hAcc><vAcc>0.713540</vAcc></extensions></trkpt>
      <trkpt lon="-4.153345" lat="53.024609"><ele>320.624115</ele><time>2021-07-17T13:48:37Z</time><extensions><speed>1.195017</speed><course>291.884949</course><hAcc>0.888182</hAcc><vAcc>0.713572</vAcc></extensions></trkpt>
      <trkpt lon="-4.153327" lat="53.024611"><ele>320.603058</ele><time>2021-07-17T13:48:38Z</time><extensions><speed>1.224659</speed><course>287.567657</course><hAcc>0.888193</hAcc><vAcc>0.713638</vAcc></extensions></trkpt>
      <trkpt lon="-4.153309" lat="53.024612"><ele>320.586273</ele><time>2021-07-17T13:48:39Z</time><extensions><speed>1.250783</speed><course>291.768890</course><hAcc>0.888207</hAcc><vAcc>0.713730</vAcc></extensions></trkpt>
      <trkpt lon="-4.153290" lat="53.024614"><ele>320.575989</ele><time>2021-07-17T13:48:40Z</time><extensions><speed>1.271817</speed><course>296.126740</course><hAcc>0.888223</hAcc><vAcc>0.713836</vAcc></extensions></trkpt>
      <trkpt lon="-4.153271" lat="53.024616"><ele>320.573578</ele><time>2021-07-17T13:48:41Z</time><extensions><speed>1.285975</speed><course>297.059143</course><hAcc>0.888238</hAcc><vAcc>0.713941</vAcc></extensions></trkpt>
      <trkpt lon="-4.153252" lat="53.024618"><ele>320.579498</ele><time>2021-07-17T13:48:42Z</time><extensions><speed>1.292375</speed><course>303.696320</course><hAcc>0.888249</hAcc><vAcc>0.714024</vAcc></extensions></trkpt>
      <trkpt lon="-4.153234" lat="53.024620"><ele>320.593597</ele><time>2021-07-17T13:48:43Z</time><extensions><speed>1.291887</speed><course>307.460022</course><hAcc>0.888253</hAcc><vAcc>0.714068</vAcc></extensions></trkpt>
      <trkpt lon="-4.153215" lat="53.024623"><ele>320.614990</ele><time>2021-07-17T13:48:44Z</time><extensions><speed>1.285533</speed><course>302.094666</course><hAcc>0.888249</hAcc><vAcc>0.714063</vAcc></extensions></trkpt>
      <trkpt lon="-4.153197" lat="53.024626"><ele>320.641998</ele><time>2021-07-17T13:48:45Z</time><extensions><speed>1.273830</speed><course>294.763123</course><hAcc>0.888236</hAcc><vAcc>0.714007</vAcc></extensions></trkpt>
      <trkpt lon="-4.153179" lat="53.024629"><ele>320.673187</ele><time>2021-07-17T13:48:46Z</time><extensions><speed>1.257797</speed><course>292.310913</course><hAcc>0.888212</hAcc><vAcc>0.713906</vAcc></extensions></trkpt>
      <trkpt lon="-4.153161" lat="53.024633"><ele>320.707367</ele><time>2021-07-17T13:48:47Z</time><extensions><speed>1.239118</speed><course>286.252472</course><hAcc>0.888178</hAcc><vAcc>0.713767</vAcc></extensions></trkpt>
      <trkpt lon="-4.153144" lat="53.024637"><ele>320.743378</ele><time>2021-07-17T13:48:48Z</time><extensions><speed>1.219685</speed><course>277.085999</course><hAcc>0.888137</hAcc><vAcc>0.713597</vAcc></extensions></trkpt>
      <trkpt lon="-4.153128" lat="53.024642"><ele>320.780457</ele><time>2021-07-17T13:48:49Z</time><extensions><speed>1.200729</speed><course>269.880463</course><hAcc>0.888089</hAcc><vAcc>0.713406</vAcc></extensions></trkpt>
      <trkpt lon="-4.153112" lat="53.024647"><ele>320.818146</ele><time>2021-07-17T13:48:50Z</time><extensions><speed>1.182619</speed><course>256.014618</course><hAcc>0.888037</hAcc><vAcc>0.713200</vAcc></extensions></trkpt>
      <trkpt lon="-4.153097" lat="53.024652"><ele>320.856476</ele><time>2021-07-17T13:48:51Z</time><extensions><speed>1.164804</speed><course>250.524368</course><hAcc>0.887985</hAcc><vAcc>0.712993</vAcc></extensions></trkpt>
      <trkpt lon="-4.153083" lat="53.024658"><ele>320.895752</ele><time>2021-07-17T13:48:52Z</time><extensions><speed>1.146834</speed><course>237.491638</course><hAcc>0.887936</hAcc><vAcc>0.712795</vAcc></extensions></trkpt>
      <trkpt lon="-4.153069" lat="53.024664"><ele>320.936096</ele><time>2021-07-17T13:48:53Z</time><extensions><speed>1.129110</speed><course>231.976761</course><hAcc>0.887892</hAcc><vAcc>0.712621</vAcc></extensions></trkpt>
      <trkpt lon="-4.153056" lat="53.024670"><ele>320.977570</ele><time>2021-07-17T13:48:54Z</time><extensions><speed>1.112371</speed><course>228.504318</course><hAcc>0.887856</hAcc><vAcc>0.712484</vAcc></extensions></trkpt>
      <trkpt lon="-4.153044" lat="53.024677"><ele>321.020325</ele><time>2021-07-17T13:48:55Z</time><extensions><speed>1.097646</speed><course>227.577087</course><hAcc>0.887831</hAcc><vAcc>0.712395</vAcc></extensions></trkpt>
      <trkpt lon="-4.153032" lat="53.024684"><ele>321.064117</ele><time>2021-07-17T13:48:56Z</time><extensions><speed>1.085340</speed><course>219.513672</course><hAcc>0.887820</hAcc><vAcc>0.712362</vAcc></extensions></trkpt>
      <trkpt lon="-4.153022" lat="53.024691"><ele>321.108856</ele><time>2021-07-17T13:48:57Z</time><extensions><speed>1.075381</speed><course>224.903015</course><hAcc>0.887827</hAcc><vAcc>0.712393</vAcc></extensions></trkpt>
      <trkpt lon="-4.153011" lat="53.024699"><ele>321.154480</ele><time>2021-07-17T13:48:58Z</time><extensions><speed>1.068293</speed><course>222.390198</course><hAcc>0.887856</hAcc><vAcc>0.712496</vAcc></extensions></trkpt>
      <trkpt lon="-4.153002" lat="53.024706"><ele>321.200226</ele><time>2021-07-17T13:48:58Z</time><extensions><speed>1.064671</speed><course>223.313202</course><hAcc>0.887932</hAcc><vAcc>0.712687</vAcc></extensions></trkpt>
      <trkpt lon="-4.152993" lat="53.024714"><ele>321.245453</ele><time>2021-07-17T13:48:59Z</time><extensions><speed>1.064434</speed><course>224.045700</course><hAcc>0.888067</hAcc><vAcc>0.712977</vAcc></extensions></trkpt>
      <trkpt lon="-4.152984" lat="53.024722"><ele>321.289490</ele><time>2021-07-17T13:49:00Z</time><extensions><speed>1.067193</speed><course>224.975723</course><hAcc>0.888259</hAcc><vAcc>0.713363</vAcc></extensions></trkpt>
      <trkpt lon="-4.152976" lat="53.024731"><ele>321.331940</ele><time>2021-07-17T13:49:01Z</time><extensions><speed>1.072316</speed><course>226.513992</course><hAcc>0.888527</hAcc><vAcc>0.713859</vAcc></extensions></trkpt>
      <trkpt lon="-4.152968" lat="53.024739"><ele>321.372253</ele><time>2021-07-17T13:49:02Z</time><extensions><speed>1.078770</speed><course>227.291473</course><hAcc>0.888901</hAcc><vAcc>0.714480</vAcc></extensions></trkpt>
      <trkpt lon="-4.152959" lat="53.024747"><ele>321.409973</ele><time>2021-07-17T13:49:03Z</time><extensions><speed>1.085232</speed><course>231.833313</course><hAcc>0.889411</hAcc><vAcc>0.715243</vAcc></extensions></trkpt>
      <trkpt lon="-4.152951" lat="53.024755"><ele>321.444855</ele><time>2021-07-17T13:49:04Z</time><extensions><speed>1.090334</speed><course>230.421005</course><hAcc>0.890094</hAcc><vAcc>0.716157</vAcc></extensions></trkpt>
      <trkpt lon="-4.152942" lat="53.024764"><ele>321.476624</ele><time>2021-07-17T13:49:05Z</time><extensions><speed>1.092691</speed><course>235.980087</course><hAcc>0.890989</hAcc><vAcc>0.717225</vAcc></extensions></trkpt>
      <trkpt lon="-4.152932" lat="53.024772"><ele>321.504791</ele><time>2021-07-17T13:49:06Z</time><extensions><speed>1.090607</speed><course>243.213364</course><hAcc>0.892129</hAcc><vAcc>0.718444</vAcc></extensions></trkpt>
      <trkpt lon="-4.152923" lat="53.024779"><ele>321.529266</ele><time>2021-07-17T13:49:07Z</time><extensions><speed>1.082190</speed><course>253.165268</course><hAcc>0.893537</hAcc><vAcc>0.719803</vAcc></extensions></trkpt>
      <trkpt lon="-4.152913" lat="53.024787"><ele>321.550293</ele><time>2021-07-17T13:49:08Z</time><extensions><speed>1.065852</speed><course>266.505096</course><hAcc>0.895212</hAcc><vAcc>0.721269</vAcc></extensions></trkpt>
      <trkpt lon="-4.152903" lat="53.024794"><ele>321.568115</ele><time>2021-07-17T13:49:09Z</time><extensions><speed>1.040549</speed><course>267.255646</course><hAcc>0.897123</hAcc><vAcc>0.722782</vAcc></extensions></trkpt>
      <trkpt lon="-4.152893" lat="53.024802"><ele>321.582703</ele><time>2021-07-17T13:49:10Z</time><extensions><speed>1.006071</speed><course>271.176971</course><hAcc>0.899191</hAcc><vAcc>0.724251</vAcc></extensions></trkpt>
      <trkpt lon="-4.152884" lat="53.024808"><ele>321.593719</ele><time>2021-07-17T13:49:11Z</time><extensions><speed>0.963004</speed><course>283.145996</course><hAcc>0.901289</hAcc><vAcc>0.725553</vAcc></extensions></trkpt>
      <trkpt lon="-4.152875" lat="53.024815"><ele>321.600830</ele><time>2021-07-17T13:49:12Z</time><extensions><speed>0.912176</speed><course>291.499756</course><hAcc>0.903242</hAcc><vAcc>0.726548</vAcc></extensions></trkpt>
      <trkpt lon="-4.152867" lat="53.024821"><ele>321.603882</ele><time>2021-07-17T13:49:13Z</time><extensions><speed>0.854683</speed><course>295.960785</course><hAcc>0.904848</hAcc><vAcc>0.727117</vAcc></extensions></trkpt>
      <trkpt lon="-4.152860" lat="53.024827"><ele>321.602966</ele><time>2021-07-17T13:49:14Z</time><extensions><speed>0.792146</speed><course>298.309418</course><hAcc>0.905932</hAcc><vAcc>0.727221</vAcc></extensions></trkpt>
      <trkpt lon="-4.152853" lat="53.024833"><ele>321.598480</ele><time>2021-07-17T13:49:15Z</time><extensions><speed>0.727022</speed><course>301.442566</course><hAcc>0.906448</hAcc><vAcc>0.726998</vAcc></extensions></trkpt>
      <trkpt lon="-4.152848" lat="53.024838"><ele>321.591003</ele><time>2021-07-17T13:49:16Z</time><extensions><speed>0.662636</speed><course>301.820831</course><hAcc>0.906645</hAcc><vAcc>0.726901</vAcc></extensions></trkpt>
      <trkpt lon="-4.152843" lat="53.024843"><ele>321.581329</ele><time>2021-07-17T13:49:17Z</time><extensions><speed>0.602690</speed><course>306.533081</course><hAcc>0.907325</hAcc><vAcc>0.727900</vAcc></extensions></trkpt>
      <trkpt lon="-4.152840" lat="53.024848"><ele>321.569916</ele><time>2021-07-17T13:49:18Z</time><extensions><speed>0.550045</speed><course>310.759277</course><hAcc>0.910204</hAcc><vAcc>0.731718</vAcc></extensions></trkpt>
      <trkpt lon="-4.152837" lat="53.024852"><ele>321.557007</ele><time>2021-07-17T13:49:19Z</time><extensions><speed>0.505910</speed><course>315.721252</course><hAcc>0.918352</hAcc><vAcc>0.741076</vAcc></extensions></trkpt>
      <trkpt lon="-4.152835" lat="53.024856"><ele>321.542694</ele><time>2021-07-17T13:49:20Z</time><extensions><speed>0.470566</speed><course>321.376434</course><hAcc>0.936603</hAcc><vAcc>0.759835</vAcc></extensions></trkpt>
      <trkpt lon="-4.152833" lat="53.024860"><ele>321.526947</ele><time>2021-07-17T13:49:21Z</time><extensions><speed>0.443738</speed><course>321.893402</course><hAcc>0.971687</hAcc><vAcc>0.792870</vAcc></extensions></trkpt>
      <trkpt lon="-4.152841" lat="53.024859"><ele>321.273865</ele><time>2021-07-17T13:49:22Z</time><extensions><speed>0.390900</speed><course>207.637573</course><hAcc>0.933630</hAcc><vAcc>0.757716</vAcc></extensions></trkpt>
      <trkpt lon="-4.152847" lat="53.024859"><ele>321.185455</ele><time>2021-07-17T13:49:23Z</time><extensions><speed>0.437746</speed><course>199.781464</course><hAcc>0.914310</hAcc><vAcc>0.736871</vAcc></extensions></trkpt>
      <trkpt lon="-4.152854" lat="53.024857"><ele>321.101227</ele><time>2021-07-17T13:49:24Z</time><extensions><speed>0.493441</speed><course>204.898392</course><hAcc>0.906292</hAcc><vAcc>0.726445</vAcc></extensions></trkpt>
      <trkpt lon="-4.152861" lat="53.024856"><ele>321.022919</ele><time>2021-07-17T13:49:25Z</time><extensions><speed>0.555619</speed><course>218.988647</course><hAcc>0.904065</hAcc><vAcc>0.722144</vAcc></extensions></trkpt>
      <trkpt lon="-4.152869" lat="53.024854"><ele>320.952484</ele><time>2021-07-17T13:49:26Z</time><extensions><speed>0.620811</speed><course>240.875916</course><hAcc>0.904132</hAcc><vAcc>0.720934</vAcc></extensions></trkpt>
      <trkpt lon="-4.152878" lat="53.024851"><ele>320.891846</ele><time>2021-07-17T13:49:27Z</time><extensions><speed>0.684832</speed><course>240.875916</course><hAcc>0.904553</hAcc><vAcc>0.720905</vAcc></extensions></trkpt>
      <trkpt lon="-4.152888" lat="53.024848"><ele>320.842865</ele><time>2021-07-17T13:49:28Z</time><extensions><speed>0.743469</speed><course>240.875916</course><hAcc>0.904441</hAcc><vAcc>0.720995</vAcc></extensions></trkpt>
      <trkpt lon="-4.152898" lat="53.024845"><ele>320.807251</ele><time>2021-07-17T13:49:29Z</time><extensions><speed>0.793185</speed><course>240.875916</course><hAcc>0.903542</hAcc><vAcc>0.720707</vAcc></extensions></trkpt>
      <trkpt lon="-4.152908" lat="53.024841"><ele>320.786041</ele><time>2021-07-17T13:49:30Z</time><extensions><speed>0.831842</speed><course>240.875916</course><hAcc>0.901939</hAcc><vAcc>0.719890</vAcc></extensions></trkpt>
      <trkpt lon="-4.152919" lat="53.024837"><ele>320.778992</ele><time>2021-07-17T13:49:31Z</time><extensions><speed>0.858837</speed><course>240.875916</course><hAcc>0.899858</hAcc><vAcc>0.718586</vAcc></extensions></trkpt>
      <trkpt lon="-4.152929" lat="53.024833"><ele>320.784882</ele><time>2021-07-17T13:49:32Z</time><extensions><speed>0.874305</speed><course>269.430084</course><hAcc>0.897552</hAcc><vAcc>0.716924</vAcc></extensions></trkpt>
      <trkpt lon="-4.152940" lat="53.024828"><ele>320.801666</ele><time>2021-07-17T13:49:33Z</time><extensions><speed>0.878341</speed><course>274.056000</course><hAcc>0.895240</hAcc><vAcc>0.715059</vAcc></extensions></trkpt>
      <trkpt lon="-4.152950" lat="53.024823"><ele>320.827301</ele><time>2021-07-17T13:49:34Z</time><extensions><speed>0.871204</speed><course>273.580658</course><hAcc>0.893084</hAcc><vAcc>0.713138</vAcc></extensions></trkpt>
      <trkpt lon="-4.152960" lat="53.024818"><ele>320.859711</ele><time>2021-07-17T13:49:35Z</time><extensions><speed>0.853876</speed><course>266.285736</course><hAcc>0.891186</hAcc><vAcc>0.711281</vAcc></extensions></trkpt>
      <trkpt lon="-4.152969" lat="53.024813"><ele>320.896637</ele><time>2021-07-17T13:49:36Z</time><extensions><speed>0.827945</speed><course>280.416809</course><hAcc>0.889592</hAcc><vAcc>0.709581</vAcc></extensions></trkpt>
      <trkpt lon="-4.152977" lat="53.024807"><ele>320.936157</ele><time>2021-07-17T13:49:37Z</time><extensions><speed>0.795148</speed><course>289.633057</course><hAcc>0.888311</hAcc><vAcc>0.708101</vAcc></extensions></trkpt>
      <trkpt lon="-4.152984" lat="53.024802"><ele>320.976837</ele><time>2021-07-17T13:49:38Z</time><extensions><speed>0.757065</speed><course>274.042023</course><hAcc>0.887322</hAcc><vAcc>0.706874</vAcc></extensions></trkpt>
      <trkpt lon="-4.152990" lat="53.024796"><ele>321.017303</ele><time>2021-07-17T13:49:39Z</time><extensions><speed>0.715555</speed><course>259.398621</course><hAcc>0.886591</hAcc><vAcc>0.705913</vAcc></extensions></trkpt>
      <trkpt lon="-4.152995" lat="53.024791"><ele>321.056122</ele><time>2021-07-17T13:49:40Z</time><extensions><speed>0.672963</speed><course>235.228027</course><hAcc>0.886077</hAcc><vAcc>0.705213</vAcc></extensions></trkpt>
      <trkpt lon="-4.152998" lat="53.024785"><ele>321.092010</ele><time>2021-07-17T13:49:41Z</time><extensions><speed>0.631792</speed><course>233.943741</course><hAcc>0.885737</hAcc><vAcc>0.704757</vAcc></extensions></trkpt>
      <trkpt lon="-4.153000" lat="53.024780"><ele>321.124359</ele><time>2021-07-17T13:49:42Z</time><extensions><speed>0.594597</speed><course>251.986771</course><hAcc>0.885533</hAcc><vAcc>0.704521</vAcc></extensions></trkpt>
      <trkpt lon="-4.153001" lat="53.024775"><ele>321.153046</ele><time>2021-07-17T13:49:43Z</time><extensions><speed>0.563727</speed><course>230.632401</course><hAcc>0.885432</hAcc><vAcc>0.704468</vAcc></extensions></trkpt>
      <trkpt lon="-4.153001" lat="53.024770"><ele>321.178162</ele><time>2021-07-17T13:49:44Z</time><extensions><speed>0.540432</speed><course>208.539734</course><hAcc>0.885404</hAcc><vAcc>0.704564</vAcc></extensions></trkpt>
      <trkpt lon="-4.153000" lat="53.024765"><ele>321.199677</ele><time>2021-07-17T13:49:45Z</time><extensions><speed>0.523592</speed><course>217.062653</course><hAcc>0.885427</hAcc><vAcc>0.704771</vAcc></extensions></trkpt>
      <trkpt lon="-4.152997" lat="53.024761"><ele>321.217346</ele><time>2021-07-17T13:49:46Z</time><extensions><speed>0.509987</speed><course>216.480164</course><hAcc>0.885482</hAcc><vAcc>0.705053</vAcc></extensions></trkpt>
      <trkpt lon="-4.152994" lat="53.024757"><ele>321.231171</ele><time>2021-07-17T13:49:47Z</time><extensions><speed>0.495511</speed><course>215.204285</course><hAcc>0.885555</hAcc><vAcc>0.705373</vAcc></extensions></trkpt>
      <trkpt lon="-4.152990" lat="53.024753"><ele>321.241241</ele><time>2021-07-17T13:49:48Z</time><extensions><speed>0.476374</speed><course>192.608246</course><hAcc>0.885635</hAcc><vAcc>0.705693</vAcc></extensions></trkpt>
      <trkpt lon="-4.152985" lat="53.024750"><ele>321.247650</ele><time>2021-07-17T13:49:49Z</time><extensions><speed>0.450868</speed><course>196.818375</course><hAcc>0.885716</hAcc><vAcc>0.705983</vAcc></extensions></trkpt>
      <trkpt lon="-4.152981" lat="53.024747"><ele>321.250580</ele><time>2021-07-17T13:49:50Z</time><extensions><speed>0.419866</speed><course>200.564194</course><hAcc>0.885793</hAcc><vAcc>0.706224</vAcc></extensions></trkpt>
      <trkpt lon="-4.152977" lat="53.024744"><ele>321.250732</ele><time>2021-07-17T13:49:51Z</time><extensions><speed>0.385421</speed><course>224.718231</course><hAcc>0.885865</hAcc><vAcc>0.706416</vAcc></extensions></trkpt>
      <trkpt lon="-4.152973" lat="53.024742"><ele>321.248688</ele><time>2021-07-17T13:49:52Z</time><extensions><speed>0.349434</speed><course>228.969803</course><hAcc>0.885930</hAcc><vAcc>0.706573</vAcc></extensions></trkpt>
      <trkpt lon="-4.152969" lat="53.024740"><ele>321.245056</ele><time>2021-07-17T13:49:53Z</time><extensions><speed>0.313670</speed><course>250.366501</course><hAcc>0.885991</hAcc><vAcc>0.706716</vAcc></extensions></trkpt>
      <trkpt lon="-4.152965" lat="53.024739"><ele>321.240295</ele><time>2021-07-17T13:49:54Z</time><extensions><speed>0.279597</speed><course>-1.000000</course><hAcc>0.886049</hAcc><vAcc>0.706868</vAcc></extensions></trkpt>
      <trkpt lon="-4.152962" lat="53.024738"><ele>321.234711</ele><time>2021-07-17T13:49:55Z</time><extensions><speed>0.248219</speed><course>232.063629</course><hAcc>0.886105</hAcc><vAcc>0.707042</vAcc></extensions></trkpt>
      <trkpt lon="-4.152959" lat="53.024736"><ele>321.228607</ele><time>2021-07-17T13:49:56Z</time><extensions><speed>0.220486</speed><course>232.063614</course><hAcc>0.886161</hAcc><vAcc>0.707237</vAcc></extensions></trkpt>
      <trkpt lon="-4.152956" lat="53.024735"><ele>321.222168</ele><time>2021-07-17T13:49:57Z</time><extensions><speed>0.197187</speed><course>232.063614</course><hAcc>0.886218</hAcc><vAcc>0.707445</vAcc></extensions></trkpt>
      <trkpt lon="-4.152954" lat="53.024735"><ele>321.215698</ele><time>2021-07-17T13:49:58Z</time><extensions><speed>0.178675</speed><course>232.063599</course><hAcc>0.886277</hAcc><vAcc>0.707655</vAcc></extensions></trkpt>
      <trkpt lon="-4.152952" lat="53.024734"><ele>321.209351</ele><time>2021-07-17T13:49:59Z</time><extensions><speed>0.164822</speed><course>232.063599</course><hAcc>0.886337</hAcc><vAcc>0.707860</vAcc></extensions></trkpt>
      <trkpt lon="-4.152950" lat="53.024733"><ele>321.203278</ele><time>2021-07-17T13:50:00Z</time><extensions><speed>0.154653</speed><course>232.063583</course><hAcc>0.886398</hAcc><vAcc>0.708057</vAcc></extensions></trkpt>
      <trkpt lon="-4.152948" lat="53.024732"><ele>321.197449</ele><time>2021-07-17T13:50:01Z</time><extensions><speed>0.146558</speed><course>232.063583</course><hAcc>0.886461</hAcc><vAcc>0.708248</vAcc></extensions></trkpt>
      <trkpt lon="-4.152946" lat="53.024732"><ele>321.191833</ele><time>2021-07-17T13:50:02Z</time><extensions><speed>0.139020</speed><course>248.555511</course><hAcc>0.886524</hAcc><vAcc>0.708437</vAcc></extensions></trkpt>
      <trkpt lon="-4.152944" lat="53.024731"><ele>321.186218</ele><time>2021-07-17T13:50:03Z</time><extensions><speed>0.131167</speed><course>214.727661</course><hAcc>0.886587</hAcc><vAcc>0.708631</vAcc></extensions></trkpt>
      <trkpt lon="-4.152943" lat="53.024730"><ele>321.180511</ele><time>2021-07-17T13:50:04Z</time><extensions><speed>0.122696</speed><course>215.656113</course><hAcc>0.886651</hAcc><vAcc>0.708834</vAcc></extensions></trkpt>
      <trkpt lon="-4.152942" lat="53.024729"><ele>321.174469</ele><time>2021-07-17T13:50:05Z</time><extensions><speed>0.113554</speed><course>205.637772</course><hAcc>0.886715</hAcc><vAcc>0.709047</vAcc></extensions></trkpt>
      <trkpt lon="-4.152941" lat="53.024729"><ele>321.168030</ele><time>2021-07-17T13:50:06Z</time><extensions><speed>0.103861</speed><course>201.575424</course><hAcc>0.886780</hAcc><vAcc>0.709268</vAcc></extensions></trkpt>
      <trkpt lon="-4.152940" lat="53.024728"><ele>321.161041</ele><time>2021-07-17T13:50:07Z</time><extensions><speed>0.093633</speed><course>196.854248</course><hAcc>0.886846</hAcc><vAcc>0.709493</vAcc></extensions></trkpt>
      <trkpt lon="-4.152939" lat="53.024727"><ele>321.153412</ele><time>2021-07-17T13:50:08Z</time><extensions><speed>0.082813</speed><course>198.264053</course><hAcc>0.886914</hAcc><vAcc>0.709715</vAcc></extensions></trkpt>
      <trkpt lon="-4.152938" lat="53.024727"><ele>321.144867</ele><time>2021-07-17T13:50:09Z</time><extensions><speed>0.071378</speed><course>198.636932</course><hAcc>0.886985</hAcc><vAcc>0.709930</vAcc></extensions></trkpt>
      <trkpt lon="-4.152938" lat="53.024726"><ele>321.135223</ele><time>2021-07-17T13:50:10Z</time><extensions><speed>0.059557</speed><course>192.727798</course><hAcc>0.887062</hAcc><vAcc>0.710139</vAcc></extensions></trkpt>
      <trkpt lon="-4.152937" lat="53.024726"><ele>321.124329</ele><time>2021-07-17T13:50:11Z</time><extensions><speed>0.047729</speed><course>184.691818</course><hAcc>0.887146</hAcc><vAcc>0.710353</vAcc></extensions></trkpt>
      <trkpt lon="-4.152937" lat="53.024725"><ele>321.112061</ele><time>2021-07-17T13:50:12Z</time><extensions><speed>0.036179</speed><course>177.917740</course><hAcc>0.887239</hAcc><vAcc>0.710589</vAcc></extensions></trkpt>
      <trkpt lon="-4.152937" lat="53.024725"><ele>321.098328</ele><time>2021-07-17T13:50:13Z</time><extensions><speed>0.025271</speed><course>169.935883</course><hAcc>0.887343</hAcc><vAcc>0.710868</vAcc></extensions></trkpt>
      <trkpt lon="-4.152937" lat="53.024725"><ele>321.083130</ele><time>2021-07-17T13:50:14Z</time><extensions><speed>0.015348</speed><course>168.290512</course><hAcc>0.887459</hAcc><vAcc>0.711206</vAcc></extensions></trkpt>
      <trkpt lon="-4.152937" lat="53.024725"><ele>321.066620</ele><time>2021-07-17T13:50:15Z</time><extensions><speed>0.006506</speed><course>175.847488</course><hAcc>0.887589</hAcc><vAcc>0.711614</vAcc></extensions></trkpt>
      <trkpt lon="-4.152937" lat="53.024725"><ele>321.049011</ele><time>2021-07-17T13:50:16Z</time><extensions><speed>0.002902</speed><course>182.489380</course><hAcc>0.887730</hAcc><vAcc>0.712089</vAcc></extensions></trkpt>
      <trkpt lon="-4.152937" lat="53.024725"><ele>321.030579</ele><time>2021-07-17T13:50:17Z</time><extensions><speed>0.009774</speed><course>193.224472</course><hAcc>0.887882</hAcc><vAcc>0.712622</vAcc></extensions></trkpt>
      <trkpt lon="-4.152937" lat="53.024725"><ele>321.011810</ele><time>2021-07-17T13:50:18Z</time><extensions><speed>0.016099</speed><course>210.457108</course><hAcc>0.888041</hAcc><vAcc>0.713195</vAcc></extensions></trkpt>
      <trkpt lon="-4.152937" lat="53.024725"><ele>320.993164</ele><time>2021-07-17T13:50:19Z</time><extensions><speed>0.021123</speed><course>227.054108</course><hAcc>0.888205</hAcc><vAcc>0.713788</vAcc></extensions></trkpt>
      <trkpt lon="-4.152937" lat="53.024725"><ele>320.975159</ele><time>2021-07-17T13:50:20Z</time><extensions><speed>0.024439</speed><course>247.666534</course><hAcc>0.888369</hAcc><vAcc>0.714378</vAcc></extensions></trkpt>
      <trkpt lon="-4.152937" lat="53.024726"><ele>320.958191</ele><time>2021-07-17T13:50:21Z</time><extensions><speed>0.025582</speed><course>261.197876</course><hAcc>0.888530</hAcc><vAcc>0.714942</vAcc></extensions></trkpt>
      <trkpt lon="-4.152937" lat="53.024726"><ele>320.942535</ele><time>2021-07-17T13:50:22Z</time><extensions><speed>0.024085</speed><course>263.217255</course><hAcc>0.888684</hAcc><vAcc>0.715459</vAcc></extensions></trkpt>
      <trkpt lon="-4.152937" lat="53.024726"><ele>320.928436</ele><time>2021-07-17T13:50:23Z</time><extensions><speed>0.019490</speed><course>271.463165</course><hAcc>0.888830</hAcc><vAcc>0.715913</vAcc></extensions></trkpt>
      <trkpt lon="-4.152937" lat="53.024726"><ele>320.916046</ele><time>2021-07-17T13:50:24Z</time><extensions><speed>0.011584</speed><course>281.991608</course><hAcc>0.888966</hAcc><vAcc>0.716301</vAcc></extensions></trkpt>
      <trkpt lon="-4.152938" lat="53.024726"><ele>320.905487</ele><time>2021-07-17T13:50:25Z</time><extensions><speed>0.004417</speed><course>285.895782</course><hAcc>0.889091</hAcc><vAcc>0.716625</vAcc></extensions></trkpt>
      <trkpt lon="-4.152938" lat="53.024726"><ele>320.896729</ele><time>2021-07-17T13:50:27Z</time><extensions><speed>0.017815</speed><course>287.327179</course><hAcc>0.889187</hAcc><vAcc>0.716882</vAcc></extensions></trkpt>
      <trkpt lon="-4.152938" lat="53.024726"><ele>320.889771</ele><time>2021-07-17T13:50:28Z</time><extensions><speed>0.037634</speed><course>297.396240</course><hAcc>0.889254</hAcc><vAcc>0.717084</vAcc></extensions></trkpt>
      <trkpt lon="-4.152937" lat="53.024725"><ele>320.884583</ele><time>2021-07-17T13:50:29Z</time><extensions><speed>0.061988</speed><course>299.473175</course><hAcc>0.889310</hAcc><vAcc>0.717253</vAcc></extensions></trkpt>
      <trkpt lon="-4.152937" lat="53.024725"><ele>320.881073</ele><time>2021-07-17T13:50:30Z</time><extensions><speed>0.091115</speed><course>297.683289</course><hAcc>0.889353</hAcc><vAcc>0.717398</vAcc></extensions></trkpt>
      <trkpt lon="-4.152937" lat="53.024724"><ele>320.879120</ele><time>2021-07-17T13:50:31Z</time><extensions><speed>0.125387</speed><course>292.365356</course><hAcc>0.889383</hAcc><vAcc>0.717519</vAcc></extensions></trkpt>
      <trkpt lon="-4.152936" lat="53.024723"><ele>320.878876</ele><time>2021-07-17T13:50:32Z</time><extensions><speed>0.165171</speed><course>291.092651</course><hAcc>0.889399</hAcc><vAcc>0.717616</vAcc></extensions></trkpt>
      <trkpt lon="-4.152935" lat="53.024721"><ele>320.880615</ele><time>2021-07-17T13:50:33Z</time><extensions><speed>0.210728</speed><course>297.007721</course><hAcc>0.889400</hAcc><vAcc>0.717679</vAcc></extensions></trkpt>
      <trkpt lon="-4.152934" lat="53.024719"><ele>320.884613</ele><time>2021-07-17T13:50:34Z</time><extensions><speed>0.262175</speed><course>291.539093</course><hAcc>0.889385</hAcc><vAcc>0.717697</vAcc></extensions></trkpt>
      <trkpt lon="-4.152932" lat="53.024717"><ele>320.891144</ele><time>2021-07-17T13:50:35Z</time><extensions><speed>0.319475</speed><course>293.314819</course><hAcc>0.889354</hAcc><vAcc>0.717654</vAcc></extensions></trkpt>
      <trkpt lon="-4.152930" lat="53.024714"><ele>320.900665</ele><time>2021-07-17T13:50:36Z</time><extensions><speed>0.382522</speed><course>297.043213</course><hAcc>0.889305</hAcc><vAcc>0.717534</vAcc></extensions></trkpt>
      <trkpt lon="-4.152928" lat="53.024710"><ele>320.913635</ele><time>2021-07-17T13:50:37Z</time><extensions><speed>0.450961</speed><course>301.573547</course><hAcc>0.889241</hAcc><vAcc>0.717329</vAcc></extensions></trkpt>
      <trkpt lon="-4.152924" lat="53.024706"><ele>320.930450</ele><time>2021-07-17T13:50:38Z</time><extensions><speed>0.523784</speed><course>305.542847</course><hAcc>0.889162</hAcc><vAcc>0.717041</vAcc></extensions></trkpt>
      <trkpt lon="-4.152920" lat="53.024702"><ele>320.951477</ele><time>2021-07-17T13:50:39Z</time><extensions><speed>0.599136</speed><course>304.461029</course><hAcc>0.889068</hAcc><vAcc>0.716685</vAcc></extensions></trkpt>
      <trkpt lon="-4.152915" lat="53.024697"><ele>320.976898</ele><time>2021-07-17T13:50:40Z</time><extensions><speed>0.674390</speed><course>304.519958</course><hAcc>0.888963</hAcc><vAcc>0.716278</vAcc></extensions></trkpt>
      <trkpt lon="-4.152910" lat="53.024692"><ele>321.006714</ele><time>2021-07-17T13:50:41Z</time><extensions><speed>0.746873</speed><course>306.835541</course><hAcc>0.888848</hAcc><vAcc>0.715844</vAcc></extensions></trkpt>
      <trkpt lon="-4.152904" lat="53.024686"><ele>321.040710</ele><time>2021-07-17T13:50:42Z</time><extensions><speed>0.814689</speed><course>312.924469</course><hAcc>0.888728</hAcc><vAcc>0.715401</vAcc></extensions></trkpt>
      <trkpt lon="-4.152897" lat="53.024679"><ele>321.078766</ele><time>2021-07-17T13:50:43Z</time><extensions><speed>0.876749</speed><course>313.121582</course><hAcc>0.888603</hAcc><vAcc>0.714965</vAcc></extensions></trkpt>
      <trkpt lon="-4.152891" lat="53.024672"><ele>321.120575</ele><time>2021-07-17T13:50:44Z</time><extensions><speed>0.932429</speed><course>312.363678</course><hAcc>0.888478</hAcc><vAcc>0.714547</vAcc></extensions></trkpt>
      <trkpt lon="-4.152883" lat="53.024665"><ele>321.165314</ele><time>2021-07-17T13:50:45Z</time><extensions><speed>0.981475</speed><course>309.905548</course><hAcc>0.888353</hAcc><vAcc>0.714151</vAcc></extensions></trkpt>
      <trkpt lon="-4.152876" lat="53.024657"><ele>321.211884</ele><time>2021-07-17T13:50:46Z</time><extensions><speed>1.023812</speed><course>308.597687</course><hAcc>0.888230</hAcc><vAcc>0.713778</vAcc></extensions></trkpt>
      <trkpt lon="-4.152867" lat="53.024649"><ele>321.259003</ele><time>2021-07-17T13:50:47Z</time><extensions><speed>1.059576</speed><course>307.103394</course><hAcc>0.888109</hAcc><vAcc>0.713424</vAcc></extensions></trkpt>
      <trkpt lon="-4.152859" lat="53.024641"><ele>321.304840</ele><time>2021-07-17T13:50:48Z</time><extensions><speed>1.089380</speed><course>306.897400</course><hAcc>0.887990</hAcc><vAcc>0.713079</vAcc></extensions></trkpt>
      <trkpt lon="-4.152850" lat="53.024632"><ele>321.347656</ele><time>2021-07-17T13:50:49Z</time><extensions><speed>1.113436</speed><course>302.152618</course><hAcc>0.887870</hAcc><vAcc>0.712736</vAcc></extensions></trkpt>
      <trkpt lon="-4.152841" lat="53.024624"><ele>321.386444</ele><time>2021-07-17T13:50:50Z</time><extensions><speed>1.131164</speed><course>297.726410</course><hAcc>0.887751</hAcc><vAcc>0.712385</vAcc></extensions></trkpt>
      <trkpt lon="-4.152831" lat="53.024616"><ele>321.421356</ele><time>2021-07-17T13:50:51Z</time><extensions><speed>1.142159</speed><course>300.194183</course><hAcc>0.887629</hAcc><vAcc>0.712016</vAcc></extensions></trkpt>
      <trkpt lon="-4.152822" lat="53.024607"><ele>321.453186</ele><time>2021-07-17T13:50:52Z</time><extensions><speed>1.146561</speed><course>297.151825</course><hAcc>0.887505</hAcc><vAcc>0.711624</vAcc></extensions></trkpt>
      <trkpt lon="-4.152812" lat="53.024599"><ele>321.482971</ele><time>2021-07-17T13:50:53Z</time><extensions><speed>1.144681</speed><course>298.399384</course><hAcc>0.887378</hAcc><vAcc>0.711211</vAcc></extensions></trkpt>
      <trkpt lon="-4.152802" lat="53.024590"><ele>321.511932</ele><time>2021-07-17T13:50:54Z</time><extensions><speed>1.136895</speed><course>300.837921</course><hAcc>0.887248</hAcc><vAcc>0.710784</vAcc></extensions></trkpt>
      <trkpt lon="-4.152792" lat="53.024582"><ele>321.540833</ele><time>2021-07-17T13:50:55Z</time><extensions><speed>1.123635</speed><course>299.844330</course><hAcc>0.887116</hAcc><vAcc>0.710348</vAcc></extensions></trkpt>
      <trkpt lon="-4.152783" lat="53.024574"><ele>321.569794</ele><time>2021-07-17T13:50:56Z</time><extensions><speed>1.105584</speed><course>300.001373</course><hAcc>0.886983</hAcc><vAcc>0.709908</vAcc></extensions></trkpt>
      <trkpt lon="-4.152774" lat="53.024566"><ele>321.599060</ele><time>2021-07-17T13:50:57Z</time><extensions><speed>1.083557</speed><course>294.568817</course><hAcc>0.886850</hAcc><vAcc>0.709471</vAcc></extensions></trkpt>
      <trkpt lon="-4.152765" lat="53.024558"><ele>321.628754</ele><time>2021-07-17T13:50:58Z</time><extensions><speed>1.058396</speed><course>300.687103</course><hAcc>0.886720</hAcc><vAcc>0.709042</vAcc></extensions></trkpt>
      <trkpt lon="-4.152757" lat="53.024550"><ele>321.658508</ele><time>2021-07-17T13:50:59Z</time><extensions><speed>1.031015</speed><course>297.691925</course><hAcc>0.886594</hAcc><vAcc>0.708629</vAcc></extensions></trkpt>
      <trkpt lon="-4.152749" lat="53.024542"><ele>321.687714</ele><time>2021-07-17T13:51:00Z</time><extensions><speed>1.002574</speed><course>293.928223</course><hAcc>0.886474</hAcc><vAcc>0.708242</vAcc></extensions></trkpt>
      <trkpt lon="-4.152741" lat="53.024534"><ele>321.715790</ele><time>2021-07-17T13:51:01Z</time><extensions><speed>0.974424</speed><course>297.041656</course><hAcc>0.886364</hAcc><vAcc>0.707888</vAcc></extensions></trkpt>
      <trkpt lon="-4.152734" lat="53.024527"><ele>321.741699</ele><time>2021-07-17T13:51:02Z</time><extensions><speed>0.947988</speed><course>298.722290</course><hAcc>0.886264</hAcc><vAcc>0.707576</vAcc></extensions></trkpt>
      <trkpt lon="-4.152727" lat="53.024519"><ele>321.764008</ele><time>2021-07-17T13:51:03Z</time><extensions><speed>0.925113</speed><course>296.674316</course><hAcc>0.886177</hAcc><vAcc>0.707313</vAcc></extensions></trkpt>
      <trkpt lon="-4.152720" lat="53.024512"><ele>321.781342</ele><time>2021-07-17T13:51:04Z</time><extensions><speed>0.907972</speed><course>301.147156</course><hAcc>0.886105</hAcc><vAcc>0.707103</vAcc></extensions></trkpt>
      <trkpt lon="-4.152713" lat="53.024505"><ele>321.792816</ele><time>2021-07-17T13:51:04Z</time><extensions><speed>0.898604</speed><course>301.618805</course><hAcc>0.886068</hAcc><vAcc>0.706965</vAcc></extensions></trkpt>
      <trkpt lon="-4.152706" lat="53.024499"><ele>321.797913</ele><time>2021-07-17T13:51:05Z</time><extensions><speed>0.898895</speed><course>300.678009</course><hAcc>0.886068</hAcc><vAcc>0.706904</vAcc></extensions></trkpt>
      <trkpt lon="-4.152698" lat="53.024492"><ele>321.796722</ele><time>2021-07-17T13:51:06Z</time><extensions><speed>0.910424</speed><course>306.078644</course><hAcc>0.886092</hAcc><vAcc>0.706919</vAcc></extensions></trkpt>
      <trkpt lon="-4.152689" lat="53.024486"><ele>321.789948</ele><time>2021-07-17T13:51:07Z</time><extensions><speed>0.934312</speed><course>302.099213</course><hAcc>0.886141</hAcc><vAcc>0.707019</vAcc></extensions></trkpt>
      <trkpt lon="-4.152680" lat="53.024479"><ele>321.778259</ele><time>2021-07-17T13:51:08Z</time><extensions><speed>0.971343</speed><course>298.253754</course><hAcc>0.886217</hAcc><vAcc>0.707218</vAcc></extensions></trkpt>
      <trkpt lon="-4.152669" lat="53.024473"><ele>321.762238</ele><time>2021-07-17T13:51:09Z</time><extensions><speed>1.020215</speed><course>299.772583</course><hAcc>0.886321</hAcc><vAcc>0.707525</vAcc></extensions></trkpt>
      <trkpt lon="-4.152657" lat="53.024467"><ele>321.742859</ele><time>2021-07-17T13:51:10Z</time><extensions><speed>1.076794</speed><course>299.946075</course><hAcc>0.886452</hAcc><vAcc>0.707949</vAcc></extensions></trkpt>
      <trkpt lon="-4.152644" lat="53.024461"><ele>321.721375</ele><time>2021-07-17T13:51:11Z</time><extensions><speed>1.135959</speed><course>303.968170</course><hAcc>0.886607</hAcc><vAcc>0.708483</vAcc></extensions></trkpt>
      <trkpt lon="-4.152629" lat="53.024456"><ele>321.698059</ele><time>2021-07-17T13:51:12Z</time><extensions><speed>1.193324</speed><course>302.223755</course><hAcc>0.886783</hAcc><vAcc>0.709112</vAcc></extensions></trkpt>
      <trkpt lon="-4.152614" lat="53.024450"><ele>321.672516</ele><time>2021-07-17T13:51:13Z</time><extensions><speed>1.246167</speed><course>303.590851</course><hAcc>0.886973</hAcc><vAcc>0.709811</vAcc></extensions></trkpt>
      <trkpt lon="-4.152597" lat="53.024445"><ele>321.644104</ele><time>2021-07-17T13:51:14Z</time><extensions><speed>1.292983</speed><course>302.656281</course><hAcc>0.887171</hAcc><vAcc>0.710545</vAcc></extensions></trkpt>
      <trkpt lon="-4.152579" lat="53.024440"><ele>321.611969</ele><time>2021-07-17T13:51:15Z</time><extensions><speed>1.332464</speed><course>307.857574</course><hAcc>0.887369</hAcc><vAcc>0.711277</vAcc></extensions></trkpt>
      <trkpt lon="-4.152561" lat="53.024435"><ele>321.574646</ele><time>2021-07-17T13:51:16Z</time><extensions><speed>1.363803</speed><course>306.241272</course><hAcc>0.887562</hAcc><vAcc>0.711972</vAcc></extensions></trkpt>
      <trkpt lon="-4.152542" lat="53.024430"><ele>321.529816</ele><time>2021-07-17T13:51:17Z</time><extensions><speed>1.386685</speed><course>302.560516</course><hAcc>0.887742</hAcc><vAcc>0.712601</vAcc></extensions></trkpt>
      <trkpt lon="-4.152522" lat="53.024426"><ele>321.474884</ele><time>2021-07-17T13:51:18Z</time><extensions><speed>1.401453</speed><course>304.207947</course><hAcc>0.887905</hAcc><vAcc>0.713145</vAcc></extensions></trkpt>
      <trkpt lon="-4.152502" lat="53.024422"><ele>321.407349</ele><time>2021-07-17T13:51:19Z</time><extensions><speed>1.409248</speed><course>304.678192</course><hAcc>0.888047</hAcc><vAcc>0.713593</vAcc></extensions></trkpt>
      <trkpt lon="-4.152482" lat="53.024418"><ele>321.324921</ele><time>2021-07-17T13:51:20Z</time><extensions><speed>1.411087</speed><course>300.816559</course><hAcc>0.888167</hAcc><vAcc>0.713945</vAcc></extensions></trkpt>
      <trkpt lon="-4.152462" lat="53.024415"><ele>321.225494</ele><time>2021-07-17T13:51:21Z</time><extensions><speed>1.407601</speed><course>302.457642</course><hAcc>0.888264</hAcc><vAcc>0.714207</vAcc></extensions></trkpt>
      <trkpt lon="-4.152442" lat="53.024412"><ele>321.107666</ele><time>2021-07-17T13:51:22Z</time><extensions><speed>1.399172</speed><course>303.405792</course><hAcc>0.888341</hAcc><vAcc>0.714390</vAcc></extensions></trkpt>
      <trkpt lon="-4.152421" lat="53.024409"><ele>320.970490</ele><time>2021-07-17T13:51:23Z</time><extensions><speed>1.385840</speed><course>305.179382</course><hAcc>0.888400</hAcc><vAcc>0.714512</vAcc></extensions></trkpt>
      <trkpt lon="-4.152401" lat="53.024407"><ele>320.813599</ele><time>2021-07-17T13:51:24Z</time><extensions><speed>1.367201</speed><course>301.811188</course><hAcc>0.888445</hAcc><vAcc>0.714591</vAcc></extensions></trkpt>
      <trkpt lon="-4.152381" lat="53.024404"><ele>320.637360</ele><time>2021-07-17T13:51:25Z</time><extensions><speed>1.342579</speed><course>294.111877</course><hAcc>0.888481</hAcc><vAcc>0.714646</vAcc></extensions></trkpt>
      <trkpt lon="-4.152362" lat="53.024402"><ele>320.442932</ele><time>2021-07-17T13:51:26Z</time><extensions><speed>1.311129</speed><course>291.186249</course><hAcc>0.888510</hAcc><vAcc>0.714691</vAcc></extensions></trkpt>
      <trkpt lon="-4.152343" lat="53.024401"><ele>320.232574</ele><time>2021-07-17T13:51:27Z</time><extensions><speed>1.271959</speed><course>291.833313</course><hAcc>0.888538</hAcc><vAcc>0.714741</vAcc></extensions></trkpt>
      <trkpt lon="-4.152324" lat="53.024399"><ele>320.009277</ele><time>2021-07-17T13:51:28Z</time><extensions><speed>1.224388</speed><course>293.198639</course><hAcc>0.888567</hAcc><vAcc>0.714806</vAcc></extensions></trkpt>
      <trkpt lon="-4.152307" lat="53.024398"><ele>319.776276</ele><time>2021-07-17T13:51:29Z</time><extensions><speed>1.168498</speed><course>297.953094</course><hAcc>0.888599</hAcc><vAcc>0.714892</vAcc></extensions></trkpt>
      <trkpt lon="-4.152290" lat="53.024397"><ele>319.537201</ele><time>2021-07-17T13:51:30Z</time><extensions><speed>1.105276</speed><course>294.998413</course><hAcc>0.888636</hAcc><vAcc>0.715004</vAcc></extensions></trkpt>
      <trkpt lon="-4.152274" lat="53.024397"><ele>319.295349</ele><time>2021-07-17T13:51:31Z</time><extensions><speed>1.035889</speed><course>290.333923</course><hAcc>0.888675</hAcc><vAcc>0.715144</vAcc></extensions></trkpt>
      <trkpt lon="-4.152259" lat="53.024396"><ele>319.052917</ele><time>2021-07-17T13:51:32Z</time><extensions><speed>0.961925</speed><course>297.336884</course><hAcc>0.888714</hAcc><vAcc>0.715311</vAcc></extensions></trkpt>
      <trkpt lon="-4.152245" lat="53.024396"><ele>318.811707</ele><time>2021-07-17T13:51:33Z</time><extensions><speed>0.885613</speed><course>291.763641</course><hAcc>0.888751</hAcc><vAcc>0.715496</vAcc></extensions></trkpt>
      <trkpt lon="-4.152233" lat="53.024396"><ele>318.574066</ele><time>2021-07-17T13:51:34Z</time><extensions><speed>0.808733</speed><course>293.588959</course><hAcc>0.888781</hAcc><vAcc>0.715684</vAcc></extensions></trkpt>
      <trkpt lon="-4.152221" lat="53.024395"><ele>318.342743</ele><time>2021-07-17T13:51:35Z</time><extensions><speed>0.731696</speed><course>298.534668</course><hAcc>0.888800</hAcc><vAcc>0.715850</vAcc></extensions></trkpt>
      <trkpt lon="-4.152211" lat="53.024395"><ele>318.120270</ele><time>2021-07-17T13:51:36Z</time><extensions><speed>0.654475</speed><course>294.834351</course><hAcc>0.888805</hAcc><vAcc>0.715964</vAcc></extensions></trkpt>
      <trkpt lon="-4.152202" lat="53.024395"><ele>317.908813</ele><time>2021-07-17T13:51:37Z</time><extensions><speed>0.577828</speed><course>297.698059</course><hAcc>0.888794</hAcc><vAcc>0.715998</vAcc></extensions></trkpt>
      <trkpt lon="-4.152194" lat="53.024395"><ele>317.710297</ele><time>2021-07-17T13:51:38Z</time><extensions><speed>0.503277</speed><course>298.511444</course><hAcc>0.888766</hAcc><vAcc>0.715931</vAcc></extensions></trkpt>
      <trkpt lon="-4.152187" lat="53.024395"><ele>317.525879</ele><time>2021-07-17T13:51:39Z</time><extensions><speed>0.432989</speed><course>303.054443</course><hAcc>0.888721</hAcc><vAcc>0.715757</vAcc></extensions></trkpt>
      <trkpt lon="-4.152181" lat="53.024395"><ele>317.355896</ele><time>2021-07-17T13:51:40Z</time><extensions><speed>0.369816</speed><course>300.594757</course><hAcc>0.888661</hAcc><vAcc>0.715486</vAcc></extensions></trkpt>
      <trkpt lon="-4.152176" lat="53.024395"><ele>317.200226</ele><time>2021-07-17T13:51:41Z</time><extensions><speed>0.316635</speed><course>303.489990</course><hAcc>0.888590</hAcc><vAcc>0.715144</vAcc></extensions></trkpt>
      <trkpt lon="-4.152171" lat="53.024395"><ele>317.058167</ele><time>2021-07-17T13:51:42Z</time><extensions><speed>0.275915</speed><course>307.296783</course><hAcc>0.888513</hAcc><vAcc>0.714765</vAcc></extensions></trkpt>
      <trkpt lon="-4.152167" lat="53.024394"><ele>316.928314</ele><time>2021-07-17T13:51:43Z</time><extensions><speed>0.249613</speed><course>306.846466</course><hAcc>0.888434</hAcc><vAcc>0.714388</vAcc></extensions></trkpt>
      <trkpt lon="-4.152164" lat="53.024394"><ele>316.808777</ele><time>2021-07-17T13:51:44Z</time><extensions><speed>0.238418</speed><course>314.303711</course><hAcc>0.888360</hAcc><vAcc>0.714049</vAcc></extensions></trkpt>
      <trkpt lon="-4.152161" lat="53.024393"><ele>316.697296</ele><time>2021-07-17T13:51:45Z</time><extensions><speed>0.241435</speed><course>316.753265</course><hAcc>0.888295</hAcc><vAcc>0.713774</vAcc></extensions></trkpt>
      <trkpt lon="-4.152157" lat="53.024392"><ele>316.591675</ele><time>2021-07-17T13:51:46Z</time><extensions><speed>0.256465</speed><course>312.101562</course><hAcc>0.888244</hAcc><vAcc>0.713584</vAcc></extensions></trkpt>
      <trkpt lon="-4.152154" lat="53.024391"><ele>316.489746</ele><time>2021-07-17T13:51:47Z</time><extensions><speed>0.281182</speed><course>310.983948</course><hAcc>0.888209</hAcc><vAcc>0.713486</vAcc></extensions></trkpt>
      <trkpt lon="-4.152150" lat="53.024390"><ele>316.389557</ele><time>2021-07-17T13:51:48Z</time><extensions><speed>0.313613</speed><course>316.824890</course><hAcc>0.888188</hAcc><vAcc>0.713477</vAcc></extensions></trkpt>
      <trkpt lon="-4.152145" lat="53.024388"><ele>316.289612</ele><time>2021-07-17T13:51:49Z</time><extensions><speed>0.351617</speed><course>324.005005</course><hAcc>0.888182</hAcc><vAcc>0.713540</vAcc></extensions></trkpt>
      <trkpt lon="-4.152140" lat="53.024387"><ele>316.189178</ele><time>2021-07-17T13:51:50Z</time><extensions><speed>0.393167</speed><course>322.091736</course><hAcc>0.888186</hAcc><vAcc>0.713653</vAcc></extensions></trkpt>
      <trkpt lon="-4.152135" lat="53.024385"><ele>316.087311</ele><time>2021-07-17T13:51:51Z</time><extensions><speed>0.435888</speed><course>322.830170</course><hAcc>0.888198</hAcc><vAcc>0.713785</vAcc></extensions></trkpt>
      <trkpt lon="-4.152129" lat="53.024383"><ele>315.982025</ele><time>2021-07-17T13:51:52Z</time><extensions><speed>0.476257</speed><course>325.823517</course><hAcc>0.888213</hAcc><vAcc>0.713911</vAcc></extensions></trkpt>
      <trkpt lon="-4.152122" lat="53.024381"><ele>315.871338</ele><time>2021-07-17T13:51:53Z</time><extensions><speed>0.511424</speed><course>331.853210</course><hAcc>0.888228</hAcc><vAcc>0.714008</vAcc></extensions></trkpt>
      <trkpt lon="-4.152115" lat="53.024379"><ele>315.754211</ele><time>2021-07-17T13:51:54Z</time><extensions><speed>0.540200</speed><course>331.260956</course><hAcc>0.888240</hAcc><vAcc>0.714061</vAcc></extensions></trkpt>
      <trkpt lon="-4.152108" lat="53.024377"><ele>315.630463</ele><time>2021-07-17T13:51:55Z</time><extensions><speed>0.562350</speed><course>329.072571</course><hAcc>0.888249</hAcc><vAcc>0.714065</vAcc></extensions></trkpt>
      <trkpt lon="-4.152100" lat="53.024375"><ele>315.500214</ele><time>2021-07-17T13:51:56Z</time><extensions><speed>0.578545</speed><course>325.473938</course><hAcc>0.888253</hAcc><vAcc>0.714026</vAcc></extensions></trkpt>
      <trkpt lon="-4.152092" lat="53.024373"><ele>315.364014</ele><time>2021-07-17T13:51:57Z</time><extensions><speed>0.589837</speed><course>325.383026</course><hAcc>0.888256</hAcc><vAcc>0.713960</vAcc></extensions></trkpt>
      <trkpt lon="-4.152084" lat="53.024371"><ele>315.222382</ele><time>2021-07-17T13:51:58Z</time><extensions><speed>0.597814</speed><course>325.061401</course><hAcc>0.888257</hAcc><vAcc>0.713887</vAcc></extensions></trkpt>
      <trkpt lon="-4.152076" lat="53.024369"><ele>315.075714</ele><time>2021-07-17T13:51:59Z</time><extensions><speed>0.604589</speed><course>325.207275</course><hAcc>0.888261</hAcc><vAcc>0.713830</vAcc></extensions></trkpt>
      <trkpt lon="-4.152067" lat="53.024367"><ele>314.924713</ele><time>2021-07-17T13:52:00Z</time><extensions><speed>0.612215</speed><course>322.410889</course><hAcc>0.888270</hAcc><vAcc>0.713810</vAcc></extensions></trkpt>
      <trkpt lon="-4.152059" lat="53.024364"><ele>314.770477</ele><time>2021-07-17T13:52:01Z</time><extensions><speed>0.622764</speed><course>319.218658</course><hAcc>0.888285</hAcc><vAcc>0.713840</vAcc></extensions></trkpt>
      <trkpt lon="-4.152050" lat="53.024362"><ele>314.614227</ele><time>2021-07-17T13:52:02Z</time><extensions><speed>0.637772</speed><course>319.790588</course><hAcc>0.888310</hAcc><vAcc>0.713926</vAcc></extensions></trkpt>
      <trkpt lon="-4.152041" lat="53.024360"><ele>314.457245</ele><time>2021-07-17T13:52:03Z</time><extensions><speed>0.657520</speed><course>318.972229</course><hAcc>0.888343</hAcc><vAcc>0.714065</vAcc></extensions></trkpt>
      <trkpt lon="-4.152032" lat="53.024358"><ele>314.300629</ele><time>2021-07-17T13:52:04Z</time><extensions><speed>0.681131</speed><course>320.354065</course><hAcc>0.888385</hAcc><vAcc>0.714247</vAcc></extensions></trkpt>
      <trkpt lon="-4.152022" lat="53.024356"><ele>314.145233</ele><time>2021-07-17T13:52:05Z</time><extensions><speed>0.707226</speed><course>320.541016</course><hAcc>0.888436</hAcc><vAcc>0.714454</vAcc></extensions></trkpt>
      <trkpt lon="-4.152012" lat="53.024354"><ele>313.991516</ele><time>2021-07-17T13:52:06Z</time><extensions><speed>0.734195</speed><course>317.906189</course><hAcc>0.888492</hAcc><vAcc>0.714670</vAcc></extensions></trkpt>
      <trkpt lon="-4.152001" lat="53.024353"><ele>313.839813</ele><time>2021-07-17T13:52:07Z</time><extensions><speed>0.759863</speed><course>316.077393</course><hAcc>0.888551</hAcc><vAcc>0.714884</vAcc></extensions></trkpt>
      <trkpt lon="-4.151990" lat="53.024351"><ele>313.690216</ele><time>2021-07-17T13:52:08Z</time><extensions><speed>0.782097</speed><course>307.356537</course><hAcc>0.888610</hAcc><vAcc>0.715091</vAcc></extensions></trkpt>
      <trkpt lon="-4.151978" lat="53.024349"><ele>313.543152</ele><time>2021-07-17T13:52:09Z</time><extensions><speed>0.799451</speed><course>302.004150</course><hAcc>0.888665</hAcc><vAcc>0.715287</vAcc></extensions></trkpt>
      <trkpt lon="-4.151966" lat="53.024348"><ele>313.399231</ele><time>2021-07-17T13:52:10Z</time><extensions><speed>0.811361</speed><course>310.520874</course><hAcc>0.888714</hAcc><vAcc>0.715465</vAcc></extensions></trkpt>
      <trkpt lon="-4.151954" lat="53.024347"><ele>313.259277</ele><time>2021-07-17T13:52:11Z</time><extensions><speed>0.817684</speed><course>307.778412</course><hAcc>0.888754</hAcc><vAcc>0.715617</vAcc></extensions></trkpt>
      <trkpt lon="-4.151942" lat="53.024347"><ele>313.124207</ele><time>2021-07-17T13:52:12Z</time><extensions><speed>0.818764</speed><course>310.132080</course><hAcc>0.888783</hAcc><vAcc>0.715733</vAcc></extensions></trkpt>
      <trkpt lon="-4.151930" lat="53.024346"><ele>312.994995</ele><time>2021-07-17T13:52:13Z</time><extensions><speed>0.815406</speed><course>310.327301</course><hAcc>0.888799</hAcc><vAcc>0.715802</vAcc></extensions></trkpt>
      <trkpt lon="-4.151918" lat="53.024346"><ele>312.872742</ele><time>2021-07-17T13:52:14Z</time><extensions><speed>0.808499</speed><course>308.925873</course><hAcc>0.888802</hAcc><vAcc>0.715819</vAcc></extensions></trkpt>
      <trkpt lon="-4.151906" lat="53.024346"><ele>312.758575</ele><time>2021-07-17T13:52:15Z</time><extensions><speed>0.798797</speed><course>308.955322</course><hAcc>0.888790</hAcc><vAcc>0.715781</vAcc></extensions></trkpt>
      <trkpt lon="-4.151894" lat="53.024347"><ele>312.653168</ele><time>2021-07-17T13:52:16Z</time><extensions><speed>0.787136</speed><course>303.152588</course><hAcc>0.888764</hAcc><vAcc>0.715688</vAcc></extensions></trkpt>
      <trkpt lon="-4.151883" lat="53.024348"><ele>312.556732</ele><time>2021-07-17T13:52:17Z</time><extensions><speed>0.774130</speed><course>313.156525</course><hAcc>0.888725</hAcc><vAcc>0.715542</vAcc></extensions></trkpt>
      <trkpt lon="-4.151871" lat="53.024349"><ele>312.469391</ele><time>2021-07-17T13:52:18Z</time><extensions><speed>0.759416</speed><course>307.864197</course><hAcc>0.888674</hAcc><vAcc>0.715350</vAcc></extensions></trkpt>
      <trkpt lon="-4.151860" lat="53.024350"><ele>312.391296</ele><time>2021-07-17T13:52:19Z</time><extensions><speed>0.741729</speed><course>309.541687</course><hAcc>0.888613</hAcc><vAcc>0.715121</vAcc></extensions></trkpt>
      <trkpt lon="-4.151850" lat="53.024352"><ele>312.322388</ele><time>2021-07-17T13:52:20Z</time><extensions><speed>0.719472</speed><course>312.130341</course><hAcc>0.888543</hAcc><vAcc>0.714865</vAcc></extensions></trkpt>
      <trkpt lon="-4.151840" lat="53.024353"><ele>312.261902</ele><time>2021-07-17T13:52:21Z</time><extensions><speed>0.691395</speed><course>310.268982</course><hAcc>0.888467</hAcc><vAcc>0.714592</vAcc></extensions></trkpt>
      <trkpt lon="-4.151830" lat="53.024355"><ele>312.209290</ele><time>2021-07-17T13:52:22Z</time><extensions><speed>0.657188</speed><course>308.247070</course><hAcc>0.888388</hAcc><vAcc>0.714312</vAcc></extensions></trkpt>
      <trkpt lon="-4.151821" lat="53.024356"><ele>312.164520</ele><time>2021-07-17T13:52:23Z</time><extensions><speed>0.617930</speed><course>304.229858</course><hAcc>0.888308</hAcc><vAcc>0.714033</vAcc></extensions></trkpt>
      <trkpt lon="-4.151812" lat="53.024358"><ele>312.127838</ele><time>2021-07-17T13:52:24Z</time><extensions><speed>0.575915</speed><course>308.310059</course><hAcc>0.888230</hAcc><vAcc>0.713763</vAcc></extensions></trkpt>
      <trkpt lon="-4.151804" lat="53.024359"><ele>312.099579</ele><time>2021-07-17T13:52:25Z</time><extensions><speed>0.533960</speed><course>311.142822</course><hAcc>0.888157</hAcc><vAcc>0.713505</vAcc></extensions></trkpt>
      <trkpt lon="-4.151797" lat="53.024360"><ele>312.080139</ele><time>2021-07-17T13:52:26Z</time><extensions><speed>0.494604</speed><course>305.518036</course><hAcc>0.888092</hAcc><vAcc>0.713261</vAcc></extensions></trkpt>
      <trkpt lon="-4.151790" lat="53.024361"><ele>312.069763</ele><time>2021-07-17T13:52:27Z</time><extensions><speed>0.461241</speed><course>303.061462</course><hAcc>0.888039</hAcc><vAcc>0.713034</vAcc></extensions></trkpt>
      <trkpt lon="-4.151783" lat="53.024362"><ele>312.068512</ele><time>2021-07-17T13:52:29Z</time><extensions><speed>0.437747</speed><course>298.232086</course><hAcc>0.887981</hAcc><vAcc>0.712820</vAcc></extensions></trkpt>
      <trkpt lon="-4.151777" lat="53.024362"><ele>312.076202</ele><time>2021-07-17T13:52:30Z</time><extensions><speed>0.426578</speed><course>289.358276</course><hAcc>0.887921</hAcc><vAcc>0.712629</vAcc></extensions></trkpt>
      <trkpt lon="-4.151770" lat="53.024362"><ele>312.092468</ele><time>2021-07-17T13:52:31Z</time><extensions><speed>0.428117</speed><course>285.924469</course><hAcc>0.887877</hAcc><vAcc>0.712488</vAcc></extensions></trkpt>
      <trkpt lon="-4.151764" lat="53.024362"><ele>312.117096</ele><time>2021-07-17T13:52:32Z</time><extensions><speed>0.440986</speed><course>280.520447</course><hAcc>0.887847</hAcc><vAcc>0.712412</vAcc></extensions></trkpt>
      <trkpt lon="-4.151757" lat="53.024362"><ele>312.150116</ele><time>2021-07-17T13:52:33Z</time><extensions><speed>0.462681</speed><course>286.862061</course><hAcc>0.887832</hAcc><vAcc>0.712405</vAcc></extensions></trkpt>
      <trkpt lon="-4.151750" lat="53.024361"><ele>312.191650</ele><time>2021-07-17T13:52:34Z</time><extensions><speed>0.490846</speed><course>295.700317</course><hAcc>0.887830</hAcc><vAcc>0.712454</vAcc></extensions></trkpt>
      <trkpt lon="-4.151743" lat="53.024361"><ele>312.242004</ele><time>2021-07-17T13:52:35Z</time><extensions><speed>0.523600</speed><course>296.161560</course><hAcc>0.887837</hAcc><vAcc>0.712540</vAcc></extensions></trkpt>
      <trkpt lon="-4.151735" lat="53.024360"><ele>312.301666</ele><time>2021-07-17T13:52:36Z</time><extensions><speed>0.559389</speed><course>298.229218</course><hAcc>0.887854</hAcc><vAcc>0.712643</vAcc></extensions></trkpt>
      <trkpt lon="-4.151726" lat="53.024358"><ele>312.371063</ele><time>2021-07-17T13:52:37Z</time><extensions><speed>0.596666</speed><course>297.545471</course><hAcc>0.887876</hAcc><vAcc>0.712747</vAcc></extensions></trkpt>
      <trkpt lon="-4.151718" lat="53.024357"><ele>312.450104</ele><time>2021-07-17T13:52:38Z</time><extensions><speed>0.633871</speed><course>292.454163</course><hAcc>0.887903</hAcc><vAcc>0.712844</vAcc></extensions></trkpt>
      <trkpt lon="-4.151708" lat="53.024356"><ele>312.538300</ele><time>2021-07-17T13:52:39Z</time><extensions><speed>0.669947</speed><course>287.195465</course><hAcc>0.887933</hAcc><vAcc>0.712931</vAcc></extensions></trkpt>
      <trkpt lon="-4.151698" lat="53.024354"><ele>312.634613</ele><time>2021-07-17T13:52:40Z</time><extensions><speed>0.704213</speed><course>283.339600</course><hAcc>0.887965</hAcc><vAcc>0.713011</vAcc></extensions></trkpt>
      <trkpt lon="-4.151688" lat="53.024353"><ele>312.737183</ele><time>2021-07-17T13:52:41Z</time><extensions><speed>0.735610</speed><course>283.687531</course><hAcc>0.887999</hAcc><vAcc>0.713093</vAcc></extensions></trkpt>
      <trkpt lon="-4.151677" lat="53.024352"><ele>312.843933</ele><time>2021-07-17T13:52:42Z</time><extensions><speed>0.763823</speed><course>284.089417</course><hAcc>0.888035</hAcc><vAcc>0.713183</vAcc></extensions></trkpt>
      <trkpt lon="-4.151665" lat="53.024350"><ele>312.952942</ele><time>2021-07-17T13:52:43Z</time><extensions><speed>0.789620</speed><course>286.432800</course><hAcc>0.888072</hAcc><vAcc>0.713286</vAcc></extensions></trkpt>
      <trkpt lon="-4.151654" lat="53.024349"><ele>313.062744</ele><time>2021-07-17T13:52:44Z</time><extensions><speed>0.813117</speed><course>288.844025</course><hAcc>0.888113</hAcc><vAcc>0.713406</vAcc></extensions></trkpt>
      <trkpt lon="-4.151641" lat="53.024348"><ele>313.172699</ele><time>2021-07-17T13:52:45Z</time><extensions><speed>0.833646</speed><course>294.600861</course><hAcc>0.888156</hAcc><vAcc>0.713542</vAcc></extensions></trkpt>
      <trkpt lon="-4.151629" lat="53.024348"><ele>313.282288</ele><time>2021-07-17T13:52:46Z</time><extensions><speed>0.850492</speed><course>289.399475</course><hAcc>0.888203</hAcc><vAcc>0.713695</vAcc></extensions></trkpt>
      <trkpt lon="-4.151616" lat="53.024348"><ele>313.390717</ele><time>2021-07-17T13:52:47Z</time><extensions><speed>0.863140</speed><course>292.462738</course><hAcc>0.888253</hAcc><vAcc>0.713863</vAcc></extensions></trkpt>
      <trkpt lon="-4.151603" lat="53.024347"><ele>313.496948</ele><time>2021-07-17T13:52:48Z</time><extensions><speed>0.871583</speed><course>292.044128</course><hAcc>0.888305</hAcc><vAcc>0.714042</vAcc></extensions></trkpt>
      <trkpt lon="-4.151590" lat="53.024347"><ele>313.599396</ele><time>2021-07-17T13:52:49Z</time><extensions><speed>0.876197</speed><course>289.426849</course><hAcc>0.888357</hAcc><vAcc>0.714229</vAcc></extensions></trkpt>
      <trkpt lon="-4.151577" lat="53.024348"><ele>313.696014</ele><time>2021-07-17T13:52:50Z</time><extensions><speed>0.877173</speed><course>292.821838</course><hAcc>0.888409</hAcc><vAcc>0.714420</vAcc></extensions></trkpt>
      <trkpt lon="-4.151564" lat="53.024348"><ele>313.784973</ele><time>2021-07-17T13:52:51Z</time><extensions><speed>0.874798</speed><course>287.405121</course><hAcc>0.888459</hAcc><vAcc>0.714606</vAcc></extensions></trkpt>
      <trkpt lon="-4.151551" lat="53.024349"><ele>313.864777</ele><time>2021-07-17T13:52:52Z</time><extensions><speed>0.870120</speed><course>289.328461</course><hAcc>0.888504</hAcc><vAcc>0.714778</vAcc></extensions></trkpt>
      <trkpt lon="-4.151538" lat="53.024350"><ele>313.934448</ele><time>2021-07-17T13:52:53Z</time><extensions><speed>0.864923</speed><course>290.686554</course><hAcc>0.888544</hAcc><vAcc>0.714929</vAcc></extensions></trkpt>
      <trkpt lon="-4.151526" lat="53.024352"><ele>313.993134</ele><time>2021-07-17T13:52:54Z</time><extensions><speed>0.860919</speed><course>291.519623</course><hAcc>0.888577</hAcc><vAcc>0.715050</vAcc></extensions></trkpt>
      <trkpt lon="-4.151513" lat="53.024353"><ele>314.040039</ele><time>2021-07-17T13:52:55Z</time><extensions><speed>0.858792</speed><course>289.260345</course><hAcc>0.888601</hAcc><vAcc>0.715139</vAcc></extensions></trkpt>
      <trkpt lon="-4.151501" lat="53.024355"><ele>314.074402</ele><time>2021-07-17T13:52:56Z</time><extensions><speed>0.858202</speed><course>291.671295</course><hAcc>0.888618</hAcc><vAcc>0.715190</vAcc></extensions></trkpt>
      <trkpt lon="-4.151489" lat="53.024358"><ele>314.095978</ele><time>2021-07-17T13:52:57Z</time><extensions><speed>0.859030</speed><course>285.797272</course><hAcc>0.888626</hAcc><vAcc>0.715203</vAcc></extensions></trkpt>
      <trkpt lon="-4.151476" lat="53.024360"><ele>314.105103</ele><time>2021-07-17T13:52:58Z</time><extensions><speed>0.861625</speed><course>284.045776</course><hAcc>0.888626</hAcc><vAcc>0.715181</vAcc></extensions></trkpt>
      <trkpt lon="-4.151464" lat="53.024363"><ele>314.102570</ele><time>2021-07-17T13:52:59Z</time><extensions><speed>0.866697</speed><course>290.744446</course><hAcc>0.888619</hAcc><vAcc>0.715130</vAcc></extensions></trkpt>
      <trkpt lon="-4.151453" lat="53.024366"><ele>314.089417</ele><time>2021-07-17T13:53:00Z</time><extensions><speed>0.874522</speed><course>286.155334</course><hAcc>0.888605</hAcc><vAcc>0.715060</vAcc></extensions></trkpt>
      <trkpt lon="-4.151441" lat="53.024370"><ele>314.067200</ele><time>2021-07-17T13:53:01Z</time><extensions><speed>0.884413</speed><course>292.078705</course><hAcc>0.888585</hAcc><vAcc>0.714978</vAcc></extensions></trkpt>
      <trkpt lon="-4.151429" lat="53.024373"><ele>314.037537</ele><time>2021-07-17T13:53:02Z</time><extensions><speed>0.895728</speed><course>292.906311</course><hAcc>0.888559</hAcc><vAcc>0.714890</vAcc></extensions></trkpt>
      <trkpt lon="-4.151417" lat="53.024377"><ele>314.001953</ele><time>2021-07-17T13:53:03Z</time><extensions><speed>0.908628</speed><course>291.462067</course><hAcc>0.888529</hAcc><vAcc>0.714800</vAcc></extensions></trkpt>
      <trkpt lon="-4.151405" lat="53.024381"><ele>313.961670</ele><time>2021-07-17T13:53:04Z</time><extensions><speed>0.923460</speed><course>290.448425</course><hAcc>0.888495</hAcc><vAcc>0.714707</vAcc></extensions></trkpt>
      <trkpt lon="-4.151393" lat="53.024385"><ele>313.917816</ele><time>2021-07-17T13:53:05Z</time><extensions><speed>0.940509</speed><course>295.857269</course><hAcc>0.888456</hAcc><vAcc>0.714608</vAcc></extensions></trkpt>
      <trkpt lon="-4.151381" lat="53.024389"><ele>313.871552</ele><time>2021-07-17T13:53:06Z</time><extensions><speed>0.960045</speed><course>298.185364</course><hAcc>0.888413</hAcc><vAcc>0.714501</vAcc></extensions></trkpt>
      <trkpt lon="-4.151368" lat="53.024394"><ele>313.823792</ele><time>2021-07-17T13:53:07Z</time><extensions><speed>0.981175</speed><course>294.469940</course><hAcc>0.888367</hAcc><vAcc>0.714379</vAcc></extensions></trkpt>
      <trkpt lon="-4.151355" lat="53.024398"><ele>313.775238</ele><time>2021-07-17T13:53:08Z</time><extensions><speed>1.002253</speed><course>292.898438</course><hAcc>0.888317</hAcc><vAcc>0.714241</vAcc></extensions></trkpt>
      <trkpt lon="-4.151342" lat="53.024402"><ele>313.726685</ele><time>2021-07-17T13:53:09Z</time><extensions><speed>1.021924</speed><course>292.422791</course><hAcc>0.888265</hAcc><vAcc>0.714088</vAcc></extensions></trkpt>
      <trkpt lon="-4.151328" lat="53.024406"><ele>313.678589</ele><time>2021-07-17T13:53:10Z</time><extensions><speed>1.039101</speed><course>292.622986</course><hAcc>0.888209</hAcc><vAcc>0.713924</vAcc></extensions></trkpt>
      <trkpt lon="-4.151314" lat="53.024410"><ele>313.630951</ele><time>2021-07-17T13:53:10Z</time><extensions><speed>1.052874</speed><course>292.749084</course><hAcc>0.888171</hAcc><vAcc>0.713769</vAcc></extensions></trkpt>
      <trkpt lon="-4.151299" lat="53.024413"><ele>313.583160</ele><time>2021-07-17T13:53:11Z</time><extensions><speed>1.062563</speed><course>294.832458</course><hAcc>0.888152</hAcc><vAcc>0.713633</vAcc></extensions></trkpt>
      <trkpt lon="-4.151284" lat="53.024417"><ele>313.534271</ele><time>2021-07-17T13:53:12Z</time><extensions><speed>1.067841</speed><course>290.563019</course><hAcc>0.888136</hAcc><vAcc>0.713517</vAcc></extensions></trkpt>
      <trkpt lon="-4.151269" lat="53.024420"><ele>313.482605</ele><time>2021-07-17T13:53:13Z</time><extensions><speed>1.068709</speed><course>288.082062</course><hAcc>0.888127</hAcc><vAcc>0.713434</vAcc></extensions></trkpt>
      <trkpt lon="-4.151254" lat="53.024424"><ele>313.426331</ele><time>2021-07-17T13:53:14Z</time><extensions><speed>1.065131</speed><course>289.238037</course><hAcc>0.888128</hAcc><vAcc>0.713395</vAcc></extensions></trkpt>
      <trkpt lon="-4.151239" lat="53.024426"><ele>313.363953</ele><time>2021-07-17T13:53:15Z</time><extensions><speed>1.057535</speed><course>289.037109</course><hAcc>0.888139</hAcc><vAcc>0.713409</vAcc></extensions></trkpt>
      <trkpt lon="-4.151224" lat="53.024429"><ele>313.294403</ele><time>2021-07-17T13:53:16Z</time><extensions><speed>1.046581</speed><course>291.884949</course><hAcc>0.888163</hAcc><vAcc>0.713479</vAcc></extensions></trkpt>
      <trkpt lon="-4.151209" lat="53.024432"><ele>313.217346</ele><time>2021-07-17T13:53:17Z</time><extensions><speed>1.033277</speed><course>287.567657</course><hAcc>0.888199</hAcc><vAcc>0.713603</vAcc></extensions></trkpt>
      <trkpt lon="-4.151195" lat="53.024434"><ele>313.133453</ele><time>2021-07-17T13:53:18Z</time><extensions><speed>1.018739</speed><course>291.768890</course><hAcc>0.888247</hAcc><vAcc>0.713780</vAcc></extensions></trkpt>
      <trkpt lon="-4.151180" lat="53.024436"><ele>313.043976</ele><time>2021-07-17T13:53:19Z</time><extensions><speed>1.003826</speed><course>296.126740</course><hAcc>0.888305</hAcc><vAcc>0.714002</vAcc></extensions></trkpt>
      <trkpt lon="-4.151166" lat="53.024438"><ele>312.950653</ele><time>2021-07-17T13:53:20Z</time><extensions><speed>0.989064</speed><course>297.059143</course><hAcc>0.888371</hAcc><vAcc>0.714259</vAcc></extensions></trkpt>
      <trkpt lon="-4.151151" lat="53.024440"><ele>312.855499</ele><time>2021-07-17T13:53:21Z</time><extensions><speed>0.974470</speed><course>303.696320</course><hAcc>0.888443</hAcc><vAcc>0.714534</vAcc></extensions></trkpt>
      <trkpt lon="-4.151137" lat="53.024442"><ele>312.760040</ele><time>2021-07-17T13:53:22Z</time><extensions><speed>0.960167</speed><course>307.460022</course><hAcc>0.888519</hAcc><vAcc>0.714807</vAcc></extensions></trkpt>
      <trkpt lon="-4.151123" lat="53.024443"><ele>312.664856</ele><time>2021-07-17T13:53:23Z</time><extensions><speed>0.946948</speed><course>302.094666</course><hAcc>0.888596</hAcc><vAcc>0.715065</vAcc></extensions></trkpt>
      <trkpt lon="-4.151109" lat="53.024445"><ele>312.569824</ele><time>2021-07-17T13:53:24Z</time><extensions><speed>0.935792</speed><course>294.763123</course><hAcc>0.888672</hAcc><vAcc>0.715301</vAcc></extensions></trkpt>
      <trkpt lon="-4.151096" lat="53.024446"><ele>312.474854</ele><time>2021-07-17T13:53:25Z</time><extensions><speed>0.927219</speed><course>292.310913</course><hAcc>0.888743</hAcc><vAcc>0.715517</vAcc></extensions></trkpt>
      <trkpt lon="-4.151082" lat="53.024448"><ele>312.379791</ele><time>2021-07-17T13:53:26Z</time><extensions><speed>0.921188</speed><course>286.252472</course><hAcc>0.888807</hAcc><vAcc>0.715717</vAcc></extensions></trkpt>
      <trkpt lon="-4.151069" lat="53.024449"><ele>312.284760</ele><time>2021-07-17T13:53:27Z</time><extensions><speed>0.917275</speed><course>277.085999</course><hAcc>0.888861</hAcc><vAcc>0.715903</vAcc></extensions></trkpt>
      <trkpt lon="-4.151055" lat="53.024450"><ele>312.190430</ele><time>2021-07-17T13:53:28Z</time><extensions><speed>0.914767</speed><course>269.880463</course><hAcc>0.888903</hAcc><vAcc>0.716070</vAcc></extensions></trkpt>
      <trkpt lon="-4.151042" lat="53.024452"><ele>312.097687</ele><time>2021-07-17T13:53:29Z</time><extensions><speed>0.912740</speed><course>256.014618</course><hAcc>0.888931</hAcc><vAcc>0.716207</vAcc></extensions></trkpt>
      <trkpt lon="-4.151028" lat="53.024453"><ele>312.007507</ele><time>2021-07-17T13:53:30Z</time><extensions><speed>0.910292</speed><course>250.524368</course><hAcc>0.888945</hAcc><vAcc>0.716299</vAcc></extensions></trkpt>
      <trkpt lon="-4.151015" lat="53.024455"><ele>311.920929</ele><time>2021-07-17T13:53:31Z</time><extensions><speed>0.907529</speed><course>237.491638</course><hAcc>0.888943</hAcc><vAcc>0.716334</vAcc></extensions></trkpt>
      <trkpt lon="-4.151002" lat="53.024456"><ele>311.838928</ele><time>2021-07-17T13:53:32Z</time><extensions><speed>0.905523</speed><course>231.976761</course><hAcc>0.888925</hAcc><vAcc>0.716301</vAcc></extensions></trkpt>
      <trkpt lon="-4.150989" lat="53.024458"><ele>311.762543</ele><time>2021-07-17T13:53:33Z</time><extensions><speed>0.904677</speed><course>228.504318</course><hAcc>0.888895</hAcc><vAcc>0.716197</vAcc></extensions></trkpt>
      <trkpt lon="-4.150975" lat="53.024460"><ele>311.692444</ele><time>2021-07-17T13:53:34Z</time><extensions><speed>0.904545</speed><course>227.577087</course><hAcc>0.888853</hAcc><vAcc>0.716027</vAcc></extensions></trkpt>
      <trkpt lon="-4.150962" lat="53.024461"><ele>311.628845</ele><time>2021-07-17T13:53:35Z</time><extensions><speed>0.904878</speed><course>219.513672</course><hAcc>0.888804</hAcc><vAcc>0.715798</vAcc></extensions></trkpt>
      <trkpt lon="-4.150949" lat="53.024463"><ele>311.571777</ele><time>2021-07-17T13:53:36Z</time><extensions><speed>0.905597</speed><course>224.903015</course><hAcc>0.888752</hAcc><vAcc>0.715534</vAcc></extensions></trkpt>
      <trkpt lon="-4.150936" lat="53.024465"><ele>311.520569</ele><time>2021-07-17T13:53:37Z</time><extensions><speed>0.906712</speed><course>222.390198</course><hAcc>0.888702</hAcc><vAcc>0.715265</vAcc></extensions></trkpt>
      <trkpt lon="-4.150923" lat="53.024467"><ele>311.473816</ele><time>2021-07-17T13:53:38Z</time><extensions><speed>0.908672</speed><course>223.313202</course><hAcc>0.888659</hAcc><vAcc>0.715026</vAcc></extensions></trkpt>
      <trkpt lon="-4.150909" lat="53.024469"><ele>311.429810</ele><time>2021-07-17T13:53:39Z</time><extensions><speed>0.911876</speed><course>224.045700</course><hAcc>0.888626</hAcc><vAcc>0.714849</vAcc></extensions></trkpt>
      <trkpt lon="-4.150896" lat="53.024470"><ele>311.387268</ele><time>2021-07-17T13:53:40Z</time><extensions><speed>0.916100</speed><course>224.975723</course><hAcc>0.888607</hAcc><vAcc>0.714754</vAcc></extensions></trkpt>
      <trkpt lon="-4.150883" lat="53.024472"><ele>311.345673</ele><time>2021-07-17T13:53:41Z</time><extensions><speed>0.920509</speed><course>226.513992</course><hAcc>0.888603</hAcc><vAcc>0.714746</vAcc></extensions></trkpt>
      <trkpt lon="-4.150869" lat="53.024474"><ele>311.304443</ele><time>2021-07-17T13:53:42Z</time><extensions><speed>0.923742</speed><course>227.291473</course><hAcc>0.888615</hAcc><vAcc>0.714823</vAcc></extensions></trkpt>
      <trkpt lon="-4.150856" lat="53.024476"><ele>311.262329</ele><time>2021-07-17T13:53:43Z</time><extensions><speed>0.923632</speed><course>231.833313</course><hAcc>0.888640</hAcc><vAcc>0.714973</vAcc></extensions></trkpt>
      <trkpt lon="-4.150842" lat="53.024477"><ele>311.218323</ele><time>2021-07-17T13:53:44Z</time><extensions><speed>0.918768</speed><course>230.421005</course><hAcc>0.888675</hAcc><vAcc>0.715178</vAcc></extensions></trkpt>
      <trkpt lon="-4.150829" lat="53.024479"><ele>311.172333</ele><time>2021-07-17T13:53:45Z</time><extensions><speed>0.909123</speed><course>235.980087</course><hAcc>0.888717</hAcc><vAcc>0.715410</vAcc></extensions></trkpt>
      <trkpt lon="-4.150816" lat="53.024480"><ele>311.124603</ele><time>2021-07-17T13:53:46Z</time><extensions><speed>0.895637</speed><course>243.213364</course><hAcc>0.888759</hAcc><vAcc>0.715638</vAcc></extensions></trkpt>
      <trkpt lon="-4.150803" lat="53.024482"><ele>311.075348</ele><time>2021-07-17T13:53:47Z</time><extensions><speed>0.879161</speed><course>253.165268</course><hAcc>0.888798</hAcc><vAcc>0.715835</vAcc></extensions></trkpt>
      <trkpt lon="-4.150790" lat="53.024483"><ele>311.024811</ele><time>2021-07-17T13:53:48Z</time><extensions><speed>0.860707</speed><course>266.505096</course><hAcc>0.888829</hAcc><vAcc>0.715981</vAcc></extensions></trkpt>
      <trkpt lon="-4.150777" lat="53.024484"><ele>310.973328</ele><time>2021-07-17T13:53:49Z</time><extensions><speed>0.841940</speed><course>267.255646</course><hAcc>0.888848</hAcc><vAcc>0.716061</vAcc></extensions></trkpt>
      <trkpt lon="-4.150765" lat="53.024485"><ele>310.921387</ele><time>2021-07-17T13:53:50Z</time><extensions><speed>0.824168</speed><course>271.176971</course><hAcc>0.888852</hAcc><vAcc>0.716068</vAcc></extensions></trkpt>
      <trkpt lon="-4.150753" lat="53.024486"><ele>310.869629</ele><time>2021-07-17T13:53:51Z</time><extensions><speed>0.808873</speed><course>283.145996</course><hAcc>0.888840</hAcc><vAcc>0.716002</vAcc></extensions></trkpt>
      <trkpt lon="-4.150741" lat="53.024487"><ele>310.818787</ele><time>2021-07-17T13:53:52Z</time><extensions><speed>0.797039</speed><course>291.499756</course><hAcc>0.888813</hAcc><vAcc>0.715869</vAcc></extensions></trkpt>
      <trkpt lon="-4.150729" lat="53.024488"><ele>310.770050</ele><time>2021-07-17T13:53:53Z</time><extensions><speed>0.788848</speed><course>295.960785</course><hAcc>0.888771</hAcc><vAcc>0.715682</vAcc></extensions></trkpt>
      <trkpt lon="-4.150718" lat="53.024488"><ele>310.724792</ele><time>2021-07-17T13:53:54Z</time><extensions><speed>0.784964</speed><course>298.309418</course><hAcc>0.888718</hAcc><vAcc>0.715456</vAcc></extensions></trkpt>
      <trkpt lon="-4.150706" lat="53.024489"><ele>310.684143</ele><time>2021-07-17T13:53:55Z</time><extensions><speed>0.786304</speed><course>301.442566</course><hAcc>0.888654</hAcc><vAcc>0.715208</vAcc></extensions></trkpt>
      <trkpt lon="-4.150694" lat="53.024490"><ele>310.648773</ele><time>2021-07-17T13:53:56Z</time><extensions><speed>0.792521</speed><course>301.820831</course><hAcc>0.888583</hAcc><vAcc>0.714952</vAcc></extensions></trkpt>
      <trkpt lon="-4.150683" lat="53.024490"><ele>310.619141</ele><time>2021-07-17T13:53:57Z</time><extensions><speed>0.802383</speed><course>306.533081</course><hAcc>0.888508</hAcc><vAcc>0.714701</vAcc></extensions></trkpt>
      <trkpt lon="-4.150671" lat="53.024491"><ele>310.595642</ele><time>2021-07-17T13:53:58Z</time><extensions><speed>0.815026</speed><course>310.759277</course><hAcc>0.888431</hAcc><vAcc>0.714457</vAcc></extensions></trkpt>
      <trkpt lon="-4.150658" lat="53.024491"><ele>310.578674</ele><time>2021-07-17T13:53:59Z</time><extensions><speed>0.829935</speed><course>315.721252</course><hAcc>0.888355</hAcc><vAcc>0.714217</vAcc></extensions></trkpt>
      <trkpt lon="-4.150646" lat="53.024492"><ele>310.568298</ele><time>2021-07-17T13:54:00Z</time><extensions><speed>0.846740</speed><course>321.376434</course><hAcc>0.888281</hAcc><vAcc>0.713982</vAcc></extensions></trkpt>
      <trkpt lon="-4.150633" lat="53.024492"><ele>310.564056</ele><time>2021-07-17T13:54:01Z</time><extensions><speed>0.864980</speed><course>321.893402</course><hAcc>0.888211</hAcc><vAcc>0.713753</vAcc></extensions></trkpt>
      <trkpt lon="-4.150620" lat="53.024493"><ele>310.565125</ele><time>2021-07-17T13:54:02Z</time><extensions><speed>0.884151</speed><course>325.867676</course><hAcc>0.888147</hAcc><vAcc>0.713533</vAcc></extensions></trkpt>
      <trkpt lon="-4.150607" lat="53.024494"><ele>310.570282</ele><time>2021-07-17T13:54:03Z</time><extensions><speed>0.903722</speed><course>319.975250</course><hAcc>0.888088</hAcc><vAcc>0.713330</vAcc></extensions></trkpt>
      <trkpt lon="-4.150593" lat="53.024494"><ele>310.578156</ele><time>2021-07-17T13:54:04Z</time><extensions><speed>0.923357</speed><course>320.826599</course><hAcc>0.888036</hAcc><vAcc>0.713149</vAcc></extensions></trkpt>
      <trkpt lon="-4.150579" lat="53.024495"><ele>310.587494</ele><time>2021-07-17T13:54:05Z</time><extensions><speed>0.942825</speed><course>320.826599</course><hAcc>0.887990</hAcc><vAcc>0.712996</vAcc></extensions></trkpt>
      <trkpt lon="-4.150565" lat="53.024496"><ele>310.597412</ele><time>2021-07-17T13:54:06Z</time><extensions><speed>0.962129</speed><course>320.826599</course><hAcc>0.887951</hAcc><vAcc>0.712870</vAcc></extensions></trkpt>
      <trkpt lon="-4.150551" lat="53.024497"><ele>310.607208</ele><time>2021-07-17T13:54:07Z</time><extensions><speed>0.981512</speed><course>320.826599</course><hAcc>0.887919</hAcc><vAcc>0.712771</vAcc></extensions></trkpt>
      <trkpt lon="-4.150536" lat="53.024498"><ele>310.616028</ele><time>2021-07-17T13:54:08Z</time><extensions><speed>1.001161</speed><course>320.826599</course><hAcc>0.887892</hAcc><vAcc>0.712695</vAcc></extensions></trkpt>
      <trkpt lon="-4.150521" lat="53.024499"><ele>310.622864</ele><time>2021-07-17T13:54:09Z</time><extensions><speed>1.021141</speed><course>320.826599</course><hAcc>0.887869</hAcc><vAcc>0.712639</vAcc></extensions></trkpt>
      <trkpt lon="-4.150506" lat="53.024500"><ele>310.626740</ele><time>2021-07-17T13:54:10Z</time><extensions><speed>1.041124</speed><course>320.826599</course><hAcc>0.887848</hAcc><vAcc>0.712599</vAcc></extensions></trkpt>
      <trkpt lon="-4.150490" lat="53.024501"><ele>310.627167</ele><time>2021-07-17T13:54:11Z</time><extensions><speed>1.059873</speed><course>320.826599</course><hAcc>0.887828</hAcc><vAcc>0.712566</vAcc></extensions></trkpt>
      <trkpt lon="-4.150475" lat="53.024502"><ele>310.624420</ele><time>2021-07-17T13:54:12Z</time><extensions><speed>1.075733</speed><course>320.826599</course><hAcc>0.887807</hAcc><vAcc>0.712531</vAcc></extensions></trkpt>
      <trkpt lon="-4.150459" lat="53.024503"><ele>310.619049</ele><time>2021-07-17T13:54:13Z</time><extensions><speed>1.087769</speed><course>320.826599</course><hAcc>0.887782</hAcc><vAcc>0.712482</vAcc></extensions></trkpt>
      <trkpt lon="-4.150443" lat="53.024505"><ele>310.610840</ele><time>2021-07-17T13:54:14Z</time><extensions><speed>1.095960</speed><course>320.826599</course><hAcc>0.887753</hAcc><vAcc>0.712405</vAcc></extensions></trkpt>
      <trkpt lon="-4.150426" lat="53.024506"><ele>310.599030</ele><time>2021-07-17T13:54:15Z</time><extensions><speed>1.100731</speed><course>320.826599</course><hAcc>0.887719</hAcc><vAcc>0.712294</vAcc></extensions></trkpt>
      <trkpt lon="-4.150410" lat="53.024507"><ele>310.583160</ele><time>2021-07-17T13:54:16Z</time><extensions><speed>1.102380</speed><course>320.826599</course><hAcc>0.887681</hAcc><vAcc>0.712146</vAcc></extensions></trkpt>
      <trkpt lon="-4.150394" lat="53.024509"><ele>310.563507</ele><time>2021-07-17T13:54:17Z</time><extensions><speed>1.101155</speed><course>320.826599</course><hAcc>0.887641</hAcc><vAcc>0.711966</vAcc></extensions></trkpt>
      <trkpt lon="-4.150378" lat="53.024510"><ele>310.540649</ele><time>2021-07-17T13:54:18Z</time><extensions><speed>1.097874</speed><course>320.826599</course><hAcc>0.887599</hAcc><vAcc>0.711763</vAcc></extensions></trkpt>
      <trkpt lon="-4.150361" lat="53.024512"><ele>310.514923</ele><time>2021-07-17T13:54:20Z</time><extensions><speed>1.093480</speed><course>320.826599</course><hAcc>0.887542</hAcc><vAcc>0.711536</vAcc></extensions></trkpt>
      <trkpt lon="-4.150345" lat="53.024513"><ele>310.486847</ele><time>2021-07-17T13:54:21Z</time><extensions><speed>1.088209</speed><course>320.826599</course><hAcc>0.887470</hAcc><vAcc>0.711298</vAcc></extensions></trkpt>
      <trkpt lon="-4.150330" lat="53.024515"><ele>310.456818</ele><time>2021-07-17T13:54:22Z</time><extensions><speed>1.081979</speed><course>320.826599</course><hAcc>0.887405</hAcc><vAcc>0.711075</vAcc></extensions></trkpt>
      <trkpt lon="-4.150314" lat="53.024517"><ele>310.425323</ele><time>2021-07-17T13:54:23Z</time><extensions><speed>1.074581</speed><course>320.826599</course><hAcc>0.887348</hAcc><vAcc>0.710878</vAcc></extensions></trkpt>
      <trkpt lon="-4.150298" lat="53.024519"><ele>310.392822</ele><time>2021-07-17T13:54:24Z</time><extensions><speed>1.065903</speed><course>320.826599</course><hAcc>0.887299</hAcc><vAcc>0.710718</vAcc></extensions></trkpt>
      <trkpt lon="-4.150283" lat="53.024521"><ele>310.360016</ele><time>2021-07-17T13:54:25Z</time><extensions><speed>1.055688</speed><course>320.826599</course><hAcc>0.887260</hAcc><vAcc>0.710604</vAcc></extensions></trkpt>
      <trkpt lon="-4.150267" lat="53.024523"><ele>310.327576</ele><time>2021-07-17T13:54:26Z</time><extensions><speed>1.044440</speed><course>320.826569</course><hAcc>0.887231</hAcc><vAcc>0.710536</vAcc></extensions></trkpt>
      <trkpt lon="-4.150252" lat="53.024525"><ele>310.295715</ele><time>2021-07-17T13:54:27Z</time><extensions><speed>1.033297</speed><course>320.826569</course><hAcc>0.887209</hAcc><vAcc>0.710511</vAcc></extensions></trkpt>
      <trkpt lon="-4.150238" lat="53.024528"><ele>310.264526</ele><time>2021-07-17T13:54:28Z</time><extensions><speed>1.022802</speed><course>320.826569</course><hAcc>0.887194</hAcc><vAcc>0.710516</vAcc></extensions></trkpt>
      <trkpt lon="-4.150223" lat="53.024530"><ele>310.234192</ele><time>2021-07-17T13:54:29Z</time><extensions><speed>1.013502</speed><course>320.826569</course><hAcc>0.887185</hAcc><vAcc>0.710537</vAcc></extensions></trkpt>
      <trkpt lon="-4.150209" lat="53.024533"><ele>310.205109</ele><time>2021-07-17T13:54:30Z</time><extensions><speed>1.006117</speed><course>306.179871</course><hAcc>0.887179</hAcc><vAcc>0.710558</vAcc></extensions></trkpt>
      <trkpt lon="-4.150195" lat="53.024536"><ele>310.177734</ele><time>2021-07-17T13:54:31Z</time><extensions><speed>1.000775</speed><course>252.340622</course><hAcc>0.887175</hAcc><vAcc>0.710565</vAcc></extensions></trkpt>
      <trkpt lon="-4.150181" lat="53.024539"><ele>310.152679</ele><time>2021-07-17T13:54:32Z</time><extensions><speed>0.996862</speed><course>240.417450</course><hAcc>0.887171</hAcc><vAcc>0.710550</vAcc></extensions></trkpt>
      <trkpt lon="-4.150167" lat="53.024542"><ele>310.130554</ele><time>2021-07-17T13:54:33Z</time><extensions><speed>0.994545</speed><course>226.735764</course><hAcc>0.887168</hAcc><vAcc>0.710515</vAcc></extensions></trkpt>
      <trkpt lon="-4.150153" lat="53.024545"><ele>310.111633</ele><time>2021-07-17T13:54:34Z</time><extensions><speed>0.994756</speed><course>213.254318</course><hAcc>0.887164</hAcc><vAcc>0.710468</vAcc></extensions></trkpt>
      <trkpt lon="-4.150139" lat="53.024548"><ele>310.095734</ele><time>2021-07-17T13:54:35Z</time><extensions><speed>0.997967</speed><course>209.983795</course><hAcc>0.887160</hAcc><vAcc>0.710423</vAcc></extensions></trkpt>
      <trkpt lon="-4.150125" lat="53.024551"><ele>310.082275</ele><time>2021-07-17T13:54:36Z</time><extensions><speed>1.004110</speed><course>212.464371</course><hAcc>0.887154</hAcc><vAcc>0.710390</vAcc></extensions></trkpt>
      <trkpt lon="-4.150111" lat="53.024555"><ele>310.070496</ele><time>2021-07-17T13:54:37Z</time><extensions><speed>1.012363</speed><course>212.464355</course><hAcc>0.887147</hAcc><vAcc>0.710375</vAcc></extensions></trkpt>
      <trkpt lon="-4.150097" lat="53.024558"><ele>310.059479</ele><time>2021-07-17T13:54:38Z</time><extensions><speed>1.021466</speed><course>212.464355</course><hAcc>0.887139</hAcc><vAcc>0.710376</vAcc></extensions></trkpt>
      <trkpt lon="-4.150083" lat="53.024561"><ele>310.048492</ele><time>2021-07-17T13:54:39Z</time><extensions><speed>1.030423</speed><course>212.464340</course><hAcc>0.887128</hAcc><vAcc>0.710383</vAcc></extensions></trkpt>
      <trkpt lon="-4.150068" lat="53.024565"><ele>310.037201</ele><time>2021-07-17T13:54:40Z</time><extensions><speed>1.038566</speed><course>212.464325</course><hAcc>0.887116</hAcc><vAcc>0.710382</vAcc></extensions></trkpt>
      <trkpt lon="-4.150054" lat="53.024568"><ele>310.025513</ele><time>2021-07-17T13:54:41Z</time><extensions><speed>1.045274</speed><course>212.464325</course><hAcc>0.887101</hAcc><vAcc>0.710359</vAcc></extensions></trkpt>
      <trkpt lon="-4.150040" lat="53.024572"><ele>310.013184</ele><time>2021-07-17T13:54:42Z</time><extensions><speed>1.049457</speed><course>212.464325</course><hAcc>0.887085</hAcc><vAcc>0.710306</vAcc></extensions></trkpt>
      <trkpt lon="-4.150025" lat="53.024576"><ele>310.000092</ele><time>2021-07-17T13:54:43Z</time><extensions><speed>1.050168</speed><course>212.464310</course><hAcc>0.887067</hAcc><vAcc>0.710227</vAcc></extensions></trkpt>
      <trkpt lon="-4.150011" lat="53.024580"><ele>309.985992</ele><time>2021-07-17T13:54:44Z</time><extensions><speed>1.046942</speed><course>305.064514</course><hAcc>0.887051</hAcc><vAcc>0.710131</vAcc></extensions></trkpt>
      <trkpt lon="-4.149997" lat="53.024584"><ele>309.970673</ele><time>2021-07-17T13:54:45Z</time><extensions><speed>1.039723</speed><course>295.507660</course><hAcc>0.887037</hAcc><vAcc>0.710035</vAcc></extensions></trkpt>
      <trkpt lon="-4.149984" lat="53.024589"><ele>309.953796</ele><time>2021-07-17T13:54:46Z</time><extensions><speed>1.029439</speed><course>292.618195</course><hAcc>0.887029</hAcc><vAcc>0.709956</vAcc></extensions></trkpt>
      <trkpt lon="-4.149971" lat="53.024594"><ele>309.934753</ele><time>2021-07-17T13:54:47Z</time><extensions><speed>1.017144</speed><course>285.374146</course><hAcc>0.887029</hAcc><vAcc>0.709911</vAcc></extensions></trkpt>
      <trkpt lon="-4.149958" lat="53.024599"><ele>309.913086</ele><time>2021-07-17T13:54:48Z</time><extensions><speed>1.003852</speed><course>282.990997</course><hAcc>0.887039</hAcc><vAcc>0.709915</vAcc></extensions></trkpt>
      <trkpt lon="-4.149946" lat="53.024604"><ele>309.888275</ele><time>2021-07-17T13:54:49Z</time><extensions><speed>0.990379</speed><course>269.408752</course><hAcc>0.887062</hAcc><vAcc>0.709975</vAcc></extensions></trkpt>
      <trkpt lon="-4.149934" lat="53.024609"><ele>309.859650</ele><time>2021-07-17T13:54:50Z</time><extensions><speed>0.977206</speed><course>268.581787</course><hAcc>0.887099</hAcc><vAcc>0.710095</vAcc></extensions></trkpt>
      <trkpt lon="-4.149923" lat="53.024614"><ele>309.826294</ele><time>2021-07-17T13:54:51Z</time><extensions><speed>0.964261</speed><course>262.171875</course><hAcc>0.887150</hAcc><vAcc>0.710273</vAcc></extensions></trkpt>
      <trkpt lon="-4.149912" lat="53.024620"><ele>309.787720</ele><time>2021-07-17T13:54:52Z</time><extensions><speed>0.950424</speed><course>261.539520</course><hAcc>0.887215</hAcc><vAcc>0.710504</vAcc></extensions></trkpt>
      <trkpt lon="-4.149901" lat="53.024625"><ele>309.744293</ele><time>2021-07-17T13:54:53Z</time><extensions><speed>0.934654</speed><course>255.803879</course><hAcc>0.887294</hAcc><vAcc>0.710779</vAcc></extensions></trkpt>
      <trkpt lon="-4.149891" lat="53.024631"><ele>309.697144</ele><time>2021-07-17T13:54:54Z</time><extensions><speed>0.916444</speed><course>247.733398</course><hAcc>0.887383</hAcc><vAcc>0.711089</vAcc></extensions></trkpt>
      <trkpt lon="-4.149881" lat="53.024636"><ele>309.648407</ele><time>2021-07-17T13:54:55Z</time><extensions><speed>0.895690</speed><course>231.932861</course><hAcc>0.887481</hAcc><vAcc>0.711426</vAcc></extensions></trkpt>
      <trkpt lon="-4.149871" lat="53.024642"><ele>309.600464</ele><time>2021-07-17T13:54:56Z</time><extensions><speed>0.872506</speed><course>232.043365</course><hAcc>0.887584</hAcc><vAcc>0.711783</vAcc></extensions></trkpt>
      <trkpt lon="-4.149862" lat="53.024647"><ele>309.555603</ele><time>2021-07-17T13:54:57Z</time><extensions><speed>0.847056</speed><course>225.182800</course><hAcc>0.887691</hAcc><vAcc>0.712151</vAcc></extensions></trkpt>
      <trkpt lon="-4.149852" lat="53.024652"><ele>309.515686</ele><time>2021-07-17T13:54:58Z</time><extensions><speed>0.820868</speed><course>222.937302</course><hAcc>0.887797</hAcc><vAcc>0.712517</vAcc></extensions></trkpt>
      <trkpt lon="-4.149843" lat="53.024656"><ele>309.481873</ele><time>2021-07-17T13:54:59Z</time><extensions><speed>0.796576</speed><course>226.615036</course><hAcc>0.887900</hAcc><vAcc>0.712870</vAcc></extensions></trkpt>
      <trkpt lon="-4.149834" lat="53.024661"><ele>309.454865</ele><time>2021-07-17T13:55:00Z</time><extensions><speed>0.776095</speed><course>227.377960</course><hAcc>0.887997</hAcc><vAcc>0.713200</vAcc></extensions></trkpt>
      <trkpt lon="-4.149824" lat="53.024664"><ele>309.435364</ele><time>2021-07-17T13:55:01Z</time><extensions><speed>0.760274</speed><course>225.027542</course><hAcc>0.888084</hAcc><vAcc>0.713498</vAcc></extensions></trkpt>
      <trkpt lon="-4.149814" lat="53.024668"><ele>309.423950</ele><time>2021-07-17T13:55:02Z</time><extensions><speed>0.749498</speed><course>217.523773</course><hAcc>0.888160</hAcc><vAcc>0.713757</vAcc></extensions></trkpt>
      <trkpt lon="-4.149805" lat="53.024671"><ele>309.420563</ele><time>2021-07-17T13:55:03Z</time><extensions><speed>0.743107</speed><course>217.503448</course><hAcc>0.888220</hAcc><vAcc>0.713970</vAcc></extensions></trkpt>
      <trkpt lon="-4.149795" lat="53.024674"><ele>309.424500</ele><time>2021-07-17T13:55:04Z</time><extensions><speed>0.738955</speed><course>222.947372</course><hAcc>0.888264</hAcc><vAcc>0.714133</vAcc></extensions></trkpt>
      <trkpt lon="-4.149784" lat="53.024676"><ele>309.434784</ele><time>2021-07-17T13:55:05Z</time><extensions><speed>0.734634</speed><course>228.737518</course><hAcc>0.888290</hAcc><vAcc>0.714239</vAcc></extensions></trkpt>
      <trkpt lon="-4.149774" lat="53.024679"><ele>309.450317</ele><time>2021-07-17T13:55:06Z</time><extensions><speed>0.728634</speed><course>234.887939</course><hAcc>0.888297</hAcc><vAcc>0.714283</vAcc></extensions></trkpt>
      <trkpt lon="-4.149764" lat="53.024681"><ele>309.469910</ele><time>2021-07-17T13:55:07Z</time><extensions><speed>0.721277</speed><course>232.671463</course><hAcc>0.888284</hAcc><vAcc>0.714258</vAcc></extensions></trkpt>
      <trkpt lon="-4.149754" lat="53.024683"><ele>309.491882</ele><time>2021-07-17T13:55:08Z</time><extensions><speed>0.713819</speed><course>228.680756</course><hAcc>0.888253</hAcc><vAcc>0.714163</vAcc></extensions></trkpt>
      <trkpt lon="-4.149744" lat="53.024685"><ele>309.514648</ele><time>2021-07-17T13:55:09Z</time><extensions><speed>0.707666</speed><course>228.367065</course><hAcc>0.888205</hAcc><vAcc>0.713998</vAcc></extensions></trkpt>
      <trkpt lon="-4.149734" lat="53.024687"><ele>309.536865</ele><time>2021-07-17T13:55:10Z</time><extensions><speed>0.704243</speed><course>227.760208</course><hAcc>0.888142</hAcc><vAcc>0.713770</vAcc></extensions></trkpt>
      <trkpt lon="-4.149724" lat="53.024689"><ele>309.557404</ele><time>2021-07-17T13:55:11Z</time><extensions><speed>0.704579</speed><course>230.377014</course><hAcc>0.888068</hAcc><vAcc>0.713489</vAcc></extensions></trkpt>
      <trkpt lon="-4.149714" lat="53.024692"><ele>309.574646</ele><time>2021-07-17T13:55:12Z</time><extensions><speed>0.710082</speed><course>236.559235</course><hAcc>0.887986</hAcc><vAcc>0.713170</vAcc></extensions></trkpt>
      <trkpt lon="-4.149704" lat="53.024694"><ele>309.586456</ele><time>2021-07-17T13:55:13Z</time><extensions><speed>0.721828</speed><course>232.877869</course><hAcc>0.887899</hAcc><vAcc>0.712835</vAcc></extensions></trkpt>
      <trkpt lon="-4.149694" lat="53.024697"><ele>309.591064</ele><time>2021-07-17T13:55:14Z</time><extensions><speed>0.739017</speed><course>233.901962</course><hAcc>0.887809</hAcc><vAcc>0.712511</vAcc></extensions></trkpt>
      <trkpt lon="-4.149684" lat="53.024699"><ele>309.587128</ele><time>2021-07-17T13:55:15Z</time><extensions><speed>0.759534</speed><course>234.840546</course><hAcc>0.887717</hAcc><vAcc>0.712226</vAcc></extensions></trkpt>
      <trkpt lon="-4.149674" lat="53.024702"><ele>309.573853</ele><time>2021-07-17T13:55:16Z</time><extensions><speed>0.780893</speed><course>231.563858</course><hAcc>0.887625</hAcc><vAcc>0.711988</vAcc></extensions></trkpt>
      <trkpt lon="-4.149663" lat="53.024705"><ele>309.550842</ele><time>2021-07-17T13:55:16Z</time><extensions><speed>0.801076</speed><course>226.163422</course><hAcc>0.887549</hAcc><vAcc>0.711799</vAcc></extensions></trkpt>
      <trkpt lon="-4.149652" lat="53.024709"><ele>309.517792</ele><time>2021-07-17T13:55:17Z</time><extensions><speed>0.818715</speed><course>224.694687</course><hAcc>0.887489</hAcc><vAcc>0.711637</vAcc></extensions></trkpt>
      <trkpt lon="-4.149641" lat="53.024712"><ele>309.474548</ele><time>2021-07-17T13:55:18Z</time><extensions><speed>0.832212</speed><course>227.400024</course><hAcc>0.887427</hAcc><vAcc>0.711466</vAcc></extensions></trkpt>
      <trkpt lon="-4.149630" lat="53.024715"><ele>309.421265</ele><time>2021-07-17T13:55:19Z</time><extensions><speed>0.840258</speed><course>225.215622</course><hAcc>0.887361</hAcc><vAcc>0.711270</vAcc></extensions></trkpt>
      <trkpt lon="-4.149619" lat="53.024719"><ele>309.358337</ele><time>2021-07-17T13:55:20Z</time><extensions><speed>0.842575</speed><course>227.979385</course><hAcc>0.887291</hAcc><vAcc>0.711038</vAcc></extensions></trkpt>
      <trkpt lon="-4.149608" lat="53.024722"><ele>309.286163</ele><time>2021-07-17T13:55:21Z</time><extensions><speed>0.839535</speed><course>238.133682</course><hAcc>0.887214</hAcc><vAcc>0.710770</vAcc></extensions></trkpt>
      <trkpt lon="-4.149597" lat="53.024726"><ele>309.205200</ele><time>2021-07-17T13:55:22Z</time><extensions><speed>0.831038</speed><course>235.678314</course><hAcc>0.887131</hAcc><vAcc>0.710470</vAcc></extensions></trkpt>
      <trkpt lon="-4.149586" lat="53.024730"><ele>309.116394</ele><time>2021-07-17T13:55:23Z</time><extensions><speed>0.816797</speed><course>238.960709</course><hAcc>0.887040</hAcc><vAcc>0.710144</vAcc></extensions></trkpt>
      <trkpt lon="-4.149576" lat="53.024733"><ele>309.021240</ele><time>2021-07-17T13:55:24Z</time><extensions><speed>0.796794</speed><course>237.793289</course><hAcc>0.886938</hAcc><vAcc>0.709801</vAcc></extensions></trkpt>
      <trkpt lon="-4.149566" lat="53.024737"><ele>308.921112</ele><time>2021-07-17T13:55:25Z</time><extensions><speed>0.771521</speed><course>238.209671</course><hAcc>0.886824</hAcc><vAcc>0.709444</vAcc></extensions></trkpt>
      <trkpt lon="-4.149557" lat="53.024741"><ele>308.817413</ele><time>2021-07-17T13:55:26Z</time><extensions><speed>0.741874</speed><course>239.435074</course><hAcc>0.886695</hAcc><vAcc>0.709074</vAcc></extensions></trkpt>
      <trkpt lon="-4.149548" lat="53.024744"><ele>308.711304</ele><time>2021-07-17T13:55:27Z</time><extensions><speed>0.708419</speed><course>238.666733</course><hAcc>0.886548</hAcc><vAcc>0.708676</vAcc></extensions></trkpt>
      <trkpt lon="-4.149539" lat="53.024748"><ele>308.604034</ele><time>2021-07-17T13:55:28Z</time><extensions><speed>0.671186</speed><course>234.077820</course><hAcc>0.886379</hAcc><vAcc>0.708231</vAcc></extensions></trkpt>
      <trkpt lon="-4.149532" lat="53.024752"><ele>308.496674</ele><time>2021-07-17T13:55:29Z</time><extensions><speed>0.630245</speed><course>227.293335</course><hAcc>0.886185</hAcc><vAcc>0.707708</vAcc></extensions></trkpt>
      <trkpt lon="-4.149525" lat="53.024755"><ele>308.390015</ele><time>2021-07-17T13:55:30Z</time><extensions><speed>0.586409</speed><course>230.072769</course><hAcc>0.885963</hAcc><vAcc>0.707080</vAcc></extensions></trkpt>
      <trkpt lon="-4.149519" lat="53.024759"><ele>308.284271</ele><time>2021-07-17T13:55:31Z</time><extensions><speed>0.541530</speed><course>228.397232</course><hAcc>0.885714</hAcc><vAcc>0.706322</vAcc></extensions></trkpt>
      <trkpt lon="-4.149514" lat="53.024762"><ele>308.179169</ele><time>2021-07-17T13:55:32Z</time><extensions><speed>0.497920</speed><course>230.234772</course><hAcc>0.885436</hAcc><vAcc>0.705429</vAcc></extensions></trkpt>
      <trkpt lon="-4.149509" lat="53.024766"><ele>308.074219</ele><time>2021-07-17T13:55:33Z</time><extensions><speed>0.457266</speed><course>226.599274</course><hAcc>0.885134</hAcc><vAcc>0.704414</vAcc></extensions></trkpt>
      <trkpt lon="-4.149506" lat="53.024769"><ele>307.969116</ele><time>2021-07-17T13:55:34Z</time><extensions><speed>0.420366</speed><course>226.515137</course><hAcc>0.884811</hAcc><vAcc>0.703307</vAcc></extensions></trkpt>
      <trkpt lon="-4.149503" lat="53.024772"><ele>307.863434</ele><time>2021-07-17T13:55:35Z</time><extensions><speed>0.387543</speed><course>226.136917</course><hAcc>0.884474</hAcc><vAcc>0.702144</vAcc></extensions></trkpt>
      <trkpt lon="-4.149500" lat="53.024775"><ele>307.756744</ele><time>2021-07-17T13:55:36Z</time><extensions><speed>0.358998</speed><course>230.381958</course><hAcc>0.884132</hAcc><vAcc>0.700964</vAcc></extensions></trkpt>
      <trkpt lon="-4.149498" lat="53.024778"><ele>307.648346</ele><time>2021-07-17T13:55:37Z</time><extensions><speed>0.334901</speed><course>226.727509</course><hAcc>0.883792</hAcc><vAcc>0.699802</vAcc></extensions></trkpt>
      <trkpt lon="-4.149497" lat="53.024781"><ele>307.537720</ele><time>2021-07-17T13:55:38Z</time><extensions><speed>0.315090</speed><course>230.180862</course><hAcc>0.883464</hAcc><vAcc>0.698690</vAcc></extensions></trkpt>
      <trkpt lon="-4.149496" lat="53.024783"><ele>307.424316</ele><time>2021-07-17T13:55:39Z</time><extensions><speed>0.298819</speed><course>225.214905</course><hAcc>0.883159</hAcc><vAcc>0.697661</vAcc></extensions></trkpt>
      <trkpt lon="-4.149496" lat="53.024786"><ele>307.307617</ele><time>2021-07-17T13:55:40Z</time><extensions><speed>0.285008</speed><course>228.288971</course><hAcc>0.882883</hAcc><vAcc>0.696743</vAcc></extensions></trkpt>
      <trkpt lon="-4.149496" lat="53.024789"><ele>307.187164</ele><time>2021-07-17T13:55:41Z</time><extensions><speed>0.272575</speed><course>234.392639</course><hAcc>0.882646</hAcc><vAcc>0.695954</vAcc></extensions></trkpt>
      <trkpt lon="-4.149496" lat="53.024791"><ele>307.062500</ele><time>2021-07-17T13:55:42Z</time><extensions><speed>0.260861</speed><course>233.208801</course><hAcc>0.882454</hAcc><vAcc>0.695307</vAcc></extensions></trkpt>
      <trkpt lon="-4.149495" lat="53.024793"><ele>306.933289</ele><time>2021-07-17T13:55:43Z</time><extensions><speed>0.249881</speed><course>238.158752</course><hAcc>0.882312</hAcc><vAcc>0.694821</vAcc></extensions></trkpt>
      <trkpt lon="-4.149495" lat="53.024795"><ele>306.799133</ele><time>2021-07-17T13:55:44Z</time><extensions><speed>0.240356</speed><course>239.142517</course><hAcc>0.882226</hAcc><vAcc>0.694515</vAcc></extensions></trkpt>
      <trkpt lon="-4.149495" lat="53.024798"><ele>306.659546</ele><time>2021-07-17T13:55:45Z</time><extensions><speed>0.233616</speed><course>241.003922</course><hAcc>0.882198</hAcc><vAcc>0.694411</vAcc></extensions></trkpt>
      <trkpt lon="-4.149494" lat="53.024800"><ele>306.514069</ele><time>2021-07-17T13:55:46Z</time><extensions><speed>0.231106</speed><course>244.474228</course><hAcc>0.882232</hAcc><vAcc>0.694525</vAcc></extensions></trkpt>
      <trkpt lon="-4.149494" lat="53.024802"><ele>306.362335</ele><time>2021-07-17T13:55:47Z</time><extensions><speed>0.233939</speed><course>238.879150</course><hAcc>0.882325</hAcc><vAcc>0.694858</vAcc></extensions></trkpt>
      <trkpt lon="-4.149492" lat="53.024804"><ele>306.204468</ele><time>2021-07-17T13:55:48Z</time><extensions><speed>0.242508</speed><course>237.538528</course><hAcc>0.882474</hAcc><vAcc>0.695393</vAcc></extensions></trkpt>
      <trkpt lon="-4.149491" lat="53.024806"><ele>306.040863</ele><time>2021-07-17T13:55:49Z</time><extensions><speed>0.256289</speed><course>249.037552</course><hAcc>0.882671</hAcc><vAcc>0.696093</vAcc></extensions></trkpt>
      <trkpt lon="-4.149489" lat="53.024808"><ele>305.872375</ele><time>2021-07-17T13:55:50Z</time><extensions><speed>0.274869</speed><course>259.361603</course><hAcc>0.882908</hAcc><vAcc>0.696914</vAcc></extensions></trkpt>
      <trkpt lon="-4.149487" lat="53.024810"><ele>305.700348</ele><time>2021-07-17T13:55:51Z</time><extensions><speed>0.298116</speed><course>261.193176</course><hAcc>0.883173</hAcc><vAcc>0.697823</vAcc></extensions></trkpt>
      <trkpt lon="-4.149484" lat="53.024812"><ele>305.526764</ele><time>2021-07-17T13:55:52Z</time><extensions><speed>0.325397</speed><course>261.193146</course><hAcc>0.883456</hAcc><vAcc>0.698792</vAcc></extensions></trkpt>
      <trkpt lon="-4.149481" lat="53.024815"><ele>305.354492</ele><time>2021-07-17T13:55:53Z</time><extensions><speed>0.355712</speed><course>261.193146</course><hAcc>0.883747</hAcc><vAcc>0.699795</vAcc></extensions></trkpt>
      <trkpt lon="-4.149478" lat="53.024818"><ele>305.187073</ele><time>2021-07-17T13:55:54Z</time><extensions><speed>0.387995</speed><course>261.193146</course><hAcc>0.884034</hAcc><vAcc>0.700797</vAcc></extensions></trkpt>
      <trkpt lon="-4.149474" lat="53.024820"><ele>305.027435</ele><time>2021-07-17T13:55:55Z</time><extensions><speed>0.421955</speed><course>261.193146</course><hAcc>0.884306</hAcc><vAcc>0.701760</vAcc></extensions></trkpt>
      <trkpt lon="-4.149470" lat="53.024823"><ele>304.877350</ele><time>2021-07-17T13:55:56Z</time><extensions><speed>0.458024</speed><course>261.193146</course><hAcc>0.884555</hAcc><vAcc>0.702645</vAcc></extensions></trkpt>
      <trkpt lon="-4.149465" lat="53.024826"><ele>304.737610</ele><time>2021-07-17T13:55:57Z</time><extensions><speed>0.496536</speed><course>261.193146</course><hAcc>0.884771</hAcc><vAcc>0.703411</vAcc></extensions></trkpt>
      <trkpt lon="-4.149459" lat="53.024830"><ele>304.608246</ele><time>2021-07-17T13:55:58Z</time><extensions><speed>0.537240</speed><course>261.193146</course><hAcc>0.884947</hAcc><vAcc>0.704019</vAcc></extensions></trkpt>
      <trkpt lon="-4.149453" lat="53.024833"><ele>304.488922</ele><time>2021-07-17T13:55:59Z</time><extensions><speed>0.578900</speed><course>261.193146</course><hAcc>0.885078</hAcc><vAcc>0.704443</vAcc></extensions></trkpt>
      <trkpt lon="-4.149446" lat="53.024836"><ele>304.379425</ele><time>2021-07-17T13:56:00Z</time><extensions><speed>0.620919</speed><course>234.852402</course><hAcc>0.885164</hAcc><vAcc>0.704676</vAcc></extensions></trkpt>
      <trkpt lon="-4.149438" lat="53.024839"><ele>304.280334</ele><time>2021-07-17T13:56:01Z</time><extensions><speed>0.663379</speed><course>215.025620</course><hAcc>0.885202</hAcc><vAcc>0.704733</vAcc></extensions></trkpt>
      <trkpt lon="-4.149429" lat="53.024842"><ele>304.192230</ele><time>2021-07-17T13:56:02Z</time><extensions><speed>0.705979</speed><course>206.872131</course><hAcc>0.885197</hAcc><vAcc>0.704637</vAcc></extensions></trkpt>
      <trkpt lon="-4.149419" lat="53.024845"><ele>304.114868</ele><time>2021-07-17T13:56:03Z</time><extensions><speed>0.747304</speed><course>205.862991</course><hAcc>0.885152</hAcc><vAcc>0.704414</vAcc></extensions></trkpt>
      <trkpt lon="-4.149409" lat="53.024848"><ele>304.047668</ele><time>2021-07-17T13:56:04Z</time><extensions><speed>0.784708</speed><course>205.862976</course><hAcc>0.885072</hAcc><vAcc>0.704089</vAcc></extensions></trkpt>
      <trkpt lon="-4.149398" lat="53.024851"><ele>303.990143</ele><time>2021-07-17T13:56:05Z</time><extensions><speed>0.816141</speed><course>234.677673</course><hAcc>0.884964</hAcc><vAcc>0.703685</vAcc></extensions></trkpt>
      <trkpt lon="-4.149386" lat="53.024853"><ele>303.941986</ele><time>2021-07-17T13:56:06Z</time><extensions><speed>0.840736</speed><course>246.321655</course><hAcc>0.884835</hAcc><vAcc>0.703221</vAcc></extensions></trkpt>
      <trkpt lon="-4.149374" lat="53.024856"><ele>303.902740</ele><time>2021-07-17T13:56:07Z</time><extensions><speed>0.858685</speed><course>256.732239</course><hAcc>0.884690</hAcc><vAcc>0.702715</vAcc></extensions></trkpt>
      <trkpt lon="-4.149362" lat="53.024858"><ele>303.871552</ele><time>2021-07-17T13:56:08Z</time><extensions><speed>0.870491</speed><course>257.461731</course><hAcc>0.884536</hAcc><vAcc>0.702187</vAcc></extensions></trkpt>
      <trkpt lon="-4.149349" lat="53.024860"><ele>303.847900</ele><time>2021-07-17T13:56:09Z</time><extensions><speed>0.877092</speed><course>256.219269</course><hAcc>0.884378</hAcc><vAcc>0.701655</vAcc></extensions></trkpt>
      <trkpt lon="-4.149337" lat="53.024862"><ele>303.831451</ele><time>2021-07-17T13:56:10Z</time><extensions><speed>0.880722</speed><course>253.669510</course><hAcc>0.884220</hAcc><vAcc>0.701136</vAcc></extensions></trkpt>
      <trkpt lon="-4.149324" lat="53.024864"><ele>303.821320</ele><time>2021-07-17T13:56:11Z</time><extensions><speed>0.883014</speed><course>253.907227</course><hAcc>0.884065</hAcc><vAcc>0.700641</vAcc></extensions></trkpt>
      <trkpt lon="-4.149312" lat="53.024867"><ele>303.816742</ele><time>2021-07-17T13:56:12Z</time><extensions><speed>0.884234</speed><course>260.189209</course><hAcc>0.883915</hAcc><vAcc>0.700176</vAcc></extensions></trkpt>
      <trkpt lon="-4.149299" lat="53.024869"><ele>303.817139</ele><time>2021-07-17T13:56:13Z</time><extensions><speed>0.884775</speed><course>263.253174</course><hAcc>0.883771</hAcc><vAcc>0.699735</vAcc></extensions></trkpt>
      <trkpt lon="-4.149286" lat="53.024871"><ele>303.821747</ele><time>2021-07-17T13:56:14Z</time><extensions><speed>0.885215</speed><course>264.349060</course><hAcc>0.883633</hAcc><vAcc>0.699310</vAcc></extensions></trkpt>
      <trkpt lon="-4.149274" lat="53.024873"><ele>303.829498</ele><time>2021-07-17T13:56:15Z</time><extensions><speed>0.886407</speed><course>258.002991</course><hAcc>0.883502</hAcc><vAcc>0.698897</vAcc></extensions></trkpt>
      <trkpt lon="-4.149261" lat="53.024876"><ele>303.839020</ele><time>2021-07-17T13:56:16Z</time><extensions><speed>0.889372</speed><course>264.832825</course><hAcc>0.883377</hAcc><vAcc>0.698495</vAcc></extensions></trkpt>
      <trkpt lon="-4.149248" lat="53.024879"><ele>303.848907</ele><time>2021-07-17T13:56:17Z</time><extensions><speed>0.894499</speed><course>262.654938</course><hAcc>0.883258</hAcc><vAcc>0.698107</vAcc></extensions></trkpt>
      <trkpt lon="-4.149236" lat="53.024881"><ele>303.857513</ele><time>2021-07-17T13:56:18Z</time><extensions><speed>0.902256</speed><course>262.654938</course><hAcc>0.883146</hAcc><vAcc>0.697737</vAcc></extensions></trkpt>
      <trkpt lon="-4.149223" lat="53.024884"><ele>303.862976</ele><time>2021-07-17T13:56:19Z</time><extensions><speed>0.913438</speed><course>262.654938</course><hAcc>0.883039</hAcc><vAcc>0.697385</vAcc></extensions></trkpt>
      <trkpt lon="-4.149211" lat="53.024888"><ele>303.863434</ele><time>2021-07-17T13:56:20Z</time><extensions><speed>0.928469</speed><course>262.654938</course><hAcc>0.882939</hAcc><vAcc>0.697052</vAcc></extensions></trkpt>
      <trkpt lon="-4.149198" lat="53.024891"><ele>303.857300</ele><time>2021-07-17T13:56:21Z</time><extensions><speed>0.947591</speed><course>262.654938</course><hAcc>0.882843</hAcc><vAcc>0.696739</vAcc></extensions></trkpt>
      <trkpt lon="-4.149185" lat="53.024895"><ele>303.843292</ele><time>2021-07-17T13:56:22Z</time><extensions><speed>0.970628</speed><course>262.654938</course><hAcc>0.882753</hAcc><vAcc>0.696442</vAcc></extensions></trkpt>
      <trkpt lon="-4.149172" lat="53.024898"><ele>303.820892</ele><time>2021-07-17T13:56:24Z</time><extensions><speed>0.996794</speed><course>262.654938</course><hAcc>0.882647</hAcc><vAcc>0.696140</vAcc></extensions></trkpt>
      <trkpt lon="-4.149158" lat="53.024903"><ele>303.790344</ele><time>2021-07-17T13:56:25Z</time><extensions><speed>1.025117</speed><course>262.654938</course><hAcc>0.882526</hAcc><vAcc>0.695821</vAcc></extensions></trkpt>
      <trkpt lon="-4.149145" lat="53.024907"><ele>303.752045</ele><time>2021-07-17T13:56:26Z</time><extensions><speed>1.054865</speed><course>262.654938</course><hAcc>0.882404</hAcc><vAcc>0.695484</vAcc></extensions></trkpt>
      <trkpt lon="-4.149130" lat="53.024911"><ele>303.706421</ele><time>2021-07-17T13:56:27Z</time><extensions><speed>1.084614</speed><course>262.654938</course><hAcc>0.882282</hAcc><vAcc>0.695119</vAcc></extensions></trkpt>
      <trkpt lon="-4.149116" lat="53.024916"><ele>303.653992</ele><time>2021-07-17T13:56:28Z</time><extensions><speed>1.112707</speed><course>262.654938</course><hAcc>0.882158</hAcc><vAcc>0.694725</vAcc></extensions></trkpt>
      <trkpt lon="-4.149101" lat="53.024921"><ele>303.595276</ele><time>2021-07-17T13:56:29Z</time><extensions><speed>1.137561</speed><course>262.654938</course><hAcc>0.882035</hAcc><vAcc>0.694311</vAcc></extensions></trkpt>
      <trkpt lon="-4.149086" lat="53.024925"><ele>303.531036</ele><time>2021-07-17T13:56:30Z</time><extensions><speed>1.157778</speed><course>262.654938</course><hAcc>0.881914</hAcc><vAcc>0.693895</vAcc></extensions></trkpt>
      <trkpt lon="-4.149071" lat="53.024930"><ele>303.461700</ele><time>2021-07-17T13:56:31Z</time><extensions><speed>1.172948</speed><course>262.654938</course><hAcc>0.881800</hAcc><vAcc>0.693496</vAcc></extensions></trkpt>
      <trkpt lon="-4.149055" lat="53.024935"><ele>303.386658</ele><time>2021-07-17T13:56:32Z</time><extensions><speed>1.183391</speed><course>262.654938</course><hAcc>0.881695</hAcc><vAcc>0.693131</vAcc></extensions></trkpt>
      <trkpt lon="-4.149039" lat="53.024940"><ele>303.304871</ele><time>2021-07-17T13:56:33Z</time><extensions><speed>1.189111</speed><course>262.654938</course><hAcc>0.881602</hAcc><vAcc>0.692817</vAcc></extensions></trkpt>
      <trkpt lon="-4.149024" lat="53.024945"><ele>303.215881</ele><time>2021-07-17T13:56:34Z</time><extensions><speed>1.189926</speed><course>262.654938</course><hAcc>0.881523</hAcc><vAcc>0.692564</vAcc></extensions></trkpt>
      <trkpt lon="-4.149008" lat="53.024950"><ele>303.119904</ele><time>2021-07-17T13:56:35Z</time><extensions><speed>1.186264</speed><course>262.654938</course><hAcc>0.881459</hAcc><vAcc>0.692373</vAcc></extensions></trkpt>
      <trkpt lon="-4.148992" lat="53.024955"><ele>303.017334</ele><time>2021-07-17T13:56:36Z</time><extensions><speed>1.178190</speed><course>262.654938</course><hAcc>0.881408</hAcc><vAcc>0.692240</vAcc></extensions></trkpt>
      <trkpt lon="-4.148977" lat="53.024960"><ele>302.908905</ele><time>2021-07-17T13:56:37Z</time><extensions><speed>1.165738</speed><course>262.654938</course><hAcc>0.881370</hAcc><vAcc>0.692152</vAcc></extensions></trkpt>
      <trkpt lon="-4.148962" lat="53.024965"><ele>302.795410</ele><time>2021-07-17T13:56:38Z</time><extensions><speed>1.149631</speed><course>262.654938</course><hAcc>0.881340</hAcc><vAcc>0.692093</vAcc></extensions></trkpt>
      <trkpt lon="-4.148947" lat="53.024970"><ele>302.677704</ele><time>2021-07-17T13:56:39Z</time><extensions><speed>1.130704</speed><course>262.654938</course><hAcc>0.881316</hAcc><vAcc>0.692048</vAcc></extensions></trkpt>
      <trkpt lon="-4.148932" lat="53.024975"><ele>302.556824</ele><time>2021-07-17T13:56:40Z</time><extensions><speed>1.109988</speed><course>262.654938</course><hAcc>0.881295</hAcc><vAcc>0.692004</vAcc></extensions></trkpt>
      <trkpt lon="-4.148918" lat="53.024980"><ele>302.433899</ele><time>2021-07-17T13:56:41Z</time><extensions><speed>1.088523</speed><course>262.654938</course><hAcc>0.881274</hAcc><vAcc>0.691952</vAcc></extensions></trkpt>
      <trkpt lon="-4.148904" lat="53.024984"><ele>302.310150</ele><time>2021-07-17T13:56:42Z</time><extensions><speed>1.067263</speed><course>262.654938</course><hAcc>0.881251</hAcc><vAcc>0.691891</vAcc></extensions></trkpt>
      <trkpt lon="-4.148891" lat="53.024989"><ele>302.186615</ele><time>2021-07-17T13:56:43Z</time><extensions><speed>1.047020</speed><course>262.654938</course><hAcc>0.881225</hAcc><vAcc>0.691823</vAcc></extensions></trkpt>
      <trkpt lon="-4.148877" lat="53.024994"><ele>302.064056</ele><time>2021-07-17T13:56:44Z</time><extensions><speed>1.028335</speed><course>262.654938</course><hAcc>0.881195</hAcc><vAcc>0.691750</vAcc></extensions></trkpt>
      <trkpt lon="-4.148865" lat="53.024999"><ele>301.943085</ele><time>2021-07-17T13:56:45Z</time><extensions><speed>1.011740</speed><course>262.654938</course><hAcc>0.881160</hAcc><vAcc>0.691666</vAcc></extensions></trkpt>
      <trkpt lon="-4.148852" lat="53.025004"><ele>301.824219</ele><time>2021-07-17T13:56:46Z</time><extensions><speed>0.997843</speed><course>262.654938</course><hAcc>0.881121</hAcc><vAcc>0.691562</vAcc></extensions></trkpt>
      <trkpt lon="-4.148840" lat="53.025009"><ele>301.707550</ele><time>2021-07-17T13:56:47Z</time><extensions><speed>0.987357</speed><course>262.654938</course><hAcc>0.881079</hAcc><vAcc>0.691424</vAcc></extensions></trkpt>
      <trkpt lon="-4.148828" lat="53.025014"><ele>301.592499</ele><time>2021-07-17T13:56:48Z</time><extensions><speed>0.980705</speed><course>262.654938</course><hAcc>0.881036</hAcc><vAcc>0.691252</vAcc></extensions></trkpt>
      <trkpt lon="-4.148817" lat="53.025020"><ele>301.478394</ele><time>2021-07-17T13:56:49Z</time><extensions><speed>0.978258</speed><course>262.654938</course><hAcc>0.880999</hAcc><vAcc>0.691062</vAcc></extensions></trkpt>
      <trkpt lon="-4.148805" lat="53.025025"><ele>301.364380</ele><time>2021-07-17T13:56:50Z</time><extensions><speed>0.980647</speed><course>262.654938</course><hAcc>0.880974</hAcc><vAcc>0.690890</vAcc></extensions></trkpt>
      <trkpt lon="-4.148794" lat="53.025031"><ele>301.249573</ele><time>2021-07-17T13:56:51Z</time><extensions><speed>0.987770</speed><course>262.654938</course><hAcc>0.880971</hAcc><vAcc>0.690785</vAcc></extensions></trkpt>
      <trkpt lon="-4.148783" lat="53.025037"><ele>301.133240</ele><time>2021-07-17T13:56:52Z</time><extensions><speed>0.998825</speed><course>262.654938</course><hAcc>0.880997</hAcc><vAcc>0.690798</vAcc></extensions></trkpt>
      <trkpt lon="-4.148772" lat="53.025043"><ele>301.015167</ele><time>2021-07-17T13:56:53Z</time><extensions><speed>1.012772</speed><course>262.654938</course><hAcc>0.881060</hAcc><vAcc>0.690969</vAcc></extensions></trkpt>
      <trkpt lon="-4.148761" lat="53.025050"><ele>300.895874</ele><time>2021-07-17T13:56:54Z</time><extensions><speed>1.027999</speed><course>262.654938</course><hAcc>0.881161</hAcc><vAcc>0.691310</vAcc></extensions></trkpt>
      <trkpt lon="-4.148751" lat="53.025056"><ele>300.776367</ele><time>2021-07-17T13:56:55Z</time><extensions><speed>1.042846</speed><course>262.654938</course><hAcc>0.881297</hAcc><vAcc>0.691801</vAcc></extensions></trkpt>
      <trkpt lon="-4.148740" lat="53.025063"><ele>300.657715</ele><time>2021-07-17T13:56:56Z</time><extensions><speed>1.056184</speed><course>262.654938</course><hAcc>0.881462</hAcc><vAcc>0.692404</vAcc></extensions></trkpt>
      <trkpt lon="-4.148730" lat="53.025070"><ele>300.540680</ele><time>2021-07-17T13:56:57Z</time><extensions><speed>1.067086</speed><course>262.654938</course><hAcc>0.881647</hAcc><vAcc>0.693074</vAcc></extensions></trkpt>
      <trkpt lon="-4.148719" lat="53.025078"><ele>300.425934</ele><time>2021-07-17T13:56:58Z</time><extensions><speed>1.074298</speed><course>262.654938</course><hAcc>0.881844</hAcc><vAcc>0.693770</vAcc></extensions></trkpt>
      <trkpt lon="-4.148709" lat="53.025085"><ele>300.314362</ele><time>2021-07-17T13:56:59Z</time><extensions><speed>1.076781</speed><course>262.654938</course><hAcc>0.882043</hAcc><vAcc>0.694462</vAcc></extensions></trkpt>
      <trkpt lon="-4.148698" lat="53.025092"><ele>300.207123</ele><time>2021-07-17T13:57:00Z</time><extensions><speed>1.074581</speed><course>262.654938</course><hAcc>0.882236</hAcc><vAcc>0.695125</vAcc></extensions></trkpt>
      <trkpt lon="-4.148688" lat="53.025100"><ele>300.104767</ele><time>2021-07-17T13:57:01Z</time><extensions><speed>1.068111</speed><course>262.654938</course><hAcc>0.882418</hAcc><vAcc>0.695739</vAcc></extensions></trkpt>
      <trkpt lon="-4.148678" lat="53.025107"><ele>300.007477</ele><time>2021-07-17T13:57:02Z</time><extensions><speed>1.057524</speed><course>262.654938</course><hAcc>0.882581</hAcc><vAcc>0.696285</vAcc></extensions></trkpt>
      <trkpt lon="-4.148667" lat="53.025114"><ele>299.915314</ele><time>2021-07-17T13:57:03Z</time><extensions><speed>1.043430</speed><course>262.654938</course><hAcc>0.882724</hAcc><vAcc>0.696749</vAcc></extensions></trkpt>
      <trkpt lon="-4.148657" lat="53.025121"><ele>299.828278</ele><time>2021-07-17T13:57:04Z</time><extensions><speed>1.027070</speed><course>262.654938</course><hAcc>0.882844</hAcc><vAcc>0.697124</vAcc></extensions></trkpt>
      <trkpt lon="-4.148647" lat="53.025128"><ele>299.745850</ele><time>2021-07-17T13:57:05Z</time><extensions><speed>1.009660</speed><course>262.654938</course><hAcc>0.882942</hAcc><vAcc>0.697409</vAcc></extensions></trkpt>
      <trkpt lon="-4.148637" lat="53.025134"><ele>299.667450</ele><time>2021-07-17T13:57:06Z</time><extensions><speed>0.992726</speed><course>262.654938</course><hAcc>0.883022</hAcc><vAcc>0.697610</vAcc></extensions></trkpt>
      <trkpt lon="-4.148626" lat="53.025140"><ele>299.592285</ele><time>2021-07-17T13:57:07Z</time><extensions><speed>0.978180</speed><course>262.654938</course><hAcc>0.883089</hAcc><vAcc>0.697743</vAcc></extensions></trkpt>
      <trkpt lon="-4.148615" lat="53.025146"><ele>299.519836</ele><time>2021-07-17T13:57:08Z</time><extensions><speed>0.966955</speed><course>262.654938</course><hAcc>0.883151</hAcc><vAcc>0.697840</vAcc></extensions></trkpt>
      <trkpt lon="-4.148604" lat="53.025151"><ele>299.449829</ele><time>2021-07-17T13:57:09Z</time><extensions><speed>0.959067</speed><course>262.654938</course><hAcc>0.883214</hAcc><vAcc>0.697941</vAcc></extensions></trkpt>
      <trkpt lon="-4.148592" lat="53.025156"><ele>299.381592</ele><time>2021-07-17T13:57:10Z</time><extensions><speed>0.955003</speed><course>262.654938</course><hAcc>0.883287</hAcc><vAcc>0.698087</vAcc></extensions></trkpt>
      <trkpt lon="-4.148580" lat="53.025161"><ele>299.314026</ele><time>2021-07-17T13:57:11Z</time><extensions><speed>0.955654</speed><course>262.654938</course><hAcc>0.883378</hAcc><vAcc>0.698320</vAcc></extensions></trkpt>
      <trkpt lon="-4.148567" lat="53.025165"><ele>299.245850</ele><time>2021-07-17T13:57:12Z</time><extensions><speed>0.960969</speed><course>262.654938</course><hAcc>0.883489</hAcc><vAcc>0.698664</vAcc></extensions></trkpt>
      <trkpt lon="-4.148554" lat="53.025169"><ele>299.176270</ele><time>2021-07-17T13:57:13Z</time><extensions><speed>0.969341</speed><course>262.654938</course><hAcc>0.883624</hAcc><vAcc>0.699124</vAcc></extensions></trkpt>
      <trkpt lon="-4.148541" lat="53.025172"><ele>299.105408</ele><time>2021-07-17T13:57:14Z</time><extensions><speed>0.978610</speed><course>262.654938</course><hAcc>0.883779</hAcc><vAcc>0.699678</vAcc></extensions></trkpt>
      <trkpt lon="-4.148527" lat="53.025175"><ele>299.033905</ele><time>2021-07-17T13:57:15Z</time><extensions><speed>0.987072</speed><course>209.646423</course><hAcc>0.883950</hAcc><vAcc>0.700294</vAcc></extensions></trkpt>
      <trkpt lon="-4.148513" lat="53.025177"><ele>298.962311</ele><time>2021-07-17T13:57:16Z</time><extensions><speed>0.993494</speed><course>207.502853</course><hAcc>0.884130</hAcc><vAcc>0.700938</vAcc></extensions></trkpt>
      <trkpt lon="-4.148498" lat="53.025179"><ele>298.890900</ele><time>2021-07-17T13:57:17Z</time><extensions><speed>0.997027</speed><course>210.649872</course><hAcc>0.884310</hAcc><vAcc>0.701583</vAcc></extensions></trkpt>
      <trkpt lon="-4.148484" lat="53.025181"><ele>298.819458</ele><time>2021-07-17T13:57:18Z</time><extensions><speed>0.997616</speed><course>218.307190</course><hAcc>0.884481</hAcc><vAcc>0.702203</vAcc></extensions></trkpt>
      <trkpt lon="-4.148469" lat="53.025183"><ele>298.747559</ele><time>2021-07-17T13:57:19Z</time><extensions><speed>0.995866</speed><course>221.774033</course><hAcc>0.884631</hAcc><vAcc>0.702770</vAcc></extensions></trkpt>
      <trkpt lon="-4.148455" lat="53.025184"><ele>298.675201</ele><time>2021-07-17T13:57:20Z</time><extensions><speed>0.991898</speed><course>225.071381</course><hAcc>0.884750</hAcc><vAcc>0.703255</vAcc></extensions></trkpt>
      <trkpt lon="-4.148440" lat="53.025185"><ele>298.603302</ele><time>2021-07-17T13:57:21Z</time><extensions><speed>0.984422</speed><course>229.682953</course><hAcc>0.884827</hAcc><vAcc>0.703624</vAcc></extensions></trkpt>
      <trkpt lon="-4.148425" lat="53.025186"><ele>298.533478</ele><time>2021-07-17T13:57:22Z</time><extensions><speed>0.971843</speed><course>228.187271</course><hAcc>0.884850</hAcc><vAcc>0.703839</vAcc></extensions></trkpt>
      <trkpt lon="-4.148411" lat="53.025187"><ele>298.466705</ele><time>2021-07-17T13:57:22Z</time><extensions><speed>0.953953</speed><course>224.821243</course><hAcc>0.884829</hAcc><vAcc>0.703873</vAcc></extensions></trkpt>
      <trkpt lon="-4.148397" lat="53.025188"><ele>298.402802</ele><time>2021-07-17T13:57:23Z</time><extensions><speed>0.932053</speed><course>222.757462</course><hAcc>0.884757</hAcc><vAcc>0.703694</vAcc></extensions></trkpt>
      <trkpt lon="-4.148384" lat="53.025189"><ele>298.341583</ele><time>2021-07-17T13:57:24Z</time><extensions><speed>0.907756</speed><course>223.047150</course><hAcc>0.884612</hAcc><vAcc>0.703268</vAcc></extensions></trkpt>
      <trkpt lon="-4.148370" lat="53.025190"><ele>298.282806</ele><time>2021-07-17T13:57:25Z</time><extensions><speed>0.881988</speed><course>218.695862</course><hAcc>0.884393</hAcc><vAcc>0.702584</vAcc></extensions></trkpt>
      <trkpt lon="-4.148357" lat="53.025191"><ele>298.226257</ele><time>2021-07-17T13:57:26Z</time><extensions><speed>0.855349</speed><course>216.351273</course><hAcc>0.884106</hAcc><vAcc>0.701643</vAcc></extensions></trkpt>
      <trkpt lon="-4.148345" lat="53.025192"><ele>298.171722</ele><time>2021-07-17T13:57:27Z</time><extensions><speed>0.828310</speed><course>219.658188</course><hAcc>0.883758</hAcc><vAcc>0.700463</vAcc></extensions></trkpt>
      <trkpt lon="-4.148333" lat="53.025193"><ele>298.119141</ele><time>2021-07-17T13:57:28Z</time><extensions><speed>0.801206</speed><course>221.748871</course><hAcc>0.883361</hAcc><vAcc>0.699079</vAcc></extensions></trkpt>
      <trkpt lon="-4.148321" lat="53.025194"><ele>298.068970</ele><time>2021-07-17T13:57:29Z</time><extensions><speed>0.774501</speed><course>225.723022</course><hAcc>0.882932</hAcc><vAcc>0.697548</vAcc></extensions></trkpt>
      <trkpt lon="-4.148310" lat="53.025194"><ele>298.021820</ele><time>2021-07-17T13:57:30Z</time><extensions><speed>0.749536</speed><course>227.303833</course><hAcc>0.882490</hAcc><vAcc>0.695941</vAcc></extensions></trkpt>
      <trkpt lon="-4.148299" lat="53.025195"><ele>297.977539</ele><time>2021-07-17T13:57:31Z</time><extensions><speed>0.728287</speed><course>225.742310</course><hAcc>0.882056</hAcc><vAcc>0.694344</vAcc></extensions></trkpt>
      <trkpt lon="-4.148289" lat="53.025196"><ele>297.935272</ele><time>2021-07-17T13:57:32Z</time><extensions><speed>0.712693</speed><course>225.742310</course><hAcc>0.881652</hAcc><vAcc>0.692853</vAcc></extensions></trkpt>
      <trkpt lon="-4.148278" lat="53.025196"><ele>297.894043</ele><time>2021-07-17T13:57:33Z</time><extensions><speed>0.703406</speed><course>225.742325</course><hAcc>0.881298</hAcc><vAcc>0.691565</vAcc></extensions></trkpt>
      <trkpt lon="-4.148268" lat="53.025197"><ele>297.853088</ele><time>2021-07-17T13:57:34Z</time><extensions><speed>0.699236</speed><course>225.742325</course><hAcc>0.881010</hAcc><vAcc>0.690560</vAcc></extensions></trkpt>
      <trkpt lon="-4.148257" lat="53.025197"><ele>297.811798</ele><time>2021-07-17T13:57:35Z</time><extensions><speed>0.698831</speed><course>225.742325</course><hAcc>0.880796</hAcc><vAcc>0.689888</vAcc></extensions></trkpt>
      <trkpt lon="-4.148247" lat="53.025197"><ele>297.769531</ele><time>2021-07-17T13:57:36Z</time><extensions><speed>0.700973</speed><course>224.360504</course><hAcc>0.880658</hAcc><vAcc>0.689551</vAcc></extensions></trkpt>
      <trkpt lon="-4.148236" lat="53.025196"><ele>297.725647</ele><time>2021-07-17T13:57:37Z</time><extensions><speed>0.703912</speed><course>231.374908</course><hAcc>0.880587</hAcc><vAcc>0.689496</vAcc></extensions></trkpt>
      <trkpt lon="-4.148226" lat="53.025196"><ele>297.679718</ele><time>2021-07-17T13:57:38Z</time><extensions><speed>0.705708</speed><course>226.234039</course><hAcc>0.880569</hAcc><vAcc>0.689633</vAcc></extensions></trkpt>
      <trkpt lon="-4.148215" lat="53.025195"><ele>297.631866</ele><time>2021-07-17T13:57:39Z</time><extensions><speed>0.705305</speed><course>215.204285</course><hAcc>0.880558</hAcc><vAcc>0.689806</vAcc></extensions></trkpt>
      <trkpt lon="-4.148205" lat="53.025195"><ele>297.582886</ele><time>2021-07-17T13:57:40Z</time><extensions><speed>0.701790</speed><course>192.608246</course><hAcc>0.880568</hAcc><vAcc>0.689970</vAcc></extensions></trkpt>
      <trkpt lon="-4.148195" lat="53.025194"><ele>297.532013</ele><time>2021-07-17T13:57:41Z</time><extensions><speed>0.695355</speed><course>196.818375</course><hAcc>0.880578</hAcc><vAcc>0.690052</vAcc></extensions></trkpt>
      <trkpt lon="-4.148184" lat="53.025193"><ele>297.478699</ele><time>2021-07-17T13:57:42Z</time><extensions><speed>0.686278</speed><course>200.564194</course><hAcc>0.880576</hAcc><vAcc>0.690022</vAcc></extensions></trkpt>
      <trkpt lon="-4.148174" lat="53.025192"><ele>297.422150</ele><time>2021-07-17T13:57:43Z</time><extensions><speed>0.674351</speed><course>224.718231</course><hAcc>0.880562</hAcc><vAcc>0.689890</vAcc></extensions></trkpt>
      <trkpt lon="-4.148165" lat="53.025191"><ele>297.362061</ele><time>2021-07-17T13:57:44Z</time><extensions><speed>0.659604</speed><course>228.969803</course><hAcc>0.880536</hAcc><vAcc>0.689696</vAcc></extensions></trkpt>
      <trkpt lon="-4.148155" lat="53.025190"><ele>297.298523</ele><time>2021-07-17T13:57:45Z</time><extensions><speed>0.643112</speed><course>250.366501</course><hAcc>0.880505</hAcc><vAcc>0.689493</vAcc></extensions></trkpt>
      <trkpt lon="-4.148146" lat="53.025190"><ele>297.231903</ele><time>2021-07-17T13:57:46Z</time><extensions><speed>0.626819</speed><course>-1.000000</course><hAcc>0.880478</hAcc><vAcc>0.689331</vAcc></extensions></trkpt>
      <trkpt lon="-4.148136" lat="53.025189"><ele>297.162506</ele><time>2021-07-17T13:57:47Z</time><extensions><speed>0.613460</speed><course>232.063629</course><hAcc>0.880461</hAcc><vAcc>0.689247</vAcc></extensions></trkpt>
      <trkpt lon="-4.148127" lat="53.025189"><ele>297.090240</ele><time>2021-07-17T13:57:48Z</time><extensions><speed>0.605936</speed><course>232.063614</course><hAcc>0.880458</hAcc><vAcc>0.689248</vAcc></extensions></trkpt>
      <trkpt lon="-4.148118" lat="53.025189"><ele>297.014801</ele><time>2021-07-17T13:57:49Z</time><extensions><speed>0.606269</speed><course>232.063614</course><hAcc>0.880471</hAcc><vAcc>0.689317</vAcc></extensions></trkpt>
      <trkpt lon="-4.148109" lat="53.025189"><ele>296.935791</ele><time>2021-07-17T13:57:50Z</time><extensions><speed>0.614929</speed><course>232.063599</course><hAcc>0.880499</hAcc><vAcc>0.689429</vAcc></extensions></trkpt>
      <trkpt lon="-4.148100" lat="53.025189"><ele>296.852966</ele><time>2021-07-17T13:57:51Z</time><extensions><speed>0.630989</speed><course>232.063599</course><hAcc>0.880543</hAcc><vAcc>0.689572</vAcc></extensions></trkpt>
      <trkpt lon="-4.148090" lat="53.025189"><ele>296.766266</ele><time>2021-07-17T13:57:52Z</time><extensions><speed>0.652708</speed><course>232.063583</course><hAcc>0.880602</hAcc><vAcc>0.689745</vAcc></extensions></trkpt>
      <trkpt lon="-4.148081" lat="53.025190"><ele>296.676239</ele><time>2021-07-17T13:57:53Z</time><extensions><speed>0.678405</speed><course>232.063583</course><hAcc>0.880679</hAcc><vAcc>0.689959</vAcc></extensions></trkpt>
      <trkpt lon="-4.148070" lat="53.025190"><ele>296.583710</ele><time>2021-07-17T13:57:54Z</time><extensions><speed>0.706626</speed><course>248.555511</course><hAcc>0.880775</hAcc><vAcc>0.690226</vAcc></extensions></trkpt>
      <trkpt lon="-4.148060" lat="53.025191"><ele>296.489655</ele><time>2021-07-17T13:57:55Z</time><extensions><speed>0.736193</speed><course>214.727661</course><hAcc>0.880889</hAcc><vAcc>0.690564</vAcc></extensions></trkpt>
      <trkpt lon="-4.148048" lat="53.025192"><ele>296.394958</ele><time>2021-07-17T13:57:56Z</time><extensions><speed>0.766239</speed><course>215.656113</course><hAcc>0.881022</hAcc><vAcc>0.690987</vAcc></extensions></trkpt>
      <trkpt lon="-4.148037" lat="53.025193"><ele>296.300293</ele><time>2021-07-17T13:57:57Z</time><extensions><speed>0.796246</speed><course>205.637772</course><hAcc>0.881170</hAcc><vAcc>0.691498</vAcc></extensions></trkpt>
      <trkpt lon="-4.148025" lat="53.025194"><ele>296.206207</ele><time>2021-07-17T13:57:58Z</time><extensions><speed>0.824943</speed><course>201.575424</course><hAcc>0.881328</hAcc><vAcc>0.692079</vAcc></extensions></trkpt>
      <trkpt lon="-4.148012" lat="53.025195"><ele>296.113464</ele><time>2021-07-17T13:57:59Z</time><extensions><speed>0.849852</speed><course>196.854248</course><hAcc>0.881488</hAcc><vAcc>0.692691</vAcc></extensions></trkpt>
      <trkpt lon="-4.148000" lat="53.025195"><ele>296.022705</ele><time>2021-07-17T13:58:00Z</time><extensions><speed>0.869311</speed><course>198.264053</course><hAcc>0.881640</hAcc><vAcc>0.693285</vAcc></extensions></trkpt>
      <trkpt lon="-4.147987" lat="53.025196"><ele>295.934387</ele><time>2021-07-17T13:58:01Z</time><extensions><speed>0.882820</speed><course>198.636932</course><hAcc>0.881774</hAcc><vAcc>0.693813</vAcc></extensions></trkpt>
      <trkpt lon="-4.147974" lat="53.025197"><ele>295.848694</ele><time>2021-07-17T13:58:02Z</time><extensions><speed>0.890566</speed><course>192.727798</course><hAcc>0.881882</hAcc><vAcc>0.694233</vAcc></extensions></trkpt>
      <trkpt lon="-4.147960" lat="53.025197"><ele>295.766235</ele><time>2021-07-17T13:58:03Z</time><extensions><speed>0.893692</speed><course>184.691818</course><hAcc>0.881961</hAcc><vAcc>0.694518</vAcc></extensions></trkpt>
      <trkpt lon="-4.147947" lat="53.025198"><ele>295.687378</ele><time>2021-07-17T13:58:04Z</time><extensions><speed>0.893742</speed><course>177.917740</course><hAcc>0.882007</hAcc><vAcc>0.694652</vAcc></extensions></trkpt>
      <trkpt lon="-4.147934" lat="53.025198"><ele>295.612183</ele><time>2021-07-17T13:58:05Z</time><extensions><speed>0.892378</speed><course>169.935883</course><hAcc>0.882024</hAcc><vAcc>0.694639</vAcc></extensions></trkpt>
      <trkpt lon="-4.147920" lat="53.025198"><ele>295.540344</ele><time>2021-07-17T13:58:06Z</time><extensions><speed>0.891328</speed><course>168.290512</course><hAcc>0.882018</hAcc><vAcc>0.694505</vAcc></extensions></trkpt>
      <trkpt lon="-4.147907" lat="53.025198"><ele>295.471863</ele><time>2021-07-17T13:58:07Z</time><extensions><speed>0.892744</speed><course>175.847488</course><hAcc>0.882001</hAcc><vAcc>0.694298</vAcc></extensions></trkpt>
      <trkpt lon="-4.147894" lat="53.025198"><ele>295.406769</ele><time>2021-07-17T13:58:08Z</time><extensions><speed>0.898731</speed><course>182.489380</course><hAcc>0.881985</hAcc><vAcc>0.694083</vAcc></extensions></trkpt>
      <trkpt lon="-4.147880" lat="53.025198"><ele>295.345032</ele><time>2021-07-17T13:58:09Z</time><extensions><speed>0.909943</speed><course>193.224472</course><hAcc>0.881985</hAcc><vAcc>0.693928</vAcc></extensions></trkpt>
      <trkpt lon="-4.147867" lat="53.025198"><ele>295.286499</ele><time>2021-07-17T13:58:10Z</time><extensions><speed>0.924832</speed><course>210.457108</course><hAcc>0.882014</hAcc><vAcc>0.693904</vAcc></extensions></trkpt>
      <trkpt lon="-4.147853" lat="53.025199"><ele>295.231018</ele><time>2021-07-17T13:58:11Z</time><extensions><speed>0.940465</speed><course>227.054108</course><hAcc>0.882083</hAcc><vAcc>0.694065</vAcc></extensions></trkpt>
      <trkpt lon="-4.147839" lat="53.025199"><ele>295.178375</ele><time>2021-07-17T13:58:12Z</time><extensions><speed>0.954292</speed><course>247.666534</course><hAcc>0.882197</hAcc><vAcc>0.694442</vAcc></extensions></trkpt>
      <trkpt lon="-4.147824" lat="53.025199"><ele>295.128479</ele><time>2021-07-17T13:58:13Z</time><extensions><speed>0.964881</speed><course>261.197876</course><hAcc>0.882358</hAcc><vAcc>0.695027</vAcc></extensions></trkpt>
      <trkpt lon="-4.147810" lat="53.025199"><ele>295.081055</ele><time>2021-07-17T13:58:14Z</time><extensions><speed>0.971852</speed><course>263.217255</course><hAcc>0.882561</hAcc><vAcc>0.695785</vAcc></extensions></trkpt>
      <trkpt lon="-4.147795" lat="53.025200"><ele>295.035889</ele><time>2021-07-17T13:58:15Z</time><extensions><speed>0.974625</speed><course>271.463165</course><hAcc>0.882797</hAcc><vAcc>0.696660</vAcc></extensions></trkpt>
      <trkpt lon="-4.147781" lat="53.025201"><ele>294.992493</ele><time>2021-07-17T13:58:16Z</time><extensions><speed>0.972258</speed><course>281.991608</course><hAcc>0.883055</hAcc><vAcc>0.697592</vAcc></extensions></trkpt>
      <trkpt lon="-4.147767" lat="53.025201"><ele>294.949768</ele><time>2021-07-17T13:58:17Z</time><extensions><speed>0.964327</speed><course>285.895782</course><hAcc>0.883323</hAcc><vAcc>0.698532</vAcc></extensions></trkpt>
      <trkpt lon="-4.147752" lat="53.025202"><ele>294.906616</ele><time>2021-07-17T13:58:18Z</time><extensions><speed>0.950693</speed><course>287.327179</course><hAcc>0.883593</hAcc><vAcc>0.699441</vAcc></extensions></trkpt>
      <trkpt lon="-4.147738" lat="53.025203"><ele>294.861908</ele><time>2021-07-17T13:58:19Z</time><extensions><speed>0.931547</speed><course>297.396240</course><hAcc>0.883855</hAcc><vAcc>0.700293</vAcc></extensions></trkpt>
      <trkpt lon="-4.147725" lat="53.025204"><ele>294.814484</ele><time>2021-07-17T13:58:20Z</time><extensions><speed>0.907699</speed><course>299.473175</course><hAcc>0.884102</hAcc><vAcc>0.701073</vAcc></extensions></trkpt>
      <trkpt lon="-4.147712" lat="53.025206"><ele>294.763092</ele><time>2021-07-17T13:58:21Z</time><extensions><speed>0.880177</speed><course>297.683289</course><hAcc>0.884328</hAcc><vAcc>0.701774</vAcc></extensions></trkpt>
      <trkpt lon="-4.147699" lat="53.025207"><ele>294.706512</ele><time>2021-07-17T13:58:22Z</time><extensions><speed>0.849769</speed><course>292.365356</course><hAcc>0.884532</hAcc><vAcc>0.702394</vAcc></extensions></trkpt>
      <trkpt lon="-4.147687" lat="53.025208"><ele>294.643646</ele><time>2021-07-17T13:58:23Z</time><extensions><speed>0.817536</speed><course>291.092651</course><hAcc>0.884711</hAcc><vAcc>0.702936</vAcc></extensions></trkpt>
      <trkpt lon="-4.147675" lat="53.025210"><ele>294.573914</ele><time>2021-07-17T13:58:24Z</time><extensions><speed>0.785244</speed><course>297.007721</course><hAcc>0.884865</hAcc><vAcc>0.703401</vAcc></extensions></trkpt>
      <trkpt lon="-4.147664" lat="53.025212"><ele>294.497101</ele><time>2021-07-17T13:58:25Z</time><extensions><speed>0.754983</speed><course>291.539093</course><hAcc>0.884993</hAcc><vAcc>0.703793</vAcc></extensions></trkpt>
      <trkpt lon="-4.147654" lat="53.025214"><ele>294.413330</ele><time>2021-07-17T13:58:26Z</time><extensions><speed>0.728652</speed><course>293.314819</course><hAcc>0.885096</hAcc><vAcc>0.704113</vAcc></extensions></trkpt>
      <trkpt lon="-4.147643" lat="53.025216"><ele>294.322937</ele><time>2021-07-17T13:58:27Z</time><extensions><speed>0.707629</speed><course>297.043213</course><hAcc>0.885176</hAcc><vAcc>0.704363</vAcc></extensions></trkpt>
      <trkpt lon="-4.147634" lat="53.025218"><ele>294.226044</ele><time>2021-07-17T13:58:28Z</time><extensions><speed>0.692465</speed><course>301.573547</course><hAcc>0.885235</hAcc><vAcc>0.704546</vAcc></extensions></trkpt>
      <trkpt lon="-4.147624" lat="53.025220"><ele>294.122742</ele><time>2021-07-17T13:58:29Z</time><extensions><speed>0.682739</speed><course>305.542847</course><hAcc>0.885275</hAcc><vAcc>0.704666</vAcc></extensions></trkpt>
      <trkpt lon="-4.147615" lat="53.025223"><ele>294.013550</ele><time>2021-07-17T13:58:30Z</time><extensions><speed>0.676777</speed><course>304.461029</course><hAcc>0.885299</hAcc><vAcc>0.704725</vAcc></extensions></trkpt>
      <trkpt lon="-4.147606" lat="53.025225"><ele>293.899841</ele><time>2021-07-17T13:58:31Z</time><extensions><speed>0.672481</speed><course>304.519958</course><hAcc>0.885311</hAcc><vAcc>0.704726</vAcc></extensions></trkpt>
      <trkpt lon="-4.147597" lat="53.025228"><ele>293.783630</ele><time>2021-07-17T13:58:32Z</time><extensions><speed>0.669300</speed><course>306.835541</course><hAcc>0.885316</hAcc><vAcc>0.704677</vAcc></extensions></trkpt>
      <trkpt lon="-4.147588" lat="53.025230"><ele>293.667419</ele><time>2021-07-17T13:58:33Z</time><extensions><speed>0.667527</speed><course>312.924469</course><hAcc>0.885320</hAcc><vAcc>0.704593</vAcc></extensions></trkpt>
      <trkpt lon="-4.147578" lat="53.025233"><ele>293.553802</ele><time>2021-07-17T13:58:34Z</time><extensions><speed>0.667333</speed><course>313.121582</course><hAcc>0.885329</hAcc><vAcc>0.704504</vAcc></extensions></trkpt>
      <trkpt lon="-4.147569" lat="53.025235"><ele>293.445007</ele><time>2021-07-17T13:58:36Z</time><extensions><speed>0.668780</speed><course>312.363678</course><hAcc>0.885331</hAcc><vAcc>0.704432</vAcc></extensions></trkpt>
      <trkpt lon="-4.147560" lat="53.025237"><ele>293.343201</ele><time>2021-07-17T13:58:37Z</time><extensions><speed>0.671259</speed><course>309.905548</course><hAcc>0.885331</hAcc><vAcc>0.704405</vAcc></extensions></trkpt>
      <trkpt lon="-4.147551" lat="53.025240"><ele>293.249908</ele><time>2021-07-17T13:58:38Z</time><extensions><speed>0.674752</speed><course>308.597687</course><hAcc>0.885352</hAcc><vAcc>0.704457</vAcc></extensions></trkpt>
      <trkpt lon="-4.147541" lat="53.025242"><ele>293.165833</ele><time>2021-07-17T13:58:39Z</time><extensions><speed>0.679851</speed><course>307.103394</course><hAcc>0.885394</hAcc><vAcc>0.704598</vAcc></extensions></trkpt>
      <trkpt lon="-4.147532" lat="53.025244"><ele>293.091095</ele><time>2021-07-17T13:58:40Z</time><extensions><speed>0.687596</speed><course>306.897400</course><hAcc>0.885459</hAcc><vAcc>0.704831</vAcc></extensions></trkpt>
      <trkpt lon="-4.147522" lat="53.025245"><ele>293.025391</ele><time>2021-07-17T13:58:41Z</time><extensions><speed>0.699971</speed><course>302.152618</course><hAcc>0.885544</hAcc><vAcc>0.705150</vAcc></extensions></trkpt>
      <trkpt lon="-4.147511" lat="53.025247"><ele>292.967987</ele><time>2021-07-17T13:58:42Z</time><extensions><speed>0.719054</speed><course>297.726410</course><hAcc>0.885648</hAcc><vAcc>0.705542</vAcc></extensions></trkpt>
      <trkpt lon="-4.147501" lat="53.025248"><ele>292.917908</ele><time>2021-07-17T13:58:43Z</time><extensions><speed>0.745648</speed><course>300.194183</course><hAcc>0.885765</hAcc><vAcc>0.705989</vAcc></extensions></trkpt>
      <trkpt lon="-4.147490" lat="53.025249"><ele>292.874329</ele><time>2021-07-17T13:58:44Z</time><extensions><speed>0.778404</speed><course>297.151825</course><hAcc>0.885892</hAcc><vAcc>0.706468</vAcc></extensions></trkpt>
      <trkpt lon="-4.147478" lat="53.025250"><ele>292.836456</ele><time>2021-07-17T13:58:45Z</time><extensions><speed>0.815537</speed><course>298.399384</course><hAcc>0.886022</hAcc><vAcc>0.706952</vAcc></extensions></trkpt>
      <trkpt lon="-4.147465" lat="53.025252"><ele>292.803680</ele><time>2021-07-17T13:58:46Z</time><extensions><speed>0.855461</speed><course>300.837921</course><hAcc>0.886152</hAcc><vAcc>0.707417</vAcc></extensions></trkpt>
      <trkpt lon="-4.147453" lat="53.025253"><ele>292.775757</ele><time>2021-07-17T13:58:47Z</time><extensions><speed>0.896805</speed><course>299.844330</course><hAcc>0.886276</hAcc><vAcc>0.707840</vAcc></extensions></trkpt>
      <trkpt lon="-4.147439" lat="53.025253"><ele>292.752716</ele><time>2021-07-17T13:58:48Z</time><extensions><speed>0.938673</speed><course>300.001373</course><hAcc>0.886391</hAcc><vAcc>0.708211</vAcc></extensions></trkpt>
      <trkpt lon="-4.147425" lat="53.025254"><ele>292.734406</ele><time>2021-07-17T13:58:49Z</time><extensions><speed>0.979532</speed><course>294.568817</course><hAcc>0.886495</hAcc><vAcc>0.708526</vAcc></extensions></trkpt>
      <trkpt lon="-4.147410" lat="53.025255"><ele>292.720093</ele><time>2021-07-17T13:58:50Z</time><extensions><speed>1.016988</speed><course>300.687103</course><hAcc>0.886586</hAcc><vAcc>0.708788</vAcc></extensions></trkpt>
      <trkpt lon="-4.147395" lat="53.025256"><ele>292.708801</ele><time>2021-07-17T13:58:51Z</time><extensions><speed>1.048691</speed><course>297.691925</course><hAcc>0.886663</hAcc><vAcc>0.709004</vAcc></extensions></trkpt>
      <trkpt lon="-4.147379" lat="53.025257"><ele>292.699646</ele><time>2021-07-17T13:58:52Z</time><extensions><speed>1.072788</speed><course>293.928223</course><hAcc>0.886725</hAcc><vAcc>0.709183</vAcc></extensions></trkpt>
      <trkpt lon="-4.147363" lat="53.025258"><ele>292.691650</ele><time>2021-07-17T13:58:53Z</time><extensions><speed>1.088439</speed><course>297.041656</course><hAcc>0.886774</hAcc><vAcc>0.709330</vAcc></extensions></trkpt>
      <trkpt lon="-4.147347" lat="53.025259"><ele>292.683350</ele><time>2021-07-17T13:58:54Z</time><extensions><speed>1.095864</speed><course>298.722290</course><hAcc>0.886809</hAcc><vAcc>0.709448</vAcc></extensions></trkpt>
      <trkpt lon="-4.147330" lat="53.025260"><ele>292.673004</ele><time>2021-07-17T13:58:55Z</time><extensions><speed>1.095735</speed><course>296.674316</course><hAcc>0.886832</hAcc><vAcc>0.709533</vAcc></extensions></trkpt>
      <trkpt lon="-4.147314" lat="53.025261"><ele>292.659149</ele><time>2021-07-17T13:58:56Z</time><extensions><speed>1.088970</speed><course>301.147156</course><hAcc>0.886842</hAcc><vAcc>0.709577</vAcc></extensions></trkpt>
      <trkpt lon="-4.147298" lat="53.025262"><ele>292.640472</ele><time>2021-07-17T13:58:57Z</time><extensions><speed>1.076628</speed><course>301.618805</course><hAcc>0.886839</hAcc><vAcc>0.709574</vAcc></extensions></trkpt>
      <trkpt lon="-4.147282" lat="53.025263"><ele>292.615753</ele><time>2021-07-17T13:58:58Z</time><extensions><speed>1.059871</speed><course>300.678009</course><hAcc>0.886825</hAcc><vAcc>0.709522</vAcc></extensions></trkpt>
      <trkpt lon="-4.147267" lat="53.025264"><ele>292.584167</ele><time>2021-07-17T13:58:59Z</time><extensions><speed>1.040396</speed><course>306.078644</course><hAcc>0.886800</hAcc><vAcc>0.709428</vAcc></extensions></trkpt>
      <trkpt lon="-4.147251" lat="53.025265"><ele>292.544891</ele><time>2021-07-17T13:59:00Z</time><extensions><speed>1.020203</speed><course>302.099213</course><hAcc>0.886763</hAcc><vAcc>0.709302</vAcc></extensions></trkpt>
      <trkpt lon="-4.147237" lat="53.025266"><ele>292.497070</ele><time>2021-07-17T13:59:01Z</time><extensions><speed>1.000719</speed><course>298.253754</course><hAcc>0.886714</hAcc><vAcc>0.709150</vAcc></extensions></trkpt>
      <trkpt lon="-4.147222" lat="53.025267"><ele>292.440186</ele><time>2021-07-17T13:59:02Z</time><extensions><speed>0.982671</speed><course>299.772583</course><hAcc>0.886654</hAcc><vAcc>0.708972</vAcc></extensions></trkpt>
      <trkpt lon="-4.147208" lat="53.025269"><ele>292.374573</ele><time>2021-07-17T13:59:03Z</time><extensions><speed>0.965750</speed><course>299.946075</course><hAcc>0.886584</hAcc><vAcc>0.708764</vAcc></extensions></trkpt>
      <trkpt lon="-4.147194" lat="53.025270"><ele>292.301300</ele><time>2021-07-17T13:59:04Z</time><extensions><speed>0.949218</speed><course>303.968170</course><hAcc>0.886505</hAcc><vAcc>0.708518</vAcc></extensions></trkpt>
      <trkpt lon="-4.147180" lat="53.025272"><ele>292.221771</ele><time>2021-07-17T13:59:05Z</time><extensions><speed>0.932506</speed><course>302.223755</course><hAcc>0.886416</hAcc><vAcc>0.708229</vAcc></extensions></trkpt>
      <trkpt lon="-4.147166" lat="53.025274"><ele>292.137756</ele><time>2021-07-17T13:59:06Z</time><extensions><speed>0.914423</speed><course>303.590851</course><hAcc>0.886321</hAcc><vAcc>0.707900</vAcc></extensions></trkpt>
      <trkpt lon="-4.147153" lat="53.025275"><ele>292.051331</ele><time>2021-07-17T13:59:07Z</time><extensions><speed>0.894245</speed><course>302.656281</course><hAcc>0.886219</hAcc><vAcc>0.707544</vAcc></extensions></trkpt>
      <trkpt lon="-4.147140" lat="53.025277"><ele>291.964966</ele><time>2021-07-17T13:59:08Z</time><extensions><speed>0.872217</speed><course>307.857574</course><hAcc>0.886113</hAcc><vAcc>0.707179</vAcc></extensions></trkpt>
      <trkpt lon="-4.147128" lat="53.025279"><ele>291.880707</ele><time>2021-07-17T13:59:09Z</time><extensions><speed>0.848495</speed><course>306.241272</course><hAcc>0.886002</hAcc><vAcc>0.706819</vAcc></extensions></trkpt>
      <trkpt lon="-4.147116" lat="53.025280"><ele>291.799988</ele><time>2021-07-17T13:59:10Z</time><extensions><speed>0.822324</speed><course>302.560516</course><hAcc>0.885889</hAcc><vAcc>0.706473</vAcc></extensions></trkpt>
      <trkpt lon="-4.147104" lat="53.025282"><ele>291.724304</ele><time>2021-07-17T13:59:11Z</time><extensions><speed>0.792522</speed><course>304.207947</course><hAcc>0.885773</hAcc><vAcc>0.706135</vAcc></extensions></trkpt>
      <trkpt lon="-4.147092" lat="53.025283"><ele>291.655243</ele><time>2021-07-17T13:59:12Z</time><extensions><speed>0.759736</speed><course>304.678192</course><hAcc>0.885656</hAcc><vAcc>0.705789</vAcc></extensions></trkpt>
      <trkpt lon="-4.147082" lat="53.025284"><ele>291.594208</ele><time>2021-07-17T13:59:13Z</time><extensions><speed>0.726049</speed><course>300.816559</course><hAcc>0.885537</hAcc><vAcc>0.705419</vAcc></extensions></trkpt>
      <trkpt lon="-4.147071" lat="53.025285"><ele>291.542297</ele><time>2021-07-17T13:59:14Z</time><extensions><speed>0.693147</speed><course>302.457642</course><hAcc>0.885418</hAcc><vAcc>0.705023</vAcc></extensions></trkpt>
      <trkpt lon="-4.147061" lat="53.025286"><ele>291.500275</ele><time>2021-07-17T13:59:15Z</time><extensions><speed>0.661273</speed><course>303.405792</course><hAcc>0.885299</hAcc><vAcc>0.704608</vAcc></extensions></trkpt>
      <trkpt lon="-4.147052" lat="53.025287"><ele>291.468506</ele><time>2021-07-17T13:59:16Z</time><extensions><speed>0.629436</speed><course>305.179382</course><hAcc>0.885181</hAcc><vAcc>0.704194</vAcc></extensions></trkpt>
      <trkpt lon="-4.147043" lat="53.025288"><ele>291.446655</ele><time>2021-07-17T13:59:17Z</time><extensions><speed>0.597550</speed><course>301.811188</course><hAcc>0.885066</hAcc><vAcc>0.703799</vAcc></extensions></trkpt>
      <trkpt lon="-4.147034" lat="53.025289"><ele>291.433075</ele><time>2021-07-17T13:59:18Z</time><extensions><speed>0.566987</speed><course>294.111877</course><hAcc>0.884953</hAcc><vAcc>0.703433</vAcc></extensions></trkpt>
      <trkpt lon="-4.147026" lat="53.025289"><ele>291.425568</ele><time>2021-07-17T13:59:19Z</time><extensions><speed>0.539688</speed><course>291.186249</course><hAcc>0.884843</hAcc><vAcc>0.703100</vAcc></extensions></trkpt>
      <trkpt lon="-4.147018" lat="53.025290"><ele>291.422119</ele><time>2021-07-17T13:59:20Z</time><extensions><speed>0.517253</speed><course>291.833313</course><hAcc>0.884734</hAcc><vAcc>0.702791</vAcc></extensions></trkpt>
      <trkpt lon="-4.147010" lat="53.025290"><ele>291.421143</ele><time>2021-07-17T13:59:21Z</time><extensions><speed>0.500794</speed><course>293.198639</course><hAcc>0.884624</hAcc><vAcc>0.702496</vAcc></extensions></trkpt>
      <trkpt lon="-4.147003" lat="53.025291"><ele>291.421265</ele><time>2021-07-17T13:59:22Z</time><extensions><speed>0.490643</speed><course>297.953094</course><hAcc>0.884513</hAcc><vAcc>0.702199</vAcc></extensions></trkpt>
      <trkpt lon="-4.146996" lat="53.025292"><ele>291.421722</ele><time>2021-07-17T13:59:23Z</time><extensions><speed>0.486240</speed><course>294.998413</course><hAcc>0.884399</hAcc><vAcc>0.701885</vAcc></extensions></trkpt>
      <trkpt lon="-4.146989" lat="53.025292"><ele>291.422668</ele><time>2021-07-17T13:59:24Z</time><extensions><speed>0.487563</speed><course>290.333923</course><hAcc>0.884282</hAcc><vAcc>0.701541</vAcc></extensions></trkpt>
      <trkpt lon="-4.146982" lat="53.025293"><ele>291.424957</ele><time>2021-07-17T13:59:25Z</time><extensions><speed>0.495067</speed><course>297.336884</course><hAcc>0.884163</hAcc><vAcc>0.701163</vAcc></extensions></trkpt>
      <trkpt lon="-4.146974" lat="53.025294"><ele>291.430023</ele><time>2021-07-17T13:59:26Z</time><extensions><speed>0.508555</speed><course>291.763641</course><hAcc>0.884046</hAcc><vAcc>0.700761</vAcc></extensions></trkpt>
      <trkpt lon="-4.146967" lat="53.025294"><ele>291.439453</ele><time>2021-07-17T13:59:27Z</time><extensions><speed>0.527102</speed><course>293.588959</course><hAcc>0.883934</hAcc><vAcc>0.700356</vAcc></extensions></trkpt>
      <trkpt lon="-4.146959" lat="53.025295"><ele>291.455048</ele><time>2021-07-17T13:59:28Z</time><extensions><speed>0.549770</speed><course>298.534668</course><hAcc>0.883832</hAcc><vAcc>0.699978</vAcc></extensions></trkpt>
      <trkpt lon="-4.146950" lat="53.025296"><ele>291.478302</ele><time>2021-07-17T13:59:28Z</time><extensions><speed>0.575693</speed><course>294.834351</course><hAcc>0.883766</hAcc><vAcc>0.699675</vAcc></extensions></trkpt>
      <trkpt lon="-4.146942" lat="53.025297"><ele>291.510529</ele><time>2021-07-17T13:59:29Z</time><extensions><speed>0.604260</speed><course>297.698059</course><hAcc>0.883743</hAcc><vAcc>0.699484</vAcc></extensions></trkpt>
      <trkpt lon="-4.146933" lat="53.025298"><ele>291.552277</ele><time>2021-07-17T13:59:30Z</time><extensions><speed>0.634762</speed><course>298.511444</course><hAcc>0.883750</hAcc><vAcc>0.699425</vAcc></extensions></trkpt>
      <trkpt lon="-4.146923" lat="53.025298"><ele>291.603668</ele><time>2021-07-17T13:59:31Z</time><extensions><speed>0.666001</speed><course>303.054443</course><hAcc>0.883793</hAcc><vAcc>0.699524</vAcc></extensions></trkpt>
      <trkpt lon="-4.146913" lat="53.025299"><ele>291.664276</ele><time>2021-07-17T13:59:32Z</time><extensions><speed>0.696571</speed><course>300.594757</course><hAcc>0.883873</hAcc><vAcc>0.699787</vAcc></extensions></trkpt>
      <trkpt lon="-4.146902" lat="53.025300"><ele>291.734100</ele><time>2021-07-17T13:59:33Z</time><extensions><speed>0.725451</speed><course>303.489990</course><hAcc>0.883991</hAcc><vAcc>0.700204</vAcc></extensions></trkpt>
      <trkpt lon="-4.146891" lat="53.025300"><ele>291.813293</ele><time>2021-07-17T13:59:34Z</time><extensions><speed>0.751722</speed><course>307.296783</course><hAcc>0.884142</hAcc><vAcc>0.700750</vAcc></extensions></trkpt>
      <trkpt lon="-4.146880" lat="53.025301"><ele>291.902008</ele><time>2021-07-17T13:59:35Z</time><extensions><speed>0.774614</speed><course>306.846466</course><hAcc>0.884321</hAcc><vAcc>0.701395</vAcc></extensions></trkpt>
      <trkpt lon="-4.146868" lat="53.025301"><ele>291.999969</ele><time>2021-07-17T13:59:36Z</time><extensions><speed>0.793377</speed><course>314.303711</course><hAcc>0.884522</hAcc><vAcc>0.702106</vAcc></extensions></trkpt>
      <trkpt lon="-4.146856" lat="53.025302"><ele>292.106567</ele><time>2021-07-17T13:59:37Z</time><extensions><speed>0.806802</speed><course>316.753265</course><hAcc>0.884738</hAcc><vAcc>0.702853</vAcc></extensions></trkpt>
      <trkpt lon="-4.146844" lat="53.025303"><ele>292.220795</ele><time>2021-07-17T13:59:38Z</time><extensions><speed>0.813577</speed><course>312.101562</course><hAcc>0.884962</hAcc><vAcc>0.703610</vAcc></extensions></trkpt>
      <trkpt lon="-4.146832" lat="53.025303"><ele>292.341217</ele><time>2021-07-17T13:59:39Z</time><extensions><speed>0.813632</speed><course>310.983948</course><hAcc>0.885187</hAcc><vAcc>0.704353</vAcc></extensions></trkpt>
      <trkpt lon="-4.146820" lat="53.025304"><ele>292.465851</ele><time>2021-07-17T13:59:40Z</time><extensions><speed>0.808052</speed><course>316.824890</course><hAcc>0.885409</hAcc><vAcc>0.705069</vAcc></extensions></trkpt>
      <trkpt lon="-4.146808" lat="53.025305"><ele>292.592743</ele><time>2021-07-17T13:59:41Z</time><extensions><speed>0.798296</speed><course>324.005005</course><hAcc>0.885623</hAcc><vAcc>0.705751</vAcc></extensions></trkpt>
      <trkpt lon="-4.146797" lat="53.025306"><ele>292.719940</ele><time>2021-07-17T13:59:42Z</time><extensions><speed>0.786269</speed><course>322.091736</course><hAcc>0.885825</hAcc><vAcc>0.706396</vAcc></extensions></trkpt>
      <trkpt lon="-4.146785" lat="53.025307"><ele>292.845428</ele><time>2021-07-17T13:59:43Z</time><extensions><speed>0.773978</speed><course>322.830170</course><hAcc>0.886015</hAcc><vAcc>0.707000</vAcc></extensions></trkpt>
      <trkpt lon="-4.146774" lat="53.025308"><ele>292.967407</ele><time>2021-07-17T13:59:44Z</time><extensions><speed>0.762630</speed><course>325.823517</course><hAcc>0.886190</hAcc><vAcc>0.707562</vAcc></extensions></trkpt>
      <trkpt lon="-4.146763" lat="53.025309"><ele>293.084534</ele><time>2021-07-17T13:59:45Z</time><extensions><speed>0.752995</speed><course>331.853210</course><hAcc>0.886350</hAcc><vAcc>0.708074</vAcc></extensions></trkpt>
      <trkpt lon="-4.146752" lat="53.025311"><ele>293.196106</ele><time>2021-07-17T13:59:46Z</time><extensions><speed>0.745706</speed><course>331.260956</course><hAcc>0.886497</hAcc><vAcc>0.708530</vAcc></extensions></trkpt>
      <trkpt lon="-4.146741" lat="53.025312"><ele>293.301788</ele><time>2021-07-17T13:59:47Z</time><extensions><speed>0.740728</speed><course>329.072571</course><hAcc>0.886630</hAcc><vAcc>0.708929</vAcc></extensions></trkpt>
      <trkpt lon="-4.146731" lat="53.025314"><ele>293.401337</ele><time>2021-07-17T13:59:48Z</time><extensions><speed>0.738379</speed><course>325.473938</course><hAcc>0.886751</hAcc><vAcc>0.709277</vAcc></extensions></trkpt>
      <trkpt lon="-4.146720" lat="53.025316"><ele>293.493958</ele><time>2021-07-17T13:59:49Z</time><extensions><speed>0.738737</speed><course>325.383026</course><hAcc>0.886863</hAcc><vAcc>0.709585</vAcc></extensions></trkpt>
      <trkpt lon="-4.146709" lat="53.025317"><ele>293.578613</ele><time>2021-07-17T13:59:50Z</time><extensions><speed>0.740836</speed><course>325.061401</course><hAcc>0.886967</hAcc><vAcc>0.709869</vAcc></extensions></trkpt>
      <trkpt lon="-4.146699" lat="53.025319"><ele>293.654816</ele><time>2021-07-17T13:59:51Z</time><extensions><speed>0.743080</speed><course>325.207275</course><hAcc>0.887065</hAcc><vAcc>0.710146</vAcc></extensions></trkpt>
      <trkpt lon="-4.146688" lat="53.025321"><ele>293.722382</ele><time>2021-07-17T13:59:52Z</time><extensions><speed>0.744699</speed><course>322.410889</course><hAcc>0.887158</hAcc><vAcc>0.710428</vAcc></extensions></trkpt>
      <trkpt lon="-4.146678" lat="53.025323"><ele>293.780792</ele><time>2021-07-17T13:59:53Z</time><extensions><speed>0.745536</speed><course>319.218658</course><hAcc>0.887246</hAcc><vAcc>0.710720</vAcc></extensions></trkpt>
      <trkpt lon="-4.146667" lat="53.025325"><ele>293.829803</ele><time>2021-07-17T13:59:54Z</time><extensions><speed>0.744548</speed><course>319.790588</course><hAcc>0.887329</hAcc><vAcc>0.711020</vAcc></extensions></trkpt>
      <trkpt lon="-4.146656" lat="53.025327"><ele>293.869476</ele><time>2021-07-17T13:59:55Z</time><extensions><speed>0.741213</speed><course>318.972229</course><hAcc>0.887408</hAcc><vAcc>0.711316</vAcc></extensions></trkpt>
      <trkpt lon="-4.146646" lat="53.025329"><ele>293.899841</ele><time>2021-07-17T13:59:56Z</time><extensions><speed>0.735874</speed><course>320.354065</course><hAcc>0.887480</hAcc><vAcc>0.711591</vAcc></extensions></trkpt>
      <trkpt lon="-4.146635" lat="53.025330"><ele>293.920563</ele><time>2021-07-17T13:59:57Z</time><extensions><speed>0.729240</speed><course>320.541016</course><hAcc>0.887545</hAcc><vAcc>0.711831</vAcc></extensions></trkpt>
      <trkpt lon="-4.146625" lat="53.025332"><ele>293.931030</ele><time>2021-07-17T13:59:58Z</time><extensions><speed>0.721334</speed><course>317.906189</course><hAcc>0.887602</hAcc><vAcc>0.712027</vAcc></extensions></trkpt>
      <trkpt lon="-4.146614" lat="53.025334"><ele>293.930450</ele><time>2021-07-17T13:59:59Z</time><extensions><speed>0.711441</speed><course>316.077393</course><hAcc>0.887652</hAcc><vAcc>0.712175</vAcc></extensions></trkpt>
      <trkpt lon="-4.146604" lat="53.025336"><ele>293.918213</ele><time>2021-07-17T14:00:00Z</time><extensions><speed>0.699181</speed><course>307.356537</course><hAcc>0.887693</hAcc><vAcc>0.712279</vAcc></extensions></trkpt>
      <trkpt lon="-4.146594" lat="53.025337"><ele>293.894318</ele><time>2021-07-17T14:00:01Z</time><extensions><speed>0.684349</speed><course>302.004150</course><hAcc>0.887727</hAcc><vAcc>0.712343</vAcc></extensions></trkpt>
      <trkpt lon="-4.146585" lat="53.025339"><ele>293.859100</ele><time>2021-07-17T14:00:02Z</time><extensions><speed>0.666993</speed><course>310.520874</course><hAcc>0.887754</hAcc><vAcc>0.712381</vAcc></extensions></trkpt>
      <trkpt lon="-4.146575" lat="53.025341"><ele>293.813263</ele><time>2021-07-17T14:00:03Z</time><extensions><speed>0.647560</speed><course>307.778412</course><hAcc>0.887777</hAcc><vAcc>0.712406</vAcc></extensions></trkpt>
      <trkpt lon="-4.146567" lat="53.025343"><ele>293.757660</ele><time>2021-07-17T14:00:04Z</time><extensions><speed>0.627111</speed><course>310.132080</course><hAcc>0.887796</hAcc><vAcc>0.712434</vAcc></extensions></trkpt>
      <trkpt lon="-4.146558" lat="53.025345"><ele>293.692932</ele><time>2021-07-17T14:00:05Z</time><extensions><speed>0.606937</speed><course>310.327301</course><hAcc>0.887811</hAcc><vAcc>0.712471</vAcc></extensions></trkpt>
      <trkpt lon="-4.146550" lat="53.025347"><ele>293.620087</ele><time>2021-07-17T14:00:06Z</time><extensions><speed>0.588525</speed><course>308.925873</course><hAcc>0.887823</hAcc><vAcc>0.712523</vAcc></extensions></trkpt>
      <trkpt lon="-4.146542" lat="53.025350"><ele>293.540436</ele><time>2021-07-17T14:00:07Z</time><extensions><speed>0.573381</speed><course>308.955322</course><hAcc>0.887831</hAcc><vAcc>0.712584</vAcc></extensions></trkpt>
      <trkpt lon="-4.146535" lat="53.025352"><ele>293.455597</ele><time>2021-07-17T14:00:08Z</time><extensions><speed>0.562259</speed><course>303.152588</course><hAcc>0.887833</hAcc><vAcc>0.712644</vAcc></extensions></trkpt>
      <trkpt lon="-4.146528" lat="53.025355"><ele>293.367401</ele><time>2021-07-17T14:00:09Z</time><extensions><speed>0.555296</speed><course>313.156525</course><hAcc>0.887830</hAcc><vAcc>0.712689</vAcc></extensions></trkpt>
      <trkpt lon="-4.146521" lat="53.025358"><ele>293.277985</ele><time>2021-07-17T14:00:10Z</time><extensions><speed>0.552253</speed><course>307.864197</course><hAcc>0.887818</hAcc><vAcc>0.712700</vAcc></extensions></trkpt>
      <trkpt lon="-4.146514" lat="53.025361"><ele>293.189148</ele><time>2021-07-17T14:00:11Z</time><extensions><speed>0.553031</speed><course>309.541687</course><hAcc>0.887797</hAcc><vAcc>0.712663</vAcc></extensions></trkpt>
      <trkpt lon="-4.146508" lat="53.025364"><ele>293.102386</ele><time>2021-07-17T14:00:12Z</time><extensions><speed>0.557992</speed><course>312.130341</course><hAcc>0.887766</hAcc><vAcc>0.712574</vAcc></extensions></trkpt>
      <trkpt lon="-4.146501" lat="53.025367"><ele>293.018829</ele><time>2021-07-17T14:00:13Z</time><extensions><speed>0.567681</speed><course>310.268982</course><hAcc>0.887726</hAcc><vAcc>0.712429</vAcc></extensions></trkpt>
      <trkpt lon="-4.146495" lat="53.025370"><ele>292.939362</ele><time>2021-07-17T14:00:14Z</time><extensions><speed>0.582622</speed><course>308.247070</course><hAcc>0.887676</hAcc><vAcc>0.712233</vAcc></extensions></trkpt>
      <trkpt lon="-4.146489" lat="53.025374"><ele>292.864471</ele><time>2021-07-17T14:00:15Z</time><extensions><speed>0.603344</speed><course>304.229858</course><hAcc>0.887619</hAcc><vAcc>0.711997</vAcc></extensions></trkpt>
      <trkpt lon="-4.146482" lat="53.025378"><ele>292.794067</ele><time>2021-07-17T14:00:16Z</time><extensions><speed>0.629987</speed><course>308.310059</course><hAcc>0.887558</hAcc><vAcc>0.711740</vAcc></extensions></trkpt>
      <trkpt lon="-4.146475" lat="53.025382"><ele>292.728577</ele><time>2021-07-17T14:00:17Z</time><extensions><speed>0.662247</speed><course>311.142822</course><hAcc>0.887495</hAcc><vAcc>0.711484</vAcc></extensions></trkpt>
      <trkpt lon="-4.146468" lat="53.025387"><ele>292.668793</ele><time>2021-07-17T14:00:18Z</time><extensions><speed>0.699932</speed><course>305.518036</course><hAcc>0.887435</hAcc><vAcc>0.711250</vAcc></extensions></trkpt>
      <trkpt lon="-4.146461" lat="53.025391"><ele>292.615479</ele><time>2021-07-17T14:00:19Z</time><extensions><speed>0.742517</speed><course>303.061462</course><hAcc>0.887380</hAcc><vAcc>0.711051</vAcc></extensions></trkpt>
      <trkpt lon="-4.146452" lat="53.025396"><ele>292.568939</ele><time>2021-07-17T14:00:20Z</time><extensions><speed>0.788333</speed><course>298.232086</course><hAcc>0.887334</hAcc><vAcc>0.710893</vAcc></extensions></trkpt>
      <trkpt lon="-4.146443" lat="53.025401"><ele>292.529419</ele><time>2021-07-17T14:00:21Z</time><extensions><speed>0.834502</speed><course>289.358276</course><hAcc>0.887300</hAcc><vAcc>0.710779</vAcc></extensions></trkpt>
      <trkpt lon="-4.146434" lat="53.025406"><ele>292.496918</ele><time>2021-07-17T14:00:22Z</time><extensions><speed>0.878544</speed><course>285.924469</course><hAcc>0.887281</hAcc><vAcc>0.710708</vAcc></extensions></trkpt>
      <trkpt lon="-4.146424" lat="53.025411"><ele>292.470825</ele><time>2021-07-17T14:00:23Z</time><extensions><speed>0.919285</speed><course>280.520447</course><hAcc>0.887279</hAcc><vAcc>0.710682</vAcc></extensions></trkpt>
      <trkpt lon="-4.146413" lat="53.025416"><ele>292.450378</ele><time>2021-07-17T14:00:24Z</time><extensions><speed>0.956252</speed><course>286.862061</course><hAcc>0.887294</hAcc><vAcc>0.710709</vAcc></extensions></trkpt>
      <trkpt lon="-4.146402" lat="53.025422"><ele>292.434967</ele><time>2021-07-17T14:00:25Z</time><extensions><speed>0.989185</speed><course>295.700317</course><hAcc>0.887328</hAcc><vAcc>0.710798</vAcc></extensions></trkpt>
      <trkpt lon="-4.146390" lat="53.025427"><ele>292.424072</ele><time>2021-07-17T14:00:26Z</time><extensions><speed>1.018118</speed><course>296.161560</course><hAcc>0.887381</hAcc><vAcc>0.710956</vAcc></extensions></trkpt>
      <trkpt lon="-4.146377" lat="53.025433"><ele>292.417511</ele><time>2021-07-17T14:00:27Z</time><extensions><speed>1.043234</speed><course>298.229218</course><hAcc>0.887452</hAcc><vAcc>0.711183</vAcc></extensions></trkpt>
      <trkpt lon="-4.146365" lat="53.025438"><ele>292.415588</ele><time>2021-07-17T14:00:28Z</time><extensions><speed>1.064980</speed><course>297.545471</course><hAcc>0.887540</hAcc><vAcc>0.711475</vAcc></extensions></trkpt>
      <trkpt lon="-4.146351" lat="53.025444"><ele>292.418640</ele><time>2021-07-17T14:00:29Z</time><extensions><speed>1.084013</speed><course>292.454163</course><hAcc>0.887643</hAcc><vAcc>0.711820</vAcc></extensions></trkpt>
      <trkpt lon="-4.146338" lat="53.025449"><ele>292.426758</ele><time>2021-07-17T14:00:30Z</time><extensions><speed>1.100609</speed><course>287.195465</course><hAcc>0.887758</hAcc><vAcc>0.712208</vAcc></extensions></trkpt>
      <trkpt lon="-4.146323" lat="53.025454"><ele>292.439545</ele><time>2021-07-17T14:00:31Z</time><extensions><speed>1.115024</speed><course>283.339600</course><hAcc>0.887883</hAcc><vAcc>0.712624</vAcc></extensions></trkpt>
      <trkpt lon="-4.146309" lat="53.025459"><ele>292.455750</ele><time>2021-07-17T14:00:32Z</time><extensions><speed>1.127187</speed><course>283.687531</course><hAcc>0.888013</hAcc><vAcc>0.713055</vAcc></extensions></trkpt>
      <trkpt lon="-4.146294" lat="53.025463"><ele>292.474030</ele><time>2021-07-17T14:00:34Z</time><extensions><speed>1.136391</speed><course>284.089417</course><hAcc>0.888127</hAcc><vAcc>0.713474</vAcc></extensions></trkpt>
      <trkpt lon="-4.146278" lat="53.025468"><ele>292.493103</ele><time>2021-07-17T14:00:35Z</time><extensions><speed>1.141570</speed><course>286.432800</course><hAcc>0.888220</hAcc><vAcc>0.713864</vAcc></extensions></trkpt>
      <trkpt lon="-4.146263" lat="53.025472"><ele>292.512146</ele><time>2021-07-17T14:00:36Z</time><extensions><speed>1.141860</speed><course>288.844025</course><hAcc>0.888306</hAcc><vAcc>0.714215</vAcc></extensions></trkpt>
      <trkpt lon="-4.146248" lat="53.025477"><ele>292.530670</ele><time>2021-07-17T14:00:37Z</time><extensions><speed>1.136945</speed><course>294.600861</course><hAcc>0.888381</hAcc><vAcc>0.714509</vAcc></extensions></trkpt>
      <trkpt lon="-4.146232" lat="53.025481"><ele>292.548431</ele><time>2021-07-17T14:00:38Z</time><extensions><speed>1.127578</speed><course>289.399475</course><hAcc>0.888441</hAcc><vAcc>0.714731</vAcc></extensions></trkpt>
      <trkpt lon="-4.146217" lat="53.025485"><ele>292.565216</ele><time>2021-07-17T14:00:39Z</time><extensions><speed>1.114689</speed><course>292.462738</course><hAcc>0.888485</hAcc><vAcc>0.714877</vAcc></extensions></trkpt>
      <trkpt lon="-4.146202" lat="53.025490"><ele>292.581512</ele><time>2021-07-17T14:00:40Z</time><extensions><speed>1.098856</speed><course>292.044128</course><hAcc>0.888511</hAcc><vAcc>0.714947</vAcc></extensions></trkpt>
      <trkpt lon="-4.146188" lat="53.025494"><ele>292.598724</ele><time>2021-07-17T14:00:41Z</time><extensions><speed>1.081062</speed><course>289.426849</course><hAcc>0.888519</hAcc><vAcc>0.714945</vAcc></extensions></trkpt>
      <trkpt lon="-4.146174" lat="53.025498"><ele>292.618042</ele><time>2021-07-17T14:00:42Z</time><extensions><speed>1.062419</speed><course>292.821838</course><hAcc>0.888510</hAcc><vAcc>0.714881</vAcc></extensions></trkpt>
      <trkpt lon="-4.146160" lat="53.025503"><ele>292.640076</ele><time>2021-07-17T14:00:43Z</time><extensions><speed>1.043621</speed><course>287.405121</course><hAcc>0.888486</hAcc><vAcc>0.714766</vAcc></extensions></trkpt>
      <trkpt lon="-4.146146" lat="53.025507"><ele>292.664978</ele><time>2021-07-17T14:00:44Z</time><extensions><speed>1.025003</speed><course>289.328461</course><hAcc>0.888449</hAcc><vAcc>0.714614</vAcc></extensions></trkpt>
      <trkpt lon="-4.146132" lat="53.025511"><ele>292.692841</ele><time>2021-07-17T14:00:45Z</time><extensions><speed>1.006869</speed><course>290.686554</course><hAcc>0.888402</hAcc><vAcc>0.714434</vAcc></extensions></trkpt>
      <trkpt lon="-4.146119" lat="53.025515"><ele>292.723450</ele><time>2021-07-17T14:00:46Z</time><extensions><speed>0.989679</speed><course>291.519623</course><hAcc>0.888346</hAcc><vAcc>0.714238</vAcc></extensions></trkpt>
      <trkpt lon="-4.146106" lat="53.025519"><ele>292.756012</ele><time>2021-07-17T14:00:47Z</time><extensions><speed>0.974358</speed><course>289.260345</course><hAcc>0.888286</hAcc><vAcc>0.714033</vAcc></extensions></trkpt>
      <trkpt lon="-4.146093" lat="53.025523"><ele>292.789154</ele><time>2021-07-17T14:00:48Z</time><extensions><speed>0.962193</speed><course>291.671295</course><hAcc>0.888223</hAcc><vAcc>0.713822</vAcc></extensions></trkpt>
      <trkpt lon="-4.146081" lat="53.025527"><ele>292.821655</ele><time>2021-07-17T14:00:49Z</time><extensions><speed>0.954274</speed><course>285.797272</course><hAcc>0.888160</hAcc><vAcc>0.713612</vAcc></extensions></trkpt>
      <trkpt lon="-4.146068" lat="53.025532"><ele>292.852386</ele><time>2021-07-17T14:00:50Z</time><extensions><speed>0.951500</speed><course>284.045776</course><hAcc>0.888099</hAcc><vAcc>0.713407</vAcc></extensions></trkpt>
      <trkpt lon="-4.146056" lat="53.025536"><ele>292.880310</ele><time>2021-07-17T14:00:51Z</time><extensions><speed>0.954657</speed><course>290.744446</course><hAcc>0.888043</hAcc><vAcc>0.713213</vAcc></extensions></trkpt>
      <trkpt lon="-4.146043" lat="53.025540"><ele>292.904327</ele><time>2021-07-17T14:00:52Z</time><extensions><speed>0.963682</speed><course>286.155334</course><hAcc>0.887992</hAcc><vAcc>0.713036</vAcc></extensions></trkpt>
      <trkpt lon="-4.146031" lat="53.025544"><ele>292.923553</ele><time>2021-07-17T14:00:53Z</time><extensions><speed>0.977491</speed><course>292.078705</course><hAcc>0.887949</hAcc><vAcc>0.712880</vAcc></extensions></trkpt>
      <trkpt lon="-4.146018" lat="53.025548"><ele>292.936890</ele><time>2021-07-17T14:00:54Z</time><extensions><speed>0.994987</speed><course>292.906311</course><hAcc>0.887915</hAcc><vAcc>0.712754</vAcc></extensions></trkpt>
      <trkpt lon="-4.146004" lat="53.025552"><ele>292.943390</ele><time>2021-07-17T14:00:55Z</time><extensions><speed>1.015224</speed><course>291.462067</course><hAcc>0.887891</hAcc><vAcc>0.712663</vAcc></extensions></trkpt>
      <trkpt lon="-4.145991" lat="53.025557"><ele>292.942200</ele><time>2021-07-17T14:00:56Z</time><extensions><speed>1.037166</speed><course>290.448425</course><hAcc>0.887877</hAcc><vAcc>0.712612</vAcc></extensions></trkpt>
      <trkpt lon="-4.145977" lat="53.025561"><ele>292.932770</ele><time>2021-07-17T14:00:57Z</time><extensions><speed>1.060201</speed><course>295.857269</course><hAcc>0.887873</hAcc><vAcc>0.712600</vAcc></extensions></trkpt>
      <trkpt lon="-4.145963" lat="53.025565"><ele>292.914673</ele><time>2021-07-17T14:00:58Z</time><extensions><speed>1.083879</speed><course>298.185364</course><hAcc>0.887879</hAcc><vAcc>0.712629</vAcc></extensions></trkpt>
      <trkpt lon="-4.145949" lat="53.025570"><ele>292.888092</ele><time>2021-07-17T14:00:59Z</time><extensions><speed>1.107490</speed><course>294.469940</course><hAcc>0.887893</hAcc><vAcc>0.712695</vAcc></extensions></trkpt>
      <trkpt lon="-4.145934" lat="53.025575"><ele>292.853302</ele><time>2021-07-17T14:01:00Z</time><extensions><speed>1.130673</speed><course>292.898438</course><hAcc>0.887915</hAcc><vAcc>0.712793</vAcc></extensions></trkpt>
      <trkpt lon="-4.145919" lat="53.025580"><ele>292.810669</ele><time>2021-07-17T14:01:01Z</time><extensions><speed>1.153360</speed><course>292.422791</course><hAcc>0.887941</hAcc><vAcc>0.712914</vAcc></extensions></trkpt>
      <trkpt lon="-4.145904" lat="53.025585"><ele>292.760742</ele><time>2021-07-17T14:01:02Z</time><extensions><speed>1.175330</speed><course>292.622986</course><hAcc>0.887970</hAcc><vAcc>0.713046</vAcc></extensions></trkpt>
      <trkpt lon="-4.145888" lat="53.025590"><ele>292.704163</ele><time>2021-07-17T14:01:03Z</time><extensions><speed>1.196156</speed><course>292.749084</course><hAcc>0.888000</hAcc><vAcc>0.713175</vAcc></extensions></trkpt>
      <trkpt lon="-4.145873" lat="53.025596"><ele>292.641479</ele><time>2021-07-17T14:01:04Z</time><extensions><speed>1.215354</speed><course>294.832458</course><hAcc>0.888028</hAcc><vAcc>0.713291</vAcc></extensions></trkpt>
      <trkpt lon="-4.145857" lat="53.025601"><ele>292.573059</ele><time>2021-07-17T14:01:05Z</time><extensions><speed>1.232720</speed><course>290.563019</course><hAcc>0.888054</hAcc><vAcc>0.713385</vAcc></extensions></trkpt>
      <trkpt lon="-4.145841" lat="53.025607"><ele>292.498901</ele><time>2021-07-17T14:01:06Z</time><extensions><speed>1.248214</speed><course>288.082062</course><hAcc>0.888074</hAcc><vAcc>0.713452</vAcc></extensions></trkpt>
      <trkpt lon="-4.145825" lat="53.025613"><ele>292.418488</ele><time>2021-07-17T14:01:07Z</time><extensions><speed>1.261929</speed><course>289.238037</course><hAcc>0.888090</hAcc><vAcc>0.713490</vAcc></extensions></trkpt>
      <trkpt lon="-4.145809" lat="53.025619"><ele>292.331360</ele><time>2021-07-17T14:01:08Z</time><extensions><speed>1.274175</speed><course>289.037109</course><hAcc>0.888099</hAcc><vAcc>0.713503</vAcc></extensions></trkpt>
      <trkpt lon="-4.145793" lat="53.025625"><ele>292.237762</ele><time>2021-07-17T14:01:09Z</time><extensions><speed>1.285183</speed><course>291.884949</course><hAcc>0.888103</hAcc><vAcc>0.713494</vAcc></extensions></trkpt>
      <trkpt lon="-4.145776" lat="53.025631"><ele>292.138092</ele><time>2021-07-17T14:01:10Z</time><extensions><speed>1.294753</speed><course>287.567657</course><hAcc>0.888101</hAcc><vAcc>0.713469</vAcc></extensions></trkpt>
      <trkpt lon="-4.145760" lat="53.025637"><ele>292.032990</ele><time>2021-07-17T14:01:11Z</time><extensions><speed>1.302438</speed><course>291.768890</course><hAcc>0.888094</hAcc><vAcc>0.713433</vAcc></extensions></trkpt>
      <trkpt lon="-4.145744" lat="53.025643"><ele>291.923218</ele><time>2021-07-17T14:01:12Z</time><extensions><speed>1.308377</speed><course>296.126740</course><hAcc>0.888083</hAcc><vAcc>0.713393</vAcc></extensions></trkpt>
      <trkpt lon="-4.145727" lat="53.025650"><ele>291.809448</ele><time>2021-07-17T14:01:13Z</time><extensions><speed>1.313087</speed><course>297.059143</course><hAcc>0.888067</hAcc><vAcc>0.713349</vAcc></extensions></trkpt>
      <trkpt lon="-4.145711" lat="53.025656"><ele>291.693115</ele><time>2021-07-17T14:01:14Z</time><extensions><speed>1.316852</speed><course>303.696320</course><hAcc>0.888049</hAcc><vAcc>0.713299</vAcc></extensions></trkpt>
      <trkpt lon="-4.145694" lat="53.025662"><ele>291.575928</ele><time>2021-07-17T14:01:15Z</time><extensions><speed>1.319624</speed><course>307.460022</course><hAcc>0.888028</hAcc><vAcc>0.713244</vAcc></extensions></trkpt>
      <trkpt lon="-4.145678" lat="53.025669"><ele>291.459656</ele><time>2021-07-17T14:01:16Z</time><extensions><speed>1.320924</speed><course>302.094666</course><hAcc>0.888005</hAcc><vAcc>0.713180</vAcc></extensions></trkpt>
      <trkpt lon="-4.145661" lat="53.025675"><ele>291.346741</ele><time>2021-07-17T14:01:17Z</time><extensions><speed>1.320199</speed><course>294.763123</course><hAcc>0.887981</hAcc><vAcc>0.713107</vAcc></extensions></trkpt>
      <trkpt lon="-4.145645" lat="53.025682"><ele>291.240082</ele><time>2021-07-17T14:01:18Z</time><extensions><speed>1.317179</speed><course>292.310913</course><hAcc>0.887958</hAcc><vAcc>0.713025</vAcc></extensions></trkpt>
      <trkpt lon="-4.145629" lat="53.025689"><ele>291.141998</ele><time>2021-07-17T14:01:19Z</time><extensions><speed>1.311950</speed><course>286.252472</course><hAcc>0.887938</hAcc><vAcc>0.712936</vAcc></extensions></trkpt>
      <trkpt lon="-4.145613" lat="53.025695"><ele>291.053619</ele><time>2021-07-17T14:01:20Z</time><extensions><speed>1.304952</speed><course>277.085999</course><hAcc>0.887921</hAcc><vAcc>0.712849</vAcc></extensions></trkpt>
      <trkpt lon="-4.145597" lat="53.025702"><ele>290.974731</ele><time>2021-07-17T14:01:21Z</time><extensions><speed>1.296553</speed><course>269.880463</course><hAcc>0.887909</hAcc><vAcc>0.712776</vAcc></extensions></trkpt>
      <trkpt lon="-4.145581" lat="53.025708"><ele>290.904572</ele><time>2021-07-17T14:01:22Z</time><extensions><speed>1.286687</speed><course>256.014618</course><hAcc>0.887905</hAcc><vAcc>0.712727</vAcc></extensions></trkpt>
      <trkpt lon="-4.145565" lat="53.025715"><ele>290.842194</ele><time>2021-07-17T14:01:23Z</time><extensions><speed>1.274978</speed><course>250.524368</course><hAcc>0.887909</hAcc><vAcc>0.712712</vAcc></extensions></trkpt>
      <trkpt lon="-4.145550" lat="53.025722"><ele>290.786438</ele><time>2021-07-17T14:01:24Z</time><extensions><speed>1.261172</speed><course>237.491638</course><hAcc>0.887922</hAcc><vAcc>0.712739</vAcc></extensions></trkpt>
      <trkpt lon="-4.145535" lat="53.025728"><ele>290.736450</ele><time>2021-07-17T14:01:25Z</time><extensions><speed>1.245249</speed><course>231.976761</course><hAcc>0.887944</hAcc><vAcc>0.712811</vAcc></extensions></trkpt>
      <trkpt lon="-4.145520" lat="53.025735"><ele>290.691711</ele><time>2021-07-17T14:01:26Z</time><extensions><speed>1.227364</speed><course>228.504318</course><hAcc>0.887973</hAcc><vAcc>0.712928</vAcc></extensions></trkpt>
      <trkpt lon="-4.145506" lat="53.025742"><ele>290.651886</ele><time>2021-07-17T14:01:27Z</time><extensions><speed>1.207939</speed><course>227.577087</course><hAcc>0.888009</hAcc><vAcc>0.713084</vAcc></extensions></trkpt>
      <trkpt lon="-4.145492" lat="53.025749"><ele>290.616760</ele><time>2021-07-17T14:01:28Z</time><extensions><speed>1.187606</speed><course>219.513672</course><hAcc>0.888047</hAcc><vAcc>0.713266</vAcc></extensions></trkpt>
      <trkpt lon="-4.145478" lat="53.025755"><ele>290.586273</ele><time>2021-07-17T14:01:29Z</time><extensions><speed>1.166602</speed><course>224.903015</course><hAcc>0.888084</hAcc><vAcc>0.713456</vAcc></extensions></trkpt>
      <trkpt lon="-4.145465" lat="53.025762"><ele>290.560638</ele><time>2021-07-17T14:01:30Z</time><extensions><speed>1.144615</speed><course>222.390198</course><hAcc>0.888115</hAcc><vAcc>0.713634</vAcc></extensions></trkpt>
      <trkpt lon="-4.145452" lat="53.025768"><ele>290.540161</ele><time>2021-07-17T14:01:31Z</time><extensions><speed>1.121755</speed><course>223.313202</course><hAcc>0.888138</hAcc><vAcc>0.713781</vAcc></extensions></trkpt>
      <trkpt lon="-4.145439" lat="53.025775"><ele>290.525146</ele><time>2021-07-17T14:01:32Z</time><extensions><speed>1.099042</speed><course>224.045700</course><hAcc>0.888147</hAcc><vAcc>0.713876</vAcc></extensions></trkpt>
      <trkpt lon="-4.145427" lat="53.025781"><ele>290.515594</ele><time>2021-07-17T14:01:33Z</time><extensions><speed>1.077305</speed><course>224.975723</course><hAcc>0.888139</hAcc><vAcc>0.713905</vAcc></extensions></trkpt>
      <trkpt lon="-4.145415" lat="53.025787"><ele>290.511658</ele><time>2021-07-17T14:01:34Z</time><extensions><speed>1.056651</speed><course>226.513992</course><hAcc>0.888111</hAcc><vAcc>0.713859</vAcc></extensions></trkpt>
      <trkpt lon="-4.145403" lat="53.025793"><ele>290.513611</ele><time>2021-07-17T14:01:34Z</time><extensions><speed>1.037009</speed><course>227.291473</course><hAcc>0.888080</hAcc><vAcc>0.713747</vAcc></extensions></trkpt>
      <trkpt lon="-4.145391" lat="53.025799"><ele>290.521545</ele><time>2021-07-17T14:01:35Z</time><extensions><speed>1.018175</speed><course>231.833313</course><hAcc>0.888047</hAcc><vAcc>0.713574</vAcc></extensions></trkpt>
      <trkpt lon="-4.145380" lat="53.025805"><ele>290.535126</ele><time>2021-07-17T14:01:36Z</time><extensions><speed>1.000771</speed><course>230.421005</course><hAcc>0.887995</hAcc><vAcc>0.713339</vAcc></extensions></trkpt>
      <trkpt lon="-4.145369" lat="53.025811"><ele>290.553833</ele><time>2021-07-17T14:01:37Z</time><extensions><speed>0.985829</speed><course>235.980087</course><hAcc>0.887928</hAcc><vAcc>0.713054</vAcc></extensions></trkpt>
      <trkpt lon="-4.145357" lat="53.025817"><ele>290.577271</ele><time>2021-07-17T14:01:38Z</time><extensions><speed>0.974054</speed><course>243.213364</course><hAcc>0.887850</hAcc><vAcc>0.712738</vAcc></extensions></trkpt>
      <trkpt lon="-4.145346" lat="53.025822"><ele>290.604584</ele><time>2021-07-17T14:01:39Z</time><extensions><speed>0.966344</speed><course>253.165268</course><hAcc>0.887766</hAcc><vAcc>0.712408</vAcc></extensions></trkpt>
      <trkpt lon="-4.145335" lat="53.025827"><ele>290.634552</ele><time>2021-07-17T14:01:40Z</time><extensions><speed>0.963575</speed><course>266.505096</course><hAcc>0.887679</hAcc><vAcc>0.712081</vAcc></extensions></trkpt>
      <trkpt lon="-4.145323" lat="53.025833"><ele>290.665833</ele><time>2021-07-17T14:01:41Z</time><extensions><speed>0.966205</speed><course>267.255646</course><hAcc>0.887595</hAcc><vAcc>0.711774</vAcc></extensions></trkpt>
      <trkpt lon="-4.145312" lat="53.025838"><ele>290.696808</ele><time>2021-07-17T14:01:42Z</time><extensions><speed>0.974307</speed><course>271.176971</course><hAcc>0.887517</hAcc><vAcc>0.711496</vAcc></extensions></trkpt>
      <trkpt lon="-4.145300" lat="53.025843"><ele>290.725983</ele><time>2021-07-17T14:01:43Z</time><extensions><speed>0.986952</speed><course>283.145996</course><hAcc>0.887449</hAcc><vAcc>0.711255</vAcc></extensions></trkpt>
      <trkpt lon="-4.145288" lat="53.025849"><ele>290.751953</ele><time>2021-07-17T14:01:44Z</time><extensions><speed>1.002554</speed><course>291.499756</course><hAcc>0.887393</hAcc><vAcc>0.711059</vAcc></extensions></trkpt>
      <trkpt lon="-4.145276" lat="53.025854"><ele>290.773499</ele><time>2021-07-17T14:01:45Z</time><extensions><speed>1.019827</speed><course>295.960785</course><hAcc>0.887352</hAcc><vAcc>0.710915</vAcc></extensions></trkpt>
      <trkpt lon="-4.145263" lat="53.025859"><ele>290.789734</ele><time>2021-07-17T14:01:46Z</time><extensions><speed>1.038123</speed><course>298.309418</course><hAcc>0.887328</hAcc><vAcc>0.710827</vAcc></extensions></trkpt>
      <trkpt lon="-4.145251" lat="53.025864"><ele>290.799652</ele><time>2021-07-17T14:01:47Z</time><extensions><speed>1.056852</speed><course>301.442566</course><hAcc>0.887320</hAcc><vAcc>0.710799</vAcc></extensions></trkpt>
      <trkpt lon="-4.145237" lat="53.025870"><ele>290.802185</ele><time>2021-07-17T14:01:48Z</time><extensions><speed>1.074924</speed><course>301.820831</course><hAcc>0.887328</hAcc><vAcc>0.710831</vAcc></extensions></trkpt>
      <trkpt lon="-4.145224" lat="53.025875"><ele>290.796722</ele><time>2021-07-17T14:01:49Z</time><extensions><speed>1.091683</speed><course>306.533081</course><hAcc>0.887350</hAcc><vAcc>0.710921</vAcc></extensions></trkpt>
      <trkpt lon="-4.145210" lat="53.025881"><ele>290.783478</ele><time>2021-07-17T14:01:50Z</time><extensions><speed>1.107133</speed><course>310.759277</course><hAcc>0.887385</hAcc><vAcc>0.711066</vAcc></extensions></trkpt>
      <trkpt lon="-4.145196" lat="53.025886"><ele>290.762878</ele><time>2021-07-17T14:01:51Z</time><extensions><speed>1.121222</speed><course>315.721252</course><hAcc>0.887429</hAcc><vAcc>0.711257</vAcc></extensions></trkpt>
      <trkpt lon="-4.145182" lat="53.025891"><ele>290.735626</ele><time>2021-07-17T14:01:52Z</time><extensions><speed>1.133907</speed><course>321.376434</course><hAcc>0.887479</hAcc><vAcc>0.711480</vAcc></extensions></trkpt>
      <trkpt lon="-4.145167" lat="53.025897"><ele>290.702728</ele><time>2021-07-17T14:01:53Z</time><extensions><speed>1.145192</speed><course>321.893402</course><hAcc>0.887532</hAcc><vAcc>0.711713</vAcc></extensions></trkpt>
      <trkpt lon="-4.145153" lat="53.025902"><ele>290.665344</ele><time>2021-07-17T14:01:54Z</time><extensions><speed>1.155291</speed><course>325.867676</course><hAcc>0.887586</hAcc><vAcc>0.711932</vAcc></extensions></trkpt>
      <trkpt lon="-4.145138" lat="53.025907"><ele>290.624573</ele><time>2021-07-17T14:01:55Z</time><extensions><speed>1.164733</speed><course>319.975250</course><hAcc>0.887638</hAcc><vAcc>0.712119</vAcc></extensions></trkpt>
      <trkpt lon="-4.145123" lat="53.025913"><ele>290.581512</ele><time>2021-07-17T14:01:56Z</time><extensions><speed>1.173743</speed><course>320.826599</course><hAcc>0.887687</hAcc><vAcc>0.712267</vAcc></extensions></trkpt>
      <trkpt lon="-4.145108" lat="53.025918"><ele>290.536957</ele><time>2021-07-17T14:01:57Z</time><extensions><speed>1.182225</speed><course>320.826599</course><hAcc>0.887732</hAcc><vAcc>0.712377</vAcc></extensions></trkpt>
      <trkpt lon="-4.145093" lat="53.025924"><ele>290.491547</ele><time>2021-07-17T14:01:58Z</time><extensions><speed>1.190024</speed><course>320.826599</course><hAcc>0.887773</hAcc><vAcc>0.712460</vAcc></extensions></trkpt>
      <trkpt lon="-4.145077" lat="53.025929"><ele>290.445862</ele><time>2021-07-17T14:01:59Z</time><extensions><speed>1.196961</speed><course>320.826599</course><hAcc>0.887811</hAcc><vAcc>0.712530</vAcc></extensions></trkpt>
      <trkpt lon="-4.145062" lat="53.025935"><ele>290.400116</ele><time>2021-07-17T14:02:00Z</time><extensions><speed>1.203617</speed><course>320.826599</course><hAcc>0.887846</hAcc><vAcc>0.712600</vAcc></extensions></trkpt>
      <trkpt lon="-4.145047" lat="53.025941"><ele>290.353607</ele><time>2021-07-17T14:02:01Z</time><extensions><speed>1.210954</speed><course>320.826599</course><hAcc>0.887879</hAcc><vAcc>0.712682</vAcc></extensions></trkpt>
      <trkpt lon="-4.145032" lat="53.025947"><ele>290.305695</ele><time>2021-07-17T14:02:02Z</time><extensions><speed>1.219624</speed><course>320.826599</course><hAcc>0.887912</hAcc><vAcc>0.712782</vAcc></extensions></trkpt>
      <trkpt lon="-4.145017" lat="53.025953"><ele>290.256226</ele><time>2021-07-17T14:02:03Z</time><extensions><speed>1.229602</speed><course>320.826599</course><hAcc>0.887945</hAcc><vAcc>0.712898</vAcc></extensions></trkpt>
      <trkpt lon="-4.145002" lat="53.025960"><ele>290.204681</ele><time>2021-07-17T14:02:04Z</time><extensions><speed>1.240258</speed><course>320.826599</course><hAcc>0.887976</hAcc><vAcc>0.713030</vAcc></extensions></trkpt>
      <trkpt lon="-4.144988" lat="53.025967"><ele>290.149750</ele><time>2021-07-17T14:02:05Z</time><extensions><speed>1.250436</speed><course>320.826599</course><hAcc>0.888006</hAcc><vAcc>0.713169</vAcc></extensions></trkpt>
      <trkpt lon="-4.144973" lat="53.025974"><ele>290.090302</ele><time>2021-07-17T14:02:06Z</time><extensions><speed>1.258421</speed><course>320.826599</course><hAcc>0.888034</hAcc><vAcc>0.713304</vAcc></extensions></trkpt>
      <trkpt lon="-4.144958" lat="53.025981"><ele>290.025970</ele><time>2021-07-17T14:02:07Z</time><extensions><speed>1.262858</speed><course>320.826599</course><hAcc>0.888057</hAcc><vAcc>0.713421</vAcc></extensions></trkpt>
      <trkpt lon="-4.144944" lat="53.025988"><ele>289.956940</ele><time>2021-07-17T14:02:08Z</time><extensions><speed>1.262227</speed><course>320.826599</course><hAcc>0.888076</hAcc><vAcc>0.713506</vAcc></extensions></trkpt>
      <trkpt lon="-4.144930" lat="53.025996"><ele>289.884125</ele><time>2021-07-17T14:02:09Z</time><extensions><speed>1.254682</speed><course>320.826599</course><hAcc>0.888089</hAcc><vAcc>0.713549</vAcc></extensions></trkpt>
      <trkpt lon="-4.144916" lat="53.026003"><ele>289.809143</ele><time>2021-07-17T14:02:10Z</time><extensions><speed>1.239569</speed><course>320.826599</course><hAcc>0.888097</hAcc><vAcc>0.713550</vAcc></extensions></trkpt>
      <trkpt lon="-4.144902" lat="53.026010"><ele>289.733551</ele><time>2021-07-17T14:02:11Z</time><extensions><speed>1.217743</speed><course>320.826599</course><hAcc>0.888100</hAcc><vAcc>0.713515</vAcc></extensions></trkpt>
      <trkpt lon="-4.144889" lat="53.026017"><ele>289.658417</ele><time>2021-07-17T14:02:12Z</time><extensions><speed>1.190273</speed><course>320.826599</course><hAcc>0.888097</hAcc><vAcc>0.713458</vAcc></extensions></trkpt>
      <trkpt lon="-4.144876" lat="53.026024"><ele>289.584686</ele><time>2021-07-17T14:02:13Z</time><extensions><speed>1.158084</speed><course>320.826599</course><hAcc>0.888090</hAcc><vAcc>0.713392</vAcc></extensions></trkpt>
      <trkpt lon="-4.144863" lat="53.026031"><ele>289.513123</ele><time>2021-07-17T14:02:14Z</time><extensions><speed>1.122561</speed><course>320.826599</course><hAcc>0.888078</hAcc><vAcc>0.713331</vAcc></extensions></trkpt>
      <trkpt lon="-4.144851" lat="53.026038"><ele>289.444336</ele><time>2021-07-17T14:02:15Z</time><extensions><speed>1.085051</speed><course>320.826599</course><hAcc>0.888061</hAcc><vAcc>0.713279</vAcc></extensions></trkpt>
      <trkpt lon="-4.144839" lat="53.026044"><ele>289.378998</ele><time>2021-07-17T14:02:16Z</time><extensions><speed>1.046687</speed><course>320.826599</course><hAcc>0.888039</hAcc><vAcc>0.713237</vAcc></extensions></trkpt>
      <trkpt lon="-4.144827" lat="53.026050"><ele>289.317505</ele><time>2021-07-17T14:02:17Z</time><extensions><speed>1.008373</speed><course>320.826569</course><hAcc>0.888010</hAcc><vAcc>0.713197</vAcc></extensions></trkpt>
      <trkpt lon="-4.144816" lat="53.026056"><ele>289.259949</ele><time>2021-07-17T14:02:18Z</time><extensions><speed>0.970432</speed><course>320.826569</course><hAcc>0.887972</hAcc><vAcc>0.713142</vAcc></extensions></trkpt>
      <trkpt lon="-4.144805" lat="53.026061"><ele>289.206268</ele><time>2021-07-17T14:02:19Z</time><extensions><speed>0.933173</speed><course>320.826569</course><hAcc>0.887925</hAcc><vAcc>0.713055</vAcc></extensions></trkpt>
      <trkpt lon="-4.144794" lat="53.026067"><ele>289.156158</ele><time>2021-07-17T14:02:20Z</time><extensions><speed>0.897300</speed><course>320.826569</course><hAcc>0.887868</hAcc><vAcc>0.712916</vAcc></extensions></trkpt>
      <trkpt lon="-4.144784" lat="53.026071"><ele>289.109375</ele><time>2021-07-17T14:02:21Z</time><extensions><speed>0.863740</speed><course>306.179871</course><hAcc>0.887799</hAcc><vAcc>0.712714</vAcc></extensions></trkpt>
      <trkpt lon="-4.144774" lat="53.026076"><ele>289.066071</ele><time>2021-07-17T14:02:22Z</time><extensions><speed>0.833630</speed><course>252.340622</course><hAcc>0.887719</hAcc><vAcc>0.712449</vAcc></extensions></trkpt>
      <trkpt lon="-4.144765" lat="53.026081"><ele>289.026459</ele><time>2021-07-17T14:02:23Z</time><extensions><speed>0.808301</speed><course>240.417450</course><hAcc>0.887631</hAcc><vAcc>0.712125</vAcc></extensions></trkpt>
      <trkpt lon="-4.144755" lat="53.026085"><ele>288.990448</ele><time>2021-07-17T14:02:24Z</time><extensions><speed>0.789249</speed><course>226.735764</course><hAcc>0.887537</hAcc><vAcc>0.711758</vAcc></extensions></trkpt>
      <trkpt lon="-4.144746" lat="53.026089"><ele>288.957458</ele><time>2021-07-17T14:02:25Z</time><extensions><speed>0.777672</speed><course>213.254318</course><hAcc>0.887441</hAcc><vAcc>0.711371</vAcc></extensions></trkpt>
      <trkpt lon="-4.144736" lat="53.026093"><ele>288.926727</ele><time>2021-07-17T14:02:26Z</time><extensions><speed>0.773475</speed><course>209.983795</course><hAcc>0.887347</hAcc><vAcc>0.710992</vAcc></extensions></trkpt>
      <trkpt lon="-4.144727" lat="53.026097"><ele>288.897003</ele><time>2021-07-17T14:02:27Z</time><extensions><speed>0.775225</speed><course>212.464371</course><hAcc>0.887260</hAcc><vAcc>0.710648</vAcc></extensions></trkpt>
      <trkpt lon="-4.144717" lat="53.026101"><ele>288.867218</ele><time>2021-07-17T14:02:28Z</time><extensions><speed>0.781426</speed><course>212.464355</course><hAcc>0.887185</hAcc><vAcc>0.710360</vAcc></extensions></trkpt>
      <trkpt lon="-4.144707" lat="53.026105"><ele>288.836823</ele><time>2021-07-17T14:02:29Z</time><extensions><speed>0.791698</speed><course>212.464355</course><hAcc>0.887127</hAcc><vAcc>0.710142</vAcc></extensions></trkpt>
      <trkpt lon="-4.144697" lat="53.026109"><ele>288.805511</ele><time>2021-07-17T14:02:30Z</time><extensions><speed>0.805696</speed><course>212.464340</course><hAcc>0.887089</hAcc><vAcc>0.710004</vAcc></extensions></trkpt>
      <trkpt lon="-4.144687" lat="53.026112"><ele>288.772919</ele><time>2021-07-17T14:02:31Z</time><extensions><speed>0.822417</speed><course>212.464325</course><hAcc>0.887073</hAcc><vAcc>0.709949</vAcc></extensions></trkpt>
      <trkpt lon="-4.144676" lat="53.026116"><ele>288.738525</ele><time>2021-07-17T14:02:32Z</time><extensions><speed>0.840389</speed><course>212.464325</course><hAcc>0.887081</hAcc><vAcc>0.709978</vAcc></extensions></trkpt>
      <trkpt lon="-4.144665" lat="53.026120"><ele>288.701813</ele><time>2021-07-17T14:02:33Z</time><extensions><speed>0.857890</speed><course>212.464325</course><hAcc>0.887112</hAcc><vAcc>0.710091</vAcc></extensions></trkpt>
      <trkpt lon="-4.144655" lat="53.026125"><ele>288.662445</ele><time>2021-07-17T14:02:34Z</time><extensions><speed>0.873938</speed><course>212.464310</course><hAcc>0.887166</hAcc><vAcc>0.710284</vAcc></extensions></trkpt>
      <trkpt lon="-4.144644" lat="53.026129"><ele>288.619934</ele><time>2021-07-17T14:02:35Z</time><extensions><speed>0.888100</speed><course>305.064514</course><hAcc>0.887239</hAcc><vAcc>0.710548</vAcc></extensions></trkpt>
      <trkpt lon="-4.144633" lat="53.026134"><ele>288.573456</ele><time>2021-07-17T14:02:36Z</time><extensions><speed>0.899726</speed><course>295.507660</course><hAcc>0.887327</hAcc><vAcc>0.710870</vAcc></extensions></trkpt>
      <trkpt lon="-4.144622" lat="53.026139"><ele>288.522491</ele><time>2021-07-17T14:02:37Z</time><extensions><speed>0.907983</speed><course>292.618195</course><hAcc>0.887428</hAcc><vAcc>0.711232</vAcc></extensions></trkpt>
      <trkpt lon="-4.144611" lat="53.026144"><ele>288.467194</ele><time>2021-07-17T14:02:38Z</time><extensions><speed>0.912482</speed><course>285.374146</course><hAcc>0.887536</hAcc><vAcc>0.711616</vAcc></extensions></trkpt>
      <trkpt lon="-4.144601" lat="53.026149"><ele>288.408508</ele><time>2021-07-17T14:02:39Z</time><extensions><speed>0.913104</speed><course>282.990997</course><hAcc>0.887646</hAcc><vAcc>0.712005</vAcc></extensions></trkpt>
      <trkpt lon="-4.144591" lat="53.026155"><ele>288.347656</ele><time>2021-07-17T14:02:40Z</time><extensions><speed>0.909625</speed><course>269.408752</course><hAcc>0.887752</hAcc><vAcc>0.712381</vAcc></extensions></trkpt>
      <trkpt lon="-4.144581" lat="53.026160"><ele>288.286072</ele><time>2021-07-17T14:02:41Z</time><extensions><speed>0.901871</speed><course>268.581787</course><hAcc>0.887850</hAcc><vAcc>0.712728</vAcc></extensions></trkpt>
      <trkpt lon="-4.144572" lat="53.026166"><ele>288.225220</ele><time>2021-07-17T14:02:42Z</time><extensions><speed>0.889832</speed><course>262.171875</course><hAcc>0.887935</hAcc><vAcc>0.713026</vAcc></extensions></trkpt>
      <trkpt lon="-4.144563" lat="53.026172"><ele>288.166290</ele><time>2021-07-17T14:02:44Z</time><extensions><speed>0.873731</speed><course>261.539520</course><hAcc>0.887985</hAcc><vAcc>0.713243</vAcc></extensions></trkpt>
      <trkpt lon="-4.144555" lat="53.026178"><ele>288.110504</ele><time>2021-07-17T14:02:45Z</time><extensions><speed>0.853930</speed><course>255.803879</course><hAcc>0.887997</hAcc><vAcc>0.713359</vAcc></extensions></trkpt>
      <trkpt lon="-4.144547" lat="53.026183"><ele>288.058594</ele><time>2021-07-17T14:02:46Z</time><extensions><speed>0.830567</speed><course>247.733398</course><hAcc>0.887987</hAcc><vAcc>0.713373</vAcc></extensions></trkpt>
      <trkpt lon="-4.144539" lat="53.026189"><ele>288.011108</ele><time>2021-07-17T14:02:47Z</time><extensions><speed>0.803849</speed><course>231.932861</course><hAcc>0.887953</hAcc><vAcc>0.713277</vAcc></extensions></trkpt>
      <trkpt lon="-4.144531" lat="53.026194"><ele>287.968414</ele><time>2021-07-17T14:02:48Z</time><extensions><speed>0.774462</speed><course>232.043365</course><hAcc>0.887896</hAcc><vAcc>0.713076</vAcc></extensions></trkpt>
      <trkpt lon="-4.144524" lat="53.026200"><ele>287.930725</ele><time>2021-07-17T14:02:49Z</time><extensions><speed>0.743896</speed><course>225.182800</course><hAcc>0.887816</hAcc><vAcc>0.712777</vAcc></extensions></trkpt>
      <trkpt lon="-4.144516" lat="53.026204"><ele>287.897827</ele><time>2021-07-17T14:02:50Z</time><extensions><speed>0.713683</speed><course>222.937302</course><hAcc>0.887718</hAcc><vAcc>0.712399</vAcc></extensions></trkpt>
      <trkpt lon="-4.144509" lat="53.026209"><ele>287.869476</ele><time>2021-07-17T14:02:51Z</time><extensions><speed>0.684311</speed><course>226.615036</course><hAcc>0.887604</hAcc><vAcc>0.711964</vAcc></extensions></trkpt>
      <trkpt lon="-4.144501" lat="53.026213"><ele>287.845490</ele><time>2021-07-17T14:02:52Z</time><extensions><speed>0.655108</speed><course>227.377960</course><hAcc>0.887479</hAcc><vAcc>0.711497</vAcc></extensions></trkpt>
      <trkpt lon="-4.144494" lat="53.026217"><ele>287.825531</ele><time>2021-07-17T14:02:53Z</time><extensions><speed>0.625528</speed><course>225.027542</course><hAcc>0.887347</hAcc><vAcc>0.711019</vAcc></extensions></trkpt>
      <trkpt lon="-4.144487" lat="53.026220"><ele>287.809021</ele><time>2021-07-17T14:02:54Z</time><extensions><speed>0.595469</speed><course>217.523773</course><hAcc>0.887212</hAcc><vAcc>0.710552</vAcc></extensions></trkpt>
      <trkpt lon="-4.144480" lat="53.026223"><ele>287.795441</ele><time>2021-07-17T14:02:55Z</time><extensions><speed>0.564698</speed><course>217.503448</course><hAcc>0.887076</hAcc><vAcc>0.710108</vAcc></extensions></trkpt>
      <trkpt lon="-4.144474" lat="53.026226"><ele>287.784302</ele><time>2021-07-17T14:02:56Z</time><extensions><speed>0.532510</speed><course>222.947372</course><hAcc>0.886942</hAcc><vAcc>0.709695</vAcc></extensions></trkpt>
      <trkpt lon="-4.144467" lat="53.026229"><ele>287.775360</ele><time>2021-07-17T14:02:57Z</time><extensions><speed>0.498411</speed><course>228.737518</course><hAcc>0.886810</hAcc><vAcc>0.709310</vAcc></extensions></trkpt>
      <trkpt lon="-4.144461" lat="53.026231"><ele>287.768585</ele><time>2021-07-17T14:02:58Z</time><extensions><speed>0.463258</speed><course>234.887939</course><hAcc>0.886681</hAcc><vAcc>0.708944</vAcc></extensions></trkpt>
      <trkpt lon="-4.144456" lat="53.026233"><ele>287.764160</ele><time>2021-07-17T14:02:59Z</time><extensions><speed>0.428599</speed><course>232.671463</course><hAcc>0.886553</hAcc><vAcc>0.708582</vAcc></extensions></trkpt>
      <trkpt lon="-4.144451" lat="53.026235"><ele>287.762146</ele><time>2021-07-17T14:03:00Z</time><extensions><speed>0.395926</speed><course>228.680756</course><hAcc>0.886426</hAcc><vAcc>0.708213</vAcc></extensions></trkpt>
      <trkpt lon="-4.144446" lat="53.026237"><ele>287.762115</ele><time>2021-07-17T14:03:01Z</time><extensions><speed>0.366104</speed><course>228.367065</course><hAcc>0.886298</hAcc><vAcc>0.707829</vAcc></extensions></trkpt>
      <trkpt lon="-4.144441" lat="53.026238"><ele>287.763489</ele><time>2021-07-17T14:03:02Z</time><extensions><speed>0.339499</speed><course>227.760208</course><hAcc>0.886171</hAcc><vAcc>0.707428</vAcc></extensions></trkpt>
      <trkpt lon="-4.144437" lat="53.026240"><ele>287.765869</ele><time>2021-07-17T14:03:03Z</time><extensions><speed>0.316096</speed><course>230.377014</course><hAcc>0.886044</hAcc><vAcc>0.707013</vAcc></extensions></trkpt>
      <trkpt lon="-4.144433" lat="53.026241"><ele>287.769073</ele><time>2021-07-17T14:03:04Z</time><extensions><speed>0.295789</speed><course>236.559235</course><hAcc>0.885919</hAcc><vAcc>0.706592</vAcc></extensions></trkpt>
      <trkpt lon="-4.144429" lat="53.026242"><ele>287.773041</ele><time>2021-07-17T14:03:05Z</time><extensions><speed>0.278656</speed><course>232.877869</course><hAcc>0.885798</hAcc><vAcc>0.706174</vAcc></extensions></trkpt>
      <trkpt lon="-4.144425" lat="53.026243"><ele>287.777985</ele><time>2021-07-17T14:03:06Z</time><extensions><speed>0.264491</speed><course>233.901962</course><hAcc>0.885684</hAcc><vAcc>0.705769</vAcc></extensions></trkpt>
      <trkpt lon="-4.144421" lat="53.026244"><ele>287.784424</ele><time>2021-07-17T14:03:07Z</time><extensions><speed>0.252595</speed><course>234.840546</course><hAcc>0.885580</hAcc><vAcc>0.705389</vAcc></extensions></trkpt>
      <trkpt lon="-4.144418" lat="53.026244"><ele>287.792847</ele><time>2021-07-17T14:03:08Z</time><extensions><speed>0.242174</speed><course>231.563858</course><hAcc>0.885490</hAcc><vAcc>0.705055</vAcc></extensions></trkpt>
      <trkpt lon="-4.144414" lat="53.026245"><ele>287.803711</ele><time>2021-07-17T14:03:09Z</time><extensions><speed>0.232964</speed><course>226.163422</course><hAcc>0.885417</hAcc><vAcc>0.704789</vAcc></extensions></trkpt>
      <trkpt lon="-4.144411" lat="53.026246"><ele>287.817291</ele><time>2021-07-17T14:03:10Z</time><extensions><speed>0.225108</speed><course>224.694687</course><hAcc>0.885361</hAcc><vAcc>0.704607</vAcc></extensions></trkpt>
      <trkpt lon="-4.144408" lat="53.026246"><ele>287.833618</ele><time>2021-07-17T14:03:11Z</time><extensions><speed>0.218402</speed><course>227.400024</course><hAcc>0.885325</hAcc><vAcc>0.704511</vAcc></extensions></trkpt>
      <trkpt lon="-4.144405" lat="53.026247"><ele>287.852783</ele><time>2021-07-17T14:03:12Z</time><extensions><speed>0.212238</speed><course>225.215622</course><hAcc>0.885305</hAcc><vAcc>0.704484</vAcc></extensions></trkpt>
      <trkpt lon="-4.144402" lat="53.026247"><ele>287.875031</ele><time>2021-07-17T14:03:13Z</time><extensions><speed>0.206299</speed><course>227.979385</course><hAcc>0.885301</hAcc><vAcc>0.704505</vAcc></extensions></trkpt>
      <trkpt lon="-4.144399" lat="53.026248"><ele>287.900391</ele><time>2021-07-17T14:03:14Z</time><extensions><speed>0.200829</speed><course>238.133682</course><hAcc>0.885308</hAcc><vAcc>0.704559</vAcc></extensions></trkpt>
      <trkpt lon="-4.144396" lat="53.026248"><ele>287.928711</ele><time>2021-07-17T14:03:15Z</time><extensions><speed>0.196283</speed><course>235.678314</course><hAcc>0.885322</hAcc><vAcc>0.704636</vAcc></extensions></trkpt>
      <trkpt lon="-4.144393" lat="53.026248"><ele>287.959167</ele><time>2021-07-17T14:03:16Z</time><extensions><speed>0.192749</speed><course>238.960709</course><hAcc>0.885339</hAcc><vAcc>0.704732</vAcc></extensions></trkpt>
      <trkpt lon="-4.144390" lat="53.026248"><ele>287.990509</ele><time>2021-07-17T14:03:17Z</time><extensions><speed>0.189987</speed><course>237.793289</course><hAcc>0.885352</hAcc><vAcc>0.704835</vAcc></extensions></trkpt>
      <trkpt lon="-4.144387" lat="53.026249"><ele>288.021484</ele><time>2021-07-17T14:03:18Z</time><extensions><speed>0.188157</speed><course>238.209671</course><hAcc>0.885358</hAcc><vAcc>0.704927</vAcc></extensions></trkpt>
      <trkpt lon="-4.144385" lat="53.026249"><ele>288.051331</ele><time>2021-07-17T14:03:19Z</time><extensions><speed>0.187676</speed><course>239.435074</course><hAcc>0.885353</hAcc><vAcc>0.704982</vAcc></extensions></trkpt>
      <trkpt lon="-4.144382" lat="53.026249"><ele>288.080017</ele><time>2021-07-17T14:03:20Z</time><extensions><speed>0.188986</speed><course>238.666733</course><hAcc>0.885332</hAcc><vAcc>0.704975</vAcc></extensions></trkpt>
      <trkpt lon="-4.144379" lat="53.026249"><ele>288.108185</ele><time>2021-07-17T14:03:21Z</time><extensions><speed>0.192752</speed><course>234.077820</course><hAcc>0.885294</hAcc><vAcc>0.704885</vAcc></extensions></trkpt>
      <trkpt lon="-4.144376" lat="53.026249"><ele>288.136719</ele><time>2021-07-17T14:03:22Z</time><extensions><speed>0.199640</speed><course>227.293335</course><hAcc>0.885242</hAcc><vAcc>0.704700</vAcc></extensions></trkpt>
      <trkpt lon="-4.144373" lat="53.026250"><ele>288.166962</ele><time>2021-07-17T14:03:23Z</time><extensions><speed>0.209898</speed><course>230.072769</course><hAcc>0.885177</hAcc><vAcc>0.704429</vAcc></extensions></trkpt>
      <trkpt lon="-4.144370" lat="53.026250"><ele>288.200439</ele><time>2021-07-17T14:03:24Z</time><extensions><speed>0.223747</speed><course>228.397232</course><hAcc>0.885105</hAcc><vAcc>0.704095</vAcc></extensions></trkpt>
      <trkpt lon="-4.144366" lat="53.026250"><ele>288.238800</ele><time>2021-07-17T14:03:25Z</time><extensions><speed>0.241731</speed><course>230.234772</course><hAcc>0.885034</hAcc><vAcc>0.703741</vAcc></extensions></trkpt>
      <trkpt lon="-4.144363" lat="53.026250"><ele>288.283203</ele><time>2021-07-17T14:03:26Z</time><extensions><speed>0.264588</speed><course>226.599274</course><hAcc>0.884971</hAcc><vAcc>0.703417</vAcc></extensions></trkpt>
      <trkpt lon="-4.144359" lat="53.026250"><ele>288.334625</ele><time>2021-07-17T14:03:27Z</time><extensions><speed>0.292736</speed><course>226.515137</course><hAcc>0.884924</hAcc><vAcc>0.703168</vAcc></extensions></trkpt>
      <trkpt lon="-4.144354" lat="53.026250"><ele>288.393616</ele><time>2021-07-17T14:03:28Z</time><extensions><speed>0.325678</speed><course>226.136917</course><hAcc>0.884900</hAcc><vAcc>0.703025</vAcc></extensions></trkpt>
      <trkpt lon="-4.144349" lat="53.026250"><ele>288.460144</ele><time>2021-07-17T14:03:29Z</time><extensions><speed>0.362268</speed><course>230.381958</course><hAcc>0.884904</hAcc><vAcc>0.703010</vAcc></extensions></trkpt>
      <trkpt lon="-4.144343" lat="53.026249"><ele>288.533783</ele><time>2021-07-17T14:03:30Z</time><extensions><speed>0.401220</speed><course>226.727509</course><hAcc>0.884937</hAcc><vAcc>0.703130</vAcc></extensions></trkpt>
      <trkpt lon="-4.144337" lat="53.026249"><ele>288.613586</ele><time>2021-07-17T14:03:31Z</time><extensions><speed>0.441058</speed><course>230.180862</course><hAcc>0.884999</hAcc><vAcc>0.703382</vAcc></extensions></trkpt>
      <trkpt lon="-4.144330" lat="53.026248"><ele>288.698151</ele><time>2021-07-17T14:03:32Z</time><extensions><speed>0.480079</speed><course>225.214905</course><hAcc>0.885088</hAcc><vAcc>0.703751</vAcc></extensions></trkpt>
      <trkpt lon="-4.144323" lat="53.026248"><ele>288.785797</ele><time>2021-07-17T14:03:33Z</time><extensions><speed>0.517166</speed><course>228.288971</course><hAcc>0.885198</hAcc><vAcc>0.704205</vAcc></extensions></trkpt>
      <trkpt lon="-4.144315" lat="53.026248"><ele>288.874817</ele><time>2021-07-17T14:03:34Z</time><extensions><speed>0.551742</speed><course>234.392639</course><hAcc>0.885323</hAcc><vAcc>0.704705</vAcc></extensions></trkpt>
      <trkpt lon="-4.144306" lat="53.026248"><ele>288.963928</ele><time>2021-07-17T14:03:35Z</time><extensions><speed>0.583138</speed><course>233.208801</course><hAcc>0.885453</hAcc><vAcc>0.705215</vAcc></extensions></trkpt>
      <trkpt lon="-4.144297" lat="53.026248"><ele>289.052307</ele><time>2021-07-17T14:03:36Z</time><extensions><speed>0.610933</speed><course>238.158752</course><hAcc>0.885583</hAcc><vAcc>0.705703</vAcc></extensions></trkpt>
      <trkpt lon="-4.144288" lat="53.026248"><ele>289.139801</ele><time>2021-07-17T14:03:37Z</time><extensions><speed>0.634887</speed><course>239.142517</course><hAcc>0.885704</hAcc><vAcc>0.706147</vAcc></extensions></trkpt>
      <trkpt lon="-4.144279" lat="53.026248"><ele>289.226349</ele><time>2021-07-17T14:03:38Z</time><extensions><speed>0.654667</speed><course>241.003922</course><hAcc>0.885812</hAcc><vAcc>0.706527</vAcc></extensions></trkpt>
      <trkpt lon="-4.144269" lat="53.026249"><ele>289.312042</ele><time>2021-07-17T14:03:39Z</time><extensions><speed>0.670012</speed><course>244.474228</course><hAcc>0.885902</hAcc><vAcc>0.706838</vAcc></extensions></trkpt>
      <trkpt lon="-4.144259" lat="53.026250"><ele>289.396576</ele><time>2021-07-17T14:03:40Z</time><extensions><speed>0.680594</speed><course>238.879150</course><hAcc>0.885970</hAcc><vAcc>0.707075</vAcc></extensions></trkpt>
      <trkpt lon="-4.144249" lat="53.026251"><ele>289.478699</ele><time>2021-07-17T14:03:40Z</time><extensions><speed>0.686803</speed><course>237.538528</course><hAcc>0.886034</hAcc><vAcc>0.707252</vAcc></extensions></trkpt>
      <trkpt lon="-4.144239" lat="53.026252"><ele>289.556793</ele><time>2021-07-17T14:03:41Z</time><extensions><speed>0.689021</speed><course>249.037552</course><hAcc>0.886095</hAcc><vAcc>0.707373</vAcc></extensions></trkpt>
      <trkpt lon="-4.144229" lat="53.026254"><ele>289.629120</ele><time>2021-07-17T14:03:42Z</time><extensions><speed>0.687941</speed><course>259.361603</course><hAcc>0.886138</hAcc><vAcc>0.707435</vAcc></extensions></trkpt>
      <trkpt lon="-4.144220" lat="53.026257"><ele>289.694214</ele><time>2021-07-17T14:03:43Z</time><extensions><speed>0.685379</speed><course>261.193176</course><hAcc>0.886165</hAcc><vAcc>0.707452</vAcc></extensions></trkpt>
      <trkpt lon="-4.144211" lat="53.026260"><ele>289.750732</ele><time>2021-07-17T14:03:44Z</time><extensions><speed>0.682660</speed><course>261.193146</course><hAcc>0.886180</hAcc><vAcc>0.707443</vAcc></extensions></trkpt>
      <trkpt lon="-4.144202" lat="53.026263"><ele>289.797394</ele><time>2021-07-17T14:03:45Z</time><extensions><speed>0.679878</speed><course>261.193146</course><hAcc>0.886186</hAcc><vAcc>0.707423</vAcc></extensions></trkpt>
      <trkpt lon="-4.144194" lat="53.026266"><ele>289.833130</ele><time>2021-07-17T14:03:46Z</time><extensions><speed>0.677255</speed><course>261.193146</course><hAcc>0.886185</hAcc><vAcc>0.707405</vAcc></extensions></trkpt>
      <trkpt lon="-4.144186" lat="53.026270"><ele>289.857452</ele><time>2021-07-17T14:03:47Z</time><extensions><speed>0.675924</speed><course>261.193146</course><hAcc>0.886180</hAcc><vAcc>0.707388</vAcc></extensions></trkpt>
      <trkpt lon="-4.144179" lat="53.026275"><ele>289.870331</ele><time>2021-07-17T14:03:48Z</time><extensions><speed>0.677067</speed><course>261.193146</course><hAcc>0.886170</hAcc><vAcc>0.707370</vAcc></extensions></trkpt>
      <trkpt lon="-4.144173" lat="53.026280"><ele>289.872131</ele><time>2021-07-17T14:03:49Z</time><extensions><speed>0.681039</speed><course>261.193146</course><hAcc>0.886155</hAcc><vAcc>0.707342</vAcc></extensions></trkpt>
      <trkpt lon="-4.144167" lat="53.026285"><ele>289.863525</ele><time>2021-07-17T14:03:50Z</time><extensions><speed>0.686860</speed><course>261.193146</course><hAcc>0.886135</hAcc><vAcc>0.707297</vAcc></extensions></trkpt>
      <trkpt lon="-4.144162" lat="53.026290"><ele>289.845612</ele><time>2021-07-17T14:03:51Z</time><extensions><speed>0.692843</speed><course>261.193146</course><hAcc>0.886107</hAcc><vAcc>0.707229</vAcc></extensions></trkpt>
      <trkpt lon="-4.144157" lat="53.026295"><ele>289.819885</ele><time>2021-07-17T14:03:52Z</time><extensions><speed>0.697261</speed><course>234.852402</course><hAcc>0.886068</hAcc><vAcc>0.707131</vAcc></extensions></trkpt>
      <trkpt lon="-4.144152" lat="53.026301"><ele>289.788086</ele><time>2021-07-17T14:03:53Z</time><extensions><speed>0.699127</speed><course>215.025620</course><hAcc>0.886014</hAcc><vAcc>0.706994</vAcc></extensions></trkpt>
      <trkpt lon="-4.144148" lat="53.026307"><ele>289.751984</ele><time>2021-07-17T14:03:54Z</time><extensions><speed>0.697757</speed><course>206.872131</course><hAcc>0.885942</hAcc><vAcc>0.706804</vAcc></extensions></trkpt>
      <trkpt lon="-4.144143" lat="53.026312"><ele>289.713165</ele><time>2021-07-17T14:03:55Z</time><extensions><speed>0.692922</speed><course>205.862991</course><hAcc>0.885847</hAcc><vAcc>0.706543</vAcc></extensions></trkpt>
      <trkpt lon="-4.144139" lat="53.026318"><ele>289.673187</ele><time>2021-07-17T14:03:56Z</time><extensions><speed>0.685227</speed><course>205.862976</course><hAcc>0.885724</hAcc><vAcc>0.706198</vAcc></extensions></trkpt>
      <trkpt lon="-4.144136" lat="53.026324"><ele>289.633911</ele><time>2021-07-17T14:03:57Z</time><extensions><speed>0.675461</speed><course>234.677673</course><hAcc>0.885568</hAcc><vAcc>0.705756</vAcc></extensions></trkpt>
      <trkpt lon="-4.144132" lat="53.026329"><ele>289.597626</ele><time>2021-07-17T14:03:58Z</time><extensions><speed>0.664127</speed><course>246.321655</course><hAcc>0.885375</hAcc><vAcc>0.705205</vAcc></extensions></trkpt>
      <trkpt lon="-4.144128" lat="53.026335"><ele>289.566223</ele><time>2021-07-17T14:03:59Z</time><extensions><speed>0.651490</speed><course>256.732239</course><hAcc>0.885140</hAcc><vAcc>0.704534</vAcc></extensions></trkpt>
      <trkpt lon="-4.144125" lat="53.026340"><ele>289.540222</ele><time>2021-07-17T14:04:00Z</time><extensions><speed>0.637160</speed><course>257.461731</course><hAcc>0.884862</hAcc><vAcc>0.703724</vAcc></extensions></trkpt>
      <trkpt lon="-4.144122" lat="53.026345"><ele>289.519196</ele><time>2021-07-17T14:04:01Z</time><extensions><speed>0.620062</speed><course>256.219269</course><hAcc>0.884540</hAcc><vAcc>0.702755</vAcc></extensions></trkpt>
      <trkpt lon="-4.144119" lat="53.026351"><ele>289.502441</ele><time>2021-07-17T14:04:02Z</time><extensions><speed>0.600146</speed><course>253.669510</course><hAcc>0.884175</hAcc><vAcc>0.701616</vAcc></extensions></trkpt>
      <trkpt lon="-4.144116" lat="53.026356"><ele>289.489258</ele><time>2021-07-17T14:04:03Z</time><extensions><speed>0.578624</speed><course>253.907227</course><hAcc>0.883772</hAcc><vAcc>0.700313</vAcc></extensions></trkpt>
      <trkpt lon="-4.144114" lat="53.026361"><ele>289.478912</ele><time>2021-07-17T14:04:04Z</time><extensions><speed>0.557121</speed><course>260.189209</course><hAcc>0.883340</hAcc><vAcc>0.698867</vAcc></extensions></trkpt>
      <trkpt lon="-4.144111" lat="53.026365"><ele>289.470642</ele><time>2021-07-17T14:04:05Z</time><extensions><speed>0.537025</speed><course>263.253174</course><hAcc>0.882890</hAcc><vAcc>0.697322</vAcc></extensions></trkpt>
      <trkpt lon="-4.144109" lat="53.026370"><ele>289.463593</ele><time>2021-07-17T14:04:06Z</time><extensions><speed>0.519185</speed><course>264.349060</course><hAcc>0.882435</hAcc><vAcc>0.695735</vAcc></extensions></trkpt>
      <trkpt lon="-4.144108" lat="53.026374"><ele>289.457092</ele><time>2021-07-17T14:04:07Z</time><extensions><speed>0.504095</speed><course>258.002991</course><hAcc>0.881992</hAcc><vAcc>0.694170</vAcc></extensions></trkpt>
      <trkpt lon="-4.144106" lat="53.026379"><ele>289.450134</ele><time>2021-07-17T14:04:08Z</time><extensions><speed>0.492015</speed><course>264.832825</course><hAcc>0.881575</hAcc><vAcc>0.692697</vAcc></extensions></trkpt>
      <trkpt lon="-4.144105" lat="53.026383"><ele>289.441345</ele><time>2021-07-17T14:04:09Z</time><extensions><speed>0.482757</speed><course>262.654938</course><hAcc>0.881199</hAcc><vAcc>0.691383</vAcc></extensions></trkpt>
      <trkpt lon="-4.144105" lat="53.026387"><ele>289.429291</ele><time>2021-07-17T14:04:10Z</time><extensions><speed>0.476145</speed><course>262.654938</course><hAcc>0.880876</hAcc><vAcc>0.690287</vAcc></extensions></trkpt>
      <trkpt lon="-4.144105" lat="53.026392"><ele>289.412720</ele><time>2021-07-17T14:04:11Z</time><extensions><speed>0.471815</speed><course>262.654938</course><hAcc>0.880613</hAcc><vAcc>0.689439</vAcc></extensions></trkpt>
      <trkpt lon="-4.144105" lat="53.026396"><ele>289.390747</ele><time>2021-07-17T14:04:12Z</time><extensions><speed>0.469022</speed><course>262.654938</course><hAcc>0.880409</hAcc><vAcc>0.688841</vAcc></extensions></trkpt>
      <trkpt lon="-4.144106" lat="53.026400"><ele>289.362762</ele><time>2021-07-17T14:04:13Z</time><extensions><speed>0.466775</speed><course>262.654938</course><hAcc>0.880260</hAcc><vAcc>0.688459</vAcc></extensions></trkpt>
      <trkpt lon="-4.144107" lat="53.026404"><ele>289.328461</ele><time>2021-07-17T14:04:14Z</time><extensions><speed>0.464081</speed><course>262.654938</course><hAcc>0.880153</hAcc><vAcc>0.688241</vAcc></extensions></trkpt>
      <trkpt lon="-4.144109" lat="53.026408"><ele>289.287659</ele><time>2021-07-17T14:04:15Z</time><extensions><speed>0.460582</speed><course>262.654938</course><hAcc>0.880078</hAcc><vAcc>0.688127</vAcc></extensions></trkpt>
      <trkpt lon="-4.144111" lat="53.026412"><ele>289.240326</ele><time>2021-07-17T14:04:16Z</time><extensions><speed>0.455906</speed><course>262.654938</course><hAcc>0.880020</hAcc><vAcc>0.688062</vAcc></extensions></trkpt>
      <trkpt lon="-4.144114" lat="53.026416"><ele>289.186768</ele><time>2021-07-17T14:04:17Z</time><extensions><speed>0.449661</speed><course>262.654938</course><hAcc>0.879968</hAcc><vAcc>0.688000</vAcc></extensions></trkpt>
      <trkpt lon="-4.144116" lat="53.026419"><ele>289.127869</ele><time>2021-07-17T14:04:18Z</time><extensions><speed>0.441315</speed><course>262.654938</course><hAcc>0.879911</hAcc><vAcc>0.687898</vAcc></extensions></trkpt>
      <trkpt lon="-4.144119" lat="53.026423"><ele>289.064697</ele><time>2021-07-17T14:04:19Z</time><extensions><speed>0.430117</speed><course>262.654938</course><hAcc>0.879843</hAcc><vAcc>0.687724</vAcc></extensions></trkpt>
      <trkpt lon="-4.144123" lat="53.026426"><ele>288.998047</ele><time>2021-07-17T14:04:20Z</time><extensions><speed>0.415649</speed><course>262.654938</course><hAcc>0.879758</hAcc><vAcc>0.687458</vAcc></extensions></trkpt>
      <trkpt lon="-4.144126" lat="53.026429"><ele>288.928589</ele><time>2021-07-17T14:04:21Z</time><extensions><speed>0.398082</speed><course>262.654938</course><hAcc>0.879658</hAcc><vAcc>0.687100</vAcc></extensions></trkpt>
      <trkpt lon="-4.144129" lat="53.026432"><ele>288.856812</ele><time>2021-07-17T14:04:22Z</time><extensions><speed>0.377840</speed><course>262.654938</course><hAcc>0.879548</hAcc><vAcc>0.686674</vAcc></extensions></trkpt>
      <trkpt lon="-4.144133" lat="53.026435"><ele>288.783051</ele><time>2021-07-17T14:04:23Z</time><extensions><speed>0.355523</speed><course>262.654938</course><hAcc>0.879437</hAcc><vAcc>0.686218</vAcc></extensions></trkpt>
      <trkpt lon="-4.144136" lat="53.026437"><ele>288.707642</ele><time>2021-07-17T14:04:24Z</time><extensions><speed>0.331943</speed><course>262.654938</course><hAcc>0.879336</hAcc><vAcc>0.685787</vAcc></extensions></trkpt>
      <trkpt lon="-4.144139" lat="53.026439"><ele>288.630829</ele><time>2021-07-17T14:04:25Z</time><extensions><speed>0.307872</speed><course>262.654938</course><hAcc>0.879259</hAcc><vAcc>0.685441</vAcc></extensions></trkpt>
      <trkpt lon="-4.144141" lat="53.026441"><ele>288.553131</ele><time>2021-07-17T14:04:26Z</time><extensions><speed>0.283773</speed><course>262.654938</course><hAcc>0.879217</hAcc><vAcc>0.685242</vAcc></extensions></trkpt>
      <trkpt lon="-4.144144" lat="53.026443"><ele>288.475006</ele><time>2021-07-17T14:04:27Z</time><extensions><speed>0.259937</speed><course>262.654938</course><hAcc>0.879219</hAcc><vAcc>0.685235</vAcc></extensions></trkpt>
      <trkpt lon="-4.144146" lat="53.026445"><ele>288.397125</ele><time>2021-07-17T14:04:28Z</time><extensions><speed>0.236587</speed><course>262.654938</course><hAcc>0.879266</hAcc><vAcc>0.685421</vAcc></extensions></trkpt>
      <trkpt lon="-4.144149" lat="53.026447"><ele>288.320251</ele><time>2021-07-17T14:04:29Z</time><extensions><speed>0.213645</speed><course>262.654938</course><hAcc>0.879353</hAcc><vAcc>0.685767</vAcc></extensions></trkpt>
      <trkpt lon="-4.144151" lat="53.026448"><ele>288.245117</ele><time>2021-07-17T14:04:30Z</time><extensions><speed>0.190955</speed><course>262.654938</course><hAcc>0.879470</hAcc><vAcc>0.686222</vAcc></extensions></trkpt>
      <trkpt lon="-4.144152" lat="53.026449"><ele>288.172455</ele><time>2021-07-17T14:04:31Z</time><extensions><speed>0.168308</speed><course>262.654938</course><hAcc>0.879608</hAcc><vAcc>0.686736</vAcc></extensions></trkpt>
      <trkpt lon="-4.144154" lat="53.026450"><ele>288.102966</ele><time>2021-07-17T14:04:32Z</time><extensions><speed>0.145031</speed><course>262.654938</course><hAcc>0.879756</hAcc><vAcc>0.687268</vAcc></extensions></trkpt>
      <trkpt lon="-4.144155" lat="53.026451"><ele>288.037354</ele><time>2021-07-17T14:04:33Z</time><extensions><speed>0.120328</speed><course>262.654938</course><hAcc>0.879905</hAcc><vAcc>0.687787</vAcc></extensions></trkpt>
      <trkpt lon="-4.144157" lat="53.026452"><ele>287.976074</ele><time>2021-07-17T14:04:34Z</time><extensions><speed>0.093711</speed><course>262.654938</course><hAcc>0.880047</hAcc><vAcc>0.688266</vAcc></extensions></trkpt>
      <trkpt lon="-4.144157" lat="53.026452"><ele>287.919861</ele><time>2021-07-17T14:04:35Z</time><extensions><speed>0.065202</speed><course>262.654938</course><hAcc>0.880174</hAcc><vAcc>0.688688</vAcc></extensions></trkpt>
      <trkpt lon="-4.144158" lat="53.026452"><ele>287.869476</ele><time>2021-07-17T14:04:36Z</time><extensions><speed>0.035380</speed><course>262.654938</course><hAcc>0.880283</hAcc><vAcc>0.689034</vAcc></extensions></trkpt>
      <trkpt lon="-4.144158" lat="53.026453"><ele>287.825714</ele><time>2021-07-17T14:04:37Z</time><extensions><speed>0.005149</speed><course>262.654938</course><hAcc>0.880369</hAcc><vAcc>0.689297</vAcc></extensions></trkpt>
      <trkpt lon="-4.144158" lat="53.026453"><ele>287.789276</ele><time>2021-07-17T14:04:38Z</time><extensions><speed>0.025441</speed><course>262.654938</course><hAcc>0.880431</hAcc><vAcc>0.689472</vAcc></extensions></trkpt>
      <trkpt lon="-4.144157" lat="53.026452"><ele>287.760468</ele><time>2021-07-17T14:04:39Z</time><extensions><speed>0.055131</speed><course>262.654938</course><hAcc>0.880468</hAcc><vAcc>0.689563</vAcc></extensions></trkpt>
      <trkpt lon="-4.144157" lat="53.026452"><ele>287.739197</ele><time>2021-07-17T14:04:40Z</time><extensions><speed>0.083818</speed><course>262.654938</course><hAcc>0.880481</hAcc><vAcc>0.689579</vAcc></extensions></trkpt>
      <trkpt lon="-4.144155" lat="53.026452"><ele>287.725159</ele><time>2021-07-17T14:04:41Z</time><extensions><speed>0.111782</speed><course>262.654938</course><hAcc>0.880471</hAcc><vAcc>0.689524</vAcc></extensions></trkpt>
      <trkpt lon="-4.144154" lat="53.026451"><ele>287.717957</ele><time>2021-07-17T14:04:42Z</time><extensions><speed>0.139591</speed><course>262.654938</course><hAcc>0.880437</hAcc><vAcc>0.689401</vAcc></extensions></trkpt>
      <trkpt lon="-4.144151" lat="53.026451"><ele>287.717194</ele><time>2021-07-17T14:04:43Z</time><extensions><speed>0.167546</speed><course>262.654938</course><hAcc>0.880382</hAcc><vAcc>0.689210</vAcc></extensions></trkpt>
      <trkpt lon="-4.144149" lat="53.026450"><ele>287.722382</ele><time>2021-07-17T14:04:44Z</time><extensions><speed>0.195650</speed><course>262.654938</course><hAcc>0.880304</hAcc><vAcc>0.688952</vAcc></extensions></trkpt>
      <trkpt lon="-4.144146" lat="53.026450"><ele>287.733154</ele><time>2021-07-17T14:04:45Z</time><extensions><speed>0.223383</speed><course>262.654938</course><hAcc>0.880205</hAcc><vAcc>0.688627</vAcc></extensions></trkpt>
      <trkpt lon="-4.144142" lat="53.026450"><ele>287.749115</ele><time>2021-07-17T14:04:46Z</time><extensions><speed>0.249653</speed><course>262.654938</course><hAcc>0.880084</hAcc><vAcc>0.688237</vAcc></extensions></trkpt>
      <trkpt lon="-4.144138" lat="53.026450"><ele>287.769653</ele><time>2021-07-17T14:04:48Z</time><extensions><speed>0.272789</speed><course>262.654938</course><hAcc>0.879921</hAcc><vAcc>0.687766</vAcc></extensions></trkpt>
      <trkpt lon="-4.144134" lat="53.026449"><ele>287.794159</ele><time>2021-07-17T14:04:49Z</time><extensions><speed>0.290648</speed><course>262.654938</course><hAcc>0.879714</hAcc><vAcc>0.687203</vAcc></extensions></trkpt>
      <trkpt lon="-4.144130" lat="53.026449"><ele>287.822113</ele><time>2021-07-17T14:04:50Z</time><extensions><speed>0.301409</speed><course>262.654938</course><hAcc>0.879479</hAcc><vAcc>0.686539</vAcc></extensions></trkpt>
      <trkpt lon="-4.144125" lat="53.026449"><ele>287.852783</ele><time>2021-07-17T14:04:51Z</time><extensions><speed>0.304351</speed><course>262.654938</course><hAcc>0.879212</hAcc><vAcc>0.685757</vAcc></extensions></trkpt>
      <trkpt lon="-4.144121" lat="53.026450"><ele>287.884949</ele><time>2021-07-17T14:04:52Z</time><extensions><speed>0.299538</speed><course>262.654938</course><hAcc>0.878913</hAcc><vAcc>0.684848</vAcc></extensions></trkpt>
      <trkpt lon="-4.144116" lat="53.026450"><ele>287.917480</ele><time>2021-07-17T14:04:53Z</time><extensions><speed>0.287194</speed><course>262.654938</course><hAcc>0.878585</hAcc><vAcc>0.683808</vAcc></extensions></trkpt>
      <trkpt lon="-4.144112" lat="53.026450"><ele>287.949860</ele><time>2021-07-17T14:04:54Z</time><extensions><speed>0.267989</speed><course>262.654938</course><hAcc>0.878232</hAcc><vAcc>0.682654</vAcc></extensions></trkpt>
      <trkpt lon="-4.144108" lat="53.026450"><ele>287.981842</ele><time>2021-07-17T14:04:55Z</time><extensions><speed>0.243029</speed><course>262.654938</course><hAcc>0.877865</hAcc><vAcc>0.681421</vAcc></extensions></trkpt>
      <trkpt lon="-4.144105" lat="53.026450"><ele>288.013123</ele><time>2021-07-17T14:04:56Z</time><extensions><speed>0.213703</speed><course>262.654938</course><hAcc>0.877495</hAcc><vAcc>0.680160</vAcc></extensions></trkpt>
      <trkpt lon="-4.144102" lat="53.026451"><ele>288.043243</ele><time>2021-07-17T14:04:57Z</time><extensions><speed>0.181295</speed><course>262.654938</course><hAcc>0.877134</hAcc><vAcc>0.678926</vAcc></extensions></trkpt>
      <trkpt lon="-4.144100" lat="53.026451"><ele>288.071991</ele><time>2021-07-17T14:04:58Z</time><extensions><speed>0.147064</speed><course>262.654938</course><hAcc>0.876794</hAcc><vAcc>0.677777</vAcc></extensions></trkpt>
      <trkpt lon="-4.144098" lat="53.026451"><ele>288.099213</ele><time>2021-07-17T14:04:59Z</time><extensions><speed>0.112919</speed><course>262.654938</course><hAcc>0.876484</hAcc><vAcc>0.676758</vAcc></extensions></trkpt>
      <trkpt lon="-4.144097" lat="53.026452"><ele>288.124878</ele><time>2021-07-17T14:05:00Z</time><extensions><speed>0.081306</speed><course>262.654938</course><hAcc>0.876208</hAcc><vAcc>0.675894</vAcc></extensions></trkpt>
      <trkpt lon="-4.144096" lat="53.026452"><ele>288.148895</ele><time>2021-07-17T14:05:01Z</time><extensions><speed>0.054340</speed><course>262.654938</course><hAcc>0.875966</hAcc><vAcc>0.675193</vAcc></extensions></trkpt>
      <trkpt lon="-4.144095" lat="53.026452"><ele>288.171265</ele><time>2021-07-17T14:05:02Z</time><extensions><speed>0.032700</speed><course>262.654938</course><hAcc>0.875750</hAcc><vAcc>0.674630</vAcc></extensions></trkpt>
      <trkpt lon="-4.144095" lat="53.026452"><ele>288.191956</ele><time>2021-07-17T14:05:03Z</time><extensions><speed>0.016025</speed><course>262.654938</course><hAcc>0.875544</hAcc><vAcc>0.674143</vAcc></extensions></trkpt>
      <trkpt lon="-4.144095" lat="53.026452"><ele>288.211029</ele><time>2021-07-17T14:05:04Z</time><extensions><speed>0.003969</speed><course>262.654938</course><hAcc>0.875329</hAcc><vAcc>0.673637</vAcc></extensions></trkpt>
      <trkpt lon="-4.144095" lat="53.026452"><ele>288.228485</ele><time>2021-07-17T14:05:05Z</time><extensions><speed>0.004636</speed><course>262.654938</course><hAcc>0.875082</hAcc><vAcc>0.673015</vAcc></extensions></trkpt>
      <trkpt lon="-4.144095" lat="53.026452"><ele>288.244232</ele><time>2021-07-17T14:05:06Z</time><extensions><speed>0.009400</speed><course>262.654938</course><hAcc>0.874788</hAcc><vAcc>0.672199</vAcc></extensions></trkpt>
      <trkpt lon="-4.144095" lat="53.026452"><ele>288.258057</ele><time>2021-07-17T14:05:07Z</time><extensions><speed>0.010982</speed><course>209.646423</course><hAcc>0.874437</hAcc><vAcc>0.671141</vAcc></extensions></trkpt>
      <trkpt lon="-4.144095" lat="53.026452"><ele>288.269592</ele><time>2021-07-17T14:05:08Z</time><extensions><speed>0.009377</speed><course>207.502853</course><hAcc>0.874028</hAcc><vAcc>0.669836</vAcc></extensions></trkpt>
      <trkpt lon="-4.144095" lat="53.026452"><ele>288.278412</ele><time>2021-07-17T14:05:09Z</time><extensions><speed>0.005006</speed><course>210.649872</course><hAcc>0.873570</hAcc><vAcc>0.668314</vAcc></extensions></trkpt>
      <trkpt lon="-4.144095" lat="53.026452"><ele>288.284363</ele><time>2021-07-17T14:05:10Z</time><extensions><speed>0.003036</speed><course>218.307190</course><hAcc>0.873081</hAcc><vAcc>0.666649</vAcc></extensions></trkpt>
      <trkpt lon="-4.144095" lat="53.026452"><ele>288.287323</ele><time>2021-07-17T14:05:11Z</time><extensions><speed>0.011023</speed><course>221.774033</course><hAcc>0.872587</hAcc><vAcc>0.664946</vAcc></extensions></trkpt>
      <trkpt lon="-4.144095" lat="53.026452"><ele>288.287384</ele><time>2021-07-17T14:05:12Z</time><extensions><speed>0.020443</speed><course>225.071381</course><hAcc>0.872112</hAcc><vAcc>0.663321</vAcc></extensions></trkpt>
      <trkpt lon="-4.144095" lat="53.026453"><ele>288.284668</ele><time>2021-07-17T14:05:13Z</time><extensions><speed>0.030129</speed><course>229.682953</course><hAcc>0.871680</hAcc><vAcc>0.661866</vAcc></extensions></trkpt>
      <trkpt lon="-4.144095" lat="53.026453"><ele>288.279327</ele><time>2021-07-17T14:05:14Z</time><extensions><speed>0.039582</speed><course>228.187271</course><hAcc>0.871301</hAcc><vAcc>0.660632</vAcc></extensions></trkpt>
      <trkpt lon="-4.144095" lat="53.026453"><ele>288.271667</ele><time>2021-07-17T14:05:15Z</time><extensions><speed>0.048357</speed><course>224.821243</course><hAcc>0.870977</hAcc><vAcc>0.659621</vAcc></extensions></trkpt>
      <trkpt lon="-4.144095" lat="53.026454"><ele>288.262085</ele><time>2021-07-17T14:05:16Z</time><extensions><speed>0.055958</speed><course>222.757462</course><hAcc>0.870702</hAcc><vAcc>0.658801</vAcc></extensions></trkpt>
      <trkpt lon="-4.144095" lat="53.026454"><ele>288.251038</ele><time>2021-07-17T14:05:17Z</time><extensions><speed>0.062085</speed><course>223.047150</course><hAcc>0.870462</hAcc><vAcc>0.658116</vAcc></extensions></trkpt>
      <trkpt lon="-4.144095" lat="53.026455"><ele>288.239105</ele><time>2021-07-17T14:05:18Z</time><extensions><speed>0.066626</speed><course>218.695862</course><hAcc>0.870241</hAcc><vAcc>0.657502</vAcc></extensions></trkpt>
      <trkpt lon="-4.144095" lat="53.026456"><ele>288.226715</ele><time>2021-07-17T14:05:19Z</time><extensions><speed>0.069527</speed><course>216.351273</course><hAcc>0.870025</hAcc><vAcc>0.656891</vAcc></extensions></trkpt>
      <trkpt lon="-4.144094" lat="53.026456"><ele>288.214386</ele><time>2021-07-17T14:05:20Z</time><extensions><speed>0.070701</speed><course>219.658188</course><hAcc>0.869802</hAcc><vAcc>0.656233</vAcc></extensions></trkpt>
      <trkpt lon="-4.144094" lat="53.026457"><ele>288.202515</ele><time>2021-07-17T14:05:21Z</time><extensions><speed>0.070016</speed><course>221.748871</course><hAcc>0.869566</hAcc><vAcc>0.655503</vAcc></extensions></trkpt>
      <trkpt lon="-4.144094" lat="53.026457"><ele>288.191559</ele><time>2021-07-17T14:05:22Z</time><extensions><speed>0.067641</speed><course>225.723022</course><hAcc>0.869321</hAcc><vAcc>0.654703</vAcc></extensions></trkpt>
      <trkpt lon="-4.144093" lat="53.026458"><ele>288.182037</ele><time>2021-07-17T14:05:23Z</time><extensions><speed>0.064067</speed><course>227.303833</course><hAcc>0.869078</hAcc><vAcc>0.653875</vAcc></extensions></trkpt>
      <trkpt lon="-4.144093" lat="53.026458"><ele>288.174225</ele><time>2021-07-17T14:05:24Z</time><extensions><speed>0.059746</speed><course>225.742310</course><hAcc>0.868858</hAcc><vAcc>0.653101</vAcc></extensions></trkpt>
      <trkpt lon="-4.144093" lat="53.026459"><ele>288.168457</ele><time>2021-07-17T14:05:25Z</time><extensions><speed>0.055013</speed><course>225.742310</course><hAcc>0.868686</hAcc><vAcc>0.652481</vAcc></extensions></trkpt>
      <trkpt lon="-4.144093" lat="53.026459"><ele>288.165070</ele><time>2021-07-17T14:05:26Z</time><extensions><speed>0.050370</speed><course>225.742325</course><hAcc>0.868586</hAcc><vAcc>0.652095</vAcc></extensions></trkpt>
      <trkpt lon="-4.144092" lat="53.026460"><ele>288.164215</ele><time>2021-07-17T14:05:27Z</time><extensions><speed>0.046326</speed><course>225.742325</course><hAcc>0.868569</hAcc><vAcc>0.651989</vAcc></extensions></trkpt>
      <trkpt lon="-4.144092" lat="53.026460"><ele>288.165894</ele><time>2021-07-17T14:05:28Z</time><extensions><speed>0.043173</speed><course>225.742325</course><hAcc>0.868645</hAcc><vAcc>0.652190</vAcc></extensions></trkpt>
      <trkpt lon="-4.144092" lat="53.026461"><ele>288.169861</ele><time>2021-07-17T14:05:29Z</time><extensions><speed>0.041047</speed><course>224.360504</course><hAcc>0.868824</hAcc><vAcc>0.652726</vAcc></extensions></trkpt>
      <trkpt lon="-4.144092" lat="53.026461"><ele>288.175659</ele><time>2021-07-17T14:05:30Z</time><extensions><speed>0.039691</speed><course>231.374908</course><hAcc>0.869116</hAcc><vAcc>0.653631</vAcc></extensions></trkpt>
      <trkpt lon="-4.144092" lat="53.026461"><ele>288.183075</ele><time>2021-07-17T14:05:31Z</time><extensions><speed>0.038818</speed><course>226.234039</course><hAcc>0.869533</hAcc><vAcc>0.654944</vAcc></extensions></trkpt>
      <trkpt lon="-4.144092" lat="53.026462"><ele>288.191956</ele><time>2021-07-17T14:05:32Z</time><extensions><speed>0.038262</speed><course>228.443588</course><hAcc>0.870090</hAcc><vAcc>0.656703</vAcc></extensions></trkpt>
      <trkpt lon="-4.144091" lat="53.026462"><ele>288.202057</ele><time>2021-07-17T14:05:33Z</time><extensions><speed>0.037589</speed><course>217.150848</course><hAcc>0.870798</hAcc><vAcc>0.658943</vAcc></extensions></trkpt>
      <trkpt lon="-4.144091" lat="53.026462"><ele>288.213074</ele><time>2021-07-17T14:05:34Z</time><extensions><speed>0.036179</speed><course>214.670395</course><hAcc>0.871674</hAcc><vAcc>0.661699</vAcc></extensions></trkpt>
      <trkpt lon="-4.144091" lat="53.026462"><ele>288.224823</ele><time>2021-07-17T14:05:35Z</time><extensions><speed>0.033830</speed><course>219.066208</course><hAcc>0.872738</hAcc><vAcc>0.665013</vAcc></extensions></trkpt>
      <trkpt lon="-4.144091" lat="53.026463"><ele>288.237030</ele><time>2021-07-17T14:05:36Z</time><extensions><speed>0.030698</speed><course>218.042282</course><hAcc>0.874014</hAcc><vAcc>0.668912</vAcc></extensions></trkpt>
      <trkpt lon="-4.144091" lat="53.026463"><ele>288.249359</ele><time>2021-07-17T14:05:37Z</time><extensions><speed>0.027116</speed><course>220.994385</course><hAcc>0.875519</hAcc><vAcc>0.673385</vAcc></extensions></trkpt>
      <trkpt lon="-4.144090" lat="53.026463"><ele>288.261444</ele><time>2021-07-17T14:05:38Z</time><extensions><speed>0.023471</speed><course>227.746307</course><hAcc>0.877265</hAcc><vAcc>0.678349</vAcc></extensions></trkpt>
      <trkpt lon="-4.144090" lat="53.026463"><ele>288.272949</ele><time>2021-07-17T14:05:39Z</time><extensions><speed>0.019911</speed><course>224.855316</course><hAcc>0.879249</hAcc><vAcc>0.683648</vAcc></extensions></trkpt>
      <trkpt lon="-4.144090" lat="53.026463"><ele>288.283630</ele><time>2021-07-17T14:05:40Z</time><extensions><speed>0.016542</speed><course>223.584900</course><hAcc>0.881465</hAcc><vAcc>0.689104</vAcc></extensions></trkpt>
      <trkpt lon="-4.144090" lat="53.026464"><ele>288.293365</ele><time>2021-07-17T14:05:41Z</time><extensions><speed>0.013436</speed><course>224.383530</course><hAcc>0.883905</hAcc><vAcc>0.694558</vAcc></extensions></trkpt>
      <trkpt lon="-4.144090" lat="53.026464"><ele>288.302063</ele><time>2021-07-17T14:05:42Z</time><extensions><speed>0.010635</speed><course>225.716217</course><hAcc>0.886557</hAcc><vAcc>0.699881</vAcc></extensions></trkpt>
      <trkpt lon="-4.144090" lat="53.026464"><ele>288.309723</ele><time>2021-07-17T14:05:43Z</time><extensions><speed>0.008162</speed><course>229.189102</course><hAcc>0.889392</hAcc><vAcc>0.704965</vAcc></extensions></trkpt>
      <trkpt lon="-4.144090" lat="53.026464"><ele>288.316284</ele><time>2021-07-17T14:05:44Z</time><extensions><speed>0.006020</speed><course>224.817474</course><hAcc>0.892359</hAcc><vAcc>0.709714</vAcc></extensions></trkpt>
      <trkpt lon="-4.144090" lat="53.026464"><ele>288.321869</ele><time>2021-07-17T14:05:45Z</time><extensions><speed>0.004201</speed><course>225.227936</course><hAcc>0.895369</hAcc><vAcc>0.714027</vAcc></extensions></trkpt>
      <trkpt lon="-4.144090" lat="53.026464"><ele>288.326477</ele><time>2021-07-17T14:05:46Z</time><extensions><speed>0.002686</speed><course>228.251373</course><hAcc>0.898286</hAcc><vAcc>0.717789</vAcc></extensions></trkpt>
      <trkpt lon="-4.144090" lat="53.026464"><ele>288.330231</ele><time>2021-07-17T14:05:46Z</time><extensions><speed>0.001453</speed><course>230.721024</course><hAcc>0.900953</hAcc><vAcc>0.720888</vAcc></extensions></trkpt>
      <trkpt lon="-4.144090" lat="53.026464"><ele>288.333160</ele><time>2021-07-17T14:05:47Z</time><extensions><speed>0.000472</speed><course>234.697540</course><hAcc>0.903181</hAcc><vAcc>0.723233</vAcc></extensions></trkpt>
      <trkpt lon="-4.144090" lat="53.026464"><ele>288.335419</ele><time>2021-07-17T14:05:48Z</time><extensions><speed>0.000325</speed><course>236.619934</course><hAcc>0.904786</hAcc><vAcc>0.724795</vAcc></extensions></trkpt>
      <trkpt lon="-4.144090" lat="53.026464"><ele>288.337067</ele><time>2021-07-17T14:05:49Z</time><extensions><speed>0.000898</speed><course>247.542679</course><hAcc>0.905739</hAcc><vAcc>0.725750</vAcc></extensions></trkpt>
      <trkpt lon="-4.144090" lat="53.026464"><ele>288.338165</ele><time>2021-07-17T14:05:50Z</time><extensions><speed>0.001324</speed><course>242.855072</course><hAcc>0.906310</hAcc><vAcc>0.726602</vAcc></extensions></trkpt>
      <trkpt lon="-4.144090" lat="53.026464"><ele>288.338867</ele><time>2021-07-17T14:05:51Z</time><extensions><speed>0.001625</speed><course>241.397278</course><hAcc>0.907325</hAcc><vAcc>0.728383</vAcc></extensions></trkpt>
      <trkpt lon="-4.144090" lat="53.026464"><ele>288.339203</ele><time>2021-07-17T14:05:52Z</time><extensions><speed>0.001825</speed><course>241.667068</course><hAcc>0.910522</hAcc><vAcc>0.732893</vAcc></extensions></trkpt>
      <trkpt lon="-4.144090" lat="53.026464"><ele>288.339233</ele><time>2021-07-17T14:05:53Z</time><extensions><speed>0.001950</speed><course>241.132874</course><hAcc>0.918993</hAcc><vAcc>0.742940</vAcc></extensions></trkpt>
      <trkpt lon="-4.144090" lat="53.026464"><ele>288.339081</ele><time>2021-07-17T14:05:54Z</time><extensions><speed>0.002019</speed><course>242.509506</course><hAcc>0.937584</hAcc><vAcc>0.762472</vAcc></extensions></trkpt>
      <trkpt lon="-4.144090" lat="53.026464"><ele>288.338745</ele><time>2021-07-17T14:05:55Z</time><extensions><speed>0.002051</speed><course>242.195404</course><hAcc>0.973025</hAcc><vAcc>0.796427</vAcc></extensions></trkpt>
      <trkpt lon="-4.144090" lat="53.026464"><ele>288.331085</ele><time>2021-07-17T14:05:56Z</time><extensions><speed>0.000000</speed><course>207.637573</course><hAcc>0.935621</hAcc><vAcc>0.762583</vAcc></extensions></trkpt>
      <trkpt lon="-4.144090" lat="53.026464"><ele>288.331085</ele><time>2021-07-17T14:05:57Z</time><extensions><speed>0.000000</speed><course>199.781464</course><hAcc>0.916798</hAcc><vAcc>0.742811</vAcc></extensions></trkpt>
      <trkpt lon="-4.144090" lat="53.026464"><ele>288.331085</ele><time>2021-07-17T14:05:58Z</time><extensions><speed>0.000000</speed><course>204.898392</course><hAcc>0.909495</hAcc><vAcc>0.733841</vAcc></extensions></trkpt>
      <trkpt lon="-4.144090" lat="53.026464"><ele>288.331085</ele><time>2021-07-17T14:05:59Z</time><extensions><speed>0.000000</speed><course>218.988647</course><hAcc>0.908216</hAcc><vAcc>0.731302</vAcc></extensions></trkpt>
      <trkpt lon="-4.144090" lat="53.026464"><ele>288.331085</ele><time>2021-07-17T14:06:00Z</time><extensions><speed>0.000000</speed><course>240.875916</course><hAcc>0.909478</hAcc><vAcc>0.732080</vAcc></extensions></trkpt>
      <trkpt lon="-4.144090" lat="53.026464"><ele>288.331085</ele><time>2021-07-17T14:06:01Z</time><extensions><speed>0.000000</speed><course>240.875916</course><hAcc>0.911356</hAcc><vAcc>0.734187</vAcc></extensions></trkpt>
      <trkpt lon="-4.144090" lat="53.026464"><ele>288.331085</ele><time>2021-07-17T14:06:02Z</time><extensions><speed>0.000000</speed><course>240.875916</course><hAcc>0.912965</hAcc><vAcc>0.736494</vAcc></extensions></trkpt>
      <trkpt lon="-4.144090" lat="53.026464"><ele>288.331085</ele><time>2021-07-17T14:06:03Z</time><extensions><speed>0.000000</speed><course>240.875916</course><hAcc>0.914036</hAcc><vAcc>0.738445</vAcc></extensions></trkpt>
      <trkpt lon="-4.144090" lat="53.026464"><ele>288.331085</ele><time>2021-07-17T14:06:04Z</time><extensions><speed>0.000000</speed><course>240.875916</course><hAcc>0.914610</hAcc><vAcc>0.739827</vAcc></extensions></trkpt>
      <trkpt lon="-4.144090" lat="53.026464"><ele>288.331085</ele><time>2021-07-17T14:06:05Z</time><extensions><speed>0.000000</speed><course>240.875916</course><hAcc>0.914828</hAcc><vAcc>0.740601</vAcc></extensions></trkpt>
      <trkpt lon="-4.144090" lat="53.026464"><ele>288.331085</ele><time>2021-07-17T14:06:06Z</time><extensions><speed>0.000000</speed><course>269.430084</course><hAcc>0.914810</hAcc><vAcc>0.740793</vAcc></extensions></trkpt>
      <trkpt lon="-4.144090" lat="53.026464"><ele>288.331085</ele><time>2021-07-17T14:06:07Z</time><extensions><speed>0.000000</speed><course>274.056000</course><hAcc>0.914600</hAcc><vAcc>0.740436</vAcc></extensions></trkpt>
      <trkpt lon="-4.144090" lat="53.026464"><ele>288.331085</ele><time>2021-07-17T14:06:08Z</time><extensions><speed>0.000000</speed><course>273.580658</course><hAcc>0.914161</hAcc><vAcc>0.739563</vAcc></extensions></trkpt>
      <trkpt lon="-4.144090" lat="53.026464"><ele>288.331085</ele><time>2021-07-17T14:06:09Z</time><extensions><speed>0.000000</speed><course>266.285736</course><hAcc>0.913423</hAcc><vAcc>0.738250</vAcc></extensions></trkpt>
      <trkpt lon="-4.144090" lat="53.026464"><ele>288.331085</ele><time>2021-07-17T14:06:10Z</time><extensions><speed>0.000000</speed><course>280.416809</course><hAcc>0.912396</hAcc><vAcc>0.736715</vAcc></extensions></trkpt>
      <trkpt lon="-4.144090" lat="53.026464"><ele>288.331085</ele><time>2021-07-17T14:06:11Z</time><extensions><speed>0.000000</speed><course>289.633057</course><hAcc>0.911351</hAcc><vAcc>0.735470</vAcc></extensions></trkpt>
      <trkpt lon="-4.144090" lat="53.026464"><ele>288.331085</ele><time>2021-07-17T14:06:12Z</time><extensions><speed>0.000000</speed><course>274.042023</course><hAcc>0.911085</hAcc><vAcc>0.735527</vAcc></extensions></trkpt>
      <trkpt lon="-4.144090" lat="53.026464"><ele>288.331085</ele><time>2021-07-17T14:06:13Z</time><extensions><speed>0.000000</speed><course>259.398621</course><hAcc>0.913300</hAcc><vAcc>0.738654</vAcc></extensions></trkpt>
      <trkpt lon="-4.144090" lat="53.026464"><ele>288.331085</ele><time>2021-07-17T14:06:14Z</time><extensions><speed>0.000000</speed><course>235.228027</course><hAcc>0.921040</hAcc><vAcc>0.747609</vAcc></extensions></trkpt>
      <trkpt lon="-4.144090" lat="53.026464"><ele>288.331085</ele><time>2021-07-17T14:06:15Z</time><extensions><speed>0.000000</speed><course>233.943741</course><hAcc>0.939113</hAcc><vAcc>0.766281</vAcc></extensions></trkpt>
      <trkpt lon="-4.144090" lat="53.026464"><ele>288.331085</ele><time>2021-07-17T14:06:16Z</time><extensions><speed>0.000000</speed><course>251.986771</course><hAcc>0.974211</hAcc><vAcc>0.799548</vAcc></extensions></trkpt>
      <trkpt lon="-4.144090" lat="53.026464"><ele>288.331085</ele><time>2021-07-17T14:06:17Z</time><extensions><speed>0.000000</speed><course>207.637573</course><hAcc>0.936441</hAcc><vAcc>0.764922</vAcc></extensions></trkpt>
      <trkpt lon="-4.144090" lat="53.026464"><ele>288.331085</ele><time>2021-07-17T14:06:18Z</time><extensions><speed>0.000000</speed><course>199.781464</course><hAcc>0.917419</hAcc><vAcc>0.744558</vAcc></extensions></trkpt>
      <trkpt lon="-4.144090" lat="53.026464"><ele>288.331085</ele><time>2021-07-17T14:06:19Z</time><extensions><speed>0.000000</speed><course>204.898392</course><hAcc>0.909933</hAcc><vAcc>0.735017</vAcc></extensions></trkpt>
      <trkpt lon="-4.144090" lat="53.026464"><ele>288.331085</ele><time>2021-07-17T14:06:20Z</time><extensions><speed>0.000000</speed><course>218.988647</course><hAcc>0.908497</hAcc><vAcc>0.731975</vAcc></extensions></trkpt>
      <trkpt lon="-4.144090" lat="53.026464"><ele>288.331085</ele><time>2021-07-17T14:06:21Z</time><extensions><speed>0.000000</speed><course>240.875916</course><hAcc>0.909630</hAcc><vAcc>0.732341</vAcc></extensions></trkpt>
      <trkpt lon="-4.144090" lat="53.026464"><ele>288.331085</ele><time>2021-07-17T14:06:22Z</time><extensions><speed>0.000000</speed><course>240.875916</course><hAcc>0.911404</hAcc><vAcc>0.734136</vAcc></extensions></trkpt>
      <trkpt lon="-4.144090" lat="53.026464"><ele>288.331085</ele><time>2021-07-17T14:06:23Z</time><extensions><speed>0.000000</speed><course>240.875916</course><hAcc>0.912935</hAcc><vAcc>0.736225</vAcc></extensions></trkpt>
      <trkpt lon="-4.144090" lat="53.026464"><ele>288.331085</ele><time>2021-07-17T14:06:24Z</time><extensions><speed>0.000000</speed><course>240.875916</course><hAcc>0.913951</hAcc><vAcc>0.738042</vAcc></extensions></trkpt>
      <trkpt lon="-4.144090" lat="53.026464"><ele>288.331085</ele><time>2021-07-17T14:06:25Z</time><extensions><speed>0.000000</speed><course>240.875916</course><hAcc>0.914490</hAcc><vAcc>0.739361</vAcc></extensions></trkpt>
      <trkpt lon="-4.144090" lat="53.026464"><ele>288.331085</ele><time>2021-07-17T14:06:26Z</time><extensions><speed>0.000000</speed><course>240.875916</course><hAcc>0.914691</hAcc><vAcc>0.740123</vAcc></extensions></trkpt>
      <trkpt lon="-4.144090" lat="53.026464"><ele>288.331085</ele><time>2021-07-17T14:06:27Z</time><extensions><speed>0.000000</speed><course>269.430084</course><hAcc>0.914675</hAcc><vAcc>0.740341</vAcc></extensions></trkpt>
      <trkpt lon="-4.144090" lat="53.026464"><ele>288.331085</ele><time>2021-07-17T14:06:28Z</time><extensions><speed>0.000000</speed><course>274.056000</course><hAcc>0.914485</hAcc><vAcc>0.740038</vAcc></extensions></trkpt>
      <trkpt lon="-4.144090" lat="53.026464"><ele>288.331085</ele><time>2021-07-17T14:06:29Z</time><extensions><speed>0.000000</speed><course>273.580658</course><hAcc>0.914081</hAcc><vAcc>0.739250</vAcc></extensions></trkpt>
      <trkpt lon="-4.144090" lat="53.026464"><ele>288.331085</ele><time>2021-07-17T14:06:30Z</time><extensions><speed>0.000000</speed><course>266.285736</course><hAcc>0.913398</hAcc><vAcc>0.738067</vAcc></extensions></trkpt>
      <trkpt lon="-4.144090" lat="53.026464"><ele>288.331085</ele><time>2021-07-17T14:06:31Z</time><extensions><speed>0.000000</speed><course>280.416809</course><hAcc>0.912446</hAcc><vAcc>0.736727</vAcc></extensions></trkpt>
      <trkpt lon="-4.144090" lat="53.026464"><ele>288.331085</ele><time>2021-07-17T14:06:32Z</time><extensions><speed>0.000000</speed><course>289.633057</course><hAcc>0.911497</hAcc><vAcc>0.735759</vAcc></extensions></trkpt>
      <trkpt lon="-4.144090" lat="53.026464"><ele>288.331085</ele><time>2021-07-17T14:06:33Z</time><extensions><speed>0.000000</speed><course>274.042023</course><hAcc>0.911353</hAcc><vAcc>0.736190</vAcc></extensions></trkpt>
      <trkpt lon="-4.144090" lat="53.026464"><ele>288.331085</ele><time>2021-07-17T14:06:34Z</time><extensions><speed>0.000000</speed><course>259.398621</course><hAcc>0.913716</hAcc><vAcc>0.739784</vAcc></extensions></trkpt>
      <trkpt lon="-4.144090" lat="53.026464"><ele>288.331085</ele><time>2021-07-17T14:06:35Z</time><extensions><speed>0.000000</speed><course>235.228027</course><hAcc>0.921634</hAcc><vAcc>0.749283</vAcc></extensions></trkpt>
      <trkpt lon="-4.144090" lat="53.026464"><ele>288.331085</ele><time>2021-07-17T14:06:36Z</time><extensions><speed>0.000000</speed><course>233.943741</course><hAcc>0.939907</hAcc><vAcc>0.768545</vAcc></extensions></trkpt>
      <trkpt lon="-4.144090" lat="53.026464"><ele>288.331085</ele><time>2021-07-17T14:06:37Z</time><extensions><speed>0.000000</speed><course>251.986771</course><hAcc>0.975215</hAcc><vAcc>0.802408</vAcc></extensions></trkpt>
      <trkpt lon="-4.144089" lat="53.026464"><ele>288.352905</ele><time>2021-07-17T14:06:38Z</time><extensions><speed>0.016294</speed><course>207.637573</course><hAcc>0.936947</hAcc><vAcc>0.767116</vAcc></extensions></trkpt>
      <trkpt lon="-4.144089" lat="53.026463"><ele>288.356201</ele><time>2021-07-17T14:06:39Z</time><extensions><speed>0.016228</speed><course>199.781464</course><hAcc>0.917576</hAcc><vAcc>0.746387</vAcc></extensions></trkpt>
      <trkpt lon="-4.144089" lat="53.026463"><ele>288.359131</ele><time>2021-07-17T14:06:40Z</time><extensions><speed>0.015793</speed><course>204.898392</course><hAcc>0.909573</hAcc><vAcc>0.736288</vAcc></extensions></trkpt>
      <trkpt lon="-4.144088" lat="53.026463"><ele>288.361542</ele><time>2021-07-17T14:06:41Z</time><extensions><speed>0.014796</speed><course>218.988647</course><hAcc>0.907429</hAcc><vAcc>0.732495</vAcc></extensions></trkpt>
      <trkpt lon="-4.144088" lat="53.026463"><ele>288.363220</ele><time>2021-07-17T14:06:42Z</time><extensions><speed>0.013032</speed><course>240.875916</course><hAcc>0.907636</hAcc><vAcc>0.731917</vAcc></extensions></trkpt>
      <trkpt lon="-4.144088" lat="53.026463"><ele>288.363953</ele><time>2021-07-17T14:06:44Z</time><extensions><speed>0.010356</speed><course>240.875916</course><hAcc>0.908222</hAcc><vAcc>0.732556</vAcc></extensions></trkpt>
      <trkpt lon="-4.144088" lat="53.026463"><ele>288.363434</ele><time>2021-07-17T14:06:45Z</time><extensions><speed>0.007122</speed><course>240.875916</course><hAcc>0.908278</hAcc><vAcc>0.733278</vAcc></extensions></trkpt>
      <trkpt lon="-4.144088" lat="53.026464"><ele>288.361328</ele><time>2021-07-17T14:06:46Z</time><extensions><speed>0.006582</speed><course>240.875916</course><hAcc>0.907554</hAcc><vAcc>0.733552</vAcc></extensions></trkpt>
      <trkpt lon="-4.144088" lat="53.026464"><ele>288.357330</ele><time>2021-07-17T14:06:47Z</time><extensions><speed>0.012837</speed><course>240.875916</course><hAcc>0.906116</hAcc><vAcc>0.733204</vAcc></extensions></trkpt>
      <trkpt lon="-4.144088" lat="53.026464"><ele>288.350952</ele><time>2021-07-17T14:06:48Z</time><extensions><speed>0.023381</speed><course>240.875916</course><hAcc>0.904179</hAcc><vAcc>0.732267</vAcc></extensions></trkpt>
      <trkpt lon="-4.144088" lat="53.026464"><ele>288.341827</ele><time>2021-07-17T14:06:49Z</time><extensions><speed>0.037251</speed><course>269.430084</course><hAcc>0.901987</hAcc><vAcc>0.730877</vAcc></extensions></trkpt>
      <trkpt lon="-4.144089" lat="53.026464"><ele>288.329498</ele><time>2021-07-17T14:06:50Z</time><extensions><speed>0.054464</speed><course>274.056000</course><hAcc>0.899754</hAcc><vAcc>0.729197</vAcc></extensions></trkpt>
      <trkpt lon="-4.144090" lat="53.026464"><ele>288.313446</ele><time>2021-07-17T14:06:51Z</time><extensions><speed>0.075137</speed><course>273.580658</course><hAcc>0.897640</hAcc><vAcc>0.727382</vAcc></extensions></trkpt>
      <trkpt lon="-4.144091" lat="53.026464"><ele>288.293304</ele><time>2021-07-17T14:06:52Z</time><extensions><speed>0.099300</speed><course>266.285736</course><hAcc>0.895741</hAcc><vAcc>0.725555</vAcc></extensions></trkpt>
      <trkpt lon="-4.144093" lat="53.026465"><ele>288.268616</ele><time>2021-07-17T14:06:53Z</time><extensions><speed>0.126813</speed><course>280.416809</course><hAcc>0.894102</hAcc><vAcc>0.723796</vAcc></extensions></trkpt>
      <trkpt lon="-4.144095" lat="53.026465"><ele>288.239014</ele><time>2021-07-17T14:06:54Z</time><extensions><speed>0.157292</speed><course>289.633057</course><hAcc>0.892726</hAcc><vAcc>0.722148</vAcc></extensions></trkpt>
      <trkpt lon="-4.144097" lat="53.026466"><ele>288.204254</ele><time>2021-07-17T14:06:55Z</time><extensions><speed>0.190037</speed><course>274.042023</course><hAcc>0.891589</hAcc><vAcc>0.720618</vAcc></extensions></trkpt>
      <trkpt lon="-4.144100" lat="53.026466"><ele>288.164246</ele><time>2021-07-17T14:06:56Z</time><extensions><speed>0.223951</speed><course>259.398621</course><hAcc>0.890650</hAcc><vAcc>0.719187</vAcc></extensions></trkpt>
      <trkpt lon="-4.144104" lat="53.026467"><ele>288.119019</ele><time>2021-07-17T14:06:57Z</time><extensions><speed>0.257460</speed><course>235.228027</course><hAcc>0.889864</hAcc><vAcc>0.717816</vAcc></extensions></trkpt>
      <trkpt lon="-4.144108" lat="53.026467"><ele>288.068878</ele><time>2021-07-17T14:06:58Z</time><extensions><speed>0.288424</speed><course>233.943741</course><hAcc>0.889184</hAcc><vAcc>0.716456</vAcc></extensions></trkpt>
      <trkpt lon="-4.144112" lat="53.026468"><ele>288.014435</ele><time>2021-07-17T14:06:59Z</time><extensions><speed>0.314054</speed><course>251.986771</course><hAcc>0.888571</hAcc><vAcc>0.715050</vAcc></extensions></trkpt>
      <trkpt lon="-4.144117" lat="53.026468"><ele>287.956604</ele><time>2021-07-17T14:07:00Z</time><extensions><speed>0.330835</speed><course>230.632401</course><hAcc>0.887992</hAcc><vAcc>0.713548</vAcc></extensions></trkpt>
      <trkpt lon="-4.144122" lat="53.026469"><ele>287.896790</ele><time>2021-07-17T14:07:01Z</time><extensions><speed>0.334448</speed><course>208.539734</course><hAcc>0.887426</hAcc><vAcc>0.711913</vAcc></extensions></trkpt>
      <trkpt lon="-4.144127" lat="53.026469"><ele>287.836639</ele><time>2021-07-17T14:07:02Z</time><extensions><speed>0.324529</speed><course>217.062653</course><hAcc>0.886860</hAcc><vAcc>0.710134</vAcc></extensions></trkpt>
      <trkpt lon="-4.144131" lat="53.026470"><ele>287.777527</ele><time>2021-07-17T14:07:03Z</time><extensions><speed>0.304845</speed><course>216.480164</course><hAcc>0.886289</hAcc><vAcc>0.708233</vAcc></extensions></trkpt>
      <trkpt lon="-4.144135" lat="53.026470"><ele>287.720490</ele><time>2021-07-17T14:07:04Z</time><extensions><speed>0.278516</speed><course>215.204285</course><hAcc>0.885717</hAcc><vAcc>0.706259</vAcc></extensions></trkpt>
      <trkpt lon="-4.144139" lat="53.026471"><ele>287.666351</ele><time>2021-07-17T14:07:05Z</time><extensions><speed>0.248038</speed><course>192.608246</course><hAcc>0.885151</hAcc><vAcc>0.704269</vAcc></extensions></trkpt>
      <trkpt lon="-4.144143" lat="53.026471"><ele>287.615814</ele><time>2021-07-17T14:07:06Z</time><extensions><speed>0.215282</speed><course>196.818375</course><hAcc>0.884607</hAcc><vAcc>0.702332</vAcc></extensions></trkpt>
      <trkpt lon="-4.144146" lat="53.026471"><ele>287.569275</ele><time>2021-07-17T14:07:07Z</time><extensions><speed>0.181413</speed><course>200.564194</course><hAcc>0.884098</hAcc><vAcc>0.700521</vAcc></extensions></trkpt>
      <trkpt lon="-4.144148" lat="53.026471"><ele>287.526947</ele><time>2021-07-17T14:07:08Z</time><extensions><speed>0.147787</speed><course>224.718231</course><hAcc>0.883642</hAcc><vAcc>0.698907</vAcc></extensions></trkpt>
      <trkpt lon="-4.144150" lat="53.026472"><ele>287.488892</ele><time>2021-07-17T14:07:09Z</time><extensions><speed>0.116094</speed><course>228.969803</course><hAcc>0.883251</hAcc><vAcc>0.697553</vAcc></extensions></trkpt>
      <trkpt lon="-4.144152" lat="53.026472"><ele>287.455353</ele><time>2021-07-17T14:07:10Z</time><extensions><speed>0.087523</speed><course>250.366501</course><hAcc>0.882937</hAcc><vAcc>0.696508</vAcc></extensions></trkpt>
      <trkpt lon="-4.144153" lat="53.026472"><ele>287.426361</ele><time>2021-07-17T14:07:11Z</time><extensions><speed>0.062964</speed><course>-1.000000</course><hAcc>0.882703</hAcc><vAcc>0.695793</vAcc></extensions></trkpt>
      <trkpt lon="-4.144153" lat="53.026472"><ele>287.401825</ele><time>2021-07-17T14:07:12Z</time><extensions><speed>0.043646</speed><course>232.063629</course><hAcc>0.882547</hAcc><vAcc>0.695400</vAcc></extensions></trkpt>
      <trkpt lon="-4.144154" lat="53.026471"><ele>287.381470</ele><time>2021-07-17T14:07:13Z</time><extensions><speed>0.032080</speed><course>232.063614</course><hAcc>0.882461</hAcc><vAcc>0.695294</vAcc></extensions></trkpt>
      <trkpt lon="-4.144154" lat="53.026471"><ele>287.365112</ele><time>2021-07-17T14:07:14Z</time><extensions><speed>0.030971</speed><course>232.063614</course><hAcc>0.882430</hAcc><vAcc>0.695426</vAcc></extensions></trkpt>
      <trkpt lon="-4.144154" lat="53.026471"><ele>287.352478</ele><time>2021-07-17T14:07:15Z</time><extensions><speed>0.037396</speed><course>232.063599</course><hAcc>0.882439</hAcc><vAcc>0.695723</vAcc></extensions></trkpt>
      <trkpt lon="-4.144154" lat="53.026471"><ele>287.343323</ele><time>2021-07-17T14:07:16Z</time><extensions><speed>0.046053</speed><course>232.063599</course><hAcc>0.882465</hAcc><vAcc>0.696079</vAcc></extensions></trkpt>
      <trkpt lon="-4.144154" lat="53.026470"><ele>287.337402</ele><time>2021-07-17T14:07:17Z</time><extensions><speed>0.054498</speed><course>232.063583</course><hAcc>0.882488</hAcc><vAcc>0.696373</vAcc></extensions></trkpt>
      <trkpt lon="-4.144154" lat="53.026470"><ele>287.334473</ele><time>2021-07-17T14:07:18Z</time><extensions><speed>0.061901</speed><course>232.063583</course><hAcc>0.882486</hAcc><vAcc>0.696499</vAcc></extensions></trkpt>
      <trkpt lon="-4.144153" lat="53.026469"><ele>287.334351</ele><time>2021-07-17T14:07:19Z</time><extensions><speed>0.068042</speed><course>248.555511</course><hAcc>0.882444</hAcc><vAcc>0.696398</vAcc></extensions></trkpt>
      <trkpt lon="-4.144153" lat="53.026469"><ele>287.336853</ele><time>2021-07-17T14:07:20Z</time><extensions><speed>0.072679</speed><course>214.727661</course><hAcc>0.882353</hAcc><vAcc>0.696061</vAcc></extensions></trkpt>
      <trkpt lon="-4.144152" lat="53.026468"><ele>287.341736</ele><time>2021-07-17T14:07:21Z</time><extensions><speed>0.075451</speed><course>215.656113</course><hAcc>0.882207</hAcc><vAcc>0.695512</vAcc></extensions></trkpt>
      <trkpt lon="-4.144151" lat="53.026468"><ele>287.348724</ele><time>2021-07-17T14:07:22Z</time><extensions><speed>0.076039</speed><course>205.637772</course><hAcc>0.882007</hAcc><vAcc>0.694790</vAcc></extensions></trkpt>
      <trkpt lon="-4.144150" lat="53.026467"><ele>287.357422</ele><time>2021-07-17T14:07:23Z</time><extensions><speed>0.074166</speed><course>201.575424</course><hAcc>0.881758</hAcc><vAcc>0.693929</vAcc></extensions></trkpt>
      <trkpt lon="-4.144149" lat="53.026467"><ele>287.367462</ele><time>2021-07-17T14:07:24Z</time><extensions><speed>0.069679</speed><course>196.854248</course><hAcc>0.881464</hAcc><vAcc>0.692948</vAcc></extensions></trkpt>
      <trkpt lon="-4.144148" lat="53.026467"><ele>287.378662</ele><time>2021-07-17T14:07:25Z</time><extensions><speed>0.062502</speed><course>198.264053</course><hAcc>0.881135</hAcc><vAcc>0.691859</vAcc></extensions></trkpt>
      <trkpt lon="-4.144148" lat="53.026466"><ele>287.390869</ele><time>2021-07-17T14:07:26Z</time><extensions><speed>0.052907</speed><course>198.636932</course><hAcc>0.880779</hAcc><vAcc>0.690680</vAcc></extensions></trkpt>
      <trkpt lon="-4.144147" lat="53.026466"><ele>287.403870</ele><time>2021-07-17T14:07:27Z</time><extensions><speed>0.041854</speed><course>192.727798</course><hAcc>0.880409</hAcc><vAcc>0.689438</vAcc></extensions></trkpt>
      <trkpt lon="-4.144147" lat="53.026466"><ele>287.417236</ele><time>2021-07-17T14:07:28Z</time><extensions><speed>0.030600</speed><course>184.691818</course><hAcc>0.880040</hAcc><vAcc>0.688166</vAcc></extensions></trkpt>
      <trkpt lon="-4.144147" lat="53.026466"><ele>287.430481</ele><time>2021-07-17T14:07:29Z</time><extensions><speed>0.020935</speed><course>177.917740</course><hAcc>0.879685</hAcc><vAcc>0.686922</vAcc></extensions></trkpt>
      <trkpt lon="-4.144147" lat="53.026465"><ele>287.443115</ele><time>2021-07-17T14:07:30Z</time><extensions><speed>0.016473</speed><course>169.935883</course><hAcc>0.879361</hAcc><vAcc>0.685777</vAcc></extensions></trkpt>
      <trkpt lon="-4.144147" lat="53.026465"><ele>287.454651</ele><time>2021-07-17T14:07:31Z</time><extensions><speed>0.019683</speed><course>168.290512</course><hAcc>0.879083</hAcc><vAcc>0.684802</vAcc></extensions></trkpt>
      <trkpt lon="-4.144147" lat="53.026465"><ele>287.464569</ele><time>2021-07-17T14:07:32Z</time><extensions><speed>0.026021</speed><course>175.847488</course><hAcc>0.878859</hAcc><vAcc>0.684040</vAcc></extensions></trkpt>
      <trkpt lon="-4.144148" lat="53.026465"><ele>287.472534</ele><time>2021-07-17T14:07:33Z</time><extensions><speed>0.031927</speed><course>182.489380</course><hAcc>0.878696</hAcc><vAcc>0.683512</vAcc></extensions></trkpt>
      <trkpt lon="-4.144148" lat="53.026465"><ele>287.478333</ele><time>2021-07-17T14:07:34Z</time><extensions><speed>0.036252</speed><course>193.224472</course><hAcc>0.878592</hAcc><vAcc>0.683212</vAcc></extensions></trkpt>
      <trkpt lon="-4.144149" lat="53.026465"><ele>287.481781</ele><time>2021-07-17T14:07:35Z</time><extensions><speed>0.038548</speed><course>210.457108</course><hAcc>0.878542</hAcc><vAcc>0.683116</vAcc></extensions></trkpt>
      <trkpt lon="-4.144149" lat="53.026465"><ele>287.482788</ele><time>2021-07-17T14:07:36Z</time><extensions><speed>0.039357</speed><course>227.054108</course><hAcc>0.878540</hAcc><vAcc>0.683193</vAcc></extensions></trkpt>
      <trkpt lon="-4.144149" lat="53.026466"><ele>287.481354</ele><time>2021-07-17T14:07:37Z</time><extensions><speed>0.040105</speed><course>247.666534</course><hAcc>0.878576</hAcc><vAcc>0.683406</vAcc></extensions></trkpt>
      <trkpt lon="-4.144150" lat="53.026466"><ele>287.477722</ele><time>2021-07-17T14:07:38Z</time><extensions><speed>0.041966</speed><course>261.197876</course><hAcc>0.878640</hAcc><vAcc>0.683717</vAcc></extensions></trkpt>
      <trkpt lon="-4.144150" lat="53.026466"><ele>287.472260</ele><time>2021-07-17T14:07:39Z</time><extensions><speed>0.045340</speed><course>263.217255</course><hAcc>0.878717</hAcc><vAcc>0.684065</vAcc></extensions></trkpt>
      <trkpt lon="-4.144150" lat="53.026467"><ele>287.465393</ele><time>2021-07-17T14:07:40Z</time><extensions><speed>0.049910</speed><course>271.463165</course><hAcc>0.878796</hAcc><vAcc>0.684386</vAcc></extensions></trkpt>
      <trkpt lon="-4.144150" lat="53.026467"><ele>287.457550</ele><time>2021-07-17T14:07:41Z</time><extensions><speed>0.054902</speed><course>281.991608</course><hAcc>0.878866</hAcc><vAcc>0.684632</vAcc></extensions></trkpt>
      <trkpt lon="-4.144149" lat="53.026468"><ele>287.449158</ele><time>2021-07-17T14:07:42Z</time><extensions><speed>0.059691</speed><course>285.895782</course><hAcc>0.878921</hAcc><vAcc>0.684786</vAcc></extensions></trkpt>
      <trkpt lon="-4.144149" lat="53.026468"><ele>287.440430</ele><time>2021-07-17T14:07:43Z</time><extensions><speed>0.063704</speed><course>287.327179</course><hAcc>0.878960</hAcc><vAcc>0.684853</vAcc></extensions></trkpt>
      <trkpt lon="-4.144148" lat="53.026469"><ele>287.431549</ele><time>2021-07-17T14:07:44Z</time><extensions><speed>0.066386</speed><course>297.396240</course><hAcc>0.878988</hAcc><vAcc>0.684857</vAcc></extensions></trkpt>
      <trkpt lon="-4.144147" lat="53.026469"><ele>287.422638</ele><time>2021-07-17T14:07:45Z</time><extensions><speed>0.067439</speed><course>299.473175</course><hAcc>0.879011</hAcc><vAcc>0.684831</vAcc></extensions></trkpt>
      <trkpt lon="-4.144147" lat="53.026469"><ele>287.413818</ele><time>2021-07-17T14:07:46Z</time><extensions><speed>0.066824</speed><course>297.683289</course><hAcc>0.879040</hAcc><vAcc>0.684818</vAcc></extensions></trkpt>
      <trkpt lon="-4.144146" lat="53.026470"><ele>287.405243</ele><time>2021-07-17T14:07:47Z</time><extensions><speed>0.064533</speed><course>292.365356</course><hAcc>0.879085</hAcc><vAcc>0.684870</vAcc></extensions></trkpt>
      <trkpt lon="-4.144145" lat="53.026470"><ele>287.396973</ele><time>2021-07-17T14:07:48Z</time><extensions><speed>0.060494</speed><course>291.092651</course><hAcc>0.879160</hAcc><vAcc>0.685037</vAcc></extensions></trkpt>
      <trkpt lon="-4.144144" lat="53.026470"><ele>287.389252</ele><time>2021-07-17T14:07:49Z</time><extensions><speed>0.054808</speed><course>297.007721</course><hAcc>0.879275</hAcc><vAcc>0.685355</vAcc></extensions></trkpt>
      <trkpt lon="-4.144144" lat="53.026471"><ele>287.382294</ele><time>2021-07-17T14:07:50Z</time><extensions><speed>0.047955</speed><course>291.539093</course><hAcc>0.879439</hAcc><vAcc>0.685851</vAcc></extensions></trkpt>
      <trkpt lon="-4.144143" lat="53.026471"><ele>287.376221</ele><time>2021-07-17T14:07:51Z</time><extensions><speed>0.040591</speed><course>293.314819</course><hAcc>0.879662</hAcc><vAcc>0.686546</vAcc></extensions></trkpt>
      <trkpt lon="-4.144142" lat="53.026471"><ele>287.371033</ele><time>2021-07-17T14:07:52Z</time><extensions><speed>0.033386</speed><course>297.043213</course><hAcc>0.879953</hAcc><vAcc>0.687461</vAcc></extensions></trkpt>
      <trkpt lon="-4.144142" lat="53.026471"><ele>287.366638</ele><time>2021-07-17T14:07:52Z</time><extensions><speed>0.026942</speed><course>301.573547</course><hAcc>0.880342</hAcc><vAcc>0.688626</vAcc></extensions></trkpt>
      <trkpt lon="-4.144142" lat="53.026471"><ele>287.362946</ele><time>2021-07-17T14:07:53Z</time><extensions><speed>0.021434</speed><course>305.542847</course><hAcc>0.880841</hAcc><vAcc>0.690055</vAcc></extensions></trkpt>
      <trkpt lon="-4.144141" lat="53.026471"><ele>287.359833</ele><time>2021-07-17T14:07:54Z</time><extensions><speed>0.016937</speed><course>304.461029</course><hAcc>0.881448</hAcc><vAcc>0.691751</vAcc></extensions></trkpt>
      <trkpt lon="-4.144141" lat="53.026471"><ele>287.357178</ele><time>2021-07-17T14:07:55Z</time><extensions><speed>0.013428</speed><course>304.519958</course><hAcc>0.882184</hAcc><vAcc>0.693740</vAcc></extensions></trkpt>
      <trkpt lon="-4.144141" lat="53.026471"><ele>287.354980</ele><time>2021-07-17T14:07:56Z</time><extensions><speed>0.010673</speed><course>306.835541</course><hAcc>0.883075</hAcc><vAcc>0.696047</vAcc></extensions></trkpt>
      <trkpt lon="-4.144141" lat="53.026471"><ele>287.353180</ele><time>2021-07-17T14:07:57Z</time><extensions><speed>0.008536</speed><course>312.924469</course><hAcc>0.884149</hAcc><vAcc>0.698680</vAcc></extensions></trkpt>
      <trkpt lon="-4.144141" lat="53.026471"><ele>287.351807</ele><time>2021-07-17T14:07:58Z</time><extensions><speed>0.006967</speed><course>313.121582</course><hAcc>0.885432</hAcc><vAcc>0.701612</vAcc></extensions></trkpt>
      <trkpt lon="-4.144141" lat="53.026471"><ele>287.350739</ele><time>2021-07-17T14:07:59Z</time><extensions><speed>0.005877</speed><course>312.363678</course><hAcc>0.886951</hAcc><vAcc>0.704791</vAcc></extensions></trkpt>
      <trkpt lon="-4.144141" lat="53.026471"><ele>287.350006</ele><time>2021-07-17T14:08:00Z</time><extensions><speed>0.005148</speed><course>309.905548</course><hAcc>0.888724</hAcc><vAcc>0.708154</vAcc></extensions></trkpt>
      <trkpt lon="-4.144141" lat="53.026471"><ele>287.349487</ele><time>2021-07-17T14:08:01Z</time><extensions><speed>0.004648</speed><course>308.597687</course><hAcc>0.890760</hAcc><vAcc>0.711623</vAcc></extensions></trkpt>
      <trkpt lon="-4.144141" lat="53.026471"><ele>287.349243</ele><time>2021-07-17T14:08:02Z</time><extensions><speed>0.004264</speed><course>307.103394</course><hAcc>0.893045</hAcc><vAcc>0.715115</vAcc></extensions></trkpt>
      <trkpt lon="-4.144141" lat="53.026472"><ele>287.349121</ele><time>2021-07-17T14:08:03Z</time><extensions><speed>0.003924</speed><course>306.897400</course><hAcc>0.895535</hAcc><vAcc>0.718528</vAcc></extensions></trkpt>
      <trkpt lon="-4.144141" lat="53.026472"><ele>287.349182</ele><time>2021-07-17T14:08:04Z</time><extensions><speed>0.003587</speed><course>302.152618</course><hAcc>0.898142</hAcc><vAcc>0.721743</vAcc></extensions></trkpt>
      <trkpt lon="-4.144141" lat="53.026472"><ele>287.349304</ele><time>2021-07-17T14:08:05Z</time><extensions><speed>0.003241</speed><course>297.726410</course><hAcc>0.900735</hAcc><vAcc>0.724623</vAcc></extensions></trkpt>
      <trkpt lon="-4.144141" lat="53.026472"><ele>287.349548</ele><time>2021-07-17T14:08:06Z</time><extensions><speed>0.002887</speed><course>300.194183</course><hAcc>0.903139</hAcc><vAcc>0.727030</vAcc></extensions></trkpt>
      <trkpt lon="-4.144141" lat="53.026472"><ele>287.349823</ele><time>2021-07-17T14:08:07Z</time><extensions><speed>0.002532</speed><course>297.151825</course><hAcc>0.905156</hAcc><vAcc>0.728859</vAcc></extensions></trkpt>
      <trkpt lon="-4.144141" lat="53.026472"><ele>287.350128</ele><time>2021-07-17T14:08:08Z</time><extensions><speed>0.002188</speed><course>298.399384</course><hAcc>0.906626</hAcc><vAcc>0.730099</vAcc></extensions></trkpt>
      <trkpt lon="-4.144141" lat="53.026472"><ele>287.350433</ele><time>2021-07-17T14:08:09Z</time><extensions><speed>0.001864</speed><course>300.837921</course><hAcc>0.907523</hAcc><vAcc>0.730932</vAcc></extensions></trkpt>
      <trkpt lon="-4.144141" lat="53.026472"><ele>287.350769</ele><time>2021-07-17T14:08:10Z</time><extensions><speed>0.001569</speed><course>299.844330</course><hAcc>0.908119</hAcc><vAcc>0.731875</vAcc></extensions></trkpt>
      <trkpt lon="-4.144141" lat="53.026472"><ele>287.351074</ele><time>2021-07-17T14:08:11Z</time><extensions><speed>0.001311</speed><course>300.001373</course><hAcc>0.909246</hAcc><vAcc>0.733975</vAcc></extensions></trkpt>
      <trkpt lon="-4.144141" lat="53.026472"><ele>287.351410</ele><time>2021-07-17T14:08:12Z</time><extensions><speed>0.001093</speed><course>294.568817</course><hAcc>0.912648</hAcc><vAcc>0.739040</vAcc></extensions></trkpt>
      <trkpt lon="-4.144141" lat="53.026472"><ele>287.351685</ele><time>2021-07-17T14:08:13Z</time><extensions><speed>0.000918</speed><course>300.687103</course><hAcc>0.921413</hAcc><vAcc>0.749869</vAcc></extensions></trkpt>
      <trkpt lon="-4.144141" lat="53.026472"><ele>287.351990</ele><time>2021-07-17T14:08:14Z</time><extensions><speed>0.000785</speed><course>297.691925</course><hAcc>0.940374</hAcc><vAcc>0.770368</vAcc></extensions></trkpt>
      <trkpt lon="-4.144141" lat="53.026472"><ele>287.352264</ele><time>2021-07-17T14:08:15Z</time><extensions><speed>0.000689</speed><course>293.928223</course><hAcc>0.976227</hAcc><vAcc>0.805398</vAcc></extensions></trkpt>
      <trkpt lon="-4.144141" lat="53.026472"><ele>287.352356</ele><time>2021-07-17T14:08:16Z</time><extensions><speed>0.000000</speed><course>207.637573</course><hAcc>0.938200</hAcc><vAcc>0.770157</vAcc></extensions></trkpt>
      <trkpt lon="-4.144141" lat="53.026472"><ele>287.352356</ele><time>2021-07-17T14:08:17Z</time><extensions><speed>0.000000</speed><course>199.781464</course><hAcc>0.919126</hAcc><vAcc>0.749878</vAcc></extensions></trkpt>
      <trkpt lon="-4.144141" lat="53.026472"><ele>287.352356</ele><time>2021-07-17T14:08:18Z</time><extensions><speed>0.000000</speed><course>204.898392</course><hAcc>0.911578</hAcc><vAcc>0.740358</vAcc></extensions></trkpt>
      <trkpt lon="-4.144141" lat="53.026472"><ele>287.352356</ele><time>2021-07-17T14:08:19Z</time><extensions><speed>0.000000</speed><course>218.988647</course><hAcc>0.910074</hAcc><vAcc>0.737254</vAcc></extensions></trkpt>
      <trkpt lon="-4.144141" lat="53.026472"><ele>287.352356</ele><time>2021-07-17T14:08:20Z</time><extensions><speed>0.000000</speed><course>240.875916</course><hAcc>0.911133</hAcc><vAcc>0.737468</vAcc></extensions></trkpt>
      <trkpt lon="-4.144141" lat="53.026472"><ele>287.352356</ele><time>2021-07-17T14:08:21Z</time><extensions><speed>0.000000</speed><course>240.875916</course><hAcc>0.912825</hAcc><vAcc>0.739014</vAcc></extensions></trkpt>
      <trkpt lon="-4.144141" lat="53.026472"><ele>287.352356</ele><time>2021-07-17T14:08:22Z</time><extensions><speed>0.000000</speed><course>240.875916</course><hAcc>0.914260</hAcc><vAcc>0.740757</vAcc></extensions></trkpt>
      <trkpt lon="-4.144141" lat="53.026472"><ele>287.352356</ele><time>2021-07-17T14:08:23Z</time><extensions><speed>0.000000</speed><course>240.875916</course><hAcc>0.915162</hAcc><vAcc>0.742134</vAcc></extensions></trkpt>
      <trkpt lon="-4.144141" lat="53.026472"><ele>287.352356</ele><time>2021-07-17T14:08:24Z</time><extensions><speed>0.000000</speed><course>240.875916</course><hAcc>0.915568</hAcc><vAcc>0.742929</vAcc></extensions></trkpt>
      <trkpt lon="-4.144141" lat="53.026472"><ele>287.352356</ele><time>2021-07-17T14:08:25Z</time><extensions><speed>0.000000</speed><course>240.875916</course><hAcc>0.915619</hAcc><vAcc>0.743104</vAcc></extensions></trkpt>
      <trkpt lon="-4.144141" lat="53.026472"><ele>287.352356</ele><time>2021-07-17T14:08:26Z</time><extensions><speed>0.000000</speed><course>269.430084</course><hAcc>0.915438</hAcc><vAcc>0.742695</vAcc></extensions></trkpt>
      <trkpt lon="-4.144141" lat="53.026472"><ele>287.352356</ele><time>2021-07-17T14:08:27Z</time><extensions><speed>0.000000</speed><course>274.056000</course><hAcc>0.915072</hAcc><vAcc>0.741752</vAcc></extensions></trkpt>
      <trkpt lon="-4.144141" lat="53.026472"><ele>287.352356</ele><time>2021-07-17T14:08:28Z</time><extensions><speed>0.000000</speed><course>273.580658</course><hAcc>0.914490</hAcc><vAcc>0.740333</vAcc></extensions></trkpt>
      <trkpt lon="-4.144141" lat="53.026472"><ele>287.352356</ele><time>2021-07-17T14:08:29Z</time><extensions><speed>0.000000</speed><course>266.285736</course><hAcc>0.913630</hAcc><vAcc>0.738546</vAcc></extensions></trkpt>
      <trkpt lon="-4.144141" lat="53.026472"><ele>287.352356</ele><time>2021-07-17T14:08:30Z</time><extensions><speed>0.000000</speed><course>280.416809</course><hAcc>0.912507</hAcc><vAcc>0.736637</vAcc></extensions></trkpt>
      <trkpt lon="-4.144141" lat="53.026472"><ele>287.352356</ele><time>2021-07-17T14:08:31Z</time><extensions><speed>0.000000</speed><course>289.633057</course><hAcc>0.911396</hAcc><vAcc>0.735143</vAcc></extensions></trkpt>
      <trkpt lon="-4.144141" lat="53.026472"><ele>287.352356</ele><time>2021-07-17T14:08:32Z</time><extensions><speed>0.000000</speed><course>274.042023</course><hAcc>0.911102</hAcc><vAcc>0.735099</vAcc></extensions></trkpt>
      <trkpt lon="-4.144141" lat="53.026472"><ele>287.352356</ele><time>2021-07-17T14:08:33Z</time><extensions><speed>0.000000</speed><course>259.398621</course><hAcc>0.913328</hAcc><vAcc>0.738282</vAcc></extensions></trkpt>
      <trkpt lon="-4.144141" lat="53.026472"><ele>287.352356</ele><time>2021-07-17T14:08:34Z</time><extensions><speed>0.000000</speed><course>235.228027</course><hAcc>0.921121</hAcc><vAcc>0.747450</vAcc></extensions></trkpt>
      <trkpt lon="-4.144141" lat="53.026472"><ele>287.352356</ele><time>2021-07-17T14:08:35Z</time><extensions><speed>0.000000</speed><course>233.943741</course><hAcc>0.939283</hAcc><vAcc>0.766474</vAcc></extensions></trkpt>
      <trkpt lon="-4.144141" lat="53.026472"><ele>287.352356</ele><time>2021-07-17T14:08:37Z</time><extensions><speed>0.000000</speed><course>251.986771</course><hAcc>0.974531</hAcc><vAcc>0.800231</vAcc></extensions></trkpt>
      <trkpt lon="-4.144141" lat="53.026472"><ele>287.352356</ele><time>2021-07-17T14:08:38Z</time><extensions><speed>0.000000</speed><course>207.637573</course><hAcc>0.936325</hAcc><vAcc>0.764780</vAcc></extensions></trkpt>
      <trkpt lon="-4.144141" lat="53.026472"><ele>287.352356</ele><time>2021-07-17T14:08:39Z</time><extensions><speed>0.000000</speed><course>199.781464</course><hAcc>0.917466</hAcc><vAcc>0.744901</vAcc></extensions></trkpt>
      <trkpt lon="-4.144141" lat="53.026472"><ele>287.352356</ele><time>2021-07-17T14:08:40Z</time><extensions><speed>0.000000</speed><course>204.898392</course><hAcc>0.910107</hAcc><vAcc>0.735723</vAcc></extensions></trkpt>
      <trkpt lon="-4.144141" lat="53.026472"><ele>287.352356</ele><time>2021-07-17T14:08:41Z</time><extensions><speed>0.000000</speed><course>218.988647</course><hAcc>0.908764</hAcc><vAcc>0.732931</vAcc></extensions></trkpt>
      <trkpt lon="-4.144141" lat="53.026472"><ele>287.352356</ele><time>2021-07-17T14:08:42Z</time><extensions><speed>0.000000</speed><course>240.875916</course><hAcc>0.909964</hAcc><vAcc>0.733459</vAcc></extensions></trkpt>
      <trkpt lon="-4.144141" lat="53.026472"><ele>287.352356</ele><time>2021-07-17T14:08:43Z</time><extensions><speed>0.000000</speed><course>240.875916</course><hAcc>0.911785</hAcc><vAcc>0.735354</vAcc></extensions></trkpt>
      <trkpt lon="-4.144141" lat="53.026472"><ele>287.352356</ele><time>2021-07-17T14:08:44Z</time><extensions><speed>0.000000</speed><course>240.875916</course><hAcc>0.913345</hAcc><vAcc>0.737503</vAcc></extensions></trkpt>
      <trkpt lon="-4.144141" lat="53.026472"><ele>287.352356</ele><time>2021-07-17T14:08:45Z</time><extensions><speed>0.000000</speed><course>240.875916</course><hAcc>0.914377</hAcc><vAcc>0.739356</vAcc></extensions></trkpt>
      <trkpt lon="-4.144141" lat="53.026472"><ele>287.352356</ele><time>2021-07-17T14:08:46Z</time><extensions><speed>0.000000</speed><course>240.875916</course><hAcc>0.914921</hAcc><vAcc>0.740693</vAcc></extensions></trkpt>
      <trkpt lon="-4.144141" lat="53.026472"><ele>287.352356</ele><time>2021-07-17T14:08:47Z</time><extensions><speed>0.000000</speed><course>240.875916</course><hAcc>0.915117</hAcc><vAcc>0.741460</vAcc></extensions></trkpt>
      <trkpt lon="-4.144141" lat="53.026472"><ele>287.352356</ele><time>2021-07-17T14:08:48Z</time><extensions><speed>0.000000</speed><course>269.430084</course><hAcc>0.915085</hAcc><vAcc>0.741659</vAcc></extensions></trkpt>
      <trkpt lon="-4.144141" lat="53.026472"><ele>287.352356</ele><time>2021-07-17T14:08:49Z</time><extensions><speed>0.000000</speed><course>274.056000</course><hAcc>0.914866</hAcc><vAcc>0.741304</vAcc></extensions></trkpt>
      <trkpt lon="-4.144141" lat="53.026472"><ele>287.352356</ele><time>2021-07-17T14:08:50Z</time><extensions><speed>0.000000</speed><course>273.580658</course><hAcc>0.914421</hAcc><vAcc>0.740418</vAcc></extensions></trkpt>
      <trkpt lon="-4.144141" lat="53.026472"><ele>287.352356</ele><time>2021-07-17T14:08:51Z</time><extensions><speed>0.000000</speed><course>266.285736</course><hAcc>0.913682</hAcc><vAcc>0.739081</vAcc></extensions></trkpt>
      <trkpt lon="-4.144141" lat="53.026472"><ele>287.352356</ele><time>2021-07-17T14:08:52Z</time><extensions><speed>0.000000</speed><course>280.416809</course><hAcc>0.912657</hAcc><vAcc>0.737521</vAcc></extensions></trkpt>
      <trkpt lon="-4.144141" lat="53.026472"><ele>287.352356</ele><time>2021-07-17T14:08:53Z</time><extensions><speed>0.000000</speed><course>289.633057</course><hAcc>0.911617</hAcc><vAcc>0.736266</vAcc></extensions></trkpt>
      <trkpt lon="-4.144141" lat="53.026472"><ele>287.352356</ele><time>2021-07-17T14:08:54Z</time><extensions><speed>0.000000</speed><course>274.042023</course><hAcc>0.911361</hAcc><vAcc>0.736339</vAcc></extensions></trkpt>
      <trkpt lon="-4.144141" lat="53.026472"><ele>287.352356</ele><time>2021-07-17T14:08:55Z</time><extensions><speed>0.000000</speed><course>259.398621</course><hAcc>0.913590</hAcc><vAcc>0.739507</vAcc></extensions></trkpt>
      <trkpt lon="-4.144141" lat="53.026472"><ele>287.352356</ele><time>2021-07-17T14:08:56Z</time><extensions><speed>0.000000</speed><course>235.228027</course><hAcc>0.921351</hAcc><vAcc>0.748523</vAcc></extensions></trkpt>
      <trkpt lon="-4.144141" lat="53.026472"><ele>287.352356</ele><time>2021-07-17T14:08:57Z</time><extensions><speed>0.000000</speed><course>233.943741</course><hAcc>0.939451</hAcc><vAcc>0.767264</vAcc></extensions></trkpt>
      <trkpt lon="-4.144141" lat="53.026472"><ele>287.352356</ele><time>2021-07-17T14:08:58Z</time><extensions><speed>0.000000</speed><course>251.986771</course><hAcc>0.974578</hAcc><vAcc>0.800599</vAcc></extensions></trkpt>
      <trkpt lon="-4.144141" lat="53.026472"><ele>287.352356</ele><time>2021-07-17T14:08:59Z</time><extensions><speed>0.000000</speed><course>207.637573</course><hAcc>0.936779</hAcc><vAcc>0.765909</vAcc></extensions></trkpt>
      <trkpt lon="-4.144141" lat="53.026472"><ele>287.352356</ele><time>2021-07-17T14:09:00Z</time><extensions><speed>0.000000</speed><course>199.781464</course><hAcc>0.917723</hAcc><vAcc>0.745448</vAcc></extensions></trkpt>
      <trkpt lon="-4.144141" lat="53.026472"><ele>287.352356</ele><time>2021-07-17T14:09:01Z</time><extensions><speed>0.000000</speed><course>204.898392</course><hAcc>0.910204</hAcc><vAcc>0.735820</vAcc></extensions></trkpt>
      <trkpt lon="-4.144141" lat="53.026472"><ele>287.352356</ele><time>2021-07-17T14:09:02Z</time><extensions><speed>0.000000</speed><course>218.988647</course><hAcc>0.908738</hAcc><vAcc>0.732705</vAcc></extensions></trkpt>
      <trkpt lon="-4.144141" lat="53.026472"><ele>287.352356</ele><time>2021-07-17T14:09:03Z</time><extensions><speed>0.000000</speed><course>240.875916</course><hAcc>0.909845</hAcc><vAcc>0.733011</vAcc></extensions></trkpt>
      <trkpt lon="-4.144141" lat="53.026472"><ele>287.352356</ele><time>2021-07-17T14:09:04Z</time><extensions><speed>0.000000</speed><course>240.875916</course><hAcc>0.911595</hAcc><vAcc>0.734752</vAcc></extensions></trkpt>
      <trkpt lon="-4.144141" lat="53.026472"><ele>287.352356</ele><time>2021-07-17T14:09:05Z</time><extensions><speed>0.000000</speed><course>240.875916</course><hAcc>0.913102</hAcc><vAcc>0.736789</vAcc></extensions></trkpt>
      <trkpt lon="-4.144141" lat="53.026472"><ele>287.352356</ele><time>2021-07-17T14:09:06Z</time><extensions><speed>0.000000</speed><course>240.875916</course><hAcc>0.914093</hAcc><vAcc>0.738545</vAcc></extensions></trkpt>
      <trkpt lon="-4.144141" lat="53.026472"><ele>287.352356</ele><time>2021-07-17T14:09:07Z</time><extensions><speed>0.000000</speed><course>240.875916</course><hAcc>0.914604</hAcc><vAcc>0.739786</vAcc></extensions></trkpt>
      <trkpt lon="-4.144141" lat="53.026472"><ele>287.352356</ele><time>2021-07-17T14:09:08Z</time><extensions><speed>0.000000</speed><course>240.875916</course><hAcc>0.914774</hAcc><vAcc>0.740451</vAcc></extensions></trkpt>
      <trkpt lon="-4.144141" lat="53.026472"><ele>287.352356</ele><time>2021-07-17T14:09:09Z</time><extensions><speed>0.000000</speed><course>269.430084</course><hAcc>0.914721</hAcc><vAcc>0.740548</vAcc></extensions></trkpt>
      <trkpt lon="-4.144141" lat="53.026472"><ele>287.352356</ele><time>2021-07-17T14:09:10Z</time><extensions><speed>0.000000</speed><course>274.056000</course><hAcc>0.914489</hAcc><vAcc>0.740102</vAcc></extensions></trkpt>
      <trkpt lon="-4.144141" lat="53.026472"><ele>287.352356</ele><time>2021-07-17T14:09:11Z</time><extensions><speed>0.000000</speed><course>273.580658</course><hAcc>0.914040</hAcc><vAcc>0.739149</vAcc></extensions></trkpt>
      <trkpt lon="-4.144141" lat="53.026472"><ele>287.352356</ele><time>2021-07-17T14:09:12Z</time><extensions><speed>0.000000</speed><course>266.285736</course><hAcc>0.913308</hAcc><vAcc>0.737782</vAcc></extensions></trkpt>
      <trkpt lon="-4.144141" lat="53.026472"><ele>287.352356</ele><time>2021-07-17T14:09:13Z</time><extensions><speed>0.000000</speed><course>280.416809</course><hAcc>0.912304</hAcc><vAcc>0.736243</vAcc></extensions></trkpt>
      <trkpt lon="-4.144141" lat="53.026472"><ele>287.352356</ele><time>2021-07-17T14:09:14Z</time><extensions><speed>0.000000</speed><course>289.633057</course><hAcc>0.911301</hAcc><vAcc>0.735073</vAcc></extensions></trkpt>
      <trkpt lon="-4.144141" lat="53.026472"><ele>287.352356</ele><time>2021-07-17T14:09:15Z</time><extensions><speed>0.000000</speed><course>274.042023</course><hAcc>0.911101</hAcc><vAcc>0.735308</vAcc></extensions></trkpt>
      <trkpt lon="-4.144141" lat="53.026472"><ele>287.352356</ele><time>2021-07-17T14:09:16Z</time><extensions><speed>0.000000</speed><course>259.398621</course><hAcc>0.913407</hAcc><vAcc>0.738723</vAcc></extensions></trkpt>
      <trkpt lon="-4.144141" lat="53.026472"><ele>287.352356</ele><time>2021-07-17T14:09:17Z</time><extensions><speed>0.000000</speed><course>235.228027</course><hAcc>0.921266</hAcc><vAcc>0.748070</vAcc></extensions></trkpt>
      <trkpt lon="-4.144141" lat="53.026472"><ele>287.352356</ele><time>2021-07-17T14:09:18Z</time><extensions><speed>0.000000</speed><course>233.943741</course><hAcc>0.939482</hAcc><vAcc>0.767215</vAcc></extensions></trkpt>
      <trkpt lon="-4.144141" lat="53.026472"><ele>287.352356</ele><time>2021-07-17T14:09:19Z</time><extensions><speed>0.000000</speed><course>251.986771</course><hAcc>0.974738</hAcc><vAcc>0.801000</vAcc></extensions></trkpt>
      <trkpt lon="-4.144141" lat="53.026472"><ele>287.352356</ele><time>2021-07-17T14:09:20Z</time><extensions><speed>0.000000</speed><course>207.637573</course><hAcc>0.936698</hAcc><vAcc>0.765859</vAcc></extensions></trkpt>
      <trkpt lon="-4.144141" lat="53.026472"><ele>287.352356</ele><time>2021-07-17T14:09:21Z</time><extensions><speed>0.000000</speed><course>199.781464</course><hAcc>0.917747</hAcc><vAcc>0.745739</vAcc></extensions></trkpt>
      <trkpt lon="-4.144141" lat="53.026472"><ele>287.352356</ele><time>2021-07-17T14:09:22Z</time><extensions><speed>0.000000</speed><course>204.898392</course><hAcc>0.910309</hAcc><vAcc>0.736346</vAcc></extensions></trkpt>
      <trkpt lon="-4.144141" lat="53.026472"><ele>287.352356</ele><time>2021-07-17T14:09:23Z</time><extensions><speed>0.000000</speed><course>218.988647</course><hAcc>0.908902</hAcc><vAcc>0.733369</vAcc></extensions></trkpt>
      <trkpt lon="-4.144141" lat="53.026472"><ele>287.352356</ele><time>2021-07-17T14:09:24Z</time><extensions><speed>0.000000</speed><course>240.875916</course><hAcc>0.910047</hAcc><vAcc>0.733740</vAcc></extensions></trkpt>
      <trkpt lon="-4.144141" lat="53.026472"><ele>287.352356</ele><time>2021-07-17T14:09:25Z</time><extensions><speed>0.000000</speed><course>240.875916</course><hAcc>0.911819</hAcc><vAcc>0.735500</vAcc></extensions></trkpt>
      <trkpt lon="-4.144141" lat="53.026472"><ele>287.352356</ele><time>2021-07-17T14:09:26Z</time><extensions><speed>0.000000</speed><course>240.875916</course><hAcc>0.913336</hAcc><vAcc>0.737526</vAcc></extensions></trkpt>
      <trkpt lon="-4.144141" lat="53.026472"><ele>287.352356</ele><time>2021-07-17T14:09:27Z</time><extensions><speed>0.000000</speed><course>240.875916</course><hAcc>0.914328</hAcc><vAcc>0.739256</vAcc></extensions></trkpt>
      <trkpt lon="-4.144141" lat="53.026472"><ele>287.352356</ele><time>2021-07-17T14:09:28Z</time><extensions><speed>0.000000</speed><course>240.875916</course><hAcc>0.914835</hAcc><vAcc>0.740463</vAcc></extensions></trkpt>
      <trkpt lon="-4.144141" lat="53.026472"><ele>287.352356</ele><time>2021-07-17T14:09:29Z</time><extensions><speed>0.000000</speed><course>240.875916</course><hAcc>0.914998</hAcc><vAcc>0.741091</vAcc></extensions></trkpt>
      <trkpt lon="-4.144141" lat="53.026472"><ele>287.352356</ele><time>2021-07-17T14:09:30Z</time><extensions><speed>0.000000</speed><course>269.430084</course><hAcc>0.914937</hAcc><vAcc>0.741157</vAcc></extensions></trkpt>
      <trkpt lon="-4.144141" lat="53.026472"><ele>287.352356</ele><time>2021-07-17T14:09:31Z</time><extensions><speed>0.000000</speed><course>274.056000</course><hAcc>0.914698</hAcc><vAcc>0.740693</vAcc></extensions></trkpt>
      <trkpt lon="-4.144141" lat="53.026472"><ele>287.352356</ele><time>2021-07-17T14:09:32Z</time><extensions><speed>0.000000</speed><course>273.580658</course><hAcc>0.914244</hAcc><vAcc>0.739743</vAcc></extensions></trkpt>
      <trkpt lon="-4.144141" lat="53.026472"><ele>287.352356</ele><time>2021-07-17T14:09:33Z</time><extensions><speed>0.000000</speed><course>266.285736</course><hAcc>0.913510</hAcc><vAcc>0.738402</vAcc></extensions></trkpt>
      <trkpt lon="-4.144141" lat="53.026472"><ele>287.352356</ele><time>2021-07-17T14:09:34Z</time><extensions><speed>0.000000</speed><course>280.416809</course><hAcc>0.912510</hAcc><vAcc>0.736909</vAcc></extensions></trkpt>
      <trkpt lon="-4.144141" lat="53.026472"><ele>287.352356</ele><time>2021-07-17T14:09:35Z</time><extensions><speed>0.000000</speed><course>289.633057</course><hAcc>0.911517</hAcc><vAcc>0.735795</vAcc></extensions></trkpt>
      <trkpt lon="-4.144141" lat="53.026472"><ele>287.352356</ele><time>2021-07-17T14:09:36Z</time><extensions><speed>0.000000</speed><course>274.042023</course><hAcc>0.911339</hAcc><vAcc>0.736092</vAcc></extensions></trkpt>
      <trkpt lon="-4.144141" lat="53.026472"><ele>287.352356</ele><time>2021-07-17T14:09:37Z</time><extensions><speed>0.000000</speed><course>259.398621</course><hAcc>0.913680</hAcc><vAcc>0.739577</vAcc></extensions></trkpt>
      <trkpt lon="-4.144141" lat="53.026472"><ele>287.352356</ele><time>2021-07-17T14:09:38Z</time><extensions><speed>0.000000</speed><course>235.228027</course><hAcc>0.921593</hAcc><vAcc>0.749016</vAcc></extensions></trkpt>
      <trkpt lon="-4.144141" lat="53.026472"><ele>287.352356</ele><time>2021-07-17T14:09:39Z</time><extensions><speed>0.000000</speed><course>233.943741</course><hAcc>0.939881</hAcc><vAcc>0.768295</vAcc></extensions></trkpt>
      <trkpt lon="-4.144141" lat="53.026472"><ele>287.352356</ele><time>2021-07-17T14:09:40Z</time><extensions><speed>0.000000</speed><course>251.986771</course><hAcc>0.975225</hAcc><vAcc>0.802274</vAcc></extensions></trkpt>
      <trkpt lon="-4.144141" lat="53.026472"><ele>287.352356</ele><time>2021-07-17T14:09:41Z</time><extensions><speed>0.000000</speed><course>207.637573</course><hAcc>0.937314</hAcc><vAcc>0.767455</vAcc></extensions></trkpt>
      <trkpt lon="-4.144141" lat="53.026472"><ele>287.352356</ele><time>2021-07-17T14:09:42Z</time><extensions><speed>0.000000</speed><course>199.781464</course><hAcc>0.918356</hAcc><vAcc>0.747380</vAcc></extensions></trkpt>
      <trkpt lon="-4.144141" lat="53.026472"><ele>287.352356</ele><time>2021-07-17T14:09:43Z</time><extensions><speed>0.000000</speed><course>204.898392</course><hAcc>0.910937</hAcc><vAcc>0.738135</vAcc></extensions></trkpt>
      <trkpt lon="-4.144141" lat="53.026472"><ele>287.352356</ele><time>2021-07-17T14:09:44Z</time><extensions><speed>0.000000</speed><course>218.988647</course><hAcc>0.909569</hAcc><vAcc>0.735378</vAcc></extensions></trkpt>
      <trkpt lon="-4.144141" lat="53.026472"><ele>287.352356</ele><time>2021-07-17T14:09:45Z</time><extensions><speed>0.000000</speed><course>240.875916</course><hAcc>0.910768</hAcc><vAcc>0.736001</vAcc></extensions></trkpt>
      <trkpt lon="-4.144141" lat="53.026472"><ele>287.352356</ele><time>2021-07-17T14:09:46Z</time><extensions><speed>0.000000</speed><course>240.875916</course><hAcc>0.912604</hAcc><vAcc>0.738010</vAcc></extensions></trkpt>
      <trkpt lon="-4.144141" lat="53.026472"><ele>287.352356</ele><time>2021-07-17T14:09:47Z</time><extensions><speed>0.000000</speed><course>240.875916</course><hAcc>0.914185</hAcc><vAcc>0.740260</vAcc></extensions></trkpt>
      <trkpt lon="-4.144141" lat="53.026472"><ele>287.352356</ele><time>2021-07-17T14:09:48Z</time><extensions><speed>0.000000</speed><course>240.875916</course><hAcc>0.915237</hAcc><vAcc>0.742173</vAcc></extensions></trkpt>
      <trkpt lon="-4.144141" lat="53.026472"><ele>287.352356</ele><time>2021-07-17T14:09:49Z</time><extensions><speed>0.000000</speed><course>240.875916</course><hAcc>0.915793</hAcc><vAcc>0.743517</vAcc></extensions></trkpt>
      <trkpt lon="-4.144141" lat="53.026472"><ele>287.352356</ele><time>2021-07-17T14:09:50Z</time><extensions><speed>0.000000</speed><course>240.875916</course><hAcc>0.915992</hAcc><vAcc>0.744242</vAcc></extensions></trkpt>
      <trkpt lon="-4.144141" lat="53.026472"><ele>287.352356</ele><time>2021-07-17T14:09:51Z</time><extensions><speed>0.000000</speed><course>269.430084</course><hAcc>0.915953</hAcc><vAcc>0.744366</vAcc></extensions></trkpt>
      <trkpt lon="-4.144141" lat="53.026472"><ele>287.352356</ele><time>2021-07-17T14:09:52Z</time><extensions><speed>0.000000</speed><course>274.056000</course><hAcc>0.915723</hAcc><vAcc>0.743926</vAcc></extensions></trkpt>
      <trkpt lon="-4.144141" lat="53.026472"><ele>287.352356</ele><time>2021-07-17T14:09:53Z</time><extensions><speed>0.000000</speed><course>273.580658</course><hAcc>0.915270</hAcc><vAcc>0.742973</vAcc></extensions></trkpt>
      <trkpt lon="-4.144141" lat="53.026472"><ele>287.352356</ele><time>2021-07-17T14:09:54Z</time><extensions><speed>0.000000</speed><course>266.285736</course><hAcc>0.914536</hAcc><vAcc>0.741616</vAcc></extensions></trkpt>
      <trkpt lon="-4.144141" lat="53.026472"><ele>287.352356</ele><time>2021-07-17T14:09:55Z</time><extensions><speed>0.000000</speed><course>280.416809</course><hAcc>0.913543</hAcc><vAcc>0.740118</vAcc></extensions></trkpt>
      <trkpt lon="-4.144141" lat="53.026472"><ele>287.352356</ele><time>2021-07-17T14:09:56Z</time><extensions><speed>0.000000</speed><course>289.633057</course><hAcc>0.912578</hAcc><vAcc>0.739040</vAcc></extensions></trkpt>
      <trkpt lon="-4.144141" lat="53.026472"><ele>287.352356</ele><time>2021-07-17T14:09:57Z</time><extensions><speed>0.000000</speed><course>274.042023</course><hAcc>0.912458</hAcc><vAcc>0.739448</vAcc></extensions></trkpt>
      <trkpt lon="-4.144141" lat="53.026472"><ele>287.352356</ele><time>2021-07-17T14:09:58Z</time><extensions><speed>0.000000</speed><course>259.398621</course><hAcc>0.914900</hAcc><vAcc>0.743151</vAcc></extensions></trkpt>
      <trkpt lon="-4.144141" lat="53.026472"><ele>287.352356</ele><time>2021-07-17T14:09:59Z</time><extensions><speed>0.000000</speed><course>235.228027</course><hAcc>0.922963</hAcc><vAcc>0.752942</vAcc></extensions></trkpt>
      <trkpt lon="-4.144141" lat="53.026472"><ele>287.352356</ele><time>2021-07-17T14:10:00Z</time><extensions><speed>0.000000</speed><course>233.943741</course><hAcc>0.941450</hAcc><vAcc>0.772714</vAcc></extensions></trkpt>
      <trkpt lon="-4.144141" lat="53.026472"><ele>287.352356</ele><time>2021-07-17T14:10:00Z</time><extensions><speed>0.000000</speed><course>251.986771</course><hAcc>0.976997</hAcc><vAcc>0.807269</vAcc></extensions></trkpt>
      <trkpt lon="-4.144141" lat="53.026472"><ele>287.352356</ele><time>2021-07-17T14:10:01Z</time><extensions><speed>0.000000</speed><course>207.637573</course><hAcc>0.938654</hAcc><vAcc>0.771451</vAcc></extensions></trkpt>
      <trkpt lon="-4.144141" lat="53.026472"><ele>287.352356</ele><time>2021-07-17T14:10:02Z</time><extensions><speed>0.000000</speed><course>199.781464</course><hAcc>0.919541</hAcc><vAcc>0.751081</vAcc></extensions></trkpt>
      <trkpt lon="-4.144141" lat="53.026472"><ele>287.352356</ele><time>2021-07-17T14:10:03Z</time><extensions><speed>0.000000</speed><course>204.898392</course><hAcc>0.911980</hAcc><vAcc>0.741530</vAcc></extensions></trkpt>
      <trkpt lon="-4.144141" lat="53.026472"><ele>287.352356</ele><time>2021-07-17T14:10:04Z</time><extensions><speed>0.000000</speed><course>218.988647</course><hAcc>0.910489</hAcc><vAcc>0.738459</vAcc></extensions></trkpt>
      <trkpt lon="-4.144141" lat="53.026472"><ele>287.352356</ele><time>2021-07-17T14:10:05Z</time><extensions><speed>0.000000</speed><course>240.875916</course><hAcc>0.911583</hAcc><vAcc>0.738763</vAcc></extensions></trkpt>
      <trkpt lon="-4.144141" lat="53.026472"><ele>287.352356</ele><time>2021-07-17T14:10:06Z</time><extensions><speed>0.000000</speed><course>240.875916</course><hAcc>0.913329</hAcc><vAcc>0.740452</vAcc></extensions></trkpt>
      <trkpt lon="-4.144141" lat="53.026472"><ele>287.352356</ele><time>2021-07-17T14:10:07Z</time><extensions><speed>0.000000</speed><course>240.875916</course><hAcc>0.914830</hAcc><vAcc>0.742382</vAcc></extensions></trkpt>
      <trkpt lon="-4.144141" lat="53.026472"><ele>287.352356</ele><time>2021-07-17T14:10:08Z</time><extensions><speed>0.000000</speed><course>240.875916</course><hAcc>0.915808</hAcc><vAcc>0.743987</vAcc></extensions></trkpt>
      <trkpt lon="-4.144141" lat="53.026472"><ele>287.352356</ele><time>2021-07-17T14:10:09Z</time><extensions><speed>0.000000</speed><course>240.875916</course><hAcc>0.916295</hAcc><vAcc>0.745044</vAcc></extensions></trkpt>
      <trkpt lon="-4.144141" lat="53.026472"><ele>287.352356</ele><time>2021-07-17T14:10:10Z</time><extensions><speed>0.000000</speed><course>240.875916</course><hAcc>0.916424</hAcc><vAcc>0.745508</vAcc></extensions></trkpt>
      <trkpt lon="-4.144141" lat="53.026472"><ele>287.352356</ele><time>2021-07-17T14:10:11Z</time><extensions><speed>0.000000</speed><course>269.430084</course><hAcc>0.916315</hAcc><vAcc>0.745398</vAcc></extensions></trkpt>
      <trkpt lon="-4.144141" lat="53.026472"><ele>287.352356</ele><time>2021-07-17T14:10:12Z</time><extensions><speed>0.000000</speed><course>274.056000</course><hAcc>0.916010</hAcc><vAcc>0.744736</vAcc></extensions></trkpt>
      <trkpt lon="-4.144141" lat="53.026472"><ele>287.352356</ele><time>2021-07-17T14:10:13Z</time><extensions><speed>0.000000</speed><course>273.580658</course><hAcc>0.915475</hAcc><vAcc>0.743556</vAcc></extensions></trkpt>
      <trkpt lon="-4.144141" lat="53.026472"><ele>287.352356</ele><time>2021-07-17T14:10:14Z</time><extensions><speed>0.000000</speed><course>266.285736</course><hAcc>0.914646</hAcc><vAcc>0.741942</vAcc></extensions></trkpt>
      <trkpt lon="-4.144141" lat="53.026472"><ele>287.352356</ele><time>2021-07-17T14:10:15Z</time><extensions><speed>0.000000</speed><course>280.416809</course><hAcc>0.913537</hAcc><vAcc>0.740129</vAcc></extensions></trkpt>
      <trkpt lon="-4.144141" lat="53.026472"><ele>287.352356</ele><time>2021-07-17T14:10:16Z</time><extensions><speed>0.000000</speed><course>289.633057</course><hAcc>0.912425</hAcc><vAcc>0.738650</vAcc></extensions></trkpt>
      <trkpt lon="-4.144141" lat="53.026472"><ele>287.352356</ele><time>2021-07-17T14:10:17Z</time><extensions><speed>0.000000</speed><course>274.042023</course><hAcc>0.912115</hAcc><vAcc>0.738536</vAcc></extensions></trkpt>
      <trkpt lon="-4.144141" lat="53.026472"><ele>287.352356</ele><time>2021-07-17T14:10:18Z</time><extensions><speed>0.000000</speed><course>259.398621</course><hAcc>0.914310</hAcc><vAcc>0.741565</vAcc></extensions></trkpt>
      <trkpt lon="-4.144141" lat="53.026472"><ele>287.352356</ele><time>2021-07-17T14:10:19Z</time><extensions><speed>0.000000</speed><course>235.228027</course><hAcc>0.922061</hAcc><vAcc>0.750502</vAcc></extensions></trkpt>
      <trkpt lon="-4.144141" lat="53.026472"><ele>287.352356</ele><time>2021-07-17T14:10:20Z</time><extensions><speed>0.000000</speed><course>233.943741</course><hAcc>0.940171</hAcc><vAcc>0.769233</vAcc></extensions></trkpt>
      <trkpt lon="-4.144141" lat="53.026472"><ele>287.352356</ele><time>2021-07-17T14:10:21Z</time><extensions><speed>0.000000</speed><course>251.986771</course><hAcc>0.975323</hAcc><vAcc>0.802626</vAcc></extensions></trkpt>
      <trkpt lon="-4.144141" lat="53.026472"><ele>287.352356</ele><time>2021-07-17T14:10:22Z</time><extensions><speed>0.000000</speed><course>207.637573</course><hAcc>0.937432</hAcc><vAcc>0.767656</vAcc></extensions></trkpt>
      <trkpt lon="-4.144141" lat="53.026472"><ele>287.352356</ele><time>2021-07-17T14:10:23Z</time><extensions><speed>0.000000</speed><course>199.781464</course><hAcc>0.918257</hAcc><vAcc>0.746893</vAcc></extensions></trkpt>
      <trkpt lon="-4.144141" lat="53.026472"><ele>287.352356</ele><time>2021-07-17T14:10:25Z</time><extensions><speed>0.000000</speed><course>204.898392</course><hAcc>0.910613</hAcc><vAcc>0.736969</vAcc></extensions></trkpt>
      <trkpt lon="-4.144141" lat="53.026472"><ele>287.352356</ele><time>2021-07-17T14:10:26Z</time><extensions><speed>0.000000</speed><course>218.988647</course><hAcc>0.909028</hAcc><vAcc>0.733574</vAcc></extensions></trkpt>
      <trkpt lon="-4.144141" lat="53.026472"><ele>287.352356</ele><time>2021-07-17T14:10:27Z</time><extensions><speed>0.000000</speed><course>240.875916</course><hAcc>0.910027</hAcc><vAcc>0.733607</vAcc></extensions></trkpt>
      <trkpt lon="-4.144141" lat="53.026472"><ele>287.352356</ele><time>2021-07-17T14:10:28Z</time><extensions><speed>0.000000</speed><course>240.875916</course><hAcc>0.911681</hAcc><vAcc>0.735077</vAcc></extensions></trkpt>
      <trkpt lon="-4.144141" lat="53.026472"><ele>287.352356</ele><time>2021-07-17T14:10:29Z</time><extensions><speed>0.000000</speed><course>240.875916</course><hAcc>0.913100</hAcc><vAcc>0.736840</vAcc></extensions></trkpt>
      <trkpt lon="-4.144141" lat="53.026472"><ele>287.352356</ele><time>2021-07-17T14:10:30Z</time><extensions><speed>0.000000</speed><course>240.875916</course><hAcc>0.914011</hAcc><vAcc>0.738322</vAcc></extensions></trkpt>
      <trkpt lon="-4.144141" lat="53.026472"><ele>287.352356</ele><time>2021-07-17T14:10:31Z</time><extensions><speed>0.000000</speed><course>240.875916</course><hAcc>0.914448</hAcc><vAcc>0.739295</vAcc></extensions></trkpt>
      <trkpt lon="-4.144141" lat="53.026472"><ele>287.352356</ele><time>2021-07-17T14:10:32Z</time><extensions><speed>0.000000</speed><course>240.875916</course><hAcc>0.914550</hAcc><vAcc>0.739706</vAcc></extensions></trkpt>
      <trkpt lon="-4.144141" lat="53.026472"><ele>287.352356</ele><time>2021-07-17T14:10:33Z</time><extensions><speed>0.000000</speed><course>269.430084</course><hAcc>0.914434</hAcc><vAcc>0.739572</vAcc></extensions></trkpt>
      <trkpt lon="-4.144141" lat="53.026472"><ele>287.352356</ele><time>2021-07-17T14:10:34Z</time><extensions><speed>0.000000</speed><course>274.056000</course><hAcc>0.914143</hAcc><vAcc>0.738923</vAcc></extensions></trkpt>
      <trkpt lon="-4.144141" lat="53.026472"><ele>287.352356</ele><time>2021-07-17T14:10:35Z</time><extensions><speed>0.000000</speed><course>273.580658</course><hAcc>0.913638</hAcc><vAcc>0.737793</vAcc></extensions></trkpt>
      <trkpt lon="-4.144141" lat="53.026472"><ele>287.352356</ele><time>2021-07-17T14:10:36Z</time><extensions><speed>0.000000</speed><course>266.285736</course><hAcc>0.912847</hAcc><vAcc>0.736266</vAcc></extensions></trkpt>
      <trkpt lon="-4.144141" lat="53.026472"><ele>287.352356</ele><time>2021-07-17T14:10:37Z</time><extensions><speed>0.000000</speed><course>280.416809</course><hAcc>0.911778</hAcc><vAcc>0.734568</vAcc></extensions></trkpt>
      <trkpt lon="-4.144141" lat="53.026472"><ele>287.352356</ele><time>2021-07-17T14:10:38Z</time><extensions><speed>0.000000</speed><course>289.633057</course><hAcc>0.910697</hAcc><vAcc>0.733216</vAcc></extensions></trkpt>
      <trkpt lon="-4.144141" lat="53.026472"><ele>287.352356</ele><time>2021-07-17T14:10:39Z</time><extensions><speed>0.000000</speed><course>274.042023</course><hAcc>0.910400</hAcc><vAcc>0.733219</vAcc></extensions></trkpt>
      <trkpt lon="-4.144141" lat="53.026472"><ele>287.352356</ele><time>2021-07-17T14:10:40Z</time><extensions><speed>0.000000</speed><course>259.398621</course><hAcc>0.912584</hAcc><vAcc>0.736331</vAcc></extensions></trkpt>
      <trkpt lon="-4.144141" lat="53.026472"><ele>287.352356</ele><time>2021-07-17T14:10:41Z</time><extensions><speed>0.000000</speed><course>235.228027</course><hAcc>0.920295</hAcc><vAcc>0.745294</vAcc></extensions></trkpt>
      <trkpt lon="-4.144141" lat="53.026472"><ele>287.352356</ele><time>2021-07-17T14:10:42Z</time><extensions><speed>0.000000</speed><course>233.943741</course><hAcc>0.938338</hAcc><vAcc>0.763981</vAcc></extensions></trkpt>
      <trkpt lon="-4.144141" lat="53.026472"><ele>287.352356</ele><time>2021-07-17T14:10:43Z</time><extensions><speed>0.000000</speed><course>251.986771</course><hAcc>0.973409</hAcc><vAcc>0.797263</vAcc></extensions></trkpt>
      <trkpt lon="-4.144141" lat="53.026472"><ele>287.352356</ele><time>2021-07-17T14:10:44Z</time><extensions><speed>0.000000</speed><course>207.637573</course><hAcc>0.935625</hAcc><vAcc>0.762683</vAcc></extensions></trkpt>
      <trkpt lon="-4.144141" lat="53.026472"><ele>287.352356</ele><time>2021-07-17T14:10:45Z</time><extensions><speed>0.000000</speed><course>199.781464</course><hAcc>0.916749</hAcc><vAcc>0.742692</vAcc></extensions></trkpt>
      <trkpt lon="-4.144141" lat="53.026472"><ele>287.352356</ele><time>2021-07-17T14:10:46Z</time><extensions><speed>0.000000</speed><course>204.898392</course><hAcc>0.909384</hAcc><vAcc>0.733456</vAcc></extensions></trkpt>
      <trkpt lon="-4.144141" lat="53.026472"><ele>287.352356</ele><time>2021-07-17T14:10:47Z</time><extensions><speed>0.000000</speed><course>218.988647</course><hAcc>0.908040</hAcc><vAcc>0.730647</vAcc></extensions></trkpt>
      <trkpt lon="-4.144141" lat="53.026472"><ele>287.352356</ele><time>2021-07-17T14:10:48Z</time><extensions><speed>0.000000</speed><course>240.875916</course><hAcc>0.909237</hAcc><vAcc>0.731188</vAcc></extensions></trkpt>
      <trkpt lon="-4.144141" lat="53.026472"><ele>287.352356</ele><time>2021-07-17T14:10:49Z</time><extensions><speed>0.000000</speed><course>240.875916</course><hAcc>0.911052</hAcc><vAcc>0.733110</vAcc></extensions></trkpt>
      <trkpt lon="-4.144141" lat="53.026472"><ele>287.352356</ele><time>2021-07-17T14:10:50Z</time><extensions><speed>0.000000</speed><course>240.875916</course><hAcc>0.912603</hAcc><vAcc>0.735289</vAcc></extensions></trkpt>
      <trkpt lon="-4.144141" lat="53.026472"><ele>287.352356</ele><time>2021-07-17T14:10:51Z</time><extensions><speed>0.000000</speed><course>240.875916</course><hAcc>0.913624</hAcc><vAcc>0.737157</vAcc></extensions></trkpt>
      <trkpt lon="-4.144141" lat="53.026472"><ele>287.352356</ele><time>2021-07-17T14:10:52Z</time><extensions><speed>0.000000</speed><course>240.875916</course><hAcc>0.914153</hAcc><vAcc>0.738479</vAcc></extensions></trkpt>
      <trkpt lon="-4.144141" lat="53.026472"><ele>287.352356</ele><time>2021-07-17T14:10:53Z</time><extensions><speed>0.000000</speed><course>240.875916</course><hAcc>0.914333</hAcc><vAcc>0.739189</vAcc></extensions></trkpt>
      <trkpt lon="-4.144141" lat="53.026472"><ele>287.352356</ele><time>2021-07-17T14:10:54Z</time><extensions><speed>0.000000</speed><course>269.430084</course><hAcc>0.914281</hAcc><vAcc>0.739288</vAcc></extensions></trkpt>
      <trkpt lon="-4.144141" lat="53.026472"><ele>287.352356</ele><time>2021-07-17T14:10:55Z</time><extensions><speed>0.000000</speed><course>274.056000</course><hAcc>0.914038</hAcc><vAcc>0.738791</vAcc></extensions></trkpt>
      <trkpt lon="-4.144141" lat="53.026472"><ele>287.352356</ele><time>2021-07-17T14:10:56Z</time><extensions><speed>0.000000</speed><course>273.580658</course><hAcc>0.913562</hAcc><vAcc>0.737730</vAcc></extensions></trkpt>
      <trkpt lon="-4.144141" lat="53.026472"><ele>287.352356</ele><time>2021-07-17T14:10:57Z</time><extensions><speed>0.000000</speed><course>266.285736</course><hAcc>0.912778</hAcc><vAcc>0.736193</vAcc></extensions></trkpt>
      <trkpt lon="-4.144141" lat="53.026472"><ele>287.352356</ele><time>2021-07-17T14:10:58Z</time><extensions><speed>0.000000</speed><course>280.416809</course><hAcc>0.911685</hAcc><vAcc>0.734408</vAcc></extensions></trkpt>
      <trkpt lon="-4.144141" lat="53.026472"><ele>287.352356</ele><time>2021-07-17T14:10:59Z</time><extensions><speed>0.000000</speed><course>289.633057</course><hAcc>0.910542</hAcc><vAcc>0.732888</vAcc></extensions></trkpt>
      <trkpt lon="-4.144141" lat="53.026472"><ele>287.352356</ele><time>2021-07-17T14:11:00Z</time><extensions><speed>0.000000</speed><course>274.042023</course><hAcc>0.910134</hAcc><vAcc>0.732620</vAcc></extensions></trkpt>
      <trkpt lon="-4.144141" lat="53.026472"><ele>287.352356</ele><time>2021-07-17T14:11:01Z</time><extensions><speed>0.000000</speed><course>259.398621</course><hAcc>0.912147</hAcc><vAcc>0.735318</vAcc></extensions></trkpt>
      <trkpt lon="-4.144141" lat="53.026472"><ele>287.352356</ele><time>2021-07-17T14:11:02Z</time><extensions><speed>0.000000</speed><course>235.228027</course><hAcc>0.919619</hAcc><vAcc>0.743681</vAcc></extensions></trkpt>
      <trkpt lon="-4.144141" lat="53.026472"><ele>287.352356</ele><time>2021-07-17T14:11:03Z</time><extensions><speed>0.000000</speed><course>233.943741</course><hAcc>0.937356</hAcc><vAcc>0.761546</vAcc></extensions></trkpt>
      <trkpt lon="-4.144141" lat="53.026472"><ele>287.352356</ele><time>2021-07-17T14:11:04Z</time><extensions><speed>0.000000</speed><course>251.986771</course><hAcc>0.972066</hAcc><vAcc>0.793786</vAcc></extensions></trkpt>
      <trkpt lon="-4.144141" lat="53.026472"><ele>287.352356</ele><time>2021-07-17T14:11:05Z</time><extensions><speed>0.000000</speed><course>207.637573</course><hAcc>0.934940</hAcc><vAcc>0.760595</vAcc></extensions></trkpt>
      <trkpt lon="-4.144141" lat="53.026472"><ele>287.352356</ele><time>2021-07-17T14:11:06Z</time><extensions><speed>0.000000</speed><course>199.781464</course><hAcc>0.916012</hAcc><vAcc>0.740267</vAcc></extensions></trkpt>
      <trkpt lon="-4.144141" lat="53.026472"><ele>287.352356</ele><time>2021-07-17T14:11:07Z</time><extensions><speed>0.000000</speed><course>204.898392</course><hAcc>0.908621</hAcc><vAcc>0.730789</vAcc></extensions></trkpt>
      <trkpt lon="-4.144141" lat="53.026472"><ele>287.352356</ele><time>2021-07-17T14:11:08Z</time><extensions><speed>0.000000</speed><course>218.988647</course><hAcc>0.907277</hAcc><vAcc>0.727874</vAcc></extensions></trkpt>
      <trkpt lon="-4.144141" lat="53.026472"><ele>287.352356</ele><time>2021-07-17T14:11:09Z</time><extensions><speed>0.000000</speed><course>240.875916</course><hAcc>0.908505</hAcc><vAcc>0.728458</vAcc></extensions></trkpt>
      <trkpt lon="-4.144141" lat="53.026472"><ele>287.352356</ele><time>2021-07-17T14:11:10Z</time><extensions><speed>0.000000</speed><course>240.875916</course><hAcc>0.910380</hAcc><vAcc>0.730574</vAcc></extensions></trkpt>
      <trkpt lon="-4.144141" lat="53.026472"><ele>287.352356</ele><time>2021-07-17T14:11:11Z</time><extensions><speed>0.000000</speed><course>240.875916</course><hAcc>0.912020</hAcc><vAcc>0.733081</vAcc></extensions></trkpt>
      <trkpt lon="-4.144141" lat="53.026472"><ele>287.352356</ele><time>2021-07-17T14:11:12Z</time><extensions><speed>0.000000</speed><course>240.875916</course><hAcc>0.913158</hAcc><vAcc>0.735394</vAcc></extensions></trkpt>
      <trkpt lon="-4.144141" lat="53.026472"><ele>287.352356</ele><time>2021-07-17T14:11:13Z</time><extensions><speed>0.000000</speed><course>240.875916</course><hAcc>0.913829</hAcc><vAcc>0.737256</vAcc></extensions></trkpt>
      <trkpt lon="-4.144141" lat="53.026472"><ele>287.352356</ele><time>2021-07-17T14:11:14Z</time><extensions><speed>0.000000</speed><course>240.875916</course><hAcc>0.914171</hAcc><vAcc>0.738582</vAcc></extensions></trkpt>
      <trkpt lon="-4.144141" lat="53.026472"><ele>287.352356</ele><time>2021-07-17T14:11:15Z</time><extensions><speed>0.000000</speed><course>269.430084</course><hAcc>0.914297</hAcc><vAcc>0.739355</vAcc></extensions></trkpt>
      <trkpt lon="-4.144141" lat="53.026472"><ele>287.352356</ele><time>2021-07-17T14:11:16Z</time><extensions><speed>0.000000</speed><course>274.056000</course><hAcc>0.914247</hAcc><vAcc>0.739577</vAcc></extensions></trkpt>
      <trkpt lon="-4.144141" lat="53.026472"><ele>287.352356</ele><time>2021-07-17T14:11:17Z</time><extensions><speed>0.000000</speed><course>273.580658</course><hAcc>0.913978</hAcc><vAcc>0.739264</vAcc></extensions></trkpt>
      <trkpt lon="-4.144141" lat="53.026472"><ele>287.352356</ele><time>2021-07-17T14:11:18Z</time><extensions><speed>0.000000</speed><course>266.285736</course><hAcc>0.913421</hAcc><vAcc>0.738494</vAcc></extensions></trkpt>
      <trkpt lon="-4.144141" lat="53.026472"><ele>287.352356</ele><time>2021-07-17T14:11:19Z</time><extensions><speed>0.000000</speed><course>280.416809</course><hAcc>0.912587</hAcc><vAcc>0.737500</vAcc></extensions></trkpt>
      <trkpt lon="-4.144141" lat="53.026472"><ele>287.352356</ele><time>2021-07-17T14:11:20Z</time><extensions><speed>0.000000</speed><course>289.633057</course><hAcc>0.911753</hAcc><vAcc>0.736818</vAcc></extensions></trkpt>
      <trkpt lon="-4.144141" lat="53.026472"><ele>287.352356</ele><time>2021-07-17T14:11:21Z</time><extensions><speed>0.000000</speed><course>274.042023</course><hAcc>0.911725</hAcc><vAcc>0.737492</vAcc></extensions></trkpt>
      <trkpt lon="-4.144141" lat="53.026472"><ele>287.352356</ele><time>2021-07-17T14:11:22Z</time><extensions><speed>0.000000</speed><course>259.398621</course><hAcc>0.914212</hAcc><vAcc>0.741318</vAcc></extensions></trkpt>
      <trkpt lon="-4.144141" lat="53.026472"><ele>287.352356</ele><time>2021-07-17T14:11:23Z</time><extensions><speed>0.000000</speed><course>235.228027</course><hAcc>0.922266</hAcc><vAcc>0.751075</vAcc></extensions></trkpt>
      <trkpt lon="-4.144141" lat="53.026472"><ele>287.352356</ele><time>2021-07-17T14:11:24Z</time><extensions><speed>0.000000</speed><course>233.943741</course><hAcc>0.940690</hAcc><vAcc>0.770655</vAcc></extensions></trkpt>
      <trkpt lon="-4.144141" lat="53.026472"><ele>287.352356</ele><time>2021-07-17T14:11:25Z</time><extensions><speed>0.000000</speed><course>251.986771</course><hAcc>0.976156</hAcc><vAcc>0.804913</vAcc></extensions></trkpt>
      <trkpt lon="-4.144141" lat="53.026472"><ele>287.352356</ele><time>2021-07-17T14:11:26Z</time><extensions><speed>0.000000</speed><course>207.637573</course><hAcc>0.937966</hAcc><vAcc>0.769415</vAcc></extensions></trkpt>
      <trkpt lon="-4.144141" lat="53.026472"><ele>287.352356</ele><time>2021-07-17T14:11:27Z</time><extensions><speed>0.000000</speed><course>199.781464</course><hAcc>0.918808</hAcc><vAcc>0.748841</vAcc></extensions></trkpt>
      <trkpt lon="-4.144141" lat="53.026472"><ele>287.352356</ele><time>2021-07-17T14:11:28Z</time><extensions><speed>0.000000</speed><course>204.898392</course><hAcc>0.911182</hAcc><vAcc>0.739051</vAcc></extensions></trkpt>
      <trkpt lon="-4.144141" lat="53.026472"><ele>287.352356</ele><time>2021-07-17T14:11:29Z</time><extensions><speed>0.000000</speed><course>218.988647</course><hAcc>0.909609</hAcc><vAcc>0.735714</vAcc></extensions></trkpt>
      <trkpt lon="-4.144141" lat="53.026472"><ele>287.352356</ele><time>2021-07-17T14:11:30Z</time><extensions><speed>0.000000</speed><course>240.875916</course><hAcc>0.910611</hAcc><vAcc>0.735734</vAcc></extensions></trkpt>
      <trkpt lon="-4.144141" lat="53.026472"><ele>287.352356</ele><time>2021-07-17T14:11:31Z</time><extensions><speed>0.000000</speed><course>240.875916</course><hAcc>0.912257</hAcc><vAcc>0.737127</vAcc></extensions></trkpt>
      <trkpt lon="-4.144141" lat="53.026472"><ele>287.352356</ele><time>2021-07-17T14:11:32Z</time><extensions><speed>0.000000</speed><course>240.875916</course><hAcc>0.913660</hAcc><vAcc>0.738761</vAcc></extensions></trkpt>
      <trkpt lon="-4.144141" lat="53.026472"><ele>287.352356</ele><time>2021-07-17T14:11:33Z</time><extensions><speed>0.000000</speed><course>240.875916</course><hAcc>0.914549</hAcc><vAcc>0.740082</vAcc></extensions></trkpt>
      <trkpt lon="-4.144141" lat="53.026472"><ele>287.352356</ele><time>2021-07-17T14:11:34Z</time><extensions><speed>0.000000</speed><course>240.875916</course><hAcc>0.914961</hAcc><vAcc>0.740885</vAcc></extensions></trkpt>
      <trkpt lon="-4.144141" lat="53.026472"><ele>287.352356</ele><time>2021-07-17T14:11:35Z</time><extensions><speed>0.000000</speed><course>240.875916</course><hAcc>0.915038</hAcc><vAcc>0.741140</vAcc></extensions></trkpt>
      <trkpt lon="-4.144141" lat="53.026472"><ele>287.352356</ele><time>2021-07-17T14:11:36Z</time><extensions><speed>0.000000</speed><course>269.430084</course><hAcc>0.914905</hAcc><vAcc>0.740888</vAcc></extensions></trkpt>
      <trkpt lon="-4.144141" lat="53.026472"><ele>287.352356</ele><time>2021-07-17T14:11:37Z</time><extensions><speed>0.000000</speed><course>274.056000</course><hAcc>0.914609</hAcc><vAcc>0.740179</vAcc></extensions></trkpt>
      <trkpt lon="-4.144141" lat="53.026472"><ele>287.352356</ele><time>2021-07-17T14:11:38Z</time><extensions><speed>0.000000</speed><course>273.580658</course><hAcc>0.914118</hAcc><vAcc>0.739069</vAcc></extensions></trkpt>
      <trkpt lon="-4.144141" lat="53.026472"><ele>287.352356</ele><time>2021-07-17T14:11:39Z</time><extensions><speed>0.000000</speed><course>266.285736</course><hAcc>0.913367</hAcc><vAcc>0.737663</vAcc></extensions></trkpt>
      <trkpt lon="-4.144141" lat="53.026472"><ele>287.352356</ele><time>2021-07-17T14:11:40Z</time><extensions><speed>0.000000</speed><course>280.416809</course><hAcc>0.912372</hAcc><vAcc>0.736205</vAcc></extensions></trkpt>
      <trkpt lon="-4.144141" lat="53.026472"><ele>287.352356</ele><time>2021-07-17T14:11:41Z</time><extensions><speed>0.000000</speed><course>289.633057</course><hAcc>0.911404</hAcc><vAcc>0.735226</vAcc></extensions></trkpt>
      <trkpt lon="-4.144141" lat="53.026472"><ele>287.352356</ele><time>2021-07-17T14:11:42Z</time><extensions><speed>0.000000</speed><course>274.042023</course><hAcc>0.911266</hAcc><vAcc>0.735739</vAcc></extensions></trkpt>
      <trkpt lon="-4.144141" lat="53.026472"><ele>287.352356</ele><time>2021-07-17T14:11:43Z</time><extensions><speed>0.000000</speed><course>259.398621</course><hAcc>0.913662</hAcc><vAcc>0.739493</vAcc></extensions></trkpt>
      <trkpt lon="-4.144141" lat="53.026472"><ele>287.352356</ele><time>2021-07-17T14:11:44Z</time><extensions><speed>0.000000</speed><course>235.228027</course><hAcc>0.921635</hAcc><vAcc>0.749210</vAcc></extensions></trkpt>
      <trkpt lon="-4.144141" lat="53.026472"><ele>287.352356</ele><time>2021-07-17T14:11:45Z</time><extensions><speed>0.000000</speed><course>233.943741</course><hAcc>0.939983</hAcc><vAcc>0.768729</vAcc></extensions></trkpt>
      <trkpt lon="-4.144141" lat="53.026472"><ele>287.352356</ele><time>2021-07-17T14:11:46Z</time><extensions><speed>0.000000</speed><course>251.986771</course><hAcc>0.975377</hAcc><vAcc>0.802870</vAcc></extensions></trkpt>
      <trkpt lon="-4.144141" lat="53.026472"><ele>287.352356</ele><time>2021-07-17T14:11:47Z</time><extensions><speed>0.000000</speed><course>207.637573</course><hAcc>0.937305</hAcc><vAcc>0.767617</vAcc></extensions></trkpt>
      <trkpt lon="-4.144141" lat="53.026472"><ele>287.352356</ele><time>2021-07-17T14:11:48Z</time><extensions><speed>0.000000</speed><course>199.781464</course><hAcc>0.918230</hAcc><vAcc>0.747154</vAcc></extensions></trkpt>
      <trkpt lon="-4.144141" lat="53.026472"><ele>287.352356</ele><time>2021-07-17T14:11:49Z</time><extensions><speed>0.000000</speed><course>204.898392</course><hAcc>0.910673</hAcc><vAcc>0.737416</vAcc></extensions></trkpt>
      <trkpt lon="-4.144141" lat="53.026472"><ele>287.352356</ele><time>2021-07-17T14:11:50Z</time><extensions><speed>0.000000</speed><course>218.988647</course><hAcc>0.909156</hAcc><vAcc>0.734105</vAcc></extensions></trkpt>
      <trkpt lon="-4.144141" lat="53.026472"><ele>287.352356</ele><time>2021-07-17T14:11:51Z</time><extensions><speed>0.000000</speed><course>240.875916</course><hAcc>0.910204</hAcc><vAcc>0.734153</vAcc></extensions></trkpt>
      <trkpt lon="-4.144141" lat="53.026472"><ele>287.352356</ele><time>2021-07-17T14:11:52Z</time><extensions><speed>0.000000</speed><course>240.875916</course><hAcc>0.911875</hAcc><vAcc>0.735593</vAcc></extensions></trkpt>
      <trkpt lon="-4.144141" lat="53.026472"><ele>287.352356</ele><time>2021-07-17T14:11:53Z</time><extensions><speed>0.000000</speed><course>240.875916</course><hAcc>0.913280</hAcc><vAcc>0.737300</vAcc></extensions></trkpt>
      <trkpt lon="-4.144141" lat="53.026472"><ele>287.352356</ele><time>2021-07-17T14:11:54Z</time><extensions><speed>0.000000</speed><course>240.875916</course><hAcc>0.914171</hAcc><vAcc>0.738731</vAcc></extensions></trkpt>
      <trkpt lon="-4.144141" lat="53.026472"><ele>287.352356</ele><time>2021-07-17T14:11:55Z</time><extensions><speed>0.000000</speed><course>240.875916</course><hAcc>0.914584</hAcc><vAcc>0.739662</vAcc></extensions></trkpt>
      <trkpt lon="-4.144141" lat="53.026472"><ele>287.352356</ele><time>2021-07-17T14:11:56Z</time><extensions><speed>0.000000</speed><course>240.875916</course><hAcc>0.914660</hAcc><vAcc>0.740035</vAcc></extensions></trkpt>
      <trkpt lon="-4.144141" lat="53.026472"><ele>287.352356</ele><time>2021-07-17T14:11:57Z</time><extensions><speed>0.000000</speed><course>269.430084</course><hAcc>0.914519</hAcc><vAcc>0.739857</vAcc></extensions></trkpt>
      <trkpt lon="-4.144141" lat="53.026472"><ele>287.352356</ele><time>2021-07-17T14:11:58Z</time><extensions><speed>0.000000</speed><course>274.056000</course><hAcc>0.914202</hAcc><vAcc>0.739149</vAcc></extensions></trkpt>
      <trkpt lon="-4.144141" lat="53.026472"><ele>287.352356</ele><time>2021-07-17T14:11:59Z</time><extensions><speed>0.000000</speed><course>273.580658</course><hAcc>0.913670</hAcc><vAcc>0.737941</vAcc></extensions></trkpt>
      <trkpt lon="-4.144141" lat="53.026472"><ele>287.352356</ele><time>2021-07-17T14:12:00Z</time><extensions><speed>0.000000</speed><course>266.285736</course><hAcc>0.912853</hAcc><vAcc>0.736320</vAcc></extensions></trkpt>
      <trkpt lon="-4.144141" lat="53.026472"><ele>287.352356</ele><time>2021-07-17T14:12:01Z</time><extensions><speed>0.000000</speed><course>280.416809</course><hAcc>0.911756</hAcc><vAcc>0.734524</vAcc></extensions></trkpt>
      <trkpt lon="-4.144141" lat="53.026472"><ele>287.352356</ele><time>2021-07-17T14:12:02Z</time><extensions><speed>0.000000</speed><course>289.633057</course><hAcc>0.910643</hAcc><vAcc>0.733080</vAcc></extensions></trkpt>
      <trkpt lon="-4.144141" lat="53.026472"><ele>287.352356</ele><time>2021-07-17T14:12:03Z</time><extensions><speed>0.000000</speed><course>274.042023</course><hAcc>0.910309</hAcc><vAcc>0.733004</vAcc></extensions></trkpt>
      <trkpt lon="-4.144141" lat="53.026472"><ele>287.352356</ele><time>2021-07-17T14:12:04Z</time><extensions><speed>0.000000</speed><course>259.398621</course><hAcc>0.912450</hAcc><vAcc>0.736043</vAcc></extensions></trkpt>
      <trkpt lon="-4.144141" lat="53.026472"><ele>287.352356</ele><time>2021-07-17T14:12:05Z</time><extensions><speed>0.000000</speed><course>235.228027</course><hAcc>0.920116</hAcc><vAcc>0.744926</vAcc></extensions></trkpt>
      <trkpt lon="-4.144141" lat="53.026472"><ele>287.352356</ele><time>2021-07-17T14:12:06Z</time><extensions><speed>0.000000</speed><course>233.943741</course><hAcc>0.938122</hAcc><vAcc>0.763517</vAcc></extensions></trkpt>
      <trkpt lon="-4.144141" lat="53.026472"><ele>287.352356</ele><time>2021-07-17T14:12:07Z</time><extensions><speed>0.000000</speed><course>251.986771</course><hAcc>0.973142</hAcc><vAcc>0.796654</vAcc></extensions></trkpt>
      <trkpt lon="-4.144141" lat="53.026472"><ele>287.352356</ele><time>2021-07-17T14:12:08Z</time><extensions><speed>0.000000</speed><course>207.637573</course><hAcc>0.935290</hAcc><vAcc>0.761887</vAcc></extensions></trkpt>
      <trkpt lon="-4.144141" lat="53.026472"><ele>287.352356</ele><time>2021-07-17T14:12:09Z</time><extensions><speed>0.000000</speed><course>199.781464</course><hAcc>0.916385</hAcc><vAcc>0.741780</vAcc></extensions></trkpt>
      <trkpt lon="-4.144141" lat="53.026472"><ele>287.352356</ele><time>2021-07-17T14:12:10Z</time><extensions><speed>0.000000</speed><course>204.898392</course><hAcc>0.908971</hAcc><vAcc>0.732339</vAcc></extensions></trkpt>
      <trkpt lon="-4.144141" lat="53.026472"><ele>287.352356</ele><time>2021-07-17T14:12:11Z</time><extensions><speed>0.000000</speed><course>218.988647</course><hAcc>0.907559</hAcc><vAcc>0.729263</vAcc></extensions></trkpt>
      <trkpt lon="-4.144141" lat="53.026472"><ele>287.352356</ele><time>2021-07-17T14:12:12Z</time><extensions><speed>0.000000</speed><course>240.875916</course><hAcc>0.908675</hAcc><vAcc>0.729495</vAcc></extensions></trkpt>
      <trkpt lon="-4.144141" lat="53.026472"><ele>287.352356</ele><time>2021-07-17T14:12:13Z</time><extensions><speed>0.000000</speed><course>240.875916</course><hAcc>0.910401</hAcc><vAcc>0.731088</vAcc></extensions></trkpt>
      <trkpt lon="-4.144141" lat="53.026472"><ele>287.352356</ele><time>2021-07-17T14:12:14Z</time><extensions><speed>0.000000</speed><course>240.875916</course><hAcc>0.911860</hAcc><vAcc>0.732931</vAcc></extensions></trkpt>
      <trkpt lon="-4.144141" lat="53.026472"><ele>287.352356</ele><time>2021-07-17T14:12:15Z</time><extensions><speed>0.000000</speed><course>240.875916</course><hAcc>0.912790</hAcc><vAcc>0.734481</vAcc></extensions></trkpt>
      <trkpt lon="-4.144141" lat="53.026472"><ele>287.352356</ele><time>2021-07-17T14:12:16Z</time><extensions><speed>0.000000</speed><course>240.875916</course><hAcc>0.913237</hAcc><vAcc>0.735525</vAcc></extensions></trkpt>
      <trkpt lon="-4.144141" lat="53.026472"><ele>287.352356</ele><time>2021-07-17T14:12:17Z</time><extensions><speed>0.000000</speed><course>240.875916</course><hAcc>0.913343</hAcc><vAcc>0.736013</vAcc></extensions></trkpt>
      <trkpt lon="-4.144141" lat="53.026472"><ele>287.352356</ele><time>2021-07-17T14:12:18Z</time><extensions><speed>0.000000</speed><course>269.430084</course><hAcc>0.913231</hAcc><vAcc>0.735952</vAcc></extensions></trkpt>
      <trkpt lon="-4.144141" lat="53.026472"><ele>287.352356</ele><time>2021-07-17T14:12:19Z</time><extensions><speed>0.000000</speed><course>274.056000</course><hAcc>0.912942</hAcc><vAcc>0.735351</vAcc></extensions></trkpt>
      <trkpt lon="-4.144141" lat="53.026472"><ele>287.352356</ele><time>2021-07-17T14:12:20Z</time><extensions><speed>0.000000</speed><course>273.580658</course><hAcc>0.912433</hAcc><vAcc>0.734224</vAcc></extensions></trkpt>
      <trkpt lon="-4.144141" lat="53.026472"><ele>287.352356</ele><time>2021-07-17T14:12:21Z</time><extensions><speed>0.000000</speed><course>266.285736</course><hAcc>0.911629</hAcc><vAcc>0.732639</vAcc></extensions></trkpt>
      <trkpt lon="-4.144141" lat="53.026472"><ele>287.352356</ele><time>2021-07-17T14:12:22Z</time><extensions><speed>0.000000</speed><course>280.416809</course><hAcc>0.910531</hAcc><vAcc>0.730815</vAcc></extensions></trkpt>
      <trkpt lon="-4.144141" lat="53.026472"><ele>287.352356</ele><time>2021-07-17T14:12:23Z</time><extensions><speed>0.000000</speed><course>289.633057</course><hAcc>0.909397</hAcc><vAcc>0.729268</vAcc></extensions></trkpt>
      <trkpt lon="-4.144141" lat="53.026472"><ele>287.352356</ele><time>2021-07-17T14:12:24Z</time><extensions><speed>0.000000</speed><course>274.042023</course><hAcc>0.909016</hAcc><vAcc>0.729010</vAcc></extensions></trkpt>
      <trkpt lon="-4.144141" lat="53.026472"><ele>287.352356</ele><time>2021-07-17T14:12:25Z</time><extensions><speed>0.000000</speed><course>259.398621</course><hAcc>0.911077</hAcc><vAcc>0.731793</vAcc></extensions></trkpt>
      <trkpt lon="-4.144141" lat="53.026472"><ele>287.352356</ele><time>2021-07-17T14:12:26Z</time><extensions><speed>0.000000</speed><course>235.228027</course><hAcc>0.918625</hAcc><vAcc>0.740360</vAcc></extensions></trkpt>
      <trkpt lon="-4.144141" lat="53.026472"><ele>287.352356</ele><time>2021-07-17T14:12:27Z</time><extensions><speed>0.000000</speed><course>233.943741</course><hAcc>0.936471</hAcc><vAcc>0.758591</vAcc></extensions></trkpt>
      <trkpt lon="-4.144141" lat="53.026472"><ele>287.352356</ele><time>2021-07-17T14:12:28Z</time><extensions><speed>0.000000</speed><course>251.986771</course><hAcc>0.971328</hAcc><vAcc>0.791375</vAcc></extensions></trkpt>
      <trkpt lon="-4.144142" lat="53.026472"><ele>287.340515</ele><time>2021-07-17T14:12:29Z</time><extensions><speed>0.035981</speed><course>207.637573</course><hAcc>0.933233</hAcc><vAcc>0.756482</vAcc></extensions></trkpt>
      <trkpt lon="-4.144143" lat="53.026471"><ele>287.337891</ele><time>2021-07-17T14:12:30Z</time><extensions><speed>0.040326</speed><course>199.781464</course><hAcc>0.914268</hAcc><vAcc>0.736690</vAcc></extensions></trkpt>
      <trkpt lon="-4.144143" lat="53.026471"><ele>287.335449</ele><time>2021-07-17T14:12:31Z</time><extensions><speed>0.045351</speed><course>204.898392</course><hAcc>0.906618</hAcc><vAcc>0.727359</vAcc></extensions></trkpt>
      <trkpt lon="-4.144144" lat="53.026471"><ele>287.333221</ele><time>2021-07-17T14:12:32Z</time><extensions><speed>0.050793</speed><course>218.988647</course><hAcc>0.904770</hAcc><vAcc>0.724164</vAcc></extensions></trkpt>
      <trkpt lon="-4.144145" lat="53.026471"><ele>287.331299</ele><time>2021-07-17T14:12:33Z</time><extensions><speed>0.056271</speed><course>240.875916</course><hAcc>0.905239</hAcc><vAcc>0.724048</vAcc></extensions></trkpt>
      <trkpt lon="-4.144146" lat="53.026471"><ele>287.329773</ele><time>2021-07-17T14:12:34Z</time><extensions><speed>0.061275</speed><course>240.875916</course><hAcc>0.906105</hAcc><vAcc>0.725086</vAcc></extensions></trkpt>
      <trkpt lon="-4.144147" lat="53.026471"><ele>287.328766</ele><time>2021-07-17T14:12:35Z</time><extensions><speed>0.065147</speed><course>240.875916</course><hAcc>0.906511</hAcc><vAcc>0.726216</vAcc></extensions></trkpt>
      <trkpt lon="-4.144148" lat="53.026471"><ele>287.328400</ele><time>2021-07-17T14:12:36Z</time><extensions><speed>0.067074</speed><course>240.875916</course><hAcc>0.906240</hAcc><vAcc>0.726968</vAcc></extensions></trkpt>
      <trkpt lon="-4.144149" lat="53.026471"><ele>287.328796</ele><time>2021-07-17T14:12:37Z</time><extensions><speed>0.066075</speed><course>240.875916</course><hAcc>0.905416</hAcc><vAcc>0.727239</vAcc></extensions></trkpt>
      <trkpt lon="-4.144149" lat="53.026471"><ele>287.330109</ele><time>2021-07-17T14:12:38Z</time><extensions><speed>0.061001</speed><course>240.875916</course><hAcc>0.904310</hAcc><vAcc>0.727121</vAcc></extensions></trkpt>
      <trkpt lon="-4.144150" lat="53.026471"><ele>287.332458</ele><time>2021-07-17T14:12:39Z</time><extensions><speed>0.050536</speed><course>269.430084</course><hAcc>0.903217</hAcc><vAcc>0.726791</vAcc></extensions></trkpt>
      <trkpt lon="-4.144151" lat="53.026471"><ele>287.336029</ele><time>2021-07-17T14:12:40Z</time><extensions><speed>0.033211</speed><course>274.056000</course><hAcc>0.902387</hAcc><vAcc>0.726431</vAcc></extensions></trkpt>
      <trkpt lon="-4.144151" lat="53.026471"><ele>287.340912</ele><time>2021-07-17T14:12:41Z</time><extensions><speed>0.007549</speed><course>273.580658</course><hAcc>0.901990</hAcc><vAcc>0.726188</vAcc></extensions></trkpt>
      <trkpt lon="-4.144151" lat="53.026471"><ele>287.347229</ele><time>2021-07-17T14:12:42Z</time><extensions><speed>0.028643</speed><course>266.285736</course><hAcc>0.902098</hAcc><vAcc>0.726141</vAcc></extensions></trkpt>
      <trkpt lon="-4.144150" lat="53.026471"><ele>287.355103</ele><time>2021-07-17T14:12:43Z</time><extensions><speed>0.076399</speed><course>280.416809</course><hAcc>0.902683</hAcc><vAcc>0.726292</vAcc></extensions></trkpt>
      <trkpt lon="-4.144149" lat="53.026471"><ele>287.364594</ele><time>2021-07-17T14:12:44Z</time><extensions><speed>0.137609</speed><course>289.633057</course><hAcc>0.903619</hAcc><vAcc>0.726564</vAcc></extensions></trkpt>
      <trkpt lon="-4.144146" lat="53.026471"><ele>287.375671</ele><time>2021-07-17T14:12:45Z</time><extensions><speed>0.213651</speed><course>274.042023</course><hAcc>0.904702</hAcc><vAcc>0.726818</vAcc></extensions></trkpt>
      <trkpt lon="-4.144142" lat="53.026472"><ele>287.388397</ele><time>2021-07-17T14:12:46Z</time><extensions><speed>0.305562</speed><course>259.398621</course><hAcc>0.905680</hAcc><vAcc>0.726899</vAcc></extensions></trkpt>
      <trkpt lon="-4.144137" lat="53.026472"><ele>287.402679</ele><time>2021-07-17T14:12:47Z</time><extensions><speed>0.413824</speed><course>235.228027</course><hAcc>0.906318</hAcc><vAcc>0.726701</vAcc></extensions></trkpt>
      <trkpt lon="-4.144130" lat="53.026472"><ele>287.418365</ele><time>2021-07-17T14:12:48Z</time><extensions><speed>0.538126</speed><course>233.943741</course><hAcc>0.906500</hAcc><vAcc>0.726269</vAcc></extensions></trkpt>
      <trkpt lon="-4.144121" lat="53.026473"><ele>287.435333</ele><time>2021-07-17T14:12:49Z</time><extensions><speed>0.677087</speed><course>251.986771</course><hAcc>0.906406</hAcc><vAcc>0.725939</vAcc></extensions></trkpt>
      <trkpt lon="-4.144110" lat="53.026473"><ele>287.453369</ele><time>2021-07-17T14:12:50Z</time><extensions><speed>0.827934</speed><course>230.632401</course><hAcc>0.906769</hAcc><vAcc>0.726535</vAcc></extensions></trkpt>
      <trkpt lon="-4.144096" lat="53.026474"><ele>287.472229</ele><time>2021-07-17T14:12:51Z</time><extensions><speed>0.986138</speed><course>208.539734</course><hAcc>0.909241</hAcc><vAcc>0.729612</vAcc></extensions></trkpt>
      <trkpt lon="-4.144080" lat="53.026475"><ele>287.491699</ele><time>2021-07-17T14:12:52Z</time><extensions><speed>1.145008</speed><course>217.062653</course><hAcc>0.916837</hAcc><vAcc>0.737722</vAcc></extensions></trkpt>
      <trkpt lon="-4.144062" lat="53.026476"><ele>287.511475</ele><time>2021-07-17T14:12:53Z</time><extensions><speed>1.295303</speed><course>216.480164</course><hAcc>0.934360</hAcc><vAcc>0.754595</vAcc></extensions></trkpt>
      <trkpt lon="-4.144042" lat="53.026476"><ele>287.531464</ele><time>2021-07-17T14:12:54Z</time><extensions><speed>1.424831</speed><course>215.204285</course><hAcc>0.968551</hAcc><vAcc>0.785072</vAcc></extensions></trkpt>
      <trkpt lon="-4.144020" lat="53.026478"><ele>287.747162</ele><time>2021-07-17T14:12:55Z</time><extensions><speed>1.745121</speed><course>207.637573</course><hAcc>0.931563</hAcc><vAcc>0.751951</vAcc></extensions></trkpt>
      <trkpt lon="-4.143995" lat="53.026481"><ele>287.855164</ele><time>2021-07-17T14:12:56Z</time><extensions><speed>1.679475</speed><course>199.781464</course><hAcc>0.911567</hAcc><vAcc>0.728773</vAcc></extensions></trkpt>
      <trkpt lon="-4.143971" lat="53.026483"><ele>287.963257</ele><time>2021-07-17T14:12:57Z</time><extensions><speed>1.597345</speed><course>204.898392</course><hAcc>0.902868</hAcc><vAcc>0.715971</vAcc></extensions></trkpt>
      <trkpt lon="-4.143948" lat="53.026486"><ele>288.071106</ele><time>2021-07-17T14:12:58Z</time><extensions><speed>1.507871</speed><course>218.988647</course><hAcc>0.899974</hAcc><vAcc>0.709371</vAcc></extensions></trkpt>
      <trkpt lon="-4.143927" lat="53.026489"><ele>288.177856</ele><time>2021-07-17T14:12:59Z</time><extensions><speed>1.418930</speed><course>240.875916</course><hAcc>0.899400</hAcc><vAcc>0.706021</vAcc></extensions></trkpt>
      <trkpt lon="-4.143907" lat="53.026492"><ele>288.281494</ele><time>2021-07-17T14:13:00Z</time><extensions><speed>1.336754</speed><course>240.875916</course><hAcc>0.899216</hAcc><vAcc>0.704050</vAcc></extensions></trkpt>
      <trkpt lon="-4.143888" lat="53.026496"><ele>288.379730</ele><time>2021-07-17T14:13:01Z</time><extensions><speed>1.265430</speed><course>240.875916</course><hAcc>0.898544</hAcc><vAcc>0.702407</vAcc></extensions></trkpt>
      <trkpt lon="-4.143871" lat="53.026499"><ele>288.470520</ele><time>2021-07-17T14:13:02Z</time><extensions><speed>1.207132</speed><course>240.875916</course><hAcc>0.897136</hAcc><vAcc>0.700593</vAcc></extensions></trkpt>
      <trkpt lon="-4.143854" lat="53.026503"><ele>288.552246</ele><time>2021-07-17T14:13:03Z</time><extensions><speed>1.162129</speed><course>240.875916</course><hAcc>0.895081</hAcc><vAcc>0.698447</vAcc></extensions></trkpt>
      <trkpt lon="-4.143838" lat="53.026507"><ele>288.623962</ele><time>2021-07-17T14:13:04Z</time><extensions><speed>1.130215</speed><course>240.875916</course><hAcc>0.892604</hAcc><vAcc>0.695996</vAcc></extensions></trkpt>
      <trkpt lon="-4.143823" lat="53.026511"><ele>288.685059</ele><time>2021-07-17T14:13:05Z</time><extensions><speed>1.110988</speed><course>269.430084</course><hAcc>0.889957</hAcc><vAcc>0.693350</vAcc></extensions></trkpt>
      <trkpt lon="-4.143808" lat="53.026515"><ele>288.735596</ele><time>2021-07-17T14:13:06Z</time><extensions><speed>1.103512</speed><course>274.056000</course><hAcc>0.887355</hAcc><vAcc>0.690640</vAcc></extensions></trkpt>
      <trkpt lon="-4.143793" lat="53.026519"><ele>288.776428</ele><time>2021-07-17T14:13:07Z</time><extensions><speed>1.107474</speed><course>273.580658</course><hAcc>0.884955</hAcc><vAcc>0.687990</vAcc></extensions></trkpt>
      <trkpt lon="-4.143778" lat="53.026523"><ele>288.809235</ele><time>2021-07-17T14:13:08Z</time><extensions><speed>1.122174</speed><course>266.285736</course><hAcc>0.882852</hAcc><vAcc>0.685503</vAcc></extensions></trkpt>
      <trkpt lon="-4.143763" lat="53.026528"><ele>288.835449</ele><time>2021-07-17T14:13:09Z</time><extensions><speed>1.145982</speed><course>280.416809</course><hAcc>0.881087</hAcc><vAcc>0.683257</vAcc></extensions></trkpt>
      <trkpt lon="-4.143747" lat="53.026532"><ele>288.855988</ele><time>2021-07-17T14:13:10Z</time><extensions><speed>1.176594</speed><course>289.633057</course><hAcc>0.879665</hAcc><vAcc>0.681306</vAcc></extensions></trkpt>
      <trkpt lon="-4.143731" lat="53.026537"><ele>288.871735</ele><time>2021-07-17T14:13:11Z</time><extensions><speed>1.211150</speed><course>274.042023</course><hAcc>0.878562</hAcc><vAcc>0.679681</vAcc></extensions></trkpt>
      <trkpt lon="-4.143715" lat="53.026542"><ele>288.883972</ele><time>2021-07-17T14:13:12Z</time><extensions><speed>1.246549</speed><course>259.398621</course><hAcc>0.877742</hAcc><vAcc>0.678395</vAcc></extensions></trkpt>
      <trkpt lon="-4.143698" lat="53.026546"><ele>288.894379</ele><time>2021-07-17T14:13:13Z</time><extensions><speed>1.280414</speed><course>235.228027</course><hAcc>0.877163</hAcc><vAcc>0.677442</vAcc></extensions></trkpt>
      <trkpt lon="-4.143680" lat="53.026551"><ele>288.904724</ele><time>2021-07-17T14:13:14Z</time><extensions><speed>1.311377</speed><course>233.943741</course><hAcc>0.876783</hAcc><vAcc>0.676806</vAcc></extensions></trkpt>
      <trkpt lon="-4.143662" lat="53.026556"><ele>288.915649</ele><time>2021-07-17T14:13:15Z</time><extensions><speed>1.338027</speed><course>251.986771</course><hAcc>0.876562</hAcc><vAcc>0.676461</vAcc></extensions></trkpt>
      <trkpt lon="-4.143644" lat="53.026561"><ele>288.926361</ele><time>2021-07-17T14:13:16Z</time><extensions><speed>1.359198</speed><course>230.632401</course><hAcc>0.876469</hAcc><vAcc>0.676376</vAcc></extensions></trkpt>
      <trkpt lon="-4.143625" lat="53.026566"><ele>288.935638</ele><time>2021-07-17T14:13:17Z</time><extensions><speed>1.374631</speed><course>208.539734</course><hAcc>0.876474</hAcc><vAcc>0.676519</vAcc></extensions></trkpt>
      <trkpt lon="-4.143606" lat="53.026570"><ele>288.943024</ele><time>2021-07-17T14:13:18Z</time><extensions><speed>1.384673</speed><course>217.062653</course><hAcc>0.876556</hAcc><vAcc>0.676854</vAcc></extensions></trkpt>
      <trkpt lon="-4.143586" lat="53.026574"><ele>288.948578</ele><time>2021-07-17T14:13:19Z</time><extensions><speed>1.389857</speed><course>216.480164</course><hAcc>0.876697</hAcc><vAcc>0.677349</vAcc></extensions></trkpt>
      <trkpt lon="-4.143567" lat="53.026579"><ele>288.952057</ele><time>2021-07-17T14:13:20Z</time><extensions><speed>1.390602</speed><course>215.204285</course><hAcc>0.876882</hAcc><vAcc>0.677972</vAcc></extensions></trkpt>
      <trkpt lon="-4.143547" lat="53.026583"><ele>288.953064</ele><time>2021-07-17T14:13:21Z</time><extensions><speed>1.387053</speed><course>192.608246</course><hAcc>0.877099</hAcc><vAcc>0.678692</vAcc></extensions></trkpt>
      <trkpt lon="-4.143527" lat="53.026586"><ele>288.951569</ele><time>2021-07-17T14:13:22Z</time><extensions><speed>1.380144</speed><course>196.818375</course><hAcc>0.877338</hAcc><vAcc>0.679477</vAcc></extensions></trkpt>
      <trkpt lon="-4.143508" lat="53.026590"><ele>288.948242</ele><time>2021-07-17T14:13:23Z</time><extensions><speed>1.370705</speed><course>200.564194</course><hAcc>0.877589</hAcc><vAcc>0.680304</vAcc></extensions></trkpt>
      <trkpt lon="-4.143488" lat="53.026593"><ele>288.943390</ele><time>2021-07-17T14:13:24Z</time><extensions><speed>1.358517</speed><course>224.718231</course><hAcc>0.877844</hAcc><vAcc>0.681155</vAcc></extensions></trkpt>
      <trkpt lon="-4.143468" lat="53.026596"><ele>288.936127</ele><time>2021-07-17T14:13:25Z</time><extensions><speed>1.343005</speed><course>228.969803</course><hAcc>0.878097</hAcc><vAcc>0.682014</vAcc></extensions></trkpt>
      <trkpt lon="-4.143449" lat="53.026598"><ele>288.925354</ele><time>2021-07-17T14:13:26Z</time><extensions><speed>1.324006</speed><course>250.366501</course><hAcc>0.878339</hAcc><vAcc>0.682856</vAcc></extensions></trkpt>
      <trkpt lon="-4.143430" lat="53.026601"><ele>288.910492</ele><time>2021-07-17T14:13:27Z</time><extensions><speed>1.301957</speed><course>-1.000000</course><hAcc>0.878558</hAcc><vAcc>0.683641</vAcc></extensions></trkpt>
      <trkpt lon="-4.143411" lat="53.026603"><ele>288.892181</ele><time>2021-07-17T14:13:28Z</time><extensions><speed>1.277458</speed><course>232.063629</course><hAcc>0.878745</hAcc><vAcc>0.684322</vAcc></extensions></trkpt>
      <trkpt lon="-4.143392" lat="53.026605"><ele>288.871674</ele><time>2021-07-17T14:13:29Z</time><extensions><speed>1.251500</speed><course>232.063614</course><hAcc>0.878889</hAcc><vAcc>0.684856</vAcc></extensions></trkpt>
      <trkpt lon="-4.143374" lat="53.026607"><ele>288.849915</ele><time>2021-07-17T14:13:30Z</time><extensions><speed>1.225783</speed><course>232.063614</course><hAcc>0.878983</hAcc><vAcc>0.685208</vAcc></extensions></trkpt>
      <trkpt lon="-4.143356" lat="53.026608"><ele>288.827179</ele><time>2021-07-17T14:13:31Z</time><extensions><speed>1.202206</speed><course>232.063599</course><hAcc>0.879022</hAcc><vAcc>0.685356</vAcc></extensions></trkpt>
      <trkpt lon="-4.143339" lat="53.026609"><ele>288.804138</ele><time>2021-07-17T14:13:32Z</time><extensions><speed>1.181801</speed><course>232.063599</course><hAcc>0.879006</hAcc><vAcc>0.685291</vAcc></extensions></trkpt>
      <trkpt lon="-4.143321" lat="53.026610"><ele>288.782166</ele><time>2021-07-17T14:13:33Z</time><extensions><speed>1.164981</speed><course>232.063583</course><hAcc>0.878939</hAcc><vAcc>0.685025</vAcc></extensions></trkpt>
      <trkpt lon="-4.143304" lat="53.026611"><ele>288.762848</ele><time>2021-07-17T14:13:34Z</time><extensions><speed>1.152441</speed><course>232.063583</course><hAcc>0.878828</hAcc><vAcc>0.684584</vAcc></extensions></trkpt>
      <trkpt lon="-4.143287" lat="53.026611"><ele>288.747467</ele><time>2021-07-17T14:13:35Z</time><extensions><speed>1.144855</speed><course>248.555511</course><hAcc>0.878686</hAcc><vAcc>0.684016</vAcc></extensions></trkpt>
      <trkpt lon="-4.143270" lat="53.026612"><ele>288.736542</ele><time>2021-07-17T14:13:36Z</time><extensions><speed>1.141764</speed><course>214.727661</course><hAcc>0.878527</hAcc><vAcc>0.683383</vAcc></extensions></trkpt>
      <trkpt lon="-4.143253" lat="53.026612"><ele>288.730652</ele><time>2021-07-17T14:13:37Z</time><extensions><speed>1.141745</speed><course>215.656113</course><hAcc>0.878368</hAcc><vAcc>0.682758</vAcc></extensions></trkpt>
      <trkpt lon="-4.143236" lat="53.026611"><ele>288.730652</ele><time>2021-07-17T14:13:38Z</time><extensions><speed>1.144055</speed><course>205.637772</course><hAcc>0.878224</hAcc><vAcc>0.682210</vAcc></extensions></trkpt>
      <trkpt lon="-4.143219" lat="53.026611"><ele>288.737030</ele><time>2021-07-17T14:13:39Z</time><extensions><speed>1.148309</speed><course>201.575424</course><hAcc>0.878106</hAcc><vAcc>0.681788</vAcc></extensions></trkpt>
      <trkpt lon="-4.143202" lat="53.026610"><ele>288.749023</ele><time>2021-07-17T14:13:40Z</time><extensions><speed>1.154083</speed><course>196.854248</course><hAcc>0.878024</hAcc><vAcc>0.681516</vAcc></extensions></trkpt>
      <trkpt lon="-4.143184" lat="53.026609"><ele>288.765533</ele><time>2021-07-17T14:13:41Z</time><extensions><speed>1.161343</speed><course>198.264053</course><hAcc>0.877977</hAcc><vAcc>0.681394</vAcc></extensions></trkpt>
      <trkpt lon="-4.143167" lat="53.026608"><ele>288.785645</ele><time>2021-07-17T14:13:42Z</time><extensions><speed>1.170212</speed><course>198.636932</course><hAcc>0.877966</hAcc><vAcc>0.681400</vAcc></extensions></trkpt>
      <trkpt lon="-4.143150" lat="53.026607"><ele>288.808899</ele><time>2021-07-17T14:13:43Z</time><extensions><speed>1.180511</speed><course>192.727798</course><hAcc>0.877987</hAcc><vAcc>0.681512</vAcc></extensions></trkpt>
      <trkpt lon="-4.143132" lat="53.026606"><ele>288.835083</ele><time>2021-07-17T14:13:44Z</time><extensions><speed>1.190962</speed><course>184.691818</course><hAcc>0.878033</hAcc><vAcc>0.681703</vAcc></extensions></trkpt>
      <trkpt lon="-4.143114" lat="53.026605"><ele>288.863464</ele><time>2021-07-17T14:13:45Z</time><extensions><speed>1.199964</speed><course>177.917740</course><hAcc>0.878101</hAcc><vAcc>0.681950</vAcc></extensions></trkpt>
      <trkpt lon="-4.143097" lat="53.026604"><ele>288.893402</ele><time>2021-07-17T14:13:46Z</time><extensions><speed>1.206888</speed><course>169.935883</course><hAcc>0.878186</hAcc><vAcc>0.682234</vAcc></extensions></trkpt>
      <trkpt lon="-4.143079" lat="53.026602"><ele>288.924866</ele><time>2021-07-17T14:13:47Z</time><extensions><speed>1.211929</speed><course>168.290512</course><hAcc>0.878283</hAcc><vAcc>0.682544</vAcc></extensions></trkpt>
      <trkpt lon="-4.143061" lat="53.026601"><ele>288.958099</ele><time>2021-07-17T14:13:48Z</time><extensions><speed>1.215988</speed><course>175.847488</course><hAcc>0.878388</hAcc><vAcc>0.682872</vAcc></extensions></trkpt>
      <trkpt lon="-4.143043" lat="53.026600"><ele>288.992767</ele><time>2021-07-17T14:13:49Z</time><extensions><speed>1.219729</speed><course>182.489380</course><hAcc>0.878500</hAcc><vAcc>0.683217</vAcc></extensions></trkpt>
      <trkpt lon="-4.143025" lat="53.026599"><ele>289.027496</ele><time>2021-07-17T14:13:50Z</time><extensions><speed>1.222865</speed><course>193.224472</course><hAcc>0.878615</hAcc><vAcc>0.683580</vAcc></extensions></trkpt>
      <trkpt lon="-4.143006" lat="53.026598"><ele>289.060699</ele><time>2021-07-17T14:13:51Z</time><extensions><speed>1.224461</speed><course>210.457108</course><hAcc>0.878731</hAcc><vAcc>0.683957</vAcc></extensions></trkpt>
      <trkpt lon="-4.142988" lat="53.026597"><ele>289.091248</ele><time>2021-07-17T14:13:52Z</time><extensions><speed>1.223391</speed><course>227.054108</course><hAcc>0.878843</hAcc><vAcc>0.684337</vAcc></extensions></trkpt>
      <trkpt lon="-4.142970" lat="53.026596"><ele>289.118835</ele><time>2021-07-17T14:13:53Z</time><extensions><speed>1.219049</speed><course>247.666534</course><hAcc>0.878944</hAcc><vAcc>0.684696</vAcc></extensions></trkpt>
      <trkpt lon="-4.142952" lat="53.026596"><ele>289.143768</ele><time>2021-07-17T14:13:54Z</time><extensions><speed>1.211772</speed><course>261.197876</course><hAcc>0.879029</hAcc><vAcc>0.685004</vAcc></extensions></trkpt>
      <trkpt lon="-4.142934" lat="53.026595"><ele>289.166016</ele><time>2021-07-17T14:13:55Z</time><extensions><speed>1.203187</speed><course>263.217255</course><hAcc>0.879090</hAcc><vAcc>0.685232</vAcc></extensions></trkpt>
      <trkpt lon="-4.142916" lat="53.026594"><ele>289.184021</ele><time>2021-07-17T14:13:56Z</time><extensions><speed>1.195365</speed><course>271.463165</course><hAcc>0.879121</hAcc><vAcc>0.685354</vAcc></extensions></trkpt>
      <trkpt lon="-4.142898" lat="53.026594"><ele>289.195099</ele><time>2021-07-17T14:13:57Z</time><extensions><speed>1.189524</speed><course>281.991608</course><hAcc>0.879117</hAcc><vAcc>0.685345</vAcc></extensions></trkpt>
      <trkpt lon="-4.142881" lat="53.026594"><ele>289.196991</ele><time>2021-07-17T14:13:58Z</time><extensions><speed>1.185998</speed><course>285.895782</course><hAcc>0.879054</hAcc><vAcc>0.685173</vAcc></extensions></trkpt>
      <trkpt lon="-4.142863" lat="53.026593"><ele>289.188629</ele><time>2021-07-17T14:13:59Z</time><extensions><speed>1.185700</speed><course>287.327179</course><hAcc>0.878931</hAcc><vAcc>0.684827</vAcc></extensions></trkpt>
      <trkpt lon="-4.142845" lat="53.026593"><ele>289.169617</ele><time>2021-07-17T14:14:00Z</time><extensions><speed>1.190572</speed><course>297.396240</course><hAcc>0.878763</hAcc><vAcc>0.684318</vAcc></extensions></trkpt>
      <trkpt lon="-4.142828" lat="53.026593"><ele>289.138794</ele><time>2021-07-17T14:14:01Z</time><extensions><speed>1.201130</speed><course>299.473175</course><hAcc>0.878552</hAcc><vAcc>0.683653</vAcc></extensions></trkpt>
      <trkpt lon="-4.142810" lat="53.026593"><ele>289.094971</ele><time>2021-07-17T14:14:02Z</time><extensions><speed>1.216344</speed><course>297.683289</course><hAcc>0.878301</hAcc><vAcc>0.682848</vAcc></extensions></trkpt>
      <trkpt lon="-4.142791" lat="53.026593"><ele>289.037567</ele><time>2021-07-17T14:14:03Z</time><extensions><speed>1.235878</speed><course>292.365356</course><hAcc>0.878015</hAcc><vAcc>0.681919</vAcc></extensions></trkpt>
      <trkpt lon="-4.142773" lat="53.026593"><ele>288.966919</ele><time>2021-07-17T14:14:04Z</time><extensions><speed>1.260841</speed><course>291.092651</course><hAcc>0.877701</hAcc><vAcc>0.680887</vAcc></extensions></trkpt>
      <trkpt lon="-4.142754" lat="53.026593"><ele>288.883545</ele><time>2021-07-17T14:14:05Z</time><extensions><speed>1.292969</speed><course>297.007721</course><hAcc>0.877367</hAcc><vAcc>0.679781</vAcc></extensions></trkpt>
      <trkpt lon="-4.142734" lat="53.026593"><ele>288.788269</ele><time>2021-07-17T14:14:06Z</time><extensions><speed>1.332009</speed><course>291.539093</course><hAcc>0.877026</hAcc><vAcc>0.678641</vAcc></extensions></trkpt>
      <trkpt lon="-4.142714" lat="53.026594"><ele>288.682770</ele><time>2021-07-17T14:14:07Z</time><extensions><speed>1.375433</speed><course>293.314819</course><hAcc>0.876691</hAcc><vAcc>0.677517</vAcc></extensions></trkpt>
      <trkpt lon="-4.142693" lat="53.026595"><ele>288.569122</ele><time>2021-07-17T14:14:08Z</time><extensions><speed>1.420549</speed><course>297.043213</course><hAcc>0.876377</hAcc><vAcc>0.676461</vAcc></extensions></trkpt>
      <trkpt lon="-4.142672" lat="53.026595"><ele>288.449036</ele><time>2021-07-17T14:14:09Z</time><extensions><speed>1.464352</speed><course>301.573547</course><hAcc>0.876099</hAcc><vAcc>0.675528</vAcc></extensions></trkpt>
      <trkpt lon="-4.142650" lat="53.026596"><ele>288.324402</ele><time>2021-07-17T14:14:10Z</time><extensions><speed>1.503316</speed><course>305.542847</course><hAcc>0.875875</hAcc><vAcc>0.674775</vAcc></extensions></trkpt>
      <trkpt lon="-4.142627" lat="53.026598"><ele>288.197968</ele><time>2021-07-17T14:14:11Z</time><extensions><speed>1.534800</speed><course>304.461029</course><hAcc>0.875741</hAcc><vAcc>0.674255</vAcc></extensions></trkpt>
      <trkpt lon="-4.142604" lat="53.026599"><ele>288.072418</ele><time>2021-07-17T14:14:12Z</time><extensions><speed>1.557411</speed><course>304.519958</course><hAcc>0.875712</hAcc><vAcc>0.673990</vAcc></extensions></trkpt>
      <trkpt lon="-4.142581" lat="53.026600"><ele>287.950378</ele><time>2021-07-17T14:14:13Z</time><extensions><speed>1.570721</speed><course>306.835541</course><hAcc>0.875788</hAcc><vAcc>0.673968</vAcc></extensions></trkpt>
      <trkpt lon="-4.142558" lat="53.026602"><ele>287.833038</ele><time>2021-07-17T14:14:14Z</time><extensions><speed>1.575598</speed><course>312.924469</course><hAcc>0.875990</hAcc><vAcc>0.674179</vAcc></extensions></trkpt>
      <trkpt lon="-4.142534" lat="53.026603"><ele>287.719879</ele><time>2021-07-17T14:14:15Z</time><extensions><speed>1.573195</speed><course>313.121582</course><hAcc>0.876344</hAcc><vAcc>0.674606</vAcc></extensions></trkpt>
      <trkpt lon="-4.142511" lat="53.026605"><ele>287.610229</ele><time>2021-07-17T14:14:16Z</time><extensions><speed>1.564330</speed><course>312.363678</course><hAcc>0.876876</hAcc><vAcc>0.675217</vAcc></extensions></trkpt>
      <trkpt lon="-4.142488" lat="53.026606"><ele>287.504456</ele><time>2021-07-17T14:14:17Z</time><extensions><speed>1.549973</speed><course>309.905548</course><hAcc>0.877618</hAcc><vAcc>0.675968</vAcc></extensions></trkpt>
      <trkpt lon="-4.142465" lat="53.026608"><ele>287.403351</ele><time>2021-07-17T14:14:18Z</time><extensions><speed>1.531703</speed><course>308.597687</course><hAcc>0.878597</hAcc><vAcc>0.676813</vAcc></extensions></trkpt>
      <trkpt lon="-4.142443" lat="53.026610"><ele>287.307251</ele><time>2021-07-17T14:14:19Z</time><extensions><speed>1.510774</speed><course>307.103394</course><hAcc>0.879837</hAcc><vAcc>0.677714</vAcc></extensions></trkpt>
      <trkpt lon="-4.142421" lat="53.026612"><ele>287.215454</ele><time>2021-07-17T14:14:20Z</time><extensions><speed>1.487487</speed><course>306.897400</course><hAcc>0.881345</hAcc><vAcc>0.678643</vAcc></extensions></trkpt>
      <trkpt lon="-4.142399" lat="53.026614"><ele>287.126556</ele><time>2021-07-17T14:14:21Z</time><extensions><speed>1.461997</speed><course>302.152618</course><hAcc>0.883102</hAcc><vAcc>0.679570</vAcc></extensions></trkpt>
      <trkpt lon="-4.142378" lat="53.026616"><ele>287.039124</ele><time>2021-07-17T14:14:22Z</time><extensions><speed>1.435744</speed><course>297.726410</course><hAcc>0.885044</hAcc><vAcc>0.680450</vAcc></extensions></trkpt>
      <trkpt lon="-4.142357" lat="53.026618"><ele>286.951080</ele><time>2021-07-17T14:14:23Z</time><extensions><speed>1.410832</speed><course>300.194183</course><hAcc>0.887053</hAcc><vAcc>0.681215</vAcc></extensions></trkpt>
      <trkpt lon="-4.142336" lat="53.026619"><ele>286.860046</ele><time>2021-07-17T14:14:24Z</time><extensions><speed>1.388182</speed><course>297.151825</course><hAcc>0.888954</hAcc><vAcc>0.681768</vAcc></extensions></trkpt>
      <trkpt lon="-4.142316" lat="53.026621"><ele>286.764526</ele><time>2021-07-17T14:14:25Z</time><extensions><speed>1.367347</speed><course>298.399384</course><hAcc>0.890529</hAcc><vAcc>0.681996</vAcc></extensions></trkpt>
      <trkpt lon="-4.142295" lat="53.026622"><ele>286.663544</ele><time>2021-07-17T14:14:26Z</time><extensions><speed>1.347166</speed><course>300.837921</course><hAcc>0.891568</hAcc><vAcc>0.681819</vAcc></extensions></trkpt>
      <trkpt lon="-4.142276" lat="53.026624"><ele>286.555573</ele><time>2021-07-17T14:14:27Z</time><extensions><speed>1.326472</speed><course>299.844330</course><hAcc>0.891967</hAcc><vAcc>0.681268</vAcc></extensions></trkpt>
      <trkpt lon="-4.142256" lat="53.026625"><ele>286.438965</ele><time>2021-07-17T14:14:28Z</time><extensions><speed>1.304783</speed><course>300.001373</course><hAcc>0.891895</hAcc><vAcc>0.680629</vAcc></extensions></trkpt>
      <trkpt lon="-4.142237" lat="53.026626"><ele>286.312683</ele><time>2021-07-17T14:14:29Z</time><extensions><speed>1.281821</speed><course>294.568817</course><hAcc>0.892059</hAcc><vAcc>0.680637</vAcc></extensions></trkpt>
      <trkpt lon="-4.142218" lat="53.026627"><ele>286.176117</ele><time>2021-07-17T14:14:30Z</time><extensions><speed>1.257530</speed><course>300.687103</course><hAcc>0.894078</hAcc><vAcc>0.682738</vAcc></extensions></trkpt>
      <trkpt lon="-4.142200" lat="53.026628"><ele>286.028931</ele><time>2021-07-17T14:14:31Z</time><extensions><speed>1.232894</speed><course>297.691925</course><hAcc>0.900951</hAcc><vAcc>0.689392</vAcc></extensions></trkpt>
      <trkpt lon="-4.142181" lat="53.026628"><ele>285.871124</ele><time>2021-07-17T14:14:32Z</time><extensions><speed>1.209991</speed><course>293.928223</course><hAcc>0.917507</hAcc><vAcc>0.704311</vAcc></extensions></trkpt>
      <trkpt lon="-4.142164" lat="53.026628"><ele>285.703156</ele><time>2021-07-17T14:14:33Z</time><extensions><speed>1.190775</speed><course>297.041656</course><hAcc>0.950585</hAcc><vAcc>0.732441</vAcc></extensions></trkpt>
      <trkpt lon="-4.142147" lat="53.026625"><ele>285.300812</ele><time>2021-07-17T14:14:34Z</time><extensions><speed>1.070682</speed><course>207.637573</course><hAcc>0.914373</hAcc><vAcc>0.702077</vAcc></extensions></trkpt>
      <trkpt lon="-4.142132" lat="53.026621"><ele>285.111420</ele><time>2021-07-17T14:14:35Z</time><extensions><speed>1.067892</speed><course>199.781464</course><hAcc>0.896939</hAcc><vAcc>0.685624</vAcc></extensions></trkpt>
      <trkpt lon="-4.142118" lat="53.026617"><ele>284.929840</ele><time>2021-07-17T14:14:36Z</time><extensions><speed>1.066500</speed><course>204.898392</course><hAcc>0.890362</hAcc><vAcc>0.678357</vAcc></extensions></trkpt>
      <trkpt lon="-4.142104" lat="53.026613"><ele>284.760132</ele><time>2021-07-17T14:14:37Z</time><extensions><speed>1.065906</speed><course>218.988647</course><hAcc>0.889112</hAcc><vAcc>0.676083</vAcc></extensions></trkpt>
      <trkpt lon="-4.142090" lat="53.026608"><ele>284.606781</ele><time>2021-07-17T14:14:38Z</time><extensions><speed>1.064882</speed><course>240.875916</course><hAcc>0.889754</hAcc><vAcc>0.676007</vAcc></extensions></trkpt>
      <trkpt lon="-4.142076" lat="53.026603"><ele>284.473389</ele><time>2021-07-17T14:14:39Z</time><extensions><speed>1.062995</speed><course>240.875916</course><hAcc>0.890454</hAcc><vAcc>0.676494</vAcc></extensions></trkpt>
      <trkpt lon="-4.142063" lat="53.026598"><ele>284.361664</ele><time>2021-07-17T14:14:40Z</time><extensions><speed>1.060635</speed><course>240.875916</course><hAcc>0.890432</hAcc><vAcc>0.676747</vAcc></extensions></trkpt>
      <trkpt lon="-4.142050" lat="53.026593"><ele>284.271423</ele><time>2021-07-17T14:14:41Z</time><extensions><speed>1.058137</speed><course>240.875916</course><hAcc>0.889535</hAcc><vAcc>0.676501</vAcc></extensions></trkpt>
      <trkpt lon="-4.142037" lat="53.026587"><ele>284.201324</ele><time>2021-07-17T14:14:42Z</time><extensions><speed>1.055658</speed><course>240.875916</course><hAcc>0.887926</hAcc><vAcc>0.675789</vAcc></extensions></trkpt>
      <trkpt lon="-4.142024" lat="53.026582"><ele>284.149475</ele><time>2021-07-17T14:14:43Z</time><extensions><speed>1.053135</speed><course>240.875916</course><hAcc>0.885888</hAcc><vAcc>0.674779</vAcc></extensions></trkpt>
      <trkpt lon="-4.142012" lat="53.026576"><ele>284.113556</ele><time>2021-07-17T14:14:44Z</time><extensions><speed>1.050511</speed><course>269.430084</course><hAcc>0.883710</hAcc><vAcc>0.673679</vAcc></extensions></trkpt>
      <trkpt lon="-4.142000" lat="53.026570"><ele>284.090881</ele><time>2021-07-17T14:14:45Z</time><extensions><speed>1.047621</speed><course>274.056000</course><hAcc>0.881630</hAcc><vAcc>0.672674</vAcc></extensions></trkpt>
      <trkpt lon="-4.141988" lat="53.026564"><ele>284.078644</ele><time>2021-07-17T14:14:46Z</time><extensions><speed>1.044070</speed><course>273.580658</course><hAcc>0.879812</hAcc><vAcc>0.671920</vAcc></extensions></trkpt>
      <trkpt lon="-4.141976" lat="53.026558"><ele>284.074280</ele><time>2021-07-17T14:14:47Z</time><extensions><speed>1.039634</speed><course>266.285736</course><hAcc>0.878352</hAcc><vAcc>0.671524</vAcc></extensions></trkpt>
      <trkpt lon="-4.141964" lat="53.026552"><ele>284.075317</ele><time>2021-07-17T14:14:48Z</time><extensions><speed>1.034525</speed><course>280.416809</course><hAcc>0.877283</hAcc><vAcc>0.671544</vAcc></extensions></trkpt>
      <trkpt lon="-4.141952" lat="53.026546"><ele>284.079132</ele><time>2021-07-17T14:14:49Z</time><extensions><speed>1.029189</speed><course>289.633057</course><hAcc>0.876595</hAcc><vAcc>0.671990</vAcc></extensions></trkpt>
      <trkpt lon="-4.141941" lat="53.026540"><ele>284.082672</ele><time>2021-07-17T14:14:50Z</time><extensions><speed>1.023573</speed><course>274.042023</course><hAcc>0.876245</hAcc><vAcc>0.672827</vAcc></extensions></trkpt>
      <trkpt lon="-4.141929" lat="53.026534"><ele>284.083282</ele><time>2021-07-17T14:14:51Z</time><extensions><speed>1.017002</speed><course>259.398621</course><hAcc>0.876174</hAcc><vAcc>0.673984</vAcc></extensions></trkpt>
      <trkpt lon="-4.141917" lat="53.026528"><ele>284.079254</ele><time>2021-07-17T14:14:52Z</time><extensions><speed>1.009058</speed><course>235.228027</course><hAcc>0.876315</hAcc><vAcc>0.675368</vAcc></extensions></trkpt>
      <trkpt lon="-4.141905" lat="53.026523"><ele>284.069458</ele><time>2021-07-17T14:14:53Z</time><extensions><speed>0.999550</speed><course>233.943741</course><hAcc>0.876606</hAcc><vAcc>0.676882</vAcc></extensions></trkpt>
      <trkpt lon="-4.141894" lat="53.026518"><ele>284.053162</ele><time>2021-07-17T14:14:54Z</time><extensions><speed>0.988760</speed><course>251.986771</course><hAcc>0.876990</hAcc><vAcc>0.678443</vAcc></extensions></trkpt>
      <trkpt lon="-4.141881" lat="53.026513"><ele>284.029938</ele><time>2021-07-17T14:14:55Z</time><extensions><speed>0.977472</speed><course>230.632401</course><hAcc>0.877426</hAcc><vAcc>0.679993</vAcc></extensions></trkpt>
      <trkpt lon="-4.141869" lat="53.026508"><ele>283.999878</ele><time>2021-07-17T14:14:56Z</time><extensions><speed>0.965878</speed><course>208.539734</course><hAcc>0.877881</hAcc><vAcc>0.681500</vAcc></extensions></trkpt>
      <trkpt lon="-4.141857" lat="53.026504"><ele>283.963593</ele><time>2021-07-17T14:14:57Z</time><extensions><speed>0.953045</speed><course>217.062653</course><hAcc>0.878333</hAcc><vAcc>0.682951</vAcc></extensions></trkpt>
      <trkpt lon="-4.141844" lat="53.026500"><ele>283.922119</ele><time>2021-07-17T14:14:58Z</time><extensions><speed>0.939279</speed><course>216.480164</course><hAcc>0.878764</hAcc><vAcc>0.684326</vAcc></extensions></trkpt>
      <trkpt lon="-4.141831" lat="53.026496"><ele>283.876251</ele><time>2021-07-17T14:14:59Z</time><extensions><speed>0.925589</speed><course>215.204285</course><hAcc>0.879162</hAcc><vAcc>0.685603</vAcc></extensions></trkpt>
      <trkpt lon="-4.141819" lat="53.026493"><ele>283.826691</ele><time>2021-07-17T14:15:00Z</time><extensions><speed>0.910892</speed><course>192.608246</course><hAcc>0.879515</hAcc><vAcc>0.686760</vAcc></extensions></trkpt>
      <trkpt lon="-4.141806" lat="53.026491"><ele>283.773590</ele><time>2021-07-17T14:15:01Z</time><extensions><speed>0.893289</speed><course>196.818375</course><hAcc>0.879816</hAcc><vAcc>0.687775</vAcc></extensions></trkpt>
      <trkpt lon="-4.141793" lat="53.026488"><ele>283.716888</ele><time>2021-07-17T14:15:02Z</time><extensions><speed>0.870789</speed><course>200.564194</course><hAcc>0.880055</hAcc><vAcc>0.688611</vAcc></extensions></trkpt>
      <trkpt lon="-4.141781" lat="53.026486"><ele>283.656555</ele><time>2021-07-17T14:15:03Z</time><extensions><speed>0.842959</speed><course>224.718231</course><hAcc>0.880227</hAcc><vAcc>0.689224</vAcc></extensions></trkpt>
      <trkpt lon="-4.141769" lat="53.026484"><ele>283.592560</ele><time>2021-07-17T14:15:04Z</time><extensions><speed>0.811982</speed><course>228.969803</course><hAcc>0.880323</hAcc><vAcc>0.689578</vAcc></extensions></trkpt>
      <trkpt lon="-4.141758" lat="53.026483"><ele>283.524963</ele><time>2021-07-17T14:15:05Z</time><extensions><speed>0.780573</speed><course>250.366501</course><hAcc>0.880342</hAcc><vAcc>0.689653</vAcc></extensions></trkpt>
      <trkpt lon="-4.141747" lat="53.026481"><ele>283.453674</ele><time>2021-07-17T14:15:06Z</time><extensions><speed>0.751036</speed><course>-1.000000</course><hAcc>0.880283</hAcc><vAcc>0.689448</vAcc></extensions></trkpt>
      <trkpt lon="-4.141736" lat="53.026480"><ele>283.378937</ele><time>2021-07-17T14:15:07Z</time><extensions><speed>0.725352</speed><course>232.063629</course><hAcc>0.880149</hAcc><vAcc>0.688977</vAcc></extensions></trkpt>
      <trkpt lon="-4.141725" lat="53.026479"><ele>283.301056</ele><time>2021-07-17T14:15:08Z</time><extensions><speed>0.704885</speed><course>232.063614</course><hAcc>0.879944</hAcc><vAcc>0.688266</vAcc></extensions></trkpt>
      <trkpt lon="-4.141715" lat="53.026478"><ele>283.220490</ele><time>2021-07-17T14:15:09Z</time><extensions><speed>0.690256</speed><course>232.063614</course><hAcc>0.879676</hAcc><vAcc>0.687350</vAcc></extensions></trkpt>
      <trkpt lon="-4.141705" lat="53.026477"><ele>283.138031</ele><time>2021-07-17T14:15:10Z</time><extensions><speed>0.681943</speed><course>232.063599</course><hAcc>0.879352</hAcc><vAcc>0.686268</vAcc></extensions></trkpt>
      <trkpt lon="-4.141695" lat="53.026475"><ele>283.054596</ele><time>2021-07-17T14:15:11Z</time><extensions><speed>0.679965</speed><course>232.063599</course><hAcc>0.878980</hAcc><vAcc>0.685058</vAcc></extensions></trkpt>
      <trkpt lon="-4.141685" lat="53.026474"><ele>282.971375</ele><time>2021-07-17T14:15:12Z</time><extensions><speed>0.683230</speed><course>232.063583</course><hAcc>0.878565</hAcc><vAcc>0.683747</vAcc></extensions></trkpt>
      <trkpt lon="-4.141675" lat="53.026472"><ele>282.889435</ele><time>2021-07-17T14:15:13Z</time><extensions><speed>0.690581</speed><course>232.063583</course><hAcc>0.878112</hAcc><vAcc>0.682343</vAcc></extensions></trkpt>
      <trkpt lon="-4.141665" lat="53.026471"><ele>282.809967</ele><time>2021-07-17T14:15:14Z</time><extensions><speed>0.701238</speed><course>248.555511</course><hAcc>0.877622</hAcc><vAcc>0.680833</vAcc></extensions></trkpt>
      <trkpt lon="-4.141655" lat="53.026468"><ele>282.733734</ele><time>2021-07-17T14:15:15Z</time><extensions><speed>0.714049</speed><course>214.727661</course><hAcc>0.877097</hAcc><vAcc>0.679204</vAcc></extensions></trkpt>
      <trkpt lon="-4.141646" lat="53.026466"><ele>282.661072</ele><time>2021-07-17T14:15:16Z</time><extensions><speed>0.727768</speed><course>215.656113</course><hAcc>0.876541</hAcc><vAcc>0.677449</vAcc></extensions></trkpt>
      <trkpt lon="-4.141636" lat="53.026463"><ele>282.591980</ele><time>2021-07-17T14:15:17Z</time><extensions><speed>0.741217</speed><course>205.637772</course><hAcc>0.875958</hAcc><vAcc>0.675587</vAcc></extensions></trkpt>
      <trkpt lon="-4.141626" lat="53.026460"><ele>282.526093</ele><time>2021-07-17T14:15:18Z</time><extensions><speed>0.753174</speed><course>201.575424</course><hAcc>0.875357</hAcc><vAcc>0.673653</vAcc></extensions></trkpt>
      <trkpt lon="-4.141616" lat="53.026456"><ele>282.462860</ele><time>2021-07-17T14:15:19Z</time><extensions><speed>0.762987</speed><course>196.854248</course><hAcc>0.874750</hAcc><vAcc>0.671694</vAcc></extensions></trkpt>
      <trkpt lon="-4.141607" lat="53.026452"><ele>282.401703</ele><time>2021-07-17T14:15:20Z</time><extensions><speed>0.770037</speed><course>198.264053</course><hAcc>0.874144</hAcc><vAcc>0.669759</vAcc></extensions></trkpt>
      <trkpt lon="-4.141598" lat="53.026448"><ele>282.342133</ele><time>2021-07-17T14:15:21Z</time><extensions><speed>0.773688</speed><course>198.636932</course><hAcc>0.873547</hAcc><vAcc>0.667877</vAcc></extensions></trkpt>
      <trkpt lon="-4.141589" lat="53.026443"><ele>282.283752</ele><time>2021-07-17T14:15:22Z</time><extensions><speed>0.773760</speed><course>192.727798</course><hAcc>0.872962</hAcc><vAcc>0.666057</vAcc></extensions></trkpt>
      <trkpt lon="-4.141581" lat="53.026439"><ele>282.226227</ele><time>2021-07-17T14:15:23Z</time><extensions><speed>0.769912</speed><course>184.691818</course><hAcc>0.872388</hAcc><vAcc>0.664284</vAcc></extensions></trkpt>
      <trkpt lon="-4.141573" lat="53.026434"><ele>282.169189</ele><time>2021-07-17T14:15:24Z</time><extensions><speed>0.761801</speed><course>177.917740</course><hAcc>0.871820</hAcc><vAcc>0.662530</vAcc></extensions></trkpt>
      <trkpt lon="-4.141566" lat="53.026428"><ele>282.112091</ele><time>2021-07-17T14:15:25Z</time><extensions><speed>0.749600</speed><course>169.935883</course><hAcc>0.871262</hAcc><vAcc>0.660781</vAcc></extensions></trkpt>
      <trkpt lon="-4.141559" lat="53.026423"><ele>282.054688</ele><time>2021-07-17T14:15:26Z</time><extensions><speed>0.733608</speed><course>168.290512</course><hAcc>0.870721</hAcc><vAcc>0.659056</vAcc></extensions></trkpt>
      <trkpt lon="-4.141552" lat="53.026418"><ele>281.997040</ele><time>2021-07-17T14:15:27Z</time><extensions><speed>0.714919</speed><course>175.847488</course><hAcc>0.870213</hAcc><vAcc>0.657402</vAcc></extensions></trkpt>
      <trkpt lon="-4.141547" lat="53.026413"><ele>281.939301</ele><time>2021-07-17T14:15:28Z</time><extensions><speed>0.695851</speed><course>182.489380</course><hAcc>0.869760</hAcc><vAcc>0.655896</vAcc></extensions></trkpt>
      <trkpt lon="-4.141542" lat="53.026407"><ele>281.881989</ele><time>2021-07-17T14:15:29Z</time><extensions><speed>0.678474</speed><course>193.224472</course><hAcc>0.869388</hAcc><vAcc>0.654635</vAcc></extensions></trkpt>
      <trkpt lon="-4.141537" lat="53.026402"><ele>281.826141</ele><time>2021-07-17T14:15:30Z</time><extensions><speed>0.663676</speed><course>210.457108</course><hAcc>0.869125</hAcc><vAcc>0.653726</vAcc></extensions></trkpt>
      <trkpt lon="-4.141533" lat="53.026397"><ele>281.773132</ele><time>2021-07-17T14:15:31Z</time><extensions><speed>0.651728</speed><course>227.054108</course><hAcc>0.868998</hAcc><vAcc>0.653264</vAcc></extensions></trkpt>
      <trkpt lon="-4.141529" lat="53.026391"><ele>281.724426</ele><time>2021-07-17T14:15:32Z</time><extensions><speed>0.642524</speed><course>247.666534</course><hAcc>0.869022</hAcc><vAcc>0.653313</vAcc></extensions></trkpt>
      <trkpt lon="-4.141526" lat="53.026386"><ele>281.681183</ele><time>2021-07-17T14:15:33Z</time><extensions><speed>0.635628</speed><course>261.197876</course><hAcc>0.869203</hAcc><vAcc>0.653893</vAcc></extensions></trkpt>
      <trkpt lon="-4.141524" lat="53.026380"><ele>281.644043</ele><time>2021-07-17T14:15:34Z</time><extensions><speed>0.630308</speed><course>263.217255</course><hAcc>0.869535</hAcc><vAcc>0.654988</vAcc></extensions></trkpt>
      <trkpt lon="-4.141521" lat="53.026375"><ele>281.613190</ele><time>2021-07-17T14:15:35Z</time><extensions><speed>0.625456</speed><course>271.463165</course><hAcc>0.870004</hAcc><vAcc>0.656556</vAcc></extensions></trkpt>
      <trkpt lon="-4.141519" lat="53.026369"><ele>281.588959</ele><time>2021-07-17T14:15:36Z</time><extensions><speed>0.620439</speed><course>281.991608</course><hAcc>0.870590</hAcc><vAcc>0.658529</vAcc></extensions></trkpt>
      <trkpt lon="-4.141518" lat="53.026364"><ele>281.571533</ele><time>2021-07-17T14:15:37Z</time><extensions><speed>0.615456</speed><course>285.895782</course><hAcc>0.871264</hAcc><vAcc>0.660819</vAcc></extensions></trkpt>
      <trkpt lon="-4.141517" lat="53.026358"><ele>281.560608</ele><time>2021-07-17T14:15:38Z</time><extensions><speed>0.611058</speed><course>287.327179</course><hAcc>0.871994</hAcc><vAcc>0.663321</vAcc></extensions></trkpt>
      <trkpt lon="-4.141516" lat="53.026353"><ele>281.555817</ele><time>2021-07-17T14:15:39Z</time><extensions><speed>0.607550</speed><course>297.396240</course><hAcc>0.872743</hAcc><vAcc>0.665909</vAcc></extensions></trkpt>
      <trkpt lon="-4.141515" lat="53.026348"><ele>281.557190</ele><time>2021-07-17T14:15:40Z</time><extensions><speed>0.605208</speed><course>299.473175</course><hAcc>0.873469</hAcc><vAcc>0.668431</vAcc></extensions></trkpt>
      <trkpt lon="-4.141515" lat="53.026342"><ele>281.564789</ele><time>2021-07-17T14:15:41Z</time><extensions><speed>0.604861</speed><course>297.683289</course><hAcc>0.874126</hAcc><vAcc>0.670717</vAcc></extensions></trkpt>
      <trkpt lon="-4.141516" lat="53.026337"><ele>281.578339</ele><time>2021-07-17T14:15:42Z</time><extensions><speed>0.607711</speed><course>292.365356</course><hAcc>0.874674</hAcc><vAcc>0.672607</vAcc></extensions></trkpt>
      <trkpt lon="-4.141517" lat="53.026331"><ele>281.597717</ele><time>2021-07-17T14:15:43Z</time><extensions><speed>0.614690</speed><course>291.092651</course><hAcc>0.875081</hAcc><vAcc>0.673975</vAcc></extensions></trkpt>
      <trkpt lon="-4.141518" lat="53.026326"><ele>281.622864</ele><time>2021-07-17T14:15:44Z</time><extensions><speed>0.626175</speed><course>297.007721</course><hAcc>0.875326</hAcc><vAcc>0.674745</vAcc></extensions></trkpt>
      <trkpt lon="-4.141520" lat="53.026320"><ele>281.653412</ele><time>2021-07-17T14:15:45Z</time><extensions><speed>0.641931</speed><course>291.539093</course><hAcc>0.875402</hAcc><vAcc>0.674895</vAcc></extensions></trkpt>
      <trkpt lon="-4.141522" lat="53.026314"><ele>281.688812</ele><time>2021-07-17T14:15:46Z</time><extensions><speed>0.661268</speed><course>293.314819</course><hAcc>0.875315</hAcc><vAcc>0.674462</vAcc></extensions></trkpt>
      <trkpt lon="-4.141524" lat="53.026308"><ele>281.727966</ele><time>2021-07-17T14:15:47Z</time><extensions><speed>0.683215</speed><course>297.043213</course><hAcc>0.875083</hAcc><vAcc>0.673522</vAcc></extensions></trkpt>
      <trkpt lon="-4.141526" lat="53.026302"><ele>281.769897</ele><time>2021-07-17T14:15:48Z</time><extensions><speed>0.706709</speed><course>301.573547</course><hAcc>0.874733</hAcc><vAcc>0.672185</vAcc></extensions></trkpt>
      <trkpt lon="-4.141529" lat="53.026296"><ele>281.813965</ele><time>2021-07-17T14:15:49Z</time><extensions><speed>0.731091</speed><course>305.542847</course><hAcc>0.874294</hAcc><vAcc>0.670577</vAcc></extensions></trkpt>
      <trkpt lon="-4.141531" lat="53.026290"><ele>281.859955</ele><time>2021-07-17T14:15:50Z</time><extensions><speed>0.755629</speed><course>304.461029</course><hAcc>0.873801</hAcc><vAcc>0.668827</vAcc></extensions></trkpt>
      <trkpt lon="-4.141533" lat="53.026283"><ele>281.907623</ele><time>2021-07-17T14:15:51Z</time><extensions><speed>0.779191</speed><course>304.519958</course><hAcc>0.873284</hAcc><vAcc>0.667052</vAcc></extensions></trkpt>
      <trkpt lon="-4.141534" lat="53.026276"><ele>281.957062</ele><time>2021-07-17T14:15:52Z</time><extensions><speed>0.801283</speed><course>306.835541</course><hAcc>0.872768</hAcc><vAcc>0.665339</vAcc></extensions></trkpt>
      <trkpt lon="-4.141535" lat="53.026268"><ele>282.009186</ele><time>2021-07-17T14:15:53Z</time><extensions><speed>0.822094</speed><course>312.924469</course><hAcc>0.872270</hAcc><vAcc>0.663743</vAcc></extensions></trkpt>
      <trkpt lon="-4.141536" lat="53.026261"><ele>282.065399</ele><time>2021-07-17T14:15:54Z</time><extensions><speed>0.841604</speed><course>313.121582</course><hAcc>0.871796</hAcc><vAcc>0.662269</vAcc></extensions></trkpt>
      <trkpt lon="-4.141537" lat="53.026253"><ele>282.126617</ele><time>2021-07-17T14:15:55Z</time><extensions><speed>0.858947</speed><course>312.363678</course><hAcc>0.871321</hAcc><vAcc>0.660858</vAcc></extensions></trkpt>
      <trkpt lon="-4.141537" lat="53.026246"><ele>282.192352</ele><time>2021-07-17T14:15:56Z</time><extensions><speed>0.873357</speed><course>309.905548</course><hAcc>0.870833</hAcc><vAcc>0.659437</vAcc></extensions></trkpt>
      <trkpt lon="-4.141537" lat="53.026238"><ele>282.261902</ele><time>2021-07-17T14:15:57Z</time><extensions><speed>0.884681</speed><course>308.597687</course><hAcc>0.870340</hAcc><vAcc>0.657956</vAcc></extensions></trkpt>
      <trkpt lon="-4.141536" lat="53.026230"><ele>282.334808</ele><time>2021-07-17T14:15:58Z</time><extensions><speed>0.892650</speed><course>307.103394</course><hAcc>0.869841</hAcc><vAcc>0.656403</vAcc></extensions></trkpt>
      <trkpt lon="-4.141536" lat="53.026222"><ele>282.410095</ele><time>2021-07-17T14:15:59Z</time><extensions><speed>0.897182</speed><course>306.897400</course><hAcc>0.869345</hAcc><vAcc>0.654815</vAcc></extensions></trkpt>
      <trkpt lon="-4.141535" lat="53.026214"><ele>282.486481</ele><time>2021-07-17T14:16:00Z</time><extensions><speed>0.897749</speed><course>302.152618</course><hAcc>0.868872</hAcc><vAcc>0.653262</vAcc></extensions></trkpt>
      <trkpt lon="-4.141534" lat="53.026206"><ele>282.563080</ele><time>2021-07-17T14:16:01Z</time><extensions><speed>0.893724</speed><course>297.726410</course><hAcc>0.868443</hAcc><vAcc>0.651832</vAcc></extensions></trkpt>
      <trkpt lon="-4.141532" lat="53.026198"><ele>282.639923</ele><time>2021-07-17T14:16:02Z</time><extensions><speed>0.885577</speed><course>300.194183</course><hAcc>0.868081</hAcc><vAcc>0.650614</vAcc></extensions></trkpt>
      <trkpt lon="-4.141531" lat="53.026190"><ele>282.717163</ele><time>2021-07-17T14:16:03Z</time><extensions><speed>0.874976</speed><course>297.151825</course><hAcc>0.867811</hAcc><vAcc>0.649695</vAcc></extensions></trkpt>
      <trkpt lon="-4.141529" lat="53.026182"><ele>282.794067</ele><time>2021-07-17T14:16:04Z</time><extensions><speed>0.863938</speed><course>298.399384</course><hAcc>0.867651</hAcc><vAcc>0.649147</vAcc></extensions></trkpt>
      <trkpt lon="-4.141527" lat="53.026174"><ele>282.869415</ele><time>2021-07-17T14:16:05Z</time><extensions><speed>0.854029</speed><course>300.837921</course><hAcc>0.867613</hAcc><vAcc>0.649013</vAcc></extensions></trkpt>
      <trkpt lon="-4.141524" lat="53.026167"><ele>282.941833</ele><time>2021-07-17T14:16:06Z</time><extensions><speed>0.845971</speed><course>299.844330</course><hAcc>0.867700</hAcc><vAcc>0.649303</vAcc></extensions></trkpt>
      <trkpt lon="-4.141521" lat="53.026160"><ele>283.010284</ele><time>2021-07-17T14:16:07Z</time><extensions><speed>0.840485</speed><course>300.001373</course><hAcc>0.867908</hAcc><vAcc>0.650002</vAcc></extensions></trkpt>
      <trkpt lon="-4.141517" lat="53.026152"><ele>283.074097</ele><time>2021-07-17T14:16:08Z</time><extensions><speed>0.838283</speed><course>294.568817</course><hAcc>0.868227</hAcc><vAcc>0.651070</vAcc></extensions></trkpt>
      <trkpt lon="-4.141513" lat="53.026145"><ele>283.133240</ele><time>2021-07-17T14:16:09Z</time><extensions><speed>0.839448</speed><course>300.687103</course><hAcc>0.868637</hAcc><vAcc>0.652444</vAcc></extensions></trkpt>
      <trkpt lon="-4.141509" lat="53.026138"><ele>283.187744</ele><time>2021-07-17T14:16:10Z</time><extensions><speed>0.843424</speed><course>297.691925</course><hAcc>0.869115</hAcc><vAcc>0.654030</vAcc></extensions></trkpt>
      <trkpt lon="-4.141504" lat="53.026131"><ele>283.237579</ele><time>2021-07-17T14:16:11Z</time><extensions><speed>0.849212</speed><course>293.928223</course><hAcc>0.869633</hAcc><vAcc>0.655732</vAcc></extensions></trkpt>
      <trkpt lon="-4.141499" lat="53.026124"><ele>283.282898</ele><time>2021-07-17T14:16:12Z</time><extensions><speed>0.856210</speed><course>297.041656</course><hAcc>0.870166</hAcc><vAcc>0.657466</vAcc></extensions></trkpt>
      <trkpt lon="-4.141494" lat="53.026117"><ele>283.324036</ele><time>2021-07-17T14:16:13Z</time><extensions><speed>0.864174</speed><course>298.722290</course><hAcc>0.870696</hAcc><vAcc>0.659173</vAcc></extensions></trkpt>
      <trkpt lon="-4.141489" lat="53.026110"><ele>283.361664</ele><time>2021-07-17T14:16:14Z</time><extensions><speed>0.872537</speed><course>296.674316</course><hAcc>0.871209</hAcc><vAcc>0.660821</vAcc></extensions></trkpt>
      <trkpt lon="-4.141483" lat="53.026103"><ele>283.396729</ele><time>2021-07-17T14:16:15Z</time><extensions><speed>0.880233</speed><course>301.147156</course><hAcc>0.871697</hAcc><vAcc>0.662401</vAcc></extensions></trkpt>
      <trkpt lon="-4.141477" lat="53.026096"><ele>283.430511</ele><time>2021-07-17T14:16:16Z</time><extensions><speed>0.885872</speed><course>301.618805</course><hAcc>0.872156</hAcc><vAcc>0.663910</vAcc></extensions></trkpt>
      <trkpt lon="-4.141471" lat="53.026089"><ele>283.463287</ele><time>2021-07-17T14:16:17Z</time><extensions><speed>0.888452</speed><course>300.678009</course><hAcc>0.872597</hAcc><vAcc>0.665336</vAcc></extensions></trkpt>
      <trkpt lon="-4.141465" lat="53.026082"><ele>283.493927</ele><time>2021-07-17T14:16:18Z</time><extensions><speed>0.887924</speed><course>306.078644</course><hAcc>0.873008</hAcc><vAcc>0.666629</vAcc></extensions></trkpt>
      <trkpt lon="-4.141458" lat="53.026075"><ele>283.520935</ele><time>2021-07-17T14:16:19Z</time><extensions><speed>0.884774</speed><course>302.099213</course><hAcc>0.873358</hAcc><vAcc>0.667714</vAcc></extensions></trkpt>
      <trkpt lon="-4.141451" lat="53.026068"><ele>283.543427</ele><time>2021-07-17T14:16:20Z</time><extensions><speed>0.879941</speed><course>298.253754</course><hAcc>0.873641</hAcc><vAcc>0.668555</vAcc></extensions></trkpt>
      <trkpt lon="-4.141444" lat="53.026061"><ele>283.561279</ele><time>2021-07-17T14:16:21Z</time><extensions><speed>0.874697</speed><course>299.772583</course><hAcc>0.873857</hAcc><vAcc>0.669151</vAcc></extensions></trkpt>
      <trkpt lon="-4.141436" lat="53.026055"><ele>283.574829</ele><time>2021-07-17T14:16:22Z</time><extensions><speed>0.870057</speed><course>299.946075</course><hAcc>0.874011</hAcc><vAcc>0.669537</vAcc></extensions></trkpt>
      <trkpt lon="-4.141428" lat="53.026049"><ele>283.584381</ele><time>2021-07-17T14:16:23Z</time><extensions><speed>0.866267</speed><course>303.968170</course><hAcc>0.874115</hAcc><vAcc>0.669766</vAcc></extensions></trkpt>
      <trkpt lon="-4.141419" lat="53.026044"><ele>283.590179</ele><time>2021-07-17T14:16:24Z</time><extensions><speed>0.862793</speed><course>302.223755</course><hAcc>0.874179</hAcc><vAcc>0.669893</vAcc></extensions></trkpt>
      <trkpt lon="-4.141410" lat="53.026038"><ele>283.593048</ele><time>2021-07-17T14:16:25Z</time><extensions><speed>0.858503</speed><course>303.590851</course><hAcc>0.874211</hAcc><vAcc>0.669957</vAcc></extensions></trkpt>
      <trkpt lon="-4.141400" lat="53.026033"><ele>283.593567</ele><time>2021-07-17T14:16:26Z</time><extensions><speed>0.851937</speed><course>302.656281</course><hAcc>0.874215</hAcc><vAcc>0.669971</vAcc></extensions></trkpt>
      <trkpt lon="-4.141390" lat="53.026028"><ele>283.591492</ele><time>2021-07-17T14:16:27Z</time><extensions><speed>0.842197</speed><course>307.857574</course><hAcc>0.874190</hAcc><vAcc>0.669925</vAcc></extensions></trkpt>
      <trkpt lon="-4.141380" lat="53.026024"><ele>283.585571</ele><time>2021-07-17T14:16:28Z</time><extensions><speed>0.829079</speed><course>306.241272</course><hAcc>0.874131</hAcc><vAcc>0.669797</vAcc></extensions></trkpt>
      <trkpt lon="-4.141371" lat="53.026019"><ele>283.574707</ele><time>2021-07-17T14:16:29Z</time><extensions><speed>0.812801</speed><course>302.560516</course><hAcc>0.874035</hAcc><vAcc>0.669554</vAcc></extensions></trkpt>
      <trkpt lon="-4.141361" lat="53.026015"><ele>283.558319</ele><time>2021-07-17T14:16:30Z</time><extensions><speed>0.794265</speed><course>304.207947</course><hAcc>0.873895</hAcc><vAcc>0.669163</vAcc></extensions></trkpt>
      <trkpt lon="-4.141351" lat="53.026012"><ele>283.536285</ele><time>2021-07-17T14:16:31Z</time><extensions><speed>0.774582</speed><course>304.678192</course><hAcc>0.873710</hAcc><vAcc>0.668598</vAcc></extensions></trkpt>
      <trkpt lon="-4.141341" lat="53.026008"><ele>283.507874</ele><time>2021-07-17T14:16:32Z</time><extensions><speed>0.755152</speed><course>300.816559</course><hAcc>0.873483</hAcc><vAcc>0.667860</vAcc></extensions></trkpt>
      <trkpt lon="-4.141331" lat="53.026005"><ele>283.471741</ele><time>2021-07-17T14:16:33Z</time><extensions><speed>0.737676</speed><course>302.457642</course><hAcc>0.873224</hAcc><vAcc>0.666982</vAcc></extensions></trkpt>
      <trkpt lon="-4.141322" lat="53.026002"><ele>283.427124</ele><time>2021-07-17T14:16:34Z</time><extensions><speed>0.723718</speed><course>303.405792</course><hAcc>0.872949</hAcc><vAcc>0.666026</vAcc></extensions></trkpt>
      <trkpt lon="-4.141312" lat="53.025999"><ele>283.374420</ele><time>2021-07-17T14:16:35Z</time><extensions><speed>0.714799</speed><course>305.179382</course><hAcc>0.872678</hAcc><vAcc>0.665071</vAcc></extensions></trkpt>
      <trkpt lon="-4.141302" lat="53.025996"><ele>283.314545</ele><time>2021-07-17T14:16:36Z</time><extensions><speed>0.712177</speed><course>301.811188</course><hAcc>0.872435</hAcc><vAcc>0.664205</vAcc></extensions></trkpt>
      <trkpt lon="-4.141292" lat="53.025994"><ele>283.248352</ele><time>2021-07-17T14:16:37Z</time><extensions><speed>0.716458</speed><course>294.111877</course><hAcc>0.872242</hAcc><vAcc>0.663514</vAcc></extensions></trkpt>
      <trkpt lon="-4.141282" lat="53.025992"><ele>283.176239</ele><time>2021-07-17T14:16:38Z</time><extensions><speed>0.727244</speed><course>291.186249</course><hAcc>0.872118</hAcc><vAcc>0.663067</vAcc></extensions></trkpt>
      <trkpt lon="-4.141272" lat="53.025989"><ele>283.098267</ele><time>2021-07-17T14:16:39Z</time><extensions><speed>0.743360</speed><course>291.833313</course><hAcc>0.872075</hAcc><vAcc>0.662906</vAcc></extensions></trkpt>
      <trkpt lon="-4.141261" lat="53.025987"><ele>283.014313</ele><time>2021-07-17T14:16:40Z</time><extensions><speed>0.763566</speed><course>293.198639</course><hAcc>0.872121</hAcc><vAcc>0.663050</vAcc></extensions></trkpt>
      <trkpt lon="-4.141250" lat="53.025985"><ele>282.924225</ele><time>2021-07-17T14:16:41Z</time><extensions><speed>0.786627</speed><course>297.953094</course><hAcc>0.872259</hAcc><vAcc>0.663505</vAcc></extensions></trkpt>
      <trkpt lon="-4.141239" lat="53.025983"><ele>282.828583</ele><time>2021-07-17T14:16:42Z</time><extensions><speed>0.811576</speed><course>294.998413</course><hAcc>0.872488</hAcc><vAcc>0.664265</vAcc></extensions></trkpt>
      <trkpt lon="-4.141227" lat="53.025981"><ele>282.728638</ele><time>2021-07-17T14:16:43Z</time><extensions><speed>0.838038</speed><course>290.333923</course><hAcc>0.872803</hAcc><vAcc>0.665295</vAcc></extensions></trkpt>
      <trkpt lon="-4.141215" lat="53.025978"><ele>282.626129</ele><time>2021-07-17T14:16:44Z</time><extensions><speed>0.866479</speed><course>297.336884</course><hAcc>0.873191</hAcc><vAcc>0.666543</vAcc></extensions></trkpt>
      <trkpt lon="-4.141203" lat="53.025976"><ele>282.523041</ele><time>2021-07-17T14:16:45Z</time><extensions><speed>0.897710</speed><course>291.763641</course><hAcc>0.873643</hAcc><vAcc>0.667971</vAcc></extensions></trkpt>
      <trkpt lon="-4.141190" lat="53.025973"><ele>282.421417</ele><time>2021-07-17T14:16:46Z</time><extensions><speed>0.931516</speed><course>293.588959</course><hAcc>0.874152</hAcc><vAcc>0.669568</vAcc></extensions></trkpt>
      <trkpt lon="-4.141177" lat="53.025969"><ele>282.323334</ele><time>2021-07-17T14:16:47Z</time><extensions><speed>0.966491</speed><course>298.534668</course><hAcc>0.874714</hAcc><vAcc>0.671347</vAcc></extensions></trkpt>
      <trkpt lon="-4.141164" lat="53.025965"><ele>282.230713</ele><time>2021-07-17T14:16:48Z</time><extensions><speed>1.000460</speed><course>294.834351</course><hAcc>0.875328</hAcc><vAcc>0.673322</vAcc></extensions></trkpt>
      <trkpt lon="-4.141151" lat="53.025961"><ele>282.145020</ele><time>2021-07-17T14:16:49Z</time><extensions><speed>1.030839</speed><course>297.698059</course><hAcc>0.875985</hAcc><vAcc>0.675493</vAcc></extensions></trkpt>
      <trkpt lon="-4.141137" lat="53.025956"><ele>282.067291</ele><time>2021-07-17T14:16:50Z</time><extensions><speed>1.054548</speed><course>298.511444</course><hAcc>0.876675</hAcc><vAcc>0.677836</vAcc></extensions></trkpt>
      <trkpt lon="-4.141124" lat="53.025951"><ele>281.998535</ele><time>2021-07-17T14:16:51Z</time><extensions><speed>1.068807</speed><course>303.054443</course><hAcc>0.877380</hAcc><vAcc>0.680291</vAcc></extensions></trkpt>
      <trkpt lon="-4.141110" lat="53.025946"><ele>281.939209</ele><time>2021-07-17T14:16:52Z</time><extensions><speed>1.071733</speed><course>300.594757</course><hAcc>0.878073</hAcc><vAcc>0.682753</vAcc></extensions></trkpt>
      <trkpt lon="-4.141097" lat="53.025941"><ele>281.889374</ele><time>2021-07-17T14:16:53Z</time><extensions><speed>1.061429</speed><course>303.489990</course><hAcc>0.878726</hAcc><vAcc>0.685087</vAcc></extensions></trkpt>
      <trkpt lon="-4.141085" lat="53.025935"><ele>281.848663</ele><time>2021-07-17T14:16:54Z</time><extensions><speed>1.035424</speed><course>307.296783</course><hAcc>0.879308</hAcc><vAcc>0.687143</vAcc></extensions></trkpt>
      <trkpt lon="-4.141072" lat="53.025930"><ele>281.816650</ele><time>2021-07-17T14:16:55Z</time><extensions><speed>0.995014</speed><course>306.846466</course><hAcc>0.879792</hAcc><vAcc>0.688794</vAcc></extensions></trkpt>
      <trkpt lon="-4.141061" lat="53.025924"><ele>281.792725</ele><time>2021-07-17T14:16:56Z</time><extensions><speed>0.944514</speed><course>314.303711</course><hAcc>0.880159</hAcc><vAcc>0.689956</vAcc></extensions></trkpt>
      <trkpt lon="-4.141051" lat="53.025919"><ele>281.776428</ele><time>2021-07-17T14:16:57Z</time><extensions><speed>0.889047</speed><course>316.753265</course><hAcc>0.880400</hAcc><vAcc>0.690609</vAcc></extensions></trkpt>
      <trkpt lon="-4.141043" lat="53.025913"><ele>281.767273</ele><time>2021-07-17T14:16:58Z</time><extensions><speed>0.834640</speed><course>312.101562</course><hAcc>0.880513</hAcc><vAcc>0.690785</vAcc></extensions></trkpt>
      <trkpt lon="-4.141035" lat="53.025907"><ele>281.764832</ele><time>2021-07-17T14:16:59Z</time><extensions><speed>0.785459</speed><course>310.983948</course><hAcc>0.880505</hAcc><vAcc>0.690546</vAcc></extensions></trkpt>
      <trkpt lon="-4.141028" lat="53.025902"><ele>281.768768</ele><time>2021-07-17T14:17:00Z</time><extensions><speed>0.743441</speed><course>316.824890</course><hAcc>0.880391</hAcc><vAcc>0.689962</vAcc></extensions></trkpt>
      <trkpt lon="-4.141023" lat="53.025896"><ele>281.778564</ele><time>2021-07-17T14:17:01Z</time><extensions><speed>0.708795</speed><course>324.005005</course><hAcc>0.880186</hAcc><vAcc>0.689103</vAcc></extensions></trkpt>
      <trkpt lon="-4.141018" lat="53.025891"><ele>281.793610</ele><time>2021-07-17T14:17:02Z</time><extensions><speed>0.681173</speed><course>322.091736</course><hAcc>0.879911</hAcc><vAcc>0.688042</vAcc></extensions></trkpt>
      <trkpt lon="-4.141014" lat="53.025885"><ele>281.813202</ele><time>2021-07-17T14:17:03Z</time><extensions><speed>0.659755</speed><course>322.830170</course><hAcc>0.879586</hAcc><vAcc>0.686856</vAcc></extensions></trkpt>
      <trkpt lon="-4.141010" lat="53.025880"><ele>281.836304</ele><time>2021-07-17T14:17:04Z</time><extensions><speed>0.643098</speed><course>325.823517</course><hAcc>0.879232</hAcc><vAcc>0.685614</vAcc></extensions></trkpt>
      <trkpt lon="-4.141006" lat="53.025874"><ele>281.861938</ele><time>2021-07-17T14:17:05Z</time><extensions><speed>0.629812</speed><course>331.853210</course><hAcc>0.878866</hAcc><vAcc>0.684369</vAcc></extensions></trkpt>
      <trkpt lon="-4.141003" lat="53.025869"><ele>281.889435</ele><time>2021-07-17T14:17:06Z</time><extensions><speed>0.619170</speed><course>331.260956</course><hAcc>0.878501</hAcc><vAcc>0.683162</vAcc></extensions></trkpt>
      <trkpt lon="-4.140999" lat="53.025864"><ele>281.918335</ele><time>2021-07-17T14:17:07Z</time><extensions><speed>0.611600</speed><course>329.072571</course><hAcc>0.878148</hAcc><vAcc>0.682018</vAcc></extensions></trkpt>
      <trkpt lon="-4.140995" lat="53.025859"><ele>281.947968</ele><time>2021-07-17T14:17:08Z</time><extensions><speed>0.608751</speed><course>325.473938</course><hAcc>0.877815</hAcc><vAcc>0.680957</vAcc></extensions></trkpt>
      <trkpt lon="-4.140990" lat="53.025855"><ele>281.977295</ele><time>2021-07-17T14:17:09Z</time><extensions><speed>0.612837</speed><course>325.383026</course><hAcc>0.877507</hAcc><vAcc>0.679991</vAcc></extensions></trkpt>
      <trkpt lon="-4.140984" lat="53.025850"><ele>282.004944</ele><time>2021-07-17T14:17:10Z</time><extensions><speed>0.626422</speed><course>325.061401</course><hAcc>0.877224</hAcc><vAcc>0.679122</vAcc></extensions></trkpt>
      <trkpt lon="-4.140978" lat="53.025846"><ele>282.029816</ele><time>2021-07-17T14:17:11Z</time><extensions><speed>0.651371</speed><course>325.207275</course><hAcc>0.876968</hAcc><vAcc>0.678344</vAcc></extensions></trkpt>
      <trkpt lon="-4.140971" lat="53.025842"><ele>282.050903</ele><time>2021-07-17T14:17:12Z</time><extensions><speed>0.687573</speed><course>322.410889</course><hAcc>0.876734</hAcc><vAcc>0.677643</vAcc></extensions></trkpt>
      <trkpt lon="-4.140962" lat="53.025838"><ele>282.067047</ele><time>2021-07-17T14:17:13Z</time><extensions><speed>0.734204</speed><course>319.218658</course><hAcc>0.876519</hAcc><vAcc>0.677002</vAcc></extensions></trkpt>
      <trkpt lon="-4.140953" lat="53.025834"><ele>282.077057</ele><time>2021-07-17T14:17:14Z</time><extensions><speed>0.789979</speed><course>319.790588</course><hAcc>0.876320</hAcc><vAcc>0.676410</vAcc></extensions></trkpt>
      <trkpt lon="-4.140942" lat="53.025831"><ele>282.080048</ele><time>2021-07-17T14:17:15Z</time><extensions><speed>0.852543</speed><course>318.972229</course><hAcc>0.876133</hAcc><vAcc>0.675854</vAcc></extensions></trkpt>
      <trkpt lon="-4.140931" lat="53.025827"><ele>282.075592</ele><time>2021-07-17T14:17:16Z</time><extensions><speed>0.918761</speed><course>320.354065</course><hAcc>0.875957</hAcc><vAcc>0.675322</vAcc></extensions></trkpt>
      <trkpt lon="-4.140918" lat="53.025823"><ele>282.063629</ele><time>2021-07-17T14:17:17Z</time><extensions><speed>0.985855</speed><course>320.541016</course><hAcc>0.875791</hAcc><vAcc>0.674802</vAcc></extensions></trkpt>
      <trkpt lon="-4.140904" lat="53.025820"><ele>282.043640</ele><time>2021-07-17T14:17:18Z</time><extensions><speed>1.051979</speed><course>317.906189</course><hAcc>0.875633</hAcc><vAcc>0.674289</vAcc></extensions></trkpt>
      <trkpt lon="-4.140889" lat="53.025816"><ele>282.014191</ele><time>2021-07-17T14:17:19Z</time><extensions><speed>1.115628</speed><course>316.077393</course><hAcc>0.875490</hAcc><vAcc>0.673794</vAcc></extensions></trkpt>
      <trkpt lon="-4.140873" lat="53.025812"><ele>281.974274</ele><time>2021-07-17T14:17:20Z</time><extensions><speed>1.175297</speed><course>307.356537</course><hAcc>0.875368</hAcc><vAcc>0.673344</vAcc></extensions></trkpt>
      <trkpt lon="-4.140857" lat="53.025808"><ele>281.924286</ele><time>2021-07-17T14:17:21Z</time><extensions><speed>1.229690</speed><course>302.004150</course><hAcc>0.875278</hAcc><vAcc>0.672983</vAcc></extensions></trkpt>
      <trkpt lon="-4.140840" lat="53.025803"><ele>281.864807</ele><time>2021-07-17T14:17:22Z</time><extensions><speed>1.277897</speed><course>310.520874</course><hAcc>0.875231</hAcc><vAcc>0.672768</vAcc></extensions></trkpt>
      <trkpt lon="-4.140822" lat="53.025799"><ele>281.796021</ele><time>2021-07-17T14:17:23Z</time><extensions><speed>1.319279</speed><course>307.778412</course><hAcc>0.875239</hAcc><vAcc>0.672746</vAcc></extensions></trkpt>
      <trkpt lon="-4.140804" lat="53.025794"><ele>281.718170</ele><time>2021-07-17T14:17:24Z</time><extensions><speed>1.353883</speed><course>310.132080</course><hAcc>0.875306</hAcc><vAcc>0.672951</vAcc></extensions></trkpt>
      <trkpt lon="-4.140785" lat="53.025788"><ele>281.632202</ele><time>2021-07-17T14:17:25Z</time><extensions><speed>1.382623</speed><course>310.327301</course><hAcc>0.875435</hAcc><vAcc>0.673393</vAcc></extensions></trkpt>
      <trkpt lon="-4.140767" lat="53.025783"><ele>281.539673</ele><time>2021-07-17T14:17:26Z</time><extensions><speed>1.406128</speed><course>308.925873</course><hAcc>0.875621</hAcc><vAcc>0.674058</vAcc></extensions></trkpt>
      <trkpt lon="-4.140748" lat="53.025777"><ele>281.441589</ele><time>2021-07-17T14:17:27Z</time><extensions><speed>1.424054</speed><course>308.955322</course><hAcc>0.875854</hAcc><vAcc>0.674903</vAcc></extensions></trkpt>
      <trkpt lon="-4.140729" lat="53.025771"><ele>281.337158</ele><time>2021-07-17T14:17:28Z</time><extensions><speed>1.435702</speed><course>303.152588</course><hAcc>0.876117</hAcc><vAcc>0.675860</vAcc></extensions></trkpt>
      <trkpt lon="-4.140710" lat="53.025765"><ele>281.225006</ele><time>2021-07-17T14:17:29Z</time><extensions><speed>1.440971</speed><course>313.156525</course><hAcc>0.876391</hAcc><vAcc>0.676847</vAcc></extensions></trkpt>
      <trkpt lon="-4.140691" lat="53.025759"><ele>281.104462</ele><time>2021-07-17T14:17:30Z</time><extensions><speed>1.440218</speed><course>307.864197</course><hAcc>0.876659</hAcc><vAcc>0.677783</vAcc></extensions></trkpt>
      <trkpt lon="-4.140672" lat="53.025753"><ele>280.975983</ele><time>2021-07-17T14:17:31Z</time><extensions><speed>1.433752</speed><course>309.541687</course><hAcc>0.876905</hAcc><vAcc>0.678608</vAcc></extensions></trkpt>
      <trkpt lon="-4.140653" lat="53.025747"><ele>280.840363</ele><time>2021-07-17T14:17:32Z</time><extensions><speed>1.421820</speed><course>312.130341</course><hAcc>0.877121</hAcc><vAcc>0.679287</vAcc></extensions></trkpt>
      <trkpt lon="-4.140634" lat="53.025742"><ele>280.697845</ele><time>2021-07-17T14:17:33Z</time><extensions><speed>1.404741</speed><course>310.268982</course><hAcc>0.877303</hAcc><vAcc>0.679810</vAcc></extensions></trkpt>
      <trkpt lon="-4.140615" lat="53.025737"><ele>280.548737</ele><time>2021-07-17T14:17:34Z</time><extensions><speed>1.383566</speed><course>308.247070</course><hAcc>0.877452</hAcc><vAcc>0.680194</vAcc></extensions></trkpt>
      <trkpt lon="-4.140596" lat="53.025732"><ele>280.393829</ele><time>2021-07-17T14:17:35Z</time><extensions><speed>1.360068</speed><course>304.229858</course><hAcc>0.877576</hAcc><vAcc>0.680472</vAcc></extensions></trkpt>
      <trkpt lon="-4.140578" lat="53.025727"><ele>280.234802</ele><time>2021-07-17T14:17:36Z</time><extensions><speed>1.335840</speed><course>308.310059</course><hAcc>0.877685</hAcc><vAcc>0.680695</vAcc></extensions></trkpt>
      <trkpt lon="-4.140560" lat="53.025722"><ele>280.073944</ele><time>2021-07-17T14:17:37Z</time><extensions><speed>1.312399</speed><course>311.142822</course><hAcc>0.877789</hAcc><vAcc>0.680921</vAcc></extensions></trkpt>
      <trkpt lon="-4.140543" lat="53.025717"><ele>279.913147</ele><time>2021-07-17T14:17:38Z</time><extensions><speed>1.291378</speed><course>305.518036</course><hAcc>0.877899</hAcc><vAcc>0.681197</vAcc></extensions></trkpt>
      <trkpt lon="-4.140525" lat="53.025712"><ele>279.753418</ele><time>2021-07-17T14:17:39Z</time><extensions><speed>1.273775</speed><course>303.061462</course><hAcc>0.878022</hAcc><vAcc>0.681559</vAcc></extensions></trkpt>
      <trkpt lon="-4.140509" lat="53.025707"><ele>279.595673</ele><time>2021-07-17T14:17:40Z</time><extensions><speed>1.260148</speed><course>298.232086</course><hAcc>0.878161</hAcc><vAcc>0.682016</vAcc></extensions></trkpt>
      <trkpt lon="-4.140492" lat="53.025701"><ele>279.441254</ele><time>2021-07-17T14:17:41Z</time><extensions><speed>1.251014</speed><course>289.358276</course><hAcc>0.878313</hAcc><vAcc>0.682551</vAcc></extensions></trkpt>
      <trkpt lon="-4.140476" lat="53.025696"><ele>279.292389</ele><time>2021-07-17T14:17:42Z</time><extensions><speed>1.247011</speed><course>285.924469</course><hAcc>0.878473</hAcc><vAcc>0.683125</vAcc></extensions></trkpt>
      <trkpt lon="-4.140460" lat="53.025690"><ele>279.151855</ele><time>2021-07-17T14:17:43Z</time><extensions><speed>1.248682</speed><course>280.520447</course><hAcc>0.878631</hAcc><vAcc>0.683688</vAcc></extensions></trkpt>
      <trkpt lon="-4.140445" lat="53.025683"><ele>279.022064</ele><time>2021-07-17T14:17:44Z</time><extensions><speed>1.256026</speed><course>286.862061</course><hAcc>0.878760</hAcc><vAcc>0.684179</vAcc></extensions></trkpt>
      <trkpt lon="-4.140429" lat="53.025677"><ele>278.904480</ele><time>2021-07-17T14:17:45Z</time><extensions><speed>1.268060</speed><course>295.700317</course><hAcc>0.878851</hAcc><vAcc>0.684560</vAcc></extensions></trkpt>
      <trkpt lon="-4.140414" lat="53.025670"><ele>278.798645</ele><time>2021-07-17T14:17:46Z</time><extensions><speed>1.283552</speed><course>296.161560</course><hAcc>0.878916</hAcc><vAcc>0.684813</vAcc></extensions></trkpt>
      <trkpt lon="-4.140399" lat="53.025663"><ele>278.703461</ele><time>2021-07-17T14:17:47Z</time><extensions><speed>1.301557</speed><course>298.229218</course><hAcc>0.878950</hAcc><vAcc>0.684922</vAcc></extensions></trkpt>
      <trkpt lon="-4.140384" lat="53.025655"><ele>278.618286</ele><time>2021-07-17T14:17:48Z</time><extensions><speed>1.321317</speed><course>297.545471</course><hAcc>0.878952</hAcc><vAcc>0.684890</vAcc></extensions></trkpt>
      <trkpt lon="-4.140368" lat="53.025648"><ele>278.543213</ele><time>2021-07-17T14:17:49Z</time><extensions><speed>1.342191</speed><course>292.454163</course><hAcc>0.878926</hAcc><vAcc>0.684744</vAcc></extensions></trkpt>
      <trkpt lon="-4.140353" lat="53.025640"><ele>278.479034</ele><time>2021-07-17T14:17:50Z</time><extensions><speed>1.363380</speed><course>287.195465</course><hAcc>0.878878</hAcc><vAcc>0.684527</vAcc></extensions></trkpt>
      <trkpt lon="-4.140338" lat="53.025632"><ele>278.426270</ele><time>2021-07-17T14:17:51Z</time><extensions><speed>1.383559</speed><course>283.339600</course><hAcc>0.878814</hAcc><vAcc>0.684279</vAcc></extensions></trkpt>
      <trkpt lon="-4.140323" lat="53.025623"><ele>278.383698</ele><time>2021-07-17T14:17:52Z</time><extensions><speed>1.400665</speed><course>283.687531</course><hAcc>0.878742</hAcc><vAcc>0.684028</vAcc></extensions></trkpt>
      <trkpt lon="-4.140307" lat="53.025615"><ele>278.348663</ele><time>2021-07-17T14:17:53Z</time><extensions><speed>1.412623</speed><course>284.089417</course><hAcc>0.878663</hAcc><vAcc>0.683779</vAcc></extensions></trkpt>
      <trkpt lon="-4.140291" lat="53.025606"><ele>278.318573</ele><time>2021-07-17T14:17:54Z</time><extensions><speed>1.419040</speed><course>286.432800</course><hAcc>0.878579</hAcc><vAcc>0.683522</vAcc></extensions></trkpt>
      <trkpt lon="-4.140276" lat="53.025598"><ele>278.291718</ele><time>2021-07-17T14:17:55Z</time><extensions><speed>1.421164</speed><course>288.844025</course><hAcc>0.878493</hAcc><vAcc>0.683251</vAcc></extensions></trkpt>
      <trkpt lon="-4.140260" lat="53.025589"><ele>278.266205</ele><time>2021-07-17T14:17:56Z</time><extensions><speed>1.419839</speed><course>294.600861</course><hAcc>0.878407</hAcc><vAcc>0.682968</vAcc></extensions></trkpt>
      <trkpt lon="-4.140244" lat="53.025581"><ele>278.239258</ele><time>2021-07-17T14:17:57Z</time><extensions><speed>1.415219</speed><course>289.399475</course><hAcc>0.878326</hAcc><vAcc>0.682684</vAcc></extensions></trkpt>
      <trkpt lon="-4.140227" lat="53.025573"><ele>278.207703</ele><time>2021-07-17T14:17:58Z</time><extensions><speed>1.407922</speed><course>292.462738</course><hAcc>0.878252</hAcc><vAcc>0.682415</vAcc></extensions></trkpt>
      <trkpt lon="-4.140211" lat="53.025565"><ele>278.168945</ele><time>2021-07-17T14:17:59Z</time><extensions><speed>1.399310</speed><course>292.044128</course><hAcc>0.878192</hAcc><vAcc>0.682182</vAcc></extensions></trkpt>
      <trkpt lon="-4.140194" lat="53.025558"><ele>278.121552</ele><time>2021-07-17T14:18:00Z</time><extensions><speed>1.390401</speed><course>289.426849</course><hAcc>0.878151</hAcc><vAcc>0.682010</vAcc></extensions></trkpt>
      <trkpt lon="-4.140176" lat="53.025551"><ele>278.064514</ele><time>2021-07-17T14:18:01Z</time><extensions><speed>1.381747</speed><course>292.821838</course><hAcc>0.878134</hAcc><vAcc>0.681924</vAcc></extensions></trkpt>
      <trkpt lon="-4.140159" lat="53.025545"><ele>277.996613</ele><time>2021-07-17T14:18:02Z</time><extensions><speed>1.373838</speed><course>287.405121</course><hAcc>0.878143</hAcc><vAcc>0.681943</vAcc></extensions></trkpt>
      <trkpt lon="-4.140141" lat="53.025539"><ele>277.916199</ele><time>2021-07-17T14:18:03Z</time><extensions><speed>1.366430</speed><course>289.328461</course><hAcc>0.878179</hAcc><vAcc>0.682075</vAcc></extensions></trkpt>
      <trkpt lon="-4.140122" lat="53.025534"><ele>277.822205</ele><time>2021-07-17T14:18:04Z</time><extensions><speed>1.358984</speed><course>290.686554</course><hAcc>0.878240</hAcc><vAcc>0.682315</vAcc></extensions></trkpt>
      <trkpt lon="-4.140104" lat="53.025529"><ele>277.714661</ele><time>2021-07-17T14:18:05Z</time><extensions><speed>1.351094</speed><course>291.519623</course><hAcc>0.878321</hAcc><vAcc>0.682641</vAcc></extensions></trkpt>
      <trkpt lon="-4.140085" lat="53.025525"><ele>277.594208</ele><time>2021-07-17T14:18:06Z</time><extensions><speed>1.341962</speed><course>289.260345</course><hAcc>0.878414</hAcc><vAcc>0.683016</vAcc></extensions></trkpt>
      <trkpt lon="-4.140066" lat="53.025521"><ele>277.461090</ele><time>2021-07-17T14:18:07Z</time><extensions><speed>1.330641</speed><course>291.671295</course><hAcc>0.878508</hAcc><vAcc>0.683388</vAcc></extensions></trkpt>
      <trkpt lon="-4.140047" lat="53.025518"><ele>277.315125</ele><time>2021-07-17T14:18:08Z</time><extensions><speed>1.316997</speed><course>285.797272</course><hAcc>0.878594</hAcc><vAcc>0.683715</vAcc></extensions></trkpt>
      <trkpt lon="-4.140029" lat="53.025514"><ele>277.156525</ele><time>2021-07-17T14:18:09Z</time><extensions><speed>1.301718</speed><course>284.045776</course><hAcc>0.878665</hAcc><vAcc>0.683965</vAcc></extensions></trkpt>
      <trkpt lon="-4.140010" lat="53.025511"><ele>276.986389</ele><time>2021-07-17T14:18:10Z</time><extensions><speed>1.285424</speed><course>290.744446</course><hAcc>0.878716</hAcc><vAcc>0.684125</vAcc></extensions></trkpt>
      <trkpt lon="-4.139992" lat="53.025508"><ele>276.806305</ele><time>2021-07-17T14:18:11Z</time><extensions><speed>1.268610</speed><course>286.155334</course><hAcc>0.878745</hAcc><vAcc>0.684193</vAcc></extensions></trkpt>
      <trkpt lon="-4.139973" lat="53.025506"><ele>276.617371</ele><time>2021-07-17T14:18:12Z</time><extensions><speed>1.251832</speed><course>292.078705</course><hAcc>0.878750</hAcc><vAcc>0.684180</vAcc></extensions></trkpt>
      <trkpt lon="-4.139956" lat="53.025503"><ele>276.419617</ele><time>2021-07-17T14:18:13Z</time><extensions><speed>1.236762</speed><course>292.906311</course><hAcc>0.878735</hAcc><vAcc>0.684099</vAcc></extensions></trkpt>
      <trkpt lon="-4.139938" lat="53.025500"><ele>276.212952</ele><time>2021-07-17T14:18:14Z</time><extensions><speed>1.225633</speed><course>291.462067</course><hAcc>0.878699</hAcc><vAcc>0.683963</vAcc></extensions></trkpt>
      <trkpt lon="-4.139920" lat="53.025497"><ele>275.998291</ele><time>2021-07-17T14:18:15Z</time><extensions><speed>1.219342</speed><course>290.448425</course><hAcc>0.878646</hAcc><vAcc>0.683782</vAcc></extensions></trkpt>
      <trkpt lon="-4.139903" lat="53.025493"><ele>275.776398</ele><time>2021-07-17T14:18:16Z</time><extensions><speed>1.218297</speed><course>295.857269</course><hAcc>0.878575</hAcc><vAcc>0.683562</vAcc></extensions></trkpt>
      <trkpt lon="-4.139886" lat="53.025490"><ele>275.547119</ele><time>2021-07-17T14:18:17Z</time><extensions><speed>1.223191</speed><course>298.185364</course><hAcc>0.878489</hAcc><vAcc>0.683307</vAcc></extensions></trkpt>
      <trkpt lon="-4.139868" lat="53.025487"><ele>275.309601</ele><time>2021-07-17T14:18:18Z</time><extensions><speed>1.233973</speed><course>294.469940</course><hAcc>0.878388</hAcc><vAcc>0.683015</vAcc></extensions></trkpt>
      <trkpt lon="-4.139851" lat="53.025483"><ele>275.063477</ele><time>2021-07-17T14:18:19Z</time><extensions><speed>1.249765</speed><course>292.898438</course><hAcc>0.878271</hAcc><vAcc>0.682680</vAcc></extensions></trkpt>
      <trkpt lon="-4.139833" lat="53.025479"><ele>274.809265</ele><time>2021-07-17T14:18:20Z</time><extensions><speed>1.269157</speed><course>292.422791</course><hAcc>0.878138</hAcc><vAcc>0.682294</vAcc></extensions></trkpt>
      <trkpt lon="-4.139815" lat="53.025475"><ele>274.548065</ele><time>2021-07-17T14:18:21Z</time><extensions><speed>1.290618</speed><course>292.622986</course><hAcc>0.877990</hAcc><vAcc>0.681854</vAcc></extensions></trkpt>
      <trkpt lon="-4.139797" lat="53.025470"><ele>274.280426</ele><time>2021-07-17T14:18:22Z</time><extensions><speed>1.312787</speed><course>292.749084</course><hAcc>0.877827</hAcc><vAcc>0.681366</vAcc></extensions></trkpt>
      <trkpt lon="-4.139779" lat="53.025466"><ele>274.005890</ele><time>2021-07-17T14:18:23Z</time><extensions><speed>1.334138</speed><course>294.832458</course><hAcc>0.877673</hAcc><vAcc>0.680858</vAcc></extensions></trkpt>
      <trkpt lon="-4.139761" lat="53.025462"><ele>273.723145</ele><time>2021-07-17T14:18:24Z</time><extensions><speed>1.354314</speed><course>290.563019</course><hAcc>0.877531</hAcc><vAcc>0.680344</vAcc></extensions></trkpt>
      <trkpt lon="-4.139742" lat="53.025457"><ele>273.432800</ele><time>2021-07-17T14:18:25Z</time><extensions><speed>1.373904</speed><course>288.082062</course><hAcc>0.877389</hAcc><vAcc>0.679832</vAcc></extensions></trkpt>
      <trkpt lon="-4.139723" lat="53.025452"><ele>273.135529</ele><time>2021-07-17T14:18:26Z</time><extensions><speed>1.393313</speed><course>289.238037</course><hAcc>0.877255</hAcc><vAcc>0.679345</vAcc></extensions></trkpt>
      <trkpt lon="-4.139703" lat="53.025448"><ele>272.831451</ele><time>2021-07-17T14:18:27Z</time><extensions><speed>1.412531</speed><course>289.037109</course><hAcc>0.877135</hAcc><vAcc>0.678914</vAcc></extensions></trkpt>
      <trkpt lon="-4.139683" lat="53.025443"><ele>272.520447</ele><time>2021-07-17T14:18:28Z</time><extensions><speed>1.430732</speed><course>291.884949</course><hAcc>0.877038</hAcc><vAcc>0.678571</vAcc></extensions></trkpt>
      <trkpt lon="-4.139663" lat="53.025439"><ele>272.202545</ele><time>2021-07-17T14:18:29Z</time><extensions><speed>1.445507</speed><course>287.567657</course><hAcc>0.876967</hAcc><vAcc>0.678338</vAcc></extensions></trkpt>
      <trkpt lon="-4.139643" lat="53.025435"><ele>271.878296</ele><time>2021-07-17T14:18:30Z</time><extensions><speed>1.454382</speed><course>291.768890</course><hAcc>0.876924</hAcc><vAcc>0.678219</vAcc></extensions></trkpt>
      <trkpt lon="-4.139622" lat="53.025431"><ele>271.548248</ele><time>2021-07-17T14:18:31Z</time><extensions><speed>1.456813</speed><course>296.126740</course><hAcc>0.876905</hAcc><vAcc>0.678199</vAcc></extensions></trkpt>
      <trkpt lon="-4.139601" lat="53.025427"><ele>271.212402</ele><time>2021-07-17T14:18:32Z</time><extensions><speed>1.453278</speed><course>297.059143</course><hAcc>0.876905</hAcc><vAcc>0.678256</vAcc></extensions></trkpt>
      <trkpt lon="-4.139580" lat="53.025424"><ele>270.871185</ele><time>2021-07-17T14:18:32Z</time><extensions><speed>1.444647</speed><course>303.696320</course><hAcc>0.876933</hAcc><vAcc>0.678372</vAcc></extensions></trkpt>
      <trkpt lon="-4.139559" lat="53.025421"><ele>270.524780</ele><time>2021-07-17T14:18:33Z</time><extensions><speed>1.432078</speed><course>307.460022</course><hAcc>0.876982</hAcc><vAcc>0.678510</vAcc></extensions></trkpt>
      <trkpt lon="-4.139539" lat="53.025418"><ele>270.175476</ele><time>2021-07-17T14:18:34Z</time><extensions><speed>1.416398</speed><course>302.094666</course><hAcc>0.877024</hAcc><vAcc>0.678615</vAcc></extensions></trkpt>
      <trkpt lon="-4.139518" lat="53.025415"><ele>269.825592</ele><time>2021-07-17T14:18:35Z</time><extensions><speed>1.398104</speed><course>294.763123</course><hAcc>0.877047</hAcc><vAcc>0.678636</vAcc></extensions></trkpt>
      <trkpt lon="-4.139498" lat="53.025413"><ele>269.476746</ele><time>2021-07-17T14:18:36Z</time><extensions><speed>1.377963</speed><course>292.310913</course><hAcc>0.877040</hAcc><vAcc>0.678523</vAcc></extensions></trkpt>
      <trkpt lon="-4.139478" lat="53.025411"><ele>269.129974</ele><time>2021-07-17T14:18:37Z</time><extensions><speed>1.356423</speed><course>286.252472</course><hAcc>0.876993</hAcc><vAcc>0.678231</vAcc></extensions></trkpt>
      <trkpt lon="-4.139458" lat="53.025409"><ele>268.786713</ele><time>2021-07-17T14:18:38Z</time><extensions><speed>1.333905</speed><course>277.085999</course><hAcc>0.876894</hAcc><vAcc>0.677723</vAcc></extensions></trkpt>
      <trkpt lon="-4.139438" lat="53.025408"><ele>268.448578</ele><time>2021-07-17T14:18:39Z</time><extensions><speed>1.310756</speed><course>269.880463</course><hAcc>0.876732</hAcc><vAcc>0.676981</vAcc></extensions></trkpt>
      <trkpt lon="-4.139419" lat="53.025407"><ele>268.116486</ele><time>2021-07-17T14:18:40Z</time><extensions><speed>1.286588</speed><course>256.014618</course><hAcc>0.876500</hAcc><vAcc>0.676003</vAcc></extensions></trkpt>
      <trkpt lon="-4.139400" lat="53.025406"><ele>267.790131</ele><time>2021-07-17T14:18:41Z</time><extensions><speed>1.260890</speed><course>250.524368</course><hAcc>0.876189</hAcc><vAcc>0.674805</vAcc></extensions></trkpt>
      <trkpt lon="-4.139382" lat="53.025405"><ele>267.468597</ele><time>2021-07-17T14:18:42Z</time><extensions><speed>1.233472</speed><course>237.491638</course><hAcc>0.875792</hAcc><vAcc>0.673410</vAcc></extensions></trkpt>
      <trkpt lon="-4.139364" lat="53.025404"><ele>267.151489</ele><time>2021-07-17T14:18:43Z</time><extensions><speed>1.204821</speed><course>231.976761</course><hAcc>0.875317</hAcc><vAcc>0.671857</vAcc></extensions></trkpt>
      <trkpt lon="-4.139346" lat="53.025403"><ele>266.838684</ele><time>2021-07-17T14:18:44Z</time><extensions><speed>1.175518</speed><course>228.504318</course><hAcc>0.874781</hAcc><vAcc>0.670204</vAcc></extensions></trkpt>
      <trkpt lon="-4.139329" lat="53.025403"><ele>266.530060</ele><time>2021-07-17T14:18:45Z</time><extensions><speed>1.145812</speed><course>227.577087</course><hAcc>0.874218</hAcc><vAcc>0.668531</vAcc></extensions></trkpt>
      <trkpt lon="-4.139312" lat="53.025403"><ele>266.225525</ele><time>2021-07-17T14:18:46Z</time><extensions><speed>1.115510</speed><course>219.513672</course><hAcc>0.873664</hAcc><vAcc>0.666919</vAcc></extensions></trkpt>
      <trkpt lon="-4.139295" lat="53.025403"><ele>265.925659</ele><time>2021-07-17T14:18:47Z</time><extensions><speed>1.084346</speed><course>224.903015</course><hAcc>0.873150</hAcc><vAcc>0.665439</vAcc></extensions></trkpt>
      <trkpt lon="-4.139279" lat="53.025403"><ele>265.631317</ele><time>2021-07-17T14:18:48Z</time><extensions><speed>1.052940</speed><course>222.390198</course><hAcc>0.872698</hAcc><vAcc>0.664145</vAcc></extensions></trkpt>
      <trkpt lon="-4.139264" lat="53.025404"><ele>265.342804</ele><time>2021-07-17T14:18:50Z</time><extensions><speed>1.022197</speed><course>223.313202</course><hAcc>0.872305</hAcc><vAcc>0.663057</vAcc></extensions></trkpt>
      <trkpt lon="-4.139249" lat="53.025404"><ele>265.061707</ele><time>2021-07-17T14:18:51Z</time><extensions><speed>0.992484</speed><course>224.045700</course><hAcc>0.871981</hAcc><vAcc>0.662197</vAcc></extensions></trkpt>
      <trkpt lon="-4.139234" lat="53.025405"><ele>264.789276</ele><time>2021-07-17T14:18:52Z</time><extensions><speed>0.962923</speed><course>224.975723</course><hAcc>0.871744</hAcc><vAcc>0.661585</vAcc></extensions></trkpt>
      <trkpt lon="-4.139220" lat="53.025406"><ele>264.526947</ele><time>2021-07-17T14:18:53Z</time><extensions><speed>0.932477</speed><course>226.513992</course><hAcc>0.871594</hAcc><vAcc>0.661226</vAcc></extensions></trkpt>
      <trkpt lon="-4.139207" lat="53.025408"><ele>264.276337</ele><time>2021-07-17T14:18:54Z</time><extensions><speed>0.900220</speed><course>227.291473</course><hAcc>0.871527</hAcc><vAcc>0.661114</vAcc></extensions></trkpt>
      <trkpt lon="-4.139194" lat="53.025409"><ele>264.039124</ele><time>2021-07-17T14:18:55Z</time><extensions><speed>0.865096</speed><course>231.833313</course><hAcc>0.871536</hAcc><vAcc>0.661230</vAcc></extensions></trkpt>
      <trkpt lon="-4.139182" lat="53.025411"><ele>263.816864</ele><time>2021-07-17T14:18:56Z</time><extensions><speed>0.826940</speed><course>230.421005</course><hAcc>0.871607</hAcc><vAcc>0.661531</vAcc></extensions></trkpt>
      <trkpt lon="-4.139171" lat="53.025414"><ele>263.611053</ele><time>2021-07-17T14:18:57Z</time><extensions><speed>0.786475</speed><course>235.980087</course><hAcc>0.871727</hAcc><vAcc>0.661954</vAcc></extensions></trkpt>
      <trkpt lon="-4.139160" lat="53.025416"><ele>263.423004</ele><time>2021-07-17T14:18:58Z</time><extensions><speed>0.745377</speed><course>243.213364</course><hAcc>0.871879</hAcc><vAcc>0.662420</vAcc></extensions></trkpt>
      <trkpt lon="-4.139150" lat="53.025419"><ele>263.253693</ele><time>2021-07-17T14:18:59Z</time><extensions><speed>0.705840</speed><course>253.165268</course><hAcc>0.872050</hAcc><vAcc>0.662851</vAcc></extensions></trkpt>
      <trkpt lon="-4.139141" lat="53.025422"><ele>263.103821</ele><time>2021-07-17T14:19:00Z</time><extensions><speed>0.668761</speed><course>266.505096</course><hAcc>0.872229</hAcc><vAcc>0.663175</vAcc></extensions></trkpt>
      <trkpt lon="-4.139133" lat="53.025425"><ele>262.973785</ele><time>2021-07-17T14:19:01Z</time><extensions><speed>0.633312</speed><course>267.255646</course><hAcc>0.872412</hAcc><vAcc>0.663326</vAcc></extensions></trkpt>
      <trkpt lon="-4.139126" lat="53.025428"><ele>262.863464</ele><time>2021-07-17T14:19:02Z</time><extensions><speed>0.598315</speed><course>271.176971</course><hAcc>0.872594</hAcc><vAcc>0.663240</vAcc></extensions></trkpt>
      <trkpt lon="-4.139119" lat="53.025432"><ele>262.772430</ele><time>2021-07-17T14:19:03Z</time><extensions><speed>0.562929</speed><course>283.145996</course><hAcc>0.872776</hAcc><vAcc>0.662885</vAcc></extensions></trkpt>
      <trkpt lon="-4.139113" lat="53.025435"><ele>262.699615</ele><time>2021-07-17T14:19:04Z</time><extensions><speed>0.527058</speed><course>291.499756</course><hAcc>0.872964</hAcc><vAcc>0.662271</vAcc></extensions></trkpt>
      <trkpt lon="-4.139108" lat="53.025438"><ele>262.643738</ele><time>2021-07-17T14:19:05Z</time><extensions><speed>0.491684</speed><course>295.960785</course><hAcc>0.873160</hAcc><vAcc>0.661449</vAcc></extensions></trkpt>
      <trkpt lon="-4.139103" lat="53.025442"><ele>262.603271</ele><time>2021-07-17T14:19:06Z</time><extensions><speed>0.457661</speed><course>298.309418</course><hAcc>0.873360</hAcc><vAcc>0.660503</vAcc></extensions></trkpt>
      <trkpt lon="-4.139099" lat="53.025445"><ele>262.576721</ele><time>2021-07-17T14:19:07Z</time><extensions><speed>0.425449</speed><course>301.442566</course><hAcc>0.873543</hAcc><vAcc>0.659535</vAcc></extensions></trkpt>
      <trkpt lon="-4.139096" lat="53.025448"><ele>262.562408</ele><time>2021-07-17T14:19:08Z</time><extensions><speed>0.395685</speed><course>301.820831</course><hAcc>0.873670</hAcc><vAcc>0.658653</vAcc></extensions></trkpt>
      <trkpt lon="-4.139092" lat="53.025451"><ele>262.558685</ele><time>2021-07-17T14:19:09Z</time><extensions><speed>0.369021</speed><course>306.533081</course><hAcc>0.873698</hAcc><vAcc>0.657954</vAcc></extensions></trkpt>
      <trkpt lon="-4.139090" lat="53.025453"><ele>262.563782</ele><time>2021-07-17T14:19:10Z</time><extensions><speed>0.345562</speed><course>310.759277</course><hAcc>0.873594</hAcc><vAcc>0.657504</vAcc></extensions></trkpt>
      <trkpt lon="-4.139087" lat="53.025456"><ele>262.575928</ele><time>2021-07-17T14:19:11Z</time><extensions><speed>0.324739</speed><course>315.721252</course><hAcc>0.873352</hAcc><vAcc>0.657323</vAcc></extensions></trkpt>
      <trkpt lon="-4.139085" lat="53.025459"><ele>262.593658</ele><time>2021-07-17T14:19:12Z</time><extensions><speed>0.305855</speed><course>321.376434</course><hAcc>0.873005</hAcc><vAcc>0.657377</vAcc></extensions></trkpt>
      <trkpt lon="-4.139084" lat="53.025461"><ele>262.615784</ele><time>2021-07-17T14:19:13Z</time><extensions><speed>0.288587</speed><course>321.893402</course><hAcc>0.872617</hAcc><vAcc>0.657600</vAcc></extensions></trkpt>
      <trkpt lon="-4.139082" lat="53.025463"><ele>262.641235</ele><time>2021-07-17T14:19:14Z</time><extensions><speed>0.272927</speed><course>325.867676</course><hAcc>0.872252</hAcc><vAcc>0.657951</vAcc></extensions></trkpt>
      <trkpt lon="-4.139081" lat="53.025466"><ele>262.669189</ele><time>2021-07-17T14:19:15Z</time><extensions><speed>0.259569</speed><course>319.975250</course><hAcc>0.871961</hAcc><vAcc>0.658428</vAcc></extensions></trkpt>
      <trkpt lon="-4.139080" lat="53.025468"><ele>262.698822</ele><time>2021-07-17T14:19:16Z</time><extensions><speed>0.249406</speed><course>320.826599</course><hAcc>0.871778</hAcc><vAcc>0.659055</vAcc></extensions></trkpt>
      <trkpt lon="-4.139079" lat="53.025470"><ele>262.729645</ele><time>2021-07-17T14:19:17Z</time><extensions><speed>0.242412</speed><course>320.826599</course><hAcc>0.871719</hAcc><vAcc>0.659860</vAcc></extensions></trkpt>
      <trkpt lon="-4.139079" lat="53.025472"><ele>262.761627</ele><time>2021-07-17T14:19:18Z</time><extensions><speed>0.237591</speed><course>320.826599</course><hAcc>0.871786</hAcc><vAcc>0.660858</vAcc></extensions></trkpt>
      <trkpt lon="-4.139079" lat="53.025474"><ele>262.795197</ele><time>2021-07-17T14:19:19Z</time><extensions><speed>0.233593</speed><course>320.826599</course><hAcc>0.871971</hAcc><vAcc>0.662047</vAcc></extensions></trkpt>
      <trkpt lon="-4.139078" lat="53.025476"><ele>262.831024</ele><time>2021-07-17T14:19:20Z</time><extensions><speed>0.229068</speed><course>320.826599</course><hAcc>0.872253</hAcc><vAcc>0.663394</vAcc></extensions></trkpt>
      <trkpt lon="-4.139078" lat="53.025478"><ele>262.869812</ele><time>2021-07-17T14:19:21Z</time><extensions><speed>0.222332</speed><course>320.826599</course><hAcc>0.872608</hAcc><vAcc>0.664834</vAcc></extensions></trkpt>
      <trkpt lon="-4.139078" lat="53.025480"><ele>262.912262</ele><time>2021-07-17T14:19:22Z</time><extensions><speed>0.211298</speed><course>320.826599</course><hAcc>0.873002</hAcc><vAcc>0.666276</vAcc></extensions></trkpt>
      <trkpt lon="-4.139078" lat="53.025482"><ele>262.958923</ele><time>2021-07-17T14:19:23Z</time><extensions><speed>0.195155</speed><course>320.826599</course><hAcc>0.873411</hAcc><vAcc>0.667640</vAcc></extensions></trkpt>
      <trkpt lon="-4.139078" lat="53.025484"><ele>263.009735</ele><time>2021-07-17T14:19:24Z</time><extensions><speed>0.174377</speed><course>320.826599</course><hAcc>0.873816</hAcc><vAcc>0.668897</vAcc></extensions></trkpt>
      <trkpt lon="-4.139078" lat="53.025485"><ele>263.064148</ele><time>2021-07-17T14:19:25Z</time><extensions><speed>0.149725</speed><course>320.826599</course><hAcc>0.874214</hAcc><vAcc>0.670075</vAcc></extensions></trkpt>
      <trkpt lon="-4.139078" lat="53.025486"><ele>263.121277</ele><time>2021-07-17T14:19:26Z</time><extensions><speed>0.122390</speed><course>320.826599</course><hAcc>0.874606</hAcc><vAcc>0.671226</vAcc></extensions></trkpt>
      <trkpt lon="-4.139078" lat="53.025487"><ele>263.179962</ele><time>2021-07-17T14:19:27Z</time><extensions><speed>0.093498</speed><course>320.826599</course><hAcc>0.874996</hAcc><vAcc>0.672393</vAcc></extensions></trkpt>
      <trkpt lon="-4.139078" lat="53.025488"><ele>263.238739</ele><time>2021-07-17T14:19:28Z</time><extensions><speed>0.064256</speed><course>320.826599</course><hAcc>0.875383</hAcc><vAcc>0.673595</vAcc></extensions></trkpt>
      <trkpt lon="-4.139078" lat="53.025489"><ele>263.296234</ele><time>2021-07-17T14:19:29Z</time><extensions><speed>0.036043</speed><course>320.826599</course><hAcc>0.875763</hAcc><vAcc>0.674821</vAcc></extensions></trkpt>
      <trkpt lon="-4.139078" lat="53.025489"><ele>263.351105</ele><time>2021-07-17T14:19:30Z</time><extensions><speed>0.010019</speed><course>320.826599</course><hAcc>0.876124</hAcc><vAcc>0.676027</vAcc></extensions></trkpt>
      <trkpt lon="-4.139078" lat="53.025489"><ele>263.402100</ele><time>2021-07-17T14:19:31Z</time><extensions><speed>0.013872</speed><course>320.826599</course><hAcc>0.876454</hAcc><vAcc>0.677152</vAcc></extensions></trkpt>
      <trkpt lon="-4.139078" lat="53.025489"><ele>263.448029</ele><time>2021-07-17T14:19:32Z</time><extensions><speed>0.034576</speed><course>320.826599</course><hAcc>0.876738</hAcc><vAcc>0.678135</vAcc></extensions></trkpt>
      <trkpt lon="-4.139077" lat="53.025488"><ele>263.487885</ele><time>2021-07-17T14:19:33Z</time><extensions><speed>0.053236</speed><course>320.826599</course><hAcc>0.876961</hAcc><vAcc>0.678920</vAcc></extensions></trkpt>
      <trkpt lon="-4.139077" lat="53.025488"><ele>263.520966</ele><time>2021-07-17T14:19:34Z</time><extensions><speed>0.071271</speed><course>320.826599</course><hAcc>0.877111</hAcc><vAcc>0.679459</vAcc></extensions></trkpt>
      <trkpt lon="-4.139076" lat="53.025487"><ele>263.546722</ele><time>2021-07-17T14:19:35Z</time><extensions><speed>0.090722</speed><course>320.826599</course><hAcc>0.877178</hAcc><vAcc>0.679715</vAcc></extensions></trkpt>
      <trkpt lon="-4.139075" lat="53.025487"><ele>263.564850</ele><time>2021-07-17T14:19:36Z</time><extensions><speed>0.113627</speed><course>320.826599</course><hAcc>0.877156</hAcc><vAcc>0.679666</vAcc></extensions></trkpt>
      <trkpt lon="-4.139074" lat="53.025486"><ele>263.575043</ele><time>2021-07-17T14:19:37Z</time><extensions><speed>0.141457</speed><course>320.826569</course><hAcc>0.877042</hAcc><vAcc>0.679304</vAcc></extensions></trkpt>
      <trkpt lon="-4.139071" lat="53.025485"><ele>263.577271</ele><time>2021-07-17T14:19:38Z</time><extensions><speed>0.174928</speed><course>320.826569</course><hAcc>0.876838</hAcc><vAcc>0.678641</vAcc></extensions></trkpt>
      <trkpt lon="-4.139069" lat="53.025485"><ele>263.571442</ele><time>2021-07-17T14:19:39Z</time><extensions><speed>0.214316</speed><course>320.826569</course><hAcc>0.876550</hAcc><vAcc>0.677694</vAcc></extensions></trkpt>
      <trkpt lon="-4.139065" lat="53.025484"><ele>263.557587</ele><time>2021-07-17T14:19:40Z</time><extensions><speed>0.259786</speed><course>320.826569</course><hAcc>0.876189</hAcc><vAcc>0.676484</vAcc></extensions></trkpt>
      <trkpt lon="-4.139061" lat="53.025483"><ele>263.535858</ele><time>2021-07-17T14:19:41Z</time><extensions><speed>0.311096</speed><course>306.179871</course><hAcc>0.875766</hAcc><vAcc>0.675043</vAcc></extensions></trkpt>
      <trkpt lon="-4.139057" lat="53.025482"><ele>263.506378</ele><time>2021-07-17T14:19:42Z</time><extensions><speed>0.367503</speed><course>252.340622</course><hAcc>0.875302</hAcc><vAcc>0.673425</vAcc></extensions></trkpt>
      <trkpt lon="-4.139051" lat="53.025481"><ele>263.469208</ele><time>2021-07-17T14:19:43Z</time><extensions><speed>0.428546</speed><course>240.417450</course><hAcc>0.874818</hAcc><vAcc>0.671713</vAcc></extensions></trkpt>
      <trkpt lon="-4.139044" lat="53.025480"><ele>263.424194</ele><time>2021-07-17T14:19:44Z</time><extensions><speed>0.494511</speed><course>226.735764</course><hAcc>0.874343</hAcc><vAcc>0.670012</vAcc></extensions></trkpt>
      <trkpt lon="-4.139037" lat="53.025479"><ele>263.371094</ele><time>2021-07-17T14:19:45Z</time><extensions><speed>0.565412</speed><course>213.254318</course><hAcc>0.873906</hAcc><vAcc>0.668442</vAcc></extensions></trkpt>
      <trkpt lon="-4.139028" lat="53.025477"><ele>263.309540</ele><time>2021-07-17T14:19:46Z</time><extensions><speed>0.640171</speed><course>209.983795</course><hAcc>0.873533</hAcc><vAcc>0.667127</vAcc></extensions></trkpt>
      <trkpt lon="-4.139019" lat="53.025475"><ele>263.238861</ele><time>2021-07-17T14:19:47Z</time><extensions><speed>0.717020</speed><course>212.464371</course><hAcc>0.873246</hAcc><vAcc>0.666162</vAcc></extensions></trkpt>
      <trkpt lon="-4.139008" lat="53.025472"><ele>263.158173</ele><time>2021-07-17T14:19:48Z</time><extensions><speed>0.794345</speed><course>212.464355</course><hAcc>0.873061</hAcc><vAcc>0.665601</vAcc></extensions></trkpt>
      <trkpt lon="-4.138997" lat="53.025470"><ele>263.066772</ele><time>2021-07-17T14:19:49Z</time><extensions><speed>0.870831</speed><course>212.464355</course><hAcc>0.872983</hAcc><vAcc>0.665450</vAcc></extensions></trkpt>
      <trkpt lon="-4.138984" lat="53.025467"><ele>262.964020</ele><time>2021-07-17T14:19:50Z</time><extensions><speed>0.945082</speed><course>212.464340</course><hAcc>0.873004</hAcc><vAcc>0.665660</vAcc></extensions></trkpt>
      <trkpt lon="-4.138971" lat="53.025463"><ele>262.849640</ele><time>2021-07-17T14:19:51Z</time><extensions><speed>1.015347</speed><course>212.464325</course><hAcc>0.873102</hAcc><vAcc>0.666131</vAcc></extensions></trkpt>
      <trkpt lon="-4.138957" lat="53.025459"><ele>262.723938</ele><time>2021-07-17T14:19:52Z</time><extensions><speed>1.080014</speed><course>212.464325</course><hAcc>0.873248</hAcc><vAcc>0.666728</vAcc></extensions></trkpt>
      <trkpt lon="-4.138942" lat="53.025455"><ele>262.587555</ele><time>2021-07-17T14:19:53Z</time><extensions><speed>1.138566</speed><course>212.464325</course><hAcc>0.873411</hAcc><vAcc>0.667322</vAcc></extensions></trkpt>
      <trkpt lon="-4.138926" lat="53.025450"><ele>262.440460</ele><time>2021-07-17T14:19:54Z</time><extensions><speed>1.190761</speed><course>212.464310</course><hAcc>0.873564</hAcc><vAcc>0.667805</vAcc></extensions></trkpt>
      <trkpt lon="-4.138910" lat="53.025446"><ele>262.281708</ele><time>2021-07-17T14:19:55Z</time><extensions><speed>1.236546</speed><course>305.064514</course><hAcc>0.873686</hAcc><vAcc>0.668100</vAcc></extensions></trkpt>
      <trkpt lon="-4.138893" lat="53.025441"><ele>262.110504</ele><time>2021-07-17T14:19:56Z</time><extensions><speed>1.276622</speed><course>295.507660</course><hAcc>0.873761</hAcc><vAcc>0.668163</vAcc></extensions></trkpt>
      <trkpt lon="-4.138875" lat="53.025436"><ele>261.927124</ele><time>2021-07-17T14:19:57Z</time><extensions><speed>1.311552</speed><course>292.618195</course><hAcc>0.873782</hAcc><vAcc>0.667983</vAcc></extensions></trkpt>
      <trkpt lon="-4.138857" lat="53.025431"><ele>261.732819</ele><time>2021-07-17T14:19:58Z</time><extensions><speed>1.342071</speed><course>285.374146</course><hAcc>0.873744</hAcc><vAcc>0.667584</vAcc></extensions></trkpt>
      <trkpt lon="-4.138839" lat="53.025426"><ele>261.529266</ele><time>2021-07-17T14:19:59Z</time><extensions><speed>1.368821</speed><course>282.990997</course><hAcc>0.873649</hAcc><vAcc>0.667008</vAcc></extensions></trkpt>
      <trkpt lon="-4.138820" lat="53.025421"><ele>261.317688</ele><time>2021-07-17T14:20:00Z</time><extensions><speed>1.391781</speed><course>269.408752</course><hAcc>0.873495</hAcc><vAcc>0.666316</vAcc></extensions></trkpt>
      <trkpt lon="-4.138800" lat="53.025416"><ele>261.098846</ele><time>2021-07-17T14:20:01Z</time><extensions><speed>1.410933</speed><course>268.581787</course><hAcc>0.873288</hAcc><vAcc>0.665572</vAcc></extensions></trkpt>
      <trkpt lon="-4.138781" lat="53.025412"><ele>260.873932</ele><time>2021-07-17T14:20:02Z</time><extensions><speed>1.426371</speed><course>262.171875</course><hAcc>0.873041</hAcc><vAcc>0.664834</vAcc></extensions></trkpt>
      <trkpt lon="-4.138761" lat="53.025407"><ele>260.644928</ele><time>2021-07-17T14:20:03Z</time><extensions><speed>1.438561</speed><course>261.539520</course><hAcc>0.872776</hAcc><vAcc>0.664138</vAcc></extensions></trkpt>
      <trkpt lon="-4.138740" lat="53.025403"><ele>260.414490</ele><time>2021-07-17T14:20:04Z</time><extensions><speed>1.448654</speed><course>255.803879</course><hAcc>0.872514</hAcc><vAcc>0.663505</vAcc></extensions></trkpt>
      <trkpt lon="-4.138720" lat="53.025399"><ele>260.185852</ele><time>2021-07-17T14:20:05Z</time><extensions><speed>1.457466</speed><course>247.733398</course><hAcc>0.872271</hAcc><vAcc>0.662940</vAcc></extensions></trkpt>
      <trkpt lon="-4.138699" lat="53.025395"><ele>259.961456</ele><time>2021-07-17T14:20:06Z</time><extensions><speed>1.465044</speed><course>231.932861</course><hAcc>0.872059</hAcc><vAcc>0.662452</vAcc></extensions></trkpt>
      <trkpt lon="-4.138678" lat="53.025391"><ele>259.742493</ele><time>2021-07-17T14:20:07Z</time><extensions><speed>1.471570</speed><course>232.043365</course><hAcc>0.871887</hAcc><vAcc>0.662054</vAcc></extensions></trkpt>
      <trkpt lon="-4.138657" lat="53.025388"><ele>259.529846</ele><time>2021-07-17T14:20:08Z</time><extensions><speed>1.477141</speed><course>225.182800</course><hAcc>0.871764</hAcc><vAcc>0.661774</vAcc></extensions></trkpt>
      <trkpt lon="-4.138636" lat="53.025384"><ele>259.325256</ele><time>2021-07-17T14:20:09Z</time><extensions><speed>1.481830</speed><course>222.937302</course><hAcc>0.871699</hAcc><vAcc>0.661651</vAcc></extensions></trkpt>
      <trkpt lon="-4.138614" lat="53.025381"><ele>259.131042</ele><time>2021-07-17T14:20:10Z</time><extensions><speed>1.486186</speed><course>226.615036</course><hAcc>0.871696</hAcc><vAcc>0.661722</vAcc></extensions></trkpt>
      <trkpt lon="-4.138593" lat="53.025378"><ele>258.948822</ele><time>2021-07-17T14:20:11Z</time><extensions><speed>1.490198</speed><course>227.377960</course><hAcc>0.871757</hAcc><vAcc>0.662004</vAcc></extensions></trkpt>
      <trkpt lon="-4.138571" lat="53.025375"><ele>258.778961</ele><time>2021-07-17T14:20:12Z</time><extensions><speed>1.492554</speed><course>225.027542</course><hAcc>0.871873</hAcc><vAcc>0.662478</vAcc></extensions></trkpt>
      <trkpt lon="-4.138549" lat="53.025371"><ele>258.621124</ele><time>2021-07-17T14:20:13Z</time><extensions><speed>1.492402</speed><course>217.523773</course><hAcc>0.872025</hAcc><vAcc>0.663081</vAcc></extensions></trkpt>
      <trkpt lon="-4.138528" lat="53.025368"><ele>258.475098</ele><time>2021-07-17T14:20:14Z</time><extensions><speed>1.489591</speed><course>217.503448</course><hAcc>0.872189</hAcc><vAcc>0.663718</vAcc></extensions></trkpt>
      <trkpt lon="-4.138506" lat="53.025365"><ele>258.340637</ele><time>2021-07-17T14:20:15Z</time><extensions><speed>1.483627</speed><course>222.947372</course><hAcc>0.872337</hAcc><vAcc>0.664285</vAcc></extensions></trkpt>
      <trkpt lon="-4.138485" lat="53.025362"><ele>258.217712</ele><time>2021-07-17T14:20:16Z</time><extensions><speed>1.473959</speed><course>228.737518</course><hAcc>0.872444</hAcc><vAcc>0.664694</vAcc></extensions></trkpt>
      <trkpt lon="-4.138464" lat="53.025359"><ele>258.105835</ele><time>2021-07-17T14:20:17Z</time><extensions><speed>1.460261</speed><course>234.887939</course><hAcc>0.872494</hAcc><vAcc>0.664883</vAcc></extensions></trkpt>
      <trkpt lon="-4.138443" lat="53.025356"><ele>258.002838</ele><time>2021-07-17T14:20:18Z</time><extensions><speed>1.442491</speed><course>232.671463</course><hAcc>0.872475</hAcc><vAcc>0.664822</vAcc></extensions></trkpt>
      <trkpt lon="-4.138422" lat="53.025353"><ele>257.905334</ele><time>2021-07-17T14:20:19Z</time><extensions><speed>1.421350</speed><course>228.680756</course><hAcc>0.872382</hAcc><vAcc>0.664509</vAcc></extensions></trkpt>
      <trkpt lon="-4.138401" lat="53.025350"><ele>257.810089</ele><time>2021-07-17T14:20:20Z</time><extensions><speed>1.398392</speed><course>228.367065</course><hAcc>0.872216</hAcc><vAcc>0.663960</vAcc></extensions></trkpt>
      <trkpt lon="-4.138381" lat="53.025347"><ele>257.714813</ele><time>2021-07-17T14:20:21Z</time><extensions><speed>1.375111</speed><course>227.760208</course><hAcc>0.871978</hAcc><vAcc>0.663200</vAcc></extensions></trkpt>
      <trkpt lon="-4.138362" lat="53.025344"><ele>257.618103</ele><time>2021-07-17T14:20:22Z</time><extensions><speed>1.352271</speed><course>230.377014</course><hAcc>0.871673</hAcc><vAcc>0.662250</vAcc></extensions></trkpt>
      <trkpt lon="-4.138343" lat="53.025340"><ele>257.518494</ele><time>2021-07-17T14:20:23Z</time><extensions><speed>1.330599</speed><course>236.559235</course><hAcc>0.871301</hAcc><vAcc>0.661110</vAcc></extensions></trkpt>
      <trkpt lon="-4.138324" lat="53.025337"><ele>257.413910</ele><time>2021-07-17T14:20:24Z</time><extensions><speed>1.311103</speed><course>232.877869</course><hAcc>0.870858</hAcc><vAcc>0.659763</vAcc></extensions></trkpt>
      <trkpt lon="-4.138305" lat="53.025334"><ele>257.301910</ele><time>2021-07-17T14:20:25Z</time><extensions><speed>1.294372</speed><course>233.901962</course><hAcc>0.870343</hAcc><vAcc>0.658187</vAcc></extensions></trkpt>
      <trkpt lon="-4.138287" lat="53.025330"><ele>257.180450</ele><time>2021-07-17T14:20:26Z</time><extensions><speed>1.281137</speed><course>234.840546</course><hAcc>0.869758</hAcc><vAcc>0.656370</vAcc></extensions></trkpt>
      <trkpt lon="-4.138269" lat="53.025326"><ele>257.048096</ele><time>2021-07-17T14:20:27Z</time><extensions><speed>1.272109</speed><course>231.563858</course><hAcc>0.869110</hAcc><vAcc>0.654329</vAcc></extensions></trkpt>
      <trkpt lon="-4.138251" lat="53.025322"><ele>256.904480</ele><time>2021-07-17T14:20:28Z</time><extensions><speed>1.267014</speed><course>226.163422</course><hAcc>0.868417</hAcc><vAcc>0.652114</vAcc></extensions></trkpt>
      <trkpt lon="-4.138234" lat="53.025318"><ele>256.749725</ele><time>2021-07-17T14:20:29Z</time><extensions><speed>1.265125</speed><course>224.694687</course><hAcc>0.867701</hAcc><vAcc>0.649804</vAcc></extensions></trkpt>
      <trkpt lon="-4.138216" lat="53.025313"><ele>256.583221</ele><time>2021-07-17T14:20:30Z</time><extensions><speed>1.265446</speed><course>227.400024</course><hAcc>0.866992</hAcc><vAcc>0.647501</vAcc></extensions></trkpt>
      <trkpt lon="-4.138199" lat="53.025309"><ele>256.403870</ele><time>2021-07-17T14:20:31Z</time><extensions><speed>1.266370</speed><course>225.215622</course><hAcc>0.866319</hAcc><vAcc>0.645306</vAcc></extensions></trkpt>
      <trkpt lon="-4.138182" lat="53.025304"><ele>256.211426</ele><time>2021-07-17T14:20:32Z</time><extensions><speed>1.266274</speed><course>227.979385</course><hAcc>0.865708</hAcc><vAcc>0.643312</vAcc></extensions></trkpt>
      <trkpt lon="-4.138165" lat="53.025299"><ele>256.007050</ele><time>2021-07-17T14:20:33Z</time><extensions><speed>1.264143</speed><course>238.133682</course><hAcc>0.865183</hAcc><vAcc>0.641601</vAcc></extensions></trkpt>
      <trkpt lon="-4.138148" lat="53.025294"><ele>255.792892</ele><time>2021-07-17T14:20:34Z</time><extensions><speed>1.259963</speed><course>235.678314</course><hAcc>0.864764</hAcc><vAcc>0.640235</vAcc></extensions></trkpt>
      <trkpt lon="-4.138132" lat="53.025288"><ele>255.570572</ele><time>2021-07-17T14:20:35Z</time><extensions><speed>1.254013</speed><course>238.960709</course><hAcc>0.864462</hAcc><vAcc>0.639260</vAcc></extensions></trkpt>
      <trkpt lon="-4.138116" lat="53.025283"><ele>255.340775</ele><time>2021-07-17T14:20:36Z</time><extensions><speed>1.245912</speed><course>237.793289</course><hAcc>0.864284</hAcc><vAcc>0.638692</vAcc></extensions></trkpt>
      <trkpt lon="-4.138100" lat="53.025277"><ele>255.104233</ele><time>2021-07-17T14:20:37Z</time><extensions><speed>1.235241</speed><course>238.209671</course><hAcc>0.864227</hAcc><vAcc>0.638528</vAcc></extensions></trkpt>
      <trkpt lon="-4.138085" lat="53.025271"><ele>254.862518</ele><time>2021-07-17T14:20:38Z</time><extensions><speed>1.222520</speed><course>239.435074</course><hAcc>0.864285</hAcc><vAcc>0.638738</vAcc></extensions></trkpt>
      <trkpt lon="-4.138070" lat="53.025265"><ele>254.618179</ele><time>2021-07-17T14:20:39Z</time><extensions><speed>1.208599</speed><course>238.666733</course><hAcc>0.864443</hAcc><vAcc>0.639279</vAcc></extensions></trkpt>
      <trkpt lon="-4.138056" lat="53.025258"><ele>254.373642</ele><time>2021-07-17T14:20:40Z</time><extensions><speed>1.194079</speed><course>234.077820</course><hAcc>0.864682</hAcc><vAcc>0.640085</vAcc></extensions></trkpt>
      <trkpt lon="-4.138042" lat="53.025251"><ele>254.130035</ele><time>2021-07-17T14:20:41Z</time><extensions><speed>1.180198</speed><course>227.293335</course><hAcc>0.864977</hAcc><vAcc>0.641065</vAcc></extensions></trkpt>
      <trkpt lon="-4.138030" lat="53.025244"><ele>253.887344</ele><time>2021-07-17T14:20:42Z</time><extensions><speed>1.168883</speed><course>230.072769</course><hAcc>0.865299</hAcc><vAcc>0.642122</vAcc></extensions></trkpt>
      <trkpt lon="-4.138017" lat="53.025236"><ele>253.645233</ele><time>2021-07-17T14:20:43Z</time><extensions><speed>1.162010</speed><course>228.397232</course><hAcc>0.865624</hAcc><vAcc>0.643171</vAcc></extensions></trkpt>
      <trkpt lon="-4.138006" lat="53.025229"><ele>253.404266</ele><time>2021-07-17T14:20:44Z</time><extensions><speed>1.160399</speed><course>230.234772</course><hAcc>0.865932</hAcc><vAcc>0.644147</vAcc></extensions></trkpt>
      <trkpt lon="-4.137995" lat="53.025220"><ele>253.166168</ele><time>2021-07-17T14:20:45Z</time><extensions><speed>1.164133</speed><course>226.599274</course><hAcc>0.866210</hAcc><vAcc>0.645010</vAcc></extensions></trkpt>
      <trkpt lon="-4.137985" lat="53.025212"><ele>252.932434</ele><time>2021-07-17T14:20:46Z</time><extensions><speed>1.172958</speed><course>226.515137</course><hAcc>0.866454</hAcc><vAcc>0.645754</vAcc></extensions></trkpt>
      <trkpt lon="-4.137976" lat="53.025203"><ele>252.703339</ele><time>2021-07-17T14:20:47Z</time><extensions><speed>1.185781</speed><course>226.136917</course><hAcc>0.866665</hAcc><vAcc>0.646386</vAcc></extensions></trkpt>
      <trkpt lon="-4.137967" lat="53.025194"><ele>252.478653</ele><time>2021-07-17T14:20:48Z</time><extensions><speed>1.201253</speed><course>230.381958</course><hAcc>0.866848</hAcc><vAcc>0.646927</vAcc></extensions></trkpt>
      <trkpt lon="-4.137959" lat="53.025184"><ele>252.258408</ele><time>2021-07-17T14:20:49Z</time><extensions><speed>1.218755</speed><course>226.727509</course><hAcc>0.867008</hAcc><vAcc>0.647397</vAcc></extensions></trkpt>
      <trkpt lon="-4.137951" lat="53.025174"><ele>252.043030</ele><time>2021-07-17T14:20:50Z</time><extensions><speed>1.238027</speed><course>230.180862</course><hAcc>0.867150</hAcc><vAcc>0.647819</vAcc></extensions></trkpt>
      <trkpt lon="-4.137944" lat="53.025164"><ele>251.832642</ele><time>2021-07-17T14:20:51Z</time><extensions><speed>1.257766</speed><course>225.214905</course><hAcc>0.867279</hAcc><vAcc>0.648209</vAcc></extensions></trkpt>
      <trkpt lon="-4.137937" lat="53.025153"><ele>251.626022</ele><time>2021-07-17T14:20:52Z</time><extensions><speed>1.275785</speed><course>228.288971</course><hAcc>0.867399</hAcc><vAcc>0.648580</vAcc></extensions></trkpt>
      <trkpt lon="-4.137930" lat="53.025142"><ele>251.421387</ele><time>2021-07-17T14:20:53Z</time><extensions><speed>1.290335</speed><course>234.392639</course><hAcc>0.867512</hAcc><vAcc>0.648936</vAcc></extensions></trkpt>
      <trkpt lon="-4.137925" lat="53.025131"><ele>251.217575</ele><time>2021-07-17T14:20:54Z</time><extensions><speed>1.300033</speed><course>233.208801</course><hAcc>0.867617</hAcc><vAcc>0.649274</vAcc></extensions></trkpt>
      <trkpt lon="-4.137919" lat="53.025120"><ele>251.014832</ele><time>2021-07-17T14:20:55Z</time><extensions><speed>1.303387</speed><course>238.158752</course><hAcc>0.867712</hAcc><vAcc>0.649586</vAcc></extensions></trkpt>
      <trkpt lon="-4.137915" lat="53.025108"><ele>250.814499</ele><time>2021-07-17T14:20:56Z</time><extensions><speed>1.299163</speed><course>239.142517</course><hAcc>0.867796</hAcc><vAcc>0.649860</vAcc></extensions></trkpt>
      <trkpt lon="-4.137910" lat="53.025097"><ele>250.617828</ele><time>2021-07-17T14:20:57Z</time><extensions><speed>1.287339</speed><course>241.003922</course><hAcc>0.867865</hAcc><vAcc>0.650086</vAcc></extensions></trkpt>
      <trkpt lon="-4.137907" lat="53.025086"><ele>250.425522</ele><time>2021-07-17T14:20:58Z</time><extensions><speed>1.268946</speed><course>244.474228</course><hAcc>0.867917</hAcc><vAcc>0.650253</vAcc></extensions></trkpt>
      <trkpt lon="-4.137903" lat="53.025075"><ele>250.238388</ele><time>2021-07-17T14:20:59Z</time><extensions><speed>1.245303</speed><course>238.879150</course><hAcc>0.867953</hAcc><vAcc>0.650354</vAcc></extensions></trkpt>
      <trkpt lon="-4.137901" lat="53.025064"><ele>250.057831</ele><time>2021-07-17T14:21:00Z</time><extensions><speed>1.218098</speed><course>237.538528</course><hAcc>0.867975</hAcc><vAcc>0.650398</vAcc></extensions></trkpt>
      <trkpt lon="-4.137899" lat="53.025053"><ele>249.885727</ele><time>2021-07-17T14:21:01Z</time><extensions><speed>1.189304</speed><course>249.037552</course><hAcc>0.867989</hAcc><vAcc>0.650406</vAcc></extensions></trkpt>
      <trkpt lon="-4.137898" lat="53.025042"><ele>249.723694</ele><time>2021-07-17T14:21:02Z</time><extensions><speed>1.160496</speed><course>259.361603</course><hAcc>0.868005</hAcc><vAcc>0.650409</vAcc></extensions></trkpt>
      <trkpt lon="-4.137898" lat="53.025032"><ele>249.572098</ele><time>2021-07-17T14:21:03Z</time><extensions><speed>1.133044</speed><course>261.193176</course><hAcc>0.868034</hAcc><vAcc>0.650443</vAcc></extensions></trkpt>
      <trkpt lon="-4.137898" lat="53.025022"><ele>249.430405</ele><time>2021-07-17T14:21:04Z</time><extensions><speed>1.109069</speed><course>261.193146</course><hAcc>0.868088</hAcc><vAcc>0.650551</vAcc></extensions></trkpt>
      <trkpt lon="-4.137900" lat="53.025012"><ele>249.298218</ele><time>2021-07-17T14:21:05Z</time><extensions><speed>1.091158</speed><course>261.193146</course><hAcc>0.868177</hAcc><vAcc>0.650774</vAcc></extensions></trkpt>
      <trkpt lon="-4.137902" lat="53.025003"><ele>249.176041</ele><time>2021-07-17T14:21:06Z</time><extensions><speed>1.081109</speed><course>261.193146</course><hAcc>0.868311</hAcc><vAcc>0.651149</vAcc></extensions></trkpt>
      <trkpt lon="-4.137905" lat="53.024993"><ele>249.064911</ele><time>2021-07-17T14:21:07Z</time><extensions><speed>1.079248</speed><course>261.193146</course><hAcc>0.868497</hAcc><vAcc>0.651706</vAcc></extensions></trkpt>
      <trkpt lon="-4.137908" lat="53.024984"><ele>248.965500</ele><time>2021-07-17T14:21:08Z</time><extensions><speed>1.084727</speed><course>261.193146</course><hAcc>0.868735</hAcc><vAcc>0.652449</vAcc></extensions></trkpt>
      <trkpt lon="-4.137913" lat="53.024974"><ele>248.877121</ele><time>2021-07-17T14:21:09Z</time><extensions><speed>1.096193</speed><course>261.193146</course><hAcc>0.869019</hAcc><vAcc>0.653365</vAcc></extensions></trkpt>
      <trkpt lon="-4.137918" lat="53.024965"><ele>248.797913</ele><time>2021-07-17T14:21:10Z</time><extensions><speed>1.112121</speed><course>261.193146</course><hAcc>0.869339</hAcc><vAcc>0.654427</vAcc></extensions></trkpt>
      <trkpt lon="-4.137923" lat="53.024955"><ele>248.726196</ele><time>2021-07-17T14:21:11Z</time><extensions><speed>1.130526</speed><course>261.193146</course><hAcc>0.869684</hAcc><vAcc>0.655588</vAcc></extensions></trkpt>
      <trkpt lon="-4.137929" lat="53.024945"><ele>248.661133</ele><time>2021-07-17T14:21:12Z</time><extensions><speed>1.149479</speed><course>234.852402</course><hAcc>0.870039</hAcc><vAcc>0.656791</vAcc></extensions></trkpt>
      <trkpt lon="-4.137935" lat="53.024936"><ele>248.602676</ele><time>2021-07-17T14:21:13Z</time><extensions><speed>1.167310</speed><course>215.025620</course><hAcc>0.870385</hAcc><vAcc>0.657972</vAcc></extensions></trkpt>
      <trkpt lon="-4.137941" lat="53.024926"><ele>248.550629</ele><time>2021-07-17T14:21:14Z</time><extensions><speed>1.182657</speed><course>206.872131</course><hAcc>0.870708</hAcc><vAcc>0.659072</vAcc></extensions></trkpt>
      <trkpt lon="-4.137947" lat="53.024916"><ele>248.503540</ele><time>2021-07-17T14:21:15Z</time><extensions><speed>1.194794</speed><course>205.862991</course><hAcc>0.870993</hAcc><vAcc>0.660042</vAcc></extensions></trkpt>
      <trkpt lon="-4.137953" lat="53.024906"><ele>248.458878</ele><time>2021-07-17T14:21:16Z</time><extensions><speed>1.203531</speed><course>205.862976</course><hAcc>0.871227</hAcc><vAcc>0.660839</vAcc></extensions></trkpt>
      <trkpt lon="-4.137959" lat="53.024895"><ele>248.414337</ele><time>2021-07-17T14:21:17Z</time><extensions><speed>1.208944</speed><course>234.677673</course><hAcc>0.871398</hAcc><vAcc>0.661421</vAcc></extensions></trkpt>
      <trkpt lon="-4.137965" lat="53.024885"><ele>248.368790</ele><time>2021-07-17T14:21:18Z</time><extensions><speed>1.211087</speed><course>246.321655</course><hAcc>0.871499</hAcc><vAcc>0.661752</vAcc></extensions></trkpt>
      <trkpt lon="-4.137970" lat="53.024875"><ele>248.322281</ele><time>2021-07-17T14:21:19Z</time><extensions><speed>1.210255</speed><course>256.732239</course><hAcc>0.871527</hAcc><vAcc>0.661822</vAcc></extensions></trkpt>
      <trkpt lon="-4.137974" lat="53.024864"><ele>248.275009</ele><time>2021-07-17T14:21:20Z</time><extensions><speed>1.207209</speed><course>257.461731</course><hAcc>0.871486</hAcc><vAcc>0.661644</vAcc></extensions></trkpt>
      <trkpt lon="-4.137977" lat="53.024853"><ele>248.226761</ele><time>2021-07-17T14:21:21Z</time><extensions><speed>1.202975</speed><course>256.219269</course><hAcc>0.871390</hAcc><vAcc>0.661267</vAcc></extensions></trkpt>
      <trkpt lon="-4.137980" lat="53.024843"><ele>248.177444</ele><time>2021-07-17T14:21:22Z</time><extensions><speed>1.197935</speed><course>253.669510</course><hAcc>0.871254</hAcc><vAcc>0.660761</vAcc></extensions></trkpt>
      <trkpt lon="-4.137982" lat="53.024832"><ele>248.127167</ele><time>2021-07-17T14:21:23Z</time><extensions><speed>1.192083</speed><course>253.907227</course><hAcc>0.871099</hAcc><vAcc>0.660201</vAcc></extensions></trkpt>
      <trkpt lon="-4.137983" lat="53.024821"><ele>248.075912</ele><time>2021-07-17T14:21:24Z</time><extensions><speed>1.185677</speed><course>260.189209</course><hAcc>0.870941</hAcc><vAcc>0.659642</vAcc></extensions></trkpt>
      <trkpt lon="-4.137983" lat="53.024811"><ele>248.023758</ele><time>2021-07-17T14:21:25Z</time><extensions><speed>1.178458</speed><course>263.253174</course><hAcc>0.870791</hAcc><vAcc>0.659123</vAcc></extensions></trkpt>
      <trkpt lon="-4.137982" lat="53.024800"><ele>247.970200</ele><time>2021-07-17T14:21:26Z</time><extensions><speed>1.169563</speed><course>264.349060</course><hAcc>0.870663</hAcc><vAcc>0.658684</vAcc></extensions></trkpt>
      <trkpt lon="-4.137980" lat="53.024790"><ele>247.913589</ele><time>2021-07-17T14:21:27Z</time><extensions><speed>1.158087</speed><course>258.002991</course><hAcc>0.870568</hAcc><vAcc>0.658357</vAcc></extensions></trkpt>
      <trkpt lon="-4.137977" lat="53.024780"><ele>247.852097</ele><time>2021-07-17T14:21:28Z</time><extensions><speed>1.144132</speed><course>264.832825</course><hAcc>0.870514</hAcc><vAcc>0.658163</vAcc></extensions></trkpt>
      <trkpt lon="-4.137972" lat="53.024770"><ele>247.784515</ele><time>2021-07-17T14:21:29Z</time><extensions><speed>1.129436</speed><course>262.654938</course><hAcc>0.870505</hAcc><vAcc>0.658114</vAcc></extensions></trkpt>
      <trkpt lon="-4.137967" lat="53.024760"><ele>247.709976</ele><time>2021-07-17T14:21:30Z</time><extensions><speed>1.116015</speed><course>262.654938</course><hAcc>0.870549</hAcc><vAcc>0.658232</vAcc></extensions></trkpt>
      <trkpt lon="-4.137960" lat="53.024751"><ele>247.627472</ele><time>2021-07-17T14:21:31Z</time><extensions><speed>1.105391</speed><course>262.654938</course><hAcc>0.870654</hAcc><vAcc>0.658548</vAcc></extensions></trkpt>
      <trkpt lon="-4.137952" lat="53.024743"><ele>247.535919</ele><time>2021-07-17T14:21:32Z</time><extensions><speed>1.098608</speed><course>262.654938</course><hAcc>0.870826</hAcc><vAcc>0.659087</vAcc></extensions></trkpt>
      <trkpt lon="-4.137943" lat="53.024735"><ele>247.434937</ele><time>2021-07-17T14:21:33Z</time><extensions><speed>1.096047</speed><course>262.654938</course><hAcc>0.871063</hAcc><vAcc>0.659846</vAcc></extensions></trkpt>
      <trkpt lon="-4.137932" lat="53.024727"><ele>247.325027</ele><time>2021-07-17T14:21:34Z</time><extensions><speed>1.097501</speed><course>262.654938</course><hAcc>0.871360</hAcc><vAcc>0.660802</vAcc></extensions></trkpt>
      <trkpt lon="-4.137921" lat="53.024720"><ele>247.207504</ele><time>2021-07-17T14:21:35Z</time><extensions><speed>1.102490</speed><course>262.654938</course><hAcc>0.871706</hAcc><vAcc>0.661923</vAcc></extensions></trkpt>
      <trkpt lon="-4.137908" lat="53.024713"><ele>247.084610</ele><time>2021-07-17T14:21:36Z</time><extensions><speed>1.110050</speed><course>262.654938</course><hAcc>0.872092</hAcc><vAcc>0.663175</vAcc></extensions></trkpt>
      <trkpt lon="-4.137895" lat="53.024708"><ele>246.959198</ele><time>2021-07-17T14:21:37Z</time><extensions><speed>1.118125</speed><course>262.654938</course><hAcc>0.872507</hAcc><vAcc>0.664530</vAcc></extensions></trkpt>
      <trkpt lon="-4.137881" lat="53.024702"><ele>246.833359</ele><time>2021-07-17T14:21:38Z</time><extensions><speed>1.123753</speed><course>262.654938</course><hAcc>0.872940</hAcc><vAcc>0.665960</vAcc></extensions></trkpt>
      <trkpt lon="-4.137866" lat="53.024697"><ele>246.707596</ele><time>2021-07-17T14:21:39Z</time><extensions><speed>1.124544</speed><course>262.654938</course><hAcc>0.873376</hAcc><vAcc>0.667421</vAcc></extensions></trkpt>
      <trkpt lon="-4.137851" lat="53.024693"><ele>246.581985</ele><time>2021-07-17T14:21:40Z</time><extensions><speed>1.118790</speed><course>262.654938</course><hAcc>0.873802</hAcc><vAcc>0.668864</vAcc></extensions></trkpt>
      <trkpt lon="-4.137836" lat="53.024688"><ele>246.457428</ele><time>2021-07-17T14:21:41Z</time><extensions><speed>1.105151</speed><course>262.654938</course><hAcc>0.874200</hAcc><vAcc>0.670225</vAcc></extensions></trkpt>
      <trkpt lon="-4.137822" lat="53.024684"><ele>246.335144</ele><time>2021-07-17T14:21:42Z</time><extensions><speed>1.083598</speed><course>262.654938</course><hAcc>0.874553</hAcc><vAcc>0.671434</vAcc></extensions></trkpt>
      <trkpt lon="-4.137807" lat="53.024680"><ele>246.215988</ele><time>2021-07-17T14:21:43Z</time><extensions><speed>1.055873</speed><course>262.654938</course><hAcc>0.874847</hAcc><vAcc>0.672425</vAcc></extensions></trkpt>
      <trkpt lon="-4.137793" lat="53.024676"><ele>246.100449</ele><time>2021-07-17T14:21:44Z</time><extensions><speed>1.025625</speed><course>262.654938</course><hAcc>0.875071</hAcc><vAcc>0.673145</vAcc></extensions></trkpt>
      <trkpt lon="-4.137779" lat="53.024672"><ele>245.989014</ele><time>2021-07-17T14:21:45Z</time><extensions><speed>0.998232</speed><course>262.654938</course><hAcc>0.875223</hAcc><vAcc>0.673578</vAcc></extensions></trkpt>
      <trkpt lon="-4.137766" lat="53.024668"><ele>245.882278</ele><time>2021-07-17T14:21:46Z</time><extensions><speed>0.979713</speed><course>262.654938</course><hAcc>0.875310</hAcc><vAcc>0.673753</vAcc></extensions></trkpt>
      <trkpt lon="-4.137754" lat="53.024664"><ele>245.780792</ele><time>2021-07-17T14:21:47Z</time><extensions><speed>0.974274</speed><course>262.654938</course><hAcc>0.875348</hAcc><vAcc>0.673738</vAcc></extensions></trkpt>
      <trkpt lon="-4.137742" lat="53.024659"><ele>245.684814</ele><time>2021-07-17T14:21:48Z</time><extensions><speed>0.982993</speed><course>262.654938</course><hAcc>0.875358</hAcc><vAcc>0.673637</vAcc></extensions></trkpt>
      <trkpt lon="-4.137730" lat="53.024653"><ele>245.594055</ele><time>2021-07-17T14:21:49Z</time><extensions><speed>1.004278</speed><course>262.654938</course><hAcc>0.875363</hAcc><vAcc>0.673553</vAcc></extensions></trkpt>
      <trkpt lon="-4.137718" lat="53.024648"><ele>245.508148</ele><time>2021-07-17T14:21:50Z</time><extensions><speed>1.033846</speed><course>262.654938</course><hAcc>0.875381</hAcc><vAcc>0.673554</vAcc></extensions></trkpt>
      <trkpt lon="-4.137706" lat="53.024641"><ele>245.427170</ele><time>2021-07-17T14:21:51Z</time><extensions><speed>1.066078</speed><course>262.654938</course><hAcc>0.875420</hAcc><vAcc>0.673649</vAcc></extensions></trkpt>
      <trkpt lon="-4.137694" lat="53.024635"><ele>245.351807</ele><time>2021-07-17T14:21:52Z</time><extensions><speed>1.096444</speed><course>262.654938</course><hAcc>0.875481</hAcc><vAcc>0.673819</vAcc></extensions></trkpt>
      <trkpt lon="-4.137682" lat="53.024628"><ele>245.283020</ele><time>2021-07-17T14:21:53Z</time><extensions><speed>1.123389</speed><course>262.654938</course><hAcc>0.875566</hAcc><vAcc>0.674047</vAcc></extensions></trkpt>
      <trkpt lon="-4.137670" lat="53.024621"><ele>245.221359</ele><time>2021-07-17T14:21:54Z</time><extensions><speed>1.147687</speed><course>262.654938</course><hAcc>0.875682</hAcc><vAcc>0.674352</vAcc></extensions></trkpt>
      <trkpt lon="-4.137658" lat="53.024614"><ele>245.167007</ele><time>2021-07-17T14:21:55Z</time><extensions><speed>1.170692</speed><course>262.654938</course><hAcc>0.875838</hAcc><vAcc>0.674777</vAcc></extensions></trkpt>
      <trkpt lon="-4.137645" lat="53.024606"><ele>245.120193</ele><time>2021-07-17T14:21:56Z</time><extensions><speed>1.193300</speed><course>262.654938</course><hAcc>0.876044</hAcc><vAcc>0.675370</vAcc></extensions></trkpt>
      <trkpt lon="-4.137632" lat="53.024599"><ele>245.080963</ele><time>2021-07-17T14:21:57Z</time><extensions><speed>1.215127</speed><course>262.654938</course><hAcc>0.876305</hAcc><vAcc>0.676164</vAcc></extensions></trkpt>
      <trkpt lon="-4.137619" lat="53.024591"><ele>245.048370</ele><time>2021-07-17T14:21:58Z</time><extensions><speed>1.235146</speed><course>262.654938</course><hAcc>0.876622</hAcc><vAcc>0.677166</vAcc></extensions></trkpt>
      <trkpt lon="-4.137605" lat="53.024584"><ele>245.020950</ele><time>2021-07-17T14:21:59Z</time><extensions><speed>1.252588</speed><course>262.654938</course><hAcc>0.876993</hAcc><vAcc>0.678368</vAcc></extensions></trkpt>
      <trkpt lon="-4.137591" lat="53.024577"><ele>244.997620</ele><time>2021-07-17T14:22:00Z</time><extensions><speed>1.267189</speed><course>262.654938</course><hAcc>0.877412</hAcc><vAcc>0.679748</vAcc></extensions></trkpt>
      <trkpt lon="-4.137576" lat="53.024569"><ele>244.977600</ele><time>2021-07-17T14:22:01Z</time><extensions><speed>1.278409</speed><course>262.654938</course><hAcc>0.877870</hAcc><vAcc>0.681274</vAcc></extensions></trkpt>
      <trkpt lon="-4.137561" lat="53.024563"><ele>244.959885</ele><time>2021-07-17T14:22:02Z</time><extensions><speed>1.285172</speed><course>262.654938</course><hAcc>0.878355</hAcc><vAcc>0.682891</vAcc></extensions></trkpt>
      <trkpt lon="-4.137545" lat="53.024556"><ele>244.943146</ele><time>2021-07-17T14:22:03Z</time><extensions><speed>1.286759</speed><course>262.654938</course><hAcc>0.878850</hAcc><vAcc>0.684534</vAcc></extensions></trkpt>
      <trkpt lon="-4.137529" lat="53.024550"><ele>244.926056</ele><time>2021-07-17T14:22:04Z</time><extensions><speed>1.283153</speed><course>262.654938</course><hAcc>0.879343</hAcc><vAcc>0.686145</vAcc></extensions></trkpt>
      <trkpt lon="-4.137512" lat="53.024544"><ele>244.906784</ele><time>2021-07-17T14:22:05Z</time><extensions><speed>1.274475</speed><course>262.654938</course><hAcc>0.879819</hAcc><vAcc>0.687683</vAcc></extensions></trkpt>
      <trkpt lon="-4.137495" lat="53.024539"><ele>244.883408</ele><time>2021-07-17T14:22:06Z</time><extensions><speed>1.261817</speed><course>262.654938</course><hAcc>0.880268</hAcc><vAcc>0.689120</vAcc></extensions></trkpt>
      <trkpt lon="-4.137478" lat="53.024535"><ele>244.854401</ele><time>2021-07-17T14:22:07Z</time><extensions><speed>1.247193</speed><course>262.654938</course><hAcc>0.880683</hAcc><vAcc>0.690432</vAcc></extensions></trkpt>
      <trkpt lon="-4.137461" lat="53.024530"><ele>244.818436</ele><time>2021-07-17T14:22:08Z</time><extensions><speed>1.231505</speed><course>262.654938</course><hAcc>0.881057</hAcc><vAcc>0.691596</vAcc></extensions></trkpt>
      <trkpt lon="-4.137444" lat="53.024527"><ele>244.774445</ele><time>2021-07-17T14:22:09Z</time><extensions><speed>1.214653</speed><course>262.654938</course><hAcc>0.881385</hAcc><vAcc>0.692596</vAcc></extensions></trkpt>
      <trkpt lon="-4.137426" lat="53.024524"><ele>244.721100</ele><time>2021-07-17T14:22:10Z</time><extensions><speed>1.196331</speed><course>262.654938</course><hAcc>0.881647</hAcc><vAcc>0.693415</vAcc></extensions></trkpt>
      <trkpt lon="-4.137409" lat="53.024522"><ele>244.656937</ele><time>2021-07-17T14:22:11Z</time><extensions><speed>1.176562</speed><course>262.654938</course><hAcc>0.881843</hAcc><vAcc>0.694051</vAcc></extensions></trkpt>
      <trkpt lon="-4.137392" lat="53.024520"><ele>244.581223</ele><time>2021-07-17T14:22:12Z</time><extensions><speed>1.155038</speed><course>262.654938</course><hAcc>0.881992</hAcc><vAcc>0.694519</vAcc></extensions></trkpt>
      <trkpt lon="-4.137375" lat="53.024519"><ele>244.494232</ele><time>2021-07-17T14:22:13Z</time><extensions><speed>1.131610</speed><course>262.654938</course><hAcc>0.882098</hAcc><vAcc>0.694825</vAcc></extensions></trkpt>
      <trkpt lon="-4.137358" lat="53.024518"><ele>244.396118</ele><time>2021-07-17T14:22:14Z</time><extensions><speed>1.107247</speed><course>262.654938</course><hAcc>0.882165</hAcc><vAcc>0.694986</vAcc></extensions></trkpt>
      <trkpt lon="-4.137342" lat="53.024518"><ele>244.286682</ele><time>2021-07-17T14:22:15Z</time><extensions><speed>1.082603</speed><course>262.654938</course><hAcc>0.882203</hAcc><vAcc>0.695029</vAcc></extensions></trkpt>
      <trkpt lon="-4.137326" lat="53.024518"><ele>244.165955</ele><time>2021-07-17T14:22:16Z</time><extensions><speed>1.058362</speed><course>262.654938</course><hAcc>0.882218</hAcc><vAcc>0.694990</vAcc></extensions></trkpt>
      <trkpt lon="-4.137311" lat="53.024519"><ele>244.034271</ele><time>2021-07-17T14:22:17Z</time><extensions><speed>1.036130</speed><course>262.654938</course><hAcc>0.882223</hAcc><vAcc>0.694905</vAcc></extensions></trkpt>
      <trkpt lon="-4.137295" lat="53.024520"><ele>243.892258</ele><time>2021-07-17T14:22:18Z</time><extensions><speed>1.016762</speed><course>262.654938</course><hAcc>0.882227</hAcc><vAcc>0.694817</vAcc></extensions></trkpt>
      <trkpt lon="-4.137281" lat="53.024522"><ele>243.740448</ele><time>2021-07-17T14:22:19Z</time><extensions><speed>1.000028</speed><course>262.654938</course><hAcc>0.882239</hAcc><vAcc>0.694770</vAcc></extensions></trkpt>
      <trkpt lon="-4.137266" lat="53.024523"><ele>243.579071</ele><time>2021-07-17T14:22:20Z</time><extensions><speed>0.984984</speed><course>262.654938</course><hAcc>0.882269</hAcc><vAcc>0.694803</vAcc></extensions></trkpt>
      <trkpt lon="-4.137252" lat="53.024525"><ele>243.408249</ele><time>2021-07-17T14:22:21Z</time><extensions><speed>0.970785</speed><course>262.654938</course><hAcc>0.882321</hAcc><vAcc>0.694948</vAcc></extensions></trkpt>
      <trkpt lon="-4.137238" lat="53.024528"><ele>243.228668</ele><time>2021-07-17T14:22:22Z</time><extensions><speed>0.956712</speed><course>262.654938</course><hAcc>0.882398</hAcc><vAcc>0.695218</vAcc></extensions></trkpt>
      <trkpt lon="-4.137224" lat="53.024530"><ele>243.041458</ele><time>2021-07-17T14:22:23Z</time><extensions><speed>0.941802</speed><course>262.654938</course><hAcc>0.882499</hAcc><vAcc>0.695606</vAcc></extensions></trkpt>
      <trkpt lon="-4.137211" lat="53.024533"><ele>242.848053</ele><time>2021-07-17T14:22:24Z</time><extensions><speed>0.924568</speed><course>262.654938</course><hAcc>0.882618</hAcc><vAcc>0.696088</vAcc></extensions></trkpt>
      <trkpt lon="-4.137198" lat="53.024535"><ele>242.649765</ele><time>2021-07-17T14:22:25Z</time><extensions><speed>0.903022</speed><course>262.654938</course><hAcc>0.882749</hAcc><vAcc>0.696623</vAcc></extensions></trkpt>
      <trkpt lon="-4.137186" lat="53.024538"><ele>242.447525</ele><time>2021-07-17T14:22:26Z</time><extensions><speed>0.875899</speed><course>209.646423</course><hAcc>0.882883</hAcc><vAcc>0.697168</vAcc></extensions></trkpt>
      <trkpt lon="-4.137174" lat="53.024541"><ele>242.241959</ele><time>2021-07-17T14:22:27Z</time><extensions><speed>0.843227</speed><course>207.502853</course><hAcc>0.883012</hAcc><vAcc>0.697676</vAcc></extensions></trkpt>
      <trkpt lon="-4.137163" lat="53.024544"><ele>242.033752</ele><time>2021-07-17T14:22:28Z</time><extensions><speed>0.806125</speed><course>210.649872</course><hAcc>0.883127</hAcc><vAcc>0.698105</vAcc></extensions></trkpt>
      <trkpt lon="-4.137152" lat="53.024546"><ele>241.823959</ele><time>2021-07-17T14:22:29Z</time><extensions><speed>0.766285</speed><course>218.307190</course><hAcc>0.883225</hAcc><vAcc>0.698430</vAcc></extensions></trkpt>
      <trkpt lon="-4.137141" lat="53.024549"><ele>241.614105</ele><time>2021-07-17T14:22:30Z</time><extensions><speed>0.725401</speed><course>221.774033</course><hAcc>0.883302</hAcc><vAcc>0.698644</vAcc></extensions></trkpt>
      <trkpt lon="-4.137131" lat="53.024551"><ele>241.405869</ele><time>2021-07-17T14:22:31Z</time><extensions><speed>0.685246</speed><course>225.071381</course><hAcc>0.883359</hAcc><vAcc>0.698759</vAcc></extensions></trkpt>
      <trkpt lon="-4.137122" lat="53.024552"><ele>241.200729</ele><time>2021-07-17T14:22:32Z</time><extensions><speed>0.648478</speed><course>229.682953</course><hAcc>0.883398</hAcc><vAcc>0.698802</vAcc></extensions></trkpt>
      <trkpt lon="-4.137112" lat="53.024553"><ele>241.000000</ele><time>2021-07-17T14:22:33Z</time><extensions><speed>0.617970</speed><course>228.187271</course><hAcc>0.883422</hAcc><vAcc>0.698804</vAcc></extensions></trkpt>
      <trkpt lon="-4.137104" lat="53.024554"><ele>240.805008</ele><time>2021-07-17T14:22:34Z</time><extensions><speed>0.595835</speed><course>224.821243</course><hAcc>0.883436</hAcc><vAcc>0.698797</vAcc></extensions></trkpt>
      <trkpt lon="-4.137095" lat="53.024555"><ele>240.617111</ele><time>2021-07-17T14:22:35Z</time><extensions><speed>0.583306</speed><course>222.757462</course><hAcc>0.883460</hAcc><vAcc>0.698823</vAcc></extensions></trkpt>
      <trkpt lon="-4.137086" lat="53.024554"><ele>240.436493</ele><time>2021-07-17T14:22:36Z</time><extensions><speed>0.580203</speed><course>223.047150</course><hAcc>0.883496</hAcc><vAcc>0.698902</vAcc></extensions></trkpt>
      <trkpt lon="-4.137078" lat="53.024554"><ele>240.263275</ele><time>2021-07-17T14:22:37Z</time><extensions><speed>0.584874</speed><course>218.695862</course><hAcc>0.883525</hAcc><vAcc>0.699021</vAcc></extensions></trkpt>
      <trkpt lon="-4.137069" lat="53.024553"><ele>240.096954</ele><time>2021-07-17T14:22:38Z</time><extensions><speed>0.594061</speed><course>216.351273</course><hAcc>0.883543</hAcc><vAcc>0.699162</vAcc></extensions></trkpt>
      <trkpt lon="-4.137060" lat="53.024551"><ele>239.936905</ele><time>2021-07-17T14:22:39Z</time><extensions><speed>0.603533</speed><course>219.658188</course><hAcc>0.883542</hAcc><vAcc>0.699288</vAcc></extensions></trkpt>
      <trkpt lon="-4.137052" lat="53.024549"><ele>239.782471</ele><time>2021-07-17T14:22:40Z</time><extensions><speed>0.609793</speed><course>221.748871</course><hAcc>0.883515</hAcc><vAcc>0.699344</vAcc></extensions></trkpt>
      <trkpt lon="-4.137044" lat="53.024547"><ele>239.632629</ele><time>2021-07-17T14:22:41Z</time><extensions><speed>0.610958</speed><course>225.723022</course><hAcc>0.883452</hAcc><vAcc>0.699274</vAcc></extensions></trkpt>
      <trkpt lon="-4.137036" lat="53.024544"><ele>239.486008</ele><time>2021-07-17T14:22:42Z</time><extensions><speed>0.606940</speed><course>227.303833</course><hAcc>0.883342</hAcc><vAcc>0.699031</vAcc></extensions></trkpt>
      <trkpt lon="-4.137028" lat="53.024542"><ele>239.341492</ele><time>2021-07-17T14:22:43Z</time><extensions><speed>0.598900</speed><course>225.742310</course><hAcc>0.883180</hAcc><vAcc>0.698583</vAcc></extensions></trkpt>
      <trkpt lon="-4.137020" lat="53.024539"><ele>239.198059</ele><time>2021-07-17T14:22:44Z</time><extensions><speed>0.587633</speed><course>225.742310</course><hAcc>0.882959</hAcc><vAcc>0.697910</vAcc></extensions></trkpt>
      <trkpt lon="-4.137012" lat="53.024537"><ele>239.054657</ele><time>2021-07-17T14:22:45Z</time><extensions><speed>0.574489</speed><course>225.742325</course><hAcc>0.882680</hAcc><vAcc>0.697009</vAcc></extensions></trkpt>
      <trkpt lon="-4.137005" lat="53.024535"><ele>238.910141</ele><time>2021-07-17T14:22:46Z</time><extensions><speed>0.562518</speed><course>225.742325</course><hAcc>0.882343</hAcc><vAcc>0.695892</vAcc></extensions></trkpt>
      <trkpt lon="-4.136997" lat="53.024533"><ele>238.763153</ele><time>2021-07-17T14:22:47Z</time><extensions><speed>0.555383</speed><course>225.742325</course><hAcc>0.881955</hAcc><vAcc>0.694586</vAcc></extensions></trkpt>
      <trkpt lon="-4.136989" lat="53.024532"><ele>238.612030</ele><time>2021-07-17T14:22:48Z</time><extensions><speed>0.556297</speed><course>224.360504</course><hAcc>0.881521</hAcc><vAcc>0.693127</vAcc></extensions></trkpt>
      <trkpt lon="-4.136980" lat="53.024531"><ele>238.454956</ele><time>2021-07-17T14:22:49Z</time><extensions><speed>0.566750</speed><course>231.374908</course><hAcc>0.881052</hAcc><vAcc>0.691555</vAcc></extensions></trkpt>
      <trkpt lon="-4.136972" lat="53.024531"><ele>238.289810</ele><time>2021-07-17T14:22:50Z</time><extensions><speed>0.586149</speed><course>226.234039</course><hAcc>0.880558</hAcc><vAcc>0.689910</vAcc></extensions></trkpt>
      <trkpt lon="-4.136963" lat="53.024531"><ele>238.113632</ele><time>2021-07-17T14:22:51Z</time><extensions><speed>0.611971</speed><course>228.443588</course><hAcc>0.880047</hAcc><vAcc>0.688229</vAcc></extensions></trkpt>
      <trkpt lon="-4.136954" lat="53.024532"><ele>237.923355</ele><time>2021-07-17T14:22:52Z</time><extensions><speed>0.641044</speed><course>217.150848</course><hAcc>0.879527</hAcc><vAcc>0.686540</vAcc></extensions></trkpt>
      <trkpt lon="-4.136944" lat="53.024534"><ele>237.716705</ele><time>2021-07-17T14:22:53Z</time><extensions><speed>0.670080</speed><course>214.670395</course><hAcc>0.879007</hAcc><vAcc>0.684867</vAcc></extensions></trkpt>
      <trkpt lon="-4.136935" lat="53.024536"><ele>237.492798</ele><time>2021-07-17T14:22:54Z</time><extensions><speed>0.695486</speed><course>219.066208</course><hAcc>0.878490</hAcc><vAcc>0.683231</vAcc></extensions></trkpt>
      <trkpt lon="-4.136925" lat="53.024539"><ele>237.252014</ele><time>2021-07-17T14:22:55Z</time><extensions><speed>0.714895</speed><course>218.042282</course><hAcc>0.877979</hAcc><vAcc>0.681640</vAcc></extensions></trkpt>
      <trkpt lon="-4.136916" lat="53.024542"><ele>236.995804</ele><time>2021-07-17T14:22:56Z</time><extensions><speed>0.727446</speed><course>220.994385</course><hAcc>0.877474</hAcc><vAcc>0.680087</vAcc></extensions></trkpt>
      <trkpt lon="-4.136907" lat="53.024545"><ele>236.725998</ele><time>2021-07-17T14:22:57Z</time><extensions><speed>0.733096</speed><course>227.746307</course><hAcc>0.876972</hAcc><vAcc>0.678548</vAcc></extensions></trkpt>
      <trkpt lon="-4.136898" lat="53.024549"><ele>236.444717</ele><time>2021-07-17T14:22:58Z</time><extensions><speed>0.732055</speed><course>224.855316</course><hAcc>0.876468</hAcc><vAcc>0.677003</vAcc></extensions></trkpt>
      <trkpt lon="-4.136889" lat="53.024553"><ele>236.154556</ele><time>2021-07-17T14:22:59Z</time><extensions><speed>0.724973</speed><course>223.584900</course><hAcc>0.875960</hAcc><vAcc>0.675437</vAcc></extensions></trkpt>
      <trkpt lon="-4.136880" lat="53.024556"><ele>235.858475</ele><time>2021-07-17T14:23:00Z</time><extensions><speed>0.713551</speed><course>224.383530</course><hAcc>0.875446</hAcc><vAcc>0.673842</vAcc></extensions></trkpt>
      <trkpt lon="-4.136872" lat="53.024560"><ele>235.559189</ele><time>2021-07-17T14:23:01Z</time><extensions><speed>0.700002</speed><course>225.716217</course><hAcc>0.874925</hAcc><vAcc>0.672213</vAcc></extensions></trkpt>
      <trkpt lon="-4.136863" lat="53.024564"><ele>235.258438</ele><time>2021-07-17T14:23:02Z</time><extensions><speed>0.686401</speed><course>229.189102</course><hAcc>0.874398</hAcc><vAcc>0.670544</vAcc></extensions></trkpt>
      <trkpt lon="-4.136855" lat="53.024568"><ele>234.957275</ele><time>2021-07-17T14:23:03Z</time><extensions><speed>0.674479</speed><course>224.817474</course><hAcc>0.873866</hAcc><vAcc>0.668833</vAcc></extensions></trkpt>
      <trkpt lon="-4.136847" lat="53.024571"><ele>234.656570</ele><time>2021-07-17T14:23:04Z</time><extensions><speed>0.665590</speed><course>225.227936</course><hAcc>0.873333</hAcc><vAcc>0.667093</vAcc></extensions></trkpt>
      <trkpt lon="-4.136839" lat="53.024575"><ele>234.357239</ele><time>2021-07-17T14:23:05Z</time><extensions><speed>0.660350</speed><course>228.251373</course><hAcc>0.872808</hAcc><vAcc>0.665351</vAcc></extensions></trkpt>
      <trkpt lon="-4.136831" lat="53.024578"><ele>234.060394</ele><time>2021-07-17T14:23:06Z</time><extensions><speed>0.658623</speed><course>230.721024</course><hAcc>0.872300</hAcc><vAcc>0.663647</vAcc></extensions></trkpt>
      <trkpt lon="-4.136823" lat="53.024582"><ele>233.766937</ele><time>2021-07-17T14:23:07Z</time><extensions><speed>0.659881</speed><course>234.697540</course><hAcc>0.871821</hAcc><vAcc>0.662025</vAcc></extensions></trkpt>
      <trkpt lon="-4.136815" lat="53.024585"><ele>233.476685</ele><time>2021-07-17T14:23:08Z</time><extensions><speed>0.663223</speed><course>236.619934</course><hAcc>0.871378</hAcc><vAcc>0.660519</vAcc></extensions></trkpt>
      <trkpt lon="-4.136807" lat="53.024588"><ele>233.188431</ele><time>2021-07-17T14:23:09Z</time><extensions><speed>0.667599</speed><course>247.542679</course><hAcc>0.870975</hAcc><vAcc>0.659136</vAcc></extensions></trkpt>
      <trkpt lon="-4.136798" lat="53.024591"><ele>232.900803</ele><time>2021-07-17T14:23:10Z</time><extensions><speed>0.671994</speed><course>242.855072</course><hAcc>0.870610</hAcc><vAcc>0.657843</vAcc></extensions></trkpt>
      <trkpt lon="-4.136790" lat="53.024595"><ele>232.612930</ele><time>2021-07-17T14:23:11Z</time><extensions><speed>0.675638</speed><course>241.397278</course><hAcc>0.870276</hAcc><vAcc>0.656560</vAcc></extensions></trkpt>
      <trkpt lon="-4.136781" lat="53.024598"><ele>232.324203</ele><time>2021-07-17T14:23:12Z</time><extensions><speed>0.678094</speed><course>241.667068</course><hAcc>0.869964</hAcc><vAcc>0.655188</vAcc></extensions></trkpt>
      <trkpt lon="-4.136772" lat="53.024601"><ele>232.034164</ele><time>2021-07-17T14:23:13Z</time><extensions><speed>0.679045</speed><course>241.132874</course><hAcc>0.869669</hAcc><vAcc>0.653628</vAcc></extensions></trkpt>
      <trkpt lon="-4.136764" lat="53.024604"><ele>231.742447</ele><time>2021-07-17T14:23:14Z</time><extensions><speed>0.678215</speed><course>242.509506</course><hAcc>0.869393</hAcc><vAcc>0.651801</vAcc></extensions></trkpt>
      <trkpt lon="-4.136755" lat="53.024607"><ele>231.448807</ele><time>2021-07-17T14:23:15Z</time><extensions><speed>0.675469</speed><course>242.195404</course><hAcc>0.869144</hAcc><vAcc>0.649666</vAcc></extensions></trkpt>
      <trkpt lon="-4.136746" lat="53.024610"><ele>231.153122</ele><time>2021-07-17T14:23:16Z</time><extensions><speed>0.670932</speed><course>244.443573</course><hAcc>0.868940</hAcc><vAcc>0.647242</vAcc></extensions></trkpt>
      <trkpt lon="-4.136737" lat="53.024612"><ele>230.855469</ele><time>2021-07-17T14:23:17Z</time><extensions><speed>0.664537</speed><course>246.780472</course><hAcc>0.868807</hAcc><vAcc>0.644607</vAcc></extensions></trkpt>
      <trkpt lon="-4.136728" lat="53.024615"><ele>230.556229</ele><time>2021-07-17T14:23:18Z</time><extensions><speed>0.656248</speed><course>247.423477</course><hAcc>0.868770</hAcc><vAcc>0.641894</vAcc></extensions></trkpt>
      <trkpt lon="-4.136720" lat="53.024618"><ele>230.256195</ele><time>2021-07-17T14:23:19Z</time><extensions><speed>0.646748</speed><course>252.345490</course><hAcc>0.868853</hAcc><vAcc>0.639246</vAcc></extensions></trkpt>
      <trkpt lon="-4.136711" lat="53.024620"><ele>229.956451</ele><time>2021-07-17T14:23:20Z</time><extensions><speed>0.636475</speed><course>252.366760</course><hAcc>0.869082</hAcc><vAcc>0.636781</vAcc></extensions></trkpt>
      <trkpt lon="-4.136702" lat="53.024623"><ele>229.657806</ele><time>2021-07-17T14:23:21Z</time><extensions><speed>0.625800</speed><course>254.889893</course><hAcc>0.869489</hAcc><vAcc>0.634569</vAcc></extensions></trkpt>
      <trkpt lon="-4.136694" lat="53.024625"><ele>229.360474</ele><time>2021-07-17T14:23:22Z</time><extensions><speed>0.615466</speed><course>257.492432</course><hAcc>0.870091</hAcc><vAcc>0.632644</vAcc></extensions></trkpt>
      <trkpt lon="-4.136685" lat="53.024627"><ele>229.064590</ele><time>2021-07-17T14:23:23Z</time><extensions><speed>0.606160</speed><course>255.728439</course><hAcc>0.870887</hAcc><vAcc>0.631028</vAcc></extensions></trkpt>
      <trkpt lon="-4.136677" lat="53.024628"><ele>228.770157</ele><time>2021-07-17T14:23:24Z</time><extensions><speed>0.598137</speed><course>258.375061</course><hAcc>0.871870</hAcc><vAcc>0.629742</vAcc></extensions></trkpt>
      <trkpt lon="-4.136668" lat="53.024630"><ele>228.477066</ele><time>2021-07-17T14:23:25Z</time><extensions><speed>0.591737</speed><course>260.722260</course><hAcc>0.873036</hAcc><vAcc>0.628801</vAcc></extensions></trkpt>
      <trkpt lon="-4.136660" lat="53.024631"><ele>228.185608</ele><time>2021-07-17T14:23:26Z</time><extensions><speed>0.587608</speed><course>260.722260</course><hAcc>0.874348</hAcc><vAcc>0.628209</vAcc></extensions></trkpt>
      <trkpt lon="-4.136651" lat="53.024632"><ele>227.895813</ele><time>2021-07-17T14:23:27Z</time><extensions><speed>0.586121</speed><course>260.722260</course><hAcc>0.875722</hAcc><vAcc>0.627946</vAcc></extensions></trkpt>
      <trkpt lon="-4.136642" lat="53.024632"><ele>227.607422</ele><time>2021-07-17T14:23:28Z</time><extensions><speed>0.587610</speed><course>260.722260</course><hAcc>0.877022</hAcc><vAcc>0.627956</vAcc></extensions></trkpt>
      <trkpt lon="-4.136634" lat="53.024632"><ele>227.319916</ele><time>2021-07-17T14:23:29Z</time><extensions><speed>0.592363</speed><course>260.722260</course><hAcc>0.878087</hAcc><vAcc>0.628152</vAcc></extensions></trkpt>
      <trkpt lon="-4.136625" lat="53.024632"><ele>227.032684</ele><time>2021-07-17T14:23:30Z</time><extensions><speed>0.600520</speed><course>260.722260</course><hAcc>0.878762</hAcc><vAcc>0.628434</vAcc></extensions></trkpt>
      <trkpt lon="-4.136616" lat="53.024631"><ele>226.745071</ele><time>2021-07-17T14:23:31Z</time><extensions><speed>0.611442</speed><course>260.722260</course><hAcc>0.878934</hAcc><vAcc>0.628709</vAcc></extensions></trkpt>
      <trkpt lon="-4.136607" lat="53.024630"><ele>226.456451</ele><time>2021-07-17T14:23:32Z</time><extensions><speed>0.623866</speed><course>260.722229</course><hAcc>0.878558</hAcc><vAcc>0.628917</vAcc></extensions></trkpt>
      <trkpt lon="-4.136598" lat="53.024629"><ele>226.166550</ele><time>2021-07-17T14:23:33Z</time><extensions><speed>0.636600</speed><course>268.575928</course><hAcc>0.877676</hAcc><vAcc>0.629023</vAcc></extensions></trkpt>
      <trkpt lon="-4.136588" lat="53.024627"><ele>225.875290</ele><time>2021-07-17T14:23:34Z</time><extensions><speed>0.648502</speed><course>268.685822</course><hAcc>0.876407</hAcc><vAcc>0.629025</vAcc></extensions></trkpt>
      <trkpt lon="-4.136579" lat="53.024625"><ele>225.582611</ele><time>2021-07-17T14:23:35Z</time><extensions><speed>0.658509</speed><course>264.169769</course><hAcc>0.874908</hAcc><vAcc>0.628959</vAcc></extensions></trkpt>
      <trkpt lon="-4.136570" lat="53.024623"><ele>225.288803</ele><time>2021-07-17T14:23:36Z</time><extensions><speed>0.665881</speed><course>272.216278</course><hAcc>0.873318</hAcc><vAcc>0.628895</vAcc></extensions></trkpt>
      <trkpt lon="-4.136561" lat="53.024621"><ele>224.994400</ele><time>2021-07-17T14:23:37Z</time><extensions><speed>0.669837</speed><course>279.707916</course><hAcc>0.871738</hAcc><vAcc>0.628922</vAcc></extensions></trkpt>
      <trkpt lon="-4.136552" lat="53.024618"><ele>224.699966</ele><time>2021-07-17T14:23:38Z</time><extensions><speed>0.669499</speed><course>277.974487</course><hAcc>0.870236</hAcc><vAcc>0.629132</vAcc></extensions></trkpt>
      <trkpt lon="-4.136543" lat="53.024615"><ele>224.406128</ele><time>2021-07-17T14:23:39Z</time><extensions><speed>0.664501</speed><course>285.359497</course><hAcc>0.868877</hAcc><vAcc>0.629620</vAcc></extensions></trkpt>
      <trkpt lon="-4.136535" lat="53.024612"><ele>224.113968</ele><time>2021-07-17T14:23:40Z</time><extensions><speed>0.655545</speed><course>288.896698</course><hAcc>0.867743</hAcc><vAcc>0.630468</vAcc></extensions></trkpt>
      <trkpt lon="-4.136526" lat="53.024609"><ele>223.825302</ele><time>2021-07-17T14:23:41Z</time><extensions><speed>0.644215</speed><course>285.949463</course><hAcc>0.866915</hAcc><vAcc>0.631735</vAcc></extensions></trkpt>
      <trkpt lon="-4.136518" lat="53.024607"><ele>223.542007</ele><time>2021-07-17T14:23:42Z</time><extensions><speed>0.631945</speed><course>279.328217</course><hAcc>0.866434</hAcc><vAcc>0.633447</vAcc></extensions></trkpt>
      <trkpt lon="-4.136510" lat="53.024604"><ele>223.265076</ele><time>2021-07-17T14:23:43Z</time><extensions><speed>0.619589</speed><course>280.252258</course><hAcc>0.866292</hAcc><vAcc>0.635596</vAcc></extensions></trkpt>
      <trkpt lon="-4.136502" lat="53.024601"><ele>222.994492</ele><time>2021-07-17T14:23:44Z</time><extensions><speed>0.607641</speed><course>280.968384</course><hAcc>0.866446</hAcc><vAcc>0.638148</vAcc></extensions></trkpt>
      <trkpt lon="-4.136494" lat="53.024599"><ele>222.730286</ele><time>2021-07-17T14:23:45Z</time><extensions><speed>0.596296</speed><course>279.577759</course><hAcc>0.866830</hAcc><vAcc>0.641054</vAcc></extensions></trkpt>
      <trkpt lon="-4.136486" lat="53.024596"><ele>222.472458</ele><time>2021-07-17T14:23:46Z</time><extensions><speed>0.585511</speed><course>280.039124</course><hAcc>0.867383</hAcc><vAcc>0.644244</vAcc></extensions></trkpt>
      <trkpt lon="-4.136478" lat="53.024594"><ele>222.220291</ele><time>2021-07-17T14:23:47Z</time><extensions><speed>0.575221</speed><course>285.588440</course><hAcc>0.868060</hAcc><vAcc>0.647614</vAcc></extensions></trkpt>
      <trkpt lon="-4.136470" lat="53.024592"><ele>221.972321</ele><time>2021-07-17T14:23:48Z</time><extensions><speed>0.565419</speed><course>287.653503</course><hAcc>0.868813</hAcc><vAcc>0.651012</vAcc></extensions></trkpt>
      <trkpt lon="-4.136463" lat="53.024590"><ele>221.727066</ele><time>2021-07-17T14:23:49Z</time><extensions><speed>0.555966</speed><course>285.239563</course><hAcc>0.869593</hAcc><vAcc>0.654271</vAcc></extensions></trkpt>
      <trkpt lon="-4.136455" lat="53.024588"><ele>221.483368</ele><time>2021-07-17T14:23:50Z</time><extensions><speed>0.546735</speed><course>283.468018</course><hAcc>0.870351</hAcc><vAcc>0.657237</vAcc></extensions></trkpt>
      <trkpt lon="-4.136448" lat="53.024587"><ele>221.240433</ele><time>2021-07-17T14:23:51Z</time><extensions><speed>0.537774</speed><course>279.656525</course><hAcc>0.871052</hAcc><vAcc>0.659790</vAcc></extensions></trkpt>
      <trkpt lon="-4.136440" lat="53.024585"><ele>220.997894</ele><time>2021-07-17T14:23:52Z</time><extensions><speed>0.528586</speed><course>278.539093</course><hAcc>0.871672</hAcc><vAcc>0.661846</vAcc></extensions></trkpt>
      <trkpt lon="-4.136432" lat="53.024584"><ele>220.755447</ele><time>2021-07-17T14:23:53Z</time><extensions><speed>0.518313</speed><course>281.435120</course><hAcc>0.872198</hAcc><vAcc>0.663347</vAcc></extensions></trkpt>
      <trkpt lon="-4.136425" lat="53.024583"><ele>220.512512</ele><time>2021-07-17T14:23:54Z</time><extensions><speed>0.506546</speed><course>285.299316</course><hAcc>0.872633</hAcc><vAcc>0.664255</vAcc></extensions></trkpt>
      <trkpt lon="-4.136417" lat="53.024583"><ele>220.268616</ele><time>2021-07-17T14:23:55Z</time><extensions><speed>0.493521</speed><course>278.729095</course><hAcc>0.872990</hAcc><vAcc>0.664559</vAcc></extensions></trkpt>
      <trkpt lon="-4.136410" lat="53.024582"><ele>220.023575</ele><time>2021-07-17T14:23:56Z</time><extensions><speed>0.479991</speed><course>281.499542</course><hAcc>0.873298</hAcc><vAcc>0.664292</vAcc></extensions></trkpt>
      <trkpt lon="-4.136403" lat="53.024582"><ele>219.777664</ele><time>2021-07-17T14:23:57Z</time><extensions><speed>0.466462</speed><course>280.886475</course><hAcc>0.873595</hAcc><vAcc>0.663541</vAcc></extensions></trkpt>
      <trkpt lon="-4.136396" lat="53.024582"><ele>219.531616</ele><time>2021-07-17T14:23:58Z</time><extensions><speed>0.452896</speed><course>287.541565</course><hAcc>0.873927</hAcc><vAcc>0.662442</vAcc></extensions></trkpt>
      <trkpt lon="-4.136390" lat="53.024582"><ele>219.286499</ele><time>2021-07-17T14:23:59Z</time><extensions><speed>0.439344</speed><course>288.221985</course><hAcc>0.874330</hAcc><vAcc>0.661150</vAcc></extensions></trkpt>
      <trkpt lon="-4.136383" lat="53.024582"><ele>219.043579</ele><time>2021-07-17T14:24:00Z</time><extensions><speed>0.426484</speed><course>291.891876</course><hAcc>0.874823</hAcc><vAcc>0.659794</vAcc></extensions></trkpt>
      <trkpt lon="-4.136377" lat="53.024583"><ele>218.804230</ele><time>2021-07-17T14:24:01Z</time><extensions><speed>0.415349</speed><course>289.035248</course><hAcc>0.875398</hAcc><vAcc>0.658457</vAcc></extensions></trkpt>
      <trkpt lon="-4.136371" lat="53.024583"><ele>218.569824</ele><time>2021-07-17T14:24:02Z</time><extensions><speed>0.406562</speed><course>286.354584</course><hAcc>0.876042</hAcc><vAcc>0.657187</vAcc></extensions></trkpt>
      <trkpt lon="-4.136365" lat="53.024583"><ele>218.341568</ele><time>2021-07-17T14:24:03Z</time><extensions><speed>0.400387</speed><course>285.070648</course><hAcc>0.876743</hAcc><vAcc>0.656007</vAcc></extensions></trkpt>
      <trkpt lon="-4.136359" lat="53.024584"><ele>218.120377</ele><time>2021-07-17T14:24:04Z</time><extensions><speed>0.396830</speed><course>282.456329</course><hAcc>0.877490</hAcc><vAcc>0.654934</vAcc></extensions></trkpt>
      <trkpt lon="-4.136353" lat="53.024585"><ele>217.907089</ele><time>2021-07-17T14:24:05Z</time><extensions><speed>0.395680</speed><course>277.579590</course><hAcc>0.878250</hAcc><vAcc>0.653972</vAcc></extensions></trkpt>
      <trkpt lon="-4.136347" lat="53.024585"><ele>217.702530</ele><time>2021-07-17T14:24:06Z</time><extensions><speed>0.396832</speed><course>280.944580</course><hAcc>0.878965</hAcc><vAcc>0.653107</vAcc></extensions></trkpt>
      <trkpt lon="-4.136342" lat="53.024586"><ele>217.508148</ele><time>2021-07-17T14:24:07Z</time><extensions><speed>0.399894</speed><course>286.555664</course><hAcc>0.879575</hAcc><vAcc>0.652306</vAcc></extensions></trkpt>
      <trkpt lon="-4.136336" lat="53.024586"><ele>217.325424</ele><time>2021-07-17T14:24:08Z</time><extensions><speed>0.404154</speed><course>286.867188</course><hAcc>0.880030</hAcc><vAcc>0.651520</vAcc></extensions></trkpt>
      <trkpt lon="-4.136330" lat="53.024587"><ele>217.154160</ele><time>2021-07-17T14:24:09Z</time><extensions><speed>0.409510</speed><course>285.747314</course><hAcc>0.880297</hAcc><vAcc>0.650702</vAcc></extensions></trkpt>
      <trkpt lon="-4.136324" lat="53.024587"><ele>216.992188</ele><time>2021-07-17T14:24:10Z</time><extensions><speed>0.416545</speed><course>288.748718</course><hAcc>0.880362</hAcc><vAcc>0.649824</vAcc></extensions></trkpt>
      <trkpt lon="-4.136317" lat="53.024587"><ele>216.836884</ele><time>2021-07-17T14:24:11Z</time><extensions><speed>0.425884</speed><course>282.056335</course><hAcc>0.880235</hAcc><vAcc>0.648905</vAcc></extensions></trkpt>
      <trkpt lon="-4.136311" lat="53.024588"><ele>216.685623</ele><time>2021-07-17T14:24:12Z</time><extensions><speed>0.437976</speed><course>284.841522</course><hAcc>0.879969</hAcc><vAcc>0.648016</vAcc></extensions></trkpt>
      <trkpt lon="-4.136304" lat="53.024588"><ele>216.535873</ele><time>2021-07-17T14:24:13Z</time><extensions><speed>0.452349</speed><course>283.873260</course><hAcc>0.879659</hAcc><vAcc>0.647258</vAcc></extensions></trkpt>
      <trkpt lon="-4.136297" lat="53.024588"><ele>216.385483</ele><time>2021-07-17T14:24:14Z</time><extensions><speed>0.467965</speed><course>280.645142</course><hAcc>0.879437</hAcc><vAcc>0.646732</vAcc></extensions></trkpt>
      <trkpt lon="-4.136290" lat="53.024588"><ele>216.232941</ele><time>2021-07-17T14:24:15Z</time><extensions><speed>0.483621</speed><course>278.726105</course><hAcc>0.879431</hAcc><vAcc>0.646493</vAcc></extensions></trkpt>
      <trkpt lon="-4.136283" lat="53.024588"><ele>216.077072</ele><time>2021-07-17T14:24:16Z</time><extensions><speed>0.498033</speed><course>276.107971</course><hAcc>0.879724</hAcc><vAcc>0.646542</vAcc></extensions></trkpt>
      <trkpt lon="-4.136275" lat="53.024587"><ele>215.916580</ele><time>2021-07-17T14:24:17Z</time><extensions><speed>0.510207</speed><course>275.135803</course><hAcc>0.880319</hAcc><vAcc>0.646815</vAcc></extensions></trkpt>
      <trkpt lon="-4.136268" lat="53.024587"><ele>215.750290</ele><time>2021-07-17T14:24:18Z</time><extensions><speed>0.519436</speed><course>273.705627</course><hAcc>0.881169</hAcc><vAcc>0.647211</vAcc></extensions></trkpt>
      <trkpt lon="-4.136260" lat="53.024587"><ele>215.577316</ele><time>2021-07-17T14:24:19Z</time><extensions><speed>0.525191</speed><course>279.700806</course><hAcc>0.882221</hAcc><vAcc>0.647622</vAcc></extensions></trkpt>
      <trkpt lon="-4.136252" lat="53.024586"><ele>215.397247</ele><time>2021-07-17T14:24:20Z</time><extensions><speed>0.528115</speed><course>279.102997</course><hAcc>0.883431</hAcc><vAcc>0.647963</vAcc></extensions></trkpt>
      <trkpt lon="-4.136244" lat="53.024586"><ele>215.210297</ele><time>2021-07-17T14:24:21Z</time><extensions><speed>0.529606</speed><course>281.416626</course><hAcc>0.884751</hAcc><vAcc>0.648185</vAcc></extensions></trkpt>
      <trkpt lon="-4.136236" lat="53.024586"><ele>215.017151</ele><time>2021-07-17T14:24:22Z</time><extensions><speed>0.529986</speed><course>274.399658</course><hAcc>0.886105</hAcc><vAcc>0.648276</vAcc></extensions></trkpt>
      <trkpt lon="-4.136229" lat="53.024585"><ele>214.818985</ele><time>2021-07-17T14:24:23Z</time><extensions><speed>0.528797</speed><course>277.055237</course><hAcc>0.887393</hAcc><vAcc>0.648245</vAcc></extensions></trkpt>
      <trkpt lon="-4.136221" lat="53.024585"><ele>214.617462</ele><time>2021-07-17T14:24:24Z</time><extensions><speed>0.525583</speed><course>271.055908</course><hAcc>0.888509</hAcc><vAcc>0.648104</vAcc></extensions></trkpt>
      <trkpt lon="-4.136213" lat="53.024585"><ele>214.414383</ele><time>2021-07-17T14:24:25Z</time><extensions><speed>0.520405</speed><course>270.959534</course><hAcc>0.889350</hAcc><vAcc>0.647868</vAcc></extensions></trkpt>
      <trkpt lon="-4.136205" lat="53.024585"><ele>214.211838</ele><time>2021-07-17T14:24:26Z</time><extensions><speed>0.514202</speed><course>273.311462</course><hAcc>0.889833</hAcc><vAcc>0.647555</vAcc></extensions></trkpt>
      <trkpt lon="-4.136198" lat="53.024585"><ele>214.012115</ele><time>2021-07-17T14:24:27Z</time><extensions><speed>0.508297</speed><course>270.079376</course><hAcc>0.889925</hAcc><vAcc>0.647199</vAcc></extensions></trkpt>
      <trkpt lon="-4.136190" lat="53.024585"><ele>213.817062</ele><time>2021-07-17T14:24:28Z</time><extensions><speed>0.503769</speed><course>269.858612</course><hAcc>0.889654</hAcc><vAcc>0.646852</vAcc></extensions></trkpt>
      <trkpt lon="-4.136183" lat="53.024585"><ele>213.627518</ele><time>2021-07-17T14:24:29Z</time><extensions><speed>0.501101</speed><course>271.614288</course><hAcc>0.889122</hAcc><vAcc>0.646587</vAcc></extensions></trkpt>
      <trkpt lon="-4.136175" lat="53.024585"><ele>213.443222</ele><time>2021-07-17T14:24:30Z</time><extensions><speed>0.499981</speed><course>269.703888</course><hAcc>0.888494</hAcc><vAcc>0.646473</vAcc></extensions></trkpt>
      <trkpt lon="-4.136168" lat="53.024585"><ele>213.262848</ele><time>2021-07-17T14:24:31Z</time><extensions><speed>0.500301</speed><course>271.185974</course><hAcc>0.887969</hAcc><vAcc>0.646555</vAcc></extensions></trkpt>
      <trkpt lon="-4.136160" lat="53.024585"><ele>213.084747</ele><time>2021-07-17T14:24:32Z</time><extensions><speed>0.502096</speed><course>276.545776</course><hAcc>0.887741</hAcc><vAcc>0.646828</vAcc></extensions></trkpt>
      <trkpt lon="-4.136153" lat="53.024585"><ele>212.907913</ele><time>2021-07-17T14:24:33Z</time><extensions><speed>0.504826</speed><course>274.150604</course><hAcc>0.887964</hAcc><vAcc>0.647243</vAcc></extensions></trkpt>
      <trkpt lon="-4.136145" lat="53.024585"><ele>212.732193</ele><time>2021-07-17T14:24:34Z</time><extensions><speed>0.507771</speed><course>269.686920</course><hAcc>0.888718</hAcc><vAcc>0.647744</vAcc></extensions></trkpt>
      <trkpt lon="-4.136138" lat="53.024585"><ele>212.557907</ele><time>2021-07-17T14:24:35Z</time><extensions><speed>0.510051</speed><course>266.852386</course><hAcc>0.890019</hAcc><vAcc>0.648306</vAcc></extensions></trkpt>
      <trkpt lon="-4.136130" lat="53.024585"><ele>212.385803</ele><time>2021-07-17T14:24:36Z</time><extensions><speed>0.511070</speed><course>267.243347</course><hAcc>0.891814</hAcc><vAcc>0.648936</vAcc></extensions></trkpt>
      <trkpt lon="-4.136122" lat="53.024585"><ele>212.216400</ele><time>2021-07-17T14:24:37Z</time><extensions><speed>0.510953</speed><course>260.829193</course><hAcc>0.893971</hAcc><vAcc>0.649652</vAcc></extensions></trkpt>
      <trkpt lon="-4.136115" lat="53.024585"><ele>212.049271</ele><time>2021-07-17T14:24:38Z</time><extensions><speed>0.510154</speed><course>268.227509</course><hAcc>0.896268</hAcc><vAcc>0.650460</vAcc></extensions></trkpt>
      <trkpt lon="-4.136107" lat="53.024585"><ele>211.883469</ele><time>2021-07-17T14:24:39Z</time><extensions><speed>0.509104</speed><course>261.241119</course><hAcc>0.898432</hAcc><vAcc>0.651343</vAcc></extensions></trkpt>
      <trkpt lon="-4.136100" lat="53.024586"><ele>211.718765</ele><time>2021-07-17T14:24:40Z</time><extensions><speed>0.507833</speed><course>259.199677</course><hAcc>0.900241</hAcc><vAcc>0.652294</vAcc></extensions></trkpt>
      <trkpt lon="-4.136092" lat="53.024586"><ele>211.553757</ele><time>2021-07-17T14:24:41Z</time><extensions><speed>0.505619</speed><course>258.372070</course><hAcc>0.901555</hAcc><vAcc>0.653294</vAcc></extensions></trkpt>
      <trkpt lon="-4.136085" lat="53.024586"><ele>211.387573</ele><time>2021-07-17T14:24:42Z</time><extensions><speed>0.501740</speed><course>251.644882</course><hAcc>0.902273</hAcc><vAcc>0.654274</vAcc></extensions></trkpt>
      <trkpt lon="-4.136077" lat="53.024587"><ele>211.219223</ele><time>2021-07-17T14:24:43Z</time><extensions><speed>0.496299</speed><course>250.726257</course><hAcc>0.902385</hAcc><vAcc>0.655183</vAcc></extensions></trkpt>
      <trkpt lon="-4.136070" lat="53.024587"><ele>211.047897</ele><time>2021-07-17T14:24:44Z</time><extensions><speed>0.489484</speed><course>245.632431</course><hAcc>0.901905</hAcc><vAcc>0.655993</vAcc></extensions></trkpt>
      <trkpt lon="-4.136063" lat="53.024588"><ele>210.872604</ele><time>2021-07-17T14:24:45Z</time><extensions><speed>0.481058</speed><course>245.967255</course><hAcc>0.900848</hAcc><vAcc>0.656700</vAcc></extensions></trkpt>
      <trkpt lon="-4.136056" lat="53.024588"><ele>210.692139</ele><time>2021-07-17T14:24:46Z</time><extensions><speed>0.470752</speed><course>241.448837</course><hAcc>0.899249</hAcc><vAcc>0.657325</vAcc></extensions></trkpt>
      <trkpt lon="-4.136049" lat="53.024589"><ele>210.505600</ele><time>2021-07-17T14:24:47Z</time><extensions><speed>0.459484</speed><course>246.306168</course><hAcc>0.897184</hAcc><vAcc>0.657892</vAcc></extensions></trkpt>
      <trkpt lon="-4.136042" lat="53.024589"><ele>210.312653</ele><time>2021-07-17T14:24:48Z</time><extensions><speed>0.449017</speed><course>241.853012</course><hAcc>0.894772</hAcc><vAcc>0.658425</vAcc></extensions></trkpt>
      <trkpt lon="-4.136036" lat="53.024590"><ele>210.113113</ele><time>2021-07-17T14:24:49Z</time><extensions><speed>0.440025</speed><course>247.017685</course><hAcc>0.892157</hAcc><vAcc>0.658935</vAcc></extensions></trkpt>
      <trkpt lon="-4.136029" lat="53.024591"><ele>209.907089</ele><time>2021-07-17T14:24:50Z</time><extensions><speed>0.432111</speed><course>242.793106</course><hAcc>0.889492</hAcc><vAcc>0.659431</vAcc></extensions></trkpt>
      <trkpt lon="-4.136023" lat="53.024592"><ele>209.695007</ele><time>2021-07-17T14:24:51Z</time><extensions><speed>0.424752</speed><course>241.528748</course><hAcc>0.886928</hAcc><vAcc>0.659918</vAcc></extensions></trkpt>
      <trkpt lon="-4.136017" lat="53.024592"><ele>209.477325</ele><time>2021-07-17T14:24:52Z</time><extensions><speed>0.417343</speed><course>239.773132</course><hAcc>0.884595</hAcc><vAcc>0.660401</vAcc></extensions></trkpt>
      <trkpt lon="-4.136011" lat="53.024593"><ele>209.254669</ele><time>2021-07-17T14:24:53Z</time><extensions><speed>0.409537</speed><course>228.079361</course><hAcc>0.882573</hAcc><vAcc>0.660880</vAcc></extensions></trkpt>
      <trkpt lon="-4.136005" lat="53.024593"><ele>209.027969</ele><time>2021-07-17T14:24:54Z</time><extensions><speed>0.402042</speed><course>235.745880</course><hAcc>0.880894</hAcc><vAcc>0.661344</vAcc></extensions></trkpt>
      <trkpt lon="-4.135999" lat="53.024593"><ele>208.798370</ele><time>2021-07-17T14:24:55Z</time><extensions><speed>0.396092</speed><course>241.026978</course><hAcc>0.879558</hAcc><vAcc>0.661768</vAcc></extensions></trkpt>
      <trkpt lon="-4.135993" lat="53.024594"><ele>208.566940</ele><time>2021-07-17T14:24:56Z</time><extensions><speed>0.393028</speed><course>241.201813</course><hAcc>0.878551</hAcc><vAcc>0.662117</vAcc></extensions></trkpt>
      <trkpt lon="-4.135987" lat="53.024594"><ele>208.334610</ele><time>2021-07-17T14:24:57Z</time><extensions><speed>0.394205</speed><course>237.798721</course><hAcc>0.877865</hAcc><vAcc>0.662351</vAcc></extensions></trkpt>
      <trkpt lon="-4.135981" lat="53.024594"><ele>208.102188</ele><time>2021-07-17T14:24:58Z</time><extensions><speed>0.400643</speed><course>239.932953</course><hAcc>0.877514</hAcc><vAcc>0.662420</vAcc></extensions></trkpt>
      <trkpt lon="-4.135975" lat="53.024593"><ele>207.870163</ele><time>2021-07-17T14:24:59Z</time><extensions><speed>0.412751</speed><course>236.617691</course><hAcc>0.877516</hAcc><vAcc>0.662270</vAcc></extensions></trkpt>
      <trkpt lon="-4.135969" lat="53.024593"><ele>207.638870</ele><time>2021-07-17T14:25:00Z</time><extensions><speed>0.429878</speed><course>241.818802</course><hAcc>0.877865</hAcc><vAcc>0.661873</vAcc></extensions></trkpt>
      <trkpt lon="-4.135962" lat="53.024592"><ele>207.408707</ele><time>2021-07-17T14:25:01Z</time><extensions><speed>0.451007</speed><course>239.437317</course><hAcc>0.878532</hAcc><vAcc>0.661239</vAcc></extensions></trkpt>
      <trkpt lon="-4.135955" lat="53.024592"><ele>207.180191</ele><time>2021-07-17T14:25:02Z</time><extensions><speed>0.475026</speed><course>246.363113</course><hAcc>0.879458</hAcc><vAcc>0.660398</vAcc></extensions></trkpt>
      <trkpt lon="-4.135948" lat="53.024591"><ele>206.953506</ele><time>2021-07-17T14:25:03Z</time><extensions><speed>0.500409</speed><course>246.700150</course><hAcc>0.880566</hAcc><vAcc>0.659388</vAcc></extensions></trkpt>
      <trkpt lon="-4.135941" lat="53.024590"><ele>206.727905</ele><time>2021-07-17T14:25:04Z</time><extensions><speed>0.526407</speed><course>246.096832</course><hAcc>0.881765</hAcc><vAcc>0.658235</vAcc></extensions></trkpt>
      <trkpt lon="-4.135933" lat="53.024589"><ele>206.501556</ele><time>2021-07-17T14:25:05Z</time><extensions><speed>0.552681</speed><course>243.815796</course><hAcc>0.882957</hAcc><vAcc>0.656947</vAcc></extensions></trkpt>
      <trkpt lon="-4.135925" lat="53.024588"><ele>206.272034</ele><time>2021-07-17T14:25:06Z</time><extensions><speed>0.578784</speed><course>246.512634</course><hAcc>0.884039</hAcc><vAcc>0.655516</vAcc></extensions></trkpt>
      <trkpt lon="-4.135916" lat="53.024586"><ele>206.037338</ele><time>2021-07-17T14:25:07Z</time><extensions><speed>0.605006</speed><course>244.050751</course><hAcc>0.884909</hAcc><vAcc>0.653928</vAcc></extensions></trkpt>
      <trkpt lon="-4.135907" lat="53.024585"><ele>205.796616</ele><time>2021-07-17T14:25:08Z</time><extensions><speed>0.631890</speed><course>244.230560</course><hAcc>0.885486</hAcc><vAcc>0.652191</vAcc></extensions></trkpt>
      <trkpt lon="-4.135898" lat="53.024584"><ele>205.550079</ele><time>2021-07-17T14:25:09Z</time><extensions><speed>0.659888</speed><course>245.032242</course><hAcc>0.885717</hAcc><vAcc>0.650344</vAcc></extensions></trkpt>
      <trkpt lon="-4.135888" lat="53.024583"><ele>205.298721</ele><time>2021-07-17T14:25:10Z</time><extensions><speed>0.689024</speed><course>246.179367</course><hAcc>0.885573</hAcc><vAcc>0.648452</vAcc></extensions></trkpt>
      <trkpt lon="-4.135877" lat="53.024582"><ele>205.044067</ele><time>2021-07-17T14:25:11Z</time><extensions><speed>0.718793</speed><course>241.821411</course><hAcc>0.885057</hAcc><vAcc>0.646595</vAcc></extensions></trkpt>
      <trkpt lon="-4.135867" lat="53.024581"><ele>204.788956</ele><time>2021-07-17T14:25:12Z</time><extensions><speed>0.748901</speed><course>243.788040</course><hAcc>0.884201</hAcc><vAcc>0.644858</vAcc></extensions></trkpt>
      <trkpt lon="-4.135855" lat="53.024580"><ele>204.537643</ele><time>2021-07-17T14:25:13Z</time><extensions><speed>0.779298</speed><course>243.693268</course><hAcc>0.883054</hAcc><vAcc>0.643308</vAcc></extensions></trkpt>
      <trkpt lon="-4.135844" lat="53.024580"><ele>204.295914</ele><time>2021-07-17T14:25:14Z</time><extensions><speed>0.809936</speed><course>242.775101</course><hAcc>0.881690</hAcc><vAcc>0.642003</vAcc></extensions></trkpt>
      <trkpt lon="-4.135831" lat="53.024579"><ele>204.070297</ele><time>2021-07-17T14:25:15Z</time><extensions><speed>0.840269</speed><course>245.970306</course><hAcc>0.880206</hAcc><vAcc>0.640999</vAcc></extensions></trkpt>
      <trkpt lon="-4.135819" lat="53.024578"><ele>203.865433</ele><time>2021-07-17T14:25:16Z</time><extensions><speed>0.869069</speed><course>242.405746</course><hAcc>0.878704</hAcc><vAcc>0.640364</vAcc></extensions></trkpt>
      <trkpt lon="-4.135806" lat="53.024578"><ele>203.683151</ele><time>2021-07-17T14:25:17Z</time><extensions><speed>0.895781</speed><course>242.953247</course><hAcc>0.877288</hAcc><vAcc>0.640174</vAcc></extensions></trkpt>
      <trkpt lon="-4.135792" lat="53.024577"><ele>203.523529</ele><time>2021-07-17T14:25:18Z</time><extensions><speed>0.920312</speed><course>243.898651</course><hAcc>0.876043</hAcc><vAcc>0.640500</vAcc></extensions></trkpt>
      <trkpt lon="-4.135778" lat="53.024576"><ele>203.384918</ele><time>2021-07-17T14:25:19Z</time><extensions><speed>0.941609</speed><course>246.283890</course><hAcc>0.875023</hAcc><vAcc>0.641398</vAcc></extensions></trkpt>
      <trkpt lon="-4.135764" lat="53.024576"><ele>203.264160</ele><time>2021-07-17T14:25:20Z</time><extensions><speed>0.958206</speed><course>244.954941</course><hAcc>0.874239</hAcc><vAcc>0.642891</vAcc></extensions></trkpt>
      <trkpt lon="-4.135750" lat="53.024576"><ele>203.157791</ele><time>2021-07-17T14:25:21Z</time><extensions><speed>0.969329</speed><course>242.649384</course><hAcc>0.873665</hAcc><vAcc>0.644964</vAcc></extensions></trkpt>
      <trkpt lon="-4.135735" lat="53.024575"><ele>203.062332</ele><time>2021-07-17T14:25:22Z</time><extensions><speed>0.974484</speed><course>244.763245</course><hAcc>0.873267</hAcc><vAcc>0.647558</vAcc></extensions></trkpt>
      <trkpt lon="-4.135721" lat="53.024575"><ele>202.974045</ele><time>2021-07-17T14:25:23Z</time><extensions><speed>0.973254</speed><course>244.903290</course><hAcc>0.873033</hAcc><vAcc>0.650581</vAcc></extensions></trkpt>
      <trkpt lon="-4.135706" lat="53.024575"><ele>202.889542</ele><time>2021-07-17T14:25:24Z</time><extensions><speed>0.965865</speed><course>245.405487</course><hAcc>0.872971</hAcc><vAcc>0.653918</vAcc></extensions></trkpt>
      <trkpt lon="-4.135692" lat="53.024575"><ele>202.806656</ele><time>2021-07-17T14:25:25Z</time><extensions><speed>0.952985</speed><course>244.116837</course><hAcc>0.873095</hAcc><vAcc>0.657444</vAcc></extensions></trkpt>
      <trkpt lon="-4.135678" lat="53.024575"><ele>202.724014</ele><time>2021-07-17T14:25:26Z</time><extensions><speed>0.935268</speed><course>244.373413</course><hAcc>0.873401</hAcc><vAcc>0.661037</vAcc></extensions></trkpt>
      <trkpt lon="-4.135664" lat="53.024574"><ele>202.640472</ele><time>2021-07-17T14:25:27Z</time><extensions><speed>0.912563</speed><course>242.926376</course><hAcc>0.873865</hAcc><vAcc>0.664589</vAcc></extensions></trkpt>
      <trkpt lon="-4.135651" lat="53.024574"><ele>202.554977</ele><time>2021-07-17T14:25:28Z</time><extensions><speed>0.883835</speed><course>245.132996</course><hAcc>0.874453</hAcc><vAcc>0.668017</vAcc></extensions></trkpt>
      <trkpt lon="-4.135638" lat="53.024574"><ele>202.466919</ele><time>2021-07-17T14:25:29Z</time><extensions><speed>0.848497</speed><course>244.501526</course><hAcc>0.875125</hAcc><vAcc>0.671262</vAcc></extensions></trkpt>
      <trkpt lon="-4.135626" lat="53.024574"><ele>202.376160</ele><time>2021-07-17T14:25:30Z</time><extensions><speed>0.807799</speed><course>246.537445</course><hAcc>0.875844</hAcc><vAcc>0.674287</vAcc></extensions></trkpt>
      <trkpt lon="-4.135614" lat="53.024574"><ele>202.282898</ele><time>2021-07-17T14:25:31Z</time><extensions><speed>0.763743</speed><course>249.471207</course><hAcc>0.876576</hAcc><vAcc>0.677070</vAcc></extensions></trkpt>
      <trkpt lon="-4.135603" lat="53.024573"><ele>202.187378</ele><time>2021-07-17T14:25:32Z</time><extensions><speed>0.716831</speed><course>248.775497</course><hAcc>0.877293</hAcc><vAcc>0.679602</vAcc></extensions></trkpt>
      <trkpt lon="-4.135593" lat="53.024573"><ele>202.089828</ele><time>2021-07-17T14:25:33Z</time><extensions><speed>0.668303</speed><course>246.941742</course><hAcc>0.877974</hAcc><vAcc>0.681894</vAcc></extensions></trkpt>
      <trkpt lon="-4.135583" lat="53.024573"><ele>201.990723</ele><time>2021-07-17T14:25:34Z</time><extensions><speed>0.620600</speed><course>244.433502</course><hAcc>0.878605</hAcc><vAcc>0.683964</vAcc></extensions></trkpt>
      <trkpt lon="-4.135574" lat="53.024573"><ele>201.890686</ele><time>2021-07-17T14:25:35Z</time><extensions><speed>0.574749</speed><course>244.037323</course><hAcc>0.879176</hAcc><vAcc>0.685828</vAcc></extensions></trkpt>
      <trkpt lon="-4.135566" lat="53.024572"><ele>201.790604</ele><time>2021-07-17T14:25:36Z</time><extensions><speed>0.530680</speed><course>247.924194</course><hAcc>0.879679</hAcc><vAcc>0.687491</vAcc></extensions></trkpt>
      <trkpt lon="-4.135558" lat="53.024572"><ele>201.691605</ele><time>2021-07-17T14:25:37Z</time><extensions><speed>0.487915</speed><course>244.193863</course><hAcc>0.880110</hAcc><vAcc>0.688938</vAcc></extensions></trkpt>
      <trkpt lon="-4.135551" lat="53.024572"><ele>201.594986</ele><time>2021-07-17T14:25:38Z</time><extensions><speed>0.446143</speed><course>245.117035</course><hAcc>0.880463</hAcc><vAcc>0.690132</vAcc></extensions></trkpt>
      <trkpt lon="-4.135545" lat="53.024572"><ele>201.501740</ele><time>2021-07-17T14:25:39Z</time><extensions><speed>0.405840</speed><course>240.947311</course><hAcc>0.880736</hAcc><vAcc>0.691037</vAcc></extensions></trkpt>
      <trkpt lon="-4.135539" lat="53.024573"><ele>201.412277</ele><time>2021-07-17T14:25:40Z</time><extensions><speed>0.368481</speed><course>248.726425</course><hAcc>0.880930</hAcc><vAcc>0.691630</vAcc></extensions></trkpt>
      <trkpt lon="-4.135534" lat="53.024573"><ele>201.326691</ele><time>2021-07-17T14:25:41Z</time><extensions><speed>0.335726</speed><course>246.210281</course><hAcc>0.881052</hAcc><vAcc>0.691919</vAcc></extensions></trkpt>
      <trkpt lon="-4.135529" lat="53.024573"><ele>201.244949</ele><time>2021-07-17T14:25:42Z</time><extensions><speed>0.308159</speed><course>244.130585</course><hAcc>0.881116</hAcc><vAcc>0.691947</vAcc></extensions></trkpt>
      <trkpt lon="-4.135525" lat="53.024574"><ele>201.166855</ele><time>2021-07-17T14:25:43Z</time><extensions><speed>0.285825</speed><course>242.385971</course><hAcc>0.881137</hAcc><vAcc>0.691790</vAcc></extensions></trkpt>
      <trkpt lon="-4.135521" lat="53.024575"><ele>201.091888</ele><time>2021-07-17T14:25:44Z</time><extensions><speed>0.268554</speed><course>242.586807</course><hAcc>0.881138</hAcc><vAcc>0.691548</vAcc></extensions></trkpt>
      <trkpt lon="-4.135518" lat="53.024576"><ele>201.019455</ele><time>2021-07-17T14:25:45Z</time><extensions><speed>0.255440</speed><course>243.360626</course><hAcc>0.881140</hAcc><vAcc>0.691330</vAcc></extensions></trkpt>
      <trkpt lon="-4.135514" lat="53.024577"><ele>200.949036</ele><time>2021-07-17T14:25:46Z</time><extensions><speed>0.245527</speed><course>243.971695</course><hAcc>0.881165</hAcc><vAcc>0.691238</vAcc></extensions></trkpt>
      <trkpt lon="-4.135512" lat="53.024579"><ele>200.880249</ele><time>2021-07-17T14:25:47Z</time><extensions><speed>0.238324</speed><course>240.206924</course><hAcc>0.881228</hAcc><vAcc>0.691343</vAcc></extensions></trkpt>
      <trkpt lon="-4.135509" lat="53.024580"><ele>200.812881</ele><time>2021-07-17T14:25:48Z</time><extensions><speed>0.233486</speed><course>239.075470</course><hAcc>0.881341</hAcc><vAcc>0.691687</vAcc></extensions></trkpt>
      <trkpt lon="-4.135507" lat="53.024582"><ele>200.746948</ele><time>2021-07-17T14:25:49Z</time><extensions><speed>0.230273</speed><course>237.642349</course><hAcc>0.881508</hAcc><vAcc>0.692269</vAcc></extensions></trkpt>
      <trkpt lon="-4.135505" lat="53.024583"><ele>200.682739</ele><time>2021-07-17T14:25:50Z</time><extensions><speed>0.227525</speed><course>240.263168</course><hAcc>0.881728</hAcc><vAcc>0.693058</vAcc></extensions></trkpt>
      <trkpt lon="-4.135504" lat="53.024585"><ele>200.620636</ele><time>2021-07-17T14:25:51Z</time><extensions><speed>0.223946</speed><course>236.992905</course><hAcc>0.881996</hAcc><vAcc>0.694003</vAcc></extensions></trkpt>
      <trkpt lon="-4.135502" lat="53.024587"><ele>200.561096</ele><time>2021-07-17T14:25:52Z</time><extensions><speed>0.218613</speed><course>237.814407</course><hAcc>0.882305</hAcc><vAcc>0.695059</vAcc></extensions></trkpt>
      <trkpt lon="-4.135502" lat="53.024589"><ele>200.504654</ele><time>2021-07-17T14:25:53Z</time><extensions><speed>0.211071</speed><course>233.161377</course><hAcc>0.882652</hAcc><vAcc>0.696191</vAcc></extensions></trkpt>
      <trkpt lon="-4.135501" lat="53.024591"><ele>200.451935</ele><time>2021-07-17T14:25:54Z</time><extensions><speed>0.201175</speed><course>231.854340</course><hAcc>0.883036</hAcc><vAcc>0.697380</vAcc></extensions></trkpt>
      <trkpt lon="-4.135500" lat="53.024593"><ele>200.403534</ele><time>2021-07-17T14:25:55Z</time><extensions><speed>0.189155</speed><course>230.330582</course><hAcc>0.883460</hAcc><vAcc>0.698629</vAcc></extensions></trkpt>
      <trkpt lon="-4.135500" lat="53.024594"><ele>200.359924</ele><time>2021-07-17T14:25:56Z</time><extensions><speed>0.175375</speed><course>225.955917</course><hAcc>0.883933</hAcc><vAcc>0.699954</vAcc></extensions></trkpt>
      <trkpt lon="-4.135500" lat="53.024596"><ele>200.321442</ele><time>2021-07-17T14:25:57Z</time><extensions><speed>0.160283</speed><course>228.667099</course><hAcc>0.884473</hAcc><vAcc>0.701389</vAcc></extensions></trkpt>
      <trkpt lon="-4.135500" lat="53.024597"><ele>200.288147</ele><time>2021-07-17T14:25:58Z</time><extensions><speed>0.144385</speed><course>231.197586</course><hAcc>0.885100</hAcc><vAcc>0.702974</vAcc></extensions></trkpt>
      <trkpt lon="-4.135501" lat="53.024598"><ele>200.259659</ele><time>2021-07-17T14:25:59Z</time><extensions><speed>0.128146</speed><course>231.649063</course><hAcc>0.885843</hAcc><vAcc>0.704747</vAcc></extensions></trkpt>
      <trkpt lon="-4.135501" lat="53.024599"><ele>200.235168</ele><time>2021-07-17T14:26:00Z</time><extensions><speed>0.111717</speed><course>225.252350</course><hAcc>0.886735</hAcc><vAcc>0.706725</vAcc></extensions></trkpt>
      <trkpt lon="-4.135502" lat="53.024600"><ele>200.213470</ele><time>2021-07-17T14:26:01Z</time><extensions><speed>0.094789</speed><course>227.044876</course><hAcc>0.887811</hAcc><vAcc>0.708907</vAcc></extensions></trkpt>
      <trkpt lon="-4.135503" lat="53.024601"><ele>200.193100</ele><time>2021-07-17T14:26:02Z</time><extensions><speed>0.076606</speed><course>232.104660</course><hAcc>0.889107</hAcc><vAcc>0.711285</vAcc></extensions></trkpt>
      <trkpt lon="-4.135503" lat="53.024601"><ele>200.172333</ele><time>2021-07-17T14:26:03Z</time><extensions><speed>0.056065</speed><course>229.338486</course><hAcc>0.890652</hAcc><vAcc>0.713839</vAcc></extensions></trkpt>
      <trkpt lon="-4.135504" lat="53.024602"><ele>200.149216</ele><time>2021-07-17T14:26:04Z</time><extensions><speed>0.032163</speed><course>229.521286</course><hAcc>0.892464</hAcc><vAcc>0.716537</vAcc></extensions></trkpt>
      <trkpt lon="-4.135504" lat="53.024602"><ele>200.121643</ele><time>2021-07-17T14:26:05Z</time><extensions><speed>0.012416</speed><course>230.490311</course><hAcc>0.894539</hAcc><vAcc>0.719327</vAcc></extensions></trkpt>
      <trkpt lon="-4.135504" lat="53.024601"><ele>200.087387</ele><time>2021-07-17T14:26:06Z</time><extensions><speed>0.041453</speed><course>231.378189</course><hAcc>0.896840</hAcc><vAcc>0.722132</vAcc></extensions></trkpt>
      <trkpt lon="-4.135503" lat="53.024601"><ele>200.044113</ele><time>2021-07-17T14:26:07Z</time><extensions><speed>0.088319</speed><course>228.697189</course><hAcc>0.899288</hAcc><vAcc>0.724850</vAcc></extensions></trkpt>
      <trkpt lon="-4.135502" lat="53.024600"><ele>199.989426</ele><time>2021-07-17T14:26:08Z</time><extensions><speed>0.146955</speed><course>226.471390</course><hAcc>0.901754</hAcc><vAcc>0.727355</vAcc></extensions></trkpt>
      <trkpt lon="-4.135500" lat="53.024599"><ele>199.920944</ele><time>2021-07-17T14:26:09Z</time><extensions><speed>0.218303</speed><course>220.030243</course><hAcc>0.904067</hAcc><vAcc>0.729520</vAcc></extensions></trkpt>
      <trkpt lon="-4.135497" lat="53.024598"><ele>199.836349</ele><time>2021-07-17T14:26:10Z</time><extensions><speed>0.303320</speed><course>220.714050</course><hAcc>0.906032</hAcc><vAcc>0.731248</vAcc></extensions></trkpt>
      <trkpt lon="-4.135492" lat="53.024596"><ele>199.733429</ele><time>2021-07-17T14:26:11Z</time><extensions><speed>0.402512</speed><course>225.627274</course><hAcc>0.907490</hAcc><vAcc>0.732532</vAcc></extensions></trkpt>
      <trkpt lon="-4.135487" lat="53.024594"><ele>199.610245</ele><time>2021-07-17T14:26:12Z</time><extensions><speed>0.515682</speed><course>226.764282</course><hAcc>0.908414</hAcc><vAcc>0.733547</vAcc></extensions></trkpt>
      <trkpt lon="-4.135479" lat="53.024591"><ele>199.465179</ele><time>2021-07-17T14:26:13Z</time><extensions><speed>0.641693</speed><course>226.578552</course><hAcc>0.909082</hAcc><vAcc>0.734798</vAcc></extensions></trkpt>
      <trkpt lon="-4.135470" lat="53.024588"><ele>199.297119</ele><time>2021-07-17T14:26:14Z</time><extensions><speed>0.778183</speed><course>225.919083</course><hAcc>0.910326</hAcc><vAcc>0.737312</vAcc></extensions></trkpt>
      <trkpt lon="-4.135458" lat="53.024585"><ele>199.105576</ele><time>2021-07-17T14:26:15Z</time><extensions><speed>0.921246</speed><course>231.063477</course><hAcc>0.913890</hAcc><vAcc>0.742873</vAcc></extensions></trkpt>
      <trkpt lon="-4.135445" lat="53.024581"><ele>198.890900</ele><time>2021-07-17T14:26:16Z</time><extensions><speed>1.065095</speed><course>239.724365</course><hAcc>0.922858</hAcc><vAcc>0.754253</vAcc></extensions></trkpt>
      <trkpt lon="-4.135429" lat="53.024577"><ele>198.654449</ele><time>2021-07-17T14:26:17Z</time><extensions><speed>1.201702</speed><course>234.846985</course><hAcc>0.942050</hAcc><vAcc>0.775323</vAcc></extensions></trkpt>
      <trkpt lon="-4.135412" lat="53.024572"><ele>198.398926</ele><time>2021-07-17T14:26:18Z</time><extensions><speed>1.320426</speed><course>233.853561</course><hAcc>0.978139</hAcc><vAcc>0.810898</vAcc></extensions></trkpt>
      <trkpt lon="-4.135390" lat="53.024566"><ele>197.921829</ele><time>2021-07-17T14:26:19Z</time><extensions><speed>1.761988</speed><course>207.637573</course><hAcc>0.939642</hAcc><vAcc>0.774908</vAcc></extensions></trkpt>
      <trkpt lon="-4.135365" lat="53.024561"><ele>197.527390</ele><time>2021-07-17T14:26:20Z</time><extensions><speed>1.718424</speed><course>199.781464</course><hAcc>0.919871</hAcc><vAcc>0.753320</vAcc></extensions></trkpt>
      <trkpt lon="-4.135341" lat="53.024556"><ele>197.143906</ele><time>2021-07-17T14:26:21Z</time><extensions><speed>1.660062</speed><course>204.898392</course><hAcc>0.911497</hAcc><vAcc>0.742394</vAcc></extensions></trkpt>
      <trkpt lon="-4.135318" lat="53.024551"><ele>196.773239</ele><time>2021-07-17T14:26:22Z</time><extensions><speed>1.593743</speed><course>218.988647</course><hAcc>0.909027</hAcc><vAcc>0.737809</vAcc></extensions></trkpt>
      <trkpt lon="-4.135296" lat="53.024547"><ele>196.417236</ele><time>2021-07-17T14:26:23Z</time><extensions><speed>1.525112</speed><course>240.875916</course><hAcc>0.908953</hAcc><vAcc>0.736467</vAcc></extensions></trkpt>
      <trkpt lon="-4.135275" lat="53.024543"><ele>196.077576</ele><time>2021-07-17T14:26:24Z</time><extensions><speed>1.458069</speed><course>240.875916</course><hAcc>0.909311</hAcc><vAcc>0.736379</vAcc></extensions></trkpt>
      <trkpt lon="-4.135254" lat="53.024540"><ele>195.755127</ele><time>2021-07-17T14:26:25Z</time><extensions><speed>1.394547</speed><course>240.875916</course><hAcc>0.909187</hAcc><vAcc>0.736417</vAcc></extensions></trkpt>
      <trkpt lon="-4.135234" lat="53.024537"><ele>195.448883</ele><time>2021-07-17T14:26:26Z</time><extensions><speed>1.335069</speed><course>240.875916</course><hAcc>0.908302</hAcc><vAcc>0.736044</vAcc></extensions></trkpt>
      <trkpt lon="-4.135215" lat="53.024535"><ele>195.156403</ele><time>2021-07-17T14:26:27Z</time><extensions><speed>1.279998</speed><course>240.875916</course><hAcc>0.906721</hAcc><vAcc>0.735101</vAcc></extensions></trkpt>
      <trkpt lon="-4.135197" lat="53.024533"><ele>194.875214</ele><time>2021-07-17T14:26:28Z</time><extensions><speed>1.230975</speed><course>240.875916</course><hAcc>0.904656</hAcc><vAcc>0.733636</vAcc></extensions></trkpt>
      <trkpt lon="-4.135179" lat="53.024531"><ele>194.603836</ele><time>2021-07-17T14:26:29Z</time><extensions><speed>1.189952</speed><course>269.430084</course><hAcc>0.902355</hAcc><vAcc>0.731800</vAcc></extensions></trkpt>
      <trkpt lon="-4.135162" lat="53.024530"><ele>194.341522</ele><time>2021-07-17T14:26:30Z</time><extensions><speed>1.157802</speed><course>274.056000</course><hAcc>0.900036</hAcc><vAcc>0.729772</vAcc></extensions></trkpt>
      <trkpt lon="-4.135145" lat="53.024530"><ele>194.087250</ele><time>2021-07-17T14:26:31Z</time><extensions><speed>1.133790</speed><course>273.580658</course><hAcc>0.897862</hAcc><vAcc>0.727722</vAcc></extensions></trkpt>
      <trkpt lon="-4.135128" lat="53.024529"><ele>193.839294</ele><time>2021-07-17T14:26:32Z</time><extensions><speed>1.116355</speed><course>266.285736</course><hAcc>0.895939</hAcc><vAcc>0.725781</vAcc></extensions></trkpt>
      <trkpt lon="-4.135111" lat="53.024529"><ele>193.595993</ele><time>2021-07-17T14:26:33Z</time><extensions><speed>1.104730</speed><course>280.416809</course><hAcc>0.894316</hAcc><vAcc>0.724041</vAcc></extensions></trkpt>
      <trkpt lon="-4.135095" lat="53.024530"><ele>193.356247</ele><time>2021-07-17T14:26:34Z</time><extensions><speed>1.098563</speed><course>289.633057</course><hAcc>0.893004</hAcc><vAcc>0.722553</vAcc></extensions></trkpt>
      <trkpt lon="-4.135079" lat="53.024530"><ele>193.119324</ele><time>2021-07-17T14:26:35Z</time><extensions><speed>1.097349</speed><course>274.042023</course><hAcc>0.891985</hAcc><vAcc>0.721334</vAcc></extensions></trkpt>
      <trkpt lon="-4.135062" lat="53.024531"><ele>192.884491</ele><time>2021-07-17T14:26:36Z</time><extensions><speed>1.100742</speed><course>259.398621</course><hAcc>0.891224</hAcc><vAcc>0.720380</vAcc></extensions></trkpt>
      <trkpt lon="-4.135046" lat="53.024532"><ele>192.651031</ele><time>2021-07-17T14:26:37Z</time><extensions><speed>1.108489</speed><course>235.228027</course><hAcc>0.890677</hAcc><vAcc>0.719673</vAcc></extensions></trkpt>
      <trkpt lon="-4.135030" lat="53.024534"><ele>192.417664</ele><time>2021-07-17T14:26:38Z</time><extensions><speed>1.119538</speed><course>233.943741</course><hAcc>0.890302</hAcc><vAcc>0.719182</vAcc></extensions></trkpt>
      <trkpt lon="-4.135013" lat="53.024535"><ele>192.182419</ele><time>2021-07-17T14:26:39Z</time><extensions><speed>1.132083</speed><course>251.986771</course><hAcc>0.890057</hAcc><vAcc>0.718873</vAcc></extensions></trkpt>
      <trkpt lon="-4.134996" lat="53.024537"><ele>191.943329</ele><time>2021-07-17T14:26:40Z</time><extensions><speed>1.145333</speed><course>230.632401</course><hAcc>0.889907</hAcc><vAcc>0.718705</vAcc></extensions></trkpt>
      <trkpt lon="-4.134979" lat="53.024539"><ele>191.699203</ele><time>2021-07-17T14:26:41Z</time><extensions><speed>1.159650</speed><course>208.539734</course><hAcc>0.889823</hAcc><vAcc>0.718638</vAcc></extensions></trkpt>
      <trkpt lon="-4.134962" lat="53.024542"><ele>191.449707</ele><time>2021-07-17T14:26:42Z</time><extensions><speed>1.175448</speed><course>217.062653</course><hAcc>0.889783</hAcc><vAcc>0.718636</vAcc></extensions></trkpt>
      <trkpt lon="-4.134945" lat="53.024544"><ele>191.195160</ele><time>2021-07-17T14:26:43Z</time><extensions><speed>1.192798</speed><course>216.480164</course><hAcc>0.889768</hAcc><vAcc>0.718668</vAcc></extensions></trkpt>
      <trkpt lon="-4.134928" lat="53.024546"><ele>190.935959</ele><time>2021-07-17T14:26:44Z</time><extensions><speed>1.210735</speed><course>215.204285</course><hAcc>0.889765</hAcc><vAcc>0.718709</vAcc></extensions></trkpt>
      <trkpt lon="-4.134910" lat="53.024549"><ele>190.671829</ele><time>2021-07-17T14:26:45Z</time><extensions><speed>1.227828</speed><course>192.608246</course><hAcc>0.889765</hAcc><vAcc>0.718743</vAcc></extensions></trkpt>
      <trkpt lon="-4.134892" lat="53.024552"><ele>190.402008</ele><time>2021-07-17T14:26:46Z</time><extensions><speed>1.243397</speed><course>196.818375</course><hAcc>0.889762</hAcc><vAcc>0.718756</vAcc></extensions></trkpt>
      <trkpt lon="-4.134874" lat="53.024555"><ele>190.126053</ele><time>2021-07-17T14:26:47Z</time><extensions><speed>1.256651</speed><course>200.564194</course><hAcc>0.889752</hAcc><vAcc>0.718739</vAcc></extensions></trkpt>
      <trkpt lon="-4.134856" lat="53.024558"><ele>189.844070</ele><time>2021-07-17T14:26:48Z</time><extensions><speed>1.267499</speed><course>224.718231</course><hAcc>0.889735</hAcc><vAcc>0.718687</vAcc></extensions></trkpt>
      <trkpt lon="-4.134838" lat="53.024561"><ele>189.556686</ele><time>2021-07-17T14:26:49Z</time><extensions><speed>1.276966</speed><course>228.969803</course><hAcc>0.889710</hAcc><vAcc>0.718597</vAcc></extensions></trkpt>
      <trkpt lon="-4.134820" lat="53.024564"><ele>189.264877</ele><time>2021-07-17T14:26:50Z</time><extensions><speed>1.286074</speed><course>250.366501</course><hAcc>0.889679</hAcc><vAcc>0.718475</vAcc></extensions></trkpt>
      <trkpt lon="-4.134801" lat="53.024567"><ele>188.969635</ele><time>2021-07-17T14:26:51Z</time><extensions><speed>1.295512</speed><course>-1.000000</course><hAcc>0.889645</hAcc><vAcc>0.718329</vAcc></extensions></trkpt>
      <trkpt lon="-4.134783" lat="53.024571"><ele>188.671249</ele><time>2021-07-17T14:26:52Z</time><extensions><speed>1.305194</speed><course>232.063629</course><hAcc>0.889609</hAcc><vAcc>0.718174</vAcc></extensions></trkpt>
      <trkpt lon="-4.134764" lat="53.024574"><ele>188.369553</ele><time>2021-07-17T14:26:53Z</time><extensions><speed>1.314976</speed><course>232.063614</course><hAcc>0.889576</hAcc><vAcc>0.718027</vAcc></extensions></trkpt>
      <trkpt lon="-4.134745" lat="53.024578"><ele>188.065277</ele><time>2021-07-17T14:26:54Z</time><extensions><speed>1.324587</speed><course>232.063614</course><hAcc>0.889548</hAcc><vAcc>0.717901</vAcc></extensions></trkpt>
      <trkpt lon="-4.134727" lat="53.024582"><ele>187.760544</ele><time>2021-07-17T14:26:55Z</time><extensions><speed>1.333204</speed><course>232.063599</course><hAcc>0.889529</hAcc><vAcc>0.717809</vAcc></extensions></trkpt>
      <trkpt lon="-4.134708" lat="53.024586"><ele>187.458313</ele><time>2021-07-17T14:26:56Z</time><extensions><speed>1.340387</speed><course>232.063599</course><hAcc>0.889520</hAcc><vAcc>0.717760</vAcc></extensions></trkpt>
      <trkpt lon="-4.134689" lat="53.024590"><ele>187.161514</ele><time>2021-07-17T14:26:57Z</time><extensions><speed>1.345379</speed><course>232.063583</course><hAcc>0.889524</hAcc><vAcc>0.717760</vAcc></extensions></trkpt>
      <trkpt lon="-4.134670" lat="53.024593"><ele>186.872177</ele><time>2021-07-17T14:26:58Z</time><extensions><speed>1.346278</speed><course>232.063583</course><hAcc>0.889542</hAcc><vAcc>0.717814</vAcc></extensions></trkpt>
      <trkpt lon="-4.134651" lat="53.024597"><ele>186.591217</ele><time>2021-07-17T14:26:59Z</time><extensions><speed>1.342340</speed><course>248.555511</course><hAcc>0.889573</hAcc><vAcc>0.717924</vAcc></extensions></trkpt>
      <trkpt lon="-4.134632" lat="53.024601"><ele>186.319107</ele><time>2021-07-17T14:27:00Z</time><extensions><speed>1.334737</speed><course>214.727661</course><hAcc>0.889616</hAcc><vAcc>0.718087</vAcc></extensions></trkpt>
      <trkpt lon="-4.134613" lat="53.024605"><ele>186.056595</ele><time>2021-07-17T14:27:01Z</time><extensions><speed>1.324794</speed><course>215.656113</course><hAcc>0.889669</hAcc><vAcc>0.718297</vAcc></extensions></trkpt>
      <trkpt lon="-4.134594" lat="53.024609"><ele>185.804932</ele><time>2021-07-17T14:27:02Z</time><extensions><speed>1.313717</speed><course>205.637772</course><hAcc>0.889729</hAcc><vAcc>0.718542</vAcc></extensions></trkpt>
      <trkpt lon="-4.134576" lat="53.024612"><ele>185.565414</ele><time>2021-07-17T14:27:03Z</time><extensions><speed>1.302573</speed><course>201.575424</course><hAcc>0.889793</hAcc><vAcc>0.718809</vAcc></extensions></trkpt>
      <trkpt lon="-4.134557" lat="53.024615"><ele>185.339417</ele><time>2021-07-17T14:27:04Z</time><extensions><speed>1.291906</speed><course>196.854248</course><hAcc>0.889856</hAcc><vAcc>0.719079</vAcc></extensions></trkpt>
      <trkpt lon="-4.134539" lat="53.024618"><ele>185.127960</ele><time>2021-07-17T14:27:05Z</time><extensions><speed>1.281821</speed><course>198.264053</course><hAcc>0.889915</hAcc><vAcc>0.719332</vAcc></extensions></trkpt>
      <trkpt lon="-4.134520" lat="53.024621"><ele>184.930740</ele><time>2021-07-17T14:27:06Z</time><extensions><speed>1.272153</speed><course>198.636932</course><hAcc>0.889967</hAcc><vAcc>0.719550</vAcc></extensions></trkpt>
      <trkpt lon="-4.134502" lat="53.024624"><ele>184.746201</ele><time>2021-07-17T14:27:07Z</time><extensions><speed>1.262607</speed><course>192.727798</course><hAcc>0.890010</hAcc><vAcc>0.719718</vAcc></extensions></trkpt>
      <trkpt lon="-4.134484" lat="53.024626"><ele>184.572296</ele><time>2021-07-17T14:27:08Z</time><extensions><speed>1.252821</speed><course>184.691818</course><hAcc>0.890041</hAcc><vAcc>0.719823</vAcc></extensions></trkpt>
      <trkpt lon="-4.134465" lat="53.024628"><ele>184.407089</ele><time>2021-07-17T14:27:09Z</time><extensions><speed>1.242613</speed><course>177.917740</course><hAcc>0.890059</hAcc><vAcc>0.719863</vAcc></extensions></trkpt>
      <trkpt lon="-4.134447" lat="53.024630"><ele>184.248978</ele><time>2021-07-17T14:27:10Z</time><extensions><speed>1.232114</speed><course>169.935883</course><hAcc>0.890065</hAcc><vAcc>0.719842</vAcc></extensions></trkpt>
      <trkpt lon="-4.134429" lat="53.024632"><ele>184.096970</ele><time>2021-07-17T14:27:11Z</time><extensions><speed>1.221876</speed><course>168.290512</course><hAcc>0.890057</hAcc><vAcc>0.719772</vAcc></extensions></trkpt>
      <trkpt lon="-4.134411" lat="53.024634"><ele>183.949799</ele><time>2021-07-17T14:27:12Z</time><extensions><speed>1.212607</speed><course>175.847488</course><hAcc>0.890037</hAcc><vAcc>0.719664</vAcc></extensions></trkpt>
      <trkpt lon="-4.134394" lat="53.024636"><ele>183.805298</ele><time>2021-07-17T14:27:13Z</time><extensions><speed>1.204913</speed><course>182.489380</course><hAcc>0.890006</hAcc><vAcc>0.719530</vAcc></extensions></trkpt>
      <trkpt lon="-4.134376" lat="53.024638"><ele>183.660843</ele><time>2021-07-17T14:27:14Z</time><extensions><speed>1.199127</speed><course>193.224472</course><hAcc>0.889966</hAcc><vAcc>0.719380</vAcc></extensions></trkpt>
      <trkpt lon="-4.134359" lat="53.024640"><ele>183.514465</ele><time>2021-07-17T14:27:15Z</time><extensions><speed>1.195367</speed><course>210.457108</course><hAcc>0.889919</hAcc><vAcc>0.719221</vAcc></extensions></trkpt>
      <trkpt lon="-4.134341" lat="53.024642"><ele>183.365005</ele><time>2021-07-17T14:27:16Z</time><extensions><speed>1.193897</speed><course>227.054108</course><hAcc>0.889868</hAcc><vAcc>0.719057</vAcc></extensions></trkpt>
      <trkpt lon="-4.134324" lat="53.024645"><ele>183.211761</ele><time>2021-07-17T14:27:17Z</time><extensions><speed>1.194536</speed><course>247.666534</course><hAcc>0.889815</hAcc><vAcc>0.718887</vAcc></extensions></trkpt>
      <trkpt lon="-4.134306" lat="53.024647"><ele>183.054031</ele><time>2021-07-17T14:27:18Z</time><extensions><speed>1.196553</speed><course>261.197876</course><hAcc>0.889762</hAcc><vAcc>0.718716</vAcc></extensions></trkpt>
      <trkpt lon="-4.134289" lat="53.024649"><ele>182.890945</ele><time>2021-07-17T14:27:19Z</time><extensions><speed>1.199190</speed><course>263.217255</course><hAcc>0.889712</hAcc><vAcc>0.718546</vAcc></extensions></trkpt>
      <trkpt lon="-4.134271" lat="53.024651"><ele>182.721710</ele><time>2021-07-17T14:27:20Z</time><extensions><speed>1.201890</speed><course>271.463165</course><hAcc>0.889665</hAcc><vAcc>0.718383</vAcc></extensions></trkpt>
      <trkpt lon="-4.134254" lat="53.024653"><ele>182.546219</ele><time>2021-07-17T14:27:21Z</time><extensions><speed>1.204352</speed><course>281.991608</course><hAcc>0.889625</hAcc><vAcc>0.718232</vAcc></extensions></trkpt>
      <trkpt lon="-4.134236" lat="53.024655"><ele>182.365143</ele><time>2021-07-17T14:27:22Z</time><extensions><speed>1.205919</speed><course>285.895782</course><hAcc>0.889594</hAcc><vAcc>0.718100</vAcc></extensions></trkpt>
      <trkpt lon="-4.134218" lat="53.024657"><ele>182.179413</ele><time>2021-07-17T14:27:23Z</time><extensions><speed>1.205729</speed><course>287.327179</course><hAcc>0.889572</hAcc><vAcc>0.717995</vAcc></extensions></trkpt>
      <trkpt lon="-4.134200" lat="53.024658"><ele>181.989380</ele><time>2021-07-17T14:27:24Z</time><extensions><speed>1.203007</speed><course>297.396240</course><hAcc>0.889561</hAcc><vAcc>0.717927</vAcc></extensions></trkpt>
      <trkpt lon="-4.134183" lat="53.024660"><ele>181.795242</ele><time>2021-07-17T14:27:25Z</time><extensions><speed>1.197234</speed><course>299.473175</course><hAcc>0.889562</hAcc><vAcc>0.717908</vAcc></extensions></trkpt>
      <trkpt lon="-4.134165" lat="53.024661"><ele>181.597778</ele><time>2021-07-17T14:27:26Z</time><extensions><speed>1.188585</speed><course>297.683289</course><hAcc>0.889573</hAcc><vAcc>0.717943</vAcc></extensions></trkpt>
      <trkpt lon="-4.134147" lat="53.024661"><ele>181.398285</ele><time>2021-07-17T14:27:27Z</time><extensions><speed>1.177620</speed><course>292.365356</course><hAcc>0.889593</hAcc><vAcc>0.718033</vAcc></extensions></trkpt>
      <trkpt lon="-4.134130" lat="53.024662"><ele>181.198288</ele><time>2021-07-17T14:27:28Z</time><extensions><speed>1.164819</speed><course>291.092651</course><hAcc>0.889619</hAcc><vAcc>0.718168</vAcc></extensions></trkpt>
      <trkpt lon="-4.134113" lat="53.024662"><ele>180.999207</ele><time>2021-07-17T14:27:29Z</time><extensions><speed>1.150390</speed><course>297.007721</course><hAcc>0.889649</hAcc><vAcc>0.718333</vAcc></extensions></trkpt>
      <trkpt lon="-4.134096" lat="53.024662"><ele>180.801804</ele><time>2021-07-17T14:27:30Z</time><extensions><speed>1.134241</speed><course>291.539093</course><hAcc>0.889677</hAcc><vAcc>0.718507</vAcc></extensions></trkpt>
      <trkpt lon="-4.134079" lat="53.024663"><ele>180.606079</ele><time>2021-07-17T14:27:31Z</time><extensions><speed>1.116192</speed><course>293.314819</course><hAcc>0.889698</hAcc><vAcc>0.718665</vAcc></extensions></trkpt>
      <trkpt lon="-4.134062" lat="53.024663"><ele>180.411697</ele><time>2021-07-17T14:27:32Z</time><extensions><speed>1.096200</speed><course>297.043213</course><hAcc>0.889707</hAcc><vAcc>0.718781</vAcc></extensions></trkpt>
      <trkpt lon="-4.134046" lat="53.024663"><ele>180.218750</ele><time>2021-07-17T14:27:33Z</time><extensions><speed>1.073874</speed><course>301.573547</course><hAcc>0.889699</hAcc><vAcc>0.718828</vAcc></extensions></trkpt>
      <trkpt lon="-4.134030" lat="53.024663"><ele>180.027969</ele><time>2021-07-17T14:27:34Z</time><extensions><speed>1.049380</speed><course>305.542847</course><hAcc>0.889667</hAcc><vAcc>0.718780</vAcc></extensions></trkpt>
      <trkpt lon="-4.134015" lat="53.024663"><ele>179.840546</ele><time>2021-07-17T14:27:35Z</time><extensions><speed>1.023502</speed><course>304.461029</course><hAcc>0.889607</hAcc><vAcc>0.718620</vAcc></extensions></trkpt>
      <trkpt lon="-4.134000" lat="53.024663"><ele>179.657791</ele><time>2021-07-17T14:27:36Z</time><extensions><speed>0.997019</speed><course>304.519958</course><hAcc>0.889512</hAcc><vAcc>0.718333</vAcc></extensions></trkpt>
      <trkpt lon="-4.133985" lat="53.024664"><ele>179.480972</ele><time>2021-07-17T14:27:37Z</time><extensions><speed>0.970882</speed><course>306.835541</course><hAcc>0.889378</hAcc><vAcc>0.717915</vAcc></extensions></trkpt>
      <trkpt lon="-4.133971" lat="53.024665"><ele>179.310898</ele><time>2021-07-17T14:27:38Z</time><extensions><speed>0.945097</speed><course>312.924469</course><hAcc>0.889199</hAcc><vAcc>0.717358</vAcc></extensions></trkpt>
      <trkpt lon="-4.133957" lat="53.024666"><ele>179.147781</ele><time>2021-07-17T14:27:39Z</time><extensions><speed>0.918163</speed><course>313.121582</course><hAcc>0.888969</hAcc><vAcc>0.716661</vAcc></extensions></trkpt>
      <trkpt lon="-4.133944" lat="53.024667"><ele>178.991928</ele><time>2021-07-17T14:27:40Z</time><extensions><speed>0.888765</speed><course>312.363678</course><hAcc>0.888684</hAcc><vAcc>0.715813</vAcc></extensions></trkpt>
      <trkpt lon="-4.133931" lat="53.024669"><ele>178.844467</ele><time>2021-07-17T14:27:41Z</time><extensions><speed>0.856910</speed><course>309.905548</course><hAcc>0.888340</hAcc><vAcc>0.714803</vAcc></extensions></trkpt>
      <trkpt lon="-4.133919" lat="53.024671"><ele>178.707184</ele><time>2021-07-17T14:27:42Z</time><extensions><speed>0.823653</speed><course>308.597687</course><hAcc>0.887934</hAcc><vAcc>0.713612</vAcc></extensions></trkpt>
      <trkpt lon="-4.133908" lat="53.024673"><ele>178.581665</ele><time>2021-07-17T14:27:43Z</time><extensions><speed>0.790759</speed><course>307.103394</course><hAcc>0.887465</hAcc><vAcc>0.712221</vAcc></extensions></trkpt>
      <trkpt lon="-4.133897" lat="53.024675"><ele>178.468521</ele><time>2021-07-17T14:27:44Z</time><extensions><speed>0.759539</speed><course>306.897400</course><hAcc>0.886934</hAcc><vAcc>0.710615</vAcc></extensions></trkpt>
      <trkpt lon="-4.133887" lat="53.024678"><ele>178.367188</ele><time>2021-07-17T14:27:45Z</time><extensions><speed>0.729885</speed><course>302.152618</course><hAcc>0.886346</hAcc><vAcc>0.708787</vAcc></extensions></trkpt>
      <trkpt lon="-4.133877" lat="53.024681"><ele>178.276703</ele><time>2021-07-17T14:27:46Z</time><extensions><speed>0.701359</speed><course>297.726410</course><hAcc>0.885709</hAcc><vAcc>0.706746</vAcc></extensions></trkpt>
      <trkpt lon="-4.133868" lat="53.024683"><ele>178.196671</ele><time>2021-07-17T14:27:47Z</time><extensions><speed>0.674721</speed><course>300.194183</course><hAcc>0.885035</hAcc><vAcc>0.704517</vAcc></extensions></trkpt>
      <trkpt lon="-4.133859" lat="53.024686"><ele>178.127182</ele><time>2021-07-17T14:27:48Z</time><extensions><speed>0.650709</speed><course>297.151825</course><hAcc>0.884340</hAcc><vAcc>0.702152</vAcc></extensions></trkpt>
      <trkpt lon="-4.133851" lat="53.024689"><ele>178.068085</ele><time>2021-07-17T14:27:49Z</time><extensions><speed>0.628904</speed><course>298.399384</course><hAcc>0.883644</hAcc><vAcc>0.699730</vAcc></extensions></trkpt>
      <trkpt lon="-4.133843" lat="53.024692"><ele>178.018600</ele><time>2021-07-17T14:27:50Z</time><extensions><speed>0.609336</speed><course>300.837921</course><hAcc>0.882967</hAcc><vAcc>0.697346</vAcc></extensions></trkpt>
      <trkpt lon="-4.133835" lat="53.024694"><ele>177.977081</ele><time>2021-07-17T14:27:51Z</time><extensions><speed>0.592275</speed><course>299.844330</course><hAcc>0.882331</hAcc><vAcc>0.695100</vAcc></extensions></trkpt>
      <trkpt lon="-4.133827" lat="53.024697"><ele>177.941559</ele><time>2021-07-17T14:27:52Z</time><extensions><speed>0.576819</speed><course>300.001373</course><hAcc>0.881756</hAcc><vAcc>0.693085</vAcc></extensions></trkpt>
      <trkpt lon="-4.133820" lat="53.024699"><ele>177.910416</ele><time>2021-07-17T14:27:53Z</time><extensions><speed>0.561316</speed><course>294.568817</course><hAcc>0.881259</hAcc><vAcc>0.691374</vAcc></extensions></trkpt>
      <trkpt lon="-4.133812" lat="53.024701"><ele>177.882263</ele><time>2021-07-17T14:27:54Z</time><extensions><speed>0.543676</speed><course>300.687103</course><hAcc>0.880851</hAcc><vAcc>0.690020</vAcc></extensions></trkpt>
      <trkpt lon="-4.133805" lat="53.024703"><ele>177.855927</ele><time>2021-07-17T14:27:55Z</time><extensions><speed>0.521484</speed><course>297.691925</course><hAcc>0.880538</hAcc><vAcc>0.689043</vAcc></extensions></trkpt>
      <trkpt lon="-4.133798" lat="53.024705"><ele>177.830276</ele><time>2021-07-17T14:27:56Z</time><extensions><speed>0.493304</speed><course>293.928223</course><hAcc>0.880314</hAcc><vAcc>0.688423</vAcc></extensions></trkpt>
      <trkpt lon="-4.133791" lat="53.024707"><ele>177.804230</ele><time>2021-07-17T14:27:57Z</time><extensions><speed>0.459048</speed><course>297.041656</course><hAcc>0.880169</hAcc><vAcc>0.688104</vAcc></extensions></trkpt>
      <trkpt lon="-4.133785" lat="53.024708"><ele>177.776962</ele><time>2021-07-17T14:27:58Z</time><extensions><speed>0.419869</speed><course>298.722290</course><hAcc>0.880088</hAcc><vAcc>0.688011</vAcc></extensions></trkpt>
      <trkpt lon="-4.133780" lat="53.024709"><ele>177.747955</ele><time>2021-07-17T14:27:59Z</time><extensions><speed>0.377771</speed><course>296.674316</course><hAcc>0.880053</hAcc><vAcc>0.688066</vAcc></extensions></trkpt>
      <trkpt lon="-4.133775" lat="53.024710"><ele>177.717026</ele><time>2021-07-17T14:28:00Z</time><extensions><speed>0.334400</speed><course>301.147156</course><hAcc>0.880048</hAcc><vAcc>0.688196</vAcc></extensions></trkpt>
      <trkpt lon="-4.133770" lat="53.024711"><ele>177.684250</ele><time>2021-07-17T14:28:01Z</time><extensions><speed>0.291687</speed><course>301.618805</course><hAcc>0.880057</hAcc><vAcc>0.688333</vAcc></extensions></trkpt>
      <trkpt lon="-4.133766" lat="53.024712"><ele>177.649948</ele><time>2021-07-17T14:28:02Z</time><extensions><speed>0.252018</speed><course>300.678009</course><hAcc>0.880069</hAcc><vAcc>0.688422</vAcc></extensions></trkpt>
      <trkpt lon="-4.133763" lat="53.024712"><ele>177.614563</ele><time>2021-07-17T14:28:03Z</time><extensions><speed>0.217995</speed><course>306.078644</course><hAcc>0.880078</hAcc><vAcc>0.688435</vAcc></extensions></trkpt>
      <trkpt lon="-4.133760" lat="53.024712"><ele>177.578583</ele><time>2021-07-17T14:28:04Z</time><extensions><speed>0.192961</speed><course>302.099213</course><hAcc>0.880086</hAcc><vAcc>0.688377</vAcc></extensions></trkpt>
      <trkpt lon="-4.133757" lat="53.024712"><ele>177.542465</ele><time>2021-07-17T14:28:05Z</time><extensions><speed>0.180138</speed><course>298.253754</course><hAcc>0.880098</hAcc><vAcc>0.688285</vAcc></extensions></trkpt>
      <trkpt lon="-4.133755" lat="53.024711"><ele>177.506592</ele><time>2021-07-17T14:28:06Z</time><extensions><speed>0.180657</speed><course>299.772583</course><hAcc>0.880126</hAcc><vAcc>0.688217</vAcc></extensions></trkpt>
      <trkpt lon="-4.133752" lat="53.024710"><ele>177.471359</ele><time>2021-07-17T14:28:07Z</time><extensions><speed>0.192663</speed><course>299.946075</course><hAcc>0.880183</hAcc><vAcc>0.688244</vAcc></extensions></trkpt>
      <trkpt lon="-4.133750" lat="53.024709"><ele>177.436996</ele><time>2021-07-17T14:28:08Z</time><extensions><speed>0.212040</speed><course>303.968170</course><hAcc>0.880283</hAcc><vAcc>0.688438</vAcc></extensions></trkpt>
      <trkpt lon="-4.133748" lat="53.024707"><ele>177.403473</ele><time>2021-07-17T14:28:09Z</time><extensions><speed>0.234541</speed><course>302.223755</course><hAcc>0.880436</hAcc><vAcc>0.688857</vAcc></extensions></trkpt>
      <trkpt lon="-4.133746" lat="53.024706"><ele>177.370667</ele><time>2021-07-17T14:28:10Z</time><extensions><speed>0.256995</speed><course>303.590851</course><hAcc>0.880650</hAcc><vAcc>0.689535</vAcc></extensions></trkpt>
      <trkpt lon="-4.133743" lat="53.024704"><ele>177.338303</ele><time>2021-07-17T14:28:11Z</time><extensions><speed>0.277494</speed><course>302.656281</course><hAcc>0.880921</hAcc><vAcc>0.690472</vAcc></extensions></trkpt>
      <trkpt lon="-4.133741" lat="53.024702"><ele>177.306000</ele><time>2021-07-17T14:28:12Z</time><extensions><speed>0.295091</speed><course>307.857574</course><hAcc>0.881242</hAcc><vAcc>0.691625</vAcc></extensions></trkpt>
      <trkpt lon="-4.133738" lat="53.024699"><ele>177.273315</ele><time>2021-07-17T14:28:13Z</time><extensions><speed>0.309455</speed><course>306.241272</course><hAcc>0.881597</hAcc><vAcc>0.692933</vAcc></extensions></trkpt>
      <trkpt lon="-4.133736" lat="53.024697"><ele>177.239822</ele><time>2021-07-17T14:28:14Z</time><extensions><speed>0.320648</speed><course>302.560516</course><hAcc>0.881967</hAcc><vAcc>0.694320</vAcc></extensions></trkpt>
      <trkpt lon="-4.133733" lat="53.024694"><ele>177.205231</ele><time>2021-07-17T14:28:15Z</time><extensions><speed>0.328880</speed><course>304.207947</course><hAcc>0.882332</hAcc><vAcc>0.695702</vAcc></extensions></trkpt>
      <trkpt lon="-4.133730" lat="53.024692"><ele>177.169434</ele><time>2021-07-17T14:28:16Z</time><extensions><speed>0.334388</speed><course>304.678192</course><hAcc>0.882670</hAcc><vAcc>0.696996</vAcc></extensions></trkpt>
      <trkpt lon="-4.133728" lat="53.024689"><ele>177.132446</ele><time>2021-07-17T14:28:17Z</time><extensions><speed>0.337105</speed><course>300.816559</course><hAcc>0.882960</hAcc><vAcc>0.698121</vAcc></extensions></trkpt>
      <trkpt lon="-4.133725" lat="53.024687"><ele>177.094421</ele><time>2021-07-17T14:28:18Z</time><extensions><speed>0.337221</speed><course>302.457642</course><hAcc>0.883185</hAcc><vAcc>0.698992</vAcc></extensions></trkpt>
      <trkpt lon="-4.133722" lat="53.024684"><ele>177.055679</ele><time>2021-07-17T14:28:19Z</time><extensions><speed>0.336251</speed><course>303.405792</course><hAcc>0.883332</hAcc><vAcc>0.699536</vAcc></extensions></trkpt>
      <trkpt lon="-4.133720" lat="53.024682"><ele>177.016708</ele><time>2021-07-17T14:28:20Z</time><extensions><speed>0.336503</speed><course>305.179382</course><hAcc>0.883391</hAcc><vAcc>0.699712</vAcc></extensions></trkpt>
      <trkpt lon="-4.133718" lat="53.024679"><ele>176.978165</ele><time>2021-07-17T14:28:21Z</time><extensions><speed>0.340266</speed><course>301.811188</course><hAcc>0.883362</hAcc><vAcc>0.699521</vAcc></extensions></trkpt>
      <trkpt lon="-4.133715" lat="53.024676"><ele>176.940674</ele><time>2021-07-17T14:28:22Z</time><extensions><speed>0.349500</speed><course>294.111877</course><hAcc>0.883246</hAcc><vAcc>0.698998</vAcc></extensions></trkpt>
      <trkpt lon="-4.133714" lat="53.024673"><ele>176.904526</ele><time>2021-07-17T14:28:23Z</time><extensions><speed>0.365527</speed><course>291.186249</course><hAcc>0.883053</hAcc><vAcc>0.698201</vAcc></extensions></trkpt>
      <trkpt lon="-4.133712" lat="53.024670"><ele>176.869751</ele><time>2021-07-17T14:28:24Z</time><extensions><speed>0.388865</speed><course>291.833313</course><hAcc>0.882795</hAcc><vAcc>0.697197</vAcc></extensions></trkpt>
      <trkpt lon="-4.133710" lat="53.024666"><ele>176.836304</ele><time>2021-07-17T14:28:25Z</time><extensions><speed>0.419358</speed><course>293.198639</course><hAcc>0.882488</hAcc><vAcc>0.696054</vAcc></extensions></trkpt>
      <trkpt lon="-4.133709" lat="53.024663"><ele>176.804245</ele><time>2021-07-17T14:28:26Z</time><extensions><speed>0.456675</speed><course>297.953094</course><hAcc>0.882150</hAcc><vAcc>0.694832</vAcc></extensions></trkpt>
      <trkpt lon="-4.133707" lat="53.024658"><ele>176.773712</ele><time>2021-07-17T14:28:27Z</time><extensions><speed>0.500391</speed><course>294.998413</course><hAcc>0.881797</hAcc><vAcc>0.693586</vAcc></extensions></trkpt>
      <trkpt lon="-4.133705" lat="53.024654"><ele>176.744720</ele><time>2021-07-17T14:28:28Z</time><extensions><speed>0.549948</speed><course>290.333923</course><hAcc>0.881447</hAcc><vAcc>0.692371</vAcc></extensions></trkpt>
      <trkpt lon="-4.133703" lat="53.024649"><ele>176.717361</ele><time>2021-07-17T14:28:29Z</time><extensions><speed>0.604600</speed><course>297.336884</course><hAcc>0.881115</hAcc><vAcc>0.691233</vAcc></extensions></trkpt>
      <trkpt lon="-4.133701" lat="53.024643"><ele>176.691772</ele><time>2021-07-17T14:28:30Z</time><extensions><speed>0.663463</speed><course>291.763641</course><hAcc>0.880815</hAcc><vAcc>0.690214</vAcc></extensions></trkpt>
      <trkpt lon="-4.133699" lat="53.024637"><ele>176.667953</ele><time>2021-07-17T14:28:31Z</time><extensions><speed>0.725519</speed><course>293.588959</course><hAcc>0.880557</hAcc><vAcc>0.689347</vAcc></extensions></trkpt>
      <trkpt lon="-4.133696" lat="53.024631"><ele>176.645798</ele><time>2021-07-17T14:28:32Z</time><extensions><speed>0.789436</speed><course>298.534668</course><hAcc>0.880350</hAcc><vAcc>0.688661</vAcc></extensions></trkpt>
      <trkpt lon="-4.133693" lat="53.024623"><ele>176.625137</ele><time>2021-07-17T14:28:33Z</time><extensions><speed>0.853722</speed><course>294.834351</course><hAcc>0.880200</hAcc><vAcc>0.688177</vAcc></extensions></trkpt>
      <trkpt lon="-4.133690" lat="53.024616"><ele>176.606171</ele><time>2021-07-17T14:28:34Z</time><extensions><speed>0.916529</speed><course>297.698059</course><hAcc>0.880109</hAcc><vAcc>0.687906</vAcc></extensions></trkpt>
      <trkpt lon="-4.133686" lat="53.024607"><ele>176.589294</ele><time>2021-07-17T14:28:35Z</time><extensions><speed>0.976112</speed><course>298.511444</course><hAcc>0.880075</hAcc><vAcc>0.687843</vAcc></extensions></trkpt>
      <trkpt lon="-4.133683" lat="53.024599"><ele>176.574493</ele><time>2021-07-17T14:28:36Z</time><extensions><speed>1.031473</speed><course>303.054443</course><hAcc>0.880096</hAcc><vAcc>0.687971</vAcc></extensions></trkpt>
      <trkpt lon="-4.133679" lat="53.024589"><ele>176.561523</ele><time>2021-07-17T14:28:37Z</time><extensions><speed>1.081661</speed><course>300.594757</course><hAcc>0.880164</hAcc><vAcc>0.688262</vAcc></extensions></trkpt>
      <trkpt lon="-4.133676" lat="53.024580"><ele>176.550262</ele><time>2021-07-17T14:28:38Z</time><extensions><speed>1.125753</speed><course>303.489990</course><hAcc>0.880271</hAcc><vAcc>0.688679</vAcc></extensions></trkpt>
      <trkpt lon="-4.133672" lat="53.024570"><ele>176.540466</ele><time>2021-07-17T14:28:39Z</time><extensions><speed>1.163398</speed><course>307.296783</course><hAcc>0.880408</hAcc><vAcc>0.689177</vAcc></extensions></trkpt>
      <trkpt lon="-4.133669" lat="53.024559"><ele>176.531876</ele><time>2021-07-17T14:28:40Z</time><extensions><speed>1.195019</speed><course>306.846466</course><hAcc>0.880566</hAcc><vAcc>0.689715</vAcc></extensions></trkpt>
      <trkpt lon="-4.133666" lat="53.024549"><ele>176.524384</ele><time>2021-07-17T14:28:41Z</time><extensions><speed>1.221661</speed><course>314.303711</course><hAcc>0.880737</hAcc><vAcc>0.690268</vAcc></extensions></trkpt>
      <trkpt lon="-4.133663" lat="53.024538"><ele>176.517868</ele><time>2021-07-17T14:28:42Z</time><extensions><speed>1.244493</speed><course>316.753265</course><hAcc>0.880917</hAcc><vAcc>0.690825</vAcc></extensions></trkpt>
      <trkpt lon="-4.133660" lat="53.024527"><ele>176.512283</ele><time>2021-07-17T14:28:43Z</time><extensions><speed>1.264209</speed><course>312.101562</course><hAcc>0.881103</hAcc><vAcc>0.691390</vAcc></extensions></trkpt>
      <trkpt lon="-4.133657" lat="53.024515"><ele>176.507751</ele><time>2021-07-17T14:28:44Z</time><extensions><speed>1.280894</speed><course>310.983948</course><hAcc>0.881293</hAcc><vAcc>0.691969</vAcc></extensions></trkpt>
      <trkpt lon="-4.133655" lat="53.024504"><ele>176.504166</ele><time>2021-07-17T14:28:45Z</time><extensions><speed>1.294356</speed><course>316.824890</course><hAcc>0.881484</hAcc><vAcc>0.692569</vAcc></extensions></trkpt>
      <trkpt lon="-4.133652" lat="53.024492"><ele>176.501144</ele><time>2021-07-17T14:28:46Z</time><extensions><speed>1.304430</speed><course>324.005005</course><hAcc>0.881675</hAcc><vAcc>0.693191</vAcc></extensions></trkpt>
      <trkpt lon="-4.133650" lat="53.024480"><ele>176.498413</ele><time>2021-07-17T14:28:47Z</time><extensions><speed>1.311278</speed><course>322.091736</course><hAcc>0.881863</hAcc><vAcc>0.693823</vAcc></extensions></trkpt>
      <trkpt lon="-4.133649" lat="53.024469"><ele>176.496109</ele><time>2021-07-17T14:28:48Z</time><extensions><speed>1.315317</speed><course>322.830170</course><hAcc>0.882043</hAcc><vAcc>0.694448</vAcc></extensions></trkpt>
      <trkpt lon="-4.133647" lat="53.024457"><ele>176.494324</ele><time>2021-07-17T14:28:49Z</time><extensions><speed>1.317123</speed><course>325.823517</course><hAcc>0.882212</hAcc><vAcc>0.695039</vAcc></extensions></trkpt>
      <trkpt lon="-4.133646" lat="53.024445"><ele>176.493210</ele><time>2021-07-17T14:28:50Z</time><extensions><speed>1.317368</speed><course>331.853210</course><hAcc>0.882366</hAcc><vAcc>0.695569</vAcc></extensions></trkpt>
      <trkpt lon="-4.133644" lat="53.024433"><ele>176.493027</ele><time>2021-07-17T14:28:51Z</time><extensions><speed>1.316645</speed><course>331.260956</course><hAcc>0.882501</hAcc><vAcc>0.696018</vAcc></extensions></trkpt>
      <trkpt lon="-4.133644" lat="53.024421"><ele>176.493912</ele><time>2021-07-17T14:28:52Z</time><extensions><speed>1.315604</speed><course>329.072571</course><hAcc>0.882618</hAcc><vAcc>0.696377</vAcc></extensions></trkpt>
      <trkpt lon="-4.133643" lat="53.024410"><ele>176.495712</ele><time>2021-07-17T14:28:53Z</time><extensions><speed>1.315400</speed><course>325.473938</course><hAcc>0.882717</hAcc><vAcc>0.696650</vAcc></extensions></trkpt>
      <trkpt lon="-4.133643" lat="53.024398"><ele>176.497772</ele><time>2021-07-17T14:28:54Z</time><extensions><speed>1.316980</speed><course>325.383026</course><hAcc>0.882801</hAcc><vAcc>0.696853</vAcc></extensions></trkpt>
      <trkpt lon="-4.133643" lat="53.024386"><ele>176.499496</ele><time>2021-07-17T14:28:55Z</time><extensions><speed>1.320548</speed><course>325.061401</course><hAcc>0.882874</hAcc><vAcc>0.697012</vAcc></extensions></trkpt>
      <trkpt lon="-4.133644" lat="53.024374"><ele>176.500793</ele><time>2021-07-17T14:28:56Z</time><extensions><speed>1.325876</speed><course>325.207275</course><hAcc>0.882941</hAcc><vAcc>0.697156</vAcc></extensions></trkpt>
      <trkpt lon="-4.133644" lat="53.024362"><ele>176.501419</ele><time>2021-07-17T14:28:57Z</time><extensions><speed>1.332554</speed><course>322.410889</course><hAcc>0.883008</hAcc><vAcc>0.697312</vAcc></extensions></trkpt>
      <trkpt lon="-4.133645" lat="53.024350"><ele>176.500900</ele><time>2021-07-17T14:28:58Z</time><extensions><speed>1.340303</speed><course>319.218658</course><hAcc>0.883081</hAcc><vAcc>0.697502</vAcc></extensions></trkpt>
      <trkpt lon="-4.133647" lat="53.024338"><ele>176.498978</ele><time>2021-07-17T14:28:59Z</time><extensions><speed>1.348882</speed><course>319.790588</course><hAcc>0.883161</hAcc><vAcc>0.697738</vAcc></extensions></trkpt>
      <trkpt lon="-4.133648" lat="53.024326"><ele>176.495605</ele><time>2021-07-17T14:29:00Z</time><extensions><speed>1.357929</speed><course>318.972229</course><hAcc>0.883254</hAcc><vAcc>0.698028</vAcc></extensions></trkpt>
      <trkpt lon="-4.133650" lat="53.024314"><ele>176.490479</ele><time>2021-07-17T14:29:01Z</time><extensions><speed>1.366859</speed><course>320.354065</course><hAcc>0.883359</hAcc><vAcc>0.698372</vAcc></extensions></trkpt>
      <trkpt lon="-4.133652" lat="53.024302"><ele>176.483353</ele><time>2021-07-17T14:29:02Z</time><extensions><speed>1.374855</speed><course>320.541016</course><hAcc>0.883476</hAcc><vAcc>0.698767</vAcc></extensions></trkpt>
      <trkpt lon="-4.133653" lat="53.024289"><ele>176.474457</ele><time>2021-07-17T14:29:03Z</time><extensions><speed>1.381090</speed><course>317.906189</course><hAcc>0.883605</hAcc><vAcc>0.699206</vAcc></extensions></trkpt>
      <trkpt lon="-4.133655" lat="53.024277"><ele>176.464050</ele><time>2021-07-17T14:29:04Z</time><extensions><speed>1.384967</speed><course>316.077393</course><hAcc>0.883742</hAcc><vAcc>0.699678</vAcc></extensions></trkpt>
      <trkpt lon="-4.133657" lat="53.024264"><ele>176.452377</ele><time>2021-07-17T14:29:04Z</time><extensions><speed>1.386371</speed><course>307.356537</course><hAcc>0.883902</hAcc><vAcc>0.700181</vAcc></extensions></trkpt>
      <trkpt lon="-4.133658" lat="53.024252"><ele>176.440048</ele><time>2021-07-17T14:29:06Z</time><extensions><speed>1.385377</speed><course>302.004150</course><hAcc>0.884065</hAcc><vAcc>0.700693</vAcc></extensions></trkpt>
      <trkpt lon="-4.133659" lat="53.024240"><ele>176.428116</ele><time>2021-07-17T14:29:07Z</time><extensions><speed>1.382118</speed><course>310.520874</course><hAcc>0.884208</hAcc><vAcc>0.701187</vAcc></extensions></trkpt>
      <trkpt lon="-4.133660" lat="53.024227"><ele>176.417297</ele><time>2021-07-17T14:29:08Z</time><extensions><speed>1.377028</speed><course>307.778412</course><hAcc>0.884345</hAcc><vAcc>0.701661</vAcc></extensions></trkpt>
      <trkpt lon="-4.133660" lat="53.024215"><ele>176.408371</ele><time>2021-07-17T14:29:09Z</time><extensions><speed>1.370407</speed><course>310.132080</course><hAcc>0.884470</hAcc><vAcc>0.702100</vAcc></extensions></trkpt>
      <trkpt lon="-4.133660" lat="53.024203"><ele>176.402252</ele><time>2021-07-17T14:29:10Z</time><extensions><speed>1.362118</speed><course>310.327301</course><hAcc>0.884578</hAcc><vAcc>0.702489</vAcc></extensions></trkpt>
      <trkpt lon="-4.133660" lat="53.024190"><ele>176.399460</ele><time>2021-07-17T14:29:11Z</time><extensions><speed>1.351943</speed><course>308.925873</course><hAcc>0.884665</hAcc><vAcc>0.702812</vAcc></extensions></trkpt>
      <trkpt lon="-4.133660" lat="53.024178"><ele>176.400085</ele><time>2021-07-17T14:29:12Z</time><extensions><speed>1.340096</speed><course>308.955322</course><hAcc>0.884725</hAcc><vAcc>0.703053</vAcc></extensions></trkpt>
      <trkpt lon="-4.133659" lat="53.024166"><ele>176.404083</ele><time>2021-07-17T14:29:13Z</time><extensions><speed>1.327290</speed><course>303.152588</course><hAcc>0.884755</hAcc><vAcc>0.703193</vAcc></extensions></trkpt>
      <trkpt lon="-4.133659" lat="53.024154"><ele>176.411057</ele><time>2021-07-17T14:29:14Z</time><extensions><speed>1.314432</speed><course>313.156525</course><hAcc>0.884753</hAcc><vAcc>0.703216</vAcc></extensions></trkpt>
      <trkpt lon="-4.133658" lat="53.024143"><ele>176.420227</ele><time>2021-07-17T14:29:15Z</time><extensions><speed>1.302245</speed><course>307.864197</course><hAcc>0.884717</hAcc><vAcc>0.703112</vAcc></extensions></trkpt>
      <trkpt lon="-4.133657" lat="53.024131"><ele>176.431061</ele><time>2021-07-17T14:29:16Z</time><extensions><speed>1.291267</speed><course>309.541687</course><hAcc>0.884647</hAcc><vAcc>0.702877</vAcc></extensions></trkpt>
      <trkpt lon="-4.133656" lat="53.024119"><ele>176.443665</ele><time>2021-07-17T14:29:17Z</time><extensions><speed>1.282040</speed><course>312.130341</course><hAcc>0.884547</hAcc><vAcc>0.702519</vAcc></extensions></trkpt>
      <trkpt lon="-4.133655" lat="53.024108"><ele>176.457993</ele><time>2021-07-17T14:29:18Z</time><extensions><speed>1.275220</speed><course>310.268982</course><hAcc>0.884419</hAcc><vAcc>0.702056</vAcc></extensions></trkpt>
      <trkpt lon="-4.133654" lat="53.024097"><ele>176.473557</ele><time>2021-07-17T14:29:19Z</time><extensions><speed>1.271380</speed><course>308.247070</course><hAcc>0.884269</hAcc><vAcc>0.701512</vAcc></extensions></trkpt>
      <trkpt lon="-4.133654" lat="53.024085"><ele>176.489868</ele><time>2021-07-17T14:29:20Z</time><extensions><speed>1.270775</speed><course>304.229858</course><hAcc>0.884103</hAcc><vAcc>0.700910</vAcc></extensions></trkpt>
      <trkpt lon="-4.133653" lat="53.024074"><ele>176.506866</ele><time>2021-07-17T14:29:21Z</time><extensions><speed>1.273583</speed><course>308.310059</course><hAcc>0.883928</hAcc><vAcc>0.700280</vAcc></extensions></trkpt>
      <trkpt lon="-4.133652" lat="53.024062"><ele>176.524445</ele><time>2021-07-17T14:29:22Z</time><extensions><speed>1.279932</speed><course>311.142822</course><hAcc>0.883751</hAcc><vAcc>0.699653</vAcc></extensions></trkpt>
      <trkpt lon="-4.133652" lat="53.024051"><ele>176.541946</ele><time>2021-07-17T14:29:23Z</time><extensions><speed>1.289734</speed><course>305.518036</course><hAcc>0.883579</hAcc><vAcc>0.699055</vAcc></extensions></trkpt>
      <trkpt lon="-4.133652" lat="53.024039"><ele>176.558731</ele><time>2021-07-17T14:29:24Z</time><extensions><speed>1.302707</speed><course>303.061462</course><hAcc>0.883417</hAcc><vAcc>0.698511</vAcc></extensions></trkpt>
      <trkpt lon="-4.133652" lat="53.024027"><ele>176.574905</ele><time>2021-07-17T14:29:25Z</time><extensions><speed>1.318273</speed><course>298.232086</course><hAcc>0.883269</hAcc><vAcc>0.698035</vAcc></extensions></trkpt>
      <trkpt lon="-4.133653" lat="53.024015"><ele>176.590775</ele><time>2021-07-17T14:29:26Z</time><extensions><speed>1.335586</speed><course>289.358276</course><hAcc>0.883139</hAcc><vAcc>0.697632</vAcc></extensions></trkpt>
      <trkpt lon="-4.133653" lat="53.024003"><ele>176.606354</ele><time>2021-07-17T14:29:27Z</time><extensions><speed>1.353708</speed><course>285.924469</course><hAcc>0.883028</hAcc><vAcc>0.697299</vAcc></extensions></trkpt>
      <trkpt lon="-4.133654" lat="53.023991"><ele>176.621414</ele><time>2021-07-17T14:29:28Z</time><extensions><speed>1.372032</speed><course>280.520447</course><hAcc>0.882939</hAcc><vAcc>0.697031</vAcc></extensions></trkpt>
      <trkpt lon="-4.133655" lat="53.023979"><ele>176.635849</ele><time>2021-07-17T14:29:29Z</time><extensions><speed>1.390345</speed><course>286.862061</course><hAcc>0.882871</hAcc><vAcc>0.696823</vAcc></extensions></trkpt>
      <trkpt lon="-4.133656" lat="53.023966"><ele>176.649414</ele><time>2021-07-17T14:29:30Z</time><extensions><speed>1.408537</speed><course>295.700317</course><hAcc>0.882826</hAcc><vAcc>0.696673</vAcc></extensions></trkpt>
      <trkpt lon="-4.133657" lat="53.023953"><ele>176.661453</ele><time>2021-07-17T14:29:31Z</time><extensions><speed>1.426851</speed><course>296.161560</course><hAcc>0.882805</hAcc><vAcc>0.696588</vAcc></extensions></trkpt>
      <trkpt lon="-4.133658" lat="53.023940"><ele>176.671555</ele><time>2021-07-17T14:29:32Z</time><extensions><speed>1.445505</speed><course>298.229218</course><hAcc>0.882811</hAcc><vAcc>0.696578</vAcc></extensions></trkpt>
      <trkpt lon="-4.133658" lat="53.023927"><ele>176.679718</ele><time>2021-07-17T14:29:33Z</time><extensions><speed>1.464448</speed><course>297.545471</course><hAcc>0.882845</hAcc><vAcc>0.696654</vAcc></extensions></trkpt>
      <trkpt lon="-4.133659" lat="53.023914"><ele>176.685715</ele><time>2021-07-17T14:29:34Z</time><extensions><speed>1.483523</speed><course>292.454163</course><hAcc>0.882908</hAcc><vAcc>0.696827</vAcc></extensions></trkpt>
      <trkpt lon="-4.133658" lat="53.023901"><ele>176.689041</ele><time>2021-07-17T14:29:35Z</time><extensions><speed>1.502051</speed><course>287.195465</course><hAcc>0.883003</hAcc><vAcc>0.697107</vAcc></extensions></trkpt>
      <trkpt lon="-4.133657" lat="53.023887"><ele>176.689255</ele><time>2021-07-17T14:29:36Z</time><extensions><speed>1.518944</speed><course>283.339600</course><hAcc>0.883128</hAcc><vAcc>0.697500</vAcc></extensions></trkpt>
      <trkpt lon="-4.133656" lat="53.023874"><ele>176.686295</ele><time>2021-07-17T14:29:37Z</time><extensions><speed>1.533307</speed><course>283.687531</course><hAcc>0.883283</hAcc><vAcc>0.698005</vAcc></extensions></trkpt>
      <trkpt lon="-4.133654" lat="53.023860"><ele>176.680267</ele><time>2021-07-17T14:29:38Z</time><extensions><speed>1.544460</speed><course>284.089417</course><hAcc>0.883465</hAcc><vAcc>0.698616</vAcc></extensions></trkpt>
      <trkpt lon="-4.133652" lat="53.023846"><ele>176.670929</ele><time>2021-07-17T14:29:39Z</time><extensions><speed>1.551842</speed><course>286.432800</course><hAcc>0.883669</hAcc><vAcc>0.699319</vAcc></extensions></trkpt>
      <trkpt lon="-4.133649" lat="53.023832"><ele>176.658264</ele><time>2021-07-17T14:29:40Z</time><extensions><speed>1.555095</speed><course>288.844025</course><hAcc>0.883890</hAcc><vAcc>0.700091</vAcc></extensions></trkpt>
      <trkpt lon="-4.133646" lat="53.023818"><ele>176.642715</ele><time>2021-07-17T14:29:41Z</time><extensions><speed>1.554009</speed><course>294.600861</course><hAcc>0.884120</hAcc><vAcc>0.700904</vAcc></extensions></trkpt>
      <trkpt lon="-4.133643" lat="53.023804"><ele>176.624695</ele><time>2021-07-17T14:29:42Z</time><extensions><speed>1.548619</speed><course>289.399475</course><hAcc>0.884351</hAcc><vAcc>0.701723</vAcc></extensions></trkpt>
      <trkpt lon="-4.133639" lat="53.023791"><ele>176.604324</ele><time>2021-07-17T14:29:43Z</time><extensions><speed>1.539131</speed><course>292.462738</course><hAcc>0.884575</hAcc><vAcc>0.702513</vAcc></extensions></trkpt>
      <trkpt lon="-4.133635" lat="53.023777"><ele>176.581589</ele><time>2021-07-17T14:29:44Z</time><extensions><speed>1.525935</speed><course>292.044128</course><hAcc>0.884784</hAcc><vAcc>0.703241</vAcc></extensions></trkpt>
      <trkpt lon="-4.133631" lat="53.023764"><ele>176.556747</ele><time>2021-07-17T14:29:45Z</time><extensions><speed>1.509541</speed><course>289.426849</course><hAcc>0.884971</hAcc><vAcc>0.703882</vAcc></extensions></trkpt>
      <trkpt lon="-4.133627" lat="53.023750"><ele>176.530273</ele><time>2021-07-17T14:29:46Z</time><extensions><speed>1.490884</speed><course>292.821838</course><hAcc>0.885130</hAcc><vAcc>0.704415</vAcc></extensions></trkpt>
      <trkpt lon="-4.133623" lat="53.023737"><ele>176.502502</ele><time>2021-07-17T14:29:47Z</time><extensions><speed>1.471358</speed><course>287.405121</course><hAcc>0.885256</hAcc><vAcc>0.704827</vAcc></extensions></trkpt>
      <trkpt lon="-4.133619" lat="53.023724"><ele>176.474075</ele><time>2021-07-17T14:29:48Z</time><extensions><speed>1.452217</speed><course>289.328461</course><hAcc>0.885348</hAcc><vAcc>0.705111</vAcc></extensions></trkpt>
      <trkpt lon="-4.133616" lat="53.023712"><ele>176.446014</ele><time>2021-07-17T14:29:49Z</time><extensions><speed>1.434527</speed><course>290.686554</course><hAcc>0.885403</hAcc><vAcc>0.705264</vAcc></extensions></trkpt>
      <trkpt lon="-4.133612" lat="53.023699"><ele>176.418930</ele><time>2021-07-17T14:29:50Z</time><extensions><speed>1.419476</speed><course>291.519623</course><hAcc>0.885421</hAcc><vAcc>0.705289</vAcc></extensions></trkpt>
      <trkpt lon="-4.133608" lat="53.023686"><ele>176.392853</ele><time>2021-07-17T14:29:51Z</time><extensions><speed>1.407713</speed><course>289.260345</course><hAcc>0.885404</hAcc><vAcc>0.705194</vAcc></extensions></trkpt>
      <trkpt lon="-4.133605" lat="53.023674"><ele>176.367447</ele><time>2021-07-17T14:29:52Z</time><extensions><speed>1.398865</speed><course>291.671295</course><hAcc>0.885351</hAcc><vAcc>0.704994</vAcc></extensions></trkpt>
      <trkpt lon="-4.133602" lat="53.023662"><ele>176.341644</ele><time>2021-07-17T14:29:53Z</time><extensions><speed>1.392398</speed><course>285.797272</course><hAcc>0.885265</hAcc><vAcc>0.704699</vAcc></extensions></trkpt>
      <trkpt lon="-4.133598" lat="53.023649"><ele>176.312927</ele><time>2021-07-17T14:29:54Z</time><extensions><speed>1.387861</speed><course>284.045776</course><hAcc>0.885146</hAcc><vAcc>0.704320</vAcc></extensions></trkpt>
      <trkpt lon="-4.133595" lat="53.023637"><ele>176.278152</ele><time>2021-07-17T14:29:55Z</time><extensions><speed>1.384650</speed><course>290.744446</course><hAcc>0.884995</hAcc><vAcc>0.703856</vAcc></extensions></trkpt>
      <trkpt lon="-4.133591" lat="53.023625"><ele>176.234741</ele><time>2021-07-17T14:29:56Z</time><extensions><speed>1.381901</speed><course>286.155334</course><hAcc>0.884811</hAcc><vAcc>0.703302</vAcc></extensions></trkpt>
      <trkpt lon="-4.133587" lat="53.023613"><ele>176.181473</ele><time>2021-07-17T14:29:57Z</time><extensions><speed>1.378477</speed><course>292.078705</course><hAcc>0.884595</hAcc><vAcc>0.702654</vAcc></extensions></trkpt>
      <trkpt lon="-4.133583" lat="53.023601"><ele>176.118774</ele><time>2021-07-17T14:29:58Z</time><extensions><speed>1.373345</speed><course>292.906311</course><hAcc>0.884346</hAcc><vAcc>0.701903</vAcc></extensions></trkpt>
      <trkpt lon="-4.133579" lat="53.023588"><ele>176.048492</ele><time>2021-07-17T14:29:59Z</time><extensions><speed>1.365767</speed><course>291.462067</course><hAcc>0.884064</hAcc><vAcc>0.701043</vAcc></extensions></trkpt>
      <trkpt lon="-4.133575" lat="53.023576"><ele>175.972549</ele><time>2021-07-17T14:30:00Z</time><extensions><speed>1.355593</speed><course>290.448425</course><hAcc>0.883749</hAcc><vAcc>0.700064</vAcc></extensions></trkpt>
      <trkpt lon="-4.133571" lat="53.023565"><ele>175.891907</ele><time>2021-07-17T14:30:01Z</time><extensions><speed>1.343293</speed><course>295.857269</course><hAcc>0.883402</hAcc><vAcc>0.698963</vAcc></extensions></trkpt>
      <trkpt lon="-4.133567" lat="53.023553"><ele>175.806763</ele><time>2021-07-17T14:30:02Z</time><extensions><speed>1.329364</speed><course>298.185364</course><hAcc>0.883025</hAcc><vAcc>0.697749</vAcc></extensions></trkpt>
      <trkpt lon="-4.133562" lat="53.023541"><ele>175.717529</ele><time>2021-07-17T14:30:03Z</time><extensions><speed>1.314080</speed><course>294.469940</course><hAcc>0.882622</hAcc><vAcc>0.696440</vAcc></extensions></trkpt>
      <trkpt lon="-4.133557" lat="53.023530"><ele>175.625473</ele><time>2021-07-17T14:30:04Z</time><extensions><speed>1.297511</speed><course>292.898438</course><hAcc>0.882197</hAcc><vAcc>0.695058</vAcc></extensions></trkpt>
      <trkpt lon="-4.133553" lat="53.023519"><ele>175.532608</ele><time>2021-07-17T14:30:05Z</time><extensions><speed>1.279735</speed><course>292.422791</course><hAcc>0.881754</hAcc><vAcc>0.693622</vAcc></extensions></trkpt>
      <trkpt lon="-4.133548" lat="53.023508"><ele>175.440765</ele><time>2021-07-17T14:30:06Z</time><extensions><speed>1.260794</speed><course>292.622986</course><hAcc>0.881299</hAcc><vAcc>0.692148</vAcc></extensions></trkpt>
      <trkpt lon="-4.133543" lat="53.023497"><ele>175.350769</ele><time>2021-07-17T14:30:07Z</time><extensions><speed>1.240947</speed><course>292.749084</course><hAcc>0.880836</hAcc><vAcc>0.690655</vAcc></extensions></trkpt>
      <trkpt lon="-4.133539" lat="53.023486"><ele>175.262329</ele><time>2021-07-17T14:30:08Z</time><extensions><speed>1.220769</speed><course>294.832458</course><hAcc>0.880371</hAcc><vAcc>0.689161</vAcc></extensions></trkpt>
      <trkpt lon="-4.133534" lat="53.023476"><ele>175.175095</ele><time>2021-07-17T14:30:09Z</time><extensions><speed>1.200737</speed><course>290.563019</course><hAcc>0.879909</hAcc><vAcc>0.687683</vAcc></extensions></trkpt>
      <trkpt lon="-4.133529" lat="53.023465"><ele>175.089203</ele><time>2021-07-17T14:30:10Z</time><extensions><speed>1.181492</speed><course>288.082062</course><hAcc>0.879454</hAcc><vAcc>0.686233</vAcc></extensions></trkpt>
      <trkpt lon="-4.133525" lat="53.023455"><ele>175.005386</ele><time>2021-07-17T14:30:11Z</time><extensions><speed>1.164146</speed><course>289.238037</course><hAcc>0.879010</hAcc><vAcc>0.684821</vAcc></extensions></trkpt>
      <trkpt lon="-4.133520" lat="53.023445"><ele>174.925003</ele><time>2021-07-17T14:30:12Z</time><extensions><speed>1.150103</speed><course>289.037109</course><hAcc>0.878582</hAcc><vAcc>0.683457</vAcc></extensions></trkpt>
      <trkpt lon="-4.133516" lat="53.023435"><ele>174.848969</ele><time>2021-07-17T14:30:13Z</time><extensions><speed>1.140622</speed><course>291.884949</course><hAcc>0.878174</hAcc><vAcc>0.682154</vAcc></extensions></trkpt>
      <trkpt lon="-4.133511" lat="53.023425"><ele>174.777161</ele><time>2021-07-17T14:30:14Z</time><extensions><speed>1.136032</speed><course>287.567657</course><hAcc>0.877790</hAcc><vAcc>0.680930</vAcc></extensions></trkpt>
      <trkpt lon="-4.133507" lat="53.023415"><ele>174.709030</ele><time>2021-07-17T14:30:15Z</time><extensions><speed>1.135989</speed><course>291.768890</course><hAcc>0.877434</hAcc><vAcc>0.679795</vAcc></extensions></trkpt>
      <trkpt lon="-4.133502" lat="53.023406"><ele>174.644455</ele><time>2021-07-17T14:30:16Z</time><extensions><speed>1.139683</speed><course>296.126740</course><hAcc>0.877110</hAcc><vAcc>0.678759</vAcc></extensions></trkpt>
      <trkpt lon="-4.133498" lat="53.023396"><ele>174.584030</ele><time>2021-07-17T14:30:17Z</time><extensions><speed>1.146085</speed><course>297.059143</course><hAcc>0.876819</hAcc><vAcc>0.677827</vAcc></extensions></trkpt>
      <trkpt lon="-4.133493" lat="53.023386"><ele>174.528244</ele><time>2021-07-17T14:30:18Z</time><extensions><speed>1.154955</speed><course>303.696320</course><hAcc>0.876565</hAcc><vAcc>0.677007</vAcc></extensions></trkpt>
      <trkpt lon="-4.133489" lat="53.023376"><ele>174.476822</ele><time>2021-07-17T14:30:19Z</time><extensions><speed>1.166025</speed><course>307.460022</course><hAcc>0.876350</hAcc><vAcc>0.676309</vAcc></extensions></trkpt>
      <trkpt lon="-4.133485" lat="53.023365"><ele>174.429016</ele><time>2021-07-17T14:30:20Z</time><extensions><speed>1.178299</speed><course>302.094666</course><hAcc>0.876177</hAcc><vAcc>0.675745</vAcc></extensions></trkpt>
      <trkpt lon="-4.133480" lat="53.023355"><ele>174.384094</ele><time>2021-07-17T14:30:21Z</time><extensions><speed>1.190752</speed><course>294.763123</course><hAcc>0.876045</hAcc><vAcc>0.675328</vAcc></extensions></trkpt>
      <trkpt lon="-4.133476" lat="53.023345"><ele>174.341599</ele><time>2021-07-17T14:30:22Z</time><extensions><speed>1.202733</speed><course>292.310913</course><hAcc>0.875956</hAcc><vAcc>0.675062</vAcc></extensions></trkpt>
      <trkpt lon="-4.133472" lat="53.023334"><ele>174.301361</ele><time>2021-07-17T14:30:23Z</time><extensions><speed>1.213577</speed><course>286.252472</course><hAcc>0.875904</hAcc><vAcc>0.674938</vAcc></extensions></trkpt>
      <trkpt lon="-4.133468" lat="53.023323"><ele>174.263000</ele><time>2021-07-17T14:30:24Z</time><extensions><speed>1.222867</speed><course>277.085999</course><hAcc>0.875883</hAcc><vAcc>0.674933</vAcc></extensions></trkpt>
      <trkpt lon="-4.133464" lat="53.023313"><ele>174.225494</ele><time>2021-07-17T14:30:25Z</time><extensions><speed>1.230461</speed><course>269.880463</course><hAcc>0.875882</hAcc><vAcc>0.675007</vAcc></extensions></trkpt>
      <trkpt lon="-4.133461" lat="53.023302"><ele>174.187698</ele><time>2021-07-17T14:30:26Z</time><extensions><speed>1.236095</speed><course>256.014618</course><hAcc>0.875889</hAcc><vAcc>0.675111</vAcc></extensions></trkpt>
      <trkpt lon="-4.133458" lat="53.023291"><ele>174.149063</ele><time>2021-07-17T14:30:27Z</time><extensions><speed>1.239868</speed><course>250.524368</course><hAcc>0.875891</hAcc><vAcc>0.675196</vAcc></extensions></trkpt>
      <trkpt lon="-4.133456" lat="53.023280"><ele>174.109772</ele><time>2021-07-17T14:30:28Z</time><extensions><speed>1.242344</speed><course>237.491638</course><hAcc>0.875876</hAcc><vAcc>0.675215</vAcc></extensions></trkpt>
      <trkpt lon="-4.133454" lat="53.023269"><ele>174.070053</ele><time>2021-07-17T14:30:29Z</time><extensions><speed>1.244351</speed><course>231.976761</course><hAcc>0.875835</hAcc><vAcc>0.675131</vAcc></extensions></trkpt>
      <trkpt lon="-4.133452" lat="53.023257"><ele>174.029602</ele><time>2021-07-17T14:30:30Z</time><extensions><speed>1.246885</speed><course>228.504318</course><hAcc>0.875763</hAcc><vAcc>0.674922</vAcc></extensions></trkpt>
      <trkpt lon="-4.133451" lat="53.023246"><ele>173.988251</ele><time>2021-07-17T14:30:31Z</time><extensions><speed>1.250829</speed><course>227.577087</course><hAcc>0.875656</hAcc><vAcc>0.674577</vAcc></extensions></trkpt>
      <trkpt lon="-4.133450" lat="53.023235"><ele>173.946503</ele><time>2021-07-17T14:30:32Z</time><extensions><speed>1.256482</speed><course>219.513672</course><hAcc>0.875517</hAcc><vAcc>0.674104</vAcc></extensions></trkpt>
      <trkpt lon="-4.133449" lat="53.023224"><ele>173.905304</ele><time>2021-07-17T14:30:33Z</time><extensions><speed>1.263906</speed><course>224.903015</course><hAcc>0.875352</hAcc><vAcc>0.673528</vAcc></extensions></trkpt>
      <trkpt lon="-4.133449" lat="53.023212"><ele>173.865768</ele><time>2021-07-17T14:30:34Z</time><extensions><speed>1.273541</speed><course>222.390198</course><hAcc>0.875170</hAcc><vAcc>0.672888</vAcc></extensions></trkpt>
      <trkpt lon="-4.133448" lat="53.023201"><ele>173.828979</ele><time>2021-07-17T14:30:35Z</time><extensions><speed>1.286490</speed><course>223.313202</course><hAcc>0.874982</hAcc><vAcc>0.672228</vAcc></extensions></trkpt>
      <trkpt lon="-4.133447" lat="53.023189"><ele>173.795364</ele><time>2021-07-17T14:30:36Z</time><extensions><speed>1.304063</speed><course>224.045700</course><hAcc>0.874799</hAcc><vAcc>0.671596</vAcc></extensions></trkpt>
      <trkpt lon="-4.133446" lat="53.023177"><ele>173.764160</ele><time>2021-07-17T14:30:37Z</time><extensions><speed>1.327013</speed><course>224.975723</course><hAcc>0.874633</hAcc><vAcc>0.671031</vAcc></extensions></trkpt>
      <trkpt lon="-4.133444" lat="53.023165"><ele>173.734451</ele><time>2021-07-17T14:30:38Z</time><extensions><speed>1.355625</speed><course>226.513992</course><hAcc>0.874490</hAcc><vAcc>0.670558</vAcc></extensions></trkpt>
      <trkpt lon="-4.133441" lat="53.023153"><ele>173.706024</ele><time>2021-07-17T14:30:39Z</time><extensions><speed>1.389390</speed><course>227.291473</course><hAcc>0.874377</hAcc><vAcc>0.670187</vAcc></extensions></trkpt>
      <trkpt lon="-4.133438" lat="53.023141"><ele>173.679016</ele><time>2021-07-17T14:30:40Z</time><extensions><speed>1.427447</speed><course>231.833313</course><hAcc>0.874295</hAcc><vAcc>0.669924</vAcc></extensions></trkpt>
      <trkpt lon="-4.133435" lat="53.023128"><ele>173.653030</ele><time>2021-07-17T14:30:41Z</time><extensions><speed>1.469279</speed><course>230.421005</course><hAcc>0.874248</hAcc><vAcc>0.669772</vAcc></extensions></trkpt>
      <trkpt lon="-4.133430" lat="53.023115"><ele>173.626602</ele><time>2021-07-17T14:30:42Z</time><extensions><speed>1.513959</speed><course>235.980087</course><hAcc>0.874239</hAcc><vAcc>0.669738</vAcc></extensions></trkpt>
      <trkpt lon="-4.133425" lat="53.023101"><ele>173.598099</ele><time>2021-07-17T14:30:43Z</time><extensions><speed>1.560052</speed><course>243.213364</course><hAcc>0.874267</hAcc><vAcc>0.669825</vAcc></extensions></trkpt>
      <trkpt lon="-4.133419" lat="53.023087"><ele>173.566452</ele><time>2021-07-17T14:30:44Z</time><extensions><speed>1.605708</speed><course>253.165268</course><hAcc>0.874335</hAcc><vAcc>0.670040</vAcc></extensions></trkpt>
      <trkpt lon="-4.133412" lat="53.023073"><ele>173.531296</ele><time>2021-07-17T14:30:45Z</time><extensions><speed>1.648487</speed><course>266.505096</course><hAcc>0.874443</hAcc><vAcc>0.670383</vAcc></extensions></trkpt>
      <trkpt lon="-4.133404" lat="53.023059"><ele>173.492432</ele><time>2021-07-17T14:30:46Z</time><extensions><speed>1.686227</speed><course>267.255646</course><hAcc>0.874588</hAcc><vAcc>0.670851</vAcc></extensions></trkpt>
      <trkpt lon="-4.133396" lat="53.023045"><ele>173.449005</ele><time>2021-07-17T14:30:47Z</time><extensions><speed>1.717457</speed><course>271.176971</course><hAcc>0.874768</hAcc><vAcc>0.671441</vAcc></extensions></trkpt>
      <trkpt lon="-4.133388" lat="53.023030"><ele>173.399933</ele><time>2021-07-17T14:30:48Z</time><extensions><speed>1.741307</speed><course>283.145996</course><hAcc>0.874981</hAcc><vAcc>0.672146</vAcc></extensions></trkpt>
      <trkpt lon="-4.133379" lat="53.023015"><ele>173.344681</ele><time>2021-07-17T14:30:49Z</time><extensions><speed>1.756873</speed><course>291.499756</course><hAcc>0.875221</hAcc><vAcc>0.672952</vAcc></extensions></trkpt>
      <trkpt lon="-4.133370" lat="53.023000"><ele>173.283600</ele><time>2021-07-17T14:30:50Z</time><extensions><speed>1.763556</speed><course>295.960785</course><hAcc>0.875480</hAcc><vAcc>0.673823</vAcc></extensions></trkpt>
      <trkpt lon="-4.133361" lat="53.022985"><ele>173.217728</ele><time>2021-07-17T14:30:51Z</time><extensions><speed>1.762042</speed><course>298.309418</course><hAcc>0.875746</hAcc><vAcc>0.674714</vAcc></extensions></trkpt>
      <trkpt lon="-4.133352" lat="53.022971"><ele>173.147949</ele><time>2021-07-17T14:30:52Z</time><extensions><speed>1.753915</speed><course>301.442566</course><hAcc>0.876009</hAcc><vAcc>0.675582</vAcc></extensions></trkpt>
      <trkpt lon="-4.133343" lat="53.022956"><ele>173.074890</ele><time>2021-07-17T14:30:53Z</time><extensions><speed>1.741615</speed><course>301.820831</course><hAcc>0.876261</hAcc><vAcc>0.676396</vAcc></extensions></trkpt>
      <trkpt lon="-4.133335" lat="53.022941"><ele>172.999268</ele><time>2021-07-17T14:30:54Z</time><extensions><speed>1.727674</speed><course>306.533081</course><hAcc>0.876497</hAcc><vAcc>0.677142</vAcc></extensions></trkpt>
      <trkpt lon="-4.133326" lat="53.022926"><ele>172.922195</ele><time>2021-07-17T14:30:55Z</time><extensions><speed>1.713558</speed><course>310.759277</course><hAcc>0.876714</hAcc><vAcc>0.677822</vAcc></extensions></trkpt>
      <trkpt lon="-4.133319" lat="53.022912"><ele>172.844681</ele><time>2021-07-17T14:30:56Z</time><extensions><speed>1.699759</speed><course>315.721252</course><hAcc>0.876913</hAcc><vAcc>0.678445</vAcc></extensions></trkpt>
      <trkpt lon="-4.133311" lat="53.022897"><ele>172.766785</ele><time>2021-07-17T14:30:57Z</time><extensions><speed>1.686107</speed><course>321.376434</course><hAcc>0.877091</hAcc><vAcc>0.679013</vAcc></extensions></trkpt>
      <trkpt lon="-4.133304" lat="53.022883"><ele>172.687973</ele><time>2021-07-17T14:30:58Z</time><extensions><speed>1.672817</speed><course>321.893402</course><hAcc>0.877246</hAcc><vAcc>0.679514</vAcc></extensions></trkpt>
      <trkpt lon="-4.133297" lat="53.022869"><ele>172.607971</ele><time>2021-07-17T14:30:59Z</time><extensions><speed>1.660708</speed><course>325.867676</course><hAcc>0.877378</hAcc><vAcc>0.679939</vAcc></extensions></trkpt>
      <trkpt lon="-4.133290" lat="53.022854"><ele>172.527115</ele><time>2021-07-17T14:31:00Z</time><extensions><speed>1.650158</speed><course>319.975250</course><hAcc>0.877486</hAcc><vAcc>0.680284</vAcc></extensions></trkpt>
      <trkpt lon="-4.133284" lat="53.022840"><ele>172.445923</ele><time>2021-07-17T14:31:00Z</time><extensions><speed>1.641290</speed><course>320.826599</course><hAcc>0.877591</hAcc><vAcc>0.680573</vAcc></extensions></trkpt>
      <trkpt lon="-4.133278" lat="53.022826"><ele>172.364014</ele><time>2021-07-17T14:31:01Z</time><extensions><speed>1.633619</speed><course>320.826599</course><hAcc>0.877696</hAcc><vAcc>0.680821</vAcc></extensions></trkpt>
      <trkpt lon="-4.133272" lat="53.022811"><ele>172.281021</ele><time>2021-07-17T14:31:02Z</time><extensions><speed>1.626350</speed><course>320.826599</course><hAcc>0.877790</hAcc><vAcc>0.681033</vAcc></extensions></trkpt>
      <trkpt lon="-4.133266" lat="53.022797"><ele>172.197052</ele><time>2021-07-17T14:31:03Z</time><extensions><speed>1.619215</speed><course>320.826599</course><hAcc>0.877877</hAcc><vAcc>0.681230</vAcc></extensions></trkpt>
      <trkpt lon="-4.133260" lat="53.022783"><ele>172.112762</ele><time>2021-07-17T14:31:05Z</time><extensions><speed>1.612210</speed><course>320.826599</course><hAcc>0.877945</hAcc><vAcc>0.681415</vAcc></extensions></trkpt>
      <trkpt lon="-4.133255" lat="53.022769"><ele>172.028809</ele><time>2021-07-17T14:31:06Z</time><extensions><speed>1.605470</speed><course>320.826599</course><hAcc>0.877998</hAcc><vAcc>0.681601</vAcc></extensions></trkpt>
      <trkpt lon="-4.133249" lat="53.022755"><ele>171.944611</ele><time>2021-07-17T14:31:07Z</time><extensions><speed>1.598972</speed><course>320.826599</course><hAcc>0.878056</hAcc><vAcc>0.681806</vAcc></extensions></trkpt>
      <trkpt lon="-4.133244" lat="53.022741"><ele>171.859665</ele><time>2021-07-17T14:31:08Z</time><extensions><speed>1.592249</speed><course>320.826599</course><hAcc>0.878119</hAcc><vAcc>0.682029</vAcc></extensions></trkpt>
      <trkpt lon="-4.133238" lat="53.022727"><ele>171.774887</ele><time>2021-07-17T14:31:08Z</time><extensions><speed>1.584826</speed><course>320.826599</course><hAcc>0.878206</hAcc><vAcc>0.682280</vAcc></extensions></trkpt>
      <trkpt lon="-4.133233" lat="53.022714"><ele>171.691803</ele><time>2021-07-17T14:31:09Z</time><extensions><speed>1.576870</speed><course>320.826599</course><hAcc>0.878317</hAcc><vAcc>0.682560</vAcc></extensions></trkpt>
      <trkpt lon="-4.133227" lat="53.022700"><ele>171.611649</ele><time>2021-07-17T14:31:11Z</time><extensions><speed>1.568968</speed><course>320.826599</course><hAcc>0.878416</hAcc><vAcc>0.682855</vAcc></extensions></trkpt>
      <trkpt lon="-4.133222" lat="53.022686"><ele>171.534790</ele><time>2021-07-17T14:31:12Z</time><extensions><speed>1.561173</speed><course>320.826599</course><hAcc>0.878504</hAcc><vAcc>0.683172</vAcc></extensions></trkpt>
      <trkpt lon="-4.133217" lat="53.022672"><ele>171.460999</ele><time>2021-07-17T14:31:13Z</time><extensions><speed>1.553084</speed><course>320.826599</course><hAcc>0.878596</hAcc><vAcc>0.683520</vAcc></extensions></trkpt>
      <trkpt lon="-4.133212" lat="53.022659"><ele>171.390335</ele><time>2021-07-17T14:31:14Z</time><extensions><speed>1.544467</speed><course>320.826599</course><hAcc>0.878687</hAcc><vAcc>0.683878</vAcc></extensions></trkpt>
      <trkpt lon="-4.133207" lat="53.022645"><ele>171.323425</ele><time>2021-07-17T14:31:15Z</time><extensions><speed>1.535376</speed><course>320.826599</course><hAcc>0.878770</hAcc><vAcc>0.684217</vAcc></extensions></trkpt>
      <trkpt lon="-4.133202" lat="53.022632"><ele>171.261520</ele><time>2021-07-17T14:31:16Z</time><extensions><speed>1.526201</speed><course>320.826599</course><hAcc>0.878838</hAcc><vAcc>0.684501</vAcc></extensions></trkpt>
      <trkpt lon="-4.133197" lat="53.022619"><ele>171.205673</ele><time>2021-07-17T14:31:17Z</time><extensions><speed>1.517668</speed><course>320.826599</course><hAcc>0.878885</hAcc><vAcc>0.684692</vAcc></extensions></trkpt>
      <trkpt lon="-4.133192" lat="53.022605"><ele>171.155823</ele><time>2021-07-17T14:31:18Z</time><extensions><speed>1.510461</speed><course>320.826599</course><hAcc>0.878906</hAcc><vAcc>0.684763</vAcc></extensions></trkpt>
      <trkpt lon="-4.133187" lat="53.022592"><ele>171.111206</ele><time>2021-07-17T14:31:19Z</time><extensions><speed>1.504941</speed><course>320.826599</course><hAcc>0.878899</hAcc><vAcc>0.684711</vAcc></extensions></trkpt>
      <trkpt lon="-4.133183" lat="53.022579"><ele>171.071259</ele><time>2021-07-17T14:31:20Z</time><extensions><speed>1.501212</speed><course>320.826599</course><hAcc>0.878866</hAcc><vAcc>0.684552</vAcc></extensions></trkpt>
      <trkpt lon="-4.133178" lat="53.022566"><ele>171.036102</ele><time>2021-07-17T14:31:21Z</time><extensions><speed>1.499341</speed><course>320.826599</course><hAcc>0.878810</hAcc><vAcc>0.684317</vAcc></extensions></trkpt>
      <trkpt lon="-4.133173" lat="53.022553"><ele>171.006241</ele><time>2021-07-17T14:31:22Z</time><extensions><speed>1.499401</speed><course>320.826569</course><hAcc>0.878736</hAcc><vAcc>0.684043</vAcc></extensions></trkpt>
      <trkpt lon="-4.133168" lat="53.022539"><ele>170.981857</ele><time>2021-07-17T14:31:23Z</time><extensions><speed>1.500817</speed><course>320.826569</course><hAcc>0.878646</hAcc><vAcc>0.683754</vAcc></extensions></trkpt>
      <trkpt lon="-4.133163" lat="53.022526"><ele>170.962997</ele><time>2021-07-17T14:31:24Z</time><extensions><speed>1.502497</speed><course>320.826569</course><hAcc>0.878541</hAcc><vAcc>0.683453</vAcc></extensions></trkpt>
      <trkpt lon="-4.133157" lat="53.022513"><ele>170.949738</ele><time>2021-07-17T14:31:25Z</time><extensions><speed>1.503419</speed><course>320.826569</course><hAcc>0.878417</hAcc><vAcc>0.683116</vAcc></extensions></trkpt>
      <trkpt lon="-4.133151" lat="53.022500"><ele>170.942398</ele><time>2021-07-17T14:31:26Z</time><extensions><speed>1.502665</speed><course>306.179871</course><hAcc>0.878270</hAcc><vAcc>0.682713</vAcc></extensions></trkpt>
      <trkpt lon="-4.133145" lat="53.022487"><ele>170.941422</ele><time>2021-07-17T14:31:27Z</time><extensions><speed>1.499297</speed><course>252.340622</course><hAcc>0.878096</hAcc><vAcc>0.682216</vAcc></extensions></trkpt>
      <trkpt lon="-4.133138" lat="53.022474"><ele>170.946747</ele><time>2021-07-17T14:31:28Z</time><extensions><speed>1.493101</speed><course>240.417450</course><hAcc>0.877893</hAcc><vAcc>0.681606</vAcc></extensions></trkpt>
      <trkpt lon="-4.133131" lat="53.022462"><ele>170.957245</ele><time>2021-07-17T14:31:29Z</time><extensions><speed>1.484632</speed><course>226.735764</course><hAcc>0.877665</hAcc><vAcc>0.680879</vAcc></extensions></trkpt>
      <trkpt lon="-4.133124" lat="53.022449"><ele>170.971680</ele><time>2021-07-17T14:31:30Z</time><extensions><speed>1.473995</speed><course>213.254318</course><hAcc>0.877417</hAcc><vAcc>0.680050</vAcc></extensions></trkpt>
      <trkpt lon="-4.133117" lat="53.022437"><ele>170.989777</ele><time>2021-07-17T14:31:31Z</time><extensions><speed>1.461124</speed><course>209.983795</course><hAcc>0.877159</hAcc><vAcc>0.679158</vAcc></extensions></trkpt>
      <trkpt lon="-4.133110" lat="53.022424"><ele>171.011856</ele><time>2021-07-17T14:31:32Z</time><extensions><speed>1.446639</speed><course>212.464371</course><hAcc>0.876906</hAcc><vAcc>0.678255</vAcc></extensions></trkpt>
      <trkpt lon="-4.133102" lat="53.022412"><ele>171.037781</ele><time>2021-07-17T14:31:33Z</time><extensions><speed>1.431538</speed><course>212.464355</course><hAcc>0.876676</hAcc><vAcc>0.677406</vAcc></extensions></trkpt>
      <trkpt lon="-4.133095" lat="53.022400"><ele>171.066879</ele><time>2021-07-17T14:31:34Z</time><extensions><speed>1.415766</speed><course>212.464355</course><hAcc>0.876486</hAcc><vAcc>0.676686</vAcc></extensions></trkpt>
      <trkpt lon="-4.133088" lat="53.022388"><ele>171.098511</ele><time>2021-07-17T14:31:35Z</time><extensions><speed>1.398748</speed><course>212.464340</course><hAcc>0.876354</hAcc><vAcc>0.676165</vAcc></extensions></trkpt>
      <trkpt lon="-4.133081" lat="53.022376"><ele>171.132416</ele><time>2021-07-17T14:31:36Z</time><extensions><speed>1.379927</speed><course>212.464325</course><hAcc>0.876297</hAcc><vAcc>0.675908</vAcc></extensions></trkpt>
      <trkpt lon="-4.133075" lat="53.022365"><ele>171.168793</ele><time>2021-07-17T14:31:37Z</time><extensions><speed>1.358423</speed><course>212.464325</course><hAcc>0.876326</hAcc><vAcc>0.675962</vAcc></extensions></trkpt>
      <trkpt lon="-4.133069" lat="53.022353"><ele>171.207748</ele><time>2021-07-17T14:31:38Z</time><extensions><speed>1.334087</speed><course>212.464325</course><hAcc>0.876445</hAcc><vAcc>0.676359</vAcc></extensions></trkpt>
      <trkpt lon="-4.133063" lat="53.022342"><ele>171.248566</ele><time>2021-07-17T14:31:39Z</time><extensions><speed>1.307266</speed><course>212.464310</course><hAcc>0.876655</hAcc><vAcc>0.677100</vAcc></extensions></trkpt>
      <trkpt lon="-4.133058" lat="53.022331"><ele>171.290421</ele><time>2021-07-17T14:31:40Z</time><extensions><speed>1.278396</speed><course>305.064514</course><hAcc>0.876944</hAcc><vAcc>0.678154</vAcc></extensions></trkpt>
      <trkpt lon="-4.133053" lat="53.022320"><ele>171.332886</ele><time>2021-07-17T14:31:41Z</time><extensions><speed>1.248083</speed><course>295.507660</course><hAcc>0.877296</hAcc><vAcc>0.679455</vAcc></extensions></trkpt>
      <trkpt lon="-4.133049" lat="53.022309"><ele>171.375427</ele><time>2021-07-17T14:31:42Z</time><extensions><speed>1.216386</speed><course>292.618195</course><hAcc>0.877687</hAcc><vAcc>0.680911</vAcc></extensions></trkpt>
      <trkpt lon="-4.133046" lat="53.022298"><ele>171.417542</ele><time>2021-07-17T14:31:43Z</time><extensions><speed>1.182163</speed><course>285.374146</course><hAcc>0.878089</hAcc><vAcc>0.682404</vAcc></extensions></trkpt>
      <trkpt lon="-4.133042" lat="53.022288"><ele>171.458755</ele><time>2021-07-17T14:31:44Z</time><extensions><speed>1.144950</speed><course>282.990997</course><hAcc>0.878473</hAcc><vAcc>0.683804</vAcc></extensions></trkpt>
      <trkpt lon="-4.133039" lat="53.022278"><ele>171.498367</ele><time>2021-07-17T14:31:45Z</time><extensions><speed>1.105895</speed><course>269.408752</course><hAcc>0.878811</hAcc><vAcc>0.685000</vAcc></extensions></trkpt>
      <trkpt lon="-4.133036" lat="53.022269"><ele>171.535309</ele><time>2021-07-17T14:31:46Z</time><extensions><speed>1.066844</speed><course>268.581787</course><hAcc>0.879085</hAcc><vAcc>0.685912</vAcc></extensions></trkpt>
      <trkpt lon="-4.133033" lat="53.022259"><ele>171.568253</ele><time>2021-07-17T14:31:47Z</time><extensions><speed>1.029855</speed><course>262.171875</course><hAcc>0.879280</hAcc><vAcc>0.686505</vAcc></extensions></trkpt>
      <trkpt lon="-4.133030" lat="53.022250"><ele>171.595596</ele><time>2021-07-17T14:31:48Z</time><extensions><speed>0.996577</speed><course>261.539520</course><hAcc>0.879393</hAcc><vAcc>0.686782</vAcc></extensions></trkpt>
      <trkpt lon="-4.133027" lat="53.022242"><ele>171.615692</ele><time>2021-07-17T14:31:49Z</time><extensions><speed>0.968525</speed><course>255.803879</course><hAcc>0.879425</hAcc><vAcc>0.686767</vAcc></extensions></trkpt>
      <trkpt lon="-4.133023" lat="53.022234"><ele>171.626633</ele><time>2021-07-17T14:31:50Z</time><extensions><speed>0.947041</speed><course>247.733398</course><hAcc>0.879383</hAcc><vAcc>0.686499</vAcc></extensions></trkpt>
      <trkpt lon="-4.133019" lat="53.022225"><ele>171.626541</ele><time>2021-07-17T14:31:51Z</time><extensions><speed>0.932671</speed><course>231.932861</course><hAcc>0.879276</hAcc><vAcc>0.686019</vAcc></extensions></trkpt>
      <trkpt lon="-4.133014" lat="53.022218"><ele>171.613693</ele><time>2021-07-17T14:31:52Z</time><extensions><speed>0.925179</speed><course>232.043365</course><hAcc>0.879117</hAcc><vAcc>0.685379</vAcc></extensions></trkpt>
      <trkpt lon="-4.133009" lat="53.022210"><ele>171.586868</ele><time>2021-07-17T14:31:53Z</time><extensions><speed>0.923725</speed><course>225.182800</course><hAcc>0.878919</hAcc><vAcc>0.684633</vAcc></extensions></trkpt>
      <trkpt lon="-4.133004" lat="53.022202"><ele>171.545303</ele><time>2021-07-17T14:31:54Z</time><extensions><speed>0.927120</speed><course>222.937302</course><hAcc>0.878695</hAcc><vAcc>0.683834</vAcc></extensions></trkpt>
      <trkpt lon="-4.132998" lat="53.022195"><ele>171.488907</ele><time>2021-07-17T14:31:55Z</time><extensions><speed>0.934040</speed><course>226.615036</course><hAcc>0.878454</hAcc><vAcc>0.683024</vAcc></extensions></trkpt>
      <trkpt lon="-4.132992" lat="53.022187"><ele>171.418396</ele><time>2021-07-17T14:31:56Z</time><extensions><speed>0.942974</speed><course>227.377960</course><hAcc>0.878201</hAcc><vAcc>0.682229</vAcc></extensions></trkpt>
      <trkpt lon="-4.132986" lat="53.022179"><ele>171.334915</ele><time>2021-07-17T14:31:57Z</time><extensions><speed>0.952992</speed><course>225.027542</course><hAcc>0.877935</hAcc><vAcc>0.681452</vAcc></extensions></trkpt>
      <trkpt lon="-4.132979" lat="53.022172"><ele>171.239288</ele><time>2021-07-17T14:31:58Z</time><extensions><speed>0.963565</speed><course>217.523773</course><hAcc>0.877653</hAcc><vAcc>0.680671</vAcc></extensions></trkpt>
      <trkpt lon="-4.132973" lat="53.022164"><ele>171.132355</ele><time>2021-07-17T14:31:59Z</time><extensions><speed>0.973811</speed><course>217.503448</course><hAcc>0.877344</hAcc><vAcc>0.679836</vAcc></extensions></trkpt>
      <trkpt lon="-4.132966" lat="53.022156"><ele>171.015396</ele><time>2021-07-17T14:32:00Z</time><extensions><speed>0.983335</speed><course>222.947372</course><hAcc>0.876993</hAcc><vAcc>0.678876</vAcc></extensions></trkpt>
      <trkpt lon="-4.132960" lat="53.022148"><ele>170.889847</ele><time>2021-07-17T14:32:01Z</time><extensions><speed>0.992835</speed><course>228.737518</course><hAcc>0.876591</hAcc><vAcc>0.677720</vAcc></extensions></trkpt>
      <trkpt lon="-4.132954" lat="53.022140"><ele>170.756622</ele><time>2021-07-17T14:32:02Z</time><extensions><speed>1.003340</speed><course>234.887939</course><hAcc>0.876129</hAcc><vAcc>0.676330</vAcc></extensions></trkpt>
      <trkpt lon="-4.132948" lat="53.022131"><ele>170.616440</ele><time>2021-07-17T14:32:03Z</time><extensions><speed>1.015323</speed><course>232.671463</course><hAcc>0.875611</hAcc><vAcc>0.674698</vAcc></extensions></trkpt>
      <trkpt lon="-4.132942" lat="53.022123"><ele>170.470551</ele><time>2021-07-17T14:32:04Z</time><extensions><speed>1.028418</speed><course>228.680756</course><hAcc>0.875049</hAcc><vAcc>0.672847</vAcc></extensions></trkpt>
      <trkpt lon="-4.132936" lat="53.022114"><ele>170.321030</ele><time>2021-07-17T14:32:05Z</time><extensions><speed>1.041808</speed><course>228.367065</course><hAcc>0.874462</hAcc><vAcc>0.670818</vAcc></extensions></trkpt>
      <trkpt lon="-4.132931" lat="53.022106"><ele>170.170120</ele><time>2021-07-17T14:32:06Z</time><extensions><speed>1.055302</speed><course>227.760208</course><hAcc>0.873884</hAcc><vAcc>0.668665</vAcc></extensions></trkpt>
      <trkpt lon="-4.132925" lat="53.022097"><ele>170.019211</ele><time>2021-07-17T14:32:07Z</time><extensions><speed>1.069230</speed><course>230.377014</course><hAcc>0.873355</hAcc><vAcc>0.666451</vAcc></extensions></trkpt>
      <trkpt lon="-4.132920" lat="53.022088"><ele>169.869247</ele><time>2021-07-17T14:32:08Z</time><extensions><speed>1.083974</speed><course>236.559235</course><hAcc>0.872931</hAcc><vAcc>0.664254</vAcc></extensions></trkpt>
      <trkpt lon="-4.132914" lat="53.022078"><ele>169.721283</ele><time>2021-07-17T14:32:09Z</time><extensions><speed>1.100357</speed><course>232.877869</course><hAcc>0.872672</hAcc><vAcc>0.662151</vAcc></extensions></trkpt>
      <trkpt lon="-4.132908" lat="53.022069"><ele>169.576843</ele><time>2021-07-17T14:32:10Z</time><extensions><speed>1.119014</speed><course>233.901962</course><hAcc>0.872646</hAcc><vAcc>0.660215</vAcc></extensions></trkpt>
      <trkpt lon="-4.132902" lat="53.022060"><ele>169.437210</ele><time>2021-07-17T14:32:11Z</time><extensions><speed>1.140116</speed><course>234.840546</course><hAcc>0.872918</hAcc><vAcc>0.658501</vAcc></extensions></trkpt>
      <trkpt lon="-4.132896" lat="53.022050"><ele>169.302063</ele><time>2021-07-17T14:32:12Z</time><extensions><speed>1.163184</speed><course>231.563858</course><hAcc>0.873539</hAcc><vAcc>0.657030</vAcc></extensions></trkpt>
      <trkpt lon="-4.132890" lat="53.022040"><ele>169.169754</ele><time>2021-07-17T14:32:13Z</time><extensions><speed>1.186977</speed><course>226.163422</course><hAcc>0.874534</hAcc><vAcc>0.655780</vAcc></extensions></trkpt>
      <trkpt lon="-4.132883" lat="53.022030"><ele>169.038467</ele><time>2021-07-17T14:32:14Z</time><extensions><speed>1.210582</speed><course>224.694687</course><hAcc>0.875889</hAcc><vAcc>0.654696</vAcc></extensions></trkpt>
      <trkpt lon="-4.132877" lat="53.022020"><ele>168.907028</ele><time>2021-07-17T14:32:15Z</time><extensions><speed>1.233523</speed><course>227.400024</course><hAcc>0.877542</hAcc><vAcc>0.653713</vAcc></extensions></trkpt>
      <trkpt lon="-4.132870" lat="53.022009"><ele>168.775726</ele><time>2021-07-17T14:32:16Z</time><extensions><speed>1.255492</speed><course>225.215622</course><hAcc>0.879378</hAcc><vAcc>0.652772</vAcc></extensions></trkpt>
      <trkpt lon="-4.132863" lat="53.021999"><ele>168.645767</ele><time>2021-07-17T14:32:17Z</time><extensions><speed>1.276681</speed><course>227.979385</course><hAcc>0.881236</hAcc><vAcc>0.651836</vAcc></extensions></trkpt>
      <trkpt lon="-4.132856" lat="53.021988"><ele>168.517654</ele><time>2021-07-17T14:32:18Z</time><extensions><speed>1.297332</speed><course>238.133682</course><hAcc>0.882929</hAcc><vAcc>0.650895</vAcc></extensions></trkpt>
      <trkpt lon="-4.132849" lat="53.021977"><ele>168.391068</ele><time>2021-07-17T14:32:19Z</time><extensions><speed>1.316941</speed><course>235.678314</course><hAcc>0.884266</hAcc><vAcc>0.649963</vAcc></extensions></trkpt>
      <trkpt lon="-4.132841" lat="53.021966"><ele>168.265640</ele><time>2021-07-17T14:32:20Z</time><extensions><speed>1.334167</speed><course>238.960709</course><hAcc>0.885085</hAcc><vAcc>0.649066</vAcc></extensions></trkpt>
      <trkpt lon="-4.132833" lat="53.021955"><ele>168.141190</ele><time>2021-07-17T14:32:21Z</time><extensions><speed>1.348045</speed><course>237.793289</course><hAcc>0.885277</hAcc><vAcc>0.648233</vAcc></extensions></trkpt>
      <trkpt lon="-4.132825" lat="53.021944"><ele>168.017700</ele><time>2021-07-17T14:32:22Z</time><extensions><speed>1.359072</speed><course>238.209671</course><hAcc>0.884809</hAcc><vAcc>0.647479</vAcc></extensions></trkpt>
      <trkpt lon="-4.132817" lat="53.021933"><ele>167.894684</ele><time>2021-07-17T14:32:23Z</time><extensions><speed>1.367894</speed><course>239.435074</course><hAcc>0.883724</hAcc><vAcc>0.646802</vAcc></extensions></trkpt>
      <trkpt lon="-4.132808" lat="53.021921"><ele>167.770660</ele><time>2021-07-17T14:32:24Z</time><extensions><speed>1.374524</speed><course>238.666733</course><hAcc>0.882121</hAcc><vAcc>0.646180</vAcc></extensions></trkpt>
      <trkpt lon="-4.132800" lat="53.021910"><ele>167.644180</ele><time>2021-07-17T14:32:25Z</time><extensions><speed>1.379009</speed><course>234.077820</course><hAcc>0.880134</hAcc><vAcc>0.645583</vAcc></extensions></trkpt>
      <trkpt lon="-4.132790" lat="53.021899"><ele>167.514694</ele><time>2021-07-17T14:32:26Z</time><extensions><speed>1.381505</speed><course>227.293335</course><hAcc>0.877923</hAcc><vAcc>0.644985</vAcc></extensions></trkpt>
      <trkpt lon="-4.132781" lat="53.021888"><ele>167.382248</ele><time>2021-07-17T14:32:27Z</time><extensions><speed>1.382455</speed><course>230.072769</course><hAcc>0.875651</hAcc><vAcc>0.644360</vAcc></extensions></trkpt>
      <trkpt lon="-4.132772" lat="53.021877"><ele>167.247025</ele><time>2021-07-17T14:32:28Z</time><extensions><speed>1.382633</speed><course>228.397232</course><hAcc>0.873460</hAcc><vAcc>0.643696</vAcc></extensions></trkpt>
      <trkpt lon="-4.132762" lat="53.021866"><ele>167.109314</ele><time>2021-07-17T14:32:29Z</time><extensions><speed>1.382812</speed><course>230.234772</course><hAcc>0.871463</hAcc><vAcc>0.642991</vAcc></extensions></trkpt>
      <trkpt lon="-4.132752" lat="53.021855"><ele>166.969772</ele><time>2021-07-17T14:32:30Z</time><extensions><speed>1.383457</speed><course>226.599274</course><hAcc>0.869740</hAcc><vAcc>0.642262</vAcc></extensions></trkpt>
      <trkpt lon="-4.132742" lat="53.021844"><ele>166.829132</ele><time>2021-07-17T14:32:31Z</time><extensions><speed>1.384627</speed><course>226.515137</course><hAcc>0.868329</hAcc><vAcc>0.641534</vAcc></extensions></trkpt>
      <trkpt lon="-4.132732" lat="53.021833"><ele>166.687393</ele><time>2021-07-17T14:32:32Z</time><extensions><speed>1.386256</speed><course>226.136917</course><hAcc>0.867232</hAcc><vAcc>0.640845</vAcc></extensions></trkpt>
      <trkpt lon="-4.132722" lat="53.021823"><ele>166.544128</ele><time>2021-07-17T14:32:33Z</time><extensions><speed>1.388389</speed><course>230.381958</course><hAcc>0.866428</hAcc><vAcc>0.640241</vAcc></extensions></trkpt>
      <trkpt lon="-4.132712" lat="53.021812"><ele>166.399582</ele><time>2021-07-17T14:32:34Z</time><extensions><speed>1.391200</speed><course>226.727509</course><hAcc>0.865882</hAcc><vAcc>0.639761</vAcc></extensions></trkpt>
      <trkpt lon="-4.132702" lat="53.021801"><ele>166.255127</ele><time>2021-07-17T14:32:35Z</time><extensions><speed>1.395364</speed><course>230.180862</course><hAcc>0.865552</hAcc><vAcc>0.639429</vAcc></extensions></trkpt>
      <trkpt lon="-4.132692" lat="53.021789"><ele>166.112534</ele><time>2021-07-17T14:32:36Z</time><extensions><speed>1.401660</speed><course>225.214905</course><hAcc>0.865394</hAcc><vAcc>0.639257</vAcc></extensions></trkpt>
      <trkpt lon="-4.132683" lat="53.021778"><ele>165.973038</ele><time>2021-07-17T14:32:37Z</time><extensions><speed>1.410080</speed><course>228.288971</course><hAcc>0.865360</hAcc><vAcc>0.639241</vAcc></extensions></trkpt>
      <trkpt lon="-4.132673" lat="53.021767"><ele>165.837296</ele><time>2021-07-17T14:32:38Z</time><extensions><speed>1.420392</speed><course>234.392639</course><hAcc>0.865402</hAcc><vAcc>0.639358</vAcc></extensions></trkpt>
      <trkpt lon="-4.132663" lat="53.021756"><ele>165.705734</ele><time>2021-07-17T14:32:39Z</time><extensions><speed>1.432485</speed><course>233.208801</course><hAcc>0.865474</hAcc><vAcc>0.639577</vAcc></extensions></trkpt>
      <trkpt lon="-4.132653" lat="53.021744"><ele>165.578781</ele><time>2021-07-17T14:32:40Z</time><extensions><speed>1.445690</speed><course>238.158752</course><hAcc>0.865539</hAcc><vAcc>0.639860</vAcc></extensions></trkpt>
      <trkpt lon="-4.132643" lat="53.021733"><ele>165.457474</ele><time>2021-07-17T14:32:41Z</time><extensions><speed>1.459341</speed><course>239.142517</course><hAcc>0.865578</hAcc><vAcc>0.640177</vAcc></extensions></trkpt>
      <trkpt lon="-4.132632" lat="53.021721"><ele>165.342896</ele><time>2021-07-17T14:32:42Z</time><extensions><speed>1.473094</speed><course>241.003922</course><hAcc>0.865585</hAcc><vAcc>0.640503</vAcc></extensions></trkpt>
      <trkpt lon="-4.132622" lat="53.021709"><ele>165.234909</ele><time>2021-07-17T14:32:43Z</time><extensions><speed>1.486525</speed><course>244.474228</course><hAcc>0.865571</hAcc><vAcc>0.640826</vAcc></extensions></trkpt>
      <trkpt lon="-4.132612" lat="53.021698"><ele>165.132339</ele><time>2021-07-17T14:32:44Z</time><extensions><speed>1.499483</speed><course>238.879150</course><hAcc>0.865553</hAcc><vAcc>0.641156</vAcc></extensions></trkpt>
      <trkpt lon="-4.132601" lat="53.021686"><ele>165.034210</ele><time>2021-07-17T14:32:45Z</time><extensions><speed>1.511727</speed><course>237.538528</course><hAcc>0.865550</hAcc><vAcc>0.641512</vAcc></extensions></trkpt>
      <trkpt lon="-4.132591" lat="53.021674"><ele>164.940613</ele><time>2021-07-17T14:32:46Z</time><extensions><speed>1.522546</speed><course>249.037552</course><hAcc>0.865572</hAcc><vAcc>0.641912</vAcc></extensions></trkpt>
      <trkpt lon="-4.132580" lat="53.021661"><ele>164.851440</ele><time>2021-07-17T14:32:47Z</time><extensions><speed>1.531299</speed><course>259.361603</course><hAcc>0.865627</hAcc><vAcc>0.642365</vAcc></extensions></trkpt>
      <trkpt lon="-4.132569" lat="53.021649"><ele>164.765533</ele><time>2021-07-17T14:32:48Z</time><extensions><speed>1.537211</speed><course>261.193176</course><hAcc>0.865711</hAcc><vAcc>0.642859</vAcc></extensions></trkpt>
      <trkpt lon="-4.132557" lat="53.021637"><ele>164.681473</ele><time>2021-07-17T14:32:49Z</time><extensions><speed>1.539176</speed><course>261.193146</course><hAcc>0.865814</hAcc><vAcc>0.643364</vAcc></extensions></trkpt>
      <trkpt lon="-4.132546" lat="53.021625"><ele>164.598419</ele><time>2021-07-17T14:32:50Z</time><extensions><speed>1.536590</speed><course>261.193146</course><hAcc>0.865924</hAcc><vAcc>0.643840</vAcc></extensions></trkpt>
      <trkpt lon="-4.132534" lat="53.021614"><ele>164.516449</ele><time>2021-07-17T14:32:51Z</time><extensions><speed>1.529076</speed><course>261.193146</course><hAcc>0.866028</hAcc><vAcc>0.644257</vAcc></extensions></trkpt>
      <trkpt lon="-4.132522" lat="53.021602"><ele>164.435791</ele><time>2021-07-17T14:32:52Z</time><extensions><speed>1.516771</speed><course>261.193146</course><hAcc>0.866117</hAcc><vAcc>0.644592</vAcc></extensions></trkpt>
      <trkpt lon="-4.132509" lat="53.021591"><ele>164.355759</ele><time>2021-07-17T14:32:53Z</time><extensions><speed>1.500798</speed><course>261.193146</course><hAcc>0.866183</hAcc><vAcc>0.644833</vAcc></extensions></trkpt>
      <trkpt lon="-4.132497" lat="53.021580"><ele>164.275742</ele><time>2021-07-17T14:32:54Z</time><extensions><speed>1.482446</speed><course>261.193146</course><hAcc>0.866222</hAcc><vAcc>0.644974</vAcc></extensions></trkpt>
      <trkpt lon="-4.132484" lat="53.021569"><ele>164.196365</ele><time>2021-07-17T14:32:55Z</time><extensions><speed>1.462666</speed><course>261.193146</course><hAcc>0.866231</hAcc><vAcc>0.645013</vAcc></extensions></trkpt>
      <trkpt lon="-4.132470" lat="53.021559"><ele>164.119217</ele><time>2021-07-17T14:32:56Z</time><extensions><speed>1.442216</speed><course>261.193146</course><hAcc>0.866206</hAcc><vAcc>0.644942</vAcc></extensions></trkpt>
      <trkpt lon="-4.132457" lat="53.021549"><ele>164.045700</ele><time>2021-07-17T14:32:57Z</time><extensions><speed>1.422032</speed><course>234.852402</course><hAcc>0.866142</hAcc><vAcc>0.644752</vAcc></extensions></trkpt>
      <trkpt lon="-4.132443" lat="53.021539"><ele>163.976273</ele><time>2021-07-17T14:32:58Z</time><extensions><speed>1.402741</speed><course>215.025620</course><hAcc>0.866038</hAcc><vAcc>0.644433</vAcc></extensions></trkpt>
      <trkpt lon="-4.132430" lat="53.021530"><ele>163.911026</ele><time>2021-07-17T14:32:59Z</time><extensions><speed>1.384671</speed><course>206.872131</course><hAcc>0.865889</hAcc><vAcc>0.643975</vAcc></extensions></trkpt>
      <trkpt lon="-4.132416" lat="53.021521"><ele>163.850311</ele><time>2021-07-17T14:33:00Z</time><extensions><speed>1.368260</speed><course>205.862991</course><hAcc>0.865695</hAcc><vAcc>0.643375</vAcc></extensions></trkpt>
      <trkpt lon="-4.132402" lat="53.021512"><ele>163.795090</ele><time>2021-07-17T14:33:01Z</time><extensions><speed>1.353489</speed><course>205.862976</course><hAcc>0.865457</hAcc><vAcc>0.642636</vAcc></extensions></trkpt>
      <trkpt lon="-4.132388" lat="53.021503"><ele>163.746246</ele><time>2021-07-17T14:33:02Z</time><extensions><speed>1.340553</speed><course>234.677673</course><hAcc>0.865177</hAcc><vAcc>0.641767</vAcc></extensions></trkpt>
      <trkpt lon="-4.132374" lat="53.021494"><ele>163.703644</ele><time>2021-07-17T14:33:03Z</time><extensions><speed>1.330207</speed><course>246.321655</course><hAcc>0.864858</hAcc><vAcc>0.640778</vAcc></extensions></trkpt>
      <trkpt lon="-4.132361" lat="53.021486"><ele>163.666718</ele><time>2021-07-17T14:33:04Z</time><extensions><speed>1.322965</speed><course>256.732239</course><hAcc>0.864504</hAcc><vAcc>0.639682</vAcc></extensions></trkpt>
      <trkpt lon="-4.132347" lat="53.021477"><ele>163.635391</ele><time>2021-07-17T14:33:05Z</time><extensions><speed>1.319429</speed><course>257.461731</course><hAcc>0.864119</hAcc><vAcc>0.638493</vAcc></extensions></trkpt>
      <trkpt lon="-4.132334" lat="53.021468"><ele>163.610214</ele><time>2021-07-17T14:33:06Z</time><extensions><speed>1.320204</speed><course>256.219269</course><hAcc>0.863709</hAcc><vAcc>0.637224</vAcc></extensions></trkpt>
      <trkpt lon="-4.132321" lat="53.021460"><ele>163.591705</ele><time>2021-07-17T14:33:06Z</time><extensions><speed>1.325423</speed><course>253.669510</course><hAcc>0.863301</hAcc><vAcc>0.635914</vAcc></extensions></trkpt>
      <trkpt lon="-4.132308" lat="53.021451"><ele>163.579376</ele><time>2021-07-17T14:33:07Z</time><extensions><speed>1.335324</speed><course>253.907227</course><hAcc>0.862908</hAcc><vAcc>0.634600</vAcc></extensions></trkpt>
      <trkpt lon="-4.132295" lat="53.021441"><ele>163.571274</ele><time>2021-07-17T14:33:09Z</time><extensions><speed>1.349752</speed><course>260.189209</course><hAcc>0.862513</hAcc><vAcc>0.633315</vAcc></extensions></trkpt>
      <trkpt lon="-4.132282" lat="53.021432"><ele>163.565125</ele><time>2021-07-17T14:33:10Z</time><extensions><speed>1.367682</speed><course>263.253174</course><hAcc>0.862140</hAcc><vAcc>0.632136</vAcc></extensions></trkpt>
      <trkpt lon="-4.132269" lat="53.021422"><ele>163.559143</ele><time>2021-07-17T14:33:11Z</time><extensions><speed>1.388202</speed><course>264.349060</course><hAcc>0.861834</hAcc><vAcc>0.631165</vAcc></extensions></trkpt>
      <trkpt lon="-4.132256" lat="53.021413"><ele>163.552185</ele><time>2021-07-17T14:33:12Z</time><extensions><speed>1.410271</speed><course>258.002991</course><hAcc>0.861627</hAcc><vAcc>0.630507</vAcc></extensions></trkpt>
      <trkpt lon="-4.132243" lat="53.021402"><ele>163.543579</ele><time>2021-07-17T14:33:13Z</time><extensions><speed>1.432870</speed><course>264.832825</course><hAcc>0.861548</hAcc><vAcc>0.630267</vAcc></extensions></trkpt>
      <trkpt lon="-4.132229" lat="53.021392"><ele>163.531952</ele><time>2021-07-17T14:33:14Z</time><extensions><speed>1.455317</speed><course>262.654938</course><hAcc>0.861622</hAcc><vAcc>0.630532</vAcc></extensions></trkpt>
      <trkpt lon="-4.132216" lat="53.021382"><ele>163.515152</ele><time>2021-07-17T14:33:15Z</time><extensions><speed>1.476134</speed><course>262.654938</course><hAcc>0.861864</hAcc><vAcc>0.631355</vAcc></extensions></trkpt>
      <trkpt lon="-4.132203" lat="53.021371"><ele>163.491440</ele><time>2021-07-17T14:33:16Z</time><extensions><speed>1.492987</speed><course>262.654938</course><hAcc>0.862273</hAcc><vAcc>0.632737</vAcc></extensions></trkpt>
      <trkpt lon="-4.132189" lat="53.021361"><ele>163.460480</ele><time>2021-07-17T14:33:17Z</time><extensions><speed>1.503857</speed><course>262.654938</course><hAcc>0.862830</hAcc><vAcc>0.634614</vAcc></extensions></trkpt>
      <trkpt lon="-4.132175" lat="53.021350"><ele>163.422852</ele><time>2021-07-17T14:33:18Z</time><extensions><speed>1.507893</speed><course>262.654938</course><hAcc>0.863496</hAcc><vAcc>0.636852</vAcc></extensions></trkpt>
      <trkpt lon="-4.132161" lat="53.021339"><ele>163.378677</ele><time>2021-07-17T14:33:18Z</time><extensions><speed>1.505520</speed><course>262.654938</course><hAcc>0.864233</hAcc><vAcc>0.639279</vAcc></extensions></trkpt>
      <trkpt lon="-4.132147" lat="53.021329"><ele>163.327438</ele><time>2021-07-17T14:33:19Z</time><extensions><speed>1.497121</speed><course>262.654938</course><hAcc>0.864986</hAcc><vAcc>0.641705</vAcc></extensions></trkpt>
      <trkpt lon="-4.132133" lat="53.021319"><ele>163.269196</ele><time>2021-07-17T14:33:20Z</time><extensions><speed>1.483401</speed><course>262.654938</course><hAcc>0.865683</hAcc><vAcc>0.643936</vAcc></extensions></trkpt>
      <trkpt lon="-4.132119" lat="53.021308"><ele>163.204926</ele><time>2021-07-17T14:33:21Z</time><extensions><speed>1.465928</speed><course>262.654938</course><hAcc>0.866280</hAcc><vAcc>0.645827</vAcc></extensions></trkpt>
      <trkpt lon="-4.132104" lat="53.021299"><ele>163.136154</ele><time>2021-07-17T14:33:22Z</time><extensions><speed>1.446585</speed><course>262.654938</course><hAcc>0.866746</hAcc><vAcc>0.647274</vAcc></extensions></trkpt>
      <trkpt lon="-4.132090" lat="53.021289"><ele>163.063812</ele><time>2021-07-17T14:33:23Z</time><extensions><speed>1.427181</speed><course>262.654938</course><hAcc>0.867061</hAcc><vAcc>0.648219</vAcc></extensions></trkpt>
      <trkpt lon="-4.132075" lat="53.021280"><ele>162.987595</ele><time>2021-07-17T14:33:24Z</time><extensions><speed>1.409067</speed><course>262.654938</course><hAcc>0.867218</hAcc><vAcc>0.648648</vAcc></extensions></trkpt>
      <trkpt lon="-4.132061" lat="53.021271"><ele>162.907059</ele><time>2021-07-17T14:33:25Z</time><extensions><speed>1.392846</speed><course>262.654938</course><hAcc>0.867223</hAcc><vAcc>0.648583</vAcc></extensions></trkpt>
      <trkpt lon="-4.132046" lat="53.021262"><ele>162.822601</ele><time>2021-07-17T14:33:26Z</time><extensions><speed>1.378747</speed><course>262.654938</course><hAcc>0.867090</hAcc><vAcc>0.648076</vAcc></extensions></trkpt>
      <trkpt lon="-4.132031" lat="53.021254"><ele>162.735397</ele><time>2021-07-17T14:33:27Z</time><extensions><speed>1.367196</speed><course>262.654938</course><hAcc>0.866837</hAcc><vAcc>0.647199</vAcc></extensions></trkpt>
      <trkpt lon="-4.132016" lat="53.021246"><ele>162.646271</ele><time>2021-07-17T14:33:28Z</time><extensions><speed>1.358813</speed><course>262.654938</course><hAcc>0.866488</hAcc><vAcc>0.646030</vAcc></extensions></trkpt>
      <trkpt lon="-4.132001" lat="53.021237"><ele>162.555374</ele><time>2021-07-17T14:33:29Z</time><extensions><speed>1.354141</speed><course>262.654938</course><hAcc>0.866067</hAcc><vAcc>0.644647</vAcc></extensions></trkpt>
      <trkpt lon="-4.131985" lat="53.021230"><ele>162.462814</ele><time>2021-07-17T14:33:30Z</time><extensions><speed>1.353506</speed><course>262.654938</course><hAcc>0.865598</hAcc><vAcc>0.643126</vAcc></extensions></trkpt>
      <trkpt lon="-4.131970" lat="53.021222"><ele>162.369141</ele><time>2021-07-17T14:33:31Z</time><extensions><speed>1.356830</speed><course>262.654938</course><hAcc>0.865100</hAcc><vAcc>0.641530</vAcc></extensions></trkpt>
      <trkpt lon="-4.131954" lat="53.021214"><ele>162.275681</ele><time>2021-07-17T14:33:32Z</time><extensions><speed>1.363591</speed><course>262.654938</course><hAcc>0.864590</hAcc><vAcc>0.639906</vAcc></extensions></trkpt>
      <trkpt lon="-4.131938" lat="53.021206"><ele>162.184219</ele><time>2021-07-17T14:33:33Z</time><extensions><speed>1.373390</speed><course>262.654938</course><hAcc>0.864084</hAcc><vAcc>0.638296</vAcc></extensions></trkpt>
      <trkpt lon="-4.131922" lat="53.021199"><ele>162.095917</ele><time>2021-07-17T14:33:34Z</time><extensions><speed>1.385911</speed><course>262.654938</course><hAcc>0.863598</hAcc><vAcc>0.636745</vAcc></extensions></trkpt>
      <trkpt lon="-4.131905" lat="53.021191"><ele>162.010956</ele><time>2021-07-17T14:33:35Z</time><extensions><speed>1.400762</speed><course>262.654938</course><hAcc>0.863152</hAcc><vAcc>0.635316</vAcc></extensions></trkpt>
      <trkpt lon="-4.131888" lat="53.021184"><ele>161.929504</ele><time>2021-07-17T14:33:36Z</time><extensions><speed>1.417264</speed><course>262.654938</course><hAcc>0.862770</hAcc><vAcc>0.634088</vAcc></extensions></trkpt>
      <trkpt lon="-4.131871" lat="53.021176"><ele>161.852524</ele><time>2021-07-17T14:33:37Z</time><extensions><speed>1.434698</speed><course>262.654938</course><hAcc>0.862477</hAcc><vAcc>0.633144</vAcc></extensions></trkpt>
      <trkpt lon="-4.131853" lat="53.021169"><ele>161.780594</ele><time>2021-07-17T14:33:38Z</time><extensions><speed>1.453305</speed><course>262.654938</course><hAcc>0.862293</hAcc><vAcc>0.632552</vAcc></extensions></trkpt>
      <trkpt lon="-4.131835" lat="53.021162"><ele>161.712570</ele><time>2021-07-17T14:33:39Z</time><extensions><speed>1.473653</speed><course>262.654938</course><hAcc>0.862229</hAcc><vAcc>0.632354</vAcc></extensions></trkpt>
      <trkpt lon="-4.131817" lat="53.021155"><ele>161.646530</ele><time>2021-07-17T14:33:40Z</time><extensions><speed>1.496076</speed><course>262.654938</course><hAcc>0.862287</hAcc><vAcc>0.632554</vAcc></extensions></trkpt>
      <trkpt lon="-4.131797" lat="53.021148"><ele>161.580627</ele><time>2021-07-17T14:33:41Z</time><extensions><speed>1.521021</speed><course>262.654938</course><hAcc>0.862456</hAcc><vAcc>0.633115</vAcc></extensions></trkpt>
      <trkpt lon="-4.131778" lat="53.021141"><ele>161.513443</ele><time>2021-07-17T14:33:42Z</time><extensions><speed>1.548285</speed><course>262.654938</course><hAcc>0.862714</hAcc><vAcc>0.633956</vAcc></extensions></trkpt>
      <trkpt lon="-4.131757" lat="53.021134"><ele>161.443985</ele><time>2021-07-17T14:33:43Z</time><extensions><speed>1.576910</speed><course>262.654938</course><hAcc>0.863030</hAcc><vAcc>0.634977</vAcc></extensions></trkpt>
      <trkpt lon="-4.131736" lat="53.021127"><ele>161.370804</ele><time>2021-07-17T14:33:44Z</time><extensions><speed>1.605410</speed><course>262.654938</course><hAcc>0.863379</hAcc><vAcc>0.636088</vAcc></extensions></trkpt>
      <trkpt lon="-4.131714" lat="53.021121"><ele>161.291977</ele><time>2021-07-17T14:33:45Z</time><extensions><speed>1.631353</speed><course>262.654938</course><hAcc>0.863740</hAcc><vAcc>0.637228</vAcc></extensions></trkpt>
      <trkpt lon="-4.131692" lat="53.021115"><ele>161.206299</ele><time>2021-07-17T14:33:46Z</time><extensions><speed>1.651838</speed><course>262.654938</course><hAcc>0.864102</hAcc><vAcc>0.638360</vAcc></extensions></trkpt>
      <trkpt lon="-4.131670" lat="53.021109"><ele>161.113373</ele><time>2021-07-17T14:33:47Z</time><extensions><speed>1.664704</speed><course>262.654938</course><hAcc>0.864456</hAcc><vAcc>0.639456</vAcc></extensions></trkpt>
      <trkpt lon="-4.131647" lat="53.021103"><ele>161.012543</ele><time>2021-07-17T14:33:48Z</time><extensions><speed>1.669297</speed><course>262.654938</course><hAcc>0.864796</hAcc><vAcc>0.640506</vAcc></extensions></trkpt>
      <trkpt lon="-4.131624" lat="53.021097"><ele>160.902588</ele><time>2021-07-17T14:33:49Z</time><extensions><speed>1.665976</speed><course>262.654938</course><hAcc>0.865122</hAcc><vAcc>0.641511</vAcc></extensions></trkpt>
      <trkpt lon="-4.131601" lat="53.021091"><ele>160.782547</ele><time>2021-07-17T14:33:50Z</time><extensions><speed>1.656481</speed><course>262.654938</course><hAcc>0.865433</hAcc><vAcc>0.642473</vAcc></extensions></trkpt>
      <trkpt lon="-4.131578" lat="53.021086"><ele>160.652176</ele><time>2021-07-17T14:33:51Z</time><extensions><speed>1.643671</speed><course>262.654938</course><hAcc>0.865729</hAcc><vAcc>0.643391</vAcc></extensions></trkpt>
      <trkpt lon="-4.131555" lat="53.021080"><ele>160.511917</ele><time>2021-07-17T14:33:52Z</time><extensions><speed>1.629997</speed><course>262.654938</course><hAcc>0.866006</hAcc><vAcc>0.644249</vAcc></extensions></trkpt>
      <trkpt lon="-4.131533" lat="53.021075"><ele>160.362335</ele><time>2021-07-17T14:33:53Z</time><extensions><speed>1.617090</speed><course>262.654938</course><hAcc>0.866259</hAcc><vAcc>0.645024</vAcc></extensions></trkpt>
      <trkpt lon="-4.131510" lat="53.021070"><ele>160.203110</ele><time>2021-07-17T14:33:54Z</time><extensions><speed>1.606097</speed><course>262.654938</course><hAcc>0.866483</hAcc><vAcc>0.645691</vAcc></extensions></trkpt>
      <trkpt lon="-4.131488" lat="53.021066"><ele>160.033386</ele><time>2021-07-17T14:33:56Z</time><extensions><speed>1.597972</speed><course>262.654938</course><hAcc>0.866656</hAcc><vAcc>0.646227</vAcc></extensions></trkpt>
      <trkpt lon="-4.131465" lat="53.021061"><ele>159.853485</ele><time>2021-07-17T14:33:57Z</time><extensions><speed>1.592835</speed><course>262.654938</course><hAcc>0.866781</hAcc><vAcc>0.646634</vAcc></extensions></trkpt>
      <trkpt lon="-4.131442" lat="53.021057"><ele>159.664383</ele><time>2021-07-17T14:33:58Z</time><extensions><speed>1.589572</speed><course>262.654938</course><hAcc>0.866879</hAcc><vAcc>0.646942</vAcc></extensions></trkpt>
      <trkpt lon="-4.131420" lat="53.021053"><ele>159.468277</ele><time>2021-07-17T14:33:59Z</time><extensions><speed>1.587338</speed><course>262.654938</course><hAcc>0.866958</hAcc><vAcc>0.647176</vAcc></extensions></trkpt>
      <trkpt lon="-4.131397" lat="53.021050"><ele>159.267441</ele><time>2021-07-17T14:34:00Z</time><extensions><speed>1.585382</speed><course>262.654938</course><hAcc>0.867027</hAcc><vAcc>0.647374</vAcc></extensions></trkpt>
      <trkpt lon="-4.131374" lat="53.021046"><ele>159.063446</ele><time>2021-07-17T14:34:01Z</time><extensions><speed>1.582556</speed><course>262.654938</course><hAcc>0.867096</hAcc><vAcc>0.647576</vAcc></extensions></trkpt>
      <trkpt lon="-4.131351" lat="53.021043"><ele>158.857712</ele><time>2021-07-17T14:34:02Z</time><extensions><speed>1.578035</speed><course>262.654938</course><hAcc>0.867175</hAcc><vAcc>0.647815</vAcc></extensions></trkpt>
      <trkpt lon="-4.131328" lat="53.021040"><ele>158.651794</ele><time>2021-07-17T14:34:03Z</time><extensions><speed>1.571188</speed><course>262.654938</course><hAcc>0.867267</hAcc><vAcc>0.648109</vAcc></extensions></trkpt>
      <trkpt lon="-4.131305" lat="53.021037"><ele>158.447586</ele><time>2021-07-17T14:34:04Z</time><extensions><speed>1.561701</speed><course>262.654938</course><hAcc>0.867372</hAcc><vAcc>0.648457</vAcc></extensions></trkpt>
      <trkpt lon="-4.131282" lat="53.021034"><ele>158.246964</ele><time>2021-07-17T14:34:05Z</time><extensions><speed>1.550170</speed><course>262.654938</course><hAcc>0.867487</hAcc><vAcc>0.648839</vAcc></extensions></trkpt>
      <trkpt lon="-4.131260" lat="53.021031"><ele>158.050720</ele><time>2021-07-17T14:34:06Z</time><extensions><speed>1.537632</speed><course>262.654938</course><hAcc>0.867604</hAcc><vAcc>0.649227</vAcc></extensions></trkpt>
      <trkpt lon="-4.131238" lat="53.021028"><ele>157.859573</ele><time>2021-07-17T14:34:07Z</time><extensions><speed>1.524654</speed><course>262.654938</course><hAcc>0.867716</hAcc><vAcc>0.649592</vAcc></extensions></trkpt>
      <trkpt lon="-4.131216" lat="53.021025"><ele>157.675186</ele><time>2021-07-17T14:34:08Z</time><extensions><speed>1.511711</speed><course>262.654938</course><hAcc>0.867818</hAcc><vAcc>0.649918</vAcc></extensions></trkpt>
      <trkpt lon="-4.131194" lat="53.021022"><ele>157.499451</ele><time>2021-07-17T14:34:09Z</time><extensions><speed>1.499232</speed><course>262.654938</course><hAcc>0.867909</hAcc><vAcc>0.650201</vAcc></extensions></trkpt>
      <trkpt lon="-4.131172" lat="53.021020"><ele>157.333649</ele><time>2021-07-17T14:34:10Z</time><extensions><speed>1.487227</speed><course>262.654938</course><hAcc>0.867990</hAcc><vAcc>0.650451</vAcc></extensions></trkpt>
      <trkpt lon="-4.131150" lat="53.021017"><ele>157.179108</ele><time>2021-07-17T14:34:11Z</time><extensions><speed>1.476058</speed><course>209.646423</course><hAcc>0.868061</hAcc><vAcc>0.650674</vAcc></extensions></trkpt>
      <trkpt lon="-4.131129" lat="53.021013"><ele>157.037567</ele><time>2021-07-17T14:34:12Z</time><extensions><speed>1.466242</speed><course>207.502853</course><hAcc>0.868122</hAcc><vAcc>0.650874</vAcc></extensions></trkpt>
      <trkpt lon="-4.131108" lat="53.021010"><ele>156.911087</ele><time>2021-07-17T14:34:13Z</time><extensions><speed>1.457407</speed><course>210.649872</course><hAcc>0.868170</hAcc><vAcc>0.651039</vAcc></extensions></trkpt>
      <trkpt lon="-4.131087" lat="53.021007"><ele>156.800934</ele><time>2021-07-17T14:34:14Z</time><extensions><speed>1.448198</speed><course>218.307190</course><hAcc>0.868200</hAcc><vAcc>0.651147</vAcc></extensions></trkpt>
      <trkpt lon="-4.131066" lat="53.021004"><ele>156.706818</ele><time>2021-07-17T14:34:15Z</time><extensions><speed>1.436914</speed><course>221.774033</course><hAcc>0.868203</hAcc><vAcc>0.651171</vAcc></extensions></trkpt>
      <trkpt lon="-4.131045" lat="53.021001"><ele>156.628418</ele><time>2021-07-17T14:34:16Z</time><extensions><speed>1.422214</speed><course>225.071381</course><hAcc>0.868172</hAcc><vAcc>0.651084</vAcc></extensions></trkpt>
      <trkpt lon="-4.131025" lat="53.020997"><ele>156.566711</ele><time>2021-07-17T14:34:17Z</time><extensions><speed>1.403552</speed><course>229.682953</course><hAcc>0.868102</hAcc><vAcc>0.650865</vAcc></extensions></trkpt>
      <trkpt lon="-4.131005" lat="53.020994"><ele>156.522812</ele><time>2021-07-17T14:34:18Z</time><extensions><speed>1.381678</speed><course>228.187271</course><hAcc>0.867990</hAcc><vAcc>0.650507</vAcc></extensions></trkpt>
      <trkpt lon="-4.130986" lat="53.020990"><ele>156.496841</ele><time>2021-07-17T14:34:19Z</time><extensions><speed>1.358306</speed><course>224.821243</course><hAcc>0.867832</hAcc><vAcc>0.650011</vAcc></extensions></trkpt>
      <trkpt lon="-4.130967" lat="53.020987"><ele>156.488403</ele><time>2021-07-17T14:34:20Z</time><extensions><speed>1.335155</speed><course>222.757462</course><hAcc>0.867629</hAcc><vAcc>0.649384</vAcc></extensions></trkpt>
      <trkpt lon="-4.130948" lat="53.020983"><ele>156.497086</ele><time>2021-07-17T14:34:21Z</time><extensions><speed>1.312931</speed><course>223.047150</course><hAcc>0.867375</hAcc><vAcc>0.648623</vAcc></extensions></trkpt>
      <trkpt lon="-4.130930" lat="53.020979"><ele>156.522202</ele><time>2021-07-17T14:34:22Z</time><extensions><speed>1.291387</speed><course>218.695862</course><hAcc>0.867064</hAcc><vAcc>0.647707</vAcc></extensions></trkpt>
      <trkpt lon="-4.130912" lat="53.020975"><ele>156.562378</ele><time>2021-07-17T14:34:23Z</time><extensions><speed>1.271067</speed><course>216.351273</course><hAcc>0.866678</hAcc><vAcc>0.646587</vAcc></extensions></trkpt>
      <trkpt lon="-4.130894" lat="53.020971"><ele>156.614899</ele><time>2021-07-17T14:34:24Z</time><extensions><speed>1.253492</speed><course>219.658188</course><hAcc>0.866201</hAcc><vAcc>0.645193</vAcc></extensions></trkpt>
      <trkpt lon="-4.130877" lat="53.020966"><ele>156.675354</ele><time>2021-07-17T14:34:25Z</time><extensions><speed>1.240091</speed><course>221.748871</course><hAcc>0.865612</hAcc><vAcc>0.643444</vAcc></extensions></trkpt>
      <trkpt lon="-4.130860" lat="53.020962"><ele>156.738693</ele><time>2021-07-17T14:34:26Z</time><extensions><speed>1.231193</speed><course>225.723022</course><hAcc>0.864895</hAcc><vAcc>0.641262</vAcc></extensions></trkpt>
      <trkpt lon="-4.130844" lat="53.020957"><ele>156.800522</ele><time>2021-07-17T14:34:27Z</time><extensions><speed>1.226219</speed><course>227.303833</course><hAcc>0.864044</hAcc><vAcc>0.638584</vAcc></extensions></trkpt>
      <trkpt lon="-4.130827" lat="53.020952"><ele>156.857864</ele><time>2021-07-17T14:34:28Z</time><extensions><speed>1.224979</speed><course>225.742310</course><hAcc>0.863065</hAcc><vAcc>0.635380</vAcc></extensions></trkpt>
      <trkpt lon="-4.130811" lat="53.020947"><ele>156.909454</ele><time>2021-07-17T14:34:29Z</time><extensions><speed>1.227187</speed><course>225.742310</course><hAcc>0.861979</hAcc><vAcc>0.631655</vAcc></extensions></trkpt>
      <trkpt lon="-4.130795" lat="53.020942"><ele>156.955536</ele><time>2021-07-17T14:34:30Z</time><extensions><speed>1.232062</speed><course>225.742325</course><hAcc>0.860829</hAcc><vAcc>0.627462</vAcc></extensions></trkpt>
      <trkpt lon="-4.130779" lat="53.020936"><ele>156.997528</ele><time>2021-07-17T14:34:31Z</time><extensions><speed>1.238879</speed><course>225.742325</course><hAcc>0.859674</hAcc><vAcc>0.622907</vAcc></extensions></trkpt>
      <trkpt lon="-4.130764" lat="53.020930"><ele>157.037201</ele><time>2021-07-17T14:34:32Z</time><extensions><speed>1.247167</speed><course>225.742325</course><hAcc>0.858596</hAcc><vAcc>0.618159</vAcc></extensions></trkpt>
      <trkpt lon="-4.130748" lat="53.020924"><ele>157.075241</ele><time>2021-07-17T14:34:33Z</time><extensions><speed>1.256594</speed><course>224.360504</course><hAcc>0.857689</hAcc><vAcc>0.613442</vAcc></extensions></trkpt>
      <trkpt lon="-4.130732" lat="53.020918"><ele>157.110947</ele><time>2021-07-17T14:34:34Z</time><extensions><speed>1.266906</speed><course>231.374908</course><hAcc>0.857047</hAcc><vAcc>0.609009</vAcc></extensions></trkpt>
      <trkpt lon="-4.130716" lat="53.020912"><ele>157.143738</ele><time>2021-07-17T14:34:35Z</time><extensions><speed>1.278041</speed><course>226.234039</course><hAcc>0.856750</hAcc><vAcc>0.605116</vAcc></extensions></trkpt>
      <trkpt lon="-4.130701" lat="53.020905"><ele>157.174026</ele><time>2021-07-17T14:34:36Z</time><extensions><speed>1.290055</speed><course>228.443588</course><hAcc>0.856843</hAcc><vAcc>0.601984</vAcc></extensions></trkpt>
      <trkpt lon="-4.130685" lat="53.020898"><ele>157.201920</ele><time>2021-07-17T14:34:37Z</time><extensions><speed>1.303085</speed><course>217.150848</course><hAcc>0.857323</hAcc><vAcc>0.599763</vAcc></extensions></trkpt>
      <trkpt lon="-4.130669" lat="53.020891"><ele>157.226715</ele><time>2021-07-17T14:34:38Z</time><extensions><speed>1.317164</speed><course>214.670395</course><hAcc>0.858135</hAcc><vAcc>0.598510</vAcc></extensions></trkpt>
      <trkpt lon="-4.130653" lat="53.020884"><ele>157.247620</ele><time>2021-07-17T14:34:39Z</time><extensions><speed>1.332708</speed><course>219.066208</course><hAcc>0.859194</hAcc><vAcc>0.598212</vAcc></extensions></trkpt>
      <trkpt lon="-4.130637" lat="53.020877"><ele>157.263977</ele><time>2021-07-17T14:34:40Z</time><extensions><speed>1.349941</speed><course>218.042282</course><hAcc>0.860420</hAcc><vAcc>0.598822</vAcc></extensions></trkpt>
      <trkpt lon="-4.130621" lat="53.020870"><ele>157.275177</ele><time>2021-07-17T14:34:41Z</time><extensions><speed>1.367998</speed><course>220.994385</course><hAcc>0.861763</hAcc><vAcc>0.600286</vAcc></extensions></trkpt>
      <trkpt lon="-4.130605" lat="53.020862"><ele>157.280106</ele><time>2021-07-17T14:34:42Z</time><extensions><speed>1.386480</speed><course>227.746307</course><hAcc>0.863199</hAcc><vAcc>0.602549</vAcc></extensions></trkpt>
      <trkpt lon="-4.130588" lat="53.020854"><ele>157.276428</ele><time>2021-07-17T14:34:43Z</time><extensions><speed>1.405775</speed><course>224.855316</course><hAcc>0.864720</hAcc><vAcc>0.605556</vAcc></extensions></trkpt>
      <trkpt lon="-4.130572" lat="53.020847"><ele>157.261597</ele><time>2021-07-17T14:34:44Z</time><extensions><speed>1.425891</speed><course>223.584900</course><hAcc>0.866322</hAcc><vAcc>0.609245</vAcc></extensions></trkpt>
      <trkpt lon="-4.130555" lat="53.020839"><ele>157.233887</ele><time>2021-07-17T14:34:45Z</time><extensions><speed>1.446260</speed><course>224.383530</course><hAcc>0.867997</hAcc><vAcc>0.613535</vAcc></extensions></trkpt>
      <trkpt lon="-4.130538" lat="53.020831"><ele>157.191971</ele><time>2021-07-17T14:34:46Z</time><extensions><speed>1.465901</speed><course>225.716217</course><hAcc>0.869739</hAcc><vAcc>0.618327</vAcc></extensions></trkpt>
      <trkpt lon="-4.130521" lat="53.020822"><ele>157.134262</ele><time>2021-07-17T14:34:47Z</time><extensions><speed>1.483782</speed><course>229.189102</course><hAcc>0.871542</hAcc><vAcc>0.623507</vAcc></extensions></trkpt>
      <trkpt lon="-4.130503" lat="53.020814"><ele>157.059128</ele><time>2021-07-17T14:34:48Z</time><extensions><speed>1.498978</speed><course>224.817474</course><hAcc>0.873396</hAcc><vAcc>0.628958</vAcc></extensions></trkpt>
      <trkpt lon="-4.130485" lat="53.020806"><ele>156.965347</ele><time>2021-07-17T14:34:49Z</time><extensions><speed>1.510339</speed><course>225.227936</course><hAcc>0.875288</hAcc><vAcc>0.634551</vAcc></extensions></trkpt>
      <trkpt lon="-4.130468" lat="53.020797"><ele>156.852722</ele><time>2021-07-17T14:34:50Z</time><extensions><speed>1.516456</speed><course>228.251373</course><hAcc>0.877184</hAcc><vAcc>0.640137</vAcc></extensions></trkpt>
      <trkpt lon="-4.130450" lat="53.020789"><ele>156.721619</ele><time>2021-07-17T14:34:51Z</time><extensions><speed>1.516491</speed><course>230.721024</course><hAcc>0.879038</hAcc><vAcc>0.645541</vAcc></extensions></trkpt>
      <trkpt lon="-4.130431" lat="53.020781"><ele>156.572403</ele><time>2021-07-17T14:34:52Z</time><extensions><speed>1.511126</speed><course>234.697540</course><hAcc>0.880802</hAcc><vAcc>0.650589</vAcc></extensions></trkpt>
      <trkpt lon="-4.130413" lat="53.020773"><ele>156.405731</ele><time>2021-07-17T14:34:53Z</time><extensions><speed>1.502352</speed><course>236.619934</course><hAcc>0.882449</hAcc><vAcc>0.655129</vAcc></extensions></trkpt>
      <trkpt lon="-4.130394" lat="53.020766"><ele>156.223282</ele><time>2021-07-17T14:34:54Z</time><extensions><speed>1.493051</speed><course>247.542679</course><hAcc>0.883978</hAcc><vAcc>0.659069</vAcc></extensions></trkpt>
      <trkpt lon="-4.130376" lat="53.020759"><ele>156.026825</ele><time>2021-07-17T14:34:55Z</time><extensions><speed>1.485623</speed><course>242.855072</course><hAcc>0.885401</hAcc><vAcc>0.662380</vAcc></extensions></trkpt>
      <trkpt lon="-4.130356" lat="53.020752"><ele>155.817657</ele><time>2021-07-17T14:34:56Z</time><extensions><speed>1.481261</speed><course>241.397278</course><hAcc>0.886734</hAcc><vAcc>0.665090</vAcc></extensions></trkpt>
      <trkpt lon="-4.130337" lat="53.020746"><ele>155.597366</ele><time>2021-07-17T14:34:57Z</time><extensions><speed>1.480469</speed><course>241.667068</course><hAcc>0.887978</hAcc><vAcc>0.667261</vAcc></extensions></trkpt>
      <trkpt lon="-4.130317" lat="53.020740"><ele>155.367996</ele><time>2021-07-17T14:34:58Z</time><extensions><speed>1.483242</speed><course>241.132874</course><hAcc>0.889118</hAcc><vAcc>0.668973</vAcc></extensions></trkpt>
      <trkpt lon="-4.130297" lat="53.020734"><ele>155.132019</ele><time>2021-07-17T14:34:59Z</time><extensions><speed>1.489359</speed><course>242.509506</course><hAcc>0.890126</hAcc><vAcc>0.670313</vAcc></extensions></trkpt>
      <trkpt lon="-4.130276" lat="53.020730"><ele>154.891479</ele><time>2021-07-17T14:35:00Z</time><extensions><speed>1.498320</speed><course>242.195404</course><hAcc>0.890975</hAcc><vAcc>0.671364</vAcc></extensions></trkpt>
      <trkpt lon="-4.130255" lat="53.020725"><ele>154.647522</ele><time>2021-07-17T14:35:01Z</time><extensions><speed>1.509435</speed><course>244.443573</course><hAcc>0.891668</hAcc><vAcc>0.672208</vAcc></extensions></trkpt>
      <trkpt lon="-4.130233" lat="53.020721"><ele>154.401367</ele><time>2021-07-17T14:35:02Z</time><extensions><speed>1.522995</speed><course>246.780472</course><hAcc>0.892222</hAcc><vAcc>0.672918</vAcc></extensions></trkpt>
      <trkpt lon="-4.130211" lat="53.020718"><ele>154.154327</ele><time>2021-07-17T14:35:03Z</time><extensions><speed>1.540481</speed><course>247.423477</course><hAcc>0.892657</hAcc><vAcc>0.673559</vAcc></extensions></trkpt>
      <trkpt lon="-4.130188" lat="53.020716"><ele>153.906860</ele><time>2021-07-17T14:35:04Z</time><extensions><speed>1.562880</speed><course>252.345490</course><hAcc>0.892992</hAcc><vAcc>0.674189</vAcc></extensions></trkpt>
      <trkpt lon="-4.130165" lat="53.020715"><ele>153.658859</ele><time>2021-07-17T14:35:05Z</time><extensions><speed>1.589947</speed><course>252.366760</course><hAcc>0.893258</hAcc><vAcc>0.674853</vAcc></extensions></trkpt>
      <trkpt lon="-4.130141" lat="53.020714"><ele>153.410339</ele><time>2021-07-17T14:35:06Z</time><extensions><speed>1.620266</speed><course>254.889893</course><hAcc>0.893501</hAcc><vAcc>0.675594</vAcc></extensions></trkpt>
      <trkpt lon="-4.130117" lat="53.020715"><ele>153.161850</ele><time>2021-07-17T14:35:07Z</time><extensions><speed>1.651592</speed><course>257.492432</course><hAcc>0.893780</hAcc><vAcc>0.676445</vAcc></extensions></trkpt>
      <trkpt lon="-4.130092" lat="53.020716"><ele>152.914124</ele><time>2021-07-17T14:35:08Z</time><extensions><speed>1.681767</speed><course>255.728439</course><hAcc>0.894148</hAcc><vAcc>0.677427</vAcc></extensions></trkpt>
      <trkpt lon="-4.130067" lat="53.020719"><ele>152.667618</ele><time>2021-07-17T14:35:09Z</time><extensions><speed>1.708480</speed><course>258.375061</course><hAcc>0.894631</hAcc><vAcc>0.678544</vAcc></extensions></trkpt>
      <trkpt lon="-4.130042" lat="53.020722"><ele>152.422928</ele><time>2021-07-17T14:35:10Z</time><extensions><speed>1.729867</speed><course>260.722260</course><hAcc>0.895223</hAcc><vAcc>0.679784</vAcc></extensions></trkpt>
      <trkpt lon="-4.130017" lat="53.020726"><ele>152.181412</ele><time>2021-07-17T14:35:10Z</time><extensions><speed>1.744768</speed><course>260.722260</course><hAcc>0.895907</hAcc><vAcc>0.681120</vAcc></extensions></trkpt>
      <trkpt lon="-4.129992" lat="53.020731"><ele>151.943558</ele><time>2021-07-17T14:35:11Z</time><extensions><speed>1.751741</speed><course>260.722260</course><hAcc>0.896613</hAcc><vAcc>0.682497</vAcc></extensions></trkpt>
      <trkpt lon="-4.129967" lat="53.020736"><ele>151.710266</ele><time>2021-07-17T14:35:13Z</time><extensions><speed>1.749310</speed><course>260.722260</course><hAcc>0.897215</hAcc><vAcc>0.683816</vAcc></extensions></trkpt>
      <trkpt lon="-4.129943" lat="53.020741"><ele>151.482971</ele><time>2021-07-17T14:35:14Z</time><extensions><speed>1.736458</speed><course>260.722260</course><hAcc>0.897623</hAcc><vAcc>0.685010</vAcc></extensions></trkpt>
      <trkpt lon="-4.129919" lat="53.020747"><ele>151.262543</ele><time>2021-07-17T14:35:15Z</time><extensions><speed>1.712660</speed><course>260.722260</course><hAcc>0.897802</hAcc><vAcc>0.686045</vAcc></extensions></trkpt>
      <trkpt lon="-4.129896" lat="53.020752"><ele>151.050522</ele><time>2021-07-17T14:35:16Z</time><extensions><speed>1.677901</speed><course>260.722260</course><hAcc>0.897743</hAcc><vAcc>0.686895</vAcc></extensions></trkpt>
      <trkpt lon="-4.129873" lat="53.020758"><ele>150.848480</ele><time>2021-07-17T14:35:17Z</time><extensions><speed>1.632866</speed><course>260.722229</course><hAcc>0.897469</hAcc><vAcc>0.687555</vAcc></extensions></trkpt>
      <trkpt lon="-4.129850" lat="53.020763"><ele>150.657318</ele><time>2021-07-17T14:35:18Z</time><extensions><speed>1.579750</speed><course>268.575928</course><hAcc>0.897013</hAcc><vAcc>0.688037</vAcc></extensions></trkpt>
      <trkpt lon="-4.129829" lat="53.020768"><ele>150.477661</ele><time>2021-07-17T14:35:18Z</time><extensions><speed>1.522274</speed><course>268.685822</course><hAcc>0.896415</hAcc><vAcc>0.688373</vAcc></extensions></trkpt>
      <trkpt lon="-4.129808" lat="53.020772"><ele>150.309952</ele><time>2021-07-17T14:35:19Z</time><extensions><speed>1.464195</speed><course>264.169769</course><hAcc>0.895681</hAcc><vAcc>0.688588</vAcc></extensions></trkpt>
      <trkpt lon="-4.129787" lat="53.020776"><ele>150.155075</ele><time>2021-07-17T14:35:20Z</time><extensions><speed>1.409006</speed><course>272.216278</course><hAcc>0.894791</hAcc><vAcc>0.688688</vAcc></extensions></trkpt>
      <trkpt lon="-4.129767" lat="53.020780"><ele>150.013107</ele><time>2021-07-17T14:35:21Z</time><extensions><speed>1.359246</speed><course>279.707916</course><hAcc>0.893752</hAcc><vAcc>0.688692</vAcc></extensions></trkpt>
      <trkpt lon="-4.129748" lat="53.020783"><ele>149.883804</ele><time>2021-07-17T14:35:22Z</time><extensions><speed>1.316367</speed><course>277.974487</course><hAcc>0.892592</hAcc><vAcc>0.688622</vAcc></extensions></trkpt>
      <trkpt lon="-4.129729" lat="53.020785"><ele>149.767136</ele><time>2021-07-17T14:35:23Z</time><extensions><speed>1.280795</speed><course>285.359497</course><hAcc>0.891368</hAcc><vAcc>0.688510</vAcc></extensions></trkpt>
      <trkpt lon="-4.129711" lat="53.020787"><ele>149.663040</ele><time>2021-07-17T14:35:24Z</time><extensions><speed>1.252806</speed><course>288.896698</course><hAcc>0.890167</hAcc><vAcc>0.688397</vAcc></extensions></trkpt>
      <trkpt lon="-4.129692" lat="53.020789"><ele>149.570999</ele><time>2021-07-17T14:35:25Z</time><extensions><speed>1.232407</speed><course>285.949463</course><hAcc>0.889072</hAcc><vAcc>0.688321</vAcc></extensions></trkpt>
      <trkpt lon="-4.129674" lat="53.020790"><ele>149.489883</ele><time>2021-07-17T14:35:27Z</time><extensions><speed>1.218556</speed><course>279.328217</course><hAcc>0.888130</hAcc><vAcc>0.688303</vAcc></extensions></trkpt>
      <trkpt lon="-4.129656" lat="53.020791"><ele>149.418823</ele><time>2021-07-17T14:35:28Z</time><extensions><speed>1.209907</speed><course>280.252258</course><hAcc>0.887393</hAcc><vAcc>0.688367</vAcc></extensions></trkpt>
      <trkpt lon="-4.129638" lat="53.020792"><ele>149.357513</ele><time>2021-07-17T14:35:29Z</time><extensions><speed>1.204658</speed><course>280.968384</course><hAcc>0.886926</hAcc><vAcc>0.688541</vAcc></extensions></trkpt>
      <trkpt lon="-4.129620" lat="53.020792"><ele>149.305832</ele><time>2021-07-17T14:35:30Z</time><extensions><speed>1.201085</speed><course>279.577759</course><hAcc>0.886744</hAcc><vAcc>0.688820</vAcc></extensions></trkpt>
      <trkpt lon="-4.129602" lat="53.020793"><ele>149.263184</ele><time>2021-07-17T14:35:31Z</time><extensions><speed>1.198421</speed><course>280.039124</course><hAcc>0.886817</hAcc><vAcc>0.689181</vAcc></extensions></trkpt>
      <trkpt lon="-4.129585" lat="53.020794"><ele>149.229080</ele><time>2021-07-17T14:35:32Z</time><extensions><speed>1.196236</speed><course>285.588440</course><hAcc>0.887068</hAcc><vAcc>0.689588</vAcc></extensions></trkpt>
      <trkpt lon="-4.129567" lat="53.020794"><ele>149.203873</ele><time>2021-07-17T14:35:33Z</time><extensions><speed>1.194156</speed><course>287.653503</course><hAcc>0.887384</hAcc><vAcc>0.689999</vAcc></extensions></trkpt>
      <trkpt lon="-4.129549" lat="53.020795"><ele>149.188522</ele><time>2021-07-17T14:35:34Z</time><extensions><speed>1.191612</speed><course>285.239563</course><hAcc>0.887646</hAcc><vAcc>0.690369</vAcc></extensions></trkpt>
      <trkpt lon="-4.129532" lat="53.020796"><ele>149.183777</ele><time>2021-07-17T14:35:35Z</time><extensions><speed>1.187461</speed><course>283.468018</course><hAcc>0.887751</hAcc><vAcc>0.690660</vAcc></extensions></trkpt>
      <trkpt lon="-4.129514" lat="53.020797"><ele>149.189819</ele><time>2021-07-17T14:35:36Z</time><extensions><speed>1.180266</speed><course>279.656525</course><hAcc>0.887644</hAcc><vAcc>0.690841</vAcc></extensions></trkpt>
      <trkpt lon="-4.129497" lat="53.020798"><ele>149.206879</ele><time>2021-07-17T14:35:37Z</time><extensions><speed>1.169142</speed><course>278.539093</course><hAcc>0.887340</hAcc><vAcc>0.690890</vAcc></extensions></trkpt>
      <trkpt lon="-4.129479" lat="53.020800"><ele>149.235901</ele><time>2021-07-17T14:35:38Z</time><extensions><speed>1.154375</speed><course>281.435120</course><hAcc>0.886912</hAcc><vAcc>0.690789</vAcc></extensions></trkpt>
      <trkpt lon="-4.129463" lat="53.020801"><ele>149.277817</ele><time>2021-07-17T14:35:39Z</time><extensions><speed>1.137722</speed><course>285.299316</course><hAcc>0.886457</hAcc><vAcc>0.690512</vAcc></extensions></trkpt>
      <trkpt lon="-4.129446" lat="53.020803"><ele>149.332535</ele><time>2021-07-17T14:35:40Z</time><extensions><speed>1.121786</speed><course>278.729095</course><hAcc>0.886062</hAcc><vAcc>0.690030</vAcc></extensions></trkpt>
      <trkpt lon="-4.129430" lat="53.020805"><ele>149.399017</ele><time>2021-07-17T14:35:41Z</time><extensions><speed>1.109109</speed><course>281.499542</course><hAcc>0.885784</hAcc><vAcc>0.689312</vAcc></extensions></trkpt>
      <trkpt lon="-4.129413" lat="53.020807"><ele>149.476212</ele><time>2021-07-17T14:35:42Z</time><extensions><speed>1.101523</speed><course>280.886475</course><hAcc>0.885636</hAcc><vAcc>0.688335</vAcc></extensions></trkpt>
      <trkpt lon="-4.129397" lat="53.020809"><ele>149.563263</ele><time>2021-07-17T14:35:43Z</time><extensions><speed>1.099950</speed><course>287.541565</course><hAcc>0.885597</hAcc><vAcc>0.687090</vAcc></extensions></trkpt>
      <trkpt lon="-4.129381" lat="53.020811"><ele>149.659424</ele><time>2021-07-17T14:35:44Z</time><extensions><speed>1.105248</speed><course>288.221985</course><hAcc>0.885622</hAcc><vAcc>0.685595</vAcc></extensions></trkpt>
      <trkpt lon="-4.129365" lat="53.020813"><ele>149.763702</ele><time>2021-07-17T14:35:45Z</time><extensions><speed>1.118898</speed><course>291.891876</course><hAcc>0.885648</hAcc><vAcc>0.683878</vAcc></extensions></trkpt>
      <trkpt lon="-4.129349" lat="53.020815"><ele>149.874817</ele><time>2021-07-17T14:35:46Z</time><extensions><speed>1.142753</speed><course>289.035248</course><hAcc>0.885610</hAcc><vAcc>0.681972</vAcc></extensions></trkpt>
      <trkpt lon="-4.129332" lat="53.020818"><ele>149.991806</ele><time>2021-07-17T14:35:47Z</time><extensions><speed>1.177804</speed><course>286.354584</course><hAcc>0.885444</hAcc><vAcc>0.679904</vAcc></extensions></trkpt>
      <trkpt lon="-4.129314" lat="53.020820"><ele>150.113739</ele><time>2021-07-17T14:35:48Z</time><extensions><speed>1.223996</speed><course>285.070648</course><hAcc>0.885102</hAcc><vAcc>0.677704</vAcc></extensions></trkpt>
      <trkpt lon="-4.129296" lat="53.020822"><ele>150.239090</ele><time>2021-07-17T14:35:49Z</time><extensions><speed>1.280677</speed><course>282.456329</course><hAcc>0.884543</hAcc><vAcc>0.675409</vAcc></extensions></trkpt>
      <trkpt lon="-4.129277" lat="53.020825"><ele>150.366196</ele><time>2021-07-17T14:35:50Z</time><extensions><speed>1.346044</speed><course>277.579590</course><hAcc>0.883746</hAcc><vAcc>0.673068</vAcc></extensions></trkpt>
      <trkpt lon="-4.129257" lat="53.020828"><ele>150.493591</ele><time>2021-07-17T14:35:51Z</time><extensions><speed>1.417160</speed><course>280.944580</course><hAcc>0.882713</hAcc><vAcc>0.670741</vAcc></extensions></trkpt>
      <trkpt lon="-4.129236" lat="53.020830"><ele>150.619843</ele><time>2021-07-17T14:35:52Z</time><extensions><speed>1.490242</speed><course>286.555664</course><hAcc>0.881477</hAcc><vAcc>0.668505</vAcc></extensions></trkpt>
      <trkpt lon="-4.129214" lat="53.020833"><ele>150.743118</ele><time>2021-07-17T14:35:53Z</time><extensions><speed>1.560824</speed><course>286.867188</course><hAcc>0.880096</hAcc><vAcc>0.666457</vAcc></extensions></trkpt>
      <trkpt lon="-4.129190" lat="53.020836"><ele>150.861450</ele><time>2021-07-17T14:35:54Z</time><extensions><speed>1.624275</speed><course>285.747314</course><hAcc>0.878642</hAcc><vAcc>0.664699</vAcc></extensions></trkpt>
      <trkpt lon="-4.129166" lat="53.020839"><ele>150.973083</ele><time>2021-07-17T14:35:55Z</time><extensions><speed>1.676683</speed><course>288.748718</course><hAcc>0.877206</hAcc><vAcc>0.663311</vAcc></extensions></trkpt>
      <trkpt lon="-4.129141" lat="53.020842"><ele>151.075943</ele><time>2021-07-17T14:35:56Z</time><extensions><speed>1.715940</speed><course>282.056335</course><hAcc>0.875882</hAcc><vAcc>0.662325</vAcc></extensions></trkpt>
      <trkpt lon="-4.129116" lat="53.020845"><ele>151.167282</ele><time>2021-07-17T14:35:57Z</time><extensions><speed>1.741574</speed><course>284.841522</course><hAcc>0.874746</hAcc><vAcc>0.661721</vAcc></extensions></trkpt>
      <trkpt lon="-4.129091" lat="53.020848"><ele>151.244461</ele><time>2021-07-17T14:35:58Z</time><extensions><speed>1.754342</speed><course>283.873260</course><hAcc>0.873837</hAcc><vAcc>0.661444</vAcc></extensions></trkpt>
      <trkpt lon="-4.129065" lat="53.020852"><ele>151.305298</ele><time>2021-07-17T14:35:59Z</time><extensions><speed>1.755829</speed><course>280.645142</course><hAcc>0.873160</hAcc><vAcc>0.661434</vAcc></extensions></trkpt>
      <trkpt lon="-4.129040" lat="53.020855"><ele>151.348007</ele><time>2021-07-17T14:36:00Z</time><extensions><speed>1.747468</speed><course>278.726105</course><hAcc>0.872699</hAcc><vAcc>0.661637</vAcc></extensions></trkpt>
      <trkpt lon="-4.129014" lat="53.020858"><ele>151.371307</ele><time>2021-07-17T14:36:01Z</time><extensions><speed>1.730362</speed><course>276.107971</course><hAcc>0.872426</hAcc><vAcc>0.662006</vAcc></extensions></trkpt>
      <trkpt lon="-4.128989" lat="53.020861"><ele>151.375122</ele><time>2021-07-17T14:36:02Z</time><extensions><speed>1.705842</speed><course>275.135803</course><hAcc>0.872304</hAcc><vAcc>0.662495</vAcc></extensions></trkpt>
      <trkpt lon="-4.128964" lat="53.020864"><ele>151.360275</ele><time>2021-07-17T14:36:03Z</time><extensions><speed>1.675185</speed><course>273.705627</course><hAcc>0.872294</hAcc><vAcc>0.663060</vAcc></extensions></trkpt>
      <trkpt lon="-4.128940" lat="53.020867"><ele>151.327972</ele><time>2021-07-17T14:36:04Z</time><extensions><speed>1.639254</speed><course>279.700806</course><hAcc>0.872360</hAcc><vAcc>0.663655</vAcc></extensions></trkpt>
      <trkpt lon="-4.128917" lat="53.020870"><ele>151.279907</ele><time>2021-07-17T14:36:05Z</time><extensions><speed>1.598785</speed><course>279.102997</course><hAcc>0.872469</hAcc><vAcc>0.664236</vAcc></extensions></trkpt>
      <trkpt lon="-4.128894" lat="53.020873"><ele>151.218277</ele><time>2021-07-17T14:36:06Z</time><extensions><speed>1.554155</speed><course>281.416626</course><hAcc>0.872596</hAcc><vAcc>0.664771</vAcc></extensions></trkpt>
      <trkpt lon="-4.128871" lat="53.020876"><ele>151.145157</ele><time>2021-07-17T14:36:07Z</time><extensions><speed>1.506500</speed><course>274.399658</course><hAcc>0.872719</hAcc><vAcc>0.665232</vAcc></extensions></trkpt>
      <trkpt lon="-4.128850" lat="53.020879"><ele>151.061630</ele><time>2021-07-17T14:36:08Z</time><extensions><speed>1.458205</speed><course>277.055237</course><hAcc>0.872824</hAcc><vAcc>0.665596</vAcc></extensions></trkpt>
      <trkpt lon="-4.128829" lat="53.020881"><ele>150.968597</ele><time>2021-07-17T14:36:09Z</time><extensions><speed>1.411250</speed><course>271.055908</course><hAcc>0.872900</hAcc><vAcc>0.665848</vAcc></extensions></trkpt>
      <trkpt lon="-4.128809" lat="53.020884"><ele>150.867706</ele><time>2021-07-17T14:36:10Z</time><extensions><speed>1.365709</speed><course>270.959534</course><hAcc>0.872943</hAcc><vAcc>0.665983</vAcc></extensions></trkpt>
      <trkpt lon="-4.128789" lat="53.020886"><ele>150.760666</ele><time>2021-07-17T14:36:11Z</time><extensions><speed>1.321099</speed><course>273.311462</course><hAcc>0.872952</hAcc><vAcc>0.666005</vAcc></extensions></trkpt>
      <trkpt lon="-4.128770" lat="53.020889"><ele>150.648010</ele><time>2021-07-17T14:36:12Z</time><extensions><speed>1.278009</speed><course>270.079376</course><hAcc>0.872927</hAcc><vAcc>0.665923</vAcc></extensions></trkpt>
      <trkpt lon="-4.128752" lat="53.020891"><ele>150.529175</ele><time>2021-07-17T14:36:13Z</time><extensions><speed>1.237129</speed><course>269.858612</course><hAcc>0.872871</hAcc><vAcc>0.665744</vAcc></extensions></trkpt>
      <trkpt lon="-4.128734" lat="53.020893"><ele>150.403900</ele><time>2021-07-17T14:36:14Z</time><extensions><speed>1.199088</speed><course>271.614288</course><hAcc>0.872785</hAcc><vAcc>0.665467</vAcc></extensions></trkpt>
      <trkpt lon="-4.128717" lat="53.020896"><ele>150.272858</ele><time>2021-07-17T14:36:15Z</time><extensions><speed>1.164081</speed><course>269.703888</course><hAcc>0.872675</hAcc><vAcc>0.665105</vAcc></extensions></trkpt>
      <trkpt lon="-4.128700" lat="53.020898"><ele>150.136826</ele><time>2021-07-17T14:36:16Z</time><extensions><speed>1.131734</speed><course>271.185974</course><hAcc>0.872548</hAcc><vAcc>0.664685</vAcc></extensions></trkpt>
      <trkpt lon="-4.128684" lat="53.020900"><ele>149.996033</ele><time>2021-07-17T14:36:17Z</time><extensions><speed>1.101302</speed><course>276.545776</course><hAcc>0.872412</hAcc><vAcc>0.664243</vAcc></extensions></trkpt>
      <trkpt lon="-4.128668" lat="53.020902"><ele>149.850937</ele><time>2021-07-17T14:36:18Z</time><extensions><speed>1.072599</speed><course>274.150604</course><hAcc>0.872275</hAcc><vAcc>0.663797</vAcc></extensions></trkpt>
      <trkpt lon="-4.128653" lat="53.020904"><ele>149.703354</ele><time>2021-07-17T14:36:19Z</time><extensions><speed>1.046998</speed><course>269.686920</course><hAcc>0.872141</hAcc><vAcc>0.663358</vAcc></extensions></trkpt>
      <trkpt lon="-4.128637" lat="53.020906"><ele>149.556000</ele><time>2021-07-17T14:36:20Z</time><extensions><speed>1.026600</speed><course>266.852386</course><hAcc>0.872013</hAcc><vAcc>0.662932</vAcc></extensions></trkpt>
      <trkpt lon="-4.128623" lat="53.020908"><ele>149.410858</ele><time>2021-07-17T14:36:21Z</time><extensions><speed>1.012526</speed><course>267.243347</course><hAcc>0.871898</hAcc><vAcc>0.662540</vAcc></extensions></trkpt>
      <trkpt lon="-4.128608" lat="53.020910"><ele>149.268997</ele><time>2021-07-17T14:36:22Z</time><extensions><speed>1.004596</speed><course>260.829193</course><hAcc>0.871805</hAcc><vAcc>0.662220</vAcc></extensions></trkpt>
      <trkpt lon="-4.128593" lat="53.020912"><ele>149.131973</ele><time>2021-07-17T14:36:23Z</time><extensions><speed>1.002201</speed><course>268.227509</course><hAcc>0.871744</hAcc><vAcc>0.662012</vAcc></extensions></trkpt>
      <trkpt lon="-4.128579" lat="53.020914"><ele>149.002731</ele><time>2021-07-17T14:36:24Z</time><extensions><speed>1.005192</speed><course>261.241119</course><hAcc>0.871718</hAcc><vAcc>0.661940</vAcc></extensions></trkpt>
      <trkpt lon="-4.128564" lat="53.020915"><ele>148.885330</ele><time>2021-07-17T14:36:25Z</time><extensions><speed>1.014490</speed><course>259.199677</course><hAcc>0.871726</hAcc><vAcc>0.661996</vAcc></extensions></trkpt>
      <trkpt lon="-4.128549" lat="53.020917"><ele>148.783661</ele><time>2021-07-17T14:36:26Z</time><extensions><speed>1.030908</speed><course>258.372070</course><hAcc>0.871759</hAcc><vAcc>0.662143</vAcc></extensions></trkpt>
      <trkpt lon="-4.128533" lat="53.020918"><ele>148.699738</ele><time>2021-07-17T14:36:27Z</time><extensions><speed>1.053880</speed><course>251.644882</course><hAcc>0.871805</hAcc><vAcc>0.662336</vAcc></extensions></trkpt>
      <trkpt lon="-4.128518" lat="53.020920"><ele>148.633438</ele><time>2021-07-17T14:36:28Z</time><extensions><speed>1.081542</speed><course>250.726257</course><hAcc>0.871855</hAcc><vAcc>0.662530</vAcc></extensions></trkpt>
      <trkpt lon="-4.128502" lat="53.020921"><ele>148.583847</ele><time>2021-07-17T14:36:29Z</time><extensions><speed>1.111444</speed><course>245.632431</course><hAcc>0.871901</hAcc><vAcc>0.662694</vAcc></extensions></trkpt>
      <trkpt lon="-4.128485" lat="53.020923"><ele>148.549942</ele><time>2021-07-17T14:36:30Z</time><extensions><speed>1.141034</speed><course>245.967255</course><hAcc>0.871937</hAcc><vAcc>0.662806</vAcc></extensions></trkpt>
      <trkpt lon="-4.128468" lat="53.020925"><ele>148.530594</ele><time>2021-07-17T14:36:31Z</time><extensions><speed>1.168917</speed><course>241.448837</course><hAcc>0.871962</hAcc><vAcc>0.662865</vAcc></extensions></trkpt>
      <trkpt lon="-4.128451" lat="53.020926"><ele>148.523636</ele><time>2021-07-17T14:36:32Z</time><extensions><speed>1.194777</speed><course>246.306168</course><hAcc>0.871979</hAcc><vAcc>0.662887</vAcc></extensions></trkpt>
      <trkpt lon="-4.128433" lat="53.020928"><ele>148.525497</ele><time>2021-07-17T14:36:33Z</time><extensions><speed>1.218068</speed><course>241.853012</course><hAcc>0.871993</hAcc><vAcc>0.662897</vAcc></extensions></trkpt>
      <trkpt lon="-4.128415" lat="53.020930"><ele>148.532440</ele><time>2021-07-17T14:36:34Z</time><extensions><speed>1.238655</speed><course>247.017685</course><hAcc>0.872010</hAcc><vAcc>0.662923</vAcc></extensions></trkpt>
      <trkpt lon="-4.128396" lat="53.020932"><ele>148.541519</ele><time>2021-07-17T14:36:35Z</time><extensions><speed>1.257131</speed><course>242.793106</course><hAcc>0.872037</hAcc><vAcc>0.662993</vAcc></extensions></trkpt>
      <trkpt lon="-4.128378" lat="53.020934"><ele>148.550720</ele><time>2021-07-17T14:36:36Z</time><extensions><speed>1.273920</speed><course>241.528748</course><hAcc>0.872077</hAcc><vAcc>0.663122</vAcc></extensions></trkpt>
      <trkpt lon="-4.128359" lat="53.020936"><ele>148.558395</ele><time>2021-07-17T14:36:37Z</time><extensions><speed>1.289127</speed><course>239.773132</course><hAcc>0.872129</hAcc><vAcc>0.663303</vAcc></extensions></trkpt>
      <trkpt lon="-4.128340" lat="53.020938"><ele>148.562393</ele><time>2021-07-17T14:36:38Z</time><extensions><speed>1.302833</speed><course>228.079361</course><hAcc>0.872189</hAcc><vAcc>0.663513</vAcc></extensions></trkpt>
      <trkpt lon="-4.128321" lat="53.020940"><ele>148.560501</ele><time>2021-07-17T14:36:39Z</time><extensions><speed>1.315497</speed><course>235.745880</course><hAcc>0.872250</hAcc><vAcc>0.663720</vAcc></extensions></trkpt>
      <trkpt lon="-4.128302" lat="53.020943"><ele>148.551361</ele><time>2021-07-17T14:36:40Z</time><extensions><speed>1.328330</speed><course>241.026978</course><hAcc>0.872310</hAcc><vAcc>0.663907</vAcc></extensions></trkpt>
      <trkpt lon="-4.128282" lat="53.020945"><ele>148.534821</ele><time>2021-07-17T14:36:41Z</time><extensions><speed>1.342292</speed><course>241.201813</course><hAcc>0.872365</hAcc><vAcc>0.664070</vAcc></extensions></trkpt>
      <trkpt lon="-4.128262" lat="53.020947"><ele>148.511047</ele><time>2021-07-17T14:36:42Z</time><extensions><speed>1.356868</speed><course>237.798721</course><hAcc>0.872418</hAcc><vAcc>0.664224</vAcc></extensions></trkpt>
      <trkpt lon="-4.128242" lat="53.020949"><ele>148.479691</ele><time>2021-07-17T14:36:43Z</time><extensions><speed>1.371333</speed><course>239.932953</course><hAcc>0.872471</hAcc><vAcc>0.664388</vAcc></extensions></trkpt>
      <trkpt lon="-4.128222" lat="53.020951"><ele>148.440735</ele><time>2021-07-17T14:36:44Z</time><extensions><speed>1.385843</speed><course>236.617691</course><hAcc>0.872524</hAcc><vAcc>0.664570</vAcc></extensions></trkpt>
      <trkpt lon="-4.128202" lat="53.020953"><ele>148.395111</ele><time>2021-07-17T14:36:45Z</time><extensions><speed>1.400354</speed><course>241.818802</course><hAcc>0.872574</hAcc><vAcc>0.664761</vAcc></extensions></trkpt>
      <trkpt lon="-4.128181" lat="53.020955"><ele>148.344360</ele><time>2021-07-17T14:36:46Z</time><extensions><speed>1.414481</speed><course>239.437317</course><hAcc>0.872613</hAcc><vAcc>0.664934</vAcc></extensions></trkpt>
      <trkpt lon="-4.128160" lat="53.020957"><ele>148.289658</ele><time>2021-07-17T14:36:47Z</time><extensions><speed>1.428121</speed><course>246.363113</course><hAcc>0.872633</hAcc><vAcc>0.665046</vAcc></extensions></trkpt>
      <trkpt lon="-4.128139" lat="53.020958"><ele>148.230942</ele><time>2021-07-17T14:36:48Z</time><extensions><speed>1.441923</speed><course>246.700150</course><hAcc>0.872623</hAcc><vAcc>0.665058</vAcc></extensions></trkpt>
      <trkpt lon="-4.128117" lat="53.020960"><ele>148.167694</ele><time>2021-07-17T14:36:49Z</time><extensions><speed>1.457053</speed><course>246.096832</course><hAcc>0.872578</hAcc><vAcc>0.664939</vAcc></extensions></trkpt>
      <trkpt lon="-4.128095" lat="53.020961"><ele>148.100052</ele><time>2021-07-17T14:36:50Z</time><extensions><speed>1.473820</speed><course>243.815796</course><hAcc>0.872496</hAcc><vAcc>0.664680</vAcc></extensions></trkpt>
      <trkpt lon="-4.128073" lat="53.020963"><ele>148.028534</ele><time>2021-07-17T14:36:51Z</time><extensions><speed>1.491692</speed><course>246.512634</course><hAcc>0.872381</hAcc><vAcc>0.664289</vAcc></extensions></trkpt>
      <trkpt lon="-4.128051" lat="53.020964"><ele>147.953094</ele><time>2021-07-17T14:36:52Z</time><extensions><speed>1.509428</speed><course>244.050751</course><hAcc>0.872240</hAcc><vAcc>0.663793</vAcc></extensions></trkpt>
      <trkpt lon="-4.128029" lat="53.020965"><ele>147.872940</ele><time>2021-07-17T14:36:53Z</time><extensions><speed>1.525615</speed><course>244.230560</course><hAcc>0.872084</hAcc><vAcc>0.663235</vAcc></extensions></trkpt>
      <trkpt lon="-4.128006" lat="53.020966"><ele>147.786850</ele><time>2021-07-17T14:36:54Z</time><extensions><speed>1.539141</speed><course>245.032242</course><hAcc>0.871930</hAcc><vAcc>0.662673</vAcc></extensions></trkpt>
      <trkpt lon="-4.127983" lat="53.020967"><ele>147.693832</ele><time>2021-07-17T14:36:55Z</time><extensions><speed>1.548745</speed><course>246.179367</course><hAcc>0.871793</hAcc><vAcc>0.662169</vAcc></extensions></trkpt>
      <trkpt lon="-4.127960" lat="53.020968"><ele>147.593460</ele><time>2021-07-17T14:36:56Z</time><extensions><speed>1.553027</speed><course>241.821411</course><hAcc>0.871688</hAcc><vAcc>0.661777</vAcc></extensions></trkpt>
      <trkpt lon="-4.127937" lat="53.020968"><ele>147.486130</ele><time>2021-07-17T14:36:57Z</time><extensions><speed>1.550380</speed><course>243.788040</course><hAcc>0.871627</hAcc><vAcc>0.661541</vAcc></extensions></trkpt>
      <trkpt lon="-4.127914" lat="53.020969"><ele>147.372147</ele><time>2021-07-17T14:36:58Z</time><extensions><speed>1.539566</speed><course>243.693268</course><hAcc>0.871620</hAcc><vAcc>0.661497</vAcc></extensions></trkpt>
      <trkpt lon="-4.127891" lat="53.020970"><ele>147.250763</ele><time>2021-07-17T14:36:59Z</time><extensions><speed>1.521144</speed><course>242.775101</course><hAcc>0.871670</hAcc><vAcc>0.661664</vAcc></extensions></trkpt>
      <trkpt lon="-4.127869" lat="53.020970"><ele>147.121094</ele><time>2021-07-17T14:37:00Z</time><extensions><speed>1.496937</speed><course>245.970306</course><hAcc>0.871778</hAcc><vAcc>0.662039</vAcc></extensions></trkpt>
      <trkpt lon="-4.127846" lat="53.020970"><ele>146.983215</ele><time>2021-07-17T14:37:01Z</time><extensions><speed>1.468580</speed><course>242.405746</course><hAcc>0.871935</hAcc><vAcc>0.662595</vAcc></extensions></trkpt>
      <trkpt lon="-4.127825" lat="53.020970"><ele>146.837387</ele><time>2021-07-17T14:37:02Z</time><extensions><speed>1.437396</speed><course>242.953247</course><hAcc>0.872127</hAcc><vAcc>0.663281</vAcc></extensions></trkpt>
      <trkpt lon="-4.127804" lat="53.020970"><ele>146.683350</ele><time>2021-07-17T14:37:03Z</time><extensions><speed>1.403623</speed><course>243.898651</course><hAcc>0.872338</hAcc><vAcc>0.664033</vAcc></extensions></trkpt>
      <trkpt lon="-4.127783" lat="53.020969"><ele>146.521423</ele><time>2021-07-17T14:37:04Z</time><extensions><speed>1.367062</speed><course>246.283890</course><hAcc>0.872550</hAcc><vAcc>0.664783</vAcc></extensions></trkpt>
      <trkpt lon="-4.127763" lat="53.020969"><ele>146.353134</ele><time>2021-07-17T14:37:05Z</time><extensions><speed>1.328266</speed><course>244.954941</course><hAcc>0.872744</hAcc><vAcc>0.665464</vAcc></extensions></trkpt>
      <trkpt lon="-4.127743" lat="53.020968"><ele>146.180847</ele><time>2021-07-17T14:37:06Z</time><extensions><speed>1.289044</speed><course>242.649384</course><hAcc>0.872907</hAcc><vAcc>0.666022</vAcc></extensions></trkpt>
      <trkpt lon="-4.127725" lat="53.020967"><ele>146.006760</ele><time>2021-07-17T14:37:07Z</time><extensions><speed>1.251525</speed><course>244.763245</course><hAcc>0.873028</hAcc><vAcc>0.666418</vAcc></extensions></trkpt>
      <trkpt lon="-4.127706" lat="53.020966"><ele>145.832092</ele><time>2021-07-17T14:37:08Z</time><extensions><speed>1.217154</speed><course>244.903290</course><hAcc>0.873102</hAcc><vAcc>0.666637</vAcc></extensions></trkpt>
      <trkpt lon="-4.127689" lat="53.020964"><ele>145.658203</ele><time>2021-07-17T14:37:09Z</time><extensions><speed>1.187379</speed><course>245.405487</course><hAcc>0.873131</hAcc><vAcc>0.666684</vAcc></extensions></trkpt>
      <trkpt lon="-4.127671" lat="53.020963"><ele>145.487885</ele><time>2021-07-17T14:37:10Z</time><extensions><speed>1.163097</speed><course>244.116837</course><hAcc>0.873121</hAcc><vAcc>0.666586</vAcc></extensions></trkpt>
      <trkpt lon="-4.127654" lat="53.020962"><ele>145.324783</ele><time>2021-07-17T14:37:11Z</time><extensions><speed>1.144395</speed><course>244.373413</course><hAcc>0.873082</hAcc><vAcc>0.666388</vAcc></extensions></trkpt>
      <trkpt lon="-4.127637" lat="53.020960"><ele>145.171097</ele><time>2021-07-17T14:37:12Z</time><extensions><speed>1.131599</speed><course>242.926376</course><hAcc>0.873029</hAcc><vAcc>0.666142</vAcc></extensions></trkpt>
      <trkpt lon="-4.127621" lat="53.020959"><ele>145.026825</ele><time>2021-07-17T14:37:13Z</time><extensions><speed>1.125196</speed><course>245.132996</course><hAcc>0.872977</hAcc><vAcc>0.665903</vAcc></extensions></trkpt>
      <trkpt lon="-4.127604" lat="53.020958"><ele>144.890900</ele><time>2021-07-17T14:37:14Z</time><extensions><speed>1.124904</speed><course>244.501526</course><hAcc>0.872939</hAcc><vAcc>0.665724</vAcc></extensions></trkpt>
      <trkpt lon="-4.127587" lat="53.020957"><ele>144.761948</ele><time>2021-07-17T14:37:15Z</time><extensions><speed>1.129941</speed><course>246.537445</course><hAcc>0.872928</hAcc><vAcc>0.665645</vAcc></extensions></trkpt>
      <trkpt lon="-4.127570" lat="53.020957"><ele>144.638046</ele><time>2021-07-17T14:37:16Z</time><extensions><speed>1.139862</speed><course>249.471207</course><hAcc>0.872953</hAcc><vAcc>0.665697</vAcc></extensions></trkpt>
      <trkpt lon="-4.127553" lat="53.020957"><ele>144.516464</ele><time>2021-07-17T14:37:17Z</time><extensions><speed>1.153489</speed><course>248.775497</course><hAcc>0.873019</hAcc><vAcc>0.665898</vAcc></extensions></trkpt>
      <trkpt lon="-4.127536" lat="53.020957"><ele>144.394806</ele><time>2021-07-17T14:37:18Z</time><extensions><speed>1.168734</speed><course>246.941742</course><hAcc>0.873130</hAcc><vAcc>0.666257</vAcc></extensions></trkpt>
      <trkpt lon="-4.127518" lat="53.020957"><ele>144.271927</ele><time>2021-07-17T14:37:19Z</time><extensions><speed>1.184175</speed><course>244.433502</course><hAcc>0.873285</hAcc><vAcc>0.666771</vAcc></extensions></trkpt>
      <trkpt lon="-4.127501" lat="53.020958"><ele>144.147400</ele><time>2021-07-17T14:37:20Z</time><extensions><speed>1.199088</speed><course>244.037323</course><hAcc>0.873481</hAcc><vAcc>0.667422</vAcc></extensions></trkpt>
      <trkpt lon="-4.127483" lat="53.020959"><ele>144.020432</ele><time>2021-07-17T14:37:21Z</time><extensions><speed>1.212707</speed><course>247.924194</course><hAcc>0.873709</hAcc><vAcc>0.668182</vAcc></extensions></trkpt>
      <trkpt lon="-4.127465" lat="53.020960"><ele>143.889389</ele><time>2021-07-17T14:37:22Z</time><extensions><speed>1.224867</speed><course>244.193863</course><hAcc>0.873960</hAcc><vAcc>0.669022</vAcc></extensions></trkpt>
      <trkpt lon="-4.127446" lat="53.020961"><ele>143.753006</ele><time>2021-07-17T14:37:23Z</time><extensions><speed>1.236592</speed><course>245.117035</course><hAcc>0.874227</hAcc><vAcc>0.669914</vAcc></extensions></trkpt>
      <trkpt lon="-4.127428" lat="53.020962"><ele>143.611176</ele><time>2021-07-17T14:37:24Z</time><extensions><speed>1.249455</speed><course>240.947311</course><hAcc>0.874498</hAcc><vAcc>0.670831</vAcc></extensions></trkpt>
      <trkpt lon="-4.127409" lat="53.020964"><ele>143.464462</ele><time>2021-07-17T14:37:25Z</time><extensions><speed>1.264684</speed><course>248.726425</course><hAcc>0.874764</hAcc><vAcc>0.671741</vAcc></extensions></trkpt>
      <trkpt lon="-4.127391" lat="53.020965"><ele>143.312668</ele><time>2021-07-17T14:37:26Z</time><extensions><speed>1.282429</speed><course>246.210281</course><hAcc>0.875015</hAcc><vAcc>0.672612</vAcc></extensions></trkpt>
      <trkpt lon="-4.127372" lat="53.020967"><ele>143.153946</ele><time>2021-07-17T14:37:26Z</time><extensions><speed>1.301413</speed><course>244.130585</course><hAcc>0.875258</hAcc><vAcc>0.673425</vAcc></extensions></trkpt>
      <trkpt lon="-4.127352" lat="53.020968"><ele>142.985855</ele><time>2021-07-17T14:37:27Z</time><extensions><speed>1.319389</speed><course>242.385971</course><hAcc>0.875486</hAcc><vAcc>0.674151</vAcc></extensions></trkpt>
      <trkpt lon="-4.127333" lat="53.020970"><ele>142.807861</ele><time>2021-07-17T14:37:28Z</time><extensions><speed>1.334105</speed><course>242.586807</course><hAcc>0.875675</hAcc><vAcc>0.674748</vAcc></extensions></trkpt>
      <trkpt lon="-4.127313" lat="53.020971"><ele>142.620850</ele><time>2021-07-17T14:37:29Z</time><extensions><speed>1.344660</speed><course>243.360626</course><hAcc>0.875821</hAcc><vAcc>0.675189</vAcc></extensions></trkpt>
      <trkpt lon="-4.127293" lat="53.020973"><ele>142.426773</ele><time>2021-07-17T14:37:30Z</time><extensions><speed>1.350440</speed><course>243.971695</course><hAcc>0.875926</hAcc><vAcc>0.675467</vAcc></extensions></trkpt>
      <trkpt lon="-4.127273" lat="53.020974"><ele>142.227890</ele><time>2021-07-17T14:37:31Z</time><extensions><speed>1.350574</speed><course>240.206924</course><hAcc>0.875995</hAcc><vAcc>0.675593</vAcc></extensions></trkpt>
      <trkpt lon="-4.127253" lat="53.020974"><ele>142.025604</ele><time>2021-07-17T14:37:33Z</time><extensions><speed>1.345148</speed><course>239.075470</course><hAcc>0.876022</hAcc><vAcc>0.675593</vAcc></extensions></trkpt>
      <trkpt lon="-4.127233" lat="53.020975"><ele>141.821426</ele><time>2021-07-17T14:37:34Z</time><extensions><speed>1.336525</speed><course>237.642349</course><hAcc>0.876020</hAcc><vAcc>0.675529</vAcc></extensions></trkpt>
      <trkpt lon="-4.127213" lat="53.020975"><ele>141.617065</ele><time>2021-07-17T14:37:34Z</time><extensions><speed>1.327825</speed><course>240.263168</course><hAcc>0.876045</hAcc><vAcc>0.675501</vAcc></extensions></trkpt>
      <trkpt lon="-4.127193" lat="53.020974"><ele>141.414627</ele><time>2021-07-17T14:37:35Z</time><extensions><speed>1.320789</speed><course>236.992905</course><hAcc>0.876115</hAcc><vAcc>0.675587</vAcc></extensions></trkpt>
      <trkpt lon="-4.127174" lat="53.020973"><ele>141.217300</ele><time>2021-07-17T14:37:36Z</time><extensions><speed>1.316363</speed><course>237.814407</course><hAcc>0.876229</hAcc><vAcc>0.675844</vAcc></extensions></trkpt>
      <trkpt lon="-4.127154" lat="53.020971"><ele>141.028198</ele><time>2021-07-17T14:37:37Z</time><extensions><speed>1.314829</speed><course>233.161377</course><hAcc>0.876400</hAcc><vAcc>0.676327</vAcc></extensions></trkpt>
      <trkpt lon="-4.127135" lat="53.020968"><ele>140.850357</ele><time>2021-07-17T14:37:38Z</time><extensions><speed>1.315351</speed><course>231.854340</course><hAcc>0.876636</hAcc><vAcc>0.677069</vAcc></extensions></trkpt>
      <trkpt lon="-4.127116" lat="53.020965"><ele>140.685501</ele><time>2021-07-17T14:37:39Z</time><extensions><speed>1.316604</speed><course>230.330582</course><hAcc>0.876941</hAcc><vAcc>0.678081</vAcc></extensions></trkpt>
      <trkpt lon="-4.127098" lat="53.020962"><ele>140.533615</ele><time>2021-07-17T14:37:40Z</time><extensions><speed>1.317503</speed><course>225.955917</course><hAcc>0.877308</hAcc><vAcc>0.679346</vAcc></extensions></trkpt>
      <trkpt lon="-4.127079" lat="53.020958"><ele>140.394272</ele><time>2021-07-17T14:37:41Z</time><extensions><speed>1.317080</speed><course>228.667099</course><hAcc>0.877727</hAcc><vAcc>0.680818</vAcc></extensions></trkpt>
      <trkpt lon="-4.127061" lat="53.020953"><ele>140.267761</ele><time>2021-07-17T14:37:42Z</time><extensions><speed>1.314745</speed><course>231.197586</course><hAcc>0.878179</hAcc><vAcc>0.682413</vAcc></extensions></trkpt>
      <trkpt lon="-4.127043" lat="53.020948"><ele>140.155365</ele><time>2021-07-17T14:37:43Z</time><extensions><speed>1.310152</speed><course>231.649063</course><hAcc>0.878640</hAcc><vAcc>0.684033</vAcc></extensions></trkpt>
      <trkpt lon="-4.127026" lat="53.020943"><ele>140.058914</ele><time>2021-07-17T14:37:44Z</time><extensions><speed>1.302987</speed><course>225.252350</course><hAcc>0.879087</hAcc><vAcc>0.685577</vAcc></extensions></trkpt>
      <trkpt lon="-4.127009" lat="53.020938"><ele>139.979889</ele><time>2021-07-17T14:37:45Z</time><extensions><speed>1.293025</speed><course>227.044876</course><hAcc>0.879499</hAcc><vAcc>0.686965</vAcc></extensions></trkpt>
      <trkpt lon="-4.126992" lat="53.020932"><ele>139.918121</ele><time>2021-07-17T14:37:46Z</time><extensions><speed>1.280054</speed><course>232.104660</course><hAcc>0.879860</hAcc><vAcc>0.688135</vAcc></extensions></trkpt>
      <trkpt lon="-4.126975" lat="53.020927"><ele>139.871460</ele><time>2021-07-17T14:37:47Z</time><extensions><speed>1.264236</speed><course>229.338486</course><hAcc>0.880155</hAcc><vAcc>0.689059</vAcc></extensions></trkpt>
      <trkpt lon="-4.126959" lat="53.020921"><ele>139.836868</ele><time>2021-07-17T14:37:48Z</time><extensions><speed>1.245944</speed><course>229.521286</course><hAcc>0.880379</hAcc><vAcc>0.689727</vAcc></extensions></trkpt>
      <trkpt lon="-4.126943" lat="53.020915"><ele>139.811752</ele><time>2021-07-17T14:37:49Z</time><extensions><speed>1.225501</speed><course>230.490311</course><hAcc>0.880527</hAcc><vAcc>0.690144</vAcc></extensions></trkpt>
      <trkpt lon="-4.126927" lat="53.020910"><ele>139.794296</ele><time>2021-07-17T14:37:50Z</time><extensions><speed>1.203791</speed><course>231.378189</course><hAcc>0.880598</hAcc><vAcc>0.690313</vAcc></extensions></trkpt>
      <trkpt lon="-4.126912" lat="53.020905"><ele>139.783432</ele><time>2021-07-17T14:37:51Z</time><extensions><speed>1.182031</speed><course>228.697189</course><hAcc>0.880594</hAcc><vAcc>0.690245</vAcc></extensions></trkpt>
      <trkpt lon="-4.126896" lat="53.020900"><ele>139.778534</ele><time>2021-07-17T14:37:52Z</time><extensions><speed>1.161231</speed><course>226.471390</course><hAcc>0.880518</hAcc><vAcc>0.689949</vAcc></extensions></trkpt>
      <trkpt lon="-4.126881" lat="53.020895"><ele>139.778503</ele><time>2021-07-17T14:37:53Z</time><extensions><speed>1.142481</speed><course>220.030243</course><hAcc>0.880376</hAcc><vAcc>0.689443</vAcc></extensions></trkpt>
      <trkpt lon="-4.126867" lat="53.020890"><ele>139.781815</ele><time>2021-07-17T14:37:54Z</time><extensions><speed>1.126998</speed><course>220.714050</course><hAcc>0.880174</hAcc><vAcc>0.688745</vAcc></extensions></trkpt>
      <trkpt lon="-4.126852" lat="53.020885"><ele>139.787140</ele><time>2021-07-17T14:37:55Z</time><extensions><speed>1.115643</speed><course>225.627274</course><hAcc>0.879919</hAcc><vAcc>0.687876</vAcc></extensions></trkpt>
      <trkpt lon="-4.126837" lat="53.020881"><ele>139.793884</ele><time>2021-07-17T14:37:57Z</time><extensions><speed>1.108310</speed><course>226.764282</course><hAcc>0.879599</hAcc><vAcc>0.686846</vAcc></extensions></trkpt>
      <trkpt lon="-4.126822" lat="53.020876"><ele>139.801819</ele><time>2021-07-17T14:37:58Z</time><extensions><speed>1.104186</speed><course>226.578552</course><hAcc>0.879223</hAcc><vAcc>0.685677</vAcc></extensions></trkpt>
      <trkpt lon="-4.126808" lat="53.020872"><ele>139.810287</ele><time>2021-07-17T14:37:59Z</time><extensions><speed>1.102538</speed><course>225.919083</course><hAcc>0.878815</hAcc><vAcc>0.684399</vAcc></extensions></trkpt>
      <trkpt lon="-4.126793" lat="53.020868"><ele>139.817856</ele><time>2021-07-17T14:38:00Z</time><extensions><speed>1.103154</speed><course>231.063477</course><hAcc>0.878381</hAcc><vAcc>0.683027</vAcc></extensions></trkpt>
      <trkpt lon="-4.126778" lat="53.020864"><ele>139.822815</ele><time>2021-07-17T14:38:01Z</time><extensions><speed>1.106120</speed><course>239.724365</course><hAcc>0.877928</hAcc><vAcc>0.681581</vAcc></extensions></trkpt>
      <trkpt lon="-4.126762" lat="53.020860"><ele>139.823578</ele><time>2021-07-17T14:38:02Z</time><extensions><speed>1.110903</speed><course>234.846985</course><hAcc>0.877467</hAcc><vAcc>0.680087</vAcc></extensions></trkpt>
      <trkpt lon="-4.126747" lat="53.020856"><ele>139.818909</ele><time>2021-07-17T14:38:03Z</time><extensions><speed>1.117280</speed><course>233.853561</course><hAcc>0.877006</hAcc><vAcc>0.678580</vAcc></extensions></trkpt>
      <trkpt lon="-4.126731" lat="53.020853"><ele>139.808212</ele><time>2021-07-17T14:38:04Z</time><extensions><speed>1.126207</speed><course>233.915298</course><hAcc>0.876558</hAcc><vAcc>0.677100</vAcc></extensions></trkpt>
      <trkpt lon="-4.126715" lat="53.020850"><ele>139.791122</ele><time>2021-07-17T14:38:05Z</time><extensions><speed>1.139044</speed><course>223.625214</course><hAcc>0.876131</hAcc><vAcc>0.675691</vAcc></extensions></trkpt>
      <trkpt lon="-4.126699" lat="53.020847"><ele>139.766586</ele><time>2021-07-17T14:38:06Z</time><extensions><speed>1.156849</speed><course>224.382111</course><hAcc>0.875738</hAcc><vAcc>0.674394</vAcc></extensions></trkpt>
      <trkpt lon="-4.126682" lat="53.020844"><ele>139.732758</ele><time>2021-07-17T14:38:07Z</time><extensions><speed>1.180152</speed><course>225.549652</course><hAcc>0.875384</hAcc><vAcc>0.673241</vAcc></extensions></trkpt>
      <trkpt lon="-4.126664" lat="53.020842"><ele>139.688034</ele><time>2021-07-17T14:38:08Z</time><extensions><speed>1.209359</speed><course>226.825943</course><hAcc>0.875073</hAcc><vAcc>0.672248</vAcc></extensions></trkpt>
      <trkpt lon="-4.126647" lat="53.020840"><ele>139.631836</ele><time>2021-07-17T14:38:09Z</time><extensions><speed>1.244569</speed><course>220.216599</course><hAcc>0.874804</hAcc><vAcc>0.671413</vAcc></extensions></trkpt>
      <trkpt lon="-4.126628" lat="53.020838"><ele>139.564774</ele><time>2021-07-17T14:38:10Z</time><extensions><speed>1.284832</speed><course>222.039505</course><hAcc>0.874572</hAcc><vAcc>0.670720</vAcc></extensions></trkpt>
      <trkpt lon="-4.126609" lat="53.020836"><ele>139.487534</ele><time>2021-07-17T14:38:11Z</time><extensions><speed>1.327963</speed><course>227.811584</course><hAcc>0.874371</hAcc><vAcc>0.670136</vAcc></extensions></trkpt>
      <trkpt lon="-4.126589" lat="53.020834"><ele>139.400040</ele><time>2021-07-17T14:38:12Z</time><extensions><speed>1.371822</speed><course>229.822403</course><hAcc>0.874190</hAcc><vAcc>0.669624</vAcc></extensions></trkpt>
      <trkpt lon="-4.126568" lat="53.020833"><ele>139.301666</ele><time>2021-07-17T14:38:13Z</time><extensions><speed>1.414575</speed><course>226.344223</course><hAcc>0.874022</hAcc><vAcc>0.669145</vAcc></extensions></trkpt>
      <trkpt lon="-4.126547" lat="53.020832"><ele>139.189575</ele><time>2021-07-17T14:38:14Z</time><extensions><speed>1.453499</speed><course>215.204285</course><hAcc>0.873843</hAcc><vAcc>0.668641</vAcc></extensions></trkpt>
      <trkpt lon="-4.126525" lat="53.020831"><ele>139.064880</ele><time>2021-07-17T14:38:15Z</time><extensions><speed>1.487133</speed><course>192.608246</course><hAcc>0.873660</hAcc><vAcc>0.668108</vAcc></extensions></trkpt>
      <trkpt lon="-4.126502" lat="53.020831"><ele>138.929535</ele><time>2021-07-17T14:38:16Z</time><extensions><speed>1.515456</speed><course>196.818375</course><hAcc>0.873464</hAcc><vAcc>0.667523</vAcc></extensions></trkpt>
      <trkpt lon="-4.126480" lat="53.020830"><ele>138.784943</ele><time>2021-07-17T14:38:17Z</time><extensions><speed>1.539098</speed><course>200.564194</course><hAcc>0.873249</hAcc><vAcc>0.666870</vAcc></extensions></trkpt>
      <trkpt lon="-4.126457" lat="53.020829"><ele>138.631775</ele><time>2021-07-17T14:38:18Z</time><extensions><speed>1.557848</speed><course>224.718231</course><hAcc>0.873012</hAcc><vAcc>0.666142</vAcc></extensions></trkpt>
      <trkpt lon="-4.126433" lat="53.020829"><ele>138.469238</ele><time>2021-07-17T14:38:19Z</time><extensions><speed>1.570977</speed><course>228.969803</course><hAcc>0.872757</hAcc><vAcc>0.665342</vAcc></extensions></trkpt>
      <trkpt lon="-4.126410" lat="53.020829"><ele>138.296188</ele><time>2021-07-17T14:38:20Z</time><extensions><speed>1.577801</speed><course>250.366501</course><hAcc>0.872485</hAcc><vAcc>0.664480</vAcc></extensions></trkpt>
      <trkpt lon="-4.126386" lat="53.020829"><ele>138.112518</ele><time>2021-07-17T14:38:21Z</time><extensions><speed>1.577382</speed><course>-1.000000</course><hAcc>0.872206</hAcc><vAcc>0.663579</vAcc></extensions></trkpt>
      <trkpt lon="-4.126363" lat="53.020829"><ele>137.919510</ele><time>2021-07-17T14:38:22Z</time><extensions><speed>1.569414</speed><course>232.063629</course><hAcc>0.871928</hAcc><vAcc>0.662668</vAcc></extensions></trkpt>
      <trkpt lon="-4.126340" lat="53.020828"><ele>137.719345</ele><time>2021-07-17T14:38:23Z</time><extensions><speed>1.554906</speed><course>232.063614</course><hAcc>0.871666</hAcc><vAcc>0.661793</vAcc></extensions></trkpt>
      <trkpt lon="-4.126317" lat="53.020828"><ele>137.514008</ele><time>2021-07-17T14:38:24Z</time><extensions><speed>1.535391</speed><course>232.063614</course><hAcc>0.871435</hAcc><vAcc>0.661009</vAcc></extensions></trkpt>
      <trkpt lon="-4.126294" lat="53.020827"><ele>137.305023</ele><time>2021-07-17T14:38:25Z</time><extensions><speed>1.512177</speed><course>232.063599</course><hAcc>0.871252</hAcc><vAcc>0.660376</vAcc></extensions></trkpt>
      <trkpt lon="-4.126272" lat="53.020826"><ele>137.094208</ele><time>2021-07-17T14:38:26Z</time><extensions><speed>1.486870</speed><course>232.063599</course><hAcc>0.871132</hAcc><vAcc>0.659949</vAcc></extensions></trkpt>
      <trkpt lon="-4.126250" lat="53.020825"><ele>136.883667</ele><time>2021-07-17T14:38:27Z</time><extensions><speed>1.460729</speed><course>232.063583</course><hAcc>0.871086</hAcc><vAcc>0.659775</vAcc></extensions></trkpt>
      <trkpt lon="-4.126228" lat="53.020824"><ele>136.675568</ele><time>2021-07-17T14:38:28Z</time><extensions><speed>1.433653</speed><course>232.063583</course><hAcc>0.871126</hAcc><vAcc>0.659889</vAcc></extensions></trkpt>
      <trkpt lon="-4.126207" lat="53.020822"><ele>136.472229</ele><time>2021-07-17T14:38:29Z</time><extensions><speed>1.405500</speed><course>248.555511</course><hAcc>0.871253</hAcc><vAcc>0.660305</vAcc></extensions></trkpt>
      <trkpt lon="-4.126187" lat="53.020821"><ele>136.275360</ele><time>2021-07-17T14:38:30Z</time><extensions><speed>1.377105</speed><course>214.727661</course><hAcc>0.871465</hAcc><vAcc>0.661016</vAcc></extensions></trkpt>
      <trkpt lon="-4.126167" lat="53.020819"><ele>136.085342</ele><time>2021-07-17T14:38:31Z</time><extensions><speed>1.350256</speed><course>215.656113</course><hAcc>0.871754</hAcc><vAcc>0.662000</vAcc></extensions></trkpt>
      <trkpt lon="-4.126147" lat="53.020816"><ele>135.902130</ele><time>2021-07-17T14:38:32Z</time><extensions><speed>1.326940</speed><course>205.637772</course><hAcc>0.872110</hAcc><vAcc>0.663221</vAcc></extensions></trkpt>
      <trkpt lon="-4.126128" lat="53.020814"><ele>135.726517</ele><time>2021-07-17T14:38:33Z</time><extensions><speed>1.308251</speed><course>201.575424</course><hAcc>0.872515</hAcc><vAcc>0.664620</vAcc></extensions></trkpt>
      <trkpt lon="-4.126109" lat="53.020811"><ele>135.560425</ele><time>2021-07-17T14:38:34Z</time><extensions><speed>1.294828</speed><course>196.854248</course><hAcc>0.872946</hAcc><vAcc>0.666109</vAcc></extensions></trkpt>
      <trkpt lon="-4.126090" lat="53.020808"><ele>135.406250</ele><time>2021-07-17T14:38:35Z</time><extensions><speed>1.287670</speed><course>198.264053</course><hAcc>0.873376</hAcc><vAcc>0.667582</vAcc></extensions></trkpt>
      <trkpt lon="-4.126072" lat="53.020806"><ele>135.265671</ele><time>2021-07-17T14:38:36Z</time><extensions><speed>1.287856</speed><course>198.636932</course><hAcc>0.873778</hAcc><vAcc>0.668934</vAcc></extensions></trkpt>
      <trkpt lon="-4.126053" lat="53.020803"><ele>135.138412</ele><time>2021-07-17T14:38:37Z</time><extensions><speed>1.296346</speed><course>192.727798</course><hAcc>0.874133</hAcc><vAcc>0.670086</vAcc></extensions></trkpt>
      <trkpt lon="-4.126034" lat="53.020801"><ele>135.022476</ele><time>2021-07-17T14:38:38Z</time><extensions><speed>1.313923</speed><course>184.691818</course><hAcc>0.874427</hAcc><vAcc>0.670996</vAcc></extensions></trkpt>
      <trkpt lon="-4.126014" lat="53.020799"><ele>134.915695</ele><time>2021-07-17T14:38:39Z</time><extensions><speed>1.340783</speed><course>177.917740</course><hAcc>0.874658</hAcc><vAcc>0.671654</vAcc></extensions></trkpt>
      <trkpt lon="-4.125994" lat="53.020797"><ele>134.816666</ele><time>2021-07-17T14:38:40Z</time><extensions><speed>1.376178</speed><course>169.935883</course><hAcc>0.874827</hAcc><vAcc>0.672085</vAcc></extensions></trkpt>
      <trkpt lon="-4.125974" lat="53.020796"><ele>134.724747</ele><time>2021-07-17T14:38:41Z</time><extensions><speed>1.419254</speed><course>168.290512</course><hAcc>0.874945</hAcc><vAcc>0.672338</vAcc></extensions></trkpt>
      <trkpt lon="-4.125952" lat="53.020795"><ele>134.639969</ele><time>2021-07-17T14:38:42Z</time><extensions><speed>1.468409</speed><course>175.847488</course><hAcc>0.875026</hAcc><vAcc>0.672475</vAcc></extensions></trkpt>
      <trkpt lon="-4.125930" lat="53.020794"><ele>134.562119</ele><time>2021-07-17T14:38:43Z</time><extensions><speed>1.520725</speed><course>182.489380</course><hAcc>0.875084</hAcc><vAcc>0.672560</vAcc></extensions></trkpt>
      <trkpt lon="-4.125907" lat="53.020794"><ele>134.489807</ele><time>2021-07-17T14:38:44Z</time><extensions><speed>1.573271</speed><course>193.224472</course><hAcc>0.875134</hAcc><vAcc>0.672647</vAcc></extensions></trkpt>
      <trkpt lon="-4.125883" lat="53.020794"><ele>134.421616</ele><time>2021-07-17T14:38:45Z</time><extensions><speed>1.623602</speed><course>210.457108</course><hAcc>0.875185</hAcc><vAcc>0.672770</vAcc></extensions></trkpt>
      <trkpt lon="-4.125859" lat="53.020795"><ele>134.357773</ele><time>2021-07-17T14:38:46Z</time><extensions><speed>1.669729</speed><course>227.054108</course><hAcc>0.875242</hAcc><vAcc>0.672944</vAcc></extensions></trkpt>
      <trkpt lon="-4.125833" lat="53.020795"><ele>134.300003</ele><time>2021-07-17T14:38:47Z</time><extensions><speed>1.709031</speed><course>247.666534</course><hAcc>0.875308</hAcc><vAcc>0.673168</vAcc></extensions></trkpt>
      <trkpt lon="-4.125808" lat="53.020796"><ele>134.250092</ele><time>2021-07-17T14:38:48Z</time><extensions><speed>1.738209</speed><course>261.197876</course><hAcc>0.875383</hAcc><vAcc>0.673431</vAcc></extensions></trkpt>
      <trkpt lon="-4.125782" lat="53.020798"><ele>134.208679</ele><time>2021-07-17T14:38:49Z</time><extensions><speed>1.754795</speed><course>263.217255</course><hAcc>0.875462</hAcc><vAcc>0.673716</vAcc></extensions></trkpt>
      <trkpt lon="-4.125756" lat="53.020799"><ele>134.176056</ele><time>2021-07-17T14:38:50Z</time><extensions><speed>1.758470</speed><course>271.463165</course><hAcc>0.875541</hAcc><vAcc>0.674000</vAcc></extensions></trkpt>
      <trkpt lon="-4.125730" lat="53.020801"><ele>134.152863</ele><time>2021-07-17T14:38:51Z</time><extensions><speed>1.750058</speed><course>281.991608</course><hAcc>0.875616</hAcc><vAcc>0.674263</vAcc></extensions></trkpt>
      <trkpt lon="-4.125704" lat="53.020803"><ele>134.140076</ele><time>2021-07-17T14:38:52Z</time><extensions><speed>1.730439</speed><course>285.895782</course><hAcc>0.875682</hAcc><vAcc>0.674489</vAcc></extensions></trkpt>
      <trkpt lon="-4.125679" lat="53.020805"><ele>134.137924</ele><time>2021-07-17T14:38:53Z</time><extensions><speed>1.700802</speed><course>287.327179</course><hAcc>0.875734</hAcc><vAcc>0.674666</vAcc></extensions></trkpt>
      <trkpt lon="-4.125654" lat="53.020807"><ele>134.145325</ele><time>2021-07-17T14:38:54Z</time><extensions><speed>1.662037</speed><course>297.396240</course><hAcc>0.875770</hAcc><vAcc>0.674787</vAcc></extensions></trkpt>
      <trkpt lon="-4.125630" lat="53.020809"><ele>134.160782</ele><time>2021-07-17T14:38:55Z</time><extensions><speed>1.614340</speed><course>299.473175</course><hAcc>0.875788</hAcc><vAcc>0.674850</vAcc></extensions></trkpt>
      <trkpt lon="-4.125606" lat="53.020811"><ele>134.183289</ele><time>2021-07-17T14:38:56Z</time><extensions><speed>1.557855</speed><course>297.683289</course><hAcc>0.875787</hAcc><vAcc>0.674853</vAcc></extensions></trkpt>
      <trkpt lon="-4.125584" lat="53.020814"><ele>134.211670</ele><time>2021-07-17T14:38:57Z</time><extensions><speed>1.494250</speed><course>292.365356</course><hAcc>0.875765</hAcc><vAcc>0.674795</vAcc></extensions></trkpt>
      <trkpt lon="-4.125563" lat="53.020816"><ele>134.243820</ele><time>2021-07-17T14:38:58Z</time><extensions><speed>1.426057</speed><course>291.092651</course><hAcc>0.875721</hAcc><vAcc>0.674667</vAcc></extensions></trkpt>
      <trkpt lon="-4.125542" lat="53.020818"><ele>134.277191</ele><time>2021-07-17T14:38:59Z</time><extensions><speed>1.354710</speed><course>297.007721</course><hAcc>0.875655</hAcc><vAcc>0.674463</vAcc></extensions></trkpt>
      <trkpt lon="-4.125523" lat="53.020820"><ele>134.309708</ele><time>2021-07-17T14:39:00Z</time><extensions><speed>1.280538</speed><course>291.539093</course><hAcc>0.875570</hAcc><vAcc>0.674181</vAcc></extensions></trkpt>
      <trkpt lon="-4.125505" lat="53.020822"><ele>134.339783</ele><time>2021-07-17T14:39:01Z</time><extensions><speed>1.203765</speed><course>293.314819</course><hAcc>0.875468</hAcc><vAcc>0.673831</vAcc></extensions></trkpt>
      <trkpt lon="-4.125487" lat="53.020823"><ele>134.365891</ele><time>2021-07-17T14:39:02Z</time><extensions><speed>1.125388</speed><course>297.043213</course><hAcc>0.875358</hAcc><vAcc>0.673439</vAcc></extensions></trkpt>
      <trkpt lon="-4.125471" lat="53.020825"><ele>134.386642</ele><time>2021-07-17T14:39:03Z</time><extensions><speed>1.048070</speed><course>301.573547</course><hAcc>0.875248</hAcc><vAcc>0.673036</vAcc></extensions></trkpt>
      <trkpt lon="-4.125456" lat="53.020825"><ele>134.401718</ele><time>2021-07-17T14:39:04Z</time><extensions><speed>0.975245</speed><course>305.542847</course><hAcc>0.875150</hAcc><vAcc>0.672662</vAcc></extensions></trkpt>
      <trkpt lon="-4.125442" lat="53.020826"><ele>134.412018</ele><time>2021-07-17T14:39:05Z</time><extensions><speed>0.909688</speed><course>304.461029</course><hAcc>0.875075</hAcc><vAcc>0.672360</vAcc></extensions></trkpt>
      <trkpt lon="-4.125429" lat="53.020826"><ele>134.418732</ele><time>2021-07-17T14:39:06Z</time><extensions><speed>0.853834</speed><course>304.519958</course><hAcc>0.875035</hAcc><vAcc>0.672174</vAcc></extensions></trkpt>
      <trkpt lon="-4.125417" lat="53.020825"><ele>134.422760</ele><time>2021-07-17T14:39:07Z</time><extensions><speed>0.810030</speed><course>306.835541</course><hAcc>0.875039</hAcc><vAcc>0.672140</vAcc></extensions></trkpt>
      <trkpt lon="-4.125405" lat="53.020823"><ele>134.425232</ele><time>2021-07-17T14:39:08Z</time><extensions><speed>0.780015</speed><course>312.924469</course><hAcc>0.875096</hAcc><vAcc>0.672289</vAcc></extensions></trkpt>
      <trkpt lon="-4.125395" lat="53.020821"><ele>134.427811</ele><time>2021-07-17T14:39:09Z</time><extensions><speed>0.764597</speed><course>313.121582</course><hAcc>0.875210</hAcc><vAcc>0.672640</vAcc></extensions></trkpt>
      <trkpt lon="-4.125384" lat="53.020817"><ele>134.432388</ele><time>2021-07-17T14:39:10Z</time><extensions><speed>0.763540</speed><course>312.363678</course><hAcc>0.875382</hAcc><vAcc>0.673200</vAcc></extensions></trkpt>
      <trkpt lon="-4.125375" lat="53.020814"><ele>134.440262</ele><time>2021-07-17T14:39:11Z</time><extensions><speed>0.775111</speed><course>309.905548</course><hAcc>0.875610</hAcc><vAcc>0.673964</vAcc></extensions></trkpt>
      <trkpt lon="-4.125366" lat="53.020809"><ele>134.452484</ele><time>2021-07-17T14:39:12Z</time><extensions><speed>0.796644</speed><course>308.597687</course><hAcc>0.875886</hAcc><vAcc>0.674912</vAcc></extensions></trkpt>
      <trkpt lon="-4.125358" lat="53.020803"><ele>134.470551</ele><time>2021-07-17T14:39:13Z</time><extensions><speed>0.825015</speed><course>307.103394</course><hAcc>0.876200</hAcc><vAcc>0.676005</vAcc></extensions></trkpt>
      <trkpt lon="-4.125351" lat="53.020797"><ele>134.495743</ele><time>2021-07-17T14:39:14Z</time><extensions><speed>0.856518</speed><course>306.897400</course><hAcc>0.876536</hAcc><vAcc>0.677187</vAcc></extensions></trkpt>
      <trkpt lon="-4.125345" lat="53.020790"><ele>134.528656</ele><time>2021-07-17T14:39:15Z</time><extensions><speed>0.886841</speed><course>302.152618</course><hAcc>0.876879</hAcc><vAcc>0.678391</vAcc></extensions></trkpt>
      <trkpt lon="-4.125339" lat="53.020783"><ele>134.569672</ele><time>2021-07-17T14:39:16Z</time><extensions><speed>0.912104</speed><course>297.726410</course><hAcc>0.877209</hAcc><vAcc>0.679545</vAcc></extensions></trkpt>
      <trkpt lon="-4.125335" lat="53.020775"><ele>134.618912</ele><time>2021-07-17T14:39:17Z</time><extensions><speed>0.929848</speed><course>300.194183</course><hAcc>0.877512</hAcc><vAcc>0.680579</vAcc></extensions></trkpt>
      <trkpt lon="-4.125331" lat="53.020767"><ele>134.676147</ele><time>2021-07-17T14:39:18Z</time><extensions><speed>0.938668</speed><course>297.151825</course><hAcc>0.877775</hAcc><vAcc>0.681438</vAcc></extensions></trkpt>
      <trkpt lon="-4.125328" lat="53.020759"><ele>134.740723</ele><time>2021-07-17T14:39:19Z</time><extensions><speed>0.937675</speed><course>298.399384</course><hAcc>0.877989</hAcc><vAcc>0.682094</vAcc></extensions></trkpt>
      <trkpt lon="-4.125325" lat="53.020751"><ele>134.811523</ele><time>2021-07-17T14:39:20Z</time><extensions><speed>0.926465</speed><course>300.837921</course><hAcc>0.878154</hAcc><vAcc>0.682546</vAcc></extensions></trkpt>
      <trkpt lon="-4.125323" lat="53.020743"><ele>134.887131</ele><time>2021-07-17T14:39:21Z</time><extensions><speed>0.905782</speed><course>299.844330</course><hAcc>0.878271</hAcc><vAcc>0.682821</vAcc></extensions></trkpt>
      <trkpt lon="-4.125322" lat="53.020735"><ele>134.966339</ele><time>2021-07-17T14:39:22Z</time><extensions><speed>0.877771</speed><course>300.001373</course><hAcc>0.878348</hAcc><vAcc>0.682958</vAcc></extensions></trkpt>
      <trkpt lon="-4.125321" lat="53.020727"><ele>135.048309</ele><time>2021-07-17T14:39:23Z</time><extensions><speed>0.844812</speed><course>294.568817</course><hAcc>0.878393</hAcc><vAcc>0.683006</vAcc></extensions></trkpt>
      <trkpt lon="-4.125320" lat="53.020720"><ele>135.132278</ele><time>2021-07-17T14:39:24Z</time><extensions><speed>0.808653</speed><course>300.687103</course><hAcc>0.878412</hAcc><vAcc>0.683010</vAcc></extensions></trkpt>
      <trkpt lon="-4.125320" lat="53.020712"><ele>135.217529</ele><time>2021-07-17T14:39:25Z</time><extensions><speed>0.770153</speed><course>297.691925</course><hAcc>0.878411</hAcc><vAcc>0.683004</vAcc></extensions></trkpt>
      <trkpt lon="-4.125320" lat="53.020706"><ele>135.303314</ele><time>2021-07-17T14:39:26Z</time><extensions><speed>0.729850</speed><course>293.928223</course><hAcc>0.878391</hAcc><vAcc>0.682998</vAcc></extensions></trkpt>
      <trkpt lon="-4.125320" lat="53.020699"><ele>135.388901</ele><time>2021-07-17T14:39:27Z</time><extensions><speed>0.688708</speed><course>297.041656</course><hAcc>0.878346</hAcc><vAcc>0.682974</vAcc></extensions></trkpt>
      <trkpt lon="-4.125320" lat="53.020693"><ele>135.473572</ele><time>2021-07-17T14:39:28Z</time><extensions><speed>0.647418</speed><course>298.722290</course><hAcc>0.878269</hAcc><vAcc>0.682894</vAcc></extensions></trkpt>
      <trkpt lon="-4.125320" lat="53.020688"><ele>135.556458</ele><time>2021-07-17T14:39:29Z</time><extensions><speed>0.606059</speed><course>296.674316</course><hAcc>0.878150</hAcc><vAcc>0.682711</vAcc></extensions></trkpt>
      <trkpt lon="-4.125320" lat="53.020682"><ele>135.636490</ele><time>2021-07-17T14:39:30Z</time><extensions><speed>0.564927</speed><course>301.147156</course><hAcc>0.877977</hAcc><vAcc>0.682374</vAcc></extensions></trkpt>
      <trkpt lon="-4.125319" lat="53.020678"><ele>135.712173</ele><time>2021-07-17T14:39:30Z</time><extensions><speed>0.525790</speed><course>301.618805</course><hAcc>0.877759</hAcc><vAcc>0.681828</vAcc></extensions></trkpt>
      <trkpt lon="-4.125318" lat="53.020673"><ele>135.782104</ele><time>2021-07-17T14:39:31Z</time><extensions><speed>0.493035</speed><course>300.678009</course><hAcc>0.877485</hAcc><vAcc>0.680997</vAcc></extensions></trkpt>
      <trkpt lon="-4.125316" lat="53.020669"><ele>135.844727</ele><time>2021-07-17T14:39:32Z</time><extensions><speed>0.472334</speed><course>306.078644</course><hAcc>0.877136</hAcc><vAcc>0.679835</vAcc></extensions></trkpt>
      <trkpt lon="-4.125313" lat="53.020665"><ele>135.899002</ele><time>2021-07-17T14:39:33Z</time><extensions><speed>0.467396</speed><course>302.099213</course><hAcc>0.876720</hAcc><vAcc>0.678367</vAcc></extensions></trkpt>
      <trkpt lon="-4.125310" lat="53.020661"><ele>135.944427</ele><time>2021-07-17T14:39:35Z</time><extensions><speed>0.478689</speed><course>298.253754</course><hAcc>0.876235</hAcc><vAcc>0.676655</vAcc></extensions></trkpt>
      <trkpt lon="-4.125306" lat="53.020658"><ele>135.980789</ele><time>2021-07-17T14:39:36Z</time><extensions><speed>0.503904</speed><course>299.772583</course><hAcc>0.875702</hAcc><vAcc>0.674808</vAcc></extensions></trkpt>
      <trkpt lon="-4.125301" lat="53.020654"><ele>136.008255</ele><time>2021-07-17T14:39:37Z</time><extensions><speed>0.540118</speed><course>299.946075</course><hAcc>0.875165</hAcc><vAcc>0.672951</vAcc></extensions></trkpt>
      <trkpt lon="-4.125295" lat="53.020650"><ele>136.027023</ele><time>2021-07-17T14:39:38Z</time><extensions><speed>0.584429</speed><course>303.968170</course><hAcc>0.874644</hAcc><vAcc>0.671175</vAcc></extensions></trkpt>
      <trkpt lon="-4.125289" lat="53.020647"><ele>136.037354</ele><time>2021-07-17T14:39:39Z</time><extensions><speed>0.634573</speed><course>302.223755</course><hAcc>0.874153</hAcc><vAcc>0.669536</vAcc></extensions></trkpt>
      <trkpt lon="-4.125282" lat="53.020642"><ele>136.039841</ele><time>2021-07-17T14:39:40Z</time><extensions><speed>0.688763</speed><course>303.590851</course><hAcc>0.873702</hAcc><vAcc>0.668064</vAcc></extensions></trkpt>
      <trkpt lon="-4.125274" lat="53.020638"><ele>136.035461</ele><time>2021-07-17T14:39:41Z</time><extensions><speed>0.745503</speed><course>302.656281</course><hAcc>0.873300</hAcc><vAcc>0.666776</vAcc></extensions></trkpt>
      <trkpt lon="-4.125266" lat="53.020633"><ele>136.025101</ele><time>2021-07-17T14:39:42Z</time><extensions><speed>0.803458</speed><course>307.857574</course><hAcc>0.872952</hAcc><vAcc>0.665682</vAcc></extensions></trkpt>
      <trkpt lon="-4.125258" lat="53.020627"><ele>136.009430</ele><time>2021-07-17T14:39:43Z</time><extensions><speed>0.861390</speed><course>306.241272</course><hAcc>0.872661</hAcc><vAcc>0.664773</vAcc></extensions></trkpt>
      <trkpt lon="-4.125250" lat="53.020621"><ele>135.989044</ele><time>2021-07-17T14:39:44Z</time><extensions><speed>0.918331</speed><course>302.560516</course><hAcc>0.872427</hAcc><vAcc>0.664028</vAcc></extensions></trkpt>
      <trkpt lon="-4.125241" lat="53.020614"><ele>135.964081</ele><time>2021-07-17T14:39:45Z</time><extensions><speed>0.973652</speed><course>304.207947</course><hAcc>0.872252</hAcc><vAcc>0.663421</vAcc></extensions></trkpt>
      <trkpt lon="-4.125233" lat="53.020607"><ele>135.933914</ele><time>2021-07-17T14:39:46Z</time><extensions><speed>1.027172</speed><course>304.678192</course><hAcc>0.872142</hAcc><vAcc>0.662938</vAcc></extensions></trkpt>
      <trkpt lon="-4.125224" lat="53.020599"><ele>135.897903</ele><time>2021-07-17T14:39:47Z</time><extensions><speed>1.078271</speed><course>300.816559</course><hAcc>0.872107</hAcc><vAcc>0.662582</vAcc></extensions></trkpt>
      <trkpt lon="-4.125215" lat="53.020590"><ele>135.856186</ele><time>2021-07-17T14:39:48Z</time><extensions><speed>1.125774</speed><course>302.457642</course><hAcc>0.872163</hAcc><vAcc>0.662364</vAcc></extensions></trkpt>
      <trkpt lon="-4.125207" lat="53.020581"><ele>135.808960</ele><time>2021-07-17T14:39:49Z</time><extensions><speed>1.168304</speed><course>303.405792</course><hAcc>0.872325</hAcc><vAcc>0.662277</vAcc></extensions></trkpt>
      <trkpt lon="-4.125197" lat="53.020572"><ele>135.756134</ele><time>2021-07-17T14:39:50Z</time><extensions><speed>1.205228</speed><course>305.179382</course><hAcc>0.872601</hAcc><vAcc>0.662292</vAcc></extensions></trkpt>
      <trkpt lon="-4.125188" lat="53.020563"><ele>135.697372</ele><time>2021-07-17T14:39:51Z</time><extensions><speed>1.237108</speed><course>301.811188</course><hAcc>0.873000</hAcc><vAcc>0.662380</vAcc></extensions></trkpt>
      <trkpt lon="-4.125178" lat="53.020553"><ele>135.632492</ele><time>2021-07-17T14:39:52Z</time><extensions><speed>1.264948</speed><course>294.111877</course><hAcc>0.873526</hAcc><vAcc>0.662517</vAcc></extensions></trkpt>
      <trkpt lon="-4.125169" lat="53.020543"><ele>135.561401</ele><time>2021-07-17T14:39:53Z</time><extensions><speed>1.289744</speed><course>291.186249</course><hAcc>0.874173</hAcc><vAcc>0.662691</vAcc></extensions></trkpt>
      <trkpt lon="-4.125159" lat="53.020533"><ele>135.483871</ele><time>2021-07-17T14:39:54Z</time><extensions><speed>1.312434</speed><course>291.833313</course><hAcc>0.874921</hAcc><vAcc>0.662896</vAcc></extensions></trkpt>
      <trkpt lon="-4.125148" lat="53.020523"><ele>135.399857</ele><time>2021-07-17T14:39:55Z</time><extensions><speed>1.333885</speed><course>293.198639</course><hAcc>0.875725</hAcc><vAcc>0.663127</vAcc></extensions></trkpt>
      <trkpt lon="-4.125138" lat="53.020513"><ele>135.310196</ele><time>2021-07-17T14:39:56Z</time><extensions><speed>1.354429</speed><course>297.953094</course><hAcc>0.876521</hAcc><vAcc>0.663384</vAcc></extensions></trkpt>
      <trkpt lon="-4.125128" lat="53.020502"><ele>135.216339</ele><time>2021-07-17T14:39:57Z</time><extensions><speed>1.373089</speed><course>294.998413</course><hAcc>0.877234</hAcc><vAcc>0.663669</vAcc></extensions></trkpt>
      <trkpt lon="-4.125117" lat="53.020492"><ele>135.119797</ele><time>2021-07-17T14:39:58Z</time><extensions><speed>1.387265</speed><course>290.333923</course><hAcc>0.877792</hAcc><vAcc>0.663978</vAcc></extensions></trkpt>
      <trkpt lon="-4.125107" lat="53.020481"><ele>135.021774</ele><time>2021-07-17T14:39:59Z</time><extensions><speed>1.394536</speed><course>297.336884</course><hAcc>0.878150</hAcc><vAcc>0.664298</vAcc></extensions></trkpt>
      <trkpt lon="-4.125097" lat="53.020470"><ele>134.923233</ele><time>2021-07-17T14:40:00Z</time><extensions><speed>1.393164</speed><course>291.763641</course><hAcc>0.878293</hAcc><vAcc>0.664601</vAcc></extensions></trkpt>
      <trkpt lon="-4.125087" lat="53.020459"><ele>134.825241</ele><time>2021-07-17T14:40:01Z</time><extensions><speed>1.380860</speed><course>293.588959</course><hAcc>0.878219</hAcc><vAcc>0.664843</vAcc></extensions></trkpt>
      <trkpt lon="-4.125078" lat="53.020448"><ele>134.729034</ele><time>2021-07-17T14:40:02Z</time><extensions><speed>1.355486</speed><course>298.534668</course><hAcc>0.877932</hAcc><vAcc>0.664961</vAcc></extensions></trkpt>
      <trkpt lon="-4.125069" lat="53.020437"><ele>134.635788</ele><time>2021-07-17T14:40:03Z</time><extensions><speed>1.319083</speed><course>294.834351</course><hAcc>0.877444</hAcc><vAcc>0.664907</vAcc></extensions></trkpt>
      <trkpt lon="-4.125061" lat="53.020427"><ele>134.547104</ele><time>2021-07-17T14:40:04Z</time><extensions><speed>1.277103</speed><course>297.698059</course><hAcc>0.876793</hAcc><vAcc>0.664684</vAcc></extensions></trkpt>
      <trkpt lon="-4.125053" lat="53.020416"><ele>134.464752</ele><time>2021-07-17T14:40:05Z</time><extensions><speed>1.234081</speed><course>298.511444</course><hAcc>0.876040</hAcc><vAcc>0.664352</vAcc></extensions></trkpt>
      <trkpt lon="-4.125046" lat="53.020406"><ele>134.389786</ele><time>2021-07-17T14:40:06Z</time><extensions><speed>1.193668</speed><course>303.054443</course><hAcc>0.875263</hAcc><vAcc>0.664008</vAcc></extensions></trkpt>
      <trkpt lon="-4.125040" lat="53.020396"><ele>134.322723</ele><time>2021-07-17T14:40:07Z</time><extensions><speed>1.158646</speed><course>300.594757</course><hAcc>0.874545</hAcc><vAcc>0.663749</vAcc></extensions></trkpt>
      <trkpt lon="-4.125034" lat="53.020387"><ele>134.264221</ele><time>2021-07-17T14:40:08Z</time><extensions><speed>1.130199</speed><course>303.489990</course><hAcc>0.873946</hAcc><vAcc>0.663653</vAcc></extensions></trkpt>
      <trkpt lon="-4.125029" lat="53.020377"><ele>134.215012</ele><time>2021-07-17T14:40:09Z</time><extensions><speed>1.108277</speed><course>307.296783</course><hAcc>0.873497</hAcc><vAcc>0.663758</vAcc></extensions></trkpt>
      <trkpt lon="-4.125024" lat="53.020368"><ele>134.175537</ele><time>2021-07-17T14:40:10Z</time><extensions><speed>1.092059</speed><course>306.846466</course><hAcc>0.873203</hAcc><vAcc>0.664066</vAcc></extensions></trkpt>
      <trkpt lon="-4.125020" lat="53.020358"><ele>134.145767</ele><time>2021-07-17T14:40:11Z</time><extensions><speed>1.079777</speed><course>314.303711</course><hAcc>0.873047</hAcc><vAcc>0.664531</vAcc></extensions></trkpt>
      <trkpt lon="-4.125015" lat="53.020349"><ele>134.125610</ele><time>2021-07-17T14:40:12Z</time><extensions><speed>1.070821</speed><course>316.753265</course><hAcc>0.872998</hAcc><vAcc>0.665075</vAcc></extensions></trkpt>
      <trkpt lon="-4.125011" lat="53.020340"><ele>134.114532</ele><time>2021-07-17T14:40:13Z</time><extensions><speed>1.066420</speed><course>312.101562</course><hAcc>0.873024</hAcc><vAcc>0.665625</vAcc></extensions></trkpt>
      <trkpt lon="-4.125007" lat="53.020331"><ele>134.111343</ele><time>2021-07-17T14:40:14Z</time><extensions><speed>1.067514</speed><course>310.983948</course><hAcc>0.873097</hAcc><vAcc>0.666136</vAcc></extensions></trkpt>
      <trkpt lon="-4.125003" lat="53.020321"><ele>134.114578</ele><time>2021-07-17T14:40:15Z</time><extensions><speed>1.074510</speed><course>316.824890</course><hAcc>0.873199</hAcc><vAcc>0.666594</vAcc></extensions></trkpt>
      <trkpt lon="-4.124999" lat="53.020312"><ele>134.122894</ele><time>2021-07-17T14:40:16Z</time><extensions><speed>1.087217</speed><course>324.005005</course><hAcc>0.873316</hAcc><vAcc>0.667008</vAcc></extensions></trkpt>
      <trkpt lon="-4.124994" lat="53.020302"><ele>134.134888</ele><time>2021-07-17T14:40:17Z</time><extensions><speed>1.104966</speed><course>322.091736</course><hAcc>0.873443</hAcc><vAcc>0.667401</vAcc></extensions></trkpt>
      <trkpt lon="-4.124989" lat="53.020293"><ele>134.148590</ele><time>2021-07-17T14:40:18Z</time><extensions><speed>1.127068</speed><course>322.830170</course><hAcc>0.873581</hAcc><vAcc>0.667803</vAcc></extensions></trkpt>
      <trkpt lon="-4.124984" lat="53.020283"><ele>134.161652</ele><time>2021-07-17T14:40:19Z</time><extensions><speed>1.153145</speed><course>325.823517</course><hAcc>0.873730</hAcc><vAcc>0.668243</vAcc></extensions></trkpt>
      <trkpt lon="-4.124979" lat="53.020273"><ele>134.172089</ele><time>2021-07-17T14:40:20Z</time><extensions><speed>1.183090</speed><course>331.853210</course><hAcc>0.873892</hAcc><vAcc>0.668738</vAcc></extensions></trkpt>
      <trkpt lon="-4.124973" lat="53.020263"><ele>134.177795</ele><time>2021-07-17T14:40:21Z</time><extensions><speed>1.216964</speed><course>331.260956</course><hAcc>0.874066</hAcc><vAcc>0.669293</vAcc></extensions></trkpt>
      <trkpt lon="-4.124967" lat="53.020252"><ele>134.175980</ele><time>2021-07-17T14:40:22Z</time><extensions><speed>1.255395</speed><course>329.072571</course><hAcc>0.874252</hAcc><vAcc>0.669898</vAcc></extensions></trkpt>
      <trkpt lon="-4.124960" lat="53.020242"><ele>134.163742</ele><time>2021-07-17T14:40:23Z</time><extensions><speed>1.298349</speed><course>325.473938</course><hAcc>0.874444</hAcc><vAcc>0.670531</vAcc></extensions></trkpt>
      <trkpt lon="-4.124953" lat="53.020231"><ele>134.138687</ele><time>2021-07-17T14:40:24Z</time><extensions><speed>1.344792</speed><course>325.383026</course><hAcc>0.874638</hAcc><vAcc>0.671168</vAcc></extensions></trkpt>
      <trkpt lon="-4.124946" lat="53.020219"><ele>134.099243</ele><time>2021-07-17T14:40:25Z</time><extensions><speed>1.393440</speed><course>325.061401</course><hAcc>0.874832</hAcc><vAcc>0.671793</vAcc></extensions></trkpt>
      <trkpt lon="-4.124938" lat="53.020207"><ele>134.043900</ele><time>2021-07-17T14:40:26Z</time><extensions><speed>1.442859</speed><course>325.207275</course><hAcc>0.875021</hAcc><vAcc>0.672394</vAcc></extensions></trkpt>
      <trkpt lon="-4.124930" lat="53.020195"><ele>133.970413</ele><time>2021-07-17T14:40:27Z</time><extensions><speed>1.492109</speed><course>322.410889</course><hAcc>0.875207</hAcc><vAcc>0.672967</vAcc></extensions></trkpt>
      <trkpt lon="-4.124921" lat="53.020182"><ele>133.876434</ele><time>2021-07-17T14:40:28Z</time><extensions><speed>1.541085</speed><course>319.218658</course><hAcc>0.875389</hAcc><vAcc>0.673515</vAcc></extensions></trkpt>
      <trkpt lon="-4.124912" lat="53.020169"><ele>133.760544</ele><time>2021-07-17T14:40:29Z</time><extensions><speed>1.589775</speed><course>319.790588</course><hAcc>0.875569</hAcc><vAcc>0.674047</vAcc></extensions></trkpt>
      <trkpt lon="-4.124903" lat="53.020156"><ele>133.621262</ele><time>2021-07-17T14:40:30Z</time><extensions><speed>1.637146</speed><course>318.972229</course><hAcc>0.875751</hAcc><vAcc>0.674585</vAcc></extensions></trkpt>
      <trkpt lon="-4.124892" lat="53.020143"><ele>133.456543</ele><time>2021-07-17T14:40:31Z</time><extensions><speed>1.681211</speed><course>320.354065</course><hAcc>0.875937</hAcc><vAcc>0.675151</vAcc></extensions></trkpt>
      <trkpt lon="-4.124881" lat="53.020129"><ele>133.264511</ele><time>2021-07-17T14:40:32Z</time><extensions><speed>1.720184</speed><course>320.541016</course><hAcc>0.876130</hAcc><vAcc>0.675762</vAcc></extensions></trkpt>
      <trkpt lon="-4.124869" lat="53.020115"><ele>133.044067</ele><time>2021-07-17T14:40:33Z</time><extensions><speed>1.752634</speed><course>317.906189</course><hAcc>0.876328</hAcc><vAcc>0.676420</vAcc></extensions></trkpt>
      <trkpt lon="-4.124856" lat="53.020101"><ele>132.794937</ele><time>2021-07-17T14:40:34Z</time><extensions><speed>1.777680</speed><course>316.077393</course><hAcc>0.876526</hAcc><vAcc>0.677113</vAcc></extensions></trkpt>
      <trkpt lon="-4.124843" lat="53.020087"><ele>132.516891</ele><time>2021-07-17T14:40:35Z</time><extensions><speed>1.794896</speed><course>307.356537</course><hAcc>0.876718</hAcc><vAcc>0.677812</vAcc></extensions></trkpt>
      <trkpt lon="-4.124829" lat="53.020074"><ele>132.210175</ele><time>2021-07-17T14:40:36Z</time><extensions><speed>1.803255</speed><course>302.004150</course><hAcc>0.876892</hAcc><vAcc>0.678468</vAcc></extensions></trkpt>
      <trkpt lon="-4.124814" lat="53.020060"><ele>131.876953</ele><time>2021-07-17T14:40:37Z</time><extensions><speed>1.802775</speed><course>310.520874</course><hAcc>0.877036</hAcc><vAcc>0.679017</vAcc></extensions></trkpt>
      <trkpt lon="-4.124798" lat="53.020047"><ele>131.521561</ele><time>2021-07-17T14:40:38Z</time><extensions><speed>1.794980</speed><course>307.778412</course><hAcc>0.877137</hAcc><vAcc>0.679398</vAcc></extensions></trkpt>
      <trkpt lon="-4.124782" lat="53.020034"><ele>131.149094</ele><time>2021-07-17T14:40:39Z</time><extensions><speed>1.781422</speed><course>310.132080</course><hAcc>0.877186</hAcc><vAcc>0.679573</vAcc></extensions></trkpt>
      <trkpt lon="-4.124766" lat="53.020022"><ele>130.763977</ele><time>2021-07-17T14:40:40Z</time><extensions><speed>1.763484</speed><course>310.327301</course><hAcc>0.877182</hAcc><vAcc>0.679529</vAcc></extensions></trkpt>
      <trkpt lon="-4.124749" lat="53.020010"><ele>130.369354</ele><time>2021-07-17T14:40:41Z</time><extensions><speed>1.742130</speed><course>308.925873</course><hAcc>0.877125</hAcc><vAcc>0.679287</vAcc></extensions></trkpt>
      <trkpt lon="-4.124732" lat="53.019998"><ele>129.967682</ele><time>2021-07-17T14:40:42Z</time><extensions><speed>1.717995</speed><course>308.955322</course><hAcc>0.877022</hAcc><vAcc>0.678884</vAcc></extensions></trkpt>
      <trkpt lon="-4.124714" lat="53.019987"><ele>129.561401</ele><time>2021-07-17T14:40:43Z</time><extensions><speed>1.692024</speed><course>303.152588</course><hAcc>0.876880</hAcc><vAcc>0.678362</vAcc></extensions></trkpt>
      <trkpt lon="-4.124697" lat="53.019976"><ele>129.152512</ele><time>2021-07-17T14:40:44Z</time><extensions><speed>1.665418</speed><course>313.156525</course><hAcc>0.876709</hAcc><vAcc>0.677762</vAcc></extensions></trkpt>
      <trkpt lon="-4.124680" lat="53.019965"><ele>128.742371</ele><time>2021-07-17T14:40:45Z</time><extensions><speed>1.638812</speed><course>307.864197</course><hAcc>0.876515</hAcc><vAcc>0.677114</vAcc></extensions></trkpt>
      <trkpt lon="-4.124663" lat="53.019955"><ele>128.332336</ele><time>2021-07-17T14:40:46Z</time><extensions><speed>1.612319</speed><course>309.541687</course><hAcc>0.876303</hAcc><vAcc>0.676429</vAcc></extensions></trkpt>
      <trkpt lon="-4.124645" lat="53.019945"><ele>127.924911</ele><time>2021-07-17T14:40:47Z</time><extensions><speed>1.585418</speed><course>312.130341</course><hAcc>0.876076</hAcc><vAcc>0.675711</vAcc></extensions></trkpt>
      <trkpt lon="-4.124628" lat="53.019936"><ele>127.524643</ele><time>2021-07-17T14:40:48Z</time><extensions><speed>1.557967</speed><course>310.268982</course><hAcc>0.875838</hAcc><vAcc>0.674961</vAcc></extensions></trkpt>
      <trkpt lon="-4.124611" lat="53.019926"><ele>127.136795</ele><time>2021-07-17T14:40:49Z</time><extensions><speed>1.530322</speed><course>308.247070</course><hAcc>0.875590</hAcc><vAcc>0.674181</vAcc></extensions></trkpt>
      <trkpt lon="-4.124595" lat="53.019917"><ele>126.765282</ele><time>2021-07-17T14:40:50Z</time><extensions><speed>1.502387</speed><course>304.229858</course><hAcc>0.875334</hAcc><vAcc>0.673374</vAcc></extensions></trkpt>
      <trkpt lon="-4.124578" lat="53.019908"><ele>126.412025</ele><time>2021-07-17T14:40:51Z</time><extensions><speed>1.473565</speed><course>308.310059</course><hAcc>0.875074</hAcc><vAcc>0.672553</vAcc></extensions></trkpt>
      <trkpt lon="-4.124562" lat="53.019899"><ele>126.077843</ele><time>2021-07-17T14:40:52Z</time><extensions><speed>1.443217</speed><course>311.142822</course><hAcc>0.874810</hAcc><vAcc>0.671723</vAcc></extensions></trkpt>
      <trkpt lon="-4.124546" lat="53.019891"><ele>125.763412</ele><time>2021-07-17T14:40:53Z</time><extensions><speed>1.411647</speed><course>305.518036</course><hAcc>0.874543</hAcc><vAcc>0.670887</vAcc></extensions></trkpt>
      <trkpt lon="-4.124531" lat="53.019882"><ele>125.468925</ele><time>2021-07-17T14:40:54Z</time><extensions><speed>1.378999</speed><course>303.061462</course><hAcc>0.874274</hAcc><vAcc>0.670045</vAcc></extensions></trkpt>
      <trkpt lon="-4.124517" lat="53.019873"><ele>125.193634</ele><time>2021-07-17T14:40:55Z</time><extensions><speed>1.345595</speed><course>298.232086</course><hAcc>0.874003</hAcc><vAcc>0.669198</vAcc></extensions></trkpt>
      <trkpt lon="-4.124503" lat="53.019865"><ele>124.936737</ele><time>2021-07-17T14:40:56Z</time><extensions><speed>1.312695</speed><course>289.358276</course><hAcc>0.873730</hAcc><vAcc>0.668344</vAcc></extensions></trkpt>
      <trkpt lon="-4.124490" lat="53.019856"><ele>124.698296</ele><time>2021-07-17T14:40:57Z</time><extensions><speed>1.281911</speed><course>285.924469</course><hAcc>0.873457</hAcc><vAcc>0.667484</vAcc></extensions></trkpt>
      <trkpt lon="-4.124478" lat="53.019847"><ele>124.478294</ele><time>2021-07-17T14:40:58Z</time><extensions><speed>1.255214</speed><course>280.520447</course><hAcc>0.873183</hAcc><vAcc>0.666623</vAcc></extensions></trkpt>
      <trkpt lon="-4.124467" lat="53.019839"><ele>124.275574</ele><time>2021-07-17T14:40:59Z</time><extensions><speed>1.234269</speed><course>286.862061</course><hAcc>0.872913</hAcc><vAcc>0.665774</vAcc></extensions></trkpt>
      <trkpt lon="-4.124456" lat="53.019830"><ele>124.088379</ele><time>2021-07-17T14:41:00Z</time><extensions><speed>1.220149</speed><course>295.700317</course><hAcc>0.872651</hAcc><vAcc>0.664952</vAcc></extensions></trkpt>
      <trkpt lon="-4.124446" lat="53.019820"><ele>123.915047</ele><time>2021-07-17T14:41:01Z</time><extensions><speed>1.213263</speed><course>296.161560</course><hAcc>0.872399</hAcc><vAcc>0.664167</vAcc></extensions></trkpt>
      <trkpt lon="-4.124437" lat="53.019811"><ele>123.754410</ele><time>2021-07-17T14:41:02Z</time><extensions><speed>1.213951</speed><course>298.229218</course><hAcc>0.872160</hAcc><vAcc>0.663422</vAcc></extensions></trkpt>
      <trkpt lon="-4.124429" lat="53.019801"><ele>123.605713</ele><time>2021-07-17T14:41:03Z</time><extensions><speed>1.222646</speed><course>297.545471</course><hAcc>0.871937</hAcc><vAcc>0.662713</vAcc></extensions></trkpt>
      <trkpt lon="-4.124421" lat="53.019791"><ele>123.468102</ele><time>2021-07-17T14:41:04Z</time><extensions><speed>1.239427</speed><course>292.454163</course><hAcc>0.871732</hAcc><vAcc>0.662043</vAcc></extensions></trkpt>
      <trkpt lon="-4.124413" lat="53.019781"><ele>123.340363</ele><time>2021-07-17T14:41:05Z</time><extensions><speed>1.263967</speed><course>287.195465</course><hAcc>0.871555</hAcc><vAcc>0.661439</vAcc></extensions></trkpt>
      <trkpt lon="-4.124406" lat="53.019770"><ele>123.221581</ele><time>2021-07-17T14:41:06Z</time><extensions><speed>1.295170</speed><course>283.339600</course><hAcc>0.871420</hAcc><vAcc>0.660952</vAcc></extensions></trkpt>
      <trkpt lon="-4.124400" lat="53.019759"><ele>123.111298</ele><time>2021-07-17T14:41:07Z</time><extensions><speed>1.331532</speed><course>283.687531</course><hAcc>0.871343</hAcc><vAcc>0.660650</vAcc></extensions></trkpt>
      <trkpt lon="-4.124393" lat="53.019748"><ele>123.008766</ele><time>2021-07-17T14:41:08Z</time><extensions><speed>1.371469</speed><course>284.089417</course><hAcc>0.871341</hAcc><vAcc>0.660598</vAcc></extensions></trkpt>
      <trkpt lon="-4.124386" lat="53.019736"><ele>122.912659</ele><time>2021-07-17T14:41:09Z</time><extensions><speed>1.413161</speed><course>286.432800</course><hAcc>0.871424</hAcc><vAcc>0.660845</vAcc></extensions></trkpt>
      <trkpt lon="-4.124380" lat="53.019724"><ele>122.821442</ele><time>2021-07-17T14:41:10Z</time><extensions><speed>1.454635</speed><course>288.844025</course><hAcc>0.871598</hAcc><vAcc>0.661414</vAcc></extensions></trkpt>
      <trkpt lon="-4.124372" lat="53.019711"><ele>122.733894</ele><time>2021-07-17T14:41:11Z</time><extensions><speed>1.493623</speed><course>294.600861</course><hAcc>0.871858</hAcc><vAcc>0.662288</vAcc></extensions></trkpt>
      <trkpt lon="-4.124364" lat="53.019698"><ele>122.649170</ele><time>2021-07-17T14:41:12Z</time><extensions><speed>1.528199</speed><course>289.399475</course><hAcc>0.872189</hAcc><vAcc>0.663413</vAcc></extensions></trkpt>
      <trkpt lon="-4.124356" lat="53.019686"><ele>122.566170</ele><time>2021-07-17T14:41:13Z</time><extensions><speed>1.557347</speed><course>292.462738</course><hAcc>0.872571</hAcc><vAcc>0.664713</vAcc></extensions></trkpt>
      <trkpt lon="-4.124347" lat="53.019673"><ele>122.482750</ele><time>2021-07-17T14:41:14Z</time><extensions><speed>1.580590</speed><course>292.044128</course><hAcc>0.872981</hAcc><vAcc>0.666105</vAcc></extensions></trkpt>
      <trkpt lon="-4.124337" lat="53.019660"><ele>122.396484</ele><time>2021-07-17T14:41:15Z</time><extensions><speed>1.597259</speed><course>289.426849</course><hAcc>0.873398</hAcc><vAcc>0.667508</vAcc></extensions></trkpt>
      <trkpt lon="-4.124327" lat="53.019647"><ele>122.306206</ele><time>2021-07-17T14:41:16Z</time><extensions><speed>1.606167</speed><course>292.821838</course><hAcc>0.873800</hAcc><vAcc>0.668846</vAcc></extensions></trkpt>
      <trkpt lon="-4.124316" lat="53.019634"><ele>122.211746</ele><time>2021-07-17T14:41:17Z</time><extensions><speed>1.606537</speed><course>287.405121</course><hAcc>0.874168</hAcc><vAcc>0.670054</vAcc></extensions></trkpt>
      <trkpt lon="-4.124304" lat="53.019621"><ele>122.112701</ele><time>2021-07-17T14:41:18Z</time><extensions><speed>1.598898</speed><course>289.328461</course><hAcc>0.874486</hAcc><vAcc>0.671082</vAcc></extensions></trkpt>
      <trkpt lon="-4.124292" lat="53.019609"><ele>122.008469</ele><time>2021-07-17T14:41:19Z</time><extensions><speed>1.584449</speed><course>290.686554</course><hAcc>0.874744</hAcc><vAcc>0.671898</vAcc></extensions></trkpt>
      <trkpt lon="-4.124280" lat="53.019597"><ele>121.898766</ele><time>2021-07-17T14:41:20Z</time><extensions><speed>1.564141</speed><course>291.519623</course><hAcc>0.874936</hAcc><vAcc>0.672487</vAcc></extensions></trkpt>
      <trkpt lon="-4.124267" lat="53.019585"><ele>121.783882</ele><time>2021-07-17T14:41:21Z</time><extensions><speed>1.539015</speed><course>289.260345</course><hAcc>0.875060</hAcc><vAcc>0.672847</vAcc></extensions></trkpt>
      <trkpt lon="-4.124254" lat="53.019574"><ele>121.664131</ele><time>2021-07-17T14:41:22Z</time><extensions><speed>1.510724</speed><course>291.671295</course><hAcc>0.875116</hAcc><vAcc>0.672983</vAcc></extensions></trkpt>
      <trkpt lon="-4.124241" lat="53.019563"><ele>121.539085</ele><time>2021-07-17T14:41:23Z</time><extensions><speed>1.481178</speed><course>285.797272</course><hAcc>0.875107</hAcc><vAcc>0.672912</vAcc></extensions></trkpt>
      <trkpt lon="-4.124228" lat="53.019553"><ele>121.408264</ele><time>2021-07-17T14:41:24Z</time><extensions><speed>1.452003</speed><course>284.045776</course><hAcc>0.875040</hAcc><vAcc>0.672662</vAcc></extensions></trkpt>
      <trkpt lon="-4.124214" lat="53.019543"><ele>121.272293</ele><time>2021-07-17T14:41:25Z</time><extensions><speed>1.424519</speed><course>290.744446</course><hAcc>0.874921</hAcc><vAcc>0.672269</vAcc></extensions></trkpt>
      <trkpt lon="-4.124200" lat="53.019533"><ele>121.132431</ele><time>2021-07-17T14:41:26Z</time><extensions><speed>1.399721</speed><course>286.155334</course><hAcc>0.874756</hAcc><vAcc>0.671756</vAcc></extensions></trkpt>
      <trkpt lon="-4.124185" lat="53.019524"><ele>120.989883</ele><time>2021-07-17T14:41:27Z</time><extensions><speed>1.378019</speed><course>292.078705</course><hAcc>0.874547</hAcc><vAcc>0.671126</vAcc></extensions></trkpt>
      <trkpt lon="-4.124171" lat="53.019516"><ele>120.846191</ele><time>2021-07-17T14:41:28Z</time><extensions><speed>1.359417</speed><course>292.906311</course><hAcc>0.874296</hAcc><vAcc>0.670365</vAcc></extensions></trkpt>
      <trkpt lon="-4.124156" lat="53.019508"><ele>120.703590</ele><time>2021-07-17T14:41:29Z</time><extensions><speed>1.343590</speed><course>291.462067</course><hAcc>0.874002</hAcc><vAcc>0.669457</vAcc></extensions></trkpt>
      <trkpt lon="-4.124140" lat="53.019500"><ele>120.564796</ele><time>2021-07-17T14:41:30Z</time><extensions><speed>1.329501</speed><course>290.448425</course><hAcc>0.873671</hAcc><vAcc>0.668402</vAcc></extensions></trkpt>
      <trkpt lon="-4.124125" lat="53.019493"><ele>120.432350</ele><time>2021-07-17T14:41:31Z</time><extensions><speed>1.316921</speed><course>295.857269</course><hAcc>0.873312</hAcc><vAcc>0.667230</vAcc></extensions></trkpt>
      <trkpt lon="-4.124109" lat="53.019486"><ele>120.307686</ele><time>2021-07-17T14:41:32Z</time><extensions><speed>1.306353</speed><course>298.185364</course><hAcc>0.872938</hAcc><vAcc>0.665992</vAcc></extensions></trkpt>
      <trkpt lon="-4.124094" lat="53.019479"><ele>120.191689</ele><time>2021-07-17T14:41:33Z</time><extensions><speed>1.297586</speed><course>294.469940</course><hAcc>0.872568</hAcc><vAcc>0.664757</vAcc></extensions></trkpt>
      <trkpt lon="-4.124078" lat="53.019472"><ele>120.085747</ele><time>2021-07-17T14:41:34Z</time><extensions><speed>1.290377</speed><course>292.898438</course><hAcc>0.872218</hAcc><vAcc>0.663594</vAcc></extensions></trkpt>
      <trkpt lon="-4.124062" lat="53.019465"><ele>119.991638</ele><time>2021-07-17T14:41:35Z</time><extensions><speed>1.284633</speed><course>292.422791</course><hAcc>0.871903</hAcc><vAcc>0.662565</vAcc></extensions></trkpt>
      <trkpt lon="-4.124046" lat="53.019459"><ele>119.910477</ele><time>2021-07-17T14:41:36Z</time><extensions><speed>1.280006</speed><course>292.622986</course><hAcc>0.871635</hAcc><vAcc>0.661713</vAcc></extensions></trkpt>
      <trkpt lon="-4.124030" lat="53.019453"><ele>119.842033</ele><time>2021-07-17T14:41:36Z</time><extensions><speed>1.275775</speed><course>292.749084</course><hAcc>0.871440</hAcc><vAcc>0.661076</vAcc></extensions></trkpt>
      <trkpt lon="-4.124014" lat="53.019447"><ele>119.784943</ele><time>2021-07-17T14:41:37Z</time><extensions><speed>1.271430</speed><course>294.832458</course><hAcc>0.871317</hAcc><vAcc>0.660651</vAcc></extensions></trkpt>
      <trkpt lon="-4.123998" lat="53.019441"><ele>119.737930</ele><time>2021-07-17T14:41:38Z</time><extensions><speed>1.267115</speed><course>290.563019</course><hAcc>0.871246</hAcc><vAcc>0.660407</vAcc></extensions></trkpt>
      <trkpt lon="-4.123982" lat="53.019434"><ele>119.699997</ele><time>2021-07-17T14:41:39Z</time><extensions><speed>1.262987</speed><course>288.082062</course><hAcc>0.871223</hAcc><vAcc>0.660324</vAcc></extensions></trkpt>
      <trkpt lon="-4.123967" lat="53.019428"><ele>119.670479</ele><time>2021-07-17T14:41:41Z</time><extensions><speed>1.258872</speed><course>289.238037</course><hAcc>0.871224</hAcc><vAcc>0.660363</vAcc></extensions></trkpt>
      <trkpt lon="-4.123951" lat="53.019422"><ele>119.648529</ele><time>2021-07-17T14:41:42Z</time><extensions><speed>1.255041</speed><course>289.037109</course><hAcc>0.871240</hAcc><vAcc>0.660498</vAcc></extensions></trkpt>
      <trkpt lon="-4.123936" lat="53.019415"><ele>119.632607</ele><time>2021-07-17T14:41:42Z</time><extensions><speed>1.252489</speed><course>291.884949</course><hAcc>0.871301</hAcc><vAcc>0.660728</vAcc></extensions></trkpt>
      <trkpt lon="-4.123921" lat="53.019409"><ele>119.621292</ele><time>2021-07-17T14:41:43Z</time><extensions><speed>1.251629</speed><course>287.567657</course><hAcc>0.871399</hAcc><vAcc>0.661030</vAcc></extensions></trkpt>
      <trkpt lon="-4.123906" lat="53.019402"><ele>119.614174</ele><time>2021-07-17T14:41:44Z</time><extensions><speed>1.252437</speed><course>291.768890</course><hAcc>0.871508</hAcc><vAcc>0.661373</vAcc></extensions></trkpt>
      <trkpt lon="-4.123892" lat="53.019395"><ele>119.611061</ele><time>2021-07-17T14:41:45Z</time><extensions><speed>1.255104</speed><course>296.126740</course><hAcc>0.871624</hAcc><vAcc>0.661741</vAcc></extensions></trkpt>
      <trkpt lon="-4.123878" lat="53.019387"><ele>119.611160</ele><time>2021-07-17T14:41:46Z</time><extensions><speed>1.259763</speed><course>297.059143</course><hAcc>0.871740</hAcc><vAcc>0.662111</vAcc></extensions></trkpt>
      <trkpt lon="-4.123864" lat="53.019379"><ele>119.613373</ele><time>2021-07-17T14:41:47Z</time><extensions><speed>1.266502</speed><course>303.696320</course><hAcc>0.871847</hAcc><vAcc>0.662455</vAcc></extensions></trkpt>
      <trkpt lon="-4.123851" lat="53.019371"><ele>119.616890</ele><time>2021-07-17T14:41:48Z</time><extensions><speed>1.275334</speed><course>307.460022</course><hAcc>0.871940</hAcc><vAcc>0.662741</vAcc></extensions></trkpt>
      <trkpt lon="-4.123837" lat="53.019363"><ele>119.621201</ele><time>2021-07-17T14:41:49Z</time><extensions><speed>1.285893</speed><course>302.094666</course><hAcc>0.872013</hAcc><vAcc>0.662948</vAcc></extensions></trkpt>
      <trkpt lon="-4.123825" lat="53.019354"><ele>119.625534</ele><time>2021-07-17T14:41:51Z</time><extensions><speed>1.297789</speed><course>294.763123</course><hAcc>0.872043</hAcc><vAcc>0.663047</vAcc></extensions></trkpt>
      <trkpt lon="-4.123812" lat="53.019345"><ele>119.628708</ele><time>2021-07-17T14:41:52Z</time><extensions><speed>1.310602</speed><course>292.310913</course><hAcc>0.872029</hAcc><vAcc>0.663035</vAcc></extensions></trkpt>
      <trkpt lon="-4.123799" lat="53.019336"><ele>119.630135</ele><time>2021-07-17T14:41:53Z</time><extensions><speed>1.323460</speed><course>286.252472</course><hAcc>0.871991</hAcc><vAcc>0.662931</vAcc></extensions></trkpt>
      <trkpt lon="-4.123787" lat="53.019327"><ele>119.630150</ele><time>2021-07-17T14:41:54Z</time><extensions><speed>1.335263</speed><course>277.085999</course><hAcc>0.871930</hAcc><vAcc>0.662744</vAcc></extensions></trkpt>
      <trkpt lon="-4.123775" lat="53.019317"><ele>119.629372</ele><time>2021-07-17T14:41:55Z</time><extensions><speed>1.345200</speed><course>269.880463</course><hAcc>0.871851</hAcc><vAcc>0.662489</vAcc></extensions></trkpt>
      <trkpt lon="-4.123763" lat="53.019308"><ele>119.628387</ele><time>2021-07-17T14:41:56Z</time><extensions><speed>1.353143</speed><course>256.014618</course><hAcc>0.871759</hAcc><vAcc>0.662182</vAcc></extensions></trkpt>
      <trkpt lon="-4.123751" lat="53.019298"><ele>119.627808</ele><time>2021-07-17T14:41:57Z</time><extensions><speed>1.359589</speed><course>250.524368</course><hAcc>0.871662</hAcc><vAcc>0.661849</vAcc></extensions></trkpt>
      <trkpt lon="-4.123739" lat="53.019288"><ele>119.628387</ele><time>2021-07-17T14:41:58Z</time><extensions><speed>1.364955</speed><course>237.491638</course><hAcc>0.871570</hAcc><vAcc>0.661518</vAcc></extensions></trkpt>
      <trkpt lon="-4.123728" lat="53.019278"><ele>119.630722</ele><time>2021-07-17T14:41:59Z</time><extensions><speed>1.369358</speed><course>231.976761</course><hAcc>0.871491</hAcc><vAcc>0.661225</vAcc></extensions></trkpt>
      <trkpt lon="-4.123716" lat="53.019267"><ele>119.634674</ele><time>2021-07-17T14:42:00Z</time><extensions><speed>1.372990</speed><course>228.504318</course><hAcc>0.871440</hAcc><vAcc>0.661014</vAcc></extensions></trkpt>
      <trkpt lon="-4.123705" lat="53.019257"><ele>119.639931</ele><time>2021-07-17T14:42:01Z</time><extensions><speed>1.376275</speed><course>227.577087</course><hAcc>0.871429</hAcc><vAcc>0.660939</vAcc></extensions></trkpt>
      <trkpt lon="-4.123694" lat="53.019247"><ele>119.646751</ele><time>2021-07-17T14:42:02Z</time><extensions><speed>1.379502</speed><course>219.513672</course><hAcc>0.871471</hAcc><vAcc>0.661049</vAcc></extensions></trkpt>
      <trkpt lon="-4.123684" lat="53.019236"><ele>119.655304</ele><time>2021-07-17T14:42:03Z</time><extensions><speed>1.382651</speed><course>224.903015</course><hAcc>0.871573</hAcc><vAcc>0.661377</vAcc></extensions></trkpt>
      <trkpt lon="-4.123673" lat="53.019225"><ele>119.664909</ele><time>2021-07-17T14:42:04Z</time><extensions><speed>1.386040</speed><course>222.390198</course><hAcc>0.871735</hAcc><vAcc>0.661923</vAcc></extensions></trkpt>
      <trkpt lon="-4.123663" lat="53.019214"><ele>119.674721</ele><time>2021-07-17T14:42:05Z</time><extensions><speed>1.390651</speed><course>223.313202</course><hAcc>0.871950</hAcc><vAcc>0.662655</vAcc></extensions></trkpt>
      <trkpt lon="-4.123654" lat="53.019203"><ele>119.684273</ele><time>2021-07-17T14:42:06Z</time><extensions><speed>1.397226</speed><course>224.045700</course><hAcc>0.872204</hAcc><vAcc>0.663526</vAcc></extensions></trkpt>
      <trkpt lon="-4.123644" lat="53.019192"><ele>119.693665</ele><time>2021-07-17T14:42:07Z</time><extensions><speed>1.405921</speed><course>224.975723</course><hAcc>0.872483</hAcc><vAcc>0.664476</vAcc></extensions></trkpt>
      <trkpt lon="-4.123636" lat="53.019180"><ele>119.703758</ele><time>2021-07-17T14:42:08Z</time><extensions><speed>1.416844</speed><course>226.513992</course><hAcc>0.872772</hAcc><vAcc>0.665444</vAcc></extensions></trkpt>
      <trkpt lon="-4.123627" lat="53.019169"><ele>119.715645</ele><time>2021-07-17T14:42:09Z</time><extensions><speed>1.430412</speed><course>227.291473</course><hAcc>0.873056</hAcc><vAcc>0.666372</vAcc></extensions></trkpt>
      <trkpt lon="-4.123619" lat="53.019157"><ele>119.729622</ele><time>2021-07-17T14:42:10Z</time><extensions><speed>1.446585</speed><course>231.833313</course><hAcc>0.873324</hAcc><vAcc>0.667223</vAcc></extensions></trkpt>
      <trkpt lon="-4.123610" lat="53.019145"><ele>119.745499</ele><time>2021-07-17T14:42:11Z</time><extensions><speed>1.464430</speed><course>230.421005</course><hAcc>0.873571</hAcc><vAcc>0.667978</vAcc></extensions></trkpt>
      <trkpt lon="-4.123602" lat="53.019132"><ele>119.763573</ele><time>2021-07-17T14:42:12Z</time><extensions><speed>1.482752</speed><course>235.980087</course><hAcc>0.873795</hAcc><vAcc>0.668644</vAcc></extensions></trkpt>
      <trkpt lon="-4.123594" lat="53.019120"><ele>119.784096</ele><time>2021-07-17T14:42:13Z</time><extensions><speed>1.500526</speed><course>243.213364</course><hAcc>0.873999</hAcc><vAcc>0.669238</vAcc></extensions></trkpt>
      <trkpt lon="-4.123585" lat="53.019108"><ele>119.806610</ele><time>2021-07-17T14:42:14Z</time><extensions><speed>1.516705</speed><course>253.165268</course><hAcc>0.874187</hAcc><vAcc>0.669788</vAcc></extensions></trkpt>
      <trkpt lon="-4.123576" lat="53.019095"><ele>119.830330</ele><time>2021-07-17T14:42:15Z</time><extensions><speed>1.530337</speed><course>266.505096</course><hAcc>0.874366</hAcc><vAcc>0.670319</vAcc></extensions></trkpt>
      <trkpt lon="-4.123567" lat="53.019082"><ele>119.854584</ele><time>2021-07-17T14:42:16Z</time><extensions><speed>1.540914</speed><course>267.255646</course><hAcc>0.874538</hAcc><vAcc>0.670849</vAcc></extensions></trkpt>
      <trkpt lon="-4.123557" lat="53.019070"><ele>119.878952</ele><time>2021-07-17T14:42:17Z</time><extensions><speed>1.547967</speed><course>271.176971</course><hAcc>0.874704</hAcc><vAcc>0.671380</vAcc></extensions></trkpt>
      <trkpt lon="-4.123547" lat="53.019057"><ele>119.902924</ele><time>2021-07-17T14:42:18Z</time><extensions><speed>1.551162</speed><course>283.145996</course><hAcc>0.874864</hAcc><vAcc>0.671898</vAcc></extensions></trkpt>
      <trkpt lon="-4.123536" lat="53.019045"><ele>119.925468</ele><time>2021-07-17T14:42:19Z</time><extensions><speed>1.550857</speed><course>291.499756</course><hAcc>0.875014</hAcc><vAcc>0.672384</vAcc></extensions></trkpt>
      <trkpt lon="-4.123525" lat="53.019033"><ele>119.945679</ele><time>2021-07-17T14:42:20Z</time><extensions><speed>1.547607</speed><course>295.960785</course><hAcc>0.875150</hAcc><vAcc>0.672823</vAcc></extensions></trkpt>
      <trkpt lon="-4.123514" lat="53.019021"><ele>119.963333</ele><time>2021-07-17T14:42:21Z</time><extensions><speed>1.541615</speed><course>298.309418</course><hAcc>0.875273</hAcc><vAcc>0.673213</vAcc></extensions></trkpt>
      <trkpt lon="-4.123502" lat="53.019009"><ele>119.978531</ele><time>2021-07-17T14:42:22Z</time><extensions><speed>1.533474</speed><course>301.442566</course><hAcc>0.875381</hAcc><vAcc>0.673555</vAcc></extensions></trkpt>
      <trkpt lon="-4.123490" lat="53.018997"><ele>119.991089</ele><time>2021-07-17T14:42:23Z</time><extensions><speed>1.524094</speed><course>301.820831</course><hAcc>0.875474</hAcc><vAcc>0.673851</vAcc></extensions></trkpt>
      <trkpt lon="-4.123478" lat="53.018986"><ele>120.000961</ele><time>2021-07-17T14:42:24Z</time><extensions><speed>1.513940</speed><course>306.533081</course><hAcc>0.875552</hAcc><vAcc>0.674100</vAcc></extensions></trkpt>
      <trkpt lon="-4.123465" lat="53.018974"><ele>120.008591</ele><time>2021-07-17T14:42:25Z</time><extensions><speed>1.503045</speed><course>310.759277</course><hAcc>0.875613</hAcc><vAcc>0.674293</vAcc></extensions></trkpt>
      <trkpt lon="-4.123453" lat="53.018963"><ele>120.014877</ele><time>2021-07-17T14:42:26Z</time><extensions><speed>1.491678</speed><course>315.721252</course><hAcc>0.875655</hAcc><vAcc>0.674419</vAcc></extensions></trkpt>
      <trkpt lon="-4.123440" lat="53.018952"><ele>120.020691</ele><time>2021-07-17T14:42:27Z</time><extensions><speed>1.480805</speed><course>321.376434</course><hAcc>0.875677</hAcc><vAcc>0.674478</vAcc></extensions></trkpt>
      <trkpt lon="-4.123428" lat="53.018941"><ele>120.026581</ele><time>2021-07-17T14:42:28Z</time><extensions><speed>1.471345</speed><course>321.893402</course><hAcc>0.875683</hAcc><vAcc>0.674477</vAcc></extensions></trkpt>
      <trkpt lon="-4.123415" lat="53.018931"><ele>120.033318</ele><time>2021-07-17T14:42:29Z</time><extensions><speed>1.463629</speed><course>325.867676</course><hAcc>0.875673</hAcc><vAcc>0.674432</vAcc></extensions></trkpt>
      <trkpt lon="-4.123402" lat="53.018920"><ele>120.041924</ele><time>2021-07-17T14:42:30Z</time><extensions><speed>1.457754</speed><course>319.975250</course><hAcc>0.875649</hAcc><vAcc>0.674358</vAcc></extensions></trkpt>
      <trkpt lon="-4.123389" lat="53.018910"><ele>120.052658</ele><time>2021-07-17T14:42:31Z</time><extensions><speed>1.453452</speed><course>320.826599</course><hAcc>0.875613</hAcc><vAcc>0.674257</vAcc></extensions></trkpt>
      <trkpt lon="-4.123376" lat="53.018899"><ele>120.064499</ele><time>2021-07-17T14:42:32Z</time><extensions><speed>1.450135</speed><course>320.826599</course><hAcc>0.875563</hAcc><vAcc>0.674118</vAcc></extensions></trkpt>
      <trkpt lon="-4.123362" lat="53.018889"><ele>120.076073</ele><time>2021-07-17T14:42:33Z</time><extensions><speed>1.447342</speed><course>320.826599</course><hAcc>0.875495</hAcc><vAcc>0.673926</vAcc></extensions></trkpt>
      <trkpt lon="-4.123349" lat="53.018879"><ele>120.086578</ele><time>2021-07-17T14:42:34Z</time><extensions><speed>1.445307</speed><course>320.826599</course><hAcc>0.875409</hAcc><vAcc>0.673666</vAcc></extensions></trkpt>
      <trkpt lon="-4.123335" lat="53.018869"><ele>120.096062</ele><time>2021-07-17T14:42:35Z</time><extensions><speed>1.444672</speed><course>320.826599</course><hAcc>0.875305</hAcc><vAcc>0.673335</vAcc></extensions></trkpt>
      <trkpt lon="-4.123322" lat="53.018859"><ele>120.104729</ele><time>2021-07-17T14:42:36Z</time><extensions><speed>1.446139</speed><course>320.826599</course><hAcc>0.875186</hAcc><vAcc>0.672940</vAcc></extensions></trkpt>
      <trkpt lon="-4.123308" lat="53.018849"><ele>120.112167</ele><time>2021-07-17T14:42:37Z</time><extensions><speed>1.450230</speed><course>320.826599</course><hAcc>0.875057</hAcc><vAcc>0.672501</vAcc></extensions></trkpt>
      <trkpt lon="-4.123295" lat="53.018838"><ele>120.118042</ele><time>2021-07-17T14:42:38Z</time><extensions><speed>1.456892</speed><course>320.826599</course><hAcc>0.874927</hAcc><vAcc>0.672045</vAcc></extensions></trkpt>
      <trkpt lon="-4.123281" lat="53.018828"><ele>120.122772</ele><time>2021-07-17T14:42:39Z</time><extensions><speed>1.466136</speed><course>320.826599</course><hAcc>0.874805</hAcc><vAcc>0.671606</vAcc></extensions></trkpt>
      <trkpt lon="-4.123268" lat="53.018818"><ele>120.126869</ele><time>2021-07-17T14:42:40Z</time><extensions><speed>1.478089</speed><course>320.826599</course><hAcc>0.874701</hAcc><vAcc>0.671220</vAcc></extensions></trkpt>
      <trkpt lon="-4.123255" lat="53.018807"><ele>120.130394</ele><time>2021-07-17T14:42:41Z</time><extensions><speed>1.492259</speed><course>320.826599</course><hAcc>0.874627</hAcc><vAcc>0.670929</vAcc></extensions></trkpt>
      <trkpt lon="-4.123242" lat="53.018796"><ele>120.133293</ele><time>2021-07-17T14:42:42Z</time><extensions><speed>1.507254</speed><course>320.826599</course><hAcc>0.874594</hAcc><vAcc>0.670774</vAcc></extensions></trkpt>
      <trkpt lon="-4.123229" lat="53.018785"><ele>120.135826</ele><time>2021-07-17T14:42:43Z</time><extensions><speed>1.521191</speed><course>320.826599</course><hAcc>0.874613</hAcc><vAcc>0.670793</vAcc></extensions></trkpt>
      <trkpt lon="-4.123216" lat="53.018773"><ele>120.138283</ele><time>2021-07-17T14:42:44Z</time><extensions><speed>1.532544</speed><course>320.826599</course><hAcc>0.874691</hAcc><vAcc>0.671011</vAcc></extensions></trkpt>
      <trkpt lon="-4.123204" lat="53.018762"><ele>120.140251</ele><time>2021-07-17T14:42:45Z</time><extensions><speed>1.540218</speed><course>320.826599</course><hAcc>0.874834</hAcc><vAcc>0.671447</vAcc></extensions></trkpt>
      <trkpt lon="-4.123193" lat="53.018750"><ele>120.141014</ele><time>2021-07-17T14:42:46Z</time><extensions><speed>1.543143</speed><course>320.826599</course><hAcc>0.875046</hAcc><vAcc>0.672110</vAcc></extensions></trkpt>
      <trkpt lon="-4.123181" lat="53.018738"><ele>120.140396</ele><time>2021-07-17T14:42:47Z</time><extensions><speed>1.540218</speed><course>320.826599</course><hAcc>0.875327</hAcc><vAcc>0.673003</vAcc></extensions></trkpt>
      <trkpt lon="-4.123171" lat="53.018725"><ele>120.138535</ele><time>2021-07-17T14:42:48Z</time><extensions><speed>1.530533</speed><course>320.826599</course><hAcc>0.875677</hAcc><vAcc>0.674126</vAcc></extensions></trkpt>
      <trkpt lon="-4.123161" lat="53.018713"><ele>120.135147</ele><time>2021-07-17T14:42:49Z</time><extensions><speed>1.513481</speed><course>320.826599</course><hAcc>0.876091</hAcc><vAcc>0.675470</vAcc></extensions></trkpt>
      <trkpt lon="-4.123152" lat="53.018701"><ele>120.129669</ele><time>2021-07-17T14:42:50Z</time><extensions><speed>1.488853</speed><course>320.826599</course><hAcc>0.876565</hAcc><vAcc>0.677021</vAcc></extensions></trkpt>
      <trkpt lon="-4.123143" lat="53.018688"><ele>120.121826</ele><time>2021-07-17T14:42:51Z</time><extensions><speed>1.456719</speed><course>320.826599</course><hAcc>0.877089</hAcc><vAcc>0.678750</vAcc></extensions></trkpt>
      <trkpt lon="-4.123136" lat="53.018676"><ele>120.111725</ele><time>2021-07-17T14:42:52Z</time><extensions><speed>1.417127</speed><course>320.826569</course><hAcc>0.877652</hAcc><vAcc>0.680616</vAcc></extensions></trkpt>
      <trkpt lon="-4.123129" lat="53.018664"><ele>120.099197</ele><time>2021-07-17T14:42:53Z</time><extensions><speed>1.370771</speed><course>320.826569</course><hAcc>0.878240</hAcc><vAcc>0.682566</vAcc></extensions></trkpt>
      <trkpt lon="-4.123123" lat="53.018653"><ele>120.083717</ele><time>2021-07-17T14:42:54Z</time><extensions><speed>1.318977</speed><course>320.826569</course><hAcc>0.878838</hAcc><vAcc>0.684539</vAcc></extensions></trkpt>
      <trkpt lon="-4.123118" lat="53.018642"><ele>120.065605</ele><time>2021-07-17T14:42:55Z</time><extensions><speed>1.262941</speed><course>320.826569</course><hAcc>0.879430</hAcc><vAcc>0.686478</vAcc></extensions></trkpt>
      <trkpt lon="-4.123114" lat="53.018631"><ele>120.046272</ele><time>2021-07-17T14:42:56Z</time><extensions><speed>1.203915</speed><course>306.179871</course><hAcc>0.880003</hAcc><vAcc>0.688333</vAcc></extensions></trkpt>
      <trkpt lon="-4.123110" lat="53.018621"><ele>120.027237</ele><time>2021-07-17T14:42:57Z</time><extensions><speed>1.143234</speed><course>252.340622</course><hAcc>0.880547</hAcc><vAcc>0.690068</vAcc></extensions></trkpt>
      <trkpt lon="-4.123107" lat="53.018611"><ele>120.009865</ele><time>2021-07-17T14:42:58Z</time><extensions><speed>1.081956</speed><course>240.417450</course><hAcc>0.881051</hAcc><vAcc>0.691656</vAcc></extensions></trkpt>
      <trkpt lon="-4.123104" lat="53.018602"><ele>119.995468</ele><time>2021-07-17T14:42:59Z</time><extensions><speed>1.021012</speed><course>226.735764</course><hAcc>0.881510</hAcc><vAcc>0.693083</vAcc></extensions></trkpt>
      <trkpt lon="-4.123101" lat="53.018593"><ele>119.985077</ele><time>2021-07-17T14:43:00Z</time><extensions><speed>0.960894</speed><course>213.254318</course><hAcc>0.881920</hAcc><vAcc>0.694348</vAcc></extensions></trkpt>
      <trkpt lon="-4.123098" lat="53.018585"><ele>119.979393</ele><time>2021-07-17T14:43:01Z</time><extensions><speed>0.901524</speed><course>209.983795</course><hAcc>0.882278</hAcc><vAcc>0.695454</vAcc></extensions></trkpt>
      <trkpt lon="-4.123096" lat="53.018577"><ele>119.978729</ele><time>2021-07-17T14:43:02Z</time><extensions><speed>0.842457</speed><course>212.464371</course><hAcc>0.882582</hAcc><vAcc>0.696407</vAcc></extensions></trkpt>
      <trkpt lon="-4.123093" lat="53.018570"><ele>119.983025</ele><time>2021-07-17T14:43:03Z</time><extensions><speed>0.783101</speed><course>212.464355</course><hAcc>0.882830</hAcc><vAcc>0.697205</vAcc></extensions></trkpt>
      <trkpt lon="-4.123090" lat="53.018563"><ele>119.991989</ele><time>2021-07-17T14:43:04Z</time><extensions><speed>0.723070</speed><course>212.464355</course><hAcc>0.883023</hAcc><vAcc>0.697840</vAcc></extensions></trkpt>
      <trkpt lon="-4.123087" lat="53.018557"><ele>120.005219</ele><time>2021-07-17T14:43:05Z</time><extensions><speed>0.662221</speed><course>212.464340</course><hAcc>0.883160</hAcc><vAcc>0.698301</vAcc></extensions></trkpt>
      <trkpt lon="-4.123084" lat="53.018552"><ele>120.022232</ele><time>2021-07-17T14:43:06Z</time><extensions><speed>0.600248</speed><course>212.464325</course><hAcc>0.883241</hAcc><vAcc>0.698576</vAcc></extensions></trkpt>
      <trkpt lon="-4.123081" lat="53.018547"><ele>120.042503</ele><time>2021-07-17T14:43:07Z</time><extensions><speed>0.536786</speed><course>212.464325</course><hAcc>0.883268</hAcc><vAcc>0.698658</vAcc></extensions></trkpt>
      <trkpt lon="-4.123078" lat="53.018543"><ele>120.065613</ele><time>2021-07-17T14:43:08Z</time><extensions><speed>0.472118</speed><course>212.464325</course><hAcc>0.883245</hAcc><vAcc>0.698548</vAcc></extensions></trkpt>
      <trkpt lon="-4.123076" lat="53.018539"><ele>120.091270</ele><time>2021-07-17T14:43:09Z</time><extensions><speed>0.407588</speed><course>212.464310</course><hAcc>0.883178</hAcc><vAcc>0.698263</vAcc></extensions></trkpt>
      <trkpt lon="-4.123073" lat="53.018536"><ele>120.119110</ele><time>2021-07-17T14:43:10Z</time><extensions><speed>0.345209</speed><course>305.064514</course><hAcc>0.883073</hAcc><vAcc>0.697834</vAcc></extensions></trkpt>
      <trkpt lon="-4.123071" lat="53.018534"><ele>120.148529</ele><time>2021-07-17T14:43:11Z</time><extensions><speed>0.287114</speed><course>295.507660</course><hAcc>0.882940</hAcc><vAcc>0.697303</vAcc></extensions></trkpt>
      <trkpt lon="-4.123069" lat="53.018532"><ele>120.178925</ele><time>2021-07-17T14:43:12Z</time><extensions><speed>0.235143</speed><course>292.618195</course><hAcc>0.882789</hAcc><vAcc>0.696720</vAcc></extensions></trkpt>
      <trkpt lon="-4.123068" lat="53.018530"><ele>120.209808</ele><time>2021-07-17T14:43:13Z</time><extensions><speed>0.190830</speed><course>285.374146</course><hAcc>0.882629</hAcc><vAcc>0.696131</vAcc></extensions></trkpt>
      <trkpt lon="-4.123066" lat="53.018529"><ele>120.240692</ele><time>2021-07-17T14:43:14Z</time><extensions><speed>0.156392</speed><course>282.990997</course><hAcc>0.882468</hAcc><vAcc>0.695570</vAcc></extensions></trkpt>
      <trkpt lon="-4.123064" lat="53.018528"><ele>120.270927</ele><time>2021-07-17T14:43:15Z</time><extensions><speed>0.136222</speed><course>269.408752</course><hAcc>0.882313</hAcc><vAcc>0.695060</vAcc></extensions></trkpt>
      <trkpt lon="-4.123062" lat="53.018528"><ele>120.299507</ele><time>2021-07-17T14:43:16Z</time><extensions><speed>0.136418</speed><course>268.581787</course><hAcc>0.882170</hAcc><vAcc>0.694608</vAcc></extensions></trkpt>
      <trkpt lon="-4.123060" lat="53.018528"><ele>120.325089</ele><time>2021-07-17T14:43:17Z</time><extensions><speed>0.158611</speed><course>262.171875</course><hAcc>0.882042</hAcc><vAcc>0.694213</vAcc></extensions></trkpt>
      <trkpt lon="-4.123057" lat="53.018529"><ele>120.346191</ele><time>2021-07-17T14:43:18Z</time><extensions><speed>0.197217</speed><course>261.539520</course><hAcc>0.881932</hAcc><vAcc>0.693871</vAcc></extensions></trkpt>
      <trkpt lon="-4.123055" lat="53.018530"><ele>120.361435</ele><time>2021-07-17T14:43:19Z</time><extensions><speed>0.245383</speed><course>255.803879</course><hAcc>0.881842</hAcc><vAcc>0.693580</vAcc></extensions></trkpt>
      <trkpt lon="-4.123052" lat="53.018532"><ele>120.369621</ele><time>2021-07-17T14:43:20Z</time><extensions><speed>0.298100</speed><course>247.733398</course><hAcc>0.881775</hAcc><vAcc>0.693347</vAcc></extensions></trkpt>
      <trkpt lon="-4.123048" lat="53.018534"><ele>120.369644</ele><time>2021-07-17T14:43:21Z</time><extensions><speed>0.351347</speed><course>231.932861</course><hAcc>0.881734</hAcc><vAcc>0.693190</vAcc></extensions></trkpt>
      <trkpt lon="-4.123044" lat="53.018536"><ele>120.360718</ele><time>2021-07-17T14:43:22Z</time><extensions><speed>0.401280</speed><course>232.043365</course><hAcc>0.881721</hAcc><vAcc>0.693122</vAcc></extensions></trkpt>
      <trkpt lon="-4.123040" lat="53.018539"><ele>120.342468</ele><time>2021-07-17T14:43:23Z</time><extensions><speed>0.445485</speed><course>225.182800</course><hAcc>0.881738</hAcc><vAcc>0.693152</vAcc></extensions></trkpt>
      <trkpt lon="-4.123035" lat="53.018542"><ele>120.314857</ele><time>2021-07-17T14:43:24Z</time><extensions><speed>0.483017</speed><course>222.937302</course><hAcc>0.881784</hAcc><vAcc>0.693284</vAcc></extensions></trkpt>
      <trkpt lon="-4.123030" lat="53.018545"><ele>120.278023</ele><time>2021-07-17T14:43:25Z</time><extensions><speed>0.513688</speed><course>226.615036</course><hAcc>0.881861</hAcc><vAcc>0.693522</vAcc></extensions></trkpt>
      <trkpt lon="-4.123025" lat="53.018549"><ele>120.232338</ele><time>2021-07-17T14:43:26Z</time><extensions><speed>0.538051</speed><course>227.377960</course><hAcc>0.881965</hAcc><vAcc>0.693868</vAcc></extensions></trkpt>
      <trkpt lon="-4.123019" lat="53.018552"><ele>120.178391</ele><time>2021-07-17T14:43:27Z</time><extensions><speed>0.556173</speed><course>225.027542</course><hAcc>0.882096</hAcc><vAcc>0.694317</vAcc></extensions></trkpt>
      <trkpt lon="-4.123013" lat="53.018556"><ele>120.116882</ele><time>2021-07-17T14:43:28Z</time><extensions><speed>0.567513</speed><course>217.523773</course><hAcc>0.882248</hAcc><vAcc>0.694854</vAcc></extensions></trkpt>
      <trkpt lon="-4.123007" lat="53.018559"><ele>120.048615</ele><time>2021-07-17T14:43:29Z</time><extensions><speed>0.571763</speed><course>217.503448</course><hAcc>0.882416</hAcc><vAcc>0.695452</vAcc></extensions></trkpt>
      <trkpt lon="-4.123001" lat="53.018563"><ele>119.974480</ele><time>2021-07-17T14:43:30Z</time><extensions><speed>0.569082</speed><course>222.947372</course><hAcc>0.882592</hAcc><vAcc>0.696079</vAcc></extensions></trkpt>
      <trkpt lon="-4.122995" lat="53.018567"><ele>119.895493</ele><time>2021-07-17T14:43:31Z</time><extensions><speed>0.559819</speed><course>228.737518</course><hAcc>0.882770</hAcc><vAcc>0.696705</vAcc></extensions></trkpt>
      <trkpt lon="-4.122989" lat="53.018570"><ele>119.812668</ele><time>2021-07-17T14:43:32Z</time><extensions><speed>0.544047</speed><course>234.887939</course><hAcc>0.882943</hAcc><vAcc>0.697304</vAcc></extensions></trkpt>
      <trkpt lon="-4.122984" lat="53.018573"><ele>119.726982</ele><time>2021-07-17T14:43:33Z</time><extensions><speed>0.521620</speed><course>232.671463</course><hAcc>0.883106</hAcc><vAcc>0.697857</vAcc></extensions></trkpt>
      <trkpt lon="-4.122978" lat="53.018577"><ele>119.639435</ele><time>2021-07-17T14:43:34Z</time><extensions><speed>0.492269</speed><course>228.680756</course><hAcc>0.883254</hAcc><vAcc>0.698345</vAcc></extensions></trkpt>
      <trkpt lon="-4.122973" lat="53.018580"><ele>119.551018</ele><time>2021-07-17T14:43:35Z</time><extensions><speed>0.456522</speed><course>228.367065</course><hAcc>0.883384</hAcc><vAcc>0.698751</vAcc></extensions></trkpt>
      <trkpt lon="-4.122969" lat="53.018582"><ele>119.462669</ele><time>2021-07-17T14:43:36Z</time><extensions><speed>0.415574</speed><course>227.760208</course><hAcc>0.883494</hAcc><vAcc>0.699075</vAcc></extensions></trkpt>
      <trkpt lon="-4.122964" lat="53.018585"><ele>119.375252</ele><time>2021-07-17T14:43:37Z</time><extensions><speed>0.370451</speed><course>230.377014</course><hAcc>0.883583</hAcc><vAcc>0.699331</vAcc></extensions></trkpt>
      <trkpt lon="-4.122961" lat="53.018587"><ele>119.289635</ele><time>2021-07-17T14:43:38Z</time><extensions><speed>0.321825</speed><course>236.559235</course><hAcc>0.883652</hAcc><vAcc>0.699538</vAcc></extensions></trkpt>
      <trkpt lon="-4.122958" lat="53.018589"><ele>119.206520</ele><time>2021-07-17T14:43:39Z</time><extensions><speed>0.269921</speed><course>232.877869</course><hAcc>0.883702</hAcc><vAcc>0.699703</vAcc></extensions></trkpt>
      <trkpt lon="-4.122955" lat="53.018591"><ele>119.126457</ele><time>2021-07-17T14:43:40Z</time><extensions><speed>0.215262</speed><course>233.901962</course><hAcc>0.883734</hAcc><vAcc>0.699819</vAcc></extensions></trkpt>
      <trkpt lon="-4.122954" lat="53.018592"><ele>119.049988</ele><time>2021-07-17T14:43:41Z</time><extensions><speed>0.159366</speed><course>234.840546</course><hAcc>0.883750</hAcc><vAcc>0.699872</vAcc></extensions></trkpt>
      <trkpt lon="-4.122953" lat="53.018593"><ele>118.977699</ele><time>2021-07-17T14:43:42Z</time><extensions><speed>0.105685</speed><course>231.563858</course><hAcc>0.883753</hAcc><vAcc>0.699861</vAcc></extensions></trkpt>
      <trkpt lon="-4.122952" lat="53.018594"><ele>118.910156</ele><time>2021-07-17T14:43:43Z</time><extensions><speed>0.066120</speed><course>226.163422</course><hAcc>0.883748</hAcc><vAcc>0.699795</vAcc></extensions></trkpt>
      <trkpt lon="-4.122953" lat="53.018594"><ele>118.847916</ele><time>2021-07-17T14:43:44Z</time><extensions><speed>0.073045</speed><course>224.694687</course><hAcc>0.883740</hAcc><vAcc>0.699704</vAcc></extensions></trkpt>
      <trkpt lon="-4.122954" lat="53.018594"><ele>118.791458</ele><time>2021-07-17T14:43:45Z</time><extensions><speed>0.117161</speed><course>227.400024</course><hAcc>0.883737</hAcc><vAcc>0.699620</vAcc></extensions></trkpt>
      <trkpt lon="-4.122956" lat="53.018594"><ele>118.741112</ele><time>2021-07-17T14:43:46Z</time><extensions><speed>0.168625</speed><course>225.215622</course><hAcc>0.883745</hAcc><vAcc>0.699568</vAcc></extensions></trkpt>
      <trkpt lon="-4.122959" lat="53.018594"><ele>118.697136</ele><time>2021-07-17T14:43:47Z</time><extensions><speed>0.218699</speed><course>227.979385</course><hAcc>0.883772</hAcc><vAcc>0.699572</vAcc></extensions></trkpt>
      <trkpt lon="-4.122963" lat="53.018593"><ele>118.659813</ele><time>2021-07-17T14:43:48Z</time><extensions><speed>0.265510</speed><course>238.133682</course><hAcc>0.883823</hAcc><vAcc>0.699655</vAcc></extensions></trkpt>
      <trkpt lon="-4.122967" lat="53.018593"><ele>118.629425</ele><time>2021-07-17T14:43:49Z</time><extensions><speed>0.308822</speed><course>235.678314</course><hAcc>0.883904</hAcc><vAcc>0.699842</vAcc></extensions></trkpt>
      <trkpt lon="-4.122972" lat="53.018592"><ele>118.606255</ele><time>2021-07-17T14:43:50Z</time><extensions><speed>0.348466</speed><course>238.960709</course><hAcc>0.884018</hAcc><vAcc>0.700162</vAcc></extensions></trkpt>
      <trkpt lon="-4.122977" lat="53.018591"><ele>118.590614</ele><time>2021-07-17T14:43:51Z</time><extensions><speed>0.384134</speed><course>237.793289</course><hAcc>0.884165</hAcc><vAcc>0.700639</vAcc></extensions></trkpt>
      <trkpt lon="-4.122982" lat="53.018590"><ele>118.582718</ele><time>2021-07-17T14:43:52Z</time><extensions><speed>0.415398</speed><course>238.209671</course><hAcc>0.884341</hAcc><vAcc>0.701279</vAcc></extensions></trkpt>
      <trkpt lon="-4.122988" lat="53.018588"><ele>118.582787</ele><time>2021-07-17T14:43:53Z</time><extensions><speed>0.441942</speed><course>239.435074</course><hAcc>0.884540</hAcc><vAcc>0.702062</vAcc></extensions></trkpt>
      <trkpt lon="-4.122995" lat="53.018587"><ele>118.591232</ele><time>2021-07-17T14:43:54Z</time><extensions><speed>0.463982</speed><course>238.666733</course><hAcc>0.884749</hAcc><vAcc>0.702938</vAcc></extensions></trkpt>
      <trkpt lon="-4.123001" lat="53.018585"><ele>118.608589</ele><time>2021-07-17T14:43:55Z</time><extensions><speed>0.481594</speed><course>234.077820</course><hAcc>0.884955</hAcc><vAcc>0.703829</vAcc></extensions></trkpt>
      <trkpt lon="-4.123008" lat="53.018584"><ele>118.635460</ele><time>2021-07-17T14:43:56Z</time><extensions><speed>0.493951</speed><course>227.293335</course><hAcc>0.885141</hAcc><vAcc>0.704646</vAcc></extensions></trkpt>
      <trkpt lon="-4.123015" lat="53.018582"><ele>118.672394</ele><time>2021-07-17T14:43:57Z</time><extensions><speed>0.499438</speed><course>230.072769</course><hAcc>0.885295</hAcc><vAcc>0.705308</vAcc></extensions></trkpt>
      <trkpt lon="-4.123021" lat="53.018579"><ele>118.719833</ele><time>2021-07-17T14:43:58Z</time><extensions><speed>0.495961</speed><course>228.397232</course><hAcc>0.885405</hAcc><vAcc>0.705753</vAcc></extensions></trkpt>
      <trkpt lon="-4.123027" lat="53.018577"><ele>118.777954</ele><time>2021-07-17T14:43:59Z</time><extensions><speed>0.486119</speed><course>230.234772</course><hAcc>0.885464</hAcc><vAcc>0.705946</vAcc></extensions></trkpt>
      <trkpt lon="-4.123032" lat="53.018574"><ele>118.846497</ele><time>2021-07-17T14:44:00Z</time><extensions><speed>0.476720</speed><course>226.599274</course><hAcc>0.885470</hAcc><vAcc>0.705883</vAcc></extensions></trkpt>
      <trkpt lon="-4.123037" lat="53.018571"><ele>118.924812</ele><time>2021-07-17T14:44:01Z</time><extensions><speed>0.472967</speed><course>226.515137</course><hAcc>0.885426</hAcc><vAcc>0.705588</vAcc></extensions></trkpt>
      <trkpt lon="-4.123041" lat="53.018567"><ele>119.011955</ele><time>2021-07-17T14:44:02Z</time><extensions><speed>0.477897</speed><course>226.136917</course><hAcc>0.885338</hAcc><vAcc>0.705113</vAcc></extensions></trkpt>
      <trkpt lon="-4.123044" lat="53.018563"><ele>119.106659</ele><time>2021-07-17T14:44:03Z</time><extensions><speed>0.492266</speed><course>230.381958</course><hAcc>0.885219</hAcc><vAcc>0.704525</vAcc></extensions></trkpt>
      <trkpt lon="-4.123046" lat="53.018559"><ele>119.207375</ele><time>2021-07-17T14:44:04Z</time><extensions><speed>0.514715</speed><course>226.727509</course><hAcc>0.885079</hAcc><vAcc>0.703893</vAcc></extensions></trkpt>
      <trkpt lon="-4.123048" lat="53.018554"><ele>119.312454</ele><time>2021-07-17T14:44:05Z</time><extensions><speed>0.542111</speed><course>230.180862</course><hAcc>0.884934</hAcc><vAcc>0.703281</vAcc></extensions></trkpt>
      <trkpt lon="-4.123048" lat="53.018549"><ele>119.420334</ele><time>2021-07-17T14:44:06Z</time><extensions><speed>0.571183</speed><course>225.214905</course><hAcc>0.884795</hAcc><vAcc>0.702736</vAcc></extensions></trkpt>
      <trkpt lon="-4.123049" lat="53.018544"><ele>119.529495</ele><time>2021-07-17T14:44:07Z</time><extensions><speed>0.599681</speed><course>228.288971</course><hAcc>0.884673</hAcc><vAcc>0.702291</vAcc></extensions></trkpt>
      <trkpt lon="-4.123048" lat="53.018538"><ele>119.638588</ele><time>2021-07-17T14:44:08Z</time><extensions><speed>0.626271</speed><course>234.392639</course><hAcc>0.884575</hAcc><vAcc>0.701963</vAcc></extensions></trkpt>
      <trkpt lon="-4.123047" lat="53.018533"><ele>119.746559</ele><time>2021-07-17T14:44:09Z</time><extensions><speed>0.650004</speed><course>233.208801</course><hAcc>0.884507</hAcc><vAcc>0.701753</vAcc></extensions></trkpt>
      <trkpt lon="-4.123046" lat="53.018527"><ele>119.852325</ele><time>2021-07-17T14:44:10Z</time><extensions><speed>0.669866</speed><course>238.158752</course><hAcc>0.884470</hAcc><vAcc>0.701659</vAcc></extensions></trkpt>
      <trkpt lon="-4.123044" lat="53.018521"><ele>119.954575</ele><time>2021-07-17T14:44:11Z</time><extensions><speed>0.685322</speed><course>239.142517</course><hAcc>0.884463</hAcc><vAcc>0.701677</vAcc></extensions></trkpt>
      <trkpt lon="-4.123042" lat="53.018515"><ele>120.051765</ele><time>2021-07-17T14:44:12Z</time><extensions><speed>0.696848</speed><course>241.003922</course><hAcc>0.884480</hAcc><vAcc>0.701800</vAcc></extensions></trkpt>
      <trkpt lon="-4.123039" lat="53.018509"><ele>120.142601</ele><time>2021-07-17T14:44:13Z</time><extensions><speed>0.705954</speed><course>244.474228</course><hAcc>0.884515</hAcc><vAcc>0.702019</vAcc></extensions></trkpt>
      <trkpt lon="-4.123036" lat="53.018503"><ele>120.226265</ele><time>2021-07-17T14:44:14Z</time><extensions><speed>0.714697</speed><course>238.879150</course><hAcc>0.884560</hAcc><vAcc>0.702315</vAcc></extensions></trkpt>
      <trkpt lon="-4.123033" lat="53.018497"><ele>120.302299</ele><time>2021-07-17T14:44:15Z</time><extensions><speed>0.725128</speed><course>237.538528</course><hAcc>0.884601</hAcc><vAcc>0.702648</vAcc></extensions></trkpt>
      <trkpt lon="-4.123029" lat="53.018490"><ele>120.370758</ele><time>2021-07-17T14:44:16Z</time><extensions><speed>0.738448</speed><course>249.037552</course><hAcc>0.884628</hAcc><vAcc>0.702944</vAcc></extensions></trkpt>
      <trkpt lon="-4.123025" lat="53.018484"><ele>120.432404</ele><time>2021-07-17T14:44:17Z</time><extensions><speed>0.754507</speed><course>259.361603</course><hAcc>0.884628</hAcc><vAcc>0.703119</vAcc></extensions></trkpt>
      <trkpt lon="-4.123021" lat="53.018478"><ele>120.488701</ele><time>2021-07-17T14:44:18Z</time><extensions><speed>0.772050</speed><course>261.193176</course><hAcc>0.884591</hAcc><vAcc>0.703102</vAcc></extensions></trkpt>
      <trkpt lon="-4.123017" lat="53.018471"><ele>120.541603</ele><time>2021-07-17T14:44:19Z</time><extensions><speed>0.788785</speed><course>261.193146</course><hAcc>0.884513</hAcc><vAcc>0.702855</vAcc></extensions></trkpt>
      <trkpt lon="-4.123013" lat="53.018464"><ele>120.593361</ele><time>2021-07-17T14:44:20Z</time><extensions><speed>0.801468</speed><course>261.193146</course><hAcc>0.884391</hAcc><vAcc>0.702378</vAcc></extensions></trkpt>
      <trkpt lon="-4.123010" lat="53.018457"><ele>120.646324</ele><time>2021-07-17T14:44:21Z</time><extensions><speed>0.809432</speed><course>261.193146</course><hAcc>0.884229</hAcc><vAcc>0.701707</vAcc></extensions></trkpt>
      <trkpt lon="-4.123006" lat="53.018450"><ele>120.702438</ele><time>2021-07-17T14:44:22Z</time><extensions><speed>0.814959</speed><course>261.193146</course><hAcc>0.884034</hAcc><vAcc>0.700904</vAcc></extensions></trkpt>
      <trkpt lon="-4.123004" lat="53.018443"><ele>120.762924</ele><time>2021-07-17T14:44:23Z</time><extensions><speed>0.820217</speed><course>261.193146</course><hAcc>0.883814</hAcc><vAcc>0.700037</vAcc></extensions></trkpt>
      <trkpt lon="-4.123002" lat="53.018436"><ele>120.828796</ele><time>2021-07-17T14:44:24Z</time><extensions><speed>0.826456</speed><course>261.193146</course><hAcc>0.883581</hAcc><vAcc>0.699163</vAcc></extensions></trkpt>
      <trkpt lon="-4.123000" lat="53.018428"><ele>120.900826</ele><time>2021-07-17T14:44:25Z</time><extensions><speed>0.834063</speed><course>261.193146</course><hAcc>0.883343</hAcc><vAcc>0.698317</vAcc></extensions></trkpt>
      <trkpt lon="-4.122999" lat="53.018421"><ele>120.979378</ele><time>2021-07-17T14:44:26Z</time><extensions><speed>0.843216</speed><course>261.193146</course><hAcc>0.883110</hAcc><vAcc>0.697524</vAcc></extensions></trkpt>
      <trkpt lon="-4.122998" lat="53.018413"><ele>121.064629</ele><time>2021-07-17T14:44:27Z</time><extensions><speed>0.853574</speed><course>234.852402</course><hAcc>0.882890</hAcc><vAcc>0.696799</vAcc></extensions></trkpt>
      <trkpt lon="-4.122998" lat="53.018406"><ele>121.156563</ele><time>2021-07-17T14:44:28Z</time><extensions><speed>0.864383</speed><course>215.025620</course><hAcc>0.882689</hAcc><vAcc>0.696151</vAcc></extensions></trkpt>
      <trkpt lon="-4.122998" lat="53.018398"><ele>121.254913</ele><time>2021-07-17T14:44:29Z</time><extensions><speed>0.874961</speed><course>206.872131</course><hAcc>0.882511</hAcc><vAcc>0.695589</vAcc></extensions></trkpt>
      <trkpt lon="-4.122998" lat="53.018390"><ele>121.359039</ele><time>2021-07-17T14:44:30Z</time><extensions><speed>0.885090</speed><course>205.862991</course><hAcc>0.882360</hAcc><vAcc>0.695116</vAcc></extensions></trkpt>
      <trkpt lon="-4.122998" lat="53.018382"><ele>121.467812</ele><time>2021-07-17T14:44:31Z</time><extensions><speed>0.894802</speed><course>205.862976</course><hAcc>0.882238</hAcc><vAcc>0.694733</vAcc></extensions></trkpt>
      <trkpt lon="-4.122998" lat="53.018374"><ele>121.579735</ele><time>2021-07-17T14:44:32Z</time><extensions><speed>0.904179</speed><course>234.677673</course><hAcc>0.882146</hAcc><vAcc>0.694440</vAcc></extensions></trkpt>
      <trkpt lon="-4.122998" lat="53.018366"><ele>121.693047</ele><time>2021-07-17T14:44:33Z</time><extensions><speed>0.913425</speed><course>246.321655</course><hAcc>0.882084</hAcc><vAcc>0.694237</vAcc></extensions></trkpt>
      <trkpt lon="-4.122999" lat="53.018357"><ele>121.806030</ele><time>2021-07-17T14:44:34Z</time><extensions><speed>0.922960</speed><course>256.732239</course><hAcc>0.882052</hAcc><vAcc>0.694127</vAcc></extensions></trkpt>
      <trkpt lon="-4.122999" lat="53.018349"><ele>121.917259</ele><time>2021-07-17T14:44:35Z</time><extensions><speed>0.933342</speed><course>257.461731</course><hAcc>0.882050</hAcc><vAcc>0.694117</vAcc></extensions></trkpt>
      <trkpt lon="-4.122999" lat="53.018341"><ele>122.025398</ele><time>2021-07-17T14:44:36Z</time><extensions><speed>0.944989</speed><course>256.219269</course><hAcc>0.882075</hAcc><vAcc>0.694208</vAcc></extensions></trkpt>
      <trkpt lon="-4.122999" lat="53.018332"><ele>122.129120</ele><time>2021-07-17T14:44:37Z</time><extensions><speed>0.958083</speed><course>253.669510</course><hAcc>0.882124</hAcc><vAcc>0.694399</vAcc></extensions></trkpt>
      <trkpt lon="-4.122999" lat="53.018323"><ele>122.227325</ele><time>2021-07-17T14:44:38Z</time><extensions><speed>0.972556</speed><course>253.907227</course><hAcc>0.882192</hAcc><vAcc>0.694673</vAcc></extensions></trkpt>
      <trkpt lon="-4.122999" lat="53.018315"><ele>122.319023</ele><time>2021-07-17T14:44:39Z</time><extensions><speed>0.988357</speed><course>260.189209</course><hAcc>0.882273</hAcc><vAcc>0.695004</vAcc></extensions></trkpt>
      <trkpt lon="-4.123000" lat="53.018306"><ele>122.403160</ele><time>2021-07-17T14:44:40Z</time><extensions><speed>1.005167</speed><course>263.253174</course><hAcc>0.882359</hAcc><vAcc>0.695357</vAcc></extensions></trkpt>
      <trkpt lon="-4.123000" lat="53.018297"><ele>122.479141</ele><time>2021-07-17T14:44:41Z</time><extensions><speed>1.022528</speed><course>264.349060</course><hAcc>0.882442</hAcc><vAcc>0.695695</vAcc></extensions></trkpt>
      <trkpt lon="-4.123000" lat="53.018287"><ele>122.546860</ele><time>2021-07-17T14:44:42Z</time><extensions><speed>1.040317</speed><course>258.002991</course><hAcc>0.882515</hAcc><vAcc>0.695984</vAcc></extensions></trkpt>
      <trkpt lon="-4.123000" lat="53.018278"><ele>122.606415</ele><time>2021-07-17T14:44:43Z</time><extensions><speed>1.058514</speed><course>264.832825</course><hAcc>0.882574</hAcc><vAcc>0.696201</vAcc></extensions></trkpt>
      <trkpt lon="-4.123001" lat="53.018268"><ele>122.657852</ele><time>2021-07-17T14:44:44Z</time><extensions><speed>1.077386</speed><course>262.654938</course><hAcc>0.882614</hAcc><vAcc>0.696331</vAcc></extensions></trkpt>
      <trkpt lon="-4.123001" lat="53.018259"><ele>122.700920</ele><time>2021-07-17T14:44:45Z</time><extensions><speed>1.097051</speed><course>262.654938</course><hAcc>0.882635</hAcc><vAcc>0.696373</vAcc></extensions></trkpt>
      <trkpt lon="-4.123001" lat="53.018249"><ele>122.735588</ele><time>2021-07-17T14:44:46Z</time><extensions><speed>1.117374</speed><course>262.654938</course><hAcc>0.882636</hAcc><vAcc>0.696334</vAcc></extensions></trkpt>
      <trkpt lon="-4.123001" lat="53.018238"><ele>122.762161</ele><time>2021-07-17T14:44:47Z</time><extensions><speed>1.138230</speed><course>262.654938</course><hAcc>0.882621</hAcc><vAcc>0.696234</vAcc></extensions></trkpt>
      <trkpt lon="-4.123002" lat="53.018228"><ele>122.781342</ele><time>2021-07-17T14:44:48Z</time><extensions><speed>1.159318</speed><course>262.654938</course><hAcc>0.882594</hAcc><vAcc>0.696095</vAcc></extensions></trkpt>
      <trkpt lon="-4.123002" lat="53.018218"><ele>122.793930</ele><time>2021-07-17T14:44:49Z</time><extensions><speed>1.180683</speed><course>262.654938</course><hAcc>0.882560</hAcc><vAcc>0.695939</vAcc></extensions></trkpt>
      <trkpt lon="-4.123003" lat="53.018207"><ele>122.800507</ele><time>2021-07-17T14:44:50Z</time><extensions><speed>1.202366</speed><course>262.654938</course><hAcc>0.882523</hAcc><vAcc>0.695784</vAcc></extensions></trkpt>
      <trkpt lon="-4.123003" lat="53.018196"><ele>122.801826</ele><time>2021-07-17T14:44:51Z</time><extensions><speed>1.224076</speed><course>262.654938</course><hAcc>0.882489</hAcc><vAcc>0.695643</vAcc></extensions></trkpt>
      <trkpt lon="-4.123004" lat="53.018185"><ele>122.798790</ele><time>2021-07-17T14:44:52Z</time><extensions><speed>1.245739</speed><course>262.654938</course><hAcc>0.882461</hAcc><vAcc>0.695527</vAcc></extensions></trkpt>
      <trkpt lon="-4.123005" lat="53.018174"><ele>122.792175</ele><time>2021-07-17T14:44:53Z</time><extensions><speed>1.267279</speed><course>262.654938</course><hAcc>0.882443</hAcc><vAcc>0.695449</vAcc></extensions></trkpt>
      <trkpt lon="-4.123006" lat="53.018162"><ele>122.782631</ele><time>2021-07-17T14:44:54Z</time><extensions><speed>1.288361</speed><course>262.654938</course><hAcc>0.882439</hAcc><vAcc>0.695416</vAcc></extensions></trkpt>
      <trkpt lon="-4.123007" lat="53.018151"><ele>122.770561</ele><time>2021-07-17T14:44:55Z</time><extensions><speed>1.308430</speed><course>262.654938</course><hAcc>0.882451</hAcc><vAcc>0.695436</vAcc></extensions></trkpt>
      <trkpt lon="-4.123008" lat="53.018139"><ele>122.756523</ele><time>2021-07-17T14:44:56Z</time><extensions><speed>1.327243</speed><course>262.654938</course><hAcc>0.882479</hAcc><vAcc>0.695515</vAcc></extensions></trkpt>
      <trkpt lon="-4.123010" lat="53.018127"><ele>122.741310</ele><time>2021-07-17T14:44:57Z</time><extensions><speed>1.345094</speed><course>262.654938</course><hAcc>0.882522</hAcc><vAcc>0.695658</vAcc></extensions></trkpt>
      <trkpt lon="-4.123011" lat="53.018115"><ele>122.725754</ele><time>2021-07-17T14:44:58Z</time><extensions><speed>1.361757</speed><course>262.654938</course><hAcc>0.882580</hAcc><vAcc>0.695867</vAcc></extensions></trkpt>
      <trkpt lon="-4.123013" lat="53.018102"><ele>122.710800</ele><time>2021-07-17T14:44:59Z</time><extensions><speed>1.376231</speed><course>262.654938</course><hAcc>0.882648</hAcc><vAcc>0.696135</vAcc></extensions></trkpt>
      <trkpt lon="-4.123015" lat="53.018090"><ele>122.697411</ele><time>2021-07-17T14:45:00Z</time><extensions><speed>1.387710</speed><course>262.654938</course><hAcc>0.882720</hAcc><vAcc>0.696446</vAcc></extensions></trkpt>
      <trkpt lon="-4.123017" lat="53.018078"><ele>122.686302</ele><time>2021-07-17T14:45:01Z</time><extensions><speed>1.395872</speed><course>262.654938</course><hAcc>0.882791</hAcc><vAcc>0.696772</vAcc></extensions></trkpt>
      <trkpt lon="-4.123018" lat="53.018065"><ele>122.678207</ele><time>2021-07-17T14:45:02Z</time><extensions><speed>1.400388</speed><course>262.654938</course><hAcc>0.882852</hAcc><vAcc>0.697073</vAcc></extensions></trkpt>
      <trkpt lon="-4.123020" lat="53.018052"><ele>122.673882</ele><time>2021-07-17T14:45:03Z</time><extensions><speed>1.401125</speed><course>262.654938</course><hAcc>0.882896</hAcc><vAcc>0.697306</vAcc></extensions></trkpt>
      <trkpt lon="-4.123022" lat="53.018040"><ele>122.673607</ele><time>2021-07-17T14:45:04Z</time><extensions><speed>1.398610</speed><course>262.654938</course><hAcc>0.882917</hAcc><vAcc>0.697428</vAcc></extensions></trkpt>
      <trkpt lon="-4.123023" lat="53.018027"><ele>122.677109</ele><time>2021-07-17T14:45:05Z</time><extensions><speed>1.393702</speed><course>262.654938</course><hAcc>0.882912</hAcc><vAcc>0.697415</vAcc></extensions></trkpt>
      <trkpt lon="-4.123025" lat="53.018015"><ele>122.683952</ele><time>2021-07-17T14:45:06Z</time><extensions><speed>1.387146</speed><course>262.654938</course><hAcc>0.882878</hAcc><vAcc>0.697265</vAcc></extensions></trkpt>
      <trkpt lon="-4.123025" lat="53.018003"><ele>122.693825</ele><time>2021-07-17T14:45:07Z</time><extensions><speed>1.379533</speed><course>262.654938</course><hAcc>0.882820</hAcc><vAcc>0.696997</vAcc></extensions></trkpt>
      <trkpt lon="-4.123026" lat="53.017990"><ele>122.706161</ele><time>2021-07-17T14:45:08Z</time><extensions><speed>1.371699</speed><course>262.654938</course><hAcc>0.882740</hAcc><vAcc>0.696645</vAcc></extensions></trkpt>
      <trkpt lon="-4.123027" lat="53.017978"><ele>122.719925</ele><time>2021-07-17T14:45:09Z</time><extensions><speed>1.364315</speed><course>262.654938</course><hAcc>0.882645</hAcc><vAcc>0.696248</vAcc></extensions></trkpt>
      <trkpt lon="-4.123027" lat="53.017966"><ele>122.734383</ele><time>2021-07-17T14:45:10Z</time><extensions><speed>1.357199</speed><course>262.654938</course><hAcc>0.882542</hAcc><vAcc>0.695844</vAcc></extensions></trkpt>
      <trkpt lon="-4.123027" lat="53.017953"><ele>122.749550</ele><time>2021-07-17T14:45:11Z</time><extensions><speed>1.350135</speed><course>262.654938</course><hAcc>0.882436</hAcc><vAcc>0.695465</vAcc></extensions></trkpt>
      <trkpt lon="-4.123027" lat="53.017941"><ele>122.765518</ele><time>2021-07-17T14:45:12Z</time><extensions><speed>1.342921</speed><course>262.654938</course><hAcc>0.882333</hAcc><vAcc>0.695125</vAcc></extensions></trkpt>
      <trkpt lon="-4.123027" lat="53.017929"><ele>122.782188</ele><time>2021-07-17T14:45:13Z</time><extensions><speed>1.335357</speed><course>262.654938</course><hAcc>0.882235</hAcc><vAcc>0.694826</vAcc></extensions></trkpt>
      <trkpt lon="-4.123027" lat="53.017917"><ele>122.799591</ele><time>2021-07-17T14:45:14Z</time><extensions><speed>1.327276</speed><course>262.654938</course><hAcc>0.882144</hAcc><vAcc>0.694560</vAcc></extensions></trkpt>
      <trkpt lon="-4.123027" lat="53.017906"><ele>122.818115</ele><time>2021-07-17T14:45:15Z</time><extensions><speed>1.318499</speed><course>262.654938</course><hAcc>0.882060</hAcc><vAcc>0.694318</vAcc></extensions></trkpt>
      <trkpt lon="-4.123026" lat="53.017894"><ele>122.838127</ele><time>2021-07-17T14:45:16Z</time><extensions><speed>1.309626</speed><course>262.654938</course><hAcc>0.881984</hAcc><vAcc>0.694094</vAcc></extensions></trkpt>
      <trkpt lon="-4.123026" lat="53.017882"><ele>122.859665</ele><time>2021-07-17T14:45:17Z</time><extensions><speed>1.301529</speed><course>262.654938</course><hAcc>0.881917</hAcc><vAcc>0.693885</vAcc></extensions></trkpt>
      <trkpt lon="-4.123026" lat="53.017870"><ele>122.883026</ele><time>2021-07-17T14:45:18Z</time><extensions><speed>1.294663</speed><course>262.654938</course><hAcc>0.881858</hAcc><vAcc>0.693694</vAcc></extensions></trkpt>
      <trkpt lon="-4.123026" lat="53.017859"><ele>122.908936</ele><time>2021-07-17T14:45:19Z</time><extensions><speed>1.289358</speed><course>262.654938</course><hAcc>0.881810</hAcc><vAcc>0.693524</vAcc></extensions></trkpt>
      <trkpt lon="-4.123026" lat="53.017847"><ele>122.937996</ele><time>2021-07-17T14:45:20Z</time><extensions><speed>1.285596</speed><course>262.654938</course><hAcc>0.881773</hAcc><vAcc>0.693383</vAcc></extensions></trkpt>
      <trkpt lon="-4.123027" lat="53.017836"><ele>122.970688</ele><time>2021-07-17T14:45:21Z</time><extensions><speed>1.283437</speed><course>262.654938</course><hAcc>0.881749</hAcc><vAcc>0.693281</vAcc></extensions></trkpt>
      <trkpt lon="-4.123027" lat="53.017824"><ele>123.007637</ele><time>2021-07-17T14:45:22Z</time><extensions><speed>1.282925</speed><course>262.654938</course><hAcc>0.881740</hAcc><vAcc>0.693230</vAcc></extensions></trkpt>
      <trkpt lon="-4.123027" lat="53.017813"><ele>123.049515</ele><time>2021-07-17T14:45:23Z</time><extensions><speed>1.283733</speed><course>262.654938</course><hAcc>0.881747</hAcc><vAcc>0.693238</vAcc></extensions></trkpt>
      <trkpt lon="-4.123027" lat="53.017801"><ele>123.096550</ele><time>2021-07-17T14:45:24Z</time><extensions><speed>1.285550</speed><course>262.654938</course><hAcc>0.881769</hAcc><vAcc>0.693310</vAcc></extensions></trkpt>
      <trkpt lon="-4.123028" lat="53.017789"><ele>123.148636</ele><time>2021-07-17T14:45:25Z</time><extensions><speed>1.288016</speed><course>262.654938</course><hAcc>0.881807</hAcc><vAcc>0.693444</vAcc></extensions></trkpt>
      <trkpt lon="-4.123028" lat="53.017778"><ele>123.205864</ele><time>2021-07-17T14:45:26Z</time><extensions><speed>1.290610</speed><course>262.654938</course><hAcc>0.881857</hAcc><vAcc>0.693634</vAcc></extensions></trkpt>
      <trkpt lon="-4.123028" lat="53.017766"><ele>123.268410</ele><time>2021-07-17T14:45:27Z</time><extensions><speed>1.293348</speed><course>262.654938</course><hAcc>0.881917</hAcc><vAcc>0.693864</vAcc></extensions></trkpt>
      <trkpt lon="-4.123029" lat="53.017755"><ele>123.336174</ele><time>2021-07-17T14:45:28Z</time><extensions><speed>1.296907</speed><course>262.654938</course><hAcc>0.881982</hAcc><vAcc>0.694117</vAcc></extensions></trkpt>
      <trkpt lon="-4.123029" lat="53.017743"><ele>123.408669</ele><time>2021-07-17T14:45:29Z</time><extensions><speed>1.301687</speed><course>262.654938</course><hAcc>0.882048</hAcc><vAcc>0.694372</vAcc></extensions></trkpt>
      <trkpt lon="-4.123030" lat="53.017731"><ele>123.485245</ele><time>2021-07-17T14:45:30Z</time><extensions><speed>1.307527</speed><course>262.654938</course><hAcc>0.882111</hAcc><vAcc>0.694610</vAcc></extensions></trkpt>
      <trkpt lon="-4.123030" lat="53.017719"><ele>123.565163</ele><time>2021-07-17T14:45:31Z</time><extensions><speed>1.314018</speed><course>262.654938</course><hAcc>0.882165</hAcc><vAcc>0.694812</vAcc></extensions></trkpt>
      <trkpt lon="-4.123031" lat="53.017708"><ele>123.647728</ele><time>2021-07-17T14:45:32Z</time><extensions><speed>1.320897</speed><course>262.654938</course><hAcc>0.882208</hAcc><vAcc>0.694964</vAcc></extensions></trkpt>
      <trkpt lon="-4.123031" lat="53.017696"><ele>123.732468</ele><time>2021-07-17T14:45:33Z</time><extensions><speed>1.327728</speed><course>262.654938</course><hAcc>0.882236</hAcc><vAcc>0.695061</vAcc></extensions></trkpt>
      <trkpt lon="-4.123031" lat="53.017684"><ele>123.819283</ele><time>2021-07-17T14:45:34Z</time><extensions><speed>1.334210</speed><course>262.654938</course><hAcc>0.882250</hAcc><vAcc>0.695099</vAcc></extensions></trkpt>
      <trkpt lon="-4.123032" lat="53.017672"><ele>123.908005</ele><time>2021-07-17T14:45:35Z</time><extensions><speed>1.340317</speed><course>262.654938</course><hAcc>0.882247</hAcc><vAcc>0.695077</vAcc></extensions></trkpt>
      <trkpt lon="-4.123032" lat="53.017660"><ele>123.998085</ele><time>2021-07-17T14:45:36Z</time><extensions><speed>1.345902</speed><course>262.654938</course><hAcc>0.882228</hAcc><vAcc>0.694999</vAcc></extensions></trkpt>
      <trkpt lon="-4.123032" lat="53.017648"><ele>124.088959</ele><time>2021-07-17T14:45:37Z</time><extensions><speed>1.350429</speed><course>262.654938</course><hAcc>0.882194</hAcc><vAcc>0.694870</vAcc></extensions></trkpt>
      <trkpt lon="-4.123032" lat="53.017635"><ele>124.180565</ele><time>2021-07-17T14:45:38Z</time><extensions><speed>1.353296</speed><course>262.654938</course><hAcc>0.882147</hAcc><vAcc>0.694701</vAcc></extensions></trkpt>
      <trkpt lon="-4.123032" lat="53.017623"><ele>124.272888</ele><time>2021-07-17T14:45:39Z</time><extensions><speed>1.354334</speed><course>262.654938</course><hAcc>0.882088</hAcc><vAcc>0.694500</vAcc></extensions></trkpt>
      <trkpt lon="-4.123032" lat="53.017611"><ele>124.365349</ele><time>2021-07-17T14:45:40Z</time><extensions><speed>1.353570</speed><course>262.654938</course><hAcc>0.882018</hAcc><vAcc>0.694275</vAcc></extensions></trkpt>
      <trkpt lon="-4.123032" lat="53.017599"><ele>124.457474</ele><time>2021-07-17T14:45:41Z</time><extensions><speed>1.350898</speed><course>209.646423</course><hAcc>0.881938</hAcc><vAcc>0.694028</vAcc></extensions></trkpt>
      <trkpt lon="-4.123031" lat="53.017587"><ele>124.549057</ele><time>2021-07-17T14:45:42Z</time><extensions><speed>1.346246</speed><course>207.502853</course><hAcc>0.881848</hAcc><vAcc>0.693759</vAcc></extensions></trkpt>
      <trkpt lon="-4.123031" lat="53.017575"><ele>124.639587</ele><time>2021-07-17T14:45:43Z</time><extensions><speed>1.339790</speed><course>210.649872</course><hAcc>0.881747</hAcc><vAcc>0.693462</vAcc></extensions></trkpt>
      <trkpt lon="-4.123030" lat="53.017563"><ele>124.728386</ele><time>2021-07-17T14:45:44Z</time><extensions><speed>1.331766</speed><course>218.307190</course><hAcc>0.881635</hAcc><vAcc>0.693129</vAcc></extensions></trkpt>
      <trkpt lon="-4.123029" lat="53.017551"><ele>124.814919</ele><time>2021-07-17T14:45:45Z</time><extensions><speed>1.322884</speed><course>221.774033</course><hAcc>0.881511</hAcc><vAcc>0.692756</vAcc></extensions></trkpt>
      <trkpt lon="-4.123028" lat="53.017539"><ele>124.898476</ele><time>2021-07-17T14:45:46Z</time><extensions><speed>1.313932</speed><course>225.071381</course><hAcc>0.881375</hAcc><vAcc>0.692340</vAcc></extensions></trkpt>
      <trkpt lon="-4.123027" lat="53.017527"><ele>124.978561</ele><time>2021-07-17T14:45:47Z</time><extensions><speed>1.305128</speed><course>229.682953</course><hAcc>0.881227</hAcc><vAcc>0.691884</vAcc></extensions></trkpt>
      <trkpt lon="-4.123025" lat="53.017516"><ele>125.055153</ele><time>2021-07-17T14:45:48Z</time><extensions><speed>1.296901</speed><course>228.187271</course><hAcc>0.881068</hAcc><vAcc>0.691394</vAcc></extensions></trkpt>
      <trkpt lon="-4.123024" lat="53.017504"><ele>125.128120</ele><time>2021-07-17T14:45:49Z</time><extensions><speed>1.290153</speed><course>224.821243</course><hAcc>0.880899</hAcc><vAcc>0.690880</vAcc></extensions></trkpt>
      <trkpt lon="-4.123022" lat="53.017492"><ele>125.196808</ele><time>2021-07-17T14:45:50Z</time><extensions><speed>1.285683</speed><course>222.757462</course><hAcc>0.880722</hAcc><vAcc>0.690350</vAcc></extensions></trkpt>
      <trkpt lon="-4.123021" lat="53.017481"><ele>125.260315</ele><time>2021-07-17T14:45:50Z</time><extensions><speed>1.283939</speed><course>223.047150</course><hAcc>0.880556</hAcc><vAcc>0.689822</vAcc></extensions></trkpt>
      <trkpt lon="-4.123020" lat="53.017469"><ele>125.318230</ele><time>2021-07-17T14:45:51Z</time><extensions><speed>1.284880</speed><course>218.695862</course><hAcc>0.880405</hAcc><vAcc>0.689297</vAcc></extensions></trkpt>
      <trkpt lon="-4.123018" lat="53.017458"><ele>125.370285</ele><time>2021-07-17T14:45:52Z</time><extensions><speed>1.288447</speed><course>216.351273</course><hAcc>0.880253</hAcc><vAcc>0.688770</vAcc></extensions></trkpt>
      <trkpt lon="-4.123017" lat="53.017446"><ele>125.416374</ele><time>2021-07-17T14:45:53Z</time><extensions><speed>1.294612</speed><course>219.658188</course><hAcc>0.880107</hAcc><vAcc>0.688250</vAcc></extensions></trkpt>
      <trkpt lon="-4.123016" lat="53.017435"><ele>125.456619</ele><time>2021-07-17T14:45:54Z</time><extensions><speed>1.302973</speed><course>221.748871</course><hAcc>0.879973</hAcc><vAcc>0.687758</vAcc></extensions></trkpt>
      <trkpt lon="-4.123015" lat="53.017423"><ele>125.491730</ele><time>2021-07-17T14:45:55Z</time><extensions><speed>1.312971</speed><course>225.723022</course><hAcc>0.879857</hAcc><vAcc>0.687321</vAcc></extensions></trkpt>
      <trkpt lon="-4.123015" lat="53.017411"><ele>125.522491</ele><time>2021-07-17T14:45:56Z</time><extensions><speed>1.324198</speed><course>227.303833</course><hAcc>0.879767</hAcc><vAcc>0.686973</vAcc></extensions></trkpt>
      <trkpt lon="-4.123014" lat="53.017399"><ele>125.549431</ele><time>2021-07-17T14:45:57Z</time><extensions><speed>1.336459</speed><course>225.742310</course><hAcc>0.879708</hAcc><vAcc>0.686745</vAcc></extensions></trkpt>
      <trkpt lon="-4.123014" lat="53.017387"><ele>125.573044</ele><time>2021-07-17T14:45:58Z</time><extensions><speed>1.349226</speed><course>225.742310</course><hAcc>0.879683</hAcc><vAcc>0.686658</vAcc></extensions></trkpt>
      <trkpt lon="-4.123013" lat="53.017375"><ele>125.593811</ele><time>2021-07-17T14:45:59Z</time><extensions><speed>1.361885</speed><course>225.742325</course><hAcc>0.879693</hAcc><vAcc>0.686714</vAcc></extensions></trkpt>
      <trkpt lon="-4.123013" lat="53.017363"><ele>125.611687</ele><time>2021-07-17T14:46:00Z</time><extensions><speed>1.374292</speed><course>225.742325</course><hAcc>0.879734</hAcc><vAcc>0.686896</vAcc></extensions></trkpt>
      <trkpt lon="-4.123014" lat="53.017350"><ele>125.626427</ele><time>2021-07-17T14:46:01Z</time><extensions><speed>1.386313</speed><course>225.742325</course><hAcc>0.879801</hAcc><vAcc>0.687175</vAcc></extensions></trkpt>
      <trkpt lon="-4.123014" lat="53.017338"><ele>125.638535</ele><time>2021-07-17T14:46:02Z</time><extensions><speed>1.397508</speed><course>224.360504</course><hAcc>0.879886</hAcc><vAcc>0.687514</vAcc></extensions></trkpt>
      <trkpt lon="-4.123014" lat="53.017325"><ele>125.648811</ele><time>2021-07-17T14:46:03Z</time><extensions><speed>1.407897</speed><course>231.374908</course><hAcc>0.879982</hAcc><vAcc>0.687873</vAcc></extensions></trkpt>
      <trkpt lon="-4.123015" lat="53.017312"><ele>125.657570</ele><time>2021-07-17T14:46:04Z</time><extensions><speed>1.417953</speed><course>226.234039</course><hAcc>0.880080</hAcc><vAcc>0.688226</vAcc></extensions></trkpt>
      <trkpt lon="-4.123016" lat="53.017300"><ele>125.664841</ele><time>2021-07-17T14:46:05Z</time><extensions><speed>1.427904</speed><course>228.443588</course><hAcc>0.880175</hAcc><vAcc>0.688554</vAcc></extensions></trkpt>
      <trkpt lon="-4.123016" lat="53.017287"><ele>125.670860</ele><time>2021-07-17T14:46:06Z</time><extensions><speed>1.437417</speed><course>217.150848</course><hAcc>0.880265</hAcc><vAcc>0.688844</vAcc></extensions></trkpt>
      <trkpt lon="-4.123017" lat="53.017274"><ele>125.675926</ele><time>2021-07-17T14:46:07Z</time><extensions><speed>1.446249</speed><course>214.670395</course><hAcc>0.880346</hAcc><vAcc>0.689092</vAcc></extensions></trkpt>
      <trkpt lon="-4.123018" lat="53.017261"><ele>125.680099</ele><time>2021-07-17T14:46:08Z</time><extensions><speed>1.454369</speed><course>219.066208</course><hAcc>0.880419</hAcc><vAcc>0.689296</vAcc></extensions></trkpt>
      <trkpt lon="-4.123018" lat="53.017248"><ele>125.683792</ele><time>2021-07-17T14:46:09Z</time><extensions><speed>1.461606</speed><course>218.042282</course><hAcc>0.880484</hAcc><vAcc>0.689461</vAcc></extensions></trkpt>
      <trkpt lon="-4.123019" lat="53.017235"><ele>125.687691</ele><time>2021-07-17T14:46:10Z</time><extensions><speed>1.468133</speed><course>220.994385</course><hAcc>0.880545</hAcc><vAcc>0.689603</vAcc></extensions></trkpt>
      <trkpt lon="-4.123019" lat="53.017221"><ele>125.691940</ele><time>2021-07-17T14:46:11Z</time><extensions><speed>1.473906</speed><course>227.746307</course><hAcc>0.880606</hAcc><vAcc>0.689740</vAcc></extensions></trkpt>
      <trkpt lon="-4.123019" lat="53.017208"><ele>125.696274</ele><time>2021-07-17T14:46:12Z</time><extensions><speed>1.478425</speed><course>224.855316</course><hAcc>0.880672</hAcc><vAcc>0.689896</vAcc></extensions></trkpt>
      <trkpt lon="-4.123019" lat="53.017195"><ele>125.700722</ele><time>2021-07-17T14:46:13Z</time><extensions><speed>1.481472</speed><course>223.584900</course><hAcc>0.880747</hAcc><vAcc>0.690091</vAcc></extensions></trkpt>
      <trkpt lon="-4.123019" lat="53.017181"><ele>125.705612</ele><time>2021-07-17T14:46:14Z</time><extensions><speed>1.483094</speed><course>224.383530</course><hAcc>0.880834</hAcc><vAcc>0.690338</vAcc></extensions></trkpt>
      <trkpt lon="-4.123019" lat="53.017168"><ele>125.711555</ele><time>2021-07-17T14:46:15Z</time><extensions><speed>1.483384</speed><course>225.716217</course><hAcc>0.880935</hAcc><vAcc>0.690643</vAcc></extensions></trkpt>
      <trkpt lon="-4.123019" lat="53.017155"><ele>125.719742</ele><time>2021-07-17T14:46:16Z</time><extensions><speed>1.482751</speed><course>229.189102</course><hAcc>0.881051</hAcc><vAcc>0.691009</vAcc></extensions></trkpt>
      <trkpt lon="-4.123018" lat="53.017141"><ele>125.731621</ele><time>2021-07-17T14:46:17Z</time><extensions><speed>1.481307</speed><course>224.817474</course><hAcc>0.881181</hAcc><vAcc>0.691430</vAcc></extensions></trkpt>
      <trkpt lon="-4.123018" lat="53.017128"><ele>125.748550</ele><time>2021-07-17T14:46:18Z</time><extensions><speed>1.478512</speed><course>225.227936</course><hAcc>0.881322</hAcc><vAcc>0.691895</vAcc></extensions></trkpt>
      <trkpt lon="-4.123017" lat="53.017115"><ele>125.771858</ele><time>2021-07-17T14:46:20Z</time><extensions><speed>1.473778</speed><course>228.251373</course><hAcc>0.881452</hAcc><vAcc>0.692372</vAcc></extensions></trkpt>
      <trkpt lon="-4.123017" lat="53.017102"><ele>125.802444</ele><time>2021-07-17T14:46:21Z</time><extensions><speed>1.466915</speed><course>230.721024</course><hAcc>0.881566</hAcc><vAcc>0.692833</vAcc></extensions></trkpt>
      <trkpt lon="-4.123016" lat="53.017089"><ele>125.840034</ele><time>2021-07-17T14:46:22Z</time><extensions><speed>1.458356</speed><course>234.697540</course><hAcc>0.881676</hAcc><vAcc>0.693258</vAcc></extensions></trkpt>
      <trkpt lon="-4.123015" lat="53.017076"><ele>125.883034</ele><time>2021-07-17T14:46:23Z</time><extensions><speed>1.448947</speed><course>236.619934</course><hAcc>0.881776</hAcc><vAcc>0.693618</vAcc></extensions></trkpt>
      <trkpt lon="-4.123014" lat="53.017063"><ele>125.929840</ele><time>2021-07-17T14:46:24Z</time><extensions><speed>1.439464</speed><course>247.542679</course><hAcc>0.881863</hAcc><vAcc>0.693899</vAcc></extensions></trkpt>
      <trkpt lon="-4.123013" lat="53.017050"><ele>125.979637</ele><time>2021-07-17T14:46:25Z</time><extensions><speed>1.430909</speed><course>242.855072</course><hAcc>0.881934</hAcc><vAcc>0.694104</vAcc></extensions></trkpt>
      <trkpt lon="-4.123012" lat="53.017037"><ele>126.031769</ele><time>2021-07-17T14:46:26Z</time><extensions><speed>1.424382</speed><course>241.397278</course><hAcc>0.881989</hAcc><vAcc>0.694247</vAcc></extensions></trkpt>
      <trkpt lon="-4.123011" lat="53.017024"><ele>126.085480</ele><time>2021-07-17T14:46:27Z</time><extensions><speed>1.420435</speed><course>241.667068</course><hAcc>0.882029</hAcc><vAcc>0.694340</vAcc></extensions></trkpt>
      <trkpt lon="-4.123010" lat="53.017011"><ele>126.140442</ele><time>2021-07-17T14:46:28Z</time><extensions><speed>1.419192</speed><course>241.132874</course><hAcc>0.882057</hAcc><vAcc>0.694398</vAcc></extensions></trkpt>
      <trkpt lon="-4.123009" lat="53.016999"><ele>126.196503</ele><time>2021-07-17T14:46:29Z</time><extensions><speed>1.420908</speed><course>242.509506</course><hAcc>0.882075</hAcc><vAcc>0.694431</vAcc></extensions></trkpt>
      <trkpt lon="-4.123009" lat="53.016986"><ele>126.252983</ele><time>2021-07-17T14:46:30Z</time><extensions><speed>1.425389</speed><course>242.195404</course><hAcc>0.882085</hAcc><vAcc>0.694445</vAcc></extensions></trkpt>
      <trkpt lon="-4.123008" lat="53.016973"><ele>126.309425</ele><time>2021-07-17T14:46:31Z</time><extensions><speed>1.431783</speed><course>244.443573</course><hAcc>0.882088</hAcc><vAcc>0.694447</vAcc></extensions></trkpt>
      <trkpt lon="-4.123008" lat="53.016960"><ele>126.365730</ele><time>2021-07-17T14:46:32Z</time><extensions><speed>1.439350</speed><course>246.780472</course><hAcc>0.882088</hAcc><vAcc>0.694442</vAcc></extensions></trkpt>
      <trkpt lon="-4.123007" lat="53.016947"><ele>126.421745</ele><time>2021-07-17T14:46:33Z</time><extensions><speed>1.447402</speed><course>247.423477</course><hAcc>0.882085</hAcc><vAcc>0.694432</vAcc></extensions></trkpt>
      <trkpt lon="-4.123007" lat="53.016934"><ele>126.477509</ele><time>2021-07-17T14:46:34Z</time><extensions><speed>1.455308</speed><course>252.345490</course><hAcc>0.882080</hAcc><vAcc>0.694418</vAcc></extensions></trkpt>
      <trkpt lon="-4.123007" lat="53.016921"><ele>126.533394</ele><time>2021-07-17T14:46:35Z</time><extensions><speed>1.462420</speed><course>252.366760</course><hAcc>0.882074</hAcc><vAcc>0.694399</vAcc></extensions></trkpt>
      <trkpt lon="-4.123006" lat="53.016908"><ele>126.589783</ele><time>2021-07-17T14:46:36Z</time><extensions><speed>1.468190</speed><course>254.889893</course><hAcc>0.882068</hAcc><vAcc>0.694377</vAcc></extensions></trkpt>
      <trkpt lon="-4.123006" lat="53.016895"><ele>126.647011</ele><time>2021-07-17T14:46:37Z</time><extensions><speed>1.472131</speed><course>257.492432</course><hAcc>0.882063</hAcc><vAcc>0.694352</vAcc></extensions></trkpt>
      <trkpt lon="-4.123006" lat="53.016881"><ele>126.705811</ele><time>2021-07-17T14:46:38Z</time><extensions><speed>1.473807</speed><course>255.728439</course><hAcc>0.882058</hAcc><vAcc>0.694329</vAcc></extensions></trkpt>
      <trkpt lon="-4.123005" lat="53.016868"><ele>126.767143</ele><time>2021-07-17T14:46:39Z</time><extensions><speed>1.473485</speed><course>258.375061</course><hAcc>0.882056</hAcc><vAcc>0.694312</vAcc></extensions></trkpt>
      <trkpt lon="-4.123004" lat="53.016855"><ele>126.831558</ele><time>2021-07-17T14:46:40Z</time><extensions><speed>1.471724</speed><course>260.722260</course><hAcc>0.882055</hAcc><vAcc>0.694306</vAcc></extensions></trkpt>
      <trkpt lon="-4.123003" lat="53.016842"><ele>126.899132</ele><time>2021-07-17T14:46:41Z</time><extensions><speed>1.468551</speed><course>260.722260</course><hAcc>0.882056</hAcc><vAcc>0.694313</vAcc></extensions></trkpt>
      <trkpt lon="-4.123002" lat="53.016829"><ele>126.969841</ele><time>2021-07-17T14:46:42Z</time><extensions><speed>1.463590</speed><course>260.722260</course><hAcc>0.882057</hAcc><vAcc>0.694332</vAcc></extensions></trkpt>
      <trkpt lon="-4.123000" lat="53.016815"><ele>127.043579</ele><time>2021-07-17T14:46:43Z</time><extensions><speed>1.456782</speed><course>260.722260</course><hAcc>0.882059</hAcc><vAcc>0.694356</vAcc></extensions></trkpt>
      <trkpt lon="-4.122998" lat="53.016802"><ele>127.119637</ele><time>2021-07-17T14:46:44Z</time><extensions><speed>1.448344</speed><course>260.722260</course><hAcc>0.882058</hAcc><vAcc>0.694378</vAcc></extensions></trkpt>
      <trkpt lon="-4.122996" lat="53.016790"><ele>127.196808</ele><time>2021-07-17T14:46:45Z</time><extensions><speed>1.438650</speed><course>260.722260</course><hAcc>0.882053</hAcc><vAcc>0.694384</vAcc></extensions></trkpt>
      <trkpt lon="-4.122994" lat="53.016777"><ele>127.274124</ele><time>2021-07-17T14:46:46Z</time><extensions><speed>1.427773</speed><course>260.722260</course><hAcc>0.882043</hAcc><vAcc>0.694367</vAcc></extensions></trkpt>
      <trkpt lon="-4.122991" lat="53.016764"><ele>127.351219</ele><time>2021-07-17T14:46:47Z</time><extensions><speed>1.415725</speed><course>260.722229</course><hAcc>0.882026</hAcc><vAcc>0.694321</vAcc></extensions></trkpt>
      <trkpt lon="-4.122988" lat="53.016752"><ele>127.427704</ele><time>2021-07-17T14:46:48Z</time><extensions><speed>1.403152</speed><course>268.575928</course><hAcc>0.882003</hAcc><vAcc>0.694246</vAcc></extensions></trkpt>
      <trkpt lon="-4.122986" lat="53.016739"><ele>127.502983</ele><time>2021-07-17T14:46:49Z</time><extensions><speed>1.390545</speed><course>268.685822</course><hAcc>0.881973</hAcc><vAcc>0.694143</vAcc></extensions></trkpt>
      <trkpt lon="-4.122982" lat="53.016727"><ele>127.576736</ele><time>2021-07-17T14:46:50Z</time><extensions><speed>1.377848</speed><course>264.169769</course><hAcc>0.881939</hAcc><vAcc>0.694015</vAcc></extensions></trkpt>
      <trkpt lon="-4.122979" lat="53.016715"><ele>127.649414</ele><time>2021-07-17T14:46:51Z</time><extensions><speed>1.364983</speed><course>272.216278</course><hAcc>0.881901</hAcc><vAcc>0.693868</vAcc></extensions></trkpt>
      <trkpt lon="-4.122976" lat="53.016703"><ele>127.721733</ele><time>2021-07-17T14:46:52Z</time><extensions><speed>1.352178</speed><course>279.707916</course><hAcc>0.881863</hAcc><vAcc>0.693714</vAcc></extensions></trkpt>
      <trkpt lon="-4.122973" lat="53.016691"><ele>127.793770</ele><time>2021-07-17T14:46:53Z</time><extensions><speed>1.339675</speed><course>277.974487</course><hAcc>0.881827</hAcc><vAcc>0.693567</vAcc></extensions></trkpt>
      <trkpt lon="-4.122969" lat="53.016679"><ele>127.865067</ele><time>2021-07-17T14:46:54Z</time><extensions><speed>1.327323</speed><course>285.359497</course><hAcc>0.881796</hAcc><vAcc>0.693442</vAcc></extensions></trkpt>
      <trkpt lon="-4.122966" lat="53.016667"><ele>127.935616</ele><time>2021-07-17T14:46:55Z</time><extensions><speed>1.314335</speed><course>288.896698</course><hAcc>0.881773</hAcc><vAcc>0.693350</vAcc></extensions></trkpt>
      <trkpt lon="-4.122962" lat="53.016656"><ele>128.006088</ele><time>2021-07-17T14:46:56Z</time><extensions><speed>1.300013</speed><course>285.949463</course><hAcc>0.881760</hAcc><vAcc>0.693302</vAcc></extensions></trkpt>
      <trkpt lon="-4.122959" lat="53.016644"><ele>128.077209</ele><time>2021-07-17T14:46:57Z</time><extensions><speed>1.284223</speed><course>279.328217</course><hAcc>0.881756</hAcc><vAcc>0.693299</vAcc></extensions></trkpt>
      <trkpt lon="-4.122956" lat="53.016633"><ele>128.149384</ele><time>2021-07-17T14:46:58Z</time><extensions><speed>1.266867</speed><course>280.252258</course><hAcc>0.881761</hAcc><vAcc>0.693338</vAcc></extensions></trkpt>
      <trkpt lon="-4.122953" lat="53.016622"><ele>128.222824</ele><time>2021-07-17T14:46:59Z</time><extensions><speed>1.247610</speed><course>280.968384</course><hAcc>0.881776</hAcc><vAcc>0.693410</vAcc></extensions></trkpt>
      <trkpt lon="-4.122951" lat="53.016611"><ele>128.297546</ele><time>2021-07-17T14:47:00Z</time><extensions><speed>1.226000</speed><course>279.577759</course><hAcc>0.881796</hAcc><vAcc>0.693503</vAcc></extensions></trkpt>
      <trkpt lon="-4.122948" lat="53.016600"><ele>128.373291</ele><time>2021-07-17T14:47:01Z</time><extensions><speed>1.201381</speed><course>280.039124</course><hAcc>0.881822</hAcc><vAcc>0.693608</vAcc></extensions></trkpt>
      <trkpt lon="-4.122946" lat="53.016589"><ele>128.449860</ele><time>2021-07-17T14:47:02Z</time><extensions><speed>1.172888</speed><course>285.588440</course><hAcc>0.881851</hAcc><vAcc>0.693713</vAcc></extensions></trkpt>
      <trkpt lon="-4.122943" lat="53.016579"><ele>128.527054</ele><time>2021-07-17T14:47:03Z</time><extensions><speed>1.140027</speed><course>287.653503</course><hAcc>0.881882</hAcc><vAcc>0.693812</vAcc></extensions></trkpt>
      <trkpt lon="-4.122941" lat="53.016569"><ele>128.604263</ele><time>2021-07-17T14:47:04Z</time><extensions><speed>1.102763</speed><course>285.239563</course><hAcc>0.881916</hAcc><vAcc>0.693907</vAcc></extensions></trkpt>
      <trkpt lon="-4.122940" lat="53.016559"><ele>128.680710</ele><time>2021-07-17T14:47:05Z</time><extensions><speed>1.061260</speed><course>283.468018</course><hAcc>0.881954</hAcc><vAcc>0.694003</vAcc></extensions></trkpt>
      <trkpt lon="-4.122938" lat="53.016550"><ele>128.755417</ele><time>2021-07-17T14:47:06Z</time><extensions><speed>1.015966</speed><course>279.656525</course><hAcc>0.881997</hAcc><vAcc>0.694111</vAcc></extensions></trkpt>
      <trkpt lon="-4.122937" lat="53.016541"><ele>128.827057</ele><time>2021-07-17T14:47:07Z</time><extensions><speed>0.967149</speed><course>278.539093</course><hAcc>0.882048</hAcc><vAcc>0.694243</vAcc></extensions></trkpt>
      <trkpt lon="-4.122937" lat="53.016533"><ele>128.894470</ele><time>2021-07-17T14:47:08Z</time><extensions><speed>0.915066</speed><course>281.435120</course><hAcc>0.882109</hAcc><vAcc>0.694412</vAcc></extensions></trkpt>
      <trkpt lon="-4.122936" lat="53.016525"><ele>128.956665</ele><time>2021-07-17T14:47:09Z</time><extensions><speed>0.860119</speed><course>285.299316</course><hAcc>0.882182</hAcc><vAcc>0.694627</vAcc></extensions></trkpt>
      <trkpt lon="-4.122936" lat="53.016517"><ele>129.012680</ele><time>2021-07-17T14:47:10Z</time><extensions><speed>0.802529</speed><course>278.729095</course><hAcc>0.882269</hAcc><vAcc>0.694895</vAcc></extensions></trkpt>
      <trkpt lon="-4.122936" lat="53.016510"><ele>129.061951</ele><time>2021-07-17T14:47:11Z</time><extensions><speed>0.742821</speed><course>281.499542</course><hAcc>0.882370</hAcc><vAcc>0.695214</vAcc></extensions></trkpt>
      <trkpt lon="-4.122937" lat="53.016504"><ele>129.104431</ele><time>2021-07-17T14:47:12Z</time><extensions><speed>0.682058</speed><course>280.886475</course><hAcc>0.882486</hAcc><vAcc>0.695580</vAcc></extensions></trkpt>
      <trkpt lon="-4.122938" lat="53.016498"><ele>129.140518</ele><time>2021-07-17T14:47:13Z</time><extensions><speed>0.621640</speed><course>287.541565</course><hAcc>0.882616</hAcc><vAcc>0.695992</vAcc></extensions></trkpt>
      <trkpt lon="-4.122939" lat="53.016493"><ele>129.171051</ele><time>2021-07-17T14:47:14Z</time><extensions><speed>0.562678</speed><course>288.221985</course><hAcc>0.882759</hAcc><vAcc>0.696450</vAcc></extensions></trkpt>
      <trkpt lon="-4.122940" lat="53.016488"><ele>129.196960</ele><time>2021-07-17T14:47:15Z</time><extensions><speed>0.506018</speed><course>291.891876</course><hAcc>0.882913</hAcc><vAcc>0.696952</vAcc></extensions></trkpt>
      <trkpt lon="-4.122940" lat="53.016484"><ele>129.219208</ele><time>2021-07-17T14:47:16Z</time><extensions><speed>0.452661</speed><course>289.035248</course><hAcc>0.883074</hAcc><vAcc>0.697492</vAcc></extensions></trkpt>
      <trkpt lon="-4.122941" lat="53.016480"><ele>129.238632</ele><time>2021-07-17T14:47:17Z</time><extensions><speed>0.404128</speed><course>286.354584</course><hAcc>0.883239</hAcc><vAcc>0.698060</vAcc></extensions></trkpt>
      <trkpt lon="-4.122941" lat="53.016477"><ele>129.255951</ele><time>2021-07-17T14:47:18Z</time><extensions><speed>0.362776</speed><course>285.070648</course><hAcc>0.883402</hAcc><vAcc>0.698644</vAcc></extensions></trkpt>
      <trkpt lon="-4.122941" lat="53.016473"><ele>129.271881</ele><time>2021-07-17T14:47:19Z</time><extensions><speed>0.331291</speed><course>282.456329</course><hAcc>0.883559</hAcc><vAcc>0.699223</vAcc></extensions></trkpt>
      <trkpt lon="-4.122941" lat="53.016471"><ele>129.287277</ele><time>2021-07-17T14:47:20Z</time><extensions><speed>0.311504</speed><course>277.579590</course><hAcc>0.883702</hAcc><vAcc>0.699765</vAcc></extensions></trkpt>
      <trkpt lon="-4.122940" lat="53.016468"><ele>129.303116</ele><time>2021-07-17T14:47:21Z</time><extensions><speed>0.303298</speed><course>280.944580</course><hAcc>0.883826</hAcc><vAcc>0.700228</vAcc></extensions></trkpt>
      <trkpt lon="-4.122938" lat="53.016465"><ele>129.320328</ele><time>2021-07-17T14:47:22Z</time><extensions><speed>0.304345</speed><course>286.555664</course><hAcc>0.883927</hAcc><vAcc>0.700580</vAcc></extensions></trkpt>
      <trkpt lon="-4.122937" lat="53.016463"><ele>129.339813</ele><time>2021-07-17T14:47:23Z</time><extensions><speed>0.311982</speed><course>286.867188</course><hAcc>0.883999</hAcc><vAcc>0.700805</vAcc></extensions></trkpt>
      <trkpt lon="-4.122935" lat="53.016460"><ele>129.362442</ele><time>2021-07-17T14:47:24Z</time><extensions><speed>0.324988</speed><course>285.747314</course><hAcc>0.884044</hAcc><vAcc>0.700906</vAcc></extensions></trkpt>
      <trkpt lon="-4.122933" lat="53.016457"><ele>129.388947</ele><time>2021-07-17T14:47:25Z</time><extensions><speed>0.342890</speed><course>288.748718</course><hAcc>0.884062</hAcc><vAcc>0.700897</vAcc></extensions></trkpt>
      <trkpt lon="-4.122931" lat="53.016454"><ele>129.419998</ele><time>2021-07-17T14:47:26Z</time><extensions><speed>0.365580</speed><course>282.056335</course><hAcc>0.884055</hAcc><vAcc>0.700798</vAcc></extensions></trkpt>
      <trkpt lon="-4.122930" lat="53.016451"><ele>129.456207</ele><time>2021-07-17T14:47:27Z</time><extensions><speed>0.393074</speed><course>284.841522</course><hAcc>0.884029</hAcc><vAcc>0.700638</vAcc></extensions></trkpt>
      <trkpt lon="-4.122928" lat="53.016447"><ele>129.498093</ele><time>2021-07-17T14:47:28Z</time><extensions><speed>0.425133</speed><course>283.873260</course><hAcc>0.883987</hAcc><vAcc>0.700442</vAcc></extensions></trkpt>
      <trkpt lon="-4.122926" lat="53.016444"><ele>129.545883</ele><time>2021-07-17T14:47:29Z</time><extensions><speed>0.461134</speed><course>280.645142</course><hAcc>0.883935</hAcc><vAcc>0.700234</vAcc></extensions></trkpt>
      <trkpt lon="-4.122924" lat="53.016440"><ele>129.599472</ele><time>2021-07-17T14:47:30Z</time><extensions><speed>0.500079</speed><course>278.726105</course><hAcc>0.883877</hAcc><vAcc>0.700028</vAcc></extensions></trkpt>
      <trkpt lon="-4.122922" lat="53.016435"><ele>129.658508</ele><time>2021-07-17T14:47:31Z</time><extensions><speed>0.540919</speed><course>276.107971</course><hAcc>0.883815</hAcc><vAcc>0.699829</vAcc></extensions></trkpt>
      <trkpt lon="-4.122919" lat="53.016430"><ele>129.722473</ele><time>2021-07-17T14:47:32Z</time><extensions><speed>0.582614</speed><course>275.135803</course><hAcc>0.883753</hAcc><vAcc>0.699637</vAcc></extensions></trkpt>
      <trkpt lon="-4.122917" lat="53.016425"><ele>129.790634</ele><time>2021-07-17T14:47:33Z</time><extensions><speed>0.624428</speed><course>273.705627</course><hAcc>0.883691</hAcc><vAcc>0.699453</vAcc></extensions></trkpt>
      <trkpt lon="-4.122914" lat="53.016419"><ele>129.862061</ele><time>2021-07-17T14:47:34Z</time><extensions><speed>0.665921</speed><course>279.700806</course><hAcc>0.883630</hAcc><vAcc>0.699275</vAcc></extensions></trkpt>
      <trkpt lon="-4.122912" lat="53.016413"><ele>129.935776</ele><time>2021-07-17T14:47:35Z</time><extensions><speed>0.706644</speed><course>279.102997</course><hAcc>0.883572</hAcc><vAcc>0.699101</vAcc></extensions></trkpt>
      <trkpt lon="-4.122909" lat="53.016407"><ele>130.010849</ele><time>2021-07-17T14:47:36Z</time><extensions><speed>0.746333</speed><course>281.416626</course><hAcc>0.883517</hAcc><vAcc>0.698929</vAcc></extensions></trkpt>
      <trkpt lon="-4.122906" lat="53.016400"><ele>130.086456</ele><time>2021-07-17T14:47:37Z</time><extensions><speed>0.784833</speed><course>274.399658</course><hAcc>0.883464</hAcc><vAcc>0.698761</vAcc></extensions></trkpt>
      <trkpt lon="-4.122902" lat="53.016394"><ele>130.161987</ele><time>2021-07-17T14:47:38Z</time><extensions><speed>0.822037</speed><course>277.055237</course><hAcc>0.883415</hAcc><vAcc>0.698599</vAcc></extensions></trkpt>
      <trkpt lon="-4.122899" lat="53.016386"><ele>130.237152</ele><time>2021-07-17T14:47:39Z</time><extensions><speed>0.857790</speed><course>271.055908</course><hAcc>0.883371</hAcc><vAcc>0.698449</vAcc></extensions></trkpt>
      <trkpt lon="-4.122896" lat="53.016379"><ele>130.312012</ele><time>2021-07-17T14:47:40Z</time><extensions><speed>0.891821</speed><course>270.959534</course><hAcc>0.883332</hAcc><vAcc>0.698314</vAcc></extensions></trkpt>
      <trkpt lon="-4.122893" lat="53.016371"><ele>130.386765</ele><time>2021-07-17T14:47:41Z</time><extensions><speed>0.924016</speed><course>273.311462</course><hAcc>0.883300</hAcc><vAcc>0.698199</vAcc></extensions></trkpt>
      <trkpt lon="-4.122890" lat="53.016362"><ele>130.461609</ele><time>2021-07-17T14:47:42Z</time><extensions><speed>0.954307</speed><course>270.079376</course><hAcc>0.883277</hAcc><vAcc>0.698108</vAcc></extensions></trkpt>
      <trkpt lon="-4.122887" lat="53.016354"><ele>130.536804</ele><time>2021-07-17T14:47:43Z</time><extensions><speed>0.982739</speed><course>269.858612</course><hAcc>0.883262</hAcc><vAcc>0.698045</vAcc></extensions></trkpt>
      <trkpt lon="-4.122884" lat="53.016345"><ele>130.612762</ele><time>2021-07-17T14:47:44Z</time><extensions><speed>1.009483</speed><course>271.614288</course><hAcc>0.883257</hAcc><vAcc>0.698017</vAcc></extensions></trkpt>
      <trkpt lon="-4.122881" lat="53.016336"><ele>130.690018</ele><time>2021-07-17T14:47:45Z</time><extensions><speed>1.034292</speed><course>269.703888</course><hAcc>0.883263</hAcc><vAcc>0.698030</vAcc></extensions></trkpt>
      <trkpt lon="-4.122879" lat="53.016327"><ele>130.768768</ele><time>2021-07-17T14:47:46Z</time><extensions><speed>1.056620</speed><course>271.185974</course><hAcc>0.883277</hAcc><vAcc>0.698090</vAcc></extensions></trkpt>
      <trkpt lon="-4.122877" lat="53.016317"><ele>130.849030</ele><time>2021-07-17T14:47:47Z</time><extensions><speed>1.075868</speed><course>276.545776</course><hAcc>0.883299</hAcc><vAcc>0.698194</vAcc></extensions></trkpt>
      <trkpt lon="-4.122874" lat="53.016308"><ele>130.930664</ele><time>2021-07-17T14:47:48Z</time><extensions><speed>1.092138</speed><course>274.150604</course><hAcc>0.883326</hAcc><vAcc>0.698330</vAcc></extensions></trkpt>
      <trkpt lon="-4.122872" lat="53.016298"><ele>131.013321</ele><time>2021-07-17T14:47:49Z</time><extensions><speed>1.105839</speed><course>269.686920</course><hAcc>0.883354</hAcc><vAcc>0.698480</vAcc></extensions></trkpt>
      <trkpt lon="-4.122870" lat="53.016288"><ele>131.096802</ele><time>2021-07-17T14:47:50Z</time><extensions><speed>1.117273</speed><course>266.852386</course><hAcc>0.883378</hAcc><vAcc>0.698624</vAcc></extensions></trkpt>
      <trkpt lon="-4.122869" lat="53.016278"><ele>131.180923</ele><time>2021-07-17T14:47:51Z</time><extensions><speed>1.127198</speed><course>267.243347</course><hAcc>0.883394</hAcc><vAcc>0.698742</vAcc></extensions></trkpt>
      <trkpt lon="-4.122867" lat="53.016268"><ele>131.265610</ele><time>2021-07-17T14:47:52Z</time><extensions><speed>1.136231</speed><course>260.829193</course><hAcc>0.883398</hAcc><vAcc>0.698817</vAcc></extensions></trkpt>
      <trkpt lon="-4.122866" lat="53.016258"><ele>131.350876</ele><time>2021-07-17T14:47:52Z</time><extensions><speed>1.144562</speed><course>268.227509</course><hAcc>0.883404</hAcc><vAcc>0.698850</vAcc></extensions></trkpt>
      <trkpt lon="-4.122866" lat="53.016247"><ele>131.437363</ele><time>2021-07-17T14:47:53Z</time><extensions><speed>1.152270</speed><course>261.241119</course><hAcc>0.883412</hAcc><vAcc>0.698834</vAcc></extensions></trkpt>
      <trkpt lon="-4.122866" lat="53.016237"><ele>131.525909</ele><time>2021-07-17T14:47:54Z</time><extensions><speed>1.159310</speed><course>259.199677</course><hAcc>0.883402</hAcc><vAcc>0.698756</vAcc></extensions></trkpt>
      <trkpt lon="-4.122866" lat="53.016226"><ele>131.617599</ele><time>2021-07-17T14:47:55Z</time><extensions><speed>1.165926</speed><course>258.372070</course><hAcc>0.883377</hAcc><vAcc>0.698624</vAcc></extensions></trkpt>
      <trkpt lon="-4.122867" lat="53.016216"><ele>131.712997</ele><time>2021-07-17T14:47:56Z</time><extensions><speed>1.172338</speed><course>251.644882</course><hAcc>0.883339</hAcc><vAcc>0.698447</vAcc></extensions></trkpt>
      <trkpt lon="-4.122868" lat="53.016205"><ele>131.812302</ele><time>2021-07-17T14:47:57Z</time><extensions><speed>1.178070</speed><course>250.726257</course><hAcc>0.883291</hAcc><vAcc>0.698237</vAcc></extensions></trkpt>
      <trkpt lon="-4.122870" lat="53.016195"><ele>131.915726</ele><time>2021-07-17T14:47:59Z</time><extensions><speed>1.182706</speed><course>245.632431</course><hAcc>0.883216</hAcc><vAcc>0.697992</vAcc></extensions></trkpt>
      <trkpt lon="-4.122872" lat="53.016184"><ele>132.023026</ele><time>2021-07-17T14:48:00Z</time><extensions><speed>1.185904</speed><course>245.967255</course><hAcc>0.883115</hAcc><vAcc>0.697721</vAcc></extensions></trkpt>
      <trkpt lon="-4.122874" lat="53.016174"><ele>132.134155</ele><time>2021-07-17T14:48:00Z</time><extensions><speed>1.187297</speed><course>241.448837</course><hAcc>0.883027</hAcc><vAcc>0.697454</vAcc></extensions></trkpt>
      <trkpt lon="-4.122877" lat="53.016163"><ele>132.249176</ele><time>2021-07-17T14:48:01Z</time><extensions><speed>1.186839</speed><course>246.306168</course><hAcc>0.882950</hAcc><vAcc>0.697192</vAcc></extensions></trkpt>
      <trkpt lon="-4.122879" lat="53.016153"><ele>132.367462</ele><time>2021-07-17T14:48:02Z</time><extensions><speed>1.184482</speed><course>241.853012</course><hAcc>0.882867</hAcc><vAcc>0.696922</vAcc></extensions></trkpt>
      <trkpt lon="-4.122882" lat="53.016142"><ele>132.488449</ele><time>2021-07-17T14:48:03Z</time><extensions><speed>1.180228</speed><course>247.017685</course><hAcc>0.882776</hAcc><vAcc>0.696642</vAcc></extensions></trkpt>
      <trkpt lon="-4.122885" lat="53.016132"><ele>132.611603</ele><time>2021-07-17T14:48:04Z</time><extensions><speed>1.174694</speed><course>242.793106</course><hAcc>0.882676</hAcc><vAcc>0.696345</vAcc></extensions></trkpt>
      <trkpt lon="-4.122888" lat="53.016121"><ele>132.736145</ele><time>2021-07-17T14:48:05Z</time><extensions><speed>1.168874</speed><course>241.528748</course><hAcc>0.882567</hAcc><vAcc>0.696020</vAcc></extensions></trkpt>
      <trkpt lon="-4.122891" lat="53.016111"><ele>132.861343</ele><time>2021-07-17T14:48:06Z</time><extensions><speed>1.163566</speed><course>239.773132</course><hAcc>0.882445</hAcc><vAcc>0.695653</vAcc></extensions></trkpt>
      <trkpt lon="-4.122894" lat="53.016101"><ele>132.986755</ele><time>2021-07-17T14:48:07Z</time><extensions><speed>1.159433</speed><course>228.079361</course><hAcc>0.882309</hAcc><vAcc>0.695234</vAcc></extensions></trkpt>
      <trkpt lon="-4.122897" lat="53.016091"><ele>133.111984</ele><time>2021-07-17T14:48:08Z</time><extensions><speed>1.156905</speed><course>235.745880</course><hAcc>0.882156</hAcc><vAcc>0.694752</vAcc></extensions></trkpt>
      <trkpt lon="-4.122901" lat="53.016080"><ele>133.236969</ele><time>2021-07-17T14:48:09Z</time><extensions><speed>1.156205</speed><course>241.026978</course><hAcc>0.881987</hAcc><vAcc>0.694204</vAcc></extensions></trkpt>
      <trkpt lon="-4.122904" lat="53.016070"><ele>133.361740</ele><time>2021-07-17T14:48:10Z</time><extensions><speed>1.157635</speed><course>241.201813</course><hAcc>0.881801</hAcc><vAcc>0.693587</vAcc></extensions></trkpt>
      <trkpt lon="-4.122908" lat="53.016060"><ele>133.486053</ele><time>2021-07-17T14:48:12Z</time><extensions><speed>1.161074</speed><course>237.798721</course><hAcc>0.881581</hAcc><vAcc>0.692891</vAcc></extensions></trkpt>
      <trkpt lon="-4.122912" lat="53.016050"><ele>133.609558</ele><time>2021-07-17T14:48:13Z</time><extensions><speed>1.165769</speed><course>239.932953</course><hAcc>0.881329</hAcc><vAcc>0.692121</vAcc></extensions></trkpt>
      <trkpt lon="-4.122916" lat="53.016040"><ele>133.732697</ele><time>2021-07-17T14:48:14Z</time><extensions><speed>1.170839</speed><course>236.617691</course><hAcc>0.881064</hAcc><vAcc>0.691294</vAcc></extensions></trkpt>
      <trkpt lon="-4.122920" lat="53.016029"><ele>133.855682</ele><time>2021-07-17T14:48:15Z</time><extensions><speed>1.175618</speed><course>241.818802</course><hAcc>0.880789</hAcc><vAcc>0.690421</vAcc></extensions></trkpt>
      <trkpt lon="-4.122924" lat="53.016019"><ele>133.978973</ele><time>2021-07-17T14:48:16Z</time><extensions><speed>1.179906</speed><course>239.437317</course><hAcc>0.880509</hAcc><vAcc>0.689517</vAcc></extensions></trkpt>
      <trkpt lon="-4.122928" lat="53.016009"><ele>134.103180</ele><time>2021-07-17T14:48:17Z</time><extensions><speed>1.183806</speed><course>246.363113</course><hAcc>0.880227</hAcc><vAcc>0.688600</vAcc></extensions></trkpt>
      <trkpt lon="-4.122931" lat="53.015998"><ele>134.228851</ele><time>2021-07-17T14:48:18Z</time><extensions><speed>1.187211</speed><course>246.700150</course><hAcc>0.879950</hAcc><vAcc>0.687692</vAcc></extensions></trkpt>
      <trkpt lon="-4.122935" lat="53.015988"><ele>134.356674</ele><time>2021-07-17T14:48:19Z</time><extensions><speed>1.189918</speed><course>246.096832</course><hAcc>0.879683</hAcc><vAcc>0.686813</vAcc></extensions></trkpt>
      <trkpt lon="-4.122939" lat="53.015977"><ele>134.487274</ele><time>2021-07-17T14:48:20Z</time><extensions><speed>1.192135</speed><course>243.815796</course><hAcc>0.879432</hAcc><vAcc>0.685987</vAcc></extensions></trkpt>
      <trkpt lon="-4.122943" lat="53.015967"><ele>134.621124</ele><time>2021-07-17T14:48:21Z</time><extensions><speed>1.194120</speed><course>246.512634</course><hAcc>0.879204</hAcc><vAcc>0.685237</vAcc></extensions></trkpt>
      <trkpt lon="-4.122946" lat="53.015956"><ele>134.758575</ele><time>2021-07-17T14:48:22Z</time><extensions><speed>1.196253</speed><course>244.050751</course><hAcc>0.879003</hAcc><vAcc>0.684583</vAcc></extensions></trkpt>
      <trkpt lon="-4.122950" lat="53.015946"><ele>134.899597</ele><time>2021-07-17T14:48:23Z</time><extensions><speed>1.199160</speed><course>244.230560</course><hAcc>0.878833</hAcc><vAcc>0.684037</vAcc></extensions></trkpt>
      <trkpt lon="-4.122953" lat="53.015935"><ele>135.043472</ele><time>2021-07-17T14:48:24Z</time><extensions><speed>1.203270</speed><course>245.032242</course><hAcc>0.878693</hAcc><vAcc>0.683604</vAcc></extensions></trkpt>
      <trkpt lon="-4.122956" lat="53.015925"><ele>135.189529</ele><time>2021-07-17T14:48:25Z</time><extensions><speed>1.208671</speed><course>246.179367</course><hAcc>0.878585</hAcc><vAcc>0.683278</vAcc></extensions></trkpt>
      <trkpt lon="-4.122960" lat="53.015914"><ele>135.337692</ele><time>2021-07-17T14:48:26Z</time><extensions><speed>1.215176</speed><course>241.821411</course><hAcc>0.878506</hAcc><vAcc>0.683057</vAcc></extensions></trkpt>
      <trkpt lon="-4.122963" lat="53.015903"><ele>135.487839</ele><time>2021-07-17T14:48:27Z</time><extensions><speed>1.222578</speed><course>243.788040</course><hAcc>0.878452</hAcc><vAcc>0.682927</vAcc></extensions></trkpt>
      <trkpt lon="-4.122966" lat="53.015892"><ele>135.639496</ele><time>2021-07-17T14:48:28Z</time><extensions><speed>1.230687</speed><course>243.693268</course><hAcc>0.878419</hAcc><vAcc>0.682867</vAcc></extensions></trkpt>
      <trkpt lon="-4.122969" lat="53.015881"><ele>135.791855</ele><time>2021-07-17T14:48:29Z</time><extensions><speed>1.239417</speed><course>242.775101</course><hAcc>0.878400</hAcc><vAcc>0.682850</vAcc></extensions></trkpt>
      <trkpt lon="-4.122972" lat="53.015870"><ele>135.944244</ele><time>2021-07-17T14:48:30Z</time><extensions><speed>1.248532</speed><course>245.970306</course><hAcc>0.878389</hAcc><vAcc>0.682851</vAcc></extensions></trkpt>
      <trkpt lon="-4.122975" lat="53.015859"><ele>136.096176</ele><time>2021-07-17T14:48:31Z</time><extensions><speed>1.257499</speed><course>242.405746</course><hAcc>0.878380</hAcc><vAcc>0.682849</vAcc></extensions></trkpt>
      <trkpt lon="-4.122978" lat="53.015848"><ele>136.247421</ele><time>2021-07-17T14:48:32Z</time><extensions><speed>1.265875</speed><course>242.953247</course><hAcc>0.878369</hAcc><vAcc>0.682831</vAcc></extensions></trkpt>
      <trkpt lon="-4.122981" lat="53.015837"><ele>136.398285</ele><time>2021-07-17T14:48:33Z</time><extensions><speed>1.273250</speed><course>243.898651</course><hAcc>0.878351</hAcc><vAcc>0.682788</vAcc></extensions></trkpt>
      <trkpt lon="-4.122985" lat="53.015825"><ele>136.549240</ele><time>2021-07-17T14:48:34Z</time><extensions><speed>1.279292</speed><course>246.283890</course><hAcc>0.878323</hAcc><vAcc>0.682712</vAcc></extensions></trkpt>
      <trkpt lon="-4.122988" lat="53.015814"><ele>136.700684</ele><time>2021-07-17T14:48:35Z</time><extensions><speed>1.284012</speed><course>244.954941</course><hAcc>0.878283</hAcc><vAcc>0.682595</vAcc></extensions></trkpt>
      <trkpt lon="-4.122991" lat="53.015803"><ele>136.853165</ele><time>2021-07-17T14:48:36Z</time><extensions><speed>1.287366</speed><course>242.649384</course><hAcc>0.878228</hAcc><vAcc>0.682430</vAcc></extensions></trkpt>
      <trkpt lon="-4.122995" lat="53.015791"><ele>137.006973</ele><time>2021-07-17T14:48:37Z</time><extensions><speed>1.289342</speed><course>244.763245</course><hAcc>0.878156</hAcc><vAcc>0.682213</vAcc></extensions></trkpt>
      <trkpt lon="-4.122999" lat="53.015780"><ele>137.161682</ele><time>2021-07-17T14:48:38Z</time><extensions><speed>1.290391</speed><course>244.903290</course><hAcc>0.878067</hAcc><vAcc>0.681942</vAcc></extensions></trkpt>
      <trkpt lon="-4.123002" lat="53.015769"><ele>137.316803</ele><time>2021-07-17T14:48:39Z</time><extensions><speed>1.290837</speed><course>245.405487</course><hAcc>0.877960</hAcc><vAcc>0.681612</vAcc></extensions></trkpt>
      <trkpt lon="-4.123006" lat="53.015757"><ele>137.471954</ele><time>2021-07-17T14:48:40Z</time><extensions><speed>1.290753</speed><course>244.116837</course><hAcc>0.877836</hAcc><vAcc>0.681221</vAcc></extensions></trkpt>
      <trkpt lon="-4.123010" lat="53.015746"><ele>137.626785</ele><time>2021-07-17T14:48:41Z</time><extensions><speed>1.290227</speed><course>244.373413</course><hAcc>0.877694</hAcc><vAcc>0.680770</vAcc></extensions></trkpt>
      <trkpt lon="-4.123013" lat="53.015734"><ele>137.781250</ele><time>2021-07-17T14:48:42Z</time><extensions><speed>1.289505</speed><course>242.926376</course><hAcc>0.877537</hAcc><vAcc>0.680266</vAcc></extensions></trkpt>
      <trkpt lon="-4.123017" lat="53.015723"><ele>137.935501</ele><time>2021-07-17T14:48:43Z</time><extensions><speed>1.289010</speed><course>245.132996</course><hAcc>0.877370</hAcc><vAcc>0.679722</vAcc></extensions></trkpt>
      <trkpt lon="-4.123020" lat="53.015712"><ele>138.089279</ele><time>2021-07-17T14:48:44Z</time><extensions><speed>1.289012</speed><course>244.501526</course><hAcc>0.877195</hAcc><vAcc>0.679151</vAcc></extensions></trkpt>
      <trkpt lon="-4.123023" lat="53.015700"><ele>138.242157</ele><time>2021-07-17T14:48:45Z</time><extensions><speed>1.289536</speed><course>246.537445</course><hAcc>0.877018</hAcc><vAcc>0.678567</vAcc></extensions></trkpt>
      <trkpt lon="-4.123025" lat="53.015689"><ele>138.393875</ele><time>2021-07-17T14:48:46Z</time><extensions><speed>1.290682</speed><course>249.471207</course><hAcc>0.876844</hAcc><vAcc>0.677988</vAcc></extensions></trkpt>
      <trkpt lon="-4.123027" lat="53.015677"><ele>138.544144</ele><time>2021-07-17T14:48:47Z</time><extensions><speed>1.292750</speed><course>248.775497</course><hAcc>0.876680</hAcc><vAcc>0.677434</vAcc></extensions></trkpt>
      <trkpt lon="-4.123028" lat="53.015665"><ele>138.692596</ele><time>2021-07-17T14:48:48Z</time><extensions><speed>1.295962</speed><course>246.941742</course><hAcc>0.876532</hAcc><vAcc>0.676932</vAcc></extensions></trkpt>
      <trkpt lon="-4.123029" lat="53.015654"><ele>138.839157</ele><time>2021-07-17T14:48:49Z</time><extensions><speed>1.300149</speed><course>244.433502</course><hAcc>0.876409</hAcc><vAcc>0.676507</vAcc></extensions></trkpt>
      <trkpt lon="-4.123030" lat="53.015642"><ele>138.983932</ele><time>2021-07-17T14:48:50Z</time><extensions><speed>1.305086</speed><course>244.037323</course><hAcc>0.876316</hAcc><vAcc>0.676182</vAcc></extensions></trkpt>
      <trkpt lon="-4.123030" lat="53.015630"><ele>139.126923</ele><time>2021-07-17T14:48:51Z</time><extensions><speed>1.310624</speed><course>247.924194</course><hAcc>0.876259</hAcc><vAcc>0.675978</vAcc></extensions></trkpt>
      <trkpt lon="-4.123030" lat="53.015619"><ele>139.268494</ele><time>2021-07-17T14:48:52Z</time><extensions><speed>1.316698</speed><course>244.193863</course><hAcc>0.876241</hAcc><vAcc>0.675912</vAcc></extensions></trkpt>
      <trkpt lon="-4.123029" lat="53.015607"><ele>139.409485</ele><time>2021-07-17T14:48:53Z</time><extensions><speed>1.323325</speed><course>245.117035</course><hAcc>0.876267</hAcc><vAcc>0.675996</vAcc></extensions></trkpt>
      <trkpt lon="-4.123028" lat="53.015595"><ele>139.550232</ele><time>2021-07-17T14:48:54Z</time><extensions><speed>1.330382</speed><course>240.947311</course><hAcc>0.876335</hAcc><vAcc>0.676234</vAcc></extensions></trkpt>
      <trkpt lon="-4.123026" lat="53.015583"><ele>139.690414</ele><time>2021-07-17T14:48:55Z</time><extensions><speed>1.337340</speed><course>248.726425</course><hAcc>0.876443</hAcc><vAcc>0.676615</vAcc></extensions></trkpt>
      <trkpt lon="-4.123024" lat="53.015571"><ele>139.829590</ele><time>2021-07-17T14:48:56Z</time><extensions><speed>1.343304</speed><course>246.210281</course><hAcc>0.876585</hAcc><vAcc>0.677110</vAcc></extensions></trkpt>
      <trkpt lon="-4.123022" lat="53.015559"><ele>139.967041</ele><time>2021-07-17T14:48:57Z</time><extensions><speed>1.347389</speed><course>244.130585</course><hAcc>0.876753</hAcc><vAcc>0.677683</vAcc></extensions></trkpt>
      <trkpt lon="-4.123020" lat="53.015547"><ele>140.101410</ele><time>2021-07-17T14:48:58Z</time><extensions><speed>1.348601</speed><course>242.385971</course><hAcc>0.876938</hAcc><vAcc>0.678301</vAcc></extensions></trkpt>
      <trkpt lon="-4.123018" lat="53.015535"><ele>140.231461</ele><time>2021-07-17T14:48:59Z</time><extensions><speed>1.346532</speed><course>242.586807</course><hAcc>0.877134</hAcc><vAcc>0.678938</vAcc></extensions></trkpt>
      <trkpt lon="-4.123015" lat="53.015523"><ele>140.356934</ele><time>2021-07-17T14:49:00Z</time><extensions><speed>1.341654</speed><course>243.360626</course><hAcc>0.877333</hAcc><vAcc>0.679574</vAcc></extensions></trkpt>
      <trkpt lon="-4.123012" lat="53.015511"><ele>140.477936</ele><time>2021-07-17T14:49:01Z</time><extensions><speed>1.334740</speed><course>243.971695</course><hAcc>0.877532</hAcc><vAcc>0.680203</vAcc></extensions></trkpt>
      <trkpt lon="-4.123009" lat="53.015499"><ele>140.594772</ele><time>2021-07-17T14:49:02Z</time><extensions><speed>1.326666</speed><course>240.206924</course><hAcc>0.877728</hAcc><vAcc>0.680825</vAcc></extensions></trkpt>
      <trkpt lon="-4.123006" lat="53.015487"><ele>140.707687</ele><time>2021-07-17T14:49:03Z</time><extensions><speed>1.318319</speed><course>239.075470</course><hAcc>0.877917</hAcc><vAcc>0.681438</vAcc></extensions></trkpt>
      <trkpt lon="-4.123003" lat="53.015476"><ele>140.816452</ele><time>2021-07-17T14:49:04Z</time><extensions><speed>1.310311</speed><course>237.642349</course><hAcc>0.878096</hAcc><vAcc>0.682032</vAcc></extensions></trkpt>
      <trkpt lon="-4.123000" lat="53.015464"><ele>140.921082</ele><time>2021-07-17T14:49:05Z</time><extensions><speed>1.303056</speed><course>240.263168</course><hAcc>0.878260</hAcc><vAcc>0.682585</vAcc></extensions></trkpt>
      <trkpt lon="-4.122996" lat="53.015453"><ele>141.021957</ele><time>2021-07-17T14:49:06Z</time><extensions><speed>1.297058</speed><course>236.992905</course><hAcc>0.878404</hAcc><vAcc>0.683071</vAcc></extensions></trkpt>
      <trkpt lon="-4.122993" lat="53.015441"><ele>141.119659</ele><time>2021-07-17T14:49:07Z</time><extensions><speed>1.292610</speed><course>237.814407</course><hAcc>0.878523</hAcc><vAcc>0.683470</vAcc></extensions></trkpt>
      <trkpt lon="-4.122989" lat="53.015430"><ele>141.214676</ele><time>2021-07-17T14:49:08Z</time><extensions><speed>1.289739</speed><course>233.161377</course><hAcc>0.878618</hAcc><vAcc>0.683768</vAcc></extensions></trkpt>
      <trkpt lon="-4.122986" lat="53.015418"><ele>141.307358</ele><time>2021-07-17T14:49:09Z</time><extensions><speed>1.288272</speed><course>231.854340</course><hAcc>0.878687</hAcc><vAcc>0.683964</vAcc></extensions></trkpt>
      <trkpt lon="-4.122982" lat="53.015407"><ele>141.398254</ele><time>2021-07-17T14:49:10Z</time><extensions><speed>1.288413</speed><course>230.330582</course><hAcc>0.878733</hAcc><vAcc>0.684068</vAcc></extensions></trkpt>
      <trkpt lon="-4.122978" lat="53.015396"><ele>141.488129</ele><time>2021-07-17T14:49:11Z</time><extensions><speed>1.290499</speed><course>225.955917</course><hAcc>0.878762</hAcc><vAcc>0.684099</vAcc></extensions></trkpt>
      <trkpt lon="-4.122975" lat="53.015384"><ele>141.577789</ele><time>2021-07-17T14:49:12Z</time><extensions><speed>1.294167</speed><course>228.667099</course><hAcc>0.878779</hAcc><vAcc>0.684089</vAcc></extensions></trkpt>
      <trkpt lon="-4.122971" lat="53.015373"><ele>141.667648</ele><time>2021-07-17T14:49:13Z</time><extensions><speed>1.298922</speed><course>231.197586</course><hAcc>0.878793</hAcc><vAcc>0.684069</vAcc></extensions></trkpt>
      <trkpt lon="-4.122967" lat="53.015361"><ele>141.757675</ele><time>2021-07-17T14:49:14Z</time><extensions><speed>1.304335</speed><course>231.649063</course><hAcc>0.878811</hAcc><vAcc>0.684072</vAcc></extensions></trkpt>
      <trkpt lon="-4.122963" lat="53.015350"><ele>141.847870</ele><time>2021-07-17T14:49:15Z</time><extensions><speed>1.309998</speed><course>225.252350</course><hAcc>0.878839</hAcc><vAcc>0.684124</vAcc></extensions></trkpt>
      <trkpt lon="-4.122959" lat="53.015338"><ele>141.938385</ele><time>2021-07-17T14:49:16Z</time><extensions><speed>1.315582</speed><course>227.044876</course><hAcc>0.878882</hAcc><vAcc>0.684244</vAcc></extensions></trkpt>
      <trkpt lon="-4.122956" lat="53.015327"><ele>142.029144</ele><time>2021-07-17T14:49:17Z</time><extensions><speed>1.320839</speed><course>232.104660</course><hAcc>0.878942</hAcc><vAcc>0.684440</vAcc></extensions></trkpt>
      <trkpt lon="-4.122952" lat="53.015315"><ele>142.119965</ele><time>2021-07-17T14:49:18Z</time><extensions><speed>1.325712</speed><course>229.338486</course><hAcc>0.879019</hAcc><vAcc>0.684707</vAcc></extensions></trkpt>
      <trkpt lon="-4.122948" lat="53.015303"><ele>142.210709</ele><time>2021-07-17T14:49:19Z</time><extensions><speed>1.330384</speed><course>229.521286</course><hAcc>0.879112</hAcc><vAcc>0.685030</vAcc></extensions></trkpt>
      <trkpt lon="-4.122943" lat="53.015292"><ele>142.301086</ele><time>2021-07-17T14:49:20Z</time><extensions><speed>1.335052</speed><course>230.490311</course><hAcc>0.879216</hAcc><vAcc>0.685391</vAcc></extensions></trkpt>
      <trkpt lon="-4.122939" lat="53.015280"><ele>142.390778</ele><time>2021-07-17T14:49:21Z</time><extensions><speed>1.339642</speed><course>231.378189</course><hAcc>0.879327</hAcc><vAcc>0.685773</vAcc></extensions></trkpt>
      <trkpt lon="-4.122935" lat="53.015268"><ele>142.479630</ele><time>2021-07-17T14:49:22Z</time><extensions><speed>1.344022</speed><course>228.697189</course><hAcc>0.879441</hAcc><vAcc>0.686164</vAcc></extensions></trkpt>
      <trkpt lon="-4.122930" lat="53.015256"><ele>142.567337</ele><time>2021-07-17T14:49:23Z</time><extensions><speed>1.347651</speed><course>226.471390</course><hAcc>0.879554</hAcc><vAcc>0.686550</vAcc></extensions></trkpt>
      <trkpt lon="-4.122925" lat="53.015245"><ele>142.653763</ele><time>2021-07-17T14:49:24Z</time><extensions><speed>1.349957</speed><course>220.030243</course><hAcc>0.879660</hAcc><vAcc>0.686914</vAcc></extensions></trkpt>
      <trkpt lon="-4.122920" lat="53.015233"><ele>142.738800</ele><time>2021-07-17T14:49:25Z</time><extensions><speed>1.350868</speed><course>220.714050</course><hAcc>0.879755</hAcc><vAcc>0.687236</vAcc></extensions></trkpt>
      <trkpt lon="-4.122914" lat="53.015221"><ele>142.822311</ele><time>2021-07-17T14:49:26Z</time><extensions><speed>1.350421</speed><course>225.627274</course><hAcc>0.879833</hAcc><vAcc>0.687498</vAcc></extensions></trkpt>
      <trkpt lon="-4.122909" lat="53.015210"><ele>142.904236</ele><time>2021-07-17T14:49:27Z</time><extensions><speed>1.348893</speed><course>226.764282</course><hAcc>0.879892</hAcc><vAcc>0.687692</vAcc></extensions></trkpt>
      <trkpt lon="-4.122903" lat="53.015198"><ele>142.984253</ele><time>2021-07-17T14:49:28Z</time><extensions><speed>1.346836</speed><course>226.578552</course><hAcc>0.879928</hAcc><vAcc>0.687813</vAcc></extensions></trkpt>
      <trkpt lon="-4.122898" lat="53.015186"><ele>143.062073</ele><time>2021-07-17T14:49:29Z</time><extensions><speed>1.344719</speed><course>225.919083</course><hAcc>0.879941</hAcc><vAcc>0.687861</vAcc></extensions></trkpt>
      <trkpt lon="-4.122892" lat="53.015175"><ele>143.137512</ele><time>2021-07-17T14:49:30Z</time><extensions><speed>1.343069</speed><course>231.063477</course><hAcc>0.879928</hAcc><vAcc>0.687833</vAcc></extensions></trkpt>
      <trkpt lon="-4.122886" lat="53.015163"><ele>143.210403</ele><time>2021-07-17T14:49:31Z</time><extensions><speed>1.342541</speed><course>239.724365</course><hAcc>0.879890</hAcc><vAcc>0.687725</vAcc></extensions></trkpt>
      <trkpt lon="-4.122880" lat="53.015152"><ele>143.280823</ele><time>2021-07-17T14:49:32Z</time><extensions><speed>1.343211</speed><course>234.846985</course><hAcc>0.879827</hAcc><vAcc>0.687530</vAcc></extensions></trkpt>
      <trkpt lon="-4.122874" lat="53.015140"><ele>143.348892</ele><time>2021-07-17T14:49:33Z</time><extensions><speed>1.344799</speed><course>233.853561</course><hAcc>0.879739</hAcc><vAcc>0.687245</vAcc></extensions></trkpt>
      <trkpt lon="-4.122868" lat="53.015129"><ele>143.414551</ele><time>2021-07-17T14:49:34Z</time><extensions><speed>1.347104</speed><course>233.915298</course><hAcc>0.879630</hAcc><vAcc>0.686872</vAcc></extensions></trkpt>
      <trkpt lon="-4.122862" lat="53.015117"><ele>143.477768</ele><time>2021-07-17T14:49:35Z</time><extensions><speed>1.350250</speed><course>223.625214</course><hAcc>0.879504</hAcc><vAcc>0.686423</vAcc></extensions></trkpt>
      <trkpt lon="-4.122856" lat="53.015106"><ele>143.538315</ele><time>2021-07-17T14:49:36Z</time><extensions><speed>1.354771</speed><course>224.382111</course><hAcc>0.879368</hAcc><vAcc>0.685923</vAcc></extensions></trkpt>
      <trkpt lon="-4.122849" lat="53.015094"><ele>143.595963</ele><time>2021-07-17T14:49:37Z</time><extensions><speed>1.361153</speed><course>225.549652</course><hAcc>0.879230</hAcc><vAcc>0.685405</vAcc></extensions></trkpt>
      <trkpt lon="-4.122843" lat="53.015082"><ele>143.650620</ele><time>2021-07-17T14:49:38Z</time><extensions><speed>1.369525</speed><course>226.825943</course><hAcc>0.879099</hAcc><vAcc>0.684909</vAcc></extensions></trkpt>
      <trkpt lon="-4.122836" lat="53.015071"><ele>143.701935</ele><time>2021-07-17T14:49:39Z</time><extensions><speed>1.379219</speed><course>220.216599</course><hAcc>0.878983</hAcc><vAcc>0.684473</vAcc></extensions></trkpt>
      <trkpt lon="-4.122829" lat="53.015059"><ele>143.749435</ele><time>2021-07-17T14:49:40Z</time><extensions><speed>1.389306</speed><course>222.039505</course><hAcc>0.878888</hAcc><vAcc>0.684128</vAcc></extensions></trkpt>
      <trkpt lon="-4.122822" lat="53.015047"><ele>143.792938</ele><time>2021-07-17T14:49:41Z</time><extensions><speed>1.399040</speed><course>227.811584</course><hAcc>0.878819</hAcc><vAcc>0.683897</vAcc></extensions></trkpt>
      <trkpt lon="-4.122815" lat="53.015035"><ele>143.832108</ele><time>2021-07-17T14:49:42Z</time><extensions><speed>1.407324</speed><course>229.822403</course><hAcc>0.878779</hAcc><vAcc>0.683792</vAcc></extensions></trkpt>
      <trkpt lon="-4.122808" lat="53.015023"><ele>143.866562</ele><time>2021-07-17T14:49:43Z</time><extensions><speed>1.412997</speed><course>226.344223</course><hAcc>0.878767</hAcc><vAcc>0.683811</vAcc></extensions></trkpt>
      <trkpt lon="-4.122800" lat="53.015012"><ele>143.896255</ele><time>2021-07-17T14:49:44Z</time><extensions><speed>1.415297</speed><course>227.863098</course><hAcc>0.878783</hAcc><vAcc>0.683933</vAcc></extensions></trkpt>
      <trkpt lon="-4.122793" lat="53.015000"><ele>143.921371</ele><time>2021-07-17T14:49:45Z</time><extensions><speed>1.414313</speed><course>224.422241</course><hAcc>0.878823</hAcc><vAcc>0.684117</vAcc></extensions></trkpt>
      <trkpt lon="-4.122786" lat="53.014988"><ele>143.941849</ele><time>2021-07-17T14:49:46Z</time><extensions><speed>1.410850</speed><course>216.486084</course><hAcc>0.878887</hAcc><vAcc>0.684319</vAcc></extensions></trkpt>
      <trkpt lon="-4.122779" lat="53.014976"><ele>143.957184</ele><time>2021-07-17T14:49:47Z</time><extensions><speed>1.405549</speed><course>218.578918</course><hAcc>0.878983</hAcc><vAcc>0.684505</vAcc></extensions></trkpt>
      <trkpt lon="-4.122772" lat="53.014964"><ele>143.966644</ele><time>2021-07-17T14:49:48Z</time><extensions><speed>1.398568</speed><course>214.758057</course><hAcc>0.879125</hAcc><vAcc>0.684664</vAcc></extensions></trkpt>
      <trkpt lon="-4.122765" lat="53.014952"><ele>143.969391</ele><time>2021-07-17T14:49:49Z</time><extensions><speed>1.389889</speed><course>215.942535</course><hAcc>0.879338</hAcc><vAcc>0.684810</vAcc></extensions></trkpt>
      <trkpt lon="-4.122759" lat="53.014940"><ele>143.964432</ele><time>2021-07-17T14:49:50Z</time><extensions><speed>1.379667</speed><course>217.256287</course><hAcc>0.879659</hAcc><vAcc>0.684980</vAcc></extensions></trkpt>
      <trkpt lon="-4.122753" lat="53.014928"><ele>143.951126</ele><time>2021-07-17T14:49:51Z</time><extensions><speed>1.368149</speed><course>217.763580</course><hAcc>0.880132</hAcc><vAcc>0.685229</vAcc></extensions></trkpt>
      <trkpt lon="-4.122746" lat="53.014917"><ele>143.929214</ele><time>2021-07-17T14:49:52Z</time><extensions><speed>1.355457</speed><course>218.954041</course><hAcc>0.880805</hAcc><vAcc>0.685610</vAcc></extensions></trkpt>
      <trkpt lon="-4.122740" lat="53.014905"><ele>143.898315</ele><time>2021-07-17T14:49:53Z</time><extensions><speed>1.341681</speed><course>217.422287</course><hAcc>0.881724</hAcc><vAcc>0.686160</vAcc></extensions></trkpt>
      <trkpt lon="-4.122734" lat="53.014894"><ele>143.857742</ele><time>2021-07-17T14:49:54Z</time><extensions><speed>1.327122</speed><course>223.047699</course><hAcc>0.882923</hAcc><vAcc>0.686890</vAcc></extensions></trkpt>
      <trkpt lon="-4.122729" lat="53.014882"><ele>143.806717</ele><time>2021-07-17T14:49:55Z</time><extensions><speed>1.312427</speed><course>226.677948</course><hAcc>0.884412</hAcc><vAcc>0.687783</vAcc></extensions></trkpt>
      <trkpt lon="-4.122723" lat="53.014871"><ele>143.744339</ele><time>2021-07-17T14:49:56Z</time><extensions><speed>1.298558</speed><course>227.703995</course><hAcc>0.886169</hAcc><vAcc>0.688787</vAcc></extensions></trkpt>
      <trkpt lon="-4.122717" lat="53.014860"><ele>143.670288</ele><time>2021-07-17T14:49:57Z</time><extensions><speed>1.286109</speed><course>230.590866</course><hAcc>0.888120</hAcc><vAcc>0.689810</vAcc></extensions></trkpt>
      <trkpt lon="-4.122712" lat="53.014849"><ele>143.584991</ele><time>2021-07-17T14:49:58Z</time><extensions><speed>1.275362</speed><course>227.438507</course><hAcc>0.890138</hAcc><vAcc>0.690725</vAcc></extensions></trkpt>
      <trkpt lon="-4.122706" lat="53.014838"><ele>143.488983</ele><time>2021-07-17T14:49:59Z</time><extensions><speed>1.266677</speed><course>225.468048</course><hAcc>0.892036</hAcc><vAcc>0.691382</vAcc></extensions></trkpt>
      <trkpt lon="-4.122701" lat="53.014827"><ele>143.382858</ele><time>2021-07-17T14:50:00Z</time><extensions><speed>1.260208</speed><course>227.529541</course><hAcc>0.893593</hAcc><vAcc>0.691635</vAcc></extensions></trkpt>
      <trkpt lon="-4.122695" lat="53.014816"><ele>143.267426</ele><time>2021-07-17T14:50:01Z</time><extensions><speed>1.256172</speed><course>229.101913</course><hAcc>0.894599</hAcc><vAcc>0.691391</vAcc></extensions></trkpt>
      <trkpt lon="-4.122690" lat="53.014806"><ele>143.143539</ele><time>2021-07-17T14:50:02Z</time><extensions><speed>1.254846</speed><course>232.658401</course><hAcc>0.894958</hAcc><vAcc>0.690701</vAcc></extensions></trkpt>
      <trkpt lon="-4.122684" lat="53.014795"><ele>143.012222</ele><time>2021-07-17T14:50:03Z</time><extensions><speed>1.256105</speed><course>240.985550</course><hAcc>0.894857</hAcc><vAcc>0.689897</vAcc></extensions></trkpt>
      <trkpt lon="-4.122678" lat="53.014784"><ele>142.874420</ele><time>2021-07-17T14:50:04Z</time><extensions><speed>1.259432</speed><course>247.754288</course><hAcc>0.895025</hAcc><vAcc>0.689794</vAcc></extensions></trkpt>
      <trkpt lon="-4.122672" lat="53.014774"><ele>142.731354</ele><time>2021-07-17T14:50:05Z</time><extensions><speed>1.263941</speed><course>248.647888</course><hAcc>0.897109</hAcc><vAcc>0.691938</vAcc></extensions></trkpt>
      <trkpt lon="-4.122665" lat="53.014763"><ele>142.584824</ele><time>2021-07-17T14:50:06Z</time><extensions><speed>1.268538</speed><course>249.837509</course><hAcc>0.904129</hAcc><vAcc>0.698878</vAcc></extensions></trkpt>
      <trkpt lon="-4.122659" lat="53.014752"><ele>142.436386</ele><time>2021-07-17T14:50:07Z</time><extensions><speed>1.272400</speed><course>249.805771</course><hAcc>0.920922</hAcc><vAcc>0.714369</vAcc></extensions></trkpt>
      <trkpt lon="-4.122652" lat="53.014742"><ele>142.286835</ele><time>2021-07-17T14:50:08Z</time><extensions><speed>1.274813</speed><course>248.499069</course><hAcc>0.954309</hAcc><vAcc>0.743321</vAcc></extensions></trkpt>
      <trkpt lon="-4.122643" lat="53.014737"><ele>142.029984</ele><time>2021-07-17T14:50:08Z</time><extensions><speed>1.087576</speed><course>207.637573</course><hAcc>0.917402</hAcc><vAcc>0.711118</vAcc></extensions></trkpt>
      <trkpt lon="-4.122631" lat="53.014730"><ele>141.897675</ele><time>2021-07-17T14:50:09Z</time><extensions><speed>1.079047</speed><course>199.781464</course><hAcc>0.899747</hAcc><vAcc>0.694166</vAcc></extensions></trkpt>
      <trkpt lon="-4.122618" lat="53.014724"><ele>141.769058</ele><time>2021-07-17T14:50:11Z</time><extensions><speed>1.072556</speed><course>204.898392</course><hAcc>0.892946</hAcc><vAcc>0.686373</vAcc></extensions></trkpt>
      <trkpt lon="-4.122605" lat="53.014719"><ele>141.644714</ele><time>2021-07-17T14:50:12Z</time><extensions><speed>1.069996</speed><course>218.988647</course><hAcc>0.891474</hAcc><vAcc>0.683551</vAcc></extensions></trkpt>
      <trkpt lon="-4.122591" lat="53.014714"><ele>141.525009</ele><time>2021-07-17T14:50:13Z</time><extensions><speed>1.072750</speed><course>240.875916</course><hAcc>0.891897</hAcc><vAcc>0.682889</vAcc></extensions></trkpt>
      <trkpt lon="-4.122577" lat="53.014709"><ele>141.411072</ele><time>2021-07-17T14:50:14Z</time><extensions><speed>1.080923</speed><course>240.875916</course><hAcc>0.892362</hAcc><vAcc>0.682718</vAcc></extensions></trkpt>
      <trkpt lon="-4.122562" lat="53.014705"><ele>141.303909</ele><time>2021-07-17T14:50:15Z</time><extensions><speed>1.093493</speed><course>240.875916</course><hAcc>0.892076</hAcc><vAcc>0.682191</vAcc></extensions></trkpt>
      <trkpt lon="-4.122547" lat="53.014702"><ele>141.203522</ele><time>2021-07-17T14:50:16Z</time><extensions><speed>1.108731</speed><course>240.875916</course><hAcc>0.890866</hAcc><vAcc>0.680990</vAcc></extensions></trkpt>
      <trkpt lon="-4.122532" lat="53.014698"><ele>141.109619</ele><time>2021-07-17T14:50:17Z</time><extensions><speed>1.125388</speed><course>240.875916</course><hAcc>0.888884</hAcc><vAcc>0.679106</vAcc></extensions></trkpt>
      <trkpt lon="-4.122516" lat="53.014695"><ele>141.022842</ele><time>2021-07-17T14:50:18Z</time><extensions><speed>1.142890</speed><course>240.875916</course><hAcc>0.886410</hAcc><vAcc>0.676697</vAcc></extensions></trkpt>
      <trkpt lon="-4.122499" lat="53.014692"><ele>140.944305</ele><time>2021-07-17T14:50:19Z</time><extensions><speed>1.160537</speed><course>269.430084</course><hAcc>0.883738</hAcc><vAcc>0.673990</vAcc></extensions></trkpt>
      <trkpt lon="-4.122483" lat="53.014688"><ele>140.875015</ele><time>2021-07-17T14:50:20Z</time><extensions><speed>1.177760</speed><course>274.056000</course><hAcc>0.881116</hAcc><vAcc>0.671220</vAcc></extensions></trkpt>
      <trkpt lon="-4.122466" lat="53.014685"><ele>140.816025</ele><time>2021-07-17T14:50:21Z</time><extensions><speed>1.194058</speed><course>273.580658</course><hAcc>0.878727</hAcc><vAcc>0.668598</vAcc></extensions></trkpt>
      <trkpt lon="-4.122449" lat="53.014682"><ele>140.768341</ele><time>2021-07-17T14:50:22Z</time><extensions><speed>1.208814</speed><course>266.285736</course><hAcc>0.876681</hAcc><vAcc>0.666288</vAcc></extensions></trkpt>
      <trkpt lon="-4.122432" lat="53.014678"><ele>140.731873</ele><time>2021-07-17T14:50:23Z</time><extensions><speed>1.221453</speed><course>280.416809</course><hAcc>0.875028</hAcc><vAcc>0.664397</vAcc></extensions></trkpt>
      <trkpt lon="-4.122414" lat="53.014675"><ele>140.704834</ele><time>2021-07-17T14:50:24Z</time><extensions><speed>1.231246</speed><course>289.633057</course><hAcc>0.873768</hAcc><vAcc>0.662975</vAcc></extensions></trkpt>
      <trkpt lon="-4.122397" lat="53.014671"><ele>140.684814</ele><time>2021-07-17T14:50:25Z</time><extensions><speed>1.237458</speed><course>274.042023</course><hAcc>0.872869</hAcc><vAcc>0.662022</vAcc></extensions></trkpt>
      <trkpt lon="-4.122380" lat="53.014667"><ele>140.669754</ele><time>2021-07-17T14:50:26Z</time><extensions><speed>1.240117</speed><course>259.398621</course><hAcc>0.872281</hAcc><vAcc>0.661497</vAcc></extensions></trkpt>
      <trkpt lon="-4.122362" lat="53.014663"><ele>140.657532</ele><time>2021-07-17T14:50:27Z</time><extensions><speed>1.240449</speed><course>235.228027</course><hAcc>0.871945</hAcc><vAcc>0.661340</vAcc></extensions></trkpt>
      <trkpt lon="-4.122345" lat="53.014659"><ele>140.645798</ele><time>2021-07-17T14:50:28Z</time><extensions><speed>1.240386</speed><course>233.943741</course><hAcc>0.871801</hAcc><vAcc>0.661477</vAcc></extensions></trkpt>
      <trkpt lon="-4.122328" lat="53.014655"><ele>140.632538</ele><time>2021-07-17T14:50:29Z</time><extensions><speed>1.241628</speed><course>251.986771</course><hAcc>0.871797</hAcc><vAcc>0.661831</vAcc></extensions></trkpt>
      <trkpt lon="-4.122311" lat="53.014651"><ele>140.615982</ele><time>2021-07-17T14:50:30Z</time><extensions><speed>1.245491</speed><course>230.632401</course><hAcc>0.871887</hAcc><vAcc>0.662336</vAcc></extensions></trkpt>
      <trkpt lon="-4.122293" lat="53.014648"><ele>140.594315</ele><time>2021-07-17T14:50:31Z</time><extensions><speed>1.253196</speed><course>208.539734</course><hAcc>0.872037</hAcc><vAcc>0.662931</vAcc></extensions></trkpt>
      <trkpt lon="-4.122275" lat="53.014644"><ele>140.565613</ele><time>2021-07-17T14:50:32Z</time><extensions><speed>1.265238</speed><course>217.062653</course><hAcc>0.872216</hAcc><vAcc>0.663560</vAcc></extensions></trkpt>
      <trkpt lon="-4.122257" lat="53.014640"><ele>140.527771</ele><time>2021-07-17T14:50:33Z</time><extensions><speed>1.281351</speed><course>216.480164</course><hAcc>0.872401</hAcc><vAcc>0.664172</vAcc></extensions></trkpt>
      <trkpt lon="-4.122239" lat="53.014637"><ele>140.478516</ele><time>2021-07-17T14:50:34Z</time><extensions><speed>1.300432</speed><course>215.204285</course><hAcc>0.872578</hAcc><vAcc>0.664724</vAcc></extensions></trkpt>
      <trkpt lon="-4.122220" lat="53.014634"><ele>140.415375</ele><time>2021-07-17T14:50:35Z</time><extensions><speed>1.320121</speed><course>192.608246</course><hAcc>0.872736</hAcc><vAcc>0.665202</vAcc></extensions></trkpt>
      <trkpt lon="-4.122201" lat="53.014631"><ele>140.335999</ele><time>2021-07-17T14:50:36Z</time><extensions><speed>1.337920</speed><course>196.818375</course><hAcc>0.872874</hAcc><vAcc>0.665609</vAcc></extensions></trkpt>
      <trkpt lon="-4.122182" lat="53.014628"><ele>140.239395</ele><time>2021-07-17T14:50:37Z</time><extensions><speed>1.351906</speed><course>200.564194</course><hAcc>0.872991</hAcc><vAcc>0.665963</vAcc></extensions></trkpt>
      <trkpt lon="-4.122162" lat="53.014625"><ele>140.126373</ele><time>2021-07-17T14:50:38Z</time><extensions><speed>1.360916</speed><course>224.718231</course><hAcc>0.873089</hAcc><vAcc>0.666282</vAcc></extensions></trkpt>
      <trkpt lon="-4.122142" lat="53.014622"><ele>139.998428</ele><time>2021-07-17T14:50:39Z</time><extensions><speed>1.364368</speed><course>228.969803</course><hAcc>0.873167</hAcc><vAcc>0.666568</vAcc></extensions></trkpt>
      <trkpt lon="-4.122122" lat="53.014620"><ele>139.856888</ele><time>2021-07-17T14:50:40Z</time><extensions><speed>1.361995</speed><course>250.366501</course><hAcc>0.873221</hAcc><vAcc>0.666808</vAcc></extensions></trkpt>
      <trkpt lon="-4.122102" lat="53.014617"><ele>139.703293</ele><time>2021-07-17T14:50:41Z</time><extensions><speed>1.354116</speed><course>-1.000000</course><hAcc>0.873242</hAcc><vAcc>0.666971</vAcc></extensions></trkpt>
      <trkpt lon="-4.122083" lat="53.014615"><ele>139.539368</ele><time>2021-07-17T14:50:42Z</time><extensions><speed>1.341434</speed><course>232.063629</course><hAcc>0.873220</hAcc><vAcc>0.667012</vAcc></extensions></trkpt>
      <trkpt lon="-4.122063" lat="53.014612"><ele>139.366867</ele><time>2021-07-17T14:50:43Z</time><extensions><speed>1.324860</speed><course>232.063614</course><hAcc>0.873146</hAcc><vAcc>0.666875</vAcc></extensions></trkpt>
      <trkpt lon="-4.122044" lat="53.014610"><ele>139.188004</ele><time>2021-07-17T14:50:44Z</time><extensions><speed>1.304886</speed><course>232.063614</course><hAcc>0.873009</hAcc><vAcc>0.666509</vAcc></extensions></trkpt>
      <trkpt lon="-4.122025" lat="53.014608"><ele>139.005493</ele><time>2021-07-17T14:50:45Z</time><extensions><speed>1.281757</speed><course>232.063599</course><hAcc>0.872808</hAcc><vAcc>0.665883</vAcc></extensions></trkpt>
      <trkpt lon="-4.122007" lat="53.014605"><ele>138.822235</ele><time>2021-07-17T14:50:46Z</time><extensions><speed>1.255914</speed><course>232.063599</course><hAcc>0.872548</hAcc><vAcc>0.665012</vAcc></extensions></trkpt>
      <trkpt lon="-4.121989" lat="53.014603"><ele>138.641220</ele><time>2021-07-17T14:50:47Z</time><extensions><speed>1.227149</speed><course>232.063583</course><hAcc>0.872247</hAcc><vAcc>0.663960</vAcc></extensions></trkpt>
      <trkpt lon="-4.121971" lat="53.014601"><ele>138.464920</ele><time>2021-07-17T14:50:48Z</time><extensions><speed>1.194493</speed><course>232.063583</course><hAcc>0.871929</hAcc><vAcc>0.662827</vAcc></extensions></trkpt>
      <trkpt lon="-4.121954" lat="53.014598"><ele>138.294617</ele><time>2021-07-17T14:50:49Z</time><extensions><speed>1.157529</speed><course>248.555511</course><hAcc>0.871625</hAcc><vAcc>0.661735</vAcc></extensions></trkpt>
      <trkpt lon="-4.121938" lat="53.014595"><ele>138.131042</ele><time>2021-07-17T14:50:50Z</time><extensions><speed>1.117798</speed><course>214.727661</course><hAcc>0.871363</hAcc><vAcc>0.660800</vAcc></extensions></trkpt>
      <trkpt lon="-4.121922" lat="53.014593"><ele>137.974670</ele><time>2021-07-17T14:50:51Z</time><extensions><speed>1.077500</speed><course>215.656113</course><hAcc>0.871166</hAcc><vAcc>0.660111</vAcc></extensions></trkpt>
      <trkpt lon="-4.121907" lat="53.014590"><ele>137.825729</ele><time>2021-07-17T14:50:52Z</time><extensions><speed>1.038995</speed><course>205.637772</course><hAcc>0.871045</hAcc><vAcc>0.659712</vAcc></extensions></trkpt>
      <trkpt lon="-4.121892" lat="53.014587"><ele>137.684143</ele><time>2021-07-17T14:50:53Z</time><extensions><speed>1.005129</speed><course>201.575424</course><hAcc>0.871002</hAcc><vAcc>0.659601</vAcc></extensions></trkpt>
      <trkpt lon="-4.121879" lat="53.014584"><ele>137.549713</ele><time>2021-07-17T14:50:54Z</time><extensions><speed>0.978186</speed><course>196.854248</course><hAcc>0.871029</hAcc><vAcc>0.659733</vAcc></extensions></trkpt>
      <trkpt lon="-4.121866" lat="53.014580"><ele>137.422119</ele><time>2021-07-17T14:50:55Z</time><extensions><speed>0.959108</speed><course>198.264053</course><hAcc>0.871110</hAcc><vAcc>0.660041</vAcc></extensions></trkpt>
      <trkpt lon="-4.121853" lat="53.014576"><ele>137.300797</ele><time>2021-07-17T14:50:56Z</time><extensions><speed>0.947236</speed><course>198.636932</course><hAcc>0.871231</hAcc><vAcc>0.660461</vAcc></extensions></trkpt>
      <trkpt lon="-4.121840" lat="53.014572"><ele>137.185165</ele><time>2021-07-17T14:50:57Z</time><extensions><speed>0.941891</speed><course>192.727798</course><hAcc>0.871381</hAcc><vAcc>0.660946</vAcc></extensions></trkpt>
      <trkpt lon="-4.121828" lat="53.014568"><ele>137.074722</ele><time>2021-07-17T14:50:58Z</time><extensions><speed>0.942396</speed><course>184.691818</course><hAcc>0.871555</hAcc><vAcc>0.661480</vAcc></extensions></trkpt>
      <trkpt lon="-4.121816" lat="53.014564"><ele>136.968903</ele><time>2021-07-17T14:50:59Z</time><extensions><speed>0.947507</speed><course>177.917740</course><hAcc>0.871753</hAcc><vAcc>0.662068</vAcc></extensions></trkpt>
      <trkpt lon="-4.121804" lat="53.014560"><ele>136.867081</ele><time>2021-07-17T14:51:00Z</time><extensions><speed>0.956648</speed><course>169.935883</course><hAcc>0.871978</hAcc><vAcc>0.662737</vAcc></extensions></trkpt>
      <trkpt lon="-4.121792" lat="53.014555"><ele>136.768890</ele><time>2021-07-17T14:51:01Z</time><extensions><speed>0.970023</speed><course>168.290512</course><hAcc>0.872237</hAcc><vAcc>0.663515</vAcc></extensions></trkpt>
      <trkpt lon="-4.121780" lat="53.014550"><ele>136.674316</ele><time>2021-07-17T14:51:02Z</time><extensions><speed>0.987681</speed><course>175.847488</course><hAcc>0.872532</hAcc><vAcc>0.664426</vAcc></extensions></trkpt>
      <trkpt lon="-4.121768" lat="53.014544"><ele>136.583664</ele><time>2021-07-17T14:51:03Z</time><extensions><speed>1.009009</speed><course>182.489380</course><hAcc>0.872866</hAcc><vAcc>0.665485</vAcc></extensions></trkpt>
      <trkpt lon="-4.121756" lat="53.014539"><ele>136.497314</ele><time>2021-07-17T14:51:04Z</time><extensions><speed>1.032845</speed><course>193.224472</course><hAcc>0.873236</hAcc><vAcc>0.666689</vAcc></extensions></trkpt>
      <trkpt lon="-4.121744" lat="53.014533"><ele>136.415451</ele><time>2021-07-17T14:51:05Z</time><extensions><speed>1.057820</speed><course>210.457108</course><hAcc>0.873636</hAcc><vAcc>0.668011</vAcc></extensions></trkpt>
      <trkpt lon="-4.121731" lat="53.014527"><ele>136.337845</ele><time>2021-07-17T14:51:06Z</time><extensions><speed>1.082800</speed><course>227.054108</course><hAcc>0.874054</hAcc><vAcc>0.669405</vAcc></extensions></trkpt>
      <trkpt lon="-4.121719" lat="53.014521"><ele>136.264069</ele><time>2021-07-17T14:51:07Z</time><extensions><speed>1.106659</speed><course>247.666534</course><hAcc>0.874475</hAcc><vAcc>0.670811</vAcc></extensions></trkpt>
      <trkpt lon="-4.121706" lat="53.014514"><ele>136.193604</ele><time>2021-07-17T14:51:08Z</time><extensions><speed>1.128500</speed><course>261.197876</course><hAcc>0.874883</hAcc><vAcc>0.672166</vAcc></extensions></trkpt>
      <trkpt lon="-4.121693" lat="53.014508"><ele>136.125351</ele><time>2021-07-17T14:51:09Z</time><extensions><speed>1.148243</speed><course>263.217255</course><hAcc>0.875264</hAcc><vAcc>0.673411</vAcc></extensions></trkpt>
      <trkpt lon="-4.121680" lat="53.014501"><ele>136.058060</ele><time>2021-07-17T14:51:10Z</time><extensions><speed>1.166104</speed><course>271.463165</course><hAcc>0.875609</hAcc><vAcc>0.674512</vAcc></extensions></trkpt>
      <trkpt lon="-4.121667" lat="53.014494"><ele>135.990417</ele><time>2021-07-17T14:51:11Z</time><extensions><speed>1.182359</speed><course>281.991608</course><hAcc>0.875910</hAcc><vAcc>0.675454</vAcc></extensions></trkpt>
      <trkpt lon="-4.121654" lat="53.014486"><ele>135.920609</ele><time>2021-07-17T14:51:12Z</time><extensions><speed>1.197179</speed><course>285.895782</course><hAcc>0.876165</hAcc><vAcc>0.676233</vAcc></extensions></trkpt>
      <trkpt lon="-4.121641" lat="53.014479"><ele>135.846207</ele><time>2021-07-17T14:51:13Z</time><extensions><speed>1.210830</speed><course>287.327179</course><hAcc>0.876375</hAcc><vAcc>0.676848</vAcc></extensions></trkpt>
      <trkpt lon="-4.121628" lat="53.014471"><ele>135.764786</ele><time>2021-07-17T14:51:14Z</time><extensions><speed>1.223807</speed><course>297.396240</course><hAcc>0.876542</hAcc><vAcc>0.677310</vAcc></extensions></trkpt>
      <trkpt lon="-4.121615" lat="53.014464"><ele>135.674866</ele><time>2021-07-17T14:51:15Z</time><extensions><speed>1.236954</speed><course>299.473175</course><hAcc>0.876671</hAcc><vAcc>0.677643</vAcc></extensions></trkpt>
      <trkpt lon="-4.121602" lat="53.014456"><ele>135.575714</ele><time>2021-07-17T14:51:16Z</time><extensions><speed>1.251672</speed><course>297.683289</course><hAcc>0.876772</hAcc><vAcc>0.677883</vAcc></extensions></trkpt>
      <trkpt lon="-4.121589" lat="53.014448"><ele>135.466904</ele><time>2021-07-17T14:51:17Z</time><extensions><speed>1.268534</speed><course>292.365356</course><hAcc>0.876854</hAcc><vAcc>0.678077</vAcc></extensions></trkpt>
      <trkpt lon="-4.121576" lat="53.014439"><ele>135.348190</ele><time>2021-07-17T14:51:18Z</time><extensions><speed>1.286845</speed><course>291.092651</course><hAcc>0.876928</hAcc><vAcc>0.678270</vAcc></extensions></trkpt>
      <trkpt lon="-4.121563" lat="53.014431"><ele>135.219360</ele><time>2021-07-17T14:51:19Z</time><extensions><speed>1.305308</speed><course>297.007721</course><hAcc>0.877000</hAcc><vAcc>0.678490</vAcc></extensions></trkpt>
      <trkpt lon="-4.121549" lat="53.014422"><ele>135.079956</ele><time>2021-07-17T14:51:20Z</time><extensions><speed>1.322708</speed><course>291.539093</course><hAcc>0.877075</hAcc><vAcc>0.678741</vAcc></extensions></trkpt>
      <trkpt lon="-4.121536" lat="53.014413"><ele>134.929871</ele><time>2021-07-17T14:51:21Z</time><extensions><speed>1.338615</speed><course>293.314819</course><hAcc>0.877151</hAcc><vAcc>0.679004</vAcc></extensions></trkpt>
      <trkpt lon="-4.121522" lat="53.014405"><ele>134.770050</ele><time>2021-07-17T14:51:22Z</time><extensions><speed>1.352798</speed><course>297.043213</course><hAcc>0.877229</hAcc><vAcc>0.679259</vAcc></extensions></trkpt>
      <trkpt lon="-4.121508" lat="53.014396"><ele>134.601974</ele><time>2021-07-17T14:51:23Z</time><extensions><speed>1.365004</speed><course>301.573547</course><hAcc>0.877308</hAcc><vAcc>0.679499</vAcc></extensions></trkpt>
      <trkpt lon="-4.121493" lat="53.014387"><ele>134.426666</ele><time>2021-07-17T14:51:24Z</time><extensions><speed>1.375497</speed><course>305.542847</course><hAcc>0.877394</hAcc><vAcc>0.679730</vAcc></extensions></trkpt>
      <trkpt lon="-4.121478" lat="53.014379"><ele>134.245285</ele><time>2021-07-17T14:51:25Z</time><extensions><speed>1.385052</speed><course>304.461029</course><hAcc>0.877491</hAcc><vAcc>0.679980</vAcc></extensions></trkpt>
      <trkpt lon="-4.121463" lat="53.014370"><ele>134.059799</ele><time>2021-07-17T14:51:26Z</time><extensions><speed>1.394623</speed><course>304.519958</course><hAcc>0.877607</hAcc><vAcc>0.680286</vAcc></extensions></trkpt>
      <trkpt lon="-4.121448" lat="53.014362"><ele>133.872604</ele><time>2021-07-17T14:51:27Z</time><extensions><speed>1.404968</speed><course>306.835541</course><hAcc>0.877750</hAcc><vAcc>0.680680</vAcc></extensions></trkpt>
      <trkpt lon="-4.121432" lat="53.014353"><ele>133.686035</ele><time>2021-07-17T14:51:28Z</time><extensions><speed>1.416320</speed><course>312.924469</course><hAcc>0.877925</hAcc><vAcc>0.681187</vAcc></extensions></trkpt>
      <trkpt lon="-4.121416" lat="53.014345"><ele>133.501953</ele><time>2021-07-17T14:51:29Z</time><extensions><speed>1.428476</speed><course>313.121582</course><hAcc>0.878137</hAcc><vAcc>0.681820</vAcc></extensions></trkpt>
      <trkpt lon="-4.121399" lat="53.014337"><ele>133.321869</ele><time>2021-07-17T14:51:30Z</time><extensions><speed>1.440839</speed><course>312.363678</course><hAcc>0.878388</hAcc><vAcc>0.682595</vAcc></extensions></trkpt>
      <trkpt lon="-4.121383" lat="53.014329"><ele>133.147415</ele><time>2021-07-17T14:51:31Z</time><extensions><speed>1.452415</speed><course>309.905548</course><hAcc>0.878678</hAcc><vAcc>0.683519</vAcc></extensions></trkpt>
      <trkpt lon="-4.121366" lat="53.014320"><ele>132.980270</ele><time>2021-07-17T14:51:32Z</time><extensions><speed>1.462033</speed><course>308.597687</course><hAcc>0.879006</hAcc><vAcc>0.684592</vAcc></extensions></trkpt>
      <trkpt lon="-4.121349" lat="53.014312"><ele>132.821426</ele><time>2021-07-17T14:51:33Z</time><extensions><speed>1.468931</speed><course>307.103394</course><hAcc>0.879367</hAcc><vAcc>0.685797</vAcc></extensions></trkpt>
      <trkpt lon="-4.121331" lat="53.014304"><ele>132.671158</ele><time>2021-07-17T14:51:34Z</time><extensions><speed>1.473091</speed><course>306.897400</course><hAcc>0.879752</hAcc><vAcc>0.687106</vAcc></extensions></trkpt>
      <trkpt lon="-4.121314" lat="53.014296"><ele>132.529373</ele><time>2021-07-17T14:51:35Z</time><extensions><speed>1.475050</speed><course>302.152618</course><hAcc>0.880150</hAcc><vAcc>0.688474</vAcc></extensions></trkpt>
      <trkpt lon="-4.121297" lat="53.014287"><ele>132.396072</ele><time>2021-07-17T14:51:36Z</time><extensions><speed>1.475801</speed><course>297.726410</course><hAcc>0.880550</hAcc><vAcc>0.689848</vAcc></extensions></trkpt>
      <trkpt lon="-4.121280" lat="53.014279"><ele>132.270905</ele><time>2021-07-17T14:51:37Z</time><extensions><speed>1.475894</speed><course>300.194183</course><hAcc>0.880938</hAcc><vAcc>0.691170</vAcc></extensions></trkpt>
      <trkpt lon="-4.121262" lat="53.014271"><ele>132.152496</ele><time>2021-07-17T14:51:38Z</time><extensions><speed>1.475421</speed><course>297.151825</course><hAcc>0.881304</hAcc><vAcc>0.692389</vAcc></extensions></trkpt>
      <trkpt lon="-4.121245" lat="53.014263"><ele>132.038925</ele><time>2021-07-17T14:51:39Z</time><extensions><speed>1.474696</speed><course>298.399384</course><hAcc>0.881638</hAcc><vAcc>0.693467</vAcc></extensions></trkpt>
      <trkpt lon="-4.121228" lat="53.014255"><ele>131.928848</ele><time>2021-07-17T14:51:40Z</time><extensions><speed>1.474387</speed><course>300.837921</course><hAcc>0.881935</hAcc><vAcc>0.694384</vAcc></extensions></trkpt>
      <trkpt lon="-4.121210" lat="53.014247"><ele>131.821320</ele><time>2021-07-17T14:51:41Z</time><extensions><speed>1.474847</speed><course>299.844330</course><hAcc>0.882193</hAcc><vAcc>0.695146</vAcc></extensions></trkpt>
      <trkpt lon="-4.121192" lat="53.014239"><ele>131.715179</ele><time>2021-07-17T14:51:42Z</time><extensions><speed>1.475638</speed><course>300.001373</course><hAcc>0.882413</hAcc><vAcc>0.695770</vAcc></extensions></trkpt>
      <trkpt lon="-4.121174" lat="53.014231"><ele>131.609344</ele><time>2021-07-17T14:51:43Z</time><extensions><speed>1.476150</speed><course>294.568817</course><hAcc>0.882599</hAcc><vAcc>0.696277</vAcc></extensions></trkpt>
      <trkpt lon="-4.121156" lat="53.014224"><ele>131.503204</ele><time>2021-07-17T14:51:44Z</time><extensions><speed>1.475895</speed><course>300.687103</course><hAcc>0.882755</hAcc><vAcc>0.696688</vAcc></extensions></trkpt>
      <trkpt lon="-4.121138" lat="53.014216"><ele>131.396484</ele><time>2021-07-17T14:51:45Z</time><extensions><speed>1.474282</speed><course>297.691925</course><hAcc>0.882888</hAcc><vAcc>0.697031</vAcc></extensions></trkpt>
      <trkpt lon="-4.121120" lat="53.014209"><ele>131.288559</ele><time>2021-07-17T14:51:46Z</time><extensions><speed>1.471068</speed><course>293.928223</course><hAcc>0.883004</hAcc><vAcc>0.697330</vAcc></extensions></trkpt>
      <trkpt lon="-4.121102" lat="53.014202"><ele>131.178818</ele><time>2021-07-17T14:51:47Z</time><extensions><speed>1.466134</speed><course>297.041656</course><hAcc>0.883110</hAcc><vAcc>0.697610</vAcc></extensions></trkpt>
      <trkpt lon="-4.121084" lat="53.014194"><ele>131.067429</ele><time>2021-07-17T14:51:48Z</time><extensions><speed>1.459140</speed><course>298.722290</course><hAcc>0.883211</hAcc><vAcc>0.697890</vAcc></extensions></trkpt>
      <trkpt lon="-4.121066" lat="53.014187"><ele>130.954895</ele><time>2021-07-17T14:51:49Z</time><extensions><speed>1.450047</speed><course>296.674316</course><hAcc>0.883313</hAcc><vAcc>0.698187</vAcc></extensions></trkpt>
      <trkpt lon="-4.121048" lat="53.014180"><ele>130.841064</ele><time>2021-07-17T14:51:50Z</time><extensions><speed>1.439479</speed><course>301.147156</course><hAcc>0.883417</hAcc><vAcc>0.698513</vAcc></extensions></trkpt>
      <trkpt lon="-4.121030" lat="53.014173"><ele>130.725510</ele><time>2021-07-17T14:51:51Z</time><extensions><speed>1.428502</speed><course>301.618805</course><hAcc>0.883527</hAcc><vAcc>0.698879</vAcc></extensions></trkpt>
      <trkpt lon="-4.121012" lat="53.014166"><ele>130.607941</ele><time>2021-07-17T14:51:52Z</time><extensions><speed>1.417922</speed><course>300.678009</course><hAcc>0.883641</hAcc><vAcc>0.699285</vAcc></extensions></trkpt>
      <trkpt lon="-4.120995" lat="53.014158"><ele>130.488312</ele><time>2021-07-17T14:51:53Z</time><extensions><speed>1.408053</speed><course>306.078644</course><hAcc>0.883760</hAcc><vAcc>0.699718</vAcc></extensions></trkpt>
      <trkpt lon="-4.120978" lat="53.014151"><ele>130.366562</ele><time>2021-07-17T14:51:54Z</time><extensions><speed>1.399014</speed><course>302.099213</course><hAcc>0.883880</hAcc><vAcc>0.700156</vAcc></extensions></trkpt>
      <trkpt lon="-4.120961" lat="53.014144"><ele>130.242233</ele><time>2021-07-17T14:51:55Z</time><extensions><speed>1.391233</speed><course>298.253754</course><hAcc>0.884001</hAcc><vAcc>0.700570</vAcc></extensions></trkpt>
      <trkpt lon="-4.120944" lat="53.014137"><ele>130.114822</ele><time>2021-07-17T14:51:56Z</time><extensions><speed>1.384821</speed><course>299.772583</course><hAcc>0.884119</hAcc><vAcc>0.700947</vAcc></extensions></trkpt>
      <trkpt lon="-4.120927" lat="53.014130"><ele>129.984436</ele><time>2021-07-17T14:51:57Z</time><extensions><speed>1.379674</speed><course>299.946075</course><hAcc>0.884236</hAcc><vAcc>0.701286</vAcc></extensions></trkpt>
      <trkpt lon="-4.120910" lat="53.014123"><ele>129.851715</ele><time>2021-07-17T14:51:58Z</time><extensions><speed>1.375734</speed><course>303.968170</course><hAcc>0.884352</hAcc><vAcc>0.701600</vAcc></extensions></trkpt>
      <trkpt lon="-4.120893" lat="53.014116"><ele>129.717056</ele><time>2021-07-17T14:51:59Z</time><extensions><speed>1.372873</speed><course>302.223755</course><hAcc>0.884468</hAcc><vAcc>0.701907</vAcc></extensions></trkpt>
      <trkpt lon="-4.120876" lat="53.014109"><ele>129.580444</ele><time>2021-07-17T14:52:00Z</time><extensions><speed>1.371160</speed><course>303.590851</course><hAcc>0.884587</hAcc><vAcc>0.702224</vAcc></extensions></trkpt>
      <trkpt lon="-4.120859" lat="53.014102"><ele>129.441971</ele><time>2021-07-17T14:52:01Z</time><extensions><speed>1.370837</speed><course>302.656281</course><hAcc>0.884711</hAcc><vAcc>0.702569</vAcc></extensions></trkpt>
      <trkpt lon="-4.120842" lat="53.014095"><ele>129.302170</ele><time>2021-07-17T14:52:02Z</time><extensions><speed>1.372152</speed><course>307.857574</course><hAcc>0.884840</hAcc><vAcc>0.702958</vAcc></extensions></trkpt>
      <trkpt lon="-4.120825" lat="53.014088"><ele>129.161453</ele><time>2021-07-17T14:52:03Z</time><extensions><speed>1.375000</speed><course>306.241272</course><hAcc>0.884975</hAcc><vAcc>0.703400</vAcc></extensions></trkpt>
      <trkpt lon="-4.120808" lat="53.014081"><ele>129.019455</ele><time>2021-07-17T14:52:04Z</time><extensions><speed>1.379054</speed><course>302.560516</course><hAcc>0.885115</hAcc><vAcc>0.703894</vAcc></extensions></trkpt>
      <trkpt lon="-4.120791" lat="53.014075"><ele>128.875946</ele><time>2021-07-17T14:52:05Z</time><extensions><speed>1.384078</speed><course>304.207947</course><hAcc>0.885255</hAcc><vAcc>0.704425</vAcc></extensions></trkpt>
      <trkpt lon="-4.120773" lat="53.014068"><ele>128.731659</ele><time>2021-07-17T14:52:06Z</time><extensions><speed>1.390231</speed><course>304.678192</course><hAcc>0.885390</hAcc><vAcc>0.704965</vAcc></extensions></trkpt>
      <trkpt lon="-4.120756" lat="53.014061"><ele>128.588287</ele><time>2021-07-17T14:52:06Z</time><extensions><speed>1.397510</speed><course>300.816559</course><hAcc>0.885533</hAcc><vAcc>0.705492</vAcc></extensions></trkpt>
      <trkpt lon="-4.120738" lat="53.014055"><ele>128.447159</ele><time>2021-07-17T14:52:07Z</time><extensions><speed>1.405358</speed><course>302.457642</course><hAcc>0.885680</hAcc><vAcc>0.705974</vAcc></extensions></trkpt>
      <trkpt lon="-4.120720" lat="53.014048"><ele>128.310028</ele><time>2021-07-17T14:52:09Z</time><extensions><speed>1.413409</speed><course>303.405792</course><hAcc>0.885789</hAcc><vAcc>0.706353</vAcc></extensions></trkpt>
      <trkpt lon="-4.120702" lat="53.014041"><ele>128.179184</ele><time>2021-07-17T14:52:10Z</time><extensions><speed>1.421437</speed><course>305.179382</course><hAcc>0.885857</hAcc><vAcc>0.706606</vAcc></extensions></trkpt>
      <trkpt lon="-4.120684" lat="53.014034"><ele>128.056625</ele><time>2021-07-17T14:52:11Z</time><extensions><speed>1.429026</speed><course>301.811188</course><hAcc>0.885900</hAcc><vAcc>0.706738</vAcc></extensions></trkpt>
      <trkpt lon="-4.120667" lat="53.014027"><ele>127.944344</ele><time>2021-07-17T14:52:12Z</time><extensions><speed>1.436012</speed><course>294.111877</course><hAcc>0.885916</hAcc><vAcc>0.706755</vAcc></extensions></trkpt>
      <trkpt lon="-4.120649" lat="53.014020"><ele>127.843307</ele><time>2021-07-17T14:52:13Z</time><extensions><speed>1.442396</speed><course>291.186249</course><hAcc>0.885904</hAcc><vAcc>0.706669</vAcc></extensions></trkpt>
      <trkpt lon="-4.120631" lat="53.014012"><ele>127.753197</ele><time>2021-07-17T14:52:14Z</time><extensions><speed>1.447851</speed><course>291.833313</course><hAcc>0.885867</hAcc><vAcc>0.706498</vAcc></extensions></trkpt>
      <trkpt lon="-4.120614" lat="53.014005"><ele>127.673332</ele><time>2021-07-17T14:52:15Z</time><extensions><speed>1.452003</speed><course>293.198639</course><hAcc>0.885805</hAcc><vAcc>0.706259</vAcc></extensions></trkpt>
      <trkpt lon="-4.120597" lat="53.013997"><ele>127.603546</ele><time>2021-07-17T14:52:16Z</time><extensions><speed>1.455004</speed><course>297.953094</course><hAcc>0.885721</hAcc><vAcc>0.705963</vAcc></extensions></trkpt>
      <trkpt lon="-4.120580" lat="53.013988"><ele>127.543678</ele><time>2021-07-17T14:52:17Z</time><extensions><speed>1.457348</speed><course>294.998413</course><hAcc>0.885617</hAcc><vAcc>0.705618</vAcc></extensions></trkpt>
      <trkpt lon="-4.120564" lat="53.013980"><ele>127.492805</ele><time>2021-07-17T14:52:18Z</time><extensions><speed>1.459055</speed><course>290.333923</course><hAcc>0.885493</hAcc><vAcc>0.705227</vAcc></extensions></trkpt>
      <trkpt lon="-4.120548" lat="53.013971"><ele>127.449486</ele><time>2021-07-17T14:52:19Z</time><extensions><speed>1.459580</speed><course>297.336884</course><hAcc>0.885350</hAcc><vAcc>0.704786</vAcc></extensions></trkpt>
      <trkpt lon="-4.120532" lat="53.013962"><ele>127.412346</ele><time>2021-07-17T14:52:20Z</time><extensions><speed>1.458044</speed><course>291.763641</course><hAcc>0.885188</hAcc><vAcc>0.704293</vAcc></extensions></trkpt>
      <trkpt lon="-4.120516" lat="53.013953"><ele>127.380272</ele><time>2021-07-17T14:52:21Z</time><extensions><speed>1.453520</speed><course>293.588959</course><hAcc>0.885006</hAcc><vAcc>0.703746</vAcc></extensions></trkpt>
      <trkpt lon="-4.120501" lat="53.013944"><ele>127.352455</ele><time>2021-07-17T14:52:22Z</time><extensions><speed>1.445694</speed><course>298.534668</course><hAcc>0.884802</hAcc><vAcc>0.703138</vAcc></extensions></trkpt>
      <trkpt lon="-4.120486" lat="53.013935"><ele>127.328537</ele><time>2021-07-17T14:52:23Z</time><extensions><speed>1.434504</speed><course>294.834351</course><hAcc>0.884574</hAcc><vAcc>0.702458</vAcc></extensions></trkpt>
      <trkpt lon="-4.120471" lat="53.013925"><ele>127.307953</ele><time>2021-07-17T14:52:24Z</time><extensions><speed>1.419770</speed><course>297.698059</course><hAcc>0.884321</hAcc><vAcc>0.701695</vAcc></extensions></trkpt>
      <trkpt lon="-4.120456" lat="53.013916"><ele>127.289520</ele><time>2021-07-17T14:52:25Z</time><extensions><speed>1.401400</speed><course>298.511444</course><hAcc>0.884041</hAcc><vAcc>0.700841</vAcc></extensions></trkpt>
      <trkpt lon="-4.120442" lat="53.013907"><ele>127.272133</ele><time>2021-07-17T14:52:26Z</time><extensions><speed>1.379231</speed><course>303.054443</course><hAcc>0.883736</hAcc><vAcc>0.699891</vAcc></extensions></trkpt>
      <trkpt lon="-4.120428" lat="53.013898"><ele>127.255325</ele><time>2021-07-17T14:52:27Z</time><extensions><speed>1.352897</speed><course>300.594757</course><hAcc>0.883406</hAcc><vAcc>0.698848</vAcc></extensions></trkpt>
      <trkpt lon="-4.120414" lat="53.013890"><ele>127.238655</ele><time>2021-07-17T14:52:28Z</time><extensions><speed>1.322429</speed><course>303.489990</course><hAcc>0.883056</hAcc><vAcc>0.697723</vAcc></extensions></trkpt>
      <trkpt lon="-4.120401" lat="53.013881"><ele>127.221245</ele><time>2021-07-17T14:52:29Z</time><extensions><speed>1.288181</speed><course>307.296783</course><hAcc>0.882692</hAcc><vAcc>0.696530</vAcc></extensions></trkpt>
      <trkpt lon="-4.120388" lat="53.013873"><ele>127.202286</ele><time>2021-07-17T14:52:30Z</time><extensions><speed>1.250305</speed><course>306.846466</course><hAcc>0.882324</hAcc><vAcc>0.695294</vAcc></extensions></trkpt>
      <trkpt lon="-4.120375" lat="53.013865"><ele>127.181343</ele><time>2021-07-17T14:52:31Z</time><extensions><speed>1.209020</speed><course>314.303711</course><hAcc>0.881961</hAcc><vAcc>0.694053</vAcc></extensions></trkpt>
      <trkpt lon="-4.120363" lat="53.013857"><ele>127.158203</ele><time>2021-07-17T14:52:32Z</time><extensions><speed>1.164582</speed><course>316.753265</course><hAcc>0.881618</hAcc><vAcc>0.692857</vAcc></extensions></trkpt>
      <trkpt lon="-4.120351" lat="53.013850"><ele>127.132309</ele><time>2021-07-17T14:52:33Z</time><extensions><speed>1.117405</speed><course>312.101562</course><hAcc>0.881310</hAcc><vAcc>0.691764</vAcc></extensions></trkpt>
      <trkpt lon="-4.120340" lat="53.013843"><ele>127.102692</ele><time>2021-07-17T14:52:34Z</time><extensions><speed>1.067856</speed><course>310.983948</course><hAcc>0.881050</hAcc><vAcc>0.690829</vAcc></extensions></trkpt>
      <trkpt lon="-4.120329" lat="53.013836"><ele>127.068748</ele><time>2021-07-17T14:52:35Z</time><extensions><speed>1.016024</speed><course>316.824890</course><hAcc>0.880852</hAcc><vAcc>0.690106</vAcc></extensions></trkpt>
      <trkpt lon="-4.120319" lat="53.013829"><ele>127.030434</ele><time>2021-07-17T14:52:36Z</time><extensions><speed>0.962019</speed><course>324.005005</course><hAcc>0.880730</hAcc><vAcc>0.689637</vAcc></extensions></trkpt>
      <trkpt lon="-4.120309" lat="53.013824"><ele>126.987587</ele><time>2021-07-17T14:52:37Z</time><extensions><speed>0.906614</speed><course>322.091736</course><hAcc>0.880691</hAcc><vAcc>0.689458</vAcc></extensions></trkpt>
      <trkpt lon="-4.120300" lat="53.013818"><ele>126.939949</ele><time>2021-07-17T14:52:38Z</time><extensions><speed>0.851149</speed><course>322.830170</course><hAcc>0.880741</hAcc><vAcc>0.689598</vAcc></extensions></trkpt>
      <trkpt lon="-4.120291" lat="53.013813"><ele>126.887619</ele><time>2021-07-17T14:52:39Z</time><extensions><speed>0.797025</speed><course>325.823517</course><hAcc>0.880884</hAcc><vAcc>0.690076</vAcc></extensions></trkpt>
      <trkpt lon="-4.120283" lat="53.013808"><ele>126.830948</ele><time>2021-07-17T14:52:40Z</time><extensions><speed>0.746363</speed><course>331.853210</course><hAcc>0.881114</hAcc><vAcc>0.690895</vAcc></extensions></trkpt>
      <trkpt lon="-4.120275" lat="53.013803"><ele>126.770119</ele><time>2021-07-17T14:52:41Z</time><extensions><speed>0.701720</speed><course>331.260956</course><hAcc>0.881425</hAcc><vAcc>0.692039</vAcc></extensions></trkpt>
      <trkpt lon="-4.120268" lat="53.013799"><ele>126.705330</ele><time>2021-07-17T14:52:42Z</time><extensions><speed>0.665664</speed><course>329.072571</course><hAcc>0.881801</hAcc><vAcc>0.693455</vAcc></extensions></trkpt>
      <trkpt lon="-4.120260" lat="53.013795"><ele>126.636604</ele><time>2021-07-17T14:52:43Z</time><extensions><speed>0.641322</speed><course>325.473938</course><hAcc>0.882221</hAcc><vAcc>0.695050</vAcc></extensions></trkpt>
      <trkpt lon="-4.120253" lat="53.013791"><ele>126.563377</ele><time>2021-07-17T14:52:44Z</time><extensions><speed>0.631266</speed><course>325.383026</course><hAcc>0.882658</hAcc><vAcc>0.696703</vAcc></extensions></trkpt>
      <trkpt lon="-4.120246" lat="53.013788"><ele>126.485229</ele><time>2021-07-17T14:52:45Z</time><extensions><speed>0.637180</speed><course>325.061401</course><hAcc>0.883087</hAcc><vAcc>0.698285</vAcc></extensions></trkpt>
      <trkpt lon="-4.120239" lat="53.013784"><ele>126.402443</ele><time>2021-07-17T14:52:46Z</time><extensions><speed>0.660030</speed><course>325.207275</course><hAcc>0.883482</hAcc><vAcc>0.699689</vAcc></extensions></trkpt>
      <trkpt lon="-4.120231" lat="53.013780"><ele>126.315720</ele><time>2021-07-17T14:52:47Z</time><extensions><speed>0.699218</speed><course>322.410889</course><hAcc>0.883823</hAcc><vAcc>0.700837</vAcc></extensions></trkpt>
      <trkpt lon="-4.120223" lat="53.013775"><ele>126.225815</ele><time>2021-07-17T14:52:48Z</time><extensions><speed>0.752407</speed><course>319.218658</course><hAcc>0.884094</hAcc><vAcc>0.701689</vAcc></extensions></trkpt>
      <trkpt lon="-4.120215" lat="53.013771"><ele>126.133614</ele><time>2021-07-17T14:52:49Z</time><extensions><speed>0.815833</speed><course>319.790588</course><hAcc>0.884283</hAcc><vAcc>0.702233</vAcc></extensions></trkpt>
      <trkpt lon="-4.120205" lat="53.013766"><ele>126.040062</ele><time>2021-07-17T14:52:50Z</time><extensions><speed>0.884639</speed><course>318.972229</course><hAcc>0.884385</hAcc><vAcc>0.702474</vAcc></extensions></trkpt>
      <trkpt lon="-4.120195" lat="53.013760"><ele>125.946030</ele><time>2021-07-17T14:52:51Z</time><extensions><speed>0.953262</speed><course>320.354065</course><hAcc>0.884399</hAcc><vAcc>0.702431</vAcc></extensions></trkpt>
      <trkpt lon="-4.120185" lat="53.013754"><ele>125.852325</ele><time>2021-07-17T14:52:52Z</time><extensions><speed>1.017172</speed><course>320.541016</course><hAcc>0.884328</hAcc><vAcc>0.702125</vAcc></extensions></trkpt>
      <trkpt lon="-4.120174" lat="53.013747"><ele>125.759987</ele><time>2021-07-17T14:52:53Z</time><extensions><speed>1.074070</speed><course>317.906189</course><hAcc>0.884178</hAcc><vAcc>0.701579</vAcc></extensions></trkpt>
      <trkpt lon="-4.120163" lat="53.013740"><ele>125.670547</ele><time>2021-07-17T14:52:54Z</time><extensions><speed>1.122972</speed><course>316.077393</course><hAcc>0.883957</hAcc><vAcc>0.700815</vAcc></extensions></trkpt>
      <trkpt lon="-4.120151" lat="53.013732"><ele>125.586121</ele><time>2021-07-17T14:52:55Z</time><extensions><speed>1.163657</speed><course>307.356537</course><hAcc>0.883676</hAcc><vAcc>0.699858</vAcc></extensions></trkpt>
      <trkpt lon="-4.120140" lat="53.013724"><ele>125.508728</ele><time>2021-07-17T14:52:56Z</time><extensions><speed>1.196981</speed><course>302.004150</course><hAcc>0.883346</hAcc><vAcc>0.698739</vAcc></extensions></trkpt>
      <trkpt lon="-4.120129" lat="53.013716"><ele>125.439262</ele><time>2021-07-17T14:52:57Z</time><extensions><speed>1.224277</speed><course>310.520874</course><hAcc>0.882980</hAcc><vAcc>0.697496</vAcc></extensions></trkpt>
      <trkpt lon="-4.120118" lat="53.013707"><ele>125.377563</ele><time>2021-07-17T14:52:58Z</time><extensions><speed>1.246750</speed><course>307.778412</course><hAcc>0.882593</hAcc><vAcc>0.696174</vAcc></extensions></trkpt>
      <trkpt lon="-4.120107" lat="53.013697"><ele>125.323235</ele><time>2021-07-17T14:52:59Z</time><extensions><speed>1.265427</speed><course>310.132080</course><hAcc>0.882200</hAcc><vAcc>0.694825</vAcc></extensions></trkpt>
      <trkpt lon="-4.120097" lat="53.013688"><ele>125.275894</ele><time>2021-07-17T14:53:00Z</time><extensions><speed>1.281121</speed><course>310.327301</course><hAcc>0.881816</hAcc><vAcc>0.693504</vAcc></extensions></trkpt>
      <trkpt lon="-4.120087" lat="53.013678"><ele>125.235191</ele><time>2021-07-17T14:53:01Z</time><extensions><speed>1.294433</speed><course>308.925873</course><hAcc>0.881455</hAcc><vAcc>0.692265</vAcc></extensions></trkpt>
      <trkpt lon="-4.120077" lat="53.013668"><ele>125.200294</ele><time>2021-07-17T14:53:02Z</time><extensions><speed>1.306000</speed><course>308.955322</course><hAcc>0.881131</hAcc><vAcc>0.691154</vAcc></extensions></trkpt>
      <trkpt lon="-4.120068" lat="53.013658"><ele>125.169464</ele><time>2021-07-17T14:53:03Z</time><extensions><speed>1.316590</speed><course>303.152588</course><hAcc>0.880855</hAcc><vAcc>0.690211</vAcc></extensions></trkpt>
      <trkpt lon="-4.120058" lat="53.013647"><ele>125.140862</ele><time>2021-07-17T14:53:04Z</time><extensions><speed>1.326823</speed><course>313.156525</course><hAcc>0.880637</hAcc><vAcc>0.689465</vAcc></extensions></trkpt>
      <trkpt lon="-4.120049" lat="53.013636"><ele>125.113365</ele><time>2021-07-17T14:53:05Z</time><extensions><speed>1.337142</speed><course>307.864197</course><hAcc>0.880481</hAcc><vAcc>0.688940</vAcc></extensions></trkpt>
      <trkpt lon="-4.120040" lat="53.013626"><ele>125.086311</ele><time>2021-07-17T14:53:06Z</time><extensions><speed>1.347766</speed><course>309.541687</course><hAcc>0.880394</hAcc><vAcc>0.688655</vAcc></extensions></trkpt>
      <trkpt lon="-4.120031" lat="53.013615"><ele>125.059036</ele><time>2021-07-17T14:53:07Z</time><extensions><speed>1.358684</speed><course>312.130341</course><hAcc>0.880374</hAcc><vAcc>0.688618</vAcc></extensions></trkpt>
      <trkpt lon="-4.120022" lat="53.013604"><ele>125.030991</ele><time>2021-07-17T14:53:08Z</time><extensions><speed>1.369596</speed><course>310.268982</course><hAcc>0.880418</hAcc><vAcc>0.688820</vAcc></extensions></trkpt>
      <trkpt lon="-4.120013" lat="53.013593"><ele>125.001961</ele><time>2021-07-17T14:53:09Z</time><extensions><speed>1.380260</speed><course>308.247070</course><hAcc>0.880519</hAcc><vAcc>0.689230</vAcc></extensions></trkpt>
      <trkpt lon="-4.120004" lat="53.013582"><ele>124.971603</ele><time>2021-07-17T14:53:10Z</time><extensions><speed>1.390571</speed><course>304.229858</course><hAcc>0.880665</hAcc><vAcc>0.689805</vAcc></extensions></trkpt>
      <trkpt lon="-4.119994" lat="53.013571"><ele>124.938774</ele><time>2021-07-17T14:53:11Z</time><extensions><speed>1.400301</speed><course>308.310059</course><hAcc>0.880842</hAcc><vAcc>0.690489</vAcc></extensions></trkpt>
      <trkpt lon="-4.119984" lat="53.013560"><ele>124.901894</ele><time>2021-07-17T14:53:12Z</time><extensions><speed>1.409027</speed><course>311.142822</course><hAcc>0.881036</hAcc><vAcc>0.691223</vAcc></extensions></trkpt>
      <trkpt lon="-4.119974" lat="53.013548"><ele>124.860367</ele><time>2021-07-17T14:53:13Z</time><extensions><speed>1.416341</speed><course>305.518036</course><hAcc>0.881233</hAcc><vAcc>0.691947</vAcc></extensions></trkpt>
      <trkpt lon="-4.119963" lat="53.013537"><ele>124.814453</ele><time>2021-07-17T14:53:14Z</time><extensions><speed>1.422171</speed><course>303.061462</course><hAcc>0.881419</hAcc><vAcc>0.692608</vAcc></extensions></trkpt>
      <trkpt lon="-4.119952" lat="53.013526"><ele>124.764160</ele><time>2021-07-17T14:53:15Z</time><extensions><speed>1.426814</speed><course>298.232086</course><hAcc>0.881586</hAcc><vAcc>0.693166</vAcc></extensions></trkpt>
      <trkpt lon="-4.119941" lat="53.013515"><ele>124.709457</ele><time>2021-07-17T14:53:16Z</time><extensions><speed>1.430575</speed><course>289.358276</course><hAcc>0.881725</hAcc><vAcc>0.693602</vAcc></extensions></trkpt>
      <trkpt lon="-4.119930" lat="53.013504"><ele>124.650734</ele><time>2021-07-17T14:53:17Z</time><extensions><speed>1.433262</speed><course>285.924469</course><hAcc>0.881834</hAcc><vAcc>0.693912</vAcc></extensions></trkpt>
      <trkpt lon="-4.119919" lat="53.013493"><ele>124.588631</ele><time>2021-07-17T14:53:18Z</time><extensions><speed>1.434655</speed><course>280.520447</course><hAcc>0.881910</hAcc><vAcc>0.694108</vAcc></extensions></trkpt>
      <trkpt lon="-4.119908" lat="53.013482"><ele>124.523865</ele><time>2021-07-17T14:53:19Z</time><extensions><speed>1.434387</speed><course>286.862061</course><hAcc>0.881955</hAcc><vAcc>0.694207</vAcc></extensions></trkpt>
      <trkpt lon="-4.119898" lat="53.013471"><ele>124.457428</ele><time>2021-07-17T14:53:20Z</time><extensions><speed>1.432012</speed><course>295.700317</course><hAcc>0.881971</hAcc><vAcc>0.694226</vAcc></extensions></trkpt>
      <trkpt lon="-4.119887" lat="53.013460"><ele>124.390968</ele><time>2021-07-17T14:53:21Z</time><extensions><speed>1.427070</speed><course>296.161560</course><hAcc>0.881961</hAcc><vAcc>0.694179</vAcc></extensions></trkpt>
      <trkpt lon="-4.119877" lat="53.013449"><ele>124.326294</ele><time>2021-07-17T14:53:22Z</time><extensions><speed>1.419244</speed><course>298.229218</course><hAcc>0.881928</hAcc><vAcc>0.694066</vAcc></extensions></trkpt>
      <trkpt lon="-4.119867" lat="53.013438"><ele>124.264503</ele><time>2021-07-17T14:53:23Z</time><extensions><speed>1.408983</speed><course>297.545471</course><hAcc>0.881875</hAcc><vAcc>0.693883</vAcc></extensions></trkpt>
      <trkpt lon="-4.119857" lat="53.013426"><ele>124.206276</ele><time>2021-07-17T14:53:24Z</time><extensions><speed>1.397043</speed><course>292.454163</course><hAcc>0.881805</hAcc><vAcc>0.693633</vAcc></extensions></trkpt>
      <trkpt lon="-4.119848" lat="53.013415"><ele>124.152390</ele><time>2021-07-17T14:53:25Z</time><extensions><speed>1.384230</speed><course>287.195465</course><hAcc>0.881722</hAcc><vAcc>0.693331</vAcc></extensions></trkpt>
      <trkpt lon="-4.119840" lat="53.013404"><ele>124.103981</ele><time>2021-07-17T14:53:26Z</time><extensions><speed>1.370890</speed><course>283.339600</course><hAcc>0.881630</hAcc><vAcc>0.693000</vAcc></extensions></trkpt>
      <trkpt lon="-4.119832" lat="53.013393"><ele>124.061966</ele><time>2021-07-17T14:53:27Z</time><extensions><speed>1.356795</speed><course>283.687531</course><hAcc>0.881532</hAcc><vAcc>0.692661</vAcc></extensions></trkpt>
      <trkpt lon="-4.119824" lat="53.013381"><ele>124.026260</ele><time>2021-07-17T14:53:28Z</time><extensions><speed>1.341789</speed><course>284.089417</course><hAcc>0.881433</hAcc><vAcc>0.692333</vAcc></extensions></trkpt>
      <trkpt lon="-4.119818" lat="53.013370"><ele>123.996376</ele><time>2021-07-17T14:53:29Z</time><extensions><speed>1.326040</speed><course>286.432800</course><hAcc>0.881333</hAcc><vAcc>0.692023</vAcc></extensions></trkpt>
      <trkpt lon="-4.119811" lat="53.013359"><ele>123.972137</ele><time>2021-07-17T14:53:30Z</time><extensions><speed>1.309745</speed><course>288.844025</course><hAcc>0.881234</hAcc><vAcc>0.691731</vAcc></extensions></trkpt>
      <trkpt lon="-4.119806" lat="53.013348"><ele>123.953445</ele><time>2021-07-17T14:53:31Z</time><extensions><speed>1.292875</speed><course>294.600861</course><hAcc>0.881134</hAcc><vAcc>0.691451</vAcc></extensions></trkpt>
      <trkpt lon="-4.119801" lat="53.013336"><ele>123.939987</ele><time>2021-07-17T14:53:32Z</time><extensions><speed>1.275242</speed><course>289.399475</course><hAcc>0.881035</hAcc><vAcc>0.691172</vAcc></extensions></trkpt>
      <trkpt lon="-4.119797" lat="53.013325"><ele>123.931503</ele><time>2021-07-17T14:53:33Z</time><extensions><speed>1.256842</speed><course>292.462738</course><hAcc>0.880934</hAcc><vAcc>0.690880</vAcc></extensions></trkpt>
      <trkpt lon="-4.119793" lat="53.013314"><ele>123.927689</ele><time>2021-07-17T14:53:34Z</time><extensions><speed>1.238017</speed><course>292.044128</course><hAcc>0.880833</hAcc><vAcc>0.690564</vAcc></extensions></trkpt>
      <trkpt lon="-4.119789" lat="53.013304"><ele>123.928162</ele><time>2021-07-17T14:53:35Z</time><extensions><speed>1.219451</speed><course>289.426849</course><hAcc>0.880733</hAcc><vAcc>0.690220</vAcc></extensions></trkpt>
      <trkpt lon="-4.119786" lat="53.013293"><ele>123.933151</ele><time>2021-07-17T14:53:36Z</time><extensions><speed>1.201798</speed><course>292.821838</course><hAcc>0.880637</hAcc><vAcc>0.689864</vAcc></extensions></trkpt>
      <trkpt lon="-4.119783" lat="53.013282"><ele>123.943504</ele><time>2021-07-17T14:53:37Z</time><extensions><speed>1.185438</speed><course>287.405121</course><hAcc>0.880552</hAcc><vAcc>0.689522</vAcc></extensions></trkpt>
      <trkpt lon="-4.119781" lat="53.013272"><ele>123.960037</ele><time>2021-07-17T14:53:38Z</time><extensions><speed>1.170866</speed><course>289.328461</course><hAcc>0.880484</hAcc><vAcc>0.689234</vAcc></extensions></trkpt>
      <trkpt lon="-4.119779" lat="53.013261"><ele>123.983406</ele><time>2021-07-17T14:53:39Z</time><extensions><speed>1.158448</speed><course>290.686554</course><hAcc>0.880438</hAcc><vAcc>0.689034</vAcc></extensions></trkpt>
      <trkpt lon="-4.119777" lat="53.013251"><ele>124.013893</ele><time>2021-07-17T14:53:40Z</time><extensions><speed>1.148500</speed><course>291.519623</course><hAcc>0.880418</hAcc><vAcc>0.688946</vAcc></extensions></trkpt>
      <trkpt lon="-4.119775" lat="53.013241"><ele>124.051247</ele><time>2021-07-17T14:53:41Z</time><extensions><speed>1.141283</speed><course>289.260345</course><hAcc>0.880427</hAcc><vAcc>0.688981</vAcc></extensions></trkpt>
      <trkpt lon="-4.119773" lat="53.013231"><ele>124.095337</ele><time>2021-07-17T14:53:42Z</time><extensions><speed>1.136892</speed><course>291.671295</course><hAcc>0.880461</hAcc><vAcc>0.689130</vAcc></extensions></trkpt>
      <trkpt lon="-4.119771" lat="53.013221"><ele>124.146179</ele><time>2021-07-17T14:53:43Z</time><extensions><speed>1.135599</speed><course>285.797272</course><hAcc>0.880517</hAcc><vAcc>0.689374</vAcc></extensions></trkpt>
      <trkpt lon="-4.119769" lat="53.013210"><ele>124.203262</ele><time>2021-07-17T14:53:44Z</time><extensions><speed>1.137639</speed><course>284.045776</course><hAcc>0.880588</hAcc><vAcc>0.689680</vAcc></extensions></trkpt>
      <trkpt lon="-4.119766" lat="53.013200"><ele>124.265587</ele><time>2021-07-17T14:53:45Z</time><extensions><speed>1.143093</speed><course>290.744446</course><hAcc>0.880667</hAcc><vAcc>0.690008</vAcc></extensions></trkpt>
      <trkpt lon="-4.119764" lat="53.013190"><ele>124.331795</ele><time>2021-07-17T14:53:46Z</time><extensions><speed>1.152073</speed><course>286.155334</course><hAcc>0.880745</hAcc><vAcc>0.690321</vAcc></extensions></trkpt>
      <trkpt lon="-4.119762" lat="53.013180"><ele>124.400322</ele><time>2021-07-17T14:53:47Z</time><extensions><speed>1.164215</speed><course>292.078705</course><hAcc>0.880816</hAcc><vAcc>0.690589</vAcc></extensions></trkpt>
      <trkpt lon="-4.119759" lat="53.013169"><ele>124.469879</ele><time>2021-07-17T14:53:48Z</time><extensions><speed>1.178792</speed><course>292.906311</course><hAcc>0.880875</hAcc><vAcc>0.690793</vAcc></extensions></trkpt>
      <trkpt lon="-4.119756" lat="53.013159"><ele>124.539520</ele><time>2021-07-17T14:53:49Z</time><extensions><speed>1.195333</speed><course>291.462067</course><hAcc>0.880918</hAcc><vAcc>0.690927</vAcc></extensions></trkpt>
      <trkpt lon="-4.119753" lat="53.013148"><ele>124.608543</ele><time>2021-07-17T14:53:50Z</time><extensions><speed>1.213543</speed><course>290.448425</course><hAcc>0.880948</hAcc><vAcc>0.690993</vAcc></extensions></trkpt>
      <trkpt lon="-4.119750" lat="53.013137"><ele>124.676567</ele><time>2021-07-17T14:53:51Z</time><extensions><speed>1.233168</speed><course>295.857269</course><hAcc>0.880964</hAcc><vAcc>0.691003</vAcc></extensions></trkpt>
      <trkpt lon="-4.119747" lat="53.013126"><ele>124.743423</ele><time>2021-07-17T14:53:52Z</time><extensions><speed>1.254130</speed><course>298.185364</course><hAcc>0.880971</hAcc><vAcc>0.690971</vAcc></extensions></trkpt>
      <trkpt lon="-4.119744" lat="53.013115"><ele>124.809059</ele><time>2021-07-17T14:53:53Z</time><extensions><speed>1.276290</speed><course>294.469940</course><hAcc>0.880974</hAcc><vAcc>0.690918</vAcc></extensions></trkpt>
      <trkpt lon="-4.119741" lat="53.013104"><ele>124.873573</ele><time>2021-07-17T14:53:54Z</time><extensions><speed>1.299149</speed><course>292.898438</course><hAcc>0.880979</hAcc><vAcc>0.690867</vAcc></extensions></trkpt>
      <trkpt lon="-4.119738" lat="53.013092"><ele>124.936668</ele><time>2021-07-17T14:53:55Z</time><extensions><speed>1.322028</speed><course>292.422791</course><hAcc>0.880993</hAcc><vAcc>0.690851</vAcc></extensions></trkpt>
      <trkpt lon="-4.119735" lat="53.013080"><ele>124.997742</ele><time>2021-07-17T14:53:56Z</time><extensions><speed>1.343953</speed><course>292.622986</course><hAcc>0.881022</hAcc><vAcc>0.690899</vAcc></extensions></trkpt>
      <trkpt lon="-4.119733" lat="53.013068"><ele>125.056358</ele><time>2021-07-17T14:53:57Z</time><extensions><speed>1.363784</speed><course>292.749084</course><hAcc>0.881072</hAcc><vAcc>0.691030</vAcc></extensions></trkpt>
      <trkpt lon="-4.119730" lat="53.013056"><ele>125.112099</ele><time>2021-07-17T14:53:58Z</time><extensions><speed>1.380982</speed><course>294.832458</course><hAcc>0.881144</hAcc><vAcc>0.691254</vAcc></extensions></trkpt>
      <trkpt lon="-4.119728" lat="53.013043"><ele>125.164078</ele><time>2021-07-17T14:53:59Z</time><extensions><speed>1.395526</speed><course>290.563019</course><hAcc>0.881240</hAcc><vAcc>0.691573</vAcc></extensions></trkpt>
      <trkpt lon="-4.119726" lat="53.013031"><ele>125.211380</ele><time>2021-07-17T14:54:00Z</time><extensions><speed>1.407407</speed><course>288.082062</course><hAcc>0.881358</hAcc><vAcc>0.691980</vAcc></extensions></trkpt>
      <trkpt lon="-4.119725" lat="53.013018"><ele>125.253624</ele><time>2021-07-17T14:54:01Z</time><extensions><speed>1.416433</speed><course>289.238037</course><hAcc>0.881496</hAcc><vAcc>0.692461</vAcc></extensions></trkpt>
      <trkpt lon="-4.119723" lat="53.013006"><ele>125.290611</ele><time>2021-07-17T14:54:02Z</time><extensions><speed>1.422679</speed><course>289.037109</course><hAcc>0.881650</hAcc><vAcc>0.693000</vAcc></extensions></trkpt>
      <trkpt lon="-4.119722" lat="53.012993"><ele>125.321770</ele><time>2021-07-17T14:54:03Z</time><extensions><speed>1.426614</speed><course>291.884949</course><hAcc>0.881815</hAcc><vAcc>0.693572</vAcc></extensions></trkpt>
      <trkpt lon="-4.119721" lat="53.012980"><ele>125.346336</ele><time>2021-07-17T14:54:04Z</time><extensions><speed>1.428441</speed><course>287.567657</course><hAcc>0.881984</hAcc><vAcc>0.694156</vAcc></extensions></trkpt>
      <trkpt lon="-4.119720" lat="53.012967"><ele>125.363876</ele><time>2021-07-17T14:54:05Z</time><extensions><speed>1.428019</speed><course>291.768890</course><hAcc>0.882152</hAcc><vAcc>0.694732</vAcc></extensions></trkpt>
      <trkpt lon="-4.119720" lat="53.012954"><ele>125.374123</ele><time>2021-07-17T14:54:06Z</time><extensions><speed>1.425536</speed><course>296.126740</course><hAcc>0.882314</hAcc><vAcc>0.695284</vAcc></extensions></trkpt>
      <trkpt lon="-4.119719" lat="53.012941"><ele>125.376816</ele><time>2021-07-17T14:54:07Z</time><extensions><speed>1.421052</speed><course>297.059143</course><hAcc>0.882466</hAcc><vAcc>0.695802</vAcc></extensions></trkpt>
      <trkpt lon="-4.119719" lat="53.012929"><ele>125.372375</ele><time>2021-07-17T14:54:08Z</time><extensions><speed>1.414253</speed><course>303.696320</course><hAcc>0.882603</hAcc><vAcc>0.696275</vAcc></extensions></trkpt>
      <trkpt lon="-4.119719" lat="53.012916"><ele>125.361809</ele><time>2021-07-17T14:54:09Z</time><extensions><speed>1.405550</speed><course>307.460022</course><hAcc>0.882721</hAcc><vAcc>0.696689</vAcc></extensions></trkpt>
      <trkpt lon="-4.119719" lat="53.012904"><ele>125.345932</ele><time>2021-07-17T14:54:10Z</time><extensions><speed>1.395574</speed><course>302.094666</course><hAcc>0.882819</hAcc><vAcc>0.697029</vAcc></extensions></trkpt>
      <trkpt lon="-4.119719" lat="53.012891"><ele>125.325592</ele><time>2021-07-17T14:54:10Z</time><extensions><speed>1.384652</speed><course>294.763123</course><hAcc>0.882911</hAcc><vAcc>0.697303</vAcc></extensions></trkpt>
      <trkpt lon="-4.119719" lat="53.012879"><ele>125.301971</ele><time>2021-07-17T14:54:11Z</time><extensions><speed>1.373115</speed><course>292.310913</course><hAcc>0.882998</hAcc><vAcc>0.697514</vAcc></extensions></trkpt>
      <trkpt lon="-4.119719" lat="53.012866"><ele>125.276230</ele><time>2021-07-17T14:54:12Z</time><extensions><speed>1.361810</speed><course>286.252472</course><hAcc>0.883063</hAcc><vAcc>0.697654</vAcc></extensions></trkpt>
      <trkpt lon="-4.119719" lat="53.012854"><ele>125.248650</ele><time>2021-07-17T14:54:13Z</time><extensions><speed>1.351586</speed><course>277.085999</course><hAcc>0.883107</hAcc><vAcc>0.697728</vAcc></extensions></trkpt>
      <trkpt lon="-4.119718" lat="53.012842"><ele>125.219276</ele><time>2021-07-17T14:54:15Z</time><extensions><speed>1.342794</speed><course>269.880463</course><hAcc>0.883113</hAcc><vAcc>0.697731</vAcc></extensions></trkpt>
      <trkpt lon="-4.119718" lat="53.012830"><ele>125.188454</ele><time>2021-07-17T14:54:16Z</time><extensions><speed>1.335499</speed><course>256.014618</course><hAcc>0.883080</hAcc><vAcc>0.697675</vAcc></extensions></trkpt>
      <trkpt lon="-4.119717" lat="53.012818"><ele>125.156189</ele><time>2021-07-17T14:54:16Z</time><extensions><speed>1.329330</speed><course>250.524368</course><hAcc>0.883044</hAcc><vAcc>0.697591</vAcc></extensions></trkpt>
      <trkpt lon="-4.119716" lat="53.012806"><ele>125.122513</ele><time>2021-07-17T14:54:17Z</time><extensions><speed>1.323659</speed><course>237.491638</course><hAcc>0.883002</hAcc><vAcc>0.697477</vAcc></extensions></trkpt>
      <trkpt lon="-4.119715" lat="53.012794"><ele>125.088104</ele><time>2021-07-17T14:54:18Z</time><extensions><speed>1.317914</speed><course>231.976761</course><hAcc>0.882933</hAcc><vAcc>0.697300</vAcc></extensions></trkpt>
      <trkpt lon="-4.119713" lat="53.012783"><ele>125.053505</ele><time>2021-07-17T14:54:19Z</time><extensions><speed>1.311986</speed><course>228.504318</course><hAcc>0.882837</hAcc><vAcc>0.697032</vAcc></extensions></trkpt>
      <trkpt lon="-4.119712" lat="53.012771"><ele>125.018425</ele><time>2021-07-17T14:54:20Z</time><extensions><speed>1.306280</speed><course>227.577087</course><hAcc>0.882710</hAcc><vAcc>0.696646</vAcc></extensions></trkpt>
      <trkpt lon="-4.119710" lat="53.012759"><ele>124.982285</ele><time>2021-07-17T14:54:21Z</time><extensions><speed>1.300937</speed><course>219.513672</course><hAcc>0.882554</hAcc><vAcc>0.696128</vAcc></extensions></trkpt>
      <trkpt lon="-4.119708" lat="53.012748"><ele>124.944801</ele><time>2021-07-17T14:54:23Z</time><extensions><speed>1.295830</speed><course>224.903015</course><hAcc>0.882351</hAcc><vAcc>0.695466</vAcc></extensions></trkpt>
      <trkpt lon="-4.119705" lat="53.012736"><ele>124.905853</ele><time>2021-07-17T14:54:24Z</time><extensions><speed>1.290791</speed><course>222.390198</course><hAcc>0.882104</hAcc><vAcc>0.694678</vAcc></extensions></trkpt>
      <trkpt lon="-4.119703" lat="53.012725"><ele>124.865166</ele><time>2021-07-17T14:54:25Z</time><extensions><speed>1.285561</speed><course>223.313202</course><hAcc>0.881839</hAcc><vAcc>0.693798</vAcc></extensions></trkpt>
      <trkpt lon="-4.119700" lat="53.012713"><ele>124.822487</ele><time>2021-07-17T14:54:26Z</time><extensions><speed>1.279846</speed><course>224.045700</course><hAcc>0.881560</hAcc><vAcc>0.692855</vAcc></extensions></trkpt>
      <trkpt lon="-4.119698" lat="53.012702"><ele>124.777718</ele><time>2021-07-17T14:54:27Z</time><extensions><speed>1.273612</speed><course>224.975723</course><hAcc>0.881277</hAcc><vAcc>0.691882</vAcc></extensions></trkpt>
      <trkpt lon="-4.119695" lat="53.012690"><ele>124.730865</ele><time>2021-07-17T14:54:28Z</time><extensions><speed>1.267165</speed><course>226.513992</course><hAcc>0.880998</hAcc><vAcc>0.690918</vAcc></extensions></trkpt>
      <trkpt lon="-4.119692" lat="53.012679"><ele>124.681618</ele><time>2021-07-17T14:54:29Z</time><extensions><speed>1.260914</speed><course>227.291473</course><hAcc>0.880734</hAcc><vAcc>0.690005</vAcc></extensions></trkpt>
      <trkpt lon="-4.119689" lat="53.012668"><ele>124.629181</ele><time>2021-07-17T14:54:30Z</time><extensions><speed>1.255565</speed><course>231.833313</course><hAcc>0.880494</hAcc><vAcc>0.689183</vAcc></extensions></trkpt>
      <trkpt lon="-4.119686" lat="53.012657"><ele>124.572891</ele><time>2021-07-17T14:54:31Z</time><extensions><speed>1.251681</speed><course>230.421005</course><hAcc>0.880285</hAcc><vAcc>0.688489</vAcc></extensions></trkpt>
      <trkpt lon="-4.119684" lat="53.012646"><ele>124.512718</ele><time>2021-07-17T14:54:32Z</time><extensions><speed>1.249514</speed><course>235.980087</course><hAcc>0.880112</hAcc><vAcc>0.687944</vAcc></extensions></trkpt>
      <trkpt lon="-4.119681" lat="53.012635"><ele>124.449020</ele><time>2021-07-17T14:54:33Z</time><extensions><speed>1.249199</speed><course>243.213364</course><hAcc>0.879976</hAcc><vAcc>0.687553</vAcc></extensions></trkpt>
      <trkpt lon="-4.119678" lat="53.012624"><ele>124.382294</ele><time>2021-07-17T14:54:34Z</time><extensions><speed>1.250595</speed><course>253.165268</course><hAcc>0.879874</hAcc><vAcc>0.687296</vAcc></extensions></trkpt>
      <trkpt lon="-4.119675" lat="53.012612"><ele>124.313309</ele><time>2021-07-17T14:54:35Z</time><extensions><speed>1.253443</speed><course>266.505096</course><hAcc>0.879800</hAcc><vAcc>0.687140</vAcc></extensions></trkpt>
      <trkpt lon="-4.119672" lat="53.012601"><ele>124.242867</ele><time>2021-07-17T14:54:36Z</time><extensions><speed>1.257639</speed><course>267.255646</course><hAcc>0.879749</hAcc><vAcc>0.687045</vAcc></extensions></trkpt>
      <trkpt lon="-4.119670" lat="53.012590"><ele>124.171356</ele><time>2021-07-17T14:54:37Z</time><extensions><speed>1.263049</speed><course>271.176971</course><hAcc>0.879714</hAcc><vAcc>0.686977</vAcc></extensions></trkpt>
      <trkpt lon="-4.119667" lat="53.012579"><ele>124.099052</ele><time>2021-07-17T14:54:38Z</time><extensions><speed>1.269129</speed><course>283.145996</course><hAcc>0.879691</hAcc><vAcc>0.686916</vAcc></extensions></trkpt>
      <trkpt lon="-4.119664" lat="53.012568"><ele>124.026672</ele><time>2021-07-17T14:54:39Z</time><extensions><speed>1.275011</speed><course>291.499756</course><hAcc>0.879677</hAcc><vAcc>0.686857</vAcc></extensions></trkpt>
      <trkpt lon="-4.119662" lat="53.012556"><ele>123.955116</ele><time>2021-07-17T14:54:40Z</time><extensions><speed>1.280329</speed><course>295.960785</course><hAcc>0.879672</hAcc><vAcc>0.686808</vAcc></extensions></trkpt>
      <trkpt lon="-4.119659" lat="53.012545"><ele>123.884949</ele><time>2021-07-17T14:54:41Z</time><extensions><speed>1.284852</speed><course>298.309418</course><hAcc>0.879678</hAcc><vAcc>0.686788</vAcc></extensions></trkpt>
      <trkpt lon="-4.119657" lat="53.012533"><ele>123.816452</ele><time>2021-07-17T14:54:42Z</time><extensions><speed>1.287990</speed><course>301.442566</course><hAcc>0.879696</hAcc><vAcc>0.686814</vAcc></extensions></trkpt>
      <trkpt lon="-4.119655" lat="53.012522"><ele>123.749794</ele><time>2021-07-17T14:54:43Z</time><extensions><speed>1.289315</speed><course>301.820831</course><hAcc>0.879728</hAcc><vAcc>0.686900</vAcc></extensions></trkpt>
      <trkpt lon="-4.119653" lat="53.012510"><ele>123.685036</ele><time>2021-07-17T14:54:44Z</time><extensions><speed>1.288792</speed><course>306.533081</course><hAcc>0.879775</hAcc><vAcc>0.687048</vAcc></extensions></trkpt>
      <trkpt lon="-4.119651" lat="53.012499"><ele>123.621971</ele><time>2021-07-17T14:54:45Z</time><extensions><speed>1.286785</speed><course>310.759277</course><hAcc>0.879835</hAcc><vAcc>0.687253</vAcc></extensions></trkpt>
      <trkpt lon="-4.119650" lat="53.012487"><ele>123.560013</ele><time>2021-07-17T14:54:46Z</time><extensions><speed>1.284038</speed><course>315.721252</course><hAcc>0.879905</hAcc><vAcc>0.687503</vAcc></extensions></trkpt>
      <trkpt lon="-4.119649" lat="53.012476"><ele>123.498650</ele><time>2021-07-17T14:54:47Z</time><extensions><speed>1.281469</speed><course>321.376434</course><hAcc>0.879984</hAcc><vAcc>0.687784</vAcc></extensions></trkpt>
      <trkpt lon="-4.119647" lat="53.012464"><ele>123.437508</ele><time>2021-07-17T14:54:48Z</time><extensions><speed>1.279925</speed><course>321.893402</course><hAcc>0.880069</hAcc><vAcc>0.688082</vAcc></extensions></trkpt>
      <trkpt lon="-4.119646" lat="53.012453"><ele>123.375938</ele><time>2021-07-17T14:54:49Z</time><extensions><speed>1.280240</speed><course>325.867676</course><hAcc>0.880156</hAcc><vAcc>0.688380</vAcc></extensions></trkpt>
      <trkpt lon="-4.119645" lat="53.012441"><ele>123.313240</ele><time>2021-07-17T14:54:50Z</time><extensions><speed>1.282837</speed><course>319.975250</course><hAcc>0.880242</hAcc><vAcc>0.688669</vAcc></extensions></trkpt>
      <trkpt lon="-4.119645" lat="53.012430"><ele>123.248901</ele><time>2021-07-17T14:54:51Z</time><extensions><speed>1.287052</speed><course>320.826599</course><hAcc>0.880327</hAcc><vAcc>0.688943</vAcc></extensions></trkpt>
      <trkpt lon="-4.119644" lat="53.012418"><ele>123.182480</ele><time>2021-07-17T14:54:52Z</time><extensions><speed>1.291612</speed><course>320.826599</course><hAcc>0.880409</hAcc><vAcc>0.689198</vAcc></extensions></trkpt>
      <trkpt lon="-4.119643" lat="53.012406"><ele>123.113220</ele><time>2021-07-17T14:54:53Z</time><extensions><speed>1.296163</speed><course>320.826599</course><hAcc>0.880488</hAcc><vAcc>0.689435</vAcc></extensions></trkpt>
      <trkpt lon="-4.119643" lat="53.012395"><ele>123.039703</ele><time>2021-07-17T14:54:54Z</time><extensions><speed>1.300927</speed><course>320.826599</course><hAcc>0.880564</hAcc><vAcc>0.689656</vAcc></extensions></trkpt>
      <trkpt lon="-4.119642" lat="53.012383"><ele>122.960678</ele><time>2021-07-17T14:54:55Z</time><extensions><speed>1.305589</speed><course>320.826599</course><hAcc>0.880639</hAcc><vAcc>0.689866</vAcc></extensions></trkpt>
      <trkpt lon="-4.119642" lat="53.012371"><ele>122.875732</ele><time>2021-07-17T14:54:56Z</time><extensions><speed>1.309699</speed><course>320.826599</course><hAcc>0.880713</hAcc><vAcc>0.690073</vAcc></extensions></trkpt>
      <trkpt lon="-4.119641" lat="53.012360"><ele>122.784737</ele><time>2021-07-17T14:54:57Z</time><extensions><speed>1.313090</speed><course>320.826599</course><hAcc>0.880789</hAcc><vAcc>0.690288</vAcc></extensions></trkpt>
      <trkpt lon="-4.119641" lat="53.012348"><ele>122.687622</ele><time>2021-07-17T14:54:58Z</time><extensions><speed>1.315712</speed><course>320.826599</course><hAcc>0.880868</hAcc><vAcc>0.690525</vAcc></extensions></trkpt>
      <trkpt lon="-4.119640" lat="53.012336"><ele>122.584549</ele><time>2021-07-17T14:54:59Z</time><extensions><speed>1.317564</speed><course>320.826599</course><hAcc>0.880950</hAcc><vAcc>0.690792</vAcc></extensions></trkpt>
      <trkpt lon="-4.119639" lat="53.012324"><ele>122.476128</ele><time>2021-07-17T14:55:00Z</time><extensions><speed>1.318753</speed><course>320.826599</course><hAcc>0.881034</hAcc><vAcc>0.691087</vAcc></extensions></trkpt>
      <trkpt lon="-4.119639" lat="53.012312"><ele>122.363235</ele><time>2021-07-17T14:55:01Z</time><extensions><speed>1.319412</speed><course>320.826599</course><hAcc>0.881117</hAcc><vAcc>0.691397</vAcc></extensions></trkpt>
      <trkpt lon="-4.119638" lat="53.012300"><ele>122.247025</ele><time>2021-07-17T14:55:02Z</time><extensions><speed>1.319441</speed><course>320.826599</course><hAcc>0.881194</hAcc><vAcc>0.691703</vAcc></extensions></trkpt>
      <trkpt lon="-4.119636" lat="53.012289"><ele>122.129356</ele><time>2021-07-17T14:55:03Z</time><extensions><speed>1.318404</speed><course>320.826599</course><hAcc>0.881261</hAcc><vAcc>0.691981</vAcc></extensions></trkpt>
      <trkpt lon="-4.119635" lat="53.012277"><ele>122.012398</ele><time>2021-07-17T14:55:04Z</time><extensions><speed>1.316373</speed><course>320.826599</course><hAcc>0.881314</hAcc><vAcc>0.692198</vAcc></extensions></trkpt>
      <trkpt lon="-4.119633" lat="53.012265"><ele>121.897835</ele><time>2021-07-17T14:55:05Z</time><extensions><speed>1.314170</speed><course>320.826599</course><hAcc>0.881348</hAcc><vAcc>0.692329</vAcc></extensions></trkpt>
      <trkpt lon="-4.119631" lat="53.012253"><ele>121.787117</ele><time>2021-07-17T14:55:06Z</time><extensions><speed>1.312677</speed><course>320.826599</course><hAcc>0.881362</hAcc><vAcc>0.692363</vAcc></extensions></trkpt>
      <trkpt lon="-4.119630" lat="53.012242"><ele>121.681969</ele><time>2021-07-17T14:55:07Z</time><extensions><speed>1.312450</speed><course>320.826599</course><hAcc>0.881355</hAcc><vAcc>0.692309</vAcc></extensions></trkpt>
      <trkpt lon="-4.119627" lat="53.012230"><ele>121.584137</ele><time>2021-07-17T14:55:08Z</time><extensions><speed>1.313615</speed><course>320.826599</course><hAcc>0.881330</hAcc><vAcc>0.692185</vAcc></extensions></trkpt>
      <trkpt lon="-4.119625" lat="53.012218"><ele>121.494629</ele><time>2021-07-17T14:55:09Z</time><extensions><speed>1.316151</speed><course>320.826599</course><hAcc>0.881290</hAcc><vAcc>0.692008</vAcc></extensions></trkpt>
      <trkpt lon="-4.119623" lat="53.012206"><ele>121.413223</ele><time>2021-07-17T14:55:10Z</time><extensions><speed>1.320143</speed><course>320.826599</course><hAcc>0.881239</hAcc><vAcc>0.691799</vAcc></extensions></trkpt>
      <trkpt lon="-4.119620" lat="53.012195"><ele>121.339371</ele><time>2021-07-17T14:55:11Z</time><extensions><speed>1.325661</speed><course>320.826599</course><hAcc>0.881181</hAcc><vAcc>0.691573</vAcc></extensions></trkpt>
      <trkpt lon="-4.119617" lat="53.012183"><ele>121.273056</ele><time>2021-07-17T14:55:12Z</time><extensions><speed>1.332281</speed><course>320.826569</course><hAcc>0.881122</hAcc><vAcc>0.691345</vAcc></extensions></trkpt>
      <trkpt lon="-4.119614" lat="53.012171"><ele>121.214378</ele><time>2021-07-17T14:55:13Z</time><extensions><speed>1.339564</speed><course>320.826569</course><hAcc>0.881066</hAcc><vAcc>0.691129</vAcc></extensions></trkpt>
      <trkpt lon="-4.119612" lat="53.012159"><ele>121.162834</ele><time>2021-07-17T14:55:14Z</time><extensions><speed>1.347335</speed><course>320.826569</course><hAcc>0.881016</hAcc><vAcc>0.690944</vAcc></extensions></trkpt>
      <trkpt lon="-4.119609" lat="53.012147"><ele>121.117462</ele><time>2021-07-17T14:55:15Z</time><extensions><speed>1.355299</speed><course>320.826569</course><hAcc>0.880975</hAcc><vAcc>0.690804</vAcc></extensions></trkpt>
      <trkpt lon="-4.119606" lat="53.012135"><ele>121.077408</ele><time>2021-07-17T14:55:16Z</time><extensions><speed>1.363065</speed><course>306.179871</course><hAcc>0.880946</hAcc><vAcc>0.690717</vAcc></extensions></trkpt>
      <trkpt lon="-4.119603" lat="53.012123"><ele>121.042282</ele><time>2021-07-17T14:55:17Z</time><extensions><speed>1.370136</speed><course>252.340622</course><hAcc>0.880928</hAcc><vAcc>0.690684</vAcc></extensions></trkpt>
      <trkpt lon="-4.119600" lat="53.012110"><ele>121.011940</ele><time>2021-07-17T14:55:18Z</time><extensions><speed>1.376084</speed><course>240.417450</course><hAcc>0.880920</hAcc><vAcc>0.690696</vAcc></extensions></trkpt>
      <trkpt lon="-4.119597" lat="53.012098"><ele>120.985741</ele><time>2021-07-17T14:55:19Z</time><extensions><speed>1.380850</speed><course>226.735764</course><hAcc>0.880917</hAcc><vAcc>0.690732</vAcc></extensions></trkpt>
      <trkpt lon="-4.119595" lat="53.012086"><ele>120.962082</ele><time>2021-07-17T14:55:20Z</time><extensions><speed>1.384848</speed><course>213.254318</course><hAcc>0.880917</hAcc><vAcc>0.690770</vAcc></extensions></trkpt>
      <trkpt lon="-4.119592" lat="53.012073"><ele>120.938591</ele><time>2021-07-17T14:55:21Z</time><extensions><speed>1.388832</speed><course>209.983795</course><hAcc>0.880917</hAcc><vAcc>0.690793</vAcc></extensions></trkpt>
      <trkpt lon="-4.119589" lat="53.012061"><ele>120.913071</ele><time>2021-07-17T14:55:22Z</time><extensions><speed>1.393330</speed><course>212.464371</course><hAcc>0.880913</hAcc><vAcc>0.690795</vAcc></extensions></trkpt>
      <trkpt lon="-4.119586" lat="53.012049"><ele>120.884254</ele><time>2021-07-17T14:55:23Z</time><extensions><speed>1.398302</speed><course>212.464355</course><hAcc>0.880904</hAcc><vAcc>0.690770</vAcc></extensions></trkpt>
      <trkpt lon="-4.119583" lat="53.012036"><ele>120.851257</ele><time>2021-07-17T14:55:24Z</time><extensions><speed>1.403736</speed><course>212.464355</course><hAcc>0.880892</hAcc><vAcc>0.690722</vAcc></extensions></trkpt>
      <trkpt lon="-4.119580" lat="53.012024"><ele>120.812790</ele><time>2021-07-17T14:55:25Z</time><extensions><speed>1.409792</speed><course>212.464340</course><hAcc>0.880875</hAcc><vAcc>0.690654</vAcc></extensions></trkpt>
      <trkpt lon="-4.119576" lat="53.012011"><ele>120.767517</ele><time>2021-07-17T14:55:26Z</time><extensions><speed>1.416474</speed><course>212.464325</course><hAcc>0.880858</hAcc><vAcc>0.690572</vAcc></extensions></trkpt>
      <trkpt lon="-4.119573" lat="53.011999"><ele>120.714790</ele><time>2021-07-17T14:55:27Z</time><extensions><speed>1.423827</speed><course>212.464325</course><hAcc>0.880843</hAcc><vAcc>0.690488</vAcc></extensions></trkpt>
      <trkpt lon="-4.119570" lat="53.011986"><ele>120.654556</ele><time>2021-07-17T14:55:28Z</time><extensions><speed>1.431602</speed><course>212.464325</course><hAcc>0.880833</hAcc><vAcc>0.690415</vAcc></extensions></trkpt>
      <trkpt lon="-4.119566" lat="53.011973"><ele>120.587128</ele><time>2021-07-17T14:55:29Z</time><extensions><speed>1.439316</speed><course>212.464310</course><hAcc>0.880834</hAcc><vAcc>0.690371</vAcc></extensions></trkpt>
      <trkpt lon="-4.119563" lat="53.011960"><ele>120.512558</ele><time>2021-07-17T14:55:30Z</time><extensions><speed>1.446769</speed><course>305.064514</course><hAcc>0.880851</hAcc><vAcc>0.690376</vAcc></extensions></trkpt>
      <trkpt lon="-4.119559" lat="53.011948"><ele>120.430069</ele><time>2021-07-17T14:55:31Z</time><extensions><speed>1.453907</speed><course>295.507660</course><hAcc>0.880888</hAcc><vAcc>0.690455</vAcc></extensions></trkpt>
      <trkpt lon="-4.119556" lat="53.011935"><ele>120.338562</ele><time>2021-07-17T14:55:32Z</time><extensions><speed>1.460323</speed><course>292.618195</course><hAcc>0.880949</hAcc><vAcc>0.690630</vAcc></extensions></trkpt>
      <trkpt lon="-4.119552" lat="53.011922"><ele>120.237419</ele><time>2021-07-17T14:55:33Z</time><extensions><speed>1.465292</speed><course>285.374146</course><hAcc>0.881036</hAcc><vAcc>0.690913</vAcc></extensions></trkpt>
      <trkpt lon="-4.119549" lat="53.011909"><ele>120.126884</ele><time>2021-07-17T14:55:34Z</time><extensions><speed>1.468284</speed><course>282.990997</course><hAcc>0.881149</hAcc><vAcc>0.691305</vAcc></extensions></trkpt>
      <trkpt lon="-4.119545" lat="53.011896"><ele>120.007973</ele><time>2021-07-17T14:55:35Z</time><extensions><speed>1.469280</speed><course>269.408752</course><hAcc>0.881283</hAcc><vAcc>0.691788</vAcc></extensions></trkpt>
      <trkpt lon="-4.119542" lat="53.011883"><ele>119.881523</ele><time>2021-07-17T14:55:36Z</time><extensions><speed>1.468824</speed><course>268.581787</course><hAcc>0.881436</hAcc><vAcc>0.692332</vAcc></extensions></trkpt>
      <trkpt lon="-4.119538" lat="53.011870"><ele>119.747581</ele><time>2021-07-17T14:55:37Z</time><extensions><speed>1.467688</speed><course>262.171875</course><hAcc>0.881599</hAcc><vAcc>0.692902</vAcc></extensions></trkpt>
      <trkpt lon="-4.119535" lat="53.011857"><ele>119.605904</ele><time>2021-07-17T14:55:38Z</time><extensions><speed>1.466518</speed><course>261.539520</course><hAcc>0.881768</hAcc><vAcc>0.693472</vAcc></extensions></trkpt>
      <trkpt lon="-4.119531" lat="53.011844"><ele>119.456467</ele><time>2021-07-17T14:55:39Z</time><extensions><speed>1.465517</speed><course>255.803879</course><hAcc>0.881937</hAcc><vAcc>0.694028</vAcc></extensions></trkpt>
      <trkpt lon="-4.119527" lat="53.011831"><ele>119.299667</ele><time>2021-07-17T14:55:40Z</time><extensions><speed>1.464666</speed><course>247.733398</course><hAcc>0.882102</hAcc><vAcc>0.694560</vAcc></extensions></trkpt>
      <trkpt lon="-4.119522" lat="53.011818"><ele>119.135910</ele><time>2021-07-17T14:55:41Z</time><extensions><speed>1.464281</speed><course>231.932861</course><hAcc>0.882259</hAcc><vAcc>0.695061</vAcc></extensions></trkpt>
      <trkpt lon="-4.119517" lat="53.011805"><ele>118.964989</ele><time>2021-07-17T14:55:42Z</time><extensions><speed>1.465086</speed><course>232.043365</course><hAcc>0.882405</hAcc><vAcc>0.695521</vAcc></extensions></trkpt>
      <trkpt lon="-4.119512" lat="53.011792"><ele>118.786499</ele><time>2021-07-17T14:55:43Z</time><extensions><speed>1.467770</speed><course>225.182800</course><hAcc>0.882538</hAcc><vAcc>0.695937</vAcc></extensions></trkpt>
      <trkpt lon="-4.119506" lat="53.011779"><ele>118.600731</ele><time>2021-07-17T14:55:44Z</time><extensions><speed>1.472628</speed><course>222.937302</course><hAcc>0.882656</hAcc><vAcc>0.696311</vAcc></extensions></trkpt>
      <trkpt lon="-4.119499" lat="53.011767"><ele>118.409012</ele><time>2021-07-17T14:55:45Z</time><extensions><speed>1.479552</speed><course>226.615036</course><hAcc>0.882757</hAcc><vAcc>0.696642</vAcc></extensions></trkpt>
      <trkpt lon="-4.119492" lat="53.011754"><ele>118.213554</ele><time>2021-07-17T14:55:46Z</time><extensions><speed>1.488060</speed><course>227.377960</course><hAcc>0.882841</hAcc><vAcc>0.696926</vAcc></extensions></trkpt>
      <trkpt lon="-4.119484" lat="53.011742"><ele>118.016396</ele><time>2021-07-17T14:55:47Z</time><extensions><speed>1.497192</speed><course>225.027542</course><hAcc>0.882904</hAcc><vAcc>0.697149</vAcc></extensions></trkpt>
      <trkpt lon="-4.119476" lat="53.011729"><ele>117.818413</ele><time>2021-07-17T14:55:48Z</time><extensions><speed>1.505830</speed><course>217.523773</course><hAcc>0.882945</hAcc><vAcc>0.697297</vAcc></extensions></trkpt>
      <trkpt lon="-4.119466" lat="53.011717"><ele>117.619904</ele><time>2021-07-17T14:55:49Z</time><extensions><speed>1.513094</speed><course>217.503448</course><hAcc>0.882963</hAcc><vAcc>0.697362</vAcc></extensions></trkpt>
      <trkpt lon="-4.119457" lat="53.011705"><ele>117.421349</ele><time>2021-07-17T14:55:50Z</time><extensions><speed>1.518488</speed><course>222.947372</course><hAcc>0.882957</hAcc><vAcc>0.697341</vAcc></extensions></trkpt>
      <trkpt lon="-4.119446" lat="53.011692"><ele>117.223778</ele><time>2021-07-17T14:55:51Z</time><extensions><speed>1.521817</speed><course>228.737518</course><hAcc>0.882929</hAcc><vAcc>0.697240</vAcc></extensions></trkpt>
      <trkpt lon="-4.119436" lat="53.011680"><ele>117.028976</ele><time>2021-07-17T14:55:52Z</time><extensions><speed>1.522720</speed><course>234.887939</course><hAcc>0.882879</hAcc><vAcc>0.697066</vAcc></extensions></trkpt>
      <trkpt lon="-4.119425" lat="53.011668"><ele>116.838745</ele><time>2021-07-17T14:55:53Z</time><extensions><speed>1.520927</speed><course>232.671463</course><hAcc>0.882809</hAcc><vAcc>0.696825</vAcc></extensions></trkpt>
      <trkpt lon="-4.119414" lat="53.011656"><ele>116.653801</ele><time>2021-07-17T14:55:54Z</time><extensions><speed>1.516424</speed><course>228.680756</course><hAcc>0.882721</hAcc><vAcc>0.696522</vAcc></extensions></trkpt>
      <trkpt lon="-4.119403" lat="53.011644"><ele>116.474083</ele><time>2021-07-17T14:55:55Z</time><extensions><speed>1.509314</speed><course>228.367065</course><hAcc>0.882617</hAcc><vAcc>0.696168</vAcc></extensions></trkpt>
      <trkpt lon="-4.119393" lat="53.011633"><ele>116.299667</ele><time>2021-07-17T14:55:56Z</time><extensions><speed>1.499692</speed><course>227.760208</course><hAcc>0.882499</hAcc><vAcc>0.695777</vAcc></extensions></trkpt>
      <trkpt lon="-4.119382" lat="53.011621"><ele>116.131271</ele><time>2021-07-17T14:55:57Z</time><extensions><speed>1.487733</speed><course>230.377014</course><hAcc>0.882370</hAcc><vAcc>0.695363</vAcc></extensions></trkpt>
      <trkpt lon="-4.119372" lat="53.011609"><ele>115.969994</ele><time>2021-07-17T14:55:58Z</time><extensions><speed>1.473959</speed><course>236.559235</course><hAcc>0.882231</hAcc><vAcc>0.694929</vAcc></extensions></trkpt>
      <trkpt lon="-4.119361" lat="53.011597"><ele>115.816330</ele><time>2021-07-17T14:55:59Z</time><extensions><speed>1.459193</speed><course>232.877869</course><hAcc>0.882085</hAcc><vAcc>0.694473</vAcc></extensions></trkpt>
      <trkpt lon="-4.119352" lat="53.011586"><ele>115.669876</ele><time>2021-07-17T14:56:00Z</time><extensions><speed>1.444321</speed><course>233.901962</course><hAcc>0.881932</hAcc><vAcc>0.693986</vAcc></extensions></trkpt>
      <trkpt lon="-4.119342" lat="53.011574"><ele>115.530006</ele><time>2021-07-17T14:56:01Z</time><extensions><speed>1.429932</speed><course>234.840546</course><hAcc>0.881773</hAcc><vAcc>0.693469</vAcc></extensions></trkpt>
      <trkpt lon="-4.119333" lat="53.011562"><ele>115.396278</ele><time>2021-07-17T14:56:02Z</time><extensions><speed>1.416540</speed><course>231.563858</course><hAcc>0.881611</hAcc><vAcc>0.692933</vAcc></extensions></trkpt>
      <trkpt lon="-4.119325" lat="53.011551"><ele>115.268440</ele><time>2021-07-17T14:56:03Z</time><extensions><speed>1.404310</speed><course>226.163422</course><hAcc>0.881448</hAcc><vAcc>0.692394</vAcc></extensions></trkpt>
      <trkpt lon="-4.119317" lat="53.011539"><ele>115.146507</ele><time>2021-07-17T14:56:04Z</time><extensions><speed>1.393052</speed><course>224.694687</course><hAcc>0.881286</hAcc><vAcc>0.691867</vAcc></extensions></trkpt>
      <trkpt lon="-4.119309" lat="53.011528"><ele>115.030357</ele><time>2021-07-17T14:56:05Z</time><extensions><speed>1.382798</speed><course>227.400024</course><hAcc>0.881128</hAcc><vAcc>0.691364</vAcc></extensions></trkpt>
      <trkpt lon="-4.119302" lat="53.011516"><ele>114.919273</ele><time>2021-07-17T14:56:06Z</time><extensions><speed>1.373747</speed><course>225.215622</course><hAcc>0.880974</hAcc><vAcc>0.690890</vAcc></extensions></trkpt>
      <trkpt lon="-4.119295" lat="53.011505"><ele>114.812515</ele><time>2021-07-17T14:56:07Z</time><extensions><speed>1.366083</speed><course>227.979385</course><hAcc>0.880826</hAcc><vAcc>0.690440</vAcc></extensions></trkpt>
      <trkpt lon="-4.119288" lat="53.011493"><ele>114.709869</ele><time>2021-07-17T14:56:08Z</time><extensions><speed>1.359790</speed><course>238.133682</course><hAcc>0.880683</hAcc><vAcc>0.690004</vAcc></extensions></trkpt>
      <trkpt lon="-4.119281" lat="53.011482"><ele>114.611526</ele><time>2021-07-17T14:56:09Z</time><extensions><speed>1.355031</speed><course>235.678314</course><hAcc>0.880546</hAcc><vAcc>0.689577</vAcc></extensions></trkpt>
      <trkpt lon="-4.119275" lat="53.011470"><ele>114.517738</ele><time>2021-07-17T14:56:10Z</time><extensions><speed>1.352209</speed><course>238.960709</course><hAcc>0.880419</hAcc><vAcc>0.689161</vAcc></extensions></trkpt>
      <trkpt lon="-4.119268" lat="53.011459"><ele>114.427948</ele><time>2021-07-17T14:56:11Z</time><extensions><speed>1.351831</speed><course>237.793289</course><hAcc>0.880303</hAcc><vAcc>0.688767</vAcc></extensions></trkpt>
      <trkpt lon="-4.119261" lat="53.011447"><ele>114.340546</ele><time>2021-07-17T14:56:12Z</time><extensions><speed>1.354304</speed><course>238.209671</course><hAcc>0.880205</hAcc><vAcc>0.688411</vAcc></extensions></trkpt>
      <trkpt lon="-4.119254" lat="53.011436"><ele>114.254128</ele><time>2021-07-17T14:56:13Z</time><extensions><speed>1.359809</speed><course>239.435074</course><hAcc>0.880130</hAcc><vAcc>0.688121</vAcc></extensions></trkpt>
      <trkpt lon="-4.119247" lat="53.011424"><ele>114.168587</ele><time>2021-07-17T14:56:14Z</time><extensions><speed>1.368132</speed><course>238.666733</course><hAcc>0.880085</hAcc><vAcc>0.687929</vAcc></extensions></trkpt>
      <trkpt lon="-4.119240" lat="53.011413"><ele>114.085007</ele><time>2021-07-17T14:56:15Z</time><extensions><speed>1.379002</speed><course>234.077820</course><hAcc>0.880076</hAcc><vAcc>0.687863</vAcc></extensions></trkpt>
      <trkpt lon="-4.119232" lat="53.011401"><ele>114.004280</ele><time>2021-07-17T14:56:16Z</time><extensions><speed>1.392350</speed><course>227.293335</course><hAcc>0.880106</hAcc><vAcc>0.687936</vAcc></extensions></trkpt>
      <trkpt lon="-4.119223" lat="53.011390"><ele>113.925919</ele><time>2021-07-17T14:56:17Z</time><extensions><speed>1.408143</speed><course>230.072769</course><hAcc>0.880178</hAcc><vAcc>0.688158</vAcc></extensions></trkpt>
      <trkpt lon="-4.119215" lat="53.011378"><ele>113.848541</ele><time>2021-07-17T14:56:18Z</time><extensions><speed>1.426093</speed><course>228.397232</course><hAcc>0.880292</hAcc><vAcc>0.688541</vAcc></extensions></trkpt>
      <trkpt lon="-4.119205" lat="53.011366"><ele>113.771202</ele><time>2021-07-17T14:56:19Z</time><extensions><speed>1.445356</speed><course>230.234772</course><hAcc>0.880447</hAcc><vAcc>0.689086</vAcc></extensions></trkpt>
      <trkpt lon="-4.119196" lat="53.011355"><ele>113.694000</ele><time>2021-07-17T14:56:20Z</time><extensions><speed>1.464837</speed><course>226.599274</course><hAcc>0.880639</hAcc><vAcc>0.689775</vAcc></extensions></trkpt>
      <trkpt lon="-4.119185" lat="53.011343"><ele>113.617409</ele><time>2021-07-17T14:56:21Z</time><extensions><speed>1.483837</speed><course>226.515137</course><hAcc>0.880861</hAcc><vAcc>0.690570</vAcc></extensions></trkpt>
      <trkpt lon="-4.119175" lat="53.011331"><ele>113.541313</ele><time>2021-07-17T14:56:22Z</time><extensions><speed>1.502041</speed><course>226.136917</course><hAcc>0.881102</hAcc><vAcc>0.691426</vAcc></extensions></trkpt>
      <trkpt lon="-4.119164" lat="53.011319"><ele>113.464882</ele><time>2021-07-17T14:56:22Z</time><extensions><speed>1.518834</speed><course>230.381958</course><hAcc>0.881374</hAcc><vAcc>0.692318</vAcc></extensions></trkpt>
      <trkpt lon="-4.119153" lat="53.011307"><ele>113.386841</ele><time>2021-07-17T14:56:23Z</time><extensions><speed>1.533572</speed><course>226.727509</course><hAcc>0.881669</hAcc><vAcc>0.693226</vAcc></extensions></trkpt>
      <trkpt lon="-4.119142" lat="53.011295"><ele>113.306473</ele><time>2021-07-17T14:56:25Z</time><extensions><speed>1.545793</speed><course>230.180862</course><hAcc>0.881945</hAcc><vAcc>0.694112</vAcc></extensions></trkpt>
      <trkpt lon="-4.119130" lat="53.011283"><ele>113.224083</ele><time>2021-07-17T14:56:26Z</time><extensions><speed>1.555314</speed><course>225.214905</course><hAcc>0.882199</hAcc><vAcc>0.694967</vAcc></extensions></trkpt>
      <trkpt lon="-4.119118" lat="53.011271"><ele>113.140381</ele><time>2021-07-17T14:56:26Z</time><extensions><speed>1.562279</speed><course>228.288971</course><hAcc>0.882463</hAcc><vAcc>0.695808</vAcc></extensions></trkpt>
      <trkpt lon="-4.119107" lat="53.011259"><ele>113.055557</ele><time>2021-07-17T14:56:27Z</time><extensions><speed>1.566891</speed><course>234.392639</course><hAcc>0.882734</hAcc><vAcc>0.696625</vAcc></extensions></trkpt>
      <trkpt lon="-4.119095" lat="53.011247"><ele>112.968964</ele><time>2021-07-17T14:56:28Z</time><extensions><speed>1.569259</speed><course>233.208801</course><hAcc>0.882992</hAcc><vAcc>0.697401</vAcc></extensions></trkpt>
      <trkpt lon="-4.119083" lat="53.011235"><ele>112.879318</ele><time>2021-07-17T14:56:29Z</time><extensions><speed>1.569575</speed><course>238.158752</course><hAcc>0.883237</hAcc><vAcc>0.698139</vAcc></extensions></trkpt>
      <trkpt lon="-4.119071" lat="53.011223"><ele>112.785866</ele><time>2021-07-17T14:56:30Z</time><extensions><speed>1.567830</speed><course>239.142517</course><hAcc>0.883467</hAcc><vAcc>0.698848</vAcc></extensions></trkpt>
      <trkpt lon="-4.119060" lat="53.011210"><ele>112.688965</ele><time>2021-07-17T14:56:31Z</time><extensions><speed>1.564228</speed><course>241.003922</course><hAcc>0.883684</hAcc><vAcc>0.699535</vAcc></extensions></trkpt>
      <trkpt lon="-4.119048" lat="53.011198"><ele>112.590012</ele><time>2021-07-17T14:56:32Z</time><extensions><speed>1.559346</speed><course>244.474228</course><hAcc>0.883883</hAcc><vAcc>0.700192</vAcc></extensions></trkpt>
      <trkpt lon="-4.119037" lat="53.011186"><ele>112.490372</ele><time>2021-07-17T14:56:33Z</time><extensions><speed>1.553590</speed><course>238.879150</course><hAcc>0.884064</hAcc><vAcc>0.700801</vAcc></extensions></trkpt>
      <trkpt lon="-4.119025" lat="53.011174"><ele>112.390518</ele><time>2021-07-17T14:56:34Z</time><extensions><speed>1.547383</speed><course>237.538528</course><hAcc>0.884222</hAcc><vAcc>0.701341</vAcc></extensions></trkpt>
      <trkpt lon="-4.119014" lat="53.011162"><ele>112.290298</ele><time>2021-07-17T14:56:35Z</time><extensions><speed>1.541126</speed><course>249.037552</course><hAcc>0.884354</hAcc><vAcc>0.701791</vAcc></extensions></trkpt>
      <trkpt lon="-4.119003" lat="53.011149"><ele>112.189316</ele><time>2021-07-17T14:56:36Z</time><extensions><speed>1.535013</speed><course>259.361603</course><hAcc>0.884457</hAcc><vAcc>0.702142</vAcc></extensions></trkpt>
      <trkpt lon="-4.118993" lat="53.011137"><ele>112.087509</ele><time>2021-07-17T14:56:37Z</time><extensions><speed>1.529218</speed><course>261.193176</course><hAcc>0.884530</hAcc><vAcc>0.702391</vAcc></extensions></trkpt>
      <trkpt lon="-4.118982" lat="53.011125"><ele>111.985626</ele><time>2021-07-17T14:56:38Z</time><extensions><speed>1.523692</speed><course>261.193146</course><hAcc>0.884570</hAcc><vAcc>0.702534</vAcc></extensions></trkpt>
      <trkpt lon="-4.118972" lat="53.011113"><ele>111.885170</ele><time>2021-07-17T14:56:39Z</time><extensions><speed>1.518435</speed><course>261.193146</course><hAcc>0.884579</hAcc><vAcc>0.702568</vAcc></extensions></trkpt>
      <trkpt lon="-4.118962" lat="53.011101"><ele>111.787437</ele><time>2021-07-17T14:56:40Z</time><extensions><speed>1.513632</speed><course>261.193146</course><hAcc>0.884556</hAcc><vAcc>0.702487</vAcc></extensions></trkpt>
      <trkpt lon="-4.118952" lat="53.011088"><ele>111.692787</ele><time>2021-07-17T14:56:41Z</time><extensions><speed>1.509640</speed><course>261.193146</course><hAcc>0.884506</hAcc><vAcc>0.702290</vAcc></extensions></trkpt>
      <trkpt lon="-4.118943" lat="53.011076"><ele>111.601089</ele><time>2021-07-17T14:56:42Z</time><extensions><speed>1.506808</speed><course>261.193146</course><hAcc>0.884432</hAcc><vAcc>0.701991</vAcc></extensions></trkpt>
      <trkpt lon="-4.118934" lat="53.011064"><ele>111.512535</ele><time>2021-07-17T14:56:43Z</time><extensions><speed>1.505179</speed><course>261.193146</course><hAcc>0.884341</hAcc><vAcc>0.701618</vAcc></extensions></trkpt>
      <trkpt lon="-4.118925" lat="53.011051"><ele>111.428047</ele><time>2021-07-17T14:56:44Z</time><extensions><speed>1.504667</speed><course>261.193146</course><hAcc>0.884240</hAcc><vAcc>0.701205</vAcc></extensions></trkpt>
      <trkpt lon="-4.118917" lat="53.011039"><ele>111.348618</ele><time>2021-07-17T14:56:45Z</time><extensions><speed>1.505216</speed><course>261.193146</course><hAcc>0.884136</hAcc><vAcc>0.700790</vAcc></extensions></trkpt>
      <trkpt lon="-4.118908" lat="53.011026"><ele>111.274376</ele><time>2021-07-17T14:56:46Z</time><extensions><speed>1.506919</speed><course>234.852402</course><hAcc>0.884037</hAcc><vAcc>0.700404</vAcc></extensions></trkpt>
      <trkpt lon="-4.118900" lat="53.011014"><ele>111.204788</ele><time>2021-07-17T14:56:47Z</time><extensions><speed>1.509756</speed><course>215.025620</course><hAcc>0.883947</hAcc><vAcc>0.700074</vAcc></extensions></trkpt>
      <trkpt lon="-4.118892" lat="53.011001"><ele>111.139366</ele><time>2021-07-17T14:56:48Z</time><extensions><speed>1.513517</speed><course>206.872131</course><hAcc>0.883874</hAcc><vAcc>0.699817</vAcc></extensions></trkpt>
      <trkpt lon="-4.118884" lat="53.010988"><ele>111.078094</ele><time>2021-07-17T14:56:49Z</time><extensions><speed>1.517974</speed><course>205.862991</course><hAcc>0.883819</hAcc><vAcc>0.699646</vAcc></extensions></trkpt>
      <trkpt lon="-4.118877" lat="53.010975"><ele>111.021439</ele><time>2021-07-17T14:56:50Z</time><extensions><speed>1.522706</speed><course>205.862976</course><hAcc>0.883784</hAcc><vAcc>0.699559</vAcc></extensions></trkpt>
      <trkpt lon="-4.118869" lat="53.010962"><ele>110.969559</ele><time>2021-07-17T14:56:51Z</time><extensions><speed>1.527384</speed><course>234.677673</course><hAcc>0.883768</hAcc><vAcc>0.699545</vAcc></extensions></trkpt>
      <trkpt lon="-4.118862" lat="53.010949"><ele>110.921753</ele><time>2021-07-17T14:56:52Z</time><extensions><speed>1.531883</speed><course>246.321655</course><hAcc>0.883771</hAcc><vAcc>0.699585</vAcc></extensions></trkpt>
      <trkpt lon="-4.118855" lat="53.010936"><ele>110.877289</ele><time>2021-07-17T14:56:53Z</time><extensions><speed>1.535996</speed><course>256.732239</course><hAcc>0.883788</hAcc><vAcc>0.699667</vAcc></extensions></trkpt>
      <trkpt lon="-4.118847" lat="53.010923"><ele>110.836365</ele><time>2021-07-17T14:56:54Z</time><extensions><speed>1.539405</speed><course>257.461731</course><hAcc>0.883817</hAcc><vAcc>0.699783</vAcc></extensions></trkpt>
      <trkpt lon="-4.118840" lat="53.010910"><ele>110.799721</ele><time>2021-07-17T14:56:55Z</time><extensions><speed>1.542001</speed><course>256.219269</course><hAcc>0.883855</hAcc><vAcc>0.699928</vAcc></extensions></trkpt>
      <trkpt lon="-4.118833" lat="53.010897"><ele>110.767746</ele><time>2021-07-17T14:56:56Z</time><extensions><speed>1.543715</speed><course>253.669510</course><hAcc>0.883897</hAcc><vAcc>0.700086</vAcc></extensions></trkpt>
      <trkpt lon="-4.118825" lat="53.010884"><ele>110.740158</ele><time>2021-07-17T14:56:57Z</time><extensions><speed>1.544381</speed><course>253.907227</course><hAcc>0.883938</hAcc><vAcc>0.700245</vAcc></extensions></trkpt>
      <trkpt lon="-4.118818" lat="53.010871"><ele>110.716270</ele><time>2021-07-17T14:56:58Z</time><extensions><speed>1.544195</speed><course>260.189209</course><hAcc>0.883976</hAcc><vAcc>0.700389</vAcc></extensions></trkpt>
      <trkpt lon="-4.118810" lat="53.010858"><ele>110.695374</ele><time>2021-07-17T14:56:59Z</time><extensions><speed>1.543398</speed><course>263.253174</course><hAcc>0.884007</hAcc><vAcc>0.700505</vAcc></extensions></trkpt>
      <trkpt lon="-4.118802" lat="53.010845"><ele>110.677177</ele><time>2021-07-17T14:57:00Z</time><extensions><speed>1.541985</speed><course>264.349060</course><hAcc>0.884029</hAcc><vAcc>0.700581</vAcc></extensions></trkpt>
      <trkpt lon="-4.118794" lat="53.010832"><ele>110.661812</ele><time>2021-07-17T14:57:01Z</time><extensions><speed>1.540195</speed><course>258.002991</course><hAcc>0.884039</hAcc><vAcc>0.700609</vAcc></extensions></trkpt>
      <trkpt lon="-4.118785" lat="53.010819"><ele>110.649139</ele><time>2021-07-17T14:57:02Z</time><extensions><speed>1.538464</speed><course>264.832825</course><hAcc>0.884037</hAcc><vAcc>0.700582</vAcc></extensions></trkpt>
      <trkpt lon="-4.118776" lat="53.010806"><ele>110.637993</ele><time>2021-07-17T14:57:03Z</time><extensions><speed>1.537170</speed><course>262.654938</course><hAcc>0.884025</hAcc><vAcc>0.700502</vAcc></extensions></trkpt>
      <trkpt lon="-4.118766" lat="53.010794"><ele>110.626610</ele><time>2021-07-17T14:57:04Z</time><extensions><speed>1.536722</speed><course>262.654938</course><hAcc>0.884005</hAcc><vAcc>0.700384</vAcc></extensions></trkpt>
      <trkpt lon="-4.118756" lat="53.010781"><ele>110.613907</ele><time>2021-07-17T14:57:05Z</time><extensions><speed>1.536951</speed><course>262.654938</course><hAcc>0.883983</hAcc><vAcc>0.700253</vAcc></extensions></trkpt>
      <trkpt lon="-4.118745" lat="53.010769"><ele>110.599762</ele><time>2021-07-17T14:57:06Z</time><extensions><speed>1.537411</speed><course>262.654938</course><hAcc>0.883964</hAcc><vAcc>0.700130</vAcc></extensions></trkpt>
      <trkpt lon="-4.118733" lat="53.010757"><ele>110.583939</ele><time>2021-07-17T14:57:07Z</time><extensions><speed>1.537943</speed><course>262.654938</course><hAcc>0.883959</hAcc><vAcc>0.700031</vAcc></extensions></trkpt>
      <trkpt lon="-4.118721" lat="53.010746"><ele>110.565407</ele><time>2021-07-17T14:57:08Z</time><extensions><speed>1.538324</speed><course>262.654938</course><hAcc>0.883981</hAcc><vAcc>0.699970</vAcc></extensions></trkpt>
      <trkpt lon="-4.118708" lat="53.010734"><ele>110.542831</ele><time>2021-07-17T14:57:09Z</time><extensions><speed>1.538259</speed><course>262.654938</course><hAcc>0.884048</hAcc><vAcc>0.699964</vAcc></extensions></trkpt>
      <trkpt lon="-4.118695" lat="53.010723"><ele>110.515167</ele><time>2021-07-17T14:57:11Z</time><extensions><speed>1.537424</speed><course>262.654938</course><hAcc>0.884163</hAcc><vAcc>0.700021</vAcc></extensions></trkpt>
      <trkpt lon="-4.118680" lat="53.010712"><ele>110.482208</ele><time>2021-07-17T14:57:12Z</time><extensions><speed>1.535258</speed><course>262.654938</course><hAcc>0.884357</hAcc><vAcc>0.700158</vAcc></extensions></trkpt>
      <trkpt lon="-4.118666" lat="53.010702"><ele>110.443695</ele><time>2021-07-17T14:57:13Z</time><extensions><speed>1.531661</speed><course>262.654938</course><hAcc>0.884680</hAcc><vAcc>0.700400</vAcc></extensions></trkpt>
      <trkpt lon="-4.118650" lat="53.010692"><ele>110.398560</ele><time>2021-07-17T14:57:14Z</time><extensions><speed>1.526751</speed><course>262.654938</course><hAcc>0.885172</hAcc><vAcc>0.700757</vAcc></extensions></trkpt>
      <trkpt lon="-4.118635" lat="53.010682"><ele>110.345535</ele><time>2021-07-17T14:57:15Z</time><extensions><speed>1.520227</speed><course>262.654938</course><hAcc>0.885875</hAcc><vAcc>0.701244</vAcc></extensions></trkpt>
      <trkpt lon="-4.118619" lat="53.010672"><ele>110.284378</ele><time>2021-07-17T14:57:16Z</time><extensions><speed>1.511775</speed><course>262.654938</course><hAcc>0.886829</hAcc><vAcc>0.701881</vAcc></extensions></trkpt>
      <trkpt lon="-4.118602" lat="53.010663"><ele>110.215904</ele><time>2021-07-17T14:57:17Z</time><extensions><speed>1.500769</speed><course>262.654938</course><hAcc>0.888064</hAcc><vAcc>0.702683</vAcc></extensions></trkpt>
      <trkpt lon="-4.118585" lat="53.010654"><ele>110.141022</ele><time>2021-07-17T14:57:18Z</time><extensions><speed>1.486314</speed><course>262.654938</course><hAcc>0.889587</hAcc><vAcc>0.703646</vAcc></extensions></trkpt>
      <trkpt lon="-4.118569" lat="53.010646"><ele>110.059998</ele><time>2021-07-17T14:57:19Z</time><extensions><speed>1.467589</speed><course>262.654938</course><hAcc>0.891374</hAcc><vAcc>0.704730</vAcc></extensions></trkpt>
      <trkpt lon="-4.118552" lat="53.010637"><ele>109.972809</ele><time>2021-07-17T14:57:20Z</time><extensions><speed>1.443740</speed><course>262.654938</course><hAcc>0.893352</hAcc><vAcc>0.705859</vAcc></extensions></trkpt>
      <trkpt lon="-4.118535" lat="53.010629"><ele>109.879745</ele><time>2021-07-17T14:57:21Z</time><extensions><speed>1.413978</speed><course>262.654938</course><hAcc>0.895392</hAcc><vAcc>0.706909</vAcc></extensions></trkpt>
      <trkpt lon="-4.118519" lat="53.010622"><ele>109.781776</ele><time>2021-07-17T14:57:22Z</time><extensions><speed>1.377775</speed><course>262.654938</course><hAcc>0.897315</hAcc><vAcc>0.707736</vAcc></extensions></trkpt>
      <trkpt lon="-4.118502" lat="53.010614"><ele>109.680557</ele><time>2021-07-17T14:57:23Z</time><extensions><speed>1.334790</speed><course>262.654938</course><hAcc>0.898907</hAcc><vAcc>0.708197</vAcc></extensions></trkpt>
      <trkpt lon="-4.118487" lat="53.010607"><ele>109.577904</ele><time>2021-07-17T14:57:24Z</time><extensions><speed>1.285273</speed><course>262.654938</course><hAcc>0.899975</hAcc><vAcc>0.708219</vAcc></extensions></trkpt>
      <trkpt lon="-4.118472" lat="53.010600"><ele>109.474930</ele><time>2021-07-17T14:57:25Z</time><extensions><speed>1.230186</speed><course>262.654938</course><hAcc>0.900446</hAcc><vAcc>0.707887</vAcc></extensions></trkpt>
      <trkpt lon="-4.118458" lat="53.010594"><ele>109.371895</ele><time>2021-07-17T14:57:26Z</time><extensions><speed>1.170862</speed><course>262.654938</course><hAcc>0.900539</hAcc><vAcc>0.707590</vAcc></extensions></trkpt>
      <trkpt lon="-4.118445" lat="53.010587"><ele>109.269035</ele><time>2021-07-17T14:57:27Z</time><extensions><speed>1.108874</speed><course>262.654938</course><hAcc>0.901023</hAcc><vAcc>0.708225</vAcc></extensions></trkpt>
      <trkpt lon="-4.118433" lat="53.010581"><ele>109.167175</ele><time>2021-07-17T14:57:28Z</time><extensions><speed>1.046333</speed><course>262.654938</course><hAcc>0.903585</hAcc><vAcc>0.711443</vAcc></extensions></trkpt>
      <trkpt lon="-4.118422" lat="53.010574"><ele>109.067619</ele><time>2021-07-17T14:57:29Z</time><extensions><speed>0.985993</speed><course>262.654938</course><hAcc>0.911279</hAcc><vAcc>0.719918</vAcc></extensions></trkpt>
      <trkpt lon="-4.118412" lat="53.010568"><ele>108.971565</ele><time>2021-07-17T14:57:30Z</time><extensions><speed>0.931018</speed><course>262.654938</course><hAcc>0.928954</hAcc><vAcc>0.737503</vAcc></extensions></trkpt>
      <trkpt lon="-4.118402" lat="53.010563"><ele>108.879402</ele><time>2021-07-17T14:57:31Z</time><extensions><speed>0.884560</speed><course>262.654938</course><hAcc>0.963394</hAcc><vAcc>0.769133</vAcc></extensions></trkpt>
      <trkpt lon="-4.118399" lat="53.010562"><ele>108.838844</ele><time>2021-07-17T14:57:32Z</time><extensions><speed>0.647472</speed><course>207.637573</course><hAcc>0.926396</hAcc><vAcc>0.736931</vAcc></extensions></trkpt>
      <trkpt lon="-4.118400" lat="53.010556"><ele>108.809013</ele><time>2021-07-17T14:57:33Z</time><extensions><speed>0.670846</speed><course>199.781464</course><hAcc>0.908270</hAcc><vAcc>0.719185</vAcc></extensions></trkpt>
      <trkpt lon="-4.118401" lat="53.010550"><ele>108.789528</ele><time>2021-07-17T14:57:34Z</time><extensions><speed>0.703767</speed><course>204.898392</course><hAcc>0.901287</hAcc><vAcc>0.711479</vAcc></extensions></trkpt>
      <trkpt lon="-4.118402" lat="53.010544"><ele>108.781136</ele><time>2021-07-17T14:57:35Z</time><extensions><speed>0.745255</speed><course>218.988647</course><hAcc>0.899900</hAcc><vAcc>0.709468</vAcc></extensions></trkpt>
      <trkpt lon="-4.118405" lat="53.010537"><ele>108.784439</ele><time>2021-07-17T14:57:36Z</time><extensions><speed>0.794388</speed><course>240.875916</course><hAcc>0.900618</hAcc><vAcc>0.710130</vAcc></extensions></trkpt>
      <trkpt lon="-4.118407" lat="53.010530"><ele>108.799934</ele><time>2021-07-17T14:57:37Z</time><extensions><speed>0.850650</speed><course>240.875916</course><hAcc>0.901527</hAcc><vAcc>0.711581</vAcc></extensions></trkpt>
      <trkpt lon="-4.118411" lat="53.010522"><ele>108.828072</ele><time>2021-07-17T14:57:38Z</time><extensions><speed>0.913496</speed><course>240.875916</course><hAcc>0.901769</hAcc><vAcc>0.712789</vAcc></extensions></trkpt>
      <trkpt lon="-4.118415" lat="53.010514"><ele>108.868881</ele><time>2021-07-17T14:57:39Z</time><extensions><speed>0.981011</speed><course>240.875916</course><hAcc>0.901119</hAcc><vAcc>0.713302</vAcc></extensions></trkpt>
      <trkpt lon="-4.118420" lat="53.010505"><ele>108.921524</ele><time>2021-07-17T14:57:40Z</time><extensions><speed>1.049996</speed><course>240.875916</course><hAcc>0.899684</hAcc><vAcc>0.713024</vAcc></extensions></trkpt>
      <trkpt lon="-4.118424" lat="53.010496"><ele>108.984512</ele><time>2021-07-17T14:57:41Z</time><extensions><speed>1.117545</speed><course>240.875916</course><hAcc>0.897710</hAcc><vAcc>0.712056</vAcc></extensions></trkpt>
      <trkpt lon="-4.118429" lat="53.010486"><ele>109.056244</ele><time>2021-07-17T14:57:42Z</time><extensions><speed>1.181225</speed><course>269.430084</course><hAcc>0.895465</hAcc><vAcc>0.710576</vAcc></extensions></trkpt>
      <trkpt lon="-4.118435" lat="53.010476"><ele>109.135422</ele><time>2021-07-17T14:57:43Z</time><extensions><speed>1.239300</speed><course>274.056000</course><hAcc>0.893178</hAcc><vAcc>0.708782</vAcc></extensions></trkpt>
      <trkpt lon="-4.118440" lat="53.010465"><ele>109.220825</ele><time>2021-07-17T14:57:44Z</time><extensions><speed>1.290868</speed><course>273.580658</course><hAcc>0.891021</hAcc><vAcc>0.706848</vAcc></extensions></trkpt>
      <trkpt lon="-4.118444" lat="53.010453"><ele>109.311035</ele><time>2021-07-17T14:57:45Z</time><extensions><speed>1.335919</speed><course>266.285736</course><hAcc>0.889098</hAcc><vAcc>0.704915</vAcc></extensions></trkpt>
      <trkpt lon="-4.118449" lat="53.010442"><ele>109.404129</ele><time>2021-07-17T14:57:46Z</time><extensions><speed>1.375017</speed><course>280.416809</course><hAcc>0.887462</hAcc><vAcc>0.703080</vAcc></extensions></trkpt>
      <trkpt lon="-4.118452" lat="53.010429"><ele>109.497566</ele><time>2021-07-17T14:57:47Z</time><extensions><speed>1.408852</speed><course>289.633057</course><hAcc>0.886123</hAcc><vAcc>0.701409</vAcc></extensions></trkpt>
      <trkpt lon="-4.118456" lat="53.010417"><ele>109.588486</ele><time>2021-07-17T14:57:48Z</time><extensions><speed>1.437971</speed><course>274.042023</course><hAcc>0.885062</hAcc><vAcc>0.699939</vAcc></extensions></trkpt>
      <trkpt lon="-4.118458" lat="53.010404"><ele>109.674347</ele><time>2021-07-17T14:57:49Z</time><extensions><speed>1.462618</speed><course>259.398621</course><hAcc>0.884248</hAcc><vAcc>0.698688</vAcc></extensions></trkpt>
      <trkpt lon="-4.118460" lat="53.010390"><ele>109.753555</ele><time>2021-07-17T14:57:50Z</time><extensions><speed>1.482652</speed><course>235.228027</course><hAcc>0.883643</hAcc><vAcc>0.697669</vAcc></extensions></trkpt>
      <trkpt lon="-4.118461" lat="53.010377"><ele>109.825745</ele><time>2021-07-17T14:57:51Z</time><extensions><speed>1.497794</speed><course>233.943741</course><hAcc>0.883207</hAcc><vAcc>0.696877</vAcc></extensions></trkpt>
      <trkpt lon="-4.118462" lat="53.010364"><ele>109.891205</ele><time>2021-07-17T14:57:52Z</time><extensions><speed>1.508201</speed><course>251.986771</course><hAcc>0.882905</hAcc><vAcc>0.696293</vAcc></extensions></trkpt>
      <trkpt lon="-4.118462" lat="53.010350"><ele>109.949959</ele><time>2021-07-17T14:57:53Z</time><extensions><speed>1.514248</speed><course>230.632401</course><hAcc>0.882705</hAcc><vAcc>0.695883</vAcc></extensions></trkpt>
      <trkpt lon="-4.118461" lat="53.010336"><ele>110.001373</ele><time>2021-07-17T14:57:54Z</time><extensions><speed>1.516287</speed><course>208.539734</course><hAcc>0.882582</hAcc><vAcc>0.695615</vAcc></extensions></trkpt>
      <trkpt lon="-4.118459" lat="53.010323"><ele>110.044594</ele><time>2021-07-17T14:57:55Z</time><extensions><speed>1.514577</speed><course>217.062653</course><hAcc>0.882514</hAcc><vAcc>0.695468</vAcc></extensions></trkpt>
      <trkpt lon="-4.118457" lat="53.010309"><ele>110.079178</ele><time>2021-07-17T14:57:56Z</time><extensions><speed>1.509360</speed><course>216.480164</course><hAcc>0.882488</hAcc><vAcc>0.695430</vAcc></extensions></trkpt>
      <trkpt lon="-4.118454" lat="53.010296"><ele>110.105309</ele><time>2021-07-17T14:57:57Z</time><extensions><speed>1.500968</speed><course>215.204285</course><hAcc>0.882490</hAcc><vAcc>0.695486</vAcc></extensions></trkpt>
      <trkpt lon="-4.118450" lat="53.010283"><ele>110.123070</ele><time>2021-07-17T14:57:58Z</time><extensions><speed>1.490165</speed><course>192.608246</course><hAcc>0.882510</hAcc><vAcc>0.695609</vAcc></extensions></trkpt>
      <trkpt lon="-4.118445" lat="53.010270"><ele>110.131943</ele><time>2021-07-17T14:57:59Z</time><extensions><speed>1.478150</speed><course>196.818375</course><hAcc>0.882538</hAcc><vAcc>0.695764</vAcc></extensions></trkpt>
      <trkpt lon="-4.118440" lat="53.010257"><ele>110.131569</ele><time>2021-07-17T14:58:00Z</time><extensions><speed>1.465962</speed><course>200.564194</course><hAcc>0.882567</hAcc><vAcc>0.695918</vAcc></extensions></trkpt>
      <trkpt lon="-4.118434" lat="53.010244"><ele>110.122452</ele><time>2021-07-17T14:58:01Z</time><extensions><speed>1.454000</speed><course>224.718231</course><hAcc>0.882591</hAcc><vAcc>0.696046</vAcc></extensions></trkpt>
      <trkpt lon="-4.118426" lat="53.010232"><ele>110.105240</ele><time>2021-07-17T14:58:02Z</time><extensions><speed>1.442363</speed><course>228.969803</course><hAcc>0.882603</hAcc><vAcc>0.696123</vAcc></extensions></trkpt>
      <trkpt lon="-4.118418" lat="53.010220"><ele>110.079903</ele><time>2021-07-17T14:58:03Z</time><extensions><speed>1.431370</speed><course>250.366501</course><hAcc>0.882601</hAcc><vAcc>0.696127</vAcc></extensions></trkpt>
      <trkpt lon="-4.118409" lat="53.010209"><ele>110.046234</ele><time>2021-07-17T14:58:04Z</time><extensions><speed>1.421326</speed><course>-1.000000</course><hAcc>0.882583</hAcc><vAcc>0.696054</vAcc></extensions></trkpt>
      <trkpt lon="-4.118399" lat="53.010197"><ele>110.004425</ele><time>2021-07-17T14:58:05Z</time><extensions><speed>1.412196</speed><course>232.063629</course><hAcc>0.882549</hAcc><vAcc>0.695913</vAcc></extensions></trkpt>
      <trkpt lon="-4.118388" lat="53.010186"><ele>109.955070</ele><time>2021-07-17T14:58:06Z</time><extensions><speed>1.403653</speed><course>232.063614</course><hAcc>0.882503</hAcc><vAcc>0.695722</vAcc></extensions></trkpt>
      <trkpt lon="-4.118377" lat="53.010176"><ele>109.898575</ele><time>2021-07-17T14:58:07Z</time><extensions><speed>1.395344</speed><course>232.063614</course><hAcc>0.882446</hAcc><vAcc>0.695498</vAcc></extensions></trkpt>
      <trkpt lon="-4.118365" lat="53.010166"><ele>109.835037</ele><time>2021-07-17T14:58:08Z</time><extensions><speed>1.386999</speed><course>232.063599</course><hAcc>0.882384</hAcc><vAcc>0.695258</vAcc></extensions></trkpt>
      <trkpt lon="-4.118353" lat="53.010156"><ele>109.765198</ele><time>2021-07-17T14:58:09Z</time><extensions><speed>1.378656</speed><course>232.063599</course><hAcc>0.882321</hAcc><vAcc>0.695019</vAcc></extensions></trkpt>
      <trkpt lon="-4.118341" lat="53.010146"><ele>109.690636</ele><time>2021-07-17T14:58:10Z</time><extensions><speed>1.370712</speed><course>232.063583</course><hAcc>0.882262</hAcc><vAcc>0.694797</vAcc></extensions></trkpt>
      <trkpt lon="-4.118328" lat="53.010136"><ele>109.612747</ele><time>2021-07-17T14:58:11Z</time><extensions><speed>1.363791</speed><course>232.063583</course><hAcc>0.882217</hAcc><vAcc>0.694612</vAcc></extensions></trkpt>
      <trkpt lon="-4.118315" lat="53.010126"><ele>109.532120</ele><time>2021-07-17T14:58:12Z</time><extensions><speed>1.358592</speed><course>248.555511</course><hAcc>0.882193</hAcc><vAcc>0.694484</vAcc></extensions></trkpt>
      <trkpt lon="-4.118303" lat="53.010117"><ele>109.449074</ele><time>2021-07-17T14:58:13Z</time><extensions><speed>1.355493</speed><course>214.727661</course><hAcc>0.882202</hAcc><vAcc>0.694435</vAcc></extensions></trkpt>
      <trkpt lon="-4.118290" lat="53.010107"><ele>109.364372</ele><time>2021-07-17T14:58:14Z</time><extensions><speed>1.354197</speed><course>215.656113</course><hAcc>0.882259</hAcc><vAcc>0.694490</vAcc></extensions></trkpt>
      <trkpt lon="-4.118278" lat="53.010098"><ele>109.279343</ele><time>2021-07-17T14:58:15Z</time><extensions><speed>1.354387</speed><course>205.637772</course><hAcc>0.882381</hAcc><vAcc>0.694677</vAcc></extensions></trkpt>
      <trkpt lon="-4.118265" lat="53.010088"><ele>109.195198</ele><time>2021-07-17T14:58:16Z</time><extensions><speed>1.356320</speed><course>201.575424</course><hAcc>0.882591</hAcc><vAcc>0.695027</vAcc></extensions></trkpt>
      <trkpt lon="-4.118253" lat="53.010079"><ele>109.111946</ele><time>2021-07-17T14:58:17Z</time><extensions><speed>1.360275</speed><course>196.854248</course><hAcc>0.882918</hAcc><vAcc>0.695567</vAcc></extensions></trkpt>
      <trkpt lon="-4.118240" lat="53.010069"><ele>109.028465</ele><time>2021-07-17T14:58:18Z</time><extensions><speed>1.365763</speed><course>198.264053</course><hAcc>0.883394</hAcc><vAcc>0.696319</vAcc></extensions></trkpt>
      <trkpt lon="-4.118228" lat="53.010059"><ele>108.943970</ele><time>2021-07-17T14:58:18Z</time><extensions><speed>1.371597</speed><course>198.636932</course><hAcc>0.884072</hAcc><vAcc>0.697299</vAcc></extensions></trkpt>
      <trkpt lon="-4.118216" lat="53.010049"><ele>108.858551</ele><time>2021-07-17T14:58:19Z</time><extensions><speed>1.376604</speed><course>192.727798</course><hAcc>0.884990</hAcc><vAcc>0.698491</vAcc></extensions></trkpt>
      <trkpt lon="-4.118203" lat="53.010040"><ele>108.773117</ele><time>2021-07-17T14:58:21Z</time><extensions><speed>1.379881</speed><course>184.691818</course><hAcc>0.886145</hAcc><vAcc>0.699837</vAcc></extensions></trkpt>
      <trkpt lon="-4.118191" lat="53.010030"><ele>108.688110</ele><time>2021-07-17T14:58:22Z</time><extensions><speed>1.380926</speed><course>177.917740</course><hAcc>0.887558</hAcc><vAcc>0.701293</vAcc></extensions></trkpt>
      <trkpt lon="-4.118179" lat="53.010020"><ele>108.602921</ele><time>2021-07-17T14:58:23Z</time><extensions><speed>1.379920</speed><course>169.935883</course><hAcc>0.889250</hAcc><vAcc>0.702826</vAcc></extensions></trkpt>
      <trkpt lon="-4.118167" lat="53.010010"><ele>108.517235</ele><time>2021-07-17T14:58:24Z</time><extensions><speed>1.377449</speed><course>168.290512</course><hAcc>0.891191</hAcc><vAcc>0.704383</vAcc></extensions></trkpt>
      <trkpt lon="-4.118155" lat="53.009999"><ele>108.431412</ele><time>2021-07-17T14:58:25Z</time><extensions><speed>1.373925</speed><course>175.847488</course><hAcc>0.893306</hAcc><vAcc>0.705893</vAcc></extensions></trkpt>
      <trkpt lon="-4.118143" lat="53.009989"><ele>108.346100</ele><time>2021-07-17T14:58:26Z</time><extensions><speed>1.369750</speed><course>182.489380</course><hAcc>0.895466</hAcc><vAcc>0.707260</vAcc></extensions></trkpt>
      <trkpt lon="-4.118131" lat="53.009979"><ele>108.261429</ele><time>2021-07-17T14:58:27Z</time><extensions><speed>1.365597</speed><course>193.224472</course><hAcc>0.897491</hAcc><vAcc>0.708364</vAcc></extensions></trkpt>
      <trkpt lon="-4.118120" lat="53.009969"><ele>108.176704</ele><time>2021-07-17T14:58:28Z</time><extensions><speed>1.361907</speed><course>210.457108</course><hAcc>0.899170</hAcc><vAcc>0.709084</vAcc></extensions></trkpt>
      <trkpt lon="-4.118108" lat="53.009959"><ele>108.091309</ele><time>2021-07-17T14:58:29Z</time><extensions><speed>1.358526</speed><course>227.054108</course><hAcc>0.900306</hAcc><vAcc>0.709351</vAcc></extensions></trkpt>
      <trkpt lon="-4.118096" lat="53.009950"><ele>108.005547</ele><time>2021-07-17T14:58:30Z</time><extensions><speed>1.354824</speed><course>247.666534</course><hAcc>0.900826</hAcc><vAcc>0.709239</vAcc></extensions></trkpt>
      <trkpt lon="-4.118084" lat="53.009940"><ele>107.920052</ele><time>2021-07-17T14:58:31Z</time><extensions><speed>1.350682</speed><course>261.197876</course><hAcc>0.900943</hAcc><vAcc>0.709105</vAcc></extensions></trkpt>
      <trkpt lon="-4.118072" lat="53.009930"><ele>107.834824</ele><time>2021-07-17T14:58:32Z</time><extensions><speed>1.346663</speed><course>263.217255</course><hAcc>0.901418</hAcc><vAcc>0.709801</vAcc></extensions></trkpt>
      <trkpt lon="-4.118060" lat="53.009920"><ele>107.749092</ele><time>2021-07-17T14:58:33Z</time><extensions><speed>1.343220</speed><course>271.463165</course><hAcc>0.903934</hAcc><vAcc>0.712935</vAcc></extensions></trkpt>
      <trkpt lon="-4.118048" lat="53.009911"><ele>107.661980</ele><time>2021-07-17T14:58:34Z</time><extensions><speed>1.340632</speed><course>281.991608</course><hAcc>0.911538</hAcc><vAcc>0.721143</vAcc></extensions></trkpt>
      <trkpt lon="-4.118035" lat="53.009902"><ele>107.572960</ele><time>2021-07-17T14:58:34Z</time><extensions><speed>1.338925</speed><course>285.895782</course><hAcc>0.929070</hAcc><vAcc>0.738258</vAcc></extensions></trkpt>
      <trkpt lon="-4.118022" lat="53.009892"><ele>107.481354</ele><time>2021-07-17T14:58:35Z</time><extensions><speed>1.338088</speed><course>287.327179</course><hAcc>0.963346</hAcc><vAcc>0.769264</vAcc></extensions></trkpt>
      <trkpt lon="-4.118007" lat="53.009883"><ele>107.284035</ele><time>2021-07-17T14:58:36Z</time><extensions><speed>1.344355</speed><course>207.637573</course><hAcc>0.926915</hAcc><vAcc>0.738162</vAcc></extensions></trkpt>
      <trkpt lon="-4.117991" lat="53.009876"><ele>107.149368</ele><time>2021-07-17T14:58:37Z</time><extensions><speed>1.351811</speed><course>199.781464</course><hAcc>0.908487</hAcc><vAcc>0.719446</vAcc></extensions></trkpt>
      <trkpt lon="-4.117975" lat="53.009869"><ele>107.012245</ele><time>2021-07-17T14:58:38Z</time><extensions><speed>1.359492</speed><course>204.898392</course><hAcc>0.901293</hAcc><vAcc>0.711055</vAcc></extensions></trkpt>
      <trkpt lon="-4.117958" lat="53.009862"><ele>106.873390</ele><time>2021-07-17T14:58:39Z</time><extensions><speed>1.367091</speed><course>218.988647</course><hAcc>0.899785</hAcc><vAcc>0.708653</vAcc></extensions></trkpt>
      <trkpt lon="-4.117941" lat="53.009855"><ele>106.733513</ele><time>2021-07-17T14:58:40Z</time><extensions><speed>1.373882</speed><course>240.875916</course><hAcc>0.900464</hAcc><vAcc>0.709198</vAcc></extensions></trkpt>
      <trkpt lon="-4.117924" lat="53.009848"><ele>106.593666</ele><time>2021-07-17T14:58:41Z</time><extensions><speed>1.379193</speed><course>240.875916</course><hAcc>0.901405</hAcc><vAcc>0.710780</vAcc></extensions></trkpt>
      <trkpt lon="-4.117907" lat="53.009842"><ele>106.454712</ele><time>2021-07-17T14:58:42Z</time><extensions><speed>1.382670</speed><course>240.875916</course><hAcc>0.901740</hAcc><vAcc>0.712340</vAcc></extensions></trkpt>
      <trkpt lon="-4.117889" lat="53.009835"><ele>106.316505</ele><time>2021-07-17T14:58:43Z</time><extensions><speed>1.384047</speed><course>240.875916</course><hAcc>0.901231</hAcc><vAcc>0.713383</vAcc></extensions></trkpt>
      <trkpt lon="-4.117872" lat="53.009829"><ele>106.178200</ele><time>2021-07-17T14:58:44Z</time><extensions><speed>1.383348</speed><course>240.875916</course><hAcc>0.899972</hAcc><vAcc>0.713759</vAcc></extensions></trkpt>
      <trkpt lon="-4.117854" lat="53.009822"><ele>106.039169</ele><time>2021-07-17T14:58:45Z</time><extensions><speed>1.381049</speed><course>240.875916</course><hAcc>0.898196</hAcc><vAcc>0.713513</vAcc></extensions></trkpt>
      <trkpt lon="-4.117837" lat="53.009816"><ele>105.899864</ele><time>2021-07-17T14:58:46Z</time><extensions><speed>1.377674</speed><course>269.430084</course><hAcc>0.896158</hAcc><vAcc>0.712776</vAcc></extensions></trkpt>
      <trkpt lon="-4.117819" lat="53.009809"><ele>105.761497</ele><time>2021-07-17T14:58:47Z</time><extensions><speed>1.373769</speed><course>274.056000</course><hAcc>0.894077</hAcc><vAcc>0.711703</vAcc></extensions></trkpt>
      <trkpt lon="-4.117802" lat="53.009803"><ele>105.625130</ele><time>2021-07-17T14:58:48Z</time><extensions><speed>1.369360</speed><course>273.580658</course><hAcc>0.892112</hAcc><vAcc>0.710437</vAcc></extensions></trkpt>
      <trkpt lon="-4.117784" lat="53.009797"><ele>105.491669</ele><time>2021-07-17T14:58:49Z</time><extensions><speed>1.364547</speed><course>266.285736</course><hAcc>0.890361</hAcc><vAcc>0.709090</vAcc></extensions></trkpt>
      <trkpt lon="-4.117767" lat="53.009790"><ele>105.362228</ele><time>2021-07-17T14:58:50Z</time><extensions><speed>1.359913</speed><course>280.416809</course><hAcc>0.888870</hAcc><vAcc>0.707741</vAcc></extensions></trkpt>
      <trkpt lon="-4.117749" lat="53.009784"><ele>105.237923</ele><time>2021-07-17T14:58:51Z</time><extensions><speed>1.356421</speed><course>289.633057</course><hAcc>0.887644</hAcc><vAcc>0.706439</vAcc></extensions></trkpt>
      <trkpt lon="-4.117732" lat="53.009778"><ele>105.119690</ele><time>2021-07-17T14:58:52Z</time><extensions><speed>1.355261</speed><course>274.042023</course><hAcc>0.886665</hAcc><vAcc>0.705216</vAcc></extensions></trkpt>
      <trkpt lon="-4.117714" lat="53.009772"><ele>105.008324</ele><time>2021-07-17T14:58:53Z</time><extensions><speed>1.357165</speed><course>259.398621</course><hAcc>0.885902</hAcc><vAcc>0.704093</vAcc></extensions></trkpt>
      <trkpt lon="-4.117697" lat="53.009766"><ele>104.905075</ele><time>2021-07-17T14:58:54Z</time><extensions><speed>1.362288</speed><course>235.228027</course><hAcc>0.885319</hAcc><vAcc>0.703088</vAcc></extensions></trkpt>
      <trkpt lon="-4.117679" lat="53.009760"><ele>104.811340</ele><time>2021-07-17T14:58:55Z</time><extensions><speed>1.370080</speed><course>233.943741</course><hAcc>0.884883</hAcc><vAcc>0.702213</vAcc></extensions></trkpt>
      <trkpt lon="-4.117661" lat="53.009754"><ele>104.728012</ele><time>2021-07-17T14:58:56Z</time><extensions><speed>1.379469</speed><course>251.986771</course><hAcc>0.884563</hAcc><vAcc>0.701486</vAcc></extensions></trkpt>
      <trkpt lon="-4.117643" lat="53.009748"><ele>104.655373</ele><time>2021-07-17T14:58:57Z</time><extensions><speed>1.389555</speed><course>230.632401</course><hAcc>0.884337</hAcc><vAcc>0.700920</vAcc></extensions></trkpt>
      <trkpt lon="-4.117625" lat="53.009741"><ele>104.593391</ele><time>2021-07-17T14:58:58Z</time><extensions><speed>1.399676</speed><course>208.539734</course><hAcc>0.884184</hAcc><vAcc>0.700523</vAcc></extensions></trkpt>
      <trkpt lon="-4.117607" lat="53.009735"><ele>104.541862</ele><time>2021-07-17T14:58:59Z</time><extensions><speed>1.408901</speed><course>217.062653</course><hAcc>0.884091</hAcc><vAcc>0.700292</vAcc></extensions></trkpt>
      <trkpt lon="-4.117589" lat="53.009729"><ele>104.500130</ele><time>2021-07-17T14:59:00Z</time><extensions><speed>1.416430</speed><course>216.480164</course><hAcc>0.884045</hAcc><vAcc>0.700207</vAcc></extensions></trkpt>
      <trkpt lon="-4.117571" lat="53.009722"><ele>104.466492</ele><time>2021-07-17T14:59:01Z</time><extensions><speed>1.422246</speed><course>215.204285</course><hAcc>0.884037</hAcc><vAcc>0.700240</vAcc></extensions></trkpt>
      <trkpt lon="-4.117552" lat="53.009716"><ele>104.438644</ele><time>2021-07-17T14:59:02Z</time><extensions><speed>1.426504</speed><course>192.608246</course><hAcc>0.884059</hAcc><vAcc>0.700364</vAcc></extensions></trkpt>
      <trkpt lon="-4.117534" lat="53.009709"><ele>104.414581</ele><time>2021-07-17T14:59:03Z</time><extensions><speed>1.428851</speed><course>196.818375</course><hAcc>0.884104</hAcc><vAcc>0.700555</vAcc></extensions></trkpt>
      <trkpt lon="-4.117516" lat="53.009702"><ele>104.392693</ele><time>2021-07-17T14:59:04Z</time><extensions><speed>1.428832</speed><course>200.564194</course><hAcc>0.884167</hAcc><vAcc>0.700795</vAcc></extensions></trkpt>
      <trkpt lon="-4.117498" lat="53.009696"><ele>104.371193</ele><time>2021-07-17T14:59:05Z</time><extensions><speed>1.426396</speed><course>224.718231</course><hAcc>0.884243</hAcc><vAcc>0.701067</vAcc></extensions></trkpt>
      <trkpt lon="-4.117480" lat="53.009689"><ele>104.348022</ele><time>2021-07-17T14:59:06Z</time><extensions><speed>1.421705</speed><course>228.969803</course><hAcc>0.884330</hAcc><vAcc>0.701357</vAcc></extensions></trkpt>
      <trkpt lon="-4.117462" lat="53.009683"><ele>104.321243</ele><time>2021-07-17T14:59:07Z</time><extensions><speed>1.415047</speed><course>250.366501</course><hAcc>0.884423</hAcc><vAcc>0.701656</vAcc></extensions></trkpt>
      <trkpt lon="-4.117444" lat="53.009676"><ele>104.289513</ele><time>2021-07-17T14:59:08Z</time><extensions><speed>1.407087</speed><course>-1.000000</course><hAcc>0.884522</hAcc><vAcc>0.701958</vAcc></extensions></trkpt>
      <trkpt lon="-4.117426" lat="53.009669"><ele>104.252228</ele><time>2021-07-17T14:59:09Z</time><extensions><speed>1.398891</speed><course>232.063629</course><hAcc>0.884624</hAcc><vAcc>0.702267</vAcc></extensions></trkpt>
      <trkpt lon="-4.117408" lat="53.009663"><ele>104.209290</ele><time>2021-07-17T14:59:10Z</time><extensions><speed>1.391886</speed><course>232.063614</course><hAcc>0.884728</hAcc><vAcc>0.702586</vAcc></extensions></trkpt>
      <trkpt lon="-4.117390" lat="53.009657"><ele>104.160408</ele><time>2021-07-17T14:59:11Z</time><extensions><speed>1.387146</speed><course>232.063614</course><hAcc>0.884833</hAcc><vAcc>0.702920</vAcc></extensions></trkpt>
      <trkpt lon="-4.117372" lat="53.009651"><ele>104.105202</ele><time>2021-07-17T14:59:12Z</time><extensions><speed>1.384972</speed><course>232.063599</course><hAcc>0.884938</hAcc><vAcc>0.703264</vAcc></extensions></trkpt>
      <trkpt lon="-4.117354" lat="53.009645"><ele>104.044044</ele><time>2021-07-17T14:59:13Z</time><extensions><speed>1.385038</speed><course>232.063599</course><hAcc>0.885039</hAcc><vAcc>0.703609</vAcc></extensions></trkpt>
      <trkpt lon="-4.117336" lat="53.009639"><ele>103.977760</ele><time>2021-07-17T14:59:14Z</time><extensions><speed>1.386369</speed><course>232.063583</course><hAcc>0.885137</hAcc><vAcc>0.703946</vAcc></extensions></trkpt>
      <trkpt lon="-4.117317" lat="53.009633"><ele>103.907043</ele><time>2021-07-17T14:59:15Z</time><extensions><speed>1.387558</speed><course>232.063583</course><hAcc>0.885231</hAcc><vAcc>0.704265</vAcc></extensions></trkpt>
      <trkpt lon="-4.117299" lat="53.009627"><ele>103.832962</ele><time>2021-07-17T14:59:16Z</time><extensions><speed>1.387004</speed><course>248.555511</course><hAcc>0.885320</hAcc><vAcc>0.704562</vAcc></extensions></trkpt>
      <trkpt lon="-4.117281" lat="53.009622"><ele>103.757118</ele><time>2021-07-17T14:59:17Z</time><extensions><speed>1.383328</speed><course>214.727661</course><hAcc>0.885410</hAcc><vAcc>0.704835</vAcc></extensions></trkpt>
      <trkpt lon="-4.117262" lat="53.009616"><ele>103.680855</ele><time>2021-07-17T14:59:18Z</time><extensions><speed>1.375633</speed><course>215.656113</course><hAcc>0.885506</hAcc><vAcc>0.705085</vAcc></extensions></trkpt>
      <trkpt lon="-4.117244" lat="53.009611"><ele>103.604614</ele><time>2021-07-17T14:59:19Z</time><extensions><speed>1.363192</speed><course>205.637772</course><hAcc>0.885621</hAcc><vAcc>0.705324</vAcc></extensions></trkpt>
      <trkpt lon="-4.117226" lat="53.009605"><ele>103.528381</ele><time>2021-07-17T14:59:20Z</time><extensions><speed>1.345443</speed><course>201.575424</course><hAcc>0.885770</hAcc><vAcc>0.705570</vAcc></extensions></trkpt>
      <trkpt lon="-4.117208" lat="53.009600"><ele>103.452446</ele><time>2021-07-17T14:59:21Z</time><extensions><speed>1.322053</speed><course>196.854248</course><hAcc>0.885978</hAcc><vAcc>0.705852</vAcc></extensions></trkpt>
      <trkpt lon="-4.117190" lat="53.009595"><ele>103.377106</ele><time>2021-07-17T14:59:22Z</time><extensions><speed>1.292743</speed><course>198.264053</course><hAcc>0.886275</hAcc><vAcc>0.706203</vAcc></extensions></trkpt>
      <trkpt lon="-4.117173" lat="53.009590"><ele>103.302078</ele><time>2021-07-17T14:59:23Z</time><extensions><speed>1.257618</speed><course>198.636932</course><hAcc>0.886698</hAcc><vAcc>0.706661</vAcc></extensions></trkpt>
      <trkpt lon="-4.117156" lat="53.009586"><ele>103.226921</ele><time>2021-07-17T14:59:24Z</time><extensions><speed>1.217264</speed><course>192.727798</course><hAcc>0.887289</hAcc><vAcc>0.707261</vAcc></extensions></trkpt>
      <trkpt lon="-4.117140" lat="53.009581"><ele>103.151443</ele><time>2021-07-17T14:59:25Z</time><extensions><speed>1.172400</speed><course>184.691818</course><hAcc>0.888092</hAcc><vAcc>0.708028</vAcc></extensions></trkpt>
      <trkpt lon="-4.117125" lat="53.009577"><ele>103.075661</ele><time>2021-07-17T14:59:26Z</time><extensions><speed>1.123861</speed><course>177.917740</course><hAcc>0.889147</hAcc><vAcc>0.708979</vAcc></extensions></trkpt>
      <trkpt lon="-4.117110" lat="53.009572"><ele>102.999481</ele><time>2021-07-17T14:59:27Z</time><extensions><speed>1.072912</speed><course>169.935883</course><hAcc>0.890481</hAcc><vAcc>0.710112</vAcc></extensions></trkpt>
      <trkpt lon="-4.117096" lat="53.009568"><ele>102.922821</ele><time>2021-07-17T14:59:28Z</time><extensions><speed>1.021076</speed><course>168.290512</course><hAcc>0.892102</hAcc><vAcc>0.711406</vAcc></extensions></trkpt>
      <trkpt lon="-4.117082" lat="53.009565"><ele>102.845833</ele><time>2021-07-17T14:59:29Z</time><extensions><speed>0.970177</speed><course>175.847488</course><hAcc>0.893982</hAcc><vAcc>0.712807</vAcc></extensions></trkpt>
      <trkpt lon="-4.117070" lat="53.009561"><ele>102.768547</ele><time>2021-07-17T14:59:30Z</time><extensions><speed>0.922165</speed><course>182.489380</course><hAcc>0.896047</hAcc><vAcc>0.714228</vAcc></extensions></trkpt>
      <trkpt lon="-4.117058" lat="53.009557"><ele>102.691025</ele><time>2021-07-17T14:59:31Z</time><extensions><speed>0.879018</speed><course>193.224472</course><hAcc>0.898172</hAcc><vAcc>0.715551</vAcc></extensions></trkpt>
      <trkpt lon="-4.117046" lat="53.009554"><ele>102.613365</ele><time>2021-07-17T14:59:32Z</time><extensions><speed>0.842668</speed><course>210.457108</course><hAcc>0.900179</hAcc><vAcc>0.716644</vAcc></extensions></trkpt>
      <trkpt lon="-4.117035" lat="53.009551"><ele>102.535393</ele><time>2021-07-17T14:59:33Z</time><extensions><speed>0.814493</speed><course>227.054108</course><hAcc>0.901862</hAcc><vAcc>0.717391</vAcc></extensions></trkpt>
      <trkpt lon="-4.117023" lat="53.009549"><ele>102.457024</ele><time>2021-07-17T14:59:34Z</time><extensions><speed>0.794785</speed><course>247.666534</course><hAcc>0.903037</hAcc><vAcc>0.717742</vAcc></extensions></trkpt>
      <trkpt lon="-4.117012" lat="53.009546"><ele>102.378586</ele><time>2021-07-17T14:59:35Z</time><extensions><speed>0.782010</speed><course>261.197876</course><hAcc>0.903645</hAcc><vAcc>0.717810</vAcc></extensions></trkpt>
      <trkpt lon="-4.117001" lat="53.009544"><ele>102.300812</ele><time>2021-07-17T14:59:36Z</time><extensions><speed>0.774088</speed><course>263.217255</course><hAcc>0.903917</hAcc><vAcc>0.718014</vAcc></extensions></trkpt>
      <trkpt lon="-4.116990" lat="53.009542"><ele>102.224648</ele><time>2021-07-17T14:59:38Z</time><extensions><speed>0.769688</speed><course>271.463165</course><hAcc>0.904620</hAcc><vAcc>0.719260</vAcc></extensions></trkpt>
      <trkpt lon="-4.116979" lat="53.009540"><ele>102.150970</ele><time>2021-07-17T14:59:39Z</time><extensions><speed>0.767944</speed><course>281.991608</course><hAcc>0.907449</hAcc><vAcc>0.723207</vAcc></extensions></trkpt>
      <trkpt lon="-4.116968" lat="53.009538"><ele>102.079712</ele><time>2021-07-17T14:59:40Z</time><extensions><speed>0.767675</speed><course>285.895782</course><hAcc>0.915479</hAcc><vAcc>0.732520</vAcc></extensions></trkpt>
      <trkpt lon="-4.116957" lat="53.009537"><ele>102.010605</ele><time>2021-07-17T14:59:41Z</time><extensions><speed>0.766808</speed><course>287.327179</course><hAcc>0.933542</hAcc><vAcc>0.751005</vAcc></extensions></trkpt>
      <trkpt lon="-4.116946" lat="53.009536"><ele>101.943298</ele><time>2021-07-17T14:59:42Z</time><extensions><speed>0.763959</speed><course>297.396240</course><hAcc>0.968381</hAcc><vAcc>0.783523</vAcc></extensions></trkpt>
      <trkpt lon="-4.116936" lat="53.009536"><ele>101.654915</ele><time>2021-07-17T14:59:43Z</time><extensions><speed>0.797164</speed><course>207.637573</course><hAcc>0.930592</hAcc><vAcc>0.749120</vAcc></extensions></trkpt>
      <trkpt lon="-4.116925" lat="53.009539"><ele>101.641670</ele><time>2021-07-17T14:59:44Z</time><extensions><speed>0.799391</speed><course>199.781464</course><hAcc>0.911627</hAcc><vAcc>0.729073</vAcc></extensions></trkpt>
      <trkpt lon="-4.116914" lat="53.009542"><ele>101.620003</ele><time>2021-07-17T14:59:45Z</time><extensions><speed>0.806995</speed><course>204.898392</course><hAcc>0.903876</hAcc><vAcc>0.719183</vAcc></extensions></trkpt>
      <trkpt lon="-4.116904" lat="53.009546"><ele>101.590126</ele><time>2021-07-17T14:59:46Z</time><extensions><speed>0.820727</speed><course>218.988647</course><hAcc>0.901825</hAcc><vAcc>0.715193</vAcc></extensions></trkpt>
      <trkpt lon="-4.116894" lat="53.009551"><ele>101.552269</ele><time>2021-07-17T14:59:47Z</time><extensions><speed>0.840704</speed><course>240.875916</course><hAcc>0.901992</hAcc><vAcc>0.714128</vAcc></extensions></trkpt>
      <trkpt lon="-4.116884" lat="53.009556"><ele>101.507103</ele><time>2021-07-17T14:59:48Z</time><extensions><speed>0.866596</speed><course>240.875916</course><hAcc>0.902459</hAcc><vAcc>0.714136</vAcc></extensions></trkpt>
      <trkpt lon="-4.116875" lat="53.009561"><ele>101.455406</ele><time>2021-07-17T14:59:49Z</time><extensions><speed>0.898015</speed><course>240.875916</course><hAcc>0.902365</hAcc><vAcc>0.714211</vAcc></extensions></trkpt>
      <trkpt lon="-4.116866" lat="53.009567"><ele>101.397385</ele><time>2021-07-17T14:59:50Z</time><extensions><speed>0.934724</speed><course>240.875916</course><hAcc>0.901477</hAcc><vAcc>0.713911</vAcc></extensions></trkpt>
      <trkpt lon="-4.116857" lat="53.009574"><ele>101.333305</ele><time>2021-07-17T14:59:51Z</time><extensions><speed>0.975612</speed><course>240.875916</course><hAcc>0.899899</hAcc><vAcc>0.713135</vAcc></extensions></trkpt>
      <trkpt lon="-4.116848" lat="53.009581"><ele>101.264030</ele><time>2021-07-17T14:59:52Z</time><extensions><speed>1.018454</speed><course>240.875916</course><hAcc>0.897871</hAcc><vAcc>0.711964</vAcc></extensions></trkpt>
      <trkpt lon="-4.116840" lat="53.009589"><ele>101.190575</ele><time>2021-07-17T14:59:53Z</time><extensions><speed>1.061285</speed><course>269.430084</course><hAcc>0.895658</hAcc><vAcc>0.710564</vAcc></extensions></trkpt>
      <trkpt lon="-4.116831" lat="53.009597"><ele>101.114029</ele><time>2021-07-17T14:59:54Z</time><extensions><speed>1.103467</speed><course>274.056000</course><hAcc>0.893484</hAcc><vAcc>0.709121</vAcc></extensions></trkpt>
      <trkpt lon="-4.116824" lat="53.009606"><ele>101.035316</ele><time>2021-07-17T14:59:55Z</time><extensions><speed>1.145091</speed><course>273.580658</course><hAcc>0.891515</hAcc><vAcc>0.707803</vAcc></extensions></trkpt>
      <trkpt lon="-4.116816" lat="53.009616"><ele>100.954697</ele><time>2021-07-17T14:59:56Z</time><extensions><speed>1.186106</speed><course>266.285736</course><hAcc>0.889848</hAcc><vAcc>0.706739</vAcc></extensions></trkpt>
      <trkpt lon="-4.116809" lat="53.009626"><ele>100.872353</ele><time>2021-07-17T14:59:57Z</time><extensions><speed>1.226669</speed><course>280.416809</course><hAcc>0.888523</hAcc><vAcc>0.706001</vAcc></extensions></trkpt>
      <trkpt lon="-4.116803" lat="53.009636"><ele>100.788651</ele><time>2021-07-17T14:59:58Z</time><extensions><speed>1.266551</speed><course>289.633057</course><hAcc>0.887538</hAcc><vAcc>0.705606</vAcc></extensions></trkpt>
      <trkpt lon="-4.116797" lat="53.009647"><ele>100.703743</ele><time>2021-07-17T14:59:59Z</time><extensions><speed>1.304678</speed><course>274.042023</course><hAcc>0.886858</hAcc><vAcc>0.705519</vAcc></extensions></trkpt>
      <trkpt lon="-4.116791" lat="53.009659"><ele>100.617691</ele><time>2021-07-17T15:00:00Z</time><extensions><speed>1.340329</speed><course>259.398621</course><hAcc>0.886434</hAcc><vAcc>0.705677</vAcc></extensions></trkpt>
      <trkpt lon="-4.116786" lat="53.009670"><ele>100.530670</ele><time>2021-07-17T15:00:01Z</time><extensions><speed>1.373506</speed><course>235.228027</course><hAcc>0.886211</hAcc><vAcc>0.706009</vAcc></extensions></trkpt>
      <trkpt lon="-4.116781" lat="53.009683"><ele>100.442856</ele><time>2021-07-17T15:00:02Z</time><extensions><speed>1.404420</speed><course>233.943741</course><hAcc>0.886135</hAcc><vAcc>0.706449</vAcc></extensions></trkpt>
      <trkpt lon="-4.116777" lat="53.009695"><ele>100.354500</ele><time>2021-07-17T15:00:03Z</time><extensions><speed>1.433293</speed><course>251.986771</course><hAcc>0.886157</hAcc><vAcc>0.706940</vAcc></extensions></trkpt>
      <trkpt lon="-4.116773" lat="53.009708"><ele>100.265701</ele><time>2021-07-17T15:00:04Z</time><extensions><speed>1.459837</speed><course>230.632401</course><hAcc>0.886238</hAcc><vAcc>0.707438</vAcc></extensions></trkpt>
      <trkpt lon="-4.116769" lat="53.009721"><ele>100.176308</ele><time>2021-07-17T15:00:05Z</time><extensions><speed>1.482962</speed><course>208.539734</course><hAcc>0.886345</hAcc><vAcc>0.707908</vAcc></extensions></trkpt>
      <trkpt lon="-4.116765" lat="53.009734"><ele>100.086525</ele><time>2021-07-17T15:00:06Z</time><extensions><speed>1.501363</speed><course>217.062653</course><hAcc>0.886454</hAcc><vAcc>0.708323</vAcc></extensions></trkpt>
      <trkpt lon="-4.116762" lat="53.009747"><ele>99.997047</ele><time>2021-07-17T15:00:07Z</time><extensions><speed>1.514126</speed><course>216.480164</course><hAcc>0.886547</hAcc><vAcc>0.708660</vAcc></extensions></trkpt>
      <trkpt lon="-4.116758" lat="53.009761"><ele>99.908585</ele><time>2021-07-17T15:00:08Z</time><extensions><speed>1.521127</speed><course>215.204285</course><hAcc>0.886612</hAcc><vAcc>0.708899</vAcc></extensions></trkpt>
      <trkpt lon="-4.116755" lat="53.009774"><ele>99.822052</ele><time>2021-07-17T15:00:09Z</time><extensions><speed>1.522949</speed><course>192.608246</course><hAcc>0.886640</hAcc><vAcc>0.709019</vAcc></extensions></trkpt>
      <trkpt lon="-4.116752" lat="53.009788"><ele>99.738792</ele><time>2021-07-17T15:00:10Z</time><extensions><speed>1.520486</speed><course>196.818375</course><hAcc>0.886629</hAcc><vAcc>0.709007</vAcc></extensions></trkpt>
      <trkpt lon="-4.116749" lat="53.009801"><ele>99.660027</ele><time>2021-07-17T15:00:11Z</time><extensions><speed>1.514369</speed><course>200.564194</course><hAcc>0.886574</hAcc><vAcc>0.708855</vAcc></extensions></trkpt>
      <trkpt lon="-4.116746" lat="53.009815"><ele>99.586334</ele><time>2021-07-17T15:00:12Z</time><extensions><speed>1.505029</speed><course>224.718231</course><hAcc>0.886476</hAcc><vAcc>0.708559</vAcc></extensions></trkpt>
      <trkpt lon="-4.116743" lat="53.009828"><ele>99.518333</ele><time>2021-07-17T15:00:13Z</time><extensions><speed>1.493134</speed><course>228.969803</course><hAcc>0.886337</hAcc><vAcc>0.708120</vAcc></extensions></trkpt>
      <trkpt lon="-4.116741" lat="53.009842"><ele>99.457184</ele><time>2021-07-17T15:00:14Z</time><extensions><speed>1.479556</speed><course>250.366501</course><hAcc>0.886160</hAcc><vAcc>0.707544</vAcc></extensions></trkpt>
      <trkpt lon="-4.116740" lat="53.009855"><ele>99.403984</ele><time>2021-07-17T15:00:15Z</time><extensions><speed>1.465223</speed><course>-1.000000</course><hAcc>0.885950</hAcc><vAcc>0.706844</vAcc></extensions></trkpt>
      <trkpt lon="-4.116739" lat="53.009868"><ele>99.359207</ele><time>2021-07-17T15:00:16Z</time><extensions><speed>1.451179</speed><course>232.063629</course><hAcc>0.885714</hAcc><vAcc>0.706040</vAcc></extensions></trkpt>
      <trkpt lon="-4.116738" lat="53.009881"><ele>99.323120</ele><time>2021-07-17T15:00:17Z</time><extensions><speed>1.438536</speed><course>232.063614</course><hAcc>0.885458</hAcc><vAcc>0.705161</vAcc></extensions></trkpt>
      <trkpt lon="-4.116738" lat="53.009894"><ele>99.295929</ele><time>2021-07-17T15:00:18Z</time><extensions><speed>1.428326</speed><course>232.063614</course><hAcc>0.885191</hAcc><vAcc>0.704237</vAcc></extensions></trkpt>
      <trkpt lon="-4.116738" lat="53.009907"><ele>99.277435</ele><time>2021-07-17T15:00:19Z</time><extensions><speed>1.421152</speed><course>232.063599</course><hAcc>0.884921</hAcc><vAcc>0.703304</vAcc></extensions></trkpt>
      <trkpt lon="-4.116739" lat="53.009919"><ele>99.266479</ele><time>2021-07-17T15:00:20Z</time><extensions><speed>1.417236</speed><course>232.063599</course><hAcc>0.884655</hAcc><vAcc>0.702396</vAcc></extensions></trkpt>
      <trkpt lon="-4.116740" lat="53.009932"><ele>99.261330</ele><time>2021-07-17T15:00:21Z</time><extensions><speed>1.416103</speed><course>232.063583</course><hAcc>0.884399</hAcc><vAcc>0.701544</vAcc></extensions></trkpt>
      <trkpt lon="-4.116741" lat="53.009945"><ele>99.260757</ele><time>2021-07-17T15:00:22Z</time><extensions><speed>1.416754</speed><course>232.063583</course><hAcc>0.884158</hAcc><vAcc>0.700767</vAcc></extensions></trkpt>
      <trkpt lon="-4.116743" lat="53.009957"><ele>99.264496</ele><time>2021-07-17T15:00:22Z</time><extensions><speed>1.418626</speed><course>248.555511</course><hAcc>0.883955</hAcc><vAcc>0.700092</vAcc></extensions></trkpt>
      <trkpt lon="-4.116745" lat="53.009970"><ele>99.272491</ele><time>2021-07-17T15:00:24Z</time><extensions><speed>1.421559</speed><course>214.727661</course><hAcc>0.883772</hAcc><vAcc>0.699511</vAcc></extensions></trkpt>
      <trkpt lon="-4.116746" lat="53.009983"><ele>99.283997</ele><time>2021-07-17T15:00:24Z</time><extensions><speed>1.425214</speed><course>215.656113</course><hAcc>0.883609</hAcc><vAcc>0.699023</vAcc></extensions></trkpt>
      <trkpt lon="-4.116748" lat="53.009996"><ele>99.297821</ele><time>2021-07-17T15:00:25Z</time><extensions><speed>1.428958</speed><course>205.637772</course><hAcc>0.883481</hAcc><vAcc>0.698625</vAcc></extensions></trkpt>
      <trkpt lon="-4.116750" lat="53.010008"><ele>99.312904</ele><time>2021-07-17T15:00:27Z</time><extensions><speed>1.431863</speed><course>201.575424</course><hAcc>0.883349</hAcc><vAcc>0.698271</vAcc></extensions></trkpt>
      <trkpt lon="-4.116751" lat="53.010021"><ele>99.328888</ele><time>2021-07-17T15:00:28Z</time><extensions><speed>1.433400</speed><course>196.854248</course><hAcc>0.883208</hAcc><vAcc>0.697937</vAcc></extensions></trkpt>
      <trkpt lon="-4.116753" lat="53.010034"><ele>99.346252</ele><time>2021-07-17T15:00:29Z</time><extensions><speed>1.433596</speed><course>198.264053</course><hAcc>0.883068</hAcc><vAcc>0.697606</vAcc></extensions></trkpt>
      <trkpt lon="-4.116754" lat="53.010047"><ele>99.365433</ele><time>2021-07-17T15:00:30Z</time><extensions><speed>1.432732</speed><course>198.636932</course><hAcc>0.882925</hAcc><vAcc>0.697251</vAcc></extensions></trkpt>
      <trkpt lon="-4.116755" lat="53.010060"><ele>99.385841</ele><time>2021-07-17T15:00:30Z</time><extensions><speed>1.431413</speed><course>192.727798</course><hAcc>0.882791</hAcc><vAcc>0.696866</vAcc></extensions></trkpt>
      <trkpt lon="-4.116755" lat="53.010073"><ele>99.406609</ele><time>2021-07-17T15:00:31Z</time><extensions><speed>1.429850</speed><course>184.691818</course><hAcc>0.882664</hAcc><vAcc>0.696439</vAcc></extensions></trkpt>
      <trkpt lon="-4.116755" lat="53.010086"><ele>99.427475</ele><time>2021-07-17T15:00:32Z</time><extensions><speed>1.427887</speed><course>177.917740</course><hAcc>0.882527</hAcc><vAcc>0.695957</vAcc></extensions></trkpt>
      <trkpt lon="-4.116754" lat="53.010098"><ele>99.448296</ele><time>2021-07-17T15:00:33Z</time><extensions><speed>1.425399</speed><course>169.935883</course><hAcc>0.882382</hAcc><vAcc>0.695432</vAcc></extensions></trkpt>
      <trkpt lon="-4.116753" lat="53.010111"><ele>99.468483</ele><time>2021-07-17T15:00:34Z</time><extensions><speed>1.422397</speed><course>168.290512</course><hAcc>0.882234</hAcc><vAcc>0.694885</vAcc></extensions></trkpt>
      <trkpt lon="-4.116752" lat="53.010124"><ele>99.487457</ele><time>2021-07-17T15:00:35Z</time><extensions><speed>1.419350</speed><course>175.847488</course><hAcc>0.882090</hAcc><vAcc>0.694345</vAcc></extensions></trkpt>
      <trkpt lon="-4.116750" lat="53.010137"><ele>99.504959</ele><time>2021-07-17T15:00:36Z</time><extensions><speed>1.417229</speed><course>182.489380</course><hAcc>0.881956</hAcc><vAcc>0.693843</vAcc></extensions></trkpt>
      <trkpt lon="-4.116747" lat="53.010149"><ele>99.520477</ele><time>2021-07-17T15:00:37Z</time><extensions><speed>1.416810</speed><course>193.224472</course><hAcc>0.881839</hAcc><vAcc>0.693403</vAcc></extensions></trkpt>
      <trkpt lon="-4.116744" lat="53.010162"><ele>99.532669</ele><time>2021-07-17T15:00:38Z</time><extensions><speed>1.418451</speed><course>210.457108</course><hAcc>0.881745</hAcc><vAcc>0.693043</vAcc></extensions></trkpt>
      <trkpt lon="-4.116739" lat="53.010174"><ele>99.540070</ele><time>2021-07-17T15:00:39Z</time><extensions><speed>1.422261</speed><course>227.054108</course><hAcc>0.881679</hAcc><vAcc>0.692775</vAcc></extensions></trkpt>
      <trkpt lon="-4.116735" lat="53.010187"><ele>99.541756</ele><time>2021-07-17T15:00:41Z</time><extensions><speed>1.428038</speed><course>247.666534</course><hAcc>0.881624</hAcc><vAcc>0.692593</vAcc></extensions></trkpt>
      <trkpt lon="-4.116729" lat="53.010199"><ele>99.536751</ele><time>2021-07-17T15:00:42Z</time><extensions><speed>1.435025</speed><course>261.197876</course><hAcc>0.881584</hAcc><vAcc>0.692503</vAcc></extensions></trkpt>
      <trkpt lon="-4.116723" lat="53.010212"><ele>99.523842</ele><time>2021-07-17T15:00:43Z</time><extensions><speed>1.441667</speed><course>263.217255</course><hAcc>0.881574</hAcc><vAcc>0.692519</vAcc></extensions></trkpt>
      <trkpt lon="-4.116716" lat="53.010224"><ele>99.502098</ele><time>2021-07-17T15:00:44Z</time><extensions><speed>1.445985</speed><course>271.463165</course><hAcc>0.881591</hAcc><vAcc>0.692633</vAcc></extensions></trkpt>
      <trkpt lon="-4.116709" lat="53.010236"><ele>99.471222</ele><time>2021-07-17T15:00:45Z</time><extensions><speed>1.445746</speed><course>281.991608</course><hAcc>0.881631</hAcc><vAcc>0.692829</vAcc></extensions></trkpt>
      <trkpt lon="-4.116701" lat="53.010248"><ele>99.431374</ele><time>2021-07-17T15:00:46Z</time><extensions><speed>1.438996</speed><course>285.895782</course><hAcc>0.881685</hAcc><vAcc>0.693083</vAcc></extensions></trkpt>
      <trkpt lon="-4.116693" lat="53.010260"><ele>99.382668</ele><time>2021-07-17T15:00:47Z</time><extensions><speed>1.425203</speed><course>287.327179</course><hAcc>0.881745</hAcc><vAcc>0.693361</vAcc></extensions></trkpt>
      <trkpt lon="-4.116684" lat="53.010272"><ele>99.325615</ele><time>2021-07-17T15:00:48Z</time><extensions><speed>1.404694</speed><course>297.396240</course><hAcc>0.881802</hAcc><vAcc>0.693622</vAcc></extensions></trkpt>
      <trkpt lon="-4.116676" lat="53.010283"><ele>99.261719</ele><time>2021-07-17T15:00:49Z</time><extensions><speed>1.378518</speed><course>299.473175</course><hAcc>0.881845</hAcc><vAcc>0.693828</vAcc></extensions></trkpt>
      <trkpt lon="-4.116668" lat="53.010294"><ele>99.192909</ele><time>2021-07-17T15:00:50Z</time><extensions><speed>1.348417</speed><course>297.683289</course><hAcc>0.881866</hAcc><vAcc>0.693956</vAcc></extensions></trkpt>
      <trkpt lon="-4.116660" lat="53.010305"><ele>99.120407</ele><time>2021-07-17T15:00:51Z</time><extensions><speed>1.315779</speed><course>292.365356</course><hAcc>0.881857</hAcc><vAcc>0.693988</vAcc></extensions></trkpt>
      <trkpt lon="-4.116652" lat="53.010316"><ele>99.044556</ele><time>2021-07-17T15:00:52Z</time><extensions><speed>1.281595</speed><course>291.092651</course><hAcc>0.881810</hAcc><vAcc>0.693913</vAcc></extensions></trkpt>
      <trkpt lon="-4.116644" lat="53.010326"><ele>98.965508</ele><time>2021-07-17T15:00:53Z</time><extensions><speed>1.247075</speed><course>297.007721</course><hAcc>0.881718</hAcc><vAcc>0.693705</vAcc></extensions></trkpt>
      <trkpt lon="-4.116636" lat="53.010336"><ele>98.883583</ele><time>2021-07-17T15:00:54Z</time><extensions><speed>1.213660</speed><course>291.539093</course><hAcc>0.881575</hAcc><vAcc>0.693325</vAcc></extensions></trkpt>
      <trkpt lon="-4.116628" lat="53.010346"><ele>98.799088</ele><time>2021-07-17T15:00:55Z</time><extensions><speed>1.182752</speed><course>293.314819</course><hAcc>0.881379</hAcc><vAcc>0.692742</vAcc></extensions></trkpt>
      <trkpt lon="-4.116620" lat="53.010355"><ele>98.711868</ele><time>2021-07-17T15:00:56Z</time><extensions><speed>1.154968</speed><course>297.043213</course><hAcc>0.881129</hAcc><vAcc>0.691946</vAcc></extensions></trkpt>
      <trkpt lon="-4.116612" lat="53.010364"><ele>98.621994</ele><time>2021-07-17T15:00:57Z</time><extensions><speed>1.130144</speed><course>301.573547</course><hAcc>0.880831</hAcc><vAcc>0.690948</vAcc></extensions></trkpt>
      <trkpt lon="-4.116605" lat="53.010373"><ele>98.530533</ele><time>2021-07-17T15:00:58Z</time><extensions><speed>1.107781</speed><course>305.542847</course><hAcc>0.880493</hAcc><vAcc>0.689784</vAcc></extensions></trkpt>
      <trkpt lon="-4.116597" lat="53.010382"><ele>98.438766</ele><time>2021-07-17T15:00:59Z</time><extensions><speed>1.087529</speed><course>304.461029</course><hAcc>0.880127</hAcc><vAcc>0.688506</vAcc></extensions></trkpt>
      <trkpt lon="-4.116589" lat="53.010390"><ele>98.347435</ele><time>2021-07-17T15:01:00Z</time><extensions><speed>1.069371</speed><course>304.519958</course><hAcc>0.879749</hAcc><vAcc>0.687179</vAcc></extensions></trkpt>
      <trkpt lon="-4.116581" lat="53.010399"><ele>98.257133</ele><time>2021-07-17T15:01:01Z</time><extensions><speed>1.053001</speed><course>306.835541</course><hAcc>0.879375</hAcc><vAcc>0.685874</vAcc></extensions></trkpt>
      <trkpt lon="-4.116574" lat="53.010407"><ele>98.168762</ele><time>2021-07-17T15:01:02Z</time><extensions><speed>1.038164</speed><course>312.924469</course><hAcc>0.879021</hAcc><vAcc>0.684653</vAcc></extensions></trkpt>
      <trkpt lon="-4.116566" lat="53.010415"><ele>98.083664</ele><time>2021-07-17T15:01:03Z</time><extensions><speed>1.024933</speed><course>313.121582</course><hAcc>0.878700</hAcc><vAcc>0.683565</vAcc></extensions></trkpt>
      <trkpt lon="-4.116559" lat="53.010423"><ele>98.003036</ele><time>2021-07-17T15:01:04Z</time><extensions><speed>1.013330</speed><course>312.363678</course><hAcc>0.878423</hAcc><vAcc>0.682642</vAcc></extensions></trkpt>
      <trkpt lon="-4.116551" lat="53.010431"><ele>97.926903</ele><time>2021-07-17T15:01:05Z</time><extensions><speed>1.003409</speed><course>309.905548</course><hAcc>0.878198</hAcc><vAcc>0.681900</vAcc></extensions></trkpt>
      <trkpt lon="-4.116544" lat="53.010439"><ele>97.854439</ele><time>2021-07-17T15:01:06Z</time><extensions><speed>0.995779</speed><course>308.597687</course><hAcc>0.878029</hAcc><vAcc>0.681347</vAcc></extensions></trkpt>
      <trkpt lon="-4.116537" lat="53.010447"><ele>97.785088</ele><time>2021-07-17T15:01:07Z</time><extensions><speed>0.991751</speed><course>307.103394</course><hAcc>0.877919</hAcc><vAcc>0.680996</vAcc></extensions></trkpt>
      <trkpt lon="-4.116530" lat="53.010455"><ele>97.718933</ele><time>2021-07-17T15:01:08Z</time><extensions><speed>0.992185</speed><course>306.897400</course><hAcc>0.877870</hAcc><vAcc>0.680853</vAcc></extensions></trkpt>
      <trkpt lon="-4.116524" lat="53.010463"><ele>97.655853</ele><time>2021-07-17T15:01:09Z</time><extensions><speed>0.996098</speed><course>302.152618</course><hAcc>0.877880</hAcc><vAcc>0.680923</vAcc></extensions></trkpt>
      <trkpt lon="-4.116518" lat="53.010471"><ele>97.594917</ele><time>2021-07-17T15:01:10Z</time><extensions><speed>1.001809</speed><course>297.726410</course><hAcc>0.877943</hAcc><vAcc>0.681189</vAcc></extensions></trkpt>
      <trkpt lon="-4.116512" lat="53.010479"><ele>97.534943</ele><time>2021-07-17T15:01:11Z</time><extensions><speed>1.008581</speed><course>300.194183</course><hAcc>0.878048</hAcc><vAcc>0.681614</vAcc></extensions></trkpt>
      <trkpt lon="-4.116506" lat="53.010487"><ele>97.475067</ele><time>2021-07-17T15:01:12Z</time><extensions><speed>1.016573</speed><course>297.151825</course><hAcc>0.878182</hAcc><vAcc>0.682146</vAcc></extensions></trkpt>
      <trkpt lon="-4.116500" lat="53.010496"><ele>97.414894</ele><time>2021-07-17T15:01:13Z</time><extensions><speed>1.025724</speed><course>298.399384</course><hAcc>0.878330</hAcc><vAcc>0.682726</vAcc></extensions></trkpt>
      <trkpt lon="-4.116494" lat="53.010504"><ele>97.353958</ele><time>2021-07-17T15:01:14Z</time><extensions><speed>1.035165</speed><course>300.837921</course><hAcc>0.878476</hAcc><vAcc>0.683295</vAcc></extensions></trkpt>
      <trkpt lon="-4.116488" lat="53.010513"><ele>97.291069</ele><time>2021-07-17T15:01:15Z</time><extensions><speed>1.043775</speed><course>299.844330</course><hAcc>0.878606</hAcc><vAcc>0.683791</vAcc></extensions></trkpt>
      <trkpt lon="-4.116483" lat="53.010522"><ele>97.224953</ele><time>2021-07-17T15:01:16Z</time><extensions><speed>1.050771</speed><course>300.001373</course><hAcc>0.878708</hAcc><vAcc>0.684165</vAcc></extensions></trkpt>
      <trkpt lon="-4.116477" lat="53.010531"><ele>97.155396</ele><time>2021-07-17T15:01:17Z</time><extensions><speed>1.055631</speed><course>294.568817</course><hAcc>0.878774</hAcc><vAcc>0.684386</vAcc></extensions></trkpt>
      <trkpt lon="-4.116471" lat="53.010539"><ele>97.083603</ele><time>2021-07-17T15:01:18Z</time><extensions><speed>1.058219</speed><course>300.687103</course><hAcc>0.878800</hAcc><vAcc>0.684450</vAcc></extensions></trkpt>
      <trkpt lon="-4.116465" lat="53.010548"><ele>97.011459</ele><time>2021-07-17T15:01:19Z</time><extensions><speed>1.058722</speed><course>297.691925</course><hAcc>0.878790</hAcc><vAcc>0.684366</vAcc></extensions></trkpt>
      <trkpt lon="-4.116459" lat="53.010557"><ele>96.940201</ele><time>2021-07-17T15:01:20Z</time><extensions><speed>1.056922</speed><course>293.928223</course><hAcc>0.878746</hAcc><vAcc>0.684157</vAcc></extensions></trkpt>
      <trkpt lon="-4.116453" lat="53.010566"><ele>96.869942</ele><time>2021-07-17T15:01:21Z</time><extensions><speed>1.053214</speed><course>297.041656</course><hAcc>0.878676</hAcc><vAcc>0.683849</vAcc></extensions></trkpt>
      <trkpt lon="-4.116447" lat="53.010575"><ele>96.800743</ele><time>2021-07-17T15:01:22Z</time><extensions><speed>1.049199</speed><course>298.722290</course><hAcc>0.878590</hAcc><vAcc>0.683482</vAcc></extensions></trkpt>
      <trkpt lon="-4.116441" lat="53.010583"><ele>96.733185</ele><time>2021-07-17T15:01:23Z</time><extensions><speed>1.046217</speed><course>296.674316</course><hAcc>0.878498</hAcc><vAcc>0.683099</vAcc></extensions></trkpt>
      <trkpt lon="-4.116435" lat="53.010592"><ele>96.668335</ele><time>2021-07-17T15:01:24Z</time><extensions><speed>1.045030</speed><course>301.147156</course><hAcc>0.878412</hAcc><vAcc>0.682752</vAcc></extensions></trkpt>
      <trkpt lon="-4.116429" lat="53.010600"><ele>96.606987</ele><time>2021-07-17T15:01:25Z</time><extensions><speed>1.046213</speed><course>301.618805</course><hAcc>0.878341</hAcc><vAcc>0.682486</vAcc></extensions></trkpt>
      <trkpt lon="-4.116422" lat="53.010609"><ele>96.548386</ele><time>2021-07-17T15:01:26Z</time><extensions><speed>1.049832</speed><course>300.678009</course><hAcc>0.878292</hAcc><vAcc>0.682330</vAcc></extensions></trkpt>
      <trkpt lon="-4.116415" lat="53.010618"><ele>96.490829</ele><time>2021-07-17T15:01:27Z</time><extensions><speed>1.055989</speed><course>306.078644</course><hAcc>0.878264</hAcc><vAcc>0.682289</vAcc></extensions></trkpt>
      <trkpt lon="-4.116408" lat="53.010626"><ele>96.433540</ele><time>2021-07-17T15:01:28Z</time><extensions><speed>1.064660</speed><course>302.099213</course><hAcc>0.878255</hAcc><vAcc>0.682334</vAcc></extensions></trkpt>
      <trkpt lon="-4.116401" lat="53.010635"><ele>96.376648</ele><time>2021-07-17T15:01:29Z</time><extensions><speed>1.075763</speed><course>298.253754</course><hAcc>0.878256</hAcc><vAcc>0.682423</vAcc></extensions></trkpt>
      <trkpt lon="-4.116393" lat="53.010643"><ele>96.319870</ele><time>2021-07-17T15:01:30Z</time><extensions><speed>1.089308</speed><course>299.772583</course><hAcc>0.878259</hAcc><vAcc>0.682510</vAcc></extensions></trkpt>
      <trkpt lon="-4.116385" lat="53.010652"><ele>96.262146</ele><time>2021-07-17T15:01:31Z</time><extensions><speed>1.104909</speed><course>299.946075</course><hAcc>0.878256</hAcc><vAcc>0.682555</vAcc></extensions></trkpt>
      <trkpt lon="-4.116377" lat="53.010660"><ele>96.202156</ele><time>2021-07-17T15:01:32Z</time><extensions><speed>1.122945</speed><course>303.968170</course><hAcc>0.878243</hAcc><vAcc>0.682536</vAcc></extensions></trkpt>
      <trkpt lon="-4.116368" lat="53.010669"><ele>96.138580</ele><time>2021-07-17T15:01:33Z</time><extensions><speed>1.144672</speed><course>302.223755</course><hAcc>0.878218</hAcc><vAcc>0.682445</vAcc></extensions></trkpt>
      <trkpt lon="-4.116359" lat="53.010678"><ele>96.070168</ele><time>2021-07-17T15:01:34Z</time><extensions><speed>1.171563</speed><course>303.590851</course><hAcc>0.878184</hAcc><vAcc>0.682294</vAcc></extensions></trkpt>
      <trkpt lon="-4.116349" lat="53.010687"><ele>95.995659</ele><time>2021-07-17T15:01:35Z</time><extensions><speed>1.204441</speed><course>302.656281</course><hAcc>0.878147</hAcc><vAcc>0.682105</vAcc></extensions></trkpt>
      <trkpt lon="-4.116338" lat="53.010696"><ele>95.913002</ele><time>2021-07-17T15:01:36Z</time><extensions><speed>1.243424</speed><course>307.857574</course><hAcc>0.878114</hAcc><vAcc>0.681918</vAcc></extensions></trkpt>
      <trkpt lon="-4.116327" lat="53.010705"><ele>95.819313</ele><time>2021-07-17T15:01:37Z</time><extensions><speed>1.287964</speed><course>306.241272</course><hAcc>0.878099</hAcc><vAcc>0.681781</vAcc></extensions></trkpt>
      <trkpt lon="-4.116314" lat="53.010714"><ele>95.711739</ele><time>2021-07-17T15:01:38Z</time><extensions><speed>1.336508</speed><course>302.560516</course><hAcc>0.878111</hAcc><vAcc>0.681741</vAcc></extensions></trkpt>
      <trkpt lon="-4.116301" lat="53.010723"><ele>95.588219</ele><time>2021-07-17T15:01:39Z</time><extensions><speed>1.387279</speed><course>304.207947</course><hAcc>0.878163</hAcc><vAcc>0.681836</vAcc></extensions></trkpt>
      <trkpt lon="-4.116286" lat="53.010732"><ele>95.447823</ele><time>2021-07-17T15:01:40Z</time><extensions><speed>1.438468</speed><course>304.678192</course><hAcc>0.878263</hAcc><vAcc>0.682098</vAcc></extensions></trkpt>
      <trkpt lon="-4.116271" lat="53.010741"><ele>95.290588</ele><time>2021-07-17T15:01:41Z</time><extensions><speed>1.488064</speed><course>300.816559</course><hAcc>0.878419</hAcc><vAcc>0.682552</vAcc></extensions></trkpt>
      <trkpt lon="-4.116254" lat="53.010751"><ele>95.117180</ele><time>2021-07-17T15:01:42Z</time><extensions><speed>1.534202</speed><course>302.457642</course><hAcc>0.878635</hAcc><vAcc>0.683221</vAcc></extensions></trkpt>
      <trkpt lon="-4.116237" lat="53.010760"><ele>94.928787</ele><time>2021-07-17T15:01:43Z</time><extensions><speed>1.576068</speed><course>303.405792</course><hAcc>0.878915</hAcc><vAcc>0.684115</vAcc></extensions></trkpt>
      <trkpt lon="-4.116219" lat="53.010769"><ele>94.726814</ele><time>2021-07-17T15:01:44Z</time><extensions><speed>1.614162</speed><course>305.179382</course><hAcc>0.879257</hAcc><vAcc>0.685227</vAcc></extensions></trkpt>
      <trkpt lon="-4.116201" lat="53.010779"><ele>94.512245</ele><time>2021-07-17T15:01:45Z</time><extensions><speed>1.649033</speed><course>301.811188</course><hAcc>0.879653</hAcc><vAcc>0.686537</vAcc></extensions></trkpt>
      <trkpt lon="-4.116182" lat="53.010788"><ele>94.285675</ele><time>2021-07-17T15:01:46Z</time><extensions><speed>1.680836</speed><course>294.111877</course><hAcc>0.880096</hAcc><vAcc>0.688018</vAcc></extensions></trkpt>
      <trkpt lon="-4.116162" lat="53.010798"><ele>94.048080</ele><time>2021-07-17T15:01:47Z</time><extensions><speed>1.709529</speed><course>291.186249</course><hAcc>0.880574</hAcc><vAcc>0.689638</vAcc></extensions></trkpt>
      <trkpt lon="-4.116142" lat="53.010808"><ele>93.801323</ele><time>2021-07-17T15:01:48Z</time><extensions><speed>1.734772</speed><course>291.833313</course><hAcc>0.881073</hAcc><vAcc>0.691354</vAcc></extensions></trkpt>
      <trkpt lon="-4.116121" lat="53.010817"><ele>93.548286</ele><time>2021-07-17T15:01:49Z</time><extensions><speed>1.756554</speed><course>293.198639</course><hAcc>0.881577</hAcc><vAcc>0.693108</vAcc></extensions></trkpt>
      <trkpt lon="-4.116100" lat="53.010827"><ele>93.292900</ele><time>2021-07-17T15:01:50Z</time><extensions><speed>1.774858</speed><course>297.953094</course><hAcc>0.882067</hAcc><vAcc>0.694829</vAcc></extensions></trkpt>
      <trkpt lon="-4.116079" lat="53.010836"><ele>93.039619</ele><time>2021-07-17T15:01:51Z</time><extensions><speed>1.789331</speed><course>294.998413</course><hAcc>0.882526</hAcc><vAcc>0.696440</vAcc></extensions></trkpt>
      <trkpt lon="-4.116056" lat="53.010845"><ele>92.792343</ele><time>2021-07-17T15:01:52Z</time><extensions><speed>1.798520</speed><course>290.333923</course><hAcc>0.882939</hAcc><vAcc>0.697865</vAcc></extensions></trkpt>
      <trkpt lon="-4.116034" lat="53.010854"><ele>92.553497</ele><time>2021-07-17T15:01:53Z</time><extensions><speed>1.800114</speed><course>297.336884</course><hAcc>0.883290</hAcc><vAcc>0.699048</vAcc></extensions></trkpt>
      <trkpt lon="-4.116011" lat="53.010863"><ele>92.324158</ele><time>2021-07-17T15:01:54Z</time><extensions><speed>1.793496</speed><course>291.763641</course><hAcc>0.883573</hAcc><vAcc>0.699955</vAcc></extensions></trkpt>
      <trkpt lon="-4.115989" lat="53.010871"><ele>92.105026</ele><time>2021-07-17T15:01:55Z</time><extensions><speed>1.779355</speed><course>293.588959</course><hAcc>0.883784</hAcc><vAcc>0.700579</vAcc></extensions></trkpt>
      <trkpt lon="-4.115966" lat="53.010879"><ele>91.897247</ele><time>2021-07-17T15:01:56Z</time><extensions><speed>1.758425</speed><course>298.534668</course><hAcc>0.883923</hAcc><vAcc>0.700926</vAcc></extensions></trkpt>
      <trkpt lon="-4.115943" lat="53.010886"><ele>91.702499</ele><time>2021-07-17T15:01:57Z</time><extensions><speed>1.732581</speed><course>294.834351</course><hAcc>0.883998</hAcc><vAcc>0.701021</vAcc></extensions></trkpt>
      <trkpt lon="-4.115921" lat="53.010894"><ele>91.522583</ele><time>2021-07-17T15:01:58Z</time><extensions><speed>1.704207</speed><course>297.698059</course><hAcc>0.884018</hAcc><vAcc>0.700905</vAcc></extensions></trkpt>
      <trkpt lon="-4.115898" lat="53.010900"><ele>91.358429</ele><time>2021-07-17T15:01:59Z</time><extensions><speed>1.674967</speed><course>298.511444</course><hAcc>0.883998</hAcc><vAcc>0.700638</vAcc></extensions></trkpt>
      <trkpt lon="-4.115876" lat="53.010907"><ele>91.209549</ele><time>2021-07-17T15:02:00Z</time><extensions><speed>1.646745</speed><course>303.054443</course><hAcc>0.883951</hAcc><vAcc>0.700287</vAcc></extensions></trkpt>
      <trkpt lon="-4.115854" lat="53.010913"><ele>91.074768</ele><time>2021-07-17T15:02:01Z</time><extensions><speed>1.620954</speed><course>300.594757</course><hAcc>0.883891</hAcc><vAcc>0.699925</vAcc></extensions></trkpt>
      <trkpt lon="-4.115831" lat="53.010919"><ele>90.953018</ele><time>2021-07-17T15:02:02Z</time><extensions><speed>1.597566</speed><course>303.489990</course><hAcc>0.883831</hAcc><vAcc>0.699616</vAcc></extensions></trkpt>
      <trkpt lon="-4.115810" lat="53.010924"><ele>90.843422</ele><time>2021-07-17T15:02:03Z</time><extensions><speed>1.575813</speed><course>307.296783</course><hAcc>0.883778</hAcc><vAcc>0.699406</vAcc></extensions></trkpt>
      <trkpt lon="-4.115788" lat="53.010929"><ele>90.745041</ele><time>2021-07-17T15:02:04Z</time><extensions><speed>1.554215</speed><course>306.846466</course><hAcc>0.883736</hAcc><vAcc>0.699308</vAcc></extensions></trkpt>
      <trkpt lon="-4.115766" lat="53.010934"><ele>90.656517</ele><time>2021-07-17T15:02:05Z</time><extensions><speed>1.530360</speed><course>314.303711</course><hAcc>0.883703</hAcc><vAcc>0.699304</vAcc></extensions></trkpt>
      <trkpt lon="-4.115745" lat="53.010938"><ele>90.575912</ele><time>2021-07-17T15:02:06Z</time><extensions><speed>1.502357</speed><course>316.753265</course><hAcc>0.883670</hAcc><vAcc>0.699352</vAcc></extensions></trkpt>
      <trkpt lon="-4.115724" lat="53.010942"><ele>90.501564</ele><time>2021-07-17T15:02:07Z</time><extensions><speed>1.469565</speed><course>312.101562</course><hAcc>0.883629</hAcc><vAcc>0.699397</vAcc></extensions></trkpt>
      <trkpt lon="-4.115703" lat="53.010945"><ele>90.432701</ele><time>2021-07-17T15:02:08Z</time><extensions><speed>1.431911</speed><course>310.983948</course><hAcc>0.883569</hAcc><vAcc>0.699375</vAcc></extensions></trkpt>
      <trkpt lon="-4.115682" lat="53.010948"><ele>90.369484</ele><time>2021-07-17T15:02:09Z</time><extensions><speed>1.389536</speed><course>316.824890</course><hAcc>0.883481</hAcc><vAcc>0.699227</vAcc></extensions></trkpt>
      <trkpt lon="-4.115662" lat="53.010951"><ele>90.312401</ele><time>2021-07-17T15:02:10Z</time><extensions><speed>1.342887</speed><course>324.005005</course><hAcc>0.883357</hAcc><vAcc>0.698910</vAcc></extensions></trkpt>
      <trkpt lon="-4.115643" lat="53.010953"><ele>90.261284</ele><time>2021-07-17T15:02:11Z</time><extensions><speed>1.292531</speed><course>322.091736</course><hAcc>0.883196</hAcc><vAcc>0.698408</vAcc></extensions></trkpt>
      <trkpt lon="-4.115624" lat="53.010955"><ele>90.214882</ele><time>2021-07-17T15:02:12Z</time><extensions><speed>1.239461</speed><course>322.830170</course><hAcc>0.883004</hAcc><vAcc>0.697729</vAcc></extensions></trkpt>
      <trkpt lon="-4.115606" lat="53.010956"><ele>90.171494</ele><time>2021-07-17T15:02:13Z</time><extensions><speed>1.186805</speed><course>325.823517</course><hAcc>0.882792</hAcc><vAcc>0.696906</vAcc></extensions></trkpt>
      <trkpt lon="-4.115589" lat="53.010956"><ele>90.129860</ele><time>2021-07-17T15:02:14Z</time><extensions><speed>1.138290</speed><course>331.853210</course><hAcc>0.882582</hAcc><vAcc>0.695993</vAcc></extensions></trkpt>
      <trkpt lon="-4.115573" lat="53.010956"><ele>90.089294</ele><time>2021-07-17T15:02:15Z</time><extensions><speed>1.096105</speed><course>331.260956</course><hAcc>0.882404</hAcc><vAcc>0.695068</vAcc></extensions></trkpt>
      <trkpt lon="-4.115556" lat="53.010956"><ele>90.049721</ele><time>2021-07-17T15:02:16Z</time><extensions><speed>1.061589</speed><course>329.072571</course><hAcc>0.882295</hAcc><vAcc>0.694224</vAcc></extensions></trkpt>
      <trkpt lon="-4.115541" lat="53.010955"><ele>90.011597</ele><time>2021-07-17T15:02:17Z</time><extensions><speed>1.035118</speed><course>325.473938</course><hAcc>0.882300</hAcc><vAcc>0.693566</vAcc></extensions></trkpt>
      <trkpt lon="-4.115526" lat="53.010954"><ele>89.974998</ele><time>2021-07-17T15:02:18Z</time><extensions><speed>1.015648</speed><course>325.383026</course><hAcc>0.882470</hAcc><vAcc>0.693189</vAcc></extensions></trkpt>
      <trkpt lon="-4.115511" lat="53.010953"><ele>89.938751</ele><time>2021-07-17T15:02:19Z</time><extensions><speed>1.001434</speed><course>325.061401</course><hAcc>0.882856</hAcc><vAcc>0.693164</vAcc></extensions></trkpt>
      <trkpt lon="-4.115496" lat="53.010952"><ele>89.901237</ele><time>2021-07-17T15:02:20Z</time><extensions><speed>0.991263</speed><course>325.207275</course><hAcc>0.883505</hAcc><vAcc>0.693520</vAcc></extensions></trkpt>
      <trkpt lon="-4.115481" lat="53.010951"><ele>89.861595</ele><time>2021-07-17T15:02:21Z</time><extensions><speed>0.984742</speed><course>322.410889</course><hAcc>0.884458</hAcc><vAcc>0.694245</vAcc></extensions></trkpt>
      <trkpt lon="-4.115467" lat="53.010950"><ele>89.820045</ele><time>2021-07-17T15:02:22Z</time><extensions><speed>0.982046</speed><course>319.218658</course><hAcc>0.885738</hAcc><vAcc>0.695300</vAcc></extensions></trkpt>
      <trkpt lon="-4.115452" lat="53.010949"><ele>89.777283</ele><time>2021-07-17T15:02:23Z</time><extensions><speed>0.983521</speed><course>319.790588</course><hAcc>0.887349</hAcc><vAcc>0.696631</vAcc></extensions></trkpt>
      <trkpt lon="-4.115438" lat="53.010948"><ele>89.733513</ele><time>2021-07-17T15:02:24Z</time><extensions><speed>0.989808</speed><course>318.972229</course><hAcc>0.889257</hAcc><vAcc>0.698165</vAcc></extensions></trkpt>
      <trkpt lon="-4.115423" lat="53.010948"><ele>89.688591</ele><time>2021-07-17T15:02:25Z</time><extensions><speed>1.001681</speed><course>320.354065</course><hAcc>0.891385</hAcc><vAcc>0.699801</vAcc></extensions></trkpt>
      <trkpt lon="-4.115408" lat="53.010948"><ele>89.642776</ele><time>2021-07-17T15:02:26Z</time><extensions><speed>1.018147</speed><course>320.541016</course><hAcc>0.893598</hAcc><vAcc>0.701406</vAcc></extensions></trkpt>
      <trkpt lon="-4.115393" lat="53.010948"><ele>89.597008</ele><time>2021-07-17T15:02:27Z</time><extensions><speed>1.037269</speed><course>317.906189</course><hAcc>0.895710</hAcc><vAcc>0.702822</vAcc></extensions></trkpt>
      <trkpt lon="-4.115377" lat="53.010948"><ele>89.552597</ele><time>2021-07-17T15:02:28Z</time><extensions><speed>1.058035</speed><course>316.077393</course><hAcc>0.897499</hAcc><vAcc>0.703904</vAcc></extensions></trkpt>
      <trkpt lon="-4.115361" lat="53.010949"><ele>89.510796</ele><time>2021-07-17T15:02:28Z</time><extensions><speed>1.080016</speed><course>307.356537</course><hAcc>0.898786</hAcc><vAcc>0.704584</vAcc></extensions></trkpt>
      <trkpt lon="-4.115345" lat="53.010950"><ele>89.471786</ele><time>2021-07-17T15:02:29Z</time><extensions><speed>1.102578</speed><course>302.004150</course><hAcc>0.899492</hAcc><vAcc>0.704942</vAcc></extensions></trkpt>
      <trkpt lon="-4.115328" lat="53.010951"><ele>89.434464</ele><time>2021-07-17T15:02:31Z</time><extensions><speed>1.124205</speed><course>310.520874</course><hAcc>0.899790</hAcc><vAcc>0.705318</vAcc></extensions></trkpt>
      <trkpt lon="-4.115312" lat="53.010953"><ele>89.397583</ele><time>2021-07-17T15:02:32Z</time><extensions><speed>1.143375</speed><course>307.778412</course><hAcc>0.900439</hAcc><vAcc>0.706567</vAcc></extensions></trkpt>
      <trkpt lon="-4.115295" lat="53.010955"><ele>89.360680</ele><time>2021-07-17T15:02:33Z</time><extensions><speed>1.159321</speed><course>310.132080</course><hAcc>0.903133</hAcc><vAcc>0.710298</vAcc></extensions></trkpt>
      <trkpt lon="-4.115278" lat="53.010957"><ele>89.324089</ele><time>2021-07-17T15:02:34Z</time><extensions><speed>1.172181</speed><course>310.327301</course><hAcc>0.910916</hAcc><vAcc>0.719118</vAcc></extensions></trkpt>
      <trkpt lon="-4.115261" lat="53.010960"><ele>89.287849</ele><time>2021-07-17T15:02:35Z</time><extensions><speed>1.182772</speed><course>308.925873</course><hAcc>0.928625</hAcc><vAcc>0.736834</vAcc></extensions></trkpt>
      <trkpt lon="-4.115244" lat="53.010963"><ele>89.251198</ele><time>2021-07-17T15:02:36Z</time><extensions><speed>1.191328</speed><course>308.955322</course><hAcc>0.963043</hAcc><vAcc>0.768356</vAcc></extensions></trkpt>
      <trkpt lon="-4.115226" lat="53.010972"><ele>89.090927</ele><time>2021-07-17T15:02:36Z</time><extensions><speed>1.398047</speed><course>207.637573</course><hAcc>0.926173</hAcc><vAcc>0.736290</vAcc></extensions></trkpt>
      <trkpt lon="-4.115210" lat="53.010980"><ele>88.911789</ele><time>2021-07-17T15:02:37Z</time><extensions><speed>1.415598</speed><course>199.781464</course><hAcc>0.907790</hAcc><vAcc>0.717661</vAcc></extensions></trkpt>
      <trkpt lon="-4.115194" lat="53.010989"><ele>88.720055</ele><time>2021-07-17T15:02:38Z</time><extensions><speed>1.436311</speed><course>204.898392</course><hAcc>0.900563</hAcc><vAcc>0.709061</vAcc></extensions></trkpt>
      <trkpt lon="-4.115178" lat="53.010998"><ele>88.515007</ele><time>2021-07-17T15:02:39Z</time><extensions><speed>1.458992</speed><course>218.988647</course><hAcc>0.898955</hAcc><vAcc>0.706201</vAcc></extensions></trkpt>
      <trkpt lon="-4.115162" lat="53.011007"><ele>88.295433</ele><time>2021-07-17T15:02:41Z</time><extensions><speed>1.482242</speed><course>240.875916</course><hAcc>0.899462</hAcc><vAcc>0.706091</vAcc></extensions></trkpt>
      <trkpt lon="-4.115146" lat="53.011016"><ele>88.061485</ele><time>2021-07-17T15:02:42Z</time><extensions><speed>1.504679</speed><course>240.875916</course><hAcc>0.900174</hAcc><vAcc>0.706885</vAcc></extensions></trkpt>
      <trkpt lon="-4.115130" lat="53.011026"><ele>87.814842</ele><time>2021-07-17T15:02:43Z</time><extensions><speed>1.524980</speed><course>240.875916</course><hAcc>0.900255</hAcc><vAcc>0.707596</vAcc></extensions></trkpt>
      <trkpt lon="-4.115115" lat="53.011036"><ele>87.559143</ele><time>2021-07-17T15:02:44Z</time><extensions><speed>1.542149</speed><course>240.875916</course><hAcc>0.899482</hAcc><vAcc>0.707781</vAcc></extensions></trkpt>
      <trkpt lon="-4.115099" lat="53.011046"><ele>87.298088</ele><time>2021-07-17T15:02:45Z</time><extensions><speed>1.555637</speed><course>240.875916</course><hAcc>0.897962</hAcc><vAcc>0.707332</vAcc></extensions></trkpt>
      <trkpt lon="-4.115083" lat="53.011056"><ele>87.034225</ele><time>2021-07-17T15:02:46Z</time><extensions><speed>1.564760</speed><course>240.875916</course><hAcc>0.895933</hAcc><vAcc>0.706317</vAcc></extensions></trkpt>
      <trkpt lon="-4.115067" lat="53.011067"><ele>86.769386</ele><time>2021-07-17T15:02:47Z</time><extensions><speed>1.568632</speed><course>269.430084</course><hAcc>0.893657</hAcc><vAcc>0.704876</vAcc></extensions></trkpt>
      <trkpt lon="-4.115052" lat="53.011077"><ele>86.505669</ele><time>2021-07-17T15:02:48Z</time><extensions><speed>1.567121</speed><course>274.056000</course><hAcc>0.891355</hAcc><vAcc>0.703163</vAcc></extensions></trkpt>
      <trkpt lon="-4.115036" lat="53.011087"><ele>86.245888</ele><time>2021-07-17T15:02:49Z</time><extensions><speed>1.561074</speed><course>273.580658</course><hAcc>0.889183</hAcc><vAcc>0.701302</vAcc></extensions></trkpt>
      <trkpt lon="-4.115020" lat="53.011098"><ele>85.993729</ele><time>2021-07-17T15:02:50Z</time><extensions><speed>1.551876</speed><course>266.285736</course><hAcc>0.887237</hAcc><vAcc>0.699383</vAcc></extensions></trkpt>
      <trkpt lon="-4.115004" lat="53.011108"><ele>85.753487</ele><time>2021-07-17T15:02:51Z</time><extensions><speed>1.541227</speed><course>280.416809</course><hAcc>0.885555</hAcc><vAcc>0.697466</vAcc></extensions></trkpt>
      <trkpt lon="-4.114988" lat="53.011117"><ele>85.528931</ele><time>2021-07-17T15:02:52Z</time><extensions><speed>1.531488</speed><course>289.633057</course><hAcc>0.884139</hAcc><vAcc>0.695590</vAcc></extensions></trkpt>
      <trkpt lon="-4.114972" lat="53.011127"><ele>85.321777</ele><time>2021-07-17T15:02:53Z</time><extensions><speed>1.524433</speed><course>274.042023</course><hAcc>0.882965</hAcc><vAcc>0.693781</vAcc></extensions></trkpt>
      <trkpt lon="-4.114955" lat="53.011137"><ele>85.132050</ele><time>2021-07-17T15:02:54Z</time><extensions><speed>1.520613</speed><course>259.398621</course><hAcc>0.881996</hAcc><vAcc>0.692053</vAcc></extensions></trkpt>
      <trkpt lon="-4.114939" lat="53.011146"><ele>84.959595</ele><time>2021-07-17T15:02:55Z</time><extensions><speed>1.520019</speed><course>235.228027</course><hAcc>0.881189</hAcc><vAcc>0.690407</vAcc></extensions></trkpt>
      <trkpt lon="-4.114922" lat="53.011155"><ele>84.804871</ele><time>2021-07-17T15:02:56Z</time><extensions><speed>1.522958</speed><course>233.943741</course><hAcc>0.880507</hAcc><vAcc>0.688834</vAcc></extensions></trkpt>
      <trkpt lon="-4.114905" lat="53.011164"><ele>84.668671</ele><time>2021-07-17T15:02:57Z</time><extensions><speed>1.530417</speed><course>251.986771</course><hAcc>0.879915</hAcc><vAcc>0.687316</vAcc></extensions></trkpt>
      <trkpt lon="-4.114888" lat="53.011174"><ele>84.551109</ele><time>2021-07-17T15:02:58Z</time><extensions><speed>1.542517</speed><course>230.632401</course><hAcc>0.879389</hAcc><vAcc>0.685837</vAcc></extensions></trkpt>
      <trkpt lon="-4.114871" lat="53.011183"><ele>84.450676</ele><time>2021-07-17T15:02:59Z</time><extensions><speed>1.558333</speed><course>208.539734</course><hAcc>0.878911</hAcc><vAcc>0.684388</vAcc></extensions></trkpt>
      <trkpt lon="-4.114853" lat="53.011192"><ele>84.364258</ele><time>2021-07-17T15:03:00Z</time><extensions><speed>1.576453</speed><course>217.062653</course><hAcc>0.878475</hAcc><vAcc>0.682987</vAcc></extensions></trkpt>
      <trkpt lon="-4.114836" lat="53.011201"><ele>84.288223</ele><time>2021-07-17T15:03:01Z</time><extensions><speed>1.595720</speed><course>216.480164</course><hAcc>0.878080</hAcc><vAcc>0.681673</vAcc></extensions></trkpt>
      <trkpt lon="-4.114818" lat="53.011211"><ele>84.219315</ele><time>2021-07-17T15:03:02Z</time><extensions><speed>1.615538</speed><course>215.204285</course><hAcc>0.877734</hAcc><vAcc>0.680497</vAcc></extensions></trkpt>
      <trkpt lon="-4.114799" lat="53.011221"><ele>84.154846</ele><time>2021-07-17T15:03:03Z</time><extensions><speed>1.635763</speed><course>192.608246</course><hAcc>0.877443</hAcc><vAcc>0.679508</vAcc></extensions></trkpt>
      <trkpt lon="-4.114781" lat="53.011231"><ele>84.092773</ele><time>2021-07-17T15:03:04Z</time><extensions><speed>1.656457</speed><course>196.818375</course><hAcc>0.877215</hAcc><vAcc>0.678737</vAcc></extensions></trkpt>
      <trkpt lon="-4.114763" lat="53.011241"><ele>84.031158</ele><time>2021-07-17T15:03:05Z</time><extensions><speed>1.678105</speed><course>200.564194</course><hAcc>0.877053</hAcc><vAcc>0.678200</vAcc></extensions></trkpt>
      <trkpt lon="-4.114744" lat="53.011251"><ele>83.967415</ele><time>2021-07-17T15:03:06Z</time><extensions><speed>1.702205</speed><course>224.718231</course><hAcc>0.876959</hAcc><vAcc>0.677908</vAcc></extensions></trkpt>
      <trkpt lon="-4.114725" lat="53.011261"><ele>83.898506</ele><time>2021-07-17T15:03:07Z</time><extensions><speed>1.729807</speed><course>228.969803</course><hAcc>0.876934</hAcc><vAcc>0.677858</vAcc></extensions></trkpt>
      <trkpt lon="-4.114706" lat="53.011272"><ele>83.821465</ele><time>2021-07-17T15:03:08Z</time><extensions><speed>1.760716</speed><course>250.366501</course><hAcc>0.876975</hAcc><vAcc>0.678041</vAcc></extensions></trkpt>
      <trkpt lon="-4.114687" lat="53.011283"><ele>83.733780</ele><time>2021-07-17T15:03:09Z</time><extensions><speed>1.793507</speed><course>-1.000000</course><hAcc>0.877074</hAcc><vAcc>0.678433</vAcc></extensions></trkpt>
      <trkpt lon="-4.114667" lat="53.011294"><ele>83.633797</ele><time>2021-07-17T15:03:10Z</time><extensions><speed>1.825437</speed><course>232.063629</course><hAcc>0.877223</hAcc><vAcc>0.678999</vAcc></extensions></trkpt>
      <trkpt lon="-4.114646" lat="53.011305"><ele>83.521103</ele><time>2021-07-17T15:03:11Z</time><extensions><speed>1.853964</speed><course>232.063614</course><hAcc>0.877409</hAcc><vAcc>0.679690</vAcc></extensions></trkpt>
      <trkpt lon="-4.114625" lat="53.011315"><ele>83.396538</ele><time>2021-07-17T15:03:12Z</time><extensions><speed>1.877010</speed><course>232.063614</course><hAcc>0.877619</hAcc><vAcc>0.680450</vAcc></extensions></trkpt>
      <trkpt lon="-4.114604" lat="53.011326"><ele>83.261322</ele><time>2021-07-17T15:03:13Z</time><extensions><speed>1.890999</speed><course>232.063599</course><hAcc>0.877840</hAcc><vAcc>0.681225</vAcc></extensions></trkpt>
      <trkpt lon="-4.114582" lat="53.011337"><ele>83.116150</ele><time>2021-07-17T15:03:14Z</time><extensions><speed>1.893038</speed><course>232.063599</course><hAcc>0.878061</hAcc><vAcc>0.681973</vAcc></extensions></trkpt>
      <trkpt lon="-4.114560" lat="53.011348"><ele>82.961906</ele><time>2021-07-17T15:03:15Z</time><extensions><speed>1.883180</speed><course>232.063583</course><hAcc>0.878276</hAcc><vAcc>0.682659</vAcc></extensions></trkpt>
      <trkpt lon="-4.114538" lat="53.011358"><ele>82.800644</ele><time>2021-07-17T15:03:16Z</time><extensions><speed>1.862941</speed><course>232.063583</course><hAcc>0.878481</hAcc><vAcc>0.683272</vAcc></extensions></trkpt>
      <trkpt lon="-4.114517" lat="53.011369"><ele>82.635757</ele><time>2021-07-17T15:03:17Z</time><extensions><speed>1.833788</speed><course>248.555511</course><hAcc>0.878678</hAcc><vAcc>0.683820</vAcc></extensions></trkpt>
      <trkpt lon="-4.114495" lat="53.011379"><ele>82.470825</ele><time>2021-07-17T15:03:18Z</time><extensions><speed>1.797056</speed><course>214.727661</course><hAcc>0.878872</hAcc><vAcc>0.684336</vAcc></extensions></trkpt>
      <trkpt lon="-4.114474" lat="53.011388"><ele>82.308792</ele><time>2021-07-17T15:03:19Z</time><extensions><speed>1.754680</speed><course>215.656113</course><hAcc>0.879073</hAcc><vAcc>0.684866</vAcc></extensions></trkpt>
      <trkpt lon="-4.114453" lat="53.011397"><ele>82.152435</ele><time>2021-07-17T15:03:20Z</time><extensions><speed>1.709284</speed><course>205.637772</course><hAcc>0.879288</hAcc><vAcc>0.685463</vAcc></extensions></trkpt>
      <trkpt lon="-4.114433" lat="53.011406"><ele>82.004593</ele><time>2021-07-17T15:03:21Z</time><extensions><speed>1.663342</speed><course>201.575424</course><hAcc>0.879528</hAcc><vAcc>0.686172</vAcc></extensions></trkpt>
      <trkpt lon="-4.114413" lat="53.011415"><ele>81.868004</ele><time>2021-07-17T15:03:22Z</time><extensions><speed>1.618721</speed><course>196.854248</course><hAcc>0.879796</hAcc><vAcc>0.687020</vAcc></extensions></trkpt>
      <trkpt lon="-4.114394" lat="53.011423"><ele>81.745087</ele><time>2021-07-17T15:03:23Z</time><extensions><speed>1.576811</speed><course>198.264053</course><hAcc>0.880094</hAcc><vAcc>0.688007</vAcc></extensions></trkpt>
      <trkpt lon="-4.114375" lat="53.011431"><ele>81.637405</ele><time>2021-07-17T15:03:24Z</time><extensions><speed>1.538480</speed><course>198.636932</course><hAcc>0.880417</hAcc><vAcc>0.689104</vAcc></extensions></trkpt>
      <trkpt lon="-4.114356" lat="53.011439"><ele>81.544319</ele><time>2021-07-17T15:03:25Z</time><extensions><speed>1.503624</speed><course>192.727798</course><hAcc>0.880758</hAcc><vAcc>0.690267</vAcc></extensions></trkpt>
      <trkpt lon="-4.114338" lat="53.011447"><ele>81.462997</ele><time>2021-07-17T15:03:26Z</time><extensions><speed>1.471453</speed><course>184.691818</course><hAcc>0.881107</hAcc><vAcc>0.691451</vAcc></extensions></trkpt>
      <trkpt lon="-4.114320" lat="53.011454"><ele>81.390106</ele><time>2021-07-17T15:03:27Z</time><extensions><speed>1.441884</speed><course>177.917740</course><hAcc>0.881456</hAcc><vAcc>0.692615</vAcc></extensions></trkpt>
      <trkpt lon="-4.114302" lat="53.011461"><ele>81.322945</ele><time>2021-07-17T15:03:28Z</time><extensions><speed>1.415482</speed><course>169.935883</course><hAcc>0.881796</hAcc><vAcc>0.693730</vAcc></extensions></trkpt>
      <trkpt lon="-4.114285" lat="53.011468"><ele>81.259796</ele><time>2021-07-17T15:03:29Z</time><extensions><speed>1.392921</speed><course>168.290512</course><hAcc>0.882120</hAcc><vAcc>0.694775</vAcc></extensions></trkpt>
      <trkpt lon="-4.114268" lat="53.011475"><ele>81.199707</ele><time>2021-07-17T15:03:30Z</time><extensions><speed>1.373956</speed><course>175.847488</course><hAcc>0.882423</hAcc><vAcc>0.695737</vAcc></extensions></trkpt>
      <trkpt lon="-4.114251" lat="53.011482"><ele>81.141418</ele><time>2021-07-17T15:03:31Z</time><extensions><speed>1.357676</speed><course>182.489380</course><hAcc>0.882701</hAcc><vAcc>0.696608</vAcc></extensions></trkpt>
      <trkpt lon="-4.114234" lat="53.011489"><ele>81.082764</ele><time>2021-07-17T15:03:32Z</time><extensions><speed>1.343399</speed><course>193.224472</course><hAcc>0.882951</hAcc><vAcc>0.697382</vAcc></extensions></trkpt>
      <trkpt lon="-4.114218" lat="53.011496"><ele>81.021408</ele><time>2021-07-17T15:03:33Z</time><extensions><speed>1.330833</speed><course>210.457108</course><hAcc>0.883173</hAcc><vAcc>0.698060</vAcc></extensions></trkpt>
      <trkpt lon="-4.114201" lat="53.011502"><ele>80.955589</ele><time>2021-07-17T15:03:34Z</time><extensions><speed>1.320362</speed><course>227.054108</course><hAcc>0.883368</hAcc><vAcc>0.698646</vAcc></extensions></trkpt>
      <trkpt lon="-4.114185" lat="53.011509"><ele>80.884186</ele><time>2021-07-17T15:03:35Z</time><extensions><speed>1.313362</speed><course>247.666534</course><hAcc>0.883538</hAcc><vAcc>0.699148</vAcc></extensions></trkpt>
      <trkpt lon="-4.114169" lat="53.011516"><ele>80.806763</ele><time>2021-07-17T15:03:36Z</time><extensions><speed>1.311506</speed><course>261.197876</course><hAcc>0.883687</hAcc><vAcc>0.699580</vAcc></extensions></trkpt>
      <trkpt lon="-4.114153" lat="53.011522"><ele>80.723122</ele><time>2021-07-17T15:03:37Z</time><extensions><speed>1.315232</speed><course>263.217255</course><hAcc>0.883818</hAcc><vAcc>0.699956</vAcc></extensions></trkpt>
      <trkpt lon="-4.114137" lat="53.011529"><ele>80.632446</ele><time>2021-07-17T15:03:38Z</time><extensions><speed>1.324043</speed><course>271.463165</course><hAcc>0.883937</hAcc><vAcc>0.700289</vAcc></extensions></trkpt>
      <trkpt lon="-4.114120" lat="53.011536"><ele>80.533440</ele><time>2021-07-17T15:03:39Z</time><extensions><speed>1.337084</speed><course>281.991608</course><hAcc>0.884048</hAcc><vAcc>0.700594</vAcc></extensions></trkpt>
      <trkpt lon="-4.114104" lat="53.011543"><ele>80.425331</ele><time>2021-07-17T15:03:40Z</time><extensions><speed>1.353392</speed><course>285.895782</course><hAcc>0.884156</hAcc><vAcc>0.700886</vAcc></extensions></trkpt>
      <trkpt lon="-4.114087" lat="53.011549"><ele>80.308548</ele><time>2021-07-17T15:03:41Z</time><extensions><speed>1.371937</speed><course>287.327179</course><hAcc>0.884268</hAcc><vAcc>0.701186</vAcc></extensions></trkpt>
      <trkpt lon="-4.114070" lat="53.011556"><ele>80.183968</ele><time>2021-07-17T15:03:42Z</time><extensions><speed>1.391863</speed><course>297.396240</course><hAcc>0.884387</hAcc><vAcc>0.701514</vAcc></extensions></trkpt>
      <trkpt lon="-4.114053" lat="53.011563"><ele>80.052132</ele><time>2021-07-17T15:03:43Z</time><extensions><speed>1.412499</speed><course>299.473175</course><hAcc>0.884518</hAcc><vAcc>0.701889</vAcc></extensions></trkpt>
      <trkpt lon="-4.114035" lat="53.011571"><ele>79.913643</ele><time>2021-07-17T15:03:44Z</time><extensions><speed>1.433382</speed><course>297.683289</course><hAcc>0.884663</hAcc><vAcc>0.702326</vAcc></extensions></trkpt>
      <trkpt lon="-4.114017" lat="53.011578"><ele>79.769516</ele><time>2021-07-17T15:03:45Z</time><extensions><speed>1.454103</speed><course>292.365356</course><hAcc>0.884823</hAcc><vAcc>0.702835</vAcc></extensions></trkpt>
      <trkpt lon="-4.113999" lat="53.011585"><ele>79.621323</ele><time>2021-07-17T15:03:46Z</time><extensions><speed>1.474182</speed><course>291.092651</course><hAcc>0.884998</hAcc><vAcc>0.703417</vAcc></extensions></trkpt>
      <trkpt lon="-4.113980" lat="53.011592"><ele>79.470688</ele><time>2021-07-17T15:03:47Z</time><extensions><speed>1.493170</speed><course>297.007721</course><hAcc>0.885186</hAcc><vAcc>0.704064</vAcc></extensions></trkpt>
      <trkpt lon="-4.113961" lat="53.011599"><ele>79.318520</ele><time>2021-07-17T15:03:48Z</time><extensions><speed>1.510418</speed><course>291.539093</course><hAcc>0.885383</hAcc><vAcc>0.704756</vAcc></extensions></trkpt>
      <trkpt lon="-4.113942" lat="53.011606"><ele>79.165459</ele><time>2021-07-17T15:03:49Z</time><extensions><speed>1.525693</speed><course>293.314819</course><hAcc>0.885584</hAcc><vAcc>0.705468</vAcc></extensions></trkpt>
      <trkpt lon="-4.113922" lat="53.011614"><ele>79.012657</ele><time>2021-07-17T15:03:50Z</time><extensions><speed>1.539390</speed><course>297.043213</course><hAcc>0.885783</hAcc><vAcc>0.706168</vAcc></extensions></trkpt>
      <trkpt lon="-4.113903" lat="53.011621"><ele>78.861763</ele><time>2021-07-17T15:03:51Z</time><extensions><speed>1.552128</speed><course>301.573547</course><hAcc>0.885973</hAcc><vAcc>0.706829</vAcc></extensions></trkpt>
      <trkpt lon="-4.113883" lat="53.011628"><ele>78.714577</ele><time>2021-07-17T15:03:52Z</time><extensions><speed>1.564022</speed><course>305.542847</course><hAcc>0.886150</hAcc><vAcc>0.707426</vAcc></extensions></trkpt>
      <trkpt lon="-4.113862" lat="53.011635"><ele>78.572151</ele><time>2021-07-17T15:03:53Z</time><extensions><speed>1.574134</speed><course>304.461029</course><hAcc>0.886308</hAcc><vAcc>0.707946</vAcc></extensions></trkpt>
      <trkpt lon="-4.113842" lat="53.011642"><ele>78.434525</ele><time>2021-07-17T15:03:54Z</time><extensions><speed>1.581236</speed><course>304.519958</course><hAcc>0.886441</hAcc><vAcc>0.708381</vAcc></extensions></trkpt>
      <trkpt lon="-4.113821" lat="53.011649"><ele>78.301765</ele><time>2021-07-17T15:03:55Z</time><extensions><speed>1.584460</speed><course>306.835541</course><hAcc>0.886547</hAcc><vAcc>0.708725</vAcc></extensions></trkpt>
      <trkpt lon="-4.113801" lat="53.011656"><ele>78.174400</ele><time>2021-07-17T15:03:56Z</time><extensions><speed>1.583793</speed><course>312.924469</course><hAcc>0.886623</hAcc><vAcc>0.708974</vAcc></extensions></trkpt>
      <trkpt lon="-4.113780" lat="53.011663"><ele>78.052567</ele><time>2021-07-17T15:03:57Z</time><extensions><speed>1.579333</speed><course>313.121582</course><hAcc>0.886666</hAcc><vAcc>0.709124</vAcc></extensions></trkpt>
      <trkpt lon="-4.113759" lat="53.011669"><ele>77.935478</ele><time>2021-07-17T15:03:58Z</time><extensions><speed>1.571259</speed><course>312.363678</course><hAcc>0.886678</hAcc><vAcc>0.709170</vAcc></extensions></trkpt>
      <trkpt lon="-4.113739" lat="53.011676"><ele>77.822090</ele><time>2021-07-17T15:03:59Z</time><extensions><speed>1.560427</speed><course>309.905548</course><hAcc>0.886658</hAcc><vAcc>0.709110</vAcc></extensions></trkpt>
      <trkpt lon="-4.113718" lat="53.011682"><ele>77.711830</ele><time>2021-07-17T15:04:00Z</time><extensions><speed>1.547433</speed><course>308.597687</course><hAcc>0.886608</hAcc><vAcc>0.708944</vAcc></extensions></trkpt>
      <trkpt lon="-4.113698" lat="53.011689"><ele>77.604668</ele><time>2021-07-17T15:04:01Z</time><extensions><speed>1.532037</speed><course>307.103394</course><hAcc>0.886531</hAcc><vAcc>0.708674</vAcc></extensions></trkpt>
      <trkpt lon="-4.113678" lat="53.011695"><ele>77.500725</ele><time>2021-07-17T15:04:02Z</time><extensions><speed>1.514024</speed><course>306.897400</course><hAcc>0.886433</hAcc><vAcc>0.708311</vAcc></extensions></trkpt>
      <trkpt lon="-4.113657" lat="53.011701"><ele>77.400024</ele><time>2021-07-17T15:04:03Z</time><extensions><speed>1.494139</speed><course>302.152618</course><hAcc>0.886316</hAcc><vAcc>0.707872</vAcc></extensions></trkpt>
      <trkpt lon="-4.113637" lat="53.011706"><ele>77.302620</ele><time>2021-07-17T15:04:04Z</time><extensions><speed>1.473345</speed><course>297.726410</course><hAcc>0.886188</hAcc><vAcc>0.707385</vAcc></extensions></trkpt>
      <trkpt lon="-4.113618" lat="53.011712"><ele>77.208664</ele><time>2021-07-17T15:04:05Z</time><extensions><speed>1.452219</speed><course>300.194183</course><hAcc>0.886054</hAcc><vAcc>0.706882</vAcc></extensions></trkpt>
      <trkpt lon="-4.113598" lat="53.011717"><ele>77.117836</ele><time>2021-07-17T15:04:06Z</time><extensions><speed>1.431337</speed><course>297.151825</course><hAcc>0.885919</hAcc><vAcc>0.706390</vAcc></extensions></trkpt>
      <trkpt lon="-4.113579" lat="53.011722"><ele>77.028801</ele><time>2021-07-17T15:04:07Z</time><extensions><speed>1.410757</speed><course>298.399384</course><hAcc>0.885789</hAcc><vAcc>0.705931</vAcc></extensions></trkpt>
      <trkpt lon="-4.113560" lat="53.011727"><ele>76.940033</ele><time>2021-07-17T15:04:08Z</time><extensions><speed>1.389763</speed><course>300.837921</course><hAcc>0.885666</hAcc><vAcc>0.705518</vAcc></extensions></trkpt>
      <trkpt lon="-4.113541" lat="53.011732"><ele>76.851036</ele><time>2021-07-17T15:04:09Z</time><extensions><speed>1.368201</speed><course>299.844330</course><hAcc>0.885554</hAcc><vAcc>0.705157</vAcc></extensions></trkpt>
      <trkpt lon="-4.113522" lat="53.011737"><ele>76.762474</ele><time>2021-07-17T15:04:10Z</time><extensions><speed>1.346389</speed><course>300.001373</course><hAcc>0.885453</hAcc><vAcc>0.704847</vAcc></extensions></trkpt>
      <trkpt lon="-4.113503" lat="53.011741"><ele>76.675323</ele><time>2021-07-17T15:04:11Z</time><extensions><speed>1.324678</speed><course>294.568817</course><hAcc>0.885362</hAcc><vAcc>0.704586</vAcc></extensions></trkpt>
      <trkpt lon="-4.113485" lat="53.011746"><ele>76.589531</ele><time>2021-07-17T15:04:12Z</time><extensions><speed>1.303868</speed><course>300.687103</course><hAcc>0.885278</hAcc><vAcc>0.704365</vAcc></extensions></trkpt>
      <trkpt lon="-4.113467" lat="53.011750"><ele>76.503922</ele><time>2021-07-17T15:04:13Z</time><extensions><speed>1.285393</speed><course>297.691925</course><hAcc>0.885198</hAcc><vAcc>0.704170</vAcc></extensions></trkpt>
      <trkpt lon="-4.113450" lat="53.011754"><ele>76.417236</ele><time>2021-07-17T15:04:14Z</time><extensions><speed>1.270423</speed><course>293.928223</course><hAcc>0.885117</hAcc><vAcc>0.703985</vAcc></extensions></trkpt>
      <trkpt lon="-4.113432" lat="53.011758"><ele>76.328659</ele><time>2021-07-17T15:04:15Z</time><extensions><speed>1.259978</speed><course>297.041656</course><hAcc>0.885028</hAcc><vAcc>0.703788</vAcc></extensions></trkpt>
      <trkpt lon="-4.113415" lat="53.011763"><ele>76.237778</ele><time>2021-07-17T15:04:16Z</time><extensions><speed>1.254425</speed><course>298.722290</course><hAcc>0.884927</hAcc><vAcc>0.703550</vAcc></extensions></trkpt>
      <trkpt lon="-4.113397" lat="53.011767"><ele>76.144829</ele><time>2021-07-17T15:04:17Z</time><extensions><speed>1.253176</speed><course>296.674316</course><hAcc>0.884807</hAcc><vAcc>0.703242</vAcc></extensions></trkpt>
      <trkpt lon="-4.113380" lat="53.011771"><ele>76.050621</ele><time>2021-07-17T15:04:18Z</time><extensions><speed>1.255342</speed><course>301.147156</course><hAcc>0.884666</hAcc><vAcc>0.702838</vAcc></extensions></trkpt>
      <trkpt lon="-4.113362" lat="53.011775"><ele>75.955833</ele><time>2021-07-17T15:04:19Z</time><extensions><speed>1.259578</speed><course>301.618805</course><hAcc>0.884500</hAcc><vAcc>0.702324</vAcc></extensions></trkpt>
      <trkpt lon="-4.113345" lat="53.011779"><ele>75.860413</ele><time>2021-07-17T15:04:20Z</time><extensions><speed>1.264690</speed><course>300.678009</course><hAcc>0.884310</hAcc><vAcc>0.701699</vAcc></extensions></trkpt>
      <trkpt lon="-4.113327" lat="53.011782"><ele>75.764374</ele><time>2021-07-17T15:04:21Z</time><extensions><speed>1.269994</speed><course>306.078644</course><hAcc>0.884096</hAcc><vAcc>0.700974</vAcc></extensions></trkpt>
      <trkpt lon="-4.113309" lat="53.011786"><ele>75.668732</ele><time>2021-07-17T15:04:22Z</time><extensions><speed>1.275191</speed><course>302.099213</course><hAcc>0.883862</hAcc><vAcc>0.700170</vAcc></extensions></trkpt>
      <trkpt lon="-4.113291" lat="53.011790"><ele>75.575226</ele><time>2021-07-17T15:04:23Z</time><extensions><speed>1.280444</speed><course>298.253754</course><hAcc>0.883612</hAcc><vAcc>0.699313</vAcc></extensions></trkpt>
      <trkpt lon="-4.113273" lat="53.011793"><ele>75.485207</ele><time>2021-07-17T15:04:24Z</time><extensions><speed>1.285820</speed><course>299.772583</course><hAcc>0.883350</hAcc><vAcc>0.698427</vAcc></extensions></trkpt>
      <trkpt lon="-4.113254" lat="53.011797"><ele>75.398880</ele><time>2021-07-17T15:04:25Z</time><extensions><speed>1.290056</speed><course>299.946075</course><hAcc>0.883082</hAcc><vAcc>0.697537</vAcc></extensions></trkpt>
      <trkpt lon="-4.113236" lat="53.011800"><ele>75.315910</ele><time>2021-07-17T15:04:26Z</time><extensions><speed>1.291933</speed><course>303.968170</course><hAcc>0.882810</hAcc><vAcc>0.696657</vAcc></extensions></trkpt>
      <trkpt lon="-4.113217" lat="53.011802"><ele>75.236084</ele><time>2021-07-17T15:04:27Z</time><extensions><speed>1.291575</speed><course>302.223755</course><hAcc>0.882540</hAcc><vAcc>0.695801</vAcc></extensions></trkpt>
      <trkpt lon="-4.113198" lat="53.011805"><ele>75.159378</ele><time>2021-07-17T15:04:28Z</time><extensions><speed>1.289708</speed><course>303.590851</course><hAcc>0.882271</hAcc><vAcc>0.694970</vAcc></extensions></trkpt>
      <trkpt lon="-4.113180" lat="53.011807"><ele>75.086044</ele><time>2021-07-17T15:04:29Z</time><extensions><speed>1.287254</speed><course>302.656281</course><hAcc>0.882005</hAcc><vAcc>0.694160</vAcc></extensions></trkpt>
      <trkpt lon="-4.113161" lat="53.011809"><ele>75.016243</ele><time>2021-07-17T15:04:30Z</time><extensions><speed>1.285679</speed><course>307.857574</course><hAcc>0.881743</hAcc><vAcc>0.693365</vAcc></extensions></trkpt>
      <trkpt lon="-4.113142" lat="53.011811"><ele>74.949120</ele><time>2021-07-17T15:04:31Z</time><extensions><speed>1.287147</speed><course>306.241272</course><hAcc>0.881482</hAcc><vAcc>0.692578</vAcc></extensions></trkpt>
      <trkpt lon="-4.113123" lat="53.011813"><ele>74.882698</ele><time>2021-07-17T15:04:32Z</time><extensions><speed>1.293830</speed><course>302.560516</course><hAcc>0.881224</hAcc><vAcc>0.691796</vAcc></extensions></trkpt>
      <trkpt lon="-4.113104" lat="53.011814"><ele>74.814888</ele><time>2021-07-17T15:04:33Z</time><extensions><speed>1.307534</speed><course>304.207947</course><hAcc>0.880967</hAcc><vAcc>0.691015</vAcc></extensions></trkpt>
      <trkpt lon="-4.113084" lat="53.011815"><ele>74.744141</ele><time>2021-07-17T15:04:34Z</time><extensions><speed>1.328312</speed><course>304.678192</course><hAcc>0.880711</hAcc><vAcc>0.690236</vAcc></extensions></trkpt>
      <trkpt lon="-4.113064" lat="53.011816"><ele>74.669479</ele><time>2021-07-17T15:04:34Z</time><extensions><speed>1.353803</speed><course>300.816559</course><hAcc>0.880476</hAcc><vAcc>0.689475</vAcc></extensions></trkpt>
      <trkpt lon="-4.113044" lat="53.011817"><ele>74.589409</ele><time>2021-07-17T15:04:35Z</time><extensions><speed>1.380708</speed><course>302.457642</course><hAcc>0.880263</hAcc><vAcc>0.688744</vAcc></extensions></trkpt>
      <trkpt lon="-4.113023" lat="53.011818"><ele>74.502182</ele><time>2021-07-17T15:04:36Z</time><extensions><speed>1.405290</speed><course>303.405792</course><hAcc>0.880058</hAcc><vAcc>0.688048</vAcc></extensions></trkpt>
      <trkpt lon="-4.113002" lat="53.011819"><ele>74.406387</ele><time>2021-07-17T15:04:37Z</time><extensions><speed>1.425084</speed><course>305.179382</course><hAcc>0.879864</hAcc><vAcc>0.687402</vAcc></extensions></trkpt>
      <trkpt lon="-4.112981" lat="53.011820"><ele>74.301476</ele><time>2021-07-17T15:04:38Z</time><extensions><speed>1.439164</speed><course>301.811188</course><hAcc>0.879685</hAcc><vAcc>0.686814</vAcc></extensions></trkpt>
      <trkpt lon="-4.112959" lat="53.011821"><ele>74.187904</ele><time>2021-07-17T15:04:39Z</time><extensions><speed>1.447343</speed><course>294.111877</course><hAcc>0.879521</hAcc><vAcc>0.686285</vAcc></extensions></trkpt>
      <trkpt lon="-4.112938" lat="53.011822"><ele>74.066757</ele><time>2021-07-17T15:04:40Z</time><extensions><speed>1.450711</speed><course>291.186249</course><hAcc>0.879375</hAcc><vAcc>0.685813</vAcc></extensions></trkpt>
      <trkpt lon="-4.112916" lat="53.011823"><ele>73.938873</ele><time>2021-07-17T15:04:41Z</time><extensions><speed>1.451315</speed><course>291.833313</course><hAcc>0.879247</hAcc><vAcc>0.685403</vAcc></extensions></trkpt>
      <trkpt lon="-4.112895" lat="53.011824"><ele>73.804443</ele><time>2021-07-17T15:04:42Z</time><extensions><speed>1.451176</speed><course>293.198639</course><hAcc>0.879139</hAcc><vAcc>0.685057</vAcc></extensions></trkpt>
      <trkpt lon="-4.112873" lat="53.011825"><ele>73.663391</ele><time>2021-07-17T15:04:43Z</time><extensions><speed>1.452335</speed><course>297.953094</course><hAcc>0.879051</hAcc><vAcc>0.684779</vAcc></extensions></trkpt>
      <trkpt lon="-4.112852" lat="53.011827"><ele>73.516113</ele><time>2021-07-17T15:04:44Z</time><extensions><speed>1.456394</speed><course>294.998413</course><hAcc>0.878986</hAcc><vAcc>0.684570</vAcc></extensions></trkpt>
      <trkpt lon="-4.112830" lat="53.011828"><ele>73.364273</ele><time>2021-07-17T15:04:45Z</time><extensions><speed>1.463771</speed><course>290.333923</course><hAcc>0.878945</hAcc><vAcc>0.684431</vAcc></extensions></trkpt>
      <trkpt lon="-4.112808" lat="53.011829"><ele>73.210274</ele><time>2021-07-17T15:04:46Z</time><extensions><speed>1.473967</speed><course>297.336884</course><hAcc>0.878928</hAcc><vAcc>0.684368</vAcc></extensions></trkpt>
      <trkpt lon="-4.112786" lat="53.011831"><ele>73.056076</ele><time>2021-07-17T15:04:47Z</time><extensions><speed>1.485944</speed><course>291.763641</course><hAcc>0.878939</hAcc><vAcc>0.684387</vAcc></extensions></trkpt>
      <trkpt lon="-4.112764" lat="53.011832"><ele>72.903267</ele><time>2021-07-17T15:04:48Z</time><extensions><speed>1.497825</speed><course>293.588959</course><hAcc>0.878980</hAcc><vAcc>0.684493</vAcc></extensions></trkpt>
      <trkpt lon="-4.112742" lat="53.011834"><ele>72.753944</ele><time>2021-07-17T15:04:49Z</time><extensions><speed>1.507632</speed><course>298.534668</course><hAcc>0.879053</hAcc><vAcc>0.684694</vAcc></extensions></trkpt>
      <trkpt lon="-4.112720" lat="53.011835"><ele>72.610634</ele><time>2021-07-17T15:04:50Z</time><extensions><speed>1.514376</speed><course>294.834351</course><hAcc>0.879161</hAcc><vAcc>0.684997</vAcc></extensions></trkpt>
      <trkpt lon="-4.112697" lat="53.011836"><ele>72.476044</ele><time>2021-07-17T15:04:51Z</time><extensions><speed>1.517559</speed><course>297.698059</course><hAcc>0.879307</hAcc><vAcc>0.685415</vAcc></extensions></trkpt>
      <trkpt lon="-4.112675" lat="53.011837"><ele>72.352821</ele><time>2021-07-17T15:04:52Z</time><extensions><speed>1.516925</speed><course>298.511444</course><hAcc>0.879495</hAcc><vAcc>0.685969</vAcc></extensions></trkpt>
      <trkpt lon="-4.112652" lat="53.011838"><ele>72.242592</ele><time>2021-07-17T15:04:53Z</time><extensions><speed>1.512718</speed><course>303.054443</course><hAcc>0.879727</hAcc><vAcc>0.686677</vAcc></extensions></trkpt>
      <trkpt lon="-4.112630" lat="53.011839"><ele>72.145363</ele><time>2021-07-17T15:04:54Z</time><extensions><speed>1.505256</speed><course>300.594757</course><hAcc>0.880004</hAcc><vAcc>0.687552</vAcc></extensions></trkpt>
      <trkpt lon="-4.112607" lat="53.011839"><ele>72.060394</ele><time>2021-07-17T15:04:55Z</time><extensions><speed>1.494983</speed><course>303.489990</course><hAcc>0.880324</hAcc><vAcc>0.688595</vAcc></extensions></trkpt>
      <trkpt lon="-4.112585" lat="53.011839"><ele>71.986969</ele><time>2021-07-17T15:04:56Z</time><extensions><speed>1.482065</speed><course>307.296783</course><hAcc>0.880683</hAcc><vAcc>0.689791</vAcc></extensions></trkpt>
      <trkpt lon="-4.112563" lat="53.011839"><ele>71.924652</ele><time>2021-07-17T15:04:57Z</time><extensions><speed>1.466935</speed><course>306.846466</course><hAcc>0.881075</hAcc><vAcc>0.691108</vAcc></extensions></trkpt>
      <trkpt lon="-4.112541" lat="53.011838"><ele>71.872993</ele><time>2021-07-17T15:04:58Z</time><extensions><speed>1.451160</speed><course>314.303711</course><hAcc>0.881492</hAcc><vAcc>0.692506</vAcc></extensions></trkpt>
      <trkpt lon="-4.112520" lat="53.011837"><ele>71.830757</ele><time>2021-07-17T15:04:59Z</time><extensions><speed>1.436578</speed><course>316.753265</course><hAcc>0.881927</hAcc><vAcc>0.693943</vAcc></extensions></trkpt>
      <trkpt lon="-4.112499" lat="53.011836"><ele>71.795929</ele><time>2021-07-17T15:05:00Z</time><extensions><speed>1.424489</speed><course>312.101562</course><hAcc>0.882376</hAcc><vAcc>0.695388</vAcc></extensions></trkpt>
      <trkpt lon="-4.112478" lat="53.011834"><ele>71.766350</ele><time>2021-07-17T15:05:01Z</time><extensions><speed>1.416047</speed><course>310.983948</course><hAcc>0.882838</hAcc><vAcc>0.696823</vAcc></extensions></trkpt>
      <trkpt lon="-4.112457" lat="53.011832"><ele>71.740173</ele><time>2021-07-17T15:05:02Z</time><extensions><speed>1.411756</speed><course>316.824890</course><hAcc>0.883321</hAcc><vAcc>0.698242</vAcc></extensions></trkpt>
      <trkpt lon="-4.112436" lat="53.011830"><ele>71.715958</ele><time>2021-07-17T15:05:03Z</time><extensions><speed>1.411364</speed><course>324.005005</course><hAcc>0.883835</hAcc><vAcc>0.699655</vAcc></extensions></trkpt>
      <trkpt lon="-4.112415" lat="53.011828"><ele>71.692215</ele><time>2021-07-17T15:05:04Z</time><extensions><speed>1.415080</speed><course>322.091736</course><hAcc>0.884400</hAcc><vAcc>0.701077</vAcc></extensions></trkpt>
      <trkpt lon="-4.112395" lat="53.011825"><ele>71.666908</ele><time>2021-07-17T15:05:05Z</time><extensions><speed>1.423051</speed><course>322.830170</course><hAcc>0.885045</hAcc><vAcc>0.702530</vAcc></extensions></trkpt>
      <trkpt lon="-4.112374" lat="53.011822"><ele>71.637985</ele><time>2021-07-17T15:05:06Z</time><extensions><speed>1.434044</speed><course>325.823517</course><hAcc>0.885803</hAcc><vAcc>0.704042</vAcc></extensions></trkpt>
      <trkpt lon="-4.112353" lat="53.011820"><ele>71.604156</ele><time>2021-07-17T15:05:07Z</time><extensions><speed>1.445058</speed><course>331.853210</course><hAcc>0.886714</hAcc><vAcc>0.705640</vAcc></extensions></trkpt>
      <trkpt lon="-4.112332" lat="53.011817"><ele>71.565369</ele><time>2021-07-17T15:05:08Z</time><extensions><speed>1.453226</speed><course>331.260956</course><hAcc>0.887819</hAcc><vAcc>0.707350</vAcc></extensions></trkpt>
      <trkpt lon="-4.112311" lat="53.011813"><ele>71.522812</ele><time>2021-07-17T15:05:09Z</time><extensions><speed>1.456866</speed><course>329.072571</course><hAcc>0.889156</hAcc><vAcc>0.709184</vAcc></extensions></trkpt>
      <trkpt lon="-4.112290" lat="53.011810"><ele>71.478165</ele><time>2021-07-17T15:05:10Z</time><extensions><speed>1.454954</speed><course>325.473938</course><hAcc>0.890749</hAcc><vAcc>0.711140</vAcc></extensions></trkpt>
      <trkpt lon="-4.112269" lat="53.011807"><ele>71.432228</ele><time>2021-07-17T15:05:11Z</time><extensions><speed>1.446854</speed><course>325.383026</course><hAcc>0.892600</hAcc><vAcc>0.713185</vAcc></extensions></trkpt>
      <trkpt lon="-4.112248" lat="53.011804"><ele>71.384468</ele><time>2021-07-17T15:05:12Z</time><extensions><speed>1.432854</speed><course>325.061401</course><hAcc>0.894677</hAcc><vAcc>0.715252</vAcc></extensions></trkpt>
      <trkpt lon="-4.112228" lat="53.011801"><ele>71.333832</ele><time>2021-07-17T15:05:13Z</time><extensions><speed>1.413877</speed><course>325.207275</course><hAcc>0.896899</hAcc><vAcc>0.717230</vAcc></extensions></trkpt>
      <trkpt lon="-4.112207" lat="53.011797"><ele>71.279442</ele><time>2021-07-17T15:05:14Z</time><extensions><speed>1.390988</speed><course>322.410889</course><hAcc>0.899134</hAcc><vAcc>0.718977</vAcc></extensions></trkpt>
      <trkpt lon="-4.112188" lat="53.011794"><ele>71.220673</ele><time>2021-07-17T15:05:15Z</time><extensions><speed>1.365694</speed><course>319.218658</course><hAcc>0.901196</hAcc><vAcc>0.720326</vAcc></extensions></trkpt>
      <trkpt lon="-4.112168" lat="53.011791"><ele>71.157471</ele><time>2021-07-17T15:05:16Z</time><extensions><speed>1.339026</speed><course>319.790588</course><hAcc>0.902872</hAcc><vAcc>0.721125</vAcc></extensions></trkpt>
      <trkpt lon="-4.112149" lat="53.011788"><ele>71.090042</ele><time>2021-07-17T15:05:17Z</time><extensions><speed>1.311212</speed><course>318.972229</course><hAcc>0.903971</hAcc><vAcc>0.721296</vAcc></extensions></trkpt>
      <trkpt lon="-4.112130" lat="53.011785"><ele>71.018257</ele><time>2021-07-17T15:05:18Z</time><extensions><speed>1.282821</speed><course>320.354065</course><hAcc>0.904425</hAcc><vAcc>0.720925</vAcc></extensions></trkpt>
      <trkpt lon="-4.112112" lat="53.011782"><ele>70.941841</ele><time>2021-07-17T15:05:19Z</time><extensions><speed>1.255513</speed><course>320.541016</course><hAcc>0.904460</hAcc><vAcc>0.720410</vAcc></extensions></trkpt>
      <trkpt lon="-4.112094" lat="53.011779"><ele>70.860909</ele><time>2021-07-17T15:05:20Z</time><extensions><speed>1.231010</speed><course>317.906189</course><hAcc>0.904850</hAcc><vAcc>0.720654</vAcc></extensions></trkpt>
      <trkpt lon="-4.112077" lat="53.011777"><ele>70.776245</ele><time>2021-07-17T15:05:21Z</time><extensions><speed>1.210241</speed><course>316.077393</course><hAcc>0.907283</hAcc><vAcc>0.723315</vAcc></extensions></trkpt>
      <trkpt lon="-4.112059" lat="53.011774"><ele>70.688721</ele><time>2021-07-17T15:05:22Z</time><extensions><speed>1.194047</speed><course>307.356537</course><hAcc>0.914814</hAcc><vAcc>0.731064</vAcc></extensions></trkpt>
      <trkpt lon="-4.112042" lat="53.011771"><ele>70.598633</ele><time>2021-07-17T15:05:23Z</time><extensions><speed>1.182855</speed><course>302.004150</course><hAcc>0.932282</hAcc><vAcc>0.747747</vAcc></extensions></trkpt>
      <trkpt lon="-4.112025" lat="53.011769"><ele>70.506050</ele><time>2021-07-17T15:05:24Z</time><extensions><speed>1.176009</speed><course>310.520874</course><hAcc>0.966465</hAcc><vAcc>0.778304</vAcc></extensions></trkpt>
      <trkpt lon="-4.112008" lat="53.011767"><ele>70.229874</ele><time>2021-07-17T15:05:25Z</time><extensions><speed>1.223699</speed><course>207.637573</course><hAcc>0.929434</hAcc><vAcc>0.745398</vAcc></extensions></trkpt>
      <trkpt lon="-4.111990" lat="53.011768"><ele>70.095848</ele><time>2021-07-17T15:05:26Z</time><extensions><speed>1.243134</speed><course>199.781464</course><hAcc>0.910269</hAcc><vAcc>0.724607</vAcc></extensions></trkpt>
      <trkpt lon="-4.111971" lat="53.011770"><ele>69.958878</ele><time>2021-07-17T15:05:27Z</time><extensions><speed>1.264910</speed><course>204.898392</course><hAcc>0.902375</hAcc><vAcc>0.714190</vAcc></extensions></trkpt>
      <trkpt lon="-4.111952" lat="53.011771"><ele>69.818771</ele><time>2021-07-17T15:05:28Z</time><extensions><speed>1.287581</speed><course>218.988647</course><hAcc>0.900232</hAcc><vAcc>0.709876</vAcc></extensions></trkpt>
      <trkpt lon="-4.111933" lat="53.011774"><ele>69.675499</ele><time>2021-07-17T15:05:29Z</time><extensions><speed>1.309950</speed><course>240.875916</course><hAcc>0.900348</hAcc><vAcc>0.708659</vAcc></extensions></trkpt>
      <trkpt lon="-4.111914" lat="53.011776"><ele>69.529762</ele><time>2021-07-17T15:05:30Z</time><extensions><speed>1.331406</speed><course>240.875916</course><hAcc>0.900800</hAcc><vAcc>0.708655</vAcc></extensions></trkpt>
      <trkpt lon="-4.111895" lat="53.011779"><ele>69.382683</ele><time>2021-07-17T15:05:31Z</time><extensions><speed>1.351403</speed><course>240.875916</course><hAcc>0.900716</hAcc><vAcc>0.708818</vAcc></extensions></trkpt>
      <trkpt lon="-4.111875" lat="53.011783"><ele>69.234970</ele><time>2021-07-17T15:05:32Z</time><extensions><speed>1.369222</speed><course>240.875916</course><hAcc>0.899859</hAcc><vAcc>0.708673</vAcc></extensions></trkpt>
      <trkpt lon="-4.111856" lat="53.011787"><ele>69.086990</ele><time>2021-07-17T15:05:33Z</time><extensions><speed>1.384165</speed><course>240.875916</course><hAcc>0.898323</hAcc><vAcc>0.708087</vAcc></extensions></trkpt>
      <trkpt lon="-4.111837" lat="53.011791"><ele>68.938873</ele><time>2021-07-17T15:05:35Z</time><extensions><speed>1.395856</speed><course>240.875916</course><hAcc>0.896322</hAcc><vAcc>0.707105</vAcc></extensions></trkpt>
      <trkpt lon="-4.111817" lat="53.011796"><ele>68.791267</ele><time>2021-07-17T15:05:36Z</time><extensions><speed>1.404000</speed><course>269.430084</course><hAcc>0.894114</hAcc><vAcc>0.705865</vAcc></extensions></trkpt>
      <trkpt lon="-4.111798" lat="53.011801"><ele>68.644638</ele><time>2021-07-17T15:05:37Z</time><extensions><speed>1.408277</speed><course>274.056000</course><hAcc>0.891931</hAcc><vAcc>0.704526</vAcc></extensions></trkpt>
      <trkpt lon="-4.111779" lat="53.011807"><ele>68.499977</ele><time>2021-07-17T15:05:38Z</time><extensions><speed>1.408233</speed><course>273.580658</course><hAcc>0.889926</hAcc><vAcc>0.703207</vAcc></extensions></trkpt>
      <trkpt lon="-4.111761" lat="53.011813"><ele>68.357956</ele><time>2021-07-17T15:05:39Z</time><extensions><speed>1.404730</speed><course>266.285736</course><hAcc>0.888188</hAcc><vAcc>0.701986</vAcc></extensions></trkpt>
      <trkpt lon="-4.111743" lat="53.011819"><ele>68.218140</ele><time>2021-07-17T15:05:40Z</time><extensions><speed>1.399108</speed><course>280.416809</course><hAcc>0.886751</hAcc><vAcc>0.700904</vAcc></extensions></trkpt>
      <trkpt lon="-4.111725" lat="53.011826"><ele>68.079750</ele><time>2021-07-17T15:05:41Z</time><extensions><speed>1.392143</speed><course>289.633057</course><hAcc>0.885609</hAcc><vAcc>0.699967</vAcc></extensions></trkpt>
      <trkpt lon="-4.111708" lat="53.011833"><ele>67.942719</ele><time>2021-07-17T15:05:42Z</time><extensions><speed>1.385852</speed><course>274.042023</course><hAcc>0.884729</hAcc><vAcc>0.699160</vAcc></extensions></trkpt>
      <trkpt lon="-4.111691" lat="53.011840"><ele>67.807686</ele><time>2021-07-17T15:05:43Z</time><extensions><speed>1.382838</speed><course>259.398621</course><hAcc>0.884069</hAcc><vAcc>0.698456</vAcc></extensions></trkpt>
      <trkpt lon="-4.111675" lat="53.011848"><ele>67.675163</ele><time>2021-07-17T15:05:44Z</time><extensions><speed>1.385228</speed><course>235.228027</course><hAcc>0.883580</hAcc><vAcc>0.697829</vAcc></extensions></trkpt>
      <trkpt lon="-4.111659" lat="53.011856"><ele>67.545105</ele><time>2021-07-17T15:05:45Z</time><extensions><speed>1.393695</speed><course>233.943741</course><hAcc>0.883221</hAcc><vAcc>0.697261</vAcc></extensions></trkpt>
      <trkpt lon="-4.111644" lat="53.011864"><ele>67.417679</ele><time>2021-07-17T15:05:46Z</time><extensions><speed>1.407621</speed><course>251.986771</course><hAcc>0.882954</hAcc><vAcc>0.696742</vAcc></extensions></trkpt>
      <trkpt lon="-4.111628" lat="53.011873"><ele>67.293510</ele><time>2021-07-17T15:05:47Z</time><extensions><speed>1.426685</speed><course>230.632401</course><hAcc>0.882751</hAcc><vAcc>0.696267</vAcc></extensions></trkpt>
      <trkpt lon="-4.111613" lat="53.011882"><ele>67.173668</ele><time>2021-07-17T15:05:48Z</time><extensions><speed>1.449965</speed><course>208.539734</course><hAcc>0.882592</hAcc><vAcc>0.695832</vAcc></extensions></trkpt>
      <trkpt lon="-4.111597" lat="53.011891"><ele>67.059196</ele><time>2021-07-17T15:05:49Z</time><extensions><speed>1.475964</speed><course>217.062653</course><hAcc>0.882466</hAcc><vAcc>0.695443</vAcc></extensions></trkpt>
      <trkpt lon="-4.111581" lat="53.011900"><ele>66.950401</ele><time>2021-07-17T15:05:50Z</time><extensions><speed>1.502943</speed><course>216.480164</course><hAcc>0.882365</hAcc><vAcc>0.695104</vAcc></extensions></trkpt>
      <trkpt lon="-4.111566" lat="53.011910"><ele>66.847443</ele><time>2021-07-17T15:05:51Z</time><extensions><speed>1.529477</speed><course>215.204285</course><hAcc>0.882288</hAcc><vAcc>0.694823</vAcc></extensions></trkpt>
      <trkpt lon="-4.111550" lat="53.011920"><ele>66.751038</ele><time>2021-07-17T15:05:52Z</time><extensions><speed>1.554930</speed><course>192.608246</course><hAcc>0.882235</hAcc><vAcc>0.694610</vAcc></extensions></trkpt>
      <trkpt lon="-4.111533" lat="53.011930"><ele>66.662628</ele><time>2021-07-17T15:05:53Z</time><extensions><speed>1.579032</speed><course>196.818375</course><hAcc>0.882210</hAcc><vAcc>0.694484</vAcc></extensions></trkpt>
      <trkpt lon="-4.111517" lat="53.011940"><ele>66.583771</ele><time>2021-07-17T15:05:54Z</time><extensions><speed>1.601720</speed><course>200.564194</course><hAcc>0.882218</hAcc><vAcc>0.694464</vAcc></extensions></trkpt>
      <trkpt lon="-4.111500" lat="53.011951"><ele>66.514977</ele><time>2021-07-17T15:05:55Z</time><extensions><speed>1.622750</speed><course>224.718231</course><hAcc>0.882263</hAcc><vAcc>0.694575</vAcc></extensions></trkpt>
      <trkpt lon="-4.111483" lat="53.011961"><ele>66.455368</ele><time>2021-07-17T15:05:56Z</time><extensions><speed>1.641690</speed><course>228.969803</course><hAcc>0.882347</hAcc><vAcc>0.694834</vAcc></extensions></trkpt>
      <trkpt lon="-4.111466" lat="53.011972"><ele>66.403580</ele><time>2021-07-17T15:05:57Z</time><extensions><speed>1.657973</speed><course>250.366501</course><hAcc>0.882472</hAcc><vAcc>0.695250</vAcc></extensions></trkpt>
      <trkpt lon="-4.111449" lat="53.011983"><ele>66.358482</ele><time>2021-07-17T15:05:58Z</time><extensions><speed>1.670691</speed><course>-1.000000</course><hAcc>0.882637</hAcc><vAcc>0.695819</vAcc></extensions></trkpt>
      <trkpt lon="-4.111433" lat="53.011994"><ele>66.319305</ele><time>2021-07-17T15:05:59Z</time><extensions><speed>1.678989</speed><course>232.063629</course><hAcc>0.882837</hAcc><vAcc>0.696525</vAcc></extensions></trkpt>
      <trkpt lon="-4.111416" lat="53.012005"><ele>66.285721</ele><time>2021-07-17T15:06:00Z</time><extensions><speed>1.681994</speed><course>232.063614</course><hAcc>0.883066</hAcc><vAcc>0.697339</vAcc></extensions></trkpt>
      <trkpt lon="-4.111399" lat="53.012017"><ele>66.257530</ele><time>2021-07-17T15:06:01Z</time><extensions><speed>1.679360</speed><course>232.063614</course><hAcc>0.883315</hAcc><vAcc>0.698225</vAcc></extensions></trkpt>
      <trkpt lon="-4.111383" lat="53.012028"><ele>66.234032</ele><time>2021-07-17T15:06:02Z</time><extensions><speed>1.671639</speed><course>232.063599</course><hAcc>0.883577</hAcc><vAcc>0.699144</vAcc></extensions></trkpt>
      <trkpt lon="-4.111367" lat="53.012039"><ele>66.214310</ele><time>2021-07-17T15:06:03Z</time><extensions><speed>1.659368</speed><course>232.063599</course><hAcc>0.883841</hAcc><vAcc>0.700061</vAcc></extensions></trkpt>
      <trkpt lon="-4.111351" lat="53.012051"><ele>66.198158</ele><time>2021-07-17T15:06:04Z</time><extensions><speed>1.643188</speed><course>232.063583</course><hAcc>0.884098</hAcc><vAcc>0.700943</vAcc></extensions></trkpt>
      <trkpt lon="-4.111336" lat="53.012063"><ele>66.186317</ele><time>2021-07-17T15:06:05Z</time><extensions><speed>1.623950</speed><course>232.063583</course><hAcc>0.884342</hAcc><vAcc>0.701765</vAcc></extensions></trkpt>
      <trkpt lon="-4.111322" lat="53.012074"><ele>66.179466</ele><time>2021-07-17T15:06:06Z</time><extensions><speed>1.602844</speed><course>248.555511</course><hAcc>0.884567</hAcc><vAcc>0.702505</vAcc></extensions></trkpt>
      <trkpt lon="-4.111308" lat="53.012085"><ele>66.177269</ele><time>2021-07-17T15:06:07Z</time><extensions><speed>1.581507</speed><course>214.727661</course><hAcc>0.884768</hAcc><vAcc>0.703150</vAcc></extensions></trkpt>
      <trkpt lon="-4.111294" lat="53.012097"><ele>66.178726</ele><time>2021-07-17T15:06:08Z</time><extensions><speed>1.561402</speed><course>215.656113</course><hAcc>0.884944</hAcc><vAcc>0.703691</vAcc></extensions></trkpt>
      <trkpt lon="-4.111281" lat="53.012108"><ele>66.183167</ele><time>2021-07-17T15:06:09Z</time><extensions><speed>1.543320</speed><course>205.637772</course><hAcc>0.885093</hAcc><vAcc>0.704129</vAcc></extensions></trkpt>
      <trkpt lon="-4.111268" lat="53.012120"><ele>66.190628</ele><time>2021-07-17T15:06:10Z</time><extensions><speed>1.527606</speed><course>201.575424</course><hAcc>0.885219</hAcc><vAcc>0.704471</vAcc></extensions></trkpt>
      <trkpt lon="-4.111255" lat="53.012131"><ele>66.201195</ele><time>2021-07-17T15:06:11Z</time><extensions><speed>1.514308</speed><course>196.854248</course><hAcc>0.885323</hAcc><vAcc>0.704735</vAcc></extensions></trkpt>
      <trkpt lon="-4.111243" lat="53.012142"><ele>66.214149</ele><time>2021-07-17T15:06:12Z</time><extensions><speed>1.503336</speed><course>198.264053</course><hAcc>0.885409</hAcc><vAcc>0.704941</vAcc></extensions></trkpt>
      <trkpt lon="-4.111231" lat="53.012154"><ele>66.228233</ele><time>2021-07-17T15:06:13Z</time><extensions><speed>1.494443</speed><course>198.636932</course><hAcc>0.885483</hAcc><vAcc>0.705112</vAcc></extensions></trkpt>
      <trkpt lon="-4.111219" lat="53.012165"><ele>66.242722</ele><time>2021-07-17T15:06:14Z</time><extensions><speed>1.487332</speed><course>192.727798</course><hAcc>0.885548</hAcc><vAcc>0.705268</vAcc></extensions></trkpt>
      <trkpt lon="-4.111207" lat="53.012177"><ele>66.257568</ele><time>2021-07-17T15:06:15Z</time><extensions><speed>1.482284</speed><course>184.691818</course><hAcc>0.885607</hAcc><vAcc>0.705427</vAcc></extensions></trkpt>
      <trkpt lon="-4.111196" lat="53.012188"><ele>66.272270</ele><time>2021-07-17T15:06:16Z</time><extensions><speed>1.479864</speed><course>177.917740</course><hAcc>0.885662</hAcc><vAcc>0.705601</vAcc></extensions></trkpt>
      <trkpt lon="-4.111185" lat="53.012199"><ele>66.285393</ele><time>2021-07-17T15:06:17Z</time><extensions><speed>1.480195</speed><course>169.935883</course><hAcc>0.885717</hAcc><vAcc>0.705789</vAcc></extensions></trkpt>
      <trkpt lon="-4.111174" lat="53.012211"><ele>66.295296</ele><time>2021-07-17T15:06:18Z</time><extensions><speed>1.482718</speed><course>168.290512</course><hAcc>0.885770</hAcc><vAcc>0.705987</vAcc></extensions></trkpt>
      <trkpt lon="-4.111163" lat="53.012222"><ele>66.300850</ele><time>2021-07-17T15:06:19Z</time><extensions><speed>1.485802</speed><course>175.847488</course><hAcc>0.885820</hAcc><vAcc>0.706183</vAcc></extensions></trkpt>
      <trkpt lon="-4.111152" lat="53.012234"><ele>66.301659</ele><time>2021-07-17T15:06:20Z</time><extensions><speed>1.487336</speed><course>182.489380</course><hAcc>0.885866</hAcc><vAcc>0.706367</vAcc></extensions></trkpt>
      <trkpt lon="-4.111141" lat="53.012246"><ele>66.297623</ele><time>2021-07-17T15:06:21Z</time><extensions><speed>1.486396</speed><course>193.224472</course><hAcc>0.885907</hAcc><vAcc>0.706526</vAcc></extensions></trkpt>
      <trkpt lon="-4.111130" lat="53.012257"><ele>66.288193</ele><time>2021-07-17T15:06:22Z</time><extensions><speed>1.483024</speed><course>210.457108</course><hAcc>0.885939</hAcc><vAcc>0.706652</vAcc></extensions></trkpt>
      <trkpt lon="-4.111119" lat="53.012269"><ele>66.272354</ele><time>2021-07-17T15:06:23Z</time><extensions><speed>1.477263</speed><course>227.054108</course><hAcc>0.885962</hAcc><vAcc>0.706742</vAcc></extensions></trkpt>
      <trkpt lon="-4.111108" lat="53.012280"><ele>66.249466</ele><time>2021-07-17T15:06:24Z</time><extensions><speed>1.468611</speed><course>247.666534</course><hAcc>0.885973</hAcc><vAcc>0.706791</vAcc></extensions></trkpt>
      <trkpt lon="-4.111097" lat="53.012292"><ele>66.220146</ele><time>2021-07-17T15:06:25Z</time><extensions><speed>1.456316</speed><course>261.197876</course><hAcc>0.885973</hAcc><vAcc>0.706799</vAcc></extensions></trkpt>
      <trkpt lon="-4.111086" lat="53.012303"><ele>66.186096</ele><time>2021-07-17T15:06:26Z</time><extensions><speed>1.440657</speed><course>263.217255</course><hAcc>0.885961</hAcc><vAcc>0.706764</vAcc></extensions></trkpt>
      <trkpt lon="-4.111075" lat="53.012314"><ele>66.148987</ele><time>2021-07-17T15:06:27Z</time><extensions><speed>1.422711</speed><course>271.463165</course><hAcc>0.885937</hAcc><vAcc>0.706681</vAcc></extensions></trkpt>
      <trkpt lon="-4.111064" lat="53.012325"><ele>66.109612</ele><time>2021-07-17T15:06:28Z</time><extensions><speed>1.403905</speed><course>281.991608</course><hAcc>0.885905</hAcc><vAcc>0.706550</vAcc></extensions></trkpt>
      <trkpt lon="-4.111054" lat="53.012336"><ele>66.068176</ele><time>2021-07-17T15:06:29Z</time><extensions><speed>1.385496</speed><course>285.895782</course><hAcc>0.885865</hAcc><vAcc>0.706376</vAcc></extensions></trkpt>
      <trkpt lon="-4.111043" lat="53.012346"><ele>66.025024</ele><time>2021-07-17T15:06:30Z</time><extensions><speed>1.368442</speed><course>287.327179</course><hAcc>0.885821</hAcc><vAcc>0.706178</vAcc></extensions></trkpt>
      <trkpt lon="-4.111032" lat="53.012356"><ele>65.980858</ele><time>2021-07-17T15:06:31Z</time><extensions><speed>1.354047</speed><course>297.396240</course><hAcc>0.885775</hAcc><vAcc>0.705977</vAcc></extensions></trkpt>
      <trkpt lon="-4.111020" lat="53.012366"><ele>65.936783</ele><time>2021-07-17T15:06:32Z</time><extensions><speed>1.343414</speed><course>299.473175</course><hAcc>0.885727</hAcc><vAcc>0.705795</vAcc></extensions></trkpt>
      <trkpt lon="-4.111009" lat="53.012376"><ele>65.894028</ele><time>2021-07-17T15:06:33Z</time><extensions><speed>1.337125</speed><course>297.683289</course><hAcc>0.885680</hAcc><vAcc>0.705643</vAcc></extensions></trkpt>
      <trkpt lon="-4.110996" lat="53.012386"><ele>65.853127</ele><time>2021-07-17T15:06:34Z</time><extensions><speed>1.334686</speed><course>292.365356</course><hAcc>0.885632</hAcc><vAcc>0.705525</vAcc></extensions></trkpt>
      <trkpt lon="-4.110984" lat="53.012395"><ele>65.813995</ele><time>2021-07-17T15:06:35Z</time><extensions><speed>1.334469</speed><course>291.092651</course><hAcc>0.885582</hAcc><vAcc>0.705427</vAcc></extensions></trkpt>
      <trkpt lon="-4.110971" lat="53.012404"><ele>65.776733</ele><time>2021-07-17T15:06:36Z</time><extensions><speed>1.334582</speed><course>297.007721</course><hAcc>0.885525</hAcc><vAcc>0.705326</vAcc></extensions></trkpt>
      <trkpt lon="-4.110957" lat="53.012413"><ele>65.742172</ele><time>2021-07-17T15:06:37Z</time><extensions><speed>1.333461</speed><course>291.539093</course><hAcc>0.885458</hAcc><vAcc>0.705200</vAcc></extensions></trkpt>
      <trkpt lon="-4.110944" lat="53.012421"><ele>65.711693</ele><time>2021-07-17T15:06:38Z</time><extensions><speed>1.330325</speed><course>293.314819</course><hAcc>0.885376</hAcc><vAcc>0.705025</vAcc></extensions></trkpt>
      <trkpt lon="-4.110930" lat="53.012430"><ele>65.686134</ele><time>2021-07-17T15:06:39Z</time><extensions><speed>1.325701</speed><course>297.043213</course><hAcc>0.885274</hAcc><vAcc>0.704781</vAcc></extensions></trkpt>
      <trkpt lon="-4.110916" lat="53.012438"><ele>65.665131</ele><time>2021-07-17T15:06:40Z</time><extensions><speed>1.320558</speed><course>301.573547</course><hAcc>0.885148</hAcc><vAcc>0.704451</vAcc></extensions></trkpt>
      <trkpt lon="-4.110901" lat="53.012446"><ele>65.647697</ele><time>2021-07-17T15:06:40Z</time><extensions><speed>1.315443</speed><course>305.542847</course><hAcc>0.885013</hAcc><vAcc>0.704037</vAcc></extensions></trkpt>
      <trkpt lon="-4.110887" lat="53.012454"><ele>65.633080</ele><time>2021-07-17T15:06:41Z</time><extensions><speed>1.310981</speed><course>304.461029</course><hAcc>0.884867</hAcc><vAcc>0.703534</vAcc></extensions></trkpt>
      <trkpt lon="-4.110873" lat="53.012462"><ele>65.620972</ele><time>2021-07-17T15:06:42Z</time><extensions><speed>1.307475</speed><course>304.519958</course><hAcc>0.884695</hAcc><vAcc>0.702934</vAcc></extensions></trkpt>
      <trkpt lon="-4.110858" lat="53.012470"><ele>65.611351</ele><time>2021-07-17T15:06:43Z</time><extensions><speed>1.305325</speed><course>306.835541</course><hAcc>0.884498</hAcc><vAcc>0.702249</vAcc></extensions></trkpt>
      <trkpt lon="-4.110844" lat="53.012478"><ele>65.604012</ele><time>2021-07-17T15:06:44Z</time><extensions><speed>1.305813</speed><course>312.924469</course><hAcc>0.884279</hAcc><vAcc>0.701496</vAcc></extensions></trkpt>
      <trkpt lon="-4.110830" lat="53.012487"><ele>65.597710</ele><time>2021-07-17T15:06:45Z</time><extensions><speed>1.310630</speed><course>313.121582</course><hAcc>0.884043</hAcc><vAcc>0.700694</vAcc></extensions></trkpt>
      <trkpt lon="-4.110816" lat="53.012495"><ele>65.589920</ele><time>2021-07-17T15:06:46Z</time><extensions><speed>1.320837</speed><course>312.363678</course><hAcc>0.883792</hAcc><vAcc>0.699863</vAcc></extensions></trkpt>
      <trkpt lon="-4.110802" lat="53.012503"><ele>65.577751</ele><time>2021-07-17T15:06:47Z</time><extensions><speed>1.336569</speed><course>309.905548</course><hAcc>0.883531</hAcc><vAcc>0.699018</vAcc></extensions></trkpt>
      <trkpt lon="-4.110788" lat="53.012512"><ele>65.558922</ele><time>2021-07-17T15:06:48Z</time><extensions><speed>1.357405</speed><course>308.597687</course><hAcc>0.883263</hAcc><vAcc>0.698169</vAcc></extensions></trkpt>
      <trkpt lon="-4.110774" lat="53.012521"><ele>65.531853</ele><time>2021-07-17T15:06:49Z</time><extensions><speed>1.382522</speed><course>307.103394</course><hAcc>0.882989</hAcc><vAcc>0.697313</vAcc></extensions></trkpt>
      <trkpt lon="-4.110760" lat="53.012530"><ele>65.495300</ele><time>2021-07-17T15:06:50Z</time><extensions><speed>1.411158</speed><course>306.897400</course><hAcc>0.882712</hAcc><vAcc>0.696446</vAcc></extensions></trkpt>
      <trkpt lon="-4.110746" lat="53.012540"><ele>65.447708</ele><time>2021-07-17T15:06:51Z</time><extensions><speed>1.442857</speed><course>302.152618</course><hAcc>0.882435</hAcc><vAcc>0.695569</vAcc></extensions></trkpt>
      <trkpt lon="-4.110732" lat="53.012549"><ele>65.387024</ele><time>2021-07-17T15:06:52Z</time><extensions><speed>1.477147</speed><course>297.726410</course><hAcc>0.882159</hAcc><vAcc>0.694690</vAcc></extensions></trkpt>
      <trkpt lon="-4.110717" lat="53.012560"><ele>65.311584</ele><time>2021-07-17T15:06:53Z</time><extensions><speed>1.512752</speed><course>300.194183</course><hAcc>0.881890</hAcc><vAcc>0.693818</vAcc></extensions></trkpt>
      <trkpt lon="-4.110702" lat="53.012570"><ele>65.220940</ele><time>2021-07-17T15:06:54Z</time><extensions><speed>1.548269</speed><course>297.151825</course><hAcc>0.881629</hAcc><vAcc>0.692963</vAcc></extensions></trkpt>
      <trkpt lon="-4.110687" lat="53.012581"><ele>65.115891</ele><time>2021-07-17T15:06:55Z</time><extensions><speed>1.582466</speed><course>298.399384</course><hAcc>0.881380</hAcc><vAcc>0.692138</vAcc></extensions></trkpt>
      <trkpt lon="-4.110673" lat="53.012592"><ele>64.998314</ele><time>2021-07-17T15:06:56Z</time><extensions><speed>1.614076</speed><course>300.837921</course><hAcc>0.881149</hAcc><vAcc>0.691362</vAcc></extensions></trkpt>
      <trkpt lon="-4.110658" lat="53.012604"><ele>64.870163</ele><time>2021-07-17T15:06:57Z</time><extensions><speed>1.641243</speed><course>299.844330</course><hAcc>0.880938</hAcc><vAcc>0.690660</vAcc></extensions></trkpt>
      <trkpt lon="-4.110643" lat="53.012615"><ele>64.732979</ele><time>2021-07-17T15:06:58Z</time><extensions><speed>1.660710</speed><course>300.001373</course><hAcc>0.880751</hAcc><vAcc>0.690053</vAcc></extensions></trkpt>
      <trkpt lon="-4.110628" lat="53.012628"><ele>64.588791</ele><time>2021-07-17T15:06:59Z</time><extensions><speed>1.669532</speed><course>294.568817</course><hAcc>0.880589</hAcc><vAcc>0.689551</vAcc></extensions></trkpt>
      <trkpt lon="-4.110614" lat="53.012640"><ele>64.440742</ele><time>2021-07-17T15:07:00Z</time><extensions><speed>1.665791</speed><course>300.687103</course><hAcc>0.880450</hAcc><vAcc>0.689144</vAcc></extensions></trkpt>
      <trkpt lon="-4.110600" lat="53.012652"><ele>64.292892</ele><time>2021-07-17T15:07:01Z</time><extensions><speed>1.649034</speed><course>297.691925</course><hAcc>0.880329</hAcc><vAcc>0.688810</vAcc></extensions></trkpt>
      <trkpt lon="-4.110586" lat="53.012664"><ele>64.149246</ele><time>2021-07-17T15:07:02Z</time><extensions><speed>1.620570</speed><course>293.928223</course><hAcc>0.880219</hAcc><vAcc>0.688517</vAcc></extensions></trkpt>
      <trkpt lon="-4.110573" lat="53.012676"><ele>64.012650</ele><time>2021-07-17T15:07:03Z</time><extensions><speed>1.581998</speed><course>297.041656</course><hAcc>0.880115</hAcc><vAcc>0.688239</vAcc></extensions></trkpt>
      <trkpt lon="-4.110561" lat="53.012688"><ele>63.885315</ele><time>2021-07-17T15:07:04Z</time><extensions><speed>1.534693</speed><course>298.722290</course><hAcc>0.880009</hAcc><vAcc>0.687954</vAcc></extensions></trkpt>
      <trkpt lon="-4.110549" lat="53.012700"><ele>63.769531</ele><time>2021-07-17T15:07:05Z</time><extensions><speed>1.480237</speed><course>296.674316</course><hAcc>0.879896</hAcc><vAcc>0.687644</vAcc></extensions></trkpt>
      <trkpt lon="-4.110538" lat="53.012711"><ele>63.667439</ele><time>2021-07-17T15:07:06Z</time><extensions><speed>1.420435</speed><course>301.147156</course><hAcc>0.879768</hAcc><vAcc>0.687290</vAcc></extensions></trkpt>
      <trkpt lon="-4.110527" lat="53.012721"><ele>63.580936</ele><time>2021-07-17T15:07:07Z</time><extensions><speed>1.357607</speed><course>301.618805</course><hAcc>0.879620</hAcc><vAcc>0.686870</vAcc></extensions></trkpt>
      <trkpt lon="-4.110516" lat="53.012732"><ele>63.511768</ele><time>2021-07-17T15:07:08Z</time><extensions><speed>1.294562</speed><course>300.678009</course><hAcc>0.879446</hAcc><vAcc>0.686364</vAcc></extensions></trkpt>
      <trkpt lon="-4.110506" lat="53.012741"><ele>63.460819</ele><time>2021-07-17T15:07:09Z</time><extensions><speed>1.234152</speed><course>306.078644</course><hAcc>0.879243</hAcc><vAcc>0.685757</vAcc></extensions></trkpt>
      <trkpt lon="-4.110496" lat="53.012750"><ele>63.427277</ele><time>2021-07-17T15:07:10Z</time><extensions><speed>1.178838</speed><course>302.099213</course><hAcc>0.879008</hAcc><vAcc>0.685043</vAcc></extensions></trkpt>
      <trkpt lon="-4.110485" lat="53.012758"><ele>63.408916</ele><time>2021-07-17T15:07:11Z</time><extensions><speed>1.130126</speed><course>298.253754</course><hAcc>0.878743</hAcc><vAcc>0.684222</vAcc></extensions></trkpt>
      <trkpt lon="-4.110475" lat="53.012766"><ele>63.403049</ele><time>2021-07-17T15:07:12Z</time><extensions><speed>1.089195</speed><course>299.772583</course><hAcc>0.878450</hAcc><vAcc>0.683301</vAcc></extensions></trkpt>
      <trkpt lon="-4.110464" lat="53.012773"><ele>63.407127</ele><time>2021-07-17T15:07:13Z</time><extensions><speed>1.056865</speed><course>299.946075</course><hAcc>0.878135</hAcc><vAcc>0.682288</vAcc></extensions></trkpt>
      <trkpt lon="-4.110452" lat="53.012779"><ele>63.418690</ele><time>2021-07-17T15:07:14Z</time><extensions><speed>1.032758</speed><course>303.968170</course><hAcc>0.877805</hAcc><vAcc>0.681198</vAcc></extensions></trkpt>
      <trkpt lon="-4.110440" lat="53.012785"><ele>63.435314</ele><time>2021-07-17T15:07:15Z</time><extensions><speed>1.015900</speed><course>302.223755</course><hAcc>0.877473</hAcc><vAcc>0.680064</vAcc></extensions></trkpt>
      <trkpt lon="-4.110427" lat="53.012790"><ele>63.454777</ele><time>2021-07-17T15:07:16Z</time><extensions><speed>1.004999</speed><course>303.590851</course><hAcc>0.877154</hAcc><vAcc>0.678940</vAcc></extensions></trkpt>
      <trkpt lon="-4.110414" lat="53.012794"><ele>63.475193</ele><time>2021-07-17T15:07:17Z</time><extensions><speed>0.998465</speed><course>302.656281</course><hAcc>0.876866</hAcc><vAcc>0.677901</vAcc></extensions></trkpt>
      <trkpt lon="-4.110401" lat="53.012798"><ele>63.495258</ele><time>2021-07-17T15:07:18Z</time><extensions><speed>0.995150</speed><course>307.857574</course><hAcc>0.876627</hAcc><vAcc>0.677034</vAcc></extensions></trkpt>
      <trkpt lon="-4.110387" lat="53.012801"><ele>63.513638</ele><time>2021-07-17T15:07:19Z</time><extensions><speed>0.995038</speed><course>306.241272</course><hAcc>0.876453</hAcc><vAcc>0.676414</vAcc></extensions></trkpt>
      <trkpt lon="-4.110373" lat="53.012803"><ele>63.528191</ele><time>2021-07-17T15:07:20Z</time><extensions><speed>0.998316</speed><course>302.560516</course><hAcc>0.876354</hAcc><vAcc>0.676088</vAcc></extensions></trkpt>
      <trkpt lon="-4.110358" lat="53.012805"><ele>63.536804</ele><time>2021-07-17T15:07:21Z</time><extensions><speed>1.004505</speed><course>304.207947</course><hAcc>0.876328</hAcc><vAcc>0.676058</vAcc></extensions></trkpt>
      <trkpt lon="-4.110343" lat="53.012806"><ele>63.538116</ele><time>2021-07-17T15:07:22Z</time><extensions><speed>1.012707</speed><course>304.678192</course><hAcc>0.876365</hAcc><vAcc>0.676280</vAcc></extensions></trkpt>
      <trkpt lon="-4.110328" lat="53.012807"><ele>63.531158</ele><time>2021-07-17T15:07:23Z</time><extensions><speed>1.021816</speed><course>300.816559</course><hAcc>0.876448</hAcc><vAcc>0.676675</vAcc></extensions></trkpt>
      <trkpt lon="-4.110313" lat="53.012807"><ele>63.514957</ele><time>2021-07-17T15:07:24Z</time><extensions><speed>1.031326</speed><course>302.457642</course><hAcc>0.876556</hAcc><vAcc>0.677147</vAcc></extensions></trkpt>
      <trkpt lon="-4.110297" lat="53.012807"><ele>63.488319</ele><time>2021-07-17T15:07:25Z</time><extensions><speed>1.041684</speed><course>303.405792</course><hAcc>0.876667</hAcc><vAcc>0.677598</vAcc></extensions></trkpt>
      <trkpt lon="-4.110282" lat="53.012806"><ele>63.450008</ele><time>2021-07-17T15:07:27Z</time><extensions><speed>1.053993</speed><course>305.179382</course><hAcc>0.876745</hAcc><vAcc>0.677934</vAcc></extensions></trkpt>
      <trkpt lon="-4.110266" lat="53.012805"><ele>63.399330</ele><time>2021-07-17T15:07:28Z</time><extensions><speed>1.068756</speed><course>301.811188</course><hAcc>0.876776</hAcc><vAcc>0.678104</vAcc></extensions></trkpt>
      <trkpt lon="-4.110250" lat="53.012803"><ele>63.335423</ele><time>2021-07-17T15:07:29Z</time><extensions><speed>1.085991</speed><course>294.111877</course><hAcc>0.876775</hAcc><vAcc>0.678103</vAcc></extensions></trkpt>
      <trkpt lon="-4.110234" lat="53.012801"><ele>63.256824</ele><time>2021-07-17T15:07:30Z</time><extensions><speed>1.106238</speed><course>291.186249</course><hAcc>0.876741</hAcc><vAcc>0.677940</vAcc></extensions></trkpt>
      <trkpt lon="-4.110218" lat="53.012798"><ele>63.162228</ele><time>2021-07-17T15:07:31Z</time><extensions><speed>1.129839</speed><course>291.833313</course><hAcc>0.876684</hAcc><vAcc>0.677655</vAcc></extensions></trkpt>
      <trkpt lon="-4.110202" lat="53.012796"><ele>63.051331</ele><time>2021-07-17T15:07:32Z</time><extensions><speed>1.155871</speed><course>293.198639</course><hAcc>0.876619</hAcc><vAcc>0.677314</vAcc></extensions></trkpt>
      <trkpt lon="-4.110185" lat="53.012792"><ele>62.924702</ele><time>2021-07-17T15:07:33Z</time><extensions><speed>1.183101</speed><course>297.953094</course><hAcc>0.876565</hAcc><vAcc>0.676996</vAcc></extensions></trkpt>
      <trkpt lon="-4.110169" lat="53.012789"><ele>62.783432</ele><time>2021-07-17T15:07:34Z</time><extensions><speed>1.210848</speed><course>294.998413</course><hAcc>0.876543</hAcc><vAcc>0.676787</vAcc></extensions></trkpt>
      <trkpt lon="-4.110152" lat="53.012785"><ele>62.629051</ele><time>2021-07-17T15:07:35Z</time><extensions><speed>1.238229</speed><course>290.333923</course><hAcc>0.876574</hAcc><vAcc>0.676772</vAcc></extensions></trkpt>
      <trkpt lon="-4.110134" lat="53.012781"><ele>62.463730</ele><time>2021-07-17T15:07:36Z</time><extensions><speed>1.263938</speed><course>297.336884</course><hAcc>0.876676</hAcc><vAcc>0.677023</vAcc></extensions></trkpt>
      <trkpt lon="-4.110117" lat="53.012776"><ele>62.289856</ele><time>2021-07-17T15:07:37Z</time><extensions><speed>1.287040</speed><course>291.763641</course><hAcc>0.876861</hAcc><vAcc>0.677587</vAcc></extensions></trkpt>
      <trkpt lon="-4.110099" lat="53.012772"><ele>62.109280</ele><time>2021-07-17T15:07:38Z</time><extensions><speed>1.307416</speed><course>293.588959</course><hAcc>0.877134</hAcc><vAcc>0.678486</vAcc></extensions></trkpt>
      <trkpt lon="-4.110081" lat="53.012767"><ele>61.923782</ele><time>2021-07-17T15:07:39Z</time><extensions><speed>1.324959</speed><course>298.534668</course><hAcc>0.877494</hAcc><vAcc>0.679713</vAcc></extensions></trkpt>
      <trkpt lon="-4.110063" lat="53.012761"><ele>61.735878</ele><time>2021-07-17T15:07:40Z</time><extensions><speed>1.339116</speed><course>294.834351</course><hAcc>0.877933</hAcc><vAcc>0.681228</vAcc></extensions></trkpt>
      <trkpt lon="-4.110045" lat="53.012756"><ele>61.548321</ele><time>2021-07-17T15:07:41Z</time><extensions><speed>1.349151</speed><course>297.698059</course><hAcc>0.878433</hAcc><vAcc>0.682959</vAcc></extensions></trkpt>
      <trkpt lon="-4.110028" lat="53.012750"><ele>61.363735</ele><time>2021-07-17T15:07:42Z</time><extensions><speed>1.354557</speed><course>298.511444</course><hAcc>0.878976</hAcc><vAcc>0.684814</vAcc></extensions></trkpt>
      <trkpt lon="-4.110010" lat="53.012744"><ele>61.184593</ele><time>2021-07-17T15:07:43Z</time><extensions><speed>1.355018</speed><course>303.054443</course><hAcc>0.879538</hAcc><vAcc>0.686703</vAcc></extensions></trkpt>
      <trkpt lon="-4.109993" lat="53.012738"><ele>61.013264</ele><time>2021-07-17T15:07:44Z</time><extensions><speed>1.350331</speed><course>300.594757</course><hAcc>0.880102</hAcc><vAcc>0.688550</vAcc></extensions></trkpt>
      <trkpt lon="-4.109976" lat="53.012731"><ele>60.851830</ele><time>2021-07-17T15:07:45Z</time><extensions><speed>1.341685</speed><course>303.489990</course><hAcc>0.880653</hAcc><vAcc>0.690305</vAcc></extensions></trkpt>
      <trkpt lon="-4.109960" lat="53.012724"><ele>60.701763</ele><time>2021-07-17T15:07:46Z</time><extensions><speed>1.331012</speed><course>307.296783</course><hAcc>0.881179</hAcc><vAcc>0.691942</vAcc></extensions></trkpt>
      <trkpt lon="-4.109944" lat="53.012717"><ele>60.564217</ele><time>2021-07-17T15:07:47Z</time><extensions><speed>1.319450</speed><course>306.846466</course><hAcc>0.881678</hAcc><vAcc>0.693453</vAcc></extensions></trkpt>
      <trkpt lon="-4.109929" lat="53.012710"><ele>60.439949</ele><time>2021-07-17T15:07:48Z</time><extensions><speed>1.307648</speed><course>314.303711</course><hAcc>0.882147</hAcc><vAcc>0.694847</vAcc></extensions></trkpt>
      <trkpt lon="-4.109914" lat="53.012702"><ele>60.328796</ele><time>2021-07-17T15:07:49Z</time><extensions><speed>1.296000</speed><course>316.753265</course><hAcc>0.882593</hAcc><vAcc>0.696145</vAcc></extensions></trkpt>
      <trkpt lon="-4.109901" lat="53.012694"><ele>60.230328</ele><time>2021-07-17T15:07:50Z</time><extensions><speed>1.284650</speed><course>312.101562</course><hAcc>0.883024</hAcc><vAcc>0.697379</vAcc></extensions></trkpt>
      <trkpt lon="-4.109887" lat="53.012686"><ele>60.144432</ele><time>2021-07-17T15:07:51Z</time><extensions><speed>1.273984</speed><course>310.983948</course><hAcc>0.883456</hAcc><vAcc>0.698584</vAcc></extensions></trkpt>
      <trkpt lon="-4.109875" lat="53.012677"><ele>60.070934</ele><time>2021-07-17T15:07:52Z</time><extensions><speed>1.264255</speed><course>316.824890</course><hAcc>0.883908</hAcc><vAcc>0.699791</vAcc></extensions></trkpt>
      <trkpt lon="-4.109862" lat="53.012669"><ele>60.009243</ele><time>2021-07-17T15:07:53Z</time><extensions><speed>1.255081</speed><course>324.005005</course><hAcc>0.884404</hAcc><vAcc>0.701026</vAcc></extensions></trkpt>
      <trkpt lon="-4.109851" lat="53.012660"><ele>59.958691</ele><time>2021-07-17T15:07:54Z</time><extensions><speed>1.245692</speed><course>322.091736</course><hAcc>0.884974</hAcc><vAcc>0.702305</vAcc></extensions></trkpt>
      <trkpt lon="-4.109839" lat="53.012651"><ele>59.918694</ele><time>2021-07-17T15:07:55Z</time><extensions><speed>1.235558</speed><course>322.830170</course><hAcc>0.885653</hAcc><vAcc>0.703641</vAcc></extensions></trkpt>
      <trkpt lon="-4.109828" lat="53.012643"><ele>59.888844</ele><time>2021-07-17T15:07:56Z</time><extensions><speed>1.224718</speed><course>325.823517</course><hAcc>0.886480</hAcc><vAcc>0.705036</vAcc></extensions></trkpt>
      <trkpt lon="-4.109816" lat="53.012634"><ele>59.868950</ele><time>2021-07-17T15:07:57Z</time><extensions><speed>1.213499</speed><course>331.853210</course><hAcc>0.887498</hAcc><vAcc>0.706490</vAcc></extensions></trkpt>
      <trkpt lon="-4.109805" lat="53.012626"><ele>59.858772</ele><time>2021-07-17T15:07:58Z</time><extensions><speed>1.202175</speed><course>331.260956</course><hAcc>0.888743</hAcc><vAcc>0.708004</vAcc></extensions></trkpt>
      <trkpt lon="-4.109794" lat="53.012617"><ele>59.857677</ele><time>2021-07-17T15:07:59Z</time><extensions><speed>1.190686</speed><course>329.072571</course><hAcc>0.890241</hAcc><vAcc>0.709572</vAcc></extensions></trkpt>
      <trkpt lon="-4.109782" lat="53.012609"><ele>59.864876</ele><time>2021-07-17T15:08:00Z</time><extensions><speed>1.178887</speed><course>325.473938</course><hAcc>0.891996</hAcc><vAcc>0.711176</vAcc></extensions></trkpt>
      <trkpt lon="-4.109770" lat="53.012602"><ele>59.879673</ele><time>2021-07-17T15:08:01Z</time><extensions><speed>1.166998</speed><course>325.383026</course><hAcc>0.893979</hAcc><vAcc>0.712776</vAcc></extensions></trkpt>
      <trkpt lon="-4.109758" lat="53.012594"><ele>59.901318</ele><time>2021-07-17T15:08:02Z</time><extensions><speed>1.155149</speed><course>325.061401</course><hAcc>0.896111</hAcc><vAcc>0.714301</vAcc></extensions></trkpt>
      <trkpt lon="-4.109746" lat="53.012587"><ele>59.929043</ele><time>2021-07-17T15:08:03Z</time><extensions><speed>1.143023</speed><course>325.207275</course><hAcc>0.898260</hAcc><vAcc>0.715640</vAcc></extensions></trkpt>
      <trkpt lon="-4.109734" lat="53.012580"><ele>59.962288</ele><time>2021-07-17T15:08:04Z</time><extensions><speed>1.130303</speed><course>322.410889</course><hAcc>0.900238</hAcc><vAcc>0.716647</vAcc></extensions></trkpt>
      <trkpt lon="-4.109721" lat="53.012573"><ele>60.000824</ele><time>2021-07-17T15:08:05Z</time><extensions><speed>1.117015</speed><course>319.218658</course><hAcc>0.901826</hAcc><vAcc>0.717178</vAcc></extensions></trkpt>
      <trkpt lon="-4.109708" lat="53.012567"><ele>60.044312</ele><time>2021-07-17T15:08:06Z</time><extensions><speed>1.103285</speed><course>319.790588</course><hAcc>0.902826</hAcc><vAcc>0.717141</vAcc></extensions></trkpt>
      <trkpt lon="-4.109694" lat="53.012562"><ele>60.091236</ele><time>2021-07-17T15:08:07Z</time><extensions><speed>1.088366</speed><course>318.972229</course><hAcc>0.903167</hAcc><vAcc>0.716594</vAcc></extensions></trkpt>
      <trkpt lon="-4.109681" lat="53.012556"><ele>60.138878</ele><time>2021-07-17T15:08:08Z</time><extensions><speed>1.071326</speed><course>320.354065</course><hAcc>0.903076</hAcc><vAcc>0.715878</vAcc></extensions></trkpt>
      <trkpt lon="-4.109667" lat="53.012551"><ele>60.184425</ele><time>2021-07-17T15:08:09Z</time><extensions><speed>1.051871</speed><course>320.541016</course><hAcc>0.903346</hAcc><vAcc>0.715810</vAcc></extensions></trkpt>
      <trkpt lon="-4.109654" lat="53.012547"><ele>60.225822</ele><time>2021-07-17T15:08:10Z</time><extensions><speed>1.030102</speed><course>317.906189</course><hAcc>0.905715</hAcc><vAcc>0.717925</vAcc></extensions></trkpt>
      <trkpt lon="-4.109640" lat="53.012543"><ele>60.262165</ele><time>2021-07-17T15:08:11Z</time><extensions><speed>1.006787</speed><course>316.077393</course><hAcc>0.913321</hAcc><vAcc>0.724747</vAcc></extensions></trkpt>
      <trkpt lon="-4.109627" lat="53.012539"><ele>60.293568</ele><time>2021-07-17T15:08:12Z</time><extensions><speed>0.983384</speed><course>307.356537</course><hAcc>0.931135</hAcc><vAcc>0.739987</vAcc></extensions></trkpt>
      <trkpt lon="-4.109613" lat="53.012535"><ele>60.320599</ele><time>2021-07-17T15:08:13Z</time><extensions><speed>0.962179</speed><course>302.004150</course><hAcc>0.966086</hAcc><vAcc>0.768498</vAcc></extensions></trkpt>
      <trkpt lon="-4.109597" lat="53.012541"><ele>60.600117</ele><time>2021-07-17T15:08:14Z</time><extensions><speed>0.915739</speed><course>207.637573</course><hAcc>0.940222</hAcc><vAcc>0.735679</vAcc></extensions></trkpt>
      <trkpt lon="-4.109584" lat="53.012545"><ele>60.517994</ele><time>2021-07-17T15:08:15Z</time><extensions><speed>0.932745</speed><course>199.781464</course><hAcc>0.929377</hAcc><vAcc>0.713256</vAcc></extensions></trkpt>
      <trkpt lon="-4.109571" lat="53.012548"><ele>60.426743</ele><time>2021-07-17T15:08:16Z</time><extensions><speed>0.954166</speed><course>204.898392</course><hAcc>0.931564</hAcc><vAcc>0.700780</vAcc></extensions></trkpt>
      <trkpt lon="-4.109559" lat="53.012553"><ele>60.324230</ele><time>2021-07-17T15:08:17Z</time><extensions><speed>0.978178</speed><course>218.988647</course><hAcc>0.940825</hAcc><vAcc>0.694104</vAcc></extensions></trkpt>
      <trkpt lon="-4.109546" lat="53.012557"><ele>60.209606</ele><time>2021-07-17T15:08:18Z</time><extensions><speed>1.001492</speed><course>240.875916</course><hAcc>0.952979</hAcc><vAcc>0.690356</vAcc></extensions></trkpt>
      <trkpt lon="-4.109533" lat="53.012562"><ele>60.082546</ele><time>2021-07-17T15:08:19Z</time><extensions><speed>1.020940</speed><course>240.875916</course><hAcc>0.965114</hAcc><vAcc>0.687744</vAcc></extensions></trkpt>
      <trkpt lon="-4.109521" lat="53.012567"><ele>59.942539</ele><time>2021-07-17T15:08:20Z</time><extensions><speed>1.034938</speed><course>240.875916</course><hAcc>0.975170</hAcc><vAcc>0.685242</vAcc></extensions></trkpt>
      <trkpt lon="-4.109508" lat="53.012573"><ele>59.789501</ele><time>2021-07-17T15:08:21Z</time><extensions><speed>1.043059</speed><course>240.875916</course><hAcc>0.981717</hAcc><vAcc>0.682316</vAcc></extensions></trkpt>
      <trkpt lon="-4.109496" lat="53.012578"><ele>59.624207</ele><time>2021-07-17T15:08:22Z</time><extensions><speed>1.045580</speed><course>240.875916</course><hAcc>0.983857</hAcc><vAcc>0.678760</vAcc></extensions></trkpt>
      <trkpt lon="-4.109484" lat="53.012584"><ele>59.448032</ele><time>2021-07-17T15:08:23Z</time><extensions><speed>1.042628</speed><course>240.875916</course><hAcc>0.981243</hAcc><vAcc>0.674631</vAcc></extensions></trkpt>
      <trkpt lon="-4.109472" lat="53.012590"><ele>59.262669</ele><time>2021-07-17T15:08:24Z</time><extensions><speed>1.034115</speed><course>269.430084</course><hAcc>0.974108</hAcc><vAcc>0.670215</vAcc></extensions></trkpt>
      <trkpt lon="-4.109460" lat="53.012596"><ele>59.070267</ele><time>2021-07-17T15:08:25Z</time><extensions><speed>1.020212</speed><course>274.056000</course><hAcc>0.963237</hAcc><vAcc>0.665955</vAcc></extensions></trkpt>
      <trkpt lon="-4.109448" lat="53.012602"><ele>58.873722</ele><time>2021-07-17T15:08:26Z</time><extensions><speed>1.001329</speed><course>273.580658</course><hAcc>0.949875</hAcc><vAcc>0.662368</vAcc></extensions></trkpt>
      <trkpt lon="-4.109437" lat="53.012607"><ele>58.676281</ele><time>2021-07-17T15:08:27Z</time><extensions><speed>0.977766</speed><course>266.285736</course><hAcc>0.935508</hAcc><vAcc>0.659909</vAcc></extensions></trkpt>
      <trkpt lon="-4.109425" lat="53.012613"><ele>58.481087</ele><time>2021-07-17T15:08:28Z</time><extensions><speed>0.949154</speed><course>280.416809</course><hAcc>0.921562</hAcc><vAcc>0.658834</vAcc></extensions></trkpt>
      <trkpt lon="-4.109414" lat="53.012618"><ele>58.290962</ele><time>2021-07-17T15:08:29Z</time><extensions><speed>0.914994</speed><course>289.633057</course><hAcc>0.909139</hAcc><vAcc>0.659140</vAcc></extensions></trkpt>
      <trkpt lon="-4.109404" lat="53.012623"><ele>58.108418</ele><time>2021-07-17T15:08:30Z</time><extensions><speed>0.876176</speed><course>274.042023</course><hAcc>0.898880</hAcc><vAcc>0.660638</vAcc></extensions></trkpt>
      <trkpt lon="-4.109393" lat="53.012627"><ele>57.935928</ele><time>2021-07-17T15:08:31Z</time><extensions><speed>0.834780</speed><course>259.398621</course><hAcc>0.890989</hAcc><vAcc>0.663049</vAcc></extensions></trkpt>
      <trkpt lon="-4.109383" lat="53.012631"><ele>57.775913</ele><time>2021-07-17T15:08:32Z</time><extensions><speed>0.793141</speed><course>235.228027</course><hAcc>0.885357</hAcc><vAcc>0.666085</vAcc></extensions></trkpt>
      <trkpt lon="-4.109372" lat="53.012634"><ele>57.629906</ele><time>2021-07-17T15:08:33Z</time><extensions><speed>0.753582</speed><course>233.943741</course><hAcc>0.881677</hAcc><vAcc>0.669489</vAcc></extensions></trkpt>
      <trkpt lon="-4.109362" lat="53.012636"><ele>57.498066</ele><time>2021-07-17T15:08:34Z</time><extensions><speed>0.717296</speed><course>251.986771</course><hAcc>0.879559</hAcc><vAcc>0.673047</vAcc></extensions></trkpt>
      <trkpt lon="-4.109353" lat="53.012639"><ele>57.380066</ele><time>2021-07-17T15:08:35Z</time><extensions><speed>0.684336</speed><course>230.632401</course><hAcc>0.878598</hAcc><vAcc>0.676594</vAcc></extensions></trkpt>
      <trkpt lon="-4.109343" lat="53.012640"><ele>57.275814</ele><time>2021-07-17T15:08:36Z</time><extensions><speed>0.655707</speed><course>208.539734</course><hAcc>0.878427</hAcc><vAcc>0.679998</vAcc></extensions></trkpt>
      <trkpt lon="-4.109334" lat="53.012641"><ele>57.184692</ele><time>2021-07-17T15:08:37Z</time><extensions><speed>0.634045</speed><course>217.062653</course><hAcc>0.878741</hAcc><vAcc>0.683150</vAcc></extensions></trkpt>
      <trkpt lon="-4.109324" lat="53.012642"><ele>57.105038</ele><time>2021-07-17T15:08:38Z</time><extensions><speed>0.622504</speed><course>216.480164</course><hAcc>0.879307</hAcc><vAcc>0.685970</vAcc></extensions></trkpt>
      <trkpt lon="-4.109315" lat="53.012642"><ele>57.035034</ele><time>2021-07-17T15:08:39Z</time><extensions><speed>0.623747</speed><course>215.204285</course><hAcc>0.879955</hAcc><vAcc>0.688399</vAcc></extensions></trkpt>
      <trkpt lon="-4.109306" lat="53.012642"><ele>56.973469</ele><time>2021-07-17T15:08:40Z</time><extensions><speed>0.638456</speed><course>192.608246</course><hAcc>0.880574</hAcc><vAcc>0.690399</vAcc></extensions></trkpt>
      <trkpt lon="-4.109296" lat="53.012642"><ele>56.919758</ele><time>2021-07-17T15:08:41Z</time><extensions><speed>0.665366</speed><course>196.818375</course><hAcc>0.881094</hAcc><vAcc>0.691953</vAcc></extensions></trkpt>
      <trkpt lon="-4.109286" lat="53.012641"><ele>56.873825</ele><time>2021-07-17T15:08:42Z</time><extensions><speed>0.702260</speed><course>200.564194</course><hAcc>0.881480</hAcc><vAcc>0.693054</vAcc></extensions></trkpt>
      <trkpt lon="-4.109275" lat="53.012639"><ele>56.835812</ele><time>2021-07-17T15:08:43Z</time><extensions><speed>0.746610</speed><course>224.718231</course><hAcc>0.881718</hAcc><vAcc>0.693713</vAcc></extensions></trkpt>
      <trkpt lon="-4.109264" lat="53.012637"><ele>56.805973</ele><time>2021-07-17T15:08:44Z</time><extensions><speed>0.795866</speed><course>228.969803</course><hAcc>0.881809</hAcc><vAcc>0.693951</vAcc></extensions></trkpt>
      <trkpt lon="-4.109253" lat="53.012635"><ele>56.784809</ele><time>2021-07-17T15:08:45Z</time><extensions><speed>0.847597</speed><course>250.366501</course><hAcc>0.881762</hAcc><vAcc>0.693802</vAcc></extensions></trkpt>
      <trkpt lon="-4.109240" lat="53.012632"><ele>56.772560</ele><time>2021-07-17T15:08:46Z</time><extensions><speed>0.900021</speed><course>-1.000000</course><hAcc>0.881592</hAcc><vAcc>0.693304</vAcc></extensions></trkpt>
      <trkpt lon="-4.109228" lat="53.012630"><ele>56.768501</ele><time>2021-07-17T15:08:46Z</time><extensions><speed>0.952007</speed><course>232.063629</course><hAcc>0.881335</hAcc><vAcc>0.692507</vAcc></extensions></trkpt>
      <trkpt lon="-4.109214" lat="53.012626"><ele>56.771523</ele><time>2021-07-17T15:08:47Z</time><extensions><speed>1.002671</speed><course>232.063614</course><hAcc>0.881011</hAcc><vAcc>0.691451</vAcc></extensions></trkpt>
      <trkpt lon="-4.109200" lat="53.012623"><ele>56.780479</ele><time>2021-07-17T15:08:48Z</time><extensions><speed>1.050404</speed><course>232.063614</course><hAcc>0.880624</hAcc><vAcc>0.690172</vAcc></extensions></trkpt>
      <trkpt lon="-4.109185" lat="53.012619"><ele>56.793465</ele><time>2021-07-17T15:08:49Z</time><extensions><speed>1.093774</speed><course>232.063599</course><hAcc>0.880201</hAcc><vAcc>0.688735</vAcc></extensions></trkpt>
      <trkpt lon="-4.109170" lat="53.012615"><ele>56.808067</ele><time>2021-07-17T15:08:50Z</time><extensions><speed>1.131690</speed><course>232.063599</course><hAcc>0.879768</hAcc><vAcc>0.687226</vAcc></extensions></trkpt>
      <trkpt lon="-4.109154" lat="53.012611"><ele>56.822365</ele><time>2021-07-17T15:08:51Z</time><extensions><speed>1.163685</speed><course>232.063583</course><hAcc>0.879354</hAcc><vAcc>0.685747</vAcc></extensions></trkpt>
      <trkpt lon="-4.109138" lat="53.012607"><ele>56.835213</ele><time>2021-07-17T15:08:52Z</time><extensions><speed>1.189522</speed><course>232.063583</course><hAcc>0.878989</hAcc><vAcc>0.684412</vAcc></extensions></trkpt>
      <trkpt lon="-4.109121" lat="53.012603"><ele>56.845520</ele><time>2021-07-17T15:08:53Z</time><extensions><speed>1.209571</speed><course>248.555511</course><hAcc>0.878699</hAcc><vAcc>0.683336</vAcc></extensions></trkpt>
      <trkpt lon="-4.109104" lat="53.012599"><ele>56.851765</ele><time>2021-07-17T15:08:54Z</time><extensions><speed>1.224859</speed><course>214.727661</course><hAcc>0.878506</hAcc><vAcc>0.682614</vAcc></extensions></trkpt>
      <trkpt lon="-4.109087" lat="53.012595"><ele>56.852554</ele><time>2021-07-17T15:08:55Z</time><extensions><speed>1.236424</speed><course>215.656113</course><hAcc>0.878426</hAcc><vAcc>0.682309</vAcc></extensions></trkpt>
      <trkpt lon="-4.109070" lat="53.012592"><ele>56.846951</ele><time>2021-07-17T15:08:56Z</time><extensions><speed>1.245008</speed><course>205.637772</course><hAcc>0.878462</hAcc><vAcc>0.682434</vAcc></extensions></trkpt>
      <trkpt lon="-4.109052" lat="53.012588"><ele>56.834541</ele><time>2021-07-17T15:08:57Z</time><extensions><speed>1.251170</speed><course>201.575424</course><hAcc>0.878609</hAcc><vAcc>0.682964</vAcc></extensions></trkpt>
      <trkpt lon="-4.109034" lat="53.012585"><ele>56.815495</ele><time>2021-07-17T15:08:59Z</time><extensions><speed>1.255876</speed><course>196.854248</course><hAcc>0.878834</hAcc><vAcc>0.683830</vAcc></extensions></trkpt>
      <trkpt lon="-4.109017" lat="53.012581"><ele>56.789860</ele><time>2021-07-17T15:09:00Z</time><extensions><speed>1.260196</speed><course>198.264053</course><hAcc>0.879116</hAcc><vAcc>0.684959</vAcc></extensions></trkpt>
      <trkpt lon="-4.108998" lat="53.012578"><ele>56.756611</ele><time>2021-07-17T15:09:00Z</time><extensions><speed>1.264743</speed><course>198.636932</course><hAcc>0.879469</hAcc><vAcc>0.686291</vAcc></extensions></trkpt>
      <trkpt lon="-4.108980" lat="53.012575"><ele>56.714478</ele><time>2021-07-17T15:09:01Z</time><extensions><speed>1.270112</speed><course>192.727798</course><hAcc>0.879865</hAcc><vAcc>0.687732</vAcc></extensions></trkpt>
      <trkpt lon="-4.108962" lat="53.012572"><ele>56.663288</ele><time>2021-07-17T15:09:02Z</time><extensions><speed>1.276378</speed><course>184.691818</course><hAcc>0.880259</hAcc><vAcc>0.689172</vAcc></extensions></trkpt>
      <trkpt lon="-4.108943" lat="53.012570"><ele>56.603596</ele><time>2021-07-17T15:09:03Z</time><extensions><speed>1.282691</speed><course>177.917740</course><hAcc>0.880626</hAcc><vAcc>0.690509</vAcc></extensions></trkpt>
      <trkpt lon="-4.108925" lat="53.012567"><ele>56.536312</ele><time>2021-07-17T15:09:04Z</time><extensions><speed>1.288038</speed><course>169.935883</course><hAcc>0.880942</hAcc><vAcc>0.691650</vAcc></extensions></trkpt>
      <trkpt lon="-4.108906" lat="53.012565"><ele>56.462601</ele><time>2021-07-17T15:09:05Z</time><extensions><speed>1.290726</speed><course>168.290512</course><hAcc>0.881189</hAcc><vAcc>0.692518</vAcc></extensions></trkpt>
      <trkpt lon="-4.108887" lat="53.012562"><ele>56.383663</ele><time>2021-07-17T15:09:06Z</time><extensions><speed>1.288890</speed><course>175.847488</course><hAcc>0.881355</hAcc><vAcc>0.693062</vAcc></extensions></trkpt>
      <trkpt lon="-4.108868" lat="53.012560"><ele>56.300213</ele><time>2021-07-17T15:09:07Z</time><extensions><speed>1.281786</speed><course>182.489380</course><hAcc>0.881432</hAcc><vAcc>0.693262</vAcc></extensions></trkpt>
      <trkpt lon="-4.108850" lat="53.012557"><ele>56.212444</ele><time>2021-07-17T15:09:08Z</time><extensions><speed>1.269657</speed><course>193.224472</course><hAcc>0.881423</hAcc><vAcc>0.693128</vAcc></extensions></trkpt>
      <trkpt lon="-4.108832" lat="53.012554"><ele>56.120655</ele><time>2021-07-17T15:09:09Z</time><extensions><speed>1.253412</speed><course>210.457108</course><hAcc>0.881333</hAcc><vAcc>0.692697</vAcc></extensions></trkpt>
      <trkpt lon="-4.108814" lat="53.012552"><ele>56.025513</ele><time>2021-07-17T15:09:10Z</time><extensions><speed>1.234672</speed><course>227.054108</course><hAcc>0.881175</hAcc><vAcc>0.692026</vAcc></extensions></trkpt>
      <trkpt lon="-4.108796" lat="53.012549"><ele>55.927731</ele><time>2021-07-17T15:09:11Z</time><extensions><speed>1.215075</speed><course>247.666534</course><hAcc>0.880964</hAcc><vAcc>0.691183</vAcc></extensions></trkpt>
      <trkpt lon="-4.108779" lat="53.012546"><ele>55.828228</ele><time>2021-07-17T15:09:12Z</time><extensions><speed>1.196134</speed><course>261.197876</course><hAcc>0.880716</hAcc><vAcc>0.690241</vAcc></extensions></trkpt>
      <trkpt lon="-4.108762" lat="53.012543"><ele>55.728592</ele><time>2021-07-17T15:09:13Z</time><extensions><speed>1.179277</speed><course>263.217255</course><hAcc>0.880448</hAcc><vAcc>0.689267</vAcc></extensions></trkpt>
      <trkpt lon="-4.108745" lat="53.012540"><ele>55.630558</ele><time>2021-07-17T15:09:14Z</time><extensions><speed>1.165999</speed><course>271.463165</course><hAcc>0.880175</hAcc><vAcc>0.688317</vAcc></extensions></trkpt>
      <trkpt lon="-4.108728" lat="53.012537"><ele>55.535118</ele><time>2021-07-17T15:09:15Z</time><extensions><speed>1.158150</speed><course>281.991608</course><hAcc>0.879909</hAcc><vAcc>0.687430</vAcc></extensions></trkpt>
      <trkpt lon="-4.108712" lat="53.012534"><ele>55.442646</ele><time>2021-07-17T15:09:16Z</time><extensions><speed>1.157542</speed><course>285.895782</course><hAcc>0.879656</hAcc><vAcc>0.686626</vAcc></extensions></trkpt>
      <trkpt lon="-4.108696" lat="53.012530"><ele>55.353310</ele><time>2021-07-17T15:09:17Z</time><extensions><speed>1.164564</speed><course>287.327179</course><hAcc>0.879422</hAcc><vAcc>0.685907</vAcc></extensions></trkpt>
      <trkpt lon="-4.108679" lat="53.012527"><ele>55.267044</ele><time>2021-07-17T15:09:18Z</time><extensions><speed>1.177333</speed><course>297.396240</course><hAcc>0.879206</hAcc><vAcc>0.685263</vAcc></extensions></trkpt>
      <trkpt lon="-4.108663" lat="53.012523"><ele>55.183762</ele><time>2021-07-17T15:09:19Z</time><extensions><speed>1.194112</speed><course>299.473175</course><hAcc>0.879009</hAcc><vAcc>0.684680</vAcc></extensions></trkpt>
      <trkpt lon="-4.108646" lat="53.012519"><ele>55.103786</ele><time>2021-07-17T15:09:20Z</time><extensions><speed>1.213857</speed><course>297.683289</course><hAcc>0.878827</hAcc><vAcc>0.684142</vAcc></extensions></trkpt>
      <trkpt lon="-4.108629" lat="53.012515"><ele>55.027401</ele><time>2021-07-17T15:09:21Z</time><extensions><speed>1.235212</speed><course>292.365356</course><hAcc>0.878661</hAcc><vAcc>0.683638</vAcc></extensions></trkpt>
      <trkpt lon="-4.108612" lat="53.012510"><ele>54.954533</ele><time>2021-07-17T15:09:22Z</time><extensions><speed>1.256945</speed><course>291.092651</course><hAcc>0.878507</hAcc><vAcc>0.683159</vAcc></extensions></trkpt>
      <trkpt lon="-4.108595" lat="53.012506"><ele>54.885334</ele><time>2021-07-17T15:09:23Z</time><extensions><speed>1.277912</speed><course>297.007721</course><hAcc>0.878367</hAcc><vAcc>0.682705</vAcc></extensions></trkpt>
      <trkpt lon="-4.108577" lat="53.012501"><ele>54.820381</ele><time>2021-07-17T15:09:24Z</time><extensions><speed>1.297170</speed><course>291.539093</course><hAcc>0.878241</hAcc><vAcc>0.682279</vAcc></extensions></trkpt>
      <trkpt lon="-4.108559" lat="53.012497"><ele>54.760277</ele><time>2021-07-17T15:09:25Z</time><extensions><speed>1.314222</speed><course>293.314819</course><hAcc>0.878131</hAcc><vAcc>0.681890</vAcc></extensions></trkpt>
      <trkpt lon="-4.108541" lat="53.012492"><ele>54.705177</ele><time>2021-07-17T15:09:26Z</time><extensions><speed>1.328766</speed><course>297.043213</course><hAcc>0.878042</hAcc><vAcc>0.681552</vAcc></extensions></trkpt>
      <trkpt lon="-4.108523" lat="53.012487"><ele>54.654541</ele><time>2021-07-17T15:09:27Z</time><extensions><speed>1.341323</speed><course>301.573547</course><hAcc>0.877976</hAcc><vAcc>0.681279</vAcc></extensions></trkpt>
      <trkpt lon="-4.108505" lat="53.012482"><ele>54.607944</ele><time>2021-07-17T15:09:29Z</time><extensions><speed>1.352927</speed><course>305.542847</course><hAcc>0.877920</hAcc><vAcc>0.681073</vAcc></extensions></trkpt>
      <trkpt lon="-4.108487" lat="53.012476"><ele>54.565781</ele><time>2021-07-17T15:09:30Z</time><extensions><speed>1.364442</speed><course>304.461029</course><hAcc>0.877877</hAcc><vAcc>0.680951</vAcc></extensions></trkpt>
      <trkpt lon="-4.108468" lat="53.012471"><ele>54.527969</ele><time>2021-07-17T15:09:31Z</time><extensions><speed>1.376698</speed><course>304.519958</course><hAcc>0.877868</hAcc><vAcc>0.680937</vAcc></extensions></trkpt>
      <trkpt lon="-4.108450" lat="53.012466"><ele>54.493969</ele><time>2021-07-17T15:09:32Z</time><extensions><speed>1.389954</speed><course>306.835541</course><hAcc>0.877893</hAcc><vAcc>0.681031</vAcc></extensions></trkpt>
      <trkpt lon="-4.108431" lat="53.012460"><ele>54.463356</ele><time>2021-07-17T15:09:33Z</time><extensions><speed>1.404057</speed><course>312.924469</course><hAcc>0.877950</hAcc><vAcc>0.681235</vAcc></extensions></trkpt>
      <trkpt lon="-4.108413" lat="53.012454"><ele>54.435963</ele><time>2021-07-17T15:09:34Z</time><extensions><speed>1.418053</speed><course>313.121582</course><hAcc>0.878037</hAcc><vAcc>0.681545</vAcc></extensions></trkpt>
      <trkpt lon="-4.108394" lat="53.012448"><ele>54.411255</ele><time>2021-07-17T15:09:35Z</time><extensions><speed>1.430726</speed><course>312.363678</course><hAcc>0.878152</hAcc><vAcc>0.681954</vAcc></extensions></trkpt>
      <trkpt lon="-4.108375" lat="53.012442"><ele>54.387875</ele><time>2021-07-17T15:09:36Z</time><extensions><speed>1.441238</speed><course>309.905548</course><hAcc>0.878288</hAcc><vAcc>0.682441</vAcc></extensions></trkpt>
      <trkpt lon="-4.108356" lat="53.012436"><ele>54.364544</ele><time>2021-07-17T15:09:37Z</time><extensions><speed>1.448997</speed><course>308.597687</course><hAcc>0.878439</hAcc><vAcc>0.682977</vAcc></extensions></trkpt>
      <trkpt lon="-4.108337" lat="53.012429"><ele>54.340889</ele><time>2021-07-17T15:09:38Z</time><extensions><speed>1.453728</speed><course>307.103394</course><hAcc>0.878598</hAcc><vAcc>0.683531</vAcc></extensions></trkpt>
      <trkpt lon="-4.108318" lat="53.012423"><ele>54.316589</ele><time>2021-07-17T15:09:39Z</time><extensions><speed>1.455213</speed><course>306.897400</course><hAcc>0.878756</hAcc><vAcc>0.684074</vAcc></extensions></trkpt>
      <trkpt lon="-4.108300" lat="53.012416"><ele>54.290833</ele><time>2021-07-17T15:09:40Z</time><extensions><speed>1.453346</speed><course>302.152618</course><hAcc>0.878909</hAcc><vAcc>0.684582</vAcc></extensions></trkpt>
      <trkpt lon="-4.108281" lat="53.012410"><ele>54.263069</ele><time>2021-07-17T15:09:41Z</time><extensions><speed>1.448158</speed><course>297.726410</course><hAcc>0.879052</hAcc><vAcc>0.685037</vAcc></extensions></trkpt>
      <trkpt lon="-4.108263" lat="53.012403"><ele>54.233410</ele><time>2021-07-17T15:09:42Z</time><extensions><speed>1.439776</speed><course>300.194183</course><hAcc>0.879183</hAcc><vAcc>0.685432</vAcc></extensions></trkpt>
      <trkpt lon="-4.108244" lat="53.012396"><ele>54.202312</ele><time>2021-07-17T15:09:43Z</time><extensions><speed>1.428445</speed><course>297.151825</course><hAcc>0.879298</hAcc><vAcc>0.685769</vAcc></extensions></trkpt>
      <trkpt lon="-4.108226" lat="53.012390"><ele>54.170170</ele><time>2021-07-17T15:09:44Z</time><extensions><speed>1.414576</speed><course>298.399384</course><hAcc>0.879400</hAcc><vAcc>0.686060</vAcc></extensions></trkpt>
      <trkpt lon="-4.108208" lat="53.012383"><ele>54.137352</ele><time>2021-07-17T15:09:45Z</time><extensions><speed>1.398693</speed><course>300.837921</course><hAcc>0.879488</hAcc><vAcc>0.686319</vAcc></extensions></trkpt>
      <trkpt lon="-4.108191" lat="53.012376"><ele>54.104767</ele><time>2021-07-17T15:09:46Z</time><extensions><speed>1.380790</speed><course>299.844330</course><hAcc>0.879561</hAcc><vAcc>0.686557</vAcc></extensions></trkpt>
      <trkpt lon="-4.108173" lat="53.012370"><ele>54.073730</ele><time>2021-07-17T15:09:47Z</time><extensions><speed>1.361029</speed><course>300.001373</course><hAcc>0.879618</hAcc><vAcc>0.686773</vAcc></extensions></trkpt>
      <trkpt lon="-4.108156" lat="53.012364"><ele>54.045250</ele><time>2021-07-17T15:09:48Z</time><extensions><speed>1.339787</speed><course>294.568817</course><hAcc>0.879654</hAcc><vAcc>0.686947</vAcc></extensions></trkpt>
      <trkpt lon="-4.108139" lat="53.012357"><ele>54.020042</ele><time>2021-07-17T15:09:49Z</time><extensions><speed>1.317308</speed><course>300.687103</course><hAcc>0.879662</hAcc><vAcc>0.687045</vAcc></extensions></trkpt>
      <trkpt lon="-4.108123" lat="53.012351"><ele>53.998768</ele><time>2021-07-17T15:09:50Z</time><extensions><speed>1.294093</speed><course>297.691925</course><hAcc>0.879635</hAcc><vAcc>0.687031</vAcc></extensions></trkpt>
      <trkpt lon="-4.108106" lat="53.012345"><ele>53.982048</ele><time>2021-07-17T15:09:51Z</time><extensions><speed>1.270508</speed><course>293.928223</course><hAcc>0.879565</hAcc><vAcc>0.686870</vAcc></extensions></trkpt>
      <trkpt lon="-4.108090" lat="53.012340"><ele>53.970478</ele><time>2021-07-17T15:09:52Z</time><extensions><speed>1.246833</speed><course>297.041656</course><hAcc>0.879448</hAcc><vAcc>0.686536</vAcc></extensions></trkpt>
      <trkpt lon="-4.108074" lat="53.012334"><ele>53.964104</ele><time>2021-07-17T15:09:53Z</time><extensions><speed>1.223474</speed><course>298.722290</course><hAcc>0.879278</hAcc><vAcc>0.686013</vAcc></extensions></trkpt>
      <trkpt lon="-4.108059" lat="53.012328"><ele>53.962265</ele><time>2021-07-17T15:09:54Z</time><extensions><speed>1.200544</speed><course>296.674316</course><hAcc>0.879056</hAcc><vAcc>0.685301</vAcc></extensions></trkpt>
      <trkpt lon="-4.108044" lat="53.012323"><ele>53.964413</ele><time>2021-07-17T15:09:55Z</time><extensions><speed>1.178296</speed><course>301.147156</course><hAcc>0.878781</hAcc><vAcc>0.684411</vAcc></extensions></trkpt>
      <trkpt lon="-4.108029" lat="53.012317"><ele>53.970085</ele><time>2021-07-17T15:09:56Z</time><extensions><speed>1.157361</speed><course>301.618805</course><hAcc>0.878457</hAcc><vAcc>0.683363</vAcc></extensions></trkpt>
      <trkpt lon="-4.108014" lat="53.012312"><ele>53.978382</ele><time>2021-07-17T15:09:57Z</time><extensions><speed>1.138121</speed><course>300.678009</course><hAcc>0.878089</hAcc><vAcc>0.682180</vAcc></extensions></trkpt>
      <trkpt lon="-4.108000" lat="53.012307"><ele>53.988232</ele><time>2021-07-17T15:09:58Z</time><extensions><speed>1.120898</speed><course>306.078644</course><hAcc>0.877681</hAcc><vAcc>0.680883</vAcc></extensions></trkpt>
      <trkpt lon="-4.107986" lat="53.012301"><ele>53.998680</ele><time>2021-07-17T15:09:59Z</time><extensions><speed>1.106497</speed><course>302.099213</course><hAcc>0.877239</hAcc><vAcc>0.679490</vAcc></extensions></trkpt>
      <trkpt lon="-4.107972" lat="53.012296"><ele>54.008305</ele><time>2021-07-17T15:10:00Z</time><extensions><speed>1.096441</speed><course>298.253754</course><hAcc>0.876772</hAcc><vAcc>0.678018</vAcc></extensions></trkpt>
      <trkpt lon="-4.107959" lat="53.012290"><ele>54.015255</ele><time>2021-07-17T15:10:01Z</time><extensions><speed>1.091688</speed><course>299.772583</course><hAcc>0.876288</hAcc><vAcc>0.676483</vAcc></extensions></trkpt>
      <trkpt lon="-4.107946" lat="53.012284"><ele>54.018452</ele><time>2021-07-17T15:10:02Z</time><extensions><speed>1.092163</speed><course>299.946075</course><hAcc>0.875800</hAcc><vAcc>0.674911</vAcc></extensions></trkpt>
      <trkpt lon="-4.107933" lat="53.012278"><ele>54.017963</ele><time>2021-07-17T15:10:03Z</time><extensions><speed>1.097678</speed><course>303.968170</course><hAcc>0.875323</hAcc><vAcc>0.673342</vAcc></extensions></trkpt>
      <trkpt lon="-4.107920" lat="53.012272"><ele>54.014214</ele><time>2021-07-17T15:10:04Z</time><extensions><speed>1.108422</speed><course>302.223755</course><hAcc>0.874878</hAcc><vAcc>0.671841</vAcc></extensions></trkpt>
      <trkpt lon="-4.107907" lat="53.012266"><ele>54.007477</ele><time>2021-07-17T15:10:05Z</time><extensions><speed>1.124648</speed><course>303.590851</course><hAcc>0.874493</hAcc><vAcc>0.670501</vAcc></extensions></trkpt>
      <trkpt lon="-4.107895" lat="53.012259"><ele>53.998085</ele><time>2021-07-17T15:10:06Z</time><extensions><speed>1.146339</speed><course>302.656281</course><hAcc>0.874196</hAcc><vAcc>0.669437</vAcc></extensions></trkpt>
      <trkpt lon="-4.107882" lat="53.012252"><ele>53.987022</ele><time>2021-07-17T15:10:07Z</time><extensions><speed>1.173468</speed><course>307.857574</course><hAcc>0.874020</hAcc><vAcc>0.668772</vAcc></extensions></trkpt>
      <trkpt lon="-4.107869" lat="53.012245"><ele>53.975529</ele><time>2021-07-17T15:10:08Z</time><extensions><speed>1.205870</speed><course>306.241272</course><hAcc>0.873990</hAcc><vAcc>0.668617</vAcc></extensions></trkpt>
      <trkpt lon="-4.107856" lat="53.012237"><ele>53.964241</ele><time>2021-07-17T15:10:09Z</time><extensions><speed>1.243042</speed><course>302.560516</course><hAcc>0.874124</hAcc><vAcc>0.669047</vAcc></extensions></trkpt>
      <trkpt lon="-4.107844" lat="53.012228"><ele>53.953659</ele><time>2021-07-17T15:10:10Z</time><extensions><speed>1.283587</speed><course>304.207947</course><hAcc>0.874428</hAcc><vAcc>0.670080</vAcc></extensions></trkpt>
      <trkpt lon="-4.107831" lat="53.012220"><ele>53.944664</ele><time>2021-07-17T15:10:11Z</time><extensions><speed>1.325411</speed><course>304.678192</course><hAcc>0.874889</hAcc><vAcc>0.671673</vAcc></extensions></trkpt>
      <trkpt lon="-4.107818" lat="53.012210"><ele>53.937622</ele><time>2021-07-17T15:10:12Z</time><extensions><speed>1.366829</speed><course>300.816559</course><hAcc>0.875485</hAcc><vAcc>0.673724</vAcc></extensions></trkpt>
      <trkpt lon="-4.107804" lat="53.012201"><ele>53.931919</ele><time>2021-07-17T15:10:13Z</time><extensions><speed>1.406565</speed><course>302.457642</course><hAcc>0.876184</hAcc><vAcc>0.676101</vAcc></extensions></trkpt>
      <trkpt lon="-4.107790" lat="53.012191"><ele>53.926491</ele><time>2021-07-17T15:10:14Z</time><extensions><speed>1.443115</speed><course>303.405792</course><hAcc>0.876951</hAcc><vAcc>0.678668</vAcc></extensions></trkpt>
      <trkpt lon="-4.107776" lat="53.012181"><ele>53.920364</ele><time>2021-07-17T15:10:15Z</time><extensions><speed>1.475531</speed><course>305.179382</course><hAcc>0.877755</hAcc><vAcc>0.681305</vAcc></extensions></trkpt>
      <trkpt lon="-4.107761" lat="53.012171"><ele>53.912880</ele><time>2021-07-17T15:10:16Z</time><extensions><speed>1.503228</speed><course>301.811188</course><hAcc>0.878569</hAcc><vAcc>0.683926</vAcc></extensions></trkpt>
      <trkpt lon="-4.107746" lat="53.012162"><ele>53.902905</ele><time>2021-07-17T15:10:17Z</time><extensions><speed>1.525764</speed><course>294.111877</course><hAcc>0.879370</hAcc><vAcc>0.686473</vAcc></extensions></trkpt>
      <trkpt lon="-4.107730" lat="53.012152"><ele>53.888206</ele><time>2021-07-17T15:10:18Z</time><extensions><speed>1.543415</speed><course>291.186249</course><hAcc>0.880143</hAcc><vAcc>0.688908</vAcc></extensions></trkpt>
      <trkpt lon="-4.107713" lat="53.012142"><ele>53.866615</ele><time>2021-07-17T15:10:19Z</time><extensions><speed>1.556881</speed><course>291.833313</course><hAcc>0.880876</hAcc><vAcc>0.691206</vAcc></extensions></trkpt>
      <trkpt lon="-4.107695" lat="53.012133"><ele>53.837143</ele><time>2021-07-17T15:10:20Z</time><extensions><speed>1.566579</speed><course>293.198639</course><hAcc>0.881560</hAcc><vAcc>0.693351</vAcc></extensions></trkpt>
      <trkpt lon="-4.107678" lat="53.012124"><ele>53.799706</ele><time>2021-07-17T15:10:21Z</time><extensions><speed>1.572518</speed><course>297.953094</course><hAcc>0.882188</hAcc><vAcc>0.695324</vAcc></extensions></trkpt>
      <trkpt lon="-4.107659" lat="53.012115"><ele>53.754337</ele><time>2021-07-17T15:10:22Z</time><extensions><speed>1.574998</speed><course>294.998413</course><hAcc>0.882757</hAcc><vAcc>0.697109</vAcc></extensions></trkpt>
      <trkpt lon="-4.107640" lat="53.012107"><ele>53.700882</ele><time>2021-07-17T15:10:23Z</time><extensions><speed>1.574732</speed><course>290.333923</course><hAcc>0.883265</hAcc><vAcc>0.698691</vAcc></extensions></trkpt>
      <trkpt lon="-4.107621" lat="53.012098"><ele>53.639427</ele><time>2021-07-17T15:10:24Z</time><extensions><speed>1.572549</speed><course>297.336884</course><hAcc>0.883711</hAcc><vAcc>0.700068</vAcc></extensions></trkpt>
      <trkpt lon="-4.107602" lat="53.012091"><ele>53.570503</ele><time>2021-07-17T15:10:25Z</time><extensions><speed>1.569155</speed><course>291.763641</course><hAcc>0.884097</hAcc><vAcc>0.701245</vAcc></extensions></trkpt>
      <trkpt lon="-4.107582" lat="53.012083"><ele>53.495178</ele><time>2021-07-17T15:10:26Z</time><extensions><speed>1.565012</speed><course>293.588959</course><hAcc>0.884424</hAcc><vAcc>0.702234</vAcc></extensions></trkpt>
      <trkpt lon="-4.107562" lat="53.012075"><ele>53.414677</ele><time>2021-07-17T15:10:27Z</time><extensions><speed>1.560089</speed><course>298.534668</course><hAcc>0.884695</hAcc><vAcc>0.703048</vAcc></extensions></trkpt>
      <trkpt lon="-4.107543" lat="53.012068"><ele>53.329575</ele><time>2021-07-17T15:10:28Z</time><extensions><speed>1.554512</speed><course>294.834351</course><hAcc>0.884916</hAcc><vAcc>0.703701</vAcc></extensions></trkpt>
      <trkpt lon="-4.107523" lat="53.012061"><ele>53.239922</ele><time>2021-07-17T15:10:29Z</time><extensions><speed>1.548989</speed><course>297.698059</course><hAcc>0.885091</hAcc><vAcc>0.704207</vAcc></extensions></trkpt>
      <trkpt lon="-4.107503" lat="53.012054"><ele>53.146141</ele><time>2021-07-17T15:10:30Z</time><extensions><speed>1.544150</speed><course>298.511444</course><hAcc>0.885224</hAcc><vAcc>0.704581</vAcc></extensions></trkpt>
      <trkpt lon="-4.107483" lat="53.012047"><ele>53.049332</ele><time>2021-07-17T15:10:31Z</time><extensions><speed>1.540234</speed><course>303.054443</course><hAcc>0.885321</hAcc><vAcc>0.704840</vAcc></extensions></trkpt>
      <trkpt lon="-4.107463" lat="53.012040"><ele>52.950485</ele><time>2021-07-17T15:10:32Z</time><extensions><speed>1.537241</speed><course>300.594757</course><hAcc>0.885387</hAcc><vAcc>0.705000</vAcc></extensions></trkpt>
      <trkpt lon="-4.107444" lat="53.012033"><ele>52.849907</ele><time>2021-07-17T15:10:33Z</time><extensions><speed>1.535165</speed><course>303.489990</course><hAcc>0.885428</hAcc><vAcc>0.705080</vAcc></extensions></trkpt>
      <trkpt lon="-4.107424" lat="53.012026"><ele>52.747673</ele><time>2021-07-17T15:10:34Z</time><extensions><speed>1.534158</speed><course>307.296783</course><hAcc>0.885449</hAcc><vAcc>0.705098</vAcc></extensions></trkpt>
      <trkpt lon="-4.107404" lat="53.012019"><ele>52.644070</ele><time>2021-07-17T15:10:35Z</time><extensions><speed>1.534391</speed><course>306.846466</course><hAcc>0.885453</hAcc><vAcc>0.705071</vAcc></extensions></trkpt>
      <trkpt lon="-4.107385" lat="53.012012"><ele>52.539783</ele><time>2021-07-17T15:10:36Z</time><extensions><speed>1.535674</speed><course>314.303711</course><hAcc>0.885446</hAcc><vAcc>0.705014</vAcc></extensions></trkpt>
      <trkpt lon="-4.107365" lat="53.012005"><ele>52.435749</ele><time>2021-07-17T15:10:37Z</time><extensions><speed>1.537691</speed><course>316.753265</course><hAcc>0.885431</hAcc><vAcc>0.704942</vAcc></extensions></trkpt>
      <trkpt lon="-4.107345" lat="53.011998"><ele>52.332546</ele><time>2021-07-17T15:10:38Z</time><extensions><speed>1.539913</speed><course>312.101562</course><hAcc>0.885410</hAcc><vAcc>0.704867</vAcc></extensions></trkpt>
      <trkpt lon="-4.107326" lat="53.011990"><ele>52.230282</ele><time>2021-07-17T15:10:39Z</time><extensions><speed>1.541628</speed><course>310.983948</course><hAcc>0.885386</hAcc><vAcc>0.704796</vAcc></extensions></trkpt>
      <trkpt lon="-4.107306" lat="53.011983"><ele>52.129215</ele><time>2021-07-17T15:10:40Z</time><extensions><speed>1.542894</speed><course>316.824890</course><hAcc>0.885362</hAcc><vAcc>0.704727</vAcc></extensions></trkpt>
      <trkpt lon="-4.107287" lat="53.011976"><ele>52.030346</ele><time>2021-07-17T15:10:41Z</time><extensions><speed>1.544396</speed><course>324.005005</course><hAcc>0.885337</hAcc><vAcc>0.704656</vAcc></extensions></trkpt>
      <trkpt lon="-4.107267" lat="53.011968"><ele>51.935253</ele><time>2021-07-17T15:10:42Z</time><extensions><speed>1.546832</speed><course>322.091736</course><hAcc>0.885314</hAcc><vAcc>0.704576</vAcc></extensions></trkpt>
      <trkpt lon="-4.107247" lat="53.011961"><ele>51.845119</ele><time>2021-07-17T15:10:43Z</time><extensions><speed>1.550378</speed><course>322.830170</course><hAcc>0.885295</hAcc><vAcc>0.704490</vAcc></extensions></trkpt>
      <trkpt lon="-4.107228" lat="53.011954"><ele>51.760651</ele><time>2021-07-17T15:10:44Z</time><extensions><speed>1.554852</speed><course>325.823517</course><hAcc>0.885281</hAcc><vAcc>0.704406</vAcc></extensions></trkpt>
      <trkpt lon="-4.107208" lat="53.011946"><ele>51.682686</ele><time>2021-07-17T15:10:45Z</time><extensions><speed>1.559939</speed><course>331.853210</course><hAcc>0.885274</hAcc><vAcc>0.704339</vAcc></extensions></trkpt>
      <trkpt lon="-4.107188" lat="53.011939"><ele>51.612232</ele><time>2021-07-17T15:10:46Z</time><extensions><speed>1.565075</speed><course>331.260956</course><hAcc>0.885276</hAcc><vAcc>0.704303</vAcc></extensions></trkpt>
      <trkpt lon="-4.107168" lat="53.011932"><ele>51.550289</ele><time>2021-07-17T15:10:47Z</time><extensions><speed>1.569803</speed><course>329.072571</course><hAcc>0.885289</hAcc><vAcc>0.704311</vAcc></extensions></trkpt>
      <trkpt lon="-4.107148" lat="53.011924"><ele>51.497322</ele><time>2021-07-17T15:10:48Z</time><extensions><speed>1.573750</speed><course>325.473938</course><hAcc>0.885314</hAcc><vAcc>0.704373</vAcc></extensions></trkpt>
      <trkpt lon="-4.107128" lat="53.011917"><ele>51.452759</ele><time>2021-07-17T15:10:49Z</time><extensions><speed>1.576117</speed><course>325.383026</course><hAcc>0.885352</hAcc><vAcc>0.704489</vAcc></extensions></trkpt>
      <trkpt lon="-4.107108" lat="53.011910"><ele>51.415695</ele><time>2021-07-17T15:10:50Z</time><extensions><speed>1.576217</speed><course>325.061401</course><hAcc>0.885402</hAcc><vAcc>0.704654</vAcc></extensions></trkpt>
      <trkpt lon="-4.107088" lat="53.011902"><ele>51.385811</ele><time>2021-07-17T15:10:51Z</time><extensions><speed>1.573769</speed><course>325.207275</course><hAcc>0.885465</hAcc><vAcc>0.704862</vAcc></extensions></trkpt>
      <trkpt lon="-4.107068" lat="53.011895"><ele>51.363232</ele><time>2021-07-17T15:10:52Z</time><extensions><speed>1.568018</speed><course>322.410889</course><hAcc>0.885539</hAcc><vAcc>0.705106</vAcc></extensions></trkpt>
      <trkpt lon="-4.107048" lat="53.011888"><ele>51.347572</ele><time>2021-07-17T15:10:53Z</time><extensions><speed>1.558842</speed><course>319.218658</course><hAcc>0.885624</hAcc><vAcc>0.705381</vAcc></extensions></trkpt>
      <trkpt lon="-4.107029" lat="53.011880"><ele>51.337536</ele><time>2021-07-17T15:10:54Z</time><extensions><speed>1.546970</speed><course>319.790588</course><hAcc>0.885722</hAcc><vAcc>0.705688</vAcc></extensions></trkpt>
      <trkpt lon="-4.107009" lat="53.011873"><ele>51.331600</ele><time>2021-07-17T15:10:55Z</time><extensions><speed>1.533042</speed><course>318.972229</course><hAcc>0.885834</hAcc><vAcc>0.706030</vAcc></extensions></trkpt>
      <trkpt lon="-4.106990" lat="53.011866"><ele>51.328522</ele><time>2021-07-17T15:10:56Z</time><extensions><speed>1.517396</speed><course>320.354065</course><hAcc>0.885965</hAcc><vAcc>0.706413</vAcc></extensions></trkpt>
      <trkpt lon="-4.106971" lat="53.011859"><ele>51.327503</ele><time>2021-07-17T15:10:57Z</time><extensions><speed>1.500015</speed><course>320.541016</course><hAcc>0.886124</hAcc><vAcc>0.706843</vAcc></extensions></trkpt>
      <trkpt lon="-4.106952" lat="53.011851"><ele>51.327843</ele><time>2021-07-17T15:10:58Z</time><extensions><speed>1.481081</speed><course>317.906189</course><hAcc>0.886325</hAcc><vAcc>0.707324</vAcc></extensions></trkpt>
      <trkpt lon="-4.106934" lat="53.011844"><ele>51.328228</ele><time>2021-07-17T15:10:59Z</time><extensions><speed>1.461239</speed><course>316.077393</course><hAcc>0.886586</hAcc><vAcc>0.707861</vAcc></extensions></trkpt>
      <trkpt lon="-4.106916" lat="53.011837"><ele>51.327065</ele><time>2021-07-17T15:11:00Z</time><extensions><speed>1.441211</speed><course>307.356537</course><hAcc>0.886934</hAcc><vAcc>0.708457</vAcc></extensions></trkpt>
      <trkpt lon="-4.106898" lat="53.011830"><ele>51.323460</ele><time>2021-07-17T15:11:01Z</time><extensions><speed>1.421316</speed><course>302.004150</course><hAcc>0.887403</hAcc><vAcc>0.709118</vAcc></extensions></trkpt>
      <trkpt lon="-4.106881" lat="53.011823"><ele>51.317505</ele><time>2021-07-17T15:11:02Z</time><extensions><speed>1.401785</speed><course>310.520874</course><hAcc>0.888031</hAcc><vAcc>0.709854</vAcc></extensions></trkpt>
      <trkpt lon="-4.106863" lat="53.011816"><ele>51.309383</ele><time>2021-07-17T15:11:03Z</time><extensions><speed>1.383090</speed><course>307.778412</course><hAcc>0.888862</hAcc><vAcc>0.710682</vAcc></extensions></trkpt>
      <trkpt lon="-4.106847" lat="53.011808"><ele>51.298626</ele><time>2021-07-17T15:11:04Z</time><extensions><speed>1.365818</speed><course>310.132080</course><hAcc>0.889933</hAcc><vAcc>0.711628</vAcc></extensions></trkpt>
      <trkpt lon="-4.106830" lat="53.011801"><ele>51.284489</ele><time>2021-07-17T15:11:05Z</time><extensions><speed>1.350380</speed><course>310.327301</course><hAcc>0.891274</hAcc><vAcc>0.712712</vAcc></extensions></trkpt>
      <trkpt lon="-4.106814" lat="53.011794"><ele>51.266315</ele><time>2021-07-17T15:11:06Z</time><extensions><speed>1.336992</speed><course>308.925873</course><hAcc>0.892891</hAcc><vAcc>0.713939</vAcc></extensions></trkpt>
      <trkpt lon="-4.106798" lat="53.011788"><ele>51.243618</ele><time>2021-07-17T15:11:06Z</time><extensions><speed>1.325446</speed><course>308.955322</course><hAcc>0.894776</hAcc><vAcc>0.715295</vAcc></extensions></trkpt>
      <trkpt lon="-4.106782" lat="53.011781"><ele>51.216312</ele><time>2021-07-17T15:11:07Z</time><extensions><speed>1.315271</speed><course>303.152588</course><hAcc>0.896858</hAcc><vAcc>0.716710</vAcc></extensions></trkpt>
      <trkpt lon="-4.106765" lat="53.011774"><ele>51.184647</ele><time>2021-07-17T15:11:08Z</time><extensions><speed>1.305853</speed><course>313.156525</course><hAcc>0.898993</hAcc><vAcc>0.718058</vAcc></extensions></trkpt>
      <trkpt lon="-4.106749" lat="53.011768"><ele>51.148361</ele><time>2021-07-17T15:11:09Z</time><extensions><speed>1.296391</speed><course>307.864197</course><hAcc>0.901005</hAcc><vAcc>0.719197</vAcc></extensions></trkpt>
      <trkpt lon="-4.106733" lat="53.011761"><ele>51.106701</ele><time>2021-07-17T15:11:11Z</time><extensions><speed>1.286736</speed><course>309.541687</course><hAcc>0.902671</hAcc><vAcc>0.719978</vAcc></extensions></trkpt>
      <trkpt lon="-4.106717" lat="53.011755"><ele>51.059402</ele><time>2021-07-17T15:11:12Z</time><extensions><speed>1.277289</speed><course>312.130341</course><hAcc>0.903805</hAcc><vAcc>0.720326</vAcc></extensions></trkpt>
      <trkpt lon="-4.106700" lat="53.011750"><ele>51.006760</ele><time>2021-07-17T15:11:13Z</time><extensions><speed>1.268237</speed><course>310.268982</course><hAcc>0.904370</hAcc><vAcc>0.720349</vAcc></extensions></trkpt>
      <trkpt lon="-4.106684" lat="53.011744"><ele>50.948898</ele><time>2021-07-17T15:11:14Z</time><extensions><speed>1.259690</speed><course>308.247070</course><hAcc>0.904599</hAcc><vAcc>0.720457</vAcc></extensions></trkpt>
      <trkpt lon="-4.106667" lat="53.011739"><ele>50.885242</ele><time>2021-07-17T15:11:15Z</time><extensions><speed>1.251920</speed><course>304.229858</course><hAcc>0.905283</hAcc><vAcc>0.721578</vAcc></extensions></trkpt>
      <trkpt lon="-4.106650" lat="53.011735"><ele>50.815357</ele><time>2021-07-17T15:11:16Z</time><extensions><speed>1.244900</speed><course>308.310059</course><hAcc>0.908125</hAcc><vAcc>0.725403</vAcc></extensions></trkpt>
      <trkpt lon="-4.106633" lat="53.011731"><ele>50.739368</ele><time>2021-07-17T15:11:17Z</time><extensions><speed>1.237926</speed><course>311.142822</course><hAcc>0.916189</hAcc><vAcc>0.734637</vAcc></extensions></trkpt>
      <trkpt lon="-4.106615" lat="53.011727"><ele>50.657822</ele><time>2021-07-17T15:11:18Z</time><extensions><speed>1.230247</speed><course>305.518036</course><hAcc>0.934314</hAcc><vAcc>0.753147</vAcc></extensions></trkpt>
      <trkpt lon="-4.106598" lat="53.011724"><ele>50.571426</ele><time>2021-07-17T15:11:19Z</time><extensions><speed>1.221792</speed><course>303.061462</course><hAcc>0.969246</hAcc><vAcc>0.785838</vAcc></extensions></trkpt>
      <trkpt lon="-4.106586" lat="53.011732"><ele>50.411362</ele><time>2021-07-17T15:11:20Z</time><extensions><speed>1.024358</speed><course>207.637573</course><hAcc>0.931627</hAcc><vAcc>0.751845</vAcc></extensions></trkpt>
      <trkpt lon="-4.106574" lat="53.011738"><ele>50.302746</ele><time>2021-07-17T15:11:21Z</time><extensions><speed>0.998827</speed><course>199.781464</course><hAcc>0.912621</hAcc><vAcc>0.731807</vAcc></extensions></trkpt>
      <trkpt lon="-4.106564" lat="53.011744"><ele>50.190086</ele><time>2021-07-17T15:11:22Z</time><extensions><speed>0.971686</speed><course>204.898392</course><hAcc>0.904876</hAcc><vAcc>0.722113</vAcc></extensions></trkpt>
      <trkpt lon="-4.106554" lat="53.011751"><ele>50.074257</ele><time>2021-07-17T15:11:23Z</time><extensions><speed>0.944123</speed><course>218.988647</course><hAcc>0.902867</hAcc><vAcc>0.718438</vAcc></extensions></trkpt>
      <trkpt lon="-4.106546" lat="53.011757"><ele>49.956707</ele><time>2021-07-17T15:11:24Z</time><extensions><speed>0.916699</speed><course>240.875916</course><hAcc>0.903097</hAcc><vAcc>0.717731</vAcc></extensions></trkpt>
      <trkpt lon="-4.106539" lat="53.011764"><ele>49.839134</ele><time>2021-07-17T15:11:25Z</time><extensions><speed>0.889265</speed><course>240.875916</course><hAcc>0.903631</hAcc><vAcc>0.718067</vAcc></extensions></trkpt>
      <trkpt lon="-4.106533" lat="53.011771"><ele>49.723499</ele><time>2021-07-17T15:11:26Z</time><extensions><speed>0.860556</speed><course>240.875916</course><hAcc>0.903592</hAcc><vAcc>0.718386</vAcc></extensions></trkpt>
      <trkpt lon="-4.106528" lat="53.011778"><ele>49.611679</ele><time>2021-07-17T15:11:27Z</time><extensions><speed>0.828805</speed><course>240.875916</course><hAcc>0.902733</hAcc><vAcc>0.718207</vAcc></extensions></trkpt>
      <trkpt lon="-4.106523" lat="53.011785"><ele>49.504765</ele><time>2021-07-17T15:11:28Z</time><extensions><speed>0.792589</speed><course>240.875916</course><hAcc>0.901147</hAcc><vAcc>0.717409</vAcc></extensions></trkpt>
      <trkpt lon="-4.106519" lat="53.011791"><ele>49.403423</ele><time>2021-07-17T15:11:29Z</time><extensions><speed>0.750753</speed><course>240.875916</course><hAcc>0.899067</hAcc><vAcc>0.716068</vAcc></extensions></trkpt>
      <trkpt lon="-4.106516" lat="53.011798"><ele>49.308632</ele><time>2021-07-17T15:11:30Z</time><extensions><speed>0.703042</speed><course>269.430084</course><hAcc>0.896752</hAcc><vAcc>0.714346</vAcc></extensions></trkpt>
      <trkpt lon="-4.106513" lat="53.011803"><ele>49.221165</ele><time>2021-07-17T15:11:31Z</time><extensions><speed>0.650541</speed><course>274.056000</course><hAcc>0.894428</hAcc><vAcc>0.712426</vAcc></extensions></trkpt>
      <trkpt lon="-4.106509" lat="53.011809"><ele>49.140858</ele><time>2021-07-17T15:11:32Z</time><extensions><speed>0.595735</speed><course>273.580658</course><hAcc>0.892259</hAcc><vAcc>0.710466</vAcc></extensions></trkpt>
      <trkpt lon="-4.106506" lat="53.011813"><ele>49.067036</ele><time>2021-07-17T15:11:33Z</time><extensions><speed>0.542516</speed><course>266.285736</course><hAcc>0.890348</hAcc><vAcc>0.708590</vAcc></extensions></trkpt>
      <trkpt lon="-4.106503" lat="53.011818"><ele>48.999119</ele><time>2021-07-17T15:11:34Z</time><extensions><speed>0.495784</speed><course>280.416809</course><hAcc>0.888745</hAcc><vAcc>0.706881</vAcc></extensions></trkpt>
      <trkpt lon="-4.106499" lat="53.011821"><ele>48.936562</ele><time>2021-07-17T15:11:35Z</time><extensions><speed>0.460746</speed><course>289.633057</course><hAcc>0.887454</hAcc><vAcc>0.705391</vAcc></extensions></trkpt>
      <trkpt lon="-4.106495" lat="53.011825"><ele>48.878559</ele><time>2021-07-17T15:11:36Z</time><extensions><speed>0.441859</speed><course>274.042023</course><hAcc>0.886457</hAcc><vAcc>0.704145</vAcc></extensions></trkpt>
      <trkpt lon="-4.106491" lat="53.011827"><ele>48.824066</ele><time>2021-07-17T15:11:37Z</time><extensions><speed>0.441926</speed><course>259.398621</course><hAcc>0.885716</hAcc><vAcc>0.703154</vAcc></extensions></trkpt>
      <trkpt lon="-4.106485" lat="53.011830"><ele>48.771835</ele><time>2021-07-17T15:11:38Z</time><extensions><speed>0.461121</speed><course>235.228027</course><hAcc>0.885189</hAcc><vAcc>0.702414</vAcc></extensions></trkpt>
      <trkpt lon="-4.106479" lat="53.011832"><ele>48.720455</ele><time>2021-07-17T15:11:39Z</time><extensions><speed>0.497051</speed><course>233.943741</course><hAcc>0.884831</hAcc><vAcc>0.701904</vAcc></extensions></trkpt>
      <trkpt lon="-4.106472" lat="53.011834"><ele>48.668568</ele><time>2021-07-17T15:11:40Z</time><extensions><speed>0.545939</speed><course>251.986771</course><hAcc>0.884600</hAcc><vAcc>0.701592</vAcc></extensions></trkpt>
      <trkpt lon="-4.106465" lat="53.011836"><ele>48.615074</ele><time>2021-07-17T15:11:41Z</time><extensions><speed>0.603800</speed><course>230.632401</course><hAcc>0.884459</hAcc><vAcc>0.701433</vAcc></extensions></trkpt>
      <trkpt lon="-4.106456" lat="53.011839"><ele>48.559155</ele><time>2021-07-17T15:11:42Z</time><extensions><speed>0.666981</speed><course>208.539734</course><hAcc>0.884376</hAcc><vAcc>0.701380</vAcc></extensions></trkpt>
      <trkpt lon="-4.106446" lat="53.011841"><ele>48.500320</ele><time>2021-07-17T15:11:43Z</time><extensions><speed>0.732361</speed><course>217.062653</course><hAcc>0.884323</hAcc><vAcc>0.701381</vAcc></extensions></trkpt>
      <trkpt lon="-4.106436" lat="53.011844"><ele>48.438381</ele><time>2021-07-17T15:11:44Z</time><extensions><speed>0.797373</speed><course>216.480164</course><hAcc>0.884278</hAcc><vAcc>0.701383</vAcc></extensions></trkpt>
      <trkpt lon="-4.106425" lat="53.011847"><ele>48.373478</ele><time>2021-07-17T15:11:45Z</time><extensions><speed>0.859650</speed><course>215.204285</course><hAcc>0.884223</hAcc><vAcc>0.701337</vAcc></extensions></trkpt>
      <trkpt lon="-4.106413" lat="53.011850"><ele>48.305931</ele><time>2021-07-17T15:11:46Z</time><extensions><speed>0.917671</speed><course>192.608246</course><hAcc>0.884144</hAcc><vAcc>0.701197</vAcc></extensions></trkpt>
      <trkpt lon="-4.106400" lat="53.011854"><ele>48.235905</ele><time>2021-07-17T15:11:47Z</time><extensions><speed>0.969984</speed><course>196.818375</course><hAcc>0.884033</hAcc><vAcc>0.700926</vAcc></extensions></trkpt>
      <trkpt lon="-4.106387" lat="53.011859"><ele>48.163872</ele><time>2021-07-17T15:11:48Z</time><extensions><speed>1.014014</speed><course>200.564194</course><hAcc>0.883886</hAcc><vAcc>0.700501</vAcc></extensions></trkpt>
      <trkpt lon="-4.106374" lat="53.011863"><ele>48.090794</ele><time>2021-07-17T15:11:49Z</time><extensions><speed>1.047390</speed><course>224.718231</course><hAcc>0.883704</hAcc><vAcc>0.699913</vAcc></extensions></trkpt>
      <trkpt lon="-4.106361" lat="53.011868"><ele>48.017582</ele><time>2021-07-17T15:11:50Z</time><extensions><speed>1.069129</speed><course>228.969803</course><hAcc>0.883493</hAcc><vAcc>0.699175</vAcc></extensions></trkpt>
      <trkpt lon="-4.106347" lat="53.011873"><ele>47.944988</ele><time>2021-07-17T15:11:51Z</time><extensions><speed>1.079734</speed><course>250.366501</course><hAcc>0.883264</hAcc><vAcc>0.698323</vAcc></extensions></trkpt>
      <trkpt lon="-4.106334" lat="53.011879"><ele>47.873669</ele><time>2021-07-17T15:11:52Z</time><extensions><speed>1.080265</speed><course>-1.000000</course><hAcc>0.883031</hAcc><vAcc>0.697416</vAcc></extensions></trkpt>
      <trkpt lon="-4.106320" lat="53.011884"><ele>47.803932</ele><time>2021-07-17T15:11:53Z</time><extensions><speed>1.071620</speed><course>232.063629</course><hAcc>0.882812</hAcc><vAcc>0.696533</vAcc></extensions></trkpt>
      <trkpt lon="-4.106308" lat="53.011890"><ele>47.735638</ele><time>2021-07-17T15:11:54Z</time><extensions><speed>1.054157</speed><course>232.063614</course><hAcc>0.882626</hAcc><vAcc>0.695758</vAcc></extensions></trkpt>
      <trkpt lon="-4.106295" lat="53.011895"><ele>47.668438</ele><time>2021-07-17T15:11:55Z</time><extensions><speed>1.028111</speed><course>232.063614</course><hAcc>0.882491</hAcc><vAcc>0.695174</vAcc></extensions></trkpt>
      <trkpt lon="-4.106283" lat="53.011901"><ele>47.602154</ele><time>2021-07-17T15:11:56Z</time><extensions><speed>0.994386</speed><course>232.063599</course><hAcc>0.882421</hAcc><vAcc>0.694850</vAcc></extensions></trkpt>
      <trkpt lon="-4.106272" lat="53.011906"><ele>47.536808</ele><time>2021-07-17T15:11:57Z</time><extensions><speed>0.954235</speed><course>232.063599</course><hAcc>0.882427</hAcc><vAcc>0.694835</vAcc></extensions></trkpt>
      <trkpt lon="-4.106261" lat="53.011912"><ele>47.472137</ele><time>2021-07-17T15:11:58Z</time><extensions><speed>0.908767</speed><course>232.063583</course><hAcc>0.882514</hAcc><vAcc>0.695150</vAcc></extensions></trkpt>
      <trkpt lon="-4.106252" lat="53.011917"><ele>47.407421</ele><time>2021-07-17T15:11:59Z</time><extensions><speed>0.858942</speed><course>232.063583</course><hAcc>0.882680</hAcc><vAcc>0.695782</vAcc></extensions></trkpt>
      <trkpt lon="-4.106243" lat="53.011922"><ele>47.341915</ele><time>2021-07-17T15:12:00Z</time><extensions><speed>0.805848</speed><course>248.555511</course><hAcc>0.882916</hAcc><vAcc>0.696685</vAcc></extensions></trkpt>
      <trkpt lon="-4.106235" lat="53.011927"><ele>47.275356</ele><time>2021-07-17T15:12:01Z</time><extensions><speed>0.750653</speed><course>214.727661</course><hAcc>0.883211</hAcc><vAcc>0.697792</vAcc></extensions></trkpt>
      <trkpt lon="-4.106227" lat="53.011932"><ele>47.207798</ele><time>2021-07-17T15:12:02Z</time><extensions><speed>0.695011</speed><course>215.656113</course><hAcc>0.883547</hAcc><vAcc>0.699025</vAcc></extensions></trkpt>
      <trkpt lon="-4.106221" lat="53.011937"><ele>47.139107</ele><time>2021-07-17T15:12:03Z</time><extensions><speed>0.640649</speed><course>205.637772</course><hAcc>0.883910</hAcc><vAcc>0.700311</vAcc></extensions></trkpt>
      <trkpt lon="-4.106215" lat="53.011941"><ele>47.069271</ele><time>2021-07-17T15:12:04Z</time><extensions><speed>0.587938</speed><course>201.575424</course><hAcc>0.884283</hAcc><vAcc>0.701591</vAcc></extensions></trkpt>
      <trkpt lon="-4.106210" lat="53.011945"><ele>46.998680</ele><time>2021-07-17T15:12:05Z</time><extensions><speed>0.535934</speed><course>196.854248</course><hAcc>0.884652</hAcc><vAcc>0.702821</vAcc></extensions></trkpt>
      <trkpt lon="-4.106206" lat="53.011949"><ele>46.927940</ele><time>2021-07-17T15:12:06Z</time><extensions><speed>0.484210</speed><course>198.264053</course><hAcc>0.885005</hAcc><vAcc>0.703969</vAcc></extensions></trkpt>
      <trkpt lon="-4.106202" lat="53.011953"><ele>46.857765</ele><time>2021-07-17T15:12:07Z</time><extensions><speed>0.434001</speed><course>198.636932</course><hAcc>0.885336</hAcc><vAcc>0.705014</vAcc></extensions></trkpt>
      <trkpt lon="-4.106200" lat="53.011956"><ele>46.788940</ele><time>2021-07-17T15:12:08Z</time><extensions><speed>0.387040</speed><course>192.727798</course><hAcc>0.885636</hAcc><vAcc>0.705947</vAcc></extensions></trkpt>
      <trkpt lon="-4.106197" lat="53.011959"><ele>46.722279</ele><time>2021-07-17T15:12:09Z</time><extensions><speed>0.344442</speed><course>184.691818</course><hAcc>0.885904</hAcc><vAcc>0.706764</vAcc></extensions></trkpt>
      <trkpt lon="-4.106195" lat="53.011961"><ele>46.658543</ele><time>2021-07-17T15:12:10Z</time><extensions><speed>0.306897</speed><course>177.917740</course><hAcc>0.886138</hAcc><vAcc>0.707469</vAcc></extensions></trkpt>
      <trkpt lon="-4.106194" lat="53.011964"><ele>46.598377</ele><time>2021-07-17T15:12:11Z</time><extensions><speed>0.275011</speed><course>169.935883</course><hAcc>0.886338</hAcc><vAcc>0.708065</vAcc></extensions></trkpt>
      <trkpt lon="-4.106192" lat="53.011966"><ele>46.542202</ele><time>2021-07-17T15:12:12Z</time><extensions><speed>0.249561</speed><course>168.290512</course><hAcc>0.886506</hAcc><vAcc>0.708560</vAcc></extensions></trkpt>
      <trkpt lon="-4.106191" lat="53.011968"><ele>46.490139</ele><time>2021-07-17T15:12:13Z</time><extensions><speed>0.231327</speed><course>175.847488</course><hAcc>0.886645</hAcc><vAcc>0.708965</vAcc></extensions></trkpt>
      <trkpt lon="-4.106190" lat="53.011970"><ele>46.441971</ele><time>2021-07-17T15:12:14Z</time><extensions><speed>0.221181</speed><course>182.489380</course><hAcc>0.886758</hAcc><vAcc>0.709291</vAcc></extensions></trkpt>
      <trkpt lon="-4.106189" lat="53.011972"><ele>46.397121</ele><time>2021-07-17T15:12:15Z</time><extensions><speed>0.220497</speed><course>193.224472</course><hAcc>0.886848</hAcc><vAcc>0.709549</vAcc></extensions></trkpt>
      <trkpt lon="-4.106188" lat="53.011974"><ele>46.354679</ele><time>2021-07-17T15:12:16Z</time><extensions><speed>0.231208</speed><course>210.457108</course><hAcc>0.886918</hAcc><vAcc>0.709747</vAcc></extensions></trkpt>
      <trkpt lon="-4.106186" lat="53.011976"><ele>46.313454</ele><time>2021-07-17T15:12:17Z</time><extensions><speed>0.254681</speed><course>227.054108</course><hAcc>0.886971</hAcc><vAcc>0.709894</vAcc></extensions></trkpt>
      <trkpt lon="-4.106184" lat="53.011978"><ele>46.272091</ele><time>2021-07-17T15:12:18Z</time><extensions><speed>0.290622</speed><course>247.666534</course><hAcc>0.887010</hAcc><vAcc>0.709994</vAcc></extensions></trkpt>
      <trkpt lon="-4.106181" lat="53.011980"><ele>46.229156</ele><time>2021-07-17T15:12:19Z</time><extensions><speed>0.337051</speed><course>261.197876</course><hAcc>0.887037</hAcc><vAcc>0.710056</vAcc></extensions></trkpt>
      <trkpt lon="-4.106177" lat="53.011982"><ele>46.183239</ele><time>2021-07-17T15:12:20Z</time><extensions><speed>0.390933</speed><course>263.217255</course><hAcc>0.887054</hAcc><vAcc>0.710089</vAcc></extensions></trkpt>
      <trkpt lon="-4.106173" lat="53.011985"><ele>46.133221</ele><time>2021-07-17T15:12:21Z</time><extensions><speed>0.448884</speed><course>271.463165</course><hAcc>0.887062</hAcc><vAcc>0.710101</vAcc></extensions></trkpt>
      <trkpt lon="-4.106168" lat="53.011988"><ele>46.078373</ele><time>2021-07-17T15:12:22Z</time><extensions><speed>0.507789</speed><course>281.991608</course><hAcc>0.887061</hAcc><vAcc>0.710103</vAcc></extensions></trkpt>
      <trkpt lon="-4.106162" lat="53.011992"><ele>46.018265</ele><time>2021-07-17T15:12:23Z</time><extensions><speed>0.564905</speed><course>285.895782</course><hAcc>0.887051</hAcc><vAcc>0.710093</vAcc></extensions></trkpt>
      <trkpt lon="-4.106156" lat="53.011995"><ele>45.952713</ele><time>2021-07-17T15:12:24Z</time><extensions><speed>0.617641</speed><course>287.327179</course><hAcc>0.887031</hAcc><vAcc>0.710063</vAcc></extensions></trkpt>
      <trkpt lon="-4.106150" lat="53.012000"><ele>45.881817</ele><time>2021-07-17T15:12:25Z</time><extensions><speed>0.663557</speed><course>297.396240</course><hAcc>0.887001</hAcc><vAcc>0.710002</vAcc></extensions></trkpt>
      <trkpt lon="-4.106143" lat="53.012004"><ele>45.805939</ele><time>2021-07-17T15:12:26Z</time><extensions><speed>0.700895</speed><course>299.473175</course><hAcc>0.886959</hAcc><vAcc>0.709902</vAcc></extensions></trkpt>
      <trkpt lon="-4.106137" lat="53.012009"><ele>45.725674</ele><time>2021-07-17T15:12:27Z</time><extensions><speed>0.728438</speed><course>297.683289</course><hAcc>0.886905</hAcc><vAcc>0.709754</vAcc></extensions></trkpt>
      <trkpt lon="-4.106130" lat="53.012015"><ele>45.641804</ele><time>2021-07-17T15:12:28Z</time><extensions><speed>0.745445</speed><course>292.365356</course><hAcc>0.886841</hAcc><vAcc>0.709555</vAcc></extensions></trkpt>
      <trkpt lon="-4.106124" lat="53.012020"><ele>45.555191</ele><time>2021-07-17T15:12:29Z</time><extensions><speed>0.751580</speed><course>291.092651</course><hAcc>0.886768</hAcc><vAcc>0.709304</vAcc></extensions></trkpt>
      <trkpt lon="-4.106118" lat="53.012026"><ele>45.466778</ele><time>2021-07-17T15:12:30Z</time><extensions><speed>0.747233</speed><course>297.007721</course><hAcc>0.886689</hAcc><vAcc>0.709012</vAcc></extensions></trkpt>
      <trkpt lon="-4.106112" lat="53.012032"><ele>45.377174</ele><time>2021-07-17T15:12:31Z</time><extensions><speed>0.733852</speed><course>291.539093</course><hAcc>0.886608</hAcc><vAcc>0.708693</vAcc></extensions></trkpt>
      <trkpt lon="-4.106107" lat="53.012038"><ele>45.286331</ele><time>2021-07-17T15:12:32Z</time><extensions><speed>0.713471</speed><course>293.314819</course><hAcc>0.886531</hAcc><vAcc>0.708370</vAcc></extensions></trkpt>
      <trkpt lon="-4.106103" lat="53.012043"><ele>45.193771</ele><time>2021-07-17T15:12:33Z</time><extensions><speed>0.688174</speed><course>297.043213</course><hAcc>0.886464</hAcc><vAcc>0.708069</vAcc></extensions></trkpt>
      <trkpt lon="-4.106100" lat="53.012049"><ele>45.098873</ele><time>2021-07-17T15:12:34Z</time><extensions><speed>0.659580</speed><course>301.573547</course><hAcc>0.886414</hAcc><vAcc>0.707823</vAcc></extensions></trkpt>
      <trkpt lon="-4.106097" lat="53.012055"><ele>45.000984</ele><time>2021-07-17T15:12:35Z</time><extensions><speed>0.629113</speed><course>305.542847</course><hAcc>0.886385</hAcc><vAcc>0.707662</vAcc></extensions></trkpt>
      <trkpt lon="-4.106095" lat="53.012060"><ele>44.899483</ele><time>2021-07-17T15:12:36Z</time><extensions><speed>0.598083</speed><course>304.461029</course><hAcc>0.886385</hAcc><vAcc>0.707609</vAcc></extensions></trkpt>
      <trkpt lon="-4.106094" lat="53.012065"><ele>44.793793</ele><time>2021-07-17T15:12:37Z</time><extensions><speed>0.567455</speed><course>304.519958</course><hAcc>0.886415</hAcc><vAcc>0.707676</vAcc></extensions></trkpt>
      <trkpt lon="-4.106094" lat="53.012070"><ele>44.683533</ele><time>2021-07-17T15:12:38Z</time><extensions><speed>0.537600</speed><course>306.835541</course><hAcc>0.886477</hAcc><vAcc>0.707867</vAcc></extensions></trkpt>
      <trkpt lon="-4.106095" lat="53.012075"><ele>44.568798</ele><time>2021-07-17T15:12:39Z</time><extensions><speed>0.508031</speed><course>312.924469</course><hAcc>0.886571</hAcc><vAcc>0.708182</vAcc></extensions></trkpt>
      <trkpt lon="-4.106096" lat="53.012079"><ele>44.450340</ele><time>2021-07-17T15:12:40Z</time><extensions><speed>0.477970</speed><course>313.121582</course><hAcc>0.886694</hAcc><vAcc>0.708615</vAcc></extensions></trkpt>
      <trkpt lon="-4.106098" lat="53.012083"><ele>44.329647</ele><time>2021-07-17T15:12:41Z</time><extensions><speed>0.446876</speed><course>312.363678</course><hAcc>0.886839</hAcc><vAcc>0.709157</vAcc></extensions></trkpt>
      <trkpt lon="-4.106100" lat="53.012087"><ele>44.208778</ele><time>2021-07-17T15:12:42Z</time><extensions><speed>0.414251</speed><course>309.905548</course><hAcc>0.887000</hAcc><vAcc>0.709785</vAcc></extensions></trkpt>
      <trkpt lon="-4.106103" lat="53.012090"><ele>44.090050</ele><time>2021-07-17T15:12:43Z</time><extensions><speed>0.379423</speed><course>308.597687</course><hAcc>0.887167</hAcc><vAcc>0.710469</vAcc></extensions></trkpt>
      <trkpt lon="-4.106106" lat="53.012093"><ele>43.975845</ele><time>2021-07-17T15:12:44Z</time><extensions><speed>0.342177</speed><course>307.103394</course><hAcc>0.887331</hAcc><vAcc>0.711165</vAcc></extensions></trkpt>
      <trkpt lon="-4.106109" lat="53.012095"><ele>43.868435</ele><time>2021-07-17T15:12:45Z</time><extensions><speed>0.303084</speed><course>306.897400</course><hAcc>0.887482</hAcc><vAcc>0.711816</vAcc></extensions></trkpt>
      <trkpt lon="-4.106111" lat="53.012097"><ele>43.769646</ele><time>2021-07-17T15:12:46Z</time><extensions><speed>0.263330</speed><course>302.152618</course><hAcc>0.887615</hAcc><vAcc>0.712363</vAcc></extensions></trkpt>
      <trkpt lon="-4.106114" lat="53.012099"><ele>43.680668</ele><time>2021-07-17T15:12:47Z</time><extensions><speed>0.224272</speed><course>297.726410</course><hAcc>0.887722</hAcc><vAcc>0.712757</vAcc></extensions></trkpt>
      <trkpt lon="-4.106116" lat="53.012100"><ele>43.602043</ele><time>2021-07-17T15:12:48Z</time><extensions><speed>0.187040</speed><course>300.194183</course><hAcc>0.887802</hAcc><vAcc>0.712975</vAcc></extensions></trkpt>
      <trkpt lon="-4.106118" lat="53.012101"><ele>43.533829</ele><time>2021-07-17T15:12:49Z</time><extensions><speed>0.152514</speed><course>297.151825</course><hAcc>0.887852</hAcc><vAcc>0.713026</vAcc></extensions></trkpt>
      <trkpt lon="-4.106119" lat="53.012102"><ele>43.475716</ele><time>2021-07-17T15:12:50Z</time><extensions><speed>0.121316</speed><course>298.399384</course><hAcc>0.887874</hAcc><vAcc>0.712946</vAcc></extensions></trkpt>
      <trkpt lon="-4.106121" lat="53.012102"><ele>43.427124</ele><time>2021-07-17T15:12:51Z</time><extensions><speed>0.093848</speed><course>300.837921</course><hAcc>0.887871</hAcc><vAcc>0.712780</vAcc></extensions></trkpt>
      <trkpt lon="-4.106122" lat="53.012102"><ele>43.387299</ele><time>2021-07-17T15:12:52Z</time><extensions><speed>0.070351</speed><course>299.844330</course><hAcc>0.887850</hAcc><vAcc>0.712573</vAcc></extensions></trkpt>
      <trkpt lon="-4.106123" lat="53.012103"><ele>43.355366</ele><time>2021-07-17T15:12:53Z</time><extensions><speed>0.050985</speed><course>300.001373</course><hAcc>0.887822</hAcc><vAcc>0.712363</vAcc></extensions></trkpt>
      <trkpt lon="-4.106123" lat="53.012103"><ele>43.330406</ele><time>2021-07-17T15:12:54Z</time><extensions><speed>0.035954</speed><course>294.568817</course><hAcc>0.887799</hAcc><vAcc>0.712188</vAcc></extensions></trkpt>
      <trkpt lon="-4.106124" lat="53.012103"><ele>43.311493</ele><time>2021-07-17T15:12:55Z</time><extensions><speed>0.025664</speed><course>300.687103</course><hAcc>0.887796</hAcc><vAcc>0.712075</vAcc></extensions></trkpt>
      <trkpt lon="-4.106124" lat="53.012103"><ele>43.297733</ele><time>2021-07-17T15:12:56Z</time><extensions><speed>0.020529</speed><course>297.691925</course><hAcc>0.887831</hAcc><vAcc>0.712053</vAcc></extensions></trkpt>
      <trkpt lon="-4.106124" lat="53.012102"><ele>43.288269</ele><time>2021-07-17T15:12:57Z</time><extensions><speed>0.019735</speed><course>293.928223</course><hAcc>0.887924</hAcc><vAcc>0.712145</vAcc></extensions></trkpt>
      <trkpt lon="-4.106124" lat="53.012102"><ele>43.282330</ele><time>2021-07-17T15:12:58Z</time><extensions><speed>0.020973</speed><course>297.041656</course><hAcc>0.888102</hAcc><vAcc>0.712376</vAcc></extensions></trkpt>
      <trkpt lon="-4.106124" lat="53.012102"><ele>43.279209</ele><time>2021-07-17T15:12:58Z</time><extensions><speed>0.022390</speed><course>298.722290</course><hAcc>0.888411</hAcc><vAcc>0.712784</vAcc></extensions></trkpt>
      <trkpt lon="-4.106124" lat="53.012102"><ele>43.278278</ele><time>2021-07-17T15:12:59Z</time><extensions><speed>0.023225</speed><course>296.674316</course><hAcc>0.888889</hAcc><vAcc>0.713392</vAcc></extensions></trkpt>
      <trkpt lon="-4.106124" lat="53.012102"><ele>43.279015</ele><time>2021-07-17T15:13:00Z</time><extensions><speed>0.023295</speed><course>301.147156</course><hAcc>0.889556</hAcc><vAcc>0.714211</vAcc></extensions></trkpt>
      <trkpt lon="-4.106124" lat="53.012102"><ele>43.280952</ele><time>2021-07-17T15:13:01Z</time><extensions><speed>0.022655</speed><course>301.618805</course><hAcc>0.890452</hAcc><vAcc>0.715256</vAcc></extensions></trkpt>
      <trkpt lon="-4.106124" lat="53.012101"><ele>43.283710</ele><time>2021-07-17T15:13:02Z</time><extensions><speed>0.021439</speed><course>300.678009</course><hAcc>0.891610</hAcc><vAcc>0.716532</vAcc></extensions></trkpt>
      <trkpt lon="-4.106124" lat="53.012101"><ele>43.286987</ele><time>2021-07-17T15:13:03Z</time><extensions><speed>0.019800</speed><course>306.078644</course><hAcc>0.893054</hAcc><vAcc>0.718024</vAcc></extensions></trkpt>
      <trkpt lon="-4.106124" lat="53.012101"><ele>43.290527</ele><time>2021-07-17T15:13:04Z</time><extensions><speed>0.017884</speed><course>302.099213</course><hAcc>0.894782</hAcc><vAcc>0.719691</vAcc></extensions></trkpt>
      <trkpt lon="-4.106124" lat="53.012101"><ele>43.294140</ele><time>2021-07-17T15:13:05Z</time><extensions><speed>0.015818</speed><course>298.253754</course><hAcc>0.896759</hAcc><vAcc>0.721460</vAcc></extensions></trkpt>
      <trkpt lon="-4.106124" lat="53.012101"><ele>43.297680</ele><time>2021-07-17T15:13:06Z</time><extensions><speed>0.013711</speed><course>299.772583</course><hAcc>0.898907</hAcc><vAcc>0.723225</vAcc></extensions></trkpt>
      <trkpt lon="-4.106123" lat="53.012101"><ele>43.301048</ele><time>2021-07-17T15:13:07Z</time><extensions><speed>0.011645</speed><course>299.946075</course><hAcc>0.901095</hAcc><vAcc>0.724848</vAcc></extensions></trkpt>
      <trkpt lon="-4.106123" lat="53.012101"><ele>43.304173</ele><time>2021-07-17T15:13:08Z</time><extensions><speed>0.009685</speed><course>303.968170</course><hAcc>0.903147</hAcc><vAcc>0.726183</vAcc></extensions></trkpt>
      <trkpt lon="-4.106123" lat="53.012101"><ele>43.307014</ele><time>2021-07-17T15:13:09Z</time><extensions><speed>0.007876</speed><course>302.223755</course><hAcc>0.904862</hAcc><vAcc>0.727105</vAcc></extensions></trkpt>
      <trkpt lon="-4.106123" lat="53.012100"><ele>43.309555</ele><time>2021-07-17T15:13:10Z</time><extensions><speed>0.006248</speed><course>303.590851</course><hAcc>0.906068</hAcc><vAcc>0.727575</vAcc></extensions></trkpt>
      <trkpt lon="-4.106123" lat="53.012100"><ele>43.311798</ele><time>2021-07-17T15:13:11Z</time><extensions><speed>0.004817</speed><course>302.656281</course><hAcc>0.906723</hAcc><vAcc>0.727737</vAcc></extensions></trkpt>
      <trkpt lon="-4.106123" lat="53.012100"><ele>43.313751</ele><time>2021-07-17T15:13:13Z</time><extensions><speed>0.003586</speed><course>307.857574</course><hAcc>0.907065</hAcc><vAcc>0.728047</vAcc></extensions></trkpt>
      <trkpt lon="-4.106123" lat="53.012100"><ele>43.315437</ele><time>2021-07-17T15:13:14Z</time><extensions><speed>0.002558</speed><course>306.241272</course><hAcc>0.907906</hAcc><vAcc>0.729497</vAcc></extensions></trkpt>
      <trkpt lon="-4.106123" lat="53.012100"><ele>43.316891</ele><time>2021-07-17T15:13:15Z</time><extensions><speed>0.001723</speed><course>302.560516</course><hAcc>0.910989</hAcc><vAcc>0.733852</vAcc></extensions></trkpt>
      <trkpt lon="-4.106123" lat="53.012100"><ele>43.318138</ele><time>2021-07-17T15:13:16Z</time><extensions><speed>0.001069</speed><course>304.207947</course><hAcc>0.919390</hAcc><vAcc>0.743857</vAcc></extensions></trkpt>
      <trkpt lon="-4.106123" lat="53.012100"><ele>43.319221</ele><time>2021-07-17T15:13:17Z</time><extensions><speed>0.000591</speed><course>304.678192</course><hAcc>0.937942</hAcc><vAcc>0.763390</vAcc></extensions></trkpt>
      <trkpt lon="-4.106123" lat="53.012100"><ele>43.320171</ele><time>2021-07-17T15:13:18Z</time><extensions><speed>0.000319</speed><course>300.816559</course><hAcc>0.973363</hAcc><vAcc>0.797321</vAcc></extensions></trkpt>
      <trkpt lon="-4.106123" lat="53.012100"><ele>43.321022</ele><time>2021-07-17T15:13:19Z</time><extensions><speed>0.000309</speed><course>302.457642</course><hAcc>1.033738</hAcc><vAcc>0.850961</vAcc></extensions></trkpt>
      <trkpt lon="-4.106123" lat="53.012100"><ele>43.321800</ele><time>2021-07-17T15:13:20Z</time><extensions><speed>0.000401</speed><course>303.405792</course><hAcc>1.127209</hAcc><vAcc>0.929168</vAcc></extensions></trkpt>
      <trkpt lon="-4.106123" lat="53.012100"><ele>43.322533</ele><time>2021-07-17T15:13:21Z</time><extensions><speed>0.000470</speed><course>305.179382</course><hAcc>1.260245</hAcc><vAcc>1.035432</vAcc></extensions></trkpt>
      <trkpt lon="-4.106123" lat="53.012100"><ele>43.323246</ele><time>2021-07-17T15:13:22Z</time><extensions><speed>0.000503</speed><course>301.811188</course><hAcc>1.436360</hAcc><vAcc>1.171359</vAcc></extensions></trkpt>
      <trkpt lon="-4.106123" lat="53.012100"><ele>43.323944</ele><time>2021-07-17T15:13:23Z</time><extensions><speed>0.000511</speed><course>294.111877</course><hAcc>1.655746</hAcc><vAcc>1.336633</vAcc></extensions></trkpt>
    </trkseg>
  </trk>
</gpx>